<?xml version="1.0" encoding="UTF-8" standalone="no" ?>
<gpx xmlns="http://www.topografix.com/GPX/1/1" xmlns:xsi="http://www.w3.org/2001/XMLSchema-instance" xsi:schemaLocation="http://www.topografix.com/GPX/1/1 http://www.topografix.com/GPX/1/1/gpx.xsd" version="1.1" creator="VisuGPX - https://www.visugpx.com">
  <metadata>
    <name>2017 CAUSSWATTS</name>
  </metadata>
  <trk>
    <name><![CDATA[causwatts 01-peyreleau-dourbies]]></name>
    <trkseg>
      <trkpt lat="44.17678" lon="3.2092">
        <ele>715</ele>
        <time>2017-02-27T14:44:05Z</time>
      </trkpt>
      <trkpt lat="44.1767" lon="3.20922">
        <ele>715</ele>
        <time>2017-02-27T14:46:05Z</time>
      </trkpt>
      <trkpt lat="44.17667" lon="3.20922">
        <ele>714</ele>
        <time>2017-02-27T14:48:05Z</time>
      </trkpt>
      <trkpt lat="44.17667" lon="3.20922">
        <ele>714</ele>
        <time>2017-02-27T14:50:05Z</time>
      </trkpt>
      <trkpt lat="44.17666" lon="3.20927">
        <ele>715</ele>
        <time>2017-02-27T14:52:05Z</time>
      </trkpt>
      <trkpt lat="44.17665" lon="3.20929">
        <ele>715</ele>
        <time>2017-02-27T14:54:05Z</time>
      </trkpt>
      <trkpt lat="44.17664" lon="3.20932">
        <ele>715</ele>
        <time>2017-02-27T14:56:05Z</time>
      </trkpt>
      <trkpt lat="44.17662" lon="3.20936">
        <ele>716</ele>
        <time>2017-02-27T14:58:05Z</time>
      </trkpt>
      <trkpt lat="44.17658" lon="3.20944">
        <ele>716</ele>
        <time>2017-02-27T15:00:05Z</time>
      </trkpt>
      <trkpt lat="44.17644" lon="3.20964">
        <ele>718</ele>
        <time>2017-02-27T15:02:05Z</time>
      </trkpt>
      <trkpt lat="44.17636" lon="3.20978">
        <ele>718</ele>
        <time>2017-02-27T15:04:05Z</time>
      </trkpt>
      <trkpt lat="44.1763" lon="3.20994">
        <ele>719</ele>
        <time>2017-02-27T15:06:05Z</time>
      </trkpt>
      <trkpt lat="44.17627" lon="3.21002">
        <ele>719</ele>
        <time>2017-02-27T15:08:05Z</time>
      </trkpt>
      <trkpt lat="44.1762" lon="3.21017">
        <ele>720</ele>
        <time>2017-02-27T15:10:05Z</time>
      </trkpt>
      <trkpt lat="44.17612" lon="3.2103">
        <ele>721</ele>
        <time>2017-02-27T15:12:05Z</time>
      </trkpt>
      <trkpt lat="44.17604" lon="3.21043">
        <ele>722</ele>
        <time>2017-02-27T15:14:05Z</time>
      </trkpt>
      <trkpt lat="44.17592" lon="3.21061">
        <ele>722</ele>
        <time>2017-02-27T15:16:05Z</time>
      </trkpt>
      <trkpt lat="44.1758" lon="3.21077">
        <ele>723</ele>
        <time>2017-02-27T15:18:05Z</time>
      </trkpt>
      <trkpt lat="44.17567" lon="3.21092">
        <ele>723</ele>
        <time>2017-02-27T15:20:05Z</time>
      </trkpt>
      <trkpt lat="44.1756" lon="3.21099">
        <ele>723</ele>
        <time>2017-02-27T15:22:05Z</time>
      </trkpt>
      <trkpt lat="44.17544" lon="3.21116">
        <ele>723</ele>
        <time>2017-02-27T15:24:05Z</time>
      </trkpt>
      <trkpt lat="44.17535" lon="3.21127">
        <ele>723</ele>
        <time>2017-02-27T15:26:05Z</time>
      </trkpt>
      <trkpt lat="44.17531" lon="3.21137">
        <ele>723</ele>
        <time>2017-02-27T15:28:05Z</time>
      </trkpt>
      <trkpt lat="44.17529" lon="3.21147">
        <ele>723</ele>
        <time>2017-02-27T15:30:05Z</time>
      </trkpt>
      <trkpt lat="44.17531" lon="3.21158">
        <ele>724</ele>
        <time>2017-02-27T15:32:05Z</time>
      </trkpt>
      <trkpt lat="44.17531" lon="3.21158">
        <ele>724</ele>
        <time>2017-02-27T15:34:05Z</time>
      </trkpt>
      <trkpt lat="44.17516" lon="3.21166">
        <ele>724</ele>
        <time>2017-02-27T15:36:05Z</time>
      </trkpt>
      <trkpt lat="44.17508" lon="3.21169">
        <ele>723</ele>
        <time>2017-02-27T15:38:05Z</time>
      </trkpt>
      <trkpt lat="44.17506" lon="3.21171">
        <ele>723</ele>
        <time>2017-02-27T15:40:05Z</time>
      </trkpt>
      <trkpt lat="44.17503" lon="3.21174">
        <ele>723</ele>
        <time>2017-02-27T15:42:05Z</time>
      </trkpt>
      <trkpt lat="44.17496" lon="3.21177">
        <ele>723</ele>
        <time>2017-02-27T15:44:05Z</time>
      </trkpt>
      <trkpt lat="44.17487" lon="3.21182">
        <ele>722</ele>
        <time>2017-02-27T15:46:05Z</time>
      </trkpt>
      <trkpt lat="44.17474" lon="3.21191">
        <ele>722</ele>
        <time>2017-02-27T15:48:05Z</time>
      </trkpt>
      <trkpt lat="44.17468" lon="3.21196">
        <ele>721</ele>
        <time>2017-02-27T15:50:05Z</time>
      </trkpt>
      <trkpt lat="44.17462" lon="3.21198">
        <ele>721</ele>
        <time>2017-02-27T15:52:05Z</time>
      </trkpt>
      <trkpt lat="44.17455" lon="3.21199">
        <ele>721</ele>
        <time>2017-02-27T15:54:05Z</time>
      </trkpt>
      <trkpt lat="44.17446" lon="3.21199">
        <ele>721</ele>
        <time>2017-02-27T15:56:05Z</time>
      </trkpt>
      <trkpt lat="44.17435" lon="3.21197">
        <ele>720</ele>
        <time>2017-02-27T15:58:05Z</time>
      </trkpt>
      <trkpt lat="44.17426" lon="3.21195">
        <ele>720</ele>
        <time>2017-02-27T16:00:05Z</time>
      </trkpt>
      <trkpt lat="44.17424" lon="3.21194">
        <ele>720</ele>
        <time>2017-02-27T16:02:05Z</time>
      </trkpt>
      <trkpt lat="44.17409" lon="3.21207">
        <ele>720</ele>
        <time>2017-02-27T16:04:05Z</time>
      </trkpt>
      <trkpt lat="44.17389" lon="3.21221">
        <ele>721</ele>
        <time>2017-02-27T16:06:05Z</time>
      </trkpt>
      <trkpt lat="44.17372" lon="3.21232">
        <ele>722</ele>
        <time>2017-02-27T16:08:05Z</time>
      </trkpt>
      <trkpt lat="44.17358" lon="3.21243">
        <ele>723</ele>
        <time>2017-02-27T16:10:05Z</time>
      </trkpt>
      <trkpt lat="44.17354" lon="3.21247">
        <ele>724</ele>
        <time>2017-02-27T16:12:05Z</time>
      </trkpt>
      <trkpt lat="44.17354" lon="3.21247">
        <ele>724</ele>
        <time>2017-02-27T16:14:05Z</time>
      </trkpt>
      <trkpt lat="44.17356" lon="3.21257">
        <ele>723</ele>
        <time>2017-02-27T16:16:05Z</time>
      </trkpt>
      <trkpt lat="44.17359" lon="3.2127">
        <ele>722</ele>
        <time>2017-02-27T16:18:05Z</time>
      </trkpt>
      <trkpt lat="44.17362" lon="3.21289">
        <ele>721</ele>
        <time>2017-02-27T16:20:05Z</time>
      </trkpt>
      <trkpt lat="44.17364" lon="3.21314">
        <ele>720</ele>
        <time>2017-02-27T16:22:05Z</time>
      </trkpt>
      <trkpt lat="44.17368" lon="3.21348">
        <ele>720</ele>
        <time>2017-02-27T16:24:05Z</time>
      </trkpt>
      <trkpt lat="44.17374" lon="3.21406">
        <ele>722</ele>
        <time>2017-02-27T16:26:05Z</time>
      </trkpt>
      <trkpt lat="44.17378" lon="3.21432">
        <ele>724</ele>
        <time>2017-02-27T16:28:05Z</time>
      </trkpt>
      <trkpt lat="44.17378" lon="3.21438">
        <ele>724</ele>
        <time>2017-02-27T16:30:05Z</time>
      </trkpt>
      <trkpt lat="44.17377" lon="3.21443">
        <ele>725</ele>
        <time>2017-02-27T16:32:05Z</time>
      </trkpt>
      <trkpt lat="44.17375" lon="3.21454">
        <ele>726</ele>
        <time>2017-02-27T16:34:05Z</time>
      </trkpt>
      <trkpt lat="44.17371" lon="3.21466">
        <ele>727</ele>
        <time>2017-02-27T16:36:05Z</time>
      </trkpt>
      <trkpt lat="44.17367" lon="3.21478">
        <ele>728</ele>
        <time>2017-02-27T16:38:05Z</time>
      </trkpt>
      <trkpt lat="44.17365" lon="3.21487">
        <ele>728</ele>
        <time>2017-02-27T16:40:05Z</time>
      </trkpt>
      <trkpt lat="44.17358" lon="3.21499">
        <ele>729</ele>
        <time>2017-02-27T16:42:05Z</time>
      </trkpt>
      <trkpt lat="44.17351" lon="3.21516">
        <ele>731</ele>
        <time>2017-02-27T16:44:05Z</time>
      </trkpt>
      <trkpt lat="44.17344" lon="3.2153">
        <ele>733</ele>
        <time>2017-02-27T16:46:05Z</time>
      </trkpt>
      <trkpt lat="44.17338" lon="3.21539">
        <ele>734</ele>
        <time>2017-02-27T16:48:05Z</time>
      </trkpt>
      <trkpt lat="44.17333" lon="3.21546">
        <ele>735</ele>
        <time>2017-02-27T16:50:05Z</time>
      </trkpt>
      <trkpt lat="44.17329" lon="3.21549">
        <ele>736</ele>
        <time>2017-02-27T16:52:05Z</time>
      </trkpt>
      <trkpt lat="44.17318" lon="3.21552">
        <ele>735</ele>
        <time>2017-02-27T16:54:05Z</time>
      </trkpt>
      <trkpt lat="44.1731" lon="3.21556">
        <ele>736</ele>
        <time>2017-02-27T16:56:05Z</time>
      </trkpt>
      <trkpt lat="44.173" lon="3.2156">
        <ele>735</ele>
        <time>2017-02-27T16:58:05Z</time>
      </trkpt>
      <trkpt lat="44.17292" lon="3.21568">
        <ele>736</ele>
        <time>2017-02-27T17:00:05Z</time>
      </trkpt>
      <trkpt lat="44.17284" lon="3.21578">
        <ele>737</ele>
        <time>2017-02-27T17:02:05Z</time>
      </trkpt>
      <trkpt lat="44.17273" lon="3.21587">
        <ele>737</ele>
        <time>2017-02-27T17:04:05Z</time>
      </trkpt>
      <trkpt lat="44.1726" lon="3.21597">
        <ele>738</ele>
        <time>2017-02-27T17:06:05Z</time>
      </trkpt>
      <trkpt lat="44.17255" lon="3.21602">
        <ele>739</ele>
        <time>2017-02-27T17:08:05Z</time>
      </trkpt>
      <trkpt lat="44.17252" lon="3.21609">
        <ele>741</ele>
        <time>2017-02-27T17:10:05Z</time>
      </trkpt>
      <trkpt lat="44.1724" lon="3.21617">
        <ele>743</ele>
        <time>2017-02-27T17:12:05Z</time>
      </trkpt>
      <trkpt lat="44.17226" lon="3.21627">
        <ele>745</ele>
        <time>2017-02-27T17:14:05Z</time>
      </trkpt>
      <trkpt lat="44.17212" lon="3.21635">
        <ele>746</ele>
        <time>2017-02-27T17:16:05Z</time>
      </trkpt>
      <trkpt lat="44.172" lon="3.2164">
        <ele>746</ele>
        <time>2017-02-27T17:18:05Z</time>
      </trkpt>
      <trkpt lat="44.1719" lon="3.21644">
        <ele>747</ele>
        <time>2017-02-27T17:20:05Z</time>
      </trkpt>
      <trkpt lat="44.17182" lon="3.21651">
        <ele>748</ele>
        <time>2017-02-27T17:22:05Z</time>
      </trkpt>
      <trkpt lat="44.17175" lon="3.21659">
        <ele>748</ele>
        <time>2017-02-27T17:24:05Z</time>
      </trkpt>
      <trkpt lat="44.17173" lon="3.21663">
        <ele>749</ele>
        <time>2017-02-27T17:26:05Z</time>
      </trkpt>
      <trkpt lat="44.17171" lon="3.2167">
        <ele>750</ele>
        <time>2017-02-27T17:28:05Z</time>
      </trkpt>
      <trkpt lat="44.1717" lon="3.21678">
        <ele>752</ele>
        <time>2017-02-27T17:30:05Z</time>
      </trkpt>
      <trkpt lat="44.17168" lon="3.21687">
        <ele>754</ele>
        <time>2017-02-27T17:32:05Z</time>
      </trkpt>
      <trkpt lat="44.17164" lon="3.21691">
        <ele>755</ele>
        <time>2017-02-27T17:34:05Z</time>
      </trkpt>
      <trkpt lat="44.17158" lon="3.21694">
        <ele>756</ele>
        <time>2017-02-27T17:36:05Z</time>
      </trkpt>
      <trkpt lat="44.1715" lon="3.21695">
        <ele>756</ele>
        <time>2017-02-27T17:38:05Z</time>
      </trkpt>
      <trkpt lat="44.17135" lon="3.21692">
        <ele>755</ele>
        <time>2017-02-27T17:40:05Z</time>
      </trkpt>
      <trkpt lat="44.17121" lon="3.21688">
        <ele>755</ele>
        <time>2017-02-27T17:42:05Z</time>
      </trkpt>
      <trkpt lat="44.17114" lon="3.21685">
        <ele>754</ele>
        <time>2017-02-27T17:44:05Z</time>
      </trkpt>
      <trkpt lat="44.17103" lon="3.21685">
        <ele>754</ele>
        <time>2017-02-27T17:46:05Z</time>
      </trkpt>
      <trkpt lat="44.17098" lon="3.21687">
        <ele>755</ele>
        <time>2017-02-27T17:48:05Z</time>
      </trkpt>
      <trkpt lat="44.17092" lon="3.21688">
        <ele>755</ele>
        <time>2017-02-27T17:50:05Z</time>
      </trkpt>
      <trkpt lat="44.1709" lon="3.2169">
        <ele>756</ele>
        <time>2017-02-27T17:52:05Z</time>
      </trkpt>
      <trkpt lat="44.17086" lon="3.21694">
        <ele>757</ele>
        <time>2017-02-27T17:54:05Z</time>
      </trkpt>
      <trkpt lat="44.17081" lon="3.21704">
        <ele>759</ele>
        <time>2017-02-27T17:56:05Z</time>
      </trkpt>
      <trkpt lat="44.17075" lon="3.2171">
        <ele>760</ele>
        <time>2017-02-27T17:58:05Z</time>
      </trkpt>
      <trkpt lat="44.17065" lon="3.21716">
        <ele>762</ele>
        <time>2017-02-27T18:00:05Z</time>
      </trkpt>
      <trkpt lat="44.17053" lon="3.21722">
        <ele>763</ele>
        <time>2017-02-27T18:02:05Z</time>
      </trkpt>
      <trkpt lat="44.1704" lon="3.21727">
        <ele>764</ele>
        <time>2017-02-27T18:04:05Z</time>
      </trkpt>
      <trkpt lat="44.17032" lon="3.2173">
        <ele>765</ele>
        <time>2017-02-27T18:06:05Z</time>
      </trkpt>
      <trkpt lat="44.17026" lon="3.21733">
        <ele>766</ele>
        <time>2017-02-27T18:08:05Z</time>
      </trkpt>
      <trkpt lat="44.17022" lon="3.21733">
        <ele>766</ele>
        <time>2017-02-27T18:10:05Z</time>
      </trkpt>
      <trkpt lat="44.17017" lon="3.21733">
        <ele>766</ele>
        <time>2017-02-27T18:12:05Z</time>
      </trkpt>
      <trkpt lat="44.17013" lon="3.21734">
        <ele>766</ele>
        <time>2017-02-27T18:14:05Z</time>
      </trkpt>
      <trkpt lat="44.1701" lon="3.21736">
        <ele>767</ele>
        <time>2017-02-27T18:16:05Z</time>
      </trkpt>
      <trkpt lat="44.17007" lon="3.21735">
        <ele>767</ele>
        <time>2017-02-27T18:18:05Z</time>
      </trkpt>
      <trkpt lat="44.16998" lon="3.21736">
        <ele>767</ele>
        <time>2017-02-27T18:20:05Z</time>
      </trkpt>
      <trkpt lat="44.16989" lon="3.21735">
        <ele>768</ele>
        <time>2017-02-27T18:22:05Z</time>
      </trkpt>
      <trkpt lat="44.16978" lon="3.21737">
        <ele>770</ele>
        <time>2017-02-27T18:24:05Z</time>
      </trkpt>
      <trkpt lat="44.16965" lon="3.21741">
        <ele>772</ele>
        <time>2017-02-27T18:26:05Z</time>
      </trkpt>
      <trkpt lat="44.16955" lon="3.21745">
        <ele>774</ele>
        <time>2017-02-27T18:28:05Z</time>
      </trkpt>
      <trkpt lat="44.16949" lon="3.21746">
        <ele>774</ele>
        <time>2017-02-27T18:30:05Z</time>
      </trkpt>
      <trkpt lat="44.16944" lon="3.21746">
        <ele>775</ele>
        <time>2017-02-27T18:32:05Z</time>
      </trkpt>
      <trkpt lat="44.16933" lon="3.21747">
        <ele>776</ele>
        <time>2017-02-27T18:34:05Z</time>
      </trkpt>
      <trkpt lat="44.16929" lon="3.21747">
        <ele>777</ele>
        <time>2017-02-27T18:36:05Z</time>
      </trkpt>
      <trkpt lat="44.16925" lon="3.21747">
        <ele>777</ele>
        <time>2017-02-27T18:38:05Z</time>
      </trkpt>
      <trkpt lat="44.1692" lon="3.21749">
        <ele>778</ele>
        <time>2017-02-27T18:40:05Z</time>
      </trkpt>
      <trkpt lat="44.16907" lon="3.21753">
        <ele>779</ele>
        <time>2017-02-27T18:42:05Z</time>
      </trkpt>
      <trkpt lat="44.16903" lon="3.21752">
        <ele>779</ele>
        <time>2017-02-27T18:44:05Z</time>
      </trkpt>
      <trkpt lat="44.16895" lon="3.21749">
        <ele>779</ele>
        <time>2017-02-27T18:46:05Z</time>
      </trkpt>
      <trkpt lat="44.16888" lon="3.21748">
        <ele>780</ele>
        <time>2017-02-27T18:48:05Z</time>
      </trkpt>
      <trkpt lat="44.16885" lon="3.21748">
        <ele>780</ele>
        <time>2017-02-27T18:50:05Z</time>
      </trkpt>
      <trkpt lat="44.16876" lon="3.21752">
        <ele>781</ele>
        <time>2017-02-27T18:52:05Z</time>
      </trkpt>
      <trkpt lat="44.16867" lon="3.21757">
        <ele>782</ele>
        <time>2017-02-27T18:54:05Z</time>
      </trkpt>
      <trkpt lat="44.16856" lon="3.21762">
        <ele>783</ele>
        <time>2017-02-27T18:56:05Z</time>
      </trkpt>
      <trkpt lat="44.16848" lon="3.21768">
        <ele>784</ele>
        <time>2017-02-27T18:58:05Z</time>
      </trkpt>
      <trkpt lat="44.16839" lon="3.21773">
        <ele>785</ele>
        <time>2017-02-27T19:00:05Z</time>
      </trkpt>
      <trkpt lat="44.16832" lon="3.21776">
        <ele>785</ele>
        <time>2017-02-27T19:02:05Z</time>
      </trkpt>
      <trkpt lat="44.16826" lon="3.21776">
        <ele>785</ele>
        <time>2017-02-27T19:04:05Z</time>
      </trkpt>
      <trkpt lat="44.1682" lon="3.21779">
        <ele>785</ele>
        <time>2017-02-27T19:06:05Z</time>
      </trkpt>
      <trkpt lat="44.16815" lon="3.21781">
        <ele>785</ele>
        <time>2017-02-27T19:08:05Z</time>
      </trkpt>
      <trkpt lat="44.16811" lon="3.21782">
        <ele>785</ele>
        <time>2017-02-27T19:10:05Z</time>
      </trkpt>
      <trkpt lat="44.16808" lon="3.21781">
        <ele>785</ele>
        <time>2017-02-27T19:12:05Z</time>
      </trkpt>
      <trkpt lat="44.16805" lon="3.21779">
        <ele>785</ele>
        <time>2017-02-27T19:14:05Z</time>
      </trkpt>
      <trkpt lat="44.16803" lon="3.21776">
        <ele>784</ele>
        <time>2017-02-27T19:16:05Z</time>
      </trkpt>
      <trkpt lat="44.16801" lon="3.21775">
        <ele>784</ele>
        <time>2017-02-27T19:18:05Z</time>
      </trkpt>
      <trkpt lat="44.16797" lon="3.21777">
        <ele>784</ele>
        <time>2017-02-27T19:20:05Z</time>
      </trkpt>
      <trkpt lat="44.16791" lon="3.2178">
        <ele>784</ele>
        <time>2017-02-27T19:22:05Z</time>
      </trkpt>
      <trkpt lat="44.16771" lon="3.21793">
        <ele>784</ele>
        <time>2017-02-27T19:24:05Z</time>
      </trkpt>
      <trkpt lat="44.16762" lon="3.21798">
        <ele>784</ele>
        <time>2017-02-27T19:26:05Z</time>
      </trkpt>
      <trkpt lat="44.16754" lon="3.21806">
        <ele>784</ele>
        <time>2017-02-27T19:28:05Z</time>
      </trkpt>
      <trkpt lat="44.16747" lon="3.21811">
        <ele>784</ele>
        <time>2017-02-27T19:30:05Z</time>
      </trkpt>
      <trkpt lat="44.16741" lon="3.21816">
        <ele>783</ele>
        <time>2017-02-27T19:32:05Z</time>
      </trkpt>
      <trkpt lat="44.16737" lon="3.2182">
        <ele>783</ele>
        <time>2017-02-27T19:34:05Z</time>
      </trkpt>
      <trkpt lat="44.16729" lon="3.21827">
        <ele>783</ele>
        <time>2017-02-27T19:36:05Z</time>
      </trkpt>
      <trkpt lat="44.16725" lon="3.21827">
        <ele>783</ele>
        <time>2017-02-27T19:38:05Z</time>
      </trkpt>
      <trkpt lat="44.1672" lon="3.21825">
        <ele>782</ele>
        <time>2017-02-27T19:40:05Z</time>
      </trkpt>
      <trkpt lat="44.16715" lon="3.2182">
        <ele>782</ele>
        <time>2017-02-27T19:42:05Z</time>
      </trkpt>
      <trkpt lat="44.16712" lon="3.21817">
        <ele>781</ele>
        <time>2017-02-27T19:44:05Z</time>
      </trkpt>
      <trkpt lat="44.16709" lon="3.21818">
        <ele>781</ele>
        <time>2017-02-27T19:46:05Z</time>
      </trkpt>
      <trkpt lat="44.16707" lon="3.21819">
        <ele>781</ele>
        <time>2017-02-27T19:48:05Z</time>
      </trkpt>
      <trkpt lat="44.16704" lon="3.21826">
        <ele>781</ele>
        <time>2017-02-27T19:50:05Z</time>
      </trkpt>
      <trkpt lat="44.16701" lon="3.2183">
        <ele>781</ele>
        <time>2017-02-27T19:52:05Z</time>
      </trkpt>
      <trkpt lat="44.16696" lon="3.21833">
        <ele>780</ele>
        <time>2017-02-27T19:54:05Z</time>
      </trkpt>
      <trkpt lat="44.16693" lon="3.21835">
        <ele>780</ele>
        <time>2017-02-27T19:56:05Z</time>
      </trkpt>
      <trkpt lat="44.16691" lon="3.21838">
        <ele>780</ele>
        <time>2017-02-27T19:58:05Z</time>
      </trkpt>
      <trkpt lat="44.16689" lon="3.21844">
        <ele>780</ele>
        <time>2017-02-27T20:00:05Z</time>
      </trkpt>
      <trkpt lat="44.16686" lon="3.21849">
        <ele>780</ele>
        <time>2017-02-27T20:02:05Z</time>
      </trkpt>
      <trkpt lat="44.16684" lon="3.21856">
        <ele>780</ele>
        <time>2017-02-27T20:04:05Z</time>
      </trkpt>
      <trkpt lat="44.1668" lon="3.21864">
        <ele>780</ele>
        <time>2017-02-27T20:06:05Z</time>
      </trkpt>
      <trkpt lat="44.16677" lon="3.21868">
        <ele>780</ele>
        <time>2017-02-27T20:08:05Z</time>
      </trkpt>
      <trkpt lat="44.16676" lon="3.21873">
        <ele>780</ele>
        <time>2017-02-27T20:10:05Z</time>
      </trkpt>
      <trkpt lat="44.16677" lon="3.21877">
        <ele>780</ele>
        <time>2017-02-27T20:12:05Z</time>
      </trkpt>
      <trkpt lat="44.16677" lon="3.21884">
        <ele>780</ele>
        <time>2017-02-27T20:14:05Z</time>
      </trkpt>
      <trkpt lat="44.16676" lon="3.2189">
        <ele>780</ele>
        <time>2017-02-27T20:16:05Z</time>
      </trkpt>
      <trkpt lat="44.16675" lon="3.21897">
        <ele>780</ele>
        <time>2017-02-27T20:18:05Z</time>
      </trkpt>
      <trkpt lat="44.16674" lon="3.21904">
        <ele>780</ele>
        <time>2017-02-27T20:20:05Z</time>
      </trkpt>
      <trkpt lat="44.16675" lon="3.21913">
        <ele>781</ele>
        <time>2017-02-27T20:22:05Z</time>
      </trkpt>
      <trkpt lat="44.16675" lon="3.21913">
        <ele>781</ele>
        <time>2017-02-27T20:24:05Z</time>
      </trkpt>
      <trkpt lat="44.16663" lon="3.21919">
        <ele>780</ele>
        <time>2017-02-27T20:26:05Z</time>
      </trkpt>
      <trkpt lat="44.16655" lon="3.21922">
        <ele>780</ele>
        <time>2017-02-27T20:28:05Z</time>
      </trkpt>
      <trkpt lat="44.16647" lon="3.21924">
        <ele>781</ele>
        <time>2017-02-27T20:30:05Z</time>
      </trkpt>
      <trkpt lat="44.1664" lon="3.21926">
        <ele>781</ele>
        <time>2017-02-27T20:32:05Z</time>
      </trkpt>
      <trkpt lat="44.16632" lon="3.21931">
        <ele>781</ele>
        <time>2017-02-27T20:34:05Z</time>
      </trkpt>
      <trkpt lat="44.16623" lon="3.21939">
        <ele>782</ele>
        <time>2017-02-27T20:36:05Z</time>
      </trkpt>
      <trkpt lat="44.16615" lon="3.21943">
        <ele>782</ele>
        <time>2017-02-27T20:38:05Z</time>
      </trkpt>
      <trkpt lat="44.16607" lon="3.21944">
        <ele>782</ele>
        <time>2017-02-27T20:40:05Z</time>
      </trkpt>
      <trkpt lat="44.16599" lon="3.21945">
        <ele>782</ele>
        <time>2017-02-27T20:42:05Z</time>
      </trkpt>
      <trkpt lat="44.16591" lon="3.21948">
        <ele>783</ele>
        <time>2017-02-27T20:44:05Z</time>
      </trkpt>
      <trkpt lat="44.16585" lon="3.21952">
        <ele>783</ele>
        <time>2017-02-27T20:46:05Z</time>
      </trkpt>
      <trkpt lat="44.16575" lon="3.21958">
        <ele>783</ele>
        <time>2017-02-27T20:48:05Z</time>
      </trkpt>
      <trkpt lat="44.16568" lon="3.21958">
        <ele>784</ele>
        <time>2017-02-27T20:50:05Z</time>
      </trkpt>
      <trkpt lat="44.16565" lon="3.21958">
        <ele>784</ele>
        <time>2017-02-27T20:52:05Z</time>
      </trkpt>
      <trkpt lat="44.16559" lon="3.21954">
        <ele>784</ele>
        <time>2017-02-27T20:54:05Z</time>
      </trkpt>
      <trkpt lat="44.16551" lon="3.21952">
        <ele>784</ele>
        <time>2017-02-27T20:56:05Z</time>
      </trkpt>
      <trkpt lat="44.16546" lon="3.21953">
        <ele>784</ele>
        <time>2017-02-27T20:58:05Z</time>
      </trkpt>
      <trkpt lat="44.1654" lon="3.21955">
        <ele>785</ele>
        <time>2017-02-27T21:00:05Z</time>
      </trkpt>
      <trkpt lat="44.16535" lon="3.21959">
        <ele>785</ele>
        <time>2017-02-27T21:02:05Z</time>
      </trkpt>
      <trkpt lat="44.16525" lon="3.21966">
        <ele>786</ele>
        <time>2017-02-27T21:04:05Z</time>
      </trkpt>
      <trkpt lat="44.16515" lon="3.21971">
        <ele>787</ele>
        <time>2017-02-27T21:06:05Z</time>
      </trkpt>
      <trkpt lat="44.16506" lon="3.21977">
        <ele>788</ele>
        <time>2017-02-27T21:08:05Z</time>
      </trkpt>
      <trkpt lat="44.16502" lon="3.21978">
        <ele>788</ele>
        <time>2017-02-27T21:10:05Z</time>
      </trkpt>
      <trkpt lat="44.16497" lon="3.21978">
        <ele>788</ele>
        <time>2017-02-27T21:12:05Z</time>
      </trkpt>
      <trkpt lat="44.16492" lon="3.21977">
        <ele>788</ele>
        <time>2017-02-27T21:14:05Z</time>
      </trkpt>
      <trkpt lat="44.16482" lon="3.21976">
        <ele>788</ele>
        <time>2017-02-27T21:16:05Z</time>
      </trkpt>
      <trkpt lat="44.16464" lon="3.21976">
        <ele>789</ele>
        <time>2017-02-27T21:18:05Z</time>
      </trkpt>
      <trkpt lat="44.16452" lon="3.21977">
        <ele>789</ele>
        <time>2017-02-27T21:20:05Z</time>
      </trkpt>
      <trkpt lat="44.16448" lon="3.21979">
        <ele>789</ele>
        <time>2017-02-27T21:22:05Z</time>
      </trkpt>
      <trkpt lat="44.16444" lon="3.21982">
        <ele>789</ele>
        <time>2017-02-27T21:24:05Z</time>
      </trkpt>
      <trkpt lat="44.16436" lon="3.21987">
        <ele>790</ele>
        <time>2017-02-27T21:26:05Z</time>
      </trkpt>
      <trkpt lat="44.16428" lon="3.21992">
        <ele>790</ele>
        <time>2017-02-27T21:28:05Z</time>
      </trkpt>
      <trkpt lat="44.16418" lon="3.21995">
        <ele>791</ele>
        <time>2017-02-27T21:30:05Z</time>
      </trkpt>
      <trkpt lat="44.16411" lon="3.21996">
        <ele>791</ele>
        <time>2017-02-27T21:32:05Z</time>
      </trkpt>
      <trkpt lat="44.16406" lon="3.21995">
        <ele>791</ele>
        <time>2017-02-27T21:34:05Z</time>
      </trkpt>
      <trkpt lat="44.16402" lon="3.21993">
        <ele>792</ele>
        <time>2017-02-27T21:36:05Z</time>
      </trkpt>
      <trkpt lat="44.16396" lon="3.21986">
        <ele>792</ele>
        <time>2017-02-27T21:38:05Z</time>
      </trkpt>
      <trkpt lat="44.16387" lon="3.21969">
        <ele>791</ele>
        <time>2017-02-27T21:40:05Z</time>
      </trkpt>
      <trkpt lat="44.16383" lon="3.21963">
        <ele>791</ele>
        <time>2017-02-27T21:42:05Z</time>
      </trkpt>
      <trkpt lat="44.1638" lon="3.21959">
        <ele>791</ele>
        <time>2017-02-27T21:44:05Z</time>
      </trkpt>
      <trkpt lat="44.16377" lon="3.21957">
        <ele>792</ele>
        <time>2017-02-27T21:46:05Z</time>
      </trkpt>
      <trkpt lat="44.16371" lon="3.21957">
        <ele>792</ele>
        <time>2017-02-27T21:48:05Z</time>
      </trkpt>
      <trkpt lat="44.16365" lon="3.21961">
        <ele>793</ele>
        <time>2017-02-27T21:50:05Z</time>
      </trkpt>
      <trkpt lat="44.16359" lon="3.21969">
        <ele>793</ele>
        <time>2017-02-27T21:52:05Z</time>
      </trkpt>
      <trkpt lat="44.16348" lon="3.21983">
        <ele>795</ele>
        <time>2017-02-27T21:54:05Z</time>
      </trkpt>
      <trkpt lat="44.16342" lon="3.21992">
        <ele>795</ele>
        <time>2017-02-27T21:56:05Z</time>
      </trkpt>
      <trkpt lat="44.16338" lon="3.21996">
        <ele>796</ele>
        <time>2017-02-27T21:58:05Z</time>
      </trkpt>
      <trkpt lat="44.16334" lon="3.21996">
        <ele>796</ele>
        <time>2017-02-27T22:00:05Z</time>
      </trkpt>
      <trkpt lat="44.1633" lon="3.21994">
        <ele>796</ele>
        <time>2017-02-27T22:02:05Z</time>
      </trkpt>
      <trkpt lat="44.16328" lon="3.21992">
        <ele>796</ele>
        <time>2017-02-27T22:04:05Z</time>
      </trkpt>
      <trkpt lat="44.16324" lon="3.21991">
        <ele>796</ele>
        <time>2017-02-27T22:06:05Z</time>
      </trkpt>
      <trkpt lat="44.16319" lon="3.21991">
        <ele>796</ele>
        <time>2017-02-27T22:08:05Z</time>
      </trkpt>
      <trkpt lat="44.16321" lon="3.2199">
        <ele>796</ele>
        <time>2017-02-27T22:10:05Z</time>
      </trkpt>
      <trkpt lat="44.16195" lon="3.21556">
        <ele>777</ele>
        <time>2017-02-27T22:12:05Z</time>
      </trkpt>
      <trkpt lat="44.15998" lon="3.21689">
        <ele>777</ele>
        <time>2017-02-27T22:14:05Z</time>
      </trkpt>
      <trkpt lat="44.15841" lon="3.2129">
        <ele>739</ele>
        <time>2017-02-27T22:16:05Z</time>
      </trkpt>
      <trkpt lat="44.15835" lon="3.21277">
        <ele>738</ele>
        <time>2017-02-27T22:18:05Z</time>
      </trkpt>
      <trkpt lat="44.15832" lon="3.2128">
        <ele>738</ele>
        <time>2017-02-27T22:20:05Z</time>
      </trkpt>
      <trkpt lat="44.15824" lon="3.21291">
        <ele>738</ele>
        <time>2017-02-27T22:22:05Z</time>
      </trkpt>
      <trkpt lat="44.15821" lon="3.213">
        <ele>738</ele>
        <time>2017-02-27T22:24:05Z</time>
      </trkpt>
      <trkpt lat="44.15817" lon="3.21314">
        <ele>738</ele>
        <time>2017-02-27T22:26:05Z</time>
      </trkpt>
      <trkpt lat="44.15812" lon="3.21341">
        <ele>738</ele>
        <time>2017-02-27T22:28:05Z</time>
      </trkpt>
      <trkpt lat="44.15807" lon="3.21373">
        <ele>739</ele>
        <time>2017-02-27T22:30:05Z</time>
      </trkpt>
      <trkpt lat="44.15802" lon="3.21411">
        <ele>740</ele>
        <time>2017-02-27T22:32:05Z</time>
      </trkpt>
      <trkpt lat="44.15796" lon="3.21438">
        <ele>740</ele>
        <time>2017-02-27T22:34:05Z</time>
      </trkpt>
      <trkpt lat="44.15792" lon="3.21454">
        <ele>740</ele>
        <time>2017-02-27T22:36:05Z</time>
      </trkpt>
      <trkpt lat="44.15788" lon="3.21463">
        <ele>739</ele>
        <time>2017-02-27T22:38:05Z</time>
      </trkpt>
      <trkpt lat="44.15782" lon="3.21472">
        <ele>739</ele>
        <time>2017-02-27T22:40:05Z</time>
      </trkpt>
      <trkpt lat="44.15773" lon="3.2148">
        <ele>738</ele>
        <time>2017-02-27T22:42:05Z</time>
      </trkpt>
      <trkpt lat="44.15762" lon="3.21494">
        <ele>736</ele>
        <time>2017-02-27T22:44:05Z</time>
      </trkpt>
      <trkpt lat="44.1575" lon="3.21512">
        <ele>734</ele>
        <time>2017-02-27T22:46:05Z</time>
      </trkpt>
      <trkpt lat="44.15742" lon="3.21529">
        <ele>735</ele>
        <time>2017-02-27T22:48:05Z</time>
      </trkpt>
      <trkpt lat="44.15734" lon="3.21549">
        <ele>735</ele>
        <time>2017-02-27T22:50:05Z</time>
      </trkpt>
      <trkpt lat="44.15726" lon="3.21578">
        <ele>734</ele>
        <time>2017-02-27T22:52:05Z</time>
      </trkpt>
      <trkpt lat="44.1572" lon="3.216">
        <ele>733</ele>
        <time>2017-02-27T22:54:05Z</time>
      </trkpt>
      <trkpt lat="44.15717" lon="3.2162">
        <ele>731</ele>
        <time>2017-02-27T22:56:05Z</time>
      </trkpt>
      <trkpt lat="44.15718" lon="3.21639">
        <ele>729</ele>
        <time>2017-02-27T22:58:05Z</time>
      </trkpt>
      <trkpt lat="44.15719" lon="3.21657">
        <ele>728</ele>
        <time>2017-02-27T23:00:05Z</time>
      </trkpt>
      <trkpt lat="44.15724" lon="3.21682">
        <ele>724</ele>
        <time>2017-02-27T23:02:05Z</time>
      </trkpt>
      <trkpt lat="44.15727" lon="3.217">
        <ele>722</ele>
        <time>2017-02-27T23:04:05Z</time>
      </trkpt>
      <trkpt lat="44.15729" lon="3.21713">
        <ele>721</ele>
        <time>2017-02-27T23:06:05Z</time>
      </trkpt>
      <trkpt lat="44.15729" lon="3.21721">
        <ele>720</ele>
        <time>2017-02-27T23:08:05Z</time>
      </trkpt>
      <trkpt lat="44.15727" lon="3.21728">
        <ele>719</ele>
        <time>2017-02-27T23:10:05Z</time>
      </trkpt>
      <trkpt lat="44.15723" lon="3.21732">
        <ele>718</ele>
        <time>2017-02-27T23:12:05Z</time>
      </trkpt>
      <trkpt lat="44.15717" lon="3.21736">
        <ele>717</ele>
        <time>2017-02-27T23:14:05Z</time>
      </trkpt>
      <trkpt lat="44.15707" lon="3.21738">
        <ele>717</ele>
        <time>2017-02-27T23:16:05Z</time>
      </trkpt>
      <trkpt lat="44.15695" lon="3.21739">
        <ele>716</ele>
        <time>2017-02-27T23:18:05Z</time>
      </trkpt>
      <trkpt lat="44.15681" lon="3.21741">
        <ele>715</ele>
        <time>2017-02-27T23:20:05Z</time>
      </trkpt>
      <trkpt lat="44.15672" lon="3.21744">
        <ele>714</ele>
        <time>2017-02-27T23:22:05Z</time>
      </trkpt>
      <trkpt lat="44.15657" lon="3.21752">
        <ele>712</ele>
        <time>2017-02-27T23:24:05Z</time>
      </trkpt>
      <trkpt lat="44.15645" lon="3.2176">
        <ele>712</ele>
        <time>2017-02-27T23:26:05Z</time>
      </trkpt>
      <trkpt lat="44.15633" lon="3.21764">
        <ele>711</ele>
        <time>2017-02-27T23:28:05Z</time>
      </trkpt>
      <trkpt lat="44.15633" lon="3.21764">
        <ele>711</ele>
        <time>2017-02-27T23:30:05Z</time>
      </trkpt>
      <trkpt lat="44.15637" lon="3.21767">
        <ele>711</ele>
        <time>2017-02-27T23:32:05Z</time>
      </trkpt>
      <trkpt lat="44.15642" lon="3.21768">
        <ele>711</ele>
        <time>2017-02-27T23:34:05Z</time>
      </trkpt>
      <trkpt lat="44.1565" lon="3.21767">
        <ele>711</ele>
        <time>2017-02-27T23:36:05Z</time>
      </trkpt>
      <trkpt lat="44.15663" lon="3.21765">
        <ele>711</ele>
        <time>2017-02-27T23:38:05Z</time>
      </trkpt>
      <trkpt lat="44.15676" lon="3.21763">
        <ele>712</ele>
        <time>2017-02-27T23:40:05Z</time>
      </trkpt>
      <trkpt lat="44.15684" lon="3.21761">
        <ele>713</ele>
        <time>2017-02-27T23:42:05Z</time>
      </trkpt>
      <trkpt lat="44.15691" lon="3.21761">
        <ele>714</ele>
        <time>2017-02-27T23:44:05Z</time>
      </trkpt>
      <trkpt lat="44.15696" lon="3.21762">
        <ele>714</ele>
        <time>2017-02-27T23:46:05Z</time>
      </trkpt>
      <trkpt lat="44.15701" lon="3.21765">
        <ele>714</ele>
        <time>2017-02-27T23:48:05Z</time>
      </trkpt>
      <trkpt lat="44.15707" lon="3.21769">
        <ele>715</ele>
        <time>2017-02-27T23:50:05Z</time>
      </trkpt>
      <trkpt lat="44.1571" lon="3.21776">
        <ele>715</ele>
        <time>2017-02-27T23:52:05Z</time>
      </trkpt>
      <trkpt lat="44.1571" lon="3.2178">
        <ele>715</ele>
        <time>2017-02-27T23:54:05Z</time>
      </trkpt>
      <trkpt lat="44.1571" lon="3.21784">
        <ele>715</ele>
        <time>2017-02-27T23:56:05Z</time>
      </trkpt>
      <trkpt lat="44.15707" lon="3.21791">
        <ele>714</ele>
        <time>2017-02-27T23:58:05Z</time>
      </trkpt>
      <trkpt lat="44.15701" lon="3.21799">
        <ele>714</ele>
        <time>2017-02-28T00:00:05Z</time>
      </trkpt>
      <trkpt lat="44.15692" lon="3.21812">
        <ele>712</ele>
        <time>2017-02-28T00:02:05Z</time>
      </trkpt>
      <trkpt lat="44.1569" lon="3.21817">
        <ele>712</ele>
        <time>2017-02-28T00:04:05Z</time>
      </trkpt>
      <trkpt lat="44.15689" lon="3.21823">
        <ele>712</ele>
        <time>2017-02-28T00:06:05Z</time>
      </trkpt>
      <trkpt lat="44.1569" lon="3.21833">
        <ele>712</ele>
        <time>2017-02-28T00:08:05Z</time>
      </trkpt>
      <trkpt lat="44.15695" lon="3.21846">
        <ele>714</ele>
        <time>2017-02-28T00:10:05Z</time>
      </trkpt>
      <trkpt lat="44.15703" lon="3.21864">
        <ele>717</ele>
        <time>2017-02-28T00:12:05Z</time>
      </trkpt>
      <trkpt lat="44.15713" lon="3.21883">
        <ele>720</ele>
        <time>2017-02-28T00:14:05Z</time>
      </trkpt>
      <trkpt lat="44.15719" lon="3.2189">
        <ele>721</ele>
        <time>2017-02-28T00:16:05Z</time>
      </trkpt>
      <trkpt lat="44.15733" lon="3.21905">
        <ele>721</ele>
        <time>2017-02-28T00:18:05Z</time>
      </trkpt>
      <trkpt lat="44.15743" lon="3.21915">
        <ele>721</ele>
        <time>2017-02-28T00:20:05Z</time>
      </trkpt>
      <trkpt lat="44.15752" lon="3.21924">
        <ele>721</ele>
        <time>2017-02-28T00:22:05Z</time>
      </trkpt>
      <trkpt lat="44.15756" lon="3.21932">
        <ele>723</ele>
        <time>2017-02-28T00:24:05Z</time>
      </trkpt>
      <trkpt lat="44.15758" lon="3.21939">
        <ele>724</ele>
        <time>2017-02-28T00:26:05Z</time>
      </trkpt>
      <trkpt lat="44.15759" lon="3.21944">
        <ele>725</ele>
        <time>2017-02-28T00:28:05Z</time>
      </trkpt>
      <trkpt lat="44.1576" lon="3.2195">
        <ele>725</ele>
        <time>2017-02-28T00:30:05Z</time>
      </trkpt>
      <trkpt lat="44.15759" lon="3.21955">
        <ele>725</ele>
        <time>2017-02-28T00:32:05Z</time>
      </trkpt>
      <trkpt lat="44.15757" lon="3.21957">
        <ele>725</ele>
        <time>2017-02-28T00:34:05Z</time>
      </trkpt>
      <trkpt lat="44.15757" lon="3.21957">
        <ele>725</ele>
        <time>2017-02-28T00:36:05Z</time>
      </trkpt>
      <trkpt lat="44.15755" lon="3.21956">
        <ele>725</ele>
        <time>2017-02-28T00:38:05Z</time>
      </trkpt>
      <trkpt lat="44.15753" lon="3.21954">
        <ele>724</ele>
        <time>2017-02-28T00:40:05Z</time>
      </trkpt>
      <trkpt lat="44.15747" lon="3.21945">
        <ele>723</ele>
        <time>2017-02-28T00:42:05Z</time>
      </trkpt>
      <trkpt lat="44.15743" lon="3.2194">
        <ele>723</ele>
        <time>2017-02-28T00:44:05Z</time>
      </trkpt>
      <trkpt lat="44.15738" lon="3.21935">
        <ele>724</ele>
        <time>2017-02-28T00:46:05Z</time>
      </trkpt>
      <trkpt lat="44.15732" lon="3.21931">
        <ele>724</ele>
        <time>2017-02-28T00:48:05Z</time>
      </trkpt>
      <trkpt lat="44.15722" lon="3.21924">
        <ele>724</ele>
        <time>2017-02-28T00:50:05Z</time>
      </trkpt>
      <trkpt lat="44.15712" lon="3.21917">
        <ele>724</ele>
        <time>2017-02-28T00:52:05Z</time>
      </trkpt>
      <trkpt lat="44.157" lon="3.21909">
        <ele>724</ele>
        <time>2017-02-28T00:54:05Z</time>
      </trkpt>
      <trkpt lat="44.15691" lon="3.21902">
        <ele>723</ele>
        <time>2017-02-28T00:56:05Z</time>
      </trkpt>
      <trkpt lat="44.15683" lon="3.21896">
        <ele>723</ele>
        <time>2017-02-28T00:58:05Z</time>
      </trkpt>
      <trkpt lat="44.15676" lon="3.21887">
        <ele>721</ele>
        <time>2017-02-28T01:00:05Z</time>
      </trkpt>
      <trkpt lat="44.15669" lon="3.21879">
        <ele>719</ele>
        <time>2017-02-28T01:02:05Z</time>
      </trkpt>
      <trkpt lat="44.15666" lon="3.21875">
        <ele>719</ele>
        <time>2017-02-28T01:04:05Z</time>
      </trkpt>
      <trkpt lat="44.15663" lon="3.21873">
        <ele>718</ele>
        <time>2017-02-28T01:06:05Z</time>
      </trkpt>
      <trkpt lat="44.15658" lon="3.21871">
        <ele>718</ele>
        <time>2017-02-28T01:08:05Z</time>
      </trkpt>
      <trkpt lat="44.15652" lon="3.21873">
        <ele>719</ele>
        <time>2017-02-28T01:10:05Z</time>
      </trkpt>
      <trkpt lat="44.15633" lon="3.21879">
        <ele>721</ele>
        <time>2017-02-28T01:12:05Z</time>
      </trkpt>
      <trkpt lat="44.15617" lon="3.21885">
        <ele>723</ele>
        <time>2017-02-28T01:14:05Z</time>
      </trkpt>
      <trkpt lat="44.15608" lon="3.21888">
        <ele>725</ele>
        <time>2017-02-28T01:16:05Z</time>
      </trkpt>
      <trkpt lat="44.15598" lon="3.21889">
        <ele>726</ele>
        <time>2017-02-28T01:18:05Z</time>
      </trkpt>
      <trkpt lat="44.15587" lon="3.21891">
        <ele>727</ele>
        <time>2017-02-28T01:20:05Z</time>
      </trkpt>
      <trkpt lat="44.15579" lon="3.21892">
        <ele>728</ele>
        <time>2017-02-28T01:22:05Z</time>
      </trkpt>
      <trkpt lat="44.15568" lon="3.21895">
        <ele>729</ele>
        <time>2017-02-28T01:24:05Z</time>
      </trkpt>
      <trkpt lat="44.15558" lon="3.21897">
        <ele>730</ele>
        <time>2017-02-28T01:26:05Z</time>
      </trkpt>
      <trkpt lat="44.15549" lon="3.21898">
        <ele>731</ele>
        <time>2017-02-28T01:28:05Z</time>
      </trkpt>
      <trkpt lat="44.15529" lon="3.21898">
        <ele>732</ele>
        <time>2017-02-28T01:30:05Z</time>
      </trkpt>
      <trkpt lat="44.15509" lon="3.21895">
        <ele>732</ele>
        <time>2017-02-28T01:32:05Z</time>
      </trkpt>
      <trkpt lat="44.15488" lon="3.21892">
        <ele>732</ele>
        <time>2017-02-28T01:34:05Z</time>
      </trkpt>
      <trkpt lat="44.15477" lon="3.21891">
        <ele>732</ele>
        <time>2017-02-28T01:36:05Z</time>
      </trkpt>
      <trkpt lat="44.15471" lon="3.21892">
        <ele>732</ele>
        <time>2017-02-28T01:38:05Z</time>
      </trkpt>
      <trkpt lat="44.15465" lon="3.21894">
        <ele>733</ele>
        <time>2017-02-28T01:40:05Z</time>
      </trkpt>
      <trkpt lat="44.15463" lon="3.21894">
        <ele>733</ele>
        <time>2017-02-28T01:42:05Z</time>
      </trkpt>
      <trkpt lat="44.15456" lon="3.21897">
        <ele>734</ele>
        <time>2017-02-28T01:44:05Z</time>
      </trkpt>
      <trkpt lat="44.15445" lon="3.21905">
        <ele>736</ele>
        <time>2017-02-28T01:46:05Z</time>
      </trkpt>
      <trkpt lat="44.15431" lon="3.21913">
        <ele>739</ele>
        <time>2017-02-28T01:48:05Z</time>
      </trkpt>
      <trkpt lat="44.15418" lon="3.21922">
        <ele>741</ele>
        <time>2017-02-28T01:50:05Z</time>
      </trkpt>
      <trkpt lat="44.15406" lon="3.21929">
        <ele>741</ele>
        <time>2017-02-28T01:52:05Z</time>
      </trkpt>
      <trkpt lat="44.15401" lon="3.21932">
        <ele>741</ele>
        <time>2017-02-28T01:54:05Z</time>
      </trkpt>
      <trkpt lat="44.15397" lon="3.21935">
        <ele>740</ele>
        <time>2017-02-28T01:56:05Z</time>
      </trkpt>
      <trkpt lat="44.15392" lon="3.21941">
        <ele>741</ele>
        <time>2017-02-28T01:58:05Z</time>
      </trkpt>
      <trkpt lat="44.15385" lon="3.21955">
        <ele>742</ele>
        <time>2017-02-28T02:00:05Z</time>
      </trkpt>
      <trkpt lat="44.15376" lon="3.21975">
        <ele>744</ele>
        <time>2017-02-28T02:02:05Z</time>
      </trkpt>
      <trkpt lat="44.15371" lon="3.21981">
        <ele>744</ele>
        <time>2017-02-28T02:04:05Z</time>
      </trkpt>
      <trkpt lat="44.15365" lon="3.21986">
        <ele>744</ele>
        <time>2017-02-28T02:06:05Z</time>
      </trkpt>
      <trkpt lat="44.15359" lon="3.21991">
        <ele>744</ele>
        <time>2017-02-28T02:08:05Z</time>
      </trkpt>
      <trkpt lat="44.15354" lon="3.21995">
        <ele>743</ele>
        <time>2017-02-28T02:10:05Z</time>
      </trkpt>
      <trkpt lat="44.15347" lon="3.22002">
        <ele>743</ele>
        <time>2017-02-28T02:12:05Z</time>
      </trkpt>
      <trkpt lat="44.15342" lon="3.22009">
        <ele>743</ele>
        <time>2017-02-28T02:14:05Z</time>
      </trkpt>
      <trkpt lat="44.15336" lon="3.22019">
        <ele>743</ele>
        <time>2017-02-28T02:16:05Z</time>
      </trkpt>
      <trkpt lat="44.1533" lon="3.22034">
        <ele>742</ele>
        <time>2017-02-28T02:18:05Z</time>
      </trkpt>
      <trkpt lat="44.15327" lon="3.22048">
        <ele>743</ele>
        <time>2017-02-28T02:20:05Z</time>
      </trkpt>
      <trkpt lat="44.15324" lon="3.22065">
        <ele>743</ele>
        <time>2017-02-28T02:22:05Z</time>
      </trkpt>
      <trkpt lat="44.15322" lon="3.22077">
        <ele>743</ele>
        <time>2017-02-28T02:24:05Z</time>
      </trkpt>
      <trkpt lat="44.15321" lon="3.22086">
        <ele>744</ele>
        <time>2017-02-28T02:26:05Z</time>
      </trkpt>
      <trkpt lat="44.1532" lon="3.221">
        <ele>745</ele>
        <time>2017-02-28T02:28:05Z</time>
      </trkpt>
      <trkpt lat="44.1532" lon="3.22112">
        <ele>746</ele>
        <time>2017-02-28T02:30:05Z</time>
      </trkpt>
      <trkpt lat="44.15317" lon="3.22123">
        <ele>746</ele>
        <time>2017-02-28T02:32:05Z</time>
      </trkpt>
      <trkpt lat="44.15313" lon="3.22137">
        <ele>746</ele>
        <time>2017-02-28T02:34:05Z</time>
      </trkpt>
      <trkpt lat="44.15309" lon="3.22152">
        <ele>746</ele>
        <time>2017-02-28T02:36:05Z</time>
      </trkpt>
      <trkpt lat="44.15307" lon="3.22169">
        <ele>747</ele>
        <time>2017-02-28T02:38:05Z</time>
      </trkpt>
      <trkpt lat="44.15305" lon="3.22185">
        <ele>746</ele>
        <time>2017-02-28T02:40:05Z</time>
      </trkpt>
      <trkpt lat="44.15305" lon="3.22193">
        <ele>746</ele>
        <time>2017-02-28T02:42:05Z</time>
      </trkpt>
      <trkpt lat="44.15307" lon="3.22202">
        <ele>746</ele>
        <time>2017-02-28T02:44:05Z</time>
      </trkpt>
      <trkpt lat="44.15311" lon="3.22211">
        <ele>747</ele>
        <time>2017-02-28T02:46:05Z</time>
      </trkpt>
      <trkpt lat="44.15315" lon="3.22219">
        <ele>747</ele>
        <time>2017-02-28T02:48:05Z</time>
      </trkpt>
      <trkpt lat="44.15319" lon="3.22223">
        <ele>748</ele>
        <time>2017-02-28T02:50:05Z</time>
      </trkpt>
      <trkpt lat="44.15331" lon="3.2223">
        <ele>751</ele>
        <time>2017-02-28T02:52:05Z</time>
      </trkpt>
      <trkpt lat="44.15355" lon="3.22245">
        <ele>755</ele>
        <time>2017-02-28T02:54:05Z</time>
      </trkpt>
      <trkpt lat="44.15376" lon="3.2226">
        <ele>757</ele>
        <time>2017-02-28T02:56:05Z</time>
      </trkpt>
      <trkpt lat="44.1539" lon="3.2227">
        <ele>759</ele>
        <time>2017-02-28T02:58:05Z</time>
      </trkpt>
      <trkpt lat="44.15394" lon="3.22275">
        <ele>759</ele>
        <time>2017-02-28T03:00:05Z</time>
      </trkpt>
      <trkpt lat="44.15401" lon="3.22286">
        <ele>759</ele>
        <time>2017-02-28T03:02:05Z</time>
      </trkpt>
      <trkpt lat="44.1541" lon="3.22301">
        <ele>758</ele>
        <time>2017-02-28T03:04:05Z</time>
      </trkpt>
      <trkpt lat="44.15417" lon="3.22311">
        <ele>759</ele>
        <time>2017-02-28T03:06:05Z</time>
      </trkpt>
      <trkpt lat="44.15422" lon="3.22317">
        <ele>759</ele>
        <time>2017-02-28T03:08:05Z</time>
      </trkpt>
      <trkpt lat="44.15431" lon="3.22324">
        <ele>760</ele>
        <time>2017-02-28T03:10:05Z</time>
      </trkpt>
      <trkpt lat="44.15446" lon="3.22335">
        <ele>761</ele>
        <time>2017-02-28T03:12:05Z</time>
      </trkpt>
      <trkpt lat="44.15458" lon="3.22344">
        <ele>762</ele>
        <time>2017-02-28T03:14:05Z</time>
      </trkpt>
      <trkpt lat="44.15465" lon="3.22348">
        <ele>763</ele>
        <time>2017-02-28T03:16:05Z</time>
      </trkpt>
      <trkpt lat="44.15477" lon="3.22353">
        <ele>765</ele>
        <time>2017-02-28T03:18:05Z</time>
      </trkpt>
      <trkpt lat="44.15489" lon="3.22358">
        <ele>767</ele>
        <time>2017-02-28T03:20:05Z</time>
      </trkpt>
      <trkpt lat="44.155" lon="3.22364">
        <ele>769</ele>
        <time>2017-02-28T03:22:05Z</time>
      </trkpt>
      <trkpt lat="44.15508" lon="3.22369">
        <ele>770</ele>
        <time>2017-02-28T03:24:05Z</time>
      </trkpt>
      <trkpt lat="44.15512" lon="3.22374">
        <ele>771</ele>
        <time>2017-02-28T03:26:05Z</time>
      </trkpt>
      <trkpt lat="44.15522" lon="3.22387">
        <ele>771</ele>
        <time>2017-02-28T03:28:05Z</time>
      </trkpt>
      <trkpt lat="44.15536" lon="3.22408">
        <ele>773</ele>
        <time>2017-02-28T03:30:05Z</time>
      </trkpt>
      <trkpt lat="44.15549" lon="3.22426">
        <ele>775</ele>
        <time>2017-02-28T03:32:05Z</time>
      </trkpt>
      <trkpt lat="44.15565" lon="3.22445">
        <ele>777</ele>
        <time>2017-02-28T03:34:05Z</time>
      </trkpt>
      <trkpt lat="44.15573" lon="3.22457">
        <ele>779</ele>
        <time>2017-02-28T03:36:05Z</time>
      </trkpt>
      <trkpt lat="44.15576" lon="3.22463">
        <ele>779</ele>
        <time>2017-02-28T03:38:05Z</time>
      </trkpt>
      <trkpt lat="44.1558" lon="3.22475">
        <ele>779</ele>
        <time>2017-02-28T03:40:05Z</time>
      </trkpt>
      <trkpt lat="44.15586" lon="3.22489">
        <ele>780</ele>
        <time>2017-02-28T03:42:05Z</time>
      </trkpt>
      <trkpt lat="44.15594" lon="3.22503">
        <ele>780</ele>
        <time>2017-02-28T03:44:05Z</time>
      </trkpt>
      <trkpt lat="44.15601" lon="3.22517">
        <ele>780</ele>
        <time>2017-02-28T03:46:05Z</time>
      </trkpt>
      <trkpt lat="44.15612" lon="3.22534">
        <ele>780</ele>
        <time>2017-02-28T03:48:05Z</time>
      </trkpt>
      <trkpt lat="44.15622" lon="3.22548">
        <ele>781</ele>
        <time>2017-02-28T03:50:05Z</time>
      </trkpt>
      <trkpt lat="44.15631" lon="3.22563">
        <ele>781</ele>
        <time>2017-02-28T03:52:05Z</time>
      </trkpt>
      <trkpt lat="44.15636" lon="3.22571">
        <ele>781</ele>
        <time>2017-02-28T03:54:05Z</time>
      </trkpt>
      <trkpt lat="44.15641" lon="3.22576">
        <ele>782</ele>
        <time>2017-02-28T03:56:05Z</time>
      </trkpt>
      <trkpt lat="44.15647" lon="3.2258">
        <ele>784</ele>
        <time>2017-02-28T03:58:05Z</time>
      </trkpt>
      <trkpt lat="44.15653" lon="3.22601">
        <ele>783</ele>
        <time>2017-02-28T04:00:05Z</time>
      </trkpt>
      <trkpt lat="44.15661" lon="3.22625">
        <ele>783</ele>
        <time>2017-02-28T04:02:05Z</time>
      </trkpt>
      <trkpt lat="44.15667" lon="3.22649">
        <ele>783</ele>
        <time>2017-02-28T04:04:05Z</time>
      </trkpt>
      <trkpt lat="44.15669" lon="3.22661">
        <ele>782</ele>
        <time>2017-02-28T04:06:05Z</time>
      </trkpt>
      <trkpt lat="44.15669" lon="3.22672">
        <ele>781</ele>
        <time>2017-02-28T04:08:05Z</time>
      </trkpt>
      <trkpt lat="44.15666" lon="3.22682">
        <ele>781</ele>
        <time>2017-02-28T04:10:05Z</time>
      </trkpt>
      <trkpt lat="44.15664" lon="3.22687">
        <ele>780</ele>
        <time>2017-02-28T04:12:05Z</time>
      </trkpt>
      <trkpt lat="44.15659" lon="3.22694">
        <ele>779</ele>
        <time>2017-02-28T04:14:05Z</time>
      </trkpt>
      <trkpt lat="44.15648" lon="3.22709">
        <ele>776</ele>
        <time>2017-02-28T04:16:05Z</time>
      </trkpt>
      <trkpt lat="44.15641" lon="3.2272">
        <ele>775</ele>
        <time>2017-02-28T04:18:05Z</time>
      </trkpt>
      <trkpt lat="44.15637" lon="3.22727">
        <ele>774</ele>
        <time>2017-02-28T04:20:05Z</time>
      </trkpt>
      <trkpt lat="44.15635" lon="3.22732">
        <ele>774</ele>
        <time>2017-02-28T04:22:05Z</time>
      </trkpt>
      <trkpt lat="44.15633" lon="3.22743">
        <ele>773</ele>
        <time>2017-02-28T04:24:05Z</time>
      </trkpt>
      <trkpt lat="44.15628" lon="3.22764">
        <ele>772</ele>
        <time>2017-02-28T04:26:05Z</time>
      </trkpt>
      <trkpt lat="44.15621" lon="3.22788">
        <ele>771</ele>
        <time>2017-02-28T04:28:05Z</time>
      </trkpt>
      <trkpt lat="44.15616" lon="3.22804">
        <ele>770</ele>
        <time>2017-02-28T04:30:05Z</time>
      </trkpt>
      <trkpt lat="44.15612" lon="3.22816">
        <ele>770</ele>
        <time>2017-02-28T04:32:05Z</time>
      </trkpt>
      <trkpt lat="44.15603" lon="3.22835">
        <ele>768</ele>
        <time>2017-02-28T04:34:05Z</time>
      </trkpt>
      <trkpt lat="44.15595" lon="3.22854">
        <ele>766</ele>
        <time>2017-02-28T04:36:05Z</time>
      </trkpt>
      <trkpt lat="44.15591" lon="3.22868">
        <ele>766</ele>
        <time>2017-02-28T04:38:05Z</time>
      </trkpt>
      <trkpt lat="44.15588" lon="3.22881">
        <ele>765</ele>
        <time>2017-02-28T04:40:05Z</time>
      </trkpt>
      <trkpt lat="44.15587" lon="3.22895">
        <ele>765</ele>
        <time>2017-02-28T04:42:05Z</time>
      </trkpt>
      <trkpt lat="44.15589" lon="3.22907">
        <ele>765</ele>
        <time>2017-02-28T04:44:05Z</time>
      </trkpt>
      <trkpt lat="44.15592" lon="3.22919">
        <ele>766</ele>
        <time>2017-02-28T04:46:05Z</time>
      </trkpt>
      <trkpt lat="44.15595" lon="3.2293">
        <ele>766</ele>
        <time>2017-02-28T04:48:05Z</time>
      </trkpt>
      <trkpt lat="44.15597" lon="3.22941">
        <ele>766</ele>
        <time>2017-02-28T04:50:05Z</time>
      </trkpt>
      <trkpt lat="44.15599" lon="3.22956">
        <ele>766</ele>
        <time>2017-02-28T04:52:05Z</time>
      </trkpt>
      <trkpt lat="44.15598" lon="3.2297">
        <ele>766</ele>
        <time>2017-02-28T04:54:05Z</time>
      </trkpt>
      <trkpt lat="44.15596" lon="3.22979">
        <ele>766</ele>
        <time>2017-02-28T04:56:05Z</time>
      </trkpt>
      <trkpt lat="44.15593" lon="3.22989">
        <ele>766</ele>
        <time>2017-02-28T04:58:05Z</time>
      </trkpt>
      <trkpt lat="44.15587" lon="3.22999">
        <ele>766</ele>
        <time>2017-02-28T05:00:05Z</time>
      </trkpt>
      <trkpt lat="44.15578" lon="3.23013">
        <ele>766</ele>
        <time>2017-02-28T05:02:05Z</time>
      </trkpt>
      <trkpt lat="44.15573" lon="3.23022">
        <ele>767</ele>
        <time>2017-02-28T05:04:05Z</time>
      </trkpt>
      <trkpt lat="44.1557" lon="3.23029">
        <ele>767</ele>
        <time>2017-02-28T05:06:05Z</time>
      </trkpt>
      <trkpt lat="44.15567" lon="3.2304">
        <ele>767</ele>
        <time>2017-02-28T05:08:05Z</time>
      </trkpt>
      <trkpt lat="44.15563" lon="3.23048">
        <ele>768</ele>
        <time>2017-02-28T05:10:05Z</time>
      </trkpt>
      <trkpt lat="44.15558" lon="3.23055">
        <ele>768</ele>
        <time>2017-02-28T05:12:05Z</time>
      </trkpt>
      <trkpt lat="44.15552" lon="3.23058">
        <ele>768</ele>
        <time>2017-02-28T05:14:05Z</time>
      </trkpt>
      <trkpt lat="44.15548" lon="3.23059">
        <ele>768</ele>
        <time>2017-02-28T05:16:05Z</time>
      </trkpt>
      <trkpt lat="44.1554" lon="3.23061">
        <ele>769</ele>
        <time>2017-02-28T05:18:05Z</time>
      </trkpt>
      <trkpt lat="44.15529" lon="3.23061">
        <ele>769</ele>
        <time>2017-02-28T05:20:05Z</time>
      </trkpt>
      <trkpt lat="44.15514" lon="3.2306">
        <ele>770</ele>
        <time>2017-02-28T05:22:05Z</time>
      </trkpt>
      <trkpt lat="44.15498" lon="3.23058">
        <ele>771</ele>
        <time>2017-02-28T05:24:05Z</time>
      </trkpt>
      <trkpt lat="44.15485" lon="3.23057">
        <ele>770</ele>
        <time>2017-02-28T05:26:05Z</time>
      </trkpt>
      <trkpt lat="44.15474" lon="3.23057">
        <ele>770</ele>
        <time>2017-02-28T05:28:05Z</time>
      </trkpt>
      <trkpt lat="44.15463" lon="3.23059">
        <ele>770</ele>
        <time>2017-02-28T05:30:05Z</time>
      </trkpt>
      <trkpt lat="44.15452" lon="3.23061">
        <ele>770</ele>
        <time>2017-02-28T05:32:05Z</time>
      </trkpt>
      <trkpt lat="44.15442" lon="3.23065">
        <ele>770</ele>
        <time>2017-02-28T05:34:05Z</time>
      </trkpt>
      <trkpt lat="44.15434" lon="3.23068">
        <ele>770</ele>
        <time>2017-02-28T05:36:05Z</time>
      </trkpt>
      <trkpt lat="44.15427" lon="3.23068">
        <ele>770</ele>
        <time>2017-02-28T05:38:05Z</time>
      </trkpt>
      <trkpt lat="44.15419" lon="3.23067">
        <ele>770</ele>
        <time>2017-02-28T05:40:05Z</time>
      </trkpt>
      <trkpt lat="44.15411" lon="3.23067">
        <ele>769</ele>
        <time>2017-02-28T05:42:05Z</time>
      </trkpt>
      <trkpt lat="44.15405" lon="3.23068">
        <ele>769</ele>
        <time>2017-02-28T05:44:05Z</time>
      </trkpt>
      <trkpt lat="44.15394" lon="3.23071">
        <ele>769</ele>
        <time>2017-02-28T05:46:05Z</time>
      </trkpt>
      <trkpt lat="44.15387" lon="3.23072">
        <ele>768</ele>
        <time>2017-02-28T05:48:05Z</time>
      </trkpt>
      <trkpt lat="44.15366" lon="3.23071">
        <ele>767</ele>
        <time>2017-02-28T05:50:05Z</time>
      </trkpt>
      <trkpt lat="44.15346" lon="3.23071">
        <ele>766</ele>
        <time>2017-02-28T05:52:05Z</time>
      </trkpt>
      <trkpt lat="44.15324" lon="3.2307">
        <ele>765</ele>
        <time>2017-02-28T05:54:05Z</time>
      </trkpt>
      <trkpt lat="44.15313" lon="3.23069">
        <ele>764</ele>
        <time>2017-02-28T05:56:05Z</time>
      </trkpt>
      <trkpt lat="44.15306" lon="3.23071">
        <ele>764</ele>
        <time>2017-02-28T05:58:05Z</time>
      </trkpt>
      <trkpt lat="44.153" lon="3.23074">
        <ele>764</ele>
        <time>2017-02-28T06:00:05Z</time>
      </trkpt>
      <trkpt lat="44.15291" lon="3.23081">
        <ele>763</ele>
        <time>2017-02-28T06:02:05Z</time>
      </trkpt>
      <trkpt lat="44.1528" lon="3.23091">
        <ele>763</ele>
        <time>2017-02-28T06:04:05Z</time>
      </trkpt>
      <trkpt lat="44.15272" lon="3.23099">
        <ele>762</ele>
        <time>2017-02-28T06:06:05Z</time>
      </trkpt>
      <trkpt lat="44.15264" lon="3.23106">
        <ele>762</ele>
        <time>2017-02-28T06:08:05Z</time>
      </trkpt>
      <trkpt lat="44.15253" lon="3.23114">
        <ele>762</ele>
        <time>2017-02-28T06:10:05Z</time>
      </trkpt>
      <trkpt lat="44.1524" lon="3.23123">
        <ele>761</ele>
        <time>2017-02-28T06:12:05Z</time>
      </trkpt>
      <trkpt lat="44.15228" lon="3.23133">
        <ele>761</ele>
        <time>2017-02-28T06:14:05Z</time>
      </trkpt>
      <trkpt lat="44.15213" lon="3.23146">
        <ele>760</ele>
        <time>2017-02-28T06:16:05Z</time>
      </trkpt>
      <trkpt lat="44.15191" lon="3.23163">
        <ele>758</ele>
        <time>2017-02-28T06:18:05Z</time>
      </trkpt>
      <trkpt lat="44.15177" lon="3.23177">
        <ele>757</ele>
        <time>2017-02-28T06:20:05Z</time>
      </trkpt>
      <trkpt lat="44.15169" lon="3.23187">
        <ele>757</ele>
        <time>2017-02-28T06:22:05Z</time>
      </trkpt>
      <trkpt lat="44.15157" lon="3.23205">
        <ele>757</ele>
        <time>2017-02-28T06:24:05Z</time>
      </trkpt>
      <trkpt lat="44.15145" lon="3.23223">
        <ele>757</ele>
        <time>2017-02-28T06:26:05Z</time>
      </trkpt>
      <trkpt lat="44.15135" lon="3.2324">
        <ele>757</ele>
        <time>2017-02-28T06:28:05Z</time>
      </trkpt>
      <trkpt lat="44.15122" lon="3.23266">
        <ele>757</ele>
        <time>2017-02-28T06:30:05Z</time>
      </trkpt>
      <trkpt lat="44.15113" lon="3.23285">
        <ele>756</ele>
        <time>2017-02-28T06:32:05Z</time>
      </trkpt>
      <trkpt lat="44.15108" lon="3.23295">
        <ele>756</ele>
        <time>2017-02-28T06:34:05Z</time>
      </trkpt>
      <trkpt lat="44.15102" lon="3.23305">
        <ele>755</ele>
        <time>2017-02-28T06:36:05Z</time>
      </trkpt>
      <trkpt lat="44.15095" lon="3.2332">
        <ele>754</ele>
        <time>2017-02-28T06:38:05Z</time>
      </trkpt>
      <trkpt lat="44.1509" lon="3.23337">
        <ele>754</ele>
        <time>2017-02-28T06:40:05Z</time>
      </trkpt>
      <trkpt lat="44.15085" lon="3.23354">
        <ele>753</ele>
        <time>2017-02-28T06:42:05Z</time>
      </trkpt>
      <trkpt lat="44.15082" lon="3.23363">
        <ele>753</ele>
        <time>2017-02-28T06:44:05Z</time>
      </trkpt>
      <trkpt lat="44.15082" lon="3.23366">
        <ele>754</ele>
        <time>2017-02-28T06:46:05Z</time>
      </trkpt>
      <trkpt lat="44.1508" lon="3.23374">
        <ele>754</ele>
        <time>2017-02-28T06:48:05Z</time>
      </trkpt>
      <trkpt lat="44.15078" lon="3.23384">
        <ele>755</ele>
        <time>2017-02-28T06:50:05Z</time>
      </trkpt>
      <trkpt lat="44.15077" lon="3.23396">
        <ele>756</ele>
        <time>2017-02-28T06:52:05Z</time>
      </trkpt>
      <trkpt lat="44.15078" lon="3.23411">
        <ele>756</ele>
        <time>2017-02-28T06:54:05Z</time>
      </trkpt>
      <trkpt lat="44.15081" lon="3.23426">
        <ele>757</ele>
        <time>2017-02-28T06:56:05Z</time>
      </trkpt>
      <trkpt lat="44.15082" lon="3.23431">
        <ele>758</ele>
        <time>2017-02-28T06:58:05Z</time>
      </trkpt>
      <trkpt lat="44.15083" lon="3.23434">
        <ele>758</ele>
        <time>2017-02-28T07:00:05Z</time>
      </trkpt>
      <trkpt lat="44.15085" lon="3.2344">
        <ele>759</ele>
        <time>2017-02-28T07:02:05Z</time>
      </trkpt>
      <trkpt lat="44.15087" lon="3.23447">
        <ele>760</ele>
        <time>2017-02-28T07:04:05Z</time>
      </trkpt>
      <trkpt lat="44.15089" lon="3.23456">
        <ele>762</ele>
        <time>2017-02-28T07:06:05Z</time>
      </trkpt>
      <trkpt lat="44.15089" lon="3.23467">
        <ele>763</ele>
        <time>2017-02-28T07:08:05Z</time>
      </trkpt>
      <trkpt lat="44.15088" lon="3.23473">
        <ele>763</ele>
        <time>2017-02-28T07:10:05Z</time>
      </trkpt>
      <trkpt lat="44.15087" lon="3.23481">
        <ele>764</ele>
        <time>2017-02-28T07:12:05Z</time>
      </trkpt>
      <trkpt lat="44.15083" lon="3.23493">
        <ele>764</ele>
        <time>2017-02-28T07:14:05Z</time>
      </trkpt>
      <trkpt lat="44.15081" lon="3.23505">
        <ele>766</ele>
        <time>2017-02-28T07:16:05Z</time>
      </trkpt>
      <trkpt lat="44.1508" lon="3.23518">
        <ele>766</ele>
        <time>2017-02-28T07:18:05Z</time>
      </trkpt>
      <trkpt lat="44.1508" lon="3.23534">
        <ele>767</ele>
        <time>2017-02-28T07:20:05Z</time>
      </trkpt>
      <trkpt lat="44.1508" lon="3.23546">
        <ele>767</ele>
        <time>2017-02-28T07:22:05Z</time>
      </trkpt>
      <trkpt lat="44.1508" lon="3.2356">
        <ele>768</ele>
        <time>2017-02-28T07:24:05Z</time>
      </trkpt>
      <trkpt lat="44.15079" lon="3.23573">
        <ele>768</ele>
        <time>2017-02-28T07:26:05Z</time>
      </trkpt>
      <trkpt lat="44.15078" lon="3.23582">
        <ele>769</ele>
        <time>2017-02-28T07:28:05Z</time>
      </trkpt>
      <trkpt lat="44.15072" lon="3.23604">
        <ele>771</ele>
        <time>2017-02-28T07:30:05Z</time>
      </trkpt>
      <trkpt lat="44.15066" lon="3.23626">
        <ele>773</ele>
        <time>2017-02-28T07:32:05Z</time>
      </trkpt>
      <trkpt lat="44.15061" lon="3.23643">
        <ele>775</ele>
        <time>2017-02-28T07:34:05Z</time>
      </trkpt>
      <trkpt lat="44.15055" lon="3.23669">
        <ele>776</ele>
        <time>2017-02-28T07:36:05Z</time>
      </trkpt>
      <trkpt lat="44.15049" lon="3.23689">
        <ele>778</ele>
        <time>2017-02-28T07:38:05Z</time>
      </trkpt>
      <trkpt lat="44.15045" lon="3.23703">
        <ele>778</ele>
        <time>2017-02-28T07:40:05Z</time>
      </trkpt>
      <trkpt lat="44.15043" lon="3.23718">
        <ele>779</ele>
        <time>2017-02-28T07:42:05Z</time>
      </trkpt>
      <trkpt lat="44.15042" lon="3.23732">
        <ele>779</ele>
        <time>2017-02-28T07:44:05Z</time>
      </trkpt>
      <trkpt lat="44.15042" lon="3.23743">
        <ele>779</ele>
        <time>2017-02-28T07:46:05Z</time>
      </trkpt>
      <trkpt lat="44.15043" lon="3.23756">
        <ele>779</ele>
        <time>2017-02-28T07:48:05Z</time>
      </trkpt>
      <trkpt lat="44.15045" lon="3.23764">
        <ele>779</ele>
        <time>2017-02-28T07:50:05Z</time>
      </trkpt>
      <trkpt lat="44.1505" lon="3.23774">
        <ele>778</ele>
        <time>2017-02-28T07:52:05Z</time>
      </trkpt>
      <trkpt lat="44.15054" lon="3.23781">
        <ele>778</ele>
        <time>2017-02-28T07:54:05Z</time>
      </trkpt>
      <trkpt lat="44.15055" lon="3.23789">
        <ele>778</ele>
        <time>2017-02-28T07:56:05Z</time>
      </trkpt>
      <trkpt lat="44.15054" lon="3.23795">
        <ele>778</ele>
        <time>2017-02-28T07:58:05Z</time>
      </trkpt>
      <trkpt lat="44.15051" lon="3.23801">
        <ele>778</ele>
        <time>2017-02-28T08:00:05Z</time>
      </trkpt>
      <trkpt lat="44.15046" lon="3.23809">
        <ele>778</ele>
        <time>2017-02-28T08:02:05Z</time>
      </trkpt>
      <trkpt lat="44.15045" lon="3.2381">
        <ele>778</ele>
        <time>2017-02-28T08:04:05Z</time>
      </trkpt>
      <trkpt lat="44.15046" lon="3.23812">
        <ele>778</ele>
        <time>2017-02-28T08:06:05Z</time>
      </trkpt>
      <trkpt lat="44.14956" lon="3.23516">
        <ele>792</ele>
        <time>2017-02-28T08:08:05Z</time>
      </trkpt>
      <trkpt lat="44.14954" lon="3.23516">
        <ele>792</ele>
        <time>2017-02-28T08:10:05Z</time>
      </trkpt>
      <trkpt lat="44.14953" lon="3.2351">
        <ele>792</ele>
        <time>2017-02-28T08:12:05Z</time>
      </trkpt>
      <trkpt lat="44.14897" lon="3.23519">
        <ele>805</ele>
        <time>2017-02-28T08:14:05Z</time>
      </trkpt>
      <trkpt lat="44.14842" lon="3.23522">
        <ele>812</ele>
        <time>2017-02-28T08:16:05Z</time>
      </trkpt>
      <trkpt lat="44.14797" lon="3.2349">
        <ele>818</ele>
        <time>2017-02-28T08:18:05Z</time>
      </trkpt>
      <trkpt lat="44.14714" lon="3.23476">
        <ele>827</ele>
        <time>2017-02-28T08:20:05Z</time>
      </trkpt>
      <trkpt lat="44.1458" lon="3.23582">
        <ele>833</ele>
        <time>2017-02-28T08:22:05Z</time>
      </trkpt>
      <trkpt lat="44.14142" lon="3.23492">
        <ele>830</ele>
        <time>2017-02-28T08:24:05Z</time>
      </trkpt>
      <trkpt lat="44.14143" lon="3.2349">
        <ele>830</ele>
        <time>2017-02-28T08:26:05Z</time>
      </trkpt>
      <trkpt lat="44.14136" lon="3.23486">
        <ele>830</ele>
        <time>2017-02-28T08:28:05Z</time>
      </trkpt>
      <trkpt lat="44.14126" lon="3.23481">
        <ele>829</ele>
        <time>2017-02-28T08:30:05Z</time>
      </trkpt>
      <trkpt lat="44.14125" lon="3.2348">
        <ele>829</ele>
        <time>2017-02-28T08:32:05Z</time>
      </trkpt>
      <trkpt lat="44.14116" lon="3.23474">
        <ele>829</ele>
        <time>2017-02-28T08:34:05Z</time>
      </trkpt>
      <trkpt lat="44.1411" lon="3.2347">
        <ele>829</ele>
        <time>2017-02-28T08:36:05Z</time>
      </trkpt>
      <trkpt lat="44.14105" lon="3.23468">
        <ele>829</ele>
        <time>2017-02-28T08:38:05Z</time>
      </trkpt>
      <trkpt lat="44.14102" lon="3.23468">
        <ele>829</ele>
        <time>2017-02-28T08:40:05Z</time>
      </trkpt>
      <trkpt lat="44.14098" lon="3.23468">
        <ele>830</ele>
        <time>2017-02-28T08:42:05Z</time>
      </trkpt>
      <trkpt lat="44.14091" lon="3.23468">
        <ele>830</ele>
        <time>2017-02-28T08:44:05Z</time>
      </trkpt>
      <trkpt lat="44.14082" lon="3.23469">
        <ele>830</ele>
        <time>2017-02-28T08:46:05Z</time>
      </trkpt>
      <trkpt lat="44.14073" lon="3.23468">
        <ele>830</ele>
        <time>2017-02-28T08:48:05Z</time>
      </trkpt>
      <trkpt lat="44.14065" lon="3.23466">
        <ele>830</ele>
        <time>2017-02-28T08:50:05Z</time>
      </trkpt>
      <trkpt lat="44.14056" lon="3.23463">
        <ele>830</ele>
        <time>2017-02-28T08:52:05Z</time>
      </trkpt>
      <trkpt lat="44.14049" lon="3.23461">
        <ele>830</ele>
        <time>2017-02-28T08:54:05Z</time>
      </trkpt>
      <trkpt lat="44.14041" lon="3.2346">
        <ele>830</ele>
        <time>2017-02-28T08:56:05Z</time>
      </trkpt>
      <trkpt lat="44.14033" lon="3.2346">
        <ele>830</ele>
        <time>2017-02-28T08:58:05Z</time>
      </trkpt>
      <trkpt lat="44.14023" lon="3.23459">
        <ele>831</ele>
        <time>2017-02-28T09:00:05Z</time>
      </trkpt>
      <trkpt lat="44.14017" lon="3.23458">
        <ele>831</ele>
        <time>2017-02-28T09:02:05Z</time>
      </trkpt>
      <trkpt lat="44.14011" lon="3.23457">
        <ele>831</ele>
        <time>2017-02-28T09:04:05Z</time>
      </trkpt>
      <trkpt lat="44.14004" lon="3.23455">
        <ele>831</ele>
        <time>2017-02-28T09:06:05Z</time>
      </trkpt>
      <trkpt lat="44.13999" lon="3.23454">
        <ele>831</ele>
        <time>2017-02-28T09:08:05Z</time>
      </trkpt>
      <trkpt lat="44.13995" lon="3.23454">
        <ele>831</ele>
        <time>2017-02-28T09:10:05Z</time>
      </trkpt>
      <trkpt lat="44.13988" lon="3.23454">
        <ele>831</ele>
        <time>2017-02-28T09:12:05Z</time>
      </trkpt>
      <trkpt lat="44.13978" lon="3.23455">
        <ele>830</ele>
        <time>2017-02-28T09:14:05Z</time>
      </trkpt>
      <trkpt lat="44.13968" lon="3.23456">
        <ele>829</ele>
        <time>2017-02-28T09:16:05Z</time>
      </trkpt>
      <trkpt lat="44.13958" lon="3.23457">
        <ele>829</ele>
        <time>2017-02-28T09:18:05Z</time>
      </trkpt>
      <trkpt lat="44.13951" lon="3.23457">
        <ele>828</ele>
        <time>2017-02-28T09:20:05Z</time>
      </trkpt>
      <trkpt lat="44.13946" lon="3.23457">
        <ele>828</ele>
        <time>2017-02-28T09:22:05Z</time>
      </trkpt>
      <trkpt lat="44.13943" lon="3.23456">
        <ele>828</ele>
        <time>2017-02-28T09:24:05Z</time>
      </trkpt>
      <trkpt lat="44.13941" lon="3.23454">
        <ele>828</ele>
        <time>2017-02-28T09:26:05Z</time>
      </trkpt>
      <trkpt lat="44.13939" lon="3.23453">
        <ele>828</ele>
        <time>2017-02-28T09:28:05Z</time>
      </trkpt>
      <trkpt lat="44.13937" lon="3.23449">
        <ele>829</ele>
        <time>2017-02-28T09:30:05Z</time>
      </trkpt>
      <trkpt lat="44.13935" lon="3.23444">
        <ele>829</ele>
        <time>2017-02-28T09:32:05Z</time>
      </trkpt>
      <trkpt lat="44.13935" lon="3.23439">
        <ele>830</ele>
        <time>2017-02-28T09:34:05Z</time>
      </trkpt>
      <trkpt lat="44.13935" lon="3.23432">
        <ele>831</ele>
        <time>2017-02-28T09:36:05Z</time>
      </trkpt>
      <trkpt lat="44.13935" lon="3.23425">
        <ele>832</ele>
        <time>2017-02-28T09:38:05Z</time>
      </trkpt>
      <trkpt lat="44.13936" lon="3.23413">
        <ele>834</ele>
        <time>2017-02-28T09:40:05Z</time>
      </trkpt>
      <trkpt lat="44.13938" lon="3.23397">
        <ele>834</ele>
        <time>2017-02-28T09:42:05Z</time>
      </trkpt>
      <trkpt lat="44.1394" lon="3.23386">
        <ele>834</ele>
        <time>2017-02-28T09:44:05Z</time>
      </trkpt>
      <trkpt lat="44.13941" lon="3.23379">
        <ele>834</ele>
        <time>2017-02-28T09:46:05Z</time>
      </trkpt>
      <trkpt lat="44.13941" lon="3.23374">
        <ele>834</ele>
        <time>2017-02-28T09:48:05Z</time>
      </trkpt>
      <trkpt lat="44.1394" lon="3.23371">
        <ele>834</ele>
        <time>2017-02-28T09:50:05Z</time>
      </trkpt>
      <trkpt lat="44.13937" lon="3.23367">
        <ele>834</ele>
        <time>2017-02-28T09:52:05Z</time>
      </trkpt>
      <trkpt lat="44.13935" lon="3.23364">
        <ele>834</ele>
        <time>2017-02-28T09:54:05Z</time>
      </trkpt>
      <trkpt lat="44.13932" lon="3.23362">
        <ele>834</ele>
        <time>2017-02-28T09:56:05Z</time>
      </trkpt>
      <trkpt lat="44.13928" lon="3.23359">
        <ele>834</ele>
        <time>2017-02-28T09:58:05Z</time>
      </trkpt>
      <trkpt lat="44.13924" lon="3.23357">
        <ele>835</ele>
        <time>2017-02-28T10:00:05Z</time>
      </trkpt>
      <trkpt lat="44.13921" lon="3.23354">
        <ele>835</ele>
        <time>2017-02-28T10:02:05Z</time>
      </trkpt>
      <trkpt lat="44.1392" lon="3.23351">
        <ele>835</ele>
        <time>2017-02-28T10:04:05Z</time>
      </trkpt>
      <trkpt lat="44.13919" lon="3.23347">
        <ele>835</ele>
        <time>2017-02-28T10:06:05Z</time>
      </trkpt>
      <trkpt lat="44.13919" lon="3.23345">
        <ele>835</ele>
        <time>2017-02-28T10:08:05Z</time>
      </trkpt>
      <trkpt lat="44.1392" lon="3.23341">
        <ele>835</ele>
        <time>2017-02-28T10:10:05Z</time>
      </trkpt>
      <trkpt lat="44.13922" lon="3.23336">
        <ele>835</ele>
        <time>2017-02-28T10:12:05Z</time>
      </trkpt>
      <trkpt lat="44.13925" lon="3.23329">
        <ele>835</ele>
        <time>2017-02-28T10:14:05Z</time>
      </trkpt>
      <trkpt lat="44.13927" lon="3.23321">
        <ele>835</ele>
        <time>2017-02-28T10:16:05Z</time>
      </trkpt>
      <trkpt lat="44.1393" lon="3.2331">
        <ele>835</ele>
        <time>2017-02-28T10:18:05Z</time>
      </trkpt>
      <trkpt lat="44.13931" lon="3.23299">
        <ele>835</ele>
        <time>2017-02-28T10:20:05Z</time>
      </trkpt>
      <trkpt lat="44.13932" lon="3.23288">
        <ele>835</ele>
        <time>2017-02-28T10:22:05Z</time>
      </trkpt>
      <trkpt lat="44.13932" lon="3.23276">
        <ele>835</ele>
        <time>2017-02-28T10:24:05Z</time>
      </trkpt>
      <trkpt lat="44.13932" lon="3.23267">
        <ele>836</ele>
        <time>2017-02-28T10:26:05Z</time>
      </trkpt>
      <trkpt lat="44.13933" lon="3.23263">
        <ele>835</ele>
        <time>2017-02-28T10:28:05Z</time>
      </trkpt>
      <trkpt lat="44.13935" lon="3.23257">
        <ele>835</ele>
        <time>2017-02-28T10:30:05Z</time>
      </trkpt>
      <trkpt lat="44.13937" lon="3.23253">
        <ele>835</ele>
        <time>2017-02-28T10:32:05Z</time>
      </trkpt>
      <trkpt lat="44.13944" lon="3.23241">
        <ele>834</ele>
        <time>2017-02-28T10:34:05Z</time>
      </trkpt>
      <trkpt lat="44.13955" lon="3.23223">
        <ele>833</ele>
        <time>2017-02-28T10:36:05Z</time>
      </trkpt>
      <trkpt lat="44.13962" lon="3.23212">
        <ele>833</ele>
        <time>2017-02-28T10:38:05Z</time>
      </trkpt>
      <trkpt lat="44.13969" lon="3.23201">
        <ele>833</ele>
        <time>2017-02-28T10:40:05Z</time>
      </trkpt>
      <trkpt lat="44.13977" lon="3.23193">
        <ele>832</ele>
        <time>2017-02-28T10:42:05Z</time>
      </trkpt>
      <trkpt lat="44.13985" lon="3.23182">
        <ele>832</ele>
        <time>2017-02-28T10:44:05Z</time>
      </trkpt>
      <trkpt lat="44.13992" lon="3.23171">
        <ele>832</ele>
        <time>2017-02-28T10:46:05Z</time>
      </trkpt>
      <trkpt lat="44.13999" lon="3.23158">
        <ele>831</ele>
        <time>2017-02-28T10:48:05Z</time>
      </trkpt>
      <trkpt lat="44.14003" lon="3.23148">
        <ele>830</ele>
        <time>2017-02-28T10:50:05Z</time>
      </trkpt>
      <trkpt lat="44.14005" lon="3.23142">
        <ele>830</ele>
        <time>2017-02-28T10:52:05Z</time>
      </trkpt>
      <trkpt lat="44.14006" lon="3.23137">
        <ele>829</ele>
        <time>2017-02-28T10:54:05Z</time>
      </trkpt>
      <trkpt lat="44.14005" lon="3.23131">
        <ele>830</ele>
        <time>2017-02-28T10:56:05Z</time>
      </trkpt>
      <trkpt lat="44.14005" lon="3.23127">
        <ele>830</ele>
        <time>2017-02-28T10:58:05Z</time>
      </trkpt>
      <trkpt lat="44.14003" lon="3.23117">
        <ele>830</ele>
        <time>2017-02-28T11:00:05Z</time>
      </trkpt>
      <trkpt lat="44.13999" lon="3.23104">
        <ele>831</ele>
        <time>2017-02-28T11:02:05Z</time>
      </trkpt>
      <trkpt lat="44.13997" lon="3.23091">
        <ele>831</ele>
        <time>2017-02-28T11:04:05Z</time>
      </trkpt>
      <trkpt lat="44.13995" lon="3.23077">
        <ele>832</ele>
        <time>2017-02-28T11:06:05Z</time>
      </trkpt>
      <trkpt lat="44.13992" lon="3.23065">
        <ele>832</ele>
        <time>2017-02-28T11:08:05Z</time>
      </trkpt>
      <trkpt lat="44.13989" lon="3.23055">
        <ele>832</ele>
        <time>2017-02-28T11:10:05Z</time>
      </trkpt>
      <trkpt lat="44.13985" lon="3.23044">
        <ele>833</ele>
        <time>2017-02-28T11:12:05Z</time>
      </trkpt>
      <trkpt lat="44.13982" lon="3.23037">
        <ele>833</ele>
        <time>2017-02-28T11:14:05Z</time>
      </trkpt>
      <trkpt lat="44.13982" lon="3.23033">
        <ele>833</ele>
        <time>2017-02-28T11:16:05Z</time>
      </trkpt>
      <trkpt lat="44.13981" lon="3.23028">
        <ele>833</ele>
        <time>2017-02-28T11:18:05Z</time>
      </trkpt>
      <trkpt lat="44.13981" lon="3.2302">
        <ele>833</ele>
        <time>2017-02-28T11:20:05Z</time>
      </trkpt>
      <trkpt lat="44.13981" lon="3.23017">
        <ele>833</ele>
        <time>2017-02-28T11:22:05Z</time>
      </trkpt>
      <trkpt lat="44.13983" lon="3.23012">
        <ele>833</ele>
        <time>2017-02-28T11:24:05Z</time>
      </trkpt>
      <trkpt lat="44.13985" lon="3.23007">
        <ele>833</ele>
        <time>2017-02-28T11:26:05Z</time>
      </trkpt>
      <trkpt lat="44.13989" lon="3.23">
        <ele>832</ele>
        <time>2017-02-28T11:28:05Z</time>
      </trkpt>
      <trkpt lat="44.13996" lon="3.22988">
        <ele>832</ele>
        <time>2017-02-28T11:30:05Z</time>
      </trkpt>
      <trkpt lat="44.13999" lon="3.22982">
        <ele>832</ele>
        <time>2017-02-28T11:32:05Z</time>
      </trkpt>
      <trkpt lat="44.14002" lon="3.22976">
        <ele>832</ele>
        <time>2017-02-28T11:34:05Z</time>
      </trkpt>
      <trkpt lat="44.14003" lon="3.22974">
        <ele>832</ele>
        <time>2017-02-28T11:36:05Z</time>
      </trkpt>
      <trkpt lat="44.14006" lon="3.22974">
        <ele>832</ele>
        <time>2017-02-28T11:38:05Z</time>
      </trkpt>
      <trkpt lat="44.14006" lon="3.22974">
        <ele>832</ele>
        <time>2017-02-28T11:40:05Z</time>
      </trkpt>
      <trkpt lat="44.14005" lon="3.22968">
        <ele>832</ele>
        <time>2017-02-28T11:42:05Z</time>
      </trkpt>
      <trkpt lat="44.14003" lon="3.22964">
        <ele>833</ele>
        <time>2017-02-28T11:44:05Z</time>
      </trkpt>
      <trkpt lat="44.14002" lon="3.22962">
        <ele>833</ele>
        <time>2017-02-28T11:46:05Z</time>
      </trkpt>
      <trkpt lat="44.14001" lon="3.22961">
        <ele>833</ele>
        <time>2017-02-28T11:48:05Z</time>
      </trkpt>
      <trkpt lat="44.13999" lon="3.22964">
        <ele>833</ele>
        <time>2017-02-28T11:50:05Z</time>
      </trkpt>
      <trkpt lat="44.13953" lon="3.22949">
        <ele>834</ele>
        <time>2017-02-28T11:52:05Z</time>
      </trkpt>
      <trkpt lat="44.13935" lon="3.22895">
        <ele>833</ele>
        <time>2017-02-28T11:54:05Z</time>
      </trkpt>
      <trkpt lat="44.13776" lon="3.23014">
        <ele>838</ele>
        <time>2017-02-28T11:56:05Z</time>
      </trkpt>
      <trkpt lat="44.13745" lon="3.23155">
        <ele>838</ele>
        <time>2017-02-28T11:58:05Z</time>
      </trkpt>
      <trkpt lat="44.13673" lon="3.23217">
        <ele>834</ele>
        <time>2017-02-28T12:00:05Z</time>
      </trkpt>
      <trkpt lat="44.13597" lon="3.23297">
        <ele>830</ele>
        <time>2017-02-28T12:02:05Z</time>
      </trkpt>
      <trkpt lat="44.13543" lon="3.23374">
        <ele>823</ele>
        <time>2017-02-28T12:04:05Z</time>
      </trkpt>
      <trkpt lat="44.13537" lon="3.23462">
        <ele>815</ele>
        <time>2017-02-28T12:06:05Z</time>
      </trkpt>
      <trkpt lat="44.13511" lon="3.23531">
        <ele>808</ele>
        <time>2017-02-28T12:08:05Z</time>
      </trkpt>
      <trkpt lat="44.13479" lon="3.23541">
        <ele>806</ele>
        <time>2017-02-28T12:10:05Z</time>
      </trkpt>
      <trkpt lat="44.13465" lon="3.23629">
        <ele>798</ele>
        <time>2017-02-28T12:12:05Z</time>
      </trkpt>
      <trkpt lat="44.13391" lon="3.23668">
        <ele>794</ele>
        <time>2017-02-28T12:14:05Z</time>
      </trkpt>
      <trkpt lat="44.13373" lon="3.23633">
        <ele>796</ele>
        <time>2017-02-28T12:16:05Z</time>
      </trkpt>
      <trkpt lat="44.13311" lon="3.23623">
        <ele>794</ele>
        <time>2017-02-28T12:18:05Z</time>
      </trkpt>
      <trkpt lat="44.13298" lon="3.23698">
        <ele>787</ele>
        <time>2017-02-28T12:20:05Z</time>
      </trkpt>
      <trkpt lat="44.13292" lon="3.2375">
        <ele>782</ele>
        <time>2017-02-28T12:22:05Z</time>
      </trkpt>
      <trkpt lat="44.13343" lon="3.2382">
        <ele>780</ele>
        <time>2017-02-28T12:24:05Z</time>
      </trkpt>
      <trkpt lat="44.13353" lon="3.23992">
        <ele>767</ele>
        <time>2017-02-28T12:26:05Z</time>
      </trkpt>
      <trkpt lat="44.13279" lon="3.24129">
        <ele>763</ele>
        <time>2017-02-28T12:28:05Z</time>
      </trkpt>
      <trkpt lat="44.13334" lon="3.24209">
        <ele>760</ele>
        <time>2017-02-28T12:30:05Z</time>
      </trkpt>
      <trkpt lat="44.13292" lon="3.24247">
        <ele>751</ele>
        <time>2017-02-28T12:32:05Z</time>
      </trkpt>
      <trkpt lat="44.13248" lon="3.24258">
        <ele>746</ele>
        <time>2017-02-28T12:34:05Z</time>
      </trkpt>
      <trkpt lat="44.13166" lon="3.24295">
        <ele>732</ele>
        <time>2017-02-28T12:36:05Z</time>
      </trkpt>
      <trkpt lat="44.13115" lon="3.24306">
        <ele>721</ele>
        <time>2017-02-28T12:38:05Z</time>
      </trkpt>
      <trkpt lat="44.13152" lon="3.24346">
        <ele>721</ele>
        <time>2017-02-28T12:40:05Z</time>
      </trkpt>
      <trkpt lat="44.13149" lon="3.24337">
        <ele>719</ele>
        <time>2017-02-28T12:42:05Z</time>
      </trkpt>
      <trkpt lat="44.13147" lon="3.24338">
        <ele>719</ele>
        <time>2017-02-28T12:44:05Z</time>
      </trkpt>
      <trkpt lat="44.13142" lon="3.24342">
        <ele>719</ele>
        <time>2017-02-28T12:46:05Z</time>
      </trkpt>
      <trkpt lat="44.13138" lon="3.24346">
        <ele>718</ele>
        <time>2017-02-28T12:48:05Z</time>
      </trkpt>
      <trkpt lat="44.13133" lon="3.24354">
        <ele>718</ele>
        <time>2017-02-28T12:50:05Z</time>
      </trkpt>
      <trkpt lat="44.13128" lon="3.24365">
        <ele>718</ele>
        <time>2017-02-28T12:52:05Z</time>
      </trkpt>
      <trkpt lat="44.13122" lon="3.24378">
        <ele>717</ele>
        <time>2017-02-28T12:54:05Z</time>
      </trkpt>
      <trkpt lat="44.13118" lon="3.24386">
        <ele>717</ele>
        <time>2017-02-28T12:56:05Z</time>
      </trkpt>
      <trkpt lat="44.13114" lon="3.24396">
        <ele>716</ele>
        <time>2017-02-28T12:58:05Z</time>
      </trkpt>
      <trkpt lat="44.13112" lon="3.24402">
        <ele>715</ele>
        <time>2017-02-28T13:00:05Z</time>
      </trkpt>
      <trkpt lat="44.1311" lon="3.24406">
        <ele>715</ele>
        <time>2017-02-28T13:02:05Z</time>
      </trkpt>
      <trkpt lat="44.13108" lon="3.24408">
        <ele>714</ele>
        <time>2017-02-28T13:04:05Z</time>
      </trkpt>
      <trkpt lat="44.13107" lon="3.24409">
        <ele>714</ele>
        <time>2017-02-28T13:06:05Z</time>
      </trkpt>
      <trkpt lat="44.13104" lon="3.24413">
        <ele>713</ele>
        <time>2017-02-28T13:08:05Z</time>
      </trkpt>
      <trkpt lat="44.13102" lon="3.24415">
        <ele>712</ele>
        <time>2017-02-28T13:10:05Z</time>
      </trkpt>
      <trkpt lat="44.13096" lon="3.24418">
        <ele>711</ele>
        <time>2017-02-28T13:12:05Z</time>
      </trkpt>
      <trkpt lat="44.13093" lon="3.24423">
        <ele>711</ele>
        <time>2017-02-28T13:14:05Z</time>
      </trkpt>
      <trkpt lat="44.13087" lon="3.24428">
        <ele>710</ele>
        <time>2017-02-28T13:16:05Z</time>
      </trkpt>
      <trkpt lat="44.13082" lon="3.24434">
        <ele>710</ele>
        <time>2017-02-28T13:18:05Z</time>
      </trkpt>
      <trkpt lat="44.13078" lon="3.24438">
        <ele>710</ele>
        <time>2017-02-28T13:20:05Z</time>
      </trkpt>
      <trkpt lat="44.13074" lon="3.24442">
        <ele>709</ele>
        <time>2017-02-28T13:22:05Z</time>
      </trkpt>
      <trkpt lat="44.13068" lon="3.2445">
        <ele>709</ele>
        <time>2017-02-28T13:24:05Z</time>
      </trkpt>
      <trkpt lat="44.13063" lon="3.24453">
        <ele>708</ele>
        <time>2017-02-28T13:26:05Z</time>
      </trkpt>
      <trkpt lat="44.1306" lon="3.24456">
        <ele>708</ele>
        <time>2017-02-28T13:28:05Z</time>
      </trkpt>
      <trkpt lat="44.13057" lon="3.24457">
        <ele>707</ele>
        <time>2017-02-28T13:30:05Z</time>
      </trkpt>
      <trkpt lat="44.13054" lon="3.24459">
        <ele>706</ele>
        <time>2017-02-28T13:32:05Z</time>
      </trkpt>
      <trkpt lat="44.1305" lon="3.2446">
        <ele>705</ele>
        <time>2017-02-28T13:34:05Z</time>
      </trkpt>
      <trkpt lat="44.13044" lon="3.24464">
        <ele>704</ele>
        <time>2017-02-28T13:36:05Z</time>
      </trkpt>
      <trkpt lat="44.13039" lon="3.24468">
        <ele>703</ele>
        <time>2017-02-28T13:38:05Z</time>
      </trkpt>
      <trkpt lat="44.13033" lon="3.24474">
        <ele>703</ele>
        <time>2017-02-28T13:40:05Z</time>
      </trkpt>
      <trkpt lat="44.13029" lon="3.24477">
        <ele>703</ele>
        <time>2017-02-28T13:42:05Z</time>
      </trkpt>
      <trkpt lat="44.13026" lon="3.2448">
        <ele>703</ele>
        <time>2017-02-28T13:44:05Z</time>
      </trkpt>
      <trkpt lat="44.13025" lon="3.24481">
        <ele>703</ele>
        <time>2017-02-28T13:46:05Z</time>
      </trkpt>
      <trkpt lat="44.13023" lon="3.24482">
        <ele>702</ele>
        <time>2017-02-28T13:48:05Z</time>
      </trkpt>
      <trkpt lat="44.13016" lon="3.24486">
        <ele>701</ele>
        <time>2017-02-28T13:50:05Z</time>
      </trkpt>
      <trkpt lat="44.13013" lon="3.24488">
        <ele>701</ele>
        <time>2017-02-28T13:52:05Z</time>
      </trkpt>
      <trkpt lat="44.13005" lon="3.24491">
        <ele>699</ele>
        <time>2017-02-28T13:54:05Z</time>
      </trkpt>
      <trkpt lat="44.12997" lon="3.24494">
        <ele>698</ele>
        <time>2017-02-28T13:56:05Z</time>
      </trkpt>
      <trkpt lat="44.12989" lon="3.24496">
        <ele>696</ele>
        <time>2017-02-28T13:58:05Z</time>
      </trkpt>
      <trkpt lat="44.12982" lon="3.24497">
        <ele>694</ele>
        <time>2017-02-28T14:00:05Z</time>
      </trkpt>
      <trkpt lat="44.12978" lon="3.24499">
        <ele>693</ele>
        <time>2017-02-28T14:02:05Z</time>
      </trkpt>
      <trkpt lat="44.12971" lon="3.24501">
        <ele>692</ele>
        <time>2017-02-28T14:04:05Z</time>
      </trkpt>
      <trkpt lat="44.12966" lon="3.24502">
        <ele>690</ele>
        <time>2017-02-28T14:06:05Z</time>
      </trkpt>
      <trkpt lat="44.12961" lon="3.24504">
        <ele>689</ele>
        <time>2017-02-28T14:08:05Z</time>
      </trkpt>
      <trkpt lat="44.12957" lon="3.24507">
        <ele>689</ele>
        <time>2017-02-28T14:10:05Z</time>
      </trkpt>
      <trkpt lat="44.12951" lon="3.24511">
        <ele>688</ele>
        <time>2017-02-28T14:12:05Z</time>
      </trkpt>
      <trkpt lat="44.12947" lon="3.24515">
        <ele>687</ele>
        <time>2017-02-28T14:14:05Z</time>
      </trkpt>
      <trkpt lat="44.12942" lon="3.24518">
        <ele>686</ele>
        <time>2017-02-28T14:16:05Z</time>
      </trkpt>
      <trkpt lat="44.12939" lon="3.24519">
        <ele>686</ele>
        <time>2017-02-28T14:18:05Z</time>
      </trkpt>
      <trkpt lat="44.12935" lon="3.2452">
        <ele>685</ele>
        <time>2017-02-28T14:20:05Z</time>
      </trkpt>
      <trkpt lat="44.12932" lon="3.24521">
        <ele>684</ele>
        <time>2017-02-28T14:22:05Z</time>
      </trkpt>
      <trkpt lat="44.1293" lon="3.24522">
        <ele>683</ele>
        <time>2017-02-28T14:24:05Z</time>
      </trkpt>
      <trkpt lat="44.12928" lon="3.24522">
        <ele>683</ele>
        <time>2017-02-28T14:26:05Z</time>
      </trkpt>
      <trkpt lat="44.12927" lon="3.24521">
        <ele>682</ele>
        <time>2017-02-28T14:28:05Z</time>
      </trkpt>
      <trkpt lat="44.12923" lon="3.24518">
        <ele>680</ele>
        <time>2017-02-28T14:30:05Z</time>
      </trkpt>
      <trkpt lat="44.12923" lon="3.24518">
        <ele>680</ele>
        <time>2017-02-28T14:32:05Z</time>
      </trkpt>
      <trkpt lat="44.12921" lon="3.24507">
        <ele>677</ele>
        <time>2017-02-28T14:34:05Z</time>
      </trkpt>
      <trkpt lat="44.12922" lon="3.24504">
        <ele>677</ele>
        <time>2017-02-28T14:36:05Z</time>
      </trkpt>
      <trkpt lat="44.12922" lon="3.24501">
        <ele>676</ele>
        <time>2017-02-28T14:38:05Z</time>
      </trkpt>
      <trkpt lat="44.12924" lon="3.245">
        <ele>676</ele>
        <time>2017-02-28T14:40:05Z</time>
      </trkpt>
      <trkpt lat="44.12926" lon="3.24499">
        <ele>677</ele>
        <time>2017-02-28T14:42:05Z</time>
      </trkpt>
      <trkpt lat="44.12928" lon="3.24499">
        <ele>677</ele>
        <time>2017-02-28T14:44:05Z</time>
      </trkpt>
      <trkpt lat="44.12929" lon="3.24499">
        <ele>678</ele>
        <time>2017-02-28T14:46:05Z</time>
      </trkpt>
      <trkpt lat="44.12931" lon="3.24498">
        <ele>678</ele>
        <time>2017-02-28T14:48:05Z</time>
      </trkpt>
      <trkpt lat="44.12932" lon="3.24496">
        <ele>677</ele>
        <time>2017-02-28T14:50:05Z</time>
      </trkpt>
      <trkpt lat="44.12932" lon="3.24495">
        <ele>677</ele>
        <time>2017-02-28T14:52:05Z</time>
      </trkpt>
      <trkpt lat="44.1293" lon="3.24492">
        <ele>675</ele>
        <time>2017-02-28T14:54:05Z</time>
      </trkpt>
      <trkpt lat="44.12928" lon="3.2449">
        <ele>673</ele>
        <time>2017-02-28T14:56:05Z</time>
      </trkpt>
      <trkpt lat="44.12926" lon="3.24489">
        <ele>672</ele>
        <time>2017-02-28T14:58:05Z</time>
      </trkpt>
      <trkpt lat="44.12923" lon="3.24489">
        <ele>671</ele>
        <time>2017-02-28T15:00:05Z</time>
      </trkpt>
      <trkpt lat="44.12915" lon="3.24489">
        <ele>669</ele>
        <time>2017-02-28T15:02:05Z</time>
      </trkpt>
      <trkpt lat="44.129" lon="3.24491">
        <ele>665</ele>
        <time>2017-02-28T15:04:05Z</time>
      </trkpt>
      <trkpt lat="44.12891" lon="3.24493">
        <ele>663</ele>
        <time>2017-02-28T15:06:05Z</time>
      </trkpt>
      <trkpt lat="44.12886" lon="3.24496">
        <ele>663</ele>
        <time>2017-02-28T15:08:05Z</time>
      </trkpt>
      <trkpt lat="44.12882" lon="3.24496">
        <ele>662</ele>
        <time>2017-02-28T15:10:05Z</time>
      </trkpt>
      <trkpt lat="44.12879" lon="3.24496">
        <ele>661</ele>
        <time>2017-02-28T15:12:05Z</time>
      </trkpt>
      <trkpt lat="44.12876" lon="3.24495">
        <ele>660</ele>
        <time>2017-02-28T15:14:05Z</time>
      </trkpt>
      <trkpt lat="44.12873" lon="3.24492">
        <ele>658</ele>
        <time>2017-02-28T15:16:05Z</time>
      </trkpt>
      <trkpt lat="44.12871" lon="3.24487">
        <ele>655</ele>
        <time>2017-02-28T15:18:05Z</time>
      </trkpt>
      <trkpt lat="44.12871" lon="3.24487">
        <ele>655</ele>
        <time>2017-02-28T15:20:05Z</time>
      </trkpt>
      <trkpt lat="44.12874" lon="3.24484">
        <ele>655</ele>
        <time>2017-02-28T15:22:05Z</time>
      </trkpt>
      <trkpt lat="44.12877" lon="3.24482">
        <ele>655</ele>
        <time>2017-02-28T15:24:05Z</time>
      </trkpt>
      <trkpt lat="44.12878" lon="3.2448">
        <ele>655</ele>
        <time>2017-02-28T15:26:05Z</time>
      </trkpt>
      <trkpt lat="44.12881" lon="3.24478">
        <ele>655</ele>
        <time>2017-02-28T15:28:05Z</time>
      </trkpt>
      <trkpt lat="44.12885" lon="3.24477">
        <ele>655</ele>
        <time>2017-02-28T15:30:05Z</time>
      </trkpt>
      <trkpt lat="44.1289" lon="3.24474">
        <ele>656</ele>
        <time>2017-02-28T15:32:05Z</time>
      </trkpt>
      <trkpt lat="44.12893" lon="3.24473">
        <ele>656</ele>
        <time>2017-02-28T15:34:05Z</time>
      </trkpt>
      <trkpt lat="44.12896" lon="3.24471">
        <ele>656</ele>
        <time>2017-02-28T15:36:05Z</time>
      </trkpt>
      <trkpt lat="44.12897" lon="3.24471">
        <ele>656</ele>
        <time>2017-02-28T15:38:05Z</time>
      </trkpt>
      <trkpt lat="44.129" lon="3.2447">
        <ele>657</ele>
        <time>2017-02-28T15:40:05Z</time>
      </trkpt>
      <trkpt lat="44.12904" lon="3.2447">
        <ele>658</ele>
        <time>2017-02-28T15:42:05Z</time>
      </trkpt>
      <trkpt lat="44.12909" lon="3.2447">
        <ele>659</ele>
        <time>2017-02-28T15:44:05Z</time>
      </trkpt>
      <trkpt lat="44.12916" lon="3.24468">
        <ele>660</ele>
        <time>2017-02-28T15:46:05Z</time>
      </trkpt>
      <trkpt lat="44.12922" lon="3.24466">
        <ele>661</ele>
        <time>2017-02-28T15:48:05Z</time>
      </trkpt>
      <trkpt lat="44.12924" lon="3.24465">
        <ele>661</ele>
        <time>2017-02-28T15:50:05Z</time>
      </trkpt>
      <trkpt lat="44.12928" lon="3.24463">
        <ele>662</ele>
        <time>2017-02-28T15:52:05Z</time>
      </trkpt>
      <trkpt lat="44.12936" lon="3.2446">
        <ele>663</ele>
        <time>2017-02-28T15:54:05Z</time>
      </trkpt>
      <trkpt lat="44.12943" lon="3.24456">
        <ele>664</ele>
        <time>2017-02-28T15:56:05Z</time>
      </trkpt>
      <trkpt lat="44.12952" lon="3.24449">
        <ele>664</ele>
        <time>2017-02-28T15:58:05Z</time>
      </trkpt>
      <trkpt lat="44.1296" lon="3.24442">
        <ele>664</ele>
        <time>2017-02-28T16:00:05Z</time>
      </trkpt>
      <trkpt lat="44.12968" lon="3.24433">
        <ele>663</ele>
        <time>2017-02-28T16:02:05Z</time>
      </trkpt>
      <trkpt lat="44.12974" lon="3.24426">
        <ele>662</ele>
        <time>2017-02-28T16:04:05Z</time>
      </trkpt>
      <trkpt lat="44.12979" lon="3.24422">
        <ele>662</ele>
        <time>2017-02-28T16:06:05Z</time>
      </trkpt>
      <trkpt lat="44.12986" lon="3.24413">
        <ele>662</ele>
        <time>2017-02-28T16:08:05Z</time>
      </trkpt>
      <trkpt lat="44.12992" lon="3.24406">
        <ele>665</ele>
        <time>2017-02-28T16:10:05Z</time>
      </trkpt>
      <trkpt lat="44.12998" lon="3.24398">
        <ele>669</ele>
        <time>2017-02-28T16:12:05Z</time>
      </trkpt>
      <trkpt lat="44.13004" lon="3.24391">
        <ele>672</ele>
        <time>2017-02-28T16:14:05Z</time>
      </trkpt>
      <trkpt lat="44.13008" lon="3.24385">
        <ele>675</ele>
        <time>2017-02-28T16:16:05Z</time>
      </trkpt>
      <trkpt lat="44.13011" lon="3.2438">
        <ele>676</ele>
        <time>2017-02-28T16:18:05Z</time>
      </trkpt>
      <trkpt lat="44.13011" lon="3.24377">
        <ele>677</ele>
        <time>2017-02-28T16:20:05Z</time>
      </trkpt>
      <trkpt lat="44.13011" lon="3.24375">
        <ele>677</ele>
        <time>2017-02-28T16:22:05Z</time>
      </trkpt>
      <trkpt lat="44.1301" lon="3.24372">
        <ele>677</ele>
        <time>2017-02-28T16:24:05Z</time>
      </trkpt>
      <trkpt lat="44.13006" lon="3.24369">
        <ele>676</ele>
        <time>2017-02-28T16:26:05Z</time>
      </trkpt>
      <trkpt lat="44.12999" lon="3.24367">
        <ele>673</ele>
        <time>2017-02-28T16:28:05Z</time>
      </trkpt>
      <trkpt lat="44.12989" lon="3.24367">
        <ele>668</ele>
        <time>2017-02-28T16:30:05Z</time>
      </trkpt>
      <trkpt lat="44.12982" lon="3.24365">
        <ele>665</ele>
        <time>2017-02-28T16:32:05Z</time>
      </trkpt>
      <trkpt lat="44.12975" lon="3.24363">
        <ele>662</ele>
        <time>2017-02-28T16:34:05Z</time>
      </trkpt>
      <trkpt lat="44.12972" lon="3.24362">
        <ele>660</ele>
        <time>2017-02-28T16:36:05Z</time>
      </trkpt>
      <trkpt lat="44.12968" lon="3.24359">
        <ele>658</ele>
        <time>2017-02-28T16:38:05Z</time>
      </trkpt>
      <trkpt lat="44.12965" lon="3.24357">
        <ele>657</ele>
        <time>2017-02-28T16:40:05Z</time>
      </trkpt>
      <trkpt lat="44.12962" lon="3.24353">
        <ele>656</ele>
        <time>2017-02-28T16:42:05Z</time>
      </trkpt>
      <trkpt lat="44.12956" lon="3.24345">
        <ele>653</ele>
        <time>2017-02-28T16:44:05Z</time>
      </trkpt>
      <trkpt lat="44.12945" lon="3.24333">
        <ele>646</ele>
        <time>2017-02-28T16:46:05Z</time>
      </trkpt>
      <trkpt lat="44.12936" lon="3.2432">
        <ele>644</ele>
        <time>2017-02-28T16:48:05Z</time>
      </trkpt>
      <trkpt lat="44.12929" lon="3.24309">
        <ele>642</ele>
        <time>2017-02-28T16:50:05Z</time>
      </trkpt>
      <trkpt lat="44.12923" lon="3.24302">
        <ele>640</ele>
        <time>2017-02-28T16:52:05Z</time>
      </trkpt>
      <trkpt lat="44.12918" lon="3.24296">
        <ele>638</ele>
        <time>2017-02-28T16:54:05Z</time>
      </trkpt>
      <trkpt lat="44.12916" lon="3.24292">
        <ele>637</ele>
        <time>2017-02-28T16:56:05Z</time>
      </trkpt>
      <trkpt lat="44.12913" lon="3.24287">
        <ele>636</ele>
        <time>2017-02-28T16:58:05Z</time>
      </trkpt>
      <trkpt lat="44.1291" lon="3.24276">
        <ele>636</ele>
        <time>2017-02-28T17:00:05Z</time>
      </trkpt>
      <trkpt lat="44.12909" lon="3.24264">
        <ele>638</ele>
        <time>2017-02-28T17:02:05Z</time>
      </trkpt>
      <trkpt lat="44.12908" lon="3.24259">
        <ele>638</ele>
        <time>2017-02-28T17:04:05Z</time>
      </trkpt>
      <trkpt lat="44.12909" lon="3.2425">
        <ele>640</ele>
        <time>2017-02-28T17:06:05Z</time>
      </trkpt>
      <trkpt lat="44.1291" lon="3.24239">
        <ele>640</ele>
        <time>2017-02-28T17:08:05Z</time>
      </trkpt>
      <trkpt lat="44.12913" lon="3.2422">
        <ele>640</ele>
        <time>2017-02-28T17:10:05Z</time>
      </trkpt>
      <trkpt lat="44.12915" lon="3.242">
        <ele>639</ele>
        <time>2017-02-28T17:12:05Z</time>
      </trkpt>
      <trkpt lat="44.12919" lon="3.24179">
        <ele>640</ele>
        <time>2017-02-28T17:14:05Z</time>
      </trkpt>
      <trkpt lat="44.12921" lon="3.24163">
        <ele>640</ele>
        <time>2017-02-28T17:16:05Z</time>
      </trkpt>
      <trkpt lat="44.12923" lon="3.24156">
        <ele>643</ele>
        <time>2017-02-28T17:18:05Z</time>
      </trkpt>
      <trkpt lat="44.12923" lon="3.24148">
        <ele>645</ele>
        <time>2017-02-28T17:20:05Z</time>
      </trkpt>
      <trkpt lat="44.12924" lon="3.2414">
        <ele>647</ele>
        <time>2017-02-28T17:22:05Z</time>
      </trkpt>
      <trkpt lat="44.12925" lon="3.24133">
        <ele>649</ele>
        <time>2017-02-28T17:24:05Z</time>
      </trkpt>
      <trkpt lat="44.12927" lon="3.24123">
        <ele>652</ele>
        <time>2017-02-28T17:26:05Z</time>
      </trkpt>
      <trkpt lat="44.12929" lon="3.24116">
        <ele>654</ele>
        <time>2017-02-28T17:28:05Z</time>
      </trkpt>
      <trkpt lat="44.1293" lon="3.24114">
        <ele>655</ele>
        <time>2017-02-28T17:30:05Z</time>
      </trkpt>
      <trkpt lat="44.12934" lon="3.24108">
        <ele>657</ele>
        <time>2017-02-28T17:32:05Z</time>
      </trkpt>
      <trkpt lat="44.12937" lon="3.24105">
        <ele>659</ele>
        <time>2017-02-28T17:34:05Z</time>
      </trkpt>
      <trkpt lat="44.12939" lon="3.24102">
        <ele>660</ele>
        <time>2017-02-28T17:36:05Z</time>
      </trkpt>
      <trkpt lat="44.1294" lon="3.24099">
        <ele>660</ele>
        <time>2017-02-28T17:38:05Z</time>
      </trkpt>
      <trkpt lat="44.1294" lon="3.24094">
        <ele>661</ele>
        <time>2017-02-28T17:40:05Z</time>
      </trkpt>
      <trkpt lat="44.12939" lon="3.24091">
        <ele>661</ele>
        <time>2017-02-28T17:42:05Z</time>
      </trkpt>
      <trkpt lat="44.12936" lon="3.24088">
        <ele>661</ele>
        <time>2017-02-28T17:44:05Z</time>
      </trkpt>
      <trkpt lat="44.12932" lon="3.24086">
        <ele>660</ele>
        <time>2017-02-28T17:46:05Z</time>
      </trkpt>
      <trkpt lat="44.1293" lon="3.24086">
        <ele>660</ele>
        <time>2017-02-28T17:48:05Z</time>
      </trkpt>
      <trkpt lat="44.12928" lon="3.24084">
        <ele>660</ele>
        <time>2017-02-28T17:50:05Z</time>
      </trkpt>
      <trkpt lat="44.12925" lon="3.24081">
        <ele>660</ele>
        <time>2017-02-28T17:52:05Z</time>
      </trkpt>
      <trkpt lat="44.12922" lon="3.24079">
        <ele>660</ele>
        <time>2017-02-28T17:54:05Z</time>
      </trkpt>
      <trkpt lat="44.1292" lon="3.24077">
        <ele>661</ele>
        <time>2017-02-28T17:56:05Z</time>
      </trkpt>
      <trkpt lat="44.12917" lon="3.24074">
        <ele>661</ele>
        <time>2017-02-28T17:58:05Z</time>
      </trkpt>
      <trkpt lat="44.12915" lon="3.24071">
        <ele>662</ele>
        <time>2017-02-28T18:00:05Z</time>
      </trkpt>
      <trkpt lat="44.12912" lon="3.24066">
        <ele>665</ele>
        <time>2017-02-28T18:02:05Z</time>
      </trkpt>
      <trkpt lat="44.12911" lon="3.24064">
        <ele>666</ele>
        <time>2017-02-28T18:04:05Z</time>
      </trkpt>
      <trkpt lat="44.12908" lon="3.24063">
        <ele>666</ele>
        <time>2017-02-28T18:06:05Z</time>
      </trkpt>
      <trkpt lat="44.12905" lon="3.24062">
        <ele>667</ele>
        <time>2017-02-28T18:08:05Z</time>
      </trkpt>
      <trkpt lat="44.12903" lon="3.24062">
        <ele>667</ele>
        <time>2017-02-28T18:10:05Z</time>
      </trkpt>
      <trkpt lat="44.129" lon="3.24063">
        <ele>667</ele>
        <time>2017-02-28T18:12:05Z</time>
      </trkpt>
      <trkpt lat="44.12894" lon="3.24068">
        <ele>664</ele>
        <time>2017-02-28T18:14:05Z</time>
      </trkpt>
      <trkpt lat="44.12888" lon="3.24075">
        <ele>661</ele>
        <time>2017-02-28T18:16:05Z</time>
      </trkpt>
      <trkpt lat="44.12881" lon="3.24081">
        <ele>658</ele>
        <time>2017-02-28T18:18:05Z</time>
      </trkpt>
      <trkpt lat="44.12875" lon="3.24086">
        <ele>655</ele>
        <time>2017-02-28T18:20:05Z</time>
      </trkpt>
      <trkpt lat="44.12872" lon="3.2409">
        <ele>654</ele>
        <time>2017-02-28T18:22:05Z</time>
      </trkpt>
      <trkpt lat="44.12867" lon="3.24094">
        <ele>652</ele>
        <time>2017-02-28T18:24:05Z</time>
      </trkpt>
      <trkpt lat="44.12863" lon="3.24097">
        <ele>650</ele>
        <time>2017-02-28T18:26:05Z</time>
      </trkpt>
      <trkpt lat="44.12857" lon="3.24099">
        <ele>649</ele>
        <time>2017-02-28T18:28:05Z</time>
      </trkpt>
      <trkpt lat="44.12852" lon="3.24099">
        <ele>648</ele>
        <time>2017-02-28T18:30:05Z</time>
      </trkpt>
      <trkpt lat="44.12847" lon="3.241">
        <ele>647</ele>
        <time>2017-02-28T18:32:05Z</time>
      </trkpt>
      <trkpt lat="44.12842" lon="3.24101">
        <ele>646</ele>
        <time>2017-02-28T18:34:05Z</time>
      </trkpt>
      <trkpt lat="44.12833" lon="3.24104">
        <ele>644</ele>
        <time>2017-02-28T18:36:05Z</time>
      </trkpt>
      <trkpt lat="44.1282" lon="3.24111">
        <ele>641</ele>
        <time>2017-02-28T18:38:05Z</time>
      </trkpt>
      <trkpt lat="44.12798" lon="3.24121">
        <ele>638</ele>
        <time>2017-02-28T18:40:05Z</time>
      </trkpt>
      <trkpt lat="44.12796" lon="3.24123">
        <ele>637</ele>
        <time>2017-02-28T18:42:05Z</time>
      </trkpt>
      <trkpt lat="44.12796" lon="3.24123">
        <ele>637</ele>
        <time>2017-02-28T18:44:05Z</time>
      </trkpt>
      <trkpt lat="44.1279" lon="3.24126">
        <ele>636</ele>
        <time>2017-02-28T18:46:05Z</time>
      </trkpt>
      <trkpt lat="44.12786" lon="3.24129">
        <ele>635</ele>
        <time>2017-02-28T18:48:05Z</time>
      </trkpt>
      <trkpt lat="44.12781" lon="3.24136">
        <ele>632</ele>
        <time>2017-02-28T18:50:05Z</time>
      </trkpt>
      <trkpt lat="44.12772" lon="3.24147">
        <ele>627</ele>
        <time>2017-02-28T18:52:05Z</time>
      </trkpt>
      <trkpt lat="44.12763" lon="3.24158">
        <ele>623</ele>
        <time>2017-02-28T18:54:05Z</time>
      </trkpt>
      <trkpt lat="44.12754" lon="3.24167">
        <ele>619</ele>
        <time>2017-02-28T18:56:05Z</time>
      </trkpt>
      <trkpt lat="44.12752" lon="3.2417">
        <ele>618</ele>
        <time>2017-02-28T18:58:05Z</time>
      </trkpt>
      <trkpt lat="44.12748" lon="3.24174">
        <ele>616</ele>
        <time>2017-02-28T19:00:05Z</time>
      </trkpt>
      <trkpt lat="44.12745" lon="3.24176">
        <ele>615</ele>
        <time>2017-02-28T19:02:05Z</time>
      </trkpt>
      <trkpt lat="44.12743" lon="3.24176">
        <ele>615</ele>
        <time>2017-02-28T19:04:05Z</time>
      </trkpt>
      <trkpt lat="44.12733" lon="3.24175">
        <ele>614</ele>
        <time>2017-02-28T19:06:05Z</time>
      </trkpt>
      <trkpt lat="44.12725" lon="3.24173">
        <ele>614</ele>
        <time>2017-02-28T19:08:05Z</time>
      </trkpt>
      <trkpt lat="44.12716" lon="3.24171">
        <ele>614</ele>
        <time>2017-02-28T19:10:05Z</time>
      </trkpt>
      <trkpt lat="44.12703" lon="3.2417">
        <ele>612</ele>
        <time>2017-02-28T19:12:05Z</time>
      </trkpt>
      <trkpt lat="44.1269" lon="3.24169">
        <ele>611</ele>
        <time>2017-02-28T19:14:05Z</time>
      </trkpt>
      <trkpt lat="44.12675" lon="3.24166">
        <ele>610</ele>
        <time>2017-02-28T19:16:05Z</time>
      </trkpt>
      <trkpt lat="44.12668" lon="3.24162">
        <ele>611</ele>
        <time>2017-02-28T19:18:05Z</time>
      </trkpt>
      <trkpt lat="44.12661" lon="3.24161">
        <ele>609</ele>
        <time>2017-02-28T19:20:05Z</time>
      </trkpt>
      <trkpt lat="44.12657" lon="3.24159">
        <ele>608</ele>
        <time>2017-02-28T19:22:05Z</time>
      </trkpt>
      <trkpt lat="44.12652" lon="3.24156">
        <ele>607</ele>
        <time>2017-02-28T19:24:05Z</time>
      </trkpt>
      <trkpt lat="44.12649" lon="3.24152">
        <ele>607</ele>
        <time>2017-02-28T19:26:05Z</time>
      </trkpt>
      <trkpt lat="44.12646" lon="3.24145">
        <ele>608</ele>
        <time>2017-02-28T19:28:05Z</time>
      </trkpt>
      <trkpt lat="44.12644" lon="3.24128">
        <ele>614</ele>
        <time>2017-02-28T19:30:05Z</time>
      </trkpt>
      <trkpt lat="44.12644" lon="3.24121">
        <ele>616</ele>
        <time>2017-02-28T19:32:05Z</time>
      </trkpt>
      <trkpt lat="44.12645" lon="3.24114">
        <ele>619</ele>
        <time>2017-02-28T19:34:05Z</time>
      </trkpt>
      <trkpt lat="44.12646" lon="3.24108">
        <ele>621</ele>
        <time>2017-02-28T19:36:05Z</time>
      </trkpt>
      <trkpt lat="44.12647" lon="3.24101">
        <ele>624</ele>
        <time>2017-02-28T19:38:05Z</time>
      </trkpt>
      <trkpt lat="44.12646" lon="3.24096">
        <ele>625</ele>
        <time>2017-02-28T19:40:05Z</time>
      </trkpt>
      <trkpt lat="44.12646" lon="3.24091">
        <ele>627</ele>
        <time>2017-02-28T19:42:05Z</time>
      </trkpt>
      <trkpt lat="44.12645" lon="3.24088">
        <ele>628</ele>
        <time>2017-02-28T19:44:05Z</time>
      </trkpt>
      <trkpt lat="44.12643" lon="3.24086">
        <ele>628</ele>
        <time>2017-02-28T19:46:05Z</time>
      </trkpt>
      <trkpt lat="44.12641" lon="3.24084">
        <ele>628</ele>
        <time>2017-02-28T19:48:05Z</time>
      </trkpt>
      <trkpt lat="44.12634" lon="3.24081">
        <ele>627</ele>
        <time>2017-02-28T19:50:05Z</time>
      </trkpt>
      <trkpt lat="44.12623" lon="3.24078">
        <ele>626</ele>
        <time>2017-02-28T19:52:05Z</time>
      </trkpt>
      <trkpt lat="44.12612" lon="3.24075">
        <ele>624</ele>
        <time>2017-02-28T19:54:05Z</time>
      </trkpt>
      <trkpt lat="44.12609" lon="3.24074">
        <ele>624</ele>
        <time>2017-02-28T19:56:05Z</time>
      </trkpt>
      <trkpt lat="44.12605" lon="3.24074">
        <ele>623</ele>
        <time>2017-02-28T19:58:05Z</time>
      </trkpt>
      <trkpt lat="44.12603" lon="3.24075">
        <ele>622</ele>
        <time>2017-02-28T20:00:05Z</time>
      </trkpt>
      <trkpt lat="44.126" lon="3.24077">
        <ele>620</ele>
        <time>2017-02-28T20:02:05Z</time>
      </trkpt>
      <trkpt lat="44.12597" lon="3.24078">
        <ele>619</ele>
        <time>2017-02-28T20:04:05Z</time>
      </trkpt>
      <trkpt lat="44.12592" lon="3.24079">
        <ele>617</ele>
        <time>2017-02-28T20:06:05Z</time>
      </trkpt>
      <trkpt lat="44.12583" lon="3.24079">
        <ele>615</ele>
        <time>2017-02-28T20:08:05Z</time>
      </trkpt>
      <trkpt lat="44.12572" lon="3.24077">
        <ele>616</ele>
        <time>2017-02-28T20:10:05Z</time>
      </trkpt>
      <trkpt lat="44.12564" lon="3.24077">
        <ele>616</ele>
        <time>2017-02-28T20:12:05Z</time>
      </trkpt>
      <trkpt lat="44.12557" lon="3.24079">
        <ele>615</ele>
        <time>2017-02-28T20:14:05Z</time>
      </trkpt>
      <trkpt lat="44.12546" lon="3.24082">
        <ele>613</ele>
        <time>2017-02-28T20:16:05Z</time>
      </trkpt>
      <trkpt lat="44.12527" lon="3.24087">
        <ele>610</ele>
        <time>2017-02-28T20:18:05Z</time>
      </trkpt>
      <trkpt lat="44.12519" lon="3.24089">
        <ele>609</ele>
        <time>2017-02-28T20:20:05Z</time>
      </trkpt>
      <trkpt lat="44.12512" lon="3.24092">
        <ele>608</ele>
        <time>2017-02-28T20:22:05Z</time>
      </trkpt>
      <trkpt lat="44.12507" lon="3.24094">
        <ele>606</ele>
        <time>2017-02-28T20:24:05Z</time>
      </trkpt>
      <trkpt lat="44.12503" lon="3.24095">
        <ele>606</ele>
        <time>2017-02-28T20:26:05Z</time>
      </trkpt>
      <trkpt lat="44.12498" lon="3.24096">
        <ele>605</ele>
        <time>2017-02-28T20:28:05Z</time>
      </trkpt>
      <trkpt lat="44.12494" lon="3.24097">
        <ele>604</ele>
        <time>2017-02-28T20:30:05Z</time>
      </trkpt>
      <trkpt lat="44.12489" lon="3.24098">
        <ele>603</ele>
        <time>2017-02-28T20:32:05Z</time>
      </trkpt>
      <trkpt lat="44.12483" lon="3.24098">
        <ele>603</ele>
        <time>2017-02-28T20:34:05Z</time>
      </trkpt>
      <trkpt lat="44.12477" lon="3.24098">
        <ele>602</ele>
        <time>2017-02-28T20:36:05Z</time>
      </trkpt>
      <trkpt lat="44.1247" lon="3.24097">
        <ele>602</ele>
        <time>2017-02-28T20:38:05Z</time>
      </trkpt>
      <trkpt lat="44.12456" lon="3.24097">
        <ele>601</ele>
        <time>2017-02-28T20:40:05Z</time>
      </trkpt>
      <trkpt lat="44.12451" lon="3.24098">
        <ele>600</ele>
        <time>2017-02-28T20:42:05Z</time>
      </trkpt>
      <trkpt lat="44.12442" lon="3.24099">
        <ele>599</ele>
        <time>2017-02-28T20:44:05Z</time>
      </trkpt>
      <trkpt lat="44.12441" lon="3.24099">
        <ele>599</ele>
        <time>2017-02-28T20:46:05Z</time>
      </trkpt>
      <trkpt lat="44.12431" lon="3.24101">
        <ele>597</ele>
        <time>2017-02-28T20:48:05Z</time>
      </trkpt>
      <trkpt lat="44.12425" lon="3.24102">
        <ele>596</ele>
        <time>2017-02-28T20:50:05Z</time>
      </trkpt>
      <trkpt lat="44.12416" lon="3.24102">
        <ele>595</ele>
        <time>2017-02-28T20:52:05Z</time>
      </trkpt>
      <trkpt lat="44.12408" lon="3.24101">
        <ele>594</ele>
        <time>2017-02-28T20:54:05Z</time>
      </trkpt>
      <trkpt lat="44.12399" lon="3.24099">
        <ele>592</ele>
        <time>2017-02-28T20:56:05Z</time>
      </trkpt>
      <trkpt lat="44.12394" lon="3.24098">
        <ele>591</ele>
        <time>2017-02-28T20:58:05Z</time>
      </trkpt>
      <trkpt lat="44.1239" lon="3.24094">
        <ele>592</ele>
        <time>2017-02-28T21:00:05Z</time>
      </trkpt>
      <trkpt lat="44.12382" lon="3.24086">
        <ele>593</ele>
        <time>2017-02-28T21:02:05Z</time>
      </trkpt>
      <trkpt lat="44.12371" lon="3.24075">
        <ele>593</ele>
        <time>2017-02-28T21:04:05Z</time>
      </trkpt>
      <trkpt lat="44.12355" lon="3.24059">
        <ele>591</ele>
        <time>2017-02-28T21:06:05Z</time>
      </trkpt>
      <trkpt lat="44.12346" lon="3.2405">
        <ele>590</ele>
        <time>2017-02-28T21:08:05Z</time>
      </trkpt>
      <trkpt lat="44.1234" lon="3.24043">
        <ele>589</ele>
        <time>2017-02-28T21:10:05Z</time>
      </trkpt>
      <trkpt lat="44.12338" lon="3.24039">
        <ele>589</ele>
        <time>2017-02-28T21:12:05Z</time>
      </trkpt>
      <trkpt lat="44.12336" lon="3.24033">
        <ele>590</ele>
        <time>2017-02-28T21:14:05Z</time>
      </trkpt>
      <trkpt lat="44.12334" lon="3.24028">
        <ele>590</ele>
        <time>2017-02-28T21:16:05Z</time>
      </trkpt>
      <trkpt lat="44.12331" lon="3.2402">
        <ele>590</ele>
        <time>2017-02-28T21:18:05Z</time>
      </trkpt>
      <trkpt lat="44.12329" lon="3.24013">
        <ele>591</ele>
        <time>2017-02-28T21:20:05Z</time>
      </trkpt>
      <trkpt lat="44.12328" lon="3.24002">
        <ele>593</ele>
        <time>2017-02-28T21:22:05Z</time>
      </trkpt>
      <trkpt lat="44.12327" lon="3.23995">
        <ele>593</ele>
        <time>2017-02-28T21:24:05Z</time>
      </trkpt>
      <trkpt lat="44.12327" lon="3.23984">
        <ele>594</ele>
        <time>2017-02-28T21:26:05Z</time>
      </trkpt>
      <trkpt lat="44.12326" lon="3.23974">
        <ele>594</ele>
        <time>2017-02-28T21:28:05Z</time>
      </trkpt>
      <trkpt lat="44.12326" lon="3.23961">
        <ele>595</ele>
        <time>2017-02-28T21:30:05Z</time>
      </trkpt>
      <trkpt lat="44.12324" lon="3.23946">
        <ele>596</ele>
        <time>2017-02-28T21:32:05Z</time>
      </trkpt>
      <trkpt lat="44.12322" lon="3.23931">
        <ele>596</ele>
        <time>2017-02-28T21:34:05Z</time>
      </trkpt>
      <trkpt lat="44.12317" lon="3.239">
        <ele>595</ele>
        <time>2017-02-28T21:36:05Z</time>
      </trkpt>
      <trkpt lat="44.12316" lon="3.2389">
        <ele>594</ele>
        <time>2017-02-28T21:38:05Z</time>
      </trkpt>
      <trkpt lat="44.12314" lon="3.23873">
        <ele>593</ele>
        <time>2017-02-28T21:40:05Z</time>
      </trkpt>
      <trkpt lat="44.12314" lon="3.23868">
        <ele>593</ele>
        <time>2017-02-28T21:42:05Z</time>
      </trkpt>
      <trkpt lat="44.12314" lon="3.23862">
        <ele>593</ele>
        <time>2017-02-28T21:44:05Z</time>
      </trkpt>
      <trkpt lat="44.12313" lon="3.23856">
        <ele>593</ele>
        <time>2017-02-28T21:46:05Z</time>
      </trkpt>
      <trkpt lat="44.12312" lon="3.23849">
        <ele>592</ele>
        <time>2017-02-28T21:48:05Z</time>
      </trkpt>
      <trkpt lat="44.12311" lon="3.23844">
        <ele>592</ele>
        <time>2017-02-28T21:50:05Z</time>
      </trkpt>
      <trkpt lat="44.12311" lon="3.23831">
        <ele>591</ele>
        <time>2017-02-28T21:52:05Z</time>
      </trkpt>
      <trkpt lat="44.12313" lon="3.2382">
        <ele>592</ele>
        <time>2017-02-28T21:54:05Z</time>
      </trkpt>
      <trkpt lat="44.12314" lon="3.23808">
        <ele>591</ele>
        <time>2017-02-28T21:56:05Z</time>
      </trkpt>
      <trkpt lat="44.12315" lon="3.23799">
        <ele>591</ele>
        <time>2017-02-28T21:58:05Z</time>
      </trkpt>
      <trkpt lat="44.12316" lon="3.23792">
        <ele>592</ele>
        <time>2017-02-28T22:00:05Z</time>
      </trkpt>
      <trkpt lat="44.12318" lon="3.23787">
        <ele>592</ele>
        <time>2017-02-28T22:02:05Z</time>
      </trkpt>
      <trkpt lat="44.12319" lon="3.23783">
        <ele>592</ele>
        <time>2017-02-28T22:04:05Z</time>
      </trkpt>
      <trkpt lat="44.12319" lon="3.23781">
        <ele>592</ele>
        <time>2017-02-28T22:06:05Z</time>
      </trkpt>
      <trkpt lat="44.12317" lon="3.23773">
        <ele>591</ele>
        <time>2017-02-28T22:08:05Z</time>
      </trkpt>
      <trkpt lat="44.12315" lon="3.23764">
        <ele>590</ele>
        <time>2017-02-28T22:10:05Z</time>
      </trkpt>
      <trkpt lat="44.12313" lon="3.23754">
        <ele>589</ele>
        <time>2017-02-28T22:12:05Z</time>
      </trkpt>
      <trkpt lat="44.12311" lon="3.23747">
        <ele>588</ele>
        <time>2017-02-28T22:14:05Z</time>
      </trkpt>
      <trkpt lat="44.12308" lon="3.2374">
        <ele>587</ele>
        <time>2017-02-28T22:16:05Z</time>
      </trkpt>
      <trkpt lat="44.12306" lon="3.23732">
        <ele>586</ele>
        <time>2017-02-28T22:18:05Z</time>
      </trkpt>
      <trkpt lat="44.12305" lon="3.23722">
        <ele>585</ele>
        <time>2017-02-28T22:20:05Z</time>
      </trkpt>
      <trkpt lat="44.12303" lon="3.23713">
        <ele>584</ele>
        <time>2017-02-28T22:22:05Z</time>
      </trkpt>
      <trkpt lat="44.12299" lon="3.23704">
        <ele>582</ele>
        <time>2017-02-28T22:24:05Z</time>
      </trkpt>
      <trkpt lat="44.12298" lon="3.237">
        <ele>582</ele>
        <time>2017-02-28T22:26:05Z</time>
      </trkpt>
      <trkpt lat="44.12297" lon="3.23698">
        <ele>581</ele>
        <time>2017-02-28T22:28:05Z</time>
      </trkpt>
      <trkpt lat="44.12295" lon="3.23691">
        <ele>580</ele>
        <time>2017-02-28T22:30:05Z</time>
      </trkpt>
      <trkpt lat="44.12295" lon="3.23678">
        <ele>580</ele>
        <time>2017-02-28T22:32:05Z</time>
      </trkpt>
      <trkpt lat="44.12294" lon="3.23664">
        <ele>579</ele>
        <time>2017-02-28T22:34:05Z</time>
      </trkpt>
      <trkpt lat="44.12293" lon="3.23643">
        <ele>578</ele>
        <time>2017-02-28T22:36:05Z</time>
      </trkpt>
      <trkpt lat="44.12293" lon="3.23627">
        <ele>577</ele>
        <time>2017-02-28T22:38:05Z</time>
      </trkpt>
      <trkpt lat="44.12293" lon="3.23607">
        <ele>577</ele>
        <time>2017-02-28T22:40:05Z</time>
      </trkpt>
      <trkpt lat="44.12293" lon="3.2359">
        <ele>576</ele>
        <time>2017-02-28T22:42:05Z</time>
      </trkpt>
      <trkpt lat="44.12293" lon="3.23575">
        <ele>575</ele>
        <time>2017-02-28T22:44:05Z</time>
      </trkpt>
      <trkpt lat="44.12293" lon="3.23569">
        <ele>575</ele>
        <time>2017-02-28T22:46:05Z</time>
      </trkpt>
      <trkpt lat="44.12294" lon="3.23566">
        <ele>575</ele>
        <time>2017-02-28T22:48:05Z</time>
      </trkpt>
      <trkpt lat="44.12295" lon="3.23562">
        <ele>575</ele>
        <time>2017-02-28T22:50:05Z</time>
      </trkpt>
      <trkpt lat="44.12297" lon="3.23559">
        <ele>576</ele>
        <time>2017-02-28T22:52:05Z</time>
      </trkpt>
      <trkpt lat="44.12299" lon="3.23554">
        <ele>576</ele>
        <time>2017-02-28T22:54:05Z</time>
      </trkpt>
      <trkpt lat="44.123" lon="3.23551">
        <ele>576</ele>
        <time>2017-02-28T22:56:05Z</time>
      </trkpt>
      <trkpt lat="44.12302" lon="3.23543">
        <ele>576</ele>
        <time>2017-02-28T22:58:05Z</time>
      </trkpt>
      <trkpt lat="44.12307" lon="3.23522">
        <ele>576</ele>
        <time>2017-02-28T23:00:05Z</time>
      </trkpt>
      <trkpt lat="44.12312" lon="3.23505">
        <ele>576</ele>
        <time>2017-02-28T23:02:05Z</time>
      </trkpt>
      <trkpt lat="44.12318" lon="3.23476">
        <ele>576</ele>
        <time>2017-02-28T23:04:05Z</time>
      </trkpt>
      <trkpt lat="44.1232" lon="3.23464">
        <ele>576</ele>
        <time>2017-02-28T23:06:05Z</time>
      </trkpt>
      <trkpt lat="44.12321" lon="3.23456">
        <ele>575</ele>
        <time>2017-02-28T23:08:05Z</time>
      </trkpt>
      <trkpt lat="44.12323" lon="3.23446">
        <ele>575</ele>
        <time>2017-02-28T23:10:05Z</time>
      </trkpt>
      <trkpt lat="44.12324" lon="3.23438">
        <ele>575</ele>
        <time>2017-02-28T23:12:05Z</time>
      </trkpt>
      <trkpt lat="44.12324" lon="3.23425">
        <ele>574</ele>
        <time>2017-02-28T23:14:05Z</time>
      </trkpt>
      <trkpt lat="44.12324" lon="3.2342">
        <ele>574</ele>
        <time>2017-02-28T23:16:05Z</time>
      </trkpt>
      <trkpt lat="44.12324" lon="3.23415">
        <ele>574</ele>
        <time>2017-02-28T23:18:05Z</time>
      </trkpt>
      <trkpt lat="44.12328" lon="3.23394">
        <ele>574</ele>
        <time>2017-02-28T23:20:05Z</time>
      </trkpt>
      <trkpt lat="44.12332" lon="3.23376">
        <ele>575</ele>
        <time>2017-02-28T23:22:05Z</time>
      </trkpt>
      <trkpt lat="44.12336" lon="3.23365">
        <ele>575</ele>
        <time>2017-02-28T23:24:05Z</time>
      </trkpt>
      <trkpt lat="44.12338" lon="3.23359">
        <ele>576</ele>
        <time>2017-02-28T23:26:05Z</time>
      </trkpt>
      <trkpt lat="44.12342" lon="3.23351">
        <ele>576</ele>
        <time>2017-02-28T23:28:05Z</time>
      </trkpt>
      <trkpt lat="44.12345" lon="3.23344">
        <ele>576</ele>
        <time>2017-02-28T23:30:05Z</time>
      </trkpt>
      <trkpt lat="44.12356" lon="3.23329">
        <ele>576</ele>
        <time>2017-02-28T23:32:05Z</time>
      </trkpt>
      <trkpt lat="44.12362" lon="3.23319">
        <ele>574</ele>
        <time>2017-02-28T23:34:05Z</time>
      </trkpt>
      <trkpt lat="44.12367" lon="3.23311">
        <ele>573</ele>
        <time>2017-02-28T23:36:05Z</time>
      </trkpt>
      <trkpt lat="44.1237" lon="3.23305">
        <ele>571</ele>
        <time>2017-02-28T23:38:05Z</time>
      </trkpt>
      <trkpt lat="44.12372" lon="3.23299">
        <ele>570</ele>
        <time>2017-02-28T23:40:05Z</time>
      </trkpt>
      <trkpt lat="44.12375" lon="3.23293">
        <ele>569</ele>
        <time>2017-02-28T23:42:05Z</time>
      </trkpt>
      <trkpt lat="44.12376" lon="3.23289">
        <ele>568</ele>
        <time>2017-02-28T23:44:05Z</time>
      </trkpt>
      <trkpt lat="44.12379" lon="3.23285">
        <ele>567</ele>
        <time>2017-02-28T23:46:05Z</time>
      </trkpt>
      <trkpt lat="44.12382" lon="3.23283">
        <ele>566</ele>
        <time>2017-02-28T23:48:05Z</time>
      </trkpt>
      <trkpt lat="44.12388" lon="3.23277">
        <ele>565</ele>
        <time>2017-02-28T23:50:05Z</time>
      </trkpt>
      <trkpt lat="44.12391" lon="3.23272">
        <ele>564</ele>
        <time>2017-02-28T23:52:05Z</time>
      </trkpt>
      <trkpt lat="44.12395" lon="3.23265">
        <ele>562</ele>
        <time>2017-02-28T23:54:05Z</time>
      </trkpt>
      <trkpt lat="44.124" lon="3.23257">
        <ele>560</ele>
        <time>2017-02-28T23:56:05Z</time>
      </trkpt>
      <trkpt lat="44.12403" lon="3.23254">
        <ele>559</ele>
        <time>2017-02-28T23:58:05Z</time>
      </trkpt>
      <trkpt lat="44.12406" lon="3.23252">
        <ele>559</ele>
        <time>2017-03-01T00:00:05Z</time>
      </trkpt>
      <trkpt lat="44.1241" lon="3.23251">
        <ele>558</ele>
        <time>2017-03-01T00:02:05Z</time>
      </trkpt>
      <trkpt lat="44.12419" lon="3.23249">
        <ele>558</ele>
        <time>2017-03-01T00:04:05Z</time>
      </trkpt>
      <trkpt lat="44.12429" lon="3.23247">
        <ele>559</ele>
        <time>2017-03-01T00:06:05Z</time>
      </trkpt>
      <trkpt lat="44.12432" lon="3.23245">
        <ele>559</ele>
        <time>2017-03-01T00:08:05Z</time>
      </trkpt>
      <trkpt lat="44.12433" lon="3.23238">
        <ele>556</ele>
        <time>2017-03-01T00:10:05Z</time>
      </trkpt>
      <trkpt lat="44.12434" lon="3.23231">
        <ele>554</ele>
        <time>2017-03-01T00:12:05Z</time>
      </trkpt>
      <trkpt lat="44.12437" lon="3.23222">
        <ele>550</ele>
        <time>2017-03-01T00:14:05Z</time>
      </trkpt>
      <trkpt lat="44.12439" lon="3.23219">
        <ele>550</ele>
        <time>2017-03-01T00:16:05Z</time>
      </trkpt>
      <trkpt lat="44.12442" lon="3.23214">
        <ele>548</ele>
        <time>2017-03-01T00:18:05Z</time>
      </trkpt>
      <trkpt lat="44.12444" lon="3.23213">
        <ele>548</ele>
        <time>2017-03-01T00:20:05Z</time>
      </trkpt>
      <trkpt lat="44.12446" lon="3.23211">
        <ele>548</ele>
        <time>2017-03-01T00:22:05Z</time>
      </trkpt>
      <trkpt lat="44.12453" lon="3.23206">
        <ele>548</ele>
        <time>2017-03-01T00:24:05Z</time>
      </trkpt>
      <trkpt lat="44.12454" lon="3.23202">
        <ele>546</ele>
        <time>2017-03-01T00:26:05Z</time>
      </trkpt>
      <trkpt lat="44.12456" lon="3.23198">
        <ele>545</ele>
        <time>2017-03-01T00:28:05Z</time>
      </trkpt>
      <trkpt lat="44.12458" lon="3.23195">
        <ele>544</ele>
        <time>2017-03-01T00:30:05Z</time>
      </trkpt>
      <trkpt lat="44.12462" lon="3.23191">
        <ele>544</ele>
        <time>2017-03-01T00:32:05Z</time>
      </trkpt>
      <trkpt lat="44.12465" lon="3.2319">
        <ele>544</ele>
        <time>2017-03-01T00:34:05Z</time>
      </trkpt>
      <trkpt lat="44.12469" lon="3.2319">
        <ele>545</ele>
        <time>2017-03-01T00:36:05Z</time>
      </trkpt>
      <trkpt lat="44.12472" lon="3.23189">
        <ele>545</ele>
        <time>2017-03-01T00:38:05Z</time>
      </trkpt>
      <trkpt lat="44.12474" lon="3.23187">
        <ele>545</ele>
        <time>2017-03-01T00:40:05Z</time>
      </trkpt>
      <trkpt lat="44.12479" lon="3.2318">
        <ele>544</ele>
        <time>2017-03-01T00:42:05Z</time>
      </trkpt>
      <trkpt lat="44.12484" lon="3.23175">
        <ele>543</ele>
        <time>2017-03-01T00:44:05Z</time>
      </trkpt>
      <trkpt lat="44.12486" lon="3.23171">
        <ele>542</ele>
        <time>2017-03-01T00:46:05Z</time>
      </trkpt>
      <trkpt lat="44.1249" lon="3.23166">
        <ele>541</ele>
        <time>2017-03-01T00:48:05Z</time>
      </trkpt>
      <trkpt lat="44.12494" lon="3.23159">
        <ele>540</ele>
        <time>2017-03-01T00:50:05Z</time>
      </trkpt>
      <trkpt lat="44.12498" lon="3.23152">
        <ele>539</ele>
        <time>2017-03-01T00:52:05Z</time>
      </trkpt>
      <trkpt lat="44.12502" lon="3.23144">
        <ele>537</ele>
        <time>2017-03-01T00:54:05Z</time>
      </trkpt>
      <trkpt lat="44.12504" lon="3.23138">
        <ele>537</ele>
        <time>2017-03-01T00:56:05Z</time>
      </trkpt>
      <trkpt lat="44.12506" lon="3.23135">
        <ele>537</ele>
        <time>2017-03-01T00:58:05Z</time>
      </trkpt>
      <trkpt lat="44.12506" lon="3.23134">
        <ele>536</ele>
        <time>2017-03-01T01:00:05Z</time>
      </trkpt>
      <trkpt lat="44.12504" lon="3.23132">
        <ele>535</ele>
        <time>2017-03-01T01:02:05Z</time>
      </trkpt>
      <trkpt lat="44.12502" lon="3.23129">
        <ele>532</ele>
        <time>2017-03-01T01:04:05Z</time>
      </trkpt>
      <trkpt lat="44.12499" lon="3.23128">
        <ele>531</ele>
        <time>2017-03-01T01:06:05Z</time>
      </trkpt>
      <trkpt lat="44.12496" lon="3.23127">
        <ele>529</ele>
        <time>2017-03-01T01:08:05Z</time>
      </trkpt>
      <trkpt lat="44.12491" lon="3.23127">
        <ele>528</ele>
        <time>2017-03-01T01:10:05Z</time>
      </trkpt>
      <trkpt lat="44.12485" lon="3.23128">
        <ele>526</ele>
        <time>2017-03-01T01:12:05Z</time>
      </trkpt>
      <trkpt lat="44.12479" lon="3.23129">
        <ele>525</ele>
        <time>2017-03-01T01:14:05Z</time>
      </trkpt>
      <trkpt lat="44.12477" lon="3.23129">
        <ele>524</ele>
        <time>2017-03-01T01:16:05Z</time>
      </trkpt>
      <trkpt lat="44.12475" lon="3.23126">
        <ele>522</ele>
        <time>2017-03-01T01:18:05Z</time>
      </trkpt>
      <trkpt lat="44.12474" lon="3.23122">
        <ele>520</ele>
        <time>2017-03-01T01:20:05Z</time>
      </trkpt>
      <trkpt lat="44.12473" lon="3.23113">
        <ele>517</ele>
        <time>2017-03-01T01:22:05Z</time>
      </trkpt>
      <trkpt lat="44.12472" lon="3.2311">
        <ele>515</ele>
        <time>2017-03-01T01:24:05Z</time>
      </trkpt>
      <trkpt lat="44.12473" lon="3.23107">
        <ele>515</ele>
        <time>2017-03-01T01:26:05Z</time>
      </trkpt>
      <trkpt lat="44.12474" lon="3.23104">
        <ele>514</ele>
        <time>2017-03-01T01:28:05Z</time>
      </trkpt>
      <trkpt lat="44.12476" lon="3.23097">
        <ele>512</ele>
        <time>2017-03-01T01:30:05Z</time>
      </trkpt>
      <trkpt lat="44.12478" lon="3.23094">
        <ele>511</ele>
        <time>2017-03-01T01:32:05Z</time>
      </trkpt>
      <trkpt lat="44.12478" lon="3.2309">
        <ele>510</ele>
        <time>2017-03-01T01:34:05Z</time>
      </trkpt>
      <trkpt lat="44.12476" lon="3.23088">
        <ele>509</ele>
        <time>2017-03-01T01:36:05Z</time>
      </trkpt>
      <trkpt lat="44.12474" lon="3.23086">
        <ele>507</ele>
        <time>2017-03-01T01:38:05Z</time>
      </trkpt>
      <trkpt lat="44.1247" lon="3.23086">
        <ele>505</ele>
        <time>2017-03-01T01:40:05Z</time>
      </trkpt>
      <trkpt lat="44.12468" lon="3.23086">
        <ele>505</ele>
        <time>2017-03-01T01:42:05Z</time>
      </trkpt>
      <trkpt lat="44.12463" lon="3.23087">
        <ele>503</ele>
        <time>2017-03-01T01:44:05Z</time>
      </trkpt>
      <trkpt lat="44.12458" lon="3.23087">
        <ele>501</ele>
        <time>2017-03-01T01:46:05Z</time>
      </trkpt>
      <trkpt lat="44.12454" lon="3.23086">
        <ele>499</ele>
        <time>2017-03-01T01:48:05Z</time>
      </trkpt>
      <trkpt lat="44.12454" lon="3.23084">
        <ele>499</ele>
        <time>2017-03-01T01:50:05Z</time>
      </trkpt>
      <trkpt lat="44.12453" lon="3.23082">
        <ele>497</ele>
        <time>2017-03-01T01:52:05Z</time>
      </trkpt>
      <trkpt lat="44.12453" lon="3.23079">
        <ele>496</ele>
        <time>2017-03-01T01:54:05Z</time>
      </trkpt>
      <trkpt lat="44.12453" lon="3.23075">
        <ele>495</ele>
        <time>2017-03-01T01:56:05Z</time>
      </trkpt>
      <trkpt lat="44.12453" lon="3.2307">
        <ele>493</ele>
        <time>2017-03-01T01:58:05Z</time>
      </trkpt>
      <trkpt lat="44.12454" lon="3.23064">
        <ele>491</ele>
        <time>2017-03-01T02:00:05Z</time>
      </trkpt>
      <trkpt lat="44.12456" lon="3.23057">
        <ele>489</ele>
        <time>2017-03-01T02:02:05Z</time>
      </trkpt>
      <trkpt lat="44.12457" lon="3.23053">
        <ele>488</ele>
        <time>2017-03-01T02:04:05Z</time>
      </trkpt>
      <trkpt lat="44.12458" lon="3.23049">
        <ele>487</ele>
        <time>2017-03-01T02:06:05Z</time>
      </trkpt>
      <trkpt lat="44.12462" lon="3.23043">
        <ele>486</ele>
        <time>2017-03-01T02:08:05Z</time>
      </trkpt>
      <trkpt lat="44.12464" lon="3.23039">
        <ele>485</ele>
        <time>2017-03-01T02:10:05Z</time>
      </trkpt>
      <trkpt lat="44.12466" lon="3.23034">
        <ele>484</ele>
        <time>2017-03-01T02:12:05Z</time>
      </trkpt>
      <trkpt lat="44.12467" lon="3.2303">
        <ele>483</ele>
        <time>2017-03-01T02:14:05Z</time>
      </trkpt>
      <trkpt lat="44.12468" lon="3.23028">
        <ele>482</ele>
        <time>2017-03-01T02:16:05Z</time>
      </trkpt>
      <trkpt lat="44.12469" lon="3.23024">
        <ele>481</ele>
        <time>2017-03-01T02:18:05Z</time>
      </trkpt>
      <trkpt lat="44.12473" lon="3.23019">
        <ele>480</ele>
        <time>2017-03-01T02:20:05Z</time>
      </trkpt>
      <trkpt lat="44.12479" lon="3.23014">
        <ele>480</ele>
        <time>2017-03-01T02:22:05Z</time>
      </trkpt>
      <trkpt lat="44.12487" lon="3.23006">
        <ele>480</ele>
        <time>2017-03-01T02:24:05Z</time>
      </trkpt>
      <trkpt lat="44.12496" lon="3.22998">
        <ele>480</ele>
        <time>2017-03-01T02:26:05Z</time>
      </trkpt>
      <trkpt lat="44.12501" lon="3.22994">
        <ele>481</ele>
        <time>2017-03-01T02:28:05Z</time>
      </trkpt>
      <trkpt lat="44.12504" lon="3.22991">
        <ele>481</ele>
        <time>2017-03-01T02:30:05Z</time>
      </trkpt>
      <trkpt lat="44.12507" lon="3.22988">
        <ele>482</ele>
        <time>2017-03-01T02:32:05Z</time>
      </trkpt>
      <trkpt lat="44.12509" lon="3.22984">
        <ele>482</ele>
        <time>2017-03-01T02:34:05Z</time>
      </trkpt>
      <trkpt lat="44.12509" lon="3.2298">
        <ele>480</ele>
        <time>2017-03-01T02:36:05Z</time>
      </trkpt>
      <trkpt lat="44.12509" lon="3.22978">
        <ele>480</ele>
        <time>2017-03-01T02:38:05Z</time>
      </trkpt>
      <trkpt lat="44.12507" lon="3.22975">
        <ele>478</ele>
        <time>2017-03-01T02:40:05Z</time>
      </trkpt>
      <trkpt lat="44.12502" lon="3.22973">
        <ele>475</ele>
        <time>2017-03-01T02:42:05Z</time>
      </trkpt>
      <trkpt lat="44.12497" lon="3.22971">
        <ele>472</ele>
        <time>2017-03-01T02:44:05Z</time>
      </trkpt>
      <trkpt lat="44.12491" lon="3.2297">
        <ele>470</ele>
        <time>2017-03-01T02:46:05Z</time>
      </trkpt>
      <trkpt lat="44.12484" lon="3.22968">
        <ele>467</ele>
        <time>2017-03-01T02:48:05Z</time>
      </trkpt>
      <trkpt lat="44.12476" lon="3.22967">
        <ele>463</ele>
        <time>2017-03-01T02:50:05Z</time>
      </trkpt>
      <trkpt lat="44.12474" lon="3.22965">
        <ele>462</ele>
        <time>2017-03-01T02:52:05Z</time>
      </trkpt>
      <trkpt lat="44.12474" lon="3.22964">
        <ele>462</ele>
        <time>2017-03-01T02:54:05Z</time>
      </trkpt>
      <trkpt lat="44.12474" lon="3.22961">
        <ele>461</ele>
        <time>2017-03-01T02:56:05Z</time>
      </trkpt>
      <trkpt lat="44.12476" lon="3.22958">
        <ele>460</ele>
        <time>2017-03-01T02:58:05Z</time>
      </trkpt>
      <trkpt lat="44.1248" lon="3.22952">
        <ele>460</ele>
        <time>2017-03-01T03:00:05Z</time>
      </trkpt>
      <trkpt lat="44.12486" lon="3.22942">
        <ele>459</ele>
        <time>2017-03-01T03:02:05Z</time>
      </trkpt>
      <trkpt lat="44.12491" lon="3.22934">
        <ele>459</ele>
        <time>2017-03-01T03:04:05Z</time>
      </trkpt>
      <trkpt lat="44.12493" lon="3.22928">
        <ele>458</ele>
        <time>2017-03-01T03:06:05Z</time>
      </trkpt>
      <trkpt lat="44.12493" lon="3.22922">
        <ele>456</ele>
        <time>2017-03-01T03:08:05Z</time>
      </trkpt>
      <trkpt lat="44.12494" lon="3.22915">
        <ele>454</ele>
        <time>2017-03-01T03:10:05Z</time>
      </trkpt>
      <trkpt lat="44.12495" lon="3.22906">
        <ele>451</ele>
        <time>2017-03-01T03:12:05Z</time>
      </trkpt>
      <trkpt lat="44.12496" lon="3.22894">
        <ele>448</ele>
        <time>2017-03-01T03:14:05Z</time>
      </trkpt>
      <trkpt lat="44.12498" lon="3.22886">
        <ele>446</ele>
        <time>2017-03-01T03:16:05Z</time>
      </trkpt>
      <trkpt lat="44.12498" lon="3.2288">
        <ele>444</ele>
        <time>2017-03-01T03:18:05Z</time>
      </trkpt>
      <trkpt lat="44.12496" lon="3.22877">
        <ele>442</ele>
        <time>2017-03-01T03:20:05Z</time>
      </trkpt>
      <trkpt lat="44.12494" lon="3.22876">
        <ele>441</ele>
        <time>2017-03-01T03:22:05Z</time>
      </trkpt>
      <trkpt lat="44.12491" lon="3.22877">
        <ele>441</ele>
        <time>2017-03-01T03:24:05Z</time>
      </trkpt>
      <trkpt lat="44.12486" lon="3.2288">
        <ele>440</ele>
        <time>2017-03-01T03:26:05Z</time>
      </trkpt>
      <trkpt lat="44.12478" lon="3.22886">
        <ele>439</ele>
        <time>2017-03-01T03:28:05Z</time>
      </trkpt>
      <trkpt lat="44.12469" lon="3.22893">
        <ele>438</ele>
        <time>2017-03-01T03:30:05Z</time>
      </trkpt>
      <trkpt lat="44.12459" lon="3.229">
        <ele>436</ele>
        <time>2017-03-01T03:32:05Z</time>
      </trkpt>
      <trkpt lat="44.12449" lon="3.22906">
        <ele>433</ele>
        <time>2017-03-01T03:34:05Z</time>
      </trkpt>
      <trkpt lat="44.12448" lon="3.22907">
        <ele>433</ele>
        <time>2017-03-01T03:36:05Z</time>
      </trkpt>
      <trkpt lat="44.12447" lon="3.22907">
        <ele>433</ele>
        <time>2017-03-01T03:38:05Z</time>
      </trkpt>
      <trkpt lat="44.12446" lon="3.22906">
        <ele>432</ele>
        <time>2017-03-01T03:40:05Z</time>
      </trkpt>
      <trkpt lat="44.12446" lon="3.22904">
        <ele>431</ele>
        <time>2017-03-01T03:42:05Z</time>
      </trkpt>
      <trkpt lat="44.12447" lon="3.22902">
        <ele>431</ele>
        <time>2017-03-01T03:44:05Z</time>
      </trkpt>
      <trkpt lat="44.1245" lon="3.22897">
        <ele>431</ele>
        <time>2017-03-01T03:46:05Z</time>
      </trkpt>
      <trkpt lat="44.12456" lon="3.22891">
        <ele>432</ele>
        <time>2017-03-01T03:48:05Z</time>
      </trkpt>
      <trkpt lat="44.1246" lon="3.22889">
        <ele>433</ele>
        <time>2017-03-01T03:50:05Z</time>
      </trkpt>
      <trkpt lat="44.12463" lon="3.22885">
        <ele>433</ele>
        <time>2017-03-01T03:52:05Z</time>
      </trkpt>
      <trkpt lat="44.12466" lon="3.22879">
        <ele>433</ele>
        <time>2017-03-01T03:54:05Z</time>
      </trkpt>
      <trkpt lat="44.12476" lon="3.22864">
        <ele>432</ele>
        <time>2017-03-01T03:56:05Z</time>
      </trkpt>
      <trkpt lat="44.12484" lon="3.22852">
        <ele>431</ele>
        <time>2017-03-01T03:58:05Z</time>
      </trkpt>
      <trkpt lat="44.12488" lon="3.22844">
        <ele>429</ele>
        <time>2017-03-01T04:00:05Z</time>
      </trkpt>
      <trkpt lat="44.12492" lon="3.22839">
        <ele>429</ele>
        <time>2017-03-01T04:02:05Z</time>
      </trkpt>
      <trkpt lat="44.12493" lon="3.2284">
        <ele>429</ele>
        <time>2017-03-01T04:04:05Z</time>
      </trkpt>
      <trkpt lat="44.12497" lon="3.22838">
        <ele>430</ele>
        <time>2017-03-01T04:06:05Z</time>
      </trkpt>
      <trkpt lat="44.12498" lon="3.22837">
        <ele>430</ele>
        <time>2017-03-01T04:08:05Z</time>
      </trkpt>
      <trkpt lat="44.12499" lon="3.22836">
        <ele>430</ele>
        <time>2017-03-01T04:10:05Z</time>
      </trkpt>
      <trkpt lat="44.12501" lon="3.22833">
        <ele>429</ele>
        <time>2017-03-01T04:12:05Z</time>
      </trkpt>
      <trkpt lat="44.12501" lon="3.22832">
        <ele>429</ele>
        <time>2017-03-01T04:14:05Z</time>
      </trkpt>
      <trkpt lat="44.12502" lon="3.22827">
        <ele>429</ele>
        <time>2017-03-01T04:16:05Z</time>
      </trkpt>
      <trkpt lat="44.12502" lon="3.22824">
        <ele>428</ele>
        <time>2017-03-01T04:18:05Z</time>
      </trkpt>
      <trkpt lat="44.12501" lon="3.2282">
        <ele>427</ele>
        <time>2017-03-01T04:20:05Z</time>
      </trkpt>
      <trkpt lat="44.12501" lon="3.22817">
        <ele>426</ele>
        <time>2017-03-01T04:22:05Z</time>
      </trkpt>
      <trkpt lat="44.12501" lon="3.22815">
        <ele>426</ele>
        <time>2017-03-01T04:24:05Z</time>
      </trkpt>
      <trkpt lat="44.125" lon="3.22814">
        <ele>425</ele>
        <time>2017-03-01T04:26:05Z</time>
      </trkpt>
      <trkpt lat="44.12496" lon="3.22811">
        <ele>423</ele>
        <time>2017-03-01T04:28:05Z</time>
      </trkpt>
      <trkpt lat="44.12496" lon="3.22811">
        <ele>423</ele>
        <time>2017-03-01T04:30:05Z</time>
      </trkpt>
      <trkpt lat="44.12497" lon="3.22807">
        <ele>423</ele>
        <time>2017-03-01T04:32:05Z</time>
      </trkpt>
      <trkpt lat="44.12498" lon="3.22802">
        <ele>422</ele>
        <time>2017-03-01T04:34:05Z</time>
      </trkpt>
      <trkpt lat="44.12499" lon="3.22795">
        <ele>421</ele>
        <time>2017-03-01T04:36:05Z</time>
      </trkpt>
      <trkpt lat="44.12501" lon="3.22785">
        <ele>419</ele>
        <time>2017-03-01T04:38:05Z</time>
      </trkpt>
      <trkpt lat="44.12502" lon="3.22781">
        <ele>419</ele>
        <time>2017-03-01T04:40:05Z</time>
      </trkpt>
      <trkpt lat="44.12508" lon="3.22759">
        <ele>416</ele>
        <time>2017-03-01T04:42:05Z</time>
      </trkpt>
      <trkpt lat="44.12516" lon="3.22729">
        <ele>416</ele>
        <time>2017-03-01T04:44:05Z</time>
      </trkpt>
      <trkpt lat="44.12522" lon="3.22703">
        <ele>416</ele>
        <time>2017-03-01T04:46:05Z</time>
      </trkpt>
      <trkpt lat="44.12522" lon="3.22699">
        <ele>416</ele>
        <time>2017-03-01T04:48:05Z</time>
      </trkpt>
      <trkpt lat="44.12521" lon="3.22695">
        <ele>415</ele>
        <time>2017-03-01T04:50:05Z</time>
      </trkpt>
      <trkpt lat="44.1252" lon="3.22692">
        <ele>414</ele>
        <time>2017-03-01T04:52:05Z</time>
      </trkpt>
      <trkpt lat="44.12518" lon="3.22689">
        <ele>414</ele>
        <time>2017-03-01T04:54:05Z</time>
      </trkpt>
      <trkpt lat="44.12518" lon="3.22689">
        <ele>414</ele>
        <time>2017-03-01T04:56:05Z</time>
      </trkpt>
      <trkpt lat="44.12519" lon="3.22683">
        <ele>413</ele>
        <time>2017-03-01T04:58:05Z</time>
      </trkpt>
      <trkpt lat="44.1252" lon="3.22675">
        <ele>413</ele>
        <time>2017-03-01T05:00:05Z</time>
      </trkpt>
      <trkpt lat="44.12521" lon="3.22666">
        <ele>413</ele>
        <time>2017-03-01T05:02:05Z</time>
      </trkpt>
      <trkpt lat="44.12521" lon="3.22657">
        <ele>413</ele>
        <time>2017-03-01T05:04:05Z</time>
      </trkpt>
      <trkpt lat="44.12521" lon="3.22652">
        <ele>413</ele>
        <time>2017-03-01T05:06:05Z</time>
      </trkpt>
      <trkpt lat="44.12521" lon="3.22635">
        <ele>414</ele>
        <time>2017-03-01T05:08:05Z</time>
      </trkpt>
      <trkpt lat="44.1252" lon="3.2262">
        <ele>414</ele>
        <time>2017-03-01T05:10:05Z</time>
      </trkpt>
      <trkpt lat="44.1252" lon="3.226">
        <ele>414</ele>
        <time>2017-03-01T05:12:05Z</time>
      </trkpt>
      <trkpt lat="44.12517" lon="3.22542">
        <ele>413</ele>
        <time>2017-03-01T05:14:05Z</time>
      </trkpt>
      <trkpt lat="44.12515" lon="3.22504">
        <ele>412</ele>
        <time>2017-03-01T05:16:05Z</time>
      </trkpt>
      <trkpt lat="44.12515" lon="3.22489">
        <ele>413</ele>
        <time>2017-03-01T05:18:05Z</time>
      </trkpt>
      <trkpt lat="44.12514" lon="3.22479">
        <ele>413</ele>
        <time>2017-03-01T05:20:05Z</time>
      </trkpt>
      <trkpt lat="44.12513" lon="3.22464">
        <ele>413</ele>
        <time>2017-03-01T05:22:05Z</time>
      </trkpt>
      <trkpt lat="44.12512" lon="3.22445">
        <ele>414</ele>
        <time>2017-03-01T05:24:05Z</time>
      </trkpt>
      <trkpt lat="44.12512" lon="3.22438">
        <ele>414</ele>
        <time>2017-03-01T05:26:05Z</time>
      </trkpt>
      <trkpt lat="44.1251" lon="3.22429">
        <ele>414</ele>
        <time>2017-03-01T05:28:05Z</time>
      </trkpt>
      <trkpt lat="44.12509" lon="3.22423">
        <ele>414</ele>
        <time>2017-03-01T05:30:05Z</time>
      </trkpt>
      <trkpt lat="44.12508" lon="3.22418">
        <ele>413</ele>
        <time>2017-03-01T05:32:05Z</time>
      </trkpt>
      <trkpt lat="44.12506" lon="3.2241">
        <ele>413</ele>
        <time>2017-03-01T05:34:05Z</time>
      </trkpt>
      <trkpt lat="44.12504" lon="3.22403">
        <ele>412</ele>
        <time>2017-03-01T05:36:05Z</time>
      </trkpt>
      <trkpt lat="44.12501" lon="3.22395">
        <ele>411</ele>
        <time>2017-03-01T05:38:05Z</time>
      </trkpt>
      <trkpt lat="44.12497" lon="3.22385">
        <ele>411</ele>
        <time>2017-03-01T05:40:05Z</time>
      </trkpt>
      <trkpt lat="44.12492" lon="3.22374">
        <ele>411</ele>
        <time>2017-03-01T05:42:05Z</time>
      </trkpt>
      <trkpt lat="44.12488" lon="3.22368">
        <ele>411</ele>
        <time>2017-03-01T05:44:05Z</time>
      </trkpt>
      <trkpt lat="44.12482" lon="3.22359">
        <ele>411</ele>
        <time>2017-03-01T05:46:05Z</time>
      </trkpt>
      <trkpt lat="44.12476" lon="3.2235">
        <ele>410</ele>
        <time>2017-03-01T05:48:05Z</time>
      </trkpt>
      <trkpt lat="44.12469" lon="3.22339">
        <ele>410</ele>
        <time>2017-03-01T05:50:05Z</time>
      </trkpt>
      <trkpt lat="44.12462" lon="3.2233">
        <ele>410</ele>
        <time>2017-03-01T05:52:05Z</time>
      </trkpt>
      <trkpt lat="44.12454" lon="3.22318">
        <ele>409</ele>
        <time>2017-03-01T05:54:05Z</time>
      </trkpt>
      <trkpt lat="44.12452" lon="3.22314">
        <ele>409</ele>
        <time>2017-03-01T05:56:05Z</time>
      </trkpt>
      <trkpt lat="44.12449" lon="3.22309">
        <ele>409</ele>
        <time>2017-03-01T05:58:05Z</time>
      </trkpt>
      <trkpt lat="44.12447" lon="3.22304">
        <ele>409</ele>
        <time>2017-03-01T06:00:05Z</time>
      </trkpt>
      <trkpt lat="44.12445" lon="3.22299">
        <ele>409</ele>
        <time>2017-03-01T06:02:05Z</time>
      </trkpt>
      <trkpt lat="44.12444" lon="3.22295">
        <ele>409</ele>
        <time>2017-03-01T06:04:05Z</time>
      </trkpt>
      <trkpt lat="44.12443" lon="3.22291">
        <ele>409</ele>
        <time>2017-03-01T06:06:05Z</time>
      </trkpt>
      <trkpt lat="44.12442" lon="3.22289">
        <ele>409</ele>
        <time>2017-03-01T06:08:05Z</time>
      </trkpt>
      <trkpt lat="44.12439" lon="3.22281">
        <ele>409</ele>
        <time>2017-03-01T06:10:05Z</time>
      </trkpt>
      <trkpt lat="44.12438" lon="3.22279">
        <ele>409</ele>
        <time>2017-03-01T06:12:05Z</time>
      </trkpt>
      <trkpt lat="44.12437" lon="3.22277">
        <ele>409</ele>
        <time>2017-03-01T06:14:05Z</time>
      </trkpt>
      <trkpt lat="44.12435" lon="3.22273">
        <ele>409</ele>
        <time>2017-03-01T06:16:05Z</time>
      </trkpt>
      <trkpt lat="44.12433" lon="3.2227">
        <ele>409</ele>
        <time>2017-03-01T06:18:05Z</time>
      </trkpt>
      <trkpt lat="44.12429" lon="3.22267">
        <ele>408</ele>
        <time>2017-03-01T06:20:05Z</time>
      </trkpt>
      <trkpt lat="44.12426" lon="3.22265">
        <ele>408</ele>
        <time>2017-03-01T06:22:05Z</time>
      </trkpt>
      <trkpt lat="44.12421" lon="3.22264">
        <ele>408</ele>
        <time>2017-03-01T06:24:05Z</time>
      </trkpt>
      <trkpt lat="44.12417" lon="3.22263">
        <ele>407</ele>
        <time>2017-03-01T06:26:05Z</time>
      </trkpt>
      <trkpt lat="44.12412" lon="3.22262">
        <ele>407</ele>
        <time>2017-03-01T06:28:05Z</time>
      </trkpt>
      <trkpt lat="44.12405" lon="3.22261">
        <ele>407</ele>
        <time>2017-03-01T06:30:05Z</time>
      </trkpt>
      <trkpt lat="44.12394" lon="3.22258">
        <ele>406</ele>
        <time>2017-03-01T06:32:05Z</time>
      </trkpt>
      <trkpt lat="44.12387" lon="3.22256">
        <ele>406</ele>
        <time>2017-03-01T06:34:05Z</time>
      </trkpt>
      <trkpt lat="44.12376" lon="3.22251">
        <ele>405</ele>
        <time>2017-03-01T06:36:05Z</time>
      </trkpt>
      <trkpt lat="44.12371" lon="3.22247">
        <ele>404</ele>
        <time>2017-03-01T06:38:05Z</time>
      </trkpt>
      <trkpt lat="44.12366" lon="3.22243">
        <ele>404</ele>
        <time>2017-03-01T06:40:05Z</time>
      </trkpt>
      <trkpt lat="44.12361" lon="3.22236">
        <ele>404</ele>
        <time>2017-03-01T06:42:05Z</time>
      </trkpt>
      <trkpt lat="44.12355" lon="3.22226">
        <ele>404</ele>
        <time>2017-03-01T06:44:05Z</time>
      </trkpt>
      <trkpt lat="44.12353" lon="3.22221">
        <ele>404</ele>
        <time>2017-03-01T06:46:05Z</time>
      </trkpt>
      <trkpt lat="44.1235" lon="3.22216">
        <ele>404</ele>
        <time>2017-03-01T06:48:05Z</time>
      </trkpt>
      <trkpt lat="44.12346" lon="3.22206">
        <ele>404</ele>
        <time>2017-03-01T06:50:05Z</time>
      </trkpt>
      <trkpt lat="44.12343" lon="3.22195">
        <ele>404</ele>
        <time>2017-03-01T06:52:05Z</time>
      </trkpt>
      <trkpt lat="44.12336" lon="3.22179">
        <ele>404</ele>
        <time>2017-03-01T06:54:05Z</time>
      </trkpt>
      <trkpt lat="44.12331" lon="3.22166">
        <ele>404</ele>
        <time>2017-03-01T06:56:05Z</time>
      </trkpt>
      <trkpt lat="44.12331" lon="3.22166">
        <ele>404</ele>
        <time>2017-03-01T06:58:05Z</time>
      </trkpt>
      <trkpt lat="44.12326" lon="3.22169">
        <ele>405</ele>
        <time>2017-03-01T07:00:05Z</time>
      </trkpt>
      <trkpt lat="44.12324" lon="3.22169">
        <ele>405</ele>
        <time>2017-03-01T07:02:05Z</time>
      </trkpt>
      <trkpt lat="44.12323" lon="3.2217">
        <ele>406</ele>
        <time>2017-03-01T07:04:05Z</time>
      </trkpt>
      <trkpt lat="44.12317" lon="3.22171">
        <ele>407</ele>
        <time>2017-03-01T07:06:05Z</time>
      </trkpt>
      <trkpt lat="44.12307" lon="3.22171">
        <ele>408</ele>
        <time>2017-03-01T07:08:05Z</time>
      </trkpt>
      <trkpt lat="44.12299" lon="3.22171">
        <ele>410</ele>
        <time>2017-03-01T07:10:05Z</time>
      </trkpt>
      <trkpt lat="44.1228" lon="3.22171">
        <ele>413</ele>
        <time>2017-03-01T07:12:05Z</time>
      </trkpt>
      <trkpt lat="44.12265" lon="3.22171">
        <ele>415</ele>
        <time>2017-03-01T07:14:05Z</time>
      </trkpt>
      <trkpt lat="44.12259" lon="3.22171">
        <ele>416</ele>
        <time>2017-03-01T07:16:05Z</time>
      </trkpt>
      <trkpt lat="44.12257" lon="3.22171">
        <ele>417</ele>
        <time>2017-03-01T07:18:05Z</time>
      </trkpt>
      <trkpt lat="44.12254" lon="3.2217">
        <ele>417</ele>
        <time>2017-03-01T07:20:05Z</time>
      </trkpt>
      <trkpt lat="44.12252" lon="3.22168">
        <ele>417</ele>
        <time>2017-03-01T07:22:05Z</time>
      </trkpt>
      <trkpt lat="44.12249" lon="3.22166">
        <ele>418</ele>
        <time>2017-03-01T07:24:05Z</time>
      </trkpt>
      <trkpt lat="44.12248" lon="3.22164">
        <ele>419</ele>
        <time>2017-03-01T07:26:05Z</time>
      </trkpt>
      <trkpt lat="44.12247" lon="3.22162">
        <ele>419</ele>
        <time>2017-03-01T07:28:05Z</time>
      </trkpt>
      <trkpt lat="44.12247" lon="3.22162">
        <ele>419</ele>
        <time>2017-03-01T07:30:05Z</time>
      </trkpt>
      <trkpt lat="44.12246" lon="3.22152">
        <ele>419</ele>
        <time>2017-03-01T07:32:05Z</time>
      </trkpt>
      <trkpt lat="44.12245" lon="3.22148">
        <ele>420</ele>
        <time>2017-03-01T07:34:05Z</time>
      </trkpt>
      <trkpt lat="44.12245" lon="3.22143">
        <ele>419</ele>
        <time>2017-03-01T07:36:05Z</time>
      </trkpt>
      <trkpt lat="44.12244" lon="3.22138">
        <ele>419</ele>
        <time>2017-03-01T07:38:05Z</time>
      </trkpt>
      <trkpt lat="44.12242" lon="3.22123">
        <ele>419</ele>
        <time>2017-03-01T07:40:05Z</time>
      </trkpt>
      <trkpt lat="44.12241" lon="3.22118">
        <ele>420</ele>
        <time>2017-03-01T07:42:05Z</time>
      </trkpt>
      <trkpt lat="44.1224" lon="3.22107">
        <ele>419</ele>
        <time>2017-03-01T07:44:05Z</time>
      </trkpt>
      <trkpt lat="44.12237" lon="3.2209">
        <ele>419</ele>
        <time>2017-03-01T07:46:05Z</time>
      </trkpt>
      <trkpt lat="44.12236" lon="3.22078">
        <ele>419</ele>
        <time>2017-03-01T07:48:05Z</time>
      </trkpt>
      <trkpt lat="44.12235" lon="3.22072">
        <ele>418</ele>
        <time>2017-03-01T07:50:05Z</time>
      </trkpt>
      <trkpt lat="44.12233" lon="3.22059">
        <ele>418</ele>
        <time>2017-03-01T07:52:05Z</time>
      </trkpt>
      <trkpt lat="44.12231" lon="3.2204">
        <ele>417</ele>
        <time>2017-03-01T07:54:05Z</time>
      </trkpt>
      <trkpt lat="44.12228" lon="3.22016">
        <ele>415</ele>
        <time>2017-03-01T07:56:05Z</time>
      </trkpt>
      <trkpt lat="44.12227" lon="3.22006">
        <ele>414</ele>
        <time>2017-03-01T07:58:05Z</time>
      </trkpt>
      <trkpt lat="44.12226" lon="3.22001">
        <ele>414</ele>
        <time>2017-03-01T08:00:05Z</time>
      </trkpt>
      <trkpt lat="44.12225" lon="3.21996">
        <ele>414</ele>
        <time>2017-03-01T08:02:05Z</time>
      </trkpt>
      <trkpt lat="44.12224" lon="3.21992">
        <ele>414</ele>
        <time>2017-03-01T08:04:05Z</time>
      </trkpt>
      <trkpt lat="44.12223" lon="3.21987">
        <ele>414</ele>
        <time>2017-03-01T08:06:05Z</time>
      </trkpt>
      <trkpt lat="44.12221" lon="3.21983">
        <ele>415</ele>
        <time>2017-03-01T08:08:05Z</time>
      </trkpt>
      <trkpt lat="44.12218" lon="3.21979">
        <ele>416</ele>
        <time>2017-03-01T08:10:05Z</time>
      </trkpt>
      <trkpt lat="44.12214" lon="3.21971">
        <ele>417</ele>
        <time>2017-03-01T08:12:05Z</time>
      </trkpt>
      <trkpt lat="44.12209" lon="3.21963">
        <ele>419</ele>
        <time>2017-03-01T08:14:05Z</time>
      </trkpt>
      <trkpt lat="44.12202" lon="3.21952">
        <ele>420</ele>
        <time>2017-03-01T08:16:05Z</time>
      </trkpt>
      <trkpt lat="44.12191" lon="3.21934">
        <ele>421</ele>
        <time>2017-03-01T08:18:05Z</time>
      </trkpt>
      <trkpt lat="44.12183" lon="3.21921">
        <ele>420</ele>
        <time>2017-03-01T08:20:05Z</time>
      </trkpt>
      <trkpt lat="44.12178" lon="3.21911">
        <ele>419</ele>
        <time>2017-03-01T08:22:05Z</time>
      </trkpt>
      <trkpt lat="44.12174" lon="3.21901">
        <ele>418</ele>
        <time>2017-03-01T08:24:05Z</time>
      </trkpt>
      <trkpt lat="44.12168" lon="3.2189">
        <ele>417</ele>
        <time>2017-03-01T08:26:05Z</time>
      </trkpt>
      <trkpt lat="44.12166" lon="3.21884">
        <ele>417</ele>
        <time>2017-03-01T08:28:05Z</time>
      </trkpt>
      <trkpt lat="44.12163" lon="3.21879">
        <ele>417</ele>
        <time>2017-03-01T08:30:05Z</time>
      </trkpt>
      <trkpt lat="44.1216" lon="3.21874">
        <ele>417</ele>
        <time>2017-03-01T08:32:05Z</time>
      </trkpt>
      <trkpt lat="44.12157" lon="3.21869">
        <ele>417</ele>
        <time>2017-03-01T08:34:05Z</time>
      </trkpt>
      <trkpt lat="44.12154" lon="3.21864">
        <ele>417</ele>
        <time>2017-03-01T08:36:05Z</time>
      </trkpt>
      <trkpt lat="44.12147" lon="3.21855">
        <ele>418</ele>
        <time>2017-03-01T08:38:05Z</time>
      </trkpt>
      <trkpt lat="44.12127" lon="3.21833">
        <ele>419</ele>
        <time>2017-03-01T08:40:05Z</time>
      </trkpt>
      <trkpt lat="44.12112" lon="3.21816">
        <ele>420</ele>
        <time>2017-03-01T08:42:05Z</time>
      </trkpt>
      <trkpt lat="44.12099" lon="3.21801">
        <ele>420</ele>
        <time>2017-03-01T08:44:05Z</time>
      </trkpt>
      <trkpt lat="44.12085" lon="3.21786">
        <ele>418</ele>
        <time>2017-03-01T08:46:05Z</time>
      </trkpt>
      <trkpt lat="44.12077" lon="3.21776">
        <ele>417</ele>
        <time>2017-03-01T08:48:05Z</time>
      </trkpt>
      <trkpt lat="44.12062" lon="3.21759">
        <ele>416</ele>
        <time>2017-03-01T08:50:05Z</time>
      </trkpt>
      <trkpt lat="44.12058" lon="3.21756">
        <ele>416</ele>
        <time>2017-03-01T08:52:05Z</time>
      </trkpt>
      <trkpt lat="44.12055" lon="3.21754">
        <ele>416</ele>
        <time>2017-03-01T08:54:05Z</time>
      </trkpt>
      <trkpt lat="44.12051" lon="3.21752">
        <ele>416</ele>
        <time>2017-03-01T08:56:05Z</time>
      </trkpt>
      <trkpt lat="44.12048" lon="3.21751">
        <ele>417</ele>
        <time>2017-03-01T08:58:05Z</time>
      </trkpt>
      <trkpt lat="44.12044" lon="3.21751">
        <ele>418</ele>
        <time>2017-03-01T09:00:05Z</time>
      </trkpt>
      <trkpt lat="44.12041" lon="3.21752">
        <ele>419</ele>
        <time>2017-03-01T09:02:05Z</time>
      </trkpt>
      <trkpt lat="44.12038" lon="3.21754">
        <ele>420</ele>
        <time>2017-03-01T09:04:05Z</time>
      </trkpt>
      <trkpt lat="44.12034" lon="3.21756">
        <ele>422</ele>
        <time>2017-03-01T09:06:05Z</time>
      </trkpt>
      <trkpt lat="44.12031" lon="3.21758">
        <ele>423</ele>
        <time>2017-03-01T09:08:05Z</time>
      </trkpt>
      <trkpt lat="44.12024" lon="3.21764">
        <ele>426</ele>
        <time>2017-03-01T09:10:05Z</time>
      </trkpt>
      <trkpt lat="44.12021" lon="3.21767">
        <ele>428</ele>
        <time>2017-03-01T09:12:05Z</time>
      </trkpt>
      <trkpt lat="44.12015" lon="3.21771">
        <ele>430</ele>
        <time>2017-03-01T09:14:05Z</time>
      </trkpt>
      <trkpt lat="44.12008" lon="3.21775">
        <ele>433</ele>
        <time>2017-03-01T09:16:05Z</time>
      </trkpt>
      <trkpt lat="44.12001" lon="3.21779">
        <ele>435</ele>
        <time>2017-03-01T09:18:05Z</time>
      </trkpt>
      <trkpt lat="44.11998" lon="3.2178">
        <ele>436</ele>
        <time>2017-03-01T09:20:05Z</time>
      </trkpt>
      <trkpt lat="44.11995" lon="3.21781">
        <ele>437</ele>
        <time>2017-03-01T09:22:05Z</time>
      </trkpt>
      <trkpt lat="44.11991" lon="3.21782">
        <ele>438</ele>
        <time>2017-03-01T09:24:05Z</time>
      </trkpt>
      <trkpt lat="44.11988" lon="3.21783">
        <ele>439</ele>
        <time>2017-03-01T09:26:05Z</time>
      </trkpt>
      <trkpt lat="44.11985" lon="3.21782">
        <ele>439</ele>
        <time>2017-03-01T09:28:05Z</time>
      </trkpt>
      <trkpt lat="44.11982" lon="3.21782">
        <ele>440</ele>
        <time>2017-03-01T09:30:05Z</time>
      </trkpt>
      <trkpt lat="44.1198" lon="3.21781">
        <ele>440</ele>
        <time>2017-03-01T09:32:05Z</time>
      </trkpt>
      <trkpt lat="44.11977" lon="3.21779">
        <ele>440</ele>
        <time>2017-03-01T09:34:05Z</time>
      </trkpt>
      <trkpt lat="44.11975" lon="3.21777">
        <ele>440</ele>
        <time>2017-03-01T09:36:05Z</time>
      </trkpt>
      <trkpt lat="44.11973" lon="3.21773">
        <ele>440</ele>
        <time>2017-03-01T09:38:05Z</time>
      </trkpt>
      <trkpt lat="44.11972" lon="3.2177">
        <ele>440</ele>
        <time>2017-03-01T09:40:05Z</time>
      </trkpt>
      <trkpt lat="44.11971" lon="3.21766">
        <ele>439</ele>
        <time>2017-03-01T09:42:05Z</time>
      </trkpt>
      <trkpt lat="44.11971" lon="3.21762">
        <ele>438</ele>
        <time>2017-03-01T09:44:05Z</time>
      </trkpt>
      <trkpt lat="44.11971" lon="3.21758">
        <ele>438</ele>
        <time>2017-03-01T09:46:05Z</time>
      </trkpt>
      <trkpt lat="44.11971" lon="3.21754">
        <ele>437</ele>
        <time>2017-03-01T09:48:05Z</time>
      </trkpt>
      <trkpt lat="44.11973" lon="3.21749">
        <ele>435</ele>
        <time>2017-03-01T09:50:05Z</time>
      </trkpt>
      <trkpt lat="44.11974" lon="3.21745">
        <ele>434</ele>
        <time>2017-03-01T09:52:05Z</time>
      </trkpt>
      <trkpt lat="44.11976" lon="3.2174">
        <ele>433</ele>
        <time>2017-03-01T09:54:05Z</time>
      </trkpt>
      <trkpt lat="44.11982" lon="3.21728">
        <ele>430</ele>
        <time>2017-03-01T09:56:05Z</time>
      </trkpt>
      <trkpt lat="44.11984" lon="3.21725">
        <ele>428</ele>
        <time>2017-03-01T09:58:05Z</time>
      </trkpt>
      <trkpt lat="44.11985" lon="3.21721">
        <ele>428</ele>
        <time>2017-03-01T10:00:05Z</time>
      </trkpt>
      <trkpt lat="44.11986" lon="3.21717">
        <ele>427</ele>
        <time>2017-03-01T10:02:05Z</time>
      </trkpt>
      <trkpt lat="44.11987" lon="3.21713">
        <ele>426</ele>
        <time>2017-03-01T10:04:05Z</time>
      </trkpt>
      <trkpt lat="44.11987" lon="3.21708">
        <ele>425</ele>
        <time>2017-03-01T10:06:05Z</time>
      </trkpt>
      <trkpt lat="44.11986" lon="3.21704">
        <ele>425</ele>
        <time>2017-03-01T10:08:05Z</time>
      </trkpt>
      <trkpt lat="44.11985" lon="3.217">
        <ele>424</ele>
        <time>2017-03-01T10:10:05Z</time>
      </trkpt>
      <trkpt lat="44.11983" lon="3.21696">
        <ele>424</ele>
        <time>2017-03-01T10:12:05Z</time>
      </trkpt>
      <trkpt lat="44.11981" lon="3.21693">
        <ele>425</ele>
        <time>2017-03-01T10:14:05Z</time>
      </trkpt>
      <trkpt lat="44.11979" lon="3.21689">
        <ele>425</ele>
        <time>2017-03-01T10:16:05Z</time>
      </trkpt>
      <trkpt lat="44.11976" lon="3.21685">
        <ele>425</ele>
        <time>2017-03-01T10:18:05Z</time>
      </trkpt>
      <trkpt lat="44.11974" lon="3.21682">
        <ele>425</ele>
        <time>2017-03-01T10:20:05Z</time>
      </trkpt>
      <trkpt lat="44.11971" lon="3.21678">
        <ele>426</ele>
        <time>2017-03-01T10:22:05Z</time>
      </trkpt>
      <trkpt lat="44.11968" lon="3.21676">
        <ele>427</ele>
        <time>2017-03-01T10:24:05Z</time>
      </trkpt>
      <trkpt lat="44.11965" lon="3.21673">
        <ele>428</ele>
        <time>2017-03-01T10:26:05Z</time>
      </trkpt>
      <trkpt lat="44.11962" lon="3.21672">
        <ele>429</ele>
        <time>2017-03-01T10:28:05Z</time>
      </trkpt>
      <trkpt lat="44.11959" lon="3.21672">
        <ele>430</ele>
        <time>2017-03-01T10:30:05Z</time>
      </trkpt>
      <trkpt lat="44.11956" lon="3.21672">
        <ele>431</ele>
        <time>2017-03-01T10:32:05Z</time>
      </trkpt>
      <trkpt lat="44.11948" lon="3.21674">
        <ele>434</ele>
        <time>2017-03-01T10:34:05Z</time>
      </trkpt>
      <trkpt lat="44.11946" lon="3.21675">
        <ele>435</ele>
        <time>2017-03-01T10:36:05Z</time>
      </trkpt>
      <trkpt lat="44.11943" lon="3.21675">
        <ele>436</ele>
        <time>2017-03-01T10:38:05Z</time>
      </trkpt>
      <trkpt lat="44.1194" lon="3.21674">
        <ele>437</ele>
        <time>2017-03-01T10:40:05Z</time>
      </trkpt>
      <trkpt lat="44.11938" lon="3.21672">
        <ele>438</ele>
        <time>2017-03-01T10:42:05Z</time>
      </trkpt>
      <trkpt lat="44.11935" lon="3.2167">
        <ele>439</ele>
        <time>2017-03-01T10:44:05Z</time>
      </trkpt>
      <trkpt lat="44.11934" lon="3.21667">
        <ele>439</ele>
        <time>2017-03-01T10:46:05Z</time>
      </trkpt>
      <trkpt lat="44.11932" lon="3.21663">
        <ele>439</ele>
        <time>2017-03-01T10:48:05Z</time>
      </trkpt>
      <trkpt lat="44.11931" lon="3.21659">
        <ele>439</ele>
        <time>2017-03-01T10:50:05Z</time>
      </trkpt>
      <trkpt lat="44.1193" lon="3.21655">
        <ele>439</ele>
        <time>2017-03-01T10:52:05Z</time>
      </trkpt>
      <trkpt lat="44.11929" lon="3.21645">
        <ele>438</ele>
        <time>2017-03-01T10:54:05Z</time>
      </trkpt>
      <trkpt lat="44.11928" lon="3.21641">
        <ele>438</ele>
        <time>2017-03-01T10:56:05Z</time>
      </trkpt>
      <trkpt lat="44.11926" lon="3.21636">
        <ele>438</ele>
        <time>2017-03-01T10:58:05Z</time>
      </trkpt>
      <trkpt lat="44.11925" lon="3.21631">
        <ele>438</ele>
        <time>2017-03-01T11:00:05Z</time>
      </trkpt>
      <trkpt lat="44.11923" lon="3.21626">
        <ele>438</ele>
        <time>2017-03-01T11:02:05Z</time>
      </trkpt>
      <trkpt lat="44.11922" lon="3.21622">
        <ele>438</ele>
        <time>2017-03-01T11:04:05Z</time>
      </trkpt>
      <trkpt lat="44.1192" lon="3.21617">
        <ele>438</ele>
        <time>2017-03-01T11:06:05Z</time>
      </trkpt>
      <trkpt lat="44.11918" lon="3.21611">
        <ele>438</ele>
        <time>2017-03-01T11:08:05Z</time>
      </trkpt>
      <trkpt lat="44.11916" lon="3.21607">
        <ele>438</ele>
        <time>2017-03-01T11:10:05Z</time>
      </trkpt>
      <trkpt lat="44.11914" lon="3.21601">
        <ele>439</ele>
        <time>2017-03-01T11:12:05Z</time>
      </trkpt>
      <trkpt lat="44.11911" lon="3.21596">
        <ele>440</ele>
        <time>2017-03-01T11:14:05Z</time>
      </trkpt>
      <trkpt lat="44.11905" lon="3.21587">
        <ele>442</ele>
        <time>2017-03-01T11:16:05Z</time>
      </trkpt>
      <trkpt lat="44.119" lon="3.21577">
        <ele>443</ele>
        <time>2017-03-01T11:18:05Z</time>
      </trkpt>
      <trkpt lat="44.11894" lon="3.21567">
        <ele>445</ele>
        <time>2017-03-01T11:20:05Z</time>
      </trkpt>
      <trkpt lat="44.11886" lon="3.21551">
        <ele>448</ele>
        <time>2017-03-01T11:22:05Z</time>
      </trkpt>
      <trkpt lat="44.11875" lon="3.21528">
        <ele>450</ele>
        <time>2017-03-01T11:24:05Z</time>
      </trkpt>
      <trkpt lat="44.11868" lon="3.21513">
        <ele>452</ele>
        <time>2017-03-01T11:26:05Z</time>
      </trkpt>
      <trkpt lat="44.11864" lon="3.21501">
        <ele>452</ele>
        <time>2017-03-01T11:28:05Z</time>
      </trkpt>
      <trkpt lat="44.11859" lon="3.2149">
        <ele>455</ele>
        <time>2017-03-01T11:30:05Z</time>
      </trkpt>
      <trkpt lat="44.11857" lon="3.21484">
        <ele>456</ele>
        <time>2017-03-01T11:32:05Z</time>
      </trkpt>
      <trkpt lat="44.11851" lon="3.21473">
        <ele>458</ele>
        <time>2017-03-01T11:34:05Z</time>
      </trkpt>
      <trkpt lat="44.11836" lon="3.21448">
        <ele>465</ele>
        <time>2017-03-01T11:36:05Z</time>
      </trkpt>
      <trkpt lat="44.11834" lon="3.21444">
        <ele>466</ele>
        <time>2017-03-01T11:38:05Z</time>
      </trkpt>
      <trkpt lat="44.11833" lon="3.21439">
        <ele>467</ele>
        <time>2017-03-01T11:40:05Z</time>
      </trkpt>
      <trkpt lat="44.11832" lon="3.21434">
        <ele>467</ele>
        <time>2017-03-01T11:42:05Z</time>
      </trkpt>
      <trkpt lat="44.11832" lon="3.21428">
        <ele>467</ele>
        <time>2017-03-01T11:44:05Z</time>
      </trkpt>
      <trkpt lat="44.11832" lon="3.21423">
        <ele>467</ele>
        <time>2017-03-01T11:46:05Z</time>
      </trkpt>
      <trkpt lat="44.11833" lon="3.21418">
        <ele>466</ele>
        <time>2017-03-01T11:48:05Z</time>
      </trkpt>
      <trkpt lat="44.11836" lon="3.21413">
        <ele>465</ele>
        <time>2017-03-01T11:50:05Z</time>
      </trkpt>
      <trkpt lat="44.11841" lon="3.21406">
        <ele>464</ele>
        <time>2017-03-01T11:52:05Z</time>
      </trkpt>
      <trkpt lat="44.11843" lon="3.21402">
        <ele>463</ele>
        <time>2017-03-01T11:54:05Z</time>
      </trkpt>
      <trkpt lat="44.11845" lon="3.21399">
        <ele>463</ele>
        <time>2017-03-01T11:56:05Z</time>
      </trkpt>
      <trkpt lat="44.11846" lon="3.21395">
        <ele>463</ele>
        <time>2017-03-01T11:58:05Z</time>
      </trkpt>
      <trkpt lat="44.11847" lon="3.21392">
        <ele>463</ele>
        <time>2017-03-01T12:00:05Z</time>
      </trkpt>
      <trkpt lat="44.11848" lon="3.21388">
        <ele>463</ele>
        <time>2017-03-01T12:02:05Z</time>
      </trkpt>
      <trkpt lat="44.11849" lon="3.21385">
        <ele>463</ele>
        <time>2017-03-01T12:04:05Z</time>
      </trkpt>
      <trkpt lat="44.1185" lon="3.21377">
        <ele>463</ele>
        <time>2017-03-01T12:06:05Z</time>
      </trkpt>
      <trkpt lat="44.11851" lon="3.2137">
        <ele>464</ele>
        <time>2017-03-01T12:08:05Z</time>
      </trkpt>
      <trkpt lat="44.11852" lon="3.21362">
        <ele>464</ele>
        <time>2017-03-01T12:10:05Z</time>
      </trkpt>
      <trkpt lat="44.11854" lon="3.21349">
        <ele>465</ele>
        <time>2017-03-01T12:12:05Z</time>
      </trkpt>
      <trkpt lat="44.11854" lon="3.21345">
        <ele>466</ele>
        <time>2017-03-01T12:14:05Z</time>
      </trkpt>
      <trkpt lat="44.11856" lon="3.21332">
        <ele>466</ele>
        <time>2017-03-01T12:16:05Z</time>
      </trkpt>
      <trkpt lat="44.11856" lon="3.21327">
        <ele>468</ele>
        <time>2017-03-01T12:18:05Z</time>
      </trkpt>
      <trkpt lat="44.11858" lon="3.21323">
        <ele>468</ele>
        <time>2017-03-01T12:20:05Z</time>
      </trkpt>
      <trkpt lat="44.11861" lon="3.21314">
        <ele>469</ele>
        <time>2017-03-01T12:22:05Z</time>
      </trkpt>
      <trkpt lat="44.11863" lon="3.21311">
        <ele>468</ele>
        <time>2017-03-01T12:24:05Z</time>
      </trkpt>
      <trkpt lat="44.11866" lon="3.21308">
        <ele>467</ele>
        <time>2017-03-01T12:26:05Z</time>
      </trkpt>
      <trkpt lat="44.11872" lon="3.21302">
        <ele>466</ele>
        <time>2017-03-01T12:28:05Z</time>
      </trkpt>
      <trkpt lat="44.11877" lon="3.21297">
        <ele>464</ele>
        <time>2017-03-01T12:30:05Z</time>
      </trkpt>
      <trkpt lat="44.11879" lon="3.21295">
        <ele>464</ele>
        <time>2017-03-01T12:32:05Z</time>
      </trkpt>
      <trkpt lat="44.11881" lon="3.21292">
        <ele>463</ele>
        <time>2017-03-01T12:34:05Z</time>
      </trkpt>
      <trkpt lat="44.11883" lon="3.2129">
        <ele>463</ele>
        <time>2017-03-01T12:36:05Z</time>
      </trkpt>
      <trkpt lat="44.11883" lon="3.21288">
        <ele>463</ele>
        <time>2017-03-01T12:38:05Z</time>
      </trkpt>
      <trkpt lat="44.11883" lon="3.21287">
        <ele>464</ele>
        <time>2017-03-01T12:40:05Z</time>
      </trkpt>
      <trkpt lat="44.11884" lon="3.21286">
        <ele>463</ele>
        <time>2017-03-01T12:42:05Z</time>
      </trkpt>
      <trkpt lat="44.11884" lon="3.21284">
        <ele>464</ele>
        <time>2017-03-01T12:44:05Z</time>
      </trkpt>
      <trkpt lat="44.11884" lon="3.21283">
        <ele>464</ele>
        <time>2017-03-01T12:46:05Z</time>
      </trkpt>
      <trkpt lat="44.11883" lon="3.21281">
        <ele>465</ele>
        <time>2017-03-01T12:48:05Z</time>
      </trkpt>
      <trkpt lat="44.11883" lon="3.2128">
        <ele>466</ele>
        <time>2017-03-01T12:50:05Z</time>
      </trkpt>
      <trkpt lat="44.11882" lon="3.21279">
        <ele>467</ele>
        <time>2017-03-01T12:52:05Z</time>
      </trkpt>
      <trkpt lat="44.11882" lon="3.21278">
        <ele>467</ele>
        <time>2017-03-01T12:54:05Z</time>
      </trkpt>
      <trkpt lat="44.11881" lon="3.21277">
        <ele>468</ele>
        <time>2017-03-01T12:56:05Z</time>
      </trkpt>
      <trkpt lat="44.11879" lon="3.21276">
        <ele>469</ele>
        <time>2017-03-01T12:58:05Z</time>
      </trkpt>
      <trkpt lat="44.11878" lon="3.21276">
        <ele>470</ele>
        <time>2017-03-01T13:00:05Z</time>
      </trkpt>
      <trkpt lat="44.11877" lon="3.21276">
        <ele>471</ele>
        <time>2017-03-01T13:02:05Z</time>
      </trkpt>
      <trkpt lat="44.11876" lon="3.21277">
        <ele>471</ele>
        <time>2017-03-01T13:04:05Z</time>
      </trkpt>
      <trkpt lat="44.11875" lon="3.21277">
        <ele>472</ele>
        <time>2017-03-01T13:06:05Z</time>
      </trkpt>
      <trkpt lat="44.11874" lon="3.21278">
        <ele>472</ele>
        <time>2017-03-01T13:08:05Z</time>
      </trkpt>
      <trkpt lat="44.11873" lon="3.2128">
        <ele>472</ele>
        <time>2017-03-01T13:10:05Z</time>
      </trkpt>
      <trkpt lat="44.11872" lon="3.21281">
        <ele>472</ele>
        <time>2017-03-01T13:12:05Z</time>
      </trkpt>
      <trkpt lat="44.11871" lon="3.21284">
        <ele>472</ele>
        <time>2017-03-01T13:14:05Z</time>
      </trkpt>
      <trkpt lat="44.11869" lon="3.21287">
        <ele>472</ele>
        <time>2017-03-01T13:16:05Z</time>
      </trkpt>
      <trkpt lat="44.11867" lon="3.21291">
        <ele>472</ele>
        <time>2017-03-01T13:18:05Z</time>
      </trkpt>
      <trkpt lat="44.11865" lon="3.21294">
        <ele>472</ele>
        <time>2017-03-01T13:20:05Z</time>
      </trkpt>
      <trkpt lat="44.11862" lon="3.21297">
        <ele>473</ele>
        <time>2017-03-01T13:22:05Z</time>
      </trkpt>
      <trkpt lat="44.1186" lon="3.213">
        <ele>474</ele>
        <time>2017-03-01T13:24:05Z</time>
      </trkpt>
      <trkpt lat="44.11856" lon="3.21303">
        <ele>475</ele>
        <time>2017-03-01T13:26:05Z</time>
      </trkpt>
      <trkpt lat="44.11853" lon="3.21306">
        <ele>476</ele>
        <time>2017-03-01T13:28:05Z</time>
      </trkpt>
      <trkpt lat="44.1185" lon="3.2131">
        <ele>477</ele>
        <time>2017-03-01T13:30:05Z</time>
      </trkpt>
      <trkpt lat="44.11847" lon="3.21314">
        <ele>477</ele>
        <time>2017-03-01T13:32:05Z</time>
      </trkpt>
      <trkpt lat="44.11844" lon="3.21319">
        <ele>478</ele>
        <time>2017-03-01T13:34:05Z</time>
      </trkpt>
      <trkpt lat="44.11842" lon="3.21324">
        <ele>477</ele>
        <time>2017-03-01T13:36:05Z</time>
      </trkpt>
      <trkpt lat="44.11839" lon="3.21335">
        <ele>476</ele>
        <time>2017-03-01T13:38:05Z</time>
      </trkpt>
      <trkpt lat="44.11838" lon="3.2134">
        <ele>476</ele>
        <time>2017-03-01T13:40:05Z</time>
      </trkpt>
      <trkpt lat="44.11834" lon="3.21351">
        <ele>477</ele>
        <time>2017-03-01T13:42:05Z</time>
      </trkpt>
      <trkpt lat="44.11832" lon="3.21357">
        <ele>477</ele>
        <time>2017-03-01T13:44:05Z</time>
      </trkpt>
      <trkpt lat="44.11829" lon="3.21362">
        <ele>478</ele>
        <time>2017-03-01T13:46:05Z</time>
      </trkpt>
      <trkpt lat="44.11826" lon="3.21366">
        <ele>479</ele>
        <time>2017-03-01T13:48:05Z</time>
      </trkpt>
      <trkpt lat="44.11823" lon="3.21372">
        <ele>479</ele>
        <time>2017-03-01T13:50:05Z</time>
      </trkpt>
      <trkpt lat="44.1182" lon="3.21376">
        <ele>480</ele>
        <time>2017-03-01T13:52:05Z</time>
      </trkpt>
      <trkpt lat="44.11817" lon="3.2138">
        <ele>481</ele>
        <time>2017-03-01T13:54:05Z</time>
      </trkpt>
      <trkpt lat="44.11814" lon="3.21384">
        <ele>482</ele>
        <time>2017-03-01T13:56:05Z</time>
      </trkpt>
      <trkpt lat="44.1181" lon="3.21388">
        <ele>484</ele>
        <time>2017-03-01T13:58:05Z</time>
      </trkpt>
      <trkpt lat="44.11803" lon="3.21396">
        <ele>486</ele>
        <time>2017-03-01T14:00:05Z</time>
      </trkpt>
      <trkpt lat="44.11796" lon="3.21404">
        <ele>489</ele>
        <time>2017-03-01T14:02:05Z</time>
      </trkpt>
      <trkpt lat="44.11793" lon="3.21408">
        <ele>490</ele>
        <time>2017-03-01T14:04:05Z</time>
      </trkpt>
      <trkpt lat="44.11791" lon="3.21413">
        <ele>490</ele>
        <time>2017-03-01T14:06:05Z</time>
      </trkpt>
      <trkpt lat="44.11788" lon="3.21417">
        <ele>491</ele>
        <time>2017-03-01T14:08:05Z</time>
      </trkpt>
      <trkpt lat="44.11787" lon="3.21423">
        <ele>492</ele>
        <time>2017-03-01T14:10:05Z</time>
      </trkpt>
      <trkpt lat="44.11786" lon="3.21428">
        <ele>493</ele>
        <time>2017-03-01T14:12:05Z</time>
      </trkpt>
      <trkpt lat="44.11786" lon="3.21434">
        <ele>493</ele>
        <time>2017-03-01T14:14:05Z</time>
      </trkpt>
      <trkpt lat="44.11787" lon="3.21441">
        <ele>493</ele>
        <time>2017-03-01T14:16:05Z</time>
      </trkpt>
      <trkpt lat="44.11788" lon="3.21446">
        <ele>492</ele>
        <time>2017-03-01T14:18:05Z</time>
      </trkpt>
      <trkpt lat="44.1179" lon="3.21452">
        <ele>491</ele>
        <time>2017-03-01T14:20:05Z</time>
      </trkpt>
      <trkpt lat="44.11794" lon="3.21463">
        <ele>490</ele>
        <time>2017-03-01T14:22:05Z</time>
      </trkpt>
      <trkpt lat="44.11796" lon="3.21469">
        <ele>489</ele>
        <time>2017-03-01T14:24:05Z</time>
      </trkpt>
      <trkpt lat="44.11797" lon="3.21475">
        <ele>488</ele>
        <time>2017-03-01T14:26:05Z</time>
      </trkpt>
      <trkpt lat="44.11799" lon="3.21482">
        <ele>487</ele>
        <time>2017-03-01T14:28:05Z</time>
      </trkpt>
      <trkpt lat="44.118" lon="3.21487">
        <ele>487</ele>
        <time>2017-03-01T14:30:05Z</time>
      </trkpt>
      <trkpt lat="44.11801" lon="3.21495">
        <ele>487</ele>
        <time>2017-03-01T14:32:05Z</time>
      </trkpt>
      <trkpt lat="44.11802" lon="3.21516">
        <ele>489</ele>
        <time>2017-03-01T14:34:05Z</time>
      </trkpt>
      <trkpt lat="44.11803" lon="3.21531">
        <ele>491</ele>
        <time>2017-03-01T14:36:05Z</time>
      </trkpt>
      <trkpt lat="44.11804" lon="3.21546">
        <ele>492</ele>
        <time>2017-03-01T14:38:05Z</time>
      </trkpt>
      <trkpt lat="44.11807" lon="3.21575">
        <ele>495</ele>
        <time>2017-03-01T14:40:05Z</time>
      </trkpt>
      <trkpt lat="44.11809" lon="3.2159">
        <ele>496</ele>
        <time>2017-03-01T14:42:05Z</time>
      </trkpt>
      <trkpt lat="44.11811" lon="3.21597">
        <ele>496</ele>
        <time>2017-03-01T14:44:05Z</time>
      </trkpt>
      <trkpt lat="44.11812" lon="3.21604">
        <ele>496</ele>
        <time>2017-03-01T14:46:05Z</time>
      </trkpt>
      <trkpt lat="44.11814" lon="3.21611">
        <ele>496</ele>
        <time>2017-03-01T14:48:05Z</time>
      </trkpt>
      <trkpt lat="44.11818" lon="3.21625">
        <ele>496</ele>
        <time>2017-03-01T14:50:05Z</time>
      </trkpt>
      <trkpt lat="44.11823" lon="3.21638">
        <ele>494</ele>
        <time>2017-03-01T14:52:05Z</time>
      </trkpt>
      <trkpt lat="44.11825" lon="3.21645">
        <ele>494</ele>
        <time>2017-03-01T14:54:05Z</time>
      </trkpt>
      <trkpt lat="44.11827" lon="3.21652">
        <ele>494</ele>
        <time>2017-03-01T14:56:05Z</time>
      </trkpt>
      <trkpt lat="44.11828" lon="3.21659">
        <ele>494</ele>
        <time>2017-03-01T14:58:05Z</time>
      </trkpt>
      <trkpt lat="44.11829" lon="3.21665">
        <ele>494</ele>
        <time>2017-03-01T15:00:05Z</time>
      </trkpt>
      <trkpt lat="44.11831" lon="3.21672">
        <ele>493</ele>
        <time>2017-03-01T15:02:05Z</time>
      </trkpt>
      <trkpt lat="44.11831" lon="3.21678">
        <ele>494</ele>
        <time>2017-03-01T15:04:05Z</time>
      </trkpt>
      <trkpt lat="44.11832" lon="3.21685">
        <ele>493</ele>
        <time>2017-03-01T15:06:05Z</time>
      </trkpt>
      <trkpt lat="44.11833" lon="3.2169">
        <ele>493</ele>
        <time>2017-03-01T15:08:05Z</time>
      </trkpt>
      <trkpt lat="44.11833" lon="3.21696">
        <ele>493</ele>
        <time>2017-03-01T15:10:05Z</time>
      </trkpt>
      <trkpt lat="44.11833" lon="3.21702">
        <ele>493</ele>
        <time>2017-03-01T15:12:05Z</time>
      </trkpt>
      <trkpt lat="44.11832" lon="3.21707">
        <ele>494</ele>
        <time>2017-03-01T15:14:05Z</time>
      </trkpt>
      <trkpt lat="44.11831" lon="3.21713">
        <ele>494</ele>
        <time>2017-03-01T15:16:05Z</time>
      </trkpt>
      <trkpt lat="44.11829" lon="3.21718">
        <ele>496</ele>
        <time>2017-03-01T15:18:05Z</time>
      </trkpt>
      <trkpt lat="44.11826" lon="3.21723">
        <ele>498</ele>
        <time>2017-03-01T15:20:05Z</time>
      </trkpt>
      <trkpt lat="44.11822" lon="3.21733">
        <ele>500</ele>
        <time>2017-03-01T15:22:05Z</time>
      </trkpt>
      <trkpt lat="44.11819" lon="3.21738">
        <ele>502</ele>
        <time>2017-03-01T15:24:05Z</time>
      </trkpt>
      <trkpt lat="44.11817" lon="3.21744">
        <ele>503</ele>
        <time>2017-03-01T15:26:05Z</time>
      </trkpt>
      <trkpt lat="44.11816" lon="3.21749">
        <ele>504</ele>
        <time>2017-03-01T15:28:05Z</time>
      </trkpt>
      <trkpt lat="44.11815" lon="3.21755">
        <ele>505</ele>
        <time>2017-03-01T15:30:05Z</time>
      </trkpt>
      <trkpt lat="44.11815" lon="3.21761">
        <ele>504</ele>
        <time>2017-03-01T15:32:05Z</time>
      </trkpt>
      <trkpt lat="44.11815" lon="3.21767">
        <ele>504</ele>
        <time>2017-03-01T15:34:05Z</time>
      </trkpt>
      <trkpt lat="44.11817" lon="3.21773">
        <ele>503</ele>
        <time>2017-03-01T15:36:05Z</time>
      </trkpt>
      <trkpt lat="44.11818" lon="3.21778">
        <ele>503</ele>
        <time>2017-03-01T15:38:05Z</time>
      </trkpt>
      <trkpt lat="44.1182" lon="3.21783">
        <ele>501</ele>
        <time>2017-03-01T15:40:05Z</time>
      </trkpt>
      <trkpt lat="44.11822" lon="3.21789">
        <ele>500</ele>
        <time>2017-03-01T15:42:05Z</time>
      </trkpt>
      <trkpt lat="44.11823" lon="3.21794">
        <ele>500</ele>
        <time>2017-03-01T15:44:05Z</time>
      </trkpt>
      <trkpt lat="44.11823" lon="3.21799">
        <ele>500</ele>
        <time>2017-03-01T15:46:05Z</time>
      </trkpt>
      <trkpt lat="44.11823" lon="3.21805">
        <ele>499</ele>
        <time>2017-03-01T15:48:05Z</time>
      </trkpt>
      <trkpt lat="44.11823" lon="3.21811">
        <ele>499</ele>
        <time>2017-03-01T15:50:05Z</time>
      </trkpt>
      <trkpt lat="44.11822" lon="3.21817">
        <ele>500</ele>
        <time>2017-03-01T15:52:05Z</time>
      </trkpt>
      <trkpt lat="44.11821" lon="3.21823">
        <ele>500</ele>
        <time>2017-03-01T15:54:05Z</time>
      </trkpt>
      <trkpt lat="44.11819" lon="3.21829">
        <ele>502</ele>
        <time>2017-03-01T15:56:05Z</time>
      </trkpt>
      <trkpt lat="44.11816" lon="3.21841">
        <ele>503</ele>
        <time>2017-03-01T15:58:05Z</time>
      </trkpt>
      <trkpt lat="44.11813" lon="3.21854">
        <ele>504</ele>
        <time>2017-03-01T16:00:05Z</time>
      </trkpt>
      <trkpt lat="44.11811" lon="3.2186">
        <ele>505</ele>
        <time>2017-03-01T16:02:05Z</time>
      </trkpt>
      <trkpt lat="44.11808" lon="3.21872">
        <ele>506</ele>
        <time>2017-03-01T16:04:05Z</time>
      </trkpt>
      <trkpt lat="44.11804" lon="3.21883">
        <ele>507</ele>
        <time>2017-03-01T16:06:05Z</time>
      </trkpt>
      <trkpt lat="44.11802" lon="3.21888">
        <ele>508</ele>
        <time>2017-03-01T16:08:05Z</time>
      </trkpt>
      <trkpt lat="44.118" lon="3.21893">
        <ele>509</ele>
        <time>2017-03-01T16:10:05Z</time>
      </trkpt>
      <trkpt lat="44.11797" lon="3.21897">
        <ele>510</ele>
        <time>2017-03-01T16:12:05Z</time>
      </trkpt>
      <trkpt lat="44.11794" lon="3.21901">
        <ele>511</ele>
        <time>2017-03-01T16:14:05Z</time>
      </trkpt>
      <trkpt lat="44.11792" lon="3.21905">
        <ele>512</ele>
        <time>2017-03-01T16:16:05Z</time>
      </trkpt>
      <trkpt lat="44.11788" lon="3.21908">
        <ele>513</ele>
        <time>2017-03-01T16:18:05Z</time>
      </trkpt>
      <trkpt lat="44.1178" lon="3.21912">
        <ele>517</ele>
        <time>2017-03-01T16:20:05Z</time>
      </trkpt>
      <trkpt lat="44.11768" lon="3.21918">
        <ele>522</ele>
        <time>2017-03-01T16:22:05Z</time>
      </trkpt>
      <trkpt lat="44.11765" lon="3.2192">
        <ele>523</ele>
        <time>2017-03-01T16:24:05Z</time>
      </trkpt>
      <trkpt lat="44.11761" lon="3.21922">
        <ele>525</ele>
        <time>2017-03-01T16:26:05Z</time>
      </trkpt>
      <trkpt lat="44.11758" lon="3.21925">
        <ele>526</ele>
        <time>2017-03-01T16:28:05Z</time>
      </trkpt>
      <trkpt lat="44.11755" lon="3.21928">
        <ele>528</ele>
        <time>2017-03-01T16:30:05Z</time>
      </trkpt>
      <trkpt lat="44.11753" lon="3.21932">
        <ele>528</ele>
        <time>2017-03-01T16:32:05Z</time>
      </trkpt>
      <trkpt lat="44.11752" lon="3.21937">
        <ele>529</ele>
        <time>2017-03-01T16:34:05Z</time>
      </trkpt>
      <trkpt lat="44.11751" lon="3.21942">
        <ele>529</ele>
        <time>2017-03-01T16:36:05Z</time>
      </trkpt>
      <trkpt lat="44.11751" lon="3.21947">
        <ele>529</ele>
        <time>2017-03-01T16:38:05Z</time>
      </trkpt>
      <trkpt lat="44.11752" lon="3.21953">
        <ele>528</ele>
        <time>2017-03-01T16:40:05Z</time>
      </trkpt>
      <trkpt lat="44.11753" lon="3.21958">
        <ele>528</ele>
        <time>2017-03-01T16:42:05Z</time>
      </trkpt>
      <trkpt lat="44.11757" lon="3.21974">
        <ele>526</ele>
        <time>2017-03-01T16:44:05Z</time>
      </trkpt>
      <trkpt lat="44.11758" lon="3.2198">
        <ele>526</ele>
        <time>2017-03-01T16:46:05Z</time>
      </trkpt>
      <trkpt lat="44.11759" lon="3.21986">
        <ele>526</ele>
        <time>2017-03-01T16:48:05Z</time>
      </trkpt>
      <trkpt lat="44.11759" lon="3.21992">
        <ele>526</ele>
        <time>2017-03-01T16:50:05Z</time>
      </trkpt>
      <trkpt lat="44.11759" lon="3.21998">
        <ele>526</ele>
        <time>2017-03-01T16:52:05Z</time>
      </trkpt>
      <trkpt lat="44.11759" lon="3.22005">
        <ele>527</ele>
        <time>2017-03-01T16:54:05Z</time>
      </trkpt>
      <trkpt lat="44.11759" lon="3.22017">
        <ele>528</ele>
        <time>2017-03-01T16:56:05Z</time>
      </trkpt>
      <trkpt lat="44.11757" lon="3.2203">
        <ele>531</ele>
        <time>2017-03-01T16:58:05Z</time>
      </trkpt>
      <trkpt lat="44.11756" lon="3.22049">
        <ele>534</ele>
        <time>2017-03-01T17:00:05Z</time>
      </trkpt>
      <trkpt lat="44.11755" lon="3.22055">
        <ele>535</ele>
        <time>2017-03-01T17:02:05Z</time>
      </trkpt>
      <trkpt lat="44.11755" lon="3.22061">
        <ele>536</ele>
        <time>2017-03-01T17:04:05Z</time>
      </trkpt>
      <trkpt lat="44.11755" lon="3.22067">
        <ele>537</ele>
        <time>2017-03-01T17:06:05Z</time>
      </trkpt>
      <trkpt lat="44.11755" lon="3.22073">
        <ele>537</ele>
        <time>2017-03-01T17:08:05Z</time>
      </trkpt>
      <trkpt lat="44.11756" lon="3.22079">
        <ele>538</ele>
        <time>2017-03-01T17:10:05Z</time>
      </trkpt>
      <trkpt lat="44.11757" lon="3.22084">
        <ele>539</ele>
        <time>2017-03-01T17:12:05Z</time>
      </trkpt>
      <trkpt lat="44.11759" lon="3.22089">
        <ele>540</ele>
        <time>2017-03-01T17:14:05Z</time>
      </trkpt>
      <trkpt lat="44.11761" lon="3.22093">
        <ele>542</ele>
        <time>2017-03-01T17:16:05Z</time>
      </trkpt>
      <trkpt lat="44.11764" lon="3.22096">
        <ele>543</ele>
        <time>2017-03-01T17:18:05Z</time>
      </trkpt>
      <trkpt lat="44.11768" lon="3.22098">
        <ele>543</ele>
        <time>2017-03-01T17:20:05Z</time>
      </trkpt>
      <trkpt lat="44.11772" lon="3.221">
        <ele>544</ele>
        <time>2017-03-01T17:22:05Z</time>
      </trkpt>
      <trkpt lat="44.11776" lon="3.221">
        <ele>544</ele>
        <time>2017-03-01T17:24:05Z</time>
      </trkpt>
      <trkpt lat="44.1178" lon="3.22099">
        <ele>544</ele>
        <time>2017-03-01T17:26:05Z</time>
      </trkpt>
      <trkpt lat="44.11785" lon="3.22099">
        <ele>544</ele>
        <time>2017-03-01T17:28:05Z</time>
      </trkpt>
      <trkpt lat="44.1179" lon="3.22098">
        <ele>543</ele>
        <time>2017-03-01T17:30:05Z</time>
      </trkpt>
      <trkpt lat="44.11794" lon="3.22096">
        <ele>543</ele>
        <time>2017-03-01T17:32:05Z</time>
      </trkpt>
      <trkpt lat="44.11799" lon="3.22094">
        <ele>542</ele>
        <time>2017-03-01T17:34:05Z</time>
      </trkpt>
      <trkpt lat="44.11804" lon="3.22092">
        <ele>542</ele>
        <time>2017-03-01T17:36:05Z</time>
      </trkpt>
      <trkpt lat="44.11808" lon="3.2209">
        <ele>541</ele>
        <time>2017-03-01T17:38:05Z</time>
      </trkpt>
      <trkpt lat="44.11812" lon="3.22087">
        <ele>540</ele>
        <time>2017-03-01T17:40:05Z</time>
      </trkpt>
      <trkpt lat="44.11817" lon="3.22084">
        <ele>538</ele>
        <time>2017-03-01T17:42:05Z</time>
      </trkpt>
      <trkpt lat="44.11826" lon="3.22078">
        <ele>536</ele>
        <time>2017-03-01T17:44:05Z</time>
      </trkpt>
      <trkpt lat="44.1183" lon="3.22076">
        <ele>535</ele>
        <time>2017-03-01T17:46:05Z</time>
      </trkpt>
      <trkpt lat="44.11834" lon="3.22074">
        <ele>535</ele>
        <time>2017-03-01T17:48:05Z</time>
      </trkpt>
      <trkpt lat="44.11839" lon="3.22073">
        <ele>535</ele>
        <time>2017-03-01T17:50:05Z</time>
      </trkpt>
      <trkpt lat="44.11844" lon="3.22072">
        <ele>535</ele>
        <time>2017-03-01T17:52:05Z</time>
      </trkpt>
      <trkpt lat="44.11848" lon="3.22072">
        <ele>536</ele>
        <time>2017-03-01T17:54:05Z</time>
      </trkpt>
      <trkpt lat="44.11852" lon="3.22072">
        <ele>536</ele>
        <time>2017-03-01T17:56:05Z</time>
      </trkpt>
      <trkpt lat="44.11857" lon="3.22072">
        <ele>537</ele>
        <time>2017-03-01T17:58:05Z</time>
      </trkpt>
      <trkpt lat="44.11861" lon="3.22073">
        <ele>538</ele>
        <time>2017-03-01T18:00:05Z</time>
      </trkpt>
      <trkpt lat="44.11865" lon="3.22075">
        <ele>540</ele>
        <time>2017-03-01T18:02:05Z</time>
      </trkpt>
      <trkpt lat="44.11869" lon="3.22076">
        <ele>541</ele>
        <time>2017-03-01T18:04:05Z</time>
      </trkpt>
      <trkpt lat="44.11874" lon="3.22078">
        <ele>542</ele>
        <time>2017-03-01T18:06:05Z</time>
      </trkpt>
      <trkpt lat="44.11878" lon="3.22078">
        <ele>543</ele>
        <time>2017-03-01T18:08:05Z</time>
      </trkpt>
      <trkpt lat="44.11882" lon="3.22079">
        <ele>544</ele>
        <time>2017-03-01T18:10:05Z</time>
      </trkpt>
      <trkpt lat="44.11887" lon="3.22077">
        <ele>544</ele>
        <time>2017-03-01T18:12:05Z</time>
      </trkpt>
      <trkpt lat="44.11891" lon="3.22075">
        <ele>543</ele>
        <time>2017-03-01T18:14:05Z</time>
      </trkpt>
      <trkpt lat="44.11903" lon="3.22066">
        <ele>541</ele>
        <time>2017-03-01T18:16:05Z</time>
      </trkpt>
      <trkpt lat="44.11912" lon="3.2206">
        <ele>539</ele>
        <time>2017-03-01T18:18:05Z</time>
      </trkpt>
      <trkpt lat="44.1192" lon="3.22055">
        <ele>538</ele>
        <time>2017-03-01T18:20:05Z</time>
      </trkpt>
      <trkpt lat="44.11924" lon="3.22053">
        <ele>537</ele>
        <time>2017-03-01T18:22:05Z</time>
      </trkpt>
      <trkpt lat="44.11929" lon="3.22051">
        <ele>536</ele>
        <time>2017-03-01T18:24:05Z</time>
      </trkpt>
      <trkpt lat="44.11933" lon="3.2205">
        <ele>535</ele>
        <time>2017-03-01T18:26:05Z</time>
      </trkpt>
      <trkpt lat="44.11936" lon="3.22049">
        <ele>535</ele>
        <time>2017-03-01T18:28:05Z</time>
      </trkpt>
      <trkpt lat="44.11939" lon="3.22048">
        <ele>535</ele>
        <time>2017-03-01T18:30:05Z</time>
      </trkpt>
      <trkpt lat="44.11942" lon="3.22048">
        <ele>535</ele>
        <time>2017-03-01T18:32:05Z</time>
      </trkpt>
      <trkpt lat="44.11944" lon="3.22049">
        <ele>535</ele>
        <time>2017-03-01T18:34:05Z</time>
      </trkpt>
      <trkpt lat="44.11946" lon="3.2205">
        <ele>535</ele>
        <time>2017-03-01T18:36:05Z</time>
      </trkpt>
      <trkpt lat="44.11947" lon="3.22052">
        <ele>536</ele>
        <time>2017-03-01T18:38:05Z</time>
      </trkpt>
      <trkpt lat="44.11948" lon="3.22055">
        <ele>538</ele>
        <time>2017-03-01T18:40:05Z</time>
      </trkpt>
      <trkpt lat="44.11948" lon="3.22057">
        <ele>538</ele>
        <time>2017-03-01T18:42:05Z</time>
      </trkpt>
      <trkpt lat="44.11947" lon="3.2206">
        <ele>540</ele>
        <time>2017-03-01T18:44:05Z</time>
      </trkpt>
      <trkpt lat="44.11946" lon="3.22062">
        <ele>541</ele>
        <time>2017-03-01T18:46:05Z</time>
      </trkpt>
      <trkpt lat="44.11944" lon="3.22064">
        <ele>541</ele>
        <time>2017-03-01T18:48:05Z</time>
      </trkpt>
      <trkpt lat="44.11941" lon="3.22065">
        <ele>542</ele>
        <time>2017-03-01T18:50:05Z</time>
      </trkpt>
      <trkpt lat="44.11938" lon="3.22066">
        <ele>542</ele>
        <time>2017-03-01T18:52:05Z</time>
      </trkpt>
      <trkpt lat="44.11932" lon="3.22067">
        <ele>543</ele>
        <time>2017-03-01T18:54:05Z</time>
      </trkpt>
      <trkpt lat="44.11928" lon="3.22067">
        <ele>543</ele>
        <time>2017-03-01T18:56:05Z</time>
      </trkpt>
      <trkpt lat="44.11925" lon="3.22067">
        <ele>543</ele>
        <time>2017-03-01T18:58:05Z</time>
      </trkpt>
      <trkpt lat="44.11921" lon="3.22068">
        <ele>544</ele>
        <time>2017-03-01T19:00:05Z</time>
      </trkpt>
      <trkpt lat="44.11918" lon="3.22069">
        <ele>544</ele>
        <time>2017-03-01T19:02:05Z</time>
      </trkpt>
      <trkpt lat="44.11914" lon="3.22071">
        <ele>545</ele>
        <time>2017-03-01T19:04:05Z</time>
      </trkpt>
      <trkpt lat="44.11911" lon="3.22074">
        <ele>546</ele>
        <time>2017-03-01T19:06:05Z</time>
      </trkpt>
      <trkpt lat="44.11907" lon="3.22077">
        <ele>547</ele>
        <time>2017-03-01T19:08:05Z</time>
      </trkpt>
      <trkpt lat="44.11899" lon="3.22084">
        <ele>549</ele>
        <time>2017-03-01T19:10:05Z</time>
      </trkpt>
      <trkpt lat="44.11895" lon="3.22088">
        <ele>549</ele>
        <time>2017-03-01T19:12:05Z</time>
      </trkpt>
      <trkpt lat="44.11891" lon="3.22091">
        <ele>550</ele>
        <time>2017-03-01T19:14:05Z</time>
      </trkpt>
      <trkpt lat="44.11887" lon="3.22094">
        <ele>551</ele>
        <time>2017-03-01T19:16:05Z</time>
      </trkpt>
      <trkpt lat="44.11883" lon="3.22096">
        <ele>551</ele>
        <time>2017-03-01T19:18:05Z</time>
      </trkpt>
      <trkpt lat="44.11879" lon="3.22098">
        <ele>551</ele>
        <time>2017-03-01T19:20:05Z</time>
      </trkpt>
      <trkpt lat="44.11874" lon="3.22098">
        <ele>550</ele>
        <time>2017-03-01T19:22:05Z</time>
      </trkpt>
      <trkpt lat="44.11865" lon="3.22098">
        <ele>549</ele>
        <time>2017-03-01T19:24:05Z</time>
      </trkpt>
      <trkpt lat="44.11861" lon="3.22099">
        <ele>549</ele>
        <time>2017-03-01T19:26:05Z</time>
      </trkpt>
      <trkpt lat="44.11857" lon="3.221">
        <ele>549</ele>
        <time>2017-03-01T19:28:05Z</time>
      </trkpt>
      <trkpt lat="44.11852" lon="3.22101">
        <ele>548</ele>
        <time>2017-03-01T19:30:05Z</time>
      </trkpt>
      <trkpt lat="44.11848" lon="3.22103">
        <ele>548</ele>
        <time>2017-03-01T19:32:05Z</time>
      </trkpt>
      <trkpt lat="44.11844" lon="3.22106">
        <ele>549</ele>
        <time>2017-03-01T19:34:05Z</time>
      </trkpt>
      <trkpt lat="44.1184" lon="3.22109">
        <ele>550</ele>
        <time>2017-03-01T19:36:05Z</time>
      </trkpt>
      <trkpt lat="44.11828" lon="3.22118">
        <ele>552</ele>
        <time>2017-03-01T19:38:05Z</time>
      </trkpt>
      <trkpt lat="44.1182" lon="3.22124">
        <ele>554</ele>
        <time>2017-03-01T19:40:05Z</time>
      </trkpt>
      <trkpt lat="44.11812" lon="3.22132">
        <ele>557</ele>
        <time>2017-03-01T19:42:05Z</time>
      </trkpt>
      <trkpt lat="44.11789" lon="3.22152">
        <ele>562</ele>
        <time>2017-03-01T19:44:05Z</time>
      </trkpt>
      <trkpt lat="44.11778" lon="3.22162">
        <ele>564</ele>
        <time>2017-03-01T19:46:05Z</time>
      </trkpt>
      <trkpt lat="44.1177" lon="3.22168">
        <ele>564</ele>
        <time>2017-03-01T19:48:05Z</time>
      </trkpt>
      <trkpt lat="44.11762" lon="3.22174">
        <ele>566</ele>
        <time>2017-03-01T19:50:05Z</time>
      </trkpt>
      <trkpt lat="44.11758" lon="3.22177">
        <ele>566</ele>
        <time>2017-03-01T19:52:05Z</time>
      </trkpt>
      <trkpt lat="44.11754" lon="3.2218">
        <ele>567</ele>
        <time>2017-03-01T19:54:05Z</time>
      </trkpt>
      <trkpt lat="44.1175" lon="3.22182">
        <ele>567</ele>
        <time>2017-03-01T19:56:05Z</time>
      </trkpt>
      <trkpt lat="44.11747" lon="3.22184">
        <ele>568</ele>
        <time>2017-03-01T19:58:05Z</time>
      </trkpt>
      <trkpt lat="44.11743" lon="3.22185">
        <ele>570</ele>
        <time>2017-03-01T20:00:05Z</time>
      </trkpt>
      <trkpt lat="44.11739" lon="3.22186">
        <ele>571</ele>
        <time>2017-03-01T20:02:05Z</time>
      </trkpt>
      <trkpt lat="44.11735" lon="3.22187">
        <ele>572</ele>
        <time>2017-03-01T20:04:05Z</time>
      </trkpt>
      <trkpt lat="44.11732" lon="3.22186">
        <ele>572</ele>
        <time>2017-03-01T20:06:05Z</time>
      </trkpt>
      <trkpt lat="44.11728" lon="3.22186">
        <ele>573</ele>
        <time>2017-03-01T20:08:05Z</time>
      </trkpt>
      <trkpt lat="44.11724" lon="3.22184">
        <ele>573</ele>
        <time>2017-03-01T20:10:05Z</time>
      </trkpt>
      <trkpt lat="44.1172" lon="3.22182">
        <ele>573</ele>
        <time>2017-03-01T20:12:05Z</time>
      </trkpt>
      <trkpt lat="44.11715" lon="3.22179">
        <ele>573</ele>
        <time>2017-03-01T20:14:05Z</time>
      </trkpt>
      <trkpt lat="44.11705" lon="3.22172">
        <ele>573</ele>
        <time>2017-03-01T20:16:05Z</time>
      </trkpt>
      <trkpt lat="44.11702" lon="3.2217">
        <ele>573</ele>
        <time>2017-03-01T20:18:05Z</time>
      </trkpt>
      <trkpt lat="44.11698" lon="3.22167">
        <ele>573</ele>
        <time>2017-03-01T20:20:05Z</time>
      </trkpt>
      <trkpt lat="44.11695" lon="3.22163">
        <ele>573</ele>
        <time>2017-03-01T20:22:05Z</time>
      </trkpt>
      <trkpt lat="44.11693" lon="3.22158">
        <ele>573</ele>
        <time>2017-03-01T20:24:05Z</time>
      </trkpt>
      <trkpt lat="44.11688" lon="3.22149">
        <ele>573</ele>
        <time>2017-03-01T20:26:05Z</time>
      </trkpt>
      <trkpt lat="44.11685" lon="3.22144">
        <ele>573</ele>
        <time>2017-03-01T20:28:05Z</time>
      </trkpt>
      <trkpt lat="44.11682" lon="3.2214">
        <ele>574</ele>
        <time>2017-03-01T20:30:05Z</time>
      </trkpt>
      <trkpt lat="44.11679" lon="3.22136">
        <ele>574</ele>
        <time>2017-03-01T20:32:05Z</time>
      </trkpt>
      <trkpt lat="44.11669" lon="3.22126">
        <ele>577</ele>
        <time>2017-03-01T20:34:05Z</time>
      </trkpt>
      <trkpt lat="44.11667" lon="3.22122">
        <ele>577</ele>
        <time>2017-03-01T20:36:05Z</time>
      </trkpt>
      <trkpt lat="44.11665" lon="3.22118">
        <ele>578</ele>
        <time>2017-03-01T20:38:05Z</time>
      </trkpt>
      <trkpt lat="44.11664" lon="3.22114">
        <ele>578</ele>
        <time>2017-03-01T20:40:05Z</time>
      </trkpt>
      <trkpt lat="44.11663" lon="3.2211">
        <ele>578</ele>
        <time>2017-03-01T20:42:05Z</time>
      </trkpt>
      <trkpt lat="44.11664" lon="3.22106">
        <ele>578</ele>
        <time>2017-03-01T20:44:05Z</time>
      </trkpt>
      <trkpt lat="44.11665" lon="3.22102">
        <ele>577</ele>
        <time>2017-03-01T20:46:05Z</time>
      </trkpt>
      <trkpt lat="44.11667" lon="3.22098">
        <ele>576</ele>
        <time>2017-03-01T20:48:05Z</time>
      </trkpt>
      <trkpt lat="44.11669" lon="3.22094">
        <ele>575</ele>
        <time>2017-03-01T20:50:05Z</time>
      </trkpt>
      <trkpt lat="44.11672" lon="3.22091">
        <ele>573</ele>
        <time>2017-03-01T20:52:05Z</time>
      </trkpt>
      <trkpt lat="44.11675" lon="3.22088">
        <ele>572</ele>
        <time>2017-03-01T20:54:05Z</time>
      </trkpt>
      <trkpt lat="44.11678" lon="3.22084">
        <ele>570</ele>
        <time>2017-03-01T20:56:05Z</time>
      </trkpt>
      <trkpt lat="44.11681" lon="3.2208">
        <ele>569</ele>
        <time>2017-03-01T20:58:05Z</time>
      </trkpt>
      <trkpt lat="44.11683" lon="3.22075">
        <ele>567</ele>
        <time>2017-03-01T21:00:05Z</time>
      </trkpt>
      <trkpt lat="44.11684" lon="3.2207">
        <ele>567</ele>
        <time>2017-03-01T21:02:05Z</time>
      </trkpt>
      <trkpt lat="44.11685" lon="3.22065">
        <ele>566</ele>
        <time>2017-03-01T21:04:05Z</time>
      </trkpt>
      <trkpt lat="44.11685" lon="3.22059">
        <ele>565</ele>
        <time>2017-03-01T21:06:05Z</time>
      </trkpt>
      <trkpt lat="44.11685" lon="3.22053">
        <ele>565</ele>
        <time>2017-03-01T21:08:05Z</time>
      </trkpt>
      <trkpt lat="44.11684" lon="3.22047">
        <ele>565</ele>
        <time>2017-03-01T21:10:05Z</time>
      </trkpt>
      <trkpt lat="44.11684" lon="3.22041">
        <ele>565</ele>
        <time>2017-03-01T21:12:05Z</time>
      </trkpt>
      <trkpt lat="44.11683" lon="3.22035">
        <ele>565</ele>
        <time>2017-03-01T21:14:05Z</time>
      </trkpt>
      <trkpt lat="44.11681" lon="3.22029">
        <ele>565</ele>
        <time>2017-03-01T21:16:05Z</time>
      </trkpt>
      <trkpt lat="44.11679" lon="3.22023">
        <ele>566</ele>
        <time>2017-03-01T21:18:05Z</time>
      </trkpt>
      <trkpt lat="44.11677" lon="3.22017">
        <ele>567</ele>
        <time>2017-03-01T21:20:05Z</time>
      </trkpt>
      <trkpt lat="44.11675" lon="3.22012">
        <ele>567</ele>
        <time>2017-03-01T21:22:05Z</time>
      </trkpt>
      <trkpt lat="44.11672" lon="3.22007">
        <ele>569</ele>
        <time>2017-03-01T21:24:05Z</time>
      </trkpt>
      <trkpt lat="44.11669" lon="3.22002">
        <ele>570</ele>
        <time>2017-03-01T21:26:05Z</time>
      </trkpt>
      <trkpt lat="44.11666" lon="3.21997">
        <ele>571</ele>
        <time>2017-03-01T21:28:05Z</time>
      </trkpt>
      <trkpt lat="44.11662" lon="3.21993">
        <ele>573</ele>
        <time>2017-03-01T21:30:05Z</time>
      </trkpt>
      <trkpt lat="44.11655" lon="3.21984">
        <ele>576</ele>
        <time>2017-03-01T21:32:05Z</time>
      </trkpt>
      <trkpt lat="44.11651" lon="3.2198">
        <ele>578</ele>
        <time>2017-03-01T21:34:05Z</time>
      </trkpt>
      <trkpt lat="44.11644" lon="3.21974">
        <ele>581</ele>
        <time>2017-03-01T21:36:05Z</time>
      </trkpt>
      <trkpt lat="44.1164" lon="3.21969">
        <ele>583</ele>
        <time>2017-03-01T21:38:05Z</time>
      </trkpt>
      <trkpt lat="44.11636" lon="3.21965">
        <ele>585</ele>
        <time>2017-03-01T21:40:05Z</time>
      </trkpt>
      <trkpt lat="44.11633" lon="3.21961">
        <ele>586</ele>
        <time>2017-03-01T21:42:05Z</time>
      </trkpt>
      <trkpt lat="44.1163" lon="3.21957">
        <ele>588</ele>
        <time>2017-03-01T21:44:05Z</time>
      </trkpt>
      <trkpt lat="44.11627" lon="3.21952">
        <ele>589</ele>
        <time>2017-03-01T21:46:05Z</time>
      </trkpt>
      <trkpt lat="44.11624" lon="3.21947">
        <ele>591</ele>
        <time>2017-03-01T21:48:05Z</time>
      </trkpt>
      <trkpt lat="44.11622" lon="3.21942">
        <ele>592</ele>
        <time>2017-03-01T21:50:05Z</time>
      </trkpt>
      <trkpt lat="44.11621" lon="3.21937">
        <ele>592</ele>
        <time>2017-03-01T21:52:05Z</time>
      </trkpt>
      <trkpt lat="44.1162" lon="3.21931">
        <ele>593</ele>
        <time>2017-03-01T21:54:05Z</time>
      </trkpt>
      <trkpt lat="44.11621" lon="3.21925">
        <ele>592</ele>
        <time>2017-03-01T21:56:05Z</time>
      </trkpt>
      <trkpt lat="44.11621" lon="3.2192">
        <ele>592</ele>
        <time>2017-03-01T21:58:05Z</time>
      </trkpt>
      <trkpt lat="44.11623" lon="3.21914">
        <ele>591</ele>
        <time>2017-03-01T22:00:05Z</time>
      </trkpt>
      <trkpt lat="44.11626" lon="3.21909">
        <ele>591</ele>
        <time>2017-03-01T22:02:05Z</time>
      </trkpt>
      <trkpt lat="44.11631" lon="3.21899">
        <ele>590</ele>
        <time>2017-03-01T22:04:05Z</time>
      </trkpt>
      <trkpt lat="44.11638" lon="3.21888">
        <ele>589</ele>
        <time>2017-03-01T22:06:05Z</time>
      </trkpt>
      <trkpt lat="44.11648" lon="3.21874">
        <ele>586</ele>
        <time>2017-03-01T22:08:05Z</time>
      </trkpt>
      <trkpt lat="44.11654" lon="3.21865">
        <ele>585</ele>
        <time>2017-03-01T22:10:05Z</time>
      </trkpt>
      <trkpt lat="44.11659" lon="3.21857">
        <ele>583</ele>
        <time>2017-03-01T22:12:05Z</time>
      </trkpt>
      <trkpt lat="44.11662" lon="3.21853">
        <ele>582</ele>
        <time>2017-03-01T22:14:05Z</time>
      </trkpt>
      <trkpt lat="44.11664" lon="3.21849">
        <ele>582</ele>
        <time>2017-03-01T22:16:05Z</time>
      </trkpt>
      <trkpt lat="44.11666" lon="3.21846">
        <ele>581</ele>
        <time>2017-03-01T22:18:05Z</time>
      </trkpt>
      <trkpt lat="44.11667" lon="3.21842">
        <ele>581</ele>
        <time>2017-03-01T22:20:05Z</time>
      </trkpt>
      <trkpt lat="44.11669" lon="3.21838">
        <ele>581</ele>
        <time>2017-03-01T22:22:05Z</time>
      </trkpt>
      <trkpt lat="44.1167" lon="3.21834">
        <ele>581</ele>
        <time>2017-03-01T22:24:05Z</time>
      </trkpt>
      <trkpt lat="44.11671" lon="3.21829">
        <ele>582</ele>
        <time>2017-03-01T22:26:05Z</time>
      </trkpt>
      <trkpt lat="44.11671" lon="3.21824">
        <ele>582</ele>
        <time>2017-03-01T22:28:05Z</time>
      </trkpt>
      <trkpt lat="44.1167" lon="3.21817">
        <ele>584</ele>
        <time>2017-03-01T22:30:05Z</time>
      </trkpt>
      <trkpt lat="44.11667" lon="3.21809">
        <ele>587</ele>
        <time>2017-03-01T22:32:05Z</time>
      </trkpt>
      <trkpt lat="44.11665" lon="3.21798">
        <ele>590</ele>
        <time>2017-03-01T22:34:05Z</time>
      </trkpt>
      <trkpt lat="44.11664" lon="3.21793">
        <ele>592</ele>
        <time>2017-03-01T22:36:05Z</time>
      </trkpt>
      <trkpt lat="44.11663" lon="3.21787">
        <ele>593</ele>
        <time>2017-03-01T22:38:05Z</time>
      </trkpt>
      <trkpt lat="44.11663" lon="3.21781">
        <ele>594</ele>
        <time>2017-03-01T22:40:05Z</time>
      </trkpt>
      <trkpt lat="44.11664" lon="3.21775">
        <ele>595</ele>
        <time>2017-03-01T22:42:05Z</time>
      </trkpt>
      <trkpt lat="44.11665" lon="3.21769">
        <ele>595</ele>
        <time>2017-03-01T22:44:05Z</time>
      </trkpt>
      <trkpt lat="44.11667" lon="3.21757">
        <ele>596</ele>
        <time>2017-03-01T22:46:05Z</time>
      </trkpt>
      <trkpt lat="44.11669" lon="3.21745">
        <ele>595</ele>
        <time>2017-03-01T22:48:05Z</time>
      </trkpt>
      <trkpt lat="44.11672" lon="3.21727">
        <ele>592</ele>
        <time>2017-03-01T22:50:05Z</time>
      </trkpt>
      <trkpt lat="44.11673" lon="3.21722">
        <ele>592</ele>
        <time>2017-03-01T22:52:05Z</time>
      </trkpt>
      <trkpt lat="44.11673" lon="3.21716">
        <ele>591</ele>
        <time>2017-03-01T22:54:05Z</time>
      </trkpt>
      <trkpt lat="44.11673" lon="3.21709">
        <ele>591</ele>
        <time>2017-03-01T22:56:05Z</time>
      </trkpt>
      <trkpt lat="44.11673" lon="3.21703">
        <ele>591</ele>
        <time>2017-03-01T22:58:05Z</time>
      </trkpt>
      <trkpt lat="44.11672" lon="3.21696">
        <ele>591</ele>
        <time>2017-03-01T23:00:05Z</time>
      </trkpt>
      <trkpt lat="44.11671" lon="3.2169">
        <ele>591</ele>
        <time>2017-03-01T23:02:05Z</time>
      </trkpt>
      <trkpt lat="44.1167" lon="3.21683">
        <ele>592</ele>
        <time>2017-03-01T23:04:05Z</time>
      </trkpt>
      <trkpt lat="44.11668" lon="3.21676">
        <ele>593</ele>
        <time>2017-03-01T23:06:05Z</time>
      </trkpt>
      <trkpt lat="44.1166" lon="3.21648">
        <ele>598</ele>
        <time>2017-03-01T23:08:05Z</time>
      </trkpt>
      <trkpt lat="44.11659" lon="3.2164">
        <ele>598</ele>
        <time>2017-03-01T23:10:05Z</time>
      </trkpt>
      <trkpt lat="44.11655" lon="3.21625">
        <ele>600</ele>
        <time>2017-03-01T23:12:05Z</time>
      </trkpt>
      <trkpt lat="44.11654" lon="3.21617">
        <ele>601</ele>
        <time>2017-03-01T23:14:05Z</time>
      </trkpt>
      <trkpt lat="44.11651" lon="3.21602">
        <ele>602</ele>
        <time>2017-03-01T23:16:05Z</time>
      </trkpt>
      <trkpt lat="44.11648" lon="3.21587">
        <ele>604</ele>
        <time>2017-03-01T23:18:05Z</time>
      </trkpt>
      <trkpt lat="44.11646" lon="3.21579">
        <ele>606</ele>
        <time>2017-03-01T23:20:05Z</time>
      </trkpt>
      <trkpt lat="44.11641" lon="3.21556">
        <ele>609</ele>
        <time>2017-03-01T23:22:05Z</time>
      </trkpt>
      <trkpt lat="44.11636" lon="3.21529">
        <ele>611</ele>
        <time>2017-03-01T23:24:05Z</time>
      </trkpt>
      <trkpt lat="44.11635" lon="3.21523">
        <ele>611</ele>
        <time>2017-03-01T23:26:05Z</time>
      </trkpt>
      <trkpt lat="44.11634" lon="3.21517">
        <ele>611</ele>
        <time>2017-03-01T23:28:05Z</time>
      </trkpt>
      <trkpt lat="44.11633" lon="3.21512">
        <ele>611</ele>
        <time>2017-03-01T23:30:05Z</time>
      </trkpt>
      <trkpt lat="44.11633" lon="3.21507">
        <ele>611</ele>
        <time>2017-03-01T23:32:05Z</time>
      </trkpt>
      <trkpt lat="44.11632" lon="3.21498">
        <ele>610</ele>
        <time>2017-03-01T23:34:05Z</time>
      </trkpt>
      <trkpt lat="44.11631" lon="3.21492">
        <ele>610</ele>
        <time>2017-03-01T23:36:05Z</time>
      </trkpt>
      <trkpt lat="44.11631" lon="3.2149">
        <ele>610</ele>
        <time>2017-03-01T23:38:05Z</time>
      </trkpt>
      <trkpt lat="44.1163" lon="3.21487">
        <ele>610</ele>
        <time>2017-03-01T23:40:05Z</time>
      </trkpt>
      <trkpt lat="44.11629" lon="3.21484">
        <ele>611</ele>
        <time>2017-03-01T23:42:05Z</time>
      </trkpt>
      <trkpt lat="44.11627" lon="3.2148">
        <ele>612</ele>
        <time>2017-03-01T23:44:05Z</time>
      </trkpt>
      <trkpt lat="44.11618" lon="3.21466">
        <ele>617</ele>
        <time>2017-03-01T23:46:05Z</time>
      </trkpt>
      <trkpt lat="44.11606" lon="3.21444">
        <ele>622</ele>
        <time>2017-03-01T23:48:05Z</time>
      </trkpt>
      <trkpt lat="44.116" lon="3.21436">
        <ele>625</ele>
        <time>2017-03-01T23:50:05Z</time>
      </trkpt>
      <trkpt lat="44.11594" lon="3.21427">
        <ele>628</ele>
        <time>2017-03-01T23:52:05Z</time>
      </trkpt>
      <trkpt lat="44.11588" lon="3.21419">
        <ele>630</ele>
        <time>2017-03-01T23:54:05Z</time>
      </trkpt>
      <trkpt lat="44.11586" lon="3.21414">
        <ele>631</ele>
        <time>2017-03-01T23:56:05Z</time>
      </trkpt>
      <trkpt lat="44.11584" lon="3.2141">
        <ele>632</ele>
        <time>2017-03-01T23:58:05Z</time>
      </trkpt>
      <trkpt lat="44.11582" lon="3.21405">
        <ele>632</ele>
        <time>2017-03-02T00:00:05Z</time>
      </trkpt>
      <trkpt lat="44.11581" lon="3.214">
        <ele>632</ele>
        <time>2017-03-02T00:02:05Z</time>
      </trkpt>
      <trkpt lat="44.1158" lon="3.21394">
        <ele>632</ele>
        <time>2017-03-02T00:04:05Z</time>
      </trkpt>
      <trkpt lat="44.1158" lon="3.21388">
        <ele>631</ele>
        <time>2017-03-02T00:06:05Z</time>
      </trkpt>
      <trkpt lat="44.11581" lon="3.21382">
        <ele>630</ele>
        <time>2017-03-02T00:08:05Z</time>
      </trkpt>
      <trkpt lat="44.11581" lon="3.21376">
        <ele>629</ele>
        <time>2017-03-02T00:10:05Z</time>
      </trkpt>
      <trkpt lat="44.11584" lon="3.21353">
        <ele>625</ele>
        <time>2017-03-02T00:12:05Z</time>
      </trkpt>
      <trkpt lat="44.11585" lon="3.21345">
        <ele>623</ele>
        <time>2017-03-02T00:14:05Z</time>
      </trkpt>
      <trkpt lat="44.11586" lon="3.21339">
        <ele>622</ele>
        <time>2017-03-02T00:16:05Z</time>
      </trkpt>
      <trkpt lat="44.11588" lon="3.21334">
        <ele>621</ele>
        <time>2017-03-02T00:18:05Z</time>
      </trkpt>
      <trkpt lat="44.1159" lon="3.21328">
        <ele>620</ele>
        <time>2017-03-02T00:20:05Z</time>
      </trkpt>
      <trkpt lat="44.11592" lon="3.21322">
        <ele>619</ele>
        <time>2017-03-02T00:22:05Z</time>
      </trkpt>
      <trkpt lat="44.11597" lon="3.2131">
        <ele>618</ele>
        <time>2017-03-02T00:24:05Z</time>
      </trkpt>
      <trkpt lat="44.11604" lon="3.21295">
        <ele>617</ele>
        <time>2017-03-02T00:26:05Z</time>
      </trkpt>
      <trkpt lat="44.1161" lon="3.21282">
        <ele>616</ele>
        <time>2017-03-02T00:28:05Z</time>
      </trkpt>
      <trkpt lat="44.11616" lon="3.21273">
        <ele>614</ele>
        <time>2017-03-02T00:30:05Z</time>
      </trkpt>
      <trkpt lat="44.11632" lon="3.21248">
        <ele>612</ele>
        <time>2017-03-02T00:32:05Z</time>
      </trkpt>
      <trkpt lat="44.11634" lon="3.21244">
        <ele>612</ele>
        <time>2017-03-02T00:34:05Z</time>
      </trkpt>
      <trkpt lat="44.11636" lon="3.21242">
        <ele>611</ele>
        <time>2017-03-02T00:36:05Z</time>
      </trkpt>
      <trkpt lat="44.1164" lon="3.21233">
        <ele>611</ele>
        <time>2017-03-02T00:38:05Z</time>
      </trkpt>
      <trkpt lat="44.11642" lon="3.2123">
        <ele>611</ele>
        <time>2017-03-02T00:40:05Z</time>
      </trkpt>
      <trkpt lat="44.11646" lon="3.21223">
        <ele>611</ele>
        <time>2017-03-02T00:42:05Z</time>
      </trkpt>
      <trkpt lat="44.11647" lon="3.21219">
        <ele>611</ele>
        <time>2017-03-02T00:44:05Z</time>
      </trkpt>
      <trkpt lat="44.11649" lon="3.21215">
        <ele>611</ele>
        <time>2017-03-02T00:46:05Z</time>
      </trkpt>
      <trkpt lat="44.1165" lon="3.21211">
        <ele>611</ele>
        <time>2017-03-02T00:48:05Z</time>
      </trkpt>
      <trkpt lat="44.11651" lon="3.21206">
        <ele>612</ele>
        <time>2017-03-02T00:50:05Z</time>
      </trkpt>
      <trkpt lat="44.11653" lon="3.21201">
        <ele>612</ele>
        <time>2017-03-02T00:52:05Z</time>
      </trkpt>
      <trkpt lat="44.11655" lon="3.2119">
        <ele>614</ele>
        <time>2017-03-02T00:54:05Z</time>
      </trkpt>
      <trkpt lat="44.11656" lon="3.21185">
        <ele>614</ele>
        <time>2017-03-02T00:56:05Z</time>
      </trkpt>
      <trkpt lat="44.11657" lon="3.21179">
        <ele>615</ele>
        <time>2017-03-02T00:58:05Z</time>
      </trkpt>
      <trkpt lat="44.11658" lon="3.21177">
        <ele>615</ele>
        <time>2017-03-02T01:00:05Z</time>
      </trkpt>
      <trkpt lat="44.11659" lon="3.21174">
        <ele>616</ele>
        <time>2017-03-02T01:02:05Z</time>
      </trkpt>
      <trkpt lat="44.11661" lon="3.21169">
        <ele>617</ele>
        <time>2017-03-02T01:04:05Z</time>
      </trkpt>
      <trkpt lat="44.11663" lon="3.21164">
        <ele>617</ele>
        <time>2017-03-02T01:06:05Z</time>
      </trkpt>
      <trkpt lat="44.11669" lon="3.21151">
        <ele>613</ele>
        <time>2017-03-02T01:08:05Z</time>
      </trkpt>
      <trkpt lat="44.11671" lon="3.21145">
        <ele>611</ele>
        <time>2017-03-02T01:10:05Z</time>
      </trkpt>
      <trkpt lat="44.11673" lon="3.21139">
        <ele>610</ele>
        <time>2017-03-02T01:12:05Z</time>
      </trkpt>
      <trkpt lat="44.11673" lon="3.21136">
        <ele>609</ele>
        <time>2017-03-02T01:14:05Z</time>
      </trkpt>
      <trkpt lat="44.11673" lon="3.21135">
        <ele>609</ele>
        <time>2017-03-02T01:16:05Z</time>
      </trkpt>
      <trkpt lat="44.11673" lon="3.21133">
        <ele>609</ele>
        <time>2017-03-02T01:18:05Z</time>
      </trkpt>
      <trkpt lat="44.11673" lon="3.21131">
        <ele>608</ele>
        <time>2017-03-02T01:20:05Z</time>
      </trkpt>
      <trkpt lat="44.11673" lon="3.2113">
        <ele>608</ele>
        <time>2017-03-02T01:22:05Z</time>
      </trkpt>
      <trkpt lat="44.11672" lon="3.21128">
        <ele>608</ele>
        <time>2017-03-02T01:24:05Z</time>
      </trkpt>
      <trkpt lat="44.11671" lon="3.21127">
        <ele>608</ele>
        <time>2017-03-02T01:26:05Z</time>
      </trkpt>
      <trkpt lat="44.1167" lon="3.21126">
        <ele>609</ele>
        <time>2017-03-02T01:28:05Z</time>
      </trkpt>
      <trkpt lat="44.11669" lon="3.21126">
        <ele>609</ele>
        <time>2017-03-02T01:30:05Z</time>
      </trkpt>
      <trkpt lat="44.11668" lon="3.21125">
        <ele>609</ele>
        <time>2017-03-02T01:32:05Z</time>
      </trkpt>
      <trkpt lat="44.11667" lon="3.21125">
        <ele>609</ele>
        <time>2017-03-02T01:34:05Z</time>
      </trkpt>
      <trkpt lat="44.11666" lon="3.21125">
        <ele>609</ele>
        <time>2017-03-02T01:36:05Z</time>
      </trkpt>
      <trkpt lat="44.11665" lon="3.21126">
        <ele>610</ele>
        <time>2017-03-02T01:38:05Z</time>
      </trkpt>
      <trkpt lat="44.11664" lon="3.21126">
        <ele>610</ele>
        <time>2017-03-02T01:40:05Z</time>
      </trkpt>
      <trkpt lat="44.11662" lon="3.21127">
        <ele>610</ele>
        <time>2017-03-02T01:42:05Z</time>
      </trkpt>
      <trkpt lat="44.11661" lon="3.21127">
        <ele>610</ele>
        <time>2017-03-02T01:44:05Z</time>
      </trkpt>
      <trkpt lat="44.1166" lon="3.21129">
        <ele>610</ele>
        <time>2017-03-02T01:46:05Z</time>
      </trkpt>
      <trkpt lat="44.11658" lon="3.21131">
        <ele>610</ele>
        <time>2017-03-02T01:48:05Z</time>
      </trkpt>
      <trkpt lat="44.11656" lon="3.21135">
        <ele>611</ele>
        <time>2017-03-02T01:50:05Z</time>
      </trkpt>
      <trkpt lat="44.11652" lon="3.21142">
        <ele>612</ele>
        <time>2017-03-02T01:52:05Z</time>
      </trkpt>
      <trkpt lat="44.11649" lon="3.21146">
        <ele>613</ele>
        <time>2017-03-02T01:54:05Z</time>
      </trkpt>
      <trkpt lat="44.11647" lon="3.2115">
        <ele>614</ele>
        <time>2017-03-02T01:56:05Z</time>
      </trkpt>
      <trkpt lat="44.11644" lon="3.21154">
        <ele>615</ele>
        <time>2017-03-02T01:58:05Z</time>
      </trkpt>
      <trkpt lat="44.11641" lon="3.21158">
        <ele>616</ele>
        <time>2017-03-02T02:00:05Z</time>
      </trkpt>
      <trkpt lat="44.11635" lon="3.21165">
        <ele>617</ele>
        <time>2017-03-02T02:02:05Z</time>
      </trkpt>
      <trkpt lat="44.11632" lon="3.21168">
        <ele>618</ele>
        <time>2017-03-02T02:04:05Z</time>
      </trkpt>
      <trkpt lat="44.11628" lon="3.21171">
        <ele>618</ele>
        <time>2017-03-02T02:06:05Z</time>
      </trkpt>
      <trkpt lat="44.11618" lon="3.21179">
        <ele>618</ele>
        <time>2017-03-02T02:08:05Z</time>
      </trkpt>
      <trkpt lat="44.11611" lon="3.21185">
        <ele>619</ele>
        <time>2017-03-02T02:10:05Z</time>
      </trkpt>
      <trkpt lat="44.11607" lon="3.21188">
        <ele>619</ele>
        <time>2017-03-02T02:12:05Z</time>
      </trkpt>
      <trkpt lat="44.11605" lon="3.21192">
        <ele>619</ele>
        <time>2017-03-02T02:14:05Z</time>
      </trkpt>
      <trkpt lat="44.11602" lon="3.21197">
        <ele>620</ele>
        <time>2017-03-02T02:16:05Z</time>
      </trkpt>
      <trkpt lat="44.11599" lon="3.21202">
        <ele>621</ele>
        <time>2017-03-02T02:18:05Z</time>
      </trkpt>
      <trkpt lat="44.11596" lon="3.21211">
        <ele>622</ele>
        <time>2017-03-02T02:20:05Z</time>
      </trkpt>
      <trkpt lat="44.11588" lon="3.21231">
        <ele>625</ele>
        <time>2017-03-02T02:22:05Z</time>
      </trkpt>
      <trkpt lat="44.11583" lon="3.21244">
        <ele>628</ele>
        <time>2017-03-02T02:24:05Z</time>
      </trkpt>
      <trkpt lat="44.11582" lon="3.21247">
        <ele>629</ele>
        <time>2017-03-02T02:26:05Z</time>
      </trkpt>
      <trkpt lat="44.11579" lon="3.21252">
        <ele>629</ele>
        <time>2017-03-02T02:28:05Z</time>
      </trkpt>
      <trkpt lat="44.11577" lon="3.21257">
        <ele>629</ele>
        <time>2017-03-02T02:30:05Z</time>
      </trkpt>
      <trkpt lat="44.11574" lon="3.21261">
        <ele>629</ele>
        <time>2017-03-02T02:32:05Z</time>
      </trkpt>
      <trkpt lat="44.1157" lon="3.21264">
        <ele>629</ele>
        <time>2017-03-02T02:34:05Z</time>
      </trkpt>
      <trkpt lat="44.11567" lon="3.21268">
        <ele>630</ele>
        <time>2017-03-02T02:36:05Z</time>
      </trkpt>
      <trkpt lat="44.11562" lon="3.2127">
        <ele>630</ele>
        <time>2017-03-02T02:38:05Z</time>
      </trkpt>
      <trkpt lat="44.11558" lon="3.21273">
        <ele>631</ele>
        <time>2017-03-02T02:40:05Z</time>
      </trkpt>
      <trkpt lat="44.11554" lon="3.21275">
        <ele>632</ele>
        <time>2017-03-02T02:42:05Z</time>
      </trkpt>
      <trkpt lat="44.11549" lon="3.21276">
        <ele>632</ele>
        <time>2017-03-02T02:44:05Z</time>
      </trkpt>
      <trkpt lat="44.11545" lon="3.21278">
        <ele>633</ele>
        <time>2017-03-02T02:46:05Z</time>
      </trkpt>
      <trkpt lat="44.1154" lon="3.21279">
        <ele>634</ele>
        <time>2017-03-02T02:48:05Z</time>
      </trkpt>
      <trkpt lat="44.11536" lon="3.2128">
        <ele>635</ele>
        <time>2017-03-02T02:50:05Z</time>
      </trkpt>
      <trkpt lat="44.11531" lon="3.21279">
        <ele>636</ele>
        <time>2017-03-02T02:52:05Z</time>
      </trkpt>
      <trkpt lat="44.11527" lon="3.21279">
        <ele>636</ele>
        <time>2017-03-02T02:54:05Z</time>
      </trkpt>
      <trkpt lat="44.11523" lon="3.21278">
        <ele>637</ele>
        <time>2017-03-02T02:56:05Z</time>
      </trkpt>
      <trkpt lat="44.11519" lon="3.21276">
        <ele>637</ele>
        <time>2017-03-02T02:58:05Z</time>
      </trkpt>
      <trkpt lat="44.11515" lon="3.21275">
        <ele>638</ele>
        <time>2017-03-02T03:00:05Z</time>
      </trkpt>
      <trkpt lat="44.11512" lon="3.21274">
        <ele>638</ele>
        <time>2017-03-02T03:02:05Z</time>
      </trkpt>
      <trkpt lat="44.11508" lon="3.21274">
        <ele>638</ele>
        <time>2017-03-02T03:04:05Z</time>
      </trkpt>
      <trkpt lat="44.11505" lon="3.21275">
        <ele>639</ele>
        <time>2017-03-02T03:06:05Z</time>
      </trkpt>
      <trkpt lat="44.11501" lon="3.21276">
        <ele>640</ele>
        <time>2017-03-02T03:08:05Z</time>
      </trkpt>
      <trkpt lat="44.11498" lon="3.21278">
        <ele>640</ele>
        <time>2017-03-02T03:10:05Z</time>
      </trkpt>
      <trkpt lat="44.11494" lon="3.21281">
        <ele>641</ele>
        <time>2017-03-02T03:12:05Z</time>
      </trkpt>
      <trkpt lat="44.11491" lon="3.21284">
        <ele>641</ele>
        <time>2017-03-02T03:14:05Z</time>
      </trkpt>
      <trkpt lat="44.11487" lon="3.21288">
        <ele>642</ele>
        <time>2017-03-02T03:16:05Z</time>
      </trkpt>
      <trkpt lat="44.11484" lon="3.21291">
        <ele>643</ele>
        <time>2017-03-02T03:18:05Z</time>
      </trkpt>
      <trkpt lat="44.1148" lon="3.21295">
        <ele>644</ele>
        <time>2017-03-02T03:20:05Z</time>
      </trkpt>
      <trkpt lat="44.11476" lon="3.21298">
        <ele>644</ele>
        <time>2017-03-02T03:22:05Z</time>
      </trkpt>
      <trkpt lat="44.11472" lon="3.21302">
        <ele>645</ele>
        <time>2017-03-02T03:24:05Z</time>
      </trkpt>
      <trkpt lat="44.11467" lon="3.21305">
        <ele>646</ele>
        <time>2017-03-02T03:26:05Z</time>
      </trkpt>
      <trkpt lat="44.11463" lon="3.21308">
        <ele>647</ele>
        <time>2017-03-02T03:28:05Z</time>
      </trkpt>
      <trkpt lat="44.11453" lon="3.21314">
        <ele>648</ele>
        <time>2017-03-02T03:30:05Z</time>
      </trkpt>
      <trkpt lat="44.11438" lon="3.21323">
        <ele>650</ele>
        <time>2017-03-02T03:32:05Z</time>
      </trkpt>
      <trkpt lat="44.11423" lon="3.21331">
        <ele>652</ele>
        <time>2017-03-02T03:34:05Z</time>
      </trkpt>
      <trkpt lat="44.11413" lon="3.21337">
        <ele>654</ele>
        <time>2017-03-02T03:36:05Z</time>
      </trkpt>
      <trkpt lat="44.11408" lon="3.2134">
        <ele>655</ele>
        <time>2017-03-02T03:38:05Z</time>
      </trkpt>
      <trkpt lat="44.11403" lon="3.21343">
        <ele>656</ele>
        <time>2017-03-02T03:40:05Z</time>
      </trkpt>
      <trkpt lat="44.11397" lon="3.21345">
        <ele>656</ele>
        <time>2017-03-02T03:42:05Z</time>
      </trkpt>
      <trkpt lat="44.11392" lon="3.21346">
        <ele>656</ele>
        <time>2017-03-02T03:44:05Z</time>
      </trkpt>
      <trkpt lat="44.1138" lon="3.21348">
        <ele>656</ele>
        <time>2017-03-02T03:46:05Z</time>
      </trkpt>
      <trkpt lat="44.11374" lon="3.21348">
        <ele>656</ele>
        <time>2017-03-02T03:48:05Z</time>
      </trkpt>
      <trkpt lat="44.11356" lon="3.21351">
        <ele>655</ele>
        <time>2017-03-02T03:50:05Z</time>
      </trkpt>
      <trkpt lat="44.11349" lon="3.21351">
        <ele>655</ele>
        <time>2017-03-02T03:52:05Z</time>
      </trkpt>
      <trkpt lat="44.11344" lon="3.21352">
        <ele>655</ele>
        <time>2017-03-02T03:54:05Z</time>
      </trkpt>
      <trkpt lat="44.11337" lon="3.21354">
        <ele>655</ele>
        <time>2017-03-02T03:56:05Z</time>
      </trkpt>
      <trkpt lat="44.11331" lon="3.21356">
        <ele>655</ele>
        <time>2017-03-02T03:58:05Z</time>
      </trkpt>
      <trkpt lat="44.11319" lon="3.21362">
        <ele>657</ele>
        <time>2017-03-02T04:00:05Z</time>
      </trkpt>
      <trkpt lat="44.11314" lon="3.21363">
        <ele>657</ele>
        <time>2017-03-02T04:02:05Z</time>
      </trkpt>
      <trkpt lat="44.11308" lon="3.21364">
        <ele>657</ele>
        <time>2017-03-02T04:04:05Z</time>
      </trkpt>
      <trkpt lat="44.11303" lon="3.21365">
        <ele>658</ele>
        <time>2017-03-02T04:06:05Z</time>
      </trkpt>
      <trkpt lat="44.11292" lon="3.21367">
        <ele>658</ele>
        <time>2017-03-02T04:08:05Z</time>
      </trkpt>
      <trkpt lat="44.11286" lon="3.21369">
        <ele>658</ele>
        <time>2017-03-02T04:10:05Z</time>
      </trkpt>
      <trkpt lat="44.11281" lon="3.2137">
        <ele>658</ele>
        <time>2017-03-02T04:12:05Z</time>
      </trkpt>
      <trkpt lat="44.11275" lon="3.21371">
        <ele>658</ele>
        <time>2017-03-02T04:14:05Z</time>
      </trkpt>
      <trkpt lat="44.1127" lon="3.21371">
        <ele>658</ele>
        <time>2017-03-02T04:16:05Z</time>
      </trkpt>
      <trkpt lat="44.11259" lon="3.21372">
        <ele>658</ele>
        <time>2017-03-02T04:18:05Z</time>
      </trkpt>
      <trkpt lat="44.11254" lon="3.21372">
        <ele>658</ele>
        <time>2017-03-02T04:20:05Z</time>
      </trkpt>
      <trkpt lat="44.11248" lon="3.21373">
        <ele>658</ele>
        <time>2017-03-02T04:22:05Z</time>
      </trkpt>
      <trkpt lat="44.11242" lon="3.21375">
        <ele>658</ele>
        <time>2017-03-02T04:24:05Z</time>
      </trkpt>
      <trkpt lat="44.11237" lon="3.21376">
        <ele>659</ele>
        <time>2017-03-02T04:26:05Z</time>
      </trkpt>
      <trkpt lat="44.11231" lon="3.21378">
        <ele>659</ele>
        <time>2017-03-02T04:28:05Z</time>
      </trkpt>
      <trkpt lat="44.1122" lon="3.21381">
        <ele>660</ele>
        <time>2017-03-02T04:30:05Z</time>
      </trkpt>
      <trkpt lat="44.11214" lon="3.21383">
        <ele>660</ele>
        <time>2017-03-02T04:32:05Z</time>
      </trkpt>
      <trkpt lat="44.11209" lon="3.21386">
        <ele>661</ele>
        <time>2017-03-02T04:34:05Z</time>
      </trkpt>
      <trkpt lat="44.11198" lon="3.21391">
        <ele>662</ele>
        <time>2017-03-02T04:36:05Z</time>
      </trkpt>
      <trkpt lat="44.11192" lon="3.21393">
        <ele>662</ele>
        <time>2017-03-02T04:38:05Z</time>
      </trkpt>
      <trkpt lat="44.11186" lon="3.21395">
        <ele>662</ele>
        <time>2017-03-02T04:40:05Z</time>
      </trkpt>
      <trkpt lat="44.1118" lon="3.21397">
        <ele>662</ele>
        <time>2017-03-02T04:42:05Z</time>
      </trkpt>
      <trkpt lat="44.11169" lon="3.214">
        <ele>663</ele>
        <time>2017-03-02T04:44:05Z</time>
      </trkpt>
      <trkpt lat="44.11157" lon="3.21402">
        <ele>663</ele>
        <time>2017-03-02T04:46:05Z</time>
      </trkpt>
      <trkpt lat="44.11151" lon="3.21403">
        <ele>663</ele>
        <time>2017-03-02T04:48:05Z</time>
      </trkpt>
      <trkpt lat="44.11146" lon="3.21405">
        <ele>663</ele>
        <time>2017-03-02T04:50:05Z</time>
      </trkpt>
      <trkpt lat="44.1114" lon="3.21407">
        <ele>663</ele>
        <time>2017-03-02T04:52:05Z</time>
      </trkpt>
      <trkpt lat="44.11135" lon="3.2141">
        <ele>663</ele>
        <time>2017-03-02T04:54:05Z</time>
      </trkpt>
      <trkpt lat="44.1113" lon="3.21412">
        <ele>664</ele>
        <time>2017-03-02T04:56:05Z</time>
      </trkpt>
      <trkpt lat="44.11124" lon="3.21414">
        <ele>664</ele>
        <time>2017-03-02T04:58:05Z</time>
      </trkpt>
      <trkpt lat="44.11119" lon="3.21414">
        <ele>663</ele>
        <time>2017-03-02T05:00:05Z</time>
      </trkpt>
      <trkpt lat="44.11113" lon="3.21414">
        <ele>663</ele>
        <time>2017-03-02T05:02:05Z</time>
      </trkpt>
      <trkpt lat="44.11108" lon="3.21413">
        <ele>663</ele>
        <time>2017-03-02T05:04:05Z</time>
      </trkpt>
      <trkpt lat="44.11103" lon="3.21412">
        <ele>662</ele>
        <time>2017-03-02T05:06:05Z</time>
      </trkpt>
      <trkpt lat="44.11098" lon="3.2141">
        <ele>662</ele>
        <time>2017-03-02T05:08:05Z</time>
      </trkpt>
      <trkpt lat="44.11093" lon="3.2141">
        <ele>662</ele>
        <time>2017-03-02T05:10:05Z</time>
      </trkpt>
      <trkpt lat="44.11089" lon="3.2141">
        <ele>662</ele>
        <time>2017-03-02T05:12:05Z</time>
      </trkpt>
      <trkpt lat="44.11084" lon="3.2141">
        <ele>661</ele>
        <time>2017-03-02T05:14:05Z</time>
      </trkpt>
      <trkpt lat="44.11075" lon="3.21413">
        <ele>662</ele>
        <time>2017-03-02T05:16:05Z</time>
      </trkpt>
      <trkpt lat="44.11063" lon="3.21418">
        <ele>662</ele>
        <time>2017-03-02T05:18:05Z</time>
      </trkpt>
      <trkpt lat="44.11062" lon="3.21419">
        <ele>662</ele>
        <time>2017-03-02T05:20:05Z</time>
      </trkpt>
      <trkpt lat="44.11058" lon="3.21421">
        <ele>662</ele>
        <time>2017-03-02T05:22:05Z</time>
      </trkpt>
      <trkpt lat="44.11056" lon="3.21424">
        <ele>663</ele>
        <time>2017-03-02T05:24:05Z</time>
      </trkpt>
      <trkpt lat="44.11055" lon="3.21425">
        <ele>663</ele>
        <time>2017-03-02T05:26:05Z</time>
      </trkpt>
      <trkpt lat="44.11051" lon="3.21428">
        <ele>663</ele>
        <time>2017-03-02T05:28:05Z</time>
      </trkpt>
      <trkpt lat="44.11048" lon="3.21433">
        <ele>664</ele>
        <time>2017-03-02T05:30:05Z</time>
      </trkpt>
      <trkpt lat="44.11045" lon="3.21437">
        <ele>664</ele>
        <time>2017-03-02T05:32:05Z</time>
      </trkpt>
      <trkpt lat="44.11041" lon="3.21442">
        <ele>665</ele>
        <time>2017-03-02T05:34:05Z</time>
      </trkpt>
      <trkpt lat="44.11038" lon="3.21447">
        <ele>665</ele>
        <time>2017-03-02T05:36:05Z</time>
      </trkpt>
      <trkpt lat="44.11028" lon="3.21464">
        <ele>667</ele>
        <time>2017-03-02T05:38:05Z</time>
      </trkpt>
      <trkpt lat="44.11021" lon="3.21476">
        <ele>668</ele>
        <time>2017-03-02T05:40:05Z</time>
      </trkpt>
      <trkpt lat="44.11018" lon="3.21482">
        <ele>668</ele>
        <time>2017-03-02T05:42:05Z</time>
      </trkpt>
      <trkpt lat="44.11014" lon="3.21487">
        <ele>669</ele>
        <time>2017-03-02T05:44:05Z</time>
      </trkpt>
      <trkpt lat="44.1101" lon="3.21493">
        <ele>669</ele>
        <time>2017-03-02T05:46:05Z</time>
      </trkpt>
      <trkpt lat="44.11007" lon="3.21498">
        <ele>669</ele>
        <time>2017-03-02T05:48:05Z</time>
      </trkpt>
      <trkpt lat="44.10998" lon="3.21508">
        <ele>670</ele>
        <time>2017-03-02T05:50:05Z</time>
      </trkpt>
      <trkpt lat="44.1099" lon="3.21519">
        <ele>672</ele>
        <time>2017-03-02T05:52:05Z</time>
      </trkpt>
      <trkpt lat="44.10986" lon="3.21524">
        <ele>673</ele>
        <time>2017-03-02T05:54:05Z</time>
      </trkpt>
      <trkpt lat="44.10978" lon="3.21535">
        <ele>674</ele>
        <time>2017-03-02T05:56:05Z</time>
      </trkpt>
      <trkpt lat="44.10966" lon="3.21553">
        <ele>677</ele>
        <time>2017-03-02T05:58:05Z</time>
      </trkpt>
      <trkpt lat="44.10957" lon="3.21563">
        <ele>677</ele>
        <time>2017-03-02T06:00:05Z</time>
      </trkpt>
      <trkpt lat="44.10948" lon="3.21573">
        <ele>678</ele>
        <time>2017-03-02T06:02:05Z</time>
      </trkpt>
      <trkpt lat="44.10944" lon="3.21578">
        <ele>679</ele>
        <time>2017-03-02T06:04:05Z</time>
      </trkpt>
      <trkpt lat="44.10936" lon="3.21588">
        <ele>679</ele>
        <time>2017-03-02T06:06:05Z</time>
      </trkpt>
      <trkpt lat="44.10918" lon="3.21609">
        <ele>681</ele>
        <time>2017-03-02T06:08:05Z</time>
      </trkpt>
      <trkpt lat="44.109" lon="3.21629">
        <ele>683</ele>
        <time>2017-03-02T06:10:05Z</time>
      </trkpt>
      <trkpt lat="44.10892" lon="3.21638">
        <ele>684</ele>
        <time>2017-03-02T06:12:05Z</time>
      </trkpt>
      <trkpt lat="44.10887" lon="3.21643">
        <ele>685</ele>
        <time>2017-03-02T06:14:05Z</time>
      </trkpt>
      <trkpt lat="44.10883" lon="3.21647">
        <ele>686</ele>
        <time>2017-03-02T06:16:05Z</time>
      </trkpt>
      <trkpt lat="44.10874" lon="3.21654">
        <ele>686</ele>
        <time>2017-03-02T06:18:05Z</time>
      </trkpt>
      <trkpt lat="44.10856" lon="3.21668">
        <ele>688</ele>
        <time>2017-03-02T06:20:05Z</time>
      </trkpt>
      <trkpt lat="44.10846" lon="3.21675">
        <ele>688</ele>
        <time>2017-03-02T06:22:05Z</time>
      </trkpt>
      <trkpt lat="44.10837" lon="3.2168">
        <ele>688</ele>
        <time>2017-03-02T06:24:05Z</time>
      </trkpt>
      <trkpt lat="44.10824" lon="3.21691">
        <ele>689</ele>
        <time>2017-03-02T06:26:05Z</time>
      </trkpt>
      <trkpt lat="44.10807" lon="3.21704">
        <ele>690</ele>
        <time>2017-03-02T06:28:05Z</time>
      </trkpt>
      <trkpt lat="44.108" lon="3.21709">
        <ele>690</ele>
        <time>2017-03-02T06:30:05Z</time>
      </trkpt>
      <trkpt lat="44.10797" lon="3.21711">
        <ele>690</ele>
        <time>2017-03-02T06:32:05Z</time>
      </trkpt>
      <trkpt lat="44.10794" lon="3.21712">
        <ele>690</ele>
        <time>2017-03-02T06:34:05Z</time>
      </trkpt>
      <trkpt lat="44.10791" lon="3.21713">
        <ele>690</ele>
        <time>2017-03-02T06:36:05Z</time>
      </trkpt>
      <trkpt lat="44.10787" lon="3.21714">
        <ele>690</ele>
        <time>2017-03-02T06:38:05Z</time>
      </trkpt>
      <trkpt lat="44.10784" lon="3.21714">
        <ele>690</ele>
        <time>2017-03-02T06:40:05Z</time>
      </trkpt>
      <trkpt lat="44.10781" lon="3.21714">
        <ele>690</ele>
        <time>2017-03-02T06:42:05Z</time>
      </trkpt>
      <trkpt lat="44.10781" lon="3.21714">
        <ele>690</ele>
        <time>2017-03-02T06:44:05Z</time>
      </trkpt>
      <trkpt lat="44.10784" lon="3.21747">
        <ele>692</ele>
        <time>2017-03-02T06:46:05Z</time>
      </trkpt>
      <trkpt lat="44.10784" lon="3.21747">
        <ele>692</ele>
        <time>2017-03-02T06:48:05Z</time>
      </trkpt>
      <trkpt lat="44.10789" lon="3.21748">
        <ele>692</ele>
        <time>2017-03-02T06:50:05Z</time>
      </trkpt>
      <trkpt lat="44.10791" lon="3.21749">
        <ele>692</ele>
        <time>2017-03-02T06:52:05Z</time>
      </trkpt>
      <trkpt lat="44.10793" lon="3.2175">
        <ele>693</ele>
        <time>2017-03-02T06:54:05Z</time>
      </trkpt>
      <trkpt lat="44.10797" lon="3.21752">
        <ele>692</ele>
        <time>2017-03-02T06:56:05Z</time>
      </trkpt>
      <trkpt lat="44.10798" lon="3.21752">
        <ele>692</ele>
        <time>2017-03-02T06:58:05Z</time>
      </trkpt>
      <trkpt lat="44.10798" lon="3.21752">
        <ele>692</ele>
        <time>2017-03-02T07:00:05Z</time>
      </trkpt>
      <trkpt lat="44.10799" lon="3.21764">
        <ele>692</ele>
        <time>2017-03-02T07:02:05Z</time>
      </trkpt>
      <trkpt lat="44.108" lon="3.21776">
        <ele>691</ele>
        <time>2017-03-02T07:04:05Z</time>
      </trkpt>
      <trkpt lat="44.108" lon="3.21785">
        <ele>691</ele>
        <time>2017-03-02T07:06:05Z</time>
      </trkpt>
      <trkpt lat="44.10801" lon="3.2179">
        <ele>691</ele>
        <time>2017-03-02T07:08:05Z</time>
      </trkpt>
      <trkpt lat="44.10803" lon="3.21795">
        <ele>690</ele>
        <time>2017-03-02T07:10:05Z</time>
      </trkpt>
      <trkpt lat="44.10805" lon="3.21798">
        <ele>690</ele>
        <time>2017-03-02T07:12:05Z</time>
      </trkpt>
      <trkpt lat="44.10809" lon="3.21801">
        <ele>690</ele>
        <time>2017-03-02T07:14:05Z</time>
      </trkpt>
      <trkpt lat="44.10809" lon="3.21801">
        <ele>690</ele>
        <time>2017-03-02T07:16:05Z</time>
      </trkpt>
      <trkpt lat="44.10811" lon="3.21803">
        <ele>690</ele>
        <time>2017-03-02T07:18:05Z</time>
      </trkpt>
      <trkpt lat="44.10814" lon="3.21807">
        <ele>690</ele>
        <time>2017-03-02T07:20:05Z</time>
      </trkpt>
      <trkpt lat="44.10817" lon="3.21811">
        <ele>689</ele>
        <time>2017-03-02T07:22:05Z</time>
      </trkpt>
      <trkpt lat="44.10827" lon="3.21822">
        <ele>689</ele>
        <time>2017-03-02T07:24:05Z</time>
      </trkpt>
      <trkpt lat="44.1083" lon="3.2183">
        <ele>688</ele>
        <time>2017-03-02T07:26:05Z</time>
      </trkpt>
      <trkpt lat="44.10834" lon="3.21832">
        <ele>688</ele>
        <time>2017-03-02T07:28:05Z</time>
      </trkpt>
      <trkpt lat="44.10839" lon="3.21836">
        <ele>688</ele>
        <time>2017-03-02T07:30:05Z</time>
      </trkpt>
      <trkpt lat="44.10845" lon="3.21841">
        <ele>688</ele>
        <time>2017-03-02T07:32:05Z</time>
      </trkpt>
      <trkpt lat="44.1085" lon="3.21844">
        <ele>689</ele>
        <time>2017-03-02T07:34:05Z</time>
      </trkpt>
      <trkpt lat="44.10855" lon="3.21846">
        <ele>689</ele>
        <time>2017-03-02T07:36:05Z</time>
      </trkpt>
      <trkpt lat="44.10862" lon="3.21849">
        <ele>689</ele>
        <time>2017-03-02T07:38:05Z</time>
      </trkpt>
      <trkpt lat="44.10865" lon="3.21852">
        <ele>689</ele>
        <time>2017-03-02T07:40:05Z</time>
      </trkpt>
      <trkpt lat="44.10868" lon="3.21856">
        <ele>689</ele>
        <time>2017-03-02T07:42:05Z</time>
      </trkpt>
      <trkpt lat="44.10871" lon="3.21864">
        <ele>689</ele>
        <time>2017-03-02T07:44:05Z</time>
      </trkpt>
      <trkpt lat="44.10877" lon="3.21873">
        <ele>689</ele>
        <time>2017-03-02T07:46:05Z</time>
      </trkpt>
      <trkpt lat="44.10882" lon="3.21878">
        <ele>689</ele>
        <time>2017-03-02T07:48:05Z</time>
      </trkpt>
      <trkpt lat="44.10885" lon="3.21882">
        <ele>690</ele>
        <time>2017-03-02T07:50:05Z</time>
      </trkpt>
      <trkpt lat="44.10888" lon="3.21886">
        <ele>690</ele>
        <time>2017-03-02T07:52:05Z</time>
      </trkpt>
      <trkpt lat="44.10891" lon="3.21893">
        <ele>690</ele>
        <time>2017-03-02T07:54:05Z</time>
      </trkpt>
      <trkpt lat="44.10894" lon="3.21899">
        <ele>690</ele>
        <time>2017-03-02T07:56:05Z</time>
      </trkpt>
      <trkpt lat="44.10901" lon="3.21914">
        <ele>690</ele>
        <time>2017-03-02T07:58:05Z</time>
      </trkpt>
      <trkpt lat="44.10901" lon="3.21915">
        <ele>690</ele>
        <time>2017-03-02T08:00:05Z</time>
      </trkpt>
      <trkpt lat="44.10901" lon="3.21916">
        <ele>690</ele>
        <time>2017-03-02T08:02:05Z</time>
      </trkpt>
      <trkpt lat="44.10902" lon="3.21919">
        <ele>690</ele>
        <time>2017-03-02T08:04:05Z</time>
      </trkpt>
      <trkpt lat="44.10915" lon="3.21929">
        <ele>691</ele>
        <time>2017-03-02T08:06:05Z</time>
      </trkpt>
      <trkpt lat="44.10916" lon="3.2193">
        <ele>691</ele>
        <time>2017-03-02T08:08:05Z</time>
      </trkpt>
      <trkpt lat="44.10918" lon="3.21932">
        <ele>691</ele>
        <time>2017-03-02T08:10:05Z</time>
      </trkpt>
      <trkpt lat="44.10919" lon="3.21934">
        <ele>691</ele>
        <time>2017-03-02T08:12:05Z</time>
      </trkpt>
      <trkpt lat="44.10922" lon="3.21936">
        <ele>692</ele>
        <time>2017-03-02T08:14:05Z</time>
      </trkpt>
      <trkpt lat="44.10925" lon="3.21942">
        <ele>692</ele>
        <time>2017-03-02T08:16:05Z</time>
      </trkpt>
      <trkpt lat="44.10929" lon="3.21948">
        <ele>692</ele>
        <time>2017-03-02T08:18:05Z</time>
      </trkpt>
      <trkpt lat="44.10933" lon="3.21955">
        <ele>693</ele>
        <time>2017-03-02T08:20:05Z</time>
      </trkpt>
      <trkpt lat="44.10937" lon="3.21961">
        <ele>693</ele>
        <time>2017-03-02T08:22:05Z</time>
      </trkpt>
      <trkpt lat="44.10941" lon="3.21967">
        <ele>694</ele>
        <time>2017-03-02T08:24:05Z</time>
      </trkpt>
      <trkpt lat="44.10947" lon="3.21974">
        <ele>695</ele>
        <time>2017-03-02T08:26:05Z</time>
      </trkpt>
      <trkpt lat="44.10952" lon="3.21981">
        <ele>695</ele>
        <time>2017-03-02T08:28:05Z</time>
      </trkpt>
      <trkpt lat="44.10957" lon="3.21987">
        <ele>695</ele>
        <time>2017-03-02T08:30:05Z</time>
      </trkpt>
      <trkpt lat="44.10959" lon="3.21991">
        <ele>696</ele>
        <time>2017-03-02T08:32:05Z</time>
      </trkpt>
      <trkpt lat="44.10961" lon="3.21994">
        <ele>696</ele>
        <time>2017-03-02T08:34:05Z</time>
      </trkpt>
      <trkpt lat="44.10962" lon="3.21997">
        <ele>696</ele>
        <time>2017-03-02T08:36:05Z</time>
      </trkpt>
      <trkpt lat="44.10964" lon="3.22001">
        <ele>696</ele>
        <time>2017-03-02T08:38:05Z</time>
      </trkpt>
      <trkpt lat="44.10968" lon="3.22011">
        <ele>696</ele>
        <time>2017-03-02T08:40:05Z</time>
      </trkpt>
      <trkpt lat="44.10972" lon="3.2202">
        <ele>696</ele>
        <time>2017-03-02T08:42:05Z</time>
      </trkpt>
      <trkpt lat="44.10974" lon="3.22023">
        <ele>696</ele>
        <time>2017-03-02T08:44:05Z</time>
      </trkpt>
      <trkpt lat="44.10976" lon="3.22027">
        <ele>696</ele>
        <time>2017-03-02T08:46:05Z</time>
      </trkpt>
      <trkpt lat="44.10979" lon="3.2203">
        <ele>697</ele>
        <time>2017-03-02T08:48:05Z</time>
      </trkpt>
      <trkpt lat="44.10983" lon="3.22033">
        <ele>697</ele>
        <time>2017-03-02T08:50:05Z</time>
      </trkpt>
      <trkpt lat="44.10986" lon="3.22035">
        <ele>697</ele>
        <time>2017-03-02T08:52:05Z</time>
      </trkpt>
      <trkpt lat="44.10996" lon="3.2204">
        <ele>699</ele>
        <time>2017-03-02T08:54:05Z</time>
      </trkpt>
      <trkpt lat="44.11003" lon="3.22045">
        <ele>699</ele>
        <time>2017-03-02T08:56:05Z</time>
      </trkpt>
      <trkpt lat="44.11008" lon="3.22048">
        <ele>700</ele>
        <time>2017-03-02T08:58:05Z</time>
      </trkpt>
      <trkpt lat="44.11016" lon="3.22054">
        <ele>701</ele>
        <time>2017-03-02T09:00:05Z</time>
      </trkpt>
      <trkpt lat="44.11018" lon="3.22057">
        <ele>701</ele>
        <time>2017-03-02T09:02:05Z</time>
      </trkpt>
      <trkpt lat="44.11021" lon="3.2206">
        <ele>701</ele>
        <time>2017-03-02T09:04:05Z</time>
      </trkpt>
      <trkpt lat="44.11024" lon="3.22063">
        <ele>701</ele>
        <time>2017-03-02T09:06:05Z</time>
      </trkpt>
      <trkpt lat="44.11026" lon="3.22066">
        <ele>702</ele>
        <time>2017-03-02T09:08:05Z</time>
      </trkpt>
      <trkpt lat="44.11028" lon="3.2207">
        <ele>702</ele>
        <time>2017-03-02T09:10:05Z</time>
      </trkpt>
      <trkpt lat="44.11029" lon="3.22075">
        <ele>701</ele>
        <time>2017-03-02T09:12:05Z</time>
      </trkpt>
      <trkpt lat="44.1103" lon="3.22079">
        <ele>701</ele>
        <time>2017-03-02T09:14:05Z</time>
      </trkpt>
      <trkpt lat="44.1103" lon="3.22085">
        <ele>701</ele>
        <time>2017-03-02T09:16:05Z</time>
      </trkpt>
      <trkpt lat="44.11031" lon="3.2209">
        <ele>701</ele>
        <time>2017-03-02T09:18:05Z</time>
      </trkpt>
      <trkpt lat="44.11031" lon="3.22094">
        <ele>701</ele>
        <time>2017-03-02T09:20:05Z</time>
      </trkpt>
      <trkpt lat="44.11031" lon="3.22096">
        <ele>701</ele>
        <time>2017-03-02T09:22:05Z</time>
      </trkpt>
      <trkpt lat="44.1103" lon="3.22098">
        <ele>701</ele>
        <time>2017-03-02T09:24:05Z</time>
      </trkpt>
      <trkpt lat="44.1103" lon="3.22101">
        <ele>701</ele>
        <time>2017-03-02T09:26:05Z</time>
      </trkpt>
      <trkpt lat="44.11028" lon="3.2211">
        <ele>701</ele>
        <time>2017-03-02T09:28:05Z</time>
      </trkpt>
      <trkpt lat="44.11024" lon="3.2212">
        <ele>701</ele>
        <time>2017-03-02T09:30:05Z</time>
      </trkpt>
      <trkpt lat="44.11023" lon="3.22124">
        <ele>701</ele>
        <time>2017-03-02T09:32:05Z</time>
      </trkpt>
      <trkpt lat="44.11023" lon="3.22126">
        <ele>701</ele>
        <time>2017-03-02T09:34:05Z</time>
      </trkpt>
      <trkpt lat="44.11022" lon="3.22129">
        <ele>701</ele>
        <time>2017-03-02T09:36:05Z</time>
      </trkpt>
      <trkpt lat="44.11022" lon="3.22132">
        <ele>701</ele>
        <time>2017-03-02T09:38:05Z</time>
      </trkpt>
      <trkpt lat="44.11022" lon="3.22135">
        <ele>701</ele>
        <time>2017-03-02T09:40:05Z</time>
      </trkpt>
      <trkpt lat="44.11021" lon="3.22155">
        <ele>701</ele>
        <time>2017-03-02T09:42:05Z</time>
      </trkpt>
      <trkpt lat="44.1102" lon="3.2217">
        <ele>702</ele>
        <time>2017-03-02T09:44:05Z</time>
      </trkpt>
      <trkpt lat="44.11019" lon="3.22175">
        <ele>702</ele>
        <time>2017-03-02T09:46:05Z</time>
      </trkpt>
      <trkpt lat="44.11016" lon="3.22195">
        <ele>704</ele>
        <time>2017-03-02T09:48:05Z</time>
      </trkpt>
      <trkpt lat="44.11015" lon="3.22208">
        <ele>706</ele>
        <time>2017-03-02T09:50:05Z</time>
      </trkpt>
      <trkpt lat="44.11014" lon="3.22224">
        <ele>707</ele>
        <time>2017-03-02T09:52:05Z</time>
      </trkpt>
      <trkpt lat="44.11012" lon="3.22241">
        <ele>709</ele>
        <time>2017-03-02T09:54:05Z</time>
      </trkpt>
      <trkpt lat="44.1101" lon="3.22264">
        <ele>711</ele>
        <time>2017-03-02T09:56:05Z</time>
      </trkpt>
      <trkpt lat="44.11009" lon="3.2227">
        <ele>711</ele>
        <time>2017-03-02T09:58:05Z</time>
      </trkpt>
      <trkpt lat="44.11006" lon="3.2229">
        <ele>713</ele>
        <time>2017-03-02T10:00:05Z</time>
      </trkpt>
      <trkpt lat="44.11005" lon="3.22298">
        <ele>713</ele>
        <time>2017-03-02T10:02:05Z</time>
      </trkpt>
      <trkpt lat="44.11005" lon="3.22308">
        <ele>714</ele>
        <time>2017-03-02T10:04:05Z</time>
      </trkpt>
      <trkpt lat="44.11003" lon="3.22323">
        <ele>715</ele>
        <time>2017-03-02T10:06:05Z</time>
      </trkpt>
      <trkpt lat="44.11003" lon="3.22341">
        <ele>716</ele>
        <time>2017-03-02T10:08:05Z</time>
      </trkpt>
      <trkpt lat="44.11002" lon="3.22343">
        <ele>716</ele>
        <time>2017-03-02T10:10:05Z</time>
      </trkpt>
      <trkpt lat="44.11002" lon="3.22345">
        <ele>716</ele>
        <time>2017-03-02T10:12:05Z</time>
      </trkpt>
      <trkpt lat="44.11001" lon="3.22353">
        <ele>717</ele>
        <time>2017-03-02T10:14:05Z</time>
      </trkpt>
      <trkpt lat="44.11" lon="3.22357">
        <ele>717</ele>
        <time>2017-03-02T10:16:05Z</time>
      </trkpt>
      <trkpt lat="44.10998" lon="3.22363">
        <ele>717</ele>
        <time>2017-03-02T10:18:05Z</time>
      </trkpt>
      <trkpt lat="44.10997" lon="3.22369">
        <ele>717</ele>
        <time>2017-03-02T10:20:05Z</time>
      </trkpt>
      <trkpt lat="44.10997" lon="3.22379">
        <ele>718</ele>
        <time>2017-03-02T10:22:05Z</time>
      </trkpt>
      <trkpt lat="44.10996" lon="3.22393">
        <ele>719</ele>
        <time>2017-03-02T10:24:05Z</time>
      </trkpt>
      <trkpt lat="44.10996" lon="3.22397">
        <ele>720</ele>
        <time>2017-03-02T10:26:05Z</time>
      </trkpt>
      <trkpt lat="44.1099" lon="3.22437">
        <ele>723</ele>
        <time>2017-03-02T10:28:05Z</time>
      </trkpt>
      <trkpt lat="44.10988" lon="3.22458">
        <ele>725</ele>
        <time>2017-03-02T10:30:05Z</time>
      </trkpt>
      <trkpt lat="44.10988" lon="3.22473">
        <ele>727</ele>
        <time>2017-03-02T10:32:05Z</time>
      </trkpt>
      <trkpt lat="44.10987" lon="3.22489">
        <ele>729</ele>
        <time>2017-03-02T10:34:05Z</time>
      </trkpt>
      <trkpt lat="44.10986" lon="3.2252">
        <ele>731</ele>
        <time>2017-03-02T10:36:05Z</time>
      </trkpt>
      <trkpt lat="44.10986" lon="3.22526">
        <ele>731</ele>
        <time>2017-03-02T10:38:05Z</time>
      </trkpt>
      <trkpt lat="44.10986" lon="3.22529">
        <ele>732</ele>
        <time>2017-03-02T10:40:05Z</time>
      </trkpt>
      <trkpt lat="44.10987" lon="3.22532">
        <ele>732</ele>
        <time>2017-03-02T10:42:05Z</time>
      </trkpt>
      <trkpt lat="44.10988" lon="3.22533">
        <ele>732</ele>
        <time>2017-03-02T10:44:05Z</time>
      </trkpt>
      <trkpt lat="44.10988" lon="3.22535">
        <ele>732</ele>
        <time>2017-03-02T10:46:05Z</time>
      </trkpt>
      <trkpt lat="44.1099" lon="3.22536">
        <ele>732</ele>
        <time>2017-03-02T10:48:05Z</time>
      </trkpt>
      <trkpt lat="44.1099" lon="3.22536">
        <ele>732</ele>
        <time>2017-03-02T10:50:05Z</time>
      </trkpt>
      <trkpt lat="44.10989" lon="3.22538">
        <ele>732</ele>
        <time>2017-03-02T10:52:05Z</time>
      </trkpt>
      <trkpt lat="44.10988" lon="3.22539">
        <ele>732</ele>
        <time>2017-03-02T10:54:05Z</time>
      </trkpt>
      <trkpt lat="44.10987" lon="3.2254">
        <ele>732</ele>
        <time>2017-03-02T10:56:05Z</time>
      </trkpt>
      <trkpt lat="44.10987" lon="3.22544">
        <ele>732</ele>
        <time>2017-03-02T10:58:05Z</time>
      </trkpt>
      <trkpt lat="44.10986" lon="3.22552">
        <ele>733</ele>
        <time>2017-03-02T11:00:05Z</time>
      </trkpt>
      <trkpt lat="44.10986" lon="3.22558">
        <ele>733</ele>
        <time>2017-03-02T11:02:05Z</time>
      </trkpt>
      <trkpt lat="44.10985" lon="3.22563">
        <ele>733</ele>
        <time>2017-03-02T11:04:05Z</time>
      </trkpt>
      <trkpt lat="44.10984" lon="3.2257">
        <ele>734</ele>
        <time>2017-03-02T11:06:05Z</time>
      </trkpt>
      <trkpt lat="44.10981" lon="3.22583">
        <ele>735</ele>
        <time>2017-03-02T11:08:05Z</time>
      </trkpt>
      <trkpt lat="44.10977" lon="3.22596">
        <ele>736</ele>
        <time>2017-03-02T11:10:05Z</time>
      </trkpt>
      <trkpt lat="44.10972" lon="3.22609">
        <ele>736</ele>
        <time>2017-03-02T11:12:05Z</time>
      </trkpt>
      <trkpt lat="44.10969" lon="3.22623">
        <ele>737</ele>
        <time>2017-03-02T11:14:05Z</time>
      </trkpt>
      <trkpt lat="44.10968" lon="3.2263">
        <ele>737</ele>
        <time>2017-03-02T11:16:05Z</time>
      </trkpt>
      <trkpt lat="44.10967" lon="3.22637">
        <ele>737</ele>
        <time>2017-03-02T11:18:05Z</time>
      </trkpt>
      <trkpt lat="44.10967" lon="3.22666">
        <ele>738</ele>
        <time>2017-03-02T11:20:05Z</time>
      </trkpt>
      <trkpt lat="44.10967" lon="3.22669">
        <ele>737</ele>
        <time>2017-03-02T11:22:05Z</time>
      </trkpt>
      <trkpt lat="44.10967" lon="3.22672">
        <ele>737</ele>
        <time>2017-03-02T11:24:05Z</time>
      </trkpt>
      <trkpt lat="44.10967" lon="3.22677">
        <ele>737</ele>
        <time>2017-03-02T11:26:05Z</time>
      </trkpt>
      <trkpt lat="44.10966" lon="3.22682">
        <ele>737</ele>
        <time>2017-03-02T11:28:05Z</time>
      </trkpt>
      <trkpt lat="44.10964" lon="3.22693">
        <ele>737</ele>
        <time>2017-03-02T11:30:05Z</time>
      </trkpt>
      <trkpt lat="44.10962" lon="3.22698">
        <ele>737</ele>
        <time>2017-03-02T11:32:05Z</time>
      </trkpt>
      <trkpt lat="44.10957" lon="3.22708">
        <ele>738</ele>
        <time>2017-03-02T11:34:05Z</time>
      </trkpt>
      <trkpt lat="44.10948" lon="3.2272">
        <ele>739</ele>
        <time>2017-03-02T11:36:05Z</time>
      </trkpt>
      <trkpt lat="44.10936" lon="3.22735">
        <ele>740</ele>
        <time>2017-03-02T11:38:05Z</time>
      </trkpt>
      <trkpt lat="44.10923" lon="3.2275">
        <ele>742</ele>
        <time>2017-03-02T11:40:05Z</time>
      </trkpt>
      <trkpt lat="44.1091" lon="3.22764">
        <ele>742</ele>
        <time>2017-03-02T11:42:05Z</time>
      </trkpt>
      <trkpt lat="44.10901" lon="3.22771">
        <ele>742</ele>
        <time>2017-03-02T11:44:05Z</time>
      </trkpt>
      <trkpt lat="44.10896" lon="3.22775">
        <ele>742</ele>
        <time>2017-03-02T11:46:05Z</time>
      </trkpt>
      <trkpt lat="44.10894" lon="3.22778">
        <ele>742</ele>
        <time>2017-03-02T11:48:05Z</time>
      </trkpt>
      <trkpt lat="44.10893" lon="3.22779">
        <ele>742</ele>
        <time>2017-03-02T11:50:05Z</time>
      </trkpt>
      <trkpt lat="44.1089" lon="3.22786">
        <ele>742</ele>
        <time>2017-03-02T11:52:05Z</time>
      </trkpt>
      <trkpt lat="44.10884" lon="3.22797">
        <ele>742</ele>
        <time>2017-03-02T11:54:05Z</time>
      </trkpt>
      <trkpt lat="44.10877" lon="3.22809">
        <ele>741</ele>
        <time>2017-03-02T11:56:05Z</time>
      </trkpt>
      <trkpt lat="44.1087" lon="3.22824">
        <ele>741</ele>
        <time>2017-03-02T11:58:05Z</time>
      </trkpt>
      <trkpt lat="44.10864" lon="3.2284">
        <ele>741</ele>
        <time>2017-03-02T12:00:05Z</time>
      </trkpt>
      <trkpt lat="44.10858" lon="3.22853">
        <ele>741</ele>
        <time>2017-03-02T12:02:05Z</time>
      </trkpt>
      <trkpt lat="44.10854" lon="3.22864">
        <ele>741</ele>
        <time>2017-03-02T12:04:05Z</time>
      </trkpt>
      <trkpt lat="44.1085" lon="3.22881">
        <ele>740</ele>
        <time>2017-03-02T12:06:05Z</time>
      </trkpt>
      <trkpt lat="44.10849" lon="3.22886">
        <ele>740</ele>
        <time>2017-03-02T12:08:05Z</time>
      </trkpt>
      <trkpt lat="44.10849" lon="3.22894">
        <ele>740</ele>
        <time>2017-03-02T12:10:05Z</time>
      </trkpt>
      <trkpt lat="44.1085" lon="3.22915">
        <ele>739</ele>
        <time>2017-03-02T12:12:05Z</time>
      </trkpt>
      <trkpt lat="44.1085" lon="3.22944">
        <ele>739</ele>
        <time>2017-03-02T12:14:05Z</time>
      </trkpt>
      <trkpt lat="44.10851" lon="3.22961">
        <ele>738</ele>
        <time>2017-03-02T12:16:05Z</time>
      </trkpt>
      <trkpt lat="44.10851" lon="3.22974">
        <ele>738</ele>
        <time>2017-03-02T12:18:05Z</time>
      </trkpt>
      <trkpt lat="44.10852" lon="3.22983">
        <ele>738</ele>
        <time>2017-03-02T12:20:05Z</time>
      </trkpt>
      <trkpt lat="44.10853" lon="3.2299">
        <ele>738</ele>
        <time>2017-03-02T12:22:05Z</time>
      </trkpt>
      <trkpt lat="44.10853" lon="3.22995">
        <ele>738</ele>
        <time>2017-03-02T12:24:05Z</time>
      </trkpt>
      <trkpt lat="44.10853" lon="3.22999">
        <ele>738</ele>
        <time>2017-03-02T12:26:05Z</time>
      </trkpt>
      <trkpt lat="44.10852" lon="3.23003">
        <ele>738</ele>
        <time>2017-03-02T12:28:05Z</time>
      </trkpt>
      <trkpt lat="44.10852" lon="3.23004">
        <ele>738</ele>
        <time>2017-03-02T12:30:05Z</time>
      </trkpt>
      <trkpt lat="44.1085" lon="3.23009">
        <ele>739</ele>
        <time>2017-03-02T12:32:05Z</time>
      </trkpt>
      <trkpt lat="44.10849" lon="3.2301">
        <ele>739</ele>
        <time>2017-03-02T12:34:05Z</time>
      </trkpt>
      <trkpt lat="44.10848" lon="3.23012">
        <ele>739</ele>
        <time>2017-03-02T12:36:05Z</time>
      </trkpt>
      <trkpt lat="44.10845" lon="3.23016">
        <ele>740</ele>
        <time>2017-03-02T12:38:05Z</time>
      </trkpt>
      <trkpt lat="44.10844" lon="3.23018">
        <ele>740</ele>
        <time>2017-03-02T12:40:05Z</time>
      </trkpt>
      <trkpt lat="44.10843" lon="3.23021">
        <ele>740</ele>
        <time>2017-03-02T12:42:05Z</time>
      </trkpt>
      <trkpt lat="44.10841" lon="3.23027">
        <ele>740</ele>
        <time>2017-03-02T12:44:05Z</time>
      </trkpt>
      <trkpt lat="44.10838" lon="3.2304">
        <ele>741</ele>
        <time>2017-03-02T12:46:05Z</time>
      </trkpt>
      <trkpt lat="44.10837" lon="3.23053">
        <ele>741</ele>
        <time>2017-03-02T12:48:05Z</time>
      </trkpt>
      <trkpt lat="44.10835" lon="3.23061">
        <ele>742</ele>
        <time>2017-03-02T12:50:05Z</time>
      </trkpt>
      <trkpt lat="44.1083" lon="3.23076">
        <ele>742</ele>
        <time>2017-03-02T12:52:05Z</time>
      </trkpt>
      <trkpt lat="44.10826" lon="3.23089">
        <ele>743</ele>
        <time>2017-03-02T12:54:05Z</time>
      </trkpt>
      <trkpt lat="44.10823" lon="3.231">
        <ele>744</ele>
        <time>2017-03-02T12:56:05Z</time>
      </trkpt>
      <trkpt lat="44.1082" lon="3.23106">
        <ele>745</ele>
        <time>2017-03-02T12:58:05Z</time>
      </trkpt>
      <trkpt lat="44.10819" lon="3.23112">
        <ele>745</ele>
        <time>2017-03-02T13:00:05Z</time>
      </trkpt>
      <trkpt lat="44.10818" lon="3.23118">
        <ele>746</ele>
        <time>2017-03-02T13:02:05Z</time>
      </trkpt>
      <trkpt lat="44.10817" lon="3.23128">
        <ele>747</ele>
        <time>2017-03-02T13:04:05Z</time>
      </trkpt>
      <trkpt lat="44.10815" lon="3.23142">
        <ele>748</ele>
        <time>2017-03-02T13:06:05Z</time>
      </trkpt>
      <trkpt lat="44.10812" lon="3.23164">
        <ele>750</ele>
        <time>2017-03-02T13:08:05Z</time>
      </trkpt>
      <trkpt lat="44.10809" lon="3.23184">
        <ele>753</ele>
        <time>2017-03-02T13:10:05Z</time>
      </trkpt>
      <trkpt lat="44.10807" lon="3.23201">
        <ele>755</ele>
        <time>2017-03-02T13:12:05Z</time>
      </trkpt>
      <trkpt lat="44.10804" lon="3.23219">
        <ele>757</ele>
        <time>2017-03-02T13:14:05Z</time>
      </trkpt>
      <trkpt lat="44.10802" lon="3.23232">
        <ele>758</ele>
        <time>2017-03-02T13:16:05Z</time>
      </trkpt>
      <trkpt lat="44.10799" lon="3.23247">
        <ele>760</ele>
        <time>2017-03-02T13:18:05Z</time>
      </trkpt>
      <trkpt lat="44.10798" lon="3.23257">
        <ele>761</ele>
        <time>2017-03-02T13:20:05Z</time>
      </trkpt>
      <trkpt lat="44.10796" lon="3.23263">
        <ele>761</ele>
        <time>2017-03-02T13:22:05Z</time>
      </trkpt>
      <trkpt lat="44.10796" lon="3.23269">
        <ele>762</ele>
        <time>2017-03-02T13:24:05Z</time>
      </trkpt>
      <trkpt lat="44.10796" lon="3.23275">
        <ele>763</ele>
        <time>2017-03-02T13:26:05Z</time>
      </trkpt>
      <trkpt lat="44.10797" lon="3.23291">
        <ele>764</ele>
        <time>2017-03-02T13:28:05Z</time>
      </trkpt>
      <trkpt lat="44.10798" lon="3.23297">
        <ele>765</ele>
        <time>2017-03-02T13:30:05Z</time>
      </trkpt>
      <trkpt lat="44.10799" lon="3.23312">
        <ele>767</ele>
        <time>2017-03-02T13:32:05Z</time>
      </trkpt>
      <trkpt lat="44.108" lon="3.23322">
        <ele>768</ele>
        <time>2017-03-02T13:34:05Z</time>
      </trkpt>
      <trkpt lat="44.10801" lon="3.23335">
        <ele>769</ele>
        <time>2017-03-02T13:36:05Z</time>
      </trkpt>
      <trkpt lat="44.10801" lon="3.23343">
        <ele>770</ele>
        <time>2017-03-02T13:38:05Z</time>
      </trkpt>
      <trkpt lat="44.108" lon="3.23352">
        <ele>771</ele>
        <time>2017-03-02T13:40:05Z</time>
      </trkpt>
      <trkpt lat="44.10801" lon="3.23395">
        <ele>774</ele>
        <time>2017-03-02T13:42:05Z</time>
      </trkpt>
      <trkpt lat="44.10801" lon="3.23402">
        <ele>774</ele>
        <time>2017-03-02T13:44:05Z</time>
      </trkpt>
      <trkpt lat="44.10801" lon="3.23408">
        <ele>775</ele>
        <time>2017-03-02T13:46:05Z</time>
      </trkpt>
      <trkpt lat="44.108" lon="3.23414">
        <ele>775</ele>
        <time>2017-03-02T13:48:05Z</time>
      </trkpt>
      <trkpt lat="44.108" lon="3.23421">
        <ele>776</ele>
        <time>2017-03-02T13:50:05Z</time>
      </trkpt>
      <trkpt lat="44.108" lon="3.23429">
        <ele>776</ele>
        <time>2017-03-02T13:52:05Z</time>
      </trkpt>
      <trkpt lat="44.10801" lon="3.23438">
        <ele>776</ele>
        <time>2017-03-02T13:54:05Z</time>
      </trkpt>
      <trkpt lat="44.10801" lon="3.23446">
        <ele>777</ele>
        <time>2017-03-02T13:56:05Z</time>
      </trkpt>
      <trkpt lat="44.108" lon="3.23454">
        <ele>777</ele>
        <time>2017-03-02T13:58:05Z</time>
      </trkpt>
      <trkpt lat="44.108" lon="3.23469">
        <ele>777</ele>
        <time>2017-03-02T14:00:05Z</time>
      </trkpt>
      <trkpt lat="44.108" lon="3.23472">
        <ele>778</ele>
        <time>2017-03-02T14:02:05Z</time>
      </trkpt>
      <trkpt lat="44.108" lon="3.23474">
        <ele>778</ele>
        <time>2017-03-02T14:04:05Z</time>
      </trkpt>
      <trkpt lat="44.10801" lon="3.23479">
        <ele>778</ele>
        <time>2017-03-02T14:06:05Z</time>
      </trkpt>
      <trkpt lat="44.10805" lon="3.23493">
        <ele>778</ele>
        <time>2017-03-02T14:08:05Z</time>
      </trkpt>
      <trkpt lat="44.10805" lon="3.23493">
        <ele>778</ele>
        <time>2017-03-02T14:10:05Z</time>
      </trkpt>
      <trkpt lat="44.10818" lon="3.23492">
        <ele>778</ele>
        <time>2017-03-02T14:12:05Z</time>
      </trkpt>
      <trkpt lat="44.10822" lon="3.23493">
        <ele>777</ele>
        <time>2017-03-02T14:14:05Z</time>
      </trkpt>
      <trkpt lat="44.10822" lon="3.23493">
        <ele>777</ele>
        <time>2017-03-02T14:16:05Z</time>
      </trkpt>
      <trkpt lat="44.10827" lon="3.23494">
        <ele>777</ele>
        <time>2017-03-02T14:18:05Z</time>
      </trkpt>
      <trkpt lat="44.10831" lon="3.23497">
        <ele>777</ele>
        <time>2017-03-02T14:20:05Z</time>
      </trkpt>
      <trkpt lat="44.10836" lon="3.23503">
        <ele>777</ele>
        <time>2017-03-02T14:22:05Z</time>
      </trkpt>
      <trkpt lat="44.10839" lon="3.23509">
        <ele>776</ele>
        <time>2017-03-02T14:24:05Z</time>
      </trkpt>
      <trkpt lat="44.10845" lon="3.23519">
        <ele>776</ele>
        <time>2017-03-02T14:26:05Z</time>
      </trkpt>
      <trkpt lat="44.10851" lon="3.23529">
        <ele>775</ele>
        <time>2017-03-02T14:28:05Z</time>
      </trkpt>
      <trkpt lat="44.10853" lon="3.23531">
        <ele>775</ele>
        <time>2017-03-02T14:30:05Z</time>
      </trkpt>
      <trkpt lat="44.10855" lon="3.23533">
        <ele>775</ele>
        <time>2017-03-02T14:32:05Z</time>
      </trkpt>
      <trkpt lat="44.10857" lon="3.23534">
        <ele>774</ele>
        <time>2017-03-02T14:34:05Z</time>
      </trkpt>
      <trkpt lat="44.1086" lon="3.23534">
        <ele>774</ele>
        <time>2017-03-02T14:36:05Z</time>
      </trkpt>
      <trkpt lat="44.10864" lon="3.23534">
        <ele>774</ele>
        <time>2017-03-02T14:38:05Z</time>
      </trkpt>
      <trkpt lat="44.10868" lon="3.23534">
        <ele>774</ele>
        <time>2017-03-02T14:40:05Z</time>
      </trkpt>
      <trkpt lat="44.10874" lon="3.23532">
        <ele>774</ele>
        <time>2017-03-02T14:42:05Z</time>
      </trkpt>
      <trkpt lat="44.10874" lon="3.23532">
        <ele>774</ele>
        <time>2017-03-02T14:44:05Z</time>
      </trkpt>
      <trkpt lat="44.10878" lon="3.23531">
        <ele>773</ele>
        <time>2017-03-02T14:46:05Z</time>
      </trkpt>
      <trkpt lat="44.10885" lon="3.23528">
        <ele>773</ele>
        <time>2017-03-02T14:48:05Z</time>
      </trkpt>
      <trkpt lat="44.1089" lon="3.23525">
        <ele>773</ele>
        <time>2017-03-02T14:50:05Z</time>
      </trkpt>
      <trkpt lat="44.10897" lon="3.23522">
        <ele>773</ele>
        <time>2017-03-02T14:52:05Z</time>
      </trkpt>
      <trkpt lat="44.10906" lon="3.23518">
        <ele>772</ele>
        <time>2017-03-02T14:54:05Z</time>
      </trkpt>
      <trkpt lat="44.10915" lon="3.23514">
        <ele>772</ele>
        <time>2017-03-02T14:56:05Z</time>
      </trkpt>
      <trkpt lat="44.10916" lon="3.23514">
        <ele>772</ele>
        <time>2017-03-02T14:58:05Z</time>
      </trkpt>
      <trkpt lat="44.10928" lon="3.23556">
        <ele>769</ele>
        <time>2017-03-02T15:00:05Z</time>
      </trkpt>
      <trkpt lat="44.109" lon="3.24282">
        <ele>765</ele>
        <time>2017-03-02T15:02:05Z</time>
      </trkpt>
      <trkpt lat="44.11316" lon="3.24209">
        <ele>723</ele>
        <time>2017-03-02T15:04:05Z</time>
      </trkpt>
      <trkpt lat="44.11317" lon="3.24205">
        <ele>723</ele>
        <time>2017-03-02T15:06:05Z</time>
      </trkpt>
      <trkpt lat="44.11323" lon="3.24207">
        <ele>721</ele>
        <time>2017-03-02T15:08:05Z</time>
      </trkpt>
      <trkpt lat="44.11332" lon="3.24208">
        <ele>717</ele>
        <time>2017-03-02T15:10:05Z</time>
      </trkpt>
      <trkpt lat="44.1134" lon="3.24207">
        <ele>712</ele>
        <time>2017-03-02T15:12:05Z</time>
      </trkpt>
      <trkpt lat="44.11346" lon="3.24204">
        <ele>709</ele>
        <time>2017-03-02T15:14:05Z</time>
      </trkpt>
      <trkpt lat="44.11352" lon="3.24199">
        <ele>705</ele>
        <time>2017-03-02T15:16:05Z</time>
      </trkpt>
      <trkpt lat="44.11356" lon="3.24192">
        <ele>703</ele>
        <time>2017-03-02T15:18:05Z</time>
      </trkpt>
      <trkpt lat="44.1136" lon="3.24187">
        <ele>701</ele>
        <time>2017-03-02T15:20:05Z</time>
      </trkpt>
      <trkpt lat="44.11361" lon="3.24185">
        <ele>701</ele>
        <time>2017-03-02T15:22:05Z</time>
      </trkpt>
      <trkpt lat="44.11363" lon="3.24182">
        <ele>699</ele>
        <time>2017-03-02T15:24:05Z</time>
      </trkpt>
      <trkpt lat="44.11366" lon="3.24183">
        <ele>697</ele>
        <time>2017-03-02T15:26:05Z</time>
      </trkpt>
      <trkpt lat="44.1137" lon="3.24186">
        <ele>694</ele>
        <time>2017-03-02T15:28:05Z</time>
      </trkpt>
      <trkpt lat="44.11375" lon="3.24188">
        <ele>690</ele>
        <time>2017-03-02T15:30:05Z</time>
      </trkpt>
      <trkpt lat="44.11377" lon="3.24188">
        <ele>689</ele>
        <time>2017-03-02T15:32:05Z</time>
      </trkpt>
      <trkpt lat="44.1138" lon="3.24186">
        <ele>687</ele>
        <time>2017-03-02T15:34:05Z</time>
      </trkpt>
      <trkpt lat="44.11382" lon="3.24181">
        <ele>686</ele>
        <time>2017-03-02T15:36:05Z</time>
      </trkpt>
      <trkpt lat="44.11385" lon="3.24173">
        <ele>684</ele>
        <time>2017-03-02T15:38:05Z</time>
      </trkpt>
      <trkpt lat="44.11386" lon="3.24169">
        <ele>684</ele>
        <time>2017-03-02T15:40:05Z</time>
      </trkpt>
      <trkpt lat="44.11389" lon="3.24168">
        <ele>682</ele>
        <time>2017-03-02T15:42:05Z</time>
      </trkpt>
      <trkpt lat="44.11394" lon="3.24169">
        <ele>678</ele>
        <time>2017-03-02T15:44:05Z</time>
      </trkpt>
      <trkpt lat="44.11399" lon="3.24173">
        <ele>674</ele>
        <time>2017-03-02T15:46:05Z</time>
      </trkpt>
      <trkpt lat="44.11405" lon="3.24189">
        <ele>669</ele>
        <time>2017-03-02T15:48:05Z</time>
      </trkpt>
      <trkpt lat="44.11408" lon="3.24196">
        <ele>667</ele>
        <time>2017-03-02T15:50:05Z</time>
      </trkpt>
      <trkpt lat="44.11412" lon="3.24198">
        <ele>665</ele>
        <time>2017-03-02T15:52:05Z</time>
      </trkpt>
      <trkpt lat="44.11415" lon="3.24198">
        <ele>663</ele>
        <time>2017-03-02T15:54:05Z</time>
      </trkpt>
      <trkpt lat="44.11417" lon="3.24196">
        <ele>661</ele>
        <time>2017-03-02T15:56:05Z</time>
      </trkpt>
      <trkpt lat="44.11418" lon="3.24194">
        <ele>660</ele>
        <time>2017-03-02T15:58:05Z</time>
      </trkpt>
      <trkpt lat="44.1142" lon="3.24191">
        <ele>659</ele>
        <time>2017-03-02T16:00:05Z</time>
      </trkpt>
      <trkpt lat="44.11422" lon="3.24187">
        <ele>658</ele>
        <time>2017-03-02T16:02:05Z</time>
      </trkpt>
      <trkpt lat="44.11424" lon="3.24182">
        <ele>656</ele>
        <time>2017-03-02T16:04:05Z</time>
      </trkpt>
      <trkpt lat="44.11427" lon="3.24178">
        <ele>654</ele>
        <time>2017-03-02T16:06:05Z</time>
      </trkpt>
      <trkpt lat="44.11431" lon="3.24174">
        <ele>652</ele>
        <time>2017-03-02T16:08:05Z</time>
      </trkpt>
      <trkpt lat="44.11435" lon="3.24175">
        <ele>649</ele>
        <time>2017-03-02T16:10:05Z</time>
      </trkpt>
      <trkpt lat="44.11438" lon="3.24176">
        <ele>647</ele>
        <time>2017-03-02T16:12:05Z</time>
      </trkpt>
      <trkpt lat="44.11445" lon="3.24178">
        <ele>642</ele>
        <time>2017-03-02T16:14:05Z</time>
      </trkpt>
      <trkpt lat="44.11452" lon="3.24181">
        <ele>638</ele>
        <time>2017-03-02T16:16:05Z</time>
      </trkpt>
      <trkpt lat="44.11455" lon="3.24188">
        <ele>636</ele>
        <time>2017-03-02T16:18:05Z</time>
      </trkpt>
      <trkpt lat="44.11455" lon="3.24196">
        <ele>637</ele>
        <time>2017-03-02T16:20:05Z</time>
      </trkpt>
      <trkpt lat="44.11451" lon="3.24207">
        <ele>640</ele>
        <time>2017-03-02T16:22:05Z</time>
      </trkpt>
      <trkpt lat="44.11449" lon="3.24221">
        <ele>642</ele>
        <time>2017-03-02T16:24:05Z</time>
      </trkpt>
      <trkpt lat="44.11448" lon="3.24234">
        <ele>643</ele>
        <time>2017-03-02T16:26:05Z</time>
      </trkpt>
      <trkpt lat="44.11449" lon="3.24252">
        <ele>643</ele>
        <time>2017-03-02T16:28:05Z</time>
      </trkpt>
      <trkpt lat="44.11449" lon="3.24262">
        <ele>641</ele>
        <time>2017-03-02T16:30:05Z</time>
      </trkpt>
      <trkpt lat="44.1145" lon="3.2427">
        <ele>638</ele>
        <time>2017-03-02T16:32:05Z</time>
      </trkpt>
      <trkpt lat="44.11452" lon="3.24274">
        <ele>636</ele>
        <time>2017-03-02T16:34:05Z</time>
      </trkpt>
      <trkpt lat="44.11457" lon="3.24273">
        <ele>634</ele>
        <time>2017-03-02T16:36:05Z</time>
      </trkpt>
      <trkpt lat="44.11463" lon="3.24272">
        <ele>630</ele>
        <time>2017-03-02T16:38:05Z</time>
      </trkpt>
      <trkpt lat="44.11468" lon="3.24267">
        <ele>628</ele>
        <time>2017-03-02T16:40:05Z</time>
      </trkpt>
      <trkpt lat="44.11471" lon="3.24262">
        <ele>628</ele>
        <time>2017-03-02T16:42:05Z</time>
      </trkpt>
      <trkpt lat="44.11473" lon="3.24256">
        <ele>628</ele>
        <time>2017-03-02T16:44:05Z</time>
      </trkpt>
      <trkpt lat="44.11477" lon="3.24252">
        <ele>626</ele>
        <time>2017-03-02T16:46:05Z</time>
      </trkpt>
      <trkpt lat="44.11481" lon="3.24248">
        <ele>624</ele>
        <time>2017-03-02T16:48:05Z</time>
      </trkpt>
      <trkpt lat="44.11487" lon="3.24244">
        <ele>620</ele>
        <time>2017-03-02T16:50:05Z</time>
      </trkpt>
      <trkpt lat="44.11491" lon="3.24246">
        <ele>618</ele>
        <time>2017-03-02T16:52:05Z</time>
      </trkpt>
      <trkpt lat="44.11493" lon="3.24248">
        <ele>617</ele>
        <time>2017-03-02T16:54:05Z</time>
      </trkpt>
      <trkpt lat="44.11495" lon="3.24252">
        <ele>616</ele>
        <time>2017-03-02T16:56:05Z</time>
      </trkpt>
      <trkpt lat="44.11499" lon="3.24261">
        <ele>611</ele>
        <time>2017-03-02T16:58:05Z</time>
      </trkpt>
      <trkpt lat="44.11501" lon="3.24264">
        <ele>610</ele>
        <time>2017-03-02T17:00:05Z</time>
      </trkpt>
      <trkpt lat="44.11505" lon="3.24263">
        <ele>608</ele>
        <time>2017-03-02T17:02:05Z</time>
      </trkpt>
      <trkpt lat="44.11508" lon="3.2426">
        <ele>608</ele>
        <time>2017-03-02T17:04:05Z</time>
      </trkpt>
      <trkpt lat="44.11508" lon="3.24258">
        <ele>608</ele>
        <time>2017-03-02T17:06:05Z</time>
      </trkpt>
      <trkpt lat="44.11509" lon="3.24255">
        <ele>608</ele>
        <time>2017-03-02T17:08:05Z</time>
      </trkpt>
      <trkpt lat="44.11508" lon="3.24245">
        <ele>609</ele>
        <time>2017-03-02T17:10:05Z</time>
      </trkpt>
      <trkpt lat="44.11512" lon="3.24242">
        <ele>607</ele>
        <time>2017-03-02T17:12:05Z</time>
      </trkpt>
      <trkpt lat="44.11515" lon="3.24243">
        <ele>605</ele>
        <time>2017-03-02T17:14:05Z</time>
      </trkpt>
      <trkpt lat="44.11518" lon="3.24244">
        <ele>604</ele>
        <time>2017-03-02T17:16:05Z</time>
      </trkpt>
      <trkpt lat="44.1152" lon="3.24249">
        <ele>604</ele>
        <time>2017-03-02T17:18:05Z</time>
      </trkpt>
      <trkpt lat="44.11522" lon="3.24259">
        <ele>601</ele>
        <time>2017-03-02T17:20:05Z</time>
      </trkpt>
      <trkpt lat="44.11524" lon="3.24277">
        <ele>598</ele>
        <time>2017-03-02T17:22:05Z</time>
      </trkpt>
      <trkpt lat="44.11527" lon="3.24282">
        <ele>596</ele>
        <time>2017-03-02T17:24:05Z</time>
      </trkpt>
      <trkpt lat="44.1153" lon="3.24284">
        <ele>594</ele>
        <time>2017-03-02T17:26:05Z</time>
      </trkpt>
      <trkpt lat="44.11535" lon="3.24287">
        <ele>591</ele>
        <time>2017-03-02T17:28:05Z</time>
      </trkpt>
      <trkpt lat="44.1154" lon="3.24287">
        <ele>589</ele>
        <time>2017-03-02T17:30:05Z</time>
      </trkpt>
      <trkpt lat="44.11549" lon="3.24284">
        <ele>586</ele>
        <time>2017-03-02T17:32:05Z</time>
      </trkpt>
      <trkpt lat="44.11562" lon="3.24276">
        <ele>582</ele>
        <time>2017-03-02T17:34:05Z</time>
      </trkpt>
      <trkpt lat="44.11576" lon="3.2427">
        <ele>576</ele>
        <time>2017-03-02T17:36:05Z</time>
      </trkpt>
      <trkpt lat="44.11582" lon="3.24267">
        <ele>574</ele>
        <time>2017-03-02T17:38:05Z</time>
      </trkpt>
      <trkpt lat="44.11589" lon="3.24264">
        <ele>571</ele>
        <time>2017-03-02T17:40:05Z</time>
      </trkpt>
      <trkpt lat="44.11595" lon="3.24265">
        <ele>568</ele>
        <time>2017-03-02T17:42:05Z</time>
      </trkpt>
      <trkpt lat="44.116" lon="3.24266">
        <ele>566</ele>
        <time>2017-03-02T17:44:05Z</time>
      </trkpt>
      <trkpt lat="44.11605" lon="3.24273">
        <ele>564</ele>
        <time>2017-03-02T17:46:05Z</time>
      </trkpt>
      <trkpt lat="44.11608" lon="3.2428">
        <ele>562</ele>
        <time>2017-03-02T17:48:05Z</time>
      </trkpt>
      <trkpt lat="44.1161" lon="3.24288">
        <ele>561</ele>
        <time>2017-03-02T17:50:05Z</time>
      </trkpt>
      <trkpt lat="44.11615" lon="3.24302">
        <ele>559</ele>
        <time>2017-03-02T17:52:05Z</time>
      </trkpt>
      <trkpt lat="44.1162" lon="3.24314">
        <ele>558</ele>
        <time>2017-03-02T17:54:05Z</time>
      </trkpt>
      <trkpt lat="44.11626" lon="3.24323">
        <ele>556</ele>
        <time>2017-03-02T17:56:05Z</time>
      </trkpt>
      <trkpt lat="44.11636" lon="3.24327">
        <ele>553</ele>
        <time>2017-03-02T17:58:05Z</time>
      </trkpt>
      <trkpt lat="44.11645" lon="3.24329">
        <ele>551</ele>
        <time>2017-03-02T18:00:05Z</time>
      </trkpt>
      <trkpt lat="44.11665" lon="3.24337">
        <ele>545</ele>
        <time>2017-03-02T18:02:05Z</time>
      </trkpt>
      <trkpt lat="44.11674" lon="3.24346">
        <ele>538</ele>
        <time>2017-03-02T18:04:05Z</time>
      </trkpt>
      <trkpt lat="44.11678" lon="3.24353">
        <ele>534</ele>
        <time>2017-03-02T18:06:05Z</time>
      </trkpt>
      <trkpt lat="44.11682" lon="3.24367">
        <ele>527</ele>
        <time>2017-03-02T18:08:05Z</time>
      </trkpt>
      <trkpt lat="44.11685" lon="3.24377">
        <ele>522</ele>
        <time>2017-03-02T18:10:05Z</time>
      </trkpt>
      <trkpt lat="44.11688" lon="3.2438">
        <ele>520</ele>
        <time>2017-03-02T18:12:05Z</time>
      </trkpt>
      <trkpt lat="44.11693" lon="3.24382">
        <ele>518</ele>
        <time>2017-03-02T18:14:05Z</time>
      </trkpt>
      <trkpt lat="44.11699" lon="3.24381">
        <ele>516</ele>
        <time>2017-03-02T18:16:05Z</time>
      </trkpt>
      <trkpt lat="44.11706" lon="3.2438">
        <ele>514</ele>
        <time>2017-03-02T18:18:05Z</time>
      </trkpt>
      <trkpt lat="44.11709" lon="3.2438">
        <ele>513</ele>
        <time>2017-03-02T18:20:05Z</time>
      </trkpt>
      <trkpt lat="44.11713" lon="3.24379">
        <ele>512</ele>
        <time>2017-03-02T18:22:05Z</time>
      </trkpt>
      <trkpt lat="44.11717" lon="3.2438">
        <ele>511</ele>
        <time>2017-03-02T18:24:05Z</time>
      </trkpt>
      <trkpt lat="44.1172" lon="3.24382">
        <ele>509</ele>
        <time>2017-03-02T18:26:05Z</time>
      </trkpt>
      <trkpt lat="44.11724" lon="3.24386">
        <ele>506</ele>
        <time>2017-03-02T18:28:05Z</time>
      </trkpt>
      <trkpt lat="44.11727" lon="3.24396">
        <ele>503</ele>
        <time>2017-03-02T18:30:05Z</time>
      </trkpt>
      <trkpt lat="44.11729" lon="3.24398">
        <ele>502</ele>
        <time>2017-03-02T18:32:05Z</time>
      </trkpt>
      <trkpt lat="44.11731" lon="3.244">
        <ele>500</ele>
        <time>2017-03-02T18:34:05Z</time>
      </trkpt>
      <trkpt lat="44.11734" lon="3.24398">
        <ele>500</ele>
        <time>2017-03-02T18:36:05Z</time>
      </trkpt>
      <trkpt lat="44.11736" lon="3.24396">
        <ele>500</ele>
        <time>2017-03-02T18:38:05Z</time>
      </trkpt>
      <trkpt lat="44.11743" lon="3.24386">
        <ele>500</ele>
        <time>2017-03-02T18:40:05Z</time>
      </trkpt>
      <trkpt lat="44.11747" lon="3.24386">
        <ele>499</ele>
        <time>2017-03-02T18:42:05Z</time>
      </trkpt>
      <trkpt lat="44.11749" lon="3.2439">
        <ele>497</ele>
        <time>2017-03-02T18:44:05Z</time>
      </trkpt>
      <trkpt lat="44.11749" lon="3.24393">
        <ele>497</ele>
        <time>2017-03-02T18:46:05Z</time>
      </trkpt>
      <trkpt lat="44.11751" lon="3.244">
        <ele>495</ele>
        <time>2017-03-02T18:48:05Z</time>
      </trkpt>
      <trkpt lat="44.11756" lon="3.24402">
        <ele>493</ele>
        <time>2017-03-02T18:50:05Z</time>
      </trkpt>
      <trkpt lat="44.11759" lon="3.24401">
        <ele>492</ele>
        <time>2017-03-02T18:52:05Z</time>
      </trkpt>
      <trkpt lat="44.1176" lon="3.24405">
        <ele>491</ele>
        <time>2017-03-02T18:54:05Z</time>
      </trkpt>
      <trkpt lat="44.11759" lon="3.2441">
        <ele>490</ele>
        <time>2017-03-02T18:56:05Z</time>
      </trkpt>
      <trkpt lat="44.11758" lon="3.24415">
        <ele>489</ele>
        <time>2017-03-02T18:58:05Z</time>
      </trkpt>
      <trkpt lat="44.11757" lon="3.24422">
        <ele>487</ele>
        <time>2017-03-02T19:00:05Z</time>
      </trkpt>
      <trkpt lat="44.11759" lon="3.2443">
        <ele>482</ele>
        <time>2017-03-02T19:02:05Z</time>
      </trkpt>
      <trkpt lat="44.11762" lon="3.24429">
        <ele>482</ele>
        <time>2017-03-02T19:04:05Z</time>
      </trkpt>
      <trkpt lat="44.11767" lon="3.24425">
        <ele>483</ele>
        <time>2017-03-02T19:06:05Z</time>
      </trkpt>
      <trkpt lat="44.1177" lon="3.24423">
        <ele>483</ele>
        <time>2017-03-02T19:08:05Z</time>
      </trkpt>
      <trkpt lat="44.11778" lon="3.24422">
        <ele>481</ele>
        <time>2017-03-02T19:10:05Z</time>
      </trkpt>
      <trkpt lat="44.11782" lon="3.24424">
        <ele>479</ele>
        <time>2017-03-02T19:12:05Z</time>
      </trkpt>
      <trkpt lat="44.11787" lon="3.24427">
        <ele>476</ele>
        <time>2017-03-02T19:14:05Z</time>
      </trkpt>
      <trkpt lat="44.11787" lon="3.24434">
        <ele>473</ele>
        <time>2017-03-02T19:16:05Z</time>
      </trkpt>
      <trkpt lat="44.11786" lon="3.24442">
        <ele>470</ele>
        <time>2017-03-02T19:18:05Z</time>
      </trkpt>
      <trkpt lat="44.11786" lon="3.24444">
        <ele>469</ele>
        <time>2017-03-02T19:20:05Z</time>
      </trkpt>
      <trkpt lat="44.11787" lon="3.24446">
        <ele>468</ele>
        <time>2017-03-02T19:22:05Z</time>
      </trkpt>
      <trkpt lat="44.1179" lon="3.24445">
        <ele>468</ele>
        <time>2017-03-02T19:24:05Z</time>
      </trkpt>
      <trkpt lat="44.11793" lon="3.2444">
        <ele>469</ele>
        <time>2017-03-02T19:26:05Z</time>
      </trkpt>
      <trkpt lat="44.11798" lon="3.24434">
        <ele>470</ele>
        <time>2017-03-02T19:28:05Z</time>
      </trkpt>
      <trkpt lat="44.118" lon="3.24428">
        <ele>472</ele>
        <time>2017-03-02T19:30:05Z</time>
      </trkpt>
      <trkpt lat="44.11804" lon="3.24414">
        <ele>477</ele>
        <time>2017-03-02T19:32:05Z</time>
      </trkpt>
      <trkpt lat="44.11804" lon="3.24403">
        <ele>478</ele>
        <time>2017-03-02T19:34:05Z</time>
      </trkpt>
      <trkpt lat="44.11802" lon="3.24395">
        <ele>480</ele>
        <time>2017-03-02T19:36:05Z</time>
      </trkpt>
      <trkpt lat="44.11802" lon="3.24388">
        <ele>481</ele>
        <time>2017-03-02T19:38:05Z</time>
      </trkpt>
      <trkpt lat="44.11801" lon="3.24384">
        <ele>482</ele>
        <time>2017-03-02T19:40:05Z</time>
      </trkpt>
      <trkpt lat="44.11801" lon="3.24381">
        <ele>483</ele>
        <time>2017-03-02T19:42:05Z</time>
      </trkpt>
      <trkpt lat="44.11804" lon="3.24377">
        <ele>482</ele>
        <time>2017-03-02T19:44:05Z</time>
      </trkpt>
      <trkpt lat="44.11808" lon="3.24373">
        <ele>482</ele>
        <time>2017-03-02T19:46:05Z</time>
      </trkpt>
      <trkpt lat="44.11812" lon="3.24374">
        <ele>480</ele>
        <time>2017-03-02T19:48:05Z</time>
      </trkpt>
      <trkpt lat="44.11817" lon="3.24379">
        <ele>478</ele>
        <time>2017-03-02T19:50:05Z</time>
      </trkpt>
      <trkpt lat="44.11826" lon="3.24389">
        <ele>474</ele>
        <time>2017-03-02T19:52:05Z</time>
      </trkpt>
      <trkpt lat="44.11835" lon="3.24399">
        <ele>469</ele>
        <time>2017-03-02T19:54:05Z</time>
      </trkpt>
      <trkpt lat="44.1185" lon="3.24411">
        <ele>459</ele>
        <time>2017-03-02T19:56:05Z</time>
      </trkpt>
      <trkpt lat="44.11851" lon="3.24416">
        <ele>458</ele>
        <time>2017-03-02T19:58:05Z</time>
      </trkpt>
      <trkpt lat="44.11851" lon="3.2442">
        <ele>457</ele>
        <time>2017-03-02T20:00:05Z</time>
      </trkpt>
      <trkpt lat="44.1185" lon="3.24426">
        <ele>456</ele>
        <time>2017-03-02T20:02:05Z</time>
      </trkpt>
      <trkpt lat="44.11848" lon="3.24436">
        <ele>453</ele>
        <time>2017-03-02T20:04:05Z</time>
      </trkpt>
      <trkpt lat="44.11849" lon="3.24442">
        <ele>451</ele>
        <time>2017-03-02T20:06:05Z</time>
      </trkpt>
      <trkpt lat="44.11851" lon="3.2445">
        <ele>447</ele>
        <time>2017-03-02T20:08:05Z</time>
      </trkpt>
      <trkpt lat="44.11852" lon="3.24454">
        <ele>446</ele>
        <time>2017-03-02T20:10:05Z</time>
      </trkpt>
      <trkpt lat="44.11855" lon="3.24456">
        <ele>444</ele>
        <time>2017-03-02T20:12:05Z</time>
      </trkpt>
      <trkpt lat="44.11858" lon="3.24456">
        <ele>443</ele>
        <time>2017-03-02T20:14:05Z</time>
      </trkpt>
      <trkpt lat="44.1186" lon="3.24454">
        <ele>442</ele>
        <time>2017-03-02T20:16:05Z</time>
      </trkpt>
      <trkpt lat="44.11862" lon="3.24452">
        <ele>442</ele>
        <time>2017-03-02T20:18:05Z</time>
      </trkpt>
      <trkpt lat="44.1187" lon="3.24446">
        <ele>440</ele>
        <time>2017-03-02T20:20:05Z</time>
      </trkpt>
      <trkpt lat="44.11876" lon="3.24445">
        <ele>438</ele>
        <time>2017-03-02T20:22:05Z</time>
      </trkpt>
      <trkpt lat="44.11876" lon="3.24448">
        <ele>437</ele>
        <time>2017-03-02T20:24:05Z</time>
      </trkpt>
      <trkpt lat="44.11876" lon="3.24452">
        <ele>436</ele>
        <time>2017-03-02T20:26:05Z</time>
      </trkpt>
      <trkpt lat="44.11873" lon="3.24465">
        <ele>434</ele>
        <time>2017-03-02T20:28:05Z</time>
      </trkpt>
      <trkpt lat="44.11873" lon="3.24469">
        <ele>433</ele>
        <time>2017-03-02T20:30:05Z</time>
      </trkpt>
      <trkpt lat="44.11876" lon="3.24471">
        <ele>432</ele>
        <time>2017-03-02T20:32:05Z</time>
      </trkpt>
      <trkpt lat="44.1188" lon="3.24468">
        <ele>431</ele>
        <time>2017-03-02T20:34:05Z</time>
      </trkpt>
      <trkpt lat="44.11888" lon="3.24463">
        <ele>429</ele>
        <time>2017-03-02T20:36:05Z</time>
      </trkpt>
      <trkpt lat="44.11892" lon="3.24457">
        <ele>428</ele>
        <time>2017-03-02T20:38:05Z</time>
      </trkpt>
      <trkpt lat="44.11894" lon="3.24456">
        <ele>428</ele>
        <time>2017-03-02T20:40:05Z</time>
      </trkpt>
      <trkpt lat="44.11896" lon="3.24458">
        <ele>426</ele>
        <time>2017-03-02T20:42:05Z</time>
      </trkpt>
      <trkpt lat="44.11896" lon="3.24463">
        <ele>426</ele>
        <time>2017-03-02T20:44:05Z</time>
      </trkpt>
      <trkpt lat="44.11893" lon="3.24468">
        <ele>426</ele>
        <time>2017-03-02T20:46:05Z</time>
      </trkpt>
      <trkpt lat="44.11888" lon="3.24477">
        <ele>426</ele>
        <time>2017-03-02T20:48:05Z</time>
      </trkpt>
      <trkpt lat="44.11872" lon="3.24498">
        <ele>426</ele>
        <time>2017-03-02T20:50:05Z</time>
      </trkpt>
      <trkpt lat="44.11868" lon="3.24509">
        <ele>426</ele>
        <time>2017-03-02T20:52:05Z</time>
      </trkpt>
      <trkpt lat="44.11868" lon="3.24512">
        <ele>425</ele>
        <time>2017-03-02T20:54:05Z</time>
      </trkpt>
      <trkpt lat="44.11868" lon="3.24514">
        <ele>425</ele>
        <time>2017-03-02T20:56:05Z</time>
      </trkpt>
      <trkpt lat="44.11869" lon="3.24514">
        <ele>425</ele>
        <time>2017-03-02T20:58:05Z</time>
      </trkpt>
      <trkpt lat="44.11871" lon="3.24514">
        <ele>424</ele>
        <time>2017-03-02T21:00:05Z</time>
      </trkpt>
      <trkpt lat="44.11875" lon="3.24509">
        <ele>424</ele>
        <time>2017-03-02T21:02:05Z</time>
      </trkpt>
      <trkpt lat="44.1188" lon="3.24502">
        <ele>424</ele>
        <time>2017-03-02T21:04:05Z</time>
      </trkpt>
      <trkpt lat="44.11889" lon="3.24493">
        <ele>423</ele>
        <time>2017-03-02T21:06:05Z</time>
      </trkpt>
      <trkpt lat="44.11893" lon="3.24487">
        <ele>423</ele>
        <time>2017-03-02T21:08:05Z</time>
      </trkpt>
      <trkpt lat="44.11898" lon="3.24482">
        <ele>422</ele>
        <time>2017-03-02T21:10:05Z</time>
      </trkpt>
      <trkpt lat="44.11903" lon="3.24476">
        <ele>421</ele>
        <time>2017-03-02T21:12:05Z</time>
      </trkpt>
      <trkpt lat="44.11905" lon="3.24475">
        <ele>420</ele>
        <time>2017-03-02T21:14:05Z</time>
      </trkpt>
      <trkpt lat="44.11906" lon="3.24474">
        <ele>420</ele>
        <time>2017-03-02T21:16:05Z</time>
      </trkpt>
      <trkpt lat="44.11907" lon="3.24474">
        <ele>420</ele>
        <time>2017-03-02T21:18:05Z</time>
      </trkpt>
      <trkpt lat="44.11909" lon="3.24474">
        <ele>419</ele>
        <time>2017-03-02T21:20:05Z</time>
      </trkpt>
      <trkpt lat="44.11911" lon="3.24477">
        <ele>418</ele>
        <time>2017-03-02T21:22:05Z</time>
      </trkpt>
      <trkpt lat="44.11919" lon="3.24485">
        <ele>416</ele>
        <time>2017-03-02T21:24:05Z</time>
      </trkpt>
      <trkpt lat="44.11923" lon="3.24488">
        <ele>417</ele>
        <time>2017-03-02T21:26:05Z</time>
      </trkpt>
      <trkpt lat="44.11925" lon="3.2449">
        <ele>417</ele>
        <time>2017-03-02T21:28:05Z</time>
      </trkpt>
      <trkpt lat="44.11931" lon="3.24495">
        <ele>418</ele>
        <time>2017-03-02T21:30:05Z</time>
      </trkpt>
      <trkpt lat="44.1194" lon="3.24499">
        <ele>420</ele>
        <time>2017-03-02T21:32:05Z</time>
      </trkpt>
      <trkpt lat="44.11947" lon="3.24502">
        <ele>423</ele>
        <time>2017-03-02T21:34:05Z</time>
      </trkpt>
      <trkpt lat="44.1195" lon="3.24504">
        <ele>423</ele>
        <time>2017-03-02T21:36:05Z</time>
      </trkpt>
      <trkpt lat="44.11952" lon="3.24505">
        <ele>424</ele>
        <time>2017-03-02T21:38:05Z</time>
      </trkpt>
      <trkpt lat="44.11952" lon="3.24509">
        <ele>424</ele>
        <time>2017-03-02T21:40:05Z</time>
      </trkpt>
      <trkpt lat="44.11953" lon="3.24512">
        <ele>425</ele>
        <time>2017-03-02T21:42:05Z</time>
      </trkpt>
      <trkpt lat="44.11952" lon="3.2452">
        <ele>425</ele>
        <time>2017-03-02T21:44:05Z</time>
      </trkpt>
      <trkpt lat="44.11951" lon="3.2453">
        <ele>426</ele>
        <time>2017-03-02T21:46:05Z</time>
      </trkpt>
      <trkpt lat="44.1195" lon="3.24538">
        <ele>426</ele>
        <time>2017-03-02T21:48:05Z</time>
      </trkpt>
      <trkpt lat="44.1195" lon="3.24542">
        <ele>426</ele>
        <time>2017-03-02T21:50:05Z</time>
      </trkpt>
      <trkpt lat="44.1195" lon="3.24545">
        <ele>426</ele>
        <time>2017-03-02T21:52:05Z</time>
      </trkpt>
      <trkpt lat="44.11951" lon="3.24547">
        <ele>427</ele>
        <time>2017-03-02T21:54:05Z</time>
      </trkpt>
      <trkpt lat="44.11954" lon="3.2455">
        <ele>428</ele>
        <time>2017-03-02T21:56:05Z</time>
      </trkpt>
      <trkpt lat="44.11957" lon="3.24554">
        <ele>429</ele>
        <time>2017-03-02T21:58:05Z</time>
      </trkpt>
      <trkpt lat="44.11962" lon="3.24559">
        <ele>431</ele>
        <time>2017-03-02T22:00:05Z</time>
      </trkpt>
      <trkpt lat="44.11962" lon="3.24559">
        <ele>431</ele>
        <time>2017-03-02T22:02:05Z</time>
      </trkpt>
      <trkpt lat="44.11958" lon="3.24566">
        <ele>431</ele>
        <time>2017-03-02T22:04:05Z</time>
      </trkpt>
      <trkpt lat="44.11955" lon="3.2457">
        <ele>430</ele>
        <time>2017-03-02T22:06:05Z</time>
      </trkpt>
      <trkpt lat="44.11952" lon="3.24575">
        <ele>429</ele>
        <time>2017-03-02T22:08:05Z</time>
      </trkpt>
      <trkpt lat="44.11948" lon="3.24578">
        <ele>428</ele>
        <time>2017-03-02T22:10:05Z</time>
      </trkpt>
      <trkpt lat="44.11946" lon="3.2458">
        <ele>428</ele>
        <time>2017-03-02T22:12:05Z</time>
      </trkpt>
      <trkpt lat="44.11944" lon="3.24582">
        <ele>427</ele>
        <time>2017-03-02T22:14:05Z</time>
      </trkpt>
      <trkpt lat="44.11939" lon="3.24586">
        <ele>426</ele>
        <time>2017-03-02T22:16:05Z</time>
      </trkpt>
      <trkpt lat="44.11937" lon="3.24588">
        <ele>426</ele>
        <time>2017-03-02T22:18:05Z</time>
      </trkpt>
      <trkpt lat="44.11934" lon="3.2459">
        <ele>426</ele>
        <time>2017-03-02T22:20:05Z</time>
      </trkpt>
      <trkpt lat="44.11932" lon="3.24591">
        <ele>426</ele>
        <time>2017-03-02T22:22:05Z</time>
      </trkpt>
      <trkpt lat="44.11926" lon="3.24594">
        <ele>425</ele>
        <time>2017-03-02T22:24:05Z</time>
      </trkpt>
      <trkpt lat="44.11919" lon="3.24596">
        <ele>423</ele>
        <time>2017-03-02T22:26:05Z</time>
      </trkpt>
      <trkpt lat="44.11904" lon="3.24601">
        <ele>424</ele>
        <time>2017-03-02T22:28:05Z</time>
      </trkpt>
      <trkpt lat="44.1189" lon="3.24604">
        <ele>424</ele>
        <time>2017-03-02T22:30:05Z</time>
      </trkpt>
      <trkpt lat="44.11883" lon="3.24607">
        <ele>424</ele>
        <time>2017-03-02T22:32:05Z</time>
      </trkpt>
      <trkpt lat="44.1187" lon="3.2461">
        <ele>424</ele>
        <time>2017-03-02T22:34:05Z</time>
      </trkpt>
      <trkpt lat="44.11859" lon="3.24612">
        <ele>424</ele>
        <time>2017-03-02T22:36:05Z</time>
      </trkpt>
      <trkpt lat="44.11851" lon="3.24613">
        <ele>424</ele>
        <time>2017-03-02T22:38:05Z</time>
      </trkpt>
      <trkpt lat="44.1184" lon="3.24613">
        <ele>423</ele>
        <time>2017-03-02T22:40:05Z</time>
      </trkpt>
      <trkpt lat="44.11833" lon="3.24614">
        <ele>423</ele>
        <time>2017-03-02T22:42:05Z</time>
      </trkpt>
      <trkpt lat="44.11807" lon="3.24618">
        <ele>424</ele>
        <time>2017-03-02T22:44:05Z</time>
      </trkpt>
      <trkpt lat="44.11799" lon="3.2462">
        <ele>424</ele>
        <time>2017-03-02T22:46:05Z</time>
      </trkpt>
      <trkpt lat="44.1179" lon="3.24622">
        <ele>424</ele>
        <time>2017-03-02T22:48:05Z</time>
      </trkpt>
      <trkpt lat="44.11783" lon="3.24624">
        <ele>424</ele>
        <time>2017-03-02T22:50:05Z</time>
      </trkpt>
      <trkpt lat="44.11773" lon="3.24628">
        <ele>424</ele>
        <time>2017-03-02T22:52:05Z</time>
      </trkpt>
      <trkpt lat="44.11765" lon="3.24631">
        <ele>424</ele>
        <time>2017-03-02T22:54:05Z</time>
      </trkpt>
      <trkpt lat="44.11759" lon="3.24634">
        <ele>424</ele>
        <time>2017-03-02T22:56:05Z</time>
      </trkpt>
      <trkpt lat="44.11744" lon="3.24643">
        <ele>424</ele>
        <time>2017-03-02T22:58:05Z</time>
      </trkpt>
      <trkpt lat="44.11737" lon="3.24649">
        <ele>424</ele>
        <time>2017-03-02T23:00:05Z</time>
      </trkpt>
      <trkpt lat="44.11729" lon="3.24654">
        <ele>423</ele>
        <time>2017-03-02T23:02:05Z</time>
      </trkpt>
      <trkpt lat="44.11721" lon="3.24661">
        <ele>422</ele>
        <time>2017-03-02T23:04:05Z</time>
      </trkpt>
      <trkpt lat="44.11714" lon="3.24666">
        <ele>421</ele>
        <time>2017-03-02T23:06:05Z</time>
      </trkpt>
      <trkpt lat="44.11707" lon="3.24672">
        <ele>422</ele>
        <time>2017-03-02T23:08:05Z</time>
      </trkpt>
      <trkpt lat="44.11699" lon="3.24678">
        <ele>422</ele>
        <time>2017-03-02T23:10:05Z</time>
      </trkpt>
      <trkpt lat="44.11691" lon="3.24686">
        <ele>423</ele>
        <time>2017-03-02T23:12:05Z</time>
      </trkpt>
      <trkpt lat="44.11677" lon="3.24699">
        <ele>423</ele>
        <time>2017-03-02T23:14:05Z</time>
      </trkpt>
      <trkpt lat="44.11669" lon="3.24707">
        <ele>423</ele>
        <time>2017-03-02T23:16:05Z</time>
      </trkpt>
      <trkpt lat="44.11662" lon="3.24714">
        <ele>424</ele>
        <time>2017-03-02T23:18:05Z</time>
      </trkpt>
      <trkpt lat="44.11655" lon="3.24723">
        <ele>425</ele>
        <time>2017-03-02T23:20:05Z</time>
      </trkpt>
      <trkpt lat="44.11648" lon="3.2473">
        <ele>426</ele>
        <time>2017-03-02T23:22:05Z</time>
      </trkpt>
      <trkpt lat="44.1164" lon="3.24741">
        <ele>426</ele>
        <time>2017-03-02T23:24:05Z</time>
      </trkpt>
      <trkpt lat="44.11624" lon="3.24762">
        <ele>428</ele>
        <time>2017-03-02T23:26:05Z</time>
      </trkpt>
      <trkpt lat="44.11608" lon="3.24782">
        <ele>429</ele>
        <time>2017-03-02T23:28:05Z</time>
      </trkpt>
      <trkpt lat="44.11597" lon="3.24797">
        <ele>429</ele>
        <time>2017-03-02T23:30:05Z</time>
      </trkpt>
      <trkpt lat="44.11586" lon="3.24811">
        <ele>428</ele>
        <time>2017-03-02T23:32:05Z</time>
      </trkpt>
      <trkpt lat="44.11558" lon="3.24845">
        <ele>433</ele>
        <time>2017-03-02T23:34:05Z</time>
      </trkpt>
      <trkpt lat="44.11543" lon="3.24865">
        <ele>438</ele>
        <time>2017-03-02T23:36:05Z</time>
      </trkpt>
      <trkpt lat="44.11532" lon="3.24881">
        <ele>440</ele>
        <time>2017-03-02T23:38:05Z</time>
      </trkpt>
      <trkpt lat="44.11521" lon="3.24897">
        <ele>440</ele>
        <time>2017-03-02T23:40:05Z</time>
      </trkpt>
      <trkpt lat="44.11512" lon="3.24913">
        <ele>438</ele>
        <time>2017-03-02T23:42:05Z</time>
      </trkpt>
      <trkpt lat="44.115" lon="3.2493">
        <ele>440</ele>
        <time>2017-03-02T23:44:05Z</time>
      </trkpt>
      <trkpt lat="44.11495" lon="3.24938">
        <ele>444</ele>
        <time>2017-03-02T23:46:05Z</time>
      </trkpt>
      <trkpt lat="44.11489" lon="3.24945">
        <ele>446</ele>
        <time>2017-03-02T23:48:05Z</time>
      </trkpt>
      <trkpt lat="44.11484" lon="3.24951">
        <ele>448</ele>
        <time>2017-03-02T23:50:05Z</time>
      </trkpt>
      <trkpt lat="44.11478" lon="3.24956">
        <ele>449</ele>
        <time>2017-03-02T23:52:05Z</time>
      </trkpt>
      <trkpt lat="44.11474" lon="3.24959">
        <ele>449</ele>
        <time>2017-03-02T23:54:05Z</time>
      </trkpt>
      <trkpt lat="44.11468" lon="3.24963">
        <ele>449</ele>
        <time>2017-03-02T23:56:05Z</time>
      </trkpt>
      <trkpt lat="44.11463" lon="3.24965">
        <ele>449</ele>
        <time>2017-03-02T23:58:05Z</time>
      </trkpt>
      <trkpt lat="44.11456" lon="3.24968">
        <ele>448</ele>
        <time>2017-03-03T00:00:05Z</time>
      </trkpt>
      <trkpt lat="44.11449" lon="3.2497">
        <ele>447</ele>
        <time>2017-03-03T00:02:05Z</time>
      </trkpt>
      <trkpt lat="44.11436" lon="3.24972">
        <ele>443</ele>
        <time>2017-03-03T00:04:05Z</time>
      </trkpt>
      <trkpt lat="44.11424" lon="3.24973">
        <ele>440</ele>
        <time>2017-03-03T00:06:05Z</time>
      </trkpt>
      <trkpt lat="44.11406" lon="3.24974">
        <ele>437</ele>
        <time>2017-03-03T00:08:05Z</time>
      </trkpt>
      <trkpt lat="44.114" lon="3.24974">
        <ele>437</ele>
        <time>2017-03-03T00:10:05Z</time>
      </trkpt>
      <trkpt lat="44.11391" lon="3.24974">
        <ele>436</ele>
        <time>2017-03-03T00:12:05Z</time>
      </trkpt>
      <trkpt lat="44.11391" lon="3.24974">
        <ele>436</ele>
        <time>2017-03-03T00:14:05Z</time>
      </trkpt>
      <trkpt lat="44.1139" lon="3.24977">
        <ele>437</ele>
        <time>2017-03-03T00:16:05Z</time>
      </trkpt>
      <trkpt lat="44.1139" lon="3.24979">
        <ele>437</ele>
        <time>2017-03-03T00:18:05Z</time>
      </trkpt>
      <trkpt lat="44.11389" lon="3.2498">
        <ele>438</ele>
        <time>2017-03-03T00:20:05Z</time>
      </trkpt>
      <trkpt lat="44.11387" lon="3.24982">
        <ele>438</ele>
        <time>2017-03-03T00:22:05Z</time>
      </trkpt>
      <trkpt lat="44.11384" lon="3.24984">
        <ele>438</ele>
        <time>2017-03-03T00:24:05Z</time>
      </trkpt>
      <trkpt lat="44.11379" lon="3.24987">
        <ele>438</ele>
        <time>2017-03-03T00:26:05Z</time>
      </trkpt>
      <trkpt lat="44.11373" lon="3.2499">
        <ele>438</ele>
        <time>2017-03-03T00:28:05Z</time>
      </trkpt>
      <trkpt lat="44.11365" lon="3.24991">
        <ele>438</ele>
        <time>2017-03-03T00:30:05Z</time>
      </trkpt>
      <trkpt lat="44.11351" lon="3.24993">
        <ele>437</ele>
        <time>2017-03-03T00:32:05Z</time>
      </trkpt>
      <trkpt lat="44.1133" lon="3.24996">
        <ele>435</ele>
        <time>2017-03-03T00:34:05Z</time>
      </trkpt>
      <trkpt lat="44.11312" lon="3.25">
        <ele>434</ele>
        <time>2017-03-03T00:36:05Z</time>
      </trkpt>
      <trkpt lat="44.11295" lon="3.25003">
        <ele>433</ele>
        <time>2017-03-03T00:38:05Z</time>
      </trkpt>
      <trkpt lat="44.11279" lon="3.25007">
        <ele>432</ele>
        <time>2017-03-03T00:40:05Z</time>
      </trkpt>
      <trkpt lat="44.11262" lon="3.25012">
        <ele>431</ele>
        <time>2017-03-03T00:42:05Z</time>
      </trkpt>
      <trkpt lat="44.11248" lon="3.25015">
        <ele>430</ele>
        <time>2017-03-03T00:44:05Z</time>
      </trkpt>
      <trkpt lat="44.11228" lon="3.25023">
        <ele>429</ele>
        <time>2017-03-03T00:46:05Z</time>
      </trkpt>
      <trkpt lat="44.1122" lon="3.25027">
        <ele>429</ele>
        <time>2017-03-03T00:48:05Z</time>
      </trkpt>
      <trkpt lat="44.11216" lon="3.25029">
        <ele>428</ele>
        <time>2017-03-03T00:50:05Z</time>
      </trkpt>
      <trkpt lat="44.11213" lon="3.25032">
        <ele>428</ele>
        <time>2017-03-03T00:52:05Z</time>
      </trkpt>
      <trkpt lat="44.11212" lon="3.25034">
        <ele>428</ele>
        <time>2017-03-03T00:54:05Z</time>
      </trkpt>
      <trkpt lat="44.11211" lon="3.25037">
        <ele>429</ele>
        <time>2017-03-03T00:56:05Z</time>
      </trkpt>
      <trkpt lat="44.11212" lon="3.25039">
        <ele>429</ele>
        <time>2017-03-03T00:58:05Z</time>
      </trkpt>
      <trkpt lat="44.11212" lon="3.25041">
        <ele>429</ele>
        <time>2017-03-03T01:00:05Z</time>
      </trkpt>
      <trkpt lat="44.11214" lon="3.25042">
        <ele>430</ele>
        <time>2017-03-03T01:02:05Z</time>
      </trkpt>
      <trkpt lat="44.11216" lon="3.25042">
        <ele>430</ele>
        <time>2017-03-03T01:04:05Z</time>
      </trkpt>
      <trkpt lat="44.11219" lon="3.25042">
        <ele>431</ele>
        <time>2017-03-03T01:06:05Z</time>
      </trkpt>
      <trkpt lat="44.11225" lon="3.2504">
        <ele>431</ele>
        <time>2017-03-03T01:08:05Z</time>
      </trkpt>
      <trkpt lat="44.11232" lon="3.25038">
        <ele>432</ele>
        <time>2017-03-03T01:10:05Z</time>
      </trkpt>
      <trkpt lat="44.1124" lon="3.25037">
        <ele>433</ele>
        <time>2017-03-03T01:12:05Z</time>
      </trkpt>
      <trkpt lat="44.11249" lon="3.25037">
        <ele>434</ele>
        <time>2017-03-03T01:14:05Z</time>
      </trkpt>
      <trkpt lat="44.11263" lon="3.25037">
        <ele>437</ele>
        <time>2017-03-03T01:16:05Z</time>
      </trkpt>
      <trkpt lat="44.11274" lon="3.25036">
        <ele>439</ele>
        <time>2017-03-03T01:18:05Z</time>
      </trkpt>
      <trkpt lat="44.11291" lon="3.25033">
        <ele>442</ele>
        <time>2017-03-03T01:20:05Z</time>
      </trkpt>
      <trkpt lat="44.11306" lon="3.25032">
        <ele>445</ele>
        <time>2017-03-03T01:22:05Z</time>
      </trkpt>
      <trkpt lat="44.11314" lon="3.25032">
        <ele>446</ele>
        <time>2017-03-03T01:24:05Z</time>
      </trkpt>
      <trkpt lat="44.11323" lon="3.25035">
        <ele>449</ele>
        <time>2017-03-03T01:26:05Z</time>
      </trkpt>
      <trkpt lat="44.11334" lon="3.25038">
        <ele>453</ele>
        <time>2017-03-03T01:28:05Z</time>
      </trkpt>
      <trkpt lat="44.11344" lon="3.25041">
        <ele>456</ele>
        <time>2017-03-03T01:30:05Z</time>
      </trkpt>
      <trkpt lat="44.11349" lon="3.25042">
        <ele>457</ele>
        <time>2017-03-03T01:32:05Z</time>
      </trkpt>
      <trkpt lat="44.11353" lon="3.25042">
        <ele>458</ele>
        <time>2017-03-03T01:34:05Z</time>
      </trkpt>
      <trkpt lat="44.11354" lon="3.25042">
        <ele>458</ele>
        <time>2017-03-03T01:36:05Z</time>
      </trkpt>
      <trkpt lat="44.11355" lon="3.25041">
        <ele>457</ele>
        <time>2017-03-03T01:38:05Z</time>
      </trkpt>
      <trkpt lat="44.11356" lon="3.25041">
        <ele>458</ele>
        <time>2017-03-03T01:40:05Z</time>
      </trkpt>
      <trkpt lat="44.1136" lon="3.25037">
        <ele>456</ele>
        <time>2017-03-03T01:42:05Z</time>
      </trkpt>
      <trkpt lat="44.11364" lon="3.25033">
        <ele>455</ele>
        <time>2017-03-03T01:44:05Z</time>
      </trkpt>
      <trkpt lat="44.11366" lon="3.25032">
        <ele>455</ele>
        <time>2017-03-03T01:46:05Z</time>
      </trkpt>
      <trkpt lat="44.11367" lon="3.25032">
        <ele>455</ele>
        <time>2017-03-03T01:48:05Z</time>
      </trkpt>
      <trkpt lat="44.11368" lon="3.25032">
        <ele>455</ele>
        <time>2017-03-03T01:50:05Z</time>
      </trkpt>
      <trkpt lat="44.11369" lon="3.25032">
        <ele>455</ele>
        <time>2017-03-03T01:52:05Z</time>
      </trkpt>
      <trkpt lat="44.1137" lon="3.25033">
        <ele>456</ele>
        <time>2017-03-03T01:54:05Z</time>
      </trkpt>
      <trkpt lat="44.11371" lon="3.25035">
        <ele>457</ele>
        <time>2017-03-03T01:56:05Z</time>
      </trkpt>
      <trkpt lat="44.11371" lon="3.25036">
        <ele>457</ele>
        <time>2017-03-03T01:58:05Z</time>
      </trkpt>
      <trkpt lat="44.11371" lon="3.25038">
        <ele>458</ele>
        <time>2017-03-03T02:00:05Z</time>
      </trkpt>
      <trkpt lat="44.1137" lon="3.2504">
        <ele>459</ele>
        <time>2017-03-03T02:02:05Z</time>
      </trkpt>
      <trkpt lat="44.11366" lon="3.25045">
        <ele>461</ele>
        <time>2017-03-03T02:04:05Z</time>
      </trkpt>
      <trkpt lat="44.11362" lon="3.25048">
        <ele>462</ele>
        <time>2017-03-03T02:06:05Z</time>
      </trkpt>
      <trkpt lat="44.11359" lon="3.25049">
        <ele>462</ele>
        <time>2017-03-03T02:08:05Z</time>
      </trkpt>
      <trkpt lat="44.11347" lon="3.2505">
        <ele>460</ele>
        <time>2017-03-03T02:10:05Z</time>
      </trkpt>
      <trkpt lat="44.11332" lon="3.2505">
        <ele>458</ele>
        <time>2017-03-03T02:12:05Z</time>
      </trkpt>
      <trkpt lat="44.11318" lon="3.25051">
        <ele>455</ele>
        <time>2017-03-03T02:14:05Z</time>
      </trkpt>
      <trkpt lat="44.11308" lon="3.25052">
        <ele>453</ele>
        <time>2017-03-03T02:16:05Z</time>
      </trkpt>
      <trkpt lat="44.113" lon="3.25056">
        <ele>452</ele>
        <time>2017-03-03T02:18:05Z</time>
      </trkpt>
      <trkpt lat="44.11292" lon="3.2506">
        <ele>451</ele>
        <time>2017-03-03T02:20:05Z</time>
      </trkpt>
      <trkpt lat="44.11283" lon="3.25062">
        <ele>449</ele>
        <time>2017-03-03T02:22:05Z</time>
      </trkpt>
      <trkpt lat="44.11271" lon="3.25062">
        <ele>446</ele>
        <time>2017-03-03T02:24:05Z</time>
      </trkpt>
      <trkpt lat="44.11258" lon="3.25063">
        <ele>442</ele>
        <time>2017-03-03T02:26:05Z</time>
      </trkpt>
      <trkpt lat="44.1125" lon="3.25064">
        <ele>440</ele>
        <time>2017-03-03T02:28:05Z</time>
      </trkpt>
      <trkpt lat="44.11243" lon="3.25068">
        <ele>439</ele>
        <time>2017-03-03T02:30:05Z</time>
      </trkpt>
      <trkpt lat="44.1124" lon="3.2507">
        <ele>439</ele>
        <time>2017-03-03T02:32:05Z</time>
      </trkpt>
      <trkpt lat="44.11237" lon="3.25072">
        <ele>439</ele>
        <time>2017-03-03T02:34:05Z</time>
      </trkpt>
      <trkpt lat="44.11235" lon="3.25075">
        <ele>439</ele>
        <time>2017-03-03T02:36:05Z</time>
      </trkpt>
      <trkpt lat="44.11229" lon="3.2508">
        <ele>438</ele>
        <time>2017-03-03T02:38:05Z</time>
      </trkpt>
      <trkpt lat="44.11221" lon="3.25085">
        <ele>437</ele>
        <time>2017-03-03T02:40:05Z</time>
      </trkpt>
      <trkpt lat="44.11218" lon="3.25088">
        <ele>436</ele>
        <time>2017-03-03T02:42:05Z</time>
      </trkpt>
      <trkpt lat="44.11216" lon="3.2509">
        <ele>435</ele>
        <time>2017-03-03T02:44:05Z</time>
      </trkpt>
      <trkpt lat="44.11214" lon="3.25093">
        <ele>435</ele>
        <time>2017-03-03T02:46:05Z</time>
      </trkpt>
      <trkpt lat="44.11214" lon="3.25098">
        <ele>435</ele>
        <time>2017-03-03T02:48:05Z</time>
      </trkpt>
      <trkpt lat="44.11213" lon="3.25108">
        <ele>435</ele>
        <time>2017-03-03T02:50:05Z</time>
      </trkpt>
      <trkpt lat="44.11214" lon="3.25119">
        <ele>435</ele>
        <time>2017-03-03T02:52:05Z</time>
      </trkpt>
      <trkpt lat="44.11215" lon="3.25125">
        <ele>435</ele>
        <time>2017-03-03T02:54:05Z</time>
      </trkpt>
      <trkpt lat="44.11215" lon="3.2513">
        <ele>435</ele>
        <time>2017-03-03T02:56:05Z</time>
      </trkpt>
      <trkpt lat="44.11217" lon="3.25136">
        <ele>435</ele>
        <time>2017-03-03T02:58:05Z</time>
      </trkpt>
      <trkpt lat="44.1122" lon="3.25142">
        <ele>436</ele>
        <time>2017-03-03T03:00:05Z</time>
      </trkpt>
      <trkpt lat="44.11223" lon="3.25144">
        <ele>436</ele>
        <time>2017-03-03T03:02:05Z</time>
      </trkpt>
      <trkpt lat="44.11227" lon="3.25147">
        <ele>437</ele>
        <time>2017-03-03T03:04:05Z</time>
      </trkpt>
      <trkpt lat="44.11231" lon="3.2515">
        <ele>438</ele>
        <time>2017-03-03T03:06:05Z</time>
      </trkpt>
      <trkpt lat="44.11236" lon="3.25153">
        <ele>439</ele>
        <time>2017-03-03T03:08:05Z</time>
      </trkpt>
      <trkpt lat="44.11238" lon="3.25156">
        <ele>439</ele>
        <time>2017-03-03T03:10:05Z</time>
      </trkpt>
      <trkpt lat="44.11241" lon="3.25159">
        <ele>440</ele>
        <time>2017-03-03T03:12:05Z</time>
      </trkpt>
      <trkpt lat="44.11244" lon="3.2516">
        <ele>440</ele>
        <time>2017-03-03T03:14:05Z</time>
      </trkpt>
      <trkpt lat="44.11247" lon="3.25159">
        <ele>441</ele>
        <time>2017-03-03T03:16:05Z</time>
      </trkpt>
      <trkpt lat="44.11252" lon="3.25157">
        <ele>442</ele>
        <time>2017-03-03T03:18:05Z</time>
      </trkpt>
      <trkpt lat="44.11259" lon="3.25156">
        <ele>446</ele>
        <time>2017-03-03T03:20:05Z</time>
      </trkpt>
      <trkpt lat="44.11265" lon="3.25157">
        <ele>449</ele>
        <time>2017-03-03T03:22:05Z</time>
      </trkpt>
      <trkpt lat="44.1127" lon="3.25159">
        <ele>452</ele>
        <time>2017-03-03T03:24:05Z</time>
      </trkpt>
      <trkpt lat="44.11276" lon="3.25165">
        <ele>455</ele>
        <time>2017-03-03T03:26:05Z</time>
      </trkpt>
      <trkpt lat="44.11279" lon="3.2517">
        <ele>457</ele>
        <time>2017-03-03T03:28:05Z</time>
      </trkpt>
      <trkpt lat="44.11282" lon="3.25175">
        <ele>458</ele>
        <time>2017-03-03T03:30:05Z</time>
      </trkpt>
      <trkpt lat="44.11284" lon="3.25181">
        <ele>459</ele>
        <time>2017-03-03T03:32:05Z</time>
      </trkpt>
      <trkpt lat="44.11287" lon="3.25188">
        <ele>460</ele>
        <time>2017-03-03T03:34:05Z</time>
      </trkpt>
      <trkpt lat="44.11288" lon="3.25198">
        <ele>460</ele>
        <time>2017-03-03T03:36:05Z</time>
      </trkpt>
      <trkpt lat="44.11288" lon="3.25206">
        <ele>460</ele>
        <time>2017-03-03T03:38:05Z</time>
      </trkpt>
      <trkpt lat="44.11286" lon="3.2522">
        <ele>458</ele>
        <time>2017-03-03T03:40:05Z</time>
      </trkpt>
      <trkpt lat="44.11284" lon="3.25232">
        <ele>456</ele>
        <time>2017-03-03T03:42:05Z</time>
      </trkpt>
      <trkpt lat="44.11284" lon="3.25238">
        <ele>456</ele>
        <time>2017-03-03T03:44:05Z</time>
      </trkpt>
      <trkpt lat="44.11284" lon="3.25241">
        <ele>456</ele>
        <time>2017-03-03T03:46:05Z</time>
      </trkpt>
      <trkpt lat="44.11285" lon="3.25244">
        <ele>456</ele>
        <time>2017-03-03T03:48:05Z</time>
      </trkpt>
      <trkpt lat="44.11286" lon="3.25246">
        <ele>456</ele>
        <time>2017-03-03T03:50:05Z</time>
      </trkpt>
      <trkpt lat="44.11288" lon="3.25248">
        <ele>457</ele>
        <time>2017-03-03T03:52:05Z</time>
      </trkpt>
      <trkpt lat="44.11289" lon="3.25249">
        <ele>458</ele>
        <time>2017-03-03T03:54:05Z</time>
      </trkpt>
      <trkpt lat="44.11292" lon="3.2525">
        <ele>460</ele>
        <time>2017-03-03T03:56:05Z</time>
      </trkpt>
      <trkpt lat="44.11295" lon="3.25253">
        <ele>461</ele>
        <time>2017-03-03T03:58:05Z</time>
      </trkpt>
      <trkpt lat="44.113" lon="3.2526">
        <ele>464</ele>
        <time>2017-03-03T04:00:05Z</time>
      </trkpt>
      <trkpt lat="44.11303" lon="3.25266">
        <ele>465</ele>
        <time>2017-03-03T04:02:05Z</time>
      </trkpt>
      <trkpt lat="44.11307" lon="3.2528">
        <ele>467</ele>
        <time>2017-03-03T04:04:05Z</time>
      </trkpt>
      <trkpt lat="44.11309" lon="3.25287">
        <ele>468</ele>
        <time>2017-03-03T04:06:05Z</time>
      </trkpt>
      <trkpt lat="44.1131" lon="3.25295">
        <ele>468</ele>
        <time>2017-03-03T04:08:05Z</time>
      </trkpt>
      <trkpt lat="44.1131" lon="3.25305">
        <ele>468</ele>
        <time>2017-03-03T04:10:05Z</time>
      </trkpt>
      <trkpt lat="44.11309" lon="3.2531">
        <ele>467</ele>
        <time>2017-03-03T04:12:05Z</time>
      </trkpt>
      <trkpt lat="44.11308" lon="3.25316">
        <ele>466</ele>
        <time>2017-03-03T04:14:05Z</time>
      </trkpt>
      <trkpt lat="44.11304" lon="3.25325">
        <ele>463</ele>
        <time>2017-03-03T04:16:05Z</time>
      </trkpt>
      <trkpt lat="44.113" lon="3.2533">
        <ele>461</ele>
        <time>2017-03-03T04:18:05Z</time>
      </trkpt>
      <trkpt lat="44.11299" lon="3.25333">
        <ele>460</ele>
        <time>2017-03-03T04:20:05Z</time>
      </trkpt>
      <trkpt lat="44.11298" lon="3.25336">
        <ele>459</ele>
        <time>2017-03-03T04:22:05Z</time>
      </trkpt>
      <trkpt lat="44.11298" lon="3.25341">
        <ele>459</ele>
        <time>2017-03-03T04:24:05Z</time>
      </trkpt>
      <trkpt lat="44.11299" lon="3.25348">
        <ele>460</ele>
        <time>2017-03-03T04:26:05Z</time>
      </trkpt>
      <trkpt lat="44.113" lon="3.25361">
        <ele>460</ele>
        <time>2017-03-03T04:28:05Z</time>
      </trkpt>
      <trkpt lat="44.11303" lon="3.25377">
        <ele>462</ele>
        <time>2017-03-03T04:30:05Z</time>
      </trkpt>
      <trkpt lat="44.11306" lon="3.25388">
        <ele>463</ele>
        <time>2017-03-03T04:32:05Z</time>
      </trkpt>
      <trkpt lat="44.11309" lon="3.25394">
        <ele>465</ele>
        <time>2017-03-03T04:34:05Z</time>
      </trkpt>
      <trkpt lat="44.11312" lon="3.25401">
        <ele>466</ele>
        <time>2017-03-03T04:36:05Z</time>
      </trkpt>
      <trkpt lat="44.11315" lon="3.25405">
        <ele>468</ele>
        <time>2017-03-03T04:38:05Z</time>
      </trkpt>
      <trkpt lat="44.11317" lon="3.25409">
        <ele>469</ele>
        <time>2017-03-03T04:40:05Z</time>
      </trkpt>
      <trkpt lat="44.11319" lon="3.25414">
        <ele>470</ele>
        <time>2017-03-03T04:42:05Z</time>
      </trkpt>
      <trkpt lat="44.11319" lon="3.25418">
        <ele>470</ele>
        <time>2017-03-03T04:44:05Z</time>
      </trkpt>
      <trkpt lat="44.11319" lon="3.25423">
        <ele>470</ele>
        <time>2017-03-03T04:46:05Z</time>
      </trkpt>
      <trkpt lat="44.11318" lon="3.25434">
        <ele>471</ele>
        <time>2017-03-03T04:48:05Z</time>
      </trkpt>
      <trkpt lat="44.11316" lon="3.2545">
        <ele>472</ele>
        <time>2017-03-03T04:50:05Z</time>
      </trkpt>
      <trkpt lat="44.11312" lon="3.25475">
        <ele>473</ele>
        <time>2017-03-03T04:52:05Z</time>
      </trkpt>
      <trkpt lat="44.11307" lon="3.25499">
        <ele>474</ele>
        <time>2017-03-03T04:54:05Z</time>
      </trkpt>
      <trkpt lat="44.11304" lon="3.25516">
        <ele>473</ele>
        <time>2017-03-03T04:56:05Z</time>
      </trkpt>
      <trkpt lat="44.11302" lon="3.25523">
        <ele>473</ele>
        <time>2017-03-03T04:58:05Z</time>
      </trkpt>
      <trkpt lat="44.11301" lon="3.25527">
        <ele>473</ele>
        <time>2017-03-03T05:00:05Z</time>
      </trkpt>
      <trkpt lat="44.11299" lon="3.25532">
        <ele>472</ele>
        <time>2017-03-03T05:02:05Z</time>
      </trkpt>
      <trkpt lat="44.11296" lon="3.25537">
        <ele>471</ele>
        <time>2017-03-03T05:04:05Z</time>
      </trkpt>
      <trkpt lat="44.1129" lon="3.25545">
        <ele>469</ele>
        <time>2017-03-03T05:06:05Z</time>
      </trkpt>
      <trkpt lat="44.11288" lon="3.2555">
        <ele>468</ele>
        <time>2017-03-03T05:08:05Z</time>
      </trkpt>
      <trkpt lat="44.11286" lon="3.25554">
        <ele>467</ele>
        <time>2017-03-03T05:10:05Z</time>
      </trkpt>
      <trkpt lat="44.11285" lon="3.25558">
        <ele>467</ele>
        <time>2017-03-03T05:12:05Z</time>
      </trkpt>
      <trkpt lat="44.11284" lon="3.25564">
        <ele>467</ele>
        <time>2017-03-03T05:14:05Z</time>
      </trkpt>
      <trkpt lat="44.11284" lon="3.25569">
        <ele>467</ele>
        <time>2017-03-03T05:16:05Z</time>
      </trkpt>
      <trkpt lat="44.11284" lon="3.25574">
        <ele>468</ele>
        <time>2017-03-03T05:18:05Z</time>
      </trkpt>
      <trkpt lat="44.11285" lon="3.25583">
        <ele>469</ele>
        <time>2017-03-03T05:20:05Z</time>
      </trkpt>
      <trkpt lat="44.11286" lon="3.25585">
        <ele>469</ele>
        <time>2017-03-03T05:22:05Z</time>
      </trkpt>
      <trkpt lat="44.11287" lon="3.2559">
        <ele>469</ele>
        <time>2017-03-03T05:24:05Z</time>
      </trkpt>
      <trkpt lat="44.11291" lon="3.256">
        <ele>471</ele>
        <time>2017-03-03T05:26:05Z</time>
      </trkpt>
      <trkpt lat="44.11296" lon="3.2561">
        <ele>472</ele>
        <time>2017-03-03T05:28:05Z</time>
      </trkpt>
      <trkpt lat="44.11302" lon="3.25623">
        <ele>474</ele>
        <time>2017-03-03T05:30:05Z</time>
      </trkpt>
      <trkpt lat="44.11307" lon="3.25632">
        <ele>476</ele>
        <time>2017-03-03T05:32:05Z</time>
      </trkpt>
      <trkpt lat="44.11312" lon="3.25642">
        <ele>477</ele>
        <time>2017-03-03T05:34:05Z</time>
      </trkpt>
      <trkpt lat="44.11315" lon="3.25648">
        <ele>478</ele>
        <time>2017-03-03T05:36:05Z</time>
      </trkpt>
      <trkpt lat="44.11317" lon="3.25653">
        <ele>479</ele>
        <time>2017-03-03T05:38:05Z</time>
      </trkpt>
      <trkpt lat="44.1132" lon="3.25666">
        <ele>480</ele>
        <time>2017-03-03T05:40:05Z</time>
      </trkpt>
      <trkpt lat="44.11321" lon="3.25676">
        <ele>480</ele>
        <time>2017-03-03T05:42:05Z</time>
      </trkpt>
      <trkpt lat="44.11321" lon="3.25688">
        <ele>480</ele>
        <time>2017-03-03T05:44:05Z</time>
      </trkpt>
      <trkpt lat="44.11321" lon="3.25694">
        <ele>481</ele>
        <time>2017-03-03T05:46:05Z</time>
      </trkpt>
      <trkpt lat="44.11321" lon="3.25701">
        <ele>481</ele>
        <time>2017-03-03T05:48:05Z</time>
      </trkpt>
      <trkpt lat="44.11321" lon="3.25708">
        <ele>481</ele>
        <time>2017-03-03T05:50:05Z</time>
      </trkpt>
      <trkpt lat="44.11322" lon="3.25713">
        <ele>481</ele>
        <time>2017-03-03T05:52:05Z</time>
      </trkpt>
      <trkpt lat="44.11325" lon="3.25718">
        <ele>483</ele>
        <time>2017-03-03T05:54:05Z</time>
      </trkpt>
      <trkpt lat="44.11326" lon="3.25723">
        <ele>483</ele>
        <time>2017-03-03T05:56:05Z</time>
      </trkpt>
      <trkpt lat="44.11326" lon="3.25728">
        <ele>483</ele>
        <time>2017-03-03T05:58:05Z</time>
      </trkpt>
      <trkpt lat="44.11327" lon="3.25735">
        <ele>484</ele>
        <time>2017-03-03T06:00:05Z</time>
      </trkpt>
      <trkpt lat="44.11326" lon="3.25747">
        <ele>484</ele>
        <time>2017-03-03T06:02:05Z</time>
      </trkpt>
      <trkpt lat="44.11326" lon="3.25756">
        <ele>484</ele>
        <time>2017-03-03T06:04:05Z</time>
      </trkpt>
      <trkpt lat="44.11324" lon="3.25766">
        <ele>483</ele>
        <time>2017-03-03T06:06:05Z</time>
      </trkpt>
      <trkpt lat="44.11322" lon="3.25775">
        <ele>482</ele>
        <time>2017-03-03T06:08:05Z</time>
      </trkpt>
      <trkpt lat="44.11322" lon="3.25781">
        <ele>482</ele>
        <time>2017-03-03T06:10:05Z</time>
      </trkpt>
      <trkpt lat="44.11322" lon="3.25784">
        <ele>482</ele>
        <time>2017-03-03T06:12:05Z</time>
      </trkpt>
      <trkpt lat="44.11323" lon="3.25793">
        <ele>483</ele>
        <time>2017-03-03T06:14:05Z</time>
      </trkpt>
      <trkpt lat="44.11327" lon="3.25808">
        <ele>485</ele>
        <time>2017-03-03T06:16:05Z</time>
      </trkpt>
      <trkpt lat="44.11329" lon="3.25813">
        <ele>485</ele>
        <time>2017-03-03T06:18:05Z</time>
      </trkpt>
      <trkpt lat="44.11335" lon="3.25823">
        <ele>488</ele>
        <time>2017-03-03T06:20:05Z</time>
      </trkpt>
      <trkpt lat="44.11343" lon="3.25833">
        <ele>491</ele>
        <time>2017-03-03T06:22:05Z</time>
      </trkpt>
      <trkpt lat="44.11351" lon="3.25841">
        <ele>494</ele>
        <time>2017-03-03T06:24:05Z</time>
      </trkpt>
      <trkpt lat="44.11364" lon="3.25853">
        <ele>500</ele>
        <time>2017-03-03T06:26:05Z</time>
      </trkpt>
      <trkpt lat="44.11374" lon="3.25862">
        <ele>504</ele>
        <time>2017-03-03T06:28:05Z</time>
      </trkpt>
      <trkpt lat="44.11378" lon="3.25869">
        <ele>506</ele>
        <time>2017-03-03T06:30:05Z</time>
      </trkpt>
      <trkpt lat="44.11379" lon="3.25873">
        <ele>507</ele>
        <time>2017-03-03T06:32:05Z</time>
      </trkpt>
      <trkpt lat="44.11379" lon="3.25877">
        <ele>507</ele>
        <time>2017-03-03T06:34:05Z</time>
      </trkpt>
      <trkpt lat="44.11379" lon="3.25881">
        <ele>507</ele>
        <time>2017-03-03T06:36:05Z</time>
      </trkpt>
      <trkpt lat="44.11377" lon="3.25886">
        <ele>507</ele>
        <time>2017-03-03T06:38:05Z</time>
      </trkpt>
      <trkpt lat="44.11373" lon="3.2589">
        <ele>505</ele>
        <time>2017-03-03T06:40:05Z</time>
      </trkpt>
      <trkpt lat="44.11367" lon="3.25896">
        <ele>503</ele>
        <time>2017-03-03T06:42:05Z</time>
      </trkpt>
      <trkpt lat="44.11358" lon="3.25906">
        <ele>501</ele>
        <time>2017-03-03T06:44:05Z</time>
      </trkpt>
      <trkpt lat="44.11349" lon="3.25915">
        <ele>498</ele>
        <time>2017-03-03T06:46:05Z</time>
      </trkpt>
      <trkpt lat="44.11341" lon="3.25926">
        <ele>498</ele>
        <time>2017-03-03T06:48:05Z</time>
      </trkpt>
      <trkpt lat="44.11332" lon="3.25934">
        <ele>498</ele>
        <time>2017-03-03T06:50:05Z</time>
      </trkpt>
      <trkpt lat="44.11329" lon="3.25937">
        <ele>498</ele>
        <time>2017-03-03T06:52:05Z</time>
      </trkpt>
      <trkpt lat="44.11321" lon="3.25943">
        <ele>499</ele>
        <time>2017-03-03T06:54:05Z</time>
      </trkpt>
      <trkpt lat="44.11312" lon="3.25949">
        <ele>500</ele>
        <time>2017-03-03T06:56:05Z</time>
      </trkpt>
      <trkpt lat="44.11305" lon="3.25953">
        <ele>500</ele>
        <time>2017-03-03T06:58:05Z</time>
      </trkpt>
      <trkpt lat="44.11298" lon="3.25955">
        <ele>500</ele>
        <time>2017-03-03T07:00:05Z</time>
      </trkpt>
      <trkpt lat="44.1129" lon="3.25958">
        <ele>499</ele>
        <time>2017-03-03T07:02:05Z</time>
      </trkpt>
      <trkpt lat="44.1128" lon="3.25962">
        <ele>499</ele>
        <time>2017-03-03T07:04:05Z</time>
      </trkpt>
      <trkpt lat="44.11267" lon="3.25971">
        <ele>500</ele>
        <time>2017-03-03T07:06:05Z</time>
      </trkpt>
      <trkpt lat="44.1125" lon="3.25982">
        <ele>502</ele>
        <time>2017-03-03T07:08:05Z</time>
      </trkpt>
      <trkpt lat="44.11236" lon="3.25993">
        <ele>503</ele>
        <time>2017-03-03T07:10:05Z</time>
      </trkpt>
      <trkpt lat="44.11224" lon="3.26003">
        <ele>505</ele>
        <time>2017-03-03T07:12:05Z</time>
      </trkpt>
      <trkpt lat="44.11213" lon="3.26012">
        <ele>507</ele>
        <time>2017-03-03T07:14:05Z</time>
      </trkpt>
      <trkpt lat="44.11206" lon="3.26015">
        <ele>508</ele>
        <time>2017-03-03T07:16:05Z</time>
      </trkpt>
      <trkpt lat="44.11196" lon="3.26018">
        <ele>507</ele>
        <time>2017-03-03T07:18:05Z</time>
      </trkpt>
      <trkpt lat="44.11179" lon="3.26023">
        <ele>507</ele>
        <time>2017-03-03T07:20:05Z</time>
      </trkpt>
      <trkpt lat="44.1116" lon="3.2603">
        <ele>507</ele>
        <time>2017-03-03T07:22:05Z</time>
      </trkpt>
      <trkpt lat="44.11141" lon="3.2604">
        <ele>506</ele>
        <time>2017-03-03T07:24:05Z</time>
      </trkpt>
      <trkpt lat="44.11124" lon="3.2605">
        <ele>506</ele>
        <time>2017-03-03T07:26:05Z</time>
      </trkpt>
      <trkpt lat="44.11108" lon="3.26059">
        <ele>506</ele>
        <time>2017-03-03T07:28:05Z</time>
      </trkpt>
      <trkpt lat="44.11093" lon="3.26066">
        <ele>505</ele>
        <time>2017-03-03T07:30:05Z</time>
      </trkpt>
      <trkpt lat="44.11084" lon="3.26074">
        <ele>507</ele>
        <time>2017-03-03T07:32:05Z</time>
      </trkpt>
      <trkpt lat="44.11079" lon="3.26078">
        <ele>507</ele>
        <time>2017-03-03T07:34:05Z</time>
      </trkpt>
      <trkpt lat="44.11072" lon="3.26088">
        <ele>508</ele>
        <time>2017-03-03T07:36:05Z</time>
      </trkpt>
      <trkpt lat="44.11064" lon="3.26099">
        <ele>508</ele>
        <time>2017-03-03T07:38:05Z</time>
      </trkpt>
      <trkpt lat="44.11057" lon="3.2611">
        <ele>508</ele>
        <time>2017-03-03T07:40:05Z</time>
      </trkpt>
      <trkpt lat="44.1105" lon="3.26125">
        <ele>509</ele>
        <time>2017-03-03T07:42:05Z</time>
      </trkpt>
      <trkpt lat="44.11047" lon="3.26134">
        <ele>510</ele>
        <time>2017-03-03T07:44:05Z</time>
      </trkpt>
      <trkpt lat="44.11044" lon="3.2615">
        <ele>513</ele>
        <time>2017-03-03T07:46:05Z</time>
      </trkpt>
      <trkpt lat="44.11038" lon="3.26176">
        <ele>517</ele>
        <time>2017-03-03T07:48:05Z</time>
      </trkpt>
      <trkpt lat="44.11035" lon="3.26196">
        <ele>520</ele>
        <time>2017-03-03T07:50:05Z</time>
      </trkpt>
      <trkpt lat="44.11032" lon="3.26209">
        <ele>522</ele>
        <time>2017-03-03T07:52:05Z</time>
      </trkpt>
      <trkpt lat="44.11028" lon="3.26224">
        <ele>524</ele>
        <time>2017-03-03T07:54:05Z</time>
      </trkpt>
      <trkpt lat="44.11023" lon="3.26245">
        <ele>527</ele>
        <time>2017-03-03T07:56:05Z</time>
      </trkpt>
      <trkpt lat="44.1102" lon="3.26252">
        <ele>528</ele>
        <time>2017-03-03T07:58:05Z</time>
      </trkpt>
      <trkpt lat="44.11016" lon="3.26256">
        <ele>527</ele>
        <time>2017-03-03T08:00:05Z</time>
      </trkpt>
      <trkpt lat="44.11011" lon="3.26263">
        <ele>527</ele>
        <time>2017-03-03T08:02:05Z</time>
      </trkpt>
      <trkpt lat="44.11003" lon="3.26273">
        <ele>528</ele>
        <time>2017-03-03T08:04:05Z</time>
      </trkpt>
      <trkpt lat="44.10994" lon="3.26283">
        <ele>528</ele>
        <time>2017-03-03T08:06:05Z</time>
      </trkpt>
      <trkpt lat="44.10982" lon="3.26298">
        <ele>530</ele>
        <time>2017-03-03T08:08:05Z</time>
      </trkpt>
      <trkpt lat="44.10968" lon="3.26315">
        <ele>531</ele>
        <time>2017-03-03T08:10:05Z</time>
      </trkpt>
      <trkpt lat="44.10955" lon="3.26331">
        <ele>532</ele>
        <time>2017-03-03T08:12:05Z</time>
      </trkpt>
      <trkpt lat="44.10944" lon="3.26342">
        <ele>533</ele>
        <time>2017-03-03T08:14:05Z</time>
      </trkpt>
      <trkpt lat="44.10932" lon="3.2635">
        <ele>532</ele>
        <time>2017-03-03T08:16:05Z</time>
      </trkpt>
      <trkpt lat="44.10919" lon="3.2636">
        <ele>532</ele>
        <time>2017-03-03T08:18:05Z</time>
      </trkpt>
      <trkpt lat="44.10907" lon="3.26371">
        <ele>533</ele>
        <time>2017-03-03T08:20:05Z</time>
      </trkpt>
      <trkpt lat="44.10894" lon="3.26384">
        <ele>535</ele>
        <time>2017-03-03T08:22:05Z</time>
      </trkpt>
      <trkpt lat="44.10883" lon="3.26398">
        <ele>537</ele>
        <time>2017-03-03T08:24:05Z</time>
      </trkpt>
      <trkpt lat="44.10874" lon="3.26411">
        <ele>540</ele>
        <time>2017-03-03T08:26:05Z</time>
      </trkpt>
      <trkpt lat="44.10863" lon="3.26426">
        <ele>543</ele>
        <time>2017-03-03T08:28:05Z</time>
      </trkpt>
      <trkpt lat="44.10854" lon="3.26437">
        <ele>545</ele>
        <time>2017-03-03T08:30:05Z</time>
      </trkpt>
      <trkpt lat="44.10847" lon="3.26444">
        <ele>545</ele>
        <time>2017-03-03T08:32:05Z</time>
      </trkpt>
      <trkpt lat="44.10841" lon="3.26448">
        <ele>546</ele>
        <time>2017-03-03T08:34:05Z</time>
      </trkpt>
      <trkpt lat="44.10832" lon="3.26449">
        <ele>544</ele>
        <time>2017-03-03T08:36:05Z</time>
      </trkpt>
      <trkpt lat="44.10819" lon="3.26449">
        <ele>543</ele>
        <time>2017-03-03T08:38:05Z</time>
      </trkpt>
      <trkpt lat="44.1081" lon="3.26447">
        <ele>542</ele>
        <time>2017-03-03T08:40:05Z</time>
      </trkpt>
      <trkpt lat="44.10796" lon="3.26448">
        <ele>541</ele>
        <time>2017-03-03T08:42:05Z</time>
      </trkpt>
      <trkpt lat="44.10786" lon="3.26448">
        <ele>540</ele>
        <time>2017-03-03T08:44:05Z</time>
      </trkpt>
      <trkpt lat="44.1077" lon="3.26447">
        <ele>538</ele>
        <time>2017-03-03T08:46:05Z</time>
      </trkpt>
      <trkpt lat="44.10756" lon="3.26447">
        <ele>537</ele>
        <time>2017-03-03T08:48:05Z</time>
      </trkpt>
      <trkpt lat="44.1075" lon="3.26447">
        <ele>536</ele>
        <time>2017-03-03T08:50:05Z</time>
      </trkpt>
      <trkpt lat="44.10744" lon="3.2645">
        <ele>535</ele>
        <time>2017-03-03T08:52:05Z</time>
      </trkpt>
      <trkpt lat="44.10737" lon="3.26455">
        <ele>534</ele>
        <time>2017-03-03T08:54:05Z</time>
      </trkpt>
      <trkpt lat="44.1073" lon="3.26461">
        <ele>533</ele>
        <time>2017-03-03T08:56:05Z</time>
      </trkpt>
      <trkpt lat="44.10724" lon="3.26467">
        <ele>534</ele>
        <time>2017-03-03T08:58:05Z</time>
      </trkpt>
      <trkpt lat="44.10723" lon="3.26469">
        <ele>534</ele>
        <time>2017-03-03T09:00:05Z</time>
      </trkpt>
      <trkpt lat="44.10721" lon="3.26471">
        <ele>534</ele>
        <time>2017-03-03T09:02:05Z</time>
      </trkpt>
      <trkpt lat="44.10721" lon="3.26471">
        <ele>534</ele>
        <time>2017-03-03T09:04:05Z</time>
      </trkpt>
      <trkpt lat="44.10728" lon="3.26474">
        <ele>538</ele>
        <time>2017-03-03T09:06:05Z</time>
      </trkpt>
      <trkpt lat="44.10734" lon="3.26477">
        <ele>542</ele>
        <time>2017-03-03T09:08:05Z</time>
      </trkpt>
      <trkpt lat="44.10738" lon="3.26478">
        <ele>544</ele>
        <time>2017-03-03T09:10:05Z</time>
      </trkpt>
      <trkpt lat="44.10743" lon="3.26479">
        <ele>546</ele>
        <time>2017-03-03T09:12:05Z</time>
      </trkpt>
      <trkpt lat="44.10749" lon="3.2648">
        <ele>549</ele>
        <time>2017-03-03T09:14:05Z</time>
      </trkpt>
      <trkpt lat="44.10757" lon="3.2648">
        <ele>550</ele>
        <time>2017-03-03T09:16:05Z</time>
      </trkpt>
      <trkpt lat="44.1076" lon="3.26482">
        <ele>551</ele>
        <time>2017-03-03T09:18:05Z</time>
      </trkpt>
      <trkpt lat="44.10768" lon="3.26486">
        <ele>553</ele>
        <time>2017-03-03T09:20:05Z</time>
      </trkpt>
      <trkpt lat="44.10771" lon="3.26488">
        <ele>553</ele>
        <time>2017-03-03T09:22:05Z</time>
      </trkpt>
      <trkpt lat="44.10773" lon="3.26488">
        <ele>554</ele>
        <time>2017-03-03T09:24:05Z</time>
      </trkpt>
      <trkpt lat="44.10776" lon="3.26487">
        <ele>553</ele>
        <time>2017-03-03T09:26:05Z</time>
      </trkpt>
      <trkpt lat="44.10779" lon="3.26484">
        <ele>552</ele>
        <time>2017-03-03T09:28:05Z</time>
      </trkpt>
      <trkpt lat="44.1078" lon="3.26483">
        <ele>552</ele>
        <time>2017-03-03T09:30:05Z</time>
      </trkpt>
      <trkpt lat="44.10782" lon="3.26481">
        <ele>552</ele>
        <time>2017-03-03T09:32:05Z</time>
      </trkpt>
      <trkpt lat="44.10784" lon="3.26481">
        <ele>552</ele>
        <time>2017-03-03T09:34:05Z</time>
      </trkpt>
      <trkpt lat="44.10787" lon="3.26482">
        <ele>552</ele>
        <time>2017-03-03T09:36:05Z</time>
      </trkpt>
      <trkpt lat="44.10793" lon="3.26483">
        <ele>553</ele>
        <time>2017-03-03T09:38:05Z</time>
      </trkpt>
      <trkpt lat="44.10802" lon="3.26488">
        <ele>555</ele>
        <time>2017-03-03T09:40:05Z</time>
      </trkpt>
      <trkpt lat="44.10809" lon="3.26489">
        <ele>556</ele>
        <time>2017-03-03T09:42:05Z</time>
      </trkpt>
      <trkpt lat="44.10815" lon="3.2649">
        <ele>557</ele>
        <time>2017-03-03T09:44:05Z</time>
      </trkpt>
      <trkpt lat="44.10821" lon="3.26492">
        <ele>558</ele>
        <time>2017-03-03T09:46:05Z</time>
      </trkpt>
      <trkpt lat="44.10825" lon="3.26495">
        <ele>559</ele>
        <time>2017-03-03T09:48:05Z</time>
      </trkpt>
      <trkpt lat="44.10828" lon="3.26499">
        <ele>560</ele>
        <time>2017-03-03T09:50:05Z</time>
      </trkpt>
      <trkpt lat="44.10832" lon="3.26505">
        <ele>562</ele>
        <time>2017-03-03T09:52:05Z</time>
      </trkpt>
      <trkpt lat="44.10834" lon="3.26508">
        <ele>563</ele>
        <time>2017-03-03T09:54:05Z</time>
      </trkpt>
      <trkpt lat="44.10836" lon="3.2651">
        <ele>564</ele>
        <time>2017-03-03T09:56:05Z</time>
      </trkpt>
      <trkpt lat="44.10837" lon="3.26512">
        <ele>565</ele>
        <time>2017-03-03T09:58:05Z</time>
      </trkpt>
      <trkpt lat="44.10838" lon="3.26513">
        <ele>565</ele>
        <time>2017-03-03T10:00:05Z</time>
      </trkpt>
      <trkpt lat="44.10839" lon="3.26514">
        <ele>566</ele>
        <time>2017-03-03T10:02:05Z</time>
      </trkpt>
      <trkpt lat="44.10839" lon="3.26514">
        <ele>566</ele>
        <time>2017-03-03T10:04:05Z</time>
      </trkpt>
      <trkpt lat="44.10836" lon="3.26522">
        <ele>568</ele>
        <time>2017-03-03T10:06:05Z</time>
      </trkpt>
      <trkpt lat="44.10835" lon="3.26528">
        <ele>569</ele>
        <time>2017-03-03T10:08:05Z</time>
      </trkpt>
      <trkpt lat="44.10833" lon="3.26532">
        <ele>570</ele>
        <time>2017-03-03T10:10:05Z</time>
      </trkpt>
      <trkpt lat="44.1083" lon="3.26537">
        <ele>571</ele>
        <time>2017-03-03T10:12:05Z</time>
      </trkpt>
      <trkpt lat="44.10827" lon="3.26542">
        <ele>572</ele>
        <time>2017-03-03T10:14:05Z</time>
      </trkpt>
      <trkpt lat="44.10821" lon="3.26546">
        <ele>573</ele>
        <time>2017-03-03T10:16:05Z</time>
      </trkpt>
      <trkpt lat="44.10808" lon="3.26556">
        <ele>575</ele>
        <time>2017-03-03T10:18:05Z</time>
      </trkpt>
      <trkpt lat="44.108" lon="3.26562">
        <ele>576</ele>
        <time>2017-03-03T10:20:05Z</time>
      </trkpt>
      <trkpt lat="44.10796" lon="3.26566">
        <ele>576</ele>
        <time>2017-03-03T10:22:05Z</time>
      </trkpt>
      <trkpt lat="44.10794" lon="3.26575">
        <ele>579</ele>
        <time>2017-03-03T10:24:05Z</time>
      </trkpt>
      <trkpt lat="44.1079" lon="3.26588">
        <ele>580</ele>
        <time>2017-03-03T10:26:05Z</time>
      </trkpt>
      <trkpt lat="44.10786" lon="3.26597">
        <ele>580</ele>
        <time>2017-03-03T10:28:05Z</time>
      </trkpt>
      <trkpt lat="44.10783" lon="3.26601">
        <ele>579</ele>
        <time>2017-03-03T10:30:05Z</time>
      </trkpt>
      <trkpt lat="44.10783" lon="3.26609">
        <ele>579</ele>
        <time>2017-03-03T10:32:05Z</time>
      </trkpt>
      <trkpt lat="44.10783" lon="3.26613">
        <ele>579</ele>
        <time>2017-03-03T10:34:05Z</time>
      </trkpt>
      <trkpt lat="44.10787" lon="3.26619">
        <ele>580</ele>
        <time>2017-03-03T10:36:05Z</time>
      </trkpt>
      <trkpt lat="44.1079" lon="3.26623">
        <ele>580</ele>
        <time>2017-03-03T10:38:05Z</time>
      </trkpt>
      <trkpt lat="44.10794" lon="3.26626">
        <ele>581</ele>
        <time>2017-03-03T10:40:05Z</time>
      </trkpt>
      <trkpt lat="44.10795" lon="3.26632">
        <ele>581</ele>
        <time>2017-03-03T10:42:05Z</time>
      </trkpt>
      <trkpt lat="44.10794" lon="3.26638">
        <ele>581</ele>
        <time>2017-03-03T10:44:05Z</time>
      </trkpt>
      <trkpt lat="44.10792" lon="3.26644">
        <ele>581</ele>
        <time>2017-03-03T10:46:05Z</time>
      </trkpt>
      <trkpt lat="44.10791" lon="3.26652">
        <ele>580</ele>
        <time>2017-03-03T10:48:05Z</time>
      </trkpt>
      <trkpt lat="44.10796" lon="3.26657">
        <ele>582</ele>
        <time>2017-03-03T10:50:05Z</time>
      </trkpt>
      <trkpt lat="44.10797" lon="3.2666">
        <ele>582</ele>
        <time>2017-03-03T10:52:05Z</time>
      </trkpt>
      <trkpt lat="44.10801" lon="3.26665">
        <ele>583</ele>
        <time>2017-03-03T10:54:05Z</time>
      </trkpt>
      <trkpt lat="44.10804" lon="3.2667">
        <ele>584</ele>
        <time>2017-03-03T10:56:05Z</time>
      </trkpt>
      <trkpt lat="44.10808" lon="3.26673">
        <ele>585</ele>
        <time>2017-03-03T10:58:05Z</time>
      </trkpt>
      <trkpt lat="44.10819" lon="3.26675">
        <ele>588</ele>
        <time>2017-03-03T11:00:05Z</time>
      </trkpt>
      <trkpt lat="44.10829" lon="3.2668">
        <ele>591</ele>
        <time>2017-03-03T11:02:05Z</time>
      </trkpt>
      <trkpt lat="44.1084" lon="3.26686">
        <ele>594</ele>
        <time>2017-03-03T11:04:05Z</time>
      </trkpt>
      <trkpt lat="44.10847" lon="3.26693">
        <ele>596</ele>
        <time>2017-03-03T11:06:05Z</time>
      </trkpt>
      <trkpt lat="44.10852" lon="3.26701">
        <ele>598</ele>
        <time>2017-03-03T11:08:05Z</time>
      </trkpt>
      <trkpt lat="44.10854" lon="3.26711">
        <ele>599</ele>
        <time>2017-03-03T11:10:05Z</time>
      </trkpt>
      <trkpt lat="44.10856" lon="3.26719">
        <ele>600</ele>
        <time>2017-03-03T11:12:05Z</time>
      </trkpt>
      <trkpt lat="44.10858" lon="3.26724">
        <ele>601</ele>
        <time>2017-03-03T11:14:05Z</time>
      </trkpt>
      <trkpt lat="44.1086" lon="3.26736">
        <ele>602</ele>
        <time>2017-03-03T11:16:05Z</time>
      </trkpt>
      <trkpt lat="44.1086" lon="3.26745">
        <ele>602</ele>
        <time>2017-03-03T11:18:05Z</time>
      </trkpt>
      <trkpt lat="44.1086" lon="3.26753">
        <ele>602</ele>
        <time>2017-03-03T11:20:05Z</time>
      </trkpt>
      <trkpt lat="44.10859" lon="3.2676">
        <ele>601</ele>
        <time>2017-03-03T11:22:05Z</time>
      </trkpt>
      <trkpt lat="44.1086" lon="3.26764">
        <ele>601</ele>
        <time>2017-03-03T11:24:05Z</time>
      </trkpt>
      <trkpt lat="44.10862" lon="3.26765">
        <ele>601</ele>
        <time>2017-03-03T11:26:05Z</time>
      </trkpt>
      <trkpt lat="44.10863" lon="3.26764">
        <ele>602</ele>
        <time>2017-03-03T11:28:05Z</time>
      </trkpt>
      <trkpt lat="44.10864" lon="3.26762">
        <ele>602</ele>
        <time>2017-03-03T11:30:05Z</time>
      </trkpt>
      <trkpt lat="44.10866" lon="3.26759">
        <ele>603</ele>
        <time>2017-03-03T11:32:05Z</time>
      </trkpt>
      <trkpt lat="44.10871" lon="3.26757">
        <ele>604</ele>
        <time>2017-03-03T11:34:05Z</time>
      </trkpt>
      <trkpt lat="44.10876" lon="3.26758">
        <ele>606</ele>
        <time>2017-03-03T11:36:05Z</time>
      </trkpt>
      <trkpt lat="44.10885" lon="3.26762">
        <ele>607</ele>
        <time>2017-03-03T11:38:05Z</time>
      </trkpt>
      <trkpt lat="44.10892" lon="3.26766">
        <ele>609</ele>
        <time>2017-03-03T11:40:05Z</time>
      </trkpt>
      <trkpt lat="44.10895" lon="3.26769">
        <ele>610</ele>
        <time>2017-03-03T11:42:05Z</time>
      </trkpt>
      <trkpt lat="44.10898" lon="3.26774">
        <ele>610</ele>
        <time>2017-03-03T11:44:05Z</time>
      </trkpt>
      <trkpt lat="44.10901" lon="3.26783">
        <ele>610</ele>
        <time>2017-03-03T11:46:05Z</time>
      </trkpt>
      <trkpt lat="44.10903" lon="3.26789">
        <ele>611</ele>
        <time>2017-03-03T11:48:05Z</time>
      </trkpt>
      <trkpt lat="44.10906" lon="3.26799">
        <ele>611</ele>
        <time>2017-03-03T11:50:05Z</time>
      </trkpt>
      <trkpt lat="44.10908" lon="3.26805">
        <ele>611</ele>
        <time>2017-03-03T11:52:05Z</time>
      </trkpt>
      <trkpt lat="44.10912" lon="3.26809">
        <ele>612</ele>
        <time>2017-03-03T11:54:05Z</time>
      </trkpt>
      <trkpt lat="44.10915" lon="3.26815">
        <ele>613</ele>
        <time>2017-03-03T11:56:05Z</time>
      </trkpt>
      <trkpt lat="44.10921" lon="3.26818">
        <ele>615</ele>
        <time>2017-03-03T11:58:05Z</time>
      </trkpt>
      <trkpt lat="44.10925" lon="3.26824">
        <ele>617</ele>
        <time>2017-03-03T12:00:05Z</time>
      </trkpt>
      <trkpt lat="44.10927" lon="3.26829">
        <ele>618</ele>
        <time>2017-03-03T12:02:05Z</time>
      </trkpt>
      <trkpt lat="44.10928" lon="3.26837">
        <ele>618</ele>
        <time>2017-03-03T12:04:05Z</time>
      </trkpt>
      <trkpt lat="44.10929" lon="3.26845">
        <ele>618</ele>
        <time>2017-03-03T12:06:05Z</time>
      </trkpt>
      <trkpt lat="44.10932" lon="3.26855">
        <ele>618</ele>
        <time>2017-03-03T12:08:05Z</time>
      </trkpt>
      <trkpt lat="44.10936" lon="3.26866">
        <ele>619</ele>
        <time>2017-03-03T12:10:05Z</time>
      </trkpt>
      <trkpt lat="44.10941" lon="3.26874">
        <ele>620</ele>
        <time>2017-03-03T12:12:05Z</time>
      </trkpt>
      <trkpt lat="44.10948" lon="3.26886">
        <ele>622</ele>
        <time>2017-03-03T12:14:05Z</time>
      </trkpt>
      <trkpt lat="44.10953" lon="3.26892">
        <ele>624</ele>
        <time>2017-03-03T12:16:05Z</time>
      </trkpt>
      <trkpt lat="44.10956" lon="3.26899">
        <ele>624</ele>
        <time>2017-03-03T12:18:05Z</time>
      </trkpt>
      <trkpt lat="44.10957" lon="3.26909">
        <ele>623</ele>
        <time>2017-03-03T12:20:05Z</time>
      </trkpt>
      <trkpt lat="44.10954" lon="3.26916">
        <ele>621</ele>
        <time>2017-03-03T12:22:05Z</time>
      </trkpt>
      <trkpt lat="44.1095" lon="3.26923">
        <ele>620</ele>
        <time>2017-03-03T12:24:05Z</time>
      </trkpt>
      <trkpt lat="44.10946" lon="3.26927">
        <ele>618</ele>
        <time>2017-03-03T12:26:05Z</time>
      </trkpt>
      <trkpt lat="44.10944" lon="3.26928">
        <ele>618</ele>
        <time>2017-03-03T12:28:05Z</time>
      </trkpt>
      <trkpt lat="44.10941" lon="3.26929">
        <ele>616</ele>
        <time>2017-03-03T12:30:05Z</time>
      </trkpt>
      <trkpt lat="44.10934" lon="3.26931">
        <ele>614</ele>
        <time>2017-03-03T12:32:05Z</time>
      </trkpt>
      <trkpt lat="44.10928" lon="3.26934">
        <ele>611</ele>
        <time>2017-03-03T12:34:05Z</time>
      </trkpt>
      <trkpt lat="44.10925" lon="3.26938">
        <ele>610</ele>
        <time>2017-03-03T12:36:05Z</time>
      </trkpt>
      <trkpt lat="44.10925" lon="3.26939">
        <ele>610</ele>
        <time>2017-03-03T12:38:05Z</time>
      </trkpt>
      <trkpt lat="44.10928" lon="3.26942">
        <ele>611</ele>
        <time>2017-03-03T12:40:05Z</time>
      </trkpt>
      <trkpt lat="44.10931" lon="3.26946">
        <ele>613</ele>
        <time>2017-03-03T12:42:05Z</time>
      </trkpt>
      <trkpt lat="44.10934" lon="3.26952">
        <ele>614</ele>
        <time>2017-03-03T12:44:05Z</time>
      </trkpt>
      <trkpt lat="44.10935" lon="3.26954">
        <ele>615</ele>
        <time>2017-03-03T12:46:05Z</time>
      </trkpt>
      <trkpt lat="44.10937" lon="3.26964">
        <ele>616</ele>
        <time>2017-03-03T12:48:05Z</time>
      </trkpt>
      <trkpt lat="44.10937" lon="3.26969">
        <ele>616</ele>
        <time>2017-03-03T12:50:05Z</time>
      </trkpt>
      <trkpt lat="44.10936" lon="3.26979">
        <ele>616</ele>
        <time>2017-03-03T12:52:05Z</time>
      </trkpt>
      <trkpt lat="44.10936" lon="3.26984">
        <ele>616</ele>
        <time>2017-03-03T12:54:05Z</time>
      </trkpt>
      <trkpt lat="44.10937" lon="3.26988">
        <ele>617</ele>
        <time>2017-03-03T12:56:05Z</time>
      </trkpt>
      <trkpt lat="44.1094" lon="3.26996">
        <ele>619</ele>
        <time>2017-03-03T12:58:05Z</time>
      </trkpt>
      <trkpt lat="44.10944" lon="3.27007">
        <ele>620</ele>
        <time>2017-03-03T13:00:05Z</time>
      </trkpt>
      <trkpt lat="44.10945" lon="3.27009">
        <ele>620</ele>
        <time>2017-03-03T13:02:05Z</time>
      </trkpt>
      <trkpt lat="44.10947" lon="3.27015">
        <ele>620</ele>
        <time>2017-03-03T13:04:05Z</time>
      </trkpt>
      <trkpt lat="44.10947" lon="3.27018">
        <ele>620</ele>
        <time>2017-03-03T13:06:05Z</time>
      </trkpt>
      <trkpt lat="44.10947" lon="3.27023">
        <ele>620</ele>
        <time>2017-03-03T13:08:05Z</time>
      </trkpt>
      <trkpt lat="44.10945" lon="3.27032">
        <ele>617</ele>
        <time>2017-03-03T13:10:05Z</time>
      </trkpt>
      <trkpt lat="44.10944" lon="3.27042">
        <ele>616</ele>
        <time>2017-03-03T13:12:05Z</time>
      </trkpt>
      <trkpt lat="44.10944" lon="3.27056">
        <ele>614</ele>
        <time>2017-03-03T13:14:05Z</time>
      </trkpt>
      <trkpt lat="44.10943" lon="3.27065">
        <ele>612</ele>
        <time>2017-03-03T13:16:05Z</time>
      </trkpt>
      <trkpt lat="44.10943" lon="3.27071">
        <ele>612</ele>
        <time>2017-03-03T13:18:05Z</time>
      </trkpt>
      <trkpt lat="44.10943" lon="3.27076">
        <ele>611</ele>
        <time>2017-03-03T13:20:05Z</time>
      </trkpt>
      <trkpt lat="44.10944" lon="3.27086">
        <ele>610</ele>
        <time>2017-03-03T13:22:05Z</time>
      </trkpt>
      <trkpt lat="44.10945" lon="3.27095">
        <ele>610</ele>
        <time>2017-03-03T13:24:05Z</time>
      </trkpt>
      <trkpt lat="44.10944" lon="3.27105">
        <ele>608</ele>
        <time>2017-03-03T13:26:05Z</time>
      </trkpt>
      <trkpt lat="44.10943" lon="3.27121">
        <ele>605</ele>
        <time>2017-03-03T13:28:05Z</time>
      </trkpt>
      <trkpt lat="44.10942" lon="3.27134">
        <ele>602</ele>
        <time>2017-03-03T13:30:05Z</time>
      </trkpt>
      <trkpt lat="44.10941" lon="3.27147">
        <ele>600</ele>
        <time>2017-03-03T13:32:05Z</time>
      </trkpt>
      <trkpt lat="44.10941" lon="3.27154">
        <ele>599</ele>
        <time>2017-03-03T13:34:05Z</time>
      </trkpt>
      <trkpt lat="44.10941" lon="3.27163">
        <ele>598</ele>
        <time>2017-03-03T13:36:05Z</time>
      </trkpt>
      <trkpt lat="44.10942" lon="3.27171">
        <ele>597</ele>
        <time>2017-03-03T13:38:05Z</time>
      </trkpt>
      <trkpt lat="44.10944" lon="3.27177">
        <ele>597</ele>
        <time>2017-03-03T13:40:05Z</time>
      </trkpt>
      <trkpt lat="44.10946" lon="3.27181">
        <ele>598</ele>
        <time>2017-03-03T13:42:05Z</time>
      </trkpt>
      <trkpt lat="44.10953" lon="3.27186">
        <ele>601</ele>
        <time>2017-03-03T13:44:05Z</time>
      </trkpt>
      <trkpt lat="44.10966" lon="3.27194">
        <ele>608</ele>
        <time>2017-03-03T13:46:05Z</time>
      </trkpt>
      <trkpt lat="44.10974" lon="3.27199">
        <ele>612</ele>
        <time>2017-03-03T13:48:05Z</time>
      </trkpt>
      <trkpt lat="44.10977" lon="3.27202">
        <ele>614</ele>
        <time>2017-03-03T13:50:05Z</time>
      </trkpt>
      <trkpt lat="44.10979" lon="3.27205">
        <ele>615</ele>
        <time>2017-03-03T13:52:05Z</time>
      </trkpt>
      <trkpt lat="44.10979" lon="3.27209">
        <ele>614</ele>
        <time>2017-03-03T13:54:05Z</time>
      </trkpt>
      <trkpt lat="44.10979" lon="3.27212">
        <ele>614</ele>
        <time>2017-03-03T13:56:05Z</time>
      </trkpt>
      <trkpt lat="44.10978" lon="3.27216">
        <ele>613</ele>
        <time>2017-03-03T13:58:05Z</time>
      </trkpt>
      <trkpt lat="44.10975" lon="3.27221">
        <ele>611</ele>
        <time>2017-03-03T14:00:05Z</time>
      </trkpt>
      <trkpt lat="44.10974" lon="3.27226">
        <ele>609</ele>
        <time>2017-03-03T14:02:05Z</time>
      </trkpt>
      <trkpt lat="44.10974" lon="3.27233">
        <ele>609</ele>
        <time>2017-03-03T14:04:05Z</time>
      </trkpt>
      <trkpt lat="44.10973" lon="3.2724">
        <ele>607</ele>
        <time>2017-03-03T14:06:05Z</time>
      </trkpt>
      <trkpt lat="44.10973" lon="3.27247">
        <ele>607</ele>
        <time>2017-03-03T14:08:05Z</time>
      </trkpt>
      <trkpt lat="44.10972" lon="3.27251">
        <ele>605</ele>
        <time>2017-03-03T14:10:05Z</time>
      </trkpt>
      <trkpt lat="44.10971" lon="3.27256">
        <ele>605</ele>
        <time>2017-03-03T14:12:05Z</time>
      </trkpt>
      <trkpt lat="44.1097" lon="3.27261">
        <ele>604</ele>
        <time>2017-03-03T14:14:05Z</time>
      </trkpt>
      <trkpt lat="44.1097" lon="3.27266">
        <ele>604</ele>
        <time>2017-03-03T14:16:05Z</time>
      </trkpt>
      <trkpt lat="44.1097" lon="3.2727">
        <ele>604</ele>
        <time>2017-03-03T14:18:05Z</time>
      </trkpt>
      <trkpt lat="44.1097" lon="3.27276">
        <ele>604</ele>
        <time>2017-03-03T14:20:05Z</time>
      </trkpt>
      <trkpt lat="44.1097" lon="3.2728">
        <ele>603</ele>
        <time>2017-03-03T14:22:05Z</time>
      </trkpt>
      <trkpt lat="44.10969" lon="3.27288">
        <ele>603</ele>
        <time>2017-03-03T14:24:05Z</time>
      </trkpt>
      <trkpt lat="44.10968" lon="3.27292">
        <ele>602</ele>
        <time>2017-03-03T14:26:05Z</time>
      </trkpt>
      <trkpt lat="44.10968" lon="3.27295">
        <ele>602</ele>
        <time>2017-03-03T14:28:05Z</time>
      </trkpt>
      <trkpt lat="44.10968" lon="3.27298">
        <ele>602</ele>
        <time>2017-03-03T14:30:05Z</time>
      </trkpt>
      <trkpt lat="44.10968" lon="3.273">
        <ele>602</ele>
        <time>2017-03-03T14:32:05Z</time>
      </trkpt>
      <trkpt lat="44.1097" lon="3.27302">
        <ele>603</ele>
        <time>2017-03-03T14:34:05Z</time>
      </trkpt>
      <trkpt lat="44.10972" lon="3.27306">
        <ele>604</ele>
        <time>2017-03-03T14:36:05Z</time>
      </trkpt>
      <trkpt lat="44.10974" lon="3.27312">
        <ele>605</ele>
        <time>2017-03-03T14:38:05Z</time>
      </trkpt>
      <trkpt lat="44.10974" lon="3.27318">
        <ele>605</ele>
        <time>2017-03-03T14:40:05Z</time>
      </trkpt>
      <trkpt lat="44.10974" lon="3.27322">
        <ele>605</ele>
        <time>2017-03-03T14:42:05Z</time>
      </trkpt>
      <trkpt lat="44.10976" lon="3.27324">
        <ele>606</ele>
        <time>2017-03-03T14:44:05Z</time>
      </trkpt>
      <trkpt lat="44.1098" lon="3.27331">
        <ele>608</ele>
        <time>2017-03-03T14:46:05Z</time>
      </trkpt>
      <trkpt lat="44.10983" lon="3.27336">
        <ele>610</ele>
        <time>2017-03-03T14:48:05Z</time>
      </trkpt>
      <trkpt lat="44.10985" lon="3.27342">
        <ele>611</ele>
        <time>2017-03-03T14:50:05Z</time>
      </trkpt>
      <trkpt lat="44.10987" lon="3.27349">
        <ele>613</ele>
        <time>2017-03-03T14:52:05Z</time>
      </trkpt>
      <trkpt lat="44.10987" lon="3.27353">
        <ele>613</ele>
        <time>2017-03-03T14:54:05Z</time>
      </trkpt>
      <trkpt lat="44.10987" lon="3.27358">
        <ele>613</ele>
        <time>2017-03-03T14:56:05Z</time>
      </trkpt>
      <trkpt lat="44.10986" lon="3.27365">
        <ele>613</ele>
        <time>2017-03-03T14:58:05Z</time>
      </trkpt>
      <trkpt lat="44.10984" lon="3.27374">
        <ele>613</ele>
        <time>2017-03-03T15:00:05Z</time>
      </trkpt>
      <trkpt lat="44.10984" lon="3.27381">
        <ele>614</ele>
        <time>2017-03-03T15:02:05Z</time>
      </trkpt>
      <trkpt lat="44.10983" lon="3.27391">
        <ele>614</ele>
        <time>2017-03-03T15:04:05Z</time>
      </trkpt>
      <trkpt lat="44.10982" lon="3.274">
        <ele>614</ele>
        <time>2017-03-03T15:06:05Z</time>
      </trkpt>
      <trkpt lat="44.10981" lon="3.27406">
        <ele>615</ele>
        <time>2017-03-03T15:08:05Z</time>
      </trkpt>
      <trkpt lat="44.10981" lon="3.27412">
        <ele>615</ele>
        <time>2017-03-03T15:10:05Z</time>
      </trkpt>
      <trkpt lat="44.10982" lon="3.27415">
        <ele>616</ele>
        <time>2017-03-03T15:12:05Z</time>
      </trkpt>
      <trkpt lat="44.10982" lon="3.27417">
        <ele>616</ele>
        <time>2017-03-03T15:14:05Z</time>
      </trkpt>
      <trkpt lat="44.10983" lon="3.27419">
        <ele>616</ele>
        <time>2017-03-03T15:16:05Z</time>
      </trkpt>
      <trkpt lat="44.10987" lon="3.27426">
        <ele>618</ele>
        <time>2017-03-03T15:18:05Z</time>
      </trkpt>
      <trkpt lat="44.10991" lon="3.27432">
        <ele>619</ele>
        <time>2017-03-03T15:20:05Z</time>
      </trkpt>
      <trkpt lat="44.10993" lon="3.27436">
        <ele>619</ele>
        <time>2017-03-03T15:22:05Z</time>
      </trkpt>
      <trkpt lat="44.10995" lon="3.27436">
        <ele>620</ele>
        <time>2017-03-03T15:24:05Z</time>
      </trkpt>
      <trkpt lat="44.10997" lon="3.27437">
        <ele>620</ele>
        <time>2017-03-03T15:26:05Z</time>
      </trkpt>
      <trkpt lat="44.10998" lon="3.27439">
        <ele>620</ele>
        <time>2017-03-03T15:28:05Z</time>
      </trkpt>
      <trkpt lat="44.10999" lon="3.27442">
        <ele>620</ele>
        <time>2017-03-03T15:30:05Z</time>
      </trkpt>
      <trkpt lat="44.11" lon="3.27444">
        <ele>620</ele>
        <time>2017-03-03T15:32:05Z</time>
      </trkpt>
      <trkpt lat="44.11003" lon="3.27444">
        <ele>622</ele>
        <time>2017-03-03T15:34:05Z</time>
      </trkpt>
      <trkpt lat="44.11006" lon="3.27444">
        <ele>623</ele>
        <time>2017-03-03T15:36:05Z</time>
      </trkpt>
      <trkpt lat="44.11009" lon="3.27445">
        <ele>624</ele>
        <time>2017-03-03T15:38:05Z</time>
      </trkpt>
      <trkpt lat="44.11012" lon="3.27446">
        <ele>626</ele>
        <time>2017-03-03T15:40:05Z</time>
      </trkpt>
      <trkpt lat="44.11014" lon="3.27448">
        <ele>627</ele>
        <time>2017-03-03T15:42:05Z</time>
      </trkpt>
      <trkpt lat="44.11015" lon="3.27449">
        <ele>627</ele>
        <time>2017-03-03T15:44:05Z</time>
      </trkpt>
      <trkpt lat="44.11018" lon="3.27452">
        <ele>628</ele>
        <time>2017-03-03T15:46:05Z</time>
      </trkpt>
      <trkpt lat="44.11021" lon="3.27455">
        <ele>629</ele>
        <time>2017-03-03T15:48:05Z</time>
      </trkpt>
      <trkpt lat="44.11026" lon="3.27458">
        <ele>631</ele>
        <time>2017-03-03T15:50:05Z</time>
      </trkpt>
      <trkpt lat="44.11032" lon="3.27461">
        <ele>634</ele>
        <time>2017-03-03T15:52:05Z</time>
      </trkpt>
      <trkpt lat="44.11039" lon="3.27463">
        <ele>637</ele>
        <time>2017-03-03T15:54:05Z</time>
      </trkpt>
      <trkpt lat="44.11045" lon="3.27467">
        <ele>639</ele>
        <time>2017-03-03T15:56:05Z</time>
      </trkpt>
      <trkpt lat="44.11049" lon="3.2747">
        <ele>640</ele>
        <time>2017-03-03T15:58:05Z</time>
      </trkpt>
      <trkpt lat="44.1105" lon="3.27474">
        <ele>640</ele>
        <time>2017-03-03T16:00:05Z</time>
      </trkpt>
      <trkpt lat="44.11051" lon="3.27479">
        <ele>640</ele>
        <time>2017-03-03T16:02:05Z</time>
      </trkpt>
      <trkpt lat="44.1105" lon="3.27486">
        <ele>639</ele>
        <time>2017-03-03T16:04:05Z</time>
      </trkpt>
      <trkpt lat="44.1105" lon="3.27491">
        <ele>639</ele>
        <time>2017-03-03T16:06:05Z</time>
      </trkpt>
      <trkpt lat="44.11049" lon="3.27495">
        <ele>638</ele>
        <time>2017-03-03T16:08:05Z</time>
      </trkpt>
      <trkpt lat="44.11046" lon="3.275">
        <ele>636</ele>
        <time>2017-03-03T16:10:05Z</time>
      </trkpt>
      <trkpt lat="44.11045" lon="3.27503">
        <ele>636</ele>
        <time>2017-03-03T16:12:05Z</time>
      </trkpt>
      <trkpt lat="44.11044" lon="3.27505">
        <ele>636</ele>
        <time>2017-03-03T16:14:05Z</time>
      </trkpt>
      <trkpt lat="44.11044" lon="3.27507">
        <ele>636</ele>
        <time>2017-03-03T16:16:05Z</time>
      </trkpt>
      <trkpt lat="44.11044" lon="3.27508">
        <ele>636</ele>
        <time>2017-03-03T16:18:05Z</time>
      </trkpt>
      <trkpt lat="44.11044" lon="3.2751">
        <ele>636</ele>
        <time>2017-03-03T16:20:05Z</time>
      </trkpt>
      <trkpt lat="44.11046" lon="3.27513">
        <ele>637</ele>
        <time>2017-03-03T16:22:05Z</time>
      </trkpt>
      <trkpt lat="44.1105" lon="3.2752">
        <ele>639</ele>
        <time>2017-03-03T16:24:05Z</time>
      </trkpt>
      <trkpt lat="44.11052" lon="3.27525">
        <ele>640</ele>
        <time>2017-03-03T16:26:05Z</time>
      </trkpt>
      <trkpt lat="44.11053" lon="3.27528">
        <ele>641</ele>
        <time>2017-03-03T16:28:05Z</time>
      </trkpt>
      <trkpt lat="44.11052" lon="3.27533">
        <ele>641</ele>
        <time>2017-03-03T16:30:05Z</time>
      </trkpt>
      <trkpt lat="44.11052" lon="3.27538">
        <ele>641</ele>
        <time>2017-03-03T16:32:05Z</time>
      </trkpt>
      <trkpt lat="44.11051" lon="3.27541">
        <ele>641</ele>
        <time>2017-03-03T16:34:05Z</time>
      </trkpt>
      <trkpt lat="44.11051" lon="3.27543">
        <ele>641</ele>
        <time>2017-03-03T16:36:05Z</time>
      </trkpt>
      <trkpt lat="44.11052" lon="3.27545">
        <ele>641</ele>
        <time>2017-03-03T16:38:05Z</time>
      </trkpt>
      <trkpt lat="44.11053" lon="3.27547">
        <ele>642</ele>
        <time>2017-03-03T16:40:05Z</time>
      </trkpt>
      <trkpt lat="44.11053" lon="3.27551">
        <ele>642</ele>
        <time>2017-03-03T16:42:05Z</time>
      </trkpt>
      <trkpt lat="44.11053" lon="3.27553">
        <ele>642</ele>
        <time>2017-03-03T16:44:05Z</time>
      </trkpt>
      <trkpt lat="44.11052" lon="3.27557">
        <ele>642</ele>
        <time>2017-03-03T16:46:05Z</time>
      </trkpt>
      <trkpt lat="44.11052" lon="3.2756">
        <ele>642</ele>
        <time>2017-03-03T16:48:05Z</time>
      </trkpt>
      <trkpt lat="44.11051" lon="3.27563">
        <ele>642</ele>
        <time>2017-03-03T16:50:05Z</time>
      </trkpt>
      <trkpt lat="44.11051" lon="3.27565">
        <ele>642</ele>
        <time>2017-03-03T16:52:05Z</time>
      </trkpt>
      <trkpt lat="44.11052" lon="3.27568">
        <ele>643</ele>
        <time>2017-03-03T16:54:05Z</time>
      </trkpt>
      <trkpt lat="44.11053" lon="3.27572">
        <ele>643</ele>
        <time>2017-03-03T16:56:05Z</time>
      </trkpt>
      <trkpt lat="44.11054" lon="3.27576">
        <ele>644</ele>
        <time>2017-03-03T16:58:05Z</time>
      </trkpt>
      <trkpt lat="44.11054" lon="3.2758">
        <ele>644</ele>
        <time>2017-03-03T17:00:05Z</time>
      </trkpt>
      <trkpt lat="44.11053" lon="3.27584">
        <ele>644</ele>
        <time>2017-03-03T17:02:05Z</time>
      </trkpt>
      <trkpt lat="44.11053" lon="3.27589">
        <ele>645</ele>
        <time>2017-03-03T17:04:05Z</time>
      </trkpt>
      <trkpt lat="44.11053" lon="3.27593">
        <ele>645</ele>
        <time>2017-03-03T17:06:05Z</time>
      </trkpt>
      <trkpt lat="44.11052" lon="3.27595">
        <ele>645</ele>
        <time>2017-03-03T17:08:05Z</time>
      </trkpt>
      <trkpt lat="44.11052" lon="3.27597">
        <ele>645</ele>
        <time>2017-03-03T17:10:05Z</time>
      </trkpt>
      <trkpt lat="44.11052" lon="3.27598">
        <ele>645</ele>
        <time>2017-03-03T17:12:05Z</time>
      </trkpt>
      <trkpt lat="44.11053" lon="3.27601">
        <ele>646</ele>
        <time>2017-03-03T17:14:05Z</time>
      </trkpt>
      <trkpt lat="44.11054" lon="3.27602">
        <ele>646</ele>
        <time>2017-03-03T17:16:05Z</time>
      </trkpt>
      <trkpt lat="44.11055" lon="3.27604">
        <ele>646</ele>
        <time>2017-03-03T17:18:05Z</time>
      </trkpt>
      <trkpt lat="44.11055" lon="3.27605">
        <ele>646</ele>
        <time>2017-03-03T17:20:05Z</time>
      </trkpt>
      <trkpt lat="44.11056" lon="3.2761">
        <ele>647</ele>
        <time>2017-03-03T17:22:05Z</time>
      </trkpt>
      <trkpt lat="44.11056" lon="3.27614">
        <ele>647</ele>
        <time>2017-03-03T17:24:05Z</time>
      </trkpt>
      <trkpt lat="44.11056" lon="3.27616">
        <ele>647</ele>
        <time>2017-03-03T17:26:05Z</time>
      </trkpt>
      <trkpt lat="44.11056" lon="3.27618">
        <ele>648</ele>
        <time>2017-03-03T17:28:05Z</time>
      </trkpt>
      <trkpt lat="44.11057" lon="3.2762">
        <ele>648</ele>
        <time>2017-03-03T17:30:05Z</time>
      </trkpt>
      <trkpt lat="44.11058" lon="3.27623">
        <ele>648</ele>
        <time>2017-03-03T17:32:05Z</time>
      </trkpt>
      <trkpt lat="44.11058" lon="3.27625">
        <ele>648</ele>
        <time>2017-03-03T17:34:05Z</time>
      </trkpt>
      <trkpt lat="44.11058" lon="3.2763">
        <ele>649</ele>
        <time>2017-03-03T17:36:05Z</time>
      </trkpt>
      <trkpt lat="44.11057" lon="3.27632">
        <ele>649</ele>
        <time>2017-03-03T17:38:05Z</time>
      </trkpt>
      <trkpt lat="44.11055" lon="3.27636">
        <ele>649</ele>
        <time>2017-03-03T17:40:05Z</time>
      </trkpt>
      <trkpt lat="44.11054" lon="3.27643">
        <ele>650</ele>
        <time>2017-03-03T17:42:05Z</time>
      </trkpt>
      <trkpt lat="44.11053" lon="3.27646">
        <ele>650</ele>
        <time>2017-03-03T17:44:05Z</time>
      </trkpt>
      <trkpt lat="44.11052" lon="3.2765">
        <ele>650</ele>
        <time>2017-03-03T17:46:05Z</time>
      </trkpt>
      <trkpt lat="44.11052" lon="3.27656">
        <ele>651</ele>
        <time>2017-03-03T17:48:05Z</time>
      </trkpt>
      <trkpt lat="44.11052" lon="3.2766">
        <ele>651</ele>
        <time>2017-03-03T17:50:05Z</time>
      </trkpt>
      <trkpt lat="44.11051" lon="3.27664">
        <ele>651</ele>
        <time>2017-03-03T17:52:05Z</time>
      </trkpt>
      <trkpt lat="44.1105" lon="3.27668">
        <ele>652</ele>
        <time>2017-03-03T17:54:05Z</time>
      </trkpt>
      <trkpt lat="44.11049" lon="3.27675">
        <ele>652</ele>
        <time>2017-03-03T17:56:05Z</time>
      </trkpt>
      <trkpt lat="44.11046" lon="3.27681">
        <ele>653</ele>
        <time>2017-03-03T17:58:05Z</time>
      </trkpt>
      <trkpt lat="44.11046" lon="3.27685">
        <ele>654</ele>
        <time>2017-03-03T18:00:05Z</time>
      </trkpt>
      <trkpt lat="44.11046" lon="3.27686">
        <ele>654</ele>
        <time>2017-03-03T18:02:05Z</time>
      </trkpt>
      <trkpt lat="44.11048" lon="3.27687">
        <ele>654</ele>
        <time>2017-03-03T18:04:05Z</time>
      </trkpt>
      <trkpt lat="44.11049" lon="3.27687">
        <ele>654</ele>
        <time>2017-03-03T18:06:05Z</time>
      </trkpt>
      <trkpt lat="44.11054" lon="3.27689">
        <ele>654</ele>
        <time>2017-03-03T18:08:05Z</time>
      </trkpt>
      <trkpt lat="44.11058" lon="3.2769">
        <ele>654</ele>
        <time>2017-03-03T18:10:05Z</time>
      </trkpt>
      <trkpt lat="44.1106" lon="3.27691">
        <ele>654</ele>
        <time>2017-03-03T18:12:05Z</time>
      </trkpt>
      <trkpt lat="44.11061" lon="3.27694">
        <ele>654</ele>
        <time>2017-03-03T18:14:05Z</time>
      </trkpt>
      <trkpt lat="44.11061" lon="3.27695">
        <ele>654</ele>
        <time>2017-03-03T18:16:05Z</time>
      </trkpt>
      <trkpt lat="44.11062" lon="3.27698">
        <ele>654</ele>
        <time>2017-03-03T18:18:05Z</time>
      </trkpt>
      <trkpt lat="44.11064" lon="3.27701">
        <ele>654</ele>
        <time>2017-03-03T18:20:05Z</time>
      </trkpt>
      <trkpt lat="44.11067" lon="3.27704">
        <ele>654</ele>
        <time>2017-03-03T18:22:05Z</time>
      </trkpt>
      <trkpt lat="44.11069" lon="3.27707">
        <ele>654</ele>
        <time>2017-03-03T18:24:05Z</time>
      </trkpt>
      <trkpt lat="44.11071" lon="3.27711">
        <ele>654</ele>
        <time>2017-03-03T18:26:05Z</time>
      </trkpt>
      <trkpt lat="44.11073" lon="3.27716">
        <ele>653</ele>
        <time>2017-03-03T18:28:05Z</time>
      </trkpt>
      <trkpt lat="44.11075" lon="3.27722">
        <ele>653</ele>
        <time>2017-03-03T18:30:05Z</time>
      </trkpt>
      <trkpt lat="44.11076" lon="3.27733">
        <ele>653</ele>
        <time>2017-03-03T18:32:05Z</time>
      </trkpt>
      <trkpt lat="44.11078" lon="3.27743">
        <ele>653</ele>
        <time>2017-03-03T18:34:05Z</time>
      </trkpt>
      <trkpt lat="44.11079" lon="3.27751">
        <ele>653</ele>
        <time>2017-03-03T18:36:05Z</time>
      </trkpt>
      <trkpt lat="44.11079" lon="3.27758">
        <ele>654</ele>
        <time>2017-03-03T18:38:05Z</time>
      </trkpt>
      <trkpt lat="44.1108" lon="3.27764">
        <ele>655</ele>
        <time>2017-03-03T18:40:05Z</time>
      </trkpt>
      <trkpt lat="44.11081" lon="3.27768">
        <ele>655</ele>
        <time>2017-03-03T18:42:05Z</time>
      </trkpt>
      <trkpt lat="44.11082" lon="3.27773">
        <ele>655</ele>
        <time>2017-03-03T18:44:05Z</time>
      </trkpt>
      <trkpt lat="44.11083" lon="3.27779">
        <ele>656</ele>
        <time>2017-03-03T18:46:05Z</time>
      </trkpt>
      <trkpt lat="44.11086" lon="3.27787">
        <ele>657</ele>
        <time>2017-03-03T18:48:05Z</time>
      </trkpt>
      <trkpt lat="44.11087" lon="3.27793">
        <ele>658</ele>
        <time>2017-03-03T18:50:05Z</time>
      </trkpt>
      <trkpt lat="44.11088" lon="3.278">
        <ele>659</ele>
        <time>2017-03-03T18:52:05Z</time>
      </trkpt>
      <trkpt lat="44.11088" lon="3.27805">
        <ele>659</ele>
        <time>2017-03-03T18:54:05Z</time>
      </trkpt>
      <trkpt lat="44.11089" lon="3.27811">
        <ele>660</ele>
        <time>2017-03-03T18:56:05Z</time>
      </trkpt>
      <trkpt lat="44.11089" lon="3.27817">
        <ele>661</ele>
        <time>2017-03-03T18:58:05Z</time>
      </trkpt>
      <trkpt lat="44.1109" lon="3.27823">
        <ele>661</ele>
        <time>2017-03-03T19:00:05Z</time>
      </trkpt>
      <trkpt lat="44.11091" lon="3.27824">
        <ele>662</ele>
        <time>2017-03-03T19:02:05Z</time>
      </trkpt>
      <trkpt lat="44.11094" lon="3.27828">
        <ele>662</ele>
        <time>2017-03-03T19:04:05Z</time>
      </trkpt>
      <trkpt lat="44.11097" lon="3.2783">
        <ele>662</ele>
        <time>2017-03-03T19:06:05Z</time>
      </trkpt>
      <trkpt lat="44.11102" lon="3.27834">
        <ele>663</ele>
        <time>2017-03-03T19:08:05Z</time>
      </trkpt>
      <trkpt lat="44.1111" lon="3.27837">
        <ele>664</ele>
        <time>2017-03-03T19:10:05Z</time>
      </trkpt>
      <trkpt lat="44.11115" lon="3.27839">
        <ele>665</ele>
        <time>2017-03-03T19:12:05Z</time>
      </trkpt>
      <trkpt lat="44.11119" lon="3.2784">
        <ele>665</ele>
        <time>2017-03-03T19:14:05Z</time>
      </trkpt>
      <trkpt lat="44.11122" lon="3.27842">
        <ele>666</ele>
        <time>2017-03-03T19:16:05Z</time>
      </trkpt>
      <trkpt lat="44.11124" lon="3.27843">
        <ele>666</ele>
        <time>2017-03-03T19:18:05Z</time>
      </trkpt>
      <trkpt lat="44.11126" lon="3.27844">
        <ele>666</ele>
        <time>2017-03-03T19:20:05Z</time>
      </trkpt>
      <trkpt lat="44.11128" lon="3.27846">
        <ele>666</ele>
        <time>2017-03-03T19:22:05Z</time>
      </trkpt>
      <trkpt lat="44.11129" lon="3.27848">
        <ele>667</ele>
        <time>2017-03-03T19:24:05Z</time>
      </trkpt>
      <trkpt lat="44.11131" lon="3.27849">
        <ele>667</ele>
        <time>2017-03-03T19:26:05Z</time>
      </trkpt>
      <trkpt lat="44.11134" lon="3.27848">
        <ele>667</ele>
        <time>2017-03-03T19:28:05Z</time>
      </trkpt>
      <trkpt lat="44.11138" lon="3.27848">
        <ele>667</ele>
        <time>2017-03-03T19:30:05Z</time>
      </trkpt>
      <trkpt lat="44.11145" lon="3.27847">
        <ele>667</ele>
        <time>2017-03-03T19:32:05Z</time>
      </trkpt>
      <trkpt lat="44.11148" lon="3.27846">
        <ele>667</ele>
        <time>2017-03-03T19:34:05Z</time>
      </trkpt>
      <trkpt lat="44.11152" lon="3.27845">
        <ele>667</ele>
        <time>2017-03-03T19:36:05Z</time>
      </trkpt>
      <trkpt lat="44.11154" lon="3.27845">
        <ele>667</ele>
        <time>2017-03-03T19:38:05Z</time>
      </trkpt>
      <trkpt lat="44.11156" lon="3.27845">
        <ele>667</ele>
        <time>2017-03-03T19:40:05Z</time>
      </trkpt>
      <trkpt lat="44.11158" lon="3.27843">
        <ele>667</ele>
        <time>2017-03-03T19:42:05Z</time>
      </trkpt>
      <trkpt lat="44.11161" lon="3.27844">
        <ele>667</ele>
        <time>2017-03-03T19:44:05Z</time>
      </trkpt>
      <trkpt lat="44.11167" lon="3.27847">
        <ele>668</ele>
        <time>2017-03-03T19:46:05Z</time>
      </trkpt>
      <trkpt lat="44.11175" lon="3.2785">
        <ele>670</ele>
        <time>2017-03-03T19:48:05Z</time>
      </trkpt>
      <trkpt lat="44.11182" lon="3.27854">
        <ele>671</ele>
        <time>2017-03-03T19:50:05Z</time>
      </trkpt>
      <trkpt lat="44.11186" lon="3.27856">
        <ele>672</ele>
        <time>2017-03-03T19:52:05Z</time>
      </trkpt>
      <trkpt lat="44.11192" lon="3.27858">
        <ele>673</ele>
        <time>2017-03-03T19:54:05Z</time>
      </trkpt>
      <trkpt lat="44.11198" lon="3.27858">
        <ele>674</ele>
        <time>2017-03-03T19:56:05Z</time>
      </trkpt>
      <trkpt lat="44.11205" lon="3.27856">
        <ele>675</ele>
        <time>2017-03-03T19:58:05Z</time>
      </trkpt>
      <trkpt lat="44.11211" lon="3.27853">
        <ele>676</ele>
        <time>2017-03-03T20:00:05Z</time>
      </trkpt>
      <trkpt lat="44.11215" lon="3.2785">
        <ele>676</ele>
        <time>2017-03-03T20:02:05Z</time>
      </trkpt>
      <trkpt lat="44.11221" lon="3.27848">
        <ele>677</ele>
        <time>2017-03-03T20:04:05Z</time>
      </trkpt>
      <trkpt lat="44.11225" lon="3.27846">
        <ele>677</ele>
        <time>2017-03-03T20:06:05Z</time>
      </trkpt>
      <trkpt lat="44.1123" lon="3.27845">
        <ele>678</ele>
        <time>2017-03-03T20:08:05Z</time>
      </trkpt>
      <trkpt lat="44.11233" lon="3.27845">
        <ele>678</ele>
        <time>2017-03-03T20:10:05Z</time>
      </trkpt>
      <trkpt lat="44.11236" lon="3.27846">
        <ele>679</ele>
        <time>2017-03-03T20:12:05Z</time>
      </trkpt>
      <trkpt lat="44.11242" lon="3.27847">
        <ele>680</ele>
        <time>2017-03-03T20:14:05Z</time>
      </trkpt>
      <trkpt lat="44.11247" lon="3.2785">
        <ele>681</ele>
        <time>2017-03-03T20:16:05Z</time>
      </trkpt>
      <trkpt lat="44.11255" lon="3.27854">
        <ele>683</ele>
        <time>2017-03-03T20:18:05Z</time>
      </trkpt>
      <trkpt lat="44.11262" lon="3.27858">
        <ele>685</ele>
        <time>2017-03-03T20:20:05Z</time>
      </trkpt>
      <trkpt lat="44.11268" lon="3.27863">
        <ele>686</ele>
        <time>2017-03-03T20:22:05Z</time>
      </trkpt>
      <trkpt lat="44.11272" lon="3.27866">
        <ele>687</ele>
        <time>2017-03-03T20:24:05Z</time>
      </trkpt>
      <trkpt lat="44.11277" lon="3.27868">
        <ele>688</ele>
        <time>2017-03-03T20:26:05Z</time>
      </trkpt>
      <trkpt lat="44.1128" lon="3.27869">
        <ele>689</ele>
        <time>2017-03-03T20:28:05Z</time>
      </trkpt>
      <trkpt lat="44.11288" lon="3.27871">
        <ele>690</ele>
        <time>2017-03-03T20:30:05Z</time>
      </trkpt>
      <trkpt lat="44.11295" lon="3.27871">
        <ele>691</ele>
        <time>2017-03-03T20:32:05Z</time>
      </trkpt>
      <trkpt lat="44.113" lon="3.27872">
        <ele>692</ele>
        <time>2017-03-03T20:34:05Z</time>
      </trkpt>
      <trkpt lat="44.11306" lon="3.27876">
        <ele>693</ele>
        <time>2017-03-03T20:36:05Z</time>
      </trkpt>
      <trkpt lat="44.11313" lon="3.27881">
        <ele>695</ele>
        <time>2017-03-03T20:38:05Z</time>
      </trkpt>
      <trkpt lat="44.11322" lon="3.27886">
        <ele>696</ele>
        <time>2017-03-03T20:40:05Z</time>
      </trkpt>
      <trkpt lat="44.11332" lon="3.27893">
        <ele>698</ele>
        <time>2017-03-03T20:42:05Z</time>
      </trkpt>
      <trkpt lat="44.11342" lon="3.27899">
        <ele>699</ele>
        <time>2017-03-03T20:44:05Z</time>
      </trkpt>
      <trkpt lat="44.1135" lon="3.27905">
        <ele>700</ele>
        <time>2017-03-03T20:46:05Z</time>
      </trkpt>
      <trkpt lat="44.11355" lon="3.2791">
        <ele>700</ele>
        <time>2017-03-03T20:48:05Z</time>
      </trkpt>
      <trkpt lat="44.11359" lon="3.27913">
        <ele>701</ele>
        <time>2017-03-03T20:50:05Z</time>
      </trkpt>
      <trkpt lat="44.11363" lon="3.27915">
        <ele>701</ele>
        <time>2017-03-03T20:52:05Z</time>
      </trkpt>
      <trkpt lat="44.11366" lon="3.27915">
        <ele>701</ele>
        <time>2017-03-03T20:54:05Z</time>
      </trkpt>
      <trkpt lat="44.11368" lon="3.27916">
        <ele>701</ele>
        <time>2017-03-03T20:56:05Z</time>
      </trkpt>
      <trkpt lat="44.1137" lon="3.27918">
        <ele>702</ele>
        <time>2017-03-03T20:58:05Z</time>
      </trkpt>
      <trkpt lat="44.11373" lon="3.27919">
        <ele>702</ele>
        <time>2017-03-03T21:00:05Z</time>
      </trkpt>
      <trkpt lat="44.11375" lon="3.27921">
        <ele>703</ele>
        <time>2017-03-03T21:02:05Z</time>
      </trkpt>
      <trkpt lat="44.11377" lon="3.27923">
        <ele>703</ele>
        <time>2017-03-03T21:04:05Z</time>
      </trkpt>
      <trkpt lat="44.11379" lon="3.27927">
        <ele>704</ele>
        <time>2017-03-03T21:06:05Z</time>
      </trkpt>
      <trkpt lat="44.11381" lon="3.27933">
        <ele>706</ele>
        <time>2017-03-03T21:08:05Z</time>
      </trkpt>
      <trkpt lat="44.11383" lon="3.27937">
        <ele>706</ele>
        <time>2017-03-03T21:10:05Z</time>
      </trkpt>
      <trkpt lat="44.11389" lon="3.27945">
        <ele>708</ele>
        <time>2017-03-03T21:12:05Z</time>
      </trkpt>
      <trkpt lat="44.11395" lon="3.27949">
        <ele>709</ele>
        <time>2017-03-03T21:14:05Z</time>
      </trkpt>
      <trkpt lat="44.11399" lon="3.27952">
        <ele>709</ele>
        <time>2017-03-03T21:16:05Z</time>
      </trkpt>
      <trkpt lat="44.11404" lon="3.27953">
        <ele>709</ele>
        <time>2017-03-03T21:18:05Z</time>
      </trkpt>
      <trkpt lat="44.1141" lon="3.27955">
        <ele>710</ele>
        <time>2017-03-03T21:20:05Z</time>
      </trkpt>
      <trkpt lat="44.11412" lon="3.27956">
        <ele>710</ele>
        <time>2017-03-03T21:22:05Z</time>
      </trkpt>
      <trkpt lat="44.11415" lon="3.27958">
        <ele>710</ele>
        <time>2017-03-03T21:24:05Z</time>
      </trkpt>
      <trkpt lat="44.11421" lon="3.27962">
        <ele>711</ele>
        <time>2017-03-03T21:26:05Z</time>
      </trkpt>
      <trkpt lat="44.11427" lon="3.27967">
        <ele>713</ele>
        <time>2017-03-03T21:28:05Z</time>
      </trkpt>
      <trkpt lat="44.11432" lon="3.27968">
        <ele>714</ele>
        <time>2017-03-03T21:30:05Z</time>
      </trkpt>
      <trkpt lat="44.11435" lon="3.27968">
        <ele>714</ele>
        <time>2017-03-03T21:32:05Z</time>
      </trkpt>
      <trkpt lat="44.11438" lon="3.27969">
        <ele>715</ele>
        <time>2017-03-03T21:34:05Z</time>
      </trkpt>
      <trkpt lat="44.11443" lon="3.2797">
        <ele>715</ele>
        <time>2017-03-03T21:36:05Z</time>
      </trkpt>
      <trkpt lat="44.11448" lon="3.27972">
        <ele>716</ele>
        <time>2017-03-03T21:38:05Z</time>
      </trkpt>
      <trkpt lat="44.11454" lon="3.27975">
        <ele>717</ele>
        <time>2017-03-03T21:40:05Z</time>
      </trkpt>
      <trkpt lat="44.11459" lon="3.27979">
        <ele>718</ele>
        <time>2017-03-03T21:42:05Z</time>
      </trkpt>
      <trkpt lat="44.11462" lon="3.27982">
        <ele>718</ele>
        <time>2017-03-03T21:44:05Z</time>
      </trkpt>
      <trkpt lat="44.11465" lon="3.2799">
        <ele>718</ele>
        <time>2017-03-03T21:46:05Z</time>
      </trkpt>
      <trkpt lat="44.11472" lon="3.28006">
        <ele>718</ele>
        <time>2017-03-03T21:48:05Z</time>
      </trkpt>
      <trkpt lat="44.11476" lon="3.28016">
        <ele>718</ele>
        <time>2017-03-03T21:50:05Z</time>
      </trkpt>
      <trkpt lat="44.11481" lon="3.28026">
        <ele>719</ele>
        <time>2017-03-03T21:52:05Z</time>
      </trkpt>
      <trkpt lat="44.11484" lon="3.28035">
        <ele>719</ele>
        <time>2017-03-03T21:54:05Z</time>
      </trkpt>
      <trkpt lat="44.11488" lon="3.28042">
        <ele>719</ele>
        <time>2017-03-03T21:56:05Z</time>
      </trkpt>
      <trkpt lat="44.11491" lon="3.28048">
        <ele>719</ele>
        <time>2017-03-03T21:58:05Z</time>
      </trkpt>
      <trkpt lat="44.11494" lon="3.28052">
        <ele>718</ele>
        <time>2017-03-03T22:00:05Z</time>
      </trkpt>
      <trkpt lat="44.11498" lon="3.28056">
        <ele>718</ele>
        <time>2017-03-03T22:02:05Z</time>
      </trkpt>
      <trkpt lat="44.11503" lon="3.28058">
        <ele>718</ele>
        <time>2017-03-03T22:04:05Z</time>
      </trkpt>
      <trkpt lat="44.11508" lon="3.2806">
        <ele>719</ele>
        <time>2017-03-03T22:06:05Z</time>
      </trkpt>
      <trkpt lat="44.11513" lon="3.28063">
        <ele>719</ele>
        <time>2017-03-03T22:08:05Z</time>
      </trkpt>
      <trkpt lat="44.11522" lon="3.28066">
        <ele>720</ele>
        <time>2017-03-03T22:10:05Z</time>
      </trkpt>
      <trkpt lat="44.11531" lon="3.28068">
        <ele>721</ele>
        <time>2017-03-03T22:12:05Z</time>
      </trkpt>
      <trkpt lat="44.11539" lon="3.28069">
        <ele>722</ele>
        <time>2017-03-03T22:14:05Z</time>
      </trkpt>
      <trkpt lat="44.11546" lon="3.28071">
        <ele>722</ele>
        <time>2017-03-03T22:16:05Z</time>
      </trkpt>
      <trkpt lat="44.11554" lon="3.28073">
        <ele>723</ele>
        <time>2017-03-03T22:18:05Z</time>
      </trkpt>
      <trkpt lat="44.11562" lon="3.28074">
        <ele>723</ele>
        <time>2017-03-03T22:20:05Z</time>
      </trkpt>
      <trkpt lat="44.11571" lon="3.28074">
        <ele>724</ele>
        <time>2017-03-03T22:22:05Z</time>
      </trkpt>
      <trkpt lat="44.1158" lon="3.28074">
        <ele>725</ele>
        <time>2017-03-03T22:24:05Z</time>
      </trkpt>
      <trkpt lat="44.11588" lon="3.28074">
        <ele>726</ele>
        <time>2017-03-03T22:26:05Z</time>
      </trkpt>
      <trkpt lat="44.11596" lon="3.28074">
        <ele>726</ele>
        <time>2017-03-03T22:28:05Z</time>
      </trkpt>
      <trkpt lat="44.11602" lon="3.28074">
        <ele>727</ele>
        <time>2017-03-03T22:30:05Z</time>
      </trkpt>
      <trkpt lat="44.11607" lon="3.28074">
        <ele>727</ele>
        <time>2017-03-03T22:32:05Z</time>
      </trkpt>
      <trkpt lat="44.11614" lon="3.28075">
        <ele>728</ele>
        <time>2017-03-03T22:34:05Z</time>
      </trkpt>
      <trkpt lat="44.11617" lon="3.28076">
        <ele>728</ele>
        <time>2017-03-03T22:36:05Z</time>
      </trkpt>
      <trkpt lat="44.11621" lon="3.28078">
        <ele>728</ele>
        <time>2017-03-03T22:38:05Z</time>
      </trkpt>
      <trkpt lat="44.11627" lon="3.28082">
        <ele>727</ele>
        <time>2017-03-03T22:40:05Z</time>
      </trkpt>
      <trkpt lat="44.11633" lon="3.28086">
        <ele>728</ele>
        <time>2017-03-03T22:42:05Z</time>
      </trkpt>
      <trkpt lat="44.11641" lon="3.28093">
        <ele>729</ele>
        <time>2017-03-03T22:44:05Z</time>
      </trkpt>
      <trkpt lat="44.11649" lon="3.28101">
        <ele>730</ele>
        <time>2017-03-03T22:46:05Z</time>
      </trkpt>
      <trkpt lat="44.11655" lon="3.28106">
        <ele>731</ele>
        <time>2017-03-03T22:48:05Z</time>
      </trkpt>
      <trkpt lat="44.1166" lon="3.28109">
        <ele>732</ele>
        <time>2017-03-03T22:50:05Z</time>
      </trkpt>
      <trkpt lat="44.11666" lon="3.28114">
        <ele>733</ele>
        <time>2017-03-03T22:52:05Z</time>
      </trkpt>
      <trkpt lat="44.11672" lon="3.28119">
        <ele>734</ele>
        <time>2017-03-03T22:54:05Z</time>
      </trkpt>
      <trkpt lat="44.11679" lon="3.28125">
        <ele>735</ele>
        <time>2017-03-03T22:56:05Z</time>
      </trkpt>
      <trkpt lat="44.11686" lon="3.28132">
        <ele>736</ele>
        <time>2017-03-03T22:58:05Z</time>
      </trkpt>
      <trkpt lat="44.11689" lon="3.28136">
        <ele>737</ele>
        <time>2017-03-03T23:00:05Z</time>
      </trkpt>
      <trkpt lat="44.1169" lon="3.28137">
        <ele>737</ele>
        <time>2017-03-03T23:02:05Z</time>
      </trkpt>
      <trkpt lat="44.11692" lon="3.2814">
        <ele>737</ele>
        <time>2017-03-03T23:04:05Z</time>
      </trkpt>
      <trkpt lat="44.11694" lon="3.28143">
        <ele>738</ele>
        <time>2017-03-03T23:06:05Z</time>
      </trkpt>
      <trkpt lat="44.11696" lon="3.28147">
        <ele>738</ele>
        <time>2017-03-03T23:08:05Z</time>
      </trkpt>
      <trkpt lat="44.11697" lon="3.28155">
        <ele>739</ele>
        <time>2017-03-03T23:10:05Z</time>
      </trkpt>
      <trkpt lat="44.11697" lon="3.28161">
        <ele>739</ele>
        <time>2017-03-03T23:12:05Z</time>
      </trkpt>
      <trkpt lat="44.11699" lon="3.28172">
        <ele>740</ele>
        <time>2017-03-03T23:14:05Z</time>
      </trkpt>
      <trkpt lat="44.11701" lon="3.28182">
        <ele>741</ele>
        <time>2017-03-03T23:16:05Z</time>
      </trkpt>
      <trkpt lat="44.11703" lon="3.28191">
        <ele>742</ele>
        <time>2017-03-03T23:18:05Z</time>
      </trkpt>
      <trkpt lat="44.11704" lon="3.28197">
        <ele>743</ele>
        <time>2017-03-03T23:20:05Z</time>
      </trkpt>
      <trkpt lat="44.11703" lon="3.28201">
        <ele>743</ele>
        <time>2017-03-03T23:22:05Z</time>
      </trkpt>
      <trkpt lat="44.11702" lon="3.28204">
        <ele>744</ele>
        <time>2017-03-03T23:24:05Z</time>
      </trkpt>
      <trkpt lat="44.11699" lon="3.28211">
        <ele>744</ele>
        <time>2017-03-03T23:26:05Z</time>
      </trkpt>
      <trkpt lat="44.11696" lon="3.28222">
        <ele>745</ele>
        <time>2017-03-03T23:28:05Z</time>
      </trkpt>
      <trkpt lat="44.11692" lon="3.28236">
        <ele>747</ele>
        <time>2017-03-03T23:30:05Z</time>
      </trkpt>
      <trkpt lat="44.11688" lon="3.28249">
        <ele>748</ele>
        <time>2017-03-03T23:32:05Z</time>
      </trkpt>
      <trkpt lat="44.11685" lon="3.28263">
        <ele>748</ele>
        <time>2017-03-03T23:34:05Z</time>
      </trkpt>
      <trkpt lat="44.11682" lon="3.28281">
        <ele>749</ele>
        <time>2017-03-03T23:36:05Z</time>
      </trkpt>
      <trkpt lat="44.1168" lon="3.28296">
        <ele>750</ele>
        <time>2017-03-03T23:38:05Z</time>
      </trkpt>
      <trkpt lat="44.11678" lon="3.28304">
        <ele>750</ele>
        <time>2017-03-03T23:40:05Z</time>
      </trkpt>
      <trkpt lat="44.11676" lon="3.28314">
        <ele>750</ele>
        <time>2017-03-03T23:42:05Z</time>
      </trkpt>
      <trkpt lat="44.11673" lon="3.28321">
        <ele>750</ele>
        <time>2017-03-03T23:44:05Z</time>
      </trkpt>
      <trkpt lat="44.11671" lon="3.28325">
        <ele>750</ele>
        <time>2017-03-03T23:46:05Z</time>
      </trkpt>
      <trkpt lat="44.11669" lon="3.28328">
        <ele>750</ele>
        <time>2017-03-03T23:48:05Z</time>
      </trkpt>
      <trkpt lat="44.11664" lon="3.28334">
        <ele>750</ele>
        <time>2017-03-03T23:50:05Z</time>
      </trkpt>
      <trkpt lat="44.11659" lon="3.28341">
        <ele>751</ele>
        <time>2017-03-03T23:52:05Z</time>
      </trkpt>
      <trkpt lat="44.11654" lon="3.28349">
        <ele>751</ele>
        <time>2017-03-03T23:54:05Z</time>
      </trkpt>
      <trkpt lat="44.11648" lon="3.28359">
        <ele>752</ele>
        <time>2017-03-03T23:56:05Z</time>
      </trkpt>
      <trkpt lat="44.11642" lon="3.28371">
        <ele>753</ele>
        <time>2017-03-03T23:58:05Z</time>
      </trkpt>
      <trkpt lat="44.11638" lon="3.28377">
        <ele>753</ele>
        <time>2017-03-04T00:00:05Z</time>
      </trkpt>
      <trkpt lat="44.11632" lon="3.28383">
        <ele>754</ele>
        <time>2017-03-04T00:02:05Z</time>
      </trkpt>
      <trkpt lat="44.11627" lon="3.2839">
        <ele>755</ele>
        <time>2017-03-04T00:04:05Z</time>
      </trkpt>
      <trkpt lat="44.11622" lon="3.28398">
        <ele>756</ele>
        <time>2017-03-04T00:06:05Z</time>
      </trkpt>
      <trkpt lat="44.11617" lon="3.28404">
        <ele>756</ele>
        <time>2017-03-04T00:08:05Z</time>
      </trkpt>
      <trkpt lat="44.11611" lon="3.28413">
        <ele>757</ele>
        <time>2017-03-04T00:10:05Z</time>
      </trkpt>
      <trkpt lat="44.11607" lon="3.28419">
        <ele>758</ele>
        <time>2017-03-04T00:12:05Z</time>
      </trkpt>
      <trkpt lat="44.11603" lon="3.28428">
        <ele>758</ele>
        <time>2017-03-04T00:14:05Z</time>
      </trkpt>
      <trkpt lat="44.11598" lon="3.28436">
        <ele>759</ele>
        <time>2017-03-04T00:16:05Z</time>
      </trkpt>
      <trkpt lat="44.11592" lon="3.28447">
        <ele>760</ele>
        <time>2017-03-04T00:18:05Z</time>
      </trkpt>
      <trkpt lat="44.11586" lon="3.28455">
        <ele>761</ele>
        <time>2017-03-04T00:20:05Z</time>
      </trkpt>
      <trkpt lat="44.11582" lon="3.28461">
        <ele>761</ele>
        <time>2017-03-04T00:22:05Z</time>
      </trkpt>
      <trkpt lat="44.11578" lon="3.28469">
        <ele>762</ele>
        <time>2017-03-04T00:24:05Z</time>
      </trkpt>
      <trkpt lat="44.11575" lon="3.28476">
        <ele>763</ele>
        <time>2017-03-04T00:26:05Z</time>
      </trkpt>
      <trkpt lat="44.11571" lon="3.28483">
        <ele>764</ele>
        <time>2017-03-04T00:28:05Z</time>
      </trkpt>
      <trkpt lat="44.11567" lon="3.28489">
        <ele>764</ele>
        <time>2017-03-04T00:30:05Z</time>
      </trkpt>
      <trkpt lat="44.11562" lon="3.28494">
        <ele>766</ele>
        <time>2017-03-04T00:32:05Z</time>
      </trkpt>
      <trkpt lat="44.11557" lon="3.28502">
        <ele>767</ele>
        <time>2017-03-04T00:34:05Z</time>
      </trkpt>
      <trkpt lat="44.11554" lon="3.28507">
        <ele>768</ele>
        <time>2017-03-04T00:36:05Z</time>
      </trkpt>
      <trkpt lat="44.11551" lon="3.28515">
        <ele>769</ele>
        <time>2017-03-04T00:38:05Z</time>
      </trkpt>
      <trkpt lat="44.11548" lon="3.28523">
        <ele>770</ele>
        <time>2017-03-04T00:40:05Z</time>
      </trkpt>
      <trkpt lat="44.11543" lon="3.28541">
        <ele>772</ele>
        <time>2017-03-04T00:42:05Z</time>
      </trkpt>
      <trkpt lat="44.1154" lon="3.28556">
        <ele>774</ele>
        <time>2017-03-04T00:44:05Z</time>
      </trkpt>
      <trkpt lat="44.11537" lon="3.28568">
        <ele>776</ele>
        <time>2017-03-04T00:46:05Z</time>
      </trkpt>
      <trkpt lat="44.11533" lon="3.28582">
        <ele>778</ele>
        <time>2017-03-04T00:48:05Z</time>
      </trkpt>
      <trkpt lat="44.11529" lon="3.28596">
        <ele>780</ele>
        <time>2017-03-04T00:50:05Z</time>
      </trkpt>
      <trkpt lat="44.11524" lon="3.28611">
        <ele>782</ele>
        <time>2017-03-04T00:52:05Z</time>
      </trkpt>
      <trkpt lat="44.11519" lon="3.28623">
        <ele>784</ele>
        <time>2017-03-04T00:54:05Z</time>
      </trkpt>
      <trkpt lat="44.11513" lon="3.28636">
        <ele>786</ele>
        <time>2017-03-04T00:56:05Z</time>
      </trkpt>
      <trkpt lat="44.11506" lon="3.2865">
        <ele>789</ele>
        <time>2017-03-04T00:58:05Z</time>
      </trkpt>
      <trkpt lat="44.11502" lon="3.28658">
        <ele>790</ele>
        <time>2017-03-04T01:00:05Z</time>
      </trkpt>
      <trkpt lat="44.115" lon="3.28664">
        <ele>791</ele>
        <time>2017-03-04T01:02:05Z</time>
      </trkpt>
      <trkpt lat="44.11498" lon="3.2867">
        <ele>791</ele>
        <time>2017-03-04T01:04:05Z</time>
      </trkpt>
      <trkpt lat="44.11496" lon="3.28674">
        <ele>792</ele>
        <time>2017-03-04T01:06:05Z</time>
      </trkpt>
      <trkpt lat="44.11494" lon="3.28678">
        <ele>792</ele>
        <time>2017-03-04T01:08:05Z</time>
      </trkpt>
      <trkpt lat="44.11488" lon="3.28685">
        <ele>792</ele>
        <time>2017-03-04T01:10:05Z</time>
      </trkpt>
      <trkpt lat="44.11483" lon="3.28692">
        <ele>793</ele>
        <time>2017-03-04T01:12:05Z</time>
      </trkpt>
      <trkpt lat="44.1148" lon="3.28698">
        <ele>793</ele>
        <time>2017-03-04T01:14:05Z</time>
      </trkpt>
      <trkpt lat="44.11478" lon="3.28702">
        <ele>793</ele>
        <time>2017-03-04T01:16:05Z</time>
      </trkpt>
      <trkpt lat="44.11474" lon="3.28711">
        <ele>793</ele>
        <time>2017-03-04T01:18:05Z</time>
      </trkpt>
      <trkpt lat="44.11473" lon="3.28716">
        <ele>794</ele>
        <time>2017-03-04T01:20:05Z</time>
      </trkpt>
      <trkpt lat="44.11471" lon="3.28725">
        <ele>794</ele>
        <time>2017-03-04T01:22:05Z</time>
      </trkpt>
      <trkpt lat="44.11467" lon="3.28744">
        <ele>794</ele>
        <time>2017-03-04T01:24:05Z</time>
      </trkpt>
      <trkpt lat="44.11464" lon="3.28762">
        <ele>795</ele>
        <time>2017-03-04T01:26:05Z</time>
      </trkpt>
      <trkpt lat="44.11461" lon="3.28781">
        <ele>795</ele>
        <time>2017-03-04T01:28:05Z</time>
      </trkpt>
      <trkpt lat="44.11457" lon="3.28802">
        <ele>795</ele>
        <time>2017-03-04T01:30:05Z</time>
      </trkpt>
      <trkpt lat="44.11454" lon="3.28819">
        <ele>795</ele>
        <time>2017-03-04T01:32:05Z</time>
      </trkpt>
      <trkpt lat="44.11451" lon="3.28832">
        <ele>795</ele>
        <time>2017-03-04T01:34:05Z</time>
      </trkpt>
      <trkpt lat="44.11449" lon="3.2884">
        <ele>794</ele>
        <time>2017-03-04T01:36:05Z</time>
      </trkpt>
      <trkpt lat="44.11446" lon="3.28845">
        <ele>794</ele>
        <time>2017-03-04T01:38:05Z</time>
      </trkpt>
      <trkpt lat="44.11442" lon="3.28853">
        <ele>793</ele>
        <time>2017-03-04T01:40:05Z</time>
      </trkpt>
      <trkpt lat="44.11437" lon="3.28861">
        <ele>793</ele>
        <time>2017-03-04T01:42:05Z</time>
      </trkpt>
      <trkpt lat="44.11432" lon="3.28868">
        <ele>792</ele>
        <time>2017-03-04T01:44:05Z</time>
      </trkpt>
      <trkpt lat="44.11426" lon="3.28874">
        <ele>792</ele>
        <time>2017-03-04T01:46:05Z</time>
      </trkpt>
      <trkpt lat="44.1142" lon="3.2888">
        <ele>791</ele>
        <time>2017-03-04T01:48:05Z</time>
      </trkpt>
      <trkpt lat="44.11415" lon="3.28886">
        <ele>791</ele>
        <time>2017-03-04T01:50:05Z</time>
      </trkpt>
      <trkpt lat="44.11408" lon="3.28895">
        <ele>791</ele>
        <time>2017-03-04T01:52:05Z</time>
      </trkpt>
      <trkpt lat="44.11402" lon="3.28903">
        <ele>791</ele>
        <time>2017-03-04T01:54:05Z</time>
      </trkpt>
      <trkpt lat="44.11399" lon="3.28909">
        <ele>791</ele>
        <time>2017-03-04T01:56:05Z</time>
      </trkpt>
      <trkpt lat="44.11397" lon="3.28914">
        <ele>791</ele>
        <time>2017-03-04T01:58:05Z</time>
      </trkpt>
      <trkpt lat="44.11394" lon="3.28923">
        <ele>791</ele>
        <time>2017-03-04T02:00:05Z</time>
      </trkpt>
      <trkpt lat="44.11393" lon="3.28927">
        <ele>791</ele>
        <time>2017-03-04T02:02:05Z</time>
      </trkpt>
      <trkpt lat="44.11393" lon="3.28931">
        <ele>791</ele>
        <time>2017-03-04T02:04:05Z</time>
      </trkpt>
      <trkpt lat="44.11392" lon="3.2894">
        <ele>791</ele>
        <time>2017-03-04T02:06:05Z</time>
      </trkpt>
      <trkpt lat="44.11391" lon="3.28948">
        <ele>791</ele>
        <time>2017-03-04T02:08:05Z</time>
      </trkpt>
      <trkpt lat="44.1139" lon="3.2896">
        <ele>791</ele>
        <time>2017-03-04T02:10:05Z</time>
      </trkpt>
      <trkpt lat="44.11389" lon="3.28972">
        <ele>791</ele>
        <time>2017-03-04T02:12:05Z</time>
      </trkpt>
      <trkpt lat="44.11389" lon="3.28979">
        <ele>791</ele>
        <time>2017-03-04T02:14:05Z</time>
      </trkpt>
      <trkpt lat="44.1139" lon="3.28989">
        <ele>792</ele>
        <time>2017-03-04T02:16:05Z</time>
      </trkpt>
      <trkpt lat="44.1139" lon="3.29003">
        <ele>792</ele>
        <time>2017-03-04T02:18:05Z</time>
      </trkpt>
      <trkpt lat="44.11389" lon="3.2901">
        <ele>792</ele>
        <time>2017-03-04T02:20:05Z</time>
      </trkpt>
      <trkpt lat="44.11389" lon="3.29014">
        <ele>792</ele>
        <time>2017-03-04T02:22:05Z</time>
      </trkpt>
      <trkpt lat="44.11388" lon="3.29018">
        <ele>792</ele>
        <time>2017-03-04T02:24:05Z</time>
      </trkpt>
      <trkpt lat="44.11388" lon="3.29021">
        <ele>792</ele>
        <time>2017-03-04T02:26:05Z</time>
      </trkpt>
      <trkpt lat="44.11387" lon="3.29025">
        <ele>792</ele>
        <time>2017-03-04T02:28:05Z</time>
      </trkpt>
      <trkpt lat="44.11388" lon="3.2903">
        <ele>792</ele>
        <time>2017-03-04T02:30:05Z</time>
      </trkpt>
      <trkpt lat="44.11388" lon="3.29034">
        <ele>792</ele>
        <time>2017-03-04T02:32:05Z</time>
      </trkpt>
      <trkpt lat="44.11388" lon="3.29039">
        <ele>792</ele>
        <time>2017-03-04T02:34:05Z</time>
      </trkpt>
      <trkpt lat="44.11387" lon="3.29043">
        <ele>792</ele>
        <time>2017-03-04T02:36:05Z</time>
      </trkpt>
      <trkpt lat="44.11386" lon="3.29047">
        <ele>792</ele>
        <time>2017-03-04T02:38:05Z</time>
      </trkpt>
      <trkpt lat="44.11383" lon="3.29051">
        <ele>792</ele>
        <time>2017-03-04T02:40:05Z</time>
      </trkpt>
      <trkpt lat="44.11381" lon="3.29054">
        <ele>792</ele>
        <time>2017-03-04T02:42:05Z</time>
      </trkpt>
      <trkpt lat="44.11379" lon="3.29056">
        <ele>792</ele>
        <time>2017-03-04T02:44:05Z</time>
      </trkpt>
      <trkpt lat="44.11378" lon="3.29057">
        <ele>792</ele>
        <time>2017-03-04T02:46:05Z</time>
      </trkpt>
      <trkpt lat="44.11375" lon="3.29062">
        <ele>792</ele>
        <time>2017-03-04T02:48:05Z</time>
      </trkpt>
      <trkpt lat="44.11374" lon="3.29067">
        <ele>792</ele>
        <time>2017-03-04T02:50:05Z</time>
      </trkpt>
      <trkpt lat="44.11372" lon="3.29073">
        <ele>792</ele>
        <time>2017-03-04T02:52:05Z</time>
      </trkpt>
      <trkpt lat="44.11373" lon="3.29081">
        <ele>792</ele>
        <time>2017-03-04T02:54:05Z</time>
      </trkpt>
      <trkpt lat="44.11375" lon="3.29097">
        <ele>793</ele>
        <time>2017-03-04T02:56:05Z</time>
      </trkpt>
      <trkpt lat="44.11377" lon="3.29119">
        <ele>793</ele>
        <time>2017-03-04T02:58:05Z</time>
      </trkpt>
      <trkpt lat="44.11379" lon="3.29135">
        <ele>794</ele>
        <time>2017-03-04T03:00:05Z</time>
      </trkpt>
      <trkpt lat="44.1138" lon="3.29147">
        <ele>794</ele>
        <time>2017-03-04T03:02:05Z</time>
      </trkpt>
      <trkpt lat="44.11382" lon="3.29158">
        <ele>794</ele>
        <time>2017-03-04T03:04:05Z</time>
      </trkpt>
      <trkpt lat="44.11385" lon="3.29171">
        <ele>795</ele>
        <time>2017-03-04T03:06:05Z</time>
      </trkpt>
      <trkpt lat="44.11391" lon="3.29188">
        <ele>796</ele>
        <time>2017-03-04T03:08:05Z</time>
      </trkpt>
      <trkpt lat="44.11397" lon="3.29206">
        <ele>796</ele>
        <time>2017-03-04T03:10:05Z</time>
      </trkpt>
      <trkpt lat="44.11404" lon="3.29223">
        <ele>797</ele>
        <time>2017-03-04T03:12:05Z</time>
      </trkpt>
      <trkpt lat="44.1141" lon="3.29236">
        <ele>798</ele>
        <time>2017-03-04T03:14:05Z</time>
      </trkpt>
      <trkpt lat="44.11413" lon="3.2924">
        <ele>798</ele>
        <time>2017-03-04T03:16:05Z</time>
      </trkpt>
      <trkpt lat="44.11416" lon="3.29244">
        <ele>798</ele>
        <time>2017-03-04T03:18:05Z</time>
      </trkpt>
      <trkpt lat="44.11418" lon="3.29246">
        <ele>798</ele>
        <time>2017-03-04T03:20:05Z</time>
      </trkpt>
      <trkpt lat="44.11422" lon="3.29249">
        <ele>799</ele>
        <time>2017-03-04T03:22:05Z</time>
      </trkpt>
      <trkpt lat="44.11425" lon="3.29252">
        <ele>799</ele>
        <time>2017-03-04T03:24:05Z</time>
      </trkpt>
      <trkpt lat="44.11426" lon="3.29254">
        <ele>799</ele>
        <time>2017-03-04T03:26:05Z</time>
      </trkpt>
      <trkpt lat="44.11427" lon="3.29257">
        <ele>799</ele>
        <time>2017-03-04T03:28:05Z</time>
      </trkpt>
      <trkpt lat="44.11428" lon="3.29259">
        <ele>799</ele>
        <time>2017-03-04T03:30:05Z</time>
      </trkpt>
      <trkpt lat="44.11428" lon="3.29261">
        <ele>799</ele>
        <time>2017-03-04T03:32:05Z</time>
      </trkpt>
      <trkpt lat="44.11428" lon="3.29264">
        <ele>799</ele>
        <time>2017-03-04T03:34:05Z</time>
      </trkpt>
      <trkpt lat="44.11428" lon="3.29264">
        <ele>799</ele>
        <time>2017-03-04T03:36:05Z</time>
      </trkpt>
      <trkpt lat="44.11436" lon="3.29264">
        <ele>800</ele>
        <time>2017-03-04T03:38:05Z</time>
      </trkpt>
      <trkpt lat="44.11444" lon="3.29263">
        <ele>801</ele>
        <time>2017-03-04T03:40:05Z</time>
      </trkpt>
      <trkpt lat="44.11449" lon="3.29261">
        <ele>802</ele>
        <time>2017-03-04T03:42:05Z</time>
      </trkpt>
      <trkpt lat="44.11449" lon="3.29261">
        <ele>802</ele>
        <time>2017-03-04T03:44:05Z</time>
      </trkpt>
      <trkpt lat="44.11451" lon="3.29273">
        <ele>802</ele>
        <time>2017-03-04T03:46:05Z</time>
      </trkpt>
      <trkpt lat="44.11454" lon="3.29283">
        <ele>802</ele>
        <time>2017-03-04T03:48:05Z</time>
      </trkpt>
      <trkpt lat="44.11458" lon="3.29299">
        <ele>803</ele>
        <time>2017-03-04T03:50:05Z</time>
      </trkpt>
      <trkpt lat="44.11464" lon="3.29317">
        <ele>803</ele>
        <time>2017-03-04T03:52:05Z</time>
      </trkpt>
      <trkpt lat="44.11471" lon="3.29341">
        <ele>804</ele>
        <time>2017-03-04T03:54:05Z</time>
      </trkpt>
      <trkpt lat="44.1148" lon="3.29366">
        <ele>805</ele>
        <time>2017-03-04T03:56:05Z</time>
      </trkpt>
      <trkpt lat="44.11486" lon="3.29386">
        <ele>805</ele>
        <time>2017-03-04T03:58:05Z</time>
      </trkpt>
      <trkpt lat="44.11492" lon="3.29405">
        <ele>806</ele>
        <time>2017-03-04T04:00:05Z</time>
      </trkpt>
      <trkpt lat="44.11496" lon="3.29416">
        <ele>806</ele>
        <time>2017-03-04T04:02:05Z</time>
      </trkpt>
      <trkpt lat="44.11497" lon="3.29423">
        <ele>806</ele>
        <time>2017-03-04T04:04:05Z</time>
      </trkpt>
      <trkpt lat="44.11497" lon="3.29427">
        <ele>806</ele>
        <time>2017-03-04T04:06:05Z</time>
      </trkpt>
      <trkpt lat="44.11496" lon="3.29431">
        <ele>806</ele>
        <time>2017-03-04T04:08:05Z</time>
      </trkpt>
      <trkpt lat="44.11495" lon="3.29433">
        <ele>806</ele>
        <time>2017-03-04T04:10:05Z</time>
      </trkpt>
      <trkpt lat="44.11495" lon="3.29433">
        <ele>806</ele>
        <time>2017-03-04T04:12:05Z</time>
      </trkpt>
      <trkpt lat="44.11495" lon="3.2944">
        <ele>806</ele>
        <time>2017-03-04T04:14:05Z</time>
      </trkpt>
      <trkpt lat="44.11496" lon="3.29451">
        <ele>806</ele>
        <time>2017-03-04T04:16:05Z</time>
      </trkpt>
      <trkpt lat="44.11497" lon="3.2946">
        <ele>806</ele>
        <time>2017-03-04T04:18:05Z</time>
      </trkpt>
      <trkpt lat="44.11499" lon="3.29476">
        <ele>806</ele>
        <time>2017-03-04T04:20:05Z</time>
      </trkpt>
      <trkpt lat="44.115" lon="3.29479">
        <ele>806</ele>
        <time>2017-03-04T04:22:05Z</time>
      </trkpt>
      <trkpt lat="44.11503" lon="3.29487">
        <ele>806</ele>
        <time>2017-03-04T04:24:05Z</time>
      </trkpt>
      <trkpt lat="44.11505" lon="3.29496">
        <ele>806</ele>
        <time>2017-03-04T04:26:05Z</time>
      </trkpt>
      <trkpt lat="44.11506" lon="3.29501">
        <ele>806</ele>
        <time>2017-03-04T04:28:05Z</time>
      </trkpt>
      <trkpt lat="44.11508" lon="3.2951">
        <ele>807</ele>
        <time>2017-03-04T04:30:05Z</time>
      </trkpt>
      <trkpt lat="44.1151" lon="3.29515">
        <ele>807</ele>
        <time>2017-03-04T04:32:05Z</time>
      </trkpt>
      <trkpt lat="44.1151" lon="3.29515">
        <ele>807</ele>
        <time>2017-03-04T04:34:05Z</time>
      </trkpt>
      <trkpt lat="44.11504" lon="3.29511">
        <ele>807</ele>
        <time>2017-03-04T04:36:05Z</time>
      </trkpt>
      <trkpt lat="44.115" lon="3.29511">
        <ele>806</ele>
        <time>2017-03-04T04:38:05Z</time>
      </trkpt>
      <trkpt lat="44.11492" lon="3.29509">
        <ele>806</ele>
        <time>2017-03-04T04:40:05Z</time>
      </trkpt>
      <trkpt lat="44.11485" lon="3.29508">
        <ele>806</ele>
        <time>2017-03-04T04:42:05Z</time>
      </trkpt>
      <trkpt lat="44.11483" lon="3.29509">
        <ele>806</ele>
        <time>2017-03-04T04:44:05Z</time>
      </trkpt>
      <trkpt lat="44.1148" lon="3.29511">
        <ele>807</ele>
        <time>2017-03-04T04:46:05Z</time>
      </trkpt>
      <trkpt lat="44.11476" lon="3.29513">
        <ele>807</ele>
        <time>2017-03-04T04:48:05Z</time>
      </trkpt>
      <trkpt lat="44.11472" lon="3.29516">
        <ele>807</ele>
        <time>2017-03-04T04:50:05Z</time>
      </trkpt>
      <trkpt lat="44.11465" lon="3.29524">
        <ele>807</ele>
        <time>2017-03-04T04:52:05Z</time>
      </trkpt>
      <trkpt lat="44.1146" lon="3.29529">
        <ele>808</ele>
        <time>2017-03-04T04:54:05Z</time>
      </trkpt>
      <trkpt lat="44.11458" lon="3.29531">
        <ele>808</ele>
        <time>2017-03-04T04:56:05Z</time>
      </trkpt>
      <trkpt lat="44.11456" lon="3.29534">
        <ele>808</ele>
        <time>2017-03-04T04:58:05Z</time>
      </trkpt>
      <trkpt lat="44.11454" lon="3.29535">
        <ele>808</ele>
        <time>2017-03-04T05:00:05Z</time>
      </trkpt>
      <trkpt lat="44.11451" lon="3.29537">
        <ele>808</ele>
        <time>2017-03-04T05:02:05Z</time>
      </trkpt>
      <trkpt lat="44.11445" lon="3.29539">
        <ele>809</ele>
        <time>2017-03-04T05:04:05Z</time>
      </trkpt>
      <trkpt lat="44.11439" lon="3.29543">
        <ele>809</ele>
        <time>2017-03-04T05:06:05Z</time>
      </trkpt>
      <trkpt lat="44.11434" lon="3.29549">
        <ele>809</ele>
        <time>2017-03-04T05:08:05Z</time>
      </trkpt>
      <trkpt lat="44.11432" lon="3.29551">
        <ele>810</ele>
        <time>2017-03-04T05:10:05Z</time>
      </trkpt>
      <trkpt lat="44.11427" lon="3.29555">
        <ele>810</ele>
        <time>2017-03-04T05:12:05Z</time>
      </trkpt>
      <trkpt lat="44.1142" lon="3.29561">
        <ele>811</ele>
        <time>2017-03-04T05:14:05Z</time>
      </trkpt>
      <trkpt lat="44.11414" lon="3.29565">
        <ele>811</ele>
        <time>2017-03-04T05:16:05Z</time>
      </trkpt>
      <trkpt lat="44.11409" lon="3.29567">
        <ele>812</ele>
        <time>2017-03-04T05:18:05Z</time>
      </trkpt>
      <trkpt lat="44.11405" lon="3.29568">
        <ele>812</ele>
        <time>2017-03-04T05:20:05Z</time>
      </trkpt>
      <trkpt lat="44.114" lon="3.29568">
        <ele>813</ele>
        <time>2017-03-04T05:22:05Z</time>
      </trkpt>
      <trkpt lat="44.11395" lon="3.29568">
        <ele>814</ele>
        <time>2017-03-04T05:24:05Z</time>
      </trkpt>
      <trkpt lat="44.11391" lon="3.29567">
        <ele>814</ele>
        <time>2017-03-04T05:26:05Z</time>
      </trkpt>
      <trkpt lat="44.11382" lon="3.29562">
        <ele>815</ele>
        <time>2017-03-04T05:28:05Z</time>
      </trkpt>
      <trkpt lat="44.11373" lon="3.29554">
        <ele>815</ele>
        <time>2017-03-04T05:30:05Z</time>
      </trkpt>
      <trkpt lat="44.11363" lon="3.29546">
        <ele>816</ele>
        <time>2017-03-04T05:32:05Z</time>
      </trkpt>
      <trkpt lat="44.11357" lon="3.29539">
        <ele>816</ele>
        <time>2017-03-04T05:34:05Z</time>
      </trkpt>
      <trkpt lat="44.11354" lon="3.29537">
        <ele>817</ele>
        <time>2017-03-04T05:36:05Z</time>
      </trkpt>
      <trkpt lat="44.11348" lon="3.29533">
        <ele>817</ele>
        <time>2017-03-04T05:38:05Z</time>
      </trkpt>
      <trkpt lat="44.11341" lon="3.29528">
        <ele>818</ele>
        <time>2017-03-04T05:40:05Z</time>
      </trkpt>
      <trkpt lat="44.11332" lon="3.29523">
        <ele>818</ele>
        <time>2017-03-04T05:42:05Z</time>
      </trkpt>
      <trkpt lat="44.11324" lon="3.29518">
        <ele>819</ele>
        <time>2017-03-04T05:44:05Z</time>
      </trkpt>
      <trkpt lat="44.11316" lon="3.29514">
        <ele>819</ele>
        <time>2017-03-04T05:46:05Z</time>
      </trkpt>
      <trkpt lat="44.11308" lon="3.2951">
        <ele>820</ele>
        <time>2017-03-04T05:48:05Z</time>
      </trkpt>
      <trkpt lat="44.11303" lon="3.29508">
        <ele>820</ele>
        <time>2017-03-04T05:50:05Z</time>
      </trkpt>
      <trkpt lat="44.11299" lon="3.29508">
        <ele>820</ele>
        <time>2017-03-04T05:52:05Z</time>
      </trkpt>
      <trkpt lat="44.11296" lon="3.29509">
        <ele>821</ele>
        <time>2017-03-04T05:54:05Z</time>
      </trkpt>
      <trkpt lat="44.11293" lon="3.29511">
        <ele>821</ele>
        <time>2017-03-04T05:56:05Z</time>
      </trkpt>
      <trkpt lat="44.1129" lon="3.29515">
        <ele>821</ele>
        <time>2017-03-04T05:58:05Z</time>
      </trkpt>
      <trkpt lat="44.11288" lon="3.2952">
        <ele>822</ele>
        <time>2017-03-04T06:00:05Z</time>
      </trkpt>
      <trkpt lat="44.11285" lon="3.29525">
        <ele>822</ele>
        <time>2017-03-04T06:02:05Z</time>
      </trkpt>
      <trkpt lat="44.11284" lon="3.29531">
        <ele>823</ele>
        <time>2017-03-04T06:04:05Z</time>
      </trkpt>
      <trkpt lat="44.11282" lon="3.29536">
        <ele>823</ele>
        <time>2017-03-04T06:06:05Z</time>
      </trkpt>
      <trkpt lat="44.11282" lon="3.29543">
        <ele>823</ele>
        <time>2017-03-04T06:08:05Z</time>
      </trkpt>
      <trkpt lat="44.11281" lon="3.29553">
        <ele>824</ele>
        <time>2017-03-04T06:10:05Z</time>
      </trkpt>
      <trkpt lat="44.1128" lon="3.29563">
        <ele>824</ele>
        <time>2017-03-04T06:12:05Z</time>
      </trkpt>
      <trkpt lat="44.11278" lon="3.29575">
        <ele>825</ele>
        <time>2017-03-04T06:14:05Z</time>
      </trkpt>
      <trkpt lat="44.11275" lon="3.29592">
        <ele>826</ele>
        <time>2017-03-04T06:16:05Z</time>
      </trkpt>
      <trkpt lat="44.11272" lon="3.29612">
        <ele>828</ele>
        <time>2017-03-04T06:18:05Z</time>
      </trkpt>
      <trkpt lat="44.11269" lon="3.29626">
        <ele>829</ele>
        <time>2017-03-04T06:20:05Z</time>
      </trkpt>
      <trkpt lat="44.11267" lon="3.29637">
        <ele>830</ele>
        <time>2017-03-04T06:22:05Z</time>
      </trkpt>
      <trkpt lat="44.11268" lon="3.29642">
        <ele>831</ele>
        <time>2017-03-04T06:24:05Z</time>
      </trkpt>
      <trkpt lat="44.11269" lon="3.29647">
        <ele>831</ele>
        <time>2017-03-04T06:26:05Z</time>
      </trkpt>
      <trkpt lat="44.11272" lon="3.29654">
        <ele>832</ele>
        <time>2017-03-04T06:28:05Z</time>
      </trkpt>
      <trkpt lat="44.11277" lon="3.29665">
        <ele>833</ele>
        <time>2017-03-04T06:30:05Z</time>
      </trkpt>
      <trkpt lat="44.11281" lon="3.29679">
        <ele>834</ele>
        <time>2017-03-04T06:32:05Z</time>
      </trkpt>
      <trkpt lat="44.11282" lon="3.29684">
        <ele>834</ele>
        <time>2017-03-04T06:34:05Z</time>
      </trkpt>
      <trkpt lat="44.11281" lon="3.29688">
        <ele>835</ele>
        <time>2017-03-04T06:36:05Z</time>
      </trkpt>
      <trkpt lat="44.11281" lon="3.29691">
        <ele>835</ele>
        <time>2017-03-04T06:38:05Z</time>
      </trkpt>
      <trkpt lat="44.11279" lon="3.29694">
        <ele>835</ele>
        <time>2017-03-04T06:40:05Z</time>
      </trkpt>
      <trkpt lat="44.11275" lon="3.29703">
        <ele>836</ele>
        <time>2017-03-04T06:42:05Z</time>
      </trkpt>
      <trkpt lat="44.11269" lon="3.29716">
        <ele>837</ele>
        <time>2017-03-04T06:44:05Z</time>
      </trkpt>
      <trkpt lat="44.11264" lon="3.29725">
        <ele>838</ele>
        <time>2017-03-04T06:46:05Z</time>
      </trkpt>
      <trkpt lat="44.11261" lon="3.29733">
        <ele>839</ele>
        <time>2017-03-04T06:48:05Z</time>
      </trkpt>
      <trkpt lat="44.1126" lon="3.29738">
        <ele>839</ele>
        <time>2017-03-04T06:50:05Z</time>
      </trkpt>
      <trkpt lat="44.11259" lon="3.29742">
        <ele>839</ele>
        <time>2017-03-04T06:52:05Z</time>
      </trkpt>
      <trkpt lat="44.11259" lon="3.2975">
        <ele>840</ele>
        <time>2017-03-04T06:54:05Z</time>
      </trkpt>
      <trkpt lat="44.11258" lon="3.29756">
        <ele>841</ele>
        <time>2017-03-04T06:56:05Z</time>
      </trkpt>
      <trkpt lat="44.11256" lon="3.29761">
        <ele>841</ele>
        <time>2017-03-04T06:58:05Z</time>
      </trkpt>
      <trkpt lat="44.11253" lon="3.29768">
        <ele>842</ele>
        <time>2017-03-04T07:00:05Z</time>
      </trkpt>
      <trkpt lat="44.11248" lon="3.29776">
        <ele>842</ele>
        <time>2017-03-04T07:02:05Z</time>
      </trkpt>
      <trkpt lat="44.11243" lon="3.29784">
        <ele>843</ele>
        <time>2017-03-04T07:04:05Z</time>
      </trkpt>
      <trkpt lat="44.11237" lon="3.29791">
        <ele>843</ele>
        <time>2017-03-04T07:06:05Z</time>
      </trkpt>
      <trkpt lat="44.11231" lon="3.29797">
        <ele>844</ele>
        <time>2017-03-04T07:08:05Z</time>
      </trkpt>
      <trkpt lat="44.11224" lon="3.29804">
        <ele>844</ele>
        <time>2017-03-04T07:10:05Z</time>
      </trkpt>
      <trkpt lat="44.11218" lon="3.29808">
        <ele>844</ele>
        <time>2017-03-04T07:12:05Z</time>
      </trkpt>
      <trkpt lat="44.11214" lon="3.2981">
        <ele>844</ele>
        <time>2017-03-04T07:14:05Z</time>
      </trkpt>
      <trkpt lat="44.11209" lon="3.2981">
        <ele>844</ele>
        <time>2017-03-04T07:16:05Z</time>
      </trkpt>
      <trkpt lat="44.11206" lon="3.29815">
        <ele>844</ele>
        <time>2017-03-04T07:18:05Z</time>
      </trkpt>
      <trkpt lat="44.11199" lon="3.29824">
        <ele>845</ele>
        <time>2017-03-04T07:20:05Z</time>
      </trkpt>
      <trkpt lat="44.11191" lon="3.29832">
        <ele>845</ele>
        <time>2017-03-04T07:22:05Z</time>
      </trkpt>
      <trkpt lat="44.11181" lon="3.29842">
        <ele>846</ele>
        <time>2017-03-04T07:24:05Z</time>
      </trkpt>
      <trkpt lat="44.1117" lon="3.29854">
        <ele>846</ele>
        <time>2017-03-04T07:26:05Z</time>
      </trkpt>
      <trkpt lat="44.11157" lon="3.29868">
        <ele>847</ele>
        <time>2017-03-04T07:28:05Z</time>
      </trkpt>
      <trkpt lat="44.11142" lon="3.29886">
        <ele>848</ele>
        <time>2017-03-04T07:30:05Z</time>
      </trkpt>
      <trkpt lat="44.11126" lon="3.29903">
        <ele>848</ele>
        <time>2017-03-04T07:32:05Z</time>
      </trkpt>
      <trkpt lat="44.11113" lon="3.29918">
        <ele>849</ele>
        <time>2017-03-04T07:34:05Z</time>
      </trkpt>
      <trkpt lat="44.111" lon="3.29932">
        <ele>848</ele>
        <time>2017-03-04T07:36:05Z</time>
      </trkpt>
      <trkpt lat="44.11088" lon="3.29946">
        <ele>847</ele>
        <time>2017-03-04T07:38:05Z</time>
      </trkpt>
      <trkpt lat="44.11076" lon="3.29959">
        <ele>846</ele>
        <time>2017-03-04T07:40:05Z</time>
      </trkpt>
      <trkpt lat="44.11066" lon="3.2997">
        <ele>845</ele>
        <time>2017-03-04T07:42:05Z</time>
      </trkpt>
      <trkpt lat="44.1106" lon="3.29977">
        <ele>845</ele>
        <time>2017-03-04T07:44:05Z</time>
      </trkpt>
      <trkpt lat="44.11055" lon="3.29984">
        <ele>844</ele>
        <time>2017-03-04T07:46:05Z</time>
      </trkpt>
      <trkpt lat="44.1105" lon="3.29991">
        <ele>844</ele>
        <time>2017-03-04T07:48:05Z</time>
      </trkpt>
      <trkpt lat="44.11047" lon="3.29998">
        <ele>844</ele>
        <time>2017-03-04T07:50:05Z</time>
      </trkpt>
      <trkpt lat="44.11043" lon="3.30005">
        <ele>843</ele>
        <time>2017-03-04T07:52:05Z</time>
      </trkpt>
      <trkpt lat="44.11041" lon="3.3001">
        <ele>842</ele>
        <time>2017-03-04T07:54:05Z</time>
      </trkpt>
      <trkpt lat="44.1104" lon="3.30015">
        <ele>842</ele>
        <time>2017-03-04T07:56:05Z</time>
      </trkpt>
      <trkpt lat="44.11038" lon="3.30024">
        <ele>842</ele>
        <time>2017-03-04T07:58:05Z</time>
      </trkpt>
      <trkpt lat="44.11037" lon="3.30033">
        <ele>841</ele>
        <time>2017-03-04T08:00:05Z</time>
      </trkpt>
      <trkpt lat="44.11037" lon="3.30043">
        <ele>841</ele>
        <time>2017-03-04T08:02:05Z</time>
      </trkpt>
      <trkpt lat="44.11036" lon="3.30056">
        <ele>840</ele>
        <time>2017-03-04T08:04:05Z</time>
      </trkpt>
      <trkpt lat="44.11036" lon="3.30074">
        <ele>839</ele>
        <time>2017-03-04T08:06:05Z</time>
      </trkpt>
      <trkpt lat="44.11036" lon="3.30091">
        <ele>838</ele>
        <time>2017-03-04T08:08:05Z</time>
      </trkpt>
      <trkpt lat="44.11037" lon="3.30112">
        <ele>836</ele>
        <time>2017-03-04T08:10:05Z</time>
      </trkpt>
      <trkpt lat="44.11038" lon="3.30129">
        <ele>835</ele>
        <time>2017-03-04T08:12:05Z</time>
      </trkpt>
      <trkpt lat="44.11039" lon="3.30146">
        <ele>833</ele>
        <time>2017-03-04T08:14:05Z</time>
      </trkpt>
      <trkpt lat="44.1104" lon="3.3016">
        <ele>832</ele>
        <time>2017-03-04T08:16:05Z</time>
      </trkpt>
      <trkpt lat="44.11041" lon="3.30171">
        <ele>832</ele>
        <time>2017-03-04T08:18:05Z</time>
      </trkpt>
      <trkpt lat="44.11042" lon="3.30178">
        <ele>832</ele>
        <time>2017-03-04T08:20:05Z</time>
      </trkpt>
      <trkpt lat="44.11043" lon="3.30185">
        <ele>832</ele>
        <time>2017-03-04T08:22:05Z</time>
      </trkpt>
      <trkpt lat="44.11044" lon="3.30192">
        <ele>832</ele>
        <time>2017-03-04T08:24:05Z</time>
      </trkpt>
      <trkpt lat="44.11047" lon="3.302">
        <ele>833</ele>
        <time>2017-03-04T08:26:05Z</time>
      </trkpt>
      <trkpt lat="44.1105" lon="3.30211">
        <ele>833</ele>
        <time>2017-03-04T08:28:05Z</time>
      </trkpt>
      <trkpt lat="44.11052" lon="3.30221">
        <ele>834</ele>
        <time>2017-03-04T08:30:05Z</time>
      </trkpt>
      <trkpt lat="44.11052" lon="3.30229">
        <ele>834</ele>
        <time>2017-03-04T08:32:05Z</time>
      </trkpt>
      <trkpt lat="44.11052" lon="3.30235">
        <ele>834</ele>
        <time>2017-03-04T08:34:05Z</time>
      </trkpt>
      <trkpt lat="44.1105" lon="3.30241">
        <ele>833</ele>
        <time>2017-03-04T08:36:05Z</time>
      </trkpt>
      <trkpt lat="44.11046" lon="3.30248">
        <ele>833</ele>
        <time>2017-03-04T08:38:05Z</time>
      </trkpt>
      <trkpt lat="44.11042" lon="3.30254">
        <ele>832</ele>
        <time>2017-03-04T08:40:05Z</time>
      </trkpt>
      <trkpt lat="44.11038" lon="3.30258">
        <ele>832</ele>
        <time>2017-03-04T08:42:05Z</time>
      </trkpt>
      <trkpt lat="44.11032" lon="3.30262">
        <ele>832</ele>
        <time>2017-03-04T08:44:05Z</time>
      </trkpt>
      <trkpt lat="44.11025" lon="3.30265">
        <ele>831</ele>
        <time>2017-03-04T08:46:05Z</time>
      </trkpt>
      <trkpt lat="44.1102" lon="3.30267">
        <ele>831</ele>
        <time>2017-03-04T08:48:05Z</time>
      </trkpt>
      <trkpt lat="44.11012" lon="3.30267">
        <ele>830</ele>
        <time>2017-03-04T08:50:05Z</time>
      </trkpt>
      <trkpt lat="44.1101" lon="3.30267">
        <ele>830</ele>
        <time>2017-03-04T08:52:05Z</time>
      </trkpt>
      <trkpt lat="44.11005" lon="3.30267">
        <ele>829</ele>
        <time>2017-03-04T08:54:05Z</time>
      </trkpt>
      <trkpt lat="44.10994" lon="3.30266">
        <ele>828</ele>
        <time>2017-03-04T08:56:05Z</time>
      </trkpt>
      <trkpt lat="44.10985" lon="3.30266">
        <ele>828</ele>
        <time>2017-03-04T08:58:05Z</time>
      </trkpt>
      <trkpt lat="44.1097" lon="3.30264">
        <ele>828</ele>
        <time>2017-03-04T09:00:05Z</time>
      </trkpt>
      <trkpt lat="44.10965" lon="3.30263">
        <ele>827</ele>
        <time>2017-03-04T09:02:05Z</time>
      </trkpt>
      <trkpt lat="44.10962" lon="3.30262">
        <ele>827</ele>
        <time>2017-03-04T09:04:05Z</time>
      </trkpt>
      <trkpt lat="44.10961" lon="3.3026">
        <ele>827</ele>
        <time>2017-03-04T09:06:05Z</time>
      </trkpt>
      <trkpt lat="44.10959" lon="3.30257">
        <ele>827</ele>
        <time>2017-03-04T09:08:05Z</time>
      </trkpt>
      <trkpt lat="44.10959" lon="3.30257">
        <ele>827</ele>
        <time>2017-03-04T09:10:05Z</time>
      </trkpt>
      <trkpt lat="44.10955" lon="3.30259">
        <ele>827</ele>
        <time>2017-03-04T09:12:05Z</time>
      </trkpt>
      <trkpt lat="44.1095" lon="3.30264">
        <ele>827</ele>
        <time>2017-03-04T09:14:05Z</time>
      </trkpt>
      <trkpt lat="44.10942" lon="3.30271">
        <ele>828</ele>
        <time>2017-03-04T09:16:05Z</time>
      </trkpt>
      <trkpt lat="44.10937" lon="3.30276">
        <ele>829</ele>
        <time>2017-03-04T09:18:05Z</time>
      </trkpt>
      <trkpt lat="44.10931" lon="3.30282">
        <ele>830</ele>
        <time>2017-03-04T09:20:05Z</time>
      </trkpt>
      <trkpt lat="44.10927" lon="3.30286">
        <ele>831</ele>
        <time>2017-03-04T09:22:05Z</time>
      </trkpt>
      <trkpt lat="44.10924" lon="3.30289">
        <ele>831</ele>
        <time>2017-03-04T09:24:05Z</time>
      </trkpt>
      <trkpt lat="44.10921" lon="3.30294">
        <ele>832</ele>
        <time>2017-03-04T09:26:05Z</time>
      </trkpt>
      <trkpt lat="44.10918" lon="3.30301">
        <ele>833</ele>
        <time>2017-03-04T09:28:05Z</time>
      </trkpt>
      <trkpt lat="44.10913" lon="3.30311">
        <ele>834</ele>
        <time>2017-03-04T09:30:05Z</time>
      </trkpt>
      <trkpt lat="44.10906" lon="3.30324">
        <ele>836</ele>
        <time>2017-03-04T09:32:05Z</time>
      </trkpt>
      <trkpt lat="44.10902" lon="3.30331">
        <ele>837</ele>
        <time>2017-03-04T09:34:05Z</time>
      </trkpt>
      <trkpt lat="44.10898" lon="3.30338">
        <ele>837</ele>
        <time>2017-03-04T09:36:05Z</time>
      </trkpt>
      <trkpt lat="44.10896" lon="3.30347">
        <ele>838</ele>
        <time>2017-03-04T09:38:05Z</time>
      </trkpt>
      <trkpt lat="44.10893" lon="3.30358">
        <ele>838</ele>
        <time>2017-03-04T09:40:05Z</time>
      </trkpt>
      <trkpt lat="44.10891" lon="3.30368">
        <ele>838</ele>
        <time>2017-03-04T09:42:05Z</time>
      </trkpt>
      <trkpt lat="44.10888" lon="3.30374">
        <ele>838</ele>
        <time>2017-03-04T09:44:05Z</time>
      </trkpt>
      <trkpt lat="44.10888" lon="3.30374">
        <ele>838</ele>
        <time>2017-03-04T09:46:05Z</time>
      </trkpt>
      <trkpt lat="44.1089" lon="3.30378">
        <ele>839</ele>
        <time>2017-03-04T09:48:05Z</time>
      </trkpt>
      <trkpt lat="44.10891" lon="3.30382">
        <ele>839</ele>
        <time>2017-03-04T09:50:05Z</time>
      </trkpt>
      <trkpt lat="44.10893" lon="3.30393">
        <ele>839</ele>
        <time>2017-03-04T09:52:05Z</time>
      </trkpt>
      <trkpt lat="44.10897" lon="3.30403">
        <ele>840</ele>
        <time>2017-03-04T09:54:05Z</time>
      </trkpt>
      <trkpt lat="44.10903" lon="3.30413">
        <ele>841</ele>
        <time>2017-03-04T09:56:05Z</time>
      </trkpt>
      <trkpt lat="44.10907" lon="3.30423">
        <ele>841</ele>
        <time>2017-03-04T09:58:05Z</time>
      </trkpt>
      <trkpt lat="44.1091" lon="3.30435">
        <ele>842</ele>
        <time>2017-03-04T10:00:05Z</time>
      </trkpt>
      <trkpt lat="44.10913" lon="3.30444">
        <ele>842</ele>
        <time>2017-03-04T10:02:05Z</time>
      </trkpt>
      <trkpt lat="44.10917" lon="3.30455">
        <ele>843</ele>
        <time>2017-03-04T10:04:05Z</time>
      </trkpt>
      <trkpt lat="44.10921" lon="3.30463">
        <ele>843</ele>
        <time>2017-03-04T10:06:05Z</time>
      </trkpt>
      <trkpt lat="44.10928" lon="3.30473">
        <ele>844</ele>
        <time>2017-03-04T10:08:05Z</time>
      </trkpt>
      <trkpt lat="44.10938" lon="3.30485">
        <ele>845</ele>
        <time>2017-03-04T10:10:05Z</time>
      </trkpt>
      <trkpt lat="44.10946" lon="3.30494">
        <ele>846</ele>
        <time>2017-03-04T10:12:05Z</time>
      </trkpt>
      <trkpt lat="44.10955" lon="3.305">
        <ele>846</ele>
        <time>2017-03-04T10:14:05Z</time>
      </trkpt>
      <trkpt lat="44.10964" lon="3.30506">
        <ele>847</ele>
        <time>2017-03-04T10:16:05Z</time>
      </trkpt>
      <trkpt lat="44.10971" lon="3.30514">
        <ele>848</ele>
        <time>2017-03-04T10:18:05Z</time>
      </trkpt>
      <trkpt lat="44.10976" lon="3.3052">
        <ele>848</ele>
        <time>2017-03-04T10:20:05Z</time>
      </trkpt>
      <trkpt lat="44.10981" lon="3.30529">
        <ele>849</ele>
        <time>2017-03-04T10:22:05Z</time>
      </trkpt>
      <trkpt lat="44.10985" lon="3.30539">
        <ele>850</ele>
        <time>2017-03-04T10:24:05Z</time>
      </trkpt>
      <trkpt lat="44.10993" lon="3.30562">
        <ele>851</ele>
        <time>2017-03-04T10:26:05Z</time>
      </trkpt>
      <trkpt lat="44.11002" lon="3.30587">
        <ele>853</ele>
        <time>2017-03-04T10:28:05Z</time>
      </trkpt>
      <trkpt lat="44.11012" lon="3.30618">
        <ele>855</ele>
        <time>2017-03-04T10:30:05Z</time>
      </trkpt>
      <trkpt lat="44.1102" lon="3.30642">
        <ele>856</ele>
        <time>2017-03-04T10:32:05Z</time>
      </trkpt>
      <trkpt lat="44.11028" lon="3.30665">
        <ele>857</ele>
        <time>2017-03-04T10:34:05Z</time>
      </trkpt>
      <trkpt lat="44.11033" lon="3.30682">
        <ele>858</ele>
        <time>2017-03-04T10:36:05Z</time>
      </trkpt>
      <trkpt lat="44.11036" lon="3.30696">
        <ele>859</ele>
        <time>2017-03-04T10:38:05Z</time>
      </trkpt>
      <trkpt lat="44.11038" lon="3.30711">
        <ele>860</ele>
        <time>2017-03-04T10:40:05Z</time>
      </trkpt>
      <trkpt lat="44.1104" lon="3.30722">
        <ele>861</ele>
        <time>2017-03-04T10:42:05Z</time>
      </trkpt>
      <trkpt lat="44.11042" lon="3.30728">
        <ele>861</ele>
        <time>2017-03-04T10:44:05Z</time>
      </trkpt>
      <trkpt lat="44.11044" lon="3.30734">
        <ele>862</ele>
        <time>2017-03-04T10:46:05Z</time>
      </trkpt>
      <trkpt lat="44.11049" lon="3.3075">
        <ele>863</ele>
        <time>2017-03-04T10:48:05Z</time>
      </trkpt>
      <trkpt lat="44.11056" lon="3.30774">
        <ele>863</ele>
        <time>2017-03-04T10:50:05Z</time>
      </trkpt>
      <trkpt lat="44.11065" lon="3.30808">
        <ele>864</ele>
        <time>2017-03-04T10:52:05Z</time>
      </trkpt>
      <trkpt lat="44.11069" lon="3.30822">
        <ele>865</ele>
        <time>2017-03-04T10:54:05Z</time>
      </trkpt>
      <trkpt lat="44.11073" lon="3.30832">
        <ele>865</ele>
        <time>2017-03-04T10:56:05Z</time>
      </trkpt>
      <trkpt lat="44.11078" lon="3.30844">
        <ele>865</ele>
        <time>2017-03-04T10:58:05Z</time>
      </trkpt>
      <trkpt lat="44.11086" lon="3.30861">
        <ele>866</ele>
        <time>2017-03-04T11:00:05Z</time>
      </trkpt>
      <trkpt lat="44.11092" lon="3.3088">
        <ele>867</ele>
        <time>2017-03-04T11:02:05Z</time>
      </trkpt>
      <trkpt lat="44.11099" lon="3.30904">
        <ele>867</ele>
        <time>2017-03-04T11:04:05Z</time>
      </trkpt>
      <trkpt lat="44.11106" lon="3.30933">
        <ele>868</ele>
        <time>2017-03-04T11:06:05Z</time>
      </trkpt>
      <trkpt lat="44.11114" lon="3.30963">
        <ele>868</ele>
        <time>2017-03-04T11:08:05Z</time>
      </trkpt>
      <trkpt lat="44.11122" lon="3.30995">
        <ele>869</ele>
        <time>2017-03-04T11:10:05Z</time>
      </trkpt>
      <trkpt lat="44.11129" lon="3.3102">
        <ele>869</ele>
        <time>2017-03-04T11:12:05Z</time>
      </trkpt>
      <trkpt lat="44.11136" lon="3.31041">
        <ele>869</ele>
        <time>2017-03-04T11:14:05Z</time>
      </trkpt>
      <trkpt lat="44.11139" lon="3.31059">
        <ele>869</ele>
        <time>2017-03-04T11:16:05Z</time>
      </trkpt>
      <trkpt lat="44.11143" lon="3.31079">
        <ele>869</ele>
        <time>2017-03-04T11:18:05Z</time>
      </trkpt>
      <trkpt lat="44.11147" lon="3.31111">
        <ele>868</ele>
        <time>2017-03-04T11:20:05Z</time>
      </trkpt>
      <trkpt lat="44.11151" lon="3.31144">
        <ele>868</ele>
        <time>2017-03-04T11:22:05Z</time>
      </trkpt>
      <trkpt lat="44.11154" lon="3.31168">
        <ele>868</ele>
        <time>2017-03-04T11:24:05Z</time>
      </trkpt>
      <trkpt lat="44.11155" lon="3.3118">
        <ele>868</ele>
        <time>2017-03-04T11:26:05Z</time>
      </trkpt>
      <trkpt lat="44.11157" lon="3.31185">
        <ele>868</ele>
        <time>2017-03-04T11:28:05Z</time>
      </trkpt>
      <trkpt lat="44.1116" lon="3.31194">
        <ele>869</ele>
        <time>2017-03-04T11:30:05Z</time>
      </trkpt>
      <trkpt lat="44.11161" lon="3.31199">
        <ele>869</ele>
        <time>2017-03-04T11:32:05Z</time>
      </trkpt>
      <trkpt lat="44.11162" lon="3.3121">
        <ele>869</ele>
        <time>2017-03-04T11:34:05Z</time>
      </trkpt>
      <trkpt lat="44.11163" lon="3.31222">
        <ele>869</ele>
        <time>2017-03-04T11:36:05Z</time>
      </trkpt>
      <trkpt lat="44.11165" lon="3.31245">
        <ele>870</ele>
        <time>2017-03-04T11:38:05Z</time>
      </trkpt>
      <trkpt lat="44.11168" lon="3.31262">
        <ele>870</ele>
        <time>2017-03-04T11:40:05Z</time>
      </trkpt>
      <trkpt lat="44.11169" lon="3.31271">
        <ele>871</ele>
        <time>2017-03-04T11:42:05Z</time>
      </trkpt>
      <trkpt lat="44.11169" lon="3.3128">
        <ele>871</ele>
        <time>2017-03-04T11:44:05Z</time>
      </trkpt>
      <trkpt lat="44.11169" lon="3.31291">
        <ele>871</ele>
        <time>2017-03-04T11:46:05Z</time>
      </trkpt>
      <trkpt lat="44.11169" lon="3.31295">
        <ele>871</ele>
        <time>2017-03-04T11:48:05Z</time>
      </trkpt>
      <trkpt lat="44.11166" lon="3.31306">
        <ele>871</ele>
        <time>2017-03-04T11:50:05Z</time>
      </trkpt>
      <trkpt lat="44.11164" lon="3.31315">
        <ele>871</ele>
        <time>2017-03-04T11:52:05Z</time>
      </trkpt>
      <trkpt lat="44.11164" lon="3.31319">
        <ele>871</ele>
        <time>2017-03-04T11:54:05Z</time>
      </trkpt>
      <trkpt lat="44.11164" lon="3.31331">
        <ele>872</ele>
        <time>2017-03-04T11:56:05Z</time>
      </trkpt>
      <trkpt lat="44.11165" lon="3.31349">
        <ele>873</ele>
        <time>2017-03-04T11:58:05Z</time>
      </trkpt>
      <trkpt lat="44.11166" lon="3.31366">
        <ele>873</ele>
        <time>2017-03-04T12:00:05Z</time>
      </trkpt>
      <trkpt lat="44.11166" lon="3.31379">
        <ele>874</ele>
        <time>2017-03-04T12:02:05Z</time>
      </trkpt>
      <trkpt lat="44.11168" lon="3.31395">
        <ele>875</ele>
        <time>2017-03-04T12:04:05Z</time>
      </trkpt>
      <trkpt lat="44.1117" lon="3.31409">
        <ele>876</ele>
        <time>2017-03-04T12:06:05Z</time>
      </trkpt>
      <trkpt lat="44.11172" lon="3.31419">
        <ele>877</ele>
        <time>2017-03-04T12:08:05Z</time>
      </trkpt>
      <trkpt lat="44.11172" lon="3.31439">
        <ele>877</ele>
        <time>2017-03-04T12:10:05Z</time>
      </trkpt>
      <trkpt lat="44.11172" lon="3.31462">
        <ele>877</ele>
        <time>2017-03-04T12:12:05Z</time>
      </trkpt>
      <trkpt lat="44.11173" lon="3.31485">
        <ele>878</ele>
        <time>2017-03-04T12:14:05Z</time>
      </trkpt>
      <trkpt lat="44.11174" lon="3.31498">
        <ele>878</ele>
        <time>2017-03-04T12:16:05Z</time>
      </trkpt>
      <trkpt lat="44.11175" lon="3.31509">
        <ele>878</ele>
        <time>2017-03-04T12:18:05Z</time>
      </trkpt>
      <trkpt lat="44.11177" lon="3.31519">
        <ele>878</ele>
        <time>2017-03-04T12:20:05Z</time>
      </trkpt>
      <trkpt lat="44.1118" lon="3.31527">
        <ele>878</ele>
        <time>2017-03-04T12:22:05Z</time>
      </trkpt>
      <trkpt lat="44.11186" lon="3.31539">
        <ele>879</ele>
        <time>2017-03-04T12:24:05Z</time>
      </trkpt>
      <trkpt lat="44.11191" lon="3.31548">
        <ele>879</ele>
        <time>2017-03-04T12:26:05Z</time>
      </trkpt>
      <trkpt lat="44.11196" lon="3.31561">
        <ele>880</ele>
        <time>2017-03-04T12:28:05Z</time>
      </trkpt>
      <trkpt lat="44.11204" lon="3.3158">
        <ele>881</ele>
        <time>2017-03-04T12:30:05Z</time>
      </trkpt>
      <trkpt lat="44.1121" lon="3.31598">
        <ele>881</ele>
        <time>2017-03-04T12:32:05Z</time>
      </trkpt>
      <trkpt lat="44.11214" lon="3.31611">
        <ele>880</ele>
        <time>2017-03-04T12:34:05Z</time>
      </trkpt>
      <trkpt lat="44.11218" lon="3.31626">
        <ele>880</ele>
        <time>2017-03-04T12:36:05Z</time>
      </trkpt>
      <trkpt lat="44.11223" lon="3.31647">
        <ele>879</ele>
        <time>2017-03-04T12:38:05Z</time>
      </trkpt>
      <trkpt lat="44.11229" lon="3.3167">
        <ele>879</ele>
        <time>2017-03-04T12:40:05Z</time>
      </trkpt>
      <trkpt lat="44.11268" lon="3.31794">
        <ele>875</ele>
        <time>2017-03-04T12:42:05Z</time>
      </trkpt>
      <trkpt lat="44.11269" lon="3.31799">
        <ele>875</ele>
        <time>2017-03-04T12:44:05Z</time>
      </trkpt>
      <trkpt lat="44.11269" lon="3.31804">
        <ele>875</ele>
        <time>2017-03-04T12:46:05Z</time>
      </trkpt>
      <trkpt lat="44.11268" lon="3.3181">
        <ele>874</ele>
        <time>2017-03-04T12:48:05Z</time>
      </trkpt>
      <trkpt lat="44.11268" lon="3.31816">
        <ele>874</ele>
        <time>2017-03-04T12:50:05Z</time>
      </trkpt>
      <trkpt lat="44.11269" lon="3.31821">
        <ele>874</ele>
        <time>2017-03-04T12:52:05Z</time>
      </trkpt>
      <trkpt lat="44.1127" lon="3.31827">
        <ele>873</ele>
        <time>2017-03-04T12:54:05Z</time>
      </trkpt>
      <trkpt lat="44.11271" lon="3.31831">
        <ele>873</ele>
        <time>2017-03-04T12:56:05Z</time>
      </trkpt>
      <trkpt lat="44.11273" lon="3.31837">
        <ele>873</ele>
        <time>2017-03-04T12:58:05Z</time>
      </trkpt>
      <trkpt lat="44.11282" lon="3.31861">
        <ele>874</ele>
        <time>2017-03-04T13:00:05Z</time>
      </trkpt>
      <trkpt lat="44.11291" lon="3.31907">
        <ele>873</ele>
        <time>2017-03-04T13:02:05Z</time>
      </trkpt>
      <trkpt lat="44.11312" lon="3.32123">
        <ele>874</ele>
        <time>2017-03-04T13:04:05Z</time>
      </trkpt>
      <trkpt lat="44.11314" lon="3.32247">
        <ele>874</ele>
        <time>2017-03-04T13:06:05Z</time>
      </trkpt>
      <trkpt lat="44.11323" lon="3.32295">
        <ele>873</ele>
        <time>2017-03-04T13:08:05Z</time>
      </trkpt>
      <trkpt lat="44.11323" lon="3.32301">
        <ele>873</ele>
        <time>2017-03-04T13:10:05Z</time>
      </trkpt>
      <trkpt lat="44.11323" lon="3.32306">
        <ele>873</ele>
        <time>2017-03-04T13:12:05Z</time>
      </trkpt>
      <trkpt lat="44.11318" lon="3.32408">
        <ele>870</ele>
        <time>2017-03-04T13:14:05Z</time>
      </trkpt>
      <trkpt lat="44.11317" lon="3.3242">
        <ele>870</ele>
        <time>2017-03-04T13:16:05Z</time>
      </trkpt>
      <trkpt lat="44.11316" lon="3.32442">
        <ele>869</ele>
        <time>2017-03-04T13:18:05Z</time>
      </trkpt>
      <trkpt lat="44.11317" lon="3.32463">
        <ele>869</ele>
        <time>2017-03-04T13:20:05Z</time>
      </trkpt>
      <trkpt lat="44.11318" lon="3.32475">
        <ele>868</ele>
        <time>2017-03-04T13:22:05Z</time>
      </trkpt>
      <trkpt lat="44.11318" lon="3.32486">
        <ele>868</ele>
        <time>2017-03-04T13:24:05Z</time>
      </trkpt>
      <trkpt lat="44.11315" lon="3.32519">
        <ele>866</ele>
        <time>2017-03-04T13:26:05Z</time>
      </trkpt>
      <trkpt lat="44.1131" lon="3.32546">
        <ele>865</ele>
        <time>2017-03-04T13:28:05Z</time>
      </trkpt>
      <trkpt lat="44.11305" lon="3.3257">
        <ele>864</ele>
        <time>2017-03-04T13:30:05Z</time>
      </trkpt>
      <trkpt lat="44.11298" lon="3.32588">
        <ele>862</ele>
        <time>2017-03-04T13:32:05Z</time>
      </trkpt>
      <trkpt lat="44.11291" lon="3.32602">
        <ele>861</ele>
        <time>2017-03-04T13:34:05Z</time>
      </trkpt>
      <trkpt lat="44.11287" lon="3.32617">
        <ele>859</ele>
        <time>2017-03-04T13:36:05Z</time>
      </trkpt>
      <trkpt lat="44.11286" lon="3.32631">
        <ele>857</ele>
        <time>2017-03-04T13:38:05Z</time>
      </trkpt>
      <trkpt lat="44.11286" lon="3.32648">
        <ele>855</ele>
        <time>2017-03-04T13:40:05Z</time>
      </trkpt>
      <trkpt lat="44.1129" lon="3.32696">
        <ele>852</ele>
        <time>2017-03-04T13:42:05Z</time>
      </trkpt>
      <trkpt lat="44.11291" lon="3.32749">
        <ele>848</ele>
        <time>2017-03-04T13:44:05Z</time>
      </trkpt>
      <trkpt lat="44.11292" lon="3.32797">
        <ele>845</ele>
        <time>2017-03-04T13:46:05Z</time>
      </trkpt>
      <trkpt lat="44.11293" lon="3.32807">
        <ele>845</ele>
        <time>2017-03-04T13:48:05Z</time>
      </trkpt>
      <trkpt lat="44.11291" lon="3.32824">
        <ele>843</ele>
        <time>2017-03-04T13:50:05Z</time>
      </trkpt>
      <trkpt lat="44.11288" lon="3.32857">
        <ele>842</ele>
        <time>2017-03-04T13:52:05Z</time>
      </trkpt>
      <trkpt lat="44.11284" lon="3.32885">
        <ele>841</ele>
        <time>2017-03-04T13:54:05Z</time>
      </trkpt>
      <trkpt lat="44.11282" lon="3.32905">
        <ele>840</ele>
        <time>2017-03-04T13:56:05Z</time>
      </trkpt>
      <trkpt lat="44.11277" lon="3.32955">
        <ele>841</ele>
        <time>2017-03-04T13:58:05Z</time>
      </trkpt>
      <trkpt lat="44.11267" lon="3.32982">
        <ele>839</ele>
        <time>2017-03-04T14:00:05Z</time>
      </trkpt>
      <trkpt lat="44.11263" lon="3.33002">
        <ele>839</ele>
        <time>2017-03-04T14:02:05Z</time>
      </trkpt>
      <trkpt lat="44.11261" lon="3.33027">
        <ele>841</ele>
        <time>2017-03-04T14:04:05Z</time>
      </trkpt>
      <trkpt lat="44.11261" lon="3.33045">
        <ele>843</ele>
        <time>2017-03-04T14:06:05Z</time>
      </trkpt>
      <trkpt lat="44.11261" lon="3.33052">
        <ele>844</ele>
        <time>2017-03-04T14:08:05Z</time>
      </trkpt>
      <trkpt lat="44.11259" lon="3.33059">
        <ele>845</ele>
        <time>2017-03-04T14:10:05Z</time>
      </trkpt>
      <trkpt lat="44.11255" lon="3.33069">
        <ele>845</ele>
        <time>2017-03-04T14:12:05Z</time>
      </trkpt>
      <trkpt lat="44.11248" lon="3.33087">
        <ele>845</ele>
        <time>2017-03-04T14:14:05Z</time>
      </trkpt>
      <trkpt lat="44.11244" lon="3.331">
        <ele>844</ele>
        <time>2017-03-04T14:16:05Z</time>
      </trkpt>
      <trkpt lat="44.11243" lon="3.33118">
        <ele>844</ele>
        <time>2017-03-04T14:18:05Z</time>
      </trkpt>
      <trkpt lat="44.11244" lon="3.33139">
        <ele>845</ele>
        <time>2017-03-04T14:20:05Z</time>
      </trkpt>
      <trkpt lat="44.1125" lon="3.33183">
        <ele>847</ele>
        <time>2017-03-04T14:22:05Z</time>
      </trkpt>
      <trkpt lat="44.11254" lon="3.33213">
        <ele>846</ele>
        <time>2017-03-04T14:24:05Z</time>
      </trkpt>
      <trkpt lat="44.11257" lon="3.3323">
        <ele>846</ele>
        <time>2017-03-04T14:26:05Z</time>
      </trkpt>
      <trkpt lat="44.11256" lon="3.33246">
        <ele>845</ele>
        <time>2017-03-04T14:28:05Z</time>
      </trkpt>
      <trkpt lat="44.11255" lon="3.33259">
        <ele>845</ele>
        <time>2017-03-04T14:30:05Z</time>
      </trkpt>
      <trkpt lat="44.11253" lon="3.33268">
        <ele>845</ele>
        <time>2017-03-04T14:32:05Z</time>
      </trkpt>
      <trkpt lat="44.11248" lon="3.33288">
        <ele>846</ele>
        <time>2017-03-04T14:34:05Z</time>
      </trkpt>
      <trkpt lat="44.11239" lon="3.33322">
        <ele>844</ele>
        <time>2017-03-04T14:36:05Z</time>
      </trkpt>
      <trkpt lat="44.11229" lon="3.33376">
        <ele>846</ele>
        <time>2017-03-04T14:38:05Z</time>
      </trkpt>
      <trkpt lat="44.11225" lon="3.33399">
        <ele>846</ele>
        <time>2017-03-04T14:40:05Z</time>
      </trkpt>
      <trkpt lat="44.11225" lon="3.33414">
        <ele>848</ele>
        <time>2017-03-04T14:42:05Z</time>
      </trkpt>
      <trkpt lat="44.11225" lon="3.33424">
        <ele>849</ele>
        <time>2017-03-04T14:44:05Z</time>
      </trkpt>
      <trkpt lat="44.11228" lon="3.33434">
        <ele>850</ele>
        <time>2017-03-04T14:46:05Z</time>
      </trkpt>
      <trkpt lat="44.11232" lon="3.33441">
        <ele>852</ele>
        <time>2017-03-04T14:48:05Z</time>
      </trkpt>
      <trkpt lat="44.11236" lon="3.3345">
        <ele>854</ele>
        <time>2017-03-04T14:50:05Z</time>
      </trkpt>
      <trkpt lat="44.1124" lon="3.33459">
        <ele>856</ele>
        <time>2017-03-04T14:52:05Z</time>
      </trkpt>
      <trkpt lat="44.11242" lon="3.33476">
        <ele>857</ele>
        <time>2017-03-04T14:54:05Z</time>
      </trkpt>
      <trkpt lat="44.11254" lon="3.33558">
        <ele>862</ele>
        <time>2017-03-04T14:56:05Z</time>
      </trkpt>
      <trkpt lat="44.11265" lon="3.33625">
        <ele>862</ele>
        <time>2017-03-04T14:58:05Z</time>
      </trkpt>
      <trkpt lat="44.11274" lon="3.33697">
        <ele>863</ele>
        <time>2017-03-04T15:00:05Z</time>
      </trkpt>
      <trkpt lat="44.11276" lon="3.33716">
        <ele>863</ele>
        <time>2017-03-04T15:02:05Z</time>
      </trkpt>
      <trkpt lat="44.11276" lon="3.33728">
        <ele>864</ele>
        <time>2017-03-04T15:04:05Z</time>
      </trkpt>
      <trkpt lat="44.11275" lon="3.33735">
        <ele>864</ele>
        <time>2017-03-04T15:06:05Z</time>
      </trkpt>
      <trkpt lat="44.11266" lon="3.33775">
        <ele>863</ele>
        <time>2017-03-04T15:08:05Z</time>
      </trkpt>
      <trkpt lat="44.11255" lon="3.33823">
        <ele>860</ele>
        <time>2017-03-04T15:10:05Z</time>
      </trkpt>
      <trkpt lat="44.1125" lon="3.3384">
        <ele>858</ele>
        <time>2017-03-04T15:12:05Z</time>
      </trkpt>
      <trkpt lat="44.1125" lon="3.33847">
        <ele>857</ele>
        <time>2017-03-04T15:14:05Z</time>
      </trkpt>
      <trkpt lat="44.11253" lon="3.33858">
        <ele>856</ele>
        <time>2017-03-04T15:16:05Z</time>
      </trkpt>
      <trkpt lat="44.11272" lon="3.33906">
        <ele>854</ele>
        <time>2017-03-04T15:18:05Z</time>
      </trkpt>
      <trkpt lat="44.11283" lon="3.3394">
        <ele>854</ele>
        <time>2017-03-04T15:20:05Z</time>
      </trkpt>
      <trkpt lat="44.11287" lon="3.33956">
        <ele>854</ele>
        <time>2017-03-04T15:22:05Z</time>
      </trkpt>
      <trkpt lat="44.11288" lon="3.33968">
        <ele>853</ele>
        <time>2017-03-04T15:24:05Z</time>
      </trkpt>
      <trkpt lat="44.11289" lon="3.33977">
        <ele>853</ele>
        <time>2017-03-04T15:26:05Z</time>
      </trkpt>
      <trkpt lat="44.11292" lon="3.33984">
        <ele>853</ele>
        <time>2017-03-04T15:28:05Z</time>
      </trkpt>
      <trkpt lat="44.11298" lon="3.33989">
        <ele>855</ele>
        <time>2017-03-04T15:30:05Z</time>
      </trkpt>
      <trkpt lat="44.1132" lon="3.3401">
        <ele>860</ele>
        <time>2017-03-04T15:32:05Z</time>
      </trkpt>
      <trkpt lat="44.11322" lon="3.34011">
        <ele>860</ele>
        <time>2017-03-04T15:34:05Z</time>
      </trkpt>
      <trkpt lat="44.11323" lon="3.34011">
        <ele>860</ele>
        <time>2017-03-04T15:36:05Z</time>
      </trkpt>
      <trkpt lat="44.1133" lon="3.34011">
        <ele>862</ele>
        <time>2017-03-04T15:38:05Z</time>
      </trkpt>
      <trkpt lat="44.11357" lon="3.34008">
        <ele>864</ele>
        <time>2017-03-04T15:40:05Z</time>
      </trkpt>
      <trkpt lat="44.11374" lon="3.34006">
        <ele>865</ele>
        <time>2017-03-04T15:42:05Z</time>
      </trkpt>
      <trkpt lat="44.11376" lon="3.34006">
        <ele>865</ele>
        <time>2017-03-04T15:44:05Z</time>
      </trkpt>
      <trkpt lat="44.11377" lon="3.34006">
        <ele>865</ele>
        <time>2017-03-04T15:46:05Z</time>
      </trkpt>
      <trkpt lat="44.11378" lon="3.34007">
        <ele>865</ele>
        <time>2017-03-04T15:48:05Z</time>
      </trkpt>
      <trkpt lat="44.11379" lon="3.34008">
        <ele>865</ele>
        <time>2017-03-04T15:50:05Z</time>
      </trkpt>
      <trkpt lat="44.11383" lon="3.34015">
        <ele>865</ele>
        <time>2017-03-04T15:52:05Z</time>
      </trkpt>
      <trkpt lat="44.11389" lon="3.3403">
        <ele>865</ele>
        <time>2017-03-04T15:54:05Z</time>
      </trkpt>
      <trkpt lat="44.11396" lon="3.34047">
        <ele>866</ele>
        <time>2017-03-04T15:56:05Z</time>
      </trkpt>
      <trkpt lat="44.11396" lon="3.34047">
        <ele>866</ele>
        <time>2017-03-04T15:58:05Z</time>
      </trkpt>
      <trkpt lat="44.11398" lon="3.34059">
        <ele>866</ele>
        <time>2017-03-04T16:00:05Z</time>
      </trkpt>
      <trkpt lat="44.11403" lon="3.34077">
        <ele>866</ele>
        <time>2017-03-04T16:02:05Z</time>
      </trkpt>
      <trkpt lat="44.1141" lon="3.34105">
        <ele>867</ele>
        <time>2017-03-04T16:04:05Z</time>
      </trkpt>
      <trkpt lat="44.11412" lon="3.3413">
        <ele>868</ele>
        <time>2017-03-04T16:06:05Z</time>
      </trkpt>
      <trkpt lat="44.11419" lon="3.34173">
        <ele>868</ele>
        <time>2017-03-04T16:08:05Z</time>
      </trkpt>
      <trkpt lat="44.11429" lon="3.34211">
        <ele>865</ele>
        <time>2017-03-04T16:10:05Z</time>
      </trkpt>
      <trkpt lat="44.1145" lon="3.34271">
        <ele>863</ele>
        <time>2017-03-04T16:12:05Z</time>
      </trkpt>
      <trkpt lat="44.11454" lon="3.34286">
        <ele>863</ele>
        <time>2017-03-04T16:14:05Z</time>
      </trkpt>
      <trkpt lat="44.1146" lon="3.34323">
        <ele>862</ele>
        <time>2017-03-04T16:16:05Z</time>
      </trkpt>
      <trkpt lat="44.11462" lon="3.34337">
        <ele>862</ele>
        <time>2017-03-04T16:18:05Z</time>
      </trkpt>
      <trkpt lat="44.11465" lon="3.34364">
        <ele>863</ele>
        <time>2017-03-04T16:20:05Z</time>
      </trkpt>
      <trkpt lat="44.11466" lon="3.34372">
        <ele>863</ele>
        <time>2017-03-04T16:22:05Z</time>
      </trkpt>
      <trkpt lat="44.11466" lon="3.3438">
        <ele>863</ele>
        <time>2017-03-04T16:24:05Z</time>
      </trkpt>
      <trkpt lat="44.11465" lon="3.34387">
        <ele>862</ele>
        <time>2017-03-04T16:26:05Z</time>
      </trkpt>
      <trkpt lat="44.11467" lon="3.34402">
        <ele>863</ele>
        <time>2017-03-04T16:28:05Z</time>
      </trkpt>
      <trkpt lat="44.11472" lon="3.34418">
        <ele>864</ele>
        <time>2017-03-04T16:30:05Z</time>
      </trkpt>
      <trkpt lat="44.11476" lon="3.34427">
        <ele>865</ele>
        <time>2017-03-04T16:32:05Z</time>
      </trkpt>
      <trkpt lat="44.11478" lon="3.34434">
        <ele>865</ele>
        <time>2017-03-04T16:34:05Z</time>
      </trkpt>
      <trkpt lat="44.11478" lon="3.34441">
        <ele>865</ele>
        <time>2017-03-04T16:36:05Z</time>
      </trkpt>
      <trkpt lat="44.11477" lon="3.34447">
        <ele>865</ele>
        <time>2017-03-04T16:38:05Z</time>
      </trkpt>
      <trkpt lat="44.11475" lon="3.34453">
        <ele>865</ele>
        <time>2017-03-04T16:40:05Z</time>
      </trkpt>
      <trkpt lat="44.1147" lon="3.34471">
        <ele>864</ele>
        <time>2017-03-04T16:42:05Z</time>
      </trkpt>
      <trkpt lat="44.11468" lon="3.34477">
        <ele>864</ele>
        <time>2017-03-04T16:44:05Z</time>
      </trkpt>
      <trkpt lat="44.11468" lon="3.34482">
        <ele>864</ele>
        <time>2017-03-04T16:46:05Z</time>
      </trkpt>
      <trkpt lat="44.1147" lon="3.34492">
        <ele>864</ele>
        <time>2017-03-04T16:48:05Z</time>
      </trkpt>
      <trkpt lat="44.11472" lon="3.345">
        <ele>865</ele>
        <time>2017-03-04T16:50:05Z</time>
      </trkpt>
      <trkpt lat="44.11473" lon="3.3451">
        <ele>865</ele>
        <time>2017-03-04T16:52:05Z</time>
      </trkpt>
      <trkpt lat="44.11473" lon="3.34521">
        <ele>865</ele>
        <time>2017-03-04T16:54:05Z</time>
      </trkpt>
      <trkpt lat="44.11472" lon="3.34526">
        <ele>864</ele>
        <time>2017-03-04T16:56:05Z</time>
      </trkpt>
      <trkpt lat="44.11471" lon="3.3453">
        <ele>864</ele>
        <time>2017-03-04T16:58:05Z</time>
      </trkpt>
      <trkpt lat="44.11468" lon="3.34537">
        <ele>863</ele>
        <time>2017-03-04T17:00:05Z</time>
      </trkpt>
      <trkpt lat="44.11465" lon="3.34543">
        <ele>862</ele>
        <time>2017-03-04T17:02:05Z</time>
      </trkpt>
      <trkpt lat="44.11465" lon="3.3455">
        <ele>861</ele>
        <time>2017-03-04T17:04:05Z</time>
      </trkpt>
      <trkpt lat="44.11465" lon="3.34569">
        <ele>861</ele>
        <time>2017-03-04T17:06:05Z</time>
      </trkpt>
      <trkpt lat="44.11466" lon="3.34582">
        <ele>861</ele>
        <time>2017-03-04T17:08:05Z</time>
      </trkpt>
      <trkpt lat="44.11465" lon="3.3459">
        <ele>860</ele>
        <time>2017-03-04T17:10:05Z</time>
      </trkpt>
      <trkpt lat="44.11464" lon="3.34596">
        <ele>860</ele>
        <time>2017-03-04T17:12:05Z</time>
      </trkpt>
      <trkpt lat="44.11462" lon="3.34622">
        <ele>860</ele>
        <time>2017-03-04T17:14:05Z</time>
      </trkpt>
      <trkpt lat="44.11462" lon="3.34637">
        <ele>860</ele>
        <time>2017-03-04T17:16:05Z</time>
      </trkpt>
      <trkpt lat="44.11465" lon="3.34651">
        <ele>861</ele>
        <time>2017-03-04T17:18:05Z</time>
      </trkpt>
      <trkpt lat="44.11474" lon="3.34668">
        <ele>863</ele>
        <time>2017-03-04T17:20:05Z</time>
      </trkpt>
      <trkpt lat="44.11479" lon="3.34675">
        <ele>864</ele>
        <time>2017-03-04T17:22:05Z</time>
      </trkpt>
      <trkpt lat="44.11488" lon="3.34701">
        <ele>865</ele>
        <time>2017-03-04T17:24:05Z</time>
      </trkpt>
      <trkpt lat="44.11496" lon="3.34721">
        <ele>866</ele>
        <time>2017-03-04T17:26:05Z</time>
      </trkpt>
      <trkpt lat="44.11504" lon="3.34754">
        <ele>865</ele>
        <time>2017-03-04T17:28:05Z</time>
      </trkpt>
      <trkpt lat="44.1151" lon="3.34778">
        <ele>864</ele>
        <time>2017-03-04T17:30:05Z</time>
      </trkpt>
      <trkpt lat="44.11519" lon="3.34798">
        <ele>864</ele>
        <time>2017-03-04T17:32:05Z</time>
      </trkpt>
      <trkpt lat="44.11534" lon="3.34829">
        <ele>864</ele>
        <time>2017-03-04T17:34:05Z</time>
      </trkpt>
      <trkpt lat="44.11535" lon="3.34833">
        <ele>864</ele>
        <time>2017-03-04T17:36:05Z</time>
      </trkpt>
      <trkpt lat="44.11541" lon="3.34849">
        <ele>865</ele>
        <time>2017-03-04T17:38:05Z</time>
      </trkpt>
      <trkpt lat="44.11542" lon="3.34852">
        <ele>865</ele>
        <time>2017-03-04T17:40:05Z</time>
      </trkpt>
      <trkpt lat="44.11546" lon="3.34873">
        <ele>865</ele>
        <time>2017-03-04T17:42:05Z</time>
      </trkpt>
      <trkpt lat="44.11546" lon="3.34882">
        <ele>865</ele>
        <time>2017-03-04T17:44:05Z</time>
      </trkpt>
      <trkpt lat="44.11546" lon="3.34892">
        <ele>865</ele>
        <time>2017-03-04T17:46:05Z</time>
      </trkpt>
      <trkpt lat="44.11539" lon="3.34913">
        <ele>864</ele>
        <time>2017-03-04T17:48:05Z</time>
      </trkpt>
      <trkpt lat="44.11533" lon="3.34942">
        <ele>863</ele>
        <time>2017-03-04T17:50:05Z</time>
      </trkpt>
      <trkpt lat="44.11529" lon="3.34951">
        <ele>862</ele>
        <time>2017-03-04T17:52:05Z</time>
      </trkpt>
      <trkpt lat="44.11517" lon="3.34966">
        <ele>861</ele>
        <time>2017-03-04T17:54:05Z</time>
      </trkpt>
      <trkpt lat="44.11506" lon="3.34981">
        <ele>860</ele>
        <time>2017-03-04T17:56:05Z</time>
      </trkpt>
      <trkpt lat="44.11502" lon="3.34987">
        <ele>860</ele>
        <time>2017-03-04T17:58:05Z</time>
      </trkpt>
      <trkpt lat="44.115" lon="3.34991">
        <ele>860</ele>
        <time>2017-03-04T18:00:05Z</time>
      </trkpt>
      <trkpt lat="44.11498" lon="3.34996">
        <ele>860</ele>
        <time>2017-03-04T18:02:05Z</time>
      </trkpt>
      <trkpt lat="44.11495" lon="3.35007">
        <ele>861</ele>
        <time>2017-03-04T18:04:05Z</time>
      </trkpt>
      <trkpt lat="44.11494" lon="3.35014">
        <ele>861</ele>
        <time>2017-03-04T18:06:05Z</time>
      </trkpt>
      <trkpt lat="44.11493" lon="3.35022">
        <ele>862</ele>
        <time>2017-03-04T18:08:05Z</time>
      </trkpt>
      <trkpt lat="44.11492" lon="3.35029">
        <ele>862</ele>
        <time>2017-03-04T18:10:05Z</time>
      </trkpt>
      <trkpt lat="44.11491" lon="3.35033">
        <ele>862</ele>
        <time>2017-03-04T18:12:05Z</time>
      </trkpt>
      <trkpt lat="44.1149" lon="3.35036">
        <ele>863</ele>
        <time>2017-03-04T18:14:05Z</time>
      </trkpt>
      <trkpt lat="44.11488" lon="3.35038">
        <ele>863</ele>
        <time>2017-03-04T18:16:05Z</time>
      </trkpt>
      <trkpt lat="44.11486" lon="3.3504">
        <ele>863</ele>
        <time>2017-03-04T18:18:05Z</time>
      </trkpt>
      <trkpt lat="44.11483" lon="3.3504">
        <ele>864</ele>
        <time>2017-03-04T18:20:05Z</time>
      </trkpt>
      <trkpt lat="44.11481" lon="3.35039">
        <ele>864</ele>
        <time>2017-03-04T18:22:05Z</time>
      </trkpt>
      <trkpt lat="44.11479" lon="3.35037">
        <ele>864</ele>
        <time>2017-03-04T18:24:05Z</time>
      </trkpt>
      <trkpt lat="44.11477" lon="3.35029">
        <ele>864</ele>
        <time>2017-03-04T18:26:05Z</time>
      </trkpt>
      <trkpt lat="44.11476" lon="3.35016">
        <ele>864</ele>
        <time>2017-03-04T18:28:05Z</time>
      </trkpt>
      <trkpt lat="44.11477" lon="3.35004">
        <ele>864</ele>
        <time>2017-03-04T18:30:05Z</time>
      </trkpt>
      <trkpt lat="44.1148" lon="3.3499">
        <ele>863</ele>
        <time>2017-03-04T18:32:05Z</time>
      </trkpt>
      <trkpt lat="44.11482" lon="3.34978">
        <ele>863</ele>
        <time>2017-03-04T18:34:05Z</time>
      </trkpt>
      <trkpt lat="44.11482" lon="3.34972">
        <ele>863</ele>
        <time>2017-03-04T18:36:05Z</time>
      </trkpt>
      <trkpt lat="44.11482" lon="3.34969">
        <ele>863</ele>
        <time>2017-03-04T18:38:05Z</time>
      </trkpt>
      <trkpt lat="44.11479" lon="3.34966">
        <ele>863</ele>
        <time>2017-03-04T18:40:05Z</time>
      </trkpt>
      <trkpt lat="44.11477" lon="3.34966">
        <ele>864</ele>
        <time>2017-03-04T18:42:05Z</time>
      </trkpt>
      <trkpt lat="44.11474" lon="3.34967">
        <ele>864</ele>
        <time>2017-03-04T18:44:05Z</time>
      </trkpt>
      <trkpt lat="44.11471" lon="3.34972">
        <ele>865</ele>
        <time>2017-03-04T18:46:05Z</time>
      </trkpt>
      <trkpt lat="44.11467" lon="3.34982">
        <ele>865</ele>
        <time>2017-03-04T18:48:05Z</time>
      </trkpt>
      <trkpt lat="44.1146" lon="3.35011">
        <ele>866</ele>
        <time>2017-03-04T18:50:05Z</time>
      </trkpt>
      <trkpt lat="44.11456" lon="3.35029">
        <ele>867</ele>
        <time>2017-03-04T18:52:05Z</time>
      </trkpt>
      <trkpt lat="44.11455" lon="3.35041">
        <ele>867</ele>
        <time>2017-03-04T18:54:05Z</time>
      </trkpt>
      <trkpt lat="44.11453" lon="3.35054">
        <ele>868</ele>
        <time>2017-03-04T18:56:05Z</time>
      </trkpt>
      <trkpt lat="44.11452" lon="3.35071">
        <ele>868</ele>
        <time>2017-03-04T18:58:05Z</time>
      </trkpt>
      <trkpt lat="44.11452" lon="3.35081">
        <ele>868</ele>
        <time>2017-03-04T19:00:05Z</time>
      </trkpt>
      <trkpt lat="44.11451" lon="3.35089">
        <ele>868</ele>
        <time>2017-03-04T19:02:05Z</time>
      </trkpt>
      <trkpt lat="44.11449" lon="3.35096">
        <ele>869</ele>
        <time>2017-03-04T19:04:05Z</time>
      </trkpt>
      <trkpt lat="44.11448" lon="3.351">
        <ele>869</ele>
        <time>2017-03-04T19:06:05Z</time>
      </trkpt>
      <trkpt lat="44.11446" lon="3.35103">
        <ele>869</ele>
        <time>2017-03-04T19:08:05Z</time>
      </trkpt>
      <trkpt lat="44.11443" lon="3.35107">
        <ele>870</ele>
        <time>2017-03-04T19:10:05Z</time>
      </trkpt>
      <trkpt lat="44.1144" lon="3.35112">
        <ele>870</ele>
        <time>2017-03-04T19:12:05Z</time>
      </trkpt>
      <trkpt lat="44.11432" lon="3.35122">
        <ele>871</ele>
        <time>2017-03-04T19:14:05Z</time>
      </trkpt>
      <trkpt lat="44.11432" lon="3.35122">
        <ele>871</ele>
        <time>2017-03-04T19:16:05Z</time>
      </trkpt>
      <trkpt lat="44.11427" lon="3.3511">
        <ele>871</ele>
        <time>2017-03-04T19:18:05Z</time>
      </trkpt>
      <trkpt lat="44.11427" lon="3.3511">
        <ele>871</ele>
        <time>2017-03-04T19:20:05Z</time>
      </trkpt>
      <trkpt lat="44.11415" lon="3.3511">
        <ele>872</ele>
        <time>2017-03-04T19:22:05Z</time>
      </trkpt>
      <trkpt lat="44.11408" lon="3.3511">
        <ele>872</ele>
        <time>2017-03-04T19:24:05Z</time>
      </trkpt>
      <trkpt lat="44.11401" lon="3.35114">
        <ele>872</ele>
        <time>2017-03-04T19:26:05Z</time>
      </trkpt>
      <trkpt lat="44.11388" lon="3.35127">
        <ele>872</ele>
        <time>2017-03-04T19:28:05Z</time>
      </trkpt>
      <trkpt lat="44.11372" lon="3.3514">
        <ele>872</ele>
        <time>2017-03-04T19:30:05Z</time>
      </trkpt>
      <trkpt lat="44.11366" lon="3.35148">
        <ele>872</ele>
        <time>2017-03-04T19:32:05Z</time>
      </trkpt>
      <trkpt lat="44.11363" lon="3.35152">
        <ele>872</ele>
        <time>2017-03-04T19:34:05Z</time>
      </trkpt>
      <trkpt lat="44.11359" lon="3.35164">
        <ele>872</ele>
        <time>2017-03-04T19:36:05Z</time>
      </trkpt>
      <trkpt lat="44.11356" lon="3.35178">
        <ele>873</ele>
        <time>2017-03-04T19:38:05Z</time>
      </trkpt>
      <trkpt lat="44.11348" lon="3.35201">
        <ele>873</ele>
        <time>2017-03-04T19:40:05Z</time>
      </trkpt>
      <trkpt lat="44.11328" lon="3.3525">
        <ele>875</ele>
        <time>2017-03-04T19:42:05Z</time>
      </trkpt>
      <trkpt lat="44.11319" lon="3.35277">
        <ele>876</ele>
        <time>2017-03-04T19:44:05Z</time>
      </trkpt>
      <trkpt lat="44.1131" lon="3.35292">
        <ele>877</ele>
        <time>2017-03-04T19:46:05Z</time>
      </trkpt>
      <trkpt lat="44.11298" lon="3.35306">
        <ele>878</ele>
        <time>2017-03-04T19:48:05Z</time>
      </trkpt>
      <trkpt lat="44.11284" lon="3.35314">
        <ele>878</ele>
        <time>2017-03-04T19:50:05Z</time>
      </trkpt>
      <trkpt lat="44.11278" lon="3.35317">
        <ele>878</ele>
        <time>2017-03-04T19:52:05Z</time>
      </trkpt>
      <trkpt lat="44.11275" lon="3.35323">
        <ele>878</ele>
        <time>2017-03-04T19:54:05Z</time>
      </trkpt>
      <trkpt lat="44.11272" lon="3.35341">
        <ele>880</ele>
        <time>2017-03-04T19:56:05Z</time>
      </trkpt>
      <trkpt lat="44.11267" lon="3.35374">
        <ele>883</ele>
        <time>2017-03-04T19:58:05Z</time>
      </trkpt>
      <trkpt lat="44.11266" lon="3.35379">
        <ele>883</ele>
        <time>2017-03-04T20:00:05Z</time>
      </trkpt>
      <trkpt lat="44.11265" lon="3.35379">
        <ele>883</ele>
        <time>2017-03-04T20:02:05Z</time>
      </trkpt>
      <trkpt lat="44.11193" lon="3.35452">
        <ele>895</ele>
        <time>2017-03-04T20:04:05Z</time>
      </trkpt>
      <trkpt lat="44.1111" lon="3.35459">
        <ele>906</ele>
        <time>2017-03-04T20:06:05Z</time>
      </trkpt>
      <trkpt lat="44.11065" lon="3.35897">
        <ele>897</ele>
        <time>2017-03-04T20:08:05Z</time>
      </trkpt>
      <trkpt lat="44.1107" lon="3.36141">
        <ele>889</ele>
        <time>2017-03-04T20:10:05Z</time>
      </trkpt>
      <trkpt lat="44.11064" lon="3.36253">
        <ele>887</ele>
        <time>2017-03-04T20:12:05Z</time>
      </trkpt>
      <trkpt lat="44.11002" lon="3.36422">
        <ele>887</ele>
        <time>2017-03-04T20:14:05Z</time>
      </trkpt>
      <trkpt lat="44.10885" lon="3.36527">
        <ele>884</ele>
        <time>2017-03-04T20:16:05Z</time>
      </trkpt>
      <trkpt lat="44.10917" lon="3.36579">
        <ele>884</ele>
        <time>2017-03-04T20:18:05Z</time>
      </trkpt>
      <trkpt lat="44.10905" lon="3.36612">
        <ele>884</ele>
        <time>2017-03-04T20:20:05Z</time>
      </trkpt>
      <trkpt lat="44.10913" lon="3.36618">
        <ele>885</ele>
        <time>2017-03-04T20:22:05Z</time>
      </trkpt>
      <trkpt lat="44.10924" lon="3.36626">
        <ele>885</ele>
        <time>2017-03-04T20:24:05Z</time>
      </trkpt>
      <trkpt lat="44.10931" lon="3.36632">
        <ele>885</ele>
        <time>2017-03-04T20:26:05Z</time>
      </trkpt>
      <trkpt lat="44.10938" lon="3.36636">
        <ele>885</ele>
        <time>2017-03-04T20:28:05Z</time>
      </trkpt>
      <trkpt lat="44.10942" lon="3.36642">
        <ele>885</ele>
        <time>2017-03-04T20:30:05Z</time>
      </trkpt>
      <trkpt lat="44.10948" lon="3.36651">
        <ele>885</ele>
        <time>2017-03-04T20:32:05Z</time>
      </trkpt>
      <trkpt lat="44.10958" lon="3.36666">
        <ele>885</ele>
        <time>2017-03-04T20:34:05Z</time>
      </trkpt>
      <trkpt lat="44.10972" lon="3.36687">
        <ele>885</ele>
        <time>2017-03-04T20:36:05Z</time>
      </trkpt>
      <trkpt lat="44.10982" lon="3.36702">
        <ele>885</ele>
        <time>2017-03-04T20:38:05Z</time>
      </trkpt>
      <trkpt lat="44.10991" lon="3.36719">
        <ele>885</ele>
        <time>2017-03-04T20:40:05Z</time>
      </trkpt>
      <trkpt lat="44.11002" lon="3.36736">
        <ele>885</ele>
        <time>2017-03-04T20:42:05Z</time>
      </trkpt>
      <trkpt lat="44.11017" lon="3.36755">
        <ele>885</ele>
        <time>2017-03-04T20:44:05Z</time>
      </trkpt>
      <trkpt lat="44.1102" lon="3.36759">
        <ele>885</ele>
        <time>2017-03-04T20:46:05Z</time>
      </trkpt>
      <trkpt lat="44.11022" lon="3.36762">
        <ele>885</ele>
        <time>2017-03-04T20:48:05Z</time>
      </trkpt>
      <trkpt lat="44.11023" lon="3.36768">
        <ele>885</ele>
        <time>2017-03-04T20:50:05Z</time>
      </trkpt>
      <trkpt lat="44.11034" lon="3.36775">
        <ele>885</ele>
        <time>2017-03-04T20:52:05Z</time>
      </trkpt>
      <trkpt lat="44.11034" lon="3.36775">
        <ele>885</ele>
        <time>2017-03-04T20:54:05Z</time>
      </trkpt>
      <trkpt lat="44.11016" lon="3.36786">
        <ele>884</ele>
        <time>2017-03-04T20:56:05Z</time>
      </trkpt>
      <trkpt lat="44.11016" lon="3.36786">
        <ele>884</ele>
        <time>2017-03-04T20:58:05Z</time>
      </trkpt>
      <trkpt lat="44.11022" lon="3.36788">
        <ele>885</ele>
        <time>2017-03-04T21:00:05Z</time>
      </trkpt>
      <trkpt lat="44.11026" lon="3.36789">
        <ele>885</ele>
        <time>2017-03-04T21:02:05Z</time>
      </trkpt>
      <trkpt lat="44.1103" lon="3.36791">
        <ele>885</ele>
        <time>2017-03-04T21:04:05Z</time>
      </trkpt>
      <trkpt lat="44.11033" lon="3.36793">
        <ele>885</ele>
        <time>2017-03-04T21:06:05Z</time>
      </trkpt>
      <trkpt lat="44.11036" lon="3.36796">
        <ele>885</ele>
        <time>2017-03-04T21:08:05Z</time>
      </trkpt>
      <trkpt lat="44.11051" lon="3.36809">
        <ele>885</ele>
        <time>2017-03-04T21:10:05Z</time>
      </trkpt>
      <trkpt lat="44.11062" lon="3.36819">
        <ele>885</ele>
        <time>2017-03-04T21:12:05Z</time>
      </trkpt>
      <trkpt lat="44.11068" lon="3.36826">
        <ele>885</ele>
        <time>2017-03-04T21:14:05Z</time>
      </trkpt>
      <trkpt lat="44.11071" lon="3.36831">
        <ele>886</ele>
        <time>2017-03-04T21:16:05Z</time>
      </trkpt>
      <trkpt lat="44.11074" lon="3.36838">
        <ele>886</ele>
        <time>2017-03-04T21:18:05Z</time>
      </trkpt>
      <trkpt lat="44.11075" lon="3.36847">
        <ele>886</ele>
        <time>2017-03-04T21:20:05Z</time>
      </trkpt>
      <trkpt lat="44.11077" lon="3.36855">
        <ele>886</ele>
        <time>2017-03-04T21:22:05Z</time>
      </trkpt>
      <trkpt lat="44.1108" lon="3.36864">
        <ele>886</ele>
        <time>2017-03-04T21:24:05Z</time>
      </trkpt>
      <trkpt lat="44.11084" lon="3.36874">
        <ele>887</ele>
        <time>2017-03-04T21:26:05Z</time>
      </trkpt>
      <trkpt lat="44.11087" lon="3.36884">
        <ele>887</ele>
        <time>2017-03-04T21:28:05Z</time>
      </trkpt>
      <trkpt lat="44.11089" lon="3.36895">
        <ele>887</ele>
        <time>2017-03-04T21:30:05Z</time>
      </trkpt>
      <trkpt lat="44.11094" lon="3.36915">
        <ele>887</ele>
        <time>2017-03-04T21:32:05Z</time>
      </trkpt>
      <trkpt lat="44.11098" lon="3.36926">
        <ele>888</ele>
        <time>2017-03-04T21:34:05Z</time>
      </trkpt>
      <trkpt lat="44.11103" lon="3.36935">
        <ele>888</ele>
        <time>2017-03-04T21:36:05Z</time>
      </trkpt>
      <trkpt lat="44.11108" lon="3.36947">
        <ele>889</ele>
        <time>2017-03-04T21:38:05Z</time>
      </trkpt>
      <trkpt lat="44.11111" lon="3.36955">
        <ele>889</ele>
        <time>2017-03-04T21:40:05Z</time>
      </trkpt>
      <trkpt lat="44.11114" lon="3.36964">
        <ele>889</ele>
        <time>2017-03-04T21:42:05Z</time>
      </trkpt>
      <trkpt lat="44.11118" lon="3.36979">
        <ele>890</ele>
        <time>2017-03-04T21:44:05Z</time>
      </trkpt>
      <trkpt lat="44.1112" lon="3.36988">
        <ele>890</ele>
        <time>2017-03-04T21:46:05Z</time>
      </trkpt>
      <trkpt lat="44.11122" lon="3.36997">
        <ele>890</ele>
        <time>2017-03-04T21:48:05Z</time>
      </trkpt>
      <trkpt lat="44.11122" lon="3.37008">
        <ele>890</ele>
        <time>2017-03-04T21:50:05Z</time>
      </trkpt>
      <trkpt lat="44.11122" lon="3.37023">
        <ele>890</ele>
        <time>2017-03-04T21:52:05Z</time>
      </trkpt>
      <trkpt lat="44.11123" lon="3.37039">
        <ele>890</ele>
        <time>2017-03-04T21:54:05Z</time>
      </trkpt>
      <trkpt lat="44.11116" lon="3.37067">
        <ele>891</ele>
        <time>2017-03-04T21:56:05Z</time>
      </trkpt>
      <trkpt lat="44.11112" lon="3.37114">
        <ele>892</ele>
        <time>2017-03-04T21:58:05Z</time>
      </trkpt>
      <trkpt lat="44.11107" lon="3.37158">
        <ele>893</ele>
        <time>2017-03-04T22:00:05Z</time>
      </trkpt>
      <trkpt lat="44.11104" lon="3.3719">
        <ele>895</ele>
        <time>2017-03-04T22:02:05Z</time>
      </trkpt>
      <trkpt lat="44.11101" lon="3.37222">
        <ele>895</ele>
        <time>2017-03-04T22:04:05Z</time>
      </trkpt>
      <trkpt lat="44.11098" lon="3.37251">
        <ele>896</ele>
        <time>2017-03-04T22:06:05Z</time>
      </trkpt>
      <trkpt lat="44.11096" lon="3.37273">
        <ele>897</ele>
        <time>2017-03-04T22:08:05Z</time>
      </trkpt>
      <trkpt lat="44.11094" lon="3.37294">
        <ele>898</ele>
        <time>2017-03-04T22:10:05Z</time>
      </trkpt>
      <trkpt lat="44.11094" lon="3.37315">
        <ele>898</ele>
        <time>2017-03-04T22:12:05Z</time>
      </trkpt>
      <trkpt lat="44.11093" lon="3.37335">
        <ele>899</ele>
        <time>2017-03-04T22:14:05Z</time>
      </trkpt>
      <trkpt lat="44.11094" lon="3.37357">
        <ele>900</ele>
        <time>2017-03-04T22:16:05Z</time>
      </trkpt>
      <trkpt lat="44.11095" lon="3.37377">
        <ele>901</ele>
        <time>2017-03-04T22:18:05Z</time>
      </trkpt>
      <trkpt lat="44.11096" lon="3.37391">
        <ele>902</ele>
        <time>2017-03-04T22:20:05Z</time>
      </trkpt>
      <trkpt lat="44.11098" lon="3.37409">
        <ele>903</ele>
        <time>2017-03-04T22:22:05Z</time>
      </trkpt>
      <trkpt lat="44.11101" lon="3.37425">
        <ele>904</ele>
        <time>2017-03-04T22:24:05Z</time>
      </trkpt>
      <trkpt lat="44.11104" lon="3.37447">
        <ele>904</ele>
        <time>2017-03-04T22:26:05Z</time>
      </trkpt>
      <trkpt lat="44.11106" lon="3.37462">
        <ele>905</ele>
        <time>2017-03-04T22:28:05Z</time>
      </trkpt>
      <trkpt lat="44.11109" lon="3.37477">
        <ele>905</ele>
        <time>2017-03-04T22:30:05Z</time>
      </trkpt>
      <trkpt lat="44.11112" lon="3.37487">
        <ele>906</ele>
        <time>2017-03-04T22:32:05Z</time>
      </trkpt>
      <trkpt lat="44.11116" lon="3.37496">
        <ele>906</ele>
        <time>2017-03-04T22:34:05Z</time>
      </trkpt>
      <trkpt lat="44.11123" lon="3.37521">
        <ele>905</ele>
        <time>2017-03-04T22:36:05Z</time>
      </trkpt>
      <trkpt lat="44.1113" lon="3.37542">
        <ele>904</ele>
        <time>2017-03-04T22:38:05Z</time>
      </trkpt>
      <trkpt lat="44.11137" lon="3.37564">
        <ele>904</ele>
        <time>2017-03-04T22:40:05Z</time>
      </trkpt>
      <trkpt lat="44.11144" lon="3.3759">
        <ele>903</ele>
        <time>2017-03-04T22:42:05Z</time>
      </trkpt>
      <trkpt lat="44.11152" lon="3.37612">
        <ele>902</ele>
        <time>2017-03-04T22:44:05Z</time>
      </trkpt>
      <trkpt lat="44.11157" lon="3.37628">
        <ele>902</ele>
        <time>2017-03-04T22:46:05Z</time>
      </trkpt>
      <trkpt lat="44.11163" lon="3.37646">
        <ele>901</ele>
        <time>2017-03-04T22:48:05Z</time>
      </trkpt>
      <trkpt lat="44.11169" lon="3.3766">
        <ele>901</ele>
        <time>2017-03-04T22:50:05Z</time>
      </trkpt>
      <trkpt lat="44.11169" lon="3.3766">
        <ele>901</ele>
        <time>2017-03-04T22:52:05Z</time>
      </trkpt>
      <trkpt lat="44.11174" lon="3.3767">
        <ele>901</ele>
        <time>2017-03-04T22:54:05Z</time>
      </trkpt>
      <trkpt lat="44.11181" lon="3.37681">
        <ele>901</ele>
        <time>2017-03-04T22:56:05Z</time>
      </trkpt>
      <trkpt lat="44.11193" lon="3.37702">
        <ele>900</ele>
        <time>2017-03-04T22:58:05Z</time>
      </trkpt>
      <trkpt lat="44.11209" lon="3.37723">
        <ele>901</ele>
        <time>2017-03-04T23:00:05Z</time>
      </trkpt>
      <trkpt lat="44.1122" lon="3.37739">
        <ele>902</ele>
        <time>2017-03-04T23:02:05Z</time>
      </trkpt>
      <trkpt lat="44.11233" lon="3.37757">
        <ele>904</ele>
        <time>2017-03-04T23:04:05Z</time>
      </trkpt>
      <trkpt lat="44.1124" lon="3.37772">
        <ele>905</ele>
        <time>2017-03-04T23:06:05Z</time>
      </trkpt>
      <trkpt lat="44.11247" lon="3.37783">
        <ele>906</ele>
        <time>2017-03-04T23:08:05Z</time>
      </trkpt>
      <trkpt lat="44.11251" lon="3.37797">
        <ele>907</ele>
        <time>2017-03-04T23:10:05Z</time>
      </trkpt>
      <trkpt lat="44.11254" lon="3.3781">
        <ele>907</ele>
        <time>2017-03-04T23:12:05Z</time>
      </trkpt>
      <trkpt lat="44.11256" lon="3.37824">
        <ele>907</ele>
        <time>2017-03-04T23:14:05Z</time>
      </trkpt>
      <trkpt lat="44.11258" lon="3.3784">
        <ele>908</ele>
        <time>2017-03-04T23:16:05Z</time>
      </trkpt>
      <trkpt lat="44.11259" lon="3.37856">
        <ele>908</ele>
        <time>2017-03-04T23:18:05Z</time>
      </trkpt>
      <trkpt lat="44.11261" lon="3.3787">
        <ele>908</ele>
        <time>2017-03-04T23:20:05Z</time>
      </trkpt>
      <trkpt lat="44.11263" lon="3.37885">
        <ele>908</ele>
        <time>2017-03-04T23:22:05Z</time>
      </trkpt>
      <trkpt lat="44.11266" lon="3.37904">
        <ele>909</ele>
        <time>2017-03-04T23:24:05Z</time>
      </trkpt>
      <trkpt lat="44.1127" lon="3.37919">
        <ele>910</ele>
        <time>2017-03-04T23:26:05Z</time>
      </trkpt>
      <trkpt lat="44.11275" lon="3.37932">
        <ele>911</ele>
        <time>2017-03-04T23:28:05Z</time>
      </trkpt>
      <trkpt lat="44.11279" lon="3.37946">
        <ele>912</ele>
        <time>2017-03-04T23:30:05Z</time>
      </trkpt>
      <trkpt lat="44.11283" lon="3.37957">
        <ele>912</ele>
        <time>2017-03-04T23:32:05Z</time>
      </trkpt>
      <trkpt lat="44.11285" lon="3.37967">
        <ele>913</ele>
        <time>2017-03-04T23:34:05Z</time>
      </trkpt>
      <trkpt lat="44.11286" lon="3.37976">
        <ele>913</ele>
        <time>2017-03-04T23:36:05Z</time>
      </trkpt>
      <trkpt lat="44.11285" lon="3.37984">
        <ele>913</ele>
        <time>2017-03-04T23:38:05Z</time>
      </trkpt>
      <trkpt lat="44.11283" lon="3.37993">
        <ele>912</ele>
        <time>2017-03-04T23:40:05Z</time>
      </trkpt>
      <trkpt lat="44.11279" lon="3.38003">
        <ele>911</ele>
        <time>2017-03-04T23:42:05Z</time>
      </trkpt>
      <trkpt lat="44.11273" lon="3.38014">
        <ele>910</ele>
        <time>2017-03-04T23:44:05Z</time>
      </trkpt>
      <trkpt lat="44.11263" lon="3.38032">
        <ele>909</ele>
        <time>2017-03-04T23:46:05Z</time>
      </trkpt>
      <trkpt lat="44.11255" lon="3.3805">
        <ele>907</ele>
        <time>2017-03-04T23:48:05Z</time>
      </trkpt>
      <trkpt lat="44.11245" lon="3.38068">
        <ele>906</ele>
        <time>2017-03-04T23:50:05Z</time>
      </trkpt>
      <trkpt lat="44.11241" lon="3.38078">
        <ele>905</ele>
        <time>2017-03-04T23:52:05Z</time>
      </trkpt>
      <trkpt lat="44.11238" lon="3.38084">
        <ele>905</ele>
        <time>2017-03-04T23:54:05Z</time>
      </trkpt>
      <trkpt lat="44.11234" lon="3.3809">
        <ele>905</ele>
        <time>2017-03-04T23:56:05Z</time>
      </trkpt>
      <trkpt lat="44.11232" lon="3.38092">
        <ele>904</ele>
        <time>2017-03-04T23:58:05Z</time>
      </trkpt>
      <trkpt lat="44.1123" lon="3.38095">
        <ele>904</ele>
        <time>2017-03-05T00:00:05Z</time>
      </trkpt>
      <trkpt lat="44.11226" lon="3.38106">
        <ele>904</ele>
        <time>2017-03-05T00:02:05Z</time>
      </trkpt>
      <trkpt lat="44.11222" lon="3.3812">
        <ele>904</ele>
        <time>2017-03-05T00:04:05Z</time>
      </trkpt>
      <trkpt lat="44.11219" lon="3.38132">
        <ele>904</ele>
        <time>2017-03-05T00:06:05Z</time>
      </trkpt>
      <trkpt lat="44.11216" lon="3.38153">
        <ele>905</ele>
        <time>2017-03-05T00:08:05Z</time>
      </trkpt>
      <trkpt lat="44.11212" lon="3.38172">
        <ele>905</ele>
        <time>2017-03-05T00:10:05Z</time>
      </trkpt>
      <trkpt lat="44.11209" lon="3.38183">
        <ele>904</ele>
        <time>2017-03-05T00:12:05Z</time>
      </trkpt>
      <trkpt lat="44.11209" lon="3.38183">
        <ele>904</ele>
        <time>2017-03-05T00:14:05Z</time>
      </trkpt>
      <trkpt lat="44.1122" lon="3.38185">
        <ele>905</ele>
        <time>2017-03-05T00:16:05Z</time>
      </trkpt>
      <trkpt lat="44.11234" lon="3.38191">
        <ele>905</ele>
        <time>2017-03-05T00:18:05Z</time>
      </trkpt>
      <trkpt lat="44.11244" lon="3.38197">
        <ele>906</ele>
        <time>2017-03-05T00:20:05Z</time>
      </trkpt>
      <trkpt lat="44.1125" lon="3.38202">
        <ele>905</ele>
        <time>2017-03-05T00:22:05Z</time>
      </trkpt>
      <trkpt lat="44.11256" lon="3.38208">
        <ele>906</ele>
        <time>2017-03-05T00:24:05Z</time>
      </trkpt>
      <trkpt lat="44.11265" lon="3.38218">
        <ele>907</ele>
        <time>2017-03-05T00:26:05Z</time>
      </trkpt>
      <trkpt lat="44.11273" lon="3.38227">
        <ele>908</ele>
        <time>2017-03-05T00:28:05Z</time>
      </trkpt>
      <trkpt lat="44.11283" lon="3.38237">
        <ele>909</ele>
        <time>2017-03-05T00:30:05Z</time>
      </trkpt>
      <trkpt lat="44.11294" lon="3.38252">
        <ele>910</ele>
        <time>2017-03-05T00:32:05Z</time>
      </trkpt>
      <trkpt lat="44.11307" lon="3.38268">
        <ele>909</ele>
        <time>2017-03-05T00:34:05Z</time>
      </trkpt>
      <trkpt lat="44.11315" lon="3.38277">
        <ele>909</ele>
        <time>2017-03-05T00:36:05Z</time>
      </trkpt>
      <trkpt lat="44.11329" lon="3.38289">
        <ele>910</ele>
        <time>2017-03-05T00:38:05Z</time>
      </trkpt>
      <trkpt lat="44.11342" lon="3.38299">
        <ele>910</ele>
        <time>2017-03-05T00:40:05Z</time>
      </trkpt>
      <trkpt lat="44.11354" lon="3.38306">
        <ele>910</ele>
        <time>2017-03-05T00:42:05Z</time>
      </trkpt>
      <trkpt lat="44.11365" lon="3.38313">
        <ele>911</ele>
        <time>2017-03-05T00:44:05Z</time>
      </trkpt>
      <trkpt lat="44.11375" lon="3.38319">
        <ele>911</ele>
        <time>2017-03-05T00:46:05Z</time>
      </trkpt>
      <trkpt lat="44.11383" lon="3.38326">
        <ele>911</ele>
        <time>2017-03-05T00:48:05Z</time>
      </trkpt>
      <trkpt lat="44.11392" lon="3.38335">
        <ele>911</ele>
        <time>2017-03-05T00:50:05Z</time>
      </trkpt>
      <trkpt lat="44.11403" lon="3.38345">
        <ele>911</ele>
        <time>2017-03-05T00:52:05Z</time>
      </trkpt>
      <trkpt lat="44.1141" lon="3.38352">
        <ele>911</ele>
        <time>2017-03-05T00:54:05Z</time>
      </trkpt>
      <trkpt lat="44.11416" lon="3.38356">
        <ele>911</ele>
        <time>2017-03-05T00:56:05Z</time>
      </trkpt>
      <trkpt lat="44.11421" lon="3.38358">
        <ele>911</ele>
        <time>2017-03-05T00:58:05Z</time>
      </trkpt>
      <trkpt lat="44.11428" lon="3.3836">
        <ele>912</ele>
        <time>2017-03-05T01:00:05Z</time>
      </trkpt>
      <trkpt lat="44.11434" lon="3.38362">
        <ele>913</ele>
        <time>2017-03-05T01:02:05Z</time>
      </trkpt>
      <trkpt lat="44.11443" lon="3.38364">
        <ele>914</ele>
        <time>2017-03-05T01:04:05Z</time>
      </trkpt>
      <trkpt lat="44.11452" lon="3.38367">
        <ele>915</ele>
        <time>2017-03-05T01:06:05Z</time>
      </trkpt>
      <trkpt lat="44.11461" lon="3.38373">
        <ele>915</ele>
        <time>2017-03-05T01:08:05Z</time>
      </trkpt>
      <trkpt lat="44.11472" lon="3.38383">
        <ele>915</ele>
        <time>2017-03-05T01:10:05Z</time>
      </trkpt>
      <trkpt lat="44.11479" lon="3.38393">
        <ele>915</ele>
        <time>2017-03-05T01:12:05Z</time>
      </trkpt>
      <trkpt lat="44.11486" lon="3.38405">
        <ele>914</ele>
        <time>2017-03-05T01:14:05Z</time>
      </trkpt>
      <trkpt lat="44.11502" lon="3.38436">
        <ele>912</ele>
        <time>2017-03-05T01:16:05Z</time>
      </trkpt>
      <trkpt lat="44.11508" lon="3.38451">
        <ele>911</ele>
        <time>2017-03-05T01:18:05Z</time>
      </trkpt>
      <trkpt lat="44.11517" lon="3.38473">
        <ele>911</ele>
        <time>2017-03-05T01:20:05Z</time>
      </trkpt>
      <trkpt lat="44.11522" lon="3.38489">
        <ele>910</ele>
        <time>2017-03-05T01:22:05Z</time>
      </trkpt>
      <trkpt lat="44.11525" lon="3.38502">
        <ele>909</ele>
        <time>2017-03-05T01:24:05Z</time>
      </trkpt>
      <trkpt lat="44.11527" lon="3.38512">
        <ele>909</ele>
        <time>2017-03-05T01:26:05Z</time>
      </trkpt>
      <trkpt lat="44.11529" lon="3.3852">
        <ele>909</ele>
        <time>2017-03-05T01:28:05Z</time>
      </trkpt>
      <trkpt lat="44.11531" lon="3.38529">
        <ele>910</ele>
        <time>2017-03-05T01:30:05Z</time>
      </trkpt>
      <trkpt lat="44.11537" lon="3.38541">
        <ele>911</ele>
        <time>2017-03-05T01:32:05Z</time>
      </trkpt>
      <trkpt lat="44.11542" lon="3.38552">
        <ele>911</ele>
        <time>2017-03-05T01:34:05Z</time>
      </trkpt>
      <trkpt lat="44.1155" lon="3.38565">
        <ele>912</ele>
        <time>2017-03-05T01:36:05Z</time>
      </trkpt>
      <trkpt lat="44.11559" lon="3.38575">
        <ele>914</ele>
        <time>2017-03-05T01:38:05Z</time>
      </trkpt>
      <trkpt lat="44.11571" lon="3.38589">
        <ele>916</ele>
        <time>2017-03-05T01:40:05Z</time>
      </trkpt>
      <trkpt lat="44.1158" lon="3.38597">
        <ele>919</ele>
        <time>2017-03-05T01:42:05Z</time>
      </trkpt>
      <trkpt lat="44.11594" lon="3.38614">
        <ele>921</ele>
        <time>2017-03-05T01:44:05Z</time>
      </trkpt>
      <trkpt lat="44.11605" lon="3.38627">
        <ele>922</ele>
        <time>2017-03-05T01:46:05Z</time>
      </trkpt>
      <trkpt lat="44.11619" lon="3.38648">
        <ele>923</ele>
        <time>2017-03-05T01:48:05Z</time>
      </trkpt>
      <trkpt lat="44.11638" lon="3.38672">
        <ele>923</ele>
        <time>2017-03-05T01:50:05Z</time>
      </trkpt>
      <trkpt lat="44.11661" lon="3.38701">
        <ele>925</ele>
        <time>2017-03-05T01:52:05Z</time>
      </trkpt>
      <trkpt lat="44.11679" lon="3.38724">
        <ele>926</ele>
        <time>2017-03-05T01:54:05Z</time>
      </trkpt>
      <trkpt lat="44.11693" lon="3.38743">
        <ele>927</ele>
        <time>2017-03-05T01:56:05Z</time>
      </trkpt>
      <trkpt lat="44.117" lon="3.38752">
        <ele>927</ele>
        <time>2017-03-05T01:58:05Z</time>
      </trkpt>
      <trkpt lat="44.11708" lon="3.38761">
        <ele>928</ele>
        <time>2017-03-05T02:00:05Z</time>
      </trkpt>
      <trkpt lat="44.11714" lon="3.3877">
        <ele>929</ele>
        <time>2017-03-05T02:02:05Z</time>
      </trkpt>
      <trkpt lat="44.11718" lon="3.38776">
        <ele>929</ele>
        <time>2017-03-05T02:04:05Z</time>
      </trkpt>
      <trkpt lat="44.11732" lon="3.38791">
        <ele>930</ele>
        <time>2017-03-05T02:06:05Z</time>
      </trkpt>
      <trkpt lat="44.11749" lon="3.38807">
        <ele>930</ele>
        <time>2017-03-05T02:08:05Z</time>
      </trkpt>
      <trkpt lat="44.11758" lon="3.38816">
        <ele>931</ele>
        <time>2017-03-05T02:10:05Z</time>
      </trkpt>
      <trkpt lat="44.1177" lon="3.38823">
        <ele>932</ele>
        <time>2017-03-05T02:12:05Z</time>
      </trkpt>
      <trkpt lat="44.11784" lon="3.38831">
        <ele>932</ele>
        <time>2017-03-05T02:14:05Z</time>
      </trkpt>
      <trkpt lat="44.118" lon="3.38838">
        <ele>932</ele>
        <time>2017-03-05T02:16:05Z</time>
      </trkpt>
      <trkpt lat="44.11816" lon="3.38842">
        <ele>932</ele>
        <time>2017-03-05T02:18:05Z</time>
      </trkpt>
      <trkpt lat="44.11824" lon="3.38842">
        <ele>932</ele>
        <time>2017-03-05T02:20:05Z</time>
      </trkpt>
      <trkpt lat="44.11831" lon="3.3884">
        <ele>932</ele>
        <time>2017-03-05T02:22:05Z</time>
      </trkpt>
      <trkpt lat="44.11836" lon="3.38836">
        <ele>932</ele>
        <time>2017-03-05T02:24:05Z</time>
      </trkpt>
      <trkpt lat="44.1184" lon="3.38835">
        <ele>932</ele>
        <time>2017-03-05T02:26:05Z</time>
      </trkpt>
      <trkpt lat="44.11845" lon="3.38836">
        <ele>931</ele>
        <time>2017-03-05T02:28:05Z</time>
      </trkpt>
      <trkpt lat="44.11849" lon="3.38839">
        <ele>931</ele>
        <time>2017-03-05T02:30:05Z</time>
      </trkpt>
      <trkpt lat="44.11858" lon="3.38849">
        <ele>931</ele>
        <time>2017-03-05T02:32:05Z</time>
      </trkpt>
      <trkpt lat="44.11868" lon="3.3886">
        <ele>930</ele>
        <time>2017-03-05T02:34:05Z</time>
      </trkpt>
      <trkpt lat="44.11875" lon="3.38868">
        <ele>930</ele>
        <time>2017-03-05T02:36:05Z</time>
      </trkpt>
      <trkpt lat="44.1188" lon="3.38874">
        <ele>930</ele>
        <time>2017-03-05T02:38:05Z</time>
      </trkpt>
      <trkpt lat="44.11885" lon="3.38886">
        <ele>929</ele>
        <time>2017-03-05T02:40:05Z</time>
      </trkpt>
      <trkpt lat="44.11893" lon="3.38901">
        <ele>929</ele>
        <time>2017-03-05T02:42:05Z</time>
      </trkpt>
      <trkpt lat="44.11901" lon="3.38915">
        <ele>929</ele>
        <time>2017-03-05T02:44:05Z</time>
      </trkpt>
      <trkpt lat="44.11909" lon="3.38928">
        <ele>929</ele>
        <time>2017-03-05T02:46:05Z</time>
      </trkpt>
      <trkpt lat="44.11914" lon="3.38935">
        <ele>930</ele>
        <time>2017-03-05T02:48:05Z</time>
      </trkpt>
      <trkpt lat="44.11921" lon="3.38942">
        <ele>930</ele>
        <time>2017-03-05T02:50:05Z</time>
      </trkpt>
      <trkpt lat="44.11926" lon="3.38948">
        <ele>930</ele>
        <time>2017-03-05T02:52:05Z</time>
      </trkpt>
      <trkpt lat="44.11935" lon="3.38956">
        <ele>931</ele>
        <time>2017-03-05T02:54:05Z</time>
      </trkpt>
      <trkpt lat="44.11958" lon="3.38975">
        <ele>932</ele>
        <time>2017-03-05T02:56:05Z</time>
      </trkpt>
      <trkpt lat="44.11977" lon="3.38988">
        <ele>932</ele>
        <time>2017-03-05T02:58:05Z</time>
      </trkpt>
      <trkpt lat="44.11989" lon="3.38996">
        <ele>932</ele>
        <time>2017-03-05T03:00:05Z</time>
      </trkpt>
      <trkpt lat="44.12" lon="3.39006">
        <ele>932</ele>
        <time>2017-03-05T03:02:05Z</time>
      </trkpt>
      <trkpt lat="44.12009" lon="3.39016">
        <ele>933</ele>
        <time>2017-03-05T03:04:05Z</time>
      </trkpt>
      <trkpt lat="44.1202" lon="3.39026">
        <ele>933</ele>
        <time>2017-03-05T03:06:05Z</time>
      </trkpt>
      <trkpt lat="44.1203" lon="3.39032">
        <ele>933</ele>
        <time>2017-03-05T03:08:05Z</time>
      </trkpt>
      <trkpt lat="44.12035" lon="3.39037">
        <ele>934</ele>
        <time>2017-03-05T03:10:05Z</time>
      </trkpt>
      <trkpt lat="44.12043" lon="3.39045">
        <ele>934</ele>
        <time>2017-03-05T03:12:05Z</time>
      </trkpt>
      <trkpt lat="44.12054" lon="3.39054">
        <ele>934</ele>
        <time>2017-03-05T03:14:05Z</time>
      </trkpt>
      <trkpt lat="44.12064" lon="3.39061">
        <ele>934</ele>
        <time>2017-03-05T03:16:05Z</time>
      </trkpt>
      <trkpt lat="44.12074" lon="3.39068">
        <ele>935</ele>
        <time>2017-03-05T03:18:05Z</time>
      </trkpt>
      <trkpt lat="44.12085" lon="3.39072">
        <ele>935</ele>
        <time>2017-03-05T03:20:05Z</time>
      </trkpt>
      <trkpt lat="44.12098" lon="3.39076">
        <ele>935</ele>
        <time>2017-03-05T03:22:05Z</time>
      </trkpt>
      <trkpt lat="44.12112" lon="3.3908">
        <ele>935</ele>
        <time>2017-03-05T03:24:05Z</time>
      </trkpt>
      <trkpt lat="44.12125" lon="3.39085">
        <ele>936</ele>
        <time>2017-03-05T03:26:05Z</time>
      </trkpt>
      <trkpt lat="44.12139" lon="3.39092">
        <ele>936</ele>
        <time>2017-03-05T03:28:05Z</time>
      </trkpt>
      <trkpt lat="44.12152" lon="3.39098">
        <ele>936</ele>
        <time>2017-03-05T03:30:05Z</time>
      </trkpt>
      <trkpt lat="44.12159" lon="3.39101">
        <ele>936</ele>
        <time>2017-03-05T03:32:05Z</time>
      </trkpt>
      <trkpt lat="44.12172" lon="3.39109">
        <ele>937</ele>
        <time>2017-03-05T03:34:05Z</time>
      </trkpt>
      <trkpt lat="44.12192" lon="3.39121">
        <ele>938</ele>
        <time>2017-03-05T03:36:05Z</time>
      </trkpt>
      <trkpt lat="44.12211" lon="3.39133">
        <ele>939</ele>
        <time>2017-03-05T03:38:05Z</time>
      </trkpt>
      <trkpt lat="44.12227" lon="3.39146">
        <ele>940</ele>
        <time>2017-03-05T03:40:05Z</time>
      </trkpt>
      <trkpt lat="44.12246" lon="3.39163">
        <ele>941</ele>
        <time>2017-03-05T03:42:05Z</time>
      </trkpt>
      <trkpt lat="44.1227" lon="3.39183">
        <ele>942</ele>
        <time>2017-03-05T03:44:05Z</time>
      </trkpt>
      <trkpt lat="44.12292" lon="3.39199">
        <ele>943</ele>
        <time>2017-03-05T03:46:05Z</time>
      </trkpt>
      <trkpt lat="44.12302" lon="3.39204">
        <ele>943</ele>
        <time>2017-03-05T03:48:05Z</time>
      </trkpt>
      <trkpt lat="44.12314" lon="3.39202">
        <ele>943</ele>
        <time>2017-03-05T03:50:05Z</time>
      </trkpt>
      <trkpt lat="44.12326" lon="3.39196">
        <ele>944</ele>
        <time>2017-03-05T03:52:05Z</time>
      </trkpt>
      <trkpt lat="44.12333" lon="3.39196">
        <ele>944</ele>
        <time>2017-03-05T03:54:05Z</time>
      </trkpt>
      <trkpt lat="44.12343" lon="3.39197">
        <ele>944</ele>
        <time>2017-03-05T03:56:05Z</time>
      </trkpt>
      <trkpt lat="44.12343" lon="3.39197">
        <ele>944</ele>
        <time>2017-03-05T03:58:05Z</time>
      </trkpt>
      <trkpt lat="44.12327" lon="3.3923">
        <ele>941</ele>
        <time>2017-03-05T04:00:05Z</time>
      </trkpt>
      <trkpt lat="44.12318" lon="3.39254">
        <ele>940</ele>
        <time>2017-03-05T04:02:05Z</time>
      </trkpt>
      <trkpt lat="44.12312" lon="3.3928">
        <ele>938</ele>
        <time>2017-03-05T04:04:05Z</time>
      </trkpt>
      <trkpt lat="44.12309" lon="3.39307">
        <ele>936</ele>
        <time>2017-03-05T04:06:05Z</time>
      </trkpt>
      <trkpt lat="44.12307" lon="3.3933">
        <ele>934</ele>
        <time>2017-03-05T04:08:05Z</time>
      </trkpt>
      <trkpt lat="44.12303" lon="3.3935">
        <ele>932</ele>
        <time>2017-03-05T04:10:05Z</time>
      </trkpt>
      <trkpt lat="44.12299" lon="3.39366">
        <ele>931</ele>
        <time>2017-03-05T04:12:05Z</time>
      </trkpt>
      <trkpt lat="44.12296" lon="3.39377">
        <ele>929</ele>
        <time>2017-03-05T04:14:05Z</time>
      </trkpt>
      <trkpt lat="44.12295" lon="3.39384">
        <ele>929</ele>
        <time>2017-03-05T04:16:05Z</time>
      </trkpt>
      <trkpt lat="44.12298" lon="3.39403">
        <ele>927</ele>
        <time>2017-03-05T04:18:05Z</time>
      </trkpt>
      <trkpt lat="44.12298" lon="3.39403">
        <ele>927</ele>
        <time>2017-03-05T04:20:05Z</time>
      </trkpt>
      <trkpt lat="44.12293" lon="3.39408">
        <ele>926</ele>
        <time>2017-03-05T04:22:05Z</time>
      </trkpt>
      <trkpt lat="44.12286" lon="3.39411">
        <ele>926</ele>
        <time>2017-03-05T04:24:05Z</time>
      </trkpt>
      <trkpt lat="44.12257" lon="3.39409">
        <ele>925</ele>
        <time>2017-03-05T04:26:05Z</time>
      </trkpt>
      <trkpt lat="44.1224" lon="3.3941">
        <ele>925</ele>
        <time>2017-03-05T04:28:05Z</time>
      </trkpt>
      <trkpt lat="44.1223" lon="3.39413">
        <ele>925</ele>
        <time>2017-03-05T04:30:05Z</time>
      </trkpt>
      <trkpt lat="44.12215" lon="3.3943">
        <ele>924</ele>
        <time>2017-03-05T04:32:05Z</time>
      </trkpt>
      <trkpt lat="44.12197" lon="3.39464">
        <ele>920</ele>
        <time>2017-03-05T04:34:05Z</time>
      </trkpt>
      <trkpt lat="44.12188" lon="3.39487">
        <ele>917</ele>
        <time>2017-03-05T04:36:05Z</time>
      </trkpt>
      <trkpt lat="44.12184" lon="3.39496">
        <ele>916</ele>
        <time>2017-03-05T04:38:05Z</time>
      </trkpt>
      <trkpt lat="44.12174" lon="3.39503">
        <ele>914</ele>
        <time>2017-03-05T04:40:05Z</time>
      </trkpt>
      <trkpt lat="44.12164" lon="3.39506">
        <ele>914</ele>
        <time>2017-03-05T04:42:05Z</time>
      </trkpt>
      <trkpt lat="44.12142" lon="3.39503">
        <ele>915</ele>
        <time>2017-03-05T04:44:05Z</time>
      </trkpt>
      <trkpt lat="44.12128" lon="3.39503">
        <ele>915</ele>
        <time>2017-03-05T04:46:05Z</time>
      </trkpt>
      <trkpt lat="44.12116" lon="3.39505">
        <ele>915</ele>
        <time>2017-03-05T04:48:05Z</time>
      </trkpt>
      <trkpt lat="44.12103" lon="3.39515">
        <ele>912</ele>
        <time>2017-03-05T04:50:05Z</time>
      </trkpt>
      <trkpt lat="44.12093" lon="3.39524">
        <ele>910</ele>
        <time>2017-03-05T04:52:05Z</time>
      </trkpt>
      <trkpt lat="44.12079" lon="3.39529">
        <ele>908</ele>
        <time>2017-03-05T04:54:05Z</time>
      </trkpt>
      <trkpt lat="44.12055" lon="3.39537">
        <ele>908</ele>
        <time>2017-03-05T04:56:05Z</time>
      </trkpt>
      <trkpt lat="44.1203" lon="3.39559">
        <ele>902</ele>
        <time>2017-03-05T04:58:05Z</time>
      </trkpt>
      <trkpt lat="44.11991" lon="3.39592">
        <ele>895</ele>
        <time>2017-03-05T05:00:05Z</time>
      </trkpt>
      <trkpt lat="44.11956" lon="3.39621">
        <ele>894</ele>
        <time>2017-03-05T05:02:05Z</time>
      </trkpt>
      <trkpt lat="44.11925" lon="3.39653">
        <ele>886</ele>
        <time>2017-03-05T05:04:05Z</time>
      </trkpt>
      <trkpt lat="44.11901" lon="3.39678">
        <ele>884</ele>
        <time>2017-03-05T05:06:05Z</time>
      </trkpt>
      <trkpt lat="44.11901" lon="3.39678">
        <ele>884</ele>
        <time>2017-03-05T05:08:05Z</time>
      </trkpt>
      <trkpt lat="44.11906" lon="3.39675">
        <ele>883</ele>
        <time>2017-03-05T05:10:05Z</time>
      </trkpt>
      <trkpt lat="44.11917" lon="3.39673">
        <ele>881</ele>
        <time>2017-03-05T05:12:05Z</time>
      </trkpt>
      <trkpt lat="44.11933" lon="3.3967">
        <ele>881</ele>
        <time>2017-03-05T05:14:05Z</time>
      </trkpt>
      <trkpt lat="44.11953" lon="3.39665">
        <ele>880</ele>
        <time>2017-03-05T05:16:05Z</time>
      </trkpt>
      <trkpt lat="44.11959" lon="3.39665">
        <ele>880</ele>
        <time>2017-03-05T05:18:05Z</time>
      </trkpt>
      <trkpt lat="44.11961" lon="3.39666">
        <ele>880</ele>
        <time>2017-03-05T05:20:05Z</time>
      </trkpt>
      <trkpt lat="44.11961" lon="3.39668">
        <ele>880</ele>
        <time>2017-03-05T05:22:05Z</time>
      </trkpt>
      <trkpt lat="44.11961" lon="3.39668">
        <ele>880</ele>
        <time>2017-03-05T05:24:05Z</time>
      </trkpt>
      <trkpt lat="44.11961" lon="3.39672">
        <ele>880</ele>
        <time>2017-03-05T05:26:05Z</time>
      </trkpt>
      <trkpt lat="44.11951" lon="3.39683">
        <ele>881</ele>
        <time>2017-03-05T05:28:05Z</time>
      </trkpt>
      <trkpt lat="44.11931" lon="3.39701">
        <ele>881</ele>
        <time>2017-03-05T05:30:05Z</time>
      </trkpt>
      <trkpt lat="44.11914" lon="3.39715">
        <ele>880</ele>
        <time>2017-03-05T05:32:05Z</time>
      </trkpt>
      <trkpt lat="44.11903" lon="3.39725">
        <ele>880</ele>
        <time>2017-03-05T05:34:05Z</time>
      </trkpt>
      <trkpt lat="44.11896" lon="3.39735">
        <ele>879</ele>
        <time>2017-03-05T05:36:05Z</time>
      </trkpt>
      <trkpt lat="44.1189" lon="3.39743">
        <ele>879</ele>
        <time>2017-03-05T05:38:05Z</time>
      </trkpt>
      <trkpt lat="44.11886" lon="3.39737">
        <ele>879</ele>
        <time>2017-03-05T05:40:05Z</time>
      </trkpt>
      <trkpt lat="44.11834" lon="3.39761">
        <ele>875</ele>
        <time>2017-03-05T05:42:05Z</time>
      </trkpt>
      <trkpt lat="44.11697" lon="3.39916">
        <ele>876</ele>
        <time>2017-03-05T05:44:05Z</time>
      </trkpt>
      <trkpt lat="44.11651" lon="3.40182">
        <ele>817</ele>
        <time>2017-03-05T05:46:05Z</time>
      </trkpt>
      <trkpt lat="44.11609" lon="3.4028">
        <ele>802</ele>
        <time>2017-03-05T05:48:05Z</time>
      </trkpt>
      <trkpt lat="44.11444" lon="3.40373">
        <ele>779</ele>
        <time>2017-03-05T05:50:05Z</time>
      </trkpt>
      <trkpt lat="44.11367" lon="3.40283">
        <ele>782</ele>
        <time>2017-03-05T05:52:05Z</time>
      </trkpt>
      <trkpt lat="44.11187" lon="3.40197">
        <ele>745</ele>
        <time>2017-03-05T05:54:05Z</time>
      </trkpt>
      <trkpt lat="44.11057" lon="3.4021">
        <ele>725</ele>
        <time>2017-03-05T05:56:05Z</time>
      </trkpt>
      <trkpt lat="44.10997" lon="3.40235">
        <ele>715</ele>
        <time>2017-03-05T05:58:05Z</time>
      </trkpt>
      <trkpt lat="44.11001" lon="3.40214">
        <ele>720</ele>
        <time>2017-03-05T06:00:05Z</time>
      </trkpt>
      <trkpt lat="44.10988" lon="3.40209">
        <ele>720</ele>
        <time>2017-03-05T06:02:05Z</time>
      </trkpt>
      <trkpt lat="44.10973" lon="3.40204">
        <ele>719</ele>
        <time>2017-03-05T06:04:05Z</time>
      </trkpt>
      <trkpt lat="44.10962" lon="3.40197">
        <ele>719</ele>
        <time>2017-03-05T06:06:05Z</time>
      </trkpt>
      <trkpt lat="44.10945" lon="3.40188">
        <ele>718</ele>
        <time>2017-03-05T06:08:05Z</time>
      </trkpt>
      <trkpt lat="44.10927" lon="3.40173">
        <ele>717</ele>
        <time>2017-03-05T06:10:05Z</time>
      </trkpt>
      <trkpt lat="44.10908" lon="3.40155">
        <ele>716</ele>
        <time>2017-03-05T06:12:05Z</time>
      </trkpt>
      <trkpt lat="44.10879" lon="3.40125">
        <ele>716</ele>
        <time>2017-03-05T06:14:05Z</time>
      </trkpt>
      <trkpt lat="44.10852" lon="3.40099">
        <ele>713</ele>
        <time>2017-03-05T06:16:05Z</time>
      </trkpt>
      <trkpt lat="44.10841" lon="3.40087">
        <ele>710</ele>
        <time>2017-03-05T06:18:05Z</time>
      </trkpt>
      <trkpt lat="44.10832" lon="3.40076">
        <ele>709</ele>
        <time>2017-03-05T06:20:05Z</time>
      </trkpt>
      <trkpt lat="44.10824" lon="3.40065">
        <ele>710</ele>
        <time>2017-03-05T06:22:05Z</time>
      </trkpt>
      <trkpt lat="44.10817" lon="3.40056">
        <ele>710</ele>
        <time>2017-03-05T06:24:05Z</time>
      </trkpt>
      <trkpt lat="44.10811" lon="3.40046">
        <ele>711</ele>
        <time>2017-03-05T06:26:05Z</time>
      </trkpt>
      <trkpt lat="44.108" lon="3.40029">
        <ele>711</ele>
        <time>2017-03-05T06:28:05Z</time>
      </trkpt>
      <trkpt lat="44.10793" lon="3.4002">
        <ele>711</ele>
        <time>2017-03-05T06:30:05Z</time>
      </trkpt>
      <trkpt lat="44.10781" lon="3.4001">
        <ele>710</ele>
        <time>2017-03-05T06:32:05Z</time>
      </trkpt>
      <trkpt lat="44.10753" lon="3.39988">
        <ele>710</ele>
        <time>2017-03-05T06:34:05Z</time>
      </trkpt>
      <trkpt lat="44.1072" lon="3.39966">
        <ele>710</ele>
        <time>2017-03-05T06:36:05Z</time>
      </trkpt>
      <trkpt lat="44.10677" lon="3.3994">
        <ele>709</ele>
        <time>2017-03-05T06:38:05Z</time>
      </trkpt>
      <trkpt lat="44.10652" lon="3.39925">
        <ele>708</ele>
        <time>2017-03-05T06:40:05Z</time>
      </trkpt>
      <trkpt lat="44.10636" lon="3.39916">
        <ele>709</ele>
        <time>2017-03-05T06:42:05Z</time>
      </trkpt>
      <trkpt lat="44.10623" lon="3.39911">
        <ele>710</ele>
        <time>2017-03-05T06:44:05Z</time>
      </trkpt>
      <trkpt lat="44.10612" lon="3.39908">
        <ele>710</ele>
        <time>2017-03-05T06:46:05Z</time>
      </trkpt>
      <trkpt lat="44.106" lon="3.39905">
        <ele>711</ele>
        <time>2017-03-05T06:48:05Z</time>
      </trkpt>
      <trkpt lat="44.10586" lon="3.39905">
        <ele>710</ele>
        <time>2017-03-05T06:50:05Z</time>
      </trkpt>
      <trkpt lat="44.10571" lon="3.39907">
        <ele>711</ele>
        <time>2017-03-05T06:52:05Z</time>
      </trkpt>
      <trkpt lat="44.10559" lon="3.39912">
        <ele>710</ele>
        <time>2017-03-05T06:54:05Z</time>
      </trkpt>
      <trkpt lat="44.10547" lon="3.39917">
        <ele>710</ele>
        <time>2017-03-05T06:56:05Z</time>
      </trkpt>
      <trkpt lat="44.10536" lon="3.39918">
        <ele>711</ele>
        <time>2017-03-05T06:58:05Z</time>
      </trkpt>
      <trkpt lat="44.10525" lon="3.39921">
        <ele>711</ele>
        <time>2017-03-05T07:00:05Z</time>
      </trkpt>
      <trkpt lat="44.10514" lon="3.39921">
        <ele>712</ele>
        <time>2017-03-05T07:02:05Z</time>
      </trkpt>
      <trkpt lat="44.10505" lon="3.39923">
        <ele>713</ele>
        <time>2017-03-05T07:04:05Z</time>
      </trkpt>
      <trkpt lat="44.10497" lon="3.39926">
        <ele>714</ele>
        <time>2017-03-05T07:06:05Z</time>
      </trkpt>
      <trkpt lat="44.1049" lon="3.39932">
        <ele>715</ele>
        <time>2017-03-05T07:08:05Z</time>
      </trkpt>
      <trkpt lat="44.10483" lon="3.39937">
        <ele>716</ele>
        <time>2017-03-05T07:10:05Z</time>
      </trkpt>
      <trkpt lat="44.10474" lon="3.39947">
        <ele>716</ele>
        <time>2017-03-05T07:12:05Z</time>
      </trkpt>
      <trkpt lat="44.10463" lon="3.39961">
        <ele>716</ele>
        <time>2017-03-05T07:14:05Z</time>
      </trkpt>
      <trkpt lat="44.10447" lon="3.39984">
        <ele>714</ele>
        <time>2017-03-05T07:16:05Z</time>
      </trkpt>
      <trkpt lat="44.1043" lon="3.40006">
        <ele>712</ele>
        <time>2017-03-05T07:18:05Z</time>
      </trkpt>
      <trkpt lat="44.1041" lon="3.40028">
        <ele>713</ele>
        <time>2017-03-05T07:20:05Z</time>
      </trkpt>
      <trkpt lat="44.10388" lon="3.4005">
        <ele>713</ele>
        <time>2017-03-05T07:22:05Z</time>
      </trkpt>
      <trkpt lat="44.1038" lon="3.40057">
        <ele>712</ele>
        <time>2017-03-05T07:24:05Z</time>
      </trkpt>
      <trkpt lat="44.10374" lon="3.40062">
        <ele>712</ele>
        <time>2017-03-05T07:26:05Z</time>
      </trkpt>
      <trkpt lat="44.10364" lon="3.40066">
        <ele>712</ele>
        <time>2017-03-05T07:28:05Z</time>
      </trkpt>
      <trkpt lat="44.10353" lon="3.40071">
        <ele>711</ele>
        <time>2017-03-05T07:30:05Z</time>
      </trkpt>
      <trkpt lat="44.10353" lon="3.40071">
        <ele>711</ele>
        <time>2017-03-05T07:32:05Z</time>
      </trkpt>
      <trkpt lat="44.10355" lon="3.40081">
        <ele>708</ele>
        <time>2017-03-05T07:34:05Z</time>
      </trkpt>
      <trkpt lat="44.10357" lon="3.40094">
        <ele>711</ele>
        <time>2017-03-05T07:36:05Z</time>
      </trkpt>
      <trkpt lat="44.10359" lon="3.40107">
        <ele>714</ele>
        <time>2017-03-05T07:38:05Z</time>
      </trkpt>
      <trkpt lat="44.10362" lon="3.40115">
        <ele>716</ele>
        <time>2017-03-05T07:40:05Z</time>
      </trkpt>
      <trkpt lat="44.10364" lon="3.40119">
        <ele>717</ele>
        <time>2017-03-05T07:42:05Z</time>
      </trkpt>
      <trkpt lat="44.10368" lon="3.40121">
        <ele>718</ele>
        <time>2017-03-05T07:44:05Z</time>
      </trkpt>
      <trkpt lat="44.10372" lon="3.40122">
        <ele>718</ele>
        <time>2017-03-05T07:46:05Z</time>
      </trkpt>
      <trkpt lat="44.10379" lon="3.40122">
        <ele>718</ele>
        <time>2017-03-05T07:48:05Z</time>
      </trkpt>
      <trkpt lat="44.10387" lon="3.40121">
        <ele>718</ele>
        <time>2017-03-05T07:50:05Z</time>
      </trkpt>
      <trkpt lat="44.10396" lon="3.40118">
        <ele>717</ele>
        <time>2017-03-05T07:52:05Z</time>
      </trkpt>
      <trkpt lat="44.10406" lon="3.40113">
        <ele>715</ele>
        <time>2017-03-05T07:54:05Z</time>
      </trkpt>
      <trkpt lat="44.10418" lon="3.40105">
        <ele>713</ele>
        <time>2017-03-05T07:56:05Z</time>
      </trkpt>
      <trkpt lat="44.1043" lon="3.40099">
        <ele>711</ele>
        <time>2017-03-05T07:58:05Z</time>
      </trkpt>
      <trkpt lat="44.10439" lon="3.40094">
        <ele>709</ele>
        <time>2017-03-05T08:00:05Z</time>
      </trkpt>
      <trkpt lat="44.10453" lon="3.40089">
        <ele>708</ele>
        <time>2017-03-05T08:02:05Z</time>
      </trkpt>
      <trkpt lat="44.10465" lon="3.40086">
        <ele>707</ele>
        <time>2017-03-05T08:04:05Z</time>
      </trkpt>
      <trkpt lat="44.10471" lon="3.40086">
        <ele>706</ele>
        <time>2017-03-05T08:06:05Z</time>
      </trkpt>
      <trkpt lat="44.10474" lon="3.40087">
        <ele>707</ele>
        <time>2017-03-05T08:08:05Z</time>
      </trkpt>
      <trkpt lat="44.10477" lon="3.40091">
        <ele>708</ele>
        <time>2017-03-05T08:10:05Z</time>
      </trkpt>
      <trkpt lat="44.10478" lon="3.40096">
        <ele>709</ele>
        <time>2017-03-05T08:12:05Z</time>
      </trkpt>
      <trkpt lat="44.10477" lon="3.40099">
        <ele>710</ele>
        <time>2017-03-05T08:14:05Z</time>
      </trkpt>
      <trkpt lat="44.10475" lon="3.40102">
        <ele>710</ele>
        <time>2017-03-05T08:16:05Z</time>
      </trkpt>
      <trkpt lat="44.10472" lon="3.40105">
        <ele>711</ele>
        <time>2017-03-05T08:18:05Z</time>
      </trkpt>
      <trkpt lat="44.10469" lon="3.40106">
        <ele>712</ele>
        <time>2017-03-05T08:20:05Z</time>
      </trkpt>
      <trkpt lat="44.10461" lon="3.40109">
        <ele>713</ele>
        <time>2017-03-05T08:22:05Z</time>
      </trkpt>
      <trkpt lat="44.10448" lon="3.40114">
        <ele>714</ele>
        <time>2017-03-05T08:24:05Z</time>
      </trkpt>
      <trkpt lat="44.10429" lon="3.40123">
        <ele>718</ele>
        <time>2017-03-05T08:26:05Z</time>
      </trkpt>
      <trkpt lat="44.10419" lon="3.4013">
        <ele>720</ele>
        <time>2017-03-05T08:28:05Z</time>
      </trkpt>
      <trkpt lat="44.10414" lon="3.40135">
        <ele>721</ele>
        <time>2017-03-05T08:30:05Z</time>
      </trkpt>
      <trkpt lat="44.10409" lon="3.4014">
        <ele>723</ele>
        <time>2017-03-05T08:32:05Z</time>
      </trkpt>
      <trkpt lat="44.10408" lon="3.40142">
        <ele>723</ele>
        <time>2017-03-05T08:34:05Z</time>
      </trkpt>
      <trkpt lat="44.10409" lon="3.40147">
        <ele>725</ele>
        <time>2017-03-05T08:36:05Z</time>
      </trkpt>
      <trkpt lat="44.10413" lon="3.40151">
        <ele>726</ele>
        <time>2017-03-05T08:38:05Z</time>
      </trkpt>
      <trkpt lat="44.10419" lon="3.4015">
        <ele>725</ele>
        <time>2017-03-05T08:40:05Z</time>
      </trkpt>
      <trkpt lat="44.10424" lon="3.40148">
        <ele>725</ele>
        <time>2017-03-05T08:42:05Z</time>
      </trkpt>
      <trkpt lat="44.1043" lon="3.40145">
        <ele>723</ele>
        <time>2017-03-05T08:44:05Z</time>
      </trkpt>
      <trkpt lat="44.1044" lon="3.40141">
        <ele>722</ele>
        <time>2017-03-05T08:46:05Z</time>
      </trkpt>
      <trkpt lat="44.10449" lon="3.4014">
        <ele>721</ele>
        <time>2017-03-05T08:48:05Z</time>
      </trkpt>
      <trkpt lat="44.10458" lon="3.40141">
        <ele>721</ele>
        <time>2017-03-05T08:50:05Z</time>
      </trkpt>
      <trkpt lat="44.10466" lon="3.40144">
        <ele>722</ele>
        <time>2017-03-05T08:52:05Z</time>
      </trkpt>
      <trkpt lat="44.10472" lon="3.4015">
        <ele>723</ele>
        <time>2017-03-05T08:54:05Z</time>
      </trkpt>
      <trkpt lat="44.10472" lon="3.40153">
        <ele>724</ele>
        <time>2017-03-05T08:56:05Z</time>
      </trkpt>
      <trkpt lat="44.10472" lon="3.40154">
        <ele>724</ele>
        <time>2017-03-05T08:58:05Z</time>
      </trkpt>
      <trkpt lat="44.10471" lon="3.40155">
        <ele>724</ele>
        <time>2017-03-05T09:00:05Z</time>
      </trkpt>
      <trkpt lat="44.1047" lon="3.40156">
        <ele>725</ele>
        <time>2017-03-05T09:02:05Z</time>
      </trkpt>
      <trkpt lat="44.10469" lon="3.40157">
        <ele>725</ele>
        <time>2017-03-05T09:04:05Z</time>
      </trkpt>
      <trkpt lat="44.10468" lon="3.40157">
        <ele>725</ele>
        <time>2017-03-05T09:06:05Z</time>
      </trkpt>
      <trkpt lat="44.10466" lon="3.40157">
        <ele>725</ele>
        <time>2017-03-05T09:08:05Z</time>
      </trkpt>
      <trkpt lat="44.10466" lon="3.40156">
        <ele>725</ele>
        <time>2017-03-05T09:10:05Z</time>
      </trkpt>
      <trkpt lat="44.10462" lon="3.40155">
        <ele>725</ele>
        <time>2017-03-05T09:12:05Z</time>
      </trkpt>
      <trkpt lat="44.10459" lon="3.40154">
        <ele>725</ele>
        <time>2017-03-05T09:14:05Z</time>
      </trkpt>
      <trkpt lat="44.10454" lon="3.40152">
        <ele>724</ele>
        <time>2017-03-05T09:16:05Z</time>
      </trkpt>
      <trkpt lat="44.10447" lon="3.4015">
        <ele>724</ele>
        <time>2017-03-05T09:18:05Z</time>
      </trkpt>
      <trkpt lat="44.10442" lon="3.40148">
        <ele>724</ele>
        <time>2017-03-05T09:20:05Z</time>
      </trkpt>
      <trkpt lat="44.10436" lon="3.40149">
        <ele>724</ele>
        <time>2017-03-05T09:22:05Z</time>
      </trkpt>
      <trkpt lat="44.10433" lon="3.40151">
        <ele>725</ele>
        <time>2017-03-05T09:24:05Z</time>
      </trkpt>
      <trkpt lat="44.10428" lon="3.40156">
        <ele>727</ele>
        <time>2017-03-05T09:26:05Z</time>
      </trkpt>
      <trkpt lat="44.1042" lon="3.40161">
        <ele>728</ele>
        <time>2017-03-05T09:28:05Z</time>
      </trkpt>
      <trkpt lat="44.10412" lon="3.40166">
        <ele>730</ele>
        <time>2017-03-05T09:30:05Z</time>
      </trkpt>
      <trkpt lat="44.104" lon="3.40168">
        <ele>731</ele>
        <time>2017-03-05T09:32:05Z</time>
      </trkpt>
      <trkpt lat="44.1039" lon="3.4017">
        <ele>732</ele>
        <time>2017-03-05T09:34:05Z</time>
      </trkpt>
      <trkpt lat="44.10375" lon="3.40173">
        <ele>734</ele>
        <time>2017-03-05T09:36:05Z</time>
      </trkpt>
      <trkpt lat="44.10363" lon="3.40177">
        <ele>736</ele>
        <time>2017-03-05T09:38:05Z</time>
      </trkpt>
      <trkpt lat="44.10349" lon="3.40184">
        <ele>740</ele>
        <time>2017-03-05T09:40:05Z</time>
      </trkpt>
      <trkpt lat="44.1034" lon="3.40188">
        <ele>743</ele>
        <time>2017-03-05T09:42:05Z</time>
      </trkpt>
      <trkpt lat="44.1033" lon="3.40191">
        <ele>745</ele>
        <time>2017-03-05T09:44:05Z</time>
      </trkpt>
      <trkpt lat="44.10324" lon="3.40191">
        <ele>744</ele>
        <time>2017-03-05T09:46:05Z</time>
      </trkpt>
      <trkpt lat="44.10316" lon="3.40189">
        <ele>743</ele>
        <time>2017-03-05T09:48:05Z</time>
      </trkpt>
      <trkpt lat="44.10307" lon="3.40185">
        <ele>740</ele>
        <time>2017-03-05T09:50:05Z</time>
      </trkpt>
      <trkpt lat="44.103" lon="3.40183">
        <ele>738</ele>
        <time>2017-03-05T09:52:05Z</time>
      </trkpt>
      <trkpt lat="44.10292" lon="3.40184">
        <ele>738</ele>
        <time>2017-03-05T09:54:05Z</time>
      </trkpt>
      <trkpt lat="44.10281" lon="3.40187">
        <ele>739</ele>
        <time>2017-03-05T09:56:05Z</time>
      </trkpt>
      <trkpt lat="44.10266" lon="3.40189">
        <ele>739</ele>
        <time>2017-03-05T09:58:05Z</time>
      </trkpt>
      <trkpt lat="44.1026" lon="3.40191">
        <ele>740</ele>
        <time>2017-03-05T10:00:05Z</time>
      </trkpt>
      <trkpt lat="44.10235" lon="3.402">
        <ele>742</ele>
        <time>2017-03-05T10:02:05Z</time>
      </trkpt>
      <trkpt lat="44.10226" lon="3.40204">
        <ele>743</ele>
        <time>2017-03-05T10:04:05Z</time>
      </trkpt>
      <trkpt lat="44.10216" lon="3.40207">
        <ele>744</ele>
        <time>2017-03-05T10:06:05Z</time>
      </trkpt>
      <trkpt lat="44.10199" lon="3.40211">
        <ele>744</ele>
        <time>2017-03-05T10:08:05Z</time>
      </trkpt>
      <trkpt lat="44.10192" lon="3.40215">
        <ele>745</ele>
        <time>2017-03-05T10:10:05Z</time>
      </trkpt>
      <trkpt lat="44.10181" lon="3.40222">
        <ele>747</ele>
        <time>2017-03-05T10:12:05Z</time>
      </trkpt>
      <trkpt lat="44.10171" lon="3.40229">
        <ele>749</ele>
        <time>2017-03-05T10:14:05Z</time>
      </trkpt>
      <trkpt lat="44.10162" lon="3.40237">
        <ele>752</ele>
        <time>2017-03-05T10:16:05Z</time>
      </trkpt>
      <trkpt lat="44.10155" lon="3.40242">
        <ele>754</ele>
        <time>2017-03-05T10:18:05Z</time>
      </trkpt>
      <trkpt lat="44.10149" lon="3.40248">
        <ele>757</ele>
        <time>2017-03-05T10:20:05Z</time>
      </trkpt>
      <trkpt lat="44.10143" lon="3.40251">
        <ele>758</ele>
        <time>2017-03-05T10:22:05Z</time>
      </trkpt>
      <trkpt lat="44.10138" lon="3.40253">
        <ele>759</ele>
        <time>2017-03-05T10:24:05Z</time>
      </trkpt>
      <trkpt lat="44.10131" lon="3.40255">
        <ele>760</ele>
        <time>2017-03-05T10:26:05Z</time>
      </trkpt>
      <trkpt lat="44.10124" lon="3.40255">
        <ele>760</ele>
        <time>2017-03-05T10:28:05Z</time>
      </trkpt>
      <trkpt lat="44.10118" lon="3.40254">
        <ele>760</ele>
        <time>2017-03-05T10:30:05Z</time>
      </trkpt>
      <trkpt lat="44.1011" lon="3.40251">
        <ele>759</ele>
        <time>2017-03-05T10:32:05Z</time>
      </trkpt>
      <trkpt lat="44.10099" lon="3.4025">
        <ele>758</ele>
        <time>2017-03-05T10:34:05Z</time>
      </trkpt>
      <trkpt lat="44.10089" lon="3.40249">
        <ele>758</ele>
        <time>2017-03-05T10:36:05Z</time>
      </trkpt>
      <trkpt lat="44.10083" lon="3.4025">
        <ele>758</ele>
        <time>2017-03-05T10:38:05Z</time>
      </trkpt>
      <trkpt lat="44.10078" lon="3.40252">
        <ele>761</ele>
        <time>2017-03-05T10:40:05Z</time>
      </trkpt>
      <trkpt lat="44.10077" lon="3.40254">
        <ele>762</ele>
        <time>2017-03-05T10:42:05Z</time>
      </trkpt>
      <trkpt lat="44.10078" lon="3.40257">
        <ele>763</ele>
        <time>2017-03-05T10:44:05Z</time>
      </trkpt>
      <trkpt lat="44.10081" lon="3.40259">
        <ele>763</ele>
        <time>2017-03-05T10:46:05Z</time>
      </trkpt>
      <trkpt lat="44.10088" lon="3.40261">
        <ele>764</ele>
        <time>2017-03-05T10:48:05Z</time>
      </trkpt>
      <trkpt lat="44.10108" lon="3.40266">
        <ele>766</ele>
        <time>2017-03-05T10:50:05Z</time>
      </trkpt>
      <trkpt lat="44.10121" lon="3.4027">
        <ele>768</ele>
        <time>2017-03-05T10:52:05Z</time>
      </trkpt>
      <trkpt lat="44.10131" lon="3.40272">
        <ele>769</ele>
        <time>2017-03-05T10:54:05Z</time>
      </trkpt>
      <trkpt lat="44.10141" lon="3.40272">
        <ele>769</ele>
        <time>2017-03-05T10:56:05Z</time>
      </trkpt>
      <trkpt lat="44.10152" lon="3.40268">
        <ele>767</ele>
        <time>2017-03-05T10:58:05Z</time>
      </trkpt>
      <trkpt lat="44.10161" lon="3.40265">
        <ele>765</ele>
        <time>2017-03-05T11:00:05Z</time>
      </trkpt>
      <trkpt lat="44.10174" lon="3.40263">
        <ele>765</ele>
        <time>2017-03-05T11:02:05Z</time>
      </trkpt>
      <trkpt lat="44.10193" lon="3.40258">
        <ele>765</ele>
        <time>2017-03-05T11:04:05Z</time>
      </trkpt>
      <trkpt lat="44.10212" lon="3.40255">
        <ele>765</ele>
        <time>2017-03-05T11:06:05Z</time>
      </trkpt>
      <trkpt lat="44.10225" lon="3.40254">
        <ele>766</ele>
        <time>2017-03-05T11:08:05Z</time>
      </trkpt>
      <trkpt lat="44.10236" lon="3.40254">
        <ele>767</ele>
        <time>2017-03-05T11:10:05Z</time>
      </trkpt>
      <trkpt lat="44.1025" lon="3.40253">
        <ele>768</ele>
        <time>2017-03-05T11:12:05Z</time>
      </trkpt>
      <trkpt lat="44.10257" lon="3.40253">
        <ele>769</ele>
        <time>2017-03-05T11:14:05Z</time>
      </trkpt>
      <trkpt lat="44.10268" lon="3.40253">
        <ele>771</ele>
        <time>2017-03-05T11:16:05Z</time>
      </trkpt>
      <trkpt lat="44.10302" lon="3.40255">
        <ele>776</ele>
        <time>2017-03-05T11:18:05Z</time>
      </trkpt>
      <trkpt lat="44.10341" lon="3.4026">
        <ele>782</ele>
        <time>2017-03-05T11:20:05Z</time>
      </trkpt>
      <trkpt lat="44.10357" lon="3.4026">
        <ele>781</ele>
        <time>2017-03-05T11:22:05Z</time>
      </trkpt>
      <trkpt lat="44.10374" lon="3.40261">
        <ele>780</ele>
        <time>2017-03-05T11:24:05Z</time>
      </trkpt>
      <trkpt lat="44.10387" lon="3.4026">
        <ele>779</ele>
        <time>2017-03-05T11:26:05Z</time>
      </trkpt>
      <trkpt lat="44.10399" lon="3.4026">
        <ele>778</ele>
        <time>2017-03-05T11:28:05Z</time>
      </trkpt>
      <trkpt lat="44.10408" lon="3.4026">
        <ele>777</ele>
        <time>2017-03-05T11:30:05Z</time>
      </trkpt>
      <trkpt lat="44.10411" lon="3.4026">
        <ele>777</ele>
        <time>2017-03-05T11:32:05Z</time>
      </trkpt>
      <trkpt lat="44.10413" lon="3.4026">
        <ele>777</ele>
        <time>2017-03-05T11:34:05Z</time>
      </trkpt>
      <trkpt lat="44.10415" lon="3.40261">
        <ele>777</ele>
        <time>2017-03-05T11:36:05Z</time>
      </trkpt>
      <trkpt lat="44.10416" lon="3.40262">
        <ele>778</ele>
        <time>2017-03-05T11:38:05Z</time>
      </trkpt>
      <trkpt lat="44.10418" lon="3.40262">
        <ele>777</ele>
        <time>2017-03-05T11:40:05Z</time>
      </trkpt>
      <trkpt lat="44.10419" lon="3.40263">
        <ele>778</ele>
        <time>2017-03-05T11:42:05Z</time>
      </trkpt>
      <trkpt lat="44.1042" lon="3.40264">
        <ele>778</ele>
        <time>2017-03-05T11:44:05Z</time>
      </trkpt>
      <trkpt lat="44.10421" lon="3.40266">
        <ele>778</ele>
        <time>2017-03-05T11:46:05Z</time>
      </trkpt>
      <trkpt lat="44.10422" lon="3.40267">
        <ele>779</ele>
        <time>2017-03-05T11:48:05Z</time>
      </trkpt>
      <trkpt lat="44.10423" lon="3.40269">
        <ele>779</ele>
        <time>2017-03-05T11:50:05Z</time>
      </trkpt>
      <trkpt lat="44.10423" lon="3.4027">
        <ele>779</ele>
        <time>2017-03-05T11:52:05Z</time>
      </trkpt>
      <trkpt lat="44.10423" lon="3.40271">
        <ele>780</ele>
        <time>2017-03-05T11:54:05Z</time>
      </trkpt>
      <trkpt lat="44.10423" lon="3.40273">
        <ele>781</ele>
        <time>2017-03-05T11:56:05Z</time>
      </trkpt>
      <trkpt lat="44.10423" lon="3.40278">
        <ele>783</ele>
        <time>2017-03-05T11:58:05Z</time>
      </trkpt>
      <trkpt lat="44.10423" lon="3.4029">
        <ele>787</ele>
        <time>2017-03-05T12:00:05Z</time>
      </trkpt>
      <trkpt lat="44.10425" lon="3.403">
        <ele>790</ele>
        <time>2017-03-05T12:02:05Z</time>
      </trkpt>
      <trkpt lat="44.10427" lon="3.40308">
        <ele>793</ele>
        <time>2017-03-05T12:04:05Z</time>
      </trkpt>
      <trkpt lat="44.1043" lon="3.40319">
        <ele>797</ele>
        <time>2017-03-05T12:06:05Z</time>
      </trkpt>
      <trkpt lat="44.10436" lon="3.40333">
        <ele>800</ele>
        <time>2017-03-05T12:08:05Z</time>
      </trkpt>
      <trkpt lat="44.10444" lon="3.4035">
        <ele>802</ele>
        <time>2017-03-05T12:10:05Z</time>
      </trkpt>
      <trkpt lat="44.10452" lon="3.40371">
        <ele>805</ele>
        <time>2017-03-05T12:12:05Z</time>
      </trkpt>
      <trkpt lat="44.10461" lon="3.40393">
        <ele>807</ele>
        <time>2017-03-05T12:14:05Z</time>
      </trkpt>
      <trkpt lat="44.10467" lon="3.40409">
        <ele>809</ele>
        <time>2017-03-05T12:16:05Z</time>
      </trkpt>
      <trkpt lat="44.1047" lon="3.40419">
        <ele>810</ele>
        <time>2017-03-05T12:18:05Z</time>
      </trkpt>
      <trkpt lat="44.10471" lon="3.40427">
        <ele>811</ele>
        <time>2017-03-05T12:20:05Z</time>
      </trkpt>
      <trkpt lat="44.10472" lon="3.40437">
        <ele>812</ele>
        <time>2017-03-05T12:22:05Z</time>
      </trkpt>
      <trkpt lat="44.10472" lon="3.40448">
        <ele>814</ele>
        <time>2017-03-05T12:24:05Z</time>
      </trkpt>
      <trkpt lat="44.10475" lon="3.40458">
        <ele>816</ele>
        <time>2017-03-05T12:26:05Z</time>
      </trkpt>
      <trkpt lat="44.10479" lon="3.40468">
        <ele>816</ele>
        <time>2017-03-05T12:28:05Z</time>
      </trkpt>
      <trkpt lat="44.10484" lon="3.40482">
        <ele>818</ele>
        <time>2017-03-05T12:30:05Z</time>
      </trkpt>
      <trkpt lat="44.10489" lon="3.40497">
        <ele>819</ele>
        <time>2017-03-05T12:32:05Z</time>
      </trkpt>
      <trkpt lat="44.10494" lon="3.40504">
        <ele>819</ele>
        <time>2017-03-05T12:34:05Z</time>
      </trkpt>
      <trkpt lat="44.10499" lon="3.40507">
        <ele>818</ele>
        <time>2017-03-05T12:36:05Z</time>
      </trkpt>
      <trkpt lat="44.10503" lon="3.40509">
        <ele>819</ele>
        <time>2017-03-05T12:38:05Z</time>
      </trkpt>
      <trkpt lat="44.10506" lon="3.40507">
        <ele>819</ele>
        <time>2017-03-05T12:40:05Z</time>
      </trkpt>
      <trkpt lat="44.10509" lon="3.40503">
        <ele>819</ele>
        <time>2017-03-05T12:42:05Z</time>
      </trkpt>
      <trkpt lat="44.10511" lon="3.40499">
        <ele>819</ele>
        <time>2017-03-05T12:44:05Z</time>
      </trkpt>
      <trkpt lat="44.10512" lon="3.40491">
        <ele>818</ele>
        <time>2017-03-05T12:46:05Z</time>
      </trkpt>
      <trkpt lat="44.10516" lon="3.40463">
        <ele>813</ele>
        <time>2017-03-05T12:48:05Z</time>
      </trkpt>
      <trkpt lat="44.10518" lon="3.4044">
        <ele>810</ele>
        <time>2017-03-05T12:50:05Z</time>
      </trkpt>
      <trkpt lat="44.1052" lon="3.40426">
        <ele>808</ele>
        <time>2017-03-05T12:52:05Z</time>
      </trkpt>
      <trkpt lat="44.10524" lon="3.40412">
        <ele>807</ele>
        <time>2017-03-05T12:54:05Z</time>
      </trkpt>
      <trkpt lat="44.10529" lon="3.40399">
        <ele>805</ele>
        <time>2017-03-05T12:56:05Z</time>
      </trkpt>
      <trkpt lat="44.10534" lon="3.40388">
        <ele>804</ele>
        <time>2017-03-05T12:58:05Z</time>
      </trkpt>
      <trkpt lat="44.10544" lon="3.40374">
        <ele>804</ele>
        <time>2017-03-05T13:00:05Z</time>
      </trkpt>
      <trkpt lat="44.10554" lon="3.40364">
        <ele>804</ele>
        <time>2017-03-05T13:02:05Z</time>
      </trkpt>
      <trkpt lat="44.10564" lon="3.40355">
        <ele>804</ele>
        <time>2017-03-05T13:04:05Z</time>
      </trkpt>
      <trkpt lat="44.10574" lon="3.4035">
        <ele>805</ele>
        <time>2017-03-05T13:06:05Z</time>
      </trkpt>
      <trkpt lat="44.10584" lon="3.40349">
        <ele>807</ele>
        <time>2017-03-05T13:08:05Z</time>
      </trkpt>
      <trkpt lat="44.10591" lon="3.40349">
        <ele>806</ele>
        <time>2017-03-05T13:10:05Z</time>
      </trkpt>
      <trkpt lat="44.10599" lon="3.40352">
        <ele>805</ele>
        <time>2017-03-05T13:12:05Z</time>
      </trkpt>
      <trkpt lat="44.10606" lon="3.40356">
        <ele>805</ele>
        <time>2017-03-05T13:14:05Z</time>
      </trkpt>
      <trkpt lat="44.10612" lon="3.40361">
        <ele>806</ele>
        <time>2017-03-05T13:16:05Z</time>
      </trkpt>
      <trkpt lat="44.10618" lon="3.40368">
        <ele>807</ele>
        <time>2017-03-05T13:18:05Z</time>
      </trkpt>
      <trkpt lat="44.10623" lon="3.40378">
        <ele>808</ele>
        <time>2017-03-05T13:20:05Z</time>
      </trkpt>
      <trkpt lat="44.10627" lon="3.4039">
        <ele>811</ele>
        <time>2017-03-05T13:22:05Z</time>
      </trkpt>
      <trkpt lat="44.1063" lon="3.40402">
        <ele>813</ele>
        <time>2017-03-05T13:24:05Z</time>
      </trkpt>
      <trkpt lat="44.10631" lon="3.40414">
        <ele>816</ele>
        <time>2017-03-05T13:26:05Z</time>
      </trkpt>
      <trkpt lat="44.1063" lon="3.40427">
        <ele>818</ele>
        <time>2017-03-05T13:28:05Z</time>
      </trkpt>
      <trkpt lat="44.1063" lon="3.4044">
        <ele>820</ele>
        <time>2017-03-05T13:30:05Z</time>
      </trkpt>
      <trkpt lat="44.10629" lon="3.40452">
        <ele>822</ele>
        <time>2017-03-05T13:32:05Z</time>
      </trkpt>
      <trkpt lat="44.10629" lon="3.40464">
        <ele>824</ele>
        <time>2017-03-05T13:34:05Z</time>
      </trkpt>
      <trkpt lat="44.10629" lon="3.40473">
        <ele>825</ele>
        <time>2017-03-05T13:36:05Z</time>
      </trkpt>
      <trkpt lat="44.10631" lon="3.40478">
        <ele>825</ele>
        <time>2017-03-05T13:38:05Z</time>
      </trkpt>
      <trkpt lat="44.10635" lon="3.40485">
        <ele>826</ele>
        <time>2017-03-05T13:40:05Z</time>
      </trkpt>
      <trkpt lat="44.1064" lon="3.40488">
        <ele>826</ele>
        <time>2017-03-05T13:42:05Z</time>
      </trkpt>
      <trkpt lat="44.10646" lon="3.40492">
        <ele>826</ele>
        <time>2017-03-05T13:44:05Z</time>
      </trkpt>
      <trkpt lat="44.10658" lon="3.40497">
        <ele>826</ele>
        <time>2017-03-05T13:46:05Z</time>
      </trkpt>
      <trkpt lat="44.10671" lon="3.40508">
        <ele>827</ele>
        <time>2017-03-05T13:48:05Z</time>
      </trkpt>
      <trkpt lat="44.10687" lon="3.40522">
        <ele>828</ele>
        <time>2017-03-05T13:50:05Z</time>
      </trkpt>
      <trkpt lat="44.10698" lon="3.40533">
        <ele>830</ele>
        <time>2017-03-05T13:52:05Z</time>
      </trkpt>
      <trkpt lat="44.10714" lon="3.40545">
        <ele>830</ele>
        <time>2017-03-05T13:54:05Z</time>
      </trkpt>
      <trkpt lat="44.10724" lon="3.40558">
        <ele>832</ele>
        <time>2017-03-05T13:56:05Z</time>
      </trkpt>
      <trkpt lat="44.10729" lon="3.40564">
        <ele>833</ele>
        <time>2017-03-05T13:58:05Z</time>
      </trkpt>
      <trkpt lat="44.10735" lon="3.40571">
        <ele>834</ele>
        <time>2017-03-05T14:00:05Z</time>
      </trkpt>
      <trkpt lat="44.10741" lon="3.40576">
        <ele>834</ele>
        <time>2017-03-05T14:02:05Z</time>
      </trkpt>
      <trkpt lat="44.10742" lon="3.40579">
        <ele>835</ele>
        <time>2017-03-05T14:04:05Z</time>
      </trkpt>
      <trkpt lat="44.10742" lon="3.40582">
        <ele>836</ele>
        <time>2017-03-05T14:06:05Z</time>
      </trkpt>
      <trkpt lat="44.10743" lon="3.40583">
        <ele>836</ele>
        <time>2017-03-05T14:08:05Z</time>
      </trkpt>
      <trkpt lat="44.10742" lon="3.40585">
        <ele>836</ele>
        <time>2017-03-05T14:10:05Z</time>
      </trkpt>
      <trkpt lat="44.10739" lon="3.40588">
        <ele>838</ele>
        <time>2017-03-05T14:12:05Z</time>
      </trkpt>
      <trkpt lat="44.10735" lon="3.40588">
        <ele>838</ele>
        <time>2017-03-05T14:14:05Z</time>
      </trkpt>
      <trkpt lat="44.10732" lon="3.40587">
        <ele>838</ele>
        <time>2017-03-05T14:16:05Z</time>
      </trkpt>
      <trkpt lat="44.10728" lon="3.40586">
        <ele>838</ele>
        <time>2017-03-05T14:18:05Z</time>
      </trkpt>
      <trkpt lat="44.10719" lon="3.40583">
        <ele>839</ele>
        <time>2017-03-05T14:20:05Z</time>
      </trkpt>
      <trkpt lat="44.1071" lon="3.40578">
        <ele>839</ele>
        <time>2017-03-05T14:22:05Z</time>
      </trkpt>
      <trkpt lat="44.107" lon="3.40571">
        <ele>838</ele>
        <time>2017-03-05T14:24:05Z</time>
      </trkpt>
      <trkpt lat="44.10689" lon="3.40563">
        <ele>838</ele>
        <time>2017-03-05T14:26:05Z</time>
      </trkpt>
      <trkpt lat="44.10672" lon="3.40553">
        <ele>837</ele>
        <time>2017-03-05T14:28:05Z</time>
      </trkpt>
      <trkpt lat="44.10656" lon="3.40543">
        <ele>836</ele>
        <time>2017-03-05T14:30:05Z</time>
      </trkpt>
      <trkpt lat="44.10646" lon="3.40536">
        <ele>835</ele>
        <time>2017-03-05T14:32:05Z</time>
      </trkpt>
      <trkpt lat="44.10627" lon="3.40523">
        <ele>833</ele>
        <time>2017-03-05T14:34:05Z</time>
      </trkpt>
      <trkpt lat="44.10607" lon="3.40519">
        <ele>834</ele>
        <time>2017-03-05T14:36:05Z</time>
      </trkpt>
      <trkpt lat="44.10597" lon="3.40518">
        <ele>834</ele>
        <time>2017-03-05T14:38:05Z</time>
      </trkpt>
      <trkpt lat="44.10592" lon="3.40517">
        <ele>834</ele>
        <time>2017-03-05T14:40:05Z</time>
      </trkpt>
      <trkpt lat="44.10588" lon="3.40518">
        <ele>835</ele>
        <time>2017-03-05T14:42:05Z</time>
      </trkpt>
      <trkpt lat="44.10585" lon="3.4052">
        <ele>835</ele>
        <time>2017-03-05T14:44:05Z</time>
      </trkpt>
      <trkpt lat="44.10582" lon="3.40524">
        <ele>836</ele>
        <time>2017-03-05T14:46:05Z</time>
      </trkpt>
      <trkpt lat="44.1058" lon="3.40532">
        <ele>836</ele>
        <time>2017-03-05T14:48:05Z</time>
      </trkpt>
      <trkpt lat="44.10576" lon="3.40546">
        <ele>838</ele>
        <time>2017-03-05T14:50:05Z</time>
      </trkpt>
      <trkpt lat="44.10573" lon="3.4056">
        <ele>840</ele>
        <time>2017-03-05T14:52:05Z</time>
      </trkpt>
      <trkpt lat="44.10568" lon="3.40574">
        <ele>841</ele>
        <time>2017-03-05T14:54:05Z</time>
      </trkpt>
      <trkpt lat="44.10562" lon="3.4059">
        <ele>843</ele>
        <time>2017-03-05T14:56:05Z</time>
      </trkpt>
      <trkpt lat="44.10551" lon="3.40617">
        <ele>846</ele>
        <time>2017-03-05T14:58:05Z</time>
      </trkpt>
      <trkpt lat="44.10541" lon="3.40637">
        <ele>848</ele>
        <time>2017-03-05T15:00:05Z</time>
      </trkpt>
      <trkpt lat="44.1053" lon="3.40654">
        <ele>849</ele>
        <time>2017-03-05T15:02:05Z</time>
      </trkpt>
      <trkpt lat="44.10519" lon="3.40668">
        <ele>848</ele>
        <time>2017-03-05T15:04:05Z</time>
      </trkpt>
      <trkpt lat="44.1051" lon="3.40681">
        <ele>848</ele>
        <time>2017-03-05T15:06:05Z</time>
      </trkpt>
      <trkpt lat="44.105" lon="3.40693">
        <ele>848</ele>
        <time>2017-03-05T15:08:05Z</time>
      </trkpt>
      <trkpt lat="44.1049" lon="3.40702">
        <ele>851</ele>
        <time>2017-03-05T15:10:05Z</time>
      </trkpt>
      <trkpt lat="44.10483" lon="3.40707">
        <ele>852</ele>
        <time>2017-03-05T15:12:05Z</time>
      </trkpt>
      <trkpt lat="44.10475" lon="3.40712">
        <ele>854</ele>
        <time>2017-03-05T15:14:05Z</time>
      </trkpt>
      <trkpt lat="44.1047" lon="3.40715">
        <ele>855</ele>
        <time>2017-03-05T15:16:05Z</time>
      </trkpt>
      <trkpt lat="44.10467" lon="3.40717">
        <ele>855</ele>
        <time>2017-03-05T15:18:05Z</time>
      </trkpt>
      <trkpt lat="44.10467" lon="3.40722">
        <ele>856</ele>
        <time>2017-03-05T15:20:05Z</time>
      </trkpt>
      <trkpt lat="44.10467" lon="3.40724">
        <ele>856</ele>
        <time>2017-03-05T15:22:05Z</time>
      </trkpt>
      <trkpt lat="44.10471" lon="3.40727">
        <ele>856</ele>
        <time>2017-03-05T15:24:05Z</time>
      </trkpt>
      <trkpt lat="44.10476" lon="3.40727">
        <ele>856</ele>
        <time>2017-03-05T15:26:05Z</time>
      </trkpt>
      <trkpt lat="44.10483" lon="3.40726">
        <ele>855</ele>
        <time>2017-03-05T15:28:05Z</time>
      </trkpt>
      <trkpt lat="44.10494" lon="3.40722">
        <ele>854</ele>
        <time>2017-03-05T15:30:05Z</time>
      </trkpt>
      <trkpt lat="44.10506" lon="3.40717">
        <ele>854</ele>
        <time>2017-03-05T15:32:05Z</time>
      </trkpt>
      <trkpt lat="44.10522" lon="3.40708">
        <ele>857</ele>
        <time>2017-03-05T15:34:05Z</time>
      </trkpt>
      <trkpt lat="44.1053" lon="3.407">
        <ele>858</ele>
        <time>2017-03-05T15:36:05Z</time>
      </trkpt>
      <trkpt lat="44.10539" lon="3.4069">
        <ele>858</ele>
        <time>2017-03-05T15:38:05Z</time>
      </trkpt>
      <trkpt lat="44.1055" lon="3.40676">
        <ele>858</ele>
        <time>2017-03-05T15:40:05Z</time>
      </trkpt>
      <trkpt lat="44.1056" lon="3.4066">
        <ele>857</ele>
        <time>2017-03-05T15:42:05Z</time>
      </trkpt>
      <trkpt lat="44.1057" lon="3.40644">
        <ele>856</ele>
        <time>2017-03-05T15:44:05Z</time>
      </trkpt>
      <trkpt lat="44.10581" lon="3.40627">
        <ele>855</ele>
        <time>2017-03-05T15:46:05Z</time>
      </trkpt>
      <trkpt lat="44.10586" lon="3.40619">
        <ele>854</ele>
        <time>2017-03-05T15:48:05Z</time>
      </trkpt>
      <trkpt lat="44.10591" lon="3.40616">
        <ele>853</ele>
        <time>2017-03-05T15:50:05Z</time>
      </trkpt>
      <trkpt lat="44.10596" lon="3.40616">
        <ele>853</ele>
        <time>2017-03-05T15:52:05Z</time>
      </trkpt>
      <trkpt lat="44.10602" lon="3.40617">
        <ele>854</ele>
        <time>2017-03-05T15:54:05Z</time>
      </trkpt>
      <trkpt lat="44.10606" lon="3.40619">
        <ele>854</ele>
        <time>2017-03-05T15:56:05Z</time>
      </trkpt>
      <trkpt lat="44.1062" lon="3.40624">
        <ele>856</ele>
        <time>2017-03-05T15:58:05Z</time>
      </trkpt>
      <trkpt lat="44.10638" lon="3.40634">
        <ele>860</ele>
        <time>2017-03-05T16:00:05Z</time>
      </trkpt>
      <trkpt lat="44.10656" lon="3.4064">
        <ele>863</ele>
        <time>2017-03-05T16:02:05Z</time>
      </trkpt>
      <trkpt lat="44.10665" lon="3.40644">
        <ele>865</ele>
        <time>2017-03-05T16:04:05Z</time>
      </trkpt>
      <trkpt lat="44.10671" lon="3.40648">
        <ele>865</ele>
        <time>2017-03-05T16:06:05Z</time>
      </trkpt>
      <trkpt lat="44.10676" lon="3.40654">
        <ele>867</ele>
        <time>2017-03-05T16:08:05Z</time>
      </trkpt>
      <trkpt lat="44.10681" lon="3.40662">
        <ele>868</ele>
        <time>2017-03-05T16:10:05Z</time>
      </trkpt>
      <trkpt lat="44.10685" lon="3.40667">
        <ele>869</ele>
        <time>2017-03-05T16:12:05Z</time>
      </trkpt>
      <trkpt lat="44.10692" lon="3.40674">
        <ele>870</ele>
        <time>2017-03-05T16:14:05Z</time>
      </trkpt>
      <trkpt lat="44.10699" lon="3.40683">
        <ele>871</ele>
        <time>2017-03-05T16:16:05Z</time>
      </trkpt>
      <trkpt lat="44.10707" lon="3.40694">
        <ele>873</ele>
        <time>2017-03-05T16:18:05Z</time>
      </trkpt>
      <trkpt lat="44.10714" lon="3.40705">
        <ele>875</ele>
        <time>2017-03-05T16:20:05Z</time>
      </trkpt>
      <trkpt lat="44.10719" lon="3.40714">
        <ele>877</ele>
        <time>2017-03-05T16:22:05Z</time>
      </trkpt>
      <trkpt lat="44.10722" lon="3.40717">
        <ele>877</ele>
        <time>2017-03-05T16:24:05Z</time>
      </trkpt>
      <trkpt lat="44.10728" lon="3.40724">
        <ele>879</ele>
        <time>2017-03-05T16:26:05Z</time>
      </trkpt>
      <trkpt lat="44.10738" lon="3.40733">
        <ele>880</ele>
        <time>2017-03-05T16:28:05Z</time>
      </trkpt>
      <trkpt lat="44.10747" lon="3.40739">
        <ele>881</ele>
        <time>2017-03-05T16:30:05Z</time>
      </trkpt>
      <trkpt lat="44.10756" lon="3.40744">
        <ele>882</ele>
        <time>2017-03-05T16:32:05Z</time>
      </trkpt>
      <trkpt lat="44.10769" lon="3.40749">
        <ele>882</ele>
        <time>2017-03-05T16:34:05Z</time>
      </trkpt>
      <trkpt lat="44.10784" lon="3.40755">
        <ele>883</ele>
        <time>2017-03-05T16:36:05Z</time>
      </trkpt>
      <trkpt lat="44.10799" lon="3.40761">
        <ele>883</ele>
        <time>2017-03-05T16:38:05Z</time>
      </trkpt>
      <trkpt lat="44.10813" lon="3.40765">
        <ele>883</ele>
        <time>2017-03-05T16:40:05Z</time>
      </trkpt>
      <trkpt lat="44.1082" lon="3.40767">
        <ele>883</ele>
        <time>2017-03-05T16:42:05Z</time>
      </trkpt>
      <trkpt lat="44.10827" lon="3.40769">
        <ele>882</ele>
        <time>2017-03-05T16:44:05Z</time>
      </trkpt>
      <trkpt lat="44.10835" lon="3.40772">
        <ele>882</ele>
        <time>2017-03-05T16:46:05Z</time>
      </trkpt>
      <trkpt lat="44.10845" lon="3.40779">
        <ele>881</ele>
        <time>2017-03-05T16:48:05Z</time>
      </trkpt>
      <trkpt lat="44.10849" lon="3.40784">
        <ele>880</ele>
        <time>2017-03-05T16:50:05Z</time>
      </trkpt>
      <trkpt lat="44.10854" lon="3.4079">
        <ele>880</ele>
        <time>2017-03-05T16:52:05Z</time>
      </trkpt>
      <trkpt lat="44.10856" lon="3.40796">
        <ele>881</ele>
        <time>2017-03-05T16:54:05Z</time>
      </trkpt>
      <trkpt lat="44.10857" lon="3.40805">
        <ele>882</ele>
        <time>2017-03-05T16:56:05Z</time>
      </trkpt>
      <trkpt lat="44.10858" lon="3.40818">
        <ele>885</ele>
        <time>2017-03-05T16:58:05Z</time>
      </trkpt>
      <trkpt lat="44.10859" lon="3.40826">
        <ele>886</ele>
        <time>2017-03-05T17:00:05Z</time>
      </trkpt>
      <trkpt lat="44.1086" lon="3.40836">
        <ele>888</ele>
        <time>2017-03-05T17:02:05Z</time>
      </trkpt>
      <trkpt lat="44.10861" lon="3.40843">
        <ele>889</ele>
        <time>2017-03-05T17:04:05Z</time>
      </trkpt>
      <trkpt lat="44.10862" lon="3.40848">
        <ele>890</ele>
        <time>2017-03-05T17:06:05Z</time>
      </trkpt>
      <trkpt lat="44.10862" lon="3.40851">
        <ele>890</ele>
        <time>2017-03-05T17:08:05Z</time>
      </trkpt>
      <trkpt lat="44.10862" lon="3.40856">
        <ele>891</ele>
        <time>2017-03-05T17:10:05Z</time>
      </trkpt>
      <trkpt lat="44.10858" lon="3.4087">
        <ele>896</ele>
        <time>2017-03-05T17:12:05Z</time>
      </trkpt>
      <trkpt lat="44.10857" lon="3.40873">
        <ele>897</ele>
        <time>2017-03-05T17:14:05Z</time>
      </trkpt>
      <trkpt lat="44.10854" lon="3.40875">
        <ele>899</ele>
        <time>2017-03-05T17:16:05Z</time>
      </trkpt>
      <trkpt lat="44.10851" lon="3.40875">
        <ele>900</ele>
        <time>2017-03-05T17:18:05Z</time>
      </trkpt>
      <trkpt lat="44.10849" lon="3.40871">
        <ele>900</ele>
        <time>2017-03-05T17:20:05Z</time>
      </trkpt>
      <trkpt lat="44.10848" lon="3.40865">
        <ele>899</ele>
        <time>2017-03-05T17:22:05Z</time>
      </trkpt>
      <trkpt lat="44.10848" lon="3.40858">
        <ele>897</ele>
        <time>2017-03-05T17:24:05Z</time>
      </trkpt>
      <trkpt lat="44.1085" lon="3.40851">
        <ele>895</ele>
        <time>2017-03-05T17:26:05Z</time>
      </trkpt>
      <trkpt lat="44.1085" lon="3.40843">
        <ele>893</ele>
        <time>2017-03-05T17:28:05Z</time>
      </trkpt>
      <trkpt lat="44.1085" lon="3.40835">
        <ele>891</ele>
        <time>2017-03-05T17:30:05Z</time>
      </trkpt>
      <trkpt lat="44.10849" lon="3.40828">
        <ele>890</ele>
        <time>2017-03-05T17:32:05Z</time>
      </trkpt>
      <trkpt lat="44.10848" lon="3.40818">
        <ele>888</ele>
        <time>2017-03-05T17:34:05Z</time>
      </trkpt>
      <trkpt lat="44.10846" lon="3.40812">
        <ele>888</ele>
        <time>2017-03-05T17:36:05Z</time>
      </trkpt>
      <trkpt lat="44.10844" lon="3.40807">
        <ele>887</ele>
        <time>2017-03-05T17:38:05Z</time>
      </trkpt>
      <trkpt lat="44.1084" lon="3.40804">
        <ele>888</ele>
        <time>2017-03-05T17:40:05Z</time>
      </trkpt>
      <trkpt lat="44.10832" lon="3.40799">
        <ele>889</ele>
        <time>2017-03-05T17:42:05Z</time>
      </trkpt>
      <trkpt lat="44.10823" lon="3.40798">
        <ele>890</ele>
        <time>2017-03-05T17:44:05Z</time>
      </trkpt>
      <trkpt lat="44.10815" lon="3.40798">
        <ele>891</ele>
        <time>2017-03-05T17:46:05Z</time>
      </trkpt>
      <trkpt lat="44.10804" lon="3.40799">
        <ele>894</ele>
        <time>2017-03-05T17:48:05Z</time>
      </trkpt>
      <trkpt lat="44.10785" lon="3.40802">
        <ele>898</ele>
        <time>2017-03-05T17:50:05Z</time>
      </trkpt>
      <trkpt lat="44.10767" lon="3.40803">
        <ele>901</ele>
        <time>2017-03-05T17:52:05Z</time>
      </trkpt>
      <trkpt lat="44.1075" lon="3.40803">
        <ele>904</ele>
        <time>2017-03-05T17:54:05Z</time>
      </trkpt>
      <trkpt lat="44.10734" lon="3.40803">
        <ele>905</ele>
        <time>2017-03-05T17:56:05Z</time>
      </trkpt>
      <trkpt lat="44.10717" lon="3.40803">
        <ele>906</ele>
        <time>2017-03-05T17:58:05Z</time>
      </trkpt>
      <trkpt lat="44.10705" lon="3.40802">
        <ele>907</ele>
        <time>2017-03-05T18:00:05Z</time>
      </trkpt>
      <trkpt lat="44.10696" lon="3.40801">
        <ele>907</ele>
        <time>2017-03-05T18:02:05Z</time>
      </trkpt>
      <trkpt lat="44.10683" lon="3.40797">
        <ele>907</ele>
        <time>2017-03-05T18:04:05Z</time>
      </trkpt>
      <trkpt lat="44.10673" lon="3.40793">
        <ele>906</ele>
        <time>2017-03-05T18:06:05Z</time>
      </trkpt>
      <trkpt lat="44.10663" lon="3.40787">
        <ele>904</ele>
        <time>2017-03-05T18:08:05Z</time>
      </trkpt>
      <trkpt lat="44.10654" lon="3.40783">
        <ele>901</ele>
        <time>2017-03-05T18:10:05Z</time>
      </trkpt>
      <trkpt lat="44.10645" lon="3.40781">
        <ele>899</ele>
        <time>2017-03-05T18:12:05Z</time>
      </trkpt>
      <trkpt lat="44.10637" lon="3.40781">
        <ele>899</ele>
        <time>2017-03-05T18:14:05Z</time>
      </trkpt>
      <trkpt lat="44.1063" lon="3.40782">
        <ele>898</ele>
        <time>2017-03-05T18:16:05Z</time>
      </trkpt>
      <trkpt lat="44.10627" lon="3.40784">
        <ele>898</ele>
        <time>2017-03-05T18:18:05Z</time>
      </trkpt>
      <trkpt lat="44.1062" lon="3.40786">
        <ele>898</ele>
        <time>2017-03-05T18:20:05Z</time>
      </trkpt>
      <trkpt lat="44.10614" lon="3.40794">
        <ele>900</ele>
        <time>2017-03-05T18:22:05Z</time>
      </trkpt>
      <trkpt lat="44.10609" lon="3.40804">
        <ele>902</ele>
        <time>2017-03-05T18:24:05Z</time>
      </trkpt>
      <trkpt lat="44.10604" lon="3.40816">
        <ele>904</ele>
        <time>2017-03-05T18:26:05Z</time>
      </trkpt>
      <trkpt lat="44.10599" lon="3.40831">
        <ele>908</ele>
        <time>2017-03-05T18:28:05Z</time>
      </trkpt>
      <trkpt lat="44.10592" lon="3.40845">
        <ele>911</ele>
        <time>2017-03-05T18:30:05Z</time>
      </trkpt>
      <trkpt lat="44.10584" lon="3.40858">
        <ele>913</ele>
        <time>2017-03-05T18:32:05Z</time>
      </trkpt>
      <trkpt lat="44.10579" lon="3.40866">
        <ele>915</ele>
        <time>2017-03-05T18:34:05Z</time>
      </trkpt>
      <trkpt lat="44.10574" lon="3.40871">
        <ele>915</ele>
        <time>2017-03-05T18:36:05Z</time>
      </trkpt>
      <trkpt lat="44.10569" lon="3.40875">
        <ele>915</ele>
        <time>2017-03-05T18:38:05Z</time>
      </trkpt>
      <trkpt lat="44.10564" lon="3.40879">
        <ele>915</ele>
        <time>2017-03-05T18:40:05Z</time>
      </trkpt>
      <trkpt lat="44.1056" lon="3.40881">
        <ele>915</ele>
        <time>2017-03-05T18:42:05Z</time>
      </trkpt>
      <trkpt lat="44.10555" lon="3.40885">
        <ele>915</ele>
        <time>2017-03-05T18:44:05Z</time>
      </trkpt>
      <trkpt lat="44.10549" lon="3.40892">
        <ele>915</ele>
        <time>2017-03-05T18:46:05Z</time>
      </trkpt>
      <trkpt lat="44.10542" lon="3.40901">
        <ele>916</ele>
        <time>2017-03-05T18:48:05Z</time>
      </trkpt>
      <trkpt lat="44.10535" lon="3.40914">
        <ele>918</ele>
        <time>2017-03-05T18:50:05Z</time>
      </trkpt>
      <trkpt lat="44.10529" lon="3.40922">
        <ele>918</ele>
        <time>2017-03-05T18:52:05Z</time>
      </trkpt>
      <trkpt lat="44.10525" lon="3.40927">
        <ele>918</ele>
        <time>2017-03-05T18:54:05Z</time>
      </trkpt>
      <trkpt lat="44.10522" lon="3.4093">
        <ele>918</ele>
        <time>2017-03-05T18:56:05Z</time>
      </trkpt>
      <trkpt lat="44.10516" lon="3.40939">
        <ele>918</ele>
        <time>2017-03-05T18:58:05Z</time>
      </trkpt>
      <trkpt lat="44.10506" lon="3.40954">
        <ele>918</ele>
        <time>2017-03-05T19:00:05Z</time>
      </trkpt>
      <trkpt lat="44.10496" lon="3.40969">
        <ele>919</ele>
        <time>2017-03-05T19:02:05Z</time>
      </trkpt>
      <trkpt lat="44.10491" lon="3.40977">
        <ele>920</ele>
        <time>2017-03-05T19:04:05Z</time>
      </trkpt>
      <trkpt lat="44.10486" lon="3.40983">
        <ele>921</ele>
        <time>2017-03-05T19:06:05Z</time>
      </trkpt>
      <trkpt lat="44.10476" lon="3.40994">
        <ele>922</ele>
        <time>2017-03-05T19:08:05Z</time>
      </trkpt>
      <trkpt lat="44.10465" lon="3.41006">
        <ele>923</ele>
        <time>2017-03-05T19:10:05Z</time>
      </trkpt>
      <trkpt lat="44.10455" lon="3.41018">
        <ele>924</ele>
        <time>2017-03-05T19:12:05Z</time>
      </trkpt>
      <trkpt lat="44.10447" lon="3.41025">
        <ele>925</ele>
        <time>2017-03-05T19:14:05Z</time>
      </trkpt>
      <trkpt lat="44.10438" lon="3.41031">
        <ele>925</ele>
        <time>2017-03-05T19:16:05Z</time>
      </trkpt>
      <trkpt lat="44.10429" lon="3.41037">
        <ele>925</ele>
        <time>2017-03-05T19:18:05Z</time>
      </trkpt>
      <trkpt lat="44.10422" lon="3.4104">
        <ele>925</ele>
        <time>2017-03-05T19:20:05Z</time>
      </trkpt>
      <trkpt lat="44.10411" lon="3.41039">
        <ele>924</ele>
        <time>2017-03-05T19:22:05Z</time>
      </trkpt>
      <trkpt lat="44.10398" lon="3.41037">
        <ele>924</ele>
        <time>2017-03-05T19:24:05Z</time>
      </trkpt>
      <trkpt lat="44.10387" lon="3.41034">
        <ele>924</ele>
        <time>2017-03-05T19:26:05Z</time>
      </trkpt>
      <trkpt lat="44.10374" lon="3.41028">
        <ele>923</ele>
        <time>2017-03-05T19:28:05Z</time>
      </trkpt>
      <trkpt lat="44.10365" lon="3.41022">
        <ele>922</ele>
        <time>2017-03-05T19:30:05Z</time>
      </trkpt>
      <trkpt lat="44.10352" lon="3.41015">
        <ele>921</ele>
        <time>2017-03-05T19:32:05Z</time>
      </trkpt>
      <trkpt lat="44.10341" lon="3.41006">
        <ele>919</ele>
        <time>2017-03-05T19:34:05Z</time>
      </trkpt>
      <trkpt lat="44.10329" lon="3.40998">
        <ele>918</ele>
        <time>2017-03-05T19:36:05Z</time>
      </trkpt>
      <trkpt lat="44.10317" lon="3.40991">
        <ele>918</ele>
        <time>2017-03-05T19:38:05Z</time>
      </trkpt>
      <trkpt lat="44.10305" lon="3.40986">
        <ele>918</ele>
        <time>2017-03-05T19:40:05Z</time>
      </trkpt>
      <trkpt lat="44.10292" lon="3.40981">
        <ele>919</ele>
        <time>2017-03-05T19:42:05Z</time>
      </trkpt>
      <trkpt lat="44.10272" lon="3.40975">
        <ele>920</ele>
        <time>2017-03-05T19:44:05Z</time>
      </trkpt>
      <trkpt lat="44.10262" lon="3.40975">
        <ele>921</ele>
        <time>2017-03-05T19:46:05Z</time>
      </trkpt>
      <trkpt lat="44.10252" lon="3.40974">
        <ele>922</ele>
        <time>2017-03-05T19:48:05Z</time>
      </trkpt>
      <trkpt lat="44.10237" lon="3.40972">
        <ele>923</ele>
        <time>2017-03-05T19:50:05Z</time>
      </trkpt>
      <trkpt lat="44.10212" lon="3.40968">
        <ele>925</ele>
        <time>2017-03-05T19:52:05Z</time>
      </trkpt>
      <trkpt lat="44.10197" lon="3.40964">
        <ele>927</ele>
        <time>2017-03-05T19:54:05Z</time>
      </trkpt>
      <trkpt lat="44.10186" lon="3.4096">
        <ele>928</ele>
        <time>2017-03-05T19:56:05Z</time>
      </trkpt>
      <trkpt lat="44.10181" lon="3.40957">
        <ele>928</ele>
        <time>2017-03-05T19:58:05Z</time>
      </trkpt>
      <trkpt lat="44.10178" lon="3.40954">
        <ele>928</ele>
        <time>2017-03-05T20:00:05Z</time>
      </trkpt>
      <trkpt lat="44.10175" lon="3.40949">
        <ele>928</ele>
        <time>2017-03-05T20:02:05Z</time>
      </trkpt>
      <trkpt lat="44.10174" lon="3.40945">
        <ele>928</ele>
        <time>2017-03-05T20:04:05Z</time>
      </trkpt>
      <trkpt lat="44.1017" lon="3.40936">
        <ele>928</ele>
        <time>2017-03-05T20:06:05Z</time>
      </trkpt>
      <trkpt lat="44.1017" lon="3.40936">
        <ele>928</ele>
        <time>2017-03-05T20:08:05Z</time>
      </trkpt>
      <trkpt lat="44.10169" lon="3.40945">
        <ele>929</ele>
        <time>2017-03-05T20:10:05Z</time>
      </trkpt>
      <trkpt lat="44.10167" lon="3.4096">
        <ele>930</ele>
        <time>2017-03-05T20:12:05Z</time>
      </trkpt>
      <trkpt lat="44.10165" lon="3.40967">
        <ele>930</ele>
        <time>2017-03-05T20:14:05Z</time>
      </trkpt>
      <trkpt lat="44.10164" lon="3.4097">
        <ele>931</ele>
        <time>2017-03-05T20:16:05Z</time>
      </trkpt>
      <trkpt lat="44.10162" lon="3.40975">
        <ele>931</ele>
        <time>2017-03-05T20:18:05Z</time>
      </trkpt>
      <trkpt lat="44.10158" lon="3.40979">
        <ele>931</ele>
        <time>2017-03-05T20:20:05Z</time>
      </trkpt>
      <trkpt lat="44.10153" lon="3.40982">
        <ele>930</ele>
        <time>2017-03-05T20:22:05Z</time>
      </trkpt>
      <trkpt lat="44.10145" lon="3.40986">
        <ele>930</ele>
        <time>2017-03-05T20:24:05Z</time>
      </trkpt>
      <trkpt lat="44.10139" lon="3.40987">
        <ele>929</ele>
        <time>2017-03-05T20:26:05Z</time>
      </trkpt>
      <trkpt lat="44.10139" lon="3.40987">
        <ele>929</ele>
        <time>2017-03-05T20:28:05Z</time>
      </trkpt>
      <trkpt lat="44.10141" lon="3.40996">
        <ele>930</ele>
        <time>2017-03-05T20:30:05Z</time>
      </trkpt>
      <trkpt lat="44.10141" lon="3.40997">
        <ele>930</ele>
        <time>2017-03-05T20:32:05Z</time>
      </trkpt>
      <trkpt lat="44.10141" lon="3.40998">
        <ele>930</ele>
        <time>2017-03-05T20:34:05Z</time>
      </trkpt>
      <trkpt lat="44.10142" lon="3.40999">
        <ele>930</ele>
        <time>2017-03-05T20:36:05Z</time>
      </trkpt>
      <trkpt lat="44.10143" lon="3.40999">
        <ele>930</ele>
        <time>2017-03-05T20:38:05Z</time>
      </trkpt>
      <trkpt lat="44.10149" lon="3.41005">
        <ele>931</ele>
        <time>2017-03-05T20:40:05Z</time>
      </trkpt>
      <trkpt lat="44.10159" lon="3.41015">
        <ele>934</ele>
        <time>2017-03-05T20:42:05Z</time>
      </trkpt>
      <trkpt lat="44.1017" lon="3.41026">
        <ele>936</ele>
        <time>2017-03-05T20:44:05Z</time>
      </trkpt>
      <trkpt lat="44.10176" lon="3.41035">
        <ele>937</ele>
        <time>2017-03-05T20:46:05Z</time>
      </trkpt>
      <trkpt lat="44.1018" lon="3.41041">
        <ele>938</ele>
        <time>2017-03-05T20:48:05Z</time>
      </trkpt>
      <trkpt lat="44.10183" lon="3.41044">
        <ele>938</ele>
        <time>2017-03-05T20:50:05Z</time>
      </trkpt>
      <trkpt lat="44.10187" lon="3.41047">
        <ele>939</ele>
        <time>2017-03-05T20:52:05Z</time>
      </trkpt>
      <trkpt lat="44.10194" lon="3.41048">
        <ele>939</ele>
        <time>2017-03-05T20:54:05Z</time>
      </trkpt>
      <trkpt lat="44.10201" lon="3.41049">
        <ele>939</ele>
        <time>2017-03-05T20:56:05Z</time>
      </trkpt>
      <trkpt lat="44.10216" lon="3.41051">
        <ele>938</ele>
        <time>2017-03-05T20:58:05Z</time>
      </trkpt>
      <trkpt lat="44.10225" lon="3.41055">
        <ele>939</ele>
        <time>2017-03-05T21:00:05Z</time>
      </trkpt>
      <trkpt lat="44.10235" lon="3.4106">
        <ele>940</ele>
        <time>2017-03-05T21:02:05Z</time>
      </trkpt>
      <trkpt lat="44.10243" lon="3.41065">
        <ele>941</ele>
        <time>2017-03-05T21:04:05Z</time>
      </trkpt>
      <trkpt lat="44.10251" lon="3.4107">
        <ele>942</ele>
        <time>2017-03-05T21:06:05Z</time>
      </trkpt>
      <trkpt lat="44.10259" lon="3.41077">
        <ele>943</ele>
        <time>2017-03-05T21:08:05Z</time>
      </trkpt>
      <trkpt lat="44.10267" lon="3.41085">
        <ele>944</ele>
        <time>2017-03-05T21:10:05Z</time>
      </trkpt>
      <trkpt lat="44.10271" lon="3.4109">
        <ele>945</ele>
        <time>2017-03-05T21:12:05Z</time>
      </trkpt>
      <trkpt lat="44.10274" lon="3.41095">
        <ele>946</ele>
        <time>2017-03-05T21:14:05Z</time>
      </trkpt>
      <trkpt lat="44.10277" lon="3.411">
        <ele>947</ele>
        <time>2017-03-05T21:16:05Z</time>
      </trkpt>
      <trkpt lat="44.10279" lon="3.41107">
        <ele>948</ele>
        <time>2017-03-05T21:18:05Z</time>
      </trkpt>
      <trkpt lat="44.1028" lon="3.41114">
        <ele>950</ele>
        <time>2017-03-05T21:20:05Z</time>
      </trkpt>
      <trkpt lat="44.1028" lon="3.41122">
        <ele>952</ele>
        <time>2017-03-05T21:22:05Z</time>
      </trkpt>
      <trkpt lat="44.1028" lon="3.41129">
        <ele>953</ele>
        <time>2017-03-05T21:24:05Z</time>
      </trkpt>
      <trkpt lat="44.1028" lon="3.41137">
        <ele>955</ele>
        <time>2017-03-05T21:26:05Z</time>
      </trkpt>
      <trkpt lat="44.10279" lon="3.41144">
        <ele>956</ele>
        <time>2017-03-05T21:28:05Z</time>
      </trkpt>
      <trkpt lat="44.10278" lon="3.41153">
        <ele>958</ele>
        <time>2017-03-05T21:30:05Z</time>
      </trkpt>
      <trkpt lat="44.10276" lon="3.41174">
        <ele>962</ele>
        <time>2017-03-05T21:32:05Z</time>
      </trkpt>
      <trkpt lat="44.10276" lon="3.41191">
        <ele>965</ele>
        <time>2017-03-05T21:34:05Z</time>
      </trkpt>
      <trkpt lat="44.10276" lon="3.41203">
        <ele>967</ele>
        <time>2017-03-05T21:36:05Z</time>
      </trkpt>
      <trkpt lat="44.10275" lon="3.41213">
        <ele>969</ele>
        <time>2017-03-05T21:38:05Z</time>
      </trkpt>
      <trkpt lat="44.10276" lon="3.41221">
        <ele>970</ele>
        <time>2017-03-05T21:40:05Z</time>
      </trkpt>
      <trkpt lat="44.10275" lon="3.41229">
        <ele>972</ele>
        <time>2017-03-05T21:42:05Z</time>
      </trkpt>
      <trkpt lat="44.10274" lon="3.41241">
        <ele>973</ele>
        <time>2017-03-05T21:44:05Z</time>
      </trkpt>
      <trkpt lat="44.10272" lon="3.41258">
        <ele>976</ele>
        <time>2017-03-05T21:46:05Z</time>
      </trkpt>
      <trkpt lat="44.10269" lon="3.41272">
        <ele>978</ele>
        <time>2017-03-05T21:48:05Z</time>
      </trkpt>
      <trkpt lat="44.10267" lon="3.41286">
        <ele>980</ele>
        <time>2017-03-05T21:50:05Z</time>
      </trkpt>
      <trkpt lat="44.10264" lon="3.41297">
        <ele>981</ele>
        <time>2017-03-05T21:52:05Z</time>
      </trkpt>
      <trkpt lat="44.10262" lon="3.41306">
        <ele>982</ele>
        <time>2017-03-05T21:54:05Z</time>
      </trkpt>
      <trkpt lat="44.10258" lon="3.41319">
        <ele>984</ele>
        <time>2017-03-05T21:56:05Z</time>
      </trkpt>
      <trkpt lat="44.10254" lon="3.41331">
        <ele>985</ele>
        <time>2017-03-05T21:58:05Z</time>
      </trkpt>
      <trkpt lat="44.1025" lon="3.41339">
        <ele>985</ele>
        <time>2017-03-05T22:00:05Z</time>
      </trkpt>
      <trkpt lat="44.10248" lon="3.41346">
        <ele>985</ele>
        <time>2017-03-05T22:02:05Z</time>
      </trkpt>
      <trkpt lat="44.10244" lon="3.4136">
        <ele>987</ele>
        <time>2017-03-05T22:04:05Z</time>
      </trkpt>
      <trkpt lat="44.10237" lon="3.41387">
        <ele>989</ele>
        <time>2017-03-05T22:06:05Z</time>
      </trkpt>
      <trkpt lat="44.10232" lon="3.4141">
        <ele>992</ele>
        <time>2017-03-05T22:08:05Z</time>
      </trkpt>
      <trkpt lat="44.10228" lon="3.41433">
        <ele>995</ele>
        <time>2017-03-05T22:10:05Z</time>
      </trkpt>
      <trkpt lat="44.10225" lon="3.41454">
        <ele>998</ele>
        <time>2017-03-05T22:12:05Z</time>
      </trkpt>
      <trkpt lat="44.10221" lon="3.41469">
        <ele>1000</ele>
        <time>2017-03-05T22:14:05Z</time>
      </trkpt>
      <trkpt lat="44.10217" lon="3.41487">
        <ele>1002</ele>
        <time>2017-03-05T22:16:05Z</time>
      </trkpt>
      <trkpt lat="44.10211" lon="3.4151">
        <ele>1005</ele>
        <time>2017-03-05T22:18:05Z</time>
      </trkpt>
      <trkpt lat="44.10207" lon="3.41531">
        <ele>1007</ele>
        <time>2017-03-05T22:20:05Z</time>
      </trkpt>
      <trkpt lat="44.10202" lon="3.41549">
        <ele>1009</ele>
        <time>2017-03-05T22:22:05Z</time>
      </trkpt>
      <trkpt lat="44.10197" lon="3.41562">
        <ele>1009</ele>
        <time>2017-03-05T22:24:05Z</time>
      </trkpt>
      <trkpt lat="44.10191" lon="3.4158">
        <ele>1010</ele>
        <time>2017-03-05T22:26:05Z</time>
      </trkpt>
      <trkpt lat="44.10185" lon="3.41599">
        <ele>1011</ele>
        <time>2017-03-05T22:28:05Z</time>
      </trkpt>
      <trkpt lat="44.10181" lon="3.4161">
        <ele>1011</ele>
        <time>2017-03-05T22:30:05Z</time>
      </trkpt>
      <trkpt lat="44.10179" lon="3.41616">
        <ele>1011</ele>
        <time>2017-03-05T22:32:05Z</time>
      </trkpt>
      <trkpt lat="44.10178" lon="3.41625">
        <ele>1012</ele>
        <time>2017-03-05T22:34:05Z</time>
      </trkpt>
      <trkpt lat="44.10175" lon="3.41649">
        <ele>1014</ele>
        <time>2017-03-05T22:36:05Z</time>
      </trkpt>
      <trkpt lat="44.10175" lon="3.41661">
        <ele>1015</ele>
        <time>2017-03-05T22:38:05Z</time>
      </trkpt>
      <trkpt lat="44.10176" lon="3.41665">
        <ele>1016</ele>
        <time>2017-03-05T22:40:05Z</time>
      </trkpt>
      <trkpt lat="44.10178" lon="3.4167">
        <ele>1017</ele>
        <time>2017-03-05T22:42:05Z</time>
      </trkpt>
      <trkpt lat="44.1018" lon="3.41678">
        <ele>1018</ele>
        <time>2017-03-05T22:44:05Z</time>
      </trkpt>
      <trkpt lat="44.10187" lon="3.4175">
        <ele>1024</ele>
        <time>2017-03-05T22:46:05Z</time>
      </trkpt>
      <trkpt lat="44.10188" lon="3.41767">
        <ele>1026</ele>
        <time>2017-03-05T22:48:05Z</time>
      </trkpt>
      <trkpt lat="44.10188" lon="3.41795">
        <ele>1030</ele>
        <time>2017-03-05T22:50:05Z</time>
      </trkpt>
      <trkpt lat="44.10188" lon="3.41796">
        <ele>1030</ele>
        <time>2017-03-05T22:52:05Z</time>
      </trkpt>
      <trkpt lat="44.10188" lon="3.41798">
        <ele>1030</ele>
        <time>2017-03-05T22:54:05Z</time>
      </trkpt>
      <trkpt lat="44.10187" lon="3.41799">
        <ele>1030</ele>
        <time>2017-03-05T22:56:05Z</time>
      </trkpt>
      <trkpt lat="44.10186" lon="3.418">
        <ele>1030</ele>
        <time>2017-03-05T22:58:05Z</time>
      </trkpt>
      <trkpt lat="44.10183" lon="3.41801">
        <ele>1029</ele>
        <time>2017-03-05T23:00:05Z</time>
      </trkpt>
      <trkpt lat="44.10182" lon="3.41803">
        <ele>1030</ele>
        <time>2017-03-05T23:02:05Z</time>
      </trkpt>
      <trkpt lat="44.10181" lon="3.41804">
        <ele>1030</ele>
        <time>2017-03-05T23:04:05Z</time>
      </trkpt>
      <trkpt lat="44.10181" lon="3.41805">
        <ele>1030</ele>
        <time>2017-03-05T23:06:05Z</time>
      </trkpt>
      <trkpt lat="44.1018" lon="3.41806">
        <ele>1030</ele>
        <time>2017-03-05T23:08:05Z</time>
      </trkpt>
      <trkpt lat="44.1018" lon="3.41808">
        <ele>1030</ele>
        <time>2017-03-05T23:10:05Z</time>
      </trkpt>
      <trkpt lat="44.1018" lon="3.4181">
        <ele>1030</ele>
        <time>2017-03-05T23:12:05Z</time>
      </trkpt>
      <trkpt lat="44.10179" lon="3.41816">
        <ele>1031</ele>
        <time>2017-03-05T23:14:05Z</time>
      </trkpt>
      <trkpt lat="44.10179" lon="3.4182">
        <ele>1031</ele>
        <time>2017-03-05T23:16:05Z</time>
      </trkpt>
      <trkpt lat="44.10181" lon="3.41862">
        <ele>1038</ele>
        <time>2017-03-05T23:18:05Z</time>
      </trkpt>
      <trkpt lat="44.10183" lon="3.41912">
        <ele>1047</ele>
        <time>2017-03-05T23:20:05Z</time>
      </trkpt>
      <trkpt lat="44.10183" lon="3.4194">
        <ele>1050</ele>
        <time>2017-03-05T23:22:05Z</time>
      </trkpt>
      <trkpt lat="44.10153" lon="3.41983">
        <ele>1056</ele>
        <time>2017-03-05T23:24:05Z</time>
      </trkpt>
      <trkpt lat="44.10146" lon="3.41995">
        <ele>1058</ele>
        <time>2017-03-05T23:26:05Z</time>
      </trkpt>
      <trkpt lat="44.10138" lon="3.4201">
        <ele>1060</ele>
        <time>2017-03-05T23:28:05Z</time>
      </trkpt>
      <trkpt lat="44.10132" lon="3.42024">
        <ele>1062</ele>
        <time>2017-03-05T23:30:05Z</time>
      </trkpt>
      <trkpt lat="44.10125" lon="3.42042">
        <ele>1065</ele>
        <time>2017-03-05T23:32:05Z</time>
      </trkpt>
      <trkpt lat="44.10118" lon="3.42066">
        <ele>1069</ele>
        <time>2017-03-05T23:34:05Z</time>
      </trkpt>
      <trkpt lat="44.10107" lon="3.42104">
        <ele>1075</ele>
        <time>2017-03-05T23:36:05Z</time>
      </trkpt>
      <trkpt lat="44.101" lon="3.42131">
        <ele>1078</ele>
        <time>2017-03-05T23:38:05Z</time>
      </trkpt>
      <trkpt lat="44.10093" lon="3.42159">
        <ele>1082</ele>
        <time>2017-03-05T23:40:05Z</time>
      </trkpt>
      <trkpt lat="44.10087" lon="3.42175">
        <ele>1084</ele>
        <time>2017-03-05T23:42:05Z</time>
      </trkpt>
      <trkpt lat="44.1008" lon="3.42192">
        <ele>1086</ele>
        <time>2017-03-05T23:44:05Z</time>
      </trkpt>
      <trkpt lat="44.10071" lon="3.42205">
        <ele>1088</ele>
        <time>2017-03-05T23:46:05Z</time>
      </trkpt>
      <trkpt lat="44.10066" lon="3.42216">
        <ele>1089</ele>
        <time>2017-03-05T23:48:05Z</time>
      </trkpt>
      <trkpt lat="44.10034" lon="3.42267">
        <ele>1096</ele>
        <time>2017-03-05T23:50:05Z</time>
      </trkpt>
      <trkpt lat="44.10014" lon="3.42295">
        <ele>1101</ele>
        <time>2017-03-05T23:52:05Z</time>
      </trkpt>
      <trkpt lat="44.09995" lon="3.42318">
        <ele>1105</ele>
        <time>2017-03-05T23:54:05Z</time>
      </trkpt>
      <trkpt lat="44.09979" lon="3.42337">
        <ele>1108</ele>
        <time>2017-03-05T23:56:05Z</time>
      </trkpt>
      <trkpt lat="44.09963" lon="3.42354">
        <ele>1109</ele>
        <time>2017-03-05T23:58:05Z</time>
      </trkpt>
      <trkpt lat="44.09951" lon="3.42368">
        <ele>1111</ele>
        <time>2017-03-06T00:00:05Z</time>
      </trkpt>
      <trkpt lat="44.09949" lon="3.42372">
        <ele>1111</ele>
        <time>2017-03-06T00:02:05Z</time>
      </trkpt>
      <trkpt lat="44.09947" lon="3.42377">
        <ele>1111</ele>
        <time>2017-03-06T00:04:05Z</time>
      </trkpt>
      <trkpt lat="44.09945" lon="3.42383">
        <ele>1112</ele>
        <time>2017-03-06T00:06:05Z</time>
      </trkpt>
      <trkpt lat="44.09943" lon="3.42387">
        <ele>1112</ele>
        <time>2017-03-06T00:08:05Z</time>
      </trkpt>
      <trkpt lat="44.09938" lon="3.42394">
        <ele>1113</ele>
        <time>2017-03-06T00:10:05Z</time>
      </trkpt>
      <trkpt lat="44.09934" lon="3.42399">
        <ele>1113</ele>
        <time>2017-03-06T00:12:05Z</time>
      </trkpt>
      <trkpt lat="44.09929" lon="3.42404">
        <ele>1114</ele>
        <time>2017-03-06T00:14:05Z</time>
      </trkpt>
      <trkpt lat="44.09915" lon="3.42421">
        <ele>1116</ele>
        <time>2017-03-06T00:16:05Z</time>
      </trkpt>
      <trkpt lat="44.09902" lon="3.42436">
        <ele>1113</ele>
        <time>2017-03-06T00:18:05Z</time>
      </trkpt>
      <trkpt lat="44.09887" lon="3.42456">
        <ele>1112</ele>
        <time>2017-03-06T00:20:05Z</time>
      </trkpt>
      <trkpt lat="44.09871" lon="3.42474">
        <ele>1112</ele>
        <time>2017-03-06T00:22:05Z</time>
      </trkpt>
      <trkpt lat="44.09843" lon="3.42503">
        <ele>1114</ele>
        <time>2017-03-06T00:24:05Z</time>
      </trkpt>
      <trkpt lat="44.09814" lon="3.4254">
        <ele>1111</ele>
        <time>2017-03-06T00:26:05Z</time>
      </trkpt>
      <trkpt lat="44.09785" lon="3.4257">
        <ele>1114</ele>
        <time>2017-03-06T00:28:05Z</time>
      </trkpt>
      <trkpt lat="44.0975" lon="3.42601">
        <ele>1117</ele>
        <time>2017-03-06T00:30:05Z</time>
      </trkpt>
      <trkpt lat="44.09713" lon="3.42628">
        <ele>1118</ele>
        <time>2017-03-06T00:32:05Z</time>
      </trkpt>
      <trkpt lat="44.09657" lon="3.42667">
        <ele>1127</ele>
        <time>2017-03-06T00:34:05Z</time>
      </trkpt>
      <trkpt lat="44.09605" lon="3.42698">
        <ele>1130</ele>
        <time>2017-03-06T00:36:05Z</time>
      </trkpt>
      <trkpt lat="44.09563" lon="3.42724">
        <ele>1135</ele>
        <time>2017-03-06T00:38:05Z</time>
      </trkpt>
      <trkpt lat="44.09541" lon="3.42742">
        <ele>1141</ele>
        <time>2017-03-06T00:40:05Z</time>
      </trkpt>
      <trkpt lat="44.09527" lon="3.42753">
        <ele>1144</ele>
        <time>2017-03-06T00:42:05Z</time>
      </trkpt>
      <trkpt lat="44.09507" lon="3.42772">
        <ele>1147</ele>
        <time>2017-03-06T00:44:05Z</time>
      </trkpt>
      <trkpt lat="44.09489" lon="3.42792">
        <ele>1148</ele>
        <time>2017-03-06T00:46:05Z</time>
      </trkpt>
      <trkpt lat="44.09472" lon="3.42815">
        <ele>1150</ele>
        <time>2017-03-06T00:48:05Z</time>
      </trkpt>
      <trkpt lat="44.0946" lon="3.42835">
        <ele>1152</ele>
        <time>2017-03-06T00:50:05Z</time>
      </trkpt>
      <trkpt lat="44.09439" lon="3.42876">
        <ele>1150</ele>
        <time>2017-03-06T00:52:05Z</time>
      </trkpt>
      <trkpt lat="44.09419" lon="3.42906">
        <ele>1151</ele>
        <time>2017-03-06T00:54:05Z</time>
      </trkpt>
      <trkpt lat="44.09401" lon="3.42932">
        <ele>1148</ele>
        <time>2017-03-06T00:56:05Z</time>
      </trkpt>
      <trkpt lat="44.09373" lon="3.42963">
        <ele>1148</ele>
        <time>2017-03-06T00:58:05Z</time>
      </trkpt>
      <trkpt lat="44.09356" lon="3.42981">
        <ele>1151</ele>
        <time>2017-03-06T01:00:05Z</time>
      </trkpt>
      <trkpt lat="44.09341" lon="3.42994">
        <ele>1155</ele>
        <time>2017-03-06T01:02:05Z</time>
      </trkpt>
      <trkpt lat="44.09327" lon="3.43011">
        <ele>1157</ele>
        <time>2017-03-06T01:04:05Z</time>
      </trkpt>
      <trkpt lat="44.09318" lon="3.43022">
        <ele>1157</ele>
        <time>2017-03-06T01:06:05Z</time>
      </trkpt>
      <trkpt lat="44.09306" lon="3.43041">
        <ele>1158</ele>
        <time>2017-03-06T01:08:05Z</time>
      </trkpt>
      <trkpt lat="44.09301" lon="3.43051">
        <ele>1159</ele>
        <time>2017-03-06T01:10:05Z</time>
      </trkpt>
      <trkpt lat="44.09299" lon="3.43059">
        <ele>1159</ele>
        <time>2017-03-06T01:12:05Z</time>
      </trkpt>
      <trkpt lat="44.09298" lon="3.43069">
        <ele>1159</ele>
        <time>2017-03-06T01:14:05Z</time>
      </trkpt>
      <trkpt lat="44.09295" lon="3.43096">
        <ele>1161</ele>
        <time>2017-03-06T01:16:05Z</time>
      </trkpt>
      <trkpt lat="44.09295" lon="3.43115">
        <ele>1161</ele>
        <time>2017-03-06T01:18:05Z</time>
      </trkpt>
      <trkpt lat="44.09294" lon="3.43119">
        <ele>1161</ele>
        <time>2017-03-06T01:20:05Z</time>
      </trkpt>
      <trkpt lat="44.09293" lon="3.4312">
        <ele>1161</ele>
        <time>2017-03-06T01:22:05Z</time>
      </trkpt>
      <trkpt lat="44.09292" lon="3.43122">
        <ele>1162</ele>
        <time>2017-03-06T01:24:05Z</time>
      </trkpt>
      <trkpt lat="44.09291" lon="3.43123">
        <ele>1162</ele>
        <time>2017-03-06T01:26:05Z</time>
      </trkpt>
      <trkpt lat="44.09289" lon="3.43124">
        <ele>1163</ele>
        <time>2017-03-06T01:28:05Z</time>
      </trkpt>
      <trkpt lat="44.09288" lon="3.43124">
        <ele>1163</ele>
        <time>2017-03-06T01:30:05Z</time>
      </trkpt>
      <trkpt lat="44.09286" lon="3.43123">
        <ele>1164</ele>
        <time>2017-03-06T01:32:05Z</time>
      </trkpt>
      <trkpt lat="44.09283" lon="3.4312">
        <ele>1165</ele>
        <time>2017-03-06T01:34:05Z</time>
      </trkpt>
      <trkpt lat="44.09278" lon="3.43113">
        <ele>1166</ele>
        <time>2017-03-06T01:36:05Z</time>
      </trkpt>
      <trkpt lat="44.09273" lon="3.43107">
        <ele>1168</ele>
        <time>2017-03-06T01:38:05Z</time>
      </trkpt>
      <trkpt lat="44.09269" lon="3.43103">
        <ele>1169</ele>
        <time>2017-03-06T01:40:05Z</time>
      </trkpt>
      <trkpt lat="44.09266" lon="3.43099">
        <ele>1170</ele>
        <time>2017-03-06T01:42:05Z</time>
      </trkpt>
      <trkpt lat="44.0926" lon="3.43094">
        <ele>1172</ele>
        <time>2017-03-06T01:44:05Z</time>
      </trkpt>
      <trkpt lat="44.09264" lon="3.43078">
        <ele>1169</ele>
        <time>2017-03-06T01:46:05Z</time>
      </trkpt>
      <trkpt lat="44.09241" lon="3.4309">
        <ele>1175</ele>
        <time>2017-03-06T01:48:05Z</time>
      </trkpt>
      <trkpt lat="44.09241" lon="3.43089">
        <ele>1175</ele>
        <time>2017-03-06T01:50:05Z</time>
      </trkpt>
      <trkpt lat="44.09223" lon="3.43108">
        <ele>1177</ele>
        <time>2017-03-06T01:52:05Z</time>
      </trkpt>
      <trkpt lat="44.09215" lon="3.43116">
        <ele>1179</ele>
        <time>2017-03-06T01:54:05Z</time>
      </trkpt>
      <trkpt lat="44.09206" lon="3.43125">
        <ele>1181</ele>
        <time>2017-03-06T01:56:05Z</time>
      </trkpt>
      <trkpt lat="44.09199" lon="3.4313">
        <ele>1182</ele>
        <time>2017-03-06T01:58:05Z</time>
      </trkpt>
      <trkpt lat="44.09187" lon="3.43138">
        <ele>1185</ele>
        <time>2017-03-06T02:00:05Z</time>
      </trkpt>
      <trkpt lat="44.0918" lon="3.43142">
        <ele>1186</ele>
        <time>2017-03-06T02:02:05Z</time>
      </trkpt>
      <trkpt lat="44.09174" lon="3.43148">
        <ele>1188</ele>
        <time>2017-03-06T02:04:05Z</time>
      </trkpt>
      <trkpt lat="44.0917" lon="3.43154">
        <ele>1190</ele>
        <time>2017-03-06T02:06:05Z</time>
      </trkpt>
      <trkpt lat="44.09165" lon="3.43162">
        <ele>1192</ele>
        <time>2017-03-06T02:08:05Z</time>
      </trkpt>
      <trkpt lat="44.09157" lon="3.43174">
        <ele>1195</ele>
        <time>2017-03-06T02:10:05Z</time>
      </trkpt>
      <trkpt lat="44.09146" lon="3.43185">
        <ele>1197</ele>
        <time>2017-03-06T02:12:05Z</time>
      </trkpt>
      <trkpt lat="44.09141" lon="3.43193">
        <ele>1198</ele>
        <time>2017-03-06T02:14:05Z</time>
      </trkpt>
      <trkpt lat="44.09137" lon="3.43202">
        <ele>1199</ele>
        <time>2017-03-06T02:16:05Z</time>
      </trkpt>
      <trkpt lat="44.09131" lon="3.43212">
        <ele>1201</ele>
        <time>2017-03-06T02:18:05Z</time>
      </trkpt>
      <trkpt lat="44.09124" lon="3.43222">
        <ele>1203</ele>
        <time>2017-03-06T02:20:05Z</time>
      </trkpt>
      <trkpt lat="44.09114" lon="3.43235">
        <ele>1205</ele>
        <time>2017-03-06T02:22:05Z</time>
      </trkpt>
      <trkpt lat="44.09109" lon="3.43244">
        <ele>1206</ele>
        <time>2017-03-06T02:24:05Z</time>
      </trkpt>
      <trkpt lat="44.09105" lon="3.43254">
        <ele>1208</ele>
        <time>2017-03-06T02:26:05Z</time>
      </trkpt>
      <trkpt lat="44.09104" lon="3.43263">
        <ele>1208</ele>
        <time>2017-03-06T02:28:05Z</time>
      </trkpt>
      <trkpt lat="44.09102" lon="3.43274">
        <ele>1209</ele>
        <time>2017-03-06T02:30:05Z</time>
      </trkpt>
      <trkpt lat="44.091" lon="3.4329">
        <ele>1210</ele>
        <time>2017-03-06T02:32:05Z</time>
      </trkpt>
      <trkpt lat="44.09098" lon="3.43303">
        <ele>1211</ele>
        <time>2017-03-06T02:34:05Z</time>
      </trkpt>
      <trkpt lat="44.09097" lon="3.4331">
        <ele>1212</ele>
        <time>2017-03-06T02:36:05Z</time>
      </trkpt>
      <trkpt lat="44.09094" lon="3.43318">
        <ele>1213</ele>
        <time>2017-03-06T02:38:05Z</time>
      </trkpt>
      <trkpt lat="44.09093" lon="3.4332">
        <ele>1213</ele>
        <time>2017-03-06T02:40:05Z</time>
      </trkpt>
      <trkpt lat="44.09092" lon="3.43322">
        <ele>1213</ele>
        <time>2017-03-06T02:42:05Z</time>
      </trkpt>
      <trkpt lat="44.0909" lon="3.43324">
        <ele>1214</ele>
        <time>2017-03-06T02:44:05Z</time>
      </trkpt>
      <trkpt lat="44.09088" lon="3.43325">
        <ele>1214</ele>
        <time>2017-03-06T02:46:05Z</time>
      </trkpt>
      <trkpt lat="44.09084" lon="3.43329">
        <ele>1215</ele>
        <time>2017-03-06T02:48:05Z</time>
      </trkpt>
      <trkpt lat="44.09071" lon="3.43337">
        <ele>1216</ele>
        <time>2017-03-06T02:50:05Z</time>
      </trkpt>
      <trkpt lat="44.09049" lon="3.43354">
        <ele>1219</ele>
        <time>2017-03-06T02:52:05Z</time>
      </trkpt>
      <trkpt lat="44.09029" lon="3.43375">
        <ele>1223</ele>
        <time>2017-03-06T02:54:05Z</time>
      </trkpt>
      <trkpt lat="44.09001" lon="3.43404">
        <ele>1227</ele>
        <time>2017-03-06T02:56:05Z</time>
      </trkpt>
      <trkpt lat="44.08971" lon="3.43428">
        <ele>1231</ele>
        <time>2017-03-06T02:58:05Z</time>
      </trkpt>
      <trkpt lat="44.08928" lon="3.4348">
        <ele>1238</ele>
        <time>2017-03-06T03:00:05Z</time>
      </trkpt>
      <trkpt lat="44.08881" lon="3.43526">
        <ele>1244</ele>
        <time>2017-03-06T03:02:05Z</time>
      </trkpt>
      <trkpt lat="44.0884" lon="3.43578">
        <ele>1250</ele>
        <time>2017-03-06T03:04:05Z</time>
      </trkpt>
      <trkpt lat="44.08797" lon="3.43635">
        <ele>1251</ele>
        <time>2017-03-06T03:06:05Z</time>
      </trkpt>
      <trkpt lat="44.08797" lon="3.43635">
        <ele>1251</ele>
        <time>2017-03-06T03:08:05Z</time>
      </trkpt>
      <trkpt lat="44.08778" lon="3.43661">
        <ele>1251</ele>
        <time>2017-03-06T03:10:05Z</time>
      </trkpt>
      <trkpt lat="44.0871" lon="3.43714">
        <ele>1252</ele>
        <time>2017-03-06T03:12:05Z</time>
      </trkpt>
      <trkpt lat="44.08702" lon="3.43713">
        <ele>1253</ele>
        <time>2017-03-06T03:14:05Z</time>
      </trkpt>
      <trkpt lat="44.08695" lon="3.43713">
        <ele>1253</ele>
        <time>2017-03-06T03:16:05Z</time>
      </trkpt>
      <trkpt lat="44.08689" lon="3.43713">
        <ele>1254</ele>
        <time>2017-03-06T03:18:05Z</time>
      </trkpt>
      <trkpt lat="44.08682" lon="3.43715">
        <ele>1254</ele>
        <time>2017-03-06T03:20:05Z</time>
      </trkpt>
      <trkpt lat="44.08675" lon="3.43719">
        <ele>1254</ele>
        <time>2017-03-06T03:22:05Z</time>
      </trkpt>
      <trkpt lat="44.08651" lon="3.43737">
        <ele>1255</ele>
        <time>2017-03-06T03:24:05Z</time>
      </trkpt>
      <trkpt lat="44.08635" lon="3.43748">
        <ele>1256</ele>
        <time>2017-03-06T03:26:05Z</time>
      </trkpt>
      <trkpt lat="44.08625" lon="3.43753">
        <ele>1257</ele>
        <time>2017-03-06T03:28:05Z</time>
      </trkpt>
      <trkpt lat="44.0861" lon="3.43757">
        <ele>1258</ele>
        <time>2017-03-06T03:30:05Z</time>
      </trkpt>
      <trkpt lat="44.08601" lon="3.4376">
        <ele>1259</ele>
        <time>2017-03-06T03:32:05Z</time>
      </trkpt>
      <trkpt lat="44.08593" lon="3.43762">
        <ele>1260</ele>
        <time>2017-03-06T03:34:05Z</time>
      </trkpt>
      <trkpt lat="44.08583" lon="3.43767">
        <ele>1261</ele>
        <time>2017-03-06T03:36:05Z</time>
      </trkpt>
      <trkpt lat="44.08576" lon="3.4377">
        <ele>1261</ele>
        <time>2017-03-06T03:38:05Z</time>
      </trkpt>
      <trkpt lat="44.0857" lon="3.43772">
        <ele>1262</ele>
        <time>2017-03-06T03:40:05Z</time>
      </trkpt>
      <trkpt lat="44.08562" lon="3.43773">
        <ele>1264</ele>
        <time>2017-03-06T03:42:05Z</time>
      </trkpt>
      <trkpt lat="44.0855" lon="3.43776">
        <ele>1265</ele>
        <time>2017-03-06T03:44:05Z</time>
      </trkpt>
      <trkpt lat="44.0853" lon="3.43782">
        <ele>1268</ele>
        <time>2017-03-06T03:46:05Z</time>
      </trkpt>
      <trkpt lat="44.08513" lon="3.43792">
        <ele>1270</ele>
        <time>2017-03-06T03:48:05Z</time>
      </trkpt>
      <trkpt lat="44.08508" lon="3.43795">
        <ele>1271</ele>
        <time>2017-03-06T03:50:05Z</time>
      </trkpt>
      <trkpt lat="44.08503" lon="3.438">
        <ele>1272</ele>
        <time>2017-03-06T03:52:05Z</time>
      </trkpt>
      <trkpt lat="44.08495" lon="3.43808">
        <ele>1272</ele>
        <time>2017-03-06T03:54:05Z</time>
      </trkpt>
      <trkpt lat="44.08484" lon="3.4382">
        <ele>1273</ele>
        <time>2017-03-06T03:56:05Z</time>
      </trkpt>
      <trkpt lat="44.08474" lon="3.43832">
        <ele>1273</ele>
        <time>2017-03-06T03:58:05Z</time>
      </trkpt>
      <trkpt lat="44.08453" lon="3.43861">
        <ele>1274</ele>
        <time>2017-03-06T04:00:05Z</time>
      </trkpt>
      <trkpt lat="44.0844" lon="3.43884">
        <ele>1275</ele>
        <time>2017-03-06T04:02:05Z</time>
      </trkpt>
      <trkpt lat="44.08432" lon="3.43898">
        <ele>1275</ele>
        <time>2017-03-06T04:04:05Z</time>
      </trkpt>
      <trkpt lat="44.08431" lon="3.43902">
        <ele>1275</ele>
        <time>2017-03-06T04:06:05Z</time>
      </trkpt>
      <trkpt lat="44.0843" lon="3.43905">
        <ele>1275</ele>
        <time>2017-03-06T04:08:05Z</time>
      </trkpt>
      <trkpt lat="44.08429" lon="3.43908">
        <ele>1275</ele>
        <time>2017-03-06T04:10:05Z</time>
      </trkpt>
      <trkpt lat="44.08429" lon="3.43916">
        <ele>1275</ele>
        <time>2017-03-06T04:12:05Z</time>
      </trkpt>
      <trkpt lat="44.08428" lon="3.4392">
        <ele>1275</ele>
        <time>2017-03-06T04:14:05Z</time>
      </trkpt>
      <trkpt lat="44.08428" lon="3.43923">
        <ele>1275</ele>
        <time>2017-03-06T04:16:05Z</time>
      </trkpt>
      <trkpt lat="44.08427" lon="3.43926">
        <ele>1275</ele>
        <time>2017-03-06T04:18:05Z</time>
      </trkpt>
      <trkpt lat="44.08426" lon="3.4393">
        <ele>1276</ele>
        <time>2017-03-06T04:20:05Z</time>
      </trkpt>
      <trkpt lat="44.08425" lon="3.43936">
        <ele>1276</ele>
        <time>2017-03-06T04:22:05Z</time>
      </trkpt>
      <trkpt lat="44.08423" lon="3.43943">
        <ele>1276</ele>
        <time>2017-03-06T04:24:05Z</time>
      </trkpt>
      <trkpt lat="44.08421" lon="3.43948">
        <ele>1277</ele>
        <time>2017-03-06T04:26:05Z</time>
      </trkpt>
      <trkpt lat="44.0842" lon="3.43952">
        <ele>1277</ele>
        <time>2017-03-06T04:28:05Z</time>
      </trkpt>
      <trkpt lat="44.08413" lon="3.43966">
        <ele>1278</ele>
        <time>2017-03-06T04:30:05Z</time>
      </trkpt>
      <trkpt lat="44.08399" lon="3.43998">
        <ele>1279</ele>
        <time>2017-03-06T04:32:05Z</time>
      </trkpt>
      <trkpt lat="44.08391" lon="3.44012">
        <ele>1280</ele>
        <time>2017-03-06T04:34:05Z</time>
      </trkpt>
      <trkpt lat="44.08387" lon="3.44022">
        <ele>1281</ele>
        <time>2017-03-06T04:36:05Z</time>
      </trkpt>
      <trkpt lat="44.08384" lon="3.44028">
        <ele>1281</ele>
        <time>2017-03-06T04:38:05Z</time>
      </trkpt>
      <trkpt lat="44.08383" lon="3.44035">
        <ele>1281</ele>
        <time>2017-03-06T04:40:05Z</time>
      </trkpt>
      <trkpt lat="44.08383" lon="3.44035">
        <ele>1281</ele>
        <time>2017-03-06T04:42:05Z</time>
      </trkpt>
      <trkpt lat="44.08378" lon="3.44036">
        <ele>1282</ele>
        <time>2017-03-06T04:44:05Z</time>
      </trkpt>
      <trkpt lat="44.08362" lon="3.44038">
        <ele>1282</ele>
        <time>2017-03-06T04:46:05Z</time>
      </trkpt>
      <trkpt lat="44.08355" lon="3.44039">
        <ele>1283</ele>
        <time>2017-03-06T04:48:05Z</time>
      </trkpt>
      <trkpt lat="44.08349" lon="3.44041">
        <ele>1283</ele>
        <time>2017-03-06T04:50:05Z</time>
      </trkpt>
      <trkpt lat="44.08341" lon="3.44045">
        <ele>1283</ele>
        <time>2017-03-06T04:52:05Z</time>
      </trkpt>
      <trkpt lat="44.08334" lon="3.44048">
        <ele>1284</ele>
        <time>2017-03-06T04:54:05Z</time>
      </trkpt>
      <trkpt lat="44.0833" lon="3.4405">
        <ele>1284</ele>
        <time>2017-03-06T04:56:05Z</time>
      </trkpt>
      <trkpt lat="44.08323" lon="3.44053">
        <ele>1284</ele>
        <time>2017-03-06T04:58:05Z</time>
      </trkpt>
      <trkpt lat="44.08315" lon="3.44057">
        <ele>1284</ele>
        <time>2017-03-06T05:00:05Z</time>
      </trkpt>
      <trkpt lat="44.08307" lon="3.44062">
        <ele>1284</ele>
        <time>2017-03-06T05:02:05Z</time>
      </trkpt>
      <trkpt lat="44.08299" lon="3.44066">
        <ele>1284</ele>
        <time>2017-03-06T05:04:05Z</time>
      </trkpt>
      <trkpt lat="44.08292" lon="3.4407">
        <ele>1284</ele>
        <time>2017-03-06T05:06:05Z</time>
      </trkpt>
      <trkpt lat="44.08288" lon="3.44074">
        <ele>1283</ele>
        <time>2017-03-06T05:08:05Z</time>
      </trkpt>
      <trkpt lat="44.08284" lon="3.44077">
        <ele>1283</ele>
        <time>2017-03-06T05:10:05Z</time>
      </trkpt>
      <trkpt lat="44.0828" lon="3.44082">
        <ele>1283</ele>
        <time>2017-03-06T05:12:05Z</time>
      </trkpt>
      <trkpt lat="44.08269" lon="3.44099">
        <ele>1282</ele>
        <time>2017-03-06T05:14:05Z</time>
      </trkpt>
      <trkpt lat="44.08257" lon="3.44112">
        <ele>1281</ele>
        <time>2017-03-06T05:16:05Z</time>
      </trkpt>
      <trkpt lat="44.08238" lon="3.44136">
        <ele>1277</ele>
        <time>2017-03-06T05:18:05Z</time>
      </trkpt>
      <trkpt lat="44.08232" lon="3.44142">
        <ele>1276</ele>
        <time>2017-03-06T05:20:05Z</time>
      </trkpt>
      <trkpt lat="44.08231" lon="3.44145">
        <ele>1276</ele>
        <time>2017-03-06T05:22:05Z</time>
      </trkpt>
      <trkpt lat="44.0823" lon="3.44148">
        <ele>1275</ele>
        <time>2017-03-06T05:24:05Z</time>
      </trkpt>
      <trkpt lat="44.08229" lon="3.44152">
        <ele>1275</ele>
        <time>2017-03-06T05:26:05Z</time>
      </trkpt>
      <trkpt lat="44.08229" lon="3.4416">
        <ele>1274</ele>
        <time>2017-03-06T05:28:05Z</time>
      </trkpt>
      <trkpt lat="44.08228" lon="3.44166">
        <ele>1273</ele>
        <time>2017-03-06T05:30:05Z</time>
      </trkpt>
      <trkpt lat="44.08229" lon="3.44172">
        <ele>1273</ele>
        <time>2017-03-06T05:32:05Z</time>
      </trkpt>
      <trkpt lat="44.08233" lon="3.44204">
        <ele>1270</ele>
        <time>2017-03-06T05:34:05Z</time>
      </trkpt>
      <trkpt lat="44.08238" lon="3.44229">
        <ele>1268</ele>
        <time>2017-03-06T05:36:05Z</time>
      </trkpt>
      <trkpt lat="44.08238" lon="3.44231">
        <ele>1268</ele>
        <time>2017-03-06T05:38:05Z</time>
      </trkpt>
      <trkpt lat="44.08239" lon="3.44234">
        <ele>1268</ele>
        <time>2017-03-06T05:40:05Z</time>
      </trkpt>
      <trkpt lat="44.08239" lon="3.44236">
        <ele>1268</ele>
        <time>2017-03-06T05:42:05Z</time>
      </trkpt>
      <trkpt lat="44.08239" lon="3.44238">
        <ele>1268</ele>
        <time>2017-03-06T05:44:05Z</time>
      </trkpt>
      <trkpt lat="44.08239" lon="3.44239">
        <ele>1267</ele>
        <time>2017-03-06T05:46:05Z</time>
      </trkpt>
      <trkpt lat="44.08238" lon="3.4424">
        <ele>1267</ele>
        <time>2017-03-06T05:48:05Z</time>
      </trkpt>
      <trkpt lat="44.08238" lon="3.44242">
        <ele>1267</ele>
        <time>2017-03-06T05:50:05Z</time>
      </trkpt>
      <trkpt lat="44.08237" lon="3.44242">
        <ele>1266</ele>
        <time>2017-03-06T05:52:05Z</time>
      </trkpt>
      <trkpt lat="44.08236" lon="3.44243">
        <ele>1266</ele>
        <time>2017-03-06T05:54:05Z</time>
      </trkpt>
      <trkpt lat="44.08235" lon="3.44243">
        <ele>1266</ele>
        <time>2017-03-06T05:56:05Z</time>
      </trkpt>
      <trkpt lat="44.08234" lon="3.44243">
        <ele>1265</ele>
        <time>2017-03-06T05:58:05Z</time>
      </trkpt>
      <trkpt lat="44.08233" lon="3.44242">
        <ele>1265</ele>
        <time>2017-03-06T06:00:05Z</time>
      </trkpt>
      <trkpt lat="44.08227" lon="3.44235">
        <ele>1264</ele>
        <time>2017-03-06T06:02:05Z</time>
      </trkpt>
      <trkpt lat="44.08202" lon="3.44208">
        <ele>1262</ele>
        <time>2017-03-06T06:04:05Z</time>
      </trkpt>
      <trkpt lat="44.08199" lon="3.44207">
        <ele>1262</ele>
        <time>2017-03-06T06:06:05Z</time>
      </trkpt>
      <trkpt lat="44.08198" lon="3.44208">
        <ele>1261</ele>
        <time>2017-03-06T06:08:05Z</time>
      </trkpt>
      <trkpt lat="44.08198" lon="3.44213">
        <ele>1260</ele>
        <time>2017-03-06T06:10:05Z</time>
      </trkpt>
      <trkpt lat="44.08199" lon="3.44218">
        <ele>1259</ele>
        <time>2017-03-06T06:12:05Z</time>
      </trkpt>
      <trkpt lat="44.08201" lon="3.44233">
        <ele>1257</ele>
        <time>2017-03-06T06:14:05Z</time>
      </trkpt>
      <trkpt lat="44.08207" lon="3.44274">
        <ele>1252</ele>
        <time>2017-03-06T06:16:05Z</time>
      </trkpt>
      <trkpt lat="44.08211" lon="3.443">
        <ele>1249</ele>
        <time>2017-03-06T06:18:05Z</time>
      </trkpt>
      <trkpt lat="44.08211" lon="3.44313">
        <ele>1247</ele>
        <time>2017-03-06T06:20:05Z</time>
      </trkpt>
      <trkpt lat="44.0821" lon="3.44329">
        <ele>1244</ele>
        <time>2017-03-06T06:22:05Z</time>
      </trkpt>
      <trkpt lat="44.08205" lon="3.44363">
        <ele>1240</ele>
        <time>2017-03-06T06:24:05Z</time>
      </trkpt>
      <trkpt lat="44.08202" lon="3.44384">
        <ele>1238</ele>
        <time>2017-03-06T06:26:05Z</time>
      </trkpt>
      <trkpt lat="44.08198" lon="3.44412">
        <ele>1234</ele>
        <time>2017-03-06T06:28:05Z</time>
      </trkpt>
      <trkpt lat="44.08196" lon="3.44415">
        <ele>1233</ele>
        <time>2017-03-06T06:30:05Z</time>
      </trkpt>
      <trkpt lat="44.08192" lon="3.44413">
        <ele>1231</ele>
        <time>2017-03-06T06:32:05Z</time>
      </trkpt>
      <trkpt lat="44.08189" lon="3.44407">
        <ele>1230</ele>
        <time>2017-03-06T06:34:05Z</time>
      </trkpt>
      <trkpt lat="44.08174" lon="3.44362">
        <ele>1225</ele>
        <time>2017-03-06T06:36:05Z</time>
      </trkpt>
      <trkpt lat="44.08171" lon="3.44354">
        <ele>1224</ele>
        <time>2017-03-06T06:38:05Z</time>
      </trkpt>
      <trkpt lat="44.08169" lon="3.44354">
        <ele>1223</ele>
        <time>2017-03-06T06:40:05Z</time>
      </trkpt>
      <trkpt lat="44.08167" lon="3.44357">
        <ele>1221</ele>
        <time>2017-03-06T06:42:05Z</time>
      </trkpt>
      <trkpt lat="44.08166" lon="3.44366">
        <ele>1220</ele>
        <time>2017-03-06T06:44:05Z</time>
      </trkpt>
      <trkpt lat="44.08163" lon="3.44391">
        <ele>1217</ele>
        <time>2017-03-06T06:46:05Z</time>
      </trkpt>
      <trkpt lat="44.08161" lon="3.44396">
        <ele>1216</ele>
        <time>2017-03-06T06:48:05Z</time>
      </trkpt>
      <trkpt lat="44.08158" lon="3.44396">
        <ele>1215</ele>
        <time>2017-03-06T06:50:05Z</time>
      </trkpt>
      <trkpt lat="44.08155" lon="3.44394">
        <ele>1213</ele>
        <time>2017-03-06T06:52:05Z</time>
      </trkpt>
      <trkpt lat="44.0815" lon="3.44381">
        <ele>1213</ele>
        <time>2017-03-06T06:54:05Z</time>
      </trkpt>
      <trkpt lat="44.08144" lon="3.44369">
        <ele>1211</ele>
        <time>2017-03-06T06:56:05Z</time>
      </trkpt>
      <trkpt lat="44.08137" lon="3.44355">
        <ele>1210</ele>
        <time>2017-03-06T06:58:05Z</time>
      </trkpt>
      <trkpt lat="44.08132" lon="3.44343">
        <ele>1210</ele>
        <time>2017-03-06T07:00:05Z</time>
      </trkpt>
      <trkpt lat="44.08126" lon="3.44335">
        <ele>1209</ele>
        <time>2017-03-06T07:02:05Z</time>
      </trkpt>
      <trkpt lat="44.08119" lon="3.44328">
        <ele>1208</ele>
        <time>2017-03-06T07:04:05Z</time>
      </trkpt>
      <trkpt lat="44.08114" lon="3.44325">
        <ele>1207</ele>
        <time>2017-03-06T07:06:05Z</time>
      </trkpt>
      <trkpt lat="44.08108" lon="3.44322">
        <ele>1206</ele>
        <time>2017-03-06T07:08:05Z</time>
      </trkpt>
      <trkpt lat="44.08104" lon="3.44323">
        <ele>1204</ele>
        <time>2017-03-06T07:10:05Z</time>
      </trkpt>
      <trkpt lat="44.08099" lon="3.44327">
        <ele>1201</ele>
        <time>2017-03-06T07:12:05Z</time>
      </trkpt>
      <trkpt lat="44.08091" lon="3.44331">
        <ele>1197</ele>
        <time>2017-03-06T07:14:05Z</time>
      </trkpt>
      <trkpt lat="44.08076" lon="3.44336">
        <ele>1192</ele>
        <time>2017-03-06T07:16:05Z</time>
      </trkpt>
      <trkpt lat="44.08072" lon="3.44337">
        <ele>1191</ele>
        <time>2017-03-06T07:18:05Z</time>
      </trkpt>
      <trkpt lat="44.08066" lon="3.44338">
        <ele>1190</ele>
        <time>2017-03-06T07:20:05Z</time>
      </trkpt>
      <trkpt lat="44.0806" lon="3.44339">
        <ele>1188</ele>
        <time>2017-03-06T07:22:05Z</time>
      </trkpt>
      <trkpt lat="44.08051" lon="3.44338">
        <ele>1187</ele>
        <time>2017-03-06T07:24:05Z</time>
      </trkpt>
      <trkpt lat="44.08047" lon="3.44338">
        <ele>1186</ele>
        <time>2017-03-06T07:26:05Z</time>
      </trkpt>
      <trkpt lat="44.08045" lon="3.44336">
        <ele>1186</ele>
        <time>2017-03-06T07:28:05Z</time>
      </trkpt>
      <trkpt lat="44.08043" lon="3.44335">
        <ele>1186</ele>
        <time>2017-03-06T07:30:05Z</time>
      </trkpt>
      <trkpt lat="44.08041" lon="3.44334">
        <ele>1186</ele>
        <time>2017-03-06T07:32:05Z</time>
      </trkpt>
      <trkpt lat="44.08039" lon="3.44334">
        <ele>1185</ele>
        <time>2017-03-06T07:34:05Z</time>
      </trkpt>
      <trkpt lat="44.08038" lon="3.44335">
        <ele>1185</ele>
        <time>2017-03-06T07:36:05Z</time>
      </trkpt>
      <trkpt lat="44.08038" lon="3.44336">
        <ele>1185</ele>
        <time>2017-03-06T07:38:05Z</time>
      </trkpt>
      <trkpt lat="44.08037" lon="3.44337">
        <ele>1184</ele>
        <time>2017-03-06T07:40:05Z</time>
      </trkpt>
      <trkpt lat="44.08038" lon="3.44339">
        <ele>1184</ele>
        <time>2017-03-06T07:42:05Z</time>
      </trkpt>
      <trkpt lat="44.08038" lon="3.4434">
        <ele>1184</ele>
        <time>2017-03-06T07:44:05Z</time>
      </trkpt>
      <trkpt lat="44.0804" lon="3.44342">
        <ele>1183</ele>
        <time>2017-03-06T07:46:05Z</time>
      </trkpt>
      <trkpt lat="44.08042" lon="3.44344">
        <ele>1183</ele>
        <time>2017-03-06T07:48:05Z</time>
      </trkpt>
      <trkpt lat="44.08054" lon="3.44355">
        <ele>1183</ele>
        <time>2017-03-06T07:50:05Z</time>
      </trkpt>
      <trkpt lat="44.08055" lon="3.44357">
        <ele>1183</ele>
        <time>2017-03-06T07:52:05Z</time>
      </trkpt>
      <trkpt lat="44.08056" lon="3.44358">
        <ele>1183</ele>
        <time>2017-03-06T07:54:05Z</time>
      </trkpt>
      <trkpt lat="44.08057" lon="3.4436">
        <ele>1183</ele>
        <time>2017-03-06T07:56:05Z</time>
      </trkpt>
      <trkpt lat="44.08057" lon="3.44362">
        <ele>1182</ele>
        <time>2017-03-06T07:58:05Z</time>
      </trkpt>
      <trkpt lat="44.08056" lon="3.44363">
        <ele>1182</ele>
        <time>2017-03-06T08:00:05Z</time>
      </trkpt>
      <trkpt lat="44.08056" lon="3.44364">
        <ele>1181</ele>
        <time>2017-03-06T08:02:05Z</time>
      </trkpt>
      <trkpt lat="44.08055" lon="3.44364">
        <ele>1181</ele>
        <time>2017-03-06T08:04:05Z</time>
      </trkpt>
      <trkpt lat="44.08053" lon="3.44364">
        <ele>1181</ele>
        <time>2017-03-06T08:06:05Z</time>
      </trkpt>
      <trkpt lat="44.08051" lon="3.44364">
        <ele>1180</ele>
        <time>2017-03-06T08:08:05Z</time>
      </trkpt>
      <trkpt lat="44.08049" lon="3.44364">
        <ele>1180</ele>
        <time>2017-03-06T08:10:05Z</time>
      </trkpt>
      <trkpt lat="44.08044" lon="3.44365">
        <ele>1178</ele>
        <time>2017-03-06T08:12:05Z</time>
      </trkpt>
      <trkpt lat="44.08039" lon="3.44366">
        <ele>1177</ele>
        <time>2017-03-06T08:14:05Z</time>
      </trkpt>
      <trkpt lat="44.08038" lon="3.44366">
        <ele>1177</ele>
        <time>2017-03-06T08:16:05Z</time>
      </trkpt>
      <trkpt lat="44.08037" lon="3.44367">
        <ele>1176</ele>
        <time>2017-03-06T08:18:05Z</time>
      </trkpt>
      <trkpt lat="44.08036" lon="3.44368">
        <ele>1176</ele>
        <time>2017-03-06T08:20:05Z</time>
      </trkpt>
      <trkpt lat="44.08035" lon="3.44369">
        <ele>1175</ele>
        <time>2017-03-06T08:22:05Z</time>
      </trkpt>
      <trkpt lat="44.08035" lon="3.44371">
        <ele>1175</ele>
        <time>2017-03-06T08:24:05Z</time>
      </trkpt>
      <trkpt lat="44.08036" lon="3.44372">
        <ele>1175</ele>
        <time>2017-03-06T08:26:05Z</time>
      </trkpt>
      <trkpt lat="44.08037" lon="3.44374">
        <ele>1174</ele>
        <time>2017-03-06T08:28:05Z</time>
      </trkpt>
      <trkpt lat="44.08039" lon="3.44377">
        <ele>1174</ele>
        <time>2017-03-06T08:30:05Z</time>
      </trkpt>
      <trkpt lat="44.08043" lon="3.4438">
        <ele>1174</ele>
        <time>2017-03-06T08:32:05Z</time>
      </trkpt>
      <trkpt lat="44.08045" lon="3.44384">
        <ele>1174</ele>
        <time>2017-03-06T08:34:05Z</time>
      </trkpt>
      <trkpt lat="44.08048" lon="3.4439">
        <ele>1173</ele>
        <time>2017-03-06T08:36:05Z</time>
      </trkpt>
      <trkpt lat="44.08048" lon="3.44393">
        <ele>1172</ele>
        <time>2017-03-06T08:38:05Z</time>
      </trkpt>
      <trkpt lat="44.08049" lon="3.44398">
        <ele>1171</ele>
        <time>2017-03-06T08:40:05Z</time>
      </trkpt>
      <trkpt lat="44.0805" lon="3.44401">
        <ele>1171</ele>
        <time>2017-03-06T08:42:05Z</time>
      </trkpt>
      <trkpt lat="44.0805" lon="3.44403">
        <ele>1170</ele>
        <time>2017-03-06T08:44:05Z</time>
      </trkpt>
      <trkpt lat="44.08049" lon="3.44404">
        <ele>1170</ele>
        <time>2017-03-06T08:46:05Z</time>
      </trkpt>
      <trkpt lat="44.08048" lon="3.44404">
        <ele>1170</ele>
        <time>2017-03-06T08:48:05Z</time>
      </trkpt>
      <trkpt lat="44.08047" lon="3.44405">
        <ele>1169</ele>
        <time>2017-03-06T08:50:05Z</time>
      </trkpt>
      <trkpt lat="44.08046" lon="3.44404">
        <ele>1169</ele>
        <time>2017-03-06T08:52:05Z</time>
      </trkpt>
      <trkpt lat="44.08043" lon="3.44402">
        <ele>1169</ele>
        <time>2017-03-06T08:54:05Z</time>
      </trkpt>
      <trkpt lat="44.0804" lon="3.444">
        <ele>1168</ele>
        <time>2017-03-06T08:56:05Z</time>
      </trkpt>
      <trkpt lat="44.08037" lon="3.44399">
        <ele>1168</ele>
        <time>2017-03-06T08:58:05Z</time>
      </trkpt>
      <trkpt lat="44.08033" lon="3.44397">
        <ele>1167</ele>
        <time>2017-03-06T09:00:05Z</time>
      </trkpt>
      <trkpt lat="44.08028" lon="3.44395">
        <ele>1166</ele>
        <time>2017-03-06T09:02:05Z</time>
      </trkpt>
      <trkpt lat="44.08025" lon="3.44394">
        <ele>1166</ele>
        <time>2017-03-06T09:04:05Z</time>
      </trkpt>
      <trkpt lat="44.08022" lon="3.44394">
        <ele>1165</ele>
        <time>2017-03-06T09:06:05Z</time>
      </trkpt>
      <trkpt lat="44.08018" lon="3.44395">
        <ele>1164</ele>
        <time>2017-03-06T09:08:05Z</time>
      </trkpt>
      <trkpt lat="44.08011" lon="3.44392">
        <ele>1163</ele>
        <time>2017-03-06T09:10:05Z</time>
      </trkpt>
      <trkpt lat="44.08007" lon="3.44391">
        <ele>1162</ele>
        <time>2017-03-06T09:12:05Z</time>
      </trkpt>
      <trkpt lat="44.07999" lon="3.44393">
        <ele>1159</ele>
        <time>2017-03-06T09:14:05Z</time>
      </trkpt>
      <trkpt lat="44.0798" lon="3.44402">
        <ele>1152</ele>
        <time>2017-03-06T09:16:05Z</time>
      </trkpt>
      <trkpt lat="44.07969" lon="3.44414">
        <ele>1145</ele>
        <time>2017-03-06T09:18:05Z</time>
      </trkpt>
      <trkpt lat="44.07965" lon="3.44421">
        <ele>1142</ele>
        <time>2017-03-06T09:20:05Z</time>
      </trkpt>
      <trkpt lat="44.07961" lon="3.44422">
        <ele>1141</ele>
        <time>2017-03-06T09:22:05Z</time>
      </trkpt>
      <trkpt lat="44.07958" lon="3.4442">
        <ele>1141</ele>
        <time>2017-03-06T09:24:05Z</time>
      </trkpt>
      <trkpt lat="44.07954" lon="3.44416">
        <ele>1141</ele>
        <time>2017-03-06T09:26:05Z</time>
      </trkpt>
      <trkpt lat="44.0795" lon="3.44406">
        <ele>1143</ele>
        <time>2017-03-06T09:28:05Z</time>
      </trkpt>
      <trkpt lat="44.07949" lon="3.44402">
        <ele>1144</ele>
        <time>2017-03-06T09:30:05Z</time>
      </trkpt>
      <trkpt lat="44.07945" lon="3.44401">
        <ele>1143</ele>
        <time>2017-03-06T09:32:05Z</time>
      </trkpt>
      <trkpt lat="44.07939" lon="3.44398">
        <ele>1143</ele>
        <time>2017-03-06T09:34:05Z</time>
      </trkpt>
      <trkpt lat="44.07931" lon="3.44395">
        <ele>1142</ele>
        <time>2017-03-06T09:36:05Z</time>
      </trkpt>
      <trkpt lat="44.07921" lon="3.44393">
        <ele>1140</ele>
        <time>2017-03-06T09:38:05Z</time>
      </trkpt>
      <trkpt lat="44.07912" lon="3.44393">
        <ele>1138</ele>
        <time>2017-03-06T09:40:05Z</time>
      </trkpt>
      <trkpt lat="44.07899" lon="3.44393">
        <ele>1136</ele>
        <time>2017-03-06T09:42:05Z</time>
      </trkpt>
      <trkpt lat="44.07892" lon="3.44393">
        <ele>1135</ele>
        <time>2017-03-06T09:44:05Z</time>
      </trkpt>
      <trkpt lat="44.0788" lon="3.44391">
        <ele>1134</ele>
        <time>2017-03-06T09:46:05Z</time>
      </trkpt>
      <trkpt lat="44.07856" lon="3.44384">
        <ele>1132</ele>
        <time>2017-03-06T09:48:05Z</time>
      </trkpt>
      <trkpt lat="44.07851" lon="3.44384">
        <ele>1131</ele>
        <time>2017-03-06T09:50:05Z</time>
      </trkpt>
      <trkpt lat="44.07847" lon="3.44383">
        <ele>1130</ele>
        <time>2017-03-06T09:52:05Z</time>
      </trkpt>
      <trkpt lat="44.07842" lon="3.44385">
        <ele>1129</ele>
        <time>2017-03-06T09:54:05Z</time>
      </trkpt>
      <trkpt lat="44.07833" lon="3.44385">
        <ele>1127</ele>
        <time>2017-03-06T09:56:05Z</time>
      </trkpt>
      <trkpt lat="44.07828" lon="3.44385">
        <ele>1127</ele>
        <time>2017-03-06T09:58:05Z</time>
      </trkpt>
      <trkpt lat="44.07813" lon="3.44386">
        <ele>1124</ele>
        <time>2017-03-06T10:00:05Z</time>
      </trkpt>
      <trkpt lat="44.07797" lon="3.44386">
        <ele>1122</ele>
        <time>2017-03-06T10:02:05Z</time>
      </trkpt>
      <trkpt lat="44.0779" lon="3.44385">
        <ele>1122</ele>
        <time>2017-03-06T10:04:05Z</time>
      </trkpt>
      <trkpt lat="44.07784" lon="3.44381">
        <ele>1122</ele>
        <time>2017-03-06T10:06:05Z</time>
      </trkpt>
      <trkpt lat="44.07781" lon="3.44376">
        <ele>1123</ele>
        <time>2017-03-06T10:08:05Z</time>
      </trkpt>
      <trkpt lat="44.07778" lon="3.44374">
        <ele>1123</ele>
        <time>2017-03-06T10:10:05Z</time>
      </trkpt>
      <trkpt lat="44.07769" lon="3.44373">
        <ele>1122</ele>
        <time>2017-03-06T10:12:05Z</time>
      </trkpt>
      <trkpt lat="44.07756" lon="3.44375">
        <ele>1119</ele>
        <time>2017-03-06T10:14:05Z</time>
      </trkpt>
      <trkpt lat="44.07739" lon="3.44379">
        <ele>1115</ele>
        <time>2017-03-06T10:16:05Z</time>
      </trkpt>
      <trkpt lat="44.07734" lon="3.44378">
        <ele>1115</ele>
        <time>2017-03-06T10:18:05Z</time>
      </trkpt>
      <trkpt lat="44.07729" lon="3.44375">
        <ele>1114</ele>
        <time>2017-03-06T10:20:05Z</time>
      </trkpt>
      <trkpt lat="44.07726" lon="3.44375">
        <ele>1114</ele>
        <time>2017-03-06T10:22:05Z</time>
      </trkpt>
      <trkpt lat="44.07721" lon="3.44377">
        <ele>1112</ele>
        <time>2017-03-06T10:24:05Z</time>
      </trkpt>
      <trkpt lat="44.07717" lon="3.44376">
        <ele>1112</ele>
        <time>2017-03-06T10:26:05Z</time>
      </trkpt>
      <trkpt lat="44.07715" lon="3.44373">
        <ele>1112</ele>
        <time>2017-03-06T10:28:05Z</time>
      </trkpt>
      <trkpt lat="44.07706" lon="3.44369">
        <ele>1111</ele>
        <time>2017-03-06T10:30:05Z</time>
      </trkpt>
      <trkpt lat="44.07698" lon="3.44369">
        <ele>1109</ele>
        <time>2017-03-06T10:32:05Z</time>
      </trkpt>
      <trkpt lat="44.07695" lon="3.44369">
        <ele>1108</ele>
        <time>2017-03-06T10:34:05Z</time>
      </trkpt>
      <trkpt lat="44.07692" lon="3.44365">
        <ele>1109</ele>
        <time>2017-03-06T10:36:05Z</time>
      </trkpt>
      <trkpt lat="44.0769" lon="3.44358">
        <ele>1109</ele>
        <time>2017-03-06T10:38:05Z</time>
      </trkpt>
      <trkpt lat="44.07689" lon="3.44353">
        <ele>1110</ele>
        <time>2017-03-06T10:40:05Z</time>
      </trkpt>
      <trkpt lat="44.07682" lon="3.44343">
        <ele>1111</ele>
        <time>2017-03-06T10:42:05Z</time>
      </trkpt>
      <trkpt lat="44.07679" lon="3.44339">
        <ele>1111</ele>
        <time>2017-03-06T10:44:05Z</time>
      </trkpt>
      <trkpt lat="44.07675" lon="3.44335">
        <ele>1110</ele>
        <time>2017-03-06T10:46:05Z</time>
      </trkpt>
      <trkpt lat="44.07671" lon="3.44334">
        <ele>1110</ele>
        <time>2017-03-06T10:48:05Z</time>
      </trkpt>
      <trkpt lat="44.07666" lon="3.44334">
        <ele>1109</ele>
        <time>2017-03-06T10:50:05Z</time>
      </trkpt>
      <trkpt lat="44.07662" lon="3.44335">
        <ele>1108</ele>
        <time>2017-03-06T10:52:05Z</time>
      </trkpt>
      <trkpt lat="44.07657" lon="3.44334">
        <ele>1107</ele>
        <time>2017-03-06T10:54:05Z</time>
      </trkpt>
      <trkpt lat="44.07653" lon="3.44335">
        <ele>1107</ele>
        <time>2017-03-06T10:56:05Z</time>
      </trkpt>
      <trkpt lat="44.07648" lon="3.44338">
        <ele>1106</ele>
        <time>2017-03-06T10:58:05Z</time>
      </trkpt>
      <trkpt lat="44.07638" lon="3.44344">
        <ele>1103</ele>
        <time>2017-03-06T11:00:05Z</time>
      </trkpt>
      <trkpt lat="44.07632" lon="3.4435">
        <ele>1102</ele>
        <time>2017-03-06T11:02:05Z</time>
      </trkpt>
      <trkpt lat="44.07626" lon="3.44354">
        <ele>1100</ele>
        <time>2017-03-06T11:04:05Z</time>
      </trkpt>
      <trkpt lat="44.07616" lon="3.44357">
        <ele>1099</ele>
        <time>2017-03-06T11:06:05Z</time>
      </trkpt>
      <trkpt lat="44.07611" lon="3.44357">
        <ele>1098</ele>
        <time>2017-03-06T11:08:05Z</time>
      </trkpt>
      <trkpt lat="44.07608" lon="3.44359">
        <ele>1098</ele>
        <time>2017-03-06T11:10:05Z</time>
      </trkpt>
      <trkpt lat="44.07604" lon="3.44362">
        <ele>1097</ele>
        <time>2017-03-06T11:12:05Z</time>
      </trkpt>
      <trkpt lat="44.07598" lon="3.44365">
        <ele>1096</ele>
        <time>2017-03-06T11:14:05Z</time>
      </trkpt>
      <trkpt lat="44.07584" lon="3.44368">
        <ele>1094</ele>
        <time>2017-03-06T11:16:05Z</time>
      </trkpt>
      <trkpt lat="44.07563" lon="3.44369">
        <ele>1091</ele>
        <time>2017-03-06T11:18:05Z</time>
      </trkpt>
      <trkpt lat="44.07546" lon="3.44368">
        <ele>1089</ele>
        <time>2017-03-06T11:20:05Z</time>
      </trkpt>
      <trkpt lat="44.07542" lon="3.44368">
        <ele>1088</ele>
        <time>2017-03-06T11:22:05Z</time>
      </trkpt>
      <trkpt lat="44.07517" lon="3.44374">
        <ele>1084</ele>
        <time>2017-03-06T11:24:05Z</time>
      </trkpt>
      <trkpt lat="44.07514" lon="3.44376">
        <ele>1084</ele>
        <time>2017-03-06T11:26:05Z</time>
      </trkpt>
      <trkpt lat="44.07511" lon="3.44382">
        <ele>1083</ele>
        <time>2017-03-06T11:28:05Z</time>
      </trkpt>
      <trkpt lat="44.07505" lon="3.44387">
        <ele>1082</ele>
        <time>2017-03-06T11:30:05Z</time>
      </trkpt>
      <trkpt lat="44.075" lon="3.44388">
        <ele>1081</ele>
        <time>2017-03-06T11:32:05Z</time>
      </trkpt>
      <trkpt lat="44.07496" lon="3.44389">
        <ele>1081</ele>
        <time>2017-03-06T11:34:05Z</time>
      </trkpt>
      <trkpt lat="44.07493" lon="3.44393">
        <ele>1080</ele>
        <time>2017-03-06T11:36:05Z</time>
      </trkpt>
      <trkpt lat="44.07487" lon="3.44394">
        <ele>1079</ele>
        <time>2017-03-06T11:38:05Z</time>
      </trkpt>
      <trkpt lat="44.07473" lon="3.444">
        <ele>1077</ele>
        <time>2017-03-06T11:40:05Z</time>
      </trkpt>
      <trkpt lat="44.07469" lon="3.444">
        <ele>1076</ele>
        <time>2017-03-06T11:42:05Z</time>
      </trkpt>
      <trkpt lat="44.07465" lon="3.44402">
        <ele>1076</ele>
        <time>2017-03-06T11:44:05Z</time>
      </trkpt>
      <trkpt lat="44.07461" lon="3.44407">
        <ele>1075</ele>
        <time>2017-03-06T11:46:05Z</time>
      </trkpt>
      <trkpt lat="44.07455" lon="3.44409">
        <ele>1074</ele>
        <time>2017-03-06T11:48:05Z</time>
      </trkpt>
      <trkpt lat="44.07445" lon="3.44407">
        <ele>1073</ele>
        <time>2017-03-06T11:50:05Z</time>
      </trkpt>
      <trkpt lat="44.07442" lon="3.44406">
        <ele>1073</ele>
        <time>2017-03-06T11:52:05Z</time>
      </trkpt>
      <trkpt lat="44.07439" lon="3.44408">
        <ele>1072</ele>
        <time>2017-03-06T11:54:05Z</time>
      </trkpt>
      <trkpt lat="44.07438" lon="3.44414">
        <ele>1072</ele>
        <time>2017-03-06T11:56:05Z</time>
      </trkpt>
      <trkpt lat="44.07438" lon="3.4442">
        <ele>1071</ele>
        <time>2017-03-06T11:58:05Z</time>
      </trkpt>
      <trkpt lat="44.0744" lon="3.44427">
        <ele>1070</ele>
        <time>2017-03-06T12:00:05Z</time>
      </trkpt>
      <trkpt lat="44.07444" lon="3.44431">
        <ele>1069</ele>
        <time>2017-03-06T12:02:05Z</time>
      </trkpt>
      <trkpt lat="44.07444" lon="3.44437">
        <ele>1068</ele>
        <time>2017-03-06T12:04:05Z</time>
      </trkpt>
      <trkpt lat="44.07444" lon="3.4444">
        <ele>1067</ele>
        <time>2017-03-06T12:06:05Z</time>
      </trkpt>
      <trkpt lat="44.07441" lon="3.44441">
        <ele>1067</ele>
        <time>2017-03-06T12:08:05Z</time>
      </trkpt>
      <trkpt lat="44.07438" lon="3.44441">
        <ele>1066</ele>
        <time>2017-03-06T12:10:05Z</time>
      </trkpt>
      <trkpt lat="44.0743" lon="3.4444">
        <ele>1066</ele>
        <time>2017-03-06T12:12:05Z</time>
      </trkpt>
      <trkpt lat="44.07419" lon="3.44436">
        <ele>1065</ele>
        <time>2017-03-06T12:14:05Z</time>
      </trkpt>
      <trkpt lat="44.07415" lon="3.44431">
        <ele>1065</ele>
        <time>2017-03-06T12:16:05Z</time>
      </trkpt>
      <trkpt lat="44.07408" lon="3.44426">
        <ele>1065</ele>
        <time>2017-03-06T12:18:05Z</time>
      </trkpt>
      <trkpt lat="44.07403" lon="3.44422">
        <ele>1064</ele>
        <time>2017-03-06T12:20:05Z</time>
      </trkpt>
      <trkpt lat="44.07399" lon="3.4442">
        <ele>1064</ele>
        <time>2017-03-06T12:22:05Z</time>
      </trkpt>
      <trkpt lat="44.07395" lon="3.44419">
        <ele>1063</ele>
        <time>2017-03-06T12:24:05Z</time>
      </trkpt>
      <trkpt lat="44.0739" lon="3.44414">
        <ele>1063</ele>
        <time>2017-03-06T12:26:05Z</time>
      </trkpt>
      <trkpt lat="44.07385" lon="3.44407">
        <ele>1062</ele>
        <time>2017-03-06T12:28:05Z</time>
      </trkpt>
      <trkpt lat="44.07372" lon="3.44397">
        <ele>1059</ele>
        <time>2017-03-06T12:30:05Z</time>
      </trkpt>
      <trkpt lat="44.07353" lon="3.44386">
        <ele>1054</ele>
        <time>2017-03-06T12:32:05Z</time>
      </trkpt>
      <trkpt lat="44.07341" lon="3.44379">
        <ele>1052</ele>
        <time>2017-03-06T12:34:05Z</time>
      </trkpt>
      <trkpt lat="44.07325" lon="3.44373">
        <ele>1049</ele>
        <time>2017-03-06T12:36:05Z</time>
      </trkpt>
      <trkpt lat="44.07321" lon="3.44372">
        <ele>1048</ele>
        <time>2017-03-06T12:38:05Z</time>
      </trkpt>
      <trkpt lat="44.07316" lon="3.44373">
        <ele>1048</ele>
        <time>2017-03-06T12:40:05Z</time>
      </trkpt>
      <trkpt lat="44.07309" lon="3.44376">
        <ele>1047</ele>
        <time>2017-03-06T12:42:05Z</time>
      </trkpt>
      <trkpt lat="44.07299" lon="3.44381">
        <ele>1045</ele>
        <time>2017-03-06T12:44:05Z</time>
      </trkpt>
      <trkpt lat="44.07295" lon="3.4438">
        <ele>1045</ele>
        <time>2017-03-06T12:46:05Z</time>
      </trkpt>
      <trkpt lat="44.07293" lon="3.44384">
        <ele>1044</ele>
        <time>2017-03-06T12:48:05Z</time>
      </trkpt>
      <trkpt lat="44.0729" lon="3.44383">
        <ele>1044</ele>
        <time>2017-03-06T12:50:05Z</time>
      </trkpt>
      <trkpt lat="44.07287" lon="3.44382">
        <ele>1043</ele>
        <time>2017-03-06T12:52:05Z</time>
      </trkpt>
      <trkpt lat="44.07283" lon="3.44382">
        <ele>1043</ele>
        <time>2017-03-06T12:54:05Z</time>
      </trkpt>
      <trkpt lat="44.07276" lon="3.44387">
        <ele>1042</ele>
        <time>2017-03-06T12:56:05Z</time>
      </trkpt>
      <trkpt lat="44.0727" lon="3.4439">
        <ele>1041</ele>
        <time>2017-03-06T12:58:05Z</time>
      </trkpt>
      <trkpt lat="44.07263" lon="3.44392">
        <ele>1040</ele>
        <time>2017-03-06T13:00:05Z</time>
      </trkpt>
      <trkpt lat="44.07252" lon="3.44394">
        <ele>1039</ele>
        <time>2017-03-06T13:02:05Z</time>
      </trkpt>
      <trkpt lat="44.0724" lon="3.44394">
        <ele>1036</ele>
        <time>2017-03-06T13:04:05Z</time>
      </trkpt>
      <trkpt lat="44.07235" lon="3.44393">
        <ele>1035</ele>
        <time>2017-03-06T13:06:05Z</time>
      </trkpt>
      <trkpt lat="44.07223" lon="3.44387">
        <ele>1032</ele>
        <time>2017-03-06T13:08:05Z</time>
      </trkpt>
      <trkpt lat="44.0722" lon="3.44386">
        <ele>1032</ele>
        <time>2017-03-06T13:10:05Z</time>
      </trkpt>
      <trkpt lat="44.07217" lon="3.44386">
        <ele>1031</ele>
        <time>2017-03-06T13:12:05Z</time>
      </trkpt>
      <trkpt lat="44.07215" lon="3.44387">
        <ele>1031</ele>
        <time>2017-03-06T13:14:05Z</time>
      </trkpt>
      <trkpt lat="44.07213" lon="3.44387">
        <ele>1030</ele>
        <time>2017-03-06T13:16:05Z</time>
      </trkpt>
      <trkpt lat="44.07211" lon="3.44388">
        <ele>1030</ele>
        <time>2017-03-06T13:18:05Z</time>
      </trkpt>
      <trkpt lat="44.0721" lon="3.4439">
        <ele>1029</ele>
        <time>2017-03-06T13:20:05Z</time>
      </trkpt>
      <trkpt lat="44.0721" lon="3.44392">
        <ele>1029</ele>
        <time>2017-03-06T13:22:05Z</time>
      </trkpt>
      <trkpt lat="44.0721" lon="3.44394">
        <ele>1029</ele>
        <time>2017-03-06T13:24:05Z</time>
      </trkpt>
      <trkpt lat="44.07211" lon="3.44395">
        <ele>1029</ele>
        <time>2017-03-06T13:26:05Z</time>
      </trkpt>
      <trkpt lat="44.07212" lon="3.44397">
        <ele>1030</ele>
        <time>2017-03-06T13:28:05Z</time>
      </trkpt>
      <trkpt lat="44.07213" lon="3.44398">
        <ele>1030</ele>
        <time>2017-03-06T13:30:05Z</time>
      </trkpt>
      <trkpt lat="44.07214" lon="3.444">
        <ele>1030</ele>
        <time>2017-03-06T13:32:05Z</time>
      </trkpt>
      <trkpt lat="44.07214" lon="3.44402">
        <ele>1030</ele>
        <time>2017-03-06T13:34:05Z</time>
      </trkpt>
      <trkpt lat="44.07215" lon="3.44406">
        <ele>1030</ele>
        <time>2017-03-06T13:36:05Z</time>
      </trkpt>
      <trkpt lat="44.07215" lon="3.44408">
        <ele>1030</ele>
        <time>2017-03-06T13:38:05Z</time>
      </trkpt>
      <trkpt lat="44.07217" lon="3.44413">
        <ele>1031</ele>
        <time>2017-03-06T13:40:05Z</time>
      </trkpt>
      <trkpt lat="44.07217" lon="3.44417">
        <ele>1030</ele>
        <time>2017-03-06T13:42:05Z</time>
      </trkpt>
      <trkpt lat="44.07217" lon="3.4442">
        <ele>1029</ele>
        <time>2017-03-06T13:44:05Z</time>
      </trkpt>
      <trkpt lat="44.07217" lon="3.44421">
        <ele>1029</ele>
        <time>2017-03-06T13:46:05Z</time>
      </trkpt>
      <trkpt lat="44.07216" lon="3.44423">
        <ele>1028</ele>
        <time>2017-03-06T13:48:05Z</time>
      </trkpt>
      <trkpt lat="44.07215" lon="3.44424">
        <ele>1028</ele>
        <time>2017-03-06T13:50:05Z</time>
      </trkpt>
      <trkpt lat="44.07214" lon="3.44424">
        <ele>1028</ele>
        <time>2017-03-06T13:52:05Z</time>
      </trkpt>
      <trkpt lat="44.07212" lon="3.44423">
        <ele>1027</ele>
        <time>2017-03-06T13:54:05Z</time>
      </trkpt>
      <trkpt lat="44.07211" lon="3.44421">
        <ele>1028</ele>
        <time>2017-03-06T13:56:05Z</time>
      </trkpt>
      <trkpt lat="44.07203" lon="3.44415">
        <ele>1027</ele>
        <time>2017-03-06T13:58:05Z</time>
      </trkpt>
      <trkpt lat="44.07202" lon="3.44414">
        <ele>1027</ele>
        <time>2017-03-06T14:00:05Z</time>
      </trkpt>
      <trkpt lat="44.07201" lon="3.44414">
        <ele>1027</ele>
        <time>2017-03-06T14:02:05Z</time>
      </trkpt>
      <trkpt lat="44.072" lon="3.44415">
        <ele>1027</ele>
        <time>2017-03-06T14:04:05Z</time>
      </trkpt>
      <trkpt lat="44.07199" lon="3.44417">
        <ele>1026</ele>
        <time>2017-03-06T14:06:05Z</time>
      </trkpt>
      <trkpt lat="44.07199" lon="3.44419">
        <ele>1026</ele>
        <time>2017-03-06T14:08:05Z</time>
      </trkpt>
      <trkpt lat="44.07199" lon="3.44422">
        <ele>1025</ele>
        <time>2017-03-06T14:10:05Z</time>
      </trkpt>
      <trkpt lat="44.07199" lon="3.44424">
        <ele>1024</ele>
        <time>2017-03-06T14:12:05Z</time>
      </trkpt>
      <trkpt lat="44.07199" lon="3.44426">
        <ele>1024</ele>
        <time>2017-03-06T14:14:05Z</time>
      </trkpt>
      <trkpt lat="44.07199" lon="3.44427">
        <ele>1023</ele>
        <time>2017-03-06T14:16:05Z</time>
      </trkpt>
      <trkpt lat="44.07199" lon="3.44428">
        <ele>1023</ele>
        <time>2017-03-06T14:18:05Z</time>
      </trkpt>
      <trkpt lat="44.07198" lon="3.44429">
        <ele>1022</ele>
        <time>2017-03-06T14:20:05Z</time>
      </trkpt>
      <trkpt lat="44.07196" lon="3.44428">
        <ele>1022</ele>
        <time>2017-03-06T14:22:05Z</time>
      </trkpt>
      <trkpt lat="44.07194" lon="3.44426">
        <ele>1022</ele>
        <time>2017-03-06T14:24:05Z</time>
      </trkpt>
      <trkpt lat="44.07192" lon="3.44424">
        <ele>1023</ele>
        <time>2017-03-06T14:26:05Z</time>
      </trkpt>
      <trkpt lat="44.07189" lon="3.44423">
        <ele>1022</ele>
        <time>2017-03-06T14:28:05Z</time>
      </trkpt>
      <trkpt lat="44.07182" lon="3.44419">
        <ele>1022</ele>
        <time>2017-03-06T14:30:05Z</time>
      </trkpt>
      <trkpt lat="44.07177" lon="3.44417">
        <ele>1021</ele>
        <time>2017-03-06T14:32:05Z</time>
      </trkpt>
      <trkpt lat="44.07175" lon="3.44416">
        <ele>1021</ele>
        <time>2017-03-06T14:34:05Z</time>
      </trkpt>
      <trkpt lat="44.07172" lon="3.44415">
        <ele>1020</ele>
        <time>2017-03-06T14:36:05Z</time>
      </trkpt>
      <trkpt lat="44.0717" lon="3.44415">
        <ele>1020</ele>
        <time>2017-03-06T14:38:05Z</time>
      </trkpt>
      <trkpt lat="44.07168" lon="3.44415">
        <ele>1019</ele>
        <time>2017-03-06T14:40:05Z</time>
      </trkpt>
      <trkpt lat="44.07165" lon="3.44414">
        <ele>1019</ele>
        <time>2017-03-06T14:42:05Z</time>
      </trkpt>
      <trkpt lat="44.07163" lon="3.44413">
        <ele>1018</ele>
        <time>2017-03-06T14:44:05Z</time>
      </trkpt>
      <trkpt lat="44.07161" lon="3.44411">
        <ele>1018</ele>
        <time>2017-03-06T14:46:05Z</time>
      </trkpt>
      <trkpt lat="44.07159" lon="3.4441">
        <ele>1017</ele>
        <time>2017-03-06T14:48:05Z</time>
      </trkpt>
      <trkpt lat="44.07158" lon="3.4441">
        <ele>1017</ele>
        <time>2017-03-06T14:50:05Z</time>
      </trkpt>
      <trkpt lat="44.07156" lon="3.4441">
        <ele>1016</ele>
        <time>2017-03-06T14:52:05Z</time>
      </trkpt>
      <trkpt lat="44.07154" lon="3.44411">
        <ele>1016</ele>
        <time>2017-03-06T14:54:05Z</time>
      </trkpt>
      <trkpt lat="44.07153" lon="3.44411">
        <ele>1015</ele>
        <time>2017-03-06T14:56:05Z</time>
      </trkpt>
      <trkpt lat="44.07152" lon="3.44412">
        <ele>1015</ele>
        <time>2017-03-06T14:58:05Z</time>
      </trkpt>
      <trkpt lat="44.0715" lon="3.44413">
        <ele>1015</ele>
        <time>2017-03-06T15:00:05Z</time>
      </trkpt>
      <trkpt lat="44.07148" lon="3.44412">
        <ele>1014</ele>
        <time>2017-03-06T15:02:05Z</time>
      </trkpt>
      <trkpt lat="44.07146" lon="3.44411">
        <ele>1013</ele>
        <time>2017-03-06T15:04:05Z</time>
      </trkpt>
      <trkpt lat="44.07144" lon="3.4441">
        <ele>1013</ele>
        <time>2017-03-06T15:06:05Z</time>
      </trkpt>
      <trkpt lat="44.07135" lon="3.44408">
        <ele>1011</ele>
        <time>2017-03-06T15:08:05Z</time>
      </trkpt>
      <trkpt lat="44.07125" lon="3.44406">
        <ele>1008</ele>
        <time>2017-03-06T15:10:05Z</time>
      </trkpt>
      <trkpt lat="44.0712" lon="3.44406">
        <ele>1007</ele>
        <time>2017-03-06T15:12:05Z</time>
      </trkpt>
      <trkpt lat="44.07119" lon="3.44406">
        <ele>1006</ele>
        <time>2017-03-06T15:14:05Z</time>
      </trkpt>
      <trkpt lat="44.07118" lon="3.44405">
        <ele>1006</ele>
        <time>2017-03-06T15:16:05Z</time>
      </trkpt>
      <trkpt lat="44.07117" lon="3.44404">
        <ele>1006</ele>
        <time>2017-03-06T15:18:05Z</time>
      </trkpt>
      <trkpt lat="44.07115" lon="3.44402">
        <ele>1005</ele>
        <time>2017-03-06T15:20:05Z</time>
      </trkpt>
      <trkpt lat="44.07112" lon="3.44398">
        <ele>1005</ele>
        <time>2017-03-06T15:22:05Z</time>
      </trkpt>
      <trkpt lat="44.07108" lon="3.44394">
        <ele>1004</ele>
        <time>2017-03-06T15:24:05Z</time>
      </trkpt>
      <trkpt lat="44.07105" lon="3.44393">
        <ele>1003</ele>
        <time>2017-03-06T15:26:05Z</time>
      </trkpt>
      <trkpt lat="44.07102" lon="3.44392">
        <ele>1002</ele>
        <time>2017-03-06T15:28:05Z</time>
      </trkpt>
      <trkpt lat="44.07099" lon="3.44392">
        <ele>1002</ele>
        <time>2017-03-06T15:30:05Z</time>
      </trkpt>
      <trkpt lat="44.07094" lon="3.44393">
        <ele>1000</ele>
        <time>2017-03-06T15:32:05Z</time>
      </trkpt>
      <trkpt lat="44.07087" lon="3.44394">
        <ele>998</ele>
        <time>2017-03-06T15:34:05Z</time>
      </trkpt>
      <trkpt lat="44.07084" lon="3.44394">
        <ele>998</ele>
        <time>2017-03-06T15:36:05Z</time>
      </trkpt>
      <trkpt lat="44.07082" lon="3.44393">
        <ele>997</ele>
        <time>2017-03-06T15:38:05Z</time>
      </trkpt>
      <trkpt lat="44.07079" lon="3.44392">
        <ele>997</ele>
        <time>2017-03-06T15:40:05Z</time>
      </trkpt>
      <trkpt lat="44.07077" lon="3.44391">
        <ele>996</ele>
        <time>2017-03-06T15:42:05Z</time>
      </trkpt>
      <trkpt lat="44.07076" lon="3.4439">
        <ele>996</ele>
        <time>2017-03-06T15:44:05Z</time>
      </trkpt>
      <trkpt lat="44.07074" lon="3.4439">
        <ele>996</ele>
        <time>2017-03-06T15:46:05Z</time>
      </trkpt>
      <trkpt lat="44.07059" lon="3.44392">
        <ele>993</ele>
        <time>2017-03-06T15:48:05Z</time>
      </trkpt>
      <trkpt lat="44.07056" lon="3.44392">
        <ele>993</ele>
        <time>2017-03-06T15:50:05Z</time>
      </trkpt>
      <trkpt lat="44.07053" lon="3.44393">
        <ele>992</ele>
        <time>2017-03-06T15:52:05Z</time>
      </trkpt>
      <trkpt lat="44.07047" lon="3.44398">
        <ele>991</ele>
        <time>2017-03-06T15:54:05Z</time>
      </trkpt>
      <trkpt lat="44.0704" lon="3.44402">
        <ele>989</ele>
        <time>2017-03-06T15:56:05Z</time>
      </trkpt>
      <trkpt lat="44.07036" lon="3.44404">
        <ele>989</ele>
        <time>2017-03-06T15:58:05Z</time>
      </trkpt>
      <trkpt lat="44.07031" lon="3.44404">
        <ele>988</ele>
        <time>2017-03-06T16:00:05Z</time>
      </trkpt>
      <trkpt lat="44.07025" lon="3.44404">
        <ele>987</ele>
        <time>2017-03-06T16:02:05Z</time>
      </trkpt>
      <trkpt lat="44.07014" lon="3.44403">
        <ele>985</ele>
        <time>2017-03-06T16:04:05Z</time>
      </trkpt>
      <trkpt lat="44.07008" lon="3.44402">
        <ele>984</ele>
        <time>2017-03-06T16:06:05Z</time>
      </trkpt>
      <trkpt lat="44.07003" lon="3.44401">
        <ele>983</ele>
        <time>2017-03-06T16:08:05Z</time>
      </trkpt>
      <trkpt lat="44.06999" lon="3.44399">
        <ele>982</ele>
        <time>2017-03-06T16:10:05Z</time>
      </trkpt>
      <trkpt lat="44.06997" lon="3.44398">
        <ele>982</ele>
        <time>2017-03-06T16:12:05Z</time>
      </trkpt>
      <trkpt lat="44.06995" lon="3.44398">
        <ele>981</ele>
        <time>2017-03-06T16:14:05Z</time>
      </trkpt>
      <trkpt lat="44.06992" lon="3.44397">
        <ele>981</ele>
        <time>2017-03-06T16:16:05Z</time>
      </trkpt>
      <trkpt lat="44.06989" lon="3.44396">
        <ele>980</ele>
        <time>2017-03-06T16:18:05Z</time>
      </trkpt>
      <trkpt lat="44.06986" lon="3.44396">
        <ele>979</ele>
        <time>2017-03-06T16:20:05Z</time>
      </trkpt>
      <trkpt lat="44.06982" lon="3.44397">
        <ele>978</ele>
        <time>2017-03-06T16:22:05Z</time>
      </trkpt>
      <trkpt lat="44.06976" lon="3.44399">
        <ele>976</ele>
        <time>2017-03-06T16:24:05Z</time>
      </trkpt>
      <trkpt lat="44.06974" lon="3.444">
        <ele>975</ele>
        <time>2017-03-06T16:26:05Z</time>
      </trkpt>
      <trkpt lat="44.06971" lon="3.44399">
        <ele>975</ele>
        <time>2017-03-06T16:28:05Z</time>
      </trkpt>
      <trkpt lat="44.06968" lon="3.44399">
        <ele>974</ele>
        <time>2017-03-06T16:30:05Z</time>
      </trkpt>
      <trkpt lat="44.06964" lon="3.44399">
        <ele>973</ele>
        <time>2017-03-06T16:32:05Z</time>
      </trkpt>
      <trkpt lat="44.06959" lon="3.444">
        <ele>971</ele>
        <time>2017-03-06T16:34:05Z</time>
      </trkpt>
      <trkpt lat="44.06956" lon="3.44399">
        <ele>971</ele>
        <time>2017-03-06T16:36:05Z</time>
      </trkpt>
      <trkpt lat="44.06952" lon="3.44399">
        <ele>969</ele>
        <time>2017-03-06T16:38:05Z</time>
      </trkpt>
      <trkpt lat="44.06949" lon="3.44398">
        <ele>969</ele>
        <time>2017-03-06T16:40:05Z</time>
      </trkpt>
      <trkpt lat="44.06945" lon="3.44395">
        <ele>968</ele>
        <time>2017-03-06T16:42:05Z</time>
      </trkpt>
      <trkpt lat="44.06942" lon="3.44392">
        <ele>967</ele>
        <time>2017-03-06T16:44:05Z</time>
      </trkpt>
      <trkpt lat="44.0694" lon="3.44389">
        <ele>966</ele>
        <time>2017-03-06T16:46:05Z</time>
      </trkpt>
      <trkpt lat="44.06939" lon="3.44386">
        <ele>966</ele>
        <time>2017-03-06T16:48:05Z</time>
      </trkpt>
      <trkpt lat="44.06936" lon="3.44381">
        <ele>965</ele>
        <time>2017-03-06T16:50:05Z</time>
      </trkpt>
      <trkpt lat="44.06935" lon="3.44379">
        <ele>965</ele>
        <time>2017-03-06T16:52:05Z</time>
      </trkpt>
      <trkpt lat="44.06934" lon="3.44378">
        <ele>964</ele>
        <time>2017-03-06T16:54:05Z</time>
      </trkpt>
      <trkpt lat="44.06933" lon="3.44378">
        <ele>964</ele>
        <time>2017-03-06T16:56:05Z</time>
      </trkpt>
      <trkpt lat="44.06931" lon="3.44378">
        <ele>964</ele>
        <time>2017-03-06T16:58:05Z</time>
      </trkpt>
      <trkpt lat="44.0693" lon="3.44378">
        <ele>963</ele>
        <time>2017-03-06T17:00:05Z</time>
      </trkpt>
      <trkpt lat="44.06929" lon="3.44378">
        <ele>963</ele>
        <time>2017-03-06T17:02:05Z</time>
      </trkpt>
      <trkpt lat="44.06929" lon="3.44379">
        <ele>963</ele>
        <time>2017-03-06T17:04:05Z</time>
      </trkpt>
      <trkpt lat="44.06928" lon="3.44388">
        <ele>963</ele>
        <time>2017-03-06T17:06:05Z</time>
      </trkpt>
      <trkpt lat="44.06928" lon="3.4439">
        <ele>963</ele>
        <time>2017-03-06T17:08:05Z</time>
      </trkpt>
      <trkpt lat="44.06928" lon="3.44391">
        <ele>963</ele>
        <time>2017-03-06T17:10:05Z</time>
      </trkpt>
      <trkpt lat="44.06927" lon="3.44392">
        <ele>963</ele>
        <time>2017-03-06T17:12:05Z</time>
      </trkpt>
      <trkpt lat="44.06926" lon="3.44392">
        <ele>962</ele>
        <time>2017-03-06T17:14:05Z</time>
      </trkpt>
      <trkpt lat="44.06925" lon="3.44393">
        <ele>962</ele>
        <time>2017-03-06T17:16:05Z</time>
      </trkpt>
      <trkpt lat="44.06924" lon="3.44393">
        <ele>962</ele>
        <time>2017-03-06T17:18:05Z</time>
      </trkpt>
      <trkpt lat="44.06922" lon="3.44393">
        <ele>961</ele>
        <time>2017-03-06T17:20:05Z</time>
      </trkpt>
      <trkpt lat="44.06921" lon="3.44393">
        <ele>961</ele>
        <time>2017-03-06T17:22:05Z</time>
      </trkpt>
      <trkpt lat="44.0692" lon="3.44393">
        <ele>961</ele>
        <time>2017-03-06T17:24:05Z</time>
      </trkpt>
      <trkpt lat="44.06918" lon="3.44393">
        <ele>960</ele>
        <time>2017-03-06T17:26:05Z</time>
      </trkpt>
      <trkpt lat="44.06917" lon="3.44392">
        <ele>960</ele>
        <time>2017-03-06T17:28:05Z</time>
      </trkpt>
      <trkpt lat="44.06916" lon="3.44392">
        <ele>960</ele>
        <time>2017-03-06T17:30:05Z</time>
      </trkpt>
      <trkpt lat="44.06915" lon="3.44393">
        <ele>959</ele>
        <time>2017-03-06T17:32:05Z</time>
      </trkpt>
      <trkpt lat="44.06914" lon="3.44394">
        <ele>959</ele>
        <time>2017-03-06T17:34:05Z</time>
      </trkpt>
      <trkpt lat="44.06913" lon="3.44395">
        <ele>959</ele>
        <time>2017-03-06T17:36:05Z</time>
      </trkpt>
      <trkpt lat="44.06912" lon="3.44395">
        <ele>959</ele>
        <time>2017-03-06T17:38:05Z</time>
      </trkpt>
      <trkpt lat="44.06911" lon="3.44395">
        <ele>959</ele>
        <time>2017-03-06T17:40:05Z</time>
      </trkpt>
      <trkpt lat="44.06908" lon="3.44395">
        <ele>958</ele>
        <time>2017-03-06T17:42:05Z</time>
      </trkpt>
      <trkpt lat="44.06902" lon="3.44396">
        <ele>957</ele>
        <time>2017-03-06T17:44:05Z</time>
      </trkpt>
      <trkpt lat="44.06896" lon="3.44398">
        <ele>956</ele>
        <time>2017-03-06T17:46:05Z</time>
      </trkpt>
      <trkpt lat="44.0689" lon="3.444">
        <ele>955</ele>
        <time>2017-03-06T17:48:05Z</time>
      </trkpt>
      <trkpt lat="44.06877" lon="3.44407">
        <ele>953</ele>
        <time>2017-03-06T17:50:05Z</time>
      </trkpt>
      <trkpt lat="44.06867" lon="3.44414">
        <ele>952</ele>
        <time>2017-03-06T17:52:05Z</time>
      </trkpt>
      <trkpt lat="44.06854" lon="3.4442">
        <ele>950</ele>
        <time>2017-03-06T17:54:05Z</time>
      </trkpt>
      <trkpt lat="44.06833" lon="3.44425">
        <ele>946</ele>
        <time>2017-03-06T17:56:05Z</time>
      </trkpt>
      <trkpt lat="44.06823" lon="3.44429">
        <ele>943</ele>
        <time>2017-03-06T17:58:05Z</time>
      </trkpt>
      <trkpt lat="44.06818" lon="3.44433">
        <ele>941</ele>
        <time>2017-03-06T18:00:05Z</time>
      </trkpt>
      <trkpt lat="44.06814" lon="3.44438">
        <ele>939</ele>
        <time>2017-03-06T18:02:05Z</time>
      </trkpt>
      <trkpt lat="44.06812" lon="3.44444">
        <ele>938</ele>
        <time>2017-03-06T18:04:05Z</time>
      </trkpt>
      <trkpt lat="44.06812" lon="3.44452">
        <ele>937</ele>
        <time>2017-03-06T18:06:05Z</time>
      </trkpt>
      <trkpt lat="44.06813" lon="3.44461">
        <ele>937</ele>
        <time>2017-03-06T18:08:05Z</time>
      </trkpt>
      <trkpt lat="44.06814" lon="3.44471">
        <ele>936</ele>
        <time>2017-03-06T18:10:05Z</time>
      </trkpt>
      <trkpt lat="44.0682" lon="3.44496">
        <ele>934</ele>
        <time>2017-03-06T18:12:05Z</time>
      </trkpt>
      <trkpt lat="44.06822" lon="3.44506">
        <ele>934</ele>
        <time>2017-03-06T18:14:05Z</time>
      </trkpt>
      <trkpt lat="44.06822" lon="3.4451">
        <ele>934</ele>
        <time>2017-03-06T18:16:05Z</time>
      </trkpt>
      <trkpt lat="44.06821" lon="3.44513">
        <ele>933</ele>
        <time>2017-03-06T18:18:05Z</time>
      </trkpt>
      <trkpt lat="44.06816" lon="3.44516">
        <ele>932</ele>
        <time>2017-03-06T18:20:05Z</time>
      </trkpt>
      <trkpt lat="44.0681" lon="3.4452">
        <ele>930</ele>
        <time>2017-03-06T18:22:05Z</time>
      </trkpt>
      <trkpt lat="44.06796" lon="3.44527">
        <ele>927</ele>
        <time>2017-03-06T18:24:05Z</time>
      </trkpt>
      <trkpt lat="44.06786" lon="3.4453">
        <ele>924</ele>
        <time>2017-03-06T18:26:05Z</time>
      </trkpt>
      <trkpt lat="44.06782" lon="3.44533">
        <ele>923</ele>
        <time>2017-03-06T18:28:05Z</time>
      </trkpt>
      <trkpt lat="44.06774" lon="3.44538">
        <ele>921</ele>
        <time>2017-03-06T18:30:05Z</time>
      </trkpt>
      <trkpt lat="44.06766" lon="3.44541">
        <ele>920</ele>
        <time>2017-03-06T18:32:05Z</time>
      </trkpt>
      <trkpt lat="44.06759" lon="3.44544">
        <ele>918</ele>
        <time>2017-03-06T18:34:05Z</time>
      </trkpt>
      <trkpt lat="44.06752" lon="3.44544">
        <ele>917</ele>
        <time>2017-03-06T18:36:05Z</time>
      </trkpt>
      <trkpt lat="44.06752" lon="3.44544">
        <ele>917</ele>
        <time>2017-03-06T18:38:05Z</time>
      </trkpt>
      <trkpt lat="44.0675" lon="3.44539">
        <ele>917</ele>
        <time>2017-03-06T18:40:05Z</time>
      </trkpt>
      <trkpt lat="44.06748" lon="3.44532">
        <ele>917</ele>
        <time>2017-03-06T18:42:05Z</time>
      </trkpt>
      <trkpt lat="44.06746" lon="3.44517">
        <ele>917</ele>
        <time>2017-03-06T18:44:05Z</time>
      </trkpt>
      <trkpt lat="44.06742" lon="3.44496">
        <ele>917</ele>
        <time>2017-03-06T18:46:05Z</time>
      </trkpt>
      <trkpt lat="44.06738" lon="3.44473">
        <ele>918</ele>
        <time>2017-03-06T18:48:05Z</time>
      </trkpt>
      <trkpt lat="44.06736" lon="3.44461">
        <ele>918</ele>
        <time>2017-03-06T18:50:05Z</time>
      </trkpt>
      <trkpt lat="44.06734" lon="3.44456">
        <ele>918</ele>
        <time>2017-03-06T18:52:05Z</time>
      </trkpt>
      <trkpt lat="44.0673" lon="3.4445">
        <ele>918</ele>
        <time>2017-03-06T18:54:05Z</time>
      </trkpt>
      <trkpt lat="44.06724" lon="3.44442">
        <ele>917</ele>
        <time>2017-03-06T18:56:05Z</time>
      </trkpt>
      <trkpt lat="44.06715" lon="3.44431">
        <ele>916</ele>
        <time>2017-03-06T18:58:05Z</time>
      </trkpt>
      <trkpt lat="44.06708" lon="3.4442">
        <ele>915</ele>
        <time>2017-03-06T19:00:05Z</time>
      </trkpt>
      <trkpt lat="44.06702" lon="3.44409">
        <ele>914</ele>
        <time>2017-03-06T19:02:05Z</time>
      </trkpt>
      <trkpt lat="44.06702" lon="3.44409">
        <ele>914</ele>
        <time>2017-03-06T19:04:05Z</time>
      </trkpt>
      <trkpt lat="44.06697" lon="3.4442">
        <ele>912</ele>
        <time>2017-03-06T19:06:05Z</time>
      </trkpt>
      <trkpt lat="44.0669" lon="3.44434">
        <ele>911</ele>
        <time>2017-03-06T19:08:05Z</time>
      </trkpt>
      <trkpt lat="44.0668" lon="3.44458">
        <ele>908</ele>
        <time>2017-03-06T19:10:05Z</time>
      </trkpt>
      <trkpt lat="44.06672" lon="3.44478">
        <ele>906</ele>
        <time>2017-03-06T19:12:05Z</time>
      </trkpt>
      <trkpt lat="44.06666" lon="3.44488">
        <ele>905</ele>
        <time>2017-03-06T19:14:05Z</time>
      </trkpt>
      <trkpt lat="44.06662" lon="3.44494">
        <ele>904</ele>
        <time>2017-03-06T19:16:05Z</time>
      </trkpt>
      <trkpt lat="44.06655" lon="3.44501">
        <ele>903</ele>
        <time>2017-03-06T19:18:05Z</time>
      </trkpt>
      <trkpt lat="44.06645" lon="3.44509">
        <ele>902</ele>
        <time>2017-03-06T19:20:05Z</time>
      </trkpt>
      <trkpt lat="44.06639" lon="3.44515">
        <ele>902</ele>
        <time>2017-03-06T19:22:05Z</time>
      </trkpt>
      <trkpt lat="44.0663" lon="3.44525">
        <ele>901</ele>
        <time>2017-03-06T19:24:05Z</time>
      </trkpt>
      <trkpt lat="44.06607" lon="3.44555">
        <ele>899</ele>
        <time>2017-03-06T19:26:05Z</time>
      </trkpt>
      <trkpt lat="44.06595" lon="3.44573">
        <ele>899</ele>
        <time>2017-03-06T19:28:05Z</time>
      </trkpt>
      <trkpt lat="44.06594" lon="3.44574">
        <ele>899</ele>
        <time>2017-03-06T19:30:05Z</time>
      </trkpt>
      <trkpt lat="44.06589" lon="3.44584">
        <ele>899</ele>
        <time>2017-03-06T19:32:05Z</time>
      </trkpt>
      <trkpt lat="44.06586" lon="3.44594">
        <ele>898</ele>
        <time>2017-03-06T19:34:05Z</time>
      </trkpt>
      <trkpt lat="44.06585" lon="3.44599">
        <ele>898</ele>
        <time>2017-03-06T19:36:05Z</time>
      </trkpt>
      <trkpt lat="44.06584" lon="3.44605">
        <ele>897</ele>
        <time>2017-03-06T19:38:05Z</time>
      </trkpt>
      <trkpt lat="44.06584" lon="3.44606">
        <ele>897</ele>
        <time>2017-03-06T19:40:05Z</time>
      </trkpt>
      <trkpt lat="44.06584" lon="3.44606">
        <ele>897</ele>
        <time>2017-03-06T19:42:05Z</time>
      </trkpt>
      <trkpt lat="44.06581" lon="3.4461">
        <ele>897</ele>
        <time>2017-03-06T19:44:05Z</time>
      </trkpt>
      <trkpt lat="44.06578" lon="3.44613">
        <ele>897</ele>
        <time>2017-03-06T19:46:05Z</time>
      </trkpt>
      <trkpt lat="44.06573" lon="3.44617">
        <ele>897</ele>
        <time>2017-03-06T19:48:05Z</time>
      </trkpt>
      <trkpt lat="44.06556" lon="3.4463">
        <ele>896</ele>
        <time>2017-03-06T19:50:05Z</time>
      </trkpt>
      <trkpt lat="44.06544" lon="3.44635">
        <ele>896</ele>
        <time>2017-03-06T19:52:05Z</time>
      </trkpt>
      <trkpt lat="44.06531" lon="3.44638">
        <ele>896</ele>
        <time>2017-03-06T19:54:05Z</time>
      </trkpt>
      <trkpt lat="44.06522" lon="3.44636">
        <ele>896</ele>
        <time>2017-03-06T19:56:05Z</time>
      </trkpt>
      <trkpt lat="44.06514" lon="3.44633">
        <ele>896</ele>
        <time>2017-03-06T19:58:05Z</time>
      </trkpt>
      <trkpt lat="44.06507" lon="3.44629">
        <ele>896</ele>
        <time>2017-03-06T20:00:05Z</time>
      </trkpt>
      <trkpt lat="44.06502" lon="3.44627">
        <ele>896</ele>
        <time>2017-03-06T20:02:05Z</time>
      </trkpt>
      <trkpt lat="44.06502" lon="3.44626">
        <ele>896</ele>
        <time>2017-03-06T20:04:05Z</time>
      </trkpt>
      <trkpt lat="44.06502" lon="3.44626">
        <ele>896</ele>
        <time>2017-03-06T20:06:05Z</time>
      </trkpt>
      <trkpt lat="44.065" lon="3.4463">
        <ele>896</ele>
        <time>2017-03-06T20:08:05Z</time>
      </trkpt>
      <trkpt lat="44.06498" lon="3.44633">
        <ele>895</ele>
        <time>2017-03-06T20:10:05Z</time>
      </trkpt>
      <trkpt lat="44.06495" lon="3.44636">
        <ele>895</ele>
        <time>2017-03-06T20:12:05Z</time>
      </trkpt>
    </trkseg>
  </trk>
  <trk>
    <name><![CDATA[causwatts 02-dourbies-florac]]></name>
    <trkseg>
      <trkpt lat="44.06435" lon="3.44639">
        <ele>890</ele>
        <time>2017-02-27T14:42:46Z</time>
      </trkpt>
      <trkpt lat="44.06443" lon="3.44643">
        <ele>891</ele>
        <time>2017-02-27T14:44:46Z</time>
      </trkpt>
      <trkpt lat="44.06446" lon="3.44645">
        <ele>891</ele>
        <time>2017-02-27T14:46:46Z</time>
      </trkpt>
      <trkpt lat="44.06454" lon="3.44639">
        <ele>892</ele>
        <time>2017-02-27T14:48:46Z</time>
      </trkpt>
      <trkpt lat="44.06478" lon="3.44637">
        <ele>894</ele>
        <time>2017-02-27T14:50:46Z</time>
      </trkpt>
      <trkpt lat="44.06491" lon="3.44634">
        <ele>895</ele>
        <time>2017-02-27T14:52:46Z</time>
      </trkpt>
      <trkpt lat="44.06494" lon="3.44631">
        <ele>895</ele>
        <time>2017-02-27T14:54:46Z</time>
      </trkpt>
      <trkpt lat="44.06498" lon="3.44623">
        <ele>896</ele>
        <time>2017-02-27T14:56:46Z</time>
      </trkpt>
      <trkpt lat="44.06511" lon="3.44631">
        <ele>896</ele>
        <time>2017-02-27T14:58:46Z</time>
      </trkpt>
      <trkpt lat="44.06519" lon="3.44633">
        <ele>896</ele>
        <time>2017-02-27T15:00:46Z</time>
      </trkpt>
      <trkpt lat="44.06529" lon="3.44634">
        <ele>896</ele>
        <time>2017-02-27T15:02:46Z</time>
      </trkpt>
      <trkpt lat="44.06536" lon="3.44634">
        <ele>896</ele>
        <time>2017-02-27T15:04:46Z</time>
      </trkpt>
      <trkpt lat="44.06544" lon="3.44632">
        <ele>896</ele>
        <time>2017-02-27T15:06:46Z</time>
      </trkpt>
      <trkpt lat="44.0655" lon="3.4463">
        <ele>896</ele>
        <time>2017-02-27T15:08:46Z</time>
      </trkpt>
      <trkpt lat="44.0656" lon="3.44624">
        <ele>896</ele>
        <time>2017-02-27T15:10:46Z</time>
      </trkpt>
      <trkpt lat="44.0657" lon="3.44618">
        <ele>897</ele>
        <time>2017-02-27T15:12:46Z</time>
      </trkpt>
      <trkpt lat="44.06575" lon="3.44611">
        <ele>897</ele>
        <time>2017-02-27T15:14:46Z</time>
      </trkpt>
      <trkpt lat="44.06584" lon="3.446">
        <ele>897</ele>
        <time>2017-02-27T15:16:46Z</time>
      </trkpt>
      <trkpt lat="44.06586" lon="3.44612">
        <ele>897</ele>
        <time>2017-02-27T15:18:46Z</time>
      </trkpt>
      <trkpt lat="44.06587" lon="3.44619">
        <ele>897</ele>
        <time>2017-02-27T15:20:46Z</time>
      </trkpt>
      <trkpt lat="44.06588" lon="3.44624">
        <ele>897</ele>
        <time>2017-02-27T15:22:46Z</time>
      </trkpt>
      <trkpt lat="44.06597" lon="3.44626">
        <ele>898</ele>
        <time>2017-02-27T15:24:46Z</time>
      </trkpt>
      <trkpt lat="44.06651" lon="3.44642">
        <ele>902</ele>
        <time>2017-02-27T15:26:46Z</time>
      </trkpt>
      <trkpt lat="44.06668" lon="3.44647">
        <ele>903</ele>
        <time>2017-02-27T15:28:46Z</time>
      </trkpt>
      <trkpt lat="44.06712" lon="3.44649">
        <ele>907</ele>
        <time>2017-02-27T15:30:46Z</time>
      </trkpt>
      <trkpt lat="44.06726" lon="3.44648">
        <ele>909</ele>
        <time>2017-02-27T15:32:46Z</time>
      </trkpt>
      <trkpt lat="44.06736" lon="3.44649">
        <ele>910</ele>
        <time>2017-02-27T15:34:46Z</time>
      </trkpt>
      <trkpt lat="44.06742" lon="3.44651">
        <ele>910</ele>
        <time>2017-02-27T15:36:46Z</time>
      </trkpt>
      <trkpt lat="44.06749" lon="3.44654">
        <ele>911</ele>
        <time>2017-02-27T15:38:46Z</time>
      </trkpt>
      <trkpt lat="44.06767" lon="3.44665">
        <ele>913</ele>
        <time>2017-02-27T15:40:46Z</time>
      </trkpt>
      <trkpt lat="44.068" lon="3.4469">
        <ele>916</ele>
        <time>2017-02-27T15:42:46Z</time>
      </trkpt>
      <trkpt lat="44.06828" lon="3.44709">
        <ele>919</ele>
        <time>2017-02-27T15:44:46Z</time>
      </trkpt>
      <trkpt lat="44.06837" lon="3.44719">
        <ele>920</ele>
        <time>2017-02-27T15:46:46Z</time>
      </trkpt>
      <trkpt lat="44.06841" lon="3.44723">
        <ele>920</ele>
        <time>2017-02-27T15:48:46Z</time>
      </trkpt>
      <trkpt lat="44.06845" lon="3.44734">
        <ele>920</ele>
        <time>2017-02-27T15:50:46Z</time>
      </trkpt>
      <trkpt lat="44.06846" lon="3.44743">
        <ele>919</ele>
        <time>2017-02-27T15:52:46Z</time>
      </trkpt>
      <trkpt lat="44.06846" lon="3.44751">
        <ele>919</ele>
        <time>2017-02-27T15:54:46Z</time>
      </trkpt>
      <trkpt lat="44.06845" lon="3.44763">
        <ele>919</ele>
        <time>2017-02-27T15:56:46Z</time>
      </trkpt>
      <trkpt lat="44.0684" lon="3.44792">
        <ele>919</ele>
        <time>2017-02-27T15:58:46Z</time>
      </trkpt>
      <trkpt lat="44.06839" lon="3.44802">
        <ele>919</ele>
        <time>2017-02-27T16:00:46Z</time>
      </trkpt>
      <trkpt lat="44.06839" lon="3.44809">
        <ele>919</ele>
        <time>2017-02-27T16:02:46Z</time>
      </trkpt>
      <trkpt lat="44.06842" lon="3.44816">
        <ele>920</ele>
        <time>2017-02-27T16:04:46Z</time>
      </trkpt>
      <trkpt lat="44.06845" lon="3.44827">
        <ele>920</ele>
        <time>2017-02-27T16:06:46Z</time>
      </trkpt>
      <trkpt lat="44.06852" lon="3.44837">
        <ele>920</ele>
        <time>2017-02-27T16:08:46Z</time>
      </trkpt>
      <trkpt lat="44.06863" lon="3.44851">
        <ele>918</ele>
        <time>2017-02-27T16:10:46Z</time>
      </trkpt>
      <trkpt lat="44.06897" lon="3.44889">
        <ele>916</ele>
        <time>2017-02-27T16:12:46Z</time>
      </trkpt>
      <trkpt lat="44.06907" lon="3.44898">
        <ele>916</ele>
        <time>2017-02-27T16:14:46Z</time>
      </trkpt>
      <trkpt lat="44.06973" lon="3.44955">
        <ele>918</ele>
        <time>2017-02-27T16:16:46Z</time>
      </trkpt>
      <trkpt lat="44.07" lon="3.44966">
        <ele>920</ele>
        <time>2017-02-27T16:18:46Z</time>
      </trkpt>
      <trkpt lat="44.07012" lon="3.44969">
        <ele>921</ele>
        <time>2017-02-27T16:20:46Z</time>
      </trkpt>
      <trkpt lat="44.07019" lon="3.4497">
        <ele>922</ele>
        <time>2017-02-27T16:22:46Z</time>
      </trkpt>
      <trkpt lat="44.07027" lon="3.44969">
        <ele>923</ele>
        <time>2017-02-27T16:24:46Z</time>
      </trkpt>
      <trkpt lat="44.07034" lon="3.44968">
        <ele>924</ele>
        <time>2017-02-27T16:26:46Z</time>
      </trkpt>
      <trkpt lat="44.07046" lon="3.44965">
        <ele>926</ele>
        <time>2017-02-27T16:28:46Z</time>
      </trkpt>
      <trkpt lat="44.07073" lon="3.44956">
        <ele>932</ele>
        <time>2017-02-27T16:30:46Z</time>
      </trkpt>
      <trkpt lat="44.07112" lon="3.44944">
        <ele>938</ele>
        <time>2017-02-27T16:32:46Z</time>
      </trkpt>
      <trkpt lat="44.07129" lon="3.44941">
        <ele>940</ele>
        <time>2017-02-27T16:34:46Z</time>
      </trkpt>
      <trkpt lat="44.07135" lon="3.44942">
        <ele>941</ele>
        <time>2017-02-27T16:36:46Z</time>
      </trkpt>
      <trkpt lat="44.07139" lon="3.44943">
        <ele>941</ele>
        <time>2017-02-27T16:38:46Z</time>
      </trkpt>
      <trkpt lat="44.07142" lon="3.44946">
        <ele>941</ele>
        <time>2017-02-27T16:40:46Z</time>
      </trkpt>
      <trkpt lat="44.07146" lon="3.4495">
        <ele>942</ele>
        <time>2017-02-27T16:42:46Z</time>
      </trkpt>
      <trkpt lat="44.07148" lon="3.44956">
        <ele>942</ele>
        <time>2017-02-27T16:44:46Z</time>
      </trkpt>
      <trkpt lat="44.07149" lon="3.44962">
        <ele>942</ele>
        <time>2017-02-27T16:46:46Z</time>
      </trkpt>
      <trkpt lat="44.07149" lon="3.44968">
        <ele>942</ele>
        <time>2017-02-27T16:48:46Z</time>
      </trkpt>
      <trkpt lat="44.07148" lon="3.44976">
        <ele>942</ele>
        <time>2017-02-27T16:50:46Z</time>
      </trkpt>
      <trkpt lat="44.07142" lon="3.44986">
        <ele>940</ele>
        <time>2017-02-27T16:52:46Z</time>
      </trkpt>
      <trkpt lat="44.07125" lon="3.45011">
        <ele>937</ele>
        <time>2017-02-27T16:54:46Z</time>
      </trkpt>
      <trkpt lat="44.07116" lon="3.45021">
        <ele>936</ele>
        <time>2017-02-27T16:56:46Z</time>
      </trkpt>
      <trkpt lat="44.07101" lon="3.45035">
        <ele>933</ele>
        <time>2017-02-27T16:58:46Z</time>
      </trkpt>
      <trkpt lat="44.07087" lon="3.45049">
        <ele>930</ele>
        <time>2017-02-27T17:00:46Z</time>
      </trkpt>
      <trkpt lat="44.07082" lon="3.45054">
        <ele>929</ele>
        <time>2017-02-27T17:02:46Z</time>
      </trkpt>
      <trkpt lat="44.07077" lon="3.45061">
        <ele>929</ele>
        <time>2017-02-27T17:04:46Z</time>
      </trkpt>
      <trkpt lat="44.07068" lon="3.45079">
        <ele>929</ele>
        <time>2017-02-27T17:06:46Z</time>
      </trkpt>
      <trkpt lat="44.07058" lon="3.45095">
        <ele>929</ele>
        <time>2017-02-27T17:08:46Z</time>
      </trkpt>
      <trkpt lat="44.0705" lon="3.45105">
        <ele>928</ele>
        <time>2017-02-27T17:10:46Z</time>
      </trkpt>
      <trkpt lat="44.07038" lon="3.45116">
        <ele>927</ele>
        <time>2017-02-27T17:12:46Z</time>
      </trkpt>
      <trkpt lat="44.07021" lon="3.45128">
        <ele>925</ele>
        <time>2017-02-27T17:14:46Z</time>
      </trkpt>
      <trkpt lat="44.06998" lon="3.4514">
        <ele>922</ele>
        <time>2017-02-27T17:16:46Z</time>
      </trkpt>
      <trkpt lat="44.06984" lon="3.45148">
        <ele>920</ele>
        <time>2017-02-27T17:18:46Z</time>
      </trkpt>
      <trkpt lat="44.06976" lon="3.45156">
        <ele>919</ele>
        <time>2017-02-27T17:20:46Z</time>
      </trkpt>
      <trkpt lat="44.06972" lon="3.45163">
        <ele>920</ele>
        <time>2017-02-27T17:22:46Z</time>
      </trkpt>
      <trkpt lat="44.0697" lon="3.45168">
        <ele>920</ele>
        <time>2017-02-27T17:24:46Z</time>
      </trkpt>
      <trkpt lat="44.06969" lon="3.45176">
        <ele>919</ele>
        <time>2017-02-27T17:26:46Z</time>
      </trkpt>
      <trkpt lat="44.06969" lon="3.45183">
        <ele>918</ele>
        <time>2017-02-27T17:28:46Z</time>
      </trkpt>
      <trkpt lat="44.06971" lon="3.45191">
        <ele>918</ele>
        <time>2017-02-27T17:30:46Z</time>
      </trkpt>
      <trkpt lat="44.06975" lon="3.45196">
        <ele>918</ele>
        <time>2017-02-27T17:32:46Z</time>
      </trkpt>
      <trkpt lat="44.06979" lon="3.452">
        <ele>919</ele>
        <time>2017-02-27T17:34:46Z</time>
      </trkpt>
      <trkpt lat="44.06985" lon="3.45204">
        <ele>920</ele>
        <time>2017-02-27T17:36:46Z</time>
      </trkpt>
      <trkpt lat="44.06992" lon="3.45205">
        <ele>921</ele>
        <time>2017-02-27T17:38:46Z</time>
      </trkpt>
      <trkpt lat="44.0703" lon="3.45205">
        <ele>928</ele>
        <time>2017-02-27T17:40:46Z</time>
      </trkpt>
      <trkpt lat="44.07037" lon="3.45204">
        <ele>930</ele>
        <time>2017-02-27T17:42:46Z</time>
      </trkpt>
      <trkpt lat="44.07054" lon="3.45197">
        <ele>933</ele>
        <time>2017-02-27T17:44:46Z</time>
      </trkpt>
      <trkpt lat="44.07061" lon="3.45195">
        <ele>935</ele>
        <time>2017-02-27T17:46:46Z</time>
      </trkpt>
      <trkpt lat="44.07071" lon="3.45194">
        <ele>937</ele>
        <time>2017-02-27T17:48:46Z</time>
      </trkpt>
      <trkpt lat="44.07094" lon="3.45194">
        <ele>940</ele>
        <time>2017-02-27T17:50:46Z</time>
      </trkpt>
      <trkpt lat="44.07112" lon="3.45192">
        <ele>943</ele>
        <time>2017-02-27T17:52:46Z</time>
      </trkpt>
      <trkpt lat="44.07137" lon="3.45187">
        <ele>947</ele>
        <time>2017-02-27T17:54:46Z</time>
      </trkpt>
      <trkpt lat="44.07148" lon="3.45186">
        <ele>948</ele>
        <time>2017-02-27T17:56:46Z</time>
      </trkpt>
      <trkpt lat="44.07156" lon="3.45186">
        <ele>949</ele>
        <time>2017-02-27T17:58:46Z</time>
      </trkpt>
      <trkpt lat="44.07162" lon="3.45188">
        <ele>950</ele>
        <time>2017-02-27T18:00:46Z</time>
      </trkpt>
      <trkpt lat="44.07167" lon="3.45192">
        <ele>950</ele>
        <time>2017-02-27T18:02:46Z</time>
      </trkpt>
      <trkpt lat="44.07171" lon="3.45198">
        <ele>950</ele>
        <time>2017-02-27T18:04:46Z</time>
      </trkpt>
      <trkpt lat="44.07175" lon="3.45204">
        <ele>951</ele>
        <time>2017-02-27T18:06:46Z</time>
      </trkpt>
      <trkpt lat="44.07178" lon="3.45216">
        <ele>950</ele>
        <time>2017-02-27T18:08:46Z</time>
      </trkpt>
      <trkpt lat="44.07182" lon="3.4523">
        <ele>949</ele>
        <time>2017-02-27T18:10:46Z</time>
      </trkpt>
      <trkpt lat="44.07184" lon="3.45258">
        <ele>948</ele>
        <time>2017-02-27T18:12:46Z</time>
      </trkpt>
      <trkpt lat="44.07184" lon="3.45264">
        <ele>949</ele>
        <time>2017-02-27T18:14:46Z</time>
      </trkpt>
      <trkpt lat="44.07183" lon="3.45272">
        <ele>949</ele>
        <time>2017-02-27T18:16:46Z</time>
      </trkpt>
      <trkpt lat="44.07179" lon="3.45281">
        <ele>949</ele>
        <time>2017-02-27T18:18:46Z</time>
      </trkpt>
      <trkpt lat="44.07171" lon="3.453">
        <ele>949</ele>
        <time>2017-02-27T18:20:46Z</time>
      </trkpt>
      <trkpt lat="44.07157" lon="3.45327">
        <ele>948</ele>
        <time>2017-02-27T18:22:46Z</time>
      </trkpt>
      <trkpt lat="44.07133" lon="3.45377">
        <ele>948</ele>
        <time>2017-02-27T18:24:46Z</time>
      </trkpt>
      <trkpt lat="44.07111" lon="3.45425">
        <ele>949</ele>
        <time>2017-02-27T18:26:46Z</time>
      </trkpt>
      <trkpt lat="44.07101" lon="3.45446">
        <ele>948</ele>
        <time>2017-02-27T18:28:46Z</time>
      </trkpt>
      <trkpt lat="44.07097" lon="3.45454">
        <ele>948</ele>
        <time>2017-02-27T18:30:46Z</time>
      </trkpt>
      <trkpt lat="44.07096" lon="3.45459">
        <ele>948</ele>
        <time>2017-02-27T18:32:46Z</time>
      </trkpt>
      <trkpt lat="44.07091" lon="3.45477">
        <ele>949</ele>
        <time>2017-02-27T18:34:46Z</time>
      </trkpt>
      <trkpt lat="44.07085" lon="3.45515">
        <ele>951</ele>
        <time>2017-02-27T18:36:46Z</time>
      </trkpt>
      <trkpt lat="44.07082" lon="3.45525">
        <ele>952</ele>
        <time>2017-02-27T18:38:46Z</time>
      </trkpt>
      <trkpt lat="44.07077" lon="3.45539">
        <ele>953</ele>
        <time>2017-02-27T18:40:46Z</time>
      </trkpt>
      <trkpt lat="44.07067" lon="3.45561">
        <ele>953</ele>
        <time>2017-02-27T18:42:46Z</time>
      </trkpt>
      <trkpt lat="44.07059" lon="3.45581">
        <ele>953</ele>
        <time>2017-02-27T18:44:46Z</time>
      </trkpt>
      <trkpt lat="44.07055" lon="3.45591">
        <ele>954</ele>
        <time>2017-02-27T18:46:46Z</time>
      </trkpt>
      <trkpt lat="44.07053" lon="3.45598">
        <ele>954</ele>
        <time>2017-02-27T18:48:46Z</time>
      </trkpt>
      <trkpt lat="44.07051" lon="3.45615">
        <ele>957</ele>
        <time>2017-02-27T18:50:46Z</time>
      </trkpt>
      <trkpt lat="44.07047" lon="3.45632">
        <ele>960</ele>
        <time>2017-02-27T18:52:46Z</time>
      </trkpt>
      <trkpt lat="44.07044" lon="3.45642">
        <ele>961</ele>
        <time>2017-02-27T18:54:46Z</time>
      </trkpt>
      <trkpt lat="44.07039" lon="3.45649">
        <ele>961</ele>
        <time>2017-02-27T18:56:46Z</time>
      </trkpt>
      <trkpt lat="44.0703" lon="3.4566">
        <ele>962</ele>
        <time>2017-02-27T18:58:46Z</time>
      </trkpt>
      <trkpt lat="44.06999" lon="3.45686">
        <ele>963</ele>
        <time>2017-02-27T19:00:46Z</time>
      </trkpt>
      <trkpt lat="44.06989" lon="3.45692">
        <ele>965</ele>
        <time>2017-02-27T19:02:46Z</time>
      </trkpt>
      <trkpt lat="44.06982" lon="3.45694">
        <ele>965</ele>
        <time>2017-02-27T19:04:46Z</time>
      </trkpt>
      <trkpt lat="44.06974" lon="3.45693">
        <ele>965</ele>
        <time>2017-02-27T19:06:46Z</time>
      </trkpt>
      <trkpt lat="44.06967" lon="3.45692">
        <ele>964</ele>
        <time>2017-02-27T19:08:46Z</time>
      </trkpt>
      <trkpt lat="44.06944" lon="3.45683">
        <ele>961</ele>
        <time>2017-02-27T19:10:46Z</time>
      </trkpt>
      <trkpt lat="44.06936" lon="3.45681">
        <ele>960</ele>
        <time>2017-02-27T19:12:46Z</time>
      </trkpt>
      <trkpt lat="44.06923" lon="3.45679">
        <ele>959</ele>
        <time>2017-02-27T19:14:46Z</time>
      </trkpt>
      <trkpt lat="44.06892" lon="3.45677">
        <ele>954</ele>
        <time>2017-02-27T19:16:46Z</time>
      </trkpt>
      <trkpt lat="44.06886" lon="3.45677">
        <ele>953</ele>
        <time>2017-02-27T19:18:46Z</time>
      </trkpt>
      <trkpt lat="44.0688" lon="3.45678">
        <ele>952</ele>
        <time>2017-02-27T19:20:46Z</time>
      </trkpt>
      <trkpt lat="44.06874" lon="3.4568">
        <ele>952</ele>
        <time>2017-02-27T19:22:46Z</time>
      </trkpt>
      <trkpt lat="44.06867" lon="3.45685">
        <ele>952</ele>
        <time>2017-02-27T19:24:46Z</time>
      </trkpt>
      <trkpt lat="44.06857" lon="3.45694">
        <ele>954</ele>
        <time>2017-02-27T19:26:46Z</time>
      </trkpt>
      <trkpt lat="44.06819" lon="3.4574">
        <ele>959</ele>
        <time>2017-02-27T19:28:46Z</time>
      </trkpt>
      <trkpt lat="44.06776" lon="3.45799">
        <ele>964</ele>
        <time>2017-02-27T19:30:46Z</time>
      </trkpt>
      <trkpt lat="44.06726" lon="3.45861">
        <ele>965</ele>
        <time>2017-02-27T19:32:46Z</time>
      </trkpt>
      <trkpt lat="44.06709" lon="3.45884">
        <ele>964</ele>
        <time>2017-02-27T19:34:46Z</time>
      </trkpt>
      <trkpt lat="44.06704" lon="3.45892">
        <ele>963</ele>
        <time>2017-02-27T19:36:46Z</time>
      </trkpt>
      <trkpt lat="44.06701" lon="3.459">
        <ele>964</ele>
        <time>2017-02-27T19:38:46Z</time>
      </trkpt>
      <trkpt lat="44.06698" lon="3.45908">
        <ele>964</ele>
        <time>2017-02-27T19:40:46Z</time>
      </trkpt>
      <trkpt lat="44.06697" lon="3.45925">
        <ele>966</ele>
        <time>2017-02-27T19:42:46Z</time>
      </trkpt>
      <trkpt lat="44.06698" lon="3.45933">
        <ele>966</ele>
        <time>2017-02-27T19:44:46Z</time>
      </trkpt>
      <trkpt lat="44.06707" lon="3.45977">
        <ele>972</ele>
        <time>2017-02-27T19:46:46Z</time>
      </trkpt>
      <trkpt lat="44.06708" lon="3.45995">
        <ele>973</ele>
        <time>2017-02-27T19:48:46Z</time>
      </trkpt>
      <trkpt lat="44.06707" lon="3.46005">
        <ele>973</ele>
        <time>2017-02-27T19:50:46Z</time>
      </trkpt>
      <trkpt lat="44.06706" lon="3.46017">
        <ele>973</ele>
        <time>2017-02-27T19:52:46Z</time>
      </trkpt>
      <trkpt lat="44.06703" lon="3.46032">
        <ele>973</ele>
        <time>2017-02-27T19:54:46Z</time>
      </trkpt>
      <trkpt lat="44.06701" lon="3.46043">
        <ele>972</ele>
        <time>2017-02-27T19:56:46Z</time>
      </trkpt>
      <trkpt lat="44.067" lon="3.46053">
        <ele>972</ele>
        <time>2017-02-27T19:58:46Z</time>
      </trkpt>
      <trkpt lat="44.06699" lon="3.46068">
        <ele>973</ele>
        <time>2017-02-27T20:00:46Z</time>
      </trkpt>
      <trkpt lat="44.067" lon="3.46098">
        <ele>973</ele>
        <time>2017-02-27T20:02:46Z</time>
      </trkpt>
      <trkpt lat="44.067" lon="3.46105">
        <ele>973</ele>
        <time>2017-02-27T20:04:46Z</time>
      </trkpt>
      <trkpt lat="44.06699" lon="3.46115">
        <ele>972</ele>
        <time>2017-02-27T20:06:46Z</time>
      </trkpt>
      <trkpt lat="44.06693" lon="3.46143">
        <ele>969</ele>
        <time>2017-02-27T20:08:46Z</time>
      </trkpt>
      <trkpt lat="44.06691" lon="3.46158">
        <ele>968</ele>
        <time>2017-02-27T20:10:46Z</time>
      </trkpt>
      <trkpt lat="44.06691" lon="3.46169">
        <ele>968</ele>
        <time>2017-02-27T20:12:46Z</time>
      </trkpt>
      <trkpt lat="44.06692" lon="3.46177">
        <ele>967</ele>
        <time>2017-02-27T20:14:46Z</time>
      </trkpt>
      <trkpt lat="44.06693" lon="3.46183">
        <ele>966</ele>
        <time>2017-02-27T20:16:46Z</time>
      </trkpt>
      <trkpt lat="44.06697" lon="3.46191">
        <ele>966</ele>
        <time>2017-02-27T20:18:46Z</time>
      </trkpt>
      <trkpt lat="44.06702" lon="3.46198">
        <ele>966</ele>
        <time>2017-02-27T20:20:46Z</time>
      </trkpt>
      <trkpt lat="44.06708" lon="3.46201">
        <ele>967</ele>
        <time>2017-02-27T20:22:46Z</time>
      </trkpt>
      <trkpt lat="44.06714" lon="3.46203">
        <ele>969</ele>
        <time>2017-02-27T20:24:46Z</time>
      </trkpt>
      <trkpt lat="44.0672" lon="3.46202">
        <ele>970</ele>
        <time>2017-02-27T20:26:46Z</time>
      </trkpt>
      <trkpt lat="44.06732" lon="3.46199">
        <ele>974</ele>
        <time>2017-02-27T20:28:46Z</time>
      </trkpt>
      <trkpt lat="44.06738" lon="3.46199">
        <ele>975</ele>
        <time>2017-02-27T20:30:46Z</time>
      </trkpt>
      <trkpt lat="44.06743" lon="3.46199">
        <ele>976</ele>
        <time>2017-02-27T20:32:46Z</time>
      </trkpt>
      <trkpt lat="44.06748" lon="3.462">
        <ele>977</ele>
        <time>2017-02-27T20:34:46Z</time>
      </trkpt>
      <trkpt lat="44.06756" lon="3.462">
        <ele>979</ele>
        <time>2017-02-27T20:36:46Z</time>
      </trkpt>
      <trkpt lat="44.06766" lon="3.46201">
        <ele>981</ele>
        <time>2017-02-27T20:38:46Z</time>
      </trkpt>
      <trkpt lat="44.06778" lon="3.46206">
        <ele>982</ele>
        <time>2017-02-27T20:40:46Z</time>
      </trkpt>
      <trkpt lat="44.06794" lon="3.4621">
        <ele>984</ele>
        <time>2017-02-27T20:42:46Z</time>
      </trkpt>
      <trkpt lat="44.06806" lon="3.46214">
        <ele>986</ele>
        <time>2017-02-27T20:44:46Z</time>
      </trkpt>
      <trkpt lat="44.06821" lon="3.4622">
        <ele>987</ele>
        <time>2017-02-27T20:46:46Z</time>
      </trkpt>
      <trkpt lat="44.06852" lon="3.46238">
        <ele>990</ele>
        <time>2017-02-27T20:48:46Z</time>
      </trkpt>
      <trkpt lat="44.06857" lon="3.46242">
        <ele>990</ele>
        <time>2017-02-27T20:50:46Z</time>
      </trkpt>
      <trkpt lat="44.0686" lon="3.46245">
        <ele>991</ele>
        <time>2017-02-27T20:52:46Z</time>
      </trkpt>
      <trkpt lat="44.06861" lon="3.46252">
        <ele>989</ele>
        <time>2017-02-27T20:54:46Z</time>
      </trkpt>
      <trkpt lat="44.06864" lon="3.46265">
        <ele>989</ele>
        <time>2017-02-27T20:56:46Z</time>
      </trkpt>
      <trkpt lat="44.06864" lon="3.46278">
        <ele>988</ele>
        <time>2017-02-27T20:58:46Z</time>
      </trkpt>
      <trkpt lat="44.06865" lon="3.46286">
        <ele>987</ele>
        <time>2017-02-27T21:00:46Z</time>
      </trkpt>
      <trkpt lat="44.06868" lon="3.46294">
        <ele>988</ele>
        <time>2017-02-27T21:02:46Z</time>
      </trkpt>
      <trkpt lat="44.06874" lon="3.4631">
        <ele>988</ele>
        <time>2017-02-27T21:04:46Z</time>
      </trkpt>
      <trkpt lat="44.06879" lon="3.46321">
        <ele>989</ele>
        <time>2017-02-27T21:06:46Z</time>
      </trkpt>
      <trkpt lat="44.06881" lon="3.46331">
        <ele>989</ele>
        <time>2017-02-27T21:08:46Z</time>
      </trkpt>
      <trkpt lat="44.06881" lon="3.46338">
        <ele>989</ele>
        <time>2017-02-27T21:10:46Z</time>
      </trkpt>
      <trkpt lat="44.0688" lon="3.46348">
        <ele>987</ele>
        <time>2017-02-27T21:12:46Z</time>
      </trkpt>
      <trkpt lat="44.06876" lon="3.46367">
        <ele>984</ele>
        <time>2017-02-27T21:14:46Z</time>
      </trkpt>
      <trkpt lat="44.06875" lon="3.46375">
        <ele>984</ele>
        <time>2017-02-27T21:16:46Z</time>
      </trkpt>
      <trkpt lat="44.06875" lon="3.46385">
        <ele>983</ele>
        <time>2017-02-27T21:18:46Z</time>
      </trkpt>
      <trkpt lat="44.06876" lon="3.46393">
        <ele>983</ele>
        <time>2017-02-27T21:20:46Z</time>
      </trkpt>
      <trkpt lat="44.06879" lon="3.46401">
        <ele>983</ele>
        <time>2017-02-27T21:22:46Z</time>
      </trkpt>
      <trkpt lat="44.06882" lon="3.46409">
        <ele>983</ele>
        <time>2017-02-27T21:24:46Z</time>
      </trkpt>
      <trkpt lat="44.06886" lon="3.46416">
        <ele>984</ele>
        <time>2017-02-27T21:26:46Z</time>
      </trkpt>
      <trkpt lat="44.06891" lon="3.46422">
        <ele>985</ele>
        <time>2017-02-27T21:28:46Z</time>
      </trkpt>
      <trkpt lat="44.06905" lon="3.46429">
        <ele>988</ele>
        <time>2017-02-27T21:30:46Z</time>
      </trkpt>
      <trkpt lat="44.06921" lon="3.46438">
        <ele>991</ele>
        <time>2017-02-27T21:32:46Z</time>
      </trkpt>
      <trkpt lat="44.06927" lon="3.46444">
        <ele>991</ele>
        <time>2017-02-27T21:34:46Z</time>
      </trkpt>
      <trkpt lat="44.06934" lon="3.46453">
        <ele>992</ele>
        <time>2017-02-27T21:36:46Z</time>
      </trkpt>
      <trkpt lat="44.06939" lon="3.46461">
        <ele>991</ele>
        <time>2017-02-27T21:38:46Z</time>
      </trkpt>
      <trkpt lat="44.06943" lon="3.46471">
        <ele>991</ele>
        <time>2017-02-27T21:40:46Z</time>
      </trkpt>
      <trkpt lat="44.06947" lon="3.46484">
        <ele>990</ele>
        <time>2017-02-27T21:42:46Z</time>
      </trkpt>
      <trkpt lat="44.06949" lon="3.46497">
        <ele>988</ele>
        <time>2017-02-27T21:44:46Z</time>
      </trkpt>
      <trkpt lat="44.06954" lon="3.46509">
        <ele>987</ele>
        <time>2017-02-27T21:46:46Z</time>
      </trkpt>
      <trkpt lat="44.06962" lon="3.46523">
        <ele>986</ele>
        <time>2017-02-27T21:48:46Z</time>
      </trkpt>
      <trkpt lat="44.0697" lon="3.46534">
        <ele>985</ele>
        <time>2017-02-27T21:50:46Z</time>
      </trkpt>
      <trkpt lat="44.06978" lon="3.46539">
        <ele>985</ele>
        <time>2017-02-27T21:52:46Z</time>
      </trkpt>
      <trkpt lat="44.06986" lon="3.46541">
        <ele>986</ele>
        <time>2017-02-27T21:54:46Z</time>
      </trkpt>
      <trkpt lat="44.06998" lon="3.46542">
        <ele>987</ele>
        <time>2017-02-27T21:56:46Z</time>
      </trkpt>
      <trkpt lat="44.0702" lon="3.46541">
        <ele>988</ele>
        <time>2017-02-27T21:58:46Z</time>
      </trkpt>
      <trkpt lat="44.07044" lon="3.46536">
        <ele>990</ele>
        <time>2017-02-27T22:00:46Z</time>
      </trkpt>
      <trkpt lat="44.07075" lon="3.46524">
        <ele>994</ele>
        <time>2017-02-27T22:02:46Z</time>
      </trkpt>
      <trkpt lat="44.07113" lon="3.46508">
        <ele>995</ele>
        <time>2017-02-27T22:04:46Z</time>
      </trkpt>
      <trkpt lat="44.07127" lon="3.465">
        <ele>995</ele>
        <time>2017-02-27T22:06:46Z</time>
      </trkpt>
      <trkpt lat="44.07133" lon="3.46495">
        <ele>996</ele>
        <time>2017-02-27T22:08:46Z</time>
      </trkpt>
      <trkpt lat="44.07139" lon="3.46488">
        <ele>997</ele>
        <time>2017-02-27T22:10:46Z</time>
      </trkpt>
      <trkpt lat="44.07145" lon="3.4648">
        <ele>998</ele>
        <time>2017-02-27T22:12:46Z</time>
      </trkpt>
      <trkpt lat="44.07151" lon="3.46469">
        <ele>1000</ele>
        <time>2017-02-27T22:14:46Z</time>
      </trkpt>
      <trkpt lat="44.07155" lon="3.46463">
        <ele>1001</ele>
        <time>2017-02-27T22:16:46Z</time>
      </trkpt>
      <trkpt lat="44.0716" lon="3.46459">
        <ele>1002</ele>
        <time>2017-02-27T22:18:46Z</time>
      </trkpt>
      <trkpt lat="44.07166" lon="3.46457">
        <ele>1002</ele>
        <time>2017-02-27T22:20:46Z</time>
      </trkpt>
      <trkpt lat="44.07216" lon="3.46446">
        <ele>1001</ele>
        <time>2017-02-27T22:22:46Z</time>
      </trkpt>
      <trkpt lat="44.07235" lon="3.46443">
        <ele>1001</ele>
        <time>2017-02-27T22:24:46Z</time>
      </trkpt>
      <trkpt lat="44.07241" lon="3.46441">
        <ele>1001</ele>
        <time>2017-02-27T22:26:46Z</time>
      </trkpt>
      <trkpt lat="44.07247" lon="3.46437">
        <ele>1002</ele>
        <time>2017-02-27T22:28:46Z</time>
      </trkpt>
      <trkpt lat="44.0726" lon="3.46426">
        <ele>1005</ele>
        <time>2017-02-27T22:30:46Z</time>
      </trkpt>
      <trkpt lat="44.07267" lon="3.46421">
        <ele>1006</ele>
        <time>2017-02-27T22:32:46Z</time>
      </trkpt>
      <trkpt lat="44.07275" lon="3.46419">
        <ele>1006</ele>
        <time>2017-02-27T22:34:46Z</time>
      </trkpt>
      <trkpt lat="44.07284" lon="3.46417">
        <ele>1006</ele>
        <time>2017-02-27T22:36:46Z</time>
      </trkpt>
      <trkpt lat="44.07307" lon="3.46417">
        <ele>1003</ele>
        <time>2017-02-27T22:38:46Z</time>
      </trkpt>
      <trkpt lat="44.07317" lon="3.46413">
        <ele>1003</ele>
        <time>2017-02-27T22:40:46Z</time>
      </trkpt>
      <trkpt lat="44.07326" lon="3.46406">
        <ele>1005</ele>
        <time>2017-02-27T22:42:46Z</time>
      </trkpt>
      <trkpt lat="44.07334" lon="3.46404">
        <ele>1005</ele>
        <time>2017-02-27T22:44:46Z</time>
      </trkpt>
      <trkpt lat="44.0734" lon="3.46405">
        <ele>1005</ele>
        <time>2017-02-27T22:46:46Z</time>
      </trkpt>
      <trkpt lat="44.07355" lon="3.46412">
        <ele>1003</ele>
        <time>2017-02-27T22:48:46Z</time>
      </trkpt>
      <trkpt lat="44.07373" lon="3.46415">
        <ele>1002</ele>
        <time>2017-02-27T22:50:46Z</time>
      </trkpt>
      <trkpt lat="44.0739" lon="3.46415">
        <ele>1003</ele>
        <time>2017-02-27T22:52:46Z</time>
      </trkpt>
      <trkpt lat="44.07404" lon="3.46415">
        <ele>1003</ele>
        <time>2017-02-27T22:54:46Z</time>
      </trkpt>
      <trkpt lat="44.07413" lon="3.46412">
        <ele>1004</ele>
        <time>2017-02-27T22:56:46Z</time>
      </trkpt>
      <trkpt lat="44.07424" lon="3.46406">
        <ele>1007</ele>
        <time>2017-02-27T22:58:46Z</time>
      </trkpt>
      <trkpt lat="44.07434" lon="3.46402">
        <ele>1010</ele>
        <time>2017-02-27T23:00:46Z</time>
      </trkpt>
      <trkpt lat="44.07441" lon="3.464">
        <ele>1011</ele>
        <time>2017-02-27T23:02:46Z</time>
      </trkpt>
      <trkpt lat="44.07453" lon="3.464">
        <ele>1013</ele>
        <time>2017-02-27T23:04:46Z</time>
      </trkpt>
      <trkpt lat="44.07476" lon="3.46405">
        <ele>1014</ele>
        <time>2017-02-27T23:06:46Z</time>
      </trkpt>
      <trkpt lat="44.07483" lon="3.46409">
        <ele>1014</ele>
        <time>2017-02-27T23:08:46Z</time>
      </trkpt>
      <trkpt lat="44.07477" lon="3.46405">
        <ele>1014</ele>
        <time>2017-02-27T23:10:46Z</time>
      </trkpt>
      <trkpt lat="44.07483" lon="3.46409">
        <ele>1014</ele>
        <time>2017-02-27T23:12:46Z</time>
      </trkpt>
      <trkpt lat="44.07488" lon="3.46414">
        <ele>1013</ele>
        <time>2017-02-27T23:14:46Z</time>
      </trkpt>
      <trkpt lat="44.07492" lon="3.46421">
        <ele>1013</ele>
        <time>2017-02-27T23:16:46Z</time>
      </trkpt>
      <trkpt lat="44.07494" lon="3.46428">
        <ele>1013</ele>
        <time>2017-02-27T23:18:46Z</time>
      </trkpt>
      <trkpt lat="44.07494" lon="3.46433">
        <ele>1013</ele>
        <time>2017-02-27T23:20:46Z</time>
      </trkpt>
      <trkpt lat="44.07492" lon="3.46466">
        <ele>1011</ele>
        <time>2017-02-27T23:22:46Z</time>
      </trkpt>
      <trkpt lat="44.07492" lon="3.46478">
        <ele>1010</ele>
        <time>2017-02-27T23:24:46Z</time>
      </trkpt>
      <trkpt lat="44.07497" lon="3.46505">
        <ele>1011</ele>
        <time>2017-02-27T23:26:46Z</time>
      </trkpt>
      <trkpt lat="44.07513" lon="3.46575">
        <ele>1010</ele>
        <time>2017-02-27T23:28:46Z</time>
      </trkpt>
      <trkpt lat="44.07519" lon="3.46603">
        <ele>1009</ele>
        <time>2017-02-27T23:30:46Z</time>
      </trkpt>
      <trkpt lat="44.07526" lon="3.46628">
        <ele>1008</ele>
        <time>2017-02-27T23:32:46Z</time>
      </trkpt>
      <trkpt lat="44.0753" lon="3.4664">
        <ele>1008</ele>
        <time>2017-02-27T23:34:46Z</time>
      </trkpt>
      <trkpt lat="44.07535" lon="3.46645">
        <ele>1008</ele>
        <time>2017-02-27T23:36:46Z</time>
      </trkpt>
      <trkpt lat="44.07542" lon="3.46651">
        <ele>1008</ele>
        <time>2017-02-27T23:38:46Z</time>
      </trkpt>
      <trkpt lat="44.07547" lon="3.46653">
        <ele>1008</ele>
        <time>2017-02-27T23:40:46Z</time>
      </trkpt>
      <trkpt lat="44.07553" lon="3.46653">
        <ele>1009</ele>
        <time>2017-02-27T23:42:46Z</time>
      </trkpt>
      <trkpt lat="44.07559" lon="3.46652">
        <ele>1010</ele>
        <time>2017-02-27T23:44:46Z</time>
      </trkpt>
      <trkpt lat="44.07592" lon="3.46645">
        <ele>1014</ele>
        <time>2017-02-27T23:46:46Z</time>
      </trkpt>
      <trkpt lat="44.07613" lon="3.4664">
        <ele>1014</ele>
        <time>2017-02-27T23:48:46Z</time>
      </trkpt>
      <trkpt lat="44.0762" lon="3.46635">
        <ele>1015</ele>
        <time>2017-02-27T23:50:46Z</time>
      </trkpt>
      <trkpt lat="44.0763" lon="3.46628">
        <ele>1016</ele>
        <time>2017-02-27T23:52:46Z</time>
      </trkpt>
      <trkpt lat="44.07638" lon="3.46619">
        <ele>1018</ele>
        <time>2017-02-27T23:54:46Z</time>
      </trkpt>
      <trkpt lat="44.07652" lon="3.46608">
        <ele>1021</ele>
        <time>2017-02-27T23:56:46Z</time>
      </trkpt>
      <trkpt lat="44.07669" lon="3.46598">
        <ele>1024</ele>
        <time>2017-02-27T23:58:46Z</time>
      </trkpt>
      <trkpt lat="44.07685" lon="3.46593">
        <ele>1026</ele>
        <time>2017-02-28T00:00:46Z</time>
      </trkpt>
      <trkpt lat="44.07699" lon="3.46592">
        <ele>1027</ele>
        <time>2017-02-28T00:02:46Z</time>
      </trkpt>
      <trkpt lat="44.07706" lon="3.46593">
        <ele>1028</ele>
        <time>2017-02-28T00:04:46Z</time>
      </trkpt>
      <trkpt lat="44.07721" lon="3.466">
        <ele>1026</ele>
        <time>2017-02-28T00:06:46Z</time>
      </trkpt>
      <trkpt lat="44.07782" lon="3.46635">
        <ele>1025</ele>
        <time>2017-02-28T00:08:46Z</time>
      </trkpt>
      <trkpt lat="44.07807" lon="3.46649">
        <ele>1025</ele>
        <time>2017-02-28T00:10:46Z</time>
      </trkpt>
      <trkpt lat="44.07853" lon="3.46669">
        <ele>1025</ele>
        <time>2017-02-28T00:12:46Z</time>
      </trkpt>
      <trkpt lat="44.07862" lon="3.46672">
        <ele>1026</ele>
        <time>2017-02-28T00:14:46Z</time>
      </trkpt>
      <trkpt lat="44.07871" lon="3.46674">
        <ele>1026</ele>
        <time>2017-02-28T00:16:46Z</time>
      </trkpt>
      <trkpt lat="44.07881" lon="3.46674">
        <ele>1027</ele>
        <time>2017-02-28T00:18:46Z</time>
      </trkpt>
      <trkpt lat="44.07896" lon="3.46674">
        <ele>1029</ele>
        <time>2017-02-28T00:20:46Z</time>
      </trkpt>
      <trkpt lat="44.07906" lon="3.46673">
        <ele>1030</ele>
        <time>2017-02-28T00:22:46Z</time>
      </trkpt>
      <trkpt lat="44.07916" lon="3.46674">
        <ele>1031</ele>
        <time>2017-02-28T00:24:46Z</time>
      </trkpt>
      <trkpt lat="44.07931" lon="3.46682">
        <ele>1033</ele>
        <time>2017-02-28T00:26:46Z</time>
      </trkpt>
      <trkpt lat="44.07935" lon="3.46687">
        <ele>1033</ele>
        <time>2017-02-28T00:28:46Z</time>
      </trkpt>
      <trkpt lat="44.07939" lon="3.46693">
        <ele>1033</ele>
        <time>2017-02-28T00:30:46Z</time>
      </trkpt>
      <trkpt lat="44.07942" lon="3.46704">
        <ele>1032</ele>
        <time>2017-02-28T00:32:46Z</time>
      </trkpt>
      <trkpt lat="44.07945" lon="3.46717">
        <ele>1032</ele>
        <time>2017-02-28T00:34:46Z</time>
      </trkpt>
      <trkpt lat="44.07947" lon="3.46729">
        <ele>1031</ele>
        <time>2017-02-28T00:36:46Z</time>
      </trkpt>
      <trkpt lat="44.07948" lon="3.46758">
        <ele>1028</ele>
        <time>2017-02-28T00:38:46Z</time>
      </trkpt>
      <trkpt lat="44.07949" lon="3.4677">
        <ele>1026</ele>
        <time>2017-02-28T00:40:46Z</time>
      </trkpt>
      <trkpt lat="44.0795" lon="3.46777">
        <ele>1026</ele>
        <time>2017-02-28T00:42:46Z</time>
      </trkpt>
      <trkpt lat="44.07954" lon="3.46787">
        <ele>1025</ele>
        <time>2017-02-28T00:44:46Z</time>
      </trkpt>
      <trkpt lat="44.07959" lon="3.46796">
        <ele>1025</ele>
        <time>2017-02-28T00:46:46Z</time>
      </trkpt>
      <trkpt lat="44.07965" lon="3.46804">
        <ele>1025</ele>
        <time>2017-02-28T00:48:46Z</time>
      </trkpt>
      <trkpt lat="44.07974" lon="3.46812">
        <ele>1027</ele>
        <time>2017-02-28T00:50:46Z</time>
      </trkpt>
      <trkpt lat="44.08001" lon="3.46832">
        <ele>1030</ele>
        <time>2017-02-28T00:52:46Z</time>
      </trkpt>
      <trkpt lat="44.08021" lon="3.46845">
        <ele>1033</ele>
        <time>2017-02-28T00:54:46Z</time>
      </trkpt>
      <trkpt lat="44.0803" lon="3.46853">
        <ele>1033</ele>
        <time>2017-02-28T00:56:46Z</time>
      </trkpt>
      <trkpt lat="44.0804" lon="3.46863">
        <ele>1034</ele>
        <time>2017-02-28T00:58:46Z</time>
      </trkpt>
      <trkpt lat="44.08057" lon="3.46883">
        <ele>1033</ele>
        <time>2017-02-28T01:00:46Z</time>
      </trkpt>
      <trkpt lat="44.08081" lon="3.46909">
        <ele>1033</ele>
        <time>2017-02-28T01:02:46Z</time>
      </trkpt>
      <trkpt lat="44.08095" lon="3.46924">
        <ele>1034</ele>
        <time>2017-02-28T01:04:46Z</time>
      </trkpt>
      <trkpt lat="44.08108" lon="3.46935">
        <ele>1035</ele>
        <time>2017-02-28T01:06:46Z</time>
      </trkpt>
      <trkpt lat="44.08129" lon="3.4695">
        <ele>1037</ele>
        <time>2017-02-28T01:08:46Z</time>
      </trkpt>
      <trkpt lat="44.08141" lon="3.46957">
        <ele>1039</ele>
        <time>2017-02-28T01:10:46Z</time>
      </trkpt>
      <trkpt lat="44.08148" lon="3.46963">
        <ele>1040</ele>
        <time>2017-02-28T01:12:46Z</time>
      </trkpt>
      <trkpt lat="44.08154" lon="3.4697">
        <ele>1040</ele>
        <time>2017-02-28T01:14:46Z</time>
      </trkpt>
      <trkpt lat="44.08156" lon="3.46975">
        <ele>1040</ele>
        <time>2017-02-28T01:16:46Z</time>
      </trkpt>
      <trkpt lat="44.08158" lon="3.46981">
        <ele>1040</ele>
        <time>2017-02-28T01:18:46Z</time>
      </trkpt>
      <trkpt lat="44.0816" lon="3.46993">
        <ele>1038</ele>
        <time>2017-02-28T01:20:46Z</time>
      </trkpt>
      <trkpt lat="44.0816" lon="3.47">
        <ele>1038</ele>
        <time>2017-02-28T01:22:46Z</time>
      </trkpt>
      <trkpt lat="44.08158" lon="3.47006">
        <ele>1038</ele>
        <time>2017-02-28T01:24:46Z</time>
      </trkpt>
      <trkpt lat="44.08156" lon="3.47013">
        <ele>1038</ele>
        <time>2017-02-28T01:26:46Z</time>
      </trkpt>
      <trkpt lat="44.08154" lon="3.47018">
        <ele>1039</ele>
        <time>2017-02-28T01:28:46Z</time>
      </trkpt>
      <trkpt lat="44.08149" lon="3.47023">
        <ele>1038</ele>
        <time>2017-02-28T01:30:46Z</time>
      </trkpt>
      <trkpt lat="44.08147" lon="3.47025">
        <ele>1038</ele>
        <time>2017-02-28T01:32:46Z</time>
      </trkpt>
      <trkpt lat="44.08136" lon="3.47038">
        <ele>1037</ele>
        <time>2017-02-28T01:34:46Z</time>
      </trkpt>
      <trkpt lat="44.08118" lon="3.4705">
        <ele>1034</ele>
        <time>2017-02-28T01:36:46Z</time>
      </trkpt>
      <trkpt lat="44.08115" lon="3.47055">
        <ele>1033</ele>
        <time>2017-02-28T01:38:46Z</time>
      </trkpt>
      <trkpt lat="44.08102" lon="3.47088">
        <ele>1033</ele>
        <time>2017-02-28T01:40:46Z</time>
      </trkpt>
      <trkpt lat="44.08102" lon="3.47093">
        <ele>1033</ele>
        <time>2017-02-28T01:42:46Z</time>
      </trkpt>
      <trkpt lat="44.08104" lon="3.471">
        <ele>1034</ele>
        <time>2017-02-28T01:44:46Z</time>
      </trkpt>
      <trkpt lat="44.08106" lon="3.47106">
        <ele>1035</ele>
        <time>2017-02-28T01:46:46Z</time>
      </trkpt>
      <trkpt lat="44.08114" lon="3.4712">
        <ele>1038</ele>
        <time>2017-02-28T01:48:46Z</time>
      </trkpt>
      <trkpt lat="44.08117" lon="3.47126">
        <ele>1039</ele>
        <time>2017-02-28T01:50:46Z</time>
      </trkpt>
      <trkpt lat="44.08118" lon="3.47135">
        <ele>1039</ele>
        <time>2017-02-28T01:52:46Z</time>
      </trkpt>
      <trkpt lat="44.08118" lon="3.47145">
        <ele>1040</ele>
        <time>2017-02-28T01:54:46Z</time>
      </trkpt>
      <trkpt lat="44.08117" lon="3.47164">
        <ele>1040</ele>
        <time>2017-02-28T01:56:46Z</time>
      </trkpt>
      <trkpt lat="44.08116" lon="3.47182">
        <ele>1041</ele>
        <time>2017-02-28T01:58:46Z</time>
      </trkpt>
      <trkpt lat="44.08116" lon="3.47207">
        <ele>1043</ele>
        <time>2017-02-28T02:00:46Z</time>
      </trkpt>
      <trkpt lat="44.08118" lon="3.47216">
        <ele>1044</ele>
        <time>2017-02-28T02:02:46Z</time>
      </trkpt>
      <trkpt lat="44.08119" lon="3.47222">
        <ele>1045</ele>
        <time>2017-02-28T02:04:46Z</time>
      </trkpt>
      <trkpt lat="44.08119" lon="3.47228">
        <ele>1045</ele>
        <time>2017-02-28T02:06:46Z</time>
      </trkpt>
      <trkpt lat="44.08116" lon="3.4724">
        <ele>1045</ele>
        <time>2017-02-28T02:08:46Z</time>
      </trkpt>
      <trkpt lat="44.08114" lon="3.47246">
        <ele>1045</ele>
        <time>2017-02-28T02:10:46Z</time>
      </trkpt>
      <trkpt lat="44.08108" lon="3.47254">
        <ele>1044</ele>
        <time>2017-02-28T02:12:46Z</time>
      </trkpt>
      <trkpt lat="44.081" lon="3.47258">
        <ele>1041</ele>
        <time>2017-02-28T02:14:46Z</time>
      </trkpt>
      <trkpt lat="44.08091" lon="3.47252">
        <ele>1038</ele>
        <time>2017-02-28T02:16:46Z</time>
      </trkpt>
      <trkpt lat="44.08086" lon="3.4726">
        <ele>1037</ele>
        <time>2017-02-28T02:18:46Z</time>
      </trkpt>
      <trkpt lat="44.08079" lon="3.47276">
        <ele>1035</ele>
        <time>2017-02-28T02:20:46Z</time>
      </trkpt>
      <trkpt lat="44.08059" lon="3.47337">
        <ele>1035</ele>
        <time>2017-02-28T02:22:46Z</time>
      </trkpt>
      <trkpt lat="44.08055" lon="3.47357">
        <ele>1037</ele>
        <time>2017-02-28T02:24:46Z</time>
      </trkpt>
      <trkpt lat="44.0805" lon="3.4737">
        <ele>1039</ele>
        <time>2017-02-28T02:26:46Z</time>
      </trkpt>
      <trkpt lat="44.08043" lon="3.4738">
        <ele>1039</ele>
        <time>2017-02-28T02:28:46Z</time>
      </trkpt>
      <trkpt lat="44.08032" lon="3.47391">
        <ele>1039</ele>
        <time>2017-02-28T02:30:46Z</time>
      </trkpt>
      <trkpt lat="44.08001" lon="3.47408">
        <ele>1037</ele>
        <time>2017-02-28T02:32:46Z</time>
      </trkpt>
      <trkpt lat="44.07989" lon="3.47413">
        <ele>1037</ele>
        <time>2017-02-28T02:34:46Z</time>
      </trkpt>
      <trkpt lat="44.07958" lon="3.47412">
        <ele>1035</ele>
        <time>2017-02-28T02:36:46Z</time>
      </trkpt>
      <trkpt lat="44.07946" lon="3.47415">
        <ele>1035</ele>
        <time>2017-02-28T02:38:46Z</time>
      </trkpt>
      <trkpt lat="44.07934" lon="3.47428">
        <ele>1037</ele>
        <time>2017-02-28T02:40:46Z</time>
      </trkpt>
      <trkpt lat="44.07929" lon="3.47434">
        <ele>1038</ele>
        <time>2017-02-28T02:42:46Z</time>
      </trkpt>
      <trkpt lat="44.07918" lon="3.47454">
        <ele>1042</ele>
        <time>2017-02-28T02:44:46Z</time>
      </trkpt>
      <trkpt lat="44.07902" lon="3.47495">
        <ele>1051</ele>
        <time>2017-02-28T02:46:46Z</time>
      </trkpt>
      <trkpt lat="44.07898" lon="3.47499">
        <ele>1052</ele>
        <time>2017-02-28T02:48:46Z</time>
      </trkpt>
      <trkpt lat="44.07892" lon="3.47501">
        <ele>1052</ele>
        <time>2017-02-28T02:50:46Z</time>
      </trkpt>
      <trkpt lat="44.07885" lon="3.47502">
        <ele>1052</ele>
        <time>2017-02-28T02:52:46Z</time>
      </trkpt>
      <trkpt lat="44.07851" lon="3.47493">
        <ele>1049</ele>
        <time>2017-02-28T02:54:46Z</time>
      </trkpt>
      <trkpt lat="44.07832" lon="3.47495">
        <ele>1048</ele>
        <time>2017-02-28T02:56:46Z</time>
      </trkpt>
      <trkpt lat="44.07792" lon="3.47502">
        <ele>1049</ele>
        <time>2017-02-28T02:58:46Z</time>
      </trkpt>
      <trkpt lat="44.07763" lon="3.47512">
        <ele>1050</ele>
        <time>2017-02-28T03:00:46Z</time>
      </trkpt>
      <trkpt lat="44.07745" lon="3.47522">
        <ele>1052</ele>
        <time>2017-02-28T03:02:46Z</time>
      </trkpt>
      <trkpt lat="44.07708" lon="3.47546">
        <ele>1054</ele>
        <time>2017-02-28T03:04:46Z</time>
      </trkpt>
      <trkpt lat="44.07679" lon="3.47563">
        <ele>1056</ele>
        <time>2017-02-28T03:06:46Z</time>
      </trkpt>
      <trkpt lat="44.07654" lon="3.47576">
        <ele>1058</ele>
        <time>2017-02-28T03:08:46Z</time>
      </trkpt>
      <trkpt lat="44.07636" lon="3.47586">
        <ele>1060</ele>
        <time>2017-02-28T03:10:46Z</time>
      </trkpt>
      <trkpt lat="44.0761" lon="3.47608">
        <ele>1065</ele>
        <time>2017-02-28T03:12:46Z</time>
      </trkpt>
      <trkpt lat="44.07581" lon="3.47625">
        <ele>1068</ele>
        <time>2017-02-28T03:14:46Z</time>
      </trkpt>
      <trkpt lat="44.07552" lon="3.47637">
        <ele>1071</ele>
        <time>2017-02-28T03:16:46Z</time>
      </trkpt>
      <trkpt lat="44.07532" lon="3.4764">
        <ele>1070</ele>
        <time>2017-02-28T03:18:46Z</time>
      </trkpt>
      <trkpt lat="44.07511" lon="3.47648">
        <ele>1071</ele>
        <time>2017-02-28T03:20:46Z</time>
      </trkpt>
      <trkpt lat="44.07471" lon="3.47655">
        <ele>1066</ele>
        <time>2017-02-28T03:22:46Z</time>
      </trkpt>
      <trkpt lat="44.07465" lon="3.47658">
        <ele>1065</ele>
        <time>2017-02-28T03:24:46Z</time>
      </trkpt>
      <trkpt lat="44.07461" lon="3.47663">
        <ele>1066</ele>
        <time>2017-02-28T03:26:46Z</time>
      </trkpt>
      <trkpt lat="44.07458" lon="3.47671">
        <ele>1067</ele>
        <time>2017-02-28T03:28:46Z</time>
      </trkpt>
      <trkpt lat="44.07456" lon="3.4768">
        <ele>1068</ele>
        <time>2017-02-28T03:30:46Z</time>
      </trkpt>
      <trkpt lat="44.07456" lon="3.47701">
        <ele>1072</ele>
        <time>2017-02-28T03:32:46Z</time>
      </trkpt>
      <trkpt lat="44.07454" lon="3.47709">
        <ele>1073</ele>
        <time>2017-02-28T03:34:46Z</time>
      </trkpt>
      <trkpt lat="44.07451" lon="3.47715">
        <ele>1074</ele>
        <time>2017-02-28T03:36:46Z</time>
      </trkpt>
      <trkpt lat="44.07439" lon="3.47727">
        <ele>1072</ele>
        <time>2017-02-28T03:38:46Z</time>
      </trkpt>
      <trkpt lat="44.07435" lon="3.47733">
        <ele>1072</ele>
        <time>2017-02-28T03:40:46Z</time>
      </trkpt>
      <trkpt lat="44.07433" lon="3.47745">
        <ele>1074</ele>
        <time>2017-02-28T03:42:46Z</time>
      </trkpt>
      <trkpt lat="44.07429" lon="3.4777">
        <ele>1072</ele>
        <time>2017-02-28T03:44:46Z</time>
      </trkpt>
      <trkpt lat="44.07431" lon="3.47781">
        <ele>1072</ele>
        <time>2017-02-28T03:46:46Z</time>
      </trkpt>
      <trkpt lat="44.07432" lon="3.47782">
        <ele>1072</ele>
        <time>2017-02-28T03:48:46Z</time>
      </trkpt>
      <trkpt lat="44.07438" lon="3.47784">
        <ele>1074</ele>
        <time>2017-02-28T03:50:46Z</time>
      </trkpt>
      <trkpt lat="44.07441" lon="3.4778">
        <ele>1075</ele>
        <time>2017-02-28T03:52:46Z</time>
      </trkpt>
      <trkpt lat="44.0744" lon="3.4777">
        <ele>1075</ele>
        <time>2017-02-28T03:54:46Z</time>
      </trkpt>
      <trkpt lat="44.07441" lon="3.47763">
        <ele>1076</ele>
        <time>2017-02-28T03:56:46Z</time>
      </trkpt>
      <trkpt lat="44.07444" lon="3.47755">
        <ele>1077</ele>
        <time>2017-02-28T03:58:46Z</time>
      </trkpt>
      <trkpt lat="44.07449" lon="3.47749">
        <ele>1079</ele>
        <time>2017-02-28T04:00:46Z</time>
      </trkpt>
      <trkpt lat="44.07455" lon="3.47745">
        <ele>1080</ele>
        <time>2017-02-28T04:02:46Z</time>
      </trkpt>
      <trkpt lat="44.07466" lon="3.47739">
        <ele>1082</ele>
        <time>2017-02-28T04:04:46Z</time>
      </trkpt>
      <trkpt lat="44.07476" lon="3.47727">
        <ele>1083</ele>
        <time>2017-02-28T04:06:46Z</time>
      </trkpt>
      <trkpt lat="44.07483" lon="3.47719">
        <ele>1083</ele>
        <time>2017-02-28T04:08:46Z</time>
      </trkpt>
      <trkpt lat="44.07489" lon="3.47715">
        <ele>1084</ele>
        <time>2017-02-28T04:10:46Z</time>
      </trkpt>
      <trkpt lat="44.075" lon="3.47709">
        <ele>1085</ele>
        <time>2017-02-28T04:12:46Z</time>
      </trkpt>
      <trkpt lat="44.07513" lon="3.47704">
        <ele>1085</ele>
        <time>2017-02-28T04:14:46Z</time>
      </trkpt>
      <trkpt lat="44.07529" lon="3.47702">
        <ele>1086</ele>
        <time>2017-02-28T04:16:46Z</time>
      </trkpt>
      <trkpt lat="44.07549" lon="3.47701">
        <ele>1088</ele>
        <time>2017-02-28T04:18:46Z</time>
      </trkpt>
      <trkpt lat="44.07592" lon="3.477">
        <ele>1091</ele>
        <time>2017-02-28T04:20:46Z</time>
      </trkpt>
      <trkpt lat="44.07613" lon="3.47704">
        <ele>1093</ele>
        <time>2017-02-28T04:22:46Z</time>
      </trkpt>
      <trkpt lat="44.07654" lon="3.47709">
        <ele>1095</ele>
        <time>2017-02-28T04:24:46Z</time>
      </trkpt>
      <trkpt lat="44.07699" lon="3.47726">
        <ele>1101</ele>
        <time>2017-02-28T04:26:46Z</time>
      </trkpt>
      <trkpt lat="44.07709" lon="3.47727">
        <ele>1102</ele>
        <time>2017-02-28T04:28:46Z</time>
      </trkpt>
      <trkpt lat="44.07718" lon="3.47727">
        <ele>1103</ele>
        <time>2017-02-28T04:30:46Z</time>
      </trkpt>
      <trkpt lat="44.07733" lon="3.47721">
        <ele>1103</ele>
        <time>2017-02-28T04:32:46Z</time>
      </trkpt>
      <trkpt lat="44.07746" lon="3.4771">
        <ele>1102</ele>
        <time>2017-02-28T04:34:46Z</time>
      </trkpt>
      <trkpt lat="44.07767" lon="3.47689">
        <ele>1097</ele>
        <time>2017-02-28T04:36:46Z</time>
      </trkpt>
      <trkpt lat="44.07772" lon="3.47686">
        <ele>1096</ele>
        <time>2017-02-28T04:38:46Z</time>
      </trkpt>
      <trkpt lat="44.07778" lon="3.47685">
        <ele>1096</ele>
        <time>2017-02-28T04:40:46Z</time>
      </trkpt>
      <trkpt lat="44.07785" lon="3.47685">
        <ele>1096</ele>
        <time>2017-02-28T04:42:46Z</time>
      </trkpt>
      <trkpt lat="44.07794" lon="3.47688">
        <ele>1096</ele>
        <time>2017-02-28T04:44:46Z</time>
      </trkpt>
      <trkpt lat="44.07801" lon="3.47697">
        <ele>1097</ele>
        <time>2017-02-28T04:46:46Z</time>
      </trkpt>
      <trkpt lat="44.07803" lon="3.47706">
        <ele>1098</ele>
        <time>2017-02-28T04:48:46Z</time>
      </trkpt>
      <trkpt lat="44.07803" lon="3.47716">
        <ele>1099</ele>
        <time>2017-02-28T04:50:46Z</time>
      </trkpt>
      <trkpt lat="44.078" lon="3.47752">
        <ele>1104</ele>
        <time>2017-02-28T04:52:46Z</time>
      </trkpt>
      <trkpt lat="44.078" lon="3.47762">
        <ele>1105</ele>
        <time>2017-02-28T04:54:46Z</time>
      </trkpt>
      <trkpt lat="44.07811" lon="3.47789">
        <ele>1106</ele>
        <time>2017-02-28T04:56:46Z</time>
      </trkpt>
      <trkpt lat="44.07815" lon="3.478">
        <ele>1106</ele>
        <time>2017-02-28T04:58:46Z</time>
      </trkpt>
      <trkpt lat="44.07821" lon="3.4783">
        <ele>1108</ele>
        <time>2017-02-28T05:00:46Z</time>
      </trkpt>
      <trkpt lat="44.07828" lon="3.47844">
        <ele>1108</ele>
        <time>2017-02-28T05:02:46Z</time>
      </trkpt>
      <trkpt lat="44.07833" lon="3.47851">
        <ele>1109</ele>
        <time>2017-02-28T05:04:46Z</time>
      </trkpt>
      <trkpt lat="44.07839" lon="3.47856">
        <ele>1109</ele>
        <time>2017-02-28T05:06:46Z</time>
      </trkpt>
      <trkpt lat="44.07844" lon="3.47858">
        <ele>1109</ele>
        <time>2017-02-28T05:08:46Z</time>
      </trkpt>
      <trkpt lat="44.0785" lon="3.47859">
        <ele>1110</ele>
        <time>2017-02-28T05:10:46Z</time>
      </trkpt>
      <trkpt lat="44.07861" lon="3.47858">
        <ele>1111</ele>
        <time>2017-02-28T05:12:46Z</time>
      </trkpt>
      <trkpt lat="44.07878" lon="3.47852">
        <ele>1112</ele>
        <time>2017-02-28T05:14:46Z</time>
      </trkpt>
      <trkpt lat="44.07903" lon="3.47841">
        <ele>1113</ele>
        <time>2017-02-28T05:16:46Z</time>
      </trkpt>
      <trkpt lat="44.0792" lon="3.47833">
        <ele>1112</ele>
        <time>2017-02-28T05:18:46Z</time>
      </trkpt>
      <trkpt lat="44.07934" lon="3.47832">
        <ele>1115</ele>
        <time>2017-02-28T05:20:46Z</time>
      </trkpt>
      <trkpt lat="44.07977" lon="3.47831">
        <ele>1122</ele>
        <time>2017-02-28T05:22:46Z</time>
      </trkpt>
      <trkpt lat="44.07994" lon="3.47834">
        <ele>1125</ele>
        <time>2017-02-28T05:24:46Z</time>
      </trkpt>
      <trkpt lat="44.08002" lon="3.47833">
        <ele>1126</ele>
        <time>2017-02-28T05:26:46Z</time>
      </trkpt>
      <trkpt lat="44.0803" lon="3.47811">
        <ele>1129</ele>
        <time>2017-02-28T05:28:46Z</time>
      </trkpt>
      <trkpt lat="44.08034" lon="3.47802">
        <ele>1128</ele>
        <time>2017-02-28T05:30:46Z</time>
      </trkpt>
      <trkpt lat="44.08036" lon="3.47793">
        <ele>1127</ele>
        <time>2017-02-28T05:32:46Z</time>
      </trkpt>
      <trkpt lat="44.08036" lon="3.47785">
        <ele>1126</ele>
        <time>2017-02-28T05:34:46Z</time>
      </trkpt>
      <trkpt lat="44.08036" lon="3.47776">
        <ele>1124</ele>
        <time>2017-02-28T05:36:46Z</time>
      </trkpt>
      <trkpt lat="44.08035" lon="3.47765">
        <ele>1121</ele>
        <time>2017-02-28T05:38:46Z</time>
      </trkpt>
      <trkpt lat="44.08035" lon="3.47759">
        <ele>1120</ele>
        <time>2017-02-28T05:40:46Z</time>
      </trkpt>
      <trkpt lat="44.08036" lon="3.47751">
        <ele>1119</ele>
        <time>2017-02-28T05:42:46Z</time>
      </trkpt>
      <trkpt lat="44.08042" lon="3.47741">
        <ele>1119</ele>
        <time>2017-02-28T05:44:46Z</time>
      </trkpt>
      <trkpt lat="44.08051" lon="3.4773">
        <ele>1119</ele>
        <time>2017-02-28T05:46:46Z</time>
      </trkpt>
      <trkpt lat="44.08068" lon="3.4771">
        <ele>1118</ele>
        <time>2017-02-28T05:48:46Z</time>
      </trkpt>
      <trkpt lat="44.08092" lon="3.4769">
        <ele>1119</ele>
        <time>2017-02-28T05:50:46Z</time>
      </trkpt>
      <trkpt lat="44.08108" lon="3.47679">
        <ele>1120</ele>
        <time>2017-02-28T05:52:46Z</time>
      </trkpt>
      <trkpt lat="44.08119" lon="3.47673">
        <ele>1121</ele>
        <time>2017-02-28T05:54:46Z</time>
      </trkpt>
      <trkpt lat="44.08133" lon="3.4767">
        <ele>1124</ele>
        <time>2017-02-28T05:56:46Z</time>
      </trkpt>
      <trkpt lat="44.08148" lon="3.47657">
        <ele>1124</ele>
        <time>2017-02-28T05:58:46Z</time>
      </trkpt>
      <trkpt lat="44.08156" lon="3.47651">
        <ele>1125</ele>
        <time>2017-02-28T06:00:46Z</time>
      </trkpt>
      <trkpt lat="44.08169" lon="3.47645">
        <ele>1126</ele>
        <time>2017-02-28T06:02:46Z</time>
      </trkpt>
      <trkpt lat="44.0819" lon="3.47634">
        <ele>1129</ele>
        <time>2017-02-28T06:04:46Z</time>
      </trkpt>
      <trkpt lat="44.08201" lon="3.47627">
        <ele>1130</ele>
        <time>2017-02-28T06:06:46Z</time>
      </trkpt>
      <trkpt lat="44.08208" lon="3.4762">
        <ele>1130</ele>
        <time>2017-02-28T06:08:46Z</time>
      </trkpt>
      <trkpt lat="44.08214" lon="3.47617">
        <ele>1131</ele>
        <time>2017-02-28T06:10:46Z</time>
      </trkpt>
      <trkpt lat="44.08228" lon="3.47614">
        <ele>1134</ele>
        <time>2017-02-28T06:12:46Z</time>
      </trkpt>
      <trkpt lat="44.08237" lon="3.47607">
        <ele>1135</ele>
        <time>2017-02-28T06:14:46Z</time>
      </trkpt>
      <trkpt lat="44.08241" lon="3.47602">
        <ele>1135</ele>
        <time>2017-02-28T06:16:46Z</time>
      </trkpt>
      <trkpt lat="44.0825" lon="3.47585">
        <ele>1133</ele>
        <time>2017-02-28T06:18:46Z</time>
      </trkpt>
      <trkpt lat="44.08255" lon="3.47578">
        <ele>1134</ele>
        <time>2017-02-28T06:20:46Z</time>
      </trkpt>
      <trkpt lat="44.08266" lon="3.4757">
        <ele>1138</ele>
        <time>2017-02-28T06:22:46Z</time>
      </trkpt>
      <trkpt lat="44.08271" lon="3.4756">
        <ele>1138</ele>
        <time>2017-02-28T06:24:46Z</time>
      </trkpt>
      <trkpt lat="44.08274" lon="3.47549">
        <ele>1138</ele>
        <time>2017-02-28T06:26:46Z</time>
      </trkpt>
      <trkpt lat="44.08281" lon="3.47512">
        <ele>1137</ele>
        <time>2017-02-28T06:28:46Z</time>
      </trkpt>
      <trkpt lat="44.08288" lon="3.47482">
        <ele>1137</ele>
        <time>2017-02-28T06:30:46Z</time>
      </trkpt>
      <trkpt lat="44.08297" lon="3.47458">
        <ele>1138</ele>
        <time>2017-02-28T06:32:46Z</time>
      </trkpt>
      <trkpt lat="44.0831" lon="3.47427">
        <ele>1141</ele>
        <time>2017-02-28T06:34:46Z</time>
      </trkpt>
      <trkpt lat="44.08314" lon="3.47416">
        <ele>1142</ele>
        <time>2017-02-28T06:36:46Z</time>
      </trkpt>
      <trkpt lat="44.08316" lon="3.47405">
        <ele>1141</ele>
        <time>2017-02-28T06:38:46Z</time>
      </trkpt>
      <trkpt lat="44.08318" lon="3.47386">
        <ele>1139</ele>
        <time>2017-02-28T06:40:46Z</time>
      </trkpt>
      <trkpt lat="44.08318" lon="3.47373">
        <ele>1137</ele>
        <time>2017-02-28T06:42:46Z</time>
      </trkpt>
      <trkpt lat="44.0832" lon="3.47364">
        <ele>1137</ele>
        <time>2017-02-28T06:44:46Z</time>
      </trkpt>
      <trkpt lat="44.08325" lon="3.47354">
        <ele>1137</ele>
        <time>2017-02-28T06:46:46Z</time>
      </trkpt>
      <trkpt lat="44.08336" lon="3.47315">
        <ele>1136</ele>
        <time>2017-02-28T06:48:46Z</time>
      </trkpt>
      <trkpt lat="44.08346" lon="3.47295">
        <ele>1138</ele>
        <time>2017-02-28T06:50:46Z</time>
      </trkpt>
      <trkpt lat="44.0836" lon="3.47274">
        <ele>1141</ele>
        <time>2017-02-28T06:52:46Z</time>
      </trkpt>
      <trkpt lat="44.08384" lon="3.47248">
        <ele>1146</ele>
        <time>2017-02-28T06:54:46Z</time>
      </trkpt>
      <trkpt lat="44.08398" lon="3.47225">
        <ele>1147</ele>
        <time>2017-02-28T06:56:46Z</time>
      </trkpt>
      <trkpt lat="44.08412" lon="3.47198">
        <ele>1147</ele>
        <time>2017-02-28T06:58:46Z</time>
      </trkpt>
      <trkpt lat="44.08429" lon="3.47158">
        <ele>1147</ele>
        <time>2017-02-28T07:00:46Z</time>
      </trkpt>
      <trkpt lat="44.08445" lon="3.47134">
        <ele>1150</ele>
        <time>2017-02-28T07:02:46Z</time>
      </trkpt>
      <trkpt lat="44.08462" lon="3.47107">
        <ele>1152</ele>
        <time>2017-02-28T07:04:46Z</time>
      </trkpt>
      <trkpt lat="44.08474" lon="3.47074">
        <ele>1150</ele>
        <time>2017-02-28T07:06:46Z</time>
      </trkpt>
      <trkpt lat="44.08492" lon="3.47019">
        <ele>1150</ele>
        <time>2017-02-28T07:08:46Z</time>
      </trkpt>
      <trkpt lat="44.08497" lon="3.47001">
        <ele>1150</ele>
        <time>2017-02-28T07:10:46Z</time>
      </trkpt>
      <trkpt lat="44.08501" lon="3.46978">
        <ele>1151</ele>
        <time>2017-02-28T07:12:46Z</time>
      </trkpt>
      <trkpt lat="44.08503" lon="3.46947">
        <ele>1151</ele>
        <time>2017-02-28T07:14:46Z</time>
      </trkpt>
      <trkpt lat="44.08507" lon="3.46928">
        <ele>1153</ele>
        <time>2017-02-28T07:16:46Z</time>
      </trkpt>
      <trkpt lat="44.08508" lon="3.46912">
        <ele>1153</ele>
        <time>2017-02-28T07:18:46Z</time>
      </trkpt>
      <trkpt lat="44.08508" lon="3.46888">
        <ele>1153</ele>
        <time>2017-02-28T07:20:46Z</time>
      </trkpt>
      <trkpt lat="44.08508" lon="3.46865">
        <ele>1153</ele>
        <time>2017-02-28T07:22:46Z</time>
      </trkpt>
      <trkpt lat="44.08508" lon="3.4685">
        <ele>1154</ele>
        <time>2017-02-28T07:24:46Z</time>
      </trkpt>
      <trkpt lat="44.08508" lon="3.46837">
        <ele>1154</ele>
        <time>2017-02-28T07:26:46Z</time>
      </trkpt>
      <trkpt lat="44.0851" lon="3.468">
        <ele>1159</ele>
        <time>2017-02-28T07:28:46Z</time>
      </trkpt>
      <trkpt lat="44.0851" lon="3.46792">
        <ele>1160</ele>
        <time>2017-02-28T07:30:46Z</time>
      </trkpt>
      <trkpt lat="44.08509" lon="3.46787">
        <ele>1161</ele>
        <time>2017-02-28T07:32:46Z</time>
      </trkpt>
      <trkpt lat="44.08507" lon="3.46777">
        <ele>1161</ele>
        <time>2017-02-28T07:34:46Z</time>
      </trkpt>
      <trkpt lat="44.08502" lon="3.46768">
        <ele>1161</ele>
        <time>2017-02-28T07:36:46Z</time>
      </trkpt>
      <trkpt lat="44.08489" lon="3.46752">
        <ele>1160</ele>
        <time>2017-02-28T07:38:46Z</time>
      </trkpt>
      <trkpt lat="44.08483" lon="3.46745">
        <ele>1161</ele>
        <time>2017-02-28T07:40:46Z</time>
      </trkpt>
      <trkpt lat="44.08455" lon="3.46729">
        <ele>1159</ele>
        <time>2017-02-28T07:42:46Z</time>
      </trkpt>
      <trkpt lat="44.08439" lon="3.46718">
        <ele>1159</ele>
        <time>2017-02-28T07:44:46Z</time>
      </trkpt>
      <trkpt lat="44.08425" lon="3.46708">
        <ele>1160</ele>
        <time>2017-02-28T07:46:46Z</time>
      </trkpt>
      <trkpt lat="44.08408" lon="3.46696">
        <ele>1161</ele>
        <time>2017-02-28T07:48:46Z</time>
      </trkpt>
      <trkpt lat="44.08399" lon="3.46691">
        <ele>1162</ele>
        <time>2017-02-28T07:50:46Z</time>
      </trkpt>
      <trkpt lat="44.08393" lon="3.46689">
        <ele>1162</ele>
        <time>2017-02-28T07:52:46Z</time>
      </trkpt>
      <trkpt lat="44.08386" lon="3.46687">
        <ele>1162</ele>
        <time>2017-02-28T07:54:46Z</time>
      </trkpt>
      <trkpt lat="44.08364" lon="3.46687">
        <ele>1159</ele>
        <time>2017-02-28T07:56:46Z</time>
      </trkpt>
      <trkpt lat="44.08353" lon="3.46686">
        <ele>1159</ele>
        <time>2017-02-28T07:58:46Z</time>
      </trkpt>
      <trkpt lat="44.08338" lon="3.46681">
        <ele>1159</ele>
        <time>2017-02-28T08:00:46Z</time>
      </trkpt>
      <trkpt lat="44.08324" lon="3.46677">
        <ele>1158</ele>
        <time>2017-02-28T08:02:46Z</time>
      </trkpt>
      <trkpt lat="44.08315" lon="3.46675">
        <ele>1157</ele>
        <time>2017-02-28T08:04:46Z</time>
      </trkpt>
      <trkpt lat="44.08305" lon="3.46671">
        <ele>1156</ele>
        <time>2017-02-28T08:06:46Z</time>
      </trkpt>
      <trkpt lat="44.08298" lon="3.46664">
        <ele>1156</ele>
        <time>2017-02-28T08:08:46Z</time>
      </trkpt>
      <trkpt lat="44.08282" lon="3.4664">
        <ele>1156</ele>
        <time>2017-02-28T08:10:46Z</time>
      </trkpt>
      <trkpt lat="44.0828" lon="3.46633">
        <ele>1157</ele>
        <time>2017-02-28T08:12:46Z</time>
      </trkpt>
      <trkpt lat="44.08278" lon="3.46625">
        <ele>1157</ele>
        <time>2017-02-28T08:14:46Z</time>
      </trkpt>
      <trkpt lat="44.08276" lon="3.46607">
        <ele>1159</ele>
        <time>2017-02-28T08:16:46Z</time>
      </trkpt>
      <trkpt lat="44.08275" lon="3.46591">
        <ele>1161</ele>
        <time>2017-02-28T08:18:46Z</time>
      </trkpt>
      <trkpt lat="44.08276" lon="3.46576">
        <ele>1163</ele>
        <time>2017-02-28T08:20:46Z</time>
      </trkpt>
      <trkpt lat="44.08278" lon="3.46563">
        <ele>1164</ele>
        <time>2017-02-28T08:22:46Z</time>
      </trkpt>
      <trkpt lat="44.08278" lon="3.4655">
        <ele>1165</ele>
        <time>2017-02-28T08:24:46Z</time>
      </trkpt>
      <trkpt lat="44.08278" lon="3.46538">
        <ele>1166</ele>
        <time>2017-02-28T08:26:46Z</time>
      </trkpt>
      <trkpt lat="44.08277" lon="3.46527">
        <ele>1166</ele>
        <time>2017-02-28T08:28:46Z</time>
      </trkpt>
      <trkpt lat="44.08278" lon="3.46518">
        <ele>1167</ele>
        <time>2017-02-28T08:30:46Z</time>
      </trkpt>
      <trkpt lat="44.08279" lon="3.46503">
        <ele>1168</ele>
        <time>2017-02-28T08:32:46Z</time>
      </trkpt>
      <trkpt lat="44.0828" lon="3.46488">
        <ele>1170</ele>
        <time>2017-02-28T08:34:46Z</time>
      </trkpt>
      <trkpt lat="44.08279" lon="3.46479">
        <ele>1171</ele>
        <time>2017-02-28T08:36:46Z</time>
      </trkpt>
      <trkpt lat="44.08278" lon="3.46471">
        <ele>1172</ele>
        <time>2017-02-28T08:38:46Z</time>
      </trkpt>
      <trkpt lat="44.08275" lon="3.46456">
        <ele>1172</ele>
        <time>2017-02-28T08:40:46Z</time>
      </trkpt>
      <trkpt lat="44.0827" lon="3.4644">
        <ele>1172</ele>
        <time>2017-02-28T08:42:46Z</time>
      </trkpt>
      <trkpt lat="44.0826" lon="3.46398">
        <ele>1174</ele>
        <time>2017-02-28T08:44:46Z</time>
      </trkpt>
      <trkpt lat="44.08258" lon="3.46378">
        <ele>1177</ele>
        <time>2017-02-28T08:46:46Z</time>
      </trkpt>
      <trkpt lat="44.08253" lon="3.46362">
        <ele>1178</ele>
        <time>2017-02-28T08:48:46Z</time>
      </trkpt>
      <trkpt lat="44.08248" lon="3.46347">
        <ele>1179</ele>
        <time>2017-02-28T08:50:46Z</time>
      </trkpt>
      <trkpt lat="44.08242" lon="3.46333">
        <ele>1181</ele>
        <time>2017-02-28T08:52:46Z</time>
      </trkpt>
      <trkpt lat="44.08236" lon="3.46321">
        <ele>1183</ele>
        <time>2017-02-28T08:54:46Z</time>
      </trkpt>
      <trkpt lat="44.08226" lon="3.4631">
        <ele>1184</ele>
        <time>2017-02-28T08:56:46Z</time>
      </trkpt>
      <trkpt lat="44.08213" lon="3.46297">
        <ele>1184</ele>
        <time>2017-02-28T08:58:46Z</time>
      </trkpt>
      <trkpt lat="44.08205" lon="3.46288">
        <ele>1185</ele>
        <time>2017-02-28T09:00:46Z</time>
      </trkpt>
      <trkpt lat="44.08205" lon="3.46281">
        <ele>1188</ele>
        <time>2017-02-28T09:02:46Z</time>
      </trkpt>
      <trkpt lat="44.0821" lon="3.46281">
        <ele>1189</ele>
        <time>2017-02-28T09:04:46Z</time>
      </trkpt>
      <trkpt lat="44.08207" lon="3.4628">
        <ele>1189</ele>
        <time>2017-02-28T09:06:46Z</time>
      </trkpt>
      <trkpt lat="44.0821" lon="3.46281">
        <ele>1189</ele>
        <time>2017-02-28T09:08:46Z</time>
      </trkpt>
      <trkpt lat="44.0823" lon="3.46301">
        <ele>1188</ele>
        <time>2017-02-28T09:10:46Z</time>
      </trkpt>
      <trkpt lat="44.08242" lon="3.46312">
        <ele>1188</ele>
        <time>2017-02-28T09:12:46Z</time>
      </trkpt>
      <trkpt lat="44.08259" lon="3.46333">
        <ele>1187</ele>
        <time>2017-02-28T09:14:46Z</time>
      </trkpt>
      <trkpt lat="44.08267" lon="3.46341">
        <ele>1189</ele>
        <time>2017-02-28T09:16:46Z</time>
      </trkpt>
      <trkpt lat="44.08271" lon="3.46347">
        <ele>1190</ele>
        <time>2017-02-28T09:18:46Z</time>
      </trkpt>
      <trkpt lat="44.08277" lon="3.46363">
        <ele>1189</ele>
        <time>2017-02-28T09:20:46Z</time>
      </trkpt>
      <trkpt lat="44.08283" lon="3.46381">
        <ele>1188</ele>
        <time>2017-02-28T09:22:46Z</time>
      </trkpt>
      <trkpt lat="44.08289" lon="3.46401">
        <ele>1187</ele>
        <time>2017-02-28T09:24:46Z</time>
      </trkpt>
      <trkpt lat="44.08293" lon="3.46415">
        <ele>1186</ele>
        <time>2017-02-28T09:26:46Z</time>
      </trkpt>
      <trkpt lat="44.08298" lon="3.46427">
        <ele>1187</ele>
        <time>2017-02-28T09:28:46Z</time>
      </trkpt>
      <trkpt lat="44.08307" lon="3.46439">
        <ele>1189</ele>
        <time>2017-02-28T09:30:46Z</time>
      </trkpt>
      <trkpt lat="44.08314" lon="3.46452">
        <ele>1191</ele>
        <time>2017-02-28T09:32:46Z</time>
      </trkpt>
      <trkpt lat="44.08321" lon="3.46475">
        <ele>1190</ele>
        <time>2017-02-28T09:34:46Z</time>
      </trkpt>
      <trkpt lat="44.08326" lon="3.46497">
        <ele>1189</ele>
        <time>2017-02-28T09:36:46Z</time>
      </trkpt>
      <trkpt lat="44.0833" lon="3.46511">
        <ele>1189</ele>
        <time>2017-02-28T09:38:46Z</time>
      </trkpt>
      <trkpt lat="44.08334" lon="3.46519">
        <ele>1190</ele>
        <time>2017-02-28T09:40:46Z</time>
      </trkpt>
      <trkpt lat="44.08344" lon="3.46531">
        <ele>1192</ele>
        <time>2017-02-28T09:42:46Z</time>
      </trkpt>
      <trkpt lat="44.08353" lon="3.46541">
        <ele>1193</ele>
        <time>2017-02-28T09:44:46Z</time>
      </trkpt>
      <trkpt lat="44.08361" lon="3.46547">
        <ele>1194</ele>
        <time>2017-02-28T09:46:46Z</time>
      </trkpt>
      <trkpt lat="44.08367" lon="3.46549">
        <ele>1196</ele>
        <time>2017-02-28T09:48:46Z</time>
      </trkpt>
      <trkpt lat="44.08385" lon="3.46553">
        <ele>1200</ele>
        <time>2017-02-28T09:50:46Z</time>
      </trkpt>
      <trkpt lat="44.08396" lon="3.46556">
        <ele>1202</ele>
        <time>2017-02-28T09:52:46Z</time>
      </trkpt>
      <trkpt lat="44.08409" lon="3.4656">
        <ele>1204</ele>
        <time>2017-02-28T09:54:46Z</time>
      </trkpt>
      <trkpt lat="44.08419" lon="3.46564">
        <ele>1206</ele>
        <time>2017-02-28T09:56:46Z</time>
      </trkpt>
      <trkpt lat="44.08441" lon="3.46574">
        <ele>1207</ele>
        <time>2017-02-28T09:58:46Z</time>
      </trkpt>
      <trkpt lat="44.08461" lon="3.46579">
        <ele>1209</ele>
        <time>2017-02-28T10:00:46Z</time>
      </trkpt>
      <trkpt lat="44.08474" lon="3.46581">
        <ele>1210</ele>
        <time>2017-02-28T10:02:46Z</time>
      </trkpt>
      <trkpt lat="44.08508" lon="3.46589">
        <ele>1213</ele>
        <time>2017-02-28T10:04:46Z</time>
      </trkpt>
      <trkpt lat="44.08518" lon="3.46592">
        <ele>1213</ele>
        <time>2017-02-28T10:06:46Z</time>
      </trkpt>
      <trkpt lat="44.08531" lon="3.46596">
        <ele>1214</ele>
        <time>2017-02-28T10:08:46Z</time>
      </trkpt>
      <trkpt lat="44.08537" lon="3.46599">
        <ele>1214</ele>
        <time>2017-02-28T10:10:46Z</time>
      </trkpt>
      <trkpt lat="44.08541" lon="3.466">
        <ele>1214</ele>
        <time>2017-02-28T10:12:46Z</time>
      </trkpt>
      <trkpt lat="44.0857" lon="3.46623">
        <ele>1213</ele>
        <time>2017-02-28T10:14:46Z</time>
      </trkpt>
      <trkpt lat="44.08579" lon="3.46628">
        <ele>1213</ele>
        <time>2017-02-28T10:16:46Z</time>
      </trkpt>
      <trkpt lat="44.08585" lon="3.4663">
        <ele>1214</ele>
        <time>2017-02-28T10:18:46Z</time>
      </trkpt>
      <trkpt lat="44.08594" lon="3.4663">
        <ele>1215</ele>
        <time>2017-02-28T10:20:46Z</time>
      </trkpt>
      <trkpt lat="44.08602" lon="3.46635">
        <ele>1215</ele>
        <time>2017-02-28T10:22:46Z</time>
      </trkpt>
      <trkpt lat="44.08621" lon="3.4665">
        <ele>1215</ele>
        <time>2017-02-28T10:24:46Z</time>
      </trkpt>
      <trkpt lat="44.08632" lon="3.46657">
        <ele>1216</ele>
        <time>2017-02-28T10:26:46Z</time>
      </trkpt>
      <trkpt lat="44.08666" lon="3.46699">
        <ele>1222</ele>
        <time>2017-02-28T10:28:46Z</time>
      </trkpt>
      <trkpt lat="44.0867" lon="3.467">
        <ele>1223</ele>
        <time>2017-02-28T10:30:46Z</time>
      </trkpt>
      <trkpt lat="44.08675" lon="3.46698">
        <ele>1224</ele>
        <time>2017-02-28T10:32:46Z</time>
      </trkpt>
      <trkpt lat="44.08689" lon="3.46648">
        <ele>1226</ele>
        <time>2017-02-28T10:34:46Z</time>
      </trkpt>
      <trkpt lat="44.08691" lon="3.46639">
        <ele>1227</ele>
        <time>2017-02-28T10:36:46Z</time>
      </trkpt>
      <trkpt lat="44.08701" lon="3.46601">
        <ele>1229</ele>
        <time>2017-02-28T10:38:46Z</time>
      </trkpt>
      <trkpt lat="44.08708" lon="3.46582">
        <ele>1230</ele>
        <time>2017-02-28T10:40:46Z</time>
      </trkpt>
      <trkpt lat="44.08717" lon="3.46565">
        <ele>1232</ele>
        <time>2017-02-28T10:42:46Z</time>
      </trkpt>
      <trkpt lat="44.08724" lon="3.46573">
        <ele>1232</ele>
        <time>2017-02-28T10:44:46Z</time>
      </trkpt>
      <trkpt lat="44.08757" lon="3.46591">
        <ele>1233</ele>
        <time>2017-02-28T10:46:46Z</time>
      </trkpt>
      <trkpt lat="44.08799" lon="3.46622">
        <ele>1232</ele>
        <time>2017-02-28T10:48:46Z</time>
      </trkpt>
      <trkpt lat="44.08873" lon="3.46667">
        <ele>1230</ele>
        <time>2017-02-28T10:50:46Z</time>
      </trkpt>
      <trkpt lat="44.0891" lon="3.46685">
        <ele>1229</ele>
        <time>2017-02-28T10:52:46Z</time>
      </trkpt>
      <trkpt lat="44.0893" lon="3.46693">
        <ele>1228</ele>
        <time>2017-02-28T10:54:46Z</time>
      </trkpt>
      <trkpt lat="44.08966" lon="3.46706">
        <ele>1227</ele>
        <time>2017-02-28T10:56:46Z</time>
      </trkpt>
      <trkpt lat="44.08987" lon="3.46716">
        <ele>1226</ele>
        <time>2017-02-28T10:58:46Z</time>
      </trkpt>
      <trkpt lat="44.09004" lon="3.46723">
        <ele>1226</ele>
        <time>2017-02-28T11:00:46Z</time>
      </trkpt>
      <trkpt lat="44.09025" lon="3.46726">
        <ele>1225</ele>
        <time>2017-02-28T11:02:46Z</time>
      </trkpt>
      <trkpt lat="44.09043" lon="3.46731">
        <ele>1225</ele>
        <time>2017-02-28T11:04:46Z</time>
      </trkpt>
      <trkpt lat="44.09058" lon="3.46733">
        <ele>1225</ele>
        <time>2017-02-28T11:06:46Z</time>
      </trkpt>
      <trkpt lat="44.09072" lon="3.46735">
        <ele>1224</ele>
        <time>2017-02-28T11:08:46Z</time>
      </trkpt>
      <trkpt lat="44.09083" lon="3.46735">
        <ele>1224</ele>
        <time>2017-02-28T11:10:46Z</time>
      </trkpt>
      <trkpt lat="44.09095" lon="3.46736">
        <ele>1223</ele>
        <time>2017-02-28T11:12:46Z</time>
      </trkpt>
      <trkpt lat="44.09103" lon="3.46739">
        <ele>1223</ele>
        <time>2017-02-28T11:14:46Z</time>
      </trkpt>
      <trkpt lat="44.09113" lon="3.46744">
        <ele>1222</ele>
        <time>2017-02-28T11:16:46Z</time>
      </trkpt>
      <trkpt lat="44.09124" lon="3.46751">
        <ele>1222</ele>
        <time>2017-02-28T11:18:46Z</time>
      </trkpt>
      <trkpt lat="44.09128" lon="3.46757">
        <ele>1222</ele>
        <time>2017-02-28T11:20:46Z</time>
      </trkpt>
      <trkpt lat="44.09143" lon="3.46773">
        <ele>1222</ele>
        <time>2017-02-28T11:22:46Z</time>
      </trkpt>
      <trkpt lat="44.09157" lon="3.46794">
        <ele>1223</ele>
        <time>2017-02-28T11:24:46Z</time>
      </trkpt>
      <trkpt lat="44.0918" lon="3.46823">
        <ele>1223</ele>
        <time>2017-02-28T11:26:46Z</time>
      </trkpt>
      <trkpt lat="44.09185" lon="3.46828">
        <ele>1222</ele>
        <time>2017-02-28T11:28:46Z</time>
      </trkpt>
      <trkpt lat="44.0921" lon="3.46862">
        <ele>1221</ele>
        <time>2017-02-28T11:30:46Z</time>
      </trkpt>
      <trkpt lat="44.09227" lon="3.46883">
        <ele>1220</ele>
        <time>2017-02-28T11:32:46Z</time>
      </trkpt>
      <trkpt lat="44.0926" lon="3.46922">
        <ele>1218</ele>
        <time>2017-02-28T11:34:46Z</time>
      </trkpt>
      <trkpt lat="44.09269" lon="3.4693">
        <ele>1217</ele>
        <time>2017-02-28T11:36:46Z</time>
      </trkpt>
      <trkpt lat="44.09277" lon="3.46939">
        <ele>1217</ele>
        <time>2017-02-28T11:38:46Z</time>
      </trkpt>
      <trkpt lat="44.09281" lon="3.46945">
        <ele>1217</ele>
        <time>2017-02-28T11:40:46Z</time>
      </trkpt>
      <trkpt lat="44.0929" lon="3.46959">
        <ele>1217</ele>
        <time>2017-02-28T11:42:46Z</time>
      </trkpt>
      <trkpt lat="44.0931" lon="3.46997">
        <ele>1217</ele>
        <time>2017-02-28T11:44:46Z</time>
      </trkpt>
      <trkpt lat="44.09319" lon="3.47015">
        <ele>1216</ele>
        <time>2017-02-28T11:46:46Z</time>
      </trkpt>
      <trkpt lat="44.09333" lon="3.47049">
        <ele>1214</ele>
        <time>2017-02-28T11:48:46Z</time>
      </trkpt>
      <trkpt lat="44.09337" lon="3.47061">
        <ele>1213</ele>
        <time>2017-02-28T11:50:46Z</time>
      </trkpt>
      <trkpt lat="44.09352" lon="3.47069">
        <ele>1210</ele>
        <time>2017-02-28T11:52:46Z</time>
      </trkpt>
      <trkpt lat="44.09394" lon="3.47104">
        <ele>1201</ele>
        <time>2017-02-28T11:54:46Z</time>
      </trkpt>
      <trkpt lat="44.09434" lon="3.47137">
        <ele>1193</ele>
        <time>2017-02-28T11:56:46Z</time>
      </trkpt>
      <trkpt lat="44.09461" lon="3.47152">
        <ele>1188</ele>
        <time>2017-02-28T11:58:46Z</time>
      </trkpt>
      <trkpt lat="44.09517" lon="3.47199">
        <ele>1178</ele>
        <time>2017-02-28T12:00:46Z</time>
      </trkpt>
      <trkpt lat="44.09529" lon="3.47211">
        <ele>1176</ele>
        <time>2017-02-28T12:02:46Z</time>
      </trkpt>
      <trkpt lat="44.09545" lon="3.47232">
        <ele>1172</ele>
        <time>2017-02-28T12:04:46Z</time>
      </trkpt>
      <trkpt lat="44.09563" lon="3.47265">
        <ele>1166</ele>
        <time>2017-02-28T12:06:46Z</time>
      </trkpt>
      <trkpt lat="44.09581" lon="3.47304">
        <ele>1158</ele>
        <time>2017-02-28T12:08:46Z</time>
      </trkpt>
      <trkpt lat="44.09608" lon="3.47334">
        <ele>1150</ele>
        <time>2017-02-28T12:10:46Z</time>
      </trkpt>
      <trkpt lat="44.09611" lon="3.4733">
        <ele>1149</ele>
        <time>2017-02-28T12:12:46Z</time>
      </trkpt>
      <trkpt lat="44.09611" lon="3.47335">
        <ele>1149</ele>
        <time>2017-02-28T12:14:46Z</time>
      </trkpt>
      <trkpt lat="44.09639" lon="3.4734">
        <ele>1143</ele>
        <time>2017-02-28T12:16:46Z</time>
      </trkpt>
      <trkpt lat="44.09673" lon="3.47334">
        <ele>1137</ele>
        <time>2017-02-28T12:18:46Z</time>
      </trkpt>
      <trkpt lat="44.09694" lon="3.4732">
        <ele>1138</ele>
        <time>2017-02-28T12:20:46Z</time>
      </trkpt>
      <trkpt lat="44.09721" lon="3.47307">
        <ele>1138</ele>
        <time>2017-02-28T12:22:46Z</time>
      </trkpt>
      <trkpt lat="44.09773" lon="3.47303">
        <ele>1136</ele>
        <time>2017-02-28T12:24:46Z</time>
      </trkpt>
      <trkpt lat="44.09811" lon="3.47312">
        <ele>1132</ele>
        <time>2017-02-28T12:26:46Z</time>
      </trkpt>
      <trkpt lat="44.09841" lon="3.47326">
        <ele>1127</ele>
        <time>2017-02-28T12:28:46Z</time>
      </trkpt>
      <trkpt lat="44.09892" lon="3.47333">
        <ele>1121</ele>
        <time>2017-02-28T12:30:46Z</time>
      </trkpt>
      <trkpt lat="44.09931" lon="3.47337">
        <ele>1118</ele>
        <time>2017-02-28T12:32:46Z</time>
      </trkpt>
      <trkpt lat="44.09976" lon="3.47337">
        <ele>1117</ele>
        <time>2017-02-28T12:34:46Z</time>
      </trkpt>
      <trkpt lat="44.10007" lon="3.47317">
        <ele>1115</ele>
        <time>2017-02-28T12:36:46Z</time>
      </trkpt>
      <trkpt lat="44.10045" lon="3.47295">
        <ele>1112</ele>
        <time>2017-02-28T12:38:46Z</time>
      </trkpt>
      <trkpt lat="44.10081" lon="3.47273">
        <ele>1106</ele>
        <time>2017-02-28T12:40:46Z</time>
      </trkpt>
      <trkpt lat="44.10115" lon="3.47259">
        <ele>1102</ele>
        <time>2017-02-28T12:42:46Z</time>
      </trkpt>
      <trkpt lat="44.10148" lon="3.47243">
        <ele>1099</ele>
        <time>2017-02-28T12:44:46Z</time>
      </trkpt>
      <trkpt lat="44.1018" lon="3.47222">
        <ele>1092</ele>
        <time>2017-02-28T12:46:46Z</time>
      </trkpt>
      <trkpt lat="44.1021" lon="3.47213">
        <ele>1086</ele>
        <time>2017-02-28T12:48:46Z</time>
      </trkpt>
      <trkpt lat="44.1023" lon="3.47223">
        <ele>1085</ele>
        <time>2017-02-28T12:50:46Z</time>
      </trkpt>
      <trkpt lat="44.10253" lon="3.4726">
        <ele>1086</ele>
        <time>2017-02-28T12:52:46Z</time>
      </trkpt>
      <trkpt lat="44.10282" lon="3.47297">
        <ele>1078</ele>
        <time>2017-02-28T12:54:46Z</time>
      </trkpt>
      <trkpt lat="44.10306" lon="3.47341">
        <ele>1072</ele>
        <time>2017-02-28T12:56:46Z</time>
      </trkpt>
      <trkpt lat="44.10339" lon="3.47365">
        <ele>1065</ele>
        <time>2017-02-28T12:58:46Z</time>
      </trkpt>
      <trkpt lat="44.10371" lon="3.47385">
        <ele>1066</ele>
        <time>2017-02-28T13:00:46Z</time>
      </trkpt>
      <trkpt lat="44.1039" lon="3.47392">
        <ele>1066</ele>
        <time>2017-02-28T13:02:46Z</time>
      </trkpt>
      <trkpt lat="44.10399" lon="3.47403">
        <ele>1066</ele>
        <time>2017-02-28T13:04:46Z</time>
      </trkpt>
      <trkpt lat="44.10401" lon="3.47408">
        <ele>1067</ele>
        <time>2017-02-28T13:06:46Z</time>
      </trkpt>
      <trkpt lat="44.10402" lon="3.47415">
        <ele>1067</ele>
        <time>2017-02-28T13:08:46Z</time>
      </trkpt>
      <trkpt lat="44.10402" lon="3.47423">
        <ele>1068</ele>
        <time>2017-02-28T13:10:46Z</time>
      </trkpt>
      <trkpt lat="44.10403" lon="3.47427">
        <ele>1068</ele>
        <time>2017-02-28T13:12:46Z</time>
      </trkpt>
      <trkpt lat="44.10409" lon="3.47434">
        <ele>1069</ele>
        <time>2017-02-28T13:14:46Z</time>
      </trkpt>
      <trkpt lat="44.10412" lon="3.47435">
        <ele>1069</ele>
        <time>2017-02-28T13:16:46Z</time>
      </trkpt>
      <trkpt lat="44.10409" lon="3.47453">
        <ele>1072</ele>
        <time>2017-02-28T13:18:46Z</time>
      </trkpt>
      <trkpt lat="44.10412" lon="3.47454">
        <ele>1072</ele>
        <time>2017-02-28T13:20:46Z</time>
      </trkpt>
      <trkpt lat="44.10417" lon="3.47449">
        <ele>1072</ele>
        <time>2017-02-28T13:22:46Z</time>
      </trkpt>
      <trkpt lat="44.10419" lon="3.47445">
        <ele>1072</ele>
        <time>2017-02-28T13:24:46Z</time>
      </trkpt>
      <trkpt lat="44.10422" lon="3.4744">
        <ele>1072</ele>
        <time>2017-02-28T13:26:46Z</time>
      </trkpt>
      <trkpt lat="44.10436" lon="3.47427">
        <ele>1074</ele>
        <time>2017-02-28T13:28:46Z</time>
      </trkpt>
      <trkpt lat="44.10441" lon="3.47425">
        <ele>1076</ele>
        <time>2017-02-28T13:30:46Z</time>
      </trkpt>
      <trkpt lat="44.10444" lon="3.47425">
        <ele>1077</ele>
        <time>2017-02-28T13:32:46Z</time>
      </trkpt>
      <trkpt lat="44.10442" lon="3.47402">
        <ele>1074</ele>
        <time>2017-02-28T13:34:46Z</time>
      </trkpt>
      <trkpt lat="44.10434" lon="3.47384">
        <ele>1071</ele>
        <time>2017-02-28T13:36:46Z</time>
      </trkpt>
      <trkpt lat="44.10431" lon="3.47358">
        <ele>1069</ele>
        <time>2017-02-28T13:38:46Z</time>
      </trkpt>
      <trkpt lat="44.1043" lon="3.47334">
        <ele>1068</ele>
        <time>2017-02-28T13:40:46Z</time>
      </trkpt>
      <trkpt lat="44.10435" lon="3.47256">
        <ele>1073</ele>
        <time>2017-02-28T13:42:46Z</time>
      </trkpt>
      <trkpt lat="44.10446" lon="3.47226">
        <ele>1077</ele>
        <time>2017-02-28T13:44:46Z</time>
      </trkpt>
      <trkpt lat="44.10465" lon="3.47208">
        <ele>1084</ele>
        <time>2017-02-28T13:46:46Z</time>
      </trkpt>
      <trkpt lat="44.1048" lon="3.47206">
        <ele>1090</ele>
        <time>2017-02-28T13:48:46Z</time>
      </trkpt>
      <trkpt lat="44.10501" lon="3.47211">
        <ele>1097</ele>
        <time>2017-02-28T13:50:46Z</time>
      </trkpt>
      <trkpt lat="44.10526" lon="3.47221">
        <ele>1102</ele>
        <time>2017-02-28T13:52:46Z</time>
      </trkpt>
      <trkpt lat="44.10542" lon="3.47234">
        <ele>1104</ele>
        <time>2017-02-28T13:54:46Z</time>
      </trkpt>
      <trkpt lat="44.10558" lon="3.4726">
        <ele>1107</ele>
        <time>2017-02-28T13:56:46Z</time>
      </trkpt>
      <trkpt lat="44.10564" lon="3.4729">
        <ele>1108</ele>
        <time>2017-02-28T13:58:46Z</time>
      </trkpt>
      <trkpt lat="44.10559" lon="3.47323">
        <ele>1107</ele>
        <time>2017-02-28T14:00:46Z</time>
      </trkpt>
      <trkpt lat="44.1058" lon="3.47317">
        <ele>1112</ele>
        <time>2017-02-28T14:02:46Z</time>
      </trkpt>
      <trkpt lat="44.10606" lon="3.47305">
        <ele>1115</ele>
        <time>2017-02-28T14:04:46Z</time>
      </trkpt>
      <trkpt lat="44.10637" lon="3.4731">
        <ele>1117</ele>
        <time>2017-02-28T14:06:46Z</time>
      </trkpt>
      <trkpt lat="44.10677" lon="3.4732">
        <ele>1119</ele>
        <time>2017-02-28T14:08:46Z</time>
      </trkpt>
      <trkpt lat="44.10726" lon="3.47343">
        <ele>1121</ele>
        <time>2017-02-28T14:10:46Z</time>
      </trkpt>
      <trkpt lat="44.10754" lon="3.47368">
        <ele>1123</ele>
        <time>2017-02-28T14:12:46Z</time>
      </trkpt>
      <trkpt lat="44.10767" lon="3.47373">
        <ele>1123</ele>
        <time>2017-02-28T14:14:46Z</time>
      </trkpt>
      <trkpt lat="44.10797" lon="3.47386">
        <ele>1124</ele>
        <time>2017-02-28T14:16:46Z</time>
      </trkpt>
      <trkpt lat="44.10824" lon="3.47401">
        <ele>1124</ele>
        <time>2017-02-28T14:18:46Z</time>
      </trkpt>
      <trkpt lat="44.10845" lon="3.47413">
        <ele>1124</ele>
        <time>2017-02-28T14:20:46Z</time>
      </trkpt>
      <trkpt lat="44.10852" lon="3.47418">
        <ele>1123</ele>
        <time>2017-02-28T14:22:46Z</time>
      </trkpt>
      <trkpt lat="44.10868" lon="3.47439">
        <ele>1123</ele>
        <time>2017-02-28T14:24:46Z</time>
      </trkpt>
      <trkpt lat="44.10895" lon="3.4748">
        <ele>1123</ele>
        <time>2017-02-28T14:26:46Z</time>
      </trkpt>
      <trkpt lat="44.10923" lon="3.47518">
        <ele>1124</ele>
        <time>2017-02-28T14:28:46Z</time>
      </trkpt>
      <trkpt lat="44.10948" lon="3.47555">
        <ele>1123</ele>
        <time>2017-02-28T14:30:46Z</time>
      </trkpt>
      <trkpt lat="44.10952" lon="3.4756">
        <ele>1123</ele>
        <time>2017-02-28T14:32:46Z</time>
      </trkpt>
      <trkpt lat="44.1096" lon="3.47568">
        <ele>1123</ele>
        <time>2017-02-28T14:34:46Z</time>
      </trkpt>
      <trkpt lat="44.10967" lon="3.47571">
        <ele>1122</ele>
        <time>2017-02-28T14:36:46Z</time>
      </trkpt>
      <trkpt lat="44.10975" lon="3.4757">
        <ele>1121</ele>
        <time>2017-02-28T14:38:46Z</time>
      </trkpt>
      <trkpt lat="44.10983" lon="3.47571">
        <ele>1121</ele>
        <time>2017-02-28T14:40:46Z</time>
      </trkpt>
      <trkpt lat="44.10988" lon="3.47572">
        <ele>1120</ele>
        <time>2017-02-28T14:42:46Z</time>
      </trkpt>
      <trkpt lat="44.10991" lon="3.47567">
        <ele>1120</ele>
        <time>2017-02-28T14:44:46Z</time>
      </trkpt>
      <trkpt lat="44.10997" lon="3.4756">
        <ele>1119</ele>
        <time>2017-02-28T14:46:46Z</time>
      </trkpt>
      <trkpt lat="44.11004" lon="3.47554">
        <ele>1118</ele>
        <time>2017-02-28T14:48:46Z</time>
      </trkpt>
      <trkpt lat="44.11014" lon="3.47548">
        <ele>1118</ele>
        <time>2017-02-28T14:50:46Z</time>
      </trkpt>
      <trkpt lat="44.11033" lon="3.47539">
        <ele>1117</ele>
        <time>2017-02-28T14:52:46Z</time>
      </trkpt>
      <trkpt lat="44.11062" lon="3.47519">
        <ele>1115</ele>
        <time>2017-02-28T14:54:46Z</time>
      </trkpt>
      <trkpt lat="44.11074" lon="3.47513">
        <ele>1114</ele>
        <time>2017-02-28T14:56:46Z</time>
      </trkpt>
      <trkpt lat="44.11084" lon="3.47509">
        <ele>1114</ele>
        <time>2017-02-28T14:58:46Z</time>
      </trkpt>
      <trkpt lat="44.11098" lon="3.47505">
        <ele>1113</ele>
        <time>2017-02-28T15:00:46Z</time>
      </trkpt>
      <trkpt lat="44.11116" lon="3.47502">
        <ele>1112</ele>
        <time>2017-02-28T15:02:46Z</time>
      </trkpt>
      <trkpt lat="44.11138" lon="3.47499">
        <ele>1110</ele>
        <time>2017-02-28T15:04:46Z</time>
      </trkpt>
      <trkpt lat="44.11144" lon="3.47498">
        <ele>1110</ele>
        <time>2017-02-28T15:06:46Z</time>
      </trkpt>
      <trkpt lat="44.11159" lon="3.47499">
        <ele>1109</ele>
        <time>2017-02-28T15:08:46Z</time>
      </trkpt>
      <trkpt lat="44.11173" lon="3.47501">
        <ele>1108</ele>
        <time>2017-02-28T15:10:46Z</time>
      </trkpt>
      <trkpt lat="44.11181" lon="3.47501">
        <ele>1107</ele>
        <time>2017-02-28T15:12:46Z</time>
      </trkpt>
      <trkpt lat="44.112" lon="3.47506">
        <ele>1106</ele>
        <time>2017-02-28T15:14:46Z</time>
      </trkpt>
      <trkpt lat="44.11225" lon="3.47511">
        <ele>1105</ele>
        <time>2017-02-28T15:16:46Z</time>
      </trkpt>
      <trkpt lat="44.11238" lon="3.47511">
        <ele>1104</ele>
        <time>2017-02-28T15:18:46Z</time>
      </trkpt>
      <trkpt lat="44.11248" lon="3.47512">
        <ele>1104</ele>
        <time>2017-02-28T15:20:46Z</time>
      </trkpt>
      <trkpt lat="44.11268" lon="3.47521">
        <ele>1104</ele>
        <time>2017-02-28T15:22:46Z</time>
      </trkpt>
      <trkpt lat="44.11277" lon="3.47525">
        <ele>1103</ele>
        <time>2017-02-28T15:24:46Z</time>
      </trkpt>
      <trkpt lat="44.11286" lon="3.47526">
        <ele>1103</ele>
        <time>2017-02-28T15:26:46Z</time>
      </trkpt>
      <trkpt lat="44.11296" lon="3.47526">
        <ele>1103</ele>
        <time>2017-02-28T15:28:46Z</time>
      </trkpt>
      <trkpt lat="44.11327" lon="3.4753">
        <ele>1103</ele>
        <time>2017-02-28T15:30:46Z</time>
      </trkpt>
      <trkpt lat="44.11333" lon="3.47532">
        <ele>1103</ele>
        <time>2017-02-28T15:32:46Z</time>
      </trkpt>
      <trkpt lat="44.1134" lon="3.47534">
        <ele>1103</ele>
        <time>2017-02-28T15:34:46Z</time>
      </trkpt>
      <trkpt lat="44.11361" lon="3.47543">
        <ele>1103</ele>
        <time>2017-02-28T15:36:46Z</time>
      </trkpt>
      <trkpt lat="44.11364" lon="3.47546">
        <ele>1103</ele>
        <time>2017-02-28T15:38:46Z</time>
      </trkpt>
      <trkpt lat="44.11375" lon="3.47553">
        <ele>1103</ele>
        <time>2017-02-28T15:40:46Z</time>
      </trkpt>
      <trkpt lat="44.11378" lon="3.4756">
        <ele>1103</ele>
        <time>2017-02-28T15:42:46Z</time>
      </trkpt>
      <trkpt lat="44.11379" lon="3.47592">
        <ele>1103</ele>
        <time>2017-02-28T15:44:46Z</time>
      </trkpt>
      <trkpt lat="44.11406" lon="3.47565">
        <ele>1104</ele>
        <time>2017-02-28T15:46:46Z</time>
      </trkpt>
      <trkpt lat="44.11435" lon="3.47542">
        <ele>1105</ele>
        <time>2017-02-28T15:48:46Z</time>
      </trkpt>
      <trkpt lat="44.11451" lon="3.47525">
        <ele>1106</ele>
        <time>2017-02-28T15:50:46Z</time>
      </trkpt>
      <trkpt lat="44.11458" lon="3.47513">
        <ele>1107</ele>
        <time>2017-02-28T15:52:46Z</time>
      </trkpt>
      <trkpt lat="44.11461" lon="3.47507">
        <ele>1107</ele>
        <time>2017-02-28T15:54:46Z</time>
      </trkpt>
      <trkpt lat="44.11462" lon="3.47501">
        <ele>1107</ele>
        <time>2017-02-28T15:56:46Z</time>
      </trkpt>
      <trkpt lat="44.11475" lon="3.47515">
        <ele>1107</ele>
        <time>2017-02-28T15:58:46Z</time>
      </trkpt>
      <trkpt lat="44.11479" lon="3.47523">
        <ele>1108</ele>
        <time>2017-02-28T16:00:46Z</time>
      </trkpt>
      <trkpt lat="44.11483" lon="3.47529">
        <ele>1108</ele>
        <time>2017-02-28T16:02:46Z</time>
      </trkpt>
      <trkpt lat="44.11488" lon="3.47534">
        <ele>1108</ele>
        <time>2017-02-28T16:04:46Z</time>
      </trkpt>
      <trkpt lat="44.11492" lon="3.47537">
        <ele>1108</ele>
        <time>2017-02-28T16:06:46Z</time>
      </trkpt>
      <trkpt lat="44.11509" lon="3.47545">
        <ele>1110</ele>
        <time>2017-02-28T16:08:46Z</time>
      </trkpt>
      <trkpt lat="44.11511" lon="3.47548">
        <ele>1110</ele>
        <time>2017-02-28T16:10:46Z</time>
      </trkpt>
      <trkpt lat="44.11513" lon="3.47552">
        <ele>1110</ele>
        <time>2017-02-28T16:12:46Z</time>
      </trkpt>
      <trkpt lat="44.11514" lon="3.47568">
        <ele>1110</ele>
        <time>2017-02-28T16:14:46Z</time>
      </trkpt>
      <trkpt lat="44.11514" lon="3.47577">
        <ele>1111</ele>
        <time>2017-02-28T16:16:46Z</time>
      </trkpt>
      <trkpt lat="44.11518" lon="3.47593">
        <ele>1111</ele>
        <time>2017-02-28T16:18:46Z</time>
      </trkpt>
      <trkpt lat="44.11525" lon="3.47613">
        <ele>1110</ele>
        <time>2017-02-28T16:20:46Z</time>
      </trkpt>
      <trkpt lat="44.11528" lon="3.47626">
        <ele>1110</ele>
        <time>2017-02-28T16:22:46Z</time>
      </trkpt>
      <trkpt lat="44.11532" lon="3.47636">
        <ele>1110</ele>
        <time>2017-02-28T16:24:46Z</time>
      </trkpt>
      <trkpt lat="44.11536" lon="3.47645">
        <ele>1110</ele>
        <time>2017-02-28T16:26:46Z</time>
      </trkpt>
      <trkpt lat="44.11547" lon="3.47663">
        <ele>1109</ele>
        <time>2017-02-28T16:28:46Z</time>
      </trkpt>
      <trkpt lat="44.11557" lon="3.47679">
        <ele>1110</ele>
        <time>2017-02-28T16:30:46Z</time>
      </trkpt>
      <trkpt lat="44.11562" lon="3.47688">
        <ele>1110</ele>
        <time>2017-02-28T16:32:46Z</time>
      </trkpt>
      <trkpt lat="44.11564" lon="3.47697">
        <ele>1110</ele>
        <time>2017-02-28T16:34:46Z</time>
      </trkpt>
      <trkpt lat="44.11574" lon="3.47709">
        <ele>1111</ele>
        <time>2017-02-28T16:36:46Z</time>
      </trkpt>
      <trkpt lat="44.11579" lon="3.47713">
        <ele>1111</ele>
        <time>2017-02-28T16:38:46Z</time>
      </trkpt>
      <trkpt lat="44.11598" lon="3.47727">
        <ele>1114</ele>
        <time>2017-02-28T16:40:46Z</time>
      </trkpt>
      <trkpt lat="44.11609" lon="3.47738">
        <ele>1115</ele>
        <time>2017-02-28T16:42:46Z</time>
      </trkpt>
      <trkpt lat="44.11617" lon="3.47744">
        <ele>1116</ele>
        <time>2017-02-28T16:44:46Z</time>
      </trkpt>
      <trkpt lat="44.1162" lon="3.47748">
        <ele>1116</ele>
        <time>2017-02-28T16:46:46Z</time>
      </trkpt>
      <trkpt lat="44.11621" lon="3.47753">
        <ele>1117</ele>
        <time>2017-02-28T16:48:46Z</time>
      </trkpt>
      <trkpt lat="44.11622" lon="3.47759">
        <ele>1117</ele>
        <time>2017-02-28T16:50:46Z</time>
      </trkpt>
      <trkpt lat="44.11623" lon="3.47767">
        <ele>1117</ele>
        <time>2017-02-28T16:52:46Z</time>
      </trkpt>
      <trkpt lat="44.11624" lon="3.47777">
        <ele>1118</ele>
        <time>2017-02-28T16:54:46Z</time>
      </trkpt>
      <trkpt lat="44.11627" lon="3.47788">
        <ele>1118</ele>
        <time>2017-02-28T16:56:46Z</time>
      </trkpt>
      <trkpt lat="44.11629" lon="3.47807">
        <ele>1119</ele>
        <time>2017-02-28T16:58:46Z</time>
      </trkpt>
      <trkpt lat="44.11632" lon="3.47818">
        <ele>1119</ele>
        <time>2017-02-28T17:00:46Z</time>
      </trkpt>
      <trkpt lat="44.11638" lon="3.47828">
        <ele>1120</ele>
        <time>2017-02-28T17:02:46Z</time>
      </trkpt>
      <trkpt lat="44.11643" lon="3.47834">
        <ele>1120</ele>
        <time>2017-02-28T17:04:46Z</time>
      </trkpt>
      <trkpt lat="44.11642" lon="3.47848">
        <ele>1120</ele>
        <time>2017-02-28T17:06:46Z</time>
      </trkpt>
      <trkpt lat="44.11647" lon="3.47858">
        <ele>1120</ele>
        <time>2017-02-28T17:08:46Z</time>
      </trkpt>
      <trkpt lat="44.11654" lon="3.47872">
        <ele>1120</ele>
        <time>2017-02-28T17:10:46Z</time>
      </trkpt>
      <trkpt lat="44.11661" lon="3.4788">
        <ele>1120</ele>
        <time>2017-02-28T17:12:46Z</time>
      </trkpt>
      <trkpt lat="44.1167" lon="3.47887">
        <ele>1119</ele>
        <time>2017-02-28T17:14:46Z</time>
      </trkpt>
      <trkpt lat="44.11685" lon="3.47898">
        <ele>1117</ele>
        <time>2017-02-28T17:16:46Z</time>
      </trkpt>
      <trkpt lat="44.11696" lon="3.47902">
        <ele>1116</ele>
        <time>2017-02-28T17:18:46Z</time>
      </trkpt>
      <trkpt lat="44.11711" lon="3.47905">
        <ele>1114</ele>
        <time>2017-02-28T17:20:46Z</time>
      </trkpt>
      <trkpt lat="44.11732" lon="3.47902">
        <ele>1112</ele>
        <time>2017-02-28T17:22:46Z</time>
      </trkpt>
      <trkpt lat="44.11774" lon="3.47905">
        <ele>1107</ele>
        <time>2017-02-28T17:24:46Z</time>
      </trkpt>
      <trkpt lat="44.11783" lon="3.47907">
        <ele>1106</ele>
        <time>2017-02-28T17:26:46Z</time>
      </trkpt>
      <trkpt lat="44.11795" lon="3.47908">
        <ele>1104</ele>
        <time>2017-02-28T17:28:46Z</time>
      </trkpt>
      <trkpt lat="44.11819" lon="3.47936">
        <ele>1100</ele>
        <time>2017-02-28T17:30:46Z</time>
      </trkpt>
      <trkpt lat="44.11829" lon="3.47951">
        <ele>1098</ele>
        <time>2017-02-28T17:32:46Z</time>
      </trkpt>
      <trkpt lat="44.11841" lon="3.47963">
        <ele>1097</ele>
        <time>2017-02-28T17:34:46Z</time>
      </trkpt>
      <trkpt lat="44.11867" lon="3.47982">
        <ele>1097</ele>
        <time>2017-02-28T17:36:46Z</time>
      </trkpt>
      <trkpt lat="44.11891" lon="3.48023">
        <ele>1099</ele>
        <time>2017-02-28T17:38:46Z</time>
      </trkpt>
      <trkpt lat="44.11895" lon="3.48034">
        <ele>1100</ele>
        <time>2017-02-28T17:40:46Z</time>
      </trkpt>
      <trkpt lat="44.11899" lon="3.48058">
        <ele>1100</ele>
        <time>2017-02-28T17:42:46Z</time>
      </trkpt>
      <trkpt lat="44.11899" lon="3.48075">
        <ele>1101</ele>
        <time>2017-02-28T17:44:46Z</time>
      </trkpt>
      <trkpt lat="44.119" lon="3.48089">
        <ele>1101</ele>
        <time>2017-02-28T17:46:46Z</time>
      </trkpt>
      <trkpt lat="44.11902" lon="3.48102">
        <ele>1102</ele>
        <time>2017-02-28T17:48:46Z</time>
      </trkpt>
      <trkpt lat="44.11904" lon="3.48115">
        <ele>1102</ele>
        <time>2017-02-28T17:50:46Z</time>
      </trkpt>
      <trkpt lat="44.11908" lon="3.48128">
        <ele>1103</ele>
        <time>2017-02-28T17:52:46Z</time>
      </trkpt>
      <trkpt lat="44.11916" lon="3.48145">
        <ele>1103</ele>
        <time>2017-02-28T17:54:46Z</time>
      </trkpt>
      <trkpt lat="44.11929" lon="3.48165">
        <ele>1104</ele>
        <time>2017-02-28T17:56:46Z</time>
      </trkpt>
      <trkpt lat="44.11951" lon="3.48193">
        <ele>1105</ele>
        <time>2017-02-28T17:58:46Z</time>
      </trkpt>
      <trkpt lat="44.11956" lon="3.48199">
        <ele>1105</ele>
        <time>2017-02-28T18:00:46Z</time>
      </trkpt>
      <trkpt lat="44.11971" lon="3.48211">
        <ele>1106</ele>
        <time>2017-02-28T18:02:46Z</time>
      </trkpt>
      <trkpt lat="44.11996" lon="3.48227">
        <ele>1107</ele>
        <time>2017-02-28T18:04:46Z</time>
      </trkpt>
      <trkpt lat="44.12022" lon="3.48239">
        <ele>1108</ele>
        <time>2017-02-28T18:06:46Z</time>
      </trkpt>
      <trkpt lat="44.12048" lon="3.48251">
        <ele>1110</ele>
        <time>2017-02-28T18:08:46Z</time>
      </trkpt>
      <trkpt lat="44.12063" lon="3.48257">
        <ele>1111</ele>
        <time>2017-02-28T18:10:46Z</time>
      </trkpt>
      <trkpt lat="44.12074" lon="3.48263">
        <ele>1112</ele>
        <time>2017-02-28T18:12:46Z</time>
      </trkpt>
      <trkpt lat="44.12076" lon="3.48266">
        <ele>1112</ele>
        <time>2017-02-28T18:14:46Z</time>
      </trkpt>
      <trkpt lat="44.12078" lon="3.4827">
        <ele>1113</ele>
        <time>2017-02-28T18:16:46Z</time>
      </trkpt>
      <trkpt lat="44.12089" lon="3.48303">
        <ele>1116</ele>
        <time>2017-02-28T18:18:46Z</time>
      </trkpt>
      <trkpt lat="44.12104" lon="3.48352">
        <ele>1121</ele>
        <time>2017-02-28T18:20:46Z</time>
      </trkpt>
      <trkpt lat="44.12107" lon="3.48359">
        <ele>1121</ele>
        <time>2017-02-28T18:22:46Z</time>
      </trkpt>
      <trkpt lat="44.12111" lon="3.48366">
        <ele>1122</ele>
        <time>2017-02-28T18:24:46Z</time>
      </trkpt>
      <trkpt lat="44.12116" lon="3.48373">
        <ele>1122</ele>
        <time>2017-02-28T18:26:46Z</time>
      </trkpt>
      <trkpt lat="44.12112" lon="3.48391">
        <ele>1122</ele>
        <time>2017-02-28T18:28:46Z</time>
      </trkpt>
      <trkpt lat="44.12122" lon="3.48403">
        <ele>1123</ele>
        <time>2017-02-28T18:30:46Z</time>
      </trkpt>
      <trkpt lat="44.12137" lon="3.48428">
        <ele>1125</ele>
        <time>2017-02-28T18:32:46Z</time>
      </trkpt>
      <trkpt lat="44.12148" lon="3.48446">
        <ele>1127</ele>
        <time>2017-02-28T18:34:46Z</time>
      </trkpt>
      <trkpt lat="44.12153" lon="3.48454">
        <ele>1128</ele>
        <time>2017-02-28T18:36:46Z</time>
      </trkpt>
      <trkpt lat="44.12158" lon="3.48458">
        <ele>1128</ele>
        <time>2017-02-28T18:38:46Z</time>
      </trkpt>
      <trkpt lat="44.12161" lon="3.48459">
        <ele>1129</ele>
        <time>2017-02-28T18:40:46Z</time>
      </trkpt>
      <trkpt lat="44.12165" lon="3.48459">
        <ele>1129</ele>
        <time>2017-02-28T18:42:46Z</time>
      </trkpt>
      <trkpt lat="44.12169" lon="3.48459">
        <ele>1129</ele>
        <time>2017-02-28T18:44:46Z</time>
      </trkpt>
      <trkpt lat="44.12174" lon="3.48456">
        <ele>1130</ele>
        <time>2017-02-28T18:46:46Z</time>
      </trkpt>
      <trkpt lat="44.12179" lon="3.48451">
        <ele>1131</ele>
        <time>2017-02-28T18:48:46Z</time>
      </trkpt>
      <trkpt lat="44.12182" lon="3.48444">
        <ele>1131</ele>
        <time>2017-02-28T18:50:46Z</time>
      </trkpt>
      <trkpt lat="44.12183" lon="3.48437">
        <ele>1131</ele>
        <time>2017-02-28T18:52:46Z</time>
      </trkpt>
      <trkpt lat="44.12181" lon="3.48429">
        <ele>1130</ele>
        <time>2017-02-28T18:54:46Z</time>
      </trkpt>
      <trkpt lat="44.12178" lon="3.48423">
        <ele>1129</ele>
        <time>2017-02-28T18:56:46Z</time>
      </trkpt>
      <trkpt lat="44.12172" lon="3.48416">
        <ele>1128</ele>
        <time>2017-02-28T18:58:46Z</time>
      </trkpt>
      <trkpt lat="44.12169" lon="3.48411">
        <ele>1128</ele>
        <time>2017-02-28T19:00:46Z</time>
      </trkpt>
      <trkpt lat="44.12167" lon="3.48406">
        <ele>1127</ele>
        <time>2017-02-28T19:02:46Z</time>
      </trkpt>
      <trkpt lat="44.12167" lon="3.48402">
        <ele>1128</ele>
        <time>2017-02-28T19:04:46Z</time>
      </trkpt>
      <trkpt lat="44.12168" lon="3.48379">
        <ele>1129</ele>
        <time>2017-02-28T19:06:46Z</time>
      </trkpt>
      <trkpt lat="44.12172" lon="3.48354">
        <ele>1130</ele>
        <time>2017-02-28T19:08:46Z</time>
      </trkpt>
      <trkpt lat="44.12175" lon="3.48343">
        <ele>1131</ele>
        <time>2017-02-28T19:10:46Z</time>
      </trkpt>
      <trkpt lat="44.12182" lon="3.48326">
        <ele>1132</ele>
        <time>2017-02-28T19:12:46Z</time>
      </trkpt>
      <trkpt lat="44.12187" lon="3.48318">
        <ele>1132</ele>
        <time>2017-02-28T19:14:46Z</time>
      </trkpt>
      <trkpt lat="44.12197" lon="3.48304">
        <ele>1133</ele>
        <time>2017-02-28T19:16:46Z</time>
      </trkpt>
      <trkpt lat="44.12204" lon="3.48298">
        <ele>1134</ele>
        <time>2017-02-28T19:18:46Z</time>
      </trkpt>
      <trkpt lat="44.12215" lon="3.48291">
        <ele>1135</ele>
        <time>2017-02-28T19:20:46Z</time>
      </trkpt>
      <trkpt lat="44.12231" lon="3.48284">
        <ele>1138</ele>
        <time>2017-02-28T19:22:46Z</time>
      </trkpt>
      <trkpt lat="44.12247" lon="3.48277">
        <ele>1140</ele>
        <time>2017-02-28T19:24:46Z</time>
      </trkpt>
      <trkpt lat="44.12254" lon="3.48276">
        <ele>1142</ele>
        <time>2017-02-28T19:26:46Z</time>
      </trkpt>
      <trkpt lat="44.12257" lon="3.48276">
        <ele>1143</ele>
        <time>2017-02-28T19:28:46Z</time>
      </trkpt>
      <trkpt lat="44.1226" lon="3.48278">
        <ele>1144</ele>
        <time>2017-02-28T19:30:46Z</time>
      </trkpt>
      <trkpt lat="44.12262" lon="3.48282">
        <ele>1144</ele>
        <time>2017-02-28T19:32:46Z</time>
      </trkpt>
      <trkpt lat="44.12264" lon="3.48292">
        <ele>1145</ele>
        <time>2017-02-28T19:34:46Z</time>
      </trkpt>
      <trkpt lat="44.12268" lon="3.48316">
        <ele>1148</ele>
        <time>2017-02-28T19:36:46Z</time>
      </trkpt>
      <trkpt lat="44.12277" lon="3.48358">
        <ele>1151</ele>
        <time>2017-02-28T19:38:46Z</time>
      </trkpt>
      <trkpt lat="44.12279" lon="3.48372">
        <ele>1152</ele>
        <time>2017-02-28T19:40:46Z</time>
      </trkpt>
      <trkpt lat="44.12284" lon="3.4841">
        <ele>1153</ele>
        <time>2017-02-28T19:42:46Z</time>
      </trkpt>
      <trkpt lat="44.12285" lon="3.48434">
        <ele>1155</ele>
        <time>2017-02-28T19:44:46Z</time>
      </trkpt>
      <trkpt lat="44.12286" lon="3.48443">
        <ele>1155</ele>
        <time>2017-02-28T19:46:46Z</time>
      </trkpt>
      <trkpt lat="44.12288" lon="3.48447">
        <ele>1156</ele>
        <time>2017-02-28T19:48:46Z</time>
      </trkpt>
      <trkpt lat="44.1229" lon="3.4845">
        <ele>1157</ele>
        <time>2017-02-28T19:50:46Z</time>
      </trkpt>
      <trkpt lat="44.12293" lon="3.48452">
        <ele>1158</ele>
        <time>2017-02-28T19:52:46Z</time>
      </trkpt>
      <trkpt lat="44.12297" lon="3.48452">
        <ele>1159</ele>
        <time>2017-02-28T19:54:46Z</time>
      </trkpt>
      <trkpt lat="44.123" lon="3.48451">
        <ele>1160</ele>
        <time>2017-02-28T19:56:46Z</time>
      </trkpt>
      <trkpt lat="44.12302" lon="3.48451">
        <ele>1161</ele>
        <time>2017-02-28T19:58:46Z</time>
      </trkpt>
      <trkpt lat="44.12303" lon="3.48445">
        <ele>1161</ele>
        <time>2017-02-28T20:00:46Z</time>
      </trkpt>
      <trkpt lat="44.12304" lon="3.48437">
        <ele>1161</ele>
        <time>2017-02-28T20:02:46Z</time>
      </trkpt>
      <trkpt lat="44.12302" lon="3.48413">
        <ele>1159</ele>
        <time>2017-02-28T20:04:46Z</time>
      </trkpt>
      <trkpt lat="44.12302" lon="3.48407">
        <ele>1159</ele>
        <time>2017-02-28T20:06:46Z</time>
      </trkpt>
      <trkpt lat="44.12304" lon="3.484">
        <ele>1160</ele>
        <time>2017-02-28T20:08:46Z</time>
      </trkpt>
      <trkpt lat="44.1231" lon="3.48367">
        <ele>1161</ele>
        <time>2017-02-28T20:10:46Z</time>
      </trkpt>
      <trkpt lat="44.12316" lon="3.48341">
        <ele>1163</ele>
        <time>2017-02-28T20:12:46Z</time>
      </trkpt>
      <trkpt lat="44.1232" lon="3.48328">
        <ele>1164</ele>
        <time>2017-02-28T20:14:46Z</time>
      </trkpt>
      <trkpt lat="44.12333" lon="3.48294">
        <ele>1165</ele>
        <time>2017-02-28T20:16:46Z</time>
      </trkpt>
      <trkpt lat="44.12341" lon="3.48271">
        <ele>1164</ele>
        <time>2017-02-28T20:18:46Z</time>
      </trkpt>
      <trkpt lat="44.12344" lon="3.48259">
        <ele>1164</ele>
        <time>2017-02-28T20:20:46Z</time>
      </trkpt>
      <trkpt lat="44.1235" lon="3.48237">
        <ele>1164</ele>
        <time>2017-02-28T20:22:46Z</time>
      </trkpt>
      <trkpt lat="44.12353" lon="3.48227">
        <ele>1165</ele>
        <time>2017-02-28T20:24:46Z</time>
      </trkpt>
      <trkpt lat="44.12357" lon="3.48218">
        <ele>1165</ele>
        <time>2017-02-28T20:26:46Z</time>
      </trkpt>
      <trkpt lat="44.12365" lon="3.48197">
        <ele>1166</ele>
        <time>2017-02-28T20:28:46Z</time>
      </trkpt>
      <trkpt lat="44.12374" lon="3.48165">
        <ele>1167</ele>
        <time>2017-02-28T20:30:46Z</time>
      </trkpt>
      <trkpt lat="44.12385" lon="3.48124">
        <ele>1169</ele>
        <time>2017-02-28T20:32:46Z</time>
      </trkpt>
      <trkpt lat="44.12394" lon="3.48089">
        <ele>1170</ele>
        <time>2017-02-28T20:34:46Z</time>
      </trkpt>
      <trkpt lat="44.12397" lon="3.48085">
        <ele>1170</ele>
        <time>2017-02-28T20:36:46Z</time>
      </trkpt>
      <trkpt lat="44.124" lon="3.48083">
        <ele>1171</ele>
        <time>2017-02-28T20:38:46Z</time>
      </trkpt>
      <trkpt lat="44.12405" lon="3.48082">
        <ele>1172</ele>
        <time>2017-02-28T20:40:46Z</time>
      </trkpt>
      <trkpt lat="44.12413" lon="3.48082">
        <ele>1173</ele>
        <time>2017-02-28T20:42:46Z</time>
      </trkpt>
      <trkpt lat="44.12416" lon="3.48084">
        <ele>1174</ele>
        <time>2017-02-28T20:44:46Z</time>
      </trkpt>
      <trkpt lat="44.12422" lon="3.48092">
        <ele>1173</ele>
        <time>2017-02-28T20:46:46Z</time>
      </trkpt>
      <trkpt lat="44.12445" lon="3.48145">
        <ele>1172</ele>
        <time>2017-02-28T20:48:46Z</time>
      </trkpt>
      <trkpt lat="44.12465" lon="3.48196">
        <ele>1174</ele>
        <time>2017-02-28T20:50:46Z</time>
      </trkpt>
      <trkpt lat="44.12471" lon="3.48211">
        <ele>1175</ele>
        <time>2017-02-28T20:52:46Z</time>
      </trkpt>
      <trkpt lat="44.12477" lon="3.48226">
        <ele>1177</ele>
        <time>2017-02-28T20:54:46Z</time>
      </trkpt>
      <trkpt lat="44.1248" lon="3.48235">
        <ele>1178</ele>
        <time>2017-02-28T20:56:46Z</time>
      </trkpt>
      <trkpt lat="44.1248" lon="3.48245">
        <ele>1179</ele>
        <time>2017-02-28T20:58:46Z</time>
      </trkpt>
      <trkpt lat="44.1248" lon="3.48255">
        <ele>1179</ele>
        <time>2017-02-28T21:00:46Z</time>
      </trkpt>
      <trkpt lat="44.12478" lon="3.48268">
        <ele>1180</ele>
        <time>2017-02-28T21:02:46Z</time>
      </trkpt>
      <trkpt lat="44.12474" lon="3.48291">
        <ele>1181</ele>
        <time>2017-02-28T21:04:46Z</time>
      </trkpt>
      <trkpt lat="44.12464" lon="3.48341">
        <ele>1183</ele>
        <time>2017-02-28T21:06:46Z</time>
      </trkpt>
      <trkpt lat="44.12464" lon="3.48349">
        <ele>1184</ele>
        <time>2017-02-28T21:08:46Z</time>
      </trkpt>
      <trkpt lat="44.12464" lon="3.48357">
        <ele>1184</ele>
        <time>2017-02-28T21:10:46Z</time>
      </trkpt>
      <trkpt lat="44.12468" lon="3.48362">
        <ele>1185</ele>
        <time>2017-02-28T21:12:46Z</time>
      </trkpt>
      <trkpt lat="44.12471" lon="3.48363">
        <ele>1185</ele>
        <time>2017-02-28T21:14:46Z</time>
      </trkpt>
      <trkpt lat="44.12475" lon="3.4836">
        <ele>1185</ele>
        <time>2017-02-28T21:16:46Z</time>
      </trkpt>
      <trkpt lat="44.12479" lon="3.48355">
        <ele>1185</ele>
        <time>2017-02-28T21:18:46Z</time>
      </trkpt>
      <trkpt lat="44.12502" lon="3.48309">
        <ele>1183</ele>
        <time>2017-02-28T21:20:46Z</time>
      </trkpt>
      <trkpt lat="44.1252" lon="3.48275">
        <ele>1185</ele>
        <time>2017-02-28T21:22:46Z</time>
      </trkpt>
      <trkpt lat="44.12541" lon="3.48238">
        <ele>1186</ele>
        <time>2017-02-28T21:24:46Z</time>
      </trkpt>
      <trkpt lat="44.12547" lon="3.48226">
        <ele>1185</ele>
        <time>2017-02-28T21:26:46Z</time>
      </trkpt>
      <trkpt lat="44.12554" lon="3.48218">
        <ele>1184</ele>
        <time>2017-02-28T21:28:46Z</time>
      </trkpt>
      <trkpt lat="44.12562" lon="3.48212">
        <ele>1184</ele>
        <time>2017-02-28T21:30:46Z</time>
      </trkpt>
      <trkpt lat="44.12582" lon="3.48203">
        <ele>1185</ele>
        <time>2017-02-28T21:32:46Z</time>
      </trkpt>
      <trkpt lat="44.12604" lon="3.48194">
        <ele>1186</ele>
        <time>2017-02-28T21:34:46Z</time>
      </trkpt>
      <trkpt lat="44.1265" lon="3.48179">
        <ele>1188</ele>
        <time>2017-02-28T21:36:46Z</time>
      </trkpt>
      <trkpt lat="44.12663" lon="3.48175">
        <ele>1189</ele>
        <time>2017-02-28T21:38:46Z</time>
      </trkpt>
      <trkpt lat="44.12672" lon="3.48174">
        <ele>1189</ele>
        <time>2017-02-28T21:40:46Z</time>
      </trkpt>
      <trkpt lat="44.12692" lon="3.48176">
        <ele>1189</ele>
        <time>2017-02-28T21:42:46Z</time>
      </trkpt>
      <trkpt lat="44.12709" lon="3.48179">
        <ele>1190</ele>
        <time>2017-02-28T21:44:46Z</time>
      </trkpt>
      <trkpt lat="44.12723" lon="3.48182">
        <ele>1191</ele>
        <time>2017-02-28T21:46:46Z</time>
      </trkpt>
      <trkpt lat="44.12734" lon="3.48189">
        <ele>1193</ele>
        <time>2017-02-28T21:48:46Z</time>
      </trkpt>
      <trkpt lat="44.12746" lon="3.48199">
        <ele>1195</ele>
        <time>2017-02-28T21:50:46Z</time>
      </trkpt>
      <trkpt lat="44.12757" lon="3.48211">
        <ele>1198</ele>
        <time>2017-02-28T21:52:46Z</time>
      </trkpt>
      <trkpt lat="44.12765" lon="3.48222">
        <ele>1200</ele>
        <time>2017-02-28T21:54:46Z</time>
      </trkpt>
      <trkpt lat="44.12771" lon="3.4823">
        <ele>1202</ele>
        <time>2017-02-28T21:56:46Z</time>
      </trkpt>
      <trkpt lat="44.12778" lon="3.48235">
        <ele>1202</ele>
        <time>2017-02-28T21:58:46Z</time>
      </trkpt>
      <trkpt lat="44.12791" lon="3.48242">
        <ele>1203</ele>
        <time>2017-02-28T22:00:46Z</time>
      </trkpt>
      <trkpt lat="44.12811" lon="3.48252">
        <ele>1204</ele>
        <time>2017-02-28T22:02:46Z</time>
      </trkpt>
      <trkpt lat="44.12823" lon="3.48257">
        <ele>1204</ele>
        <time>2017-02-28T22:04:46Z</time>
      </trkpt>
      <trkpt lat="44.12836" lon="3.48261">
        <ele>1204</ele>
        <time>2017-02-28T22:06:46Z</time>
      </trkpt>
      <trkpt lat="44.12845" lon="3.48265">
        <ele>1205</ele>
        <time>2017-02-28T22:08:46Z</time>
      </trkpt>
      <trkpt lat="44.12856" lon="3.48271">
        <ele>1206</ele>
        <time>2017-02-28T22:10:46Z</time>
      </trkpt>
      <trkpt lat="44.12864" lon="3.48279">
        <ele>1207</ele>
        <time>2017-02-28T22:12:46Z</time>
      </trkpt>
      <trkpt lat="44.12872" lon="3.4829">
        <ele>1207</ele>
        <time>2017-02-28T22:14:46Z</time>
      </trkpt>
      <trkpt lat="44.12877" lon="3.483">
        <ele>1207</ele>
        <time>2017-02-28T22:16:46Z</time>
      </trkpt>
      <trkpt lat="44.1288" lon="3.4831">
        <ele>1207</ele>
        <time>2017-02-28T22:18:46Z</time>
      </trkpt>
      <trkpt lat="44.12879" lon="3.48321">
        <ele>1207</ele>
        <time>2017-02-28T22:20:46Z</time>
      </trkpt>
      <trkpt lat="44.12873" lon="3.48342">
        <ele>1208</ele>
        <time>2017-02-28T22:22:46Z</time>
      </trkpt>
      <trkpt lat="44.1286" lon="3.48375">
        <ele>1210</ele>
        <time>2017-02-28T22:24:46Z</time>
      </trkpt>
      <trkpt lat="44.12851" lon="3.48399">
        <ele>1212</ele>
        <time>2017-02-28T22:26:46Z</time>
      </trkpt>
      <trkpt lat="44.12846" lon="3.48413">
        <ele>1213</ele>
        <time>2017-02-28T22:28:46Z</time>
      </trkpt>
      <trkpt lat="44.12845" lon="3.48425">
        <ele>1214</ele>
        <time>2017-02-28T22:30:46Z</time>
      </trkpt>
      <trkpt lat="44.12845" lon="3.4844">
        <ele>1215</ele>
        <time>2017-02-28T22:32:46Z</time>
      </trkpt>
      <trkpt lat="44.12845" lon="3.48446">
        <ele>1215</ele>
        <time>2017-02-28T22:34:46Z</time>
      </trkpt>
      <trkpt lat="44.12854" lon="3.48466">
        <ele>1215</ele>
        <time>2017-02-28T22:36:46Z</time>
      </trkpt>
      <trkpt lat="44.12863" lon="3.4848">
        <ele>1215</ele>
        <time>2017-02-28T22:38:46Z</time>
      </trkpt>
      <trkpt lat="44.12871" lon="3.48483">
        <ele>1214</ele>
        <time>2017-02-28T22:40:46Z</time>
      </trkpt>
      <trkpt lat="44.12884" lon="3.48484">
        <ele>1213</ele>
        <time>2017-02-28T22:42:46Z</time>
      </trkpt>
      <trkpt lat="44.12904" lon="3.48478">
        <ele>1210</ele>
        <time>2017-02-28T22:44:46Z</time>
      </trkpt>
      <trkpt lat="44.12925" lon="3.48477">
        <ele>1207</ele>
        <time>2017-02-28T22:46:46Z</time>
      </trkpt>
      <trkpt lat="44.12976" lon="3.48481">
        <ele>1197</ele>
        <time>2017-02-28T22:48:46Z</time>
      </trkpt>
      <trkpt lat="44.12983" lon="3.48483">
        <ele>1195</ele>
        <time>2017-02-28T22:50:46Z</time>
      </trkpt>
      <trkpt lat="44.12996" lon="3.48492">
        <ele>1194</ele>
        <time>2017-02-28T22:52:46Z</time>
      </trkpt>
      <trkpt lat="44.1302" lon="3.48512">
        <ele>1191</ele>
        <time>2017-02-28T22:54:46Z</time>
      </trkpt>
      <trkpt lat="44.13045" lon="3.48538">
        <ele>1191</ele>
        <time>2017-02-28T22:56:46Z</time>
      </trkpt>
      <trkpt lat="44.13064" lon="3.48553">
        <ele>1189</ele>
        <time>2017-02-28T22:58:46Z</time>
      </trkpt>
      <trkpt lat="44.13083" lon="3.48564">
        <ele>1187</ele>
        <time>2017-02-28T23:00:46Z</time>
      </trkpt>
      <trkpt lat="44.13111" lon="3.48579">
        <ele>1191</ele>
        <time>2017-02-28T23:02:46Z</time>
      </trkpt>
      <trkpt lat="44.13122" lon="3.48584">
        <ele>1192</ele>
        <time>2017-02-28T23:04:46Z</time>
      </trkpt>
      <trkpt lat="44.13129" lon="3.48584">
        <ele>1192</ele>
        <time>2017-02-28T23:06:46Z</time>
      </trkpt>
      <trkpt lat="44.13134" lon="3.4858">
        <ele>1191</ele>
        <time>2017-02-28T23:08:46Z</time>
      </trkpt>
      <trkpt lat="44.13152" lon="3.48565">
        <ele>1187</ele>
        <time>2017-02-28T23:10:46Z</time>
      </trkpt>
      <trkpt lat="44.13167" lon="3.48553">
        <ele>1184</ele>
        <time>2017-02-28T23:12:46Z</time>
      </trkpt>
      <trkpt lat="44.13188" lon="3.48542">
        <ele>1182</ele>
        <time>2017-02-28T23:14:46Z</time>
      </trkpt>
      <trkpt lat="44.1321" lon="3.48536">
        <ele>1182</ele>
        <time>2017-02-28T23:16:46Z</time>
      </trkpt>
      <trkpt lat="44.13233" lon="3.4853">
        <ele>1182</ele>
        <time>2017-02-28T23:18:46Z</time>
      </trkpt>
      <trkpt lat="44.13246" lon="3.48529">
        <ele>1182</ele>
        <time>2017-02-28T23:20:46Z</time>
      </trkpt>
      <trkpt lat="44.1326" lon="3.48531">
        <ele>1184</ele>
        <time>2017-02-28T23:22:46Z</time>
      </trkpt>
      <trkpt lat="44.1327" lon="3.48534">
        <ele>1186</ele>
        <time>2017-02-28T23:24:46Z</time>
      </trkpt>
      <trkpt lat="44.1328" lon="3.48535">
        <ele>1187</ele>
        <time>2017-02-28T23:26:46Z</time>
      </trkpt>
      <trkpt lat="44.13289" lon="3.48535">
        <ele>1187</ele>
        <time>2017-02-28T23:28:46Z</time>
      </trkpt>
      <trkpt lat="44.133" lon="3.48532">
        <ele>1186</ele>
        <time>2017-02-28T23:30:46Z</time>
      </trkpt>
      <trkpt lat="44.13344" lon="3.48516">
        <ele>1181</ele>
        <time>2017-02-28T23:32:46Z</time>
      </trkpt>
      <trkpt lat="44.13365" lon="3.48514">
        <ele>1178</ele>
        <time>2017-02-28T23:34:46Z</time>
      </trkpt>
      <trkpt lat="44.13389" lon="3.48519">
        <ele>1177</ele>
        <time>2017-02-28T23:36:46Z</time>
      </trkpt>
      <trkpt lat="44.13401" lon="3.48523">
        <ele>1177</ele>
        <time>2017-02-28T23:38:46Z</time>
      </trkpt>
      <trkpt lat="44.13412" lon="3.48529">
        <ele>1177</ele>
        <time>2017-02-28T23:40:46Z</time>
      </trkpt>
      <trkpt lat="44.1342" lon="3.48536">
        <ele>1178</ele>
        <time>2017-02-28T23:42:46Z</time>
      </trkpt>
      <trkpt lat="44.13428" lon="3.48543">
        <ele>1178</ele>
        <time>2017-02-28T23:44:46Z</time>
      </trkpt>
      <trkpt lat="44.13435" lon="3.48545">
        <ele>1178</ele>
        <time>2017-02-28T23:46:46Z</time>
      </trkpt>
      <trkpt lat="44.13448" lon="3.48543">
        <ele>1176</ele>
        <time>2017-02-28T23:48:46Z</time>
      </trkpt>
      <trkpt lat="44.13458" lon="3.48543">
        <ele>1175</ele>
        <time>2017-02-28T23:50:46Z</time>
      </trkpt>
      <trkpt lat="44.13466" lon="3.48546">
        <ele>1174</ele>
        <time>2017-02-28T23:52:46Z</time>
      </trkpt>
      <trkpt lat="44.13471" lon="3.48551">
        <ele>1174</ele>
        <time>2017-02-28T23:54:46Z</time>
      </trkpt>
      <trkpt lat="44.13473" lon="3.48557">
        <ele>1174</ele>
        <time>2017-02-28T23:56:46Z</time>
      </trkpt>
      <trkpt lat="44.13474" lon="3.48569">
        <ele>1175</ele>
        <time>2017-02-28T23:58:46Z</time>
      </trkpt>
      <trkpt lat="44.13472" lon="3.48581">
        <ele>1176</ele>
        <time>2017-03-01T00:00:46Z</time>
      </trkpt>
      <trkpt lat="44.1347" lon="3.48594">
        <ele>1177</ele>
        <time>2017-03-01T00:02:46Z</time>
      </trkpt>
      <trkpt lat="44.13467" lon="3.48612">
        <ele>1178</ele>
        <time>2017-03-01T00:04:46Z</time>
      </trkpt>
      <trkpt lat="44.1346" lon="3.4861">
        <ele>1180</ele>
        <time>2017-03-01T00:06:46Z</time>
      </trkpt>
      <trkpt lat="44.13467" lon="3.48612">
        <ele>1178</ele>
        <time>2017-03-01T00:08:46Z</time>
      </trkpt>
      <trkpt lat="44.13464" lon="3.48624">
        <ele>1179</ele>
        <time>2017-03-01T00:10:46Z</time>
      </trkpt>
      <trkpt lat="44.13461" lon="3.48649">
        <ele>1181</ele>
        <time>2017-03-01T00:12:46Z</time>
      </trkpt>
      <trkpt lat="44.1346" lon="3.48667">
        <ele>1182</ele>
        <time>2017-03-01T00:14:46Z</time>
      </trkpt>
      <trkpt lat="44.1346" lon="3.48683">
        <ele>1182</ele>
        <time>2017-03-01T00:16:46Z</time>
      </trkpt>
      <trkpt lat="44.13465" lon="3.48718">
        <ele>1181</ele>
        <time>2017-03-01T00:18:46Z</time>
      </trkpt>
      <trkpt lat="44.13468" lon="3.48744">
        <ele>1179</ele>
        <time>2017-03-01T00:20:46Z</time>
      </trkpt>
      <trkpt lat="44.13472" lon="3.48783">
        <ele>1180</ele>
        <time>2017-03-01T00:22:46Z</time>
      </trkpt>
      <trkpt lat="44.13478" lon="3.48815">
        <ele>1180</ele>
        <time>2017-03-01T00:24:46Z</time>
      </trkpt>
      <trkpt lat="44.13482" lon="3.48835">
        <ele>1180</ele>
        <time>2017-03-01T00:26:46Z</time>
      </trkpt>
      <trkpt lat="44.13484" lon="3.48865">
        <ele>1183</ele>
        <time>2017-03-01T00:28:46Z</time>
      </trkpt>
      <trkpt lat="44.13488" lon="3.48894">
        <ele>1186</ele>
        <time>2017-03-01T00:30:46Z</time>
      </trkpt>
      <trkpt lat="44.13491" lon="3.48908">
        <ele>1187</ele>
        <time>2017-03-01T00:32:46Z</time>
      </trkpt>
      <trkpt lat="44.13495" lon="3.48917">
        <ele>1187</ele>
        <time>2017-03-01T00:34:46Z</time>
      </trkpt>
      <trkpt lat="44.135" lon="3.48921">
        <ele>1186</ele>
        <time>2017-03-01T00:36:46Z</time>
      </trkpt>
      <trkpt lat="44.13544" lon="3.48943">
        <ele>1181</ele>
        <time>2017-03-01T00:38:46Z</time>
      </trkpt>
      <trkpt lat="44.13563" lon="3.4896">
        <ele>1180</ele>
        <time>2017-03-01T00:40:46Z</time>
      </trkpt>
      <trkpt lat="44.13582" lon="3.48985">
        <ele>1181</ele>
        <time>2017-03-01T00:42:46Z</time>
      </trkpt>
      <trkpt lat="44.1359" lon="3.49">
        <ele>1182</ele>
        <time>2017-03-01T00:44:46Z</time>
      </trkpt>
      <trkpt lat="44.13594" lon="3.49012">
        <ele>1181</ele>
        <time>2017-03-01T00:46:46Z</time>
      </trkpt>
      <trkpt lat="44.13597" lon="3.49032">
        <ele>1181</ele>
        <time>2017-03-01T00:48:46Z</time>
      </trkpt>
      <trkpt lat="44.13596" lon="3.49052">
        <ele>1182</ele>
        <time>2017-03-01T00:50:46Z</time>
      </trkpt>
      <trkpt lat="44.13593" lon="3.4907">
        <ele>1184</ele>
        <time>2017-03-01T00:52:46Z</time>
      </trkpt>
      <trkpt lat="44.13588" lon="3.49081">
        <ele>1186</ele>
        <time>2017-03-01T00:54:46Z</time>
      </trkpt>
      <trkpt lat="44.13573" lon="3.49099">
        <ele>1190</ele>
        <time>2017-03-01T00:56:46Z</time>
      </trkpt>
      <trkpt lat="44.13567" lon="3.4911">
        <ele>1191</ele>
        <time>2017-03-01T00:58:46Z</time>
      </trkpt>
      <trkpt lat="44.13556" lon="3.49128">
        <ele>1193</ele>
        <time>2017-03-01T01:00:46Z</time>
      </trkpt>
      <trkpt lat="44.13548" lon="3.49137">
        <ele>1195</ele>
        <time>2017-03-01T01:02:46Z</time>
      </trkpt>
      <trkpt lat="44.13533" lon="3.49147">
        <ele>1199</ele>
        <time>2017-03-01T01:04:46Z</time>
      </trkpt>
      <trkpt lat="44.13517" lon="3.49161">
        <ele>1203</ele>
        <time>2017-03-01T01:06:46Z</time>
      </trkpt>
      <trkpt lat="44.13508" lon="3.49169">
        <ele>1206</ele>
        <time>2017-03-01T01:08:46Z</time>
      </trkpt>
      <trkpt lat="44.13505" lon="3.49176">
        <ele>1208</ele>
        <time>2017-03-01T01:10:46Z</time>
      </trkpt>
      <trkpt lat="44.13504" lon="3.49184">
        <ele>1209</ele>
        <time>2017-03-01T01:12:46Z</time>
      </trkpt>
      <trkpt lat="44.13505" lon="3.49191">
        <ele>1210</ele>
        <time>2017-03-01T01:14:46Z</time>
      </trkpt>
      <trkpt lat="44.13509" lon="3.49198">
        <ele>1210</ele>
        <time>2017-03-01T01:16:46Z</time>
      </trkpt>
      <trkpt lat="44.13518" lon="3.49211">
        <ele>1209</ele>
        <time>2017-03-01T01:18:46Z</time>
      </trkpt>
      <trkpt lat="44.13526" lon="3.4923">
        <ele>1210</ele>
        <time>2017-03-01T01:20:46Z</time>
      </trkpt>
      <trkpt lat="44.13537" lon="3.49254">
        <ele>1211</ele>
        <time>2017-03-01T01:22:46Z</time>
      </trkpt>
      <trkpt lat="44.13544" lon="3.4926">
        <ele>1211</ele>
        <time>2017-03-01T01:24:46Z</time>
      </trkpt>
      <trkpt lat="44.1355" lon="3.49262">
        <ele>1210</ele>
        <time>2017-03-01T01:26:46Z</time>
      </trkpt>
      <trkpt lat="44.13557" lon="3.49261">
        <ele>1208</ele>
        <time>2017-03-01T01:28:46Z</time>
      </trkpt>
      <trkpt lat="44.13574" lon="3.49253">
        <ele>1202</ele>
        <time>2017-03-01T01:30:46Z</time>
      </trkpt>
      <trkpt lat="44.13584" lon="3.49253">
        <ele>1200</ele>
        <time>2017-03-01T01:32:46Z</time>
      </trkpt>
      <trkpt lat="44.13593" lon="3.49256">
        <ele>1198</ele>
        <time>2017-03-01T01:34:46Z</time>
      </trkpt>
      <trkpt lat="44.13601" lon="3.49263">
        <ele>1198</ele>
        <time>2017-03-01T01:36:46Z</time>
      </trkpt>
      <trkpt lat="44.13609" lon="3.49278">
        <ele>1200</ele>
        <time>2017-03-01T01:38:46Z</time>
      </trkpt>
      <trkpt lat="44.13625" lon="3.49308">
        <ele>1204</ele>
        <time>2017-03-01T01:40:46Z</time>
      </trkpt>
      <trkpt lat="44.13643" lon="3.49328">
        <ele>1205</ele>
        <time>2017-03-01T01:42:46Z</time>
      </trkpt>
      <trkpt lat="44.1366" lon="3.49346">
        <ele>1205</ele>
        <time>2017-03-01T01:44:46Z</time>
      </trkpt>
      <trkpt lat="44.1368" lon="3.4937">
        <ele>1204</ele>
        <time>2017-03-01T01:46:46Z</time>
      </trkpt>
      <trkpt lat="44.13696" lon="3.49395">
        <ele>1204</ele>
        <time>2017-03-01T01:48:46Z</time>
      </trkpt>
      <trkpt lat="44.13704" lon="3.49414">
        <ele>1205</ele>
        <time>2017-03-01T01:50:46Z</time>
      </trkpt>
      <trkpt lat="44.13709" lon="3.49427">
        <ele>1205</ele>
        <time>2017-03-01T01:52:46Z</time>
      </trkpt>
      <trkpt lat="44.1371" lon="3.49447">
        <ele>1206</ele>
        <time>2017-03-01T01:54:46Z</time>
      </trkpt>
      <trkpt lat="44.13709" lon="3.49481">
        <ele>1209</ele>
        <time>2017-03-01T01:56:46Z</time>
      </trkpt>
      <trkpt lat="44.13707" lon="3.49531">
        <ele>1211</ele>
        <time>2017-03-01T01:58:46Z</time>
      </trkpt>
      <trkpt lat="44.13707" lon="3.49591">
        <ele>1211</ele>
        <time>2017-03-01T02:00:46Z</time>
      </trkpt>
      <trkpt lat="44.13706" lon="3.49644">
        <ele>1212</ele>
        <time>2017-03-01T02:02:46Z</time>
      </trkpt>
      <trkpt lat="44.13704" lon="3.49688">
        <ele>1213</ele>
        <time>2017-03-01T02:04:46Z</time>
      </trkpt>
      <trkpt lat="44.137" lon="3.49725">
        <ele>1215</ele>
        <time>2017-03-01T02:06:46Z</time>
      </trkpt>
      <trkpt lat="44.13693" lon="3.49766">
        <ele>1216</ele>
        <time>2017-03-01T02:08:46Z</time>
      </trkpt>
      <trkpt lat="44.1369" lon="3.49782">
        <ele>1215</ele>
        <time>2017-03-01T02:10:46Z</time>
      </trkpt>
      <trkpt lat="44.13684" lon="3.49795">
        <ele>1216</ele>
        <time>2017-03-01T02:12:46Z</time>
      </trkpt>
      <trkpt lat="44.1367" lon="3.49823">
        <ele>1218</ele>
        <time>2017-03-01T02:14:46Z</time>
      </trkpt>
      <trkpt lat="44.1366" lon="3.49839">
        <ele>1218</ele>
        <time>2017-03-01T02:16:46Z</time>
      </trkpt>
      <trkpt lat="44.13648" lon="3.49854">
        <ele>1217</ele>
        <time>2017-03-01T02:18:46Z</time>
      </trkpt>
      <trkpt lat="44.13633" lon="3.49868">
        <ele>1216</ele>
        <time>2017-03-01T02:20:46Z</time>
      </trkpt>
      <trkpt lat="44.13618" lon="3.4988">
        <ele>1216</ele>
        <time>2017-03-01T02:22:46Z</time>
      </trkpt>
      <trkpt lat="44.13614" lon="3.49883">
        <ele>1216</ele>
        <time>2017-03-01T02:24:46Z</time>
      </trkpt>
      <trkpt lat="44.1363" lon="3.49936">
        <ele>1193</ele>
        <time>2017-03-01T02:26:46Z</time>
      </trkpt>
      <trkpt lat="44.13614" lon="3.49883">
        <ele>1216</ele>
        <time>2017-03-01T02:28:46Z</time>
      </trkpt>
      <trkpt lat="44.13606" lon="3.49888">
        <ele>1216</ele>
        <time>2017-03-01T02:30:46Z</time>
      </trkpt>
      <trkpt lat="44.13596" lon="3.4989">
        <ele>1218</ele>
        <time>2017-03-01T02:32:46Z</time>
      </trkpt>
      <trkpt lat="44.13581" lon="3.49891">
        <ele>1221</ele>
        <time>2017-03-01T02:34:46Z</time>
      </trkpt>
      <trkpt lat="44.13566" lon="3.49888">
        <ele>1224</ele>
        <time>2017-03-01T02:36:46Z</time>
      </trkpt>
      <trkpt lat="44.13553" lon="3.49888">
        <ele>1226</ele>
        <time>2017-03-01T02:38:46Z</time>
      </trkpt>
      <trkpt lat="44.1354" lon="3.49889">
        <ele>1228</ele>
        <time>2017-03-01T02:40:46Z</time>
      </trkpt>
      <trkpt lat="44.13521" lon="3.49893">
        <ele>1229</ele>
        <time>2017-03-01T02:42:46Z</time>
      </trkpt>
      <trkpt lat="44.135" lon="3.49902">
        <ele>1229</ele>
        <time>2017-03-01T02:44:46Z</time>
      </trkpt>
      <trkpt lat="44.13473" lon="3.49919">
        <ele>1230</ele>
        <time>2017-03-01T02:46:46Z</time>
      </trkpt>
      <trkpt lat="44.13448" lon="3.49938">
        <ele>1230</ele>
        <time>2017-03-01T02:48:46Z</time>
      </trkpt>
      <trkpt lat="44.1343" lon="3.4995">
        <ele>1231</ele>
        <time>2017-03-01T02:50:46Z</time>
      </trkpt>
      <trkpt lat="44.13412" lon="3.49956">
        <ele>1233</ele>
        <time>2017-03-01T02:52:46Z</time>
      </trkpt>
      <trkpt lat="44.13387" lon="3.4996">
        <ele>1236</ele>
        <time>2017-03-01T02:54:46Z</time>
      </trkpt>
      <trkpt lat="44.13357" lon="3.49963">
        <ele>1239</ele>
        <time>2017-03-01T02:56:46Z</time>
      </trkpt>
      <trkpt lat="44.13324" lon="3.49965">
        <ele>1243</ele>
        <time>2017-03-01T02:58:46Z</time>
      </trkpt>
      <trkpt lat="44.13294" lon="3.49972">
        <ele>1246</ele>
        <time>2017-03-01T03:00:46Z</time>
      </trkpt>
      <trkpt lat="44.13258" lon="3.49985">
        <ele>1249</ele>
        <time>2017-03-01T03:02:46Z</time>
      </trkpt>
      <trkpt lat="44.13242" lon="3.49993">
        <ele>1251</ele>
        <time>2017-03-01T03:04:46Z</time>
      </trkpt>
      <trkpt lat="44.13236" lon="3.50001">
        <ele>1251</ele>
        <time>2017-03-01T03:06:46Z</time>
      </trkpt>
      <trkpt lat="44.13231" lon="3.50015">
        <ele>1250</ele>
        <time>2017-03-01T03:08:46Z</time>
      </trkpt>
      <trkpt lat="44.13226" lon="3.50034">
        <ele>1248</ele>
        <time>2017-03-01T03:10:46Z</time>
      </trkpt>
      <trkpt lat="44.13216" lon="3.50058">
        <ele>1247</ele>
        <time>2017-03-01T03:12:46Z</time>
      </trkpt>
      <trkpt lat="44.13205" lon="3.50079">
        <ele>1246</ele>
        <time>2017-03-01T03:14:46Z</time>
      </trkpt>
      <trkpt lat="44.13196" lon="3.50093">
        <ele>1247</ele>
        <time>2017-03-01T03:16:46Z</time>
      </trkpt>
      <trkpt lat="44.1319" lon="3.501">
        <ele>1247</ele>
        <time>2017-03-01T03:18:46Z</time>
      </trkpt>
      <trkpt lat="44.1318" lon="3.50109">
        <ele>1249</ele>
        <time>2017-03-01T03:20:46Z</time>
      </trkpt>
      <trkpt lat="44.13167" lon="3.50116">
        <ele>1253</ele>
        <time>2017-03-01T03:22:46Z</time>
      </trkpt>
      <trkpt lat="44.13153" lon="3.50123">
        <ele>1258</ele>
        <time>2017-03-01T03:24:46Z</time>
      </trkpt>
      <trkpt lat="44.13146" lon="3.50129">
        <ele>1260</ele>
        <time>2017-03-01T03:26:46Z</time>
      </trkpt>
      <trkpt lat="44.13143" lon="3.50135">
        <ele>1260</ele>
        <time>2017-03-01T03:28:46Z</time>
      </trkpt>
      <trkpt lat="44.13132" lon="3.50183">
        <ele>1258</ele>
        <time>2017-03-01T03:30:46Z</time>
      </trkpt>
      <trkpt lat="44.13129" lon="3.50206">
        <ele>1259</ele>
        <time>2017-03-01T03:32:46Z</time>
      </trkpt>
      <trkpt lat="44.13128" lon="3.50224">
        <ele>1259</ele>
        <time>2017-03-01T03:34:46Z</time>
      </trkpt>
      <trkpt lat="44.13129" lon="3.50243">
        <ele>1258</ele>
        <time>2017-03-01T03:36:46Z</time>
      </trkpt>
      <trkpt lat="44.13134" lon="3.5027">
        <ele>1256</ele>
        <time>2017-03-01T03:38:46Z</time>
      </trkpt>
      <trkpt lat="44.13139" lon="3.50288">
        <ele>1254</ele>
        <time>2017-03-01T03:40:46Z</time>
      </trkpt>
      <trkpt lat="44.13158" lon="3.50327">
        <ele>1251</ele>
        <time>2017-03-01T03:42:46Z</time>
      </trkpt>
      <trkpt lat="44.13166" lon="3.50347">
        <ele>1250</ele>
        <time>2017-03-01T03:44:46Z</time>
      </trkpt>
      <trkpt lat="44.13172" lon="3.50369">
        <ele>1248</ele>
        <time>2017-03-01T03:46:46Z</time>
      </trkpt>
      <trkpt lat="44.13174" lon="3.50384">
        <ele>1247</ele>
        <time>2017-03-01T03:48:46Z</time>
      </trkpt>
      <trkpt lat="44.13175" lon="3.50392">
        <ele>1246</ele>
        <time>2017-03-01T03:50:46Z</time>
      </trkpt>
      <trkpt lat="44.13175" lon="3.50397">
        <ele>1246</ele>
        <time>2017-03-01T03:52:46Z</time>
      </trkpt>
      <trkpt lat="44.13153" lon="3.50389">
        <ele>1250</ele>
        <time>2017-03-01T03:54:46Z</time>
      </trkpt>
      <trkpt lat="44.1313" lon="3.50381">
        <ele>1254</ele>
        <time>2017-03-01T03:56:46Z</time>
      </trkpt>
      <trkpt lat="44.13089" lon="3.50367">
        <ele>1262</ele>
        <time>2017-03-01T03:58:46Z</time>
      </trkpt>
      <trkpt lat="44.13042" lon="3.50356">
        <ele>1270</ele>
        <time>2017-03-01T04:00:46Z</time>
      </trkpt>
      <trkpt lat="44.12984" lon="3.50336">
        <ele>1280</ele>
        <time>2017-03-01T04:02:46Z</time>
      </trkpt>
      <trkpt lat="44.12941" lon="3.50321">
        <ele>1287</ele>
        <time>2017-03-01T04:04:46Z</time>
      </trkpt>
      <trkpt lat="44.12916" lon="3.50317">
        <ele>1289</ele>
        <time>2017-03-01T04:06:46Z</time>
      </trkpt>
      <trkpt lat="44.12901" lon="3.50318">
        <ele>1292</ele>
        <time>2017-03-01T04:08:46Z</time>
      </trkpt>
      <trkpt lat="44.12892" lon="3.50321">
        <ele>1293</ele>
        <time>2017-03-01T04:10:46Z</time>
      </trkpt>
      <trkpt lat="44.12886" lon="3.50324">
        <ele>1294</ele>
        <time>2017-03-01T04:12:46Z</time>
      </trkpt>
      <trkpt lat="44.12881" lon="3.50332">
        <ele>1293</ele>
        <time>2017-03-01T04:14:46Z</time>
      </trkpt>
      <trkpt lat="44.12862" lon="3.50357">
        <ele>1295</ele>
        <time>2017-03-01T04:16:46Z</time>
      </trkpt>
      <trkpt lat="44.12841" lon="3.50383">
        <ele>1296</ele>
        <time>2017-03-01T04:18:46Z</time>
      </trkpt>
      <trkpt lat="44.12812" lon="3.50415">
        <ele>1298</ele>
        <time>2017-03-01T04:20:46Z</time>
      </trkpt>
      <trkpt lat="44.1279" lon="3.50443">
        <ele>1301</ele>
        <time>2017-03-01T04:22:46Z</time>
      </trkpt>
      <trkpt lat="44.12766" lon="3.50468">
        <ele>1303</ele>
        <time>2017-03-01T04:24:46Z</time>
      </trkpt>
      <trkpt lat="44.12752" lon="3.50484">
        <ele>1304</ele>
        <time>2017-03-01T04:26:46Z</time>
      </trkpt>
      <trkpt lat="44.12742" lon="3.50505">
        <ele>1304</ele>
        <time>2017-03-01T04:28:46Z</time>
      </trkpt>
      <trkpt lat="44.12738" lon="3.50518">
        <ele>1305</ele>
        <time>2017-03-01T04:30:46Z</time>
      </trkpt>
      <trkpt lat="44.12742" lon="3.50505">
        <ele>1304</ele>
        <time>2017-03-01T04:32:46Z</time>
      </trkpt>
      <trkpt lat="44.12738" lon="3.50519">
        <ele>1305</ele>
        <time>2017-03-01T04:34:46Z</time>
      </trkpt>
      <trkpt lat="44.12738" lon="3.50533">
        <ele>1306</ele>
        <time>2017-03-01T04:36:46Z</time>
      </trkpt>
      <trkpt lat="44.12745" lon="3.50546">
        <ele>1306</ele>
        <time>2017-03-01T04:38:46Z</time>
      </trkpt>
      <trkpt lat="44.1276" lon="3.50575">
        <ele>1305</ele>
        <time>2017-03-01T04:40:46Z</time>
      </trkpt>
      <trkpt lat="44.12769" lon="3.50597">
        <ele>1307</ele>
        <time>2017-03-01T04:42:46Z</time>
      </trkpt>
      <trkpt lat="44.12773" lon="3.50622">
        <ele>1310</ele>
        <time>2017-03-01T04:44:46Z</time>
      </trkpt>
      <trkpt lat="44.12775" lon="3.50629">
        <ele>1311</ele>
        <time>2017-03-01T04:46:46Z</time>
      </trkpt>
      <trkpt lat="44.12778" lon="3.50633">
        <ele>1311</ele>
        <time>2017-03-01T04:48:46Z</time>
      </trkpt>
      <trkpt lat="44.12786" lon="3.50639">
        <ele>1312</ele>
        <time>2017-03-01T04:50:46Z</time>
      </trkpt>
      <trkpt lat="44.12796" lon="3.50646">
        <ele>1312</ele>
        <time>2017-03-01T04:52:46Z</time>
      </trkpt>
      <trkpt lat="44.12802" lon="3.50646">
        <ele>1312</ele>
        <time>2017-03-01T04:54:46Z</time>
      </trkpt>
      <trkpt lat="44.12809" lon="3.50643">
        <ele>1311</ele>
        <time>2017-03-01T04:56:46Z</time>
      </trkpt>
      <trkpt lat="44.1282" lon="3.5063">
        <ele>1308</ele>
        <time>2017-03-01T04:58:46Z</time>
      </trkpt>
      <trkpt lat="44.12836" lon="3.50614">
        <ele>1304</ele>
        <time>2017-03-01T05:00:46Z</time>
      </trkpt>
      <trkpt lat="44.12856" lon="3.50602">
        <ele>1302</ele>
        <time>2017-03-01T05:02:46Z</time>
      </trkpt>
      <trkpt lat="44.12866" lon="3.50602">
        <ele>1303</ele>
        <time>2017-03-01T05:04:46Z</time>
      </trkpt>
      <trkpt lat="44.12877" lon="3.50607">
        <ele>1304</ele>
        <time>2017-03-01T05:06:46Z</time>
      </trkpt>
      <trkpt lat="44.12887" lon="3.50614">
        <ele>1306</ele>
        <time>2017-03-01T05:08:46Z</time>
      </trkpt>
      <trkpt lat="44.12904" lon="3.50633">
        <ele>1309</ele>
        <time>2017-03-01T05:10:46Z</time>
      </trkpt>
      <trkpt lat="44.1291" lon="3.50643">
        <ele>1311</ele>
        <time>2017-03-01T05:12:46Z</time>
      </trkpt>
      <trkpt lat="44.12914" lon="3.50655">
        <ele>1313</ele>
        <time>2017-03-01T05:14:46Z</time>
      </trkpt>
      <trkpt lat="44.12918" lon="3.50672">
        <ele>1315</ele>
        <time>2017-03-01T05:16:46Z</time>
      </trkpt>
      <trkpt lat="44.12926" lon="3.50698">
        <ele>1316</ele>
        <time>2017-03-01T05:18:46Z</time>
      </trkpt>
      <trkpt lat="44.12939" lon="3.50734">
        <ele>1316</ele>
        <time>2017-03-01T05:20:46Z</time>
      </trkpt>
      <trkpt lat="44.12956" lon="3.50774">
        <ele>1314</ele>
        <time>2017-03-01T05:22:46Z</time>
      </trkpt>
      <trkpt lat="44.12965" lon="3.50809">
        <ele>1313</ele>
        <time>2017-03-01T05:24:46Z</time>
      </trkpt>
      <trkpt lat="44.12969" lon="3.50834">
        <ele>1313</ele>
        <time>2017-03-01T05:26:46Z</time>
      </trkpt>
      <trkpt lat="44.12969" lon="3.50851">
        <ele>1313</ele>
        <time>2017-03-01T05:28:46Z</time>
      </trkpt>
      <trkpt lat="44.12963" lon="3.5087">
        <ele>1315</ele>
        <time>2017-03-01T05:30:46Z</time>
      </trkpt>
      <trkpt lat="44.12955" lon="3.50905">
        <ele>1317</ele>
        <time>2017-03-01T05:32:46Z</time>
      </trkpt>
      <trkpt lat="44.12946" lon="3.50936">
        <ele>1317</ele>
        <time>2017-03-01T05:34:46Z</time>
      </trkpt>
      <trkpt lat="44.1294" lon="3.5095">
        <ele>1317</ele>
        <time>2017-03-01T05:36:46Z</time>
      </trkpt>
      <trkpt lat="44.12932" lon="3.50961">
        <ele>1318</ele>
        <time>2017-03-01T05:38:46Z</time>
      </trkpt>
      <trkpt lat="44.12904" lon="3.50987">
        <ele>1323</ele>
        <time>2017-03-01T05:40:46Z</time>
      </trkpt>
      <trkpt lat="44.12864" lon="3.51016">
        <ele>1324</ele>
        <time>2017-03-01T05:42:46Z</time>
      </trkpt>
      <trkpt lat="44.1283" lon="3.51033">
        <ele>1326</ele>
        <time>2017-03-01T05:44:46Z</time>
      </trkpt>
      <trkpt lat="44.12812" lon="3.51039">
        <ele>1327</ele>
        <time>2017-03-01T05:46:46Z</time>
      </trkpt>
      <trkpt lat="44.12789" lon="3.51042">
        <ele>1329</ele>
        <time>2017-03-01T05:48:46Z</time>
      </trkpt>
      <trkpt lat="44.12775" lon="3.51041">
        <ele>1331</ele>
        <time>2017-03-01T05:50:46Z</time>
      </trkpt>
      <trkpt lat="44.12764" lon="3.51037">
        <ele>1333</ele>
        <time>2017-03-01T05:52:46Z</time>
      </trkpt>
      <trkpt lat="44.12754" lon="3.51026">
        <ele>1336</ele>
        <time>2017-03-01T05:54:46Z</time>
      </trkpt>
      <trkpt lat="44.12746" lon="3.51011">
        <ele>1339</ele>
        <time>2017-03-01T05:56:46Z</time>
      </trkpt>
      <trkpt lat="44.12734" lon="3.50977">
        <ele>1342</ele>
        <time>2017-03-01T05:58:46Z</time>
      </trkpt>
      <trkpt lat="44.12725" lon="3.50957">
        <ele>1344</ele>
        <time>2017-03-01T06:00:46Z</time>
      </trkpt>
      <trkpt lat="44.12717" lon="3.50941">
        <ele>1345</ele>
        <time>2017-03-01T06:02:46Z</time>
      </trkpt>
      <trkpt lat="44.12696" lon="3.50899">
        <ele>1347</ele>
        <time>2017-03-01T06:04:46Z</time>
      </trkpt>
      <trkpt lat="44.12675" lon="3.50857">
        <ele>1348</ele>
        <time>2017-03-01T06:06:46Z</time>
      </trkpt>
      <trkpt lat="44.12664" lon="3.50832">
        <ele>1348</ele>
        <time>2017-03-01T06:08:46Z</time>
      </trkpt>
      <trkpt lat="44.12658" lon="3.50812">
        <ele>1346</ele>
        <time>2017-03-01T06:10:46Z</time>
      </trkpt>
      <trkpt lat="44.12655" lon="3.50809">
        <ele>1346</ele>
        <time>2017-03-01T06:12:46Z</time>
      </trkpt>
      <trkpt lat="44.12651" lon="3.50809">
        <ele>1346</ele>
        <time>2017-03-01T06:14:46Z</time>
      </trkpt>
      <trkpt lat="44.12648" lon="3.5081">
        <ele>1346</ele>
        <time>2017-03-01T06:16:46Z</time>
      </trkpt>
      <trkpt lat="44.12647" lon="3.50814">
        <ele>1346</ele>
        <time>2017-03-01T06:18:46Z</time>
      </trkpt>
      <trkpt lat="44.12647" lon="3.50821">
        <ele>1347</ele>
        <time>2017-03-01T06:20:46Z</time>
      </trkpt>
      <trkpt lat="44.12653" lon="3.50848">
        <ele>1349</ele>
        <time>2017-03-01T06:22:46Z</time>
      </trkpt>
      <trkpt lat="44.12655" lon="3.50872">
        <ele>1350</ele>
        <time>2017-03-01T06:24:46Z</time>
      </trkpt>
      <trkpt lat="44.12656" lon="3.50898">
        <ele>1352</ele>
        <time>2017-03-01T06:26:46Z</time>
      </trkpt>
      <trkpt lat="44.12652" lon="3.50933">
        <ele>1354</ele>
        <time>2017-03-01T06:28:46Z</time>
      </trkpt>
      <trkpt lat="44.12647" lon="3.50956">
        <ele>1355</ele>
        <time>2017-03-01T06:30:46Z</time>
      </trkpt>
      <trkpt lat="44.12638" lon="3.50974">
        <ele>1357</ele>
        <time>2017-03-01T06:32:46Z</time>
      </trkpt>
      <trkpt lat="44.12622" lon="3.51005">
        <ele>1360</ele>
        <time>2017-03-01T06:34:46Z</time>
      </trkpt>
      <trkpt lat="44.12614" lon="3.51021">
        <ele>1362</ele>
        <time>2017-03-01T06:36:46Z</time>
      </trkpt>
      <trkpt lat="44.12609" lon="3.51037">
        <ele>1363</ele>
        <time>2017-03-01T06:38:46Z</time>
      </trkpt>
      <trkpt lat="44.12603" lon="3.51059">
        <ele>1364</ele>
        <time>2017-03-01T06:40:46Z</time>
      </trkpt>
      <trkpt lat="44.12599" lon="3.51088">
        <ele>1366</ele>
        <time>2017-03-01T06:42:46Z</time>
      </trkpt>
      <trkpt lat="44.12596" lon="3.51114">
        <ele>1368</ele>
        <time>2017-03-01T06:44:46Z</time>
      </trkpt>
      <trkpt lat="44.12597" lon="3.51138">
        <ele>1370</ele>
        <time>2017-03-01T06:46:46Z</time>
      </trkpt>
      <trkpt lat="44.12594" lon="3.5117">
        <ele>1372</ele>
        <time>2017-03-01T06:48:46Z</time>
      </trkpt>
      <trkpt lat="44.12587" lon="3.51196">
        <ele>1374</ele>
        <time>2017-03-01T06:50:46Z</time>
      </trkpt>
      <trkpt lat="44.12573" lon="3.51237">
        <ele>1375</ele>
        <time>2017-03-01T06:52:46Z</time>
      </trkpt>
      <trkpt lat="44.12558" lon="3.51272">
        <ele>1377</ele>
        <time>2017-03-01T06:54:46Z</time>
      </trkpt>
      <trkpt lat="44.12543" lon="3.513">
        <ele>1380</ele>
        <time>2017-03-01T06:56:46Z</time>
      </trkpt>
      <trkpt lat="44.12529" lon="3.5133">
        <ele>1383</ele>
        <time>2017-03-01T06:58:46Z</time>
      </trkpt>
      <trkpt lat="44.12517" lon="3.51362">
        <ele>1386</ele>
        <time>2017-03-01T07:00:46Z</time>
      </trkpt>
      <trkpt lat="44.12506" lon="3.51402">
        <ele>1390</ele>
        <time>2017-03-01T07:02:46Z</time>
      </trkpt>
      <trkpt lat="44.12493" lon="3.51446">
        <ele>1393</ele>
        <time>2017-03-01T07:04:46Z</time>
      </trkpt>
      <trkpt lat="44.12477" lon="3.51486">
        <ele>1395</ele>
        <time>2017-03-01T07:06:46Z</time>
      </trkpt>
      <trkpt lat="44.12458" lon="3.51527">
        <ele>1399</ele>
        <time>2017-03-01T07:08:46Z</time>
      </trkpt>
      <trkpt lat="44.1244" lon="3.5156">
        <ele>1402</ele>
        <time>2017-03-01T07:10:46Z</time>
      </trkpt>
      <trkpt lat="44.12413" lon="3.51613">
        <ele>1407</ele>
        <time>2017-03-01T07:12:46Z</time>
      </trkpt>
      <trkpt lat="44.1239" lon="3.51666">
        <ele>1412</ele>
        <time>2017-03-01T07:14:46Z</time>
      </trkpt>
      <trkpt lat="44.12368" lon="3.51718">
        <ele>1416</ele>
        <time>2017-03-01T07:16:46Z</time>
      </trkpt>
      <trkpt lat="44.12351" lon="3.5177">
        <ele>1421</ele>
        <time>2017-03-01T07:18:46Z</time>
      </trkpt>
      <trkpt lat="44.12341" lon="3.51809">
        <ele>1424</ele>
        <time>2017-03-01T07:20:46Z</time>
      </trkpt>
      <trkpt lat="44.12339" lon="3.51843">
        <ele>1426</ele>
        <time>2017-03-01T07:22:46Z</time>
      </trkpt>
      <trkpt lat="44.12341" lon="3.51874">
        <ele>1429</ele>
        <time>2017-03-01T07:24:46Z</time>
      </trkpt>
      <trkpt lat="44.12348" lon="3.51918">
        <ele>1432</ele>
        <time>2017-03-01T07:26:46Z</time>
      </trkpt>
      <trkpt lat="44.12356" lon="3.51959">
        <ele>1434</ele>
        <time>2017-03-01T07:28:46Z</time>
      </trkpt>
      <trkpt lat="44.12364" lon="3.51986">
        <ele>1434</ele>
        <time>2017-03-01T07:30:46Z</time>
      </trkpt>
      <trkpt lat="44.12366" lon="3.52006">
        <ele>1435</ele>
        <time>2017-03-01T07:32:46Z</time>
      </trkpt>
      <trkpt lat="44.12366" lon="3.52014">
        <ele>1434</ele>
        <time>2017-03-01T07:34:46Z</time>
      </trkpt>
      <trkpt lat="44.12365" lon="3.52024">
        <ele>1434</ele>
        <time>2017-03-01T07:36:46Z</time>
      </trkpt>
      <trkpt lat="44.12362" lon="3.52041">
        <ele>1435</ele>
        <time>2017-03-01T07:38:46Z</time>
      </trkpt>
      <trkpt lat="44.12357" lon="3.52053">
        <ele>1435</ele>
        <time>2017-03-01T07:40:46Z</time>
      </trkpt>
      <trkpt lat="44.12347" lon="3.5207">
        <ele>1437</ele>
        <time>2017-03-01T07:42:46Z</time>
      </trkpt>
      <trkpt lat="44.12336" lon="3.52083">
        <ele>1439</ele>
        <time>2017-03-01T07:44:46Z</time>
      </trkpt>
      <trkpt lat="44.12319" lon="3.52104">
        <ele>1440</ele>
        <time>2017-03-01T07:46:46Z</time>
      </trkpt>
      <trkpt lat="44.12294" lon="3.52132">
        <ele>1441</ele>
        <time>2017-03-01T07:48:46Z</time>
      </trkpt>
      <trkpt lat="44.12273" lon="3.52162">
        <ele>1441</ele>
        <time>2017-03-01T07:50:46Z</time>
      </trkpt>
      <trkpt lat="44.12257" lon="3.52179">
        <ele>1442</ele>
        <time>2017-03-01T07:52:46Z</time>
      </trkpt>
      <trkpt lat="44.1224" lon="3.52193">
        <ele>1445</ele>
        <time>2017-03-01T07:54:46Z</time>
      </trkpt>
      <trkpt lat="44.12226" lon="3.52202">
        <ele>1448</ele>
        <time>2017-03-01T07:56:46Z</time>
      </trkpt>
      <trkpt lat="44.12216" lon="3.52208">
        <ele>1451</ele>
        <time>2017-03-01T07:58:46Z</time>
      </trkpt>
      <trkpt lat="44.12211" lon="3.52218">
        <ele>1451</ele>
        <time>2017-03-01T08:00:46Z</time>
      </trkpt>
      <trkpt lat="44.1221" lon="3.52227">
        <ele>1451</ele>
        <time>2017-03-01T08:02:46Z</time>
      </trkpt>
      <trkpt lat="44.12213" lon="3.52272">
        <ele>1449</ele>
        <time>2017-03-01T08:04:46Z</time>
      </trkpt>
      <trkpt lat="44.1222" lon="3.52311">
        <ele>1447</ele>
        <time>2017-03-01T08:06:46Z</time>
      </trkpt>
      <trkpt lat="44.12222" lon="3.52341">
        <ele>1447</ele>
        <time>2017-03-01T08:08:46Z</time>
      </trkpt>
      <trkpt lat="44.12223" lon="3.52391">
        <ele>1447</ele>
        <time>2017-03-01T08:10:46Z</time>
      </trkpt>
      <trkpt lat="44.12221" lon="3.52435">
        <ele>1447</ele>
        <time>2017-03-01T08:12:46Z</time>
      </trkpt>
      <trkpt lat="44.12215" lon="3.52485">
        <ele>1448</ele>
        <time>2017-03-01T08:14:46Z</time>
      </trkpt>
      <trkpt lat="44.12205" lon="3.52529">
        <ele>1451</ele>
        <time>2017-03-01T08:16:46Z</time>
      </trkpt>
      <trkpt lat="44.12195" lon="3.52568">
        <ele>1453</ele>
        <time>2017-03-01T08:18:46Z</time>
      </trkpt>
      <trkpt lat="44.12188" lon="3.52609">
        <ele>1454</ele>
        <time>2017-03-01T08:20:46Z</time>
      </trkpt>
      <trkpt lat="44.12181" lon="3.52666">
        <ele>1455</ele>
        <time>2017-03-01T08:22:46Z</time>
      </trkpt>
      <trkpt lat="44.12172" lon="3.52713">
        <ele>1455</ele>
        <time>2017-03-01T08:24:46Z</time>
      </trkpt>
      <trkpt lat="44.12161" lon="3.52759">
        <ele>1454</ele>
        <time>2017-03-01T08:26:46Z</time>
      </trkpt>
      <trkpt lat="44.12147" lon="3.52811">
        <ele>1458</ele>
        <time>2017-03-01T08:28:46Z</time>
      </trkpt>
      <trkpt lat="44.12138" lon="3.52839">
        <ele>1459</ele>
        <time>2017-03-01T08:30:46Z</time>
      </trkpt>
      <trkpt lat="44.12131" lon="3.52857">
        <ele>1460</ele>
        <time>2017-03-01T08:32:46Z</time>
      </trkpt>
      <trkpt lat="44.12127" lon="3.52871">
        <ele>1461</ele>
        <time>2017-03-01T08:34:46Z</time>
      </trkpt>
      <trkpt lat="44.12124" lon="3.52885">
        <ele>1461</ele>
        <time>2017-03-01T08:36:46Z</time>
      </trkpt>
      <trkpt lat="44.12121" lon="3.52907">
        <ele>1462</ele>
        <time>2017-03-01T08:38:46Z</time>
      </trkpt>
      <trkpt lat="44.12117" lon="3.52943">
        <ele>1462</ele>
        <time>2017-03-01T08:40:46Z</time>
      </trkpt>
      <trkpt lat="44.12112" lon="3.53022">
        <ele>1462</ele>
        <time>2017-03-01T08:42:46Z</time>
      </trkpt>
      <trkpt lat="44.12111" lon="3.53041">
        <ele>1461</ele>
        <time>2017-03-01T08:44:46Z</time>
      </trkpt>
      <trkpt lat="44.12112" lon="3.5306">
        <ele>1461</ele>
        <time>2017-03-01T08:46:46Z</time>
      </trkpt>
      <trkpt lat="44.12114" lon="3.53076">
        <ele>1461</ele>
        <time>2017-03-01T08:48:46Z</time>
      </trkpt>
      <trkpt lat="44.12117" lon="3.53096">
        <ele>1462</ele>
        <time>2017-03-01T08:50:46Z</time>
      </trkpt>
      <trkpt lat="44.12121" lon="3.53117">
        <ele>1462</ele>
        <time>2017-03-01T08:52:46Z</time>
      </trkpt>
      <trkpt lat="44.12124" lon="3.53133">
        <ele>1463</ele>
        <time>2017-03-01T08:54:46Z</time>
      </trkpt>
      <trkpt lat="44.12124" lon="3.53148">
        <ele>1463</ele>
        <time>2017-03-01T08:56:46Z</time>
      </trkpt>
      <trkpt lat="44.12123" lon="3.53169">
        <ele>1462</ele>
        <time>2017-03-01T08:58:46Z</time>
      </trkpt>
      <trkpt lat="44.1212" lon="3.53188">
        <ele>1462</ele>
        <time>2017-03-01T09:00:46Z</time>
      </trkpt>
      <trkpt lat="44.12116" lon="3.53209">
        <ele>1461</ele>
        <time>2017-03-01T09:02:46Z</time>
      </trkpt>
      <trkpt lat="44.12108" lon="3.53246">
        <ele>1460</ele>
        <time>2017-03-01T09:04:46Z</time>
      </trkpt>
      <trkpt lat="44.12105" lon="3.53268">
        <ele>1460</ele>
        <time>2017-03-01T09:06:46Z</time>
      </trkpt>
      <trkpt lat="44.12101" lon="3.53286">
        <ele>1459</ele>
        <time>2017-03-01T09:08:46Z</time>
      </trkpt>
      <trkpt lat="44.12098" lon="3.53307">
        <ele>1460</ele>
        <time>2017-03-01T09:10:46Z</time>
      </trkpt>
      <trkpt lat="44.12097" lon="3.53329">
        <ele>1460</ele>
        <time>2017-03-01T09:12:46Z</time>
      </trkpt>
      <trkpt lat="44.12097" lon="3.53345">
        <ele>1460</ele>
        <time>2017-03-01T09:14:46Z</time>
      </trkpt>
      <trkpt lat="44.12097" lon="3.5336">
        <ele>1459</ele>
        <time>2017-03-01T09:16:46Z</time>
      </trkpt>
      <trkpt lat="44.12098" lon="3.53375">
        <ele>1458</ele>
        <time>2017-03-01T09:18:46Z</time>
      </trkpt>
      <trkpt lat="44.121" lon="3.53392">
        <ele>1457</ele>
        <time>2017-03-01T09:20:46Z</time>
      </trkpt>
      <trkpt lat="44.12103" lon="3.5341">
        <ele>1457</ele>
        <time>2017-03-01T09:22:46Z</time>
      </trkpt>
      <trkpt lat="44.12107" lon="3.53425">
        <ele>1457</ele>
        <time>2017-03-01T09:24:46Z</time>
      </trkpt>
      <trkpt lat="44.12113" lon="3.53446">
        <ele>1457</ele>
        <time>2017-03-01T09:26:46Z</time>
      </trkpt>
      <trkpt lat="44.12125" lon="3.53492">
        <ele>1458</ele>
        <time>2017-03-01T09:28:46Z</time>
      </trkpt>
      <trkpt lat="44.12127" lon="3.53501">
        <ele>1458</ele>
        <time>2017-03-01T09:30:46Z</time>
      </trkpt>
      <trkpt lat="44.12126" lon="3.53515">
        <ele>1459</ele>
        <time>2017-03-01T09:32:46Z</time>
      </trkpt>
      <trkpt lat="44.12123" lon="3.53534">
        <ele>1459</ele>
        <time>2017-03-01T09:34:46Z</time>
      </trkpt>
      <trkpt lat="44.12119" lon="3.53551">
        <ele>1458</ele>
        <time>2017-03-01T09:36:46Z</time>
      </trkpt>
      <trkpt lat="44.12113" lon="3.53569">
        <ele>1458</ele>
        <time>2017-03-01T09:38:46Z</time>
      </trkpt>
      <trkpt lat="44.12095" lon="3.53613">
        <ele>1456</ele>
        <time>2017-03-01T09:40:46Z</time>
      </trkpt>
      <trkpt lat="44.12087" lon="3.53637">
        <ele>1456</ele>
        <time>2017-03-01T09:42:46Z</time>
      </trkpt>
      <trkpt lat="44.12083" lon="3.53649">
        <ele>1456</ele>
        <time>2017-03-01T09:44:46Z</time>
      </trkpt>
      <trkpt lat="44.12078" lon="3.53661">
        <ele>1455</ele>
        <time>2017-03-01T09:46:46Z</time>
      </trkpt>
      <trkpt lat="44.12072" lon="3.53685">
        <ele>1454</ele>
        <time>2017-03-01T09:48:46Z</time>
      </trkpt>
      <trkpt lat="44.12068" lon="3.53749">
        <ele>1454</ele>
        <time>2017-03-01T09:50:46Z</time>
      </trkpt>
      <trkpt lat="44.12065" lon="3.53769">
        <ele>1453</ele>
        <time>2017-03-01T09:52:46Z</time>
      </trkpt>
      <trkpt lat="44.12062" lon="3.53791">
        <ele>1452</ele>
        <time>2017-03-01T09:54:46Z</time>
      </trkpt>
      <trkpt lat="44.12058" lon="3.5381">
        <ele>1452</ele>
        <time>2017-03-01T09:56:46Z</time>
      </trkpt>
      <trkpt lat="44.12047" lon="3.53855">
        <ele>1450</ele>
        <time>2017-03-01T09:58:46Z</time>
      </trkpt>
      <trkpt lat="44.12041" lon="3.53883">
        <ele>1449</ele>
        <time>2017-03-01T10:00:46Z</time>
      </trkpt>
      <trkpt lat="44.12039" lon="3.53897">
        <ele>1449</ele>
        <time>2017-03-01T10:02:46Z</time>
      </trkpt>
      <trkpt lat="44.12034" lon="3.53929">
        <ele>1448</ele>
        <time>2017-03-01T10:04:46Z</time>
      </trkpt>
      <trkpt lat="44.12031" lon="3.53948">
        <ele>1448</ele>
        <time>2017-03-01T10:06:46Z</time>
      </trkpt>
      <trkpt lat="44.12027" lon="3.53992">
        <ele>1449</ele>
        <time>2017-03-01T10:08:46Z</time>
      </trkpt>
      <trkpt lat="44.12023" lon="3.54028">
        <ele>1448</ele>
        <time>2017-03-01T10:10:46Z</time>
      </trkpt>
      <trkpt lat="44.12013" lon="3.54066">
        <ele>1448</ele>
        <time>2017-03-01T10:12:46Z</time>
      </trkpt>
      <trkpt lat="44.12" lon="3.54101">
        <ele>1447</ele>
        <time>2017-03-01T10:14:46Z</time>
      </trkpt>
      <trkpt lat="44.11994" lon="3.54114">
        <ele>1445</ele>
        <time>2017-03-01T10:16:46Z</time>
      </trkpt>
      <trkpt lat="44.11985" lon="3.54126">
        <ele>1444</ele>
        <time>2017-03-01T10:18:46Z</time>
      </trkpt>
      <trkpt lat="44.11977" lon="3.54133">
        <ele>1444</ele>
        <time>2017-03-01T10:20:46Z</time>
      </trkpt>
      <trkpt lat="44.11961" lon="3.54145">
        <ele>1443</ele>
        <time>2017-03-01T10:22:46Z</time>
      </trkpt>
      <trkpt lat="44.11948" lon="3.54151">
        <ele>1444</ele>
        <time>2017-03-01T10:24:46Z</time>
      </trkpt>
      <trkpt lat="44.11942" lon="3.54154">
        <ele>1444</ele>
        <time>2017-03-01T10:26:46Z</time>
      </trkpt>
      <trkpt lat="44.11927" lon="3.54157">
        <ele>1445</ele>
        <time>2017-03-01T10:28:46Z</time>
      </trkpt>
      <trkpt lat="44.11919" lon="3.54162">
        <ele>1445</ele>
        <time>2017-03-01T10:30:46Z</time>
      </trkpt>
      <trkpt lat="44.11911" lon="3.54169">
        <ele>1445</ele>
        <time>2017-03-01T10:32:46Z</time>
      </trkpt>
      <trkpt lat="44.11892" lon="3.54202">
        <ele>1441</ele>
        <time>2017-03-01T10:34:46Z</time>
      </trkpt>
      <trkpt lat="44.11878" lon="3.54219">
        <ele>1440</ele>
        <time>2017-03-01T10:36:46Z</time>
      </trkpt>
      <trkpt lat="44.11863" lon="3.54233">
        <ele>1442</ele>
        <time>2017-03-01T10:38:46Z</time>
      </trkpt>
      <trkpt lat="44.1185" lon="3.54244">
        <ele>1443</ele>
        <time>2017-03-01T10:40:46Z</time>
      </trkpt>
      <trkpt lat="44.11836" lon="3.54251">
        <ele>1446</ele>
        <time>2017-03-01T10:42:46Z</time>
      </trkpt>
      <trkpt lat="44.11831" lon="3.54257">
        <ele>1447</ele>
        <time>2017-03-01T10:44:46Z</time>
      </trkpt>
      <trkpt lat="44.11827" lon="3.54263">
        <ele>1447</ele>
        <time>2017-03-01T10:46:46Z</time>
      </trkpt>
      <trkpt lat="44.11823" lon="3.54275">
        <ele>1447</ele>
        <time>2017-03-01T10:48:46Z</time>
      </trkpt>
      <trkpt lat="44.11823" lon="3.54287">
        <ele>1446</ele>
        <time>2017-03-01T10:50:46Z</time>
      </trkpt>
      <trkpt lat="44.11827" lon="3.54326">
        <ele>1441</ele>
        <time>2017-03-01T10:52:46Z</time>
      </trkpt>
      <trkpt lat="44.11841" lon="3.5442">
        <ele>1438</ele>
        <time>2017-03-01T10:54:46Z</time>
      </trkpt>
      <trkpt lat="44.11851" lon="3.54498">
        <ele>1435</ele>
        <time>2017-03-01T10:56:46Z</time>
      </trkpt>
      <trkpt lat="44.11865" lon="3.54556">
        <ele>1432</ele>
        <time>2017-03-01T10:58:46Z</time>
      </trkpt>
      <trkpt lat="44.11867" lon="3.54577">
        <ele>1433</ele>
        <time>2017-03-01T11:00:46Z</time>
      </trkpt>
      <trkpt lat="44.11864" lon="3.54601">
        <ele>1433</ele>
        <time>2017-03-01T11:02:46Z</time>
      </trkpt>
      <trkpt lat="44.11858" lon="3.54627">
        <ele>1433</ele>
        <time>2017-03-01T11:04:46Z</time>
      </trkpt>
      <trkpt lat="44.1185" lon="3.54654">
        <ele>1433</ele>
        <time>2017-03-01T11:06:46Z</time>
      </trkpt>
      <trkpt lat="44.11836" lon="3.54688">
        <ele>1432</ele>
        <time>2017-03-01T11:08:46Z</time>
      </trkpt>
      <trkpt lat="44.11824" lon="3.54709">
        <ele>1431</ele>
        <time>2017-03-01T11:10:46Z</time>
      </trkpt>
      <trkpt lat="44.11809" lon="3.54725">
        <ele>1430</ele>
        <time>2017-03-01T11:12:46Z</time>
      </trkpt>
      <trkpt lat="44.11793" lon="3.54739">
        <ele>1430</ele>
        <time>2017-03-01T11:14:46Z</time>
      </trkpt>
      <trkpt lat="44.11776" lon="3.5476">
        <ele>1430</ele>
        <time>2017-03-01T11:16:46Z</time>
      </trkpt>
      <trkpt lat="44.11766" lon="3.54779">
        <ele>1430</ele>
        <time>2017-03-01T11:18:46Z</time>
      </trkpt>
      <trkpt lat="44.11738" lon="3.54845">
        <ele>1427</ele>
        <time>2017-03-01T11:20:46Z</time>
      </trkpt>
      <trkpt lat="44.11734" lon="3.54862">
        <ele>1426</ele>
        <time>2017-03-01T11:22:46Z</time>
      </trkpt>
      <trkpt lat="44.11731" lon="3.54884">
        <ele>1425</ele>
        <time>2017-03-01T11:24:46Z</time>
      </trkpt>
      <trkpt lat="44.11729" lon="3.54906">
        <ele>1423</ele>
        <time>2017-03-01T11:26:46Z</time>
      </trkpt>
      <trkpt lat="44.11729" lon="3.54925">
        <ele>1422</ele>
        <time>2017-03-01T11:28:46Z</time>
      </trkpt>
      <trkpt lat="44.11732" lon="3.54952">
        <ele>1420</ele>
        <time>2017-03-01T11:30:46Z</time>
      </trkpt>
      <trkpt lat="44.11735" lon="3.54969">
        <ele>1419</ele>
        <time>2017-03-01T11:32:46Z</time>
      </trkpt>
      <trkpt lat="44.11735" lon="3.54984">
        <ele>1418</ele>
        <time>2017-03-01T11:34:46Z</time>
      </trkpt>
      <trkpt lat="44.1173" lon="3.55004">
        <ele>1417</ele>
        <time>2017-03-01T11:36:46Z</time>
      </trkpt>
      <trkpt lat="44.11723" lon="3.55023">
        <ele>1416</ele>
        <time>2017-03-01T11:38:46Z</time>
      </trkpt>
      <trkpt lat="44.11708" lon="3.55051">
        <ele>1414</ele>
        <time>2017-03-01T11:40:46Z</time>
      </trkpt>
      <trkpt lat="44.11696" lon="3.55077">
        <ele>1413</ele>
        <time>2017-03-01T11:42:46Z</time>
      </trkpt>
      <trkpt lat="44.11691" lon="3.55087">
        <ele>1413</ele>
        <time>2017-03-01T11:44:46Z</time>
      </trkpt>
      <trkpt lat="44.1168" lon="3.55109">
        <ele>1413</ele>
        <time>2017-03-01T11:46:46Z</time>
      </trkpt>
      <trkpt lat="44.1167" lon="3.55123">
        <ele>1413</ele>
        <time>2017-03-01T11:48:46Z</time>
      </trkpt>
      <trkpt lat="44.11662" lon="3.55134">
        <ele>1413</ele>
        <time>2017-03-01T11:50:46Z</time>
      </trkpt>
      <trkpt lat="44.11657" lon="3.55136">
        <ele>1413</ele>
        <time>2017-03-01T11:52:46Z</time>
      </trkpt>
      <trkpt lat="44.11652" lon="3.55144">
        <ele>1413</ele>
        <time>2017-03-01T11:54:46Z</time>
      </trkpt>
      <trkpt lat="44.11659" lon="3.55153">
        <ele>1414</ele>
        <time>2017-03-01T11:56:46Z</time>
      </trkpt>
      <trkpt lat="44.11662" lon="3.55162">
        <ele>1414</ele>
        <time>2017-03-01T11:58:46Z</time>
      </trkpt>
      <trkpt lat="44.11664" lon="3.55175">
        <ele>1414</ele>
        <time>2017-03-01T12:00:46Z</time>
      </trkpt>
      <trkpt lat="44.11665" lon="3.55186">
        <ele>1414</ele>
        <time>2017-03-01T12:02:46Z</time>
      </trkpt>
      <trkpt lat="44.11667" lon="3.55204">
        <ele>1414</ele>
        <time>2017-03-01T12:04:46Z</time>
      </trkpt>
      <trkpt lat="44.11673" lon="3.55268">
        <ele>1413</ele>
        <time>2017-03-01T12:06:46Z</time>
      </trkpt>
      <trkpt lat="44.11677" lon="3.55291">
        <ele>1412</ele>
        <time>2017-03-01T12:08:46Z</time>
      </trkpt>
      <trkpt lat="44.11681" lon="3.55304">
        <ele>1412</ele>
        <time>2017-03-01T12:10:46Z</time>
      </trkpt>
      <trkpt lat="44.11698" lon="3.55353">
        <ele>1411</ele>
        <time>2017-03-01T12:12:46Z</time>
      </trkpt>
      <trkpt lat="44.11715" lon="3.55396">
        <ele>1412</ele>
        <time>2017-03-01T12:14:46Z</time>
      </trkpt>
      <trkpt lat="44.11744" lon="3.55473">
        <ele>1415</ele>
        <time>2017-03-01T12:16:46Z</time>
      </trkpt>
      <trkpt lat="44.11735" lon="3.55479">
        <ele>1416</ele>
        <time>2017-03-01T12:18:46Z</time>
      </trkpt>
      <trkpt lat="44.11731" lon="3.55484">
        <ele>1416</ele>
        <time>2017-03-01T12:20:46Z</time>
      </trkpt>
      <trkpt lat="44.11719" lon="3.55503">
        <ele>1416</ele>
        <time>2017-03-01T12:22:46Z</time>
      </trkpt>
      <trkpt lat="44.1171" lon="3.55524">
        <ele>1416</ele>
        <time>2017-03-01T12:24:46Z</time>
      </trkpt>
      <trkpt lat="44.11712" lon="3.55524">
        <ele>1416</ele>
        <time>2017-03-01T12:26:46Z</time>
      </trkpt>
      <trkpt lat="44.11718" lon="3.55523">
        <ele>1416</ele>
        <time>2017-03-01T12:28:46Z</time>
      </trkpt>
      <trkpt lat="44.11723" lon="3.55522">
        <ele>1417</ele>
        <time>2017-03-01T12:30:46Z</time>
      </trkpt>
      <trkpt lat="44.11726" lon="3.55522">
        <ele>1417</ele>
        <time>2017-03-01T12:32:46Z</time>
      </trkpt>
      <trkpt lat="44.11733" lon="3.55544">
        <ele>1417</ele>
        <time>2017-03-01T12:34:46Z</time>
      </trkpt>
      <trkpt lat="44.11729" lon="3.55543">
        <ele>1417</ele>
        <time>2017-03-01T12:36:46Z</time>
      </trkpt>
      <trkpt lat="44.11716" lon="3.5555">
        <ele>1416</ele>
        <time>2017-03-01T12:38:46Z</time>
      </trkpt>
      <trkpt lat="44.11711" lon="3.5556">
        <ele>1416</ele>
        <time>2017-03-01T12:40:46Z</time>
      </trkpt>
      <trkpt lat="44.1171" lon="3.55572">
        <ele>1416</ele>
        <time>2017-03-01T12:42:46Z</time>
      </trkpt>
      <trkpt lat="44.1171" lon="3.55585">
        <ele>1416</ele>
        <time>2017-03-01T12:44:46Z</time>
      </trkpt>
      <trkpt lat="44.11711" lon="3.5561">
        <ele>1415</ele>
        <time>2017-03-01T12:46:46Z</time>
      </trkpt>
      <trkpt lat="44.11714" lon="3.55622">
        <ele>1415</ele>
        <time>2017-03-01T12:48:46Z</time>
      </trkpt>
      <trkpt lat="44.11718" lon="3.55634">
        <ele>1415</ele>
        <time>2017-03-01T12:50:46Z</time>
      </trkpt>
      <trkpt lat="44.11725" lon="3.55645">
        <ele>1415</ele>
        <time>2017-03-01T12:52:46Z</time>
      </trkpt>
      <trkpt lat="44.11731" lon="3.55656">
        <ele>1416</ele>
        <time>2017-03-01T12:54:46Z</time>
      </trkpt>
      <trkpt lat="44.11738" lon="3.55665">
        <ele>1416</ele>
        <time>2017-03-01T12:56:46Z</time>
      </trkpt>
      <trkpt lat="44.11747" lon="3.55673">
        <ele>1417</ele>
        <time>2017-03-01T12:58:46Z</time>
      </trkpt>
      <trkpt lat="44.11753" lon="3.55681">
        <ele>1418</ele>
        <time>2017-03-01T13:00:46Z</time>
      </trkpt>
      <trkpt lat="44.11756" lon="3.55691">
        <ele>1417</ele>
        <time>2017-03-01T13:02:46Z</time>
      </trkpt>
      <trkpt lat="44.1176" lon="3.55705">
        <ele>1417</ele>
        <time>2017-03-01T13:04:46Z</time>
      </trkpt>
      <trkpt lat="44.11762" lon="3.55723">
        <ele>1417</ele>
        <time>2017-03-01T13:06:46Z</time>
      </trkpt>
      <trkpt lat="44.11764" lon="3.55743">
        <ele>1416</ele>
        <time>2017-03-01T13:08:46Z</time>
      </trkpt>
      <trkpt lat="44.11767" lon="3.55761">
        <ele>1416</ele>
        <time>2017-03-01T13:10:46Z</time>
      </trkpt>
      <trkpt lat="44.11771" lon="3.55772">
        <ele>1416</ele>
        <time>2017-03-01T13:12:46Z</time>
      </trkpt>
      <trkpt lat="44.11776" lon="3.55778">
        <ele>1417</ele>
        <time>2017-03-01T13:14:46Z</time>
      </trkpt>
      <trkpt lat="44.11783" lon="3.55784">
        <ele>1418</ele>
        <time>2017-03-01T13:16:46Z</time>
      </trkpt>
      <trkpt lat="44.11793" lon="3.55791">
        <ele>1419</ele>
        <time>2017-03-01T13:18:46Z</time>
      </trkpt>
      <trkpt lat="44.118" lon="3.55798">
        <ele>1420</ele>
        <time>2017-03-01T13:20:46Z</time>
      </trkpt>
      <trkpt lat="44.11803" lon="3.55808">
        <ele>1421</ele>
        <time>2017-03-01T13:22:46Z</time>
      </trkpt>
      <trkpt lat="44.11805" lon="3.55836">
        <ele>1422</ele>
        <time>2017-03-01T13:24:46Z</time>
      </trkpt>
      <trkpt lat="44.11812" lon="3.55862">
        <ele>1423</ele>
        <time>2017-03-01T13:26:46Z</time>
      </trkpt>
      <trkpt lat="44.11814" lon="3.55874">
        <ele>1424</ele>
        <time>2017-03-01T13:28:46Z</time>
      </trkpt>
      <trkpt lat="44.11816" lon="3.55889">
        <ele>1425</ele>
        <time>2017-03-01T13:30:46Z</time>
      </trkpt>
      <trkpt lat="44.11819" lon="3.55901">
        <ele>1426</ele>
        <time>2017-03-01T13:32:46Z</time>
      </trkpt>
      <trkpt lat="44.11822" lon="3.55911">
        <ele>1426</ele>
        <time>2017-03-01T13:34:46Z</time>
      </trkpt>
      <trkpt lat="44.11838" lon="3.55939">
        <ele>1430</ele>
        <time>2017-03-01T13:36:46Z</time>
      </trkpt>
      <trkpt lat="44.1184" lon="3.55948">
        <ele>1430</ele>
        <time>2017-03-01T13:38:46Z</time>
      </trkpt>
      <trkpt lat="44.11838" lon="3.55957">
        <ele>1430</ele>
        <time>2017-03-01T13:40:46Z</time>
      </trkpt>
      <trkpt lat="44.11835" lon="3.55968">
        <ele>1430</ele>
        <time>2017-03-01T13:42:46Z</time>
      </trkpt>
      <trkpt lat="44.11834" lon="3.55977">
        <ele>1430</ele>
        <time>2017-03-01T13:44:46Z</time>
      </trkpt>
      <trkpt lat="44.11835" lon="3.55985">
        <ele>1430</ele>
        <time>2017-03-01T13:46:46Z</time>
      </trkpt>
      <trkpt lat="44.11838" lon="3.55994">
        <ele>1430</ele>
        <time>2017-03-01T13:48:46Z</time>
      </trkpt>
      <trkpt lat="44.11844" lon="3.56004">
        <ele>1431</ele>
        <time>2017-03-01T13:50:46Z</time>
      </trkpt>
      <trkpt lat="44.11853" lon="3.56014">
        <ele>1432</ele>
        <time>2017-03-01T13:52:46Z</time>
      </trkpt>
      <trkpt lat="44.11863" lon="3.56025">
        <ele>1433</ele>
        <time>2017-03-01T13:54:46Z</time>
      </trkpt>
      <trkpt lat="44.11875" lon="3.56035">
        <ele>1435</ele>
        <time>2017-03-01T13:56:46Z</time>
      </trkpt>
      <trkpt lat="44.11885" lon="3.56047">
        <ele>1436</ele>
        <time>2017-03-01T13:58:46Z</time>
      </trkpt>
      <trkpt lat="44.11887" lon="3.56054">
        <ele>1437</ele>
        <time>2017-03-01T14:00:46Z</time>
      </trkpt>
      <trkpt lat="44.11889" lon="3.56064">
        <ele>1437</ele>
        <time>2017-03-01T14:02:46Z</time>
      </trkpt>
      <trkpt lat="44.11893" lon="3.56073">
        <ele>1438</ele>
        <time>2017-03-01T14:04:46Z</time>
      </trkpt>
      <trkpt lat="44.11907" lon="3.56092">
        <ele>1440</ele>
        <time>2017-03-01T14:06:46Z</time>
      </trkpt>
      <trkpt lat="44.11915" lon="3.56102">
        <ele>1441</ele>
        <time>2017-03-01T14:08:46Z</time>
      </trkpt>
      <trkpt lat="44.11922" lon="3.56113">
        <ele>1441</ele>
        <time>2017-03-01T14:10:46Z</time>
      </trkpt>
      <trkpt lat="44.11929" lon="3.56125">
        <ele>1441</ele>
        <time>2017-03-01T14:12:46Z</time>
      </trkpt>
      <trkpt lat="44.11936" lon="3.56136">
        <ele>1441</ele>
        <time>2017-03-01T14:14:46Z</time>
      </trkpt>
      <trkpt lat="44.11943" lon="3.56147">
        <ele>1442</ele>
        <time>2017-03-01T14:16:46Z</time>
      </trkpt>
      <trkpt lat="44.11948" lon="3.56154">
        <ele>1442</ele>
        <time>2017-03-01T14:18:46Z</time>
      </trkpt>
      <trkpt lat="44.11964" lon="3.56171">
        <ele>1443</ele>
        <time>2017-03-01T14:20:46Z</time>
      </trkpt>
      <trkpt lat="44.11968" lon="3.56177">
        <ele>1444</ele>
        <time>2017-03-01T14:22:46Z</time>
      </trkpt>
      <trkpt lat="44.11975" lon="3.56187">
        <ele>1444</ele>
        <time>2017-03-01T14:24:46Z</time>
      </trkpt>
      <trkpt lat="44.1198" lon="3.56197">
        <ele>1444</ele>
        <time>2017-03-01T14:26:46Z</time>
      </trkpt>
      <trkpt lat="44.11983" lon="3.56205">
        <ele>1444</ele>
        <time>2017-03-01T14:28:46Z</time>
      </trkpt>
      <trkpt lat="44.11985" lon="3.56216">
        <ele>1444</ele>
        <time>2017-03-01T14:30:46Z</time>
      </trkpt>
      <trkpt lat="44.11985" lon="3.56226">
        <ele>1443</ele>
        <time>2017-03-01T14:32:46Z</time>
      </trkpt>
      <trkpt lat="44.11985" lon="3.56238">
        <ele>1442</ele>
        <time>2017-03-01T14:34:46Z</time>
      </trkpt>
      <trkpt lat="44.11982" lon="3.56261">
        <ele>1440</ele>
        <time>2017-03-01T14:36:46Z</time>
      </trkpt>
      <trkpt lat="44.11982" lon="3.56274">
        <ele>1439</ele>
        <time>2017-03-01T14:38:46Z</time>
      </trkpt>
      <trkpt lat="44.11983" lon="3.56282">
        <ele>1439</ele>
        <time>2017-03-01T14:40:46Z</time>
      </trkpt>
      <trkpt lat="44.11987" lon="3.5629">
        <ele>1439</ele>
        <time>2017-03-01T14:42:46Z</time>
      </trkpt>
      <trkpt lat="44.1199" lon="3.56296">
        <ele>1440</ele>
        <time>2017-03-01T14:44:46Z</time>
      </trkpt>
      <trkpt lat="44.11996" lon="3.563">
        <ele>1441</ele>
        <time>2017-03-01T14:46:46Z</time>
      </trkpt>
      <trkpt lat="44.12002" lon="3.56302">
        <ele>1442</ele>
        <time>2017-03-01T14:48:46Z</time>
      </trkpt>
      <trkpt lat="44.12012" lon="3.56306">
        <ele>1444</ele>
        <time>2017-03-01T14:50:46Z</time>
      </trkpt>
      <trkpt lat="44.1202" lon="3.56309">
        <ele>1445</ele>
        <time>2017-03-01T14:52:46Z</time>
      </trkpt>
      <trkpt lat="44.1203" lon="3.56315">
        <ele>1447</ele>
        <time>2017-03-01T14:54:46Z</time>
      </trkpt>
      <trkpt lat="44.12041" lon="3.56322">
        <ele>1449</ele>
        <time>2017-03-01T14:56:46Z</time>
      </trkpt>
      <trkpt lat="44.1205" lon="3.56329">
        <ele>1450</ele>
        <time>2017-03-01T14:58:46Z</time>
      </trkpt>
      <trkpt lat="44.12059" lon="3.56339">
        <ele>1451</ele>
        <time>2017-03-01T15:00:46Z</time>
      </trkpt>
      <trkpt lat="44.12067" lon="3.56349">
        <ele>1452</ele>
        <time>2017-03-01T15:02:46Z</time>
      </trkpt>
      <trkpt lat="44.12085" lon="3.56375">
        <ele>1453</ele>
        <time>2017-03-01T15:04:46Z</time>
      </trkpt>
      <trkpt lat="44.12092" lon="3.56386">
        <ele>1454</ele>
        <time>2017-03-01T15:06:46Z</time>
      </trkpt>
      <trkpt lat="44.12099" lon="3.56395">
        <ele>1455</ele>
        <time>2017-03-01T15:08:46Z</time>
      </trkpt>
      <trkpt lat="44.12103" lon="3.56403">
        <ele>1455</ele>
        <time>2017-03-01T15:10:46Z</time>
      </trkpt>
      <trkpt lat="44.12107" lon="3.56419">
        <ele>1456</ele>
        <time>2017-03-01T15:12:46Z</time>
      </trkpt>
      <trkpt lat="44.1211" lon="3.5645">
        <ele>1457</ele>
        <time>2017-03-01T15:14:46Z</time>
      </trkpt>
      <trkpt lat="44.12113" lon="3.5648">
        <ele>1459</ele>
        <time>2017-03-01T15:16:46Z</time>
      </trkpt>
      <trkpt lat="44.12112" lon="3.56491">
        <ele>1459</ele>
        <time>2017-03-01T15:18:46Z</time>
      </trkpt>
      <trkpt lat="44.12109" lon="3.56499">
        <ele>1458</ele>
        <time>2017-03-01T15:20:46Z</time>
      </trkpt>
      <trkpt lat="44.12105" lon="3.56505">
        <ele>1458</ele>
        <time>2017-03-01T15:22:46Z</time>
      </trkpt>
      <trkpt lat="44.12097" lon="3.56511">
        <ele>1457</ele>
        <time>2017-03-01T15:24:46Z</time>
      </trkpt>
      <trkpt lat="44.12088" lon="3.56514">
        <ele>1455</ele>
        <time>2017-03-01T15:26:46Z</time>
      </trkpt>
      <trkpt lat="44.12075" lon="3.5652">
        <ele>1453</ele>
        <time>2017-03-01T15:28:46Z</time>
      </trkpt>
      <trkpt lat="44.12067" lon="3.56522">
        <ele>1452</ele>
        <time>2017-03-01T15:30:46Z</time>
      </trkpt>
      <trkpt lat="44.12058" lon="3.56527">
        <ele>1450</ele>
        <time>2017-03-01T15:32:46Z</time>
      </trkpt>
      <trkpt lat="44.12051" lon="3.56533">
        <ele>1450</ele>
        <time>2017-03-01T15:34:46Z</time>
      </trkpt>
      <trkpt lat="44.12047" lon="3.56539">
        <ele>1449</ele>
        <time>2017-03-01T15:36:46Z</time>
      </trkpt>
      <trkpt lat="44.12044" lon="3.56546">
        <ele>1449</ele>
        <time>2017-03-01T15:38:46Z</time>
      </trkpt>
      <trkpt lat="44.12042" lon="3.56554">
        <ele>1450</ele>
        <time>2017-03-01T15:40:46Z</time>
      </trkpt>
      <trkpt lat="44.12041" lon="3.56566">
        <ele>1451</ele>
        <time>2017-03-01T15:42:46Z</time>
      </trkpt>
      <trkpt lat="44.1204" lon="3.56584">
        <ele>1453</ele>
        <time>2017-03-01T15:44:46Z</time>
      </trkpt>
      <trkpt lat="44.1204" lon="3.56616">
        <ele>1456</ele>
        <time>2017-03-01T15:46:46Z</time>
      </trkpt>
      <trkpt lat="44.12039" lon="3.56635">
        <ele>1458</ele>
        <time>2017-03-01T15:48:46Z</time>
      </trkpt>
      <trkpt lat="44.12039" lon="3.56651">
        <ele>1460</ele>
        <time>2017-03-01T15:50:46Z</time>
      </trkpt>
      <trkpt lat="44.12038" lon="3.56661">
        <ele>1460</ele>
        <time>2017-03-01T15:52:46Z</time>
      </trkpt>
      <trkpt lat="44.12036" lon="3.5667">
        <ele>1461</ele>
        <time>2017-03-01T15:54:46Z</time>
      </trkpt>
      <trkpt lat="44.12036" lon="3.56685">
        <ele>1462</ele>
        <time>2017-03-01T15:56:46Z</time>
      </trkpt>
      <trkpt lat="44.12037" lon="3.56692">
        <ele>1463</ele>
        <time>2017-03-01T15:58:46Z</time>
      </trkpt>
      <trkpt lat="44.12036" lon="3.56702">
        <ele>1464</ele>
        <time>2017-03-01T16:00:46Z</time>
      </trkpt>
      <trkpt lat="44.12034" lon="3.56721">
        <ele>1465</ele>
        <time>2017-03-01T16:02:46Z</time>
      </trkpt>
      <trkpt lat="44.12032" lon="3.56739">
        <ele>1466</ele>
        <time>2017-03-01T16:04:46Z</time>
      </trkpt>
      <trkpt lat="44.12031" lon="3.56755">
        <ele>1467</ele>
        <time>2017-03-01T16:06:46Z</time>
      </trkpt>
      <trkpt lat="44.12031" lon="3.56773">
        <ele>1469</ele>
        <time>2017-03-01T16:08:46Z</time>
      </trkpt>
      <trkpt lat="44.12032" lon="3.56784">
        <ele>1471</ele>
        <time>2017-03-01T16:10:46Z</time>
      </trkpt>
      <trkpt lat="44.12036" lon="3.56802">
        <ele>1474</ele>
        <time>2017-03-01T16:12:46Z</time>
      </trkpt>
      <trkpt lat="44.12039" lon="3.5681">
        <ele>1476</ele>
        <time>2017-03-01T16:14:46Z</time>
      </trkpt>
      <trkpt lat="44.12049" lon="3.56831">
        <ele>1481</ele>
        <time>2017-03-01T16:16:46Z</time>
      </trkpt>
      <trkpt lat="44.12054" lon="3.56841">
        <ele>1484</ele>
        <time>2017-03-01T16:18:46Z</time>
      </trkpt>
      <trkpt lat="44.12057" lon="3.5685">
        <ele>1486</ele>
        <time>2017-03-01T16:20:46Z</time>
      </trkpt>
      <trkpt lat="44.12059" lon="3.56857">
        <ele>1488</ele>
        <time>2017-03-01T16:22:46Z</time>
      </trkpt>
      <trkpt lat="44.12059" lon="3.56875">
        <ele>1491</ele>
        <time>2017-03-01T16:24:46Z</time>
      </trkpt>
      <trkpt lat="44.12056" lon="3.56883">
        <ele>1491</ele>
        <time>2017-03-01T16:26:46Z</time>
      </trkpt>
      <trkpt lat="44.12046" lon="3.56897">
        <ele>1491</ele>
        <time>2017-03-01T16:28:46Z</time>
      </trkpt>
      <trkpt lat="44.12033" lon="3.56905">
        <ele>1489</ele>
        <time>2017-03-01T16:30:46Z</time>
      </trkpt>
      <trkpt lat="44.12015" lon="3.56912">
        <ele>1486</ele>
        <time>2017-03-01T16:32:46Z</time>
      </trkpt>
      <trkpt lat="44.11997" lon="3.56933">
        <ele>1487</ele>
        <time>2017-03-01T16:34:46Z</time>
      </trkpt>
      <trkpt lat="44.11973" lon="3.56968">
        <ele>1492</ele>
        <time>2017-03-01T16:36:46Z</time>
      </trkpt>
      <trkpt lat="44.11961" lon="3.5699">
        <ele>1494</ele>
        <time>2017-03-01T16:38:46Z</time>
      </trkpt>
      <trkpt lat="44.11954" lon="3.57015">
        <ele>1497</ele>
        <time>2017-03-01T16:40:46Z</time>
      </trkpt>
      <trkpt lat="44.11945" lon="3.57056">
        <ele>1502</ele>
        <time>2017-03-01T16:42:46Z</time>
      </trkpt>
      <trkpt lat="44.1193" lon="3.57111">
        <ele>1506</ele>
        <time>2017-03-01T16:44:46Z</time>
      </trkpt>
      <trkpt lat="44.11922" lon="3.57145">
        <ele>1509</ele>
        <time>2017-03-01T16:46:46Z</time>
      </trkpt>
      <trkpt lat="44.11915" lon="3.57185">
        <ele>1512</ele>
        <time>2017-03-01T16:48:46Z</time>
      </trkpt>
      <trkpt lat="44.11913" lon="3.57205">
        <ele>1513</ele>
        <time>2017-03-01T16:50:46Z</time>
      </trkpt>
      <trkpt lat="44.11911" lon="3.57224">
        <ele>1514</ele>
        <time>2017-03-01T16:52:46Z</time>
      </trkpt>
      <trkpt lat="44.11911" lon="3.57241">
        <ele>1515</ele>
        <time>2017-03-01T16:54:46Z</time>
      </trkpt>
      <trkpt lat="44.11913" lon="3.57257">
        <ele>1516</ele>
        <time>2017-03-01T16:56:46Z</time>
      </trkpt>
      <trkpt lat="44.11916" lon="3.57273">
        <ele>1516</ele>
        <time>2017-03-01T16:58:46Z</time>
      </trkpt>
      <trkpt lat="44.11921" lon="3.57291">
        <ele>1517</ele>
        <time>2017-03-01T17:00:46Z</time>
      </trkpt>
      <trkpt lat="44.11929" lon="3.57312">
        <ele>1518</ele>
        <time>2017-03-01T17:02:46Z</time>
      </trkpt>
      <trkpt lat="44.11936" lon="3.5733">
        <ele>1520</ele>
        <time>2017-03-01T17:04:46Z</time>
      </trkpt>
      <trkpt lat="44.11945" lon="3.57348">
        <ele>1521</ele>
        <time>2017-03-01T17:06:46Z</time>
      </trkpt>
      <trkpt lat="44.11954" lon="3.57363">
        <ele>1521</ele>
        <time>2017-03-01T17:08:46Z</time>
      </trkpt>
      <trkpt lat="44.11974" lon="3.57388">
        <ele>1524</ele>
        <time>2017-03-01T17:10:46Z</time>
      </trkpt>
      <trkpt lat="44.11984" lon="3.57399">
        <ele>1526</ele>
        <time>2017-03-01T17:12:46Z</time>
      </trkpt>
      <trkpt lat="44.12012" lon="3.5742">
        <ele>1532</ele>
        <time>2017-03-01T17:14:46Z</time>
      </trkpt>
      <trkpt lat="44.12019" lon="3.57428">
        <ele>1533</ele>
        <time>2017-03-01T17:16:46Z</time>
      </trkpt>
      <trkpt lat="44.12026" lon="3.5744">
        <ele>1535</ele>
        <time>2017-03-01T17:18:46Z</time>
      </trkpt>
      <trkpt lat="44.12034" lon="3.57455">
        <ele>1536</ele>
        <time>2017-03-01T17:20:46Z</time>
      </trkpt>
      <trkpt lat="44.12043" lon="3.57476">
        <ele>1539</ele>
        <time>2017-03-01T17:22:46Z</time>
      </trkpt>
      <trkpt lat="44.12048" lon="3.57491">
        <ele>1540</ele>
        <time>2017-03-01T17:24:46Z</time>
      </trkpt>
      <trkpt lat="44.1205" lon="3.57511">
        <ele>1540</ele>
        <time>2017-03-01T17:26:46Z</time>
      </trkpt>
      <trkpt lat="44.12053" lon="3.57537">
        <ele>1540</ele>
        <time>2017-03-01T17:28:46Z</time>
      </trkpt>
      <trkpt lat="44.12055" lon="3.57569">
        <ele>1539</ele>
        <time>2017-03-01T17:30:46Z</time>
      </trkpt>
      <trkpt lat="44.12059" lon="3.57597">
        <ele>1540</ele>
        <time>2017-03-01T17:32:46Z</time>
      </trkpt>
      <trkpt lat="44.12061" lon="3.57625">
        <ele>1541</ele>
        <time>2017-03-01T17:34:46Z</time>
      </trkpt>
      <trkpt lat="44.12063" lon="3.5765">
        <ele>1542</ele>
        <time>2017-03-01T17:36:46Z</time>
      </trkpt>
      <trkpt lat="44.12064" lon="3.57667">
        <ele>1543</ele>
        <time>2017-03-01T17:38:46Z</time>
      </trkpt>
      <trkpt lat="44.12067" lon="3.57708">
        <ele>1546</ele>
        <time>2017-03-01T17:40:46Z</time>
      </trkpt>
      <trkpt lat="44.12067" lon="3.57717">
        <ele>1546</ele>
        <time>2017-03-01T17:42:46Z</time>
      </trkpt>
      <trkpt lat="44.12066" lon="3.57726">
        <ele>1546</ele>
        <time>2017-03-01T17:44:46Z</time>
      </trkpt>
      <trkpt lat="44.12065" lon="3.57737">
        <ele>1547</ele>
        <time>2017-03-01T17:46:46Z</time>
      </trkpt>
      <trkpt lat="44.12063" lon="3.57751">
        <ele>1546</ele>
        <time>2017-03-01T17:48:46Z</time>
      </trkpt>
      <trkpt lat="44.12063" lon="3.57761">
        <ele>1546</ele>
        <time>2017-03-01T17:50:46Z</time>
      </trkpt>
      <trkpt lat="44.12063" lon="3.57775">
        <ele>1546</ele>
        <time>2017-03-01T17:52:46Z</time>
      </trkpt>
      <trkpt lat="44.12065" lon="3.57797">
        <ele>1547</ele>
        <time>2017-03-01T17:54:46Z</time>
      </trkpt>
      <trkpt lat="44.12068" lon="3.57826">
        <ele>1548</ele>
        <time>2017-03-01T17:56:46Z</time>
      </trkpt>
      <trkpt lat="44.12072" lon="3.57836">
        <ele>1549</ele>
        <time>2017-03-01T17:58:46Z</time>
      </trkpt>
      <trkpt lat="44.12075" lon="3.57839">
        <ele>1550</ele>
        <time>2017-03-01T18:00:46Z</time>
      </trkpt>
      <trkpt lat="44.12078" lon="3.57841">
        <ele>1551</ele>
        <time>2017-03-01T18:02:46Z</time>
      </trkpt>
      <trkpt lat="44.12086" lon="3.57844">
        <ele>1553</ele>
        <time>2017-03-01T18:04:46Z</time>
      </trkpt>
      <trkpt lat="44.1209" lon="3.57846">
        <ele>1553</ele>
        <time>2017-03-01T18:06:46Z</time>
      </trkpt>
      <trkpt lat="44.12095" lon="3.57852">
        <ele>1553</ele>
        <time>2017-03-01T18:08:46Z</time>
      </trkpt>
      <trkpt lat="44.121" lon="3.57859">
        <ele>1553</ele>
        <time>2017-03-01T18:10:46Z</time>
      </trkpt>
      <trkpt lat="44.12104" lon="3.5787">
        <ele>1552</ele>
        <time>2017-03-01T18:12:46Z</time>
      </trkpt>
      <trkpt lat="44.12107" lon="3.57882">
        <ele>1552</ele>
        <time>2017-03-01T18:14:46Z</time>
      </trkpt>
      <trkpt lat="44.12109" lon="3.57888">
        <ele>1552</ele>
        <time>2017-03-01T18:16:46Z</time>
      </trkpt>
      <trkpt lat="44.12113" lon="3.57891">
        <ele>1552</ele>
        <time>2017-03-01T18:18:46Z</time>
      </trkpt>
      <trkpt lat="44.12116" lon="3.57891">
        <ele>1552</ele>
        <time>2017-03-01T18:20:46Z</time>
      </trkpt>
      <trkpt lat="44.12116" lon="3.57913">
        <ele>1551</ele>
        <time>2017-03-01T18:22:46Z</time>
      </trkpt>
      <trkpt lat="44.12118" lon="3.57938">
        <ele>1549</ele>
        <time>2017-03-01T18:24:46Z</time>
      </trkpt>
      <trkpt lat="44.12121" lon="3.57985">
        <ele>1545</ele>
        <time>2017-03-01T18:26:46Z</time>
      </trkpt>
      <trkpt lat="44.1212" lon="3.58">
        <ele>1543</ele>
        <time>2017-03-01T18:28:46Z</time>
      </trkpt>
      <trkpt lat="44.12131" lon="3.57999">
        <ele>1546</ele>
        <time>2017-03-01T18:30:46Z</time>
      </trkpt>
      <trkpt lat="44.12132" lon="3.58006">
        <ele>1546</ele>
        <time>2017-03-01T18:32:46Z</time>
      </trkpt>
      <trkpt lat="44.12141" lon="3.58041">
        <ele>1547</ele>
        <time>2017-03-01T18:34:46Z</time>
      </trkpt>
      <trkpt lat="44.12147" lon="3.58064">
        <ele>1548</ele>
        <time>2017-03-01T18:36:46Z</time>
      </trkpt>
      <trkpt lat="44.12151" lon="3.58072">
        <ele>1549</ele>
        <time>2017-03-01T18:38:46Z</time>
      </trkpt>
      <trkpt lat="44.12156" lon="3.58078">
        <ele>1550</ele>
        <time>2017-03-01T18:40:46Z</time>
      </trkpt>
      <trkpt lat="44.12157" lon="3.58092">
        <ele>1551</ele>
        <time>2017-03-01T18:42:46Z</time>
      </trkpt>
      <trkpt lat="44.12157" lon="3.58097">
        <ele>1551</ele>
        <time>2017-03-01T18:44:46Z</time>
      </trkpt>
      <trkpt lat="44.12156" lon="3.58106">
        <ele>1551</ele>
        <time>2017-03-01T18:46:46Z</time>
      </trkpt>
      <trkpt lat="44.12156" lon="3.58117">
        <ele>1551</ele>
        <time>2017-03-01T18:48:46Z</time>
      </trkpt>
      <trkpt lat="44.12158" lon="3.58141">
        <ele>1552</ele>
        <time>2017-03-01T18:50:46Z</time>
      </trkpt>
      <trkpt lat="44.12161" lon="3.58159">
        <ele>1554</ele>
        <time>2017-03-01T18:52:46Z</time>
      </trkpt>
      <trkpt lat="44.12165" lon="3.58171">
        <ele>1555</ele>
        <time>2017-03-01T18:54:46Z</time>
      </trkpt>
      <trkpt lat="44.1216" lon="3.58196">
        <ele>1553</ele>
        <time>2017-03-01T18:56:46Z</time>
      </trkpt>
      <trkpt lat="44.12158" lon="3.58201">
        <ele>1552</ele>
        <time>2017-03-01T18:58:46Z</time>
      </trkpt>
      <trkpt lat="44.12153" lon="3.58214">
        <ele>1551</ele>
        <time>2017-03-01T19:00:46Z</time>
      </trkpt>
      <trkpt lat="44.12148" lon="3.58223">
        <ele>1549</ele>
        <time>2017-03-01T19:02:46Z</time>
      </trkpt>
      <trkpt lat="44.12153" lon="3.58233">
        <ele>1550</ele>
        <time>2017-03-01T19:04:46Z</time>
      </trkpt>
      <trkpt lat="44.12151" lon="3.58257">
        <ele>1549</ele>
        <time>2017-03-01T19:06:46Z</time>
      </trkpt>
      <trkpt lat="44.1215" lon="3.58295">
        <ele>1546</ele>
        <time>2017-03-01T19:08:46Z</time>
      </trkpt>
      <trkpt lat="44.12151" lon="3.58257">
        <ele>1549</ele>
        <time>2017-03-01T19:10:46Z</time>
      </trkpt>
      <trkpt lat="44.12153" lon="3.58233">
        <ele>1550</ele>
        <time>2017-03-01T19:12:46Z</time>
      </trkpt>
      <trkpt lat="44.12148" lon="3.58223">
        <ele>1549</ele>
        <time>2017-03-01T19:14:46Z</time>
      </trkpt>
      <trkpt lat="44.12145" lon="3.58226">
        <ele>1549</ele>
        <time>2017-03-01T19:16:46Z</time>
      </trkpt>
      <trkpt lat="44.1214" lon="3.58229">
        <ele>1548</ele>
        <time>2017-03-01T19:18:46Z</time>
      </trkpt>
      <trkpt lat="44.12129" lon="3.58231">
        <ele>1545</ele>
        <time>2017-03-01T19:20:46Z</time>
      </trkpt>
      <trkpt lat="44.12121" lon="3.58229">
        <ele>1543</ele>
        <time>2017-03-01T19:22:46Z</time>
      </trkpt>
      <trkpt lat="44.12117" lon="3.58228">
        <ele>1542</ele>
        <time>2017-03-01T19:24:46Z</time>
      </trkpt>
      <trkpt lat="44.12113" lon="3.58224">
        <ele>1542</ele>
        <time>2017-03-01T19:26:46Z</time>
      </trkpt>
      <trkpt lat="44.1211" lon="3.5822">
        <ele>1541</ele>
        <time>2017-03-01T19:28:46Z</time>
      </trkpt>
      <trkpt lat="44.12106" lon="3.5821">
        <ele>1540</ele>
        <time>2017-03-01T19:30:46Z</time>
      </trkpt>
      <trkpt lat="44.12101" lon="3.58191">
        <ele>1540</ele>
        <time>2017-03-01T19:32:46Z</time>
      </trkpt>
      <trkpt lat="44.121" lon="3.58185">
        <ele>1540</ele>
        <time>2017-03-01T19:34:46Z</time>
      </trkpt>
      <trkpt lat="44.12099" lon="3.58147">
        <ele>1540</ele>
        <time>2017-03-01T19:36:46Z</time>
      </trkpt>
      <trkpt lat="44.121" lon="3.58139">
        <ele>1539</ele>
        <time>2017-03-01T19:38:46Z</time>
      </trkpt>
      <trkpt lat="44.12102" lon="3.58126">
        <ele>1539</ele>
        <time>2017-03-01T19:40:46Z</time>
      </trkpt>
      <trkpt lat="44.12106" lon="3.58101">
        <ele>1539</ele>
        <time>2017-03-01T19:42:46Z</time>
      </trkpt>
      <trkpt lat="44.12117" lon="3.58038">
        <ele>1542</ele>
        <time>2017-03-01T19:44:46Z</time>
      </trkpt>
      <trkpt lat="44.12119" lon="3.58021">
        <ele>1543</ele>
        <time>2017-03-01T19:46:46Z</time>
      </trkpt>
      <trkpt lat="44.12121" lon="3.57985">
        <ele>1545</ele>
        <time>2017-03-01T19:48:46Z</time>
      </trkpt>
      <trkpt lat="44.12118" lon="3.57938">
        <ele>1549</ele>
        <time>2017-03-01T19:50:46Z</time>
      </trkpt>
      <trkpt lat="44.12116" lon="3.57913">
        <ele>1551</ele>
        <time>2017-03-01T19:52:46Z</time>
      </trkpt>
      <trkpt lat="44.12116" lon="3.57891">
        <ele>1552</ele>
        <time>2017-03-01T19:54:46Z</time>
      </trkpt>
      <trkpt lat="44.12116" lon="3.5788">
        <ele>1552</ele>
        <time>2017-03-01T19:56:46Z</time>
      </trkpt>
      <trkpt lat="44.1212" lon="3.5784">
        <ele>1554</ele>
        <time>2017-03-01T19:58:46Z</time>
      </trkpt>
      <trkpt lat="44.12128" lon="3.57774">
        <ele>1556</ele>
        <time>2017-03-01T20:00:46Z</time>
      </trkpt>
      <trkpt lat="44.12129" lon="3.57769">
        <ele>1556</ele>
        <time>2017-03-01T20:02:46Z</time>
      </trkpt>
      <trkpt lat="44.12131" lon="3.57761">
        <ele>1556</ele>
        <time>2017-03-01T20:04:46Z</time>
      </trkpt>
      <trkpt lat="44.12135" lon="3.5775">
        <ele>1556</ele>
        <time>2017-03-01T20:06:46Z</time>
      </trkpt>
      <trkpt lat="44.1214" lon="3.57739">
        <ele>1557</ele>
        <time>2017-03-01T20:08:46Z</time>
      </trkpt>
      <trkpt lat="44.12144" lon="3.57733">
        <ele>1557</ele>
        <time>2017-03-01T20:10:46Z</time>
      </trkpt>
      <trkpt lat="44.12147" lon="3.57728">
        <ele>1557</ele>
        <time>2017-03-01T20:12:46Z</time>
      </trkpt>
      <trkpt lat="44.12151" lon="3.57725">
        <ele>1557</ele>
        <time>2017-03-01T20:14:46Z</time>
      </trkpt>
      <trkpt lat="44.12154" lon="3.57722">
        <ele>1557</ele>
        <time>2017-03-01T20:16:46Z</time>
      </trkpt>
      <trkpt lat="44.12157" lon="3.5772">
        <ele>1557</ele>
        <time>2017-03-01T20:18:46Z</time>
      </trkpt>
      <trkpt lat="44.12154" lon="3.57709">
        <ele>1557</ele>
        <time>2017-03-01T20:20:46Z</time>
      </trkpt>
      <trkpt lat="44.12153" lon="3.57688">
        <ele>1557</ele>
        <time>2017-03-01T20:22:46Z</time>
      </trkpt>
      <trkpt lat="44.12157" lon="3.57625">
        <ele>1557</ele>
        <time>2017-03-01T20:24:46Z</time>
      </trkpt>
      <trkpt lat="44.12159" lon="3.57584">
        <ele>1558</ele>
        <time>2017-03-01T20:26:46Z</time>
      </trkpt>
      <trkpt lat="44.1216" lon="3.57569">
        <ele>1558</ele>
        <time>2017-03-01T20:28:46Z</time>
      </trkpt>
      <trkpt lat="44.1216" lon="3.57542">
        <ele>1558</ele>
        <time>2017-03-01T20:30:46Z</time>
      </trkpt>
      <trkpt lat="44.1216" lon="3.57418">
        <ele>1556</ele>
        <time>2017-03-01T20:32:46Z</time>
      </trkpt>
      <trkpt lat="44.12159" lon="3.57367">
        <ele>1554</ele>
        <time>2017-03-01T20:34:46Z</time>
      </trkpt>
      <trkpt lat="44.12159" lon="3.57304">
        <ele>1552</ele>
        <time>2017-03-01T20:36:46Z</time>
      </trkpt>
      <trkpt lat="44.1216" lon="3.57286">
        <ele>1551</ele>
        <time>2017-03-01T20:38:46Z</time>
      </trkpt>
      <trkpt lat="44.12161" lon="3.57271">
        <ele>1551</ele>
        <time>2017-03-01T20:40:46Z</time>
      </trkpt>
      <trkpt lat="44.12163" lon="3.57255">
        <ele>1550</ele>
        <time>2017-03-01T20:42:46Z</time>
      </trkpt>
      <trkpt lat="44.12168" lon="3.57231">
        <ele>1549</ele>
        <time>2017-03-01T20:44:46Z</time>
      </trkpt>
      <trkpt lat="44.12177" lon="3.57195">
        <ele>1548</ele>
        <time>2017-03-01T20:46:46Z</time>
      </trkpt>
      <trkpt lat="44.12187" lon="3.57157">
        <ele>1546</ele>
        <time>2017-03-01T20:48:46Z</time>
      </trkpt>
      <trkpt lat="44.12198" lon="3.57118">
        <ele>1544</ele>
        <time>2017-03-01T20:50:46Z</time>
      </trkpt>
      <trkpt lat="44.12218" lon="3.57049">
        <ele>1542</ele>
        <time>2017-03-01T20:52:46Z</time>
      </trkpt>
      <trkpt lat="44.12224" lon="3.57029">
        <ele>1541</ele>
        <time>2017-03-01T20:54:46Z</time>
      </trkpt>
      <trkpt lat="44.1223" lon="3.57017">
        <ele>1541</ele>
        <time>2017-03-01T20:56:46Z</time>
      </trkpt>
      <trkpt lat="44.12236" lon="3.57008">
        <ele>1541</ele>
        <time>2017-03-01T20:58:46Z</time>
      </trkpt>
      <trkpt lat="44.12241" lon="3.57004">
        <ele>1542</ele>
        <time>2017-03-01T21:00:46Z</time>
      </trkpt>
      <trkpt lat="44.12246" lon="3.56999">
        <ele>1542</ele>
        <time>2017-03-01T21:02:46Z</time>
      </trkpt>
      <trkpt lat="44.12253" lon="3.56998">
        <ele>1542</ele>
        <time>2017-03-01T21:04:46Z</time>
      </trkpt>
      <trkpt lat="44.1226" lon="3.57001">
        <ele>1541</ele>
        <time>2017-03-01T21:06:46Z</time>
      </trkpt>
      <trkpt lat="44.12271" lon="3.57008">
        <ele>1541</ele>
        <time>2017-03-01T21:08:46Z</time>
      </trkpt>
      <trkpt lat="44.1228" lon="3.57015">
        <ele>1540</ele>
        <time>2017-03-01T21:10:46Z</time>
      </trkpt>
      <trkpt lat="44.12287" lon="3.5702">
        <ele>1540</ele>
        <time>2017-03-01T21:12:46Z</time>
      </trkpt>
      <trkpt lat="44.12298" lon="3.57026">
        <ele>1540</ele>
        <time>2017-03-01T21:14:46Z</time>
      </trkpt>
      <trkpt lat="44.12304" lon="3.57027">
        <ele>1539</ele>
        <time>2017-03-01T21:16:46Z</time>
      </trkpt>
      <trkpt lat="44.12312" lon="3.57028">
        <ele>1539</ele>
        <time>2017-03-01T21:18:46Z</time>
      </trkpt>
      <trkpt lat="44.12324" lon="3.57027">
        <ele>1538</ele>
        <time>2017-03-01T21:20:46Z</time>
      </trkpt>
      <trkpt lat="44.12329" lon="3.57026">
        <ele>1538</ele>
        <time>2017-03-01T21:22:46Z</time>
      </trkpt>
      <trkpt lat="44.12334" lon="3.5703">
        <ele>1538</ele>
        <time>2017-03-01T21:24:46Z</time>
      </trkpt>
      <trkpt lat="44.12341" lon="3.57031">
        <ele>1537</ele>
        <time>2017-03-01T21:26:46Z</time>
      </trkpt>
      <trkpt lat="44.12353" lon="3.57028">
        <ele>1537</ele>
        <time>2017-03-01T21:28:46Z</time>
      </trkpt>
      <trkpt lat="44.12403" lon="3.57023">
        <ele>1534</ele>
        <time>2017-03-01T21:30:46Z</time>
      </trkpt>
      <trkpt lat="44.1243" lon="3.57023">
        <ele>1533</ele>
        <time>2017-03-01T21:32:46Z</time>
      </trkpt>
      <trkpt lat="44.12457" lon="3.57022">
        <ele>1532</ele>
        <time>2017-03-01T21:34:46Z</time>
      </trkpt>
      <trkpt lat="44.12482" lon="3.57021">
        <ele>1531</ele>
        <time>2017-03-01T21:36:46Z</time>
      </trkpt>
      <trkpt lat="44.1251" lon="3.57022">
        <ele>1531</ele>
        <time>2017-03-01T21:38:46Z</time>
      </trkpt>
      <trkpt lat="44.12519" lon="3.57021">
        <ele>1530</ele>
        <time>2017-03-01T21:40:46Z</time>
      </trkpt>
      <trkpt lat="44.12547" lon="3.57014">
        <ele>1529</ele>
        <time>2017-03-01T21:42:46Z</time>
      </trkpt>
      <trkpt lat="44.12567" lon="3.5701">
        <ele>1529</ele>
        <time>2017-03-01T21:44:46Z</time>
      </trkpt>
      <trkpt lat="44.12611" lon="3.57003">
        <ele>1525</ele>
        <time>2017-03-01T21:46:46Z</time>
      </trkpt>
      <trkpt lat="44.1262" lon="3.57002">
        <ele>1525</ele>
        <time>2017-03-01T21:48:46Z</time>
      </trkpt>
      <trkpt lat="44.12629" lon="3.57005">
        <ele>1524</ele>
        <time>2017-03-01T21:50:46Z</time>
      </trkpt>
      <trkpt lat="44.12672" lon="3.57029">
        <ele>1521</ele>
        <time>2017-03-01T21:52:46Z</time>
      </trkpt>
      <trkpt lat="44.12687" lon="3.57036">
        <ele>1520</ele>
        <time>2017-03-01T21:54:46Z</time>
      </trkpt>
      <trkpt lat="44.12708" lon="3.57041">
        <ele>1519</ele>
        <time>2017-03-01T21:56:46Z</time>
      </trkpt>
      <trkpt lat="44.12729" lon="3.57043">
        <ele>1519</ele>
        <time>2017-03-01T21:58:46Z</time>
      </trkpt>
      <trkpt lat="44.12744" lon="3.57043">
        <ele>1518</ele>
        <time>2017-03-01T22:00:46Z</time>
      </trkpt>
      <trkpt lat="44.12765" lon="3.57041">
        <ele>1518</ele>
        <time>2017-03-01T22:02:46Z</time>
      </trkpt>
      <trkpt lat="44.12784" lon="3.57036">
        <ele>1517</ele>
        <time>2017-03-01T22:04:46Z</time>
      </trkpt>
      <trkpt lat="44.12806" lon="3.57027">
        <ele>1516</ele>
        <time>2017-03-01T22:06:46Z</time>
      </trkpt>
      <trkpt lat="44.1283" lon="3.5702">
        <ele>1515</ele>
        <time>2017-03-01T22:08:46Z</time>
      </trkpt>
      <trkpt lat="44.12852" lon="3.57015">
        <ele>1515</ele>
        <time>2017-03-01T22:10:46Z</time>
      </trkpt>
      <trkpt lat="44.12883" lon="3.57">
        <ele>1515</ele>
        <time>2017-03-01T22:12:46Z</time>
      </trkpt>
      <trkpt lat="44.12902" lon="3.56987">
        <ele>1513</ele>
        <time>2017-03-01T22:14:46Z</time>
      </trkpt>
      <trkpt lat="44.12939" lon="3.56969">
        <ele>1512</ele>
        <time>2017-03-01T22:16:46Z</time>
      </trkpt>
      <trkpt lat="44.12962" lon="3.56959">
        <ele>1511</ele>
        <time>2017-03-01T22:18:46Z</time>
      </trkpt>
      <trkpt lat="44.12982" lon="3.56946">
        <ele>1510</ele>
        <time>2017-03-01T22:20:46Z</time>
      </trkpt>
      <trkpt lat="44.12996" lon="3.56937">
        <ele>1509</ele>
        <time>2017-03-01T22:22:46Z</time>
      </trkpt>
      <trkpt lat="44.13004" lon="3.5693">
        <ele>1509</ele>
        <time>2017-03-01T22:24:46Z</time>
      </trkpt>
      <trkpt lat="44.13015" lon="3.56917">
        <ele>1509</ele>
        <time>2017-03-01T22:26:46Z</time>
      </trkpt>
      <trkpt lat="44.13028" lon="3.56904">
        <ele>1509</ele>
        <time>2017-03-01T22:28:46Z</time>
      </trkpt>
      <trkpt lat="44.13038" lon="3.56896">
        <ele>1510</ele>
        <time>2017-03-01T22:30:46Z</time>
      </trkpt>
      <trkpt lat="44.13042" lon="3.56894">
        <ele>1510</ele>
        <time>2017-03-01T22:32:46Z</time>
      </trkpt>
      <trkpt lat="44.13046" lon="3.5689">
        <ele>1510</ele>
        <time>2017-03-01T22:34:46Z</time>
      </trkpt>
      <trkpt lat="44.13049" lon="3.56881">
        <ele>1510</ele>
        <time>2017-03-01T22:36:46Z</time>
      </trkpt>
      <trkpt lat="44.13054" lon="3.5686">
        <ele>1509</ele>
        <time>2017-03-01T22:38:46Z</time>
      </trkpt>
      <trkpt lat="44.13059" lon="3.56839">
        <ele>1507</ele>
        <time>2017-03-01T22:40:46Z</time>
      </trkpt>
      <trkpt lat="44.13074" lon="3.56763">
        <ele>1508</ele>
        <time>2017-03-01T22:42:46Z</time>
      </trkpt>
      <trkpt lat="44.13096" lon="3.56682">
        <ele>1508</ele>
        <time>2017-03-01T22:44:46Z</time>
      </trkpt>
      <trkpt lat="44.13103" lon="3.56662">
        <ele>1508</ele>
        <time>2017-03-01T22:46:46Z</time>
      </trkpt>
      <trkpt lat="44.13114" lon="3.56642">
        <ele>1507</ele>
        <time>2017-03-01T22:48:46Z</time>
      </trkpt>
      <trkpt lat="44.13129" lon="3.5662">
        <ele>1508</ele>
        <time>2017-03-01T22:50:46Z</time>
      </trkpt>
      <trkpt lat="44.13147" lon="3.56594">
        <ele>1508</ele>
        <time>2017-03-01T22:52:46Z</time>
      </trkpt>
      <trkpt lat="44.13166" lon="3.5657">
        <ele>1508</ele>
        <time>2017-03-01T22:54:46Z</time>
      </trkpt>
      <trkpt lat="44.13187" lon="3.56544">
        <ele>1507</ele>
        <time>2017-03-01T22:56:46Z</time>
      </trkpt>
      <trkpt lat="44.132" lon="3.56531">
        <ele>1507</ele>
        <time>2017-03-01T22:58:46Z</time>
      </trkpt>
      <trkpt lat="44.1321" lon="3.5652">
        <ele>1506</ele>
        <time>2017-03-01T23:00:46Z</time>
      </trkpt>
      <trkpt lat="44.13216" lon="3.56512">
        <ele>1506</ele>
        <time>2017-03-01T23:02:46Z</time>
      </trkpt>
      <trkpt lat="44.13225" lon="3.565">
        <ele>1505</ele>
        <time>2017-03-01T23:04:46Z</time>
      </trkpt>
      <trkpt lat="44.13236" lon="3.56491">
        <ele>1505</ele>
        <time>2017-03-01T23:06:46Z</time>
      </trkpt>
      <trkpt lat="44.13242" lon="3.56488">
        <ele>1505</ele>
        <time>2017-03-01T23:08:46Z</time>
      </trkpt>
      <trkpt lat="44.13257" lon="3.56483">
        <ele>1504</ele>
        <time>2017-03-01T23:10:46Z</time>
      </trkpt>
      <trkpt lat="44.13277" lon="3.5648">
        <ele>1504</ele>
        <time>2017-03-01T23:12:46Z</time>
      </trkpt>
      <trkpt lat="44.13304" lon="3.56476">
        <ele>1502</ele>
        <time>2017-03-01T23:14:46Z</time>
      </trkpt>
      <trkpt lat="44.13314" lon="3.56476">
        <ele>1502</ele>
        <time>2017-03-01T23:16:46Z</time>
      </trkpt>
      <trkpt lat="44.13329" lon="3.56473">
        <ele>1502</ele>
        <time>2017-03-01T23:18:46Z</time>
      </trkpt>
      <trkpt lat="44.13343" lon="3.56472">
        <ele>1502</ele>
        <time>2017-03-01T23:20:46Z</time>
      </trkpt>
      <trkpt lat="44.13353" lon="3.56474">
        <ele>1503</ele>
        <time>2017-03-01T23:22:46Z</time>
      </trkpt>
      <trkpt lat="44.13365" lon="3.56474">
        <ele>1503</ele>
        <time>2017-03-01T23:24:46Z</time>
      </trkpt>
      <trkpt lat="44.13383" lon="3.56471">
        <ele>1504</ele>
        <time>2017-03-01T23:26:46Z</time>
      </trkpt>
      <trkpt lat="44.13391" lon="3.56469">
        <ele>1504</ele>
        <time>2017-03-01T23:28:46Z</time>
      </trkpt>
      <trkpt lat="44.13395" lon="3.56468">
        <ele>1504</ele>
        <time>2017-03-01T23:30:46Z</time>
      </trkpt>
      <trkpt lat="44.13424" lon="3.56452">
        <ele>1503</ele>
        <time>2017-03-01T23:32:46Z</time>
      </trkpt>
      <trkpt lat="44.13441" lon="3.5644">
        <ele>1502</ele>
        <time>2017-03-01T23:34:46Z</time>
      </trkpt>
      <trkpt lat="44.13452" lon="3.56436">
        <ele>1502</ele>
        <time>2017-03-01T23:36:46Z</time>
      </trkpt>
      <trkpt lat="44.13459" lon="3.56435">
        <ele>1502</ele>
        <time>2017-03-01T23:38:46Z</time>
      </trkpt>
      <trkpt lat="44.13469" lon="3.56438">
        <ele>1503</ele>
        <time>2017-03-01T23:40:46Z</time>
      </trkpt>
      <trkpt lat="44.13494" lon="3.56452">
        <ele>1505</ele>
        <time>2017-03-01T23:42:46Z</time>
      </trkpt>
      <trkpt lat="44.13562" lon="3.56495">
        <ele>1505</ele>
        <time>2017-03-01T23:44:46Z</time>
      </trkpt>
      <trkpt lat="44.13582" lon="3.56508">
        <ele>1505</ele>
        <time>2017-03-01T23:46:46Z</time>
      </trkpt>
      <trkpt lat="44.13589" lon="3.56513">
        <ele>1505</ele>
        <time>2017-03-01T23:48:46Z</time>
      </trkpt>
      <trkpt lat="44.13593" lon="3.56515">
        <ele>1505</ele>
        <time>2017-03-01T23:50:46Z</time>
      </trkpt>
      <trkpt lat="44.13597" lon="3.56516">
        <ele>1505</ele>
        <time>2017-03-01T23:52:46Z</time>
      </trkpt>
      <trkpt lat="44.13615" lon="3.56518">
        <ele>1504</ele>
        <time>2017-03-01T23:54:46Z</time>
      </trkpt>
      <trkpt lat="44.13641" lon="3.56526">
        <ele>1503</ele>
        <time>2017-03-01T23:56:46Z</time>
      </trkpt>
      <trkpt lat="44.13653" lon="3.5653">
        <ele>1503</ele>
        <time>2017-03-01T23:58:46Z</time>
      </trkpt>
      <trkpt lat="44.13669" lon="3.56541">
        <ele>1504</ele>
        <time>2017-03-02T00:00:46Z</time>
      </trkpt>
      <trkpt lat="44.1368" lon="3.56546">
        <ele>1504</ele>
        <time>2017-03-02T00:02:46Z</time>
      </trkpt>
      <trkpt lat="44.137" lon="3.56554">
        <ele>1505</ele>
        <time>2017-03-02T00:04:46Z</time>
      </trkpt>
      <trkpt lat="44.13746" lon="3.5657">
        <ele>1507</ele>
        <time>2017-03-02T00:06:46Z</time>
      </trkpt>
      <trkpt lat="44.13766" lon="3.56574">
        <ele>1507</ele>
        <time>2017-03-02T00:08:46Z</time>
      </trkpt>
      <trkpt lat="44.1379" lon="3.5658">
        <ele>1507</ele>
        <time>2017-03-02T00:10:46Z</time>
      </trkpt>
      <trkpt lat="44.1382" lon="3.56593">
        <ele>1507</ele>
        <time>2017-03-02T00:12:46Z</time>
      </trkpt>
      <trkpt lat="44.1384" lon="3.56601">
        <ele>1507</ele>
        <time>2017-03-02T00:14:46Z</time>
      </trkpt>
      <trkpt lat="44.13852" lon="3.56609">
        <ele>1507</ele>
        <time>2017-03-02T00:16:46Z</time>
      </trkpt>
      <trkpt lat="44.13881" lon="3.56624">
        <ele>1506</ele>
        <time>2017-03-02T00:18:46Z</time>
      </trkpt>
      <trkpt lat="44.13904" lon="3.56632">
        <ele>1504</ele>
        <time>2017-03-02T00:20:46Z</time>
      </trkpt>
      <trkpt lat="44.13921" lon="3.56639">
        <ele>1503</ele>
        <time>2017-03-02T00:22:46Z</time>
      </trkpt>
      <trkpt lat="44.13935" lon="3.56643">
        <ele>1501</ele>
        <time>2017-03-02T00:24:46Z</time>
      </trkpt>
      <trkpt lat="44.13954" lon="3.56644">
        <ele>1499</ele>
        <time>2017-03-02T00:26:46Z</time>
      </trkpt>
      <trkpt lat="44.13981" lon="3.56646">
        <ele>1495</ele>
        <time>2017-03-02T00:28:46Z</time>
      </trkpt>
      <trkpt lat="44.13996" lon="3.56648">
        <ele>1493</ele>
        <time>2017-03-02T00:30:46Z</time>
      </trkpt>
      <trkpt lat="44.14008" lon="3.56646">
        <ele>1492</ele>
        <time>2017-03-02T00:32:46Z</time>
      </trkpt>
      <trkpt lat="44.14016" lon="3.56643">
        <ele>1491</ele>
        <time>2017-03-02T00:34:46Z</time>
      </trkpt>
      <trkpt lat="44.14027" lon="3.56641">
        <ele>1491</ele>
        <time>2017-03-02T00:36:46Z</time>
      </trkpt>
      <trkpt lat="44.14034" lon="3.56641">
        <ele>1490</ele>
        <time>2017-03-02T00:38:46Z</time>
      </trkpt>
      <trkpt lat="44.14041" lon="3.56638">
        <ele>1490</ele>
        <time>2017-03-02T00:40:46Z</time>
      </trkpt>
      <trkpt lat="44.1405" lon="3.56633">
        <ele>1488</ele>
        <time>2017-03-02T00:42:46Z</time>
      </trkpt>
      <trkpt lat="44.14052" lon="3.5663">
        <ele>1487</ele>
        <time>2017-03-02T00:44:46Z</time>
      </trkpt>
      <trkpt lat="44.14058" lon="3.56625">
        <ele>1486</ele>
        <time>2017-03-02T00:46:46Z</time>
      </trkpt>
      <trkpt lat="44.14061" lon="3.56621">
        <ele>1485</ele>
        <time>2017-03-02T00:48:46Z</time>
      </trkpt>
      <trkpt lat="44.14067" lon="3.56617">
        <ele>1484</ele>
        <time>2017-03-02T00:50:46Z</time>
      </trkpt>
      <trkpt lat="44.1407" lon="3.56616">
        <ele>1484</ele>
        <time>2017-03-02T00:52:46Z</time>
      </trkpt>
      <trkpt lat="44.14078" lon="3.56611">
        <ele>1482</ele>
        <time>2017-03-02T00:54:46Z</time>
      </trkpt>
      <trkpt lat="44.14085" lon="3.56608">
        <ele>1481</ele>
        <time>2017-03-02T00:56:46Z</time>
      </trkpt>
      <trkpt lat="44.14099" lon="3.56603">
        <ele>1480</ele>
        <time>2017-03-02T00:58:46Z</time>
      </trkpt>
      <trkpt lat="44.14112" lon="3.566">
        <ele>1478</ele>
        <time>2017-03-02T01:00:46Z</time>
      </trkpt>
      <trkpt lat="44.14128" lon="3.56594">
        <ele>1476</ele>
        <time>2017-03-02T01:02:46Z</time>
      </trkpt>
      <trkpt lat="44.14145" lon="3.56589">
        <ele>1474</ele>
        <time>2017-03-02T01:04:46Z</time>
      </trkpt>
      <trkpt lat="44.14161" lon="3.56585">
        <ele>1473</ele>
        <time>2017-03-02T01:06:46Z</time>
      </trkpt>
      <trkpt lat="44.14167" lon="3.56583">
        <ele>1472</ele>
        <time>2017-03-02T01:08:46Z</time>
      </trkpt>
      <trkpt lat="44.14169" lon="3.56578">
        <ele>1470</ele>
        <time>2017-03-02T01:10:46Z</time>
      </trkpt>
      <trkpt lat="44.14173" lon="3.56573">
        <ele>1469</ele>
        <time>2017-03-02T01:12:46Z</time>
      </trkpt>
      <trkpt lat="44.14186" lon="3.56566">
        <ele>1465</ele>
        <time>2017-03-02T01:14:46Z</time>
      </trkpt>
      <trkpt lat="44.14194" lon="3.56562">
        <ele>1463</ele>
        <time>2017-03-02T01:16:46Z</time>
      </trkpt>
      <trkpt lat="44.14206" lon="3.56551">
        <ele>1460</ele>
        <time>2017-03-02T01:18:46Z</time>
      </trkpt>
      <trkpt lat="44.14223" lon="3.56528">
        <ele>1454</ele>
        <time>2017-03-02T01:20:46Z</time>
      </trkpt>
      <trkpt lat="44.14267" lon="3.56474">
        <ele>1440</ele>
        <time>2017-03-02T01:22:46Z</time>
      </trkpt>
      <trkpt lat="44.14274" lon="3.56466">
        <ele>1438</ele>
        <time>2017-03-02T01:24:46Z</time>
      </trkpt>
      <trkpt lat="44.14279" lon="3.56465">
        <ele>1437</ele>
        <time>2017-03-02T01:26:46Z</time>
      </trkpt>
      <trkpt lat="44.14285" lon="3.56465">
        <ele>1436</ele>
        <time>2017-03-02T01:28:46Z</time>
      </trkpt>
      <trkpt lat="44.14288" lon="3.56464">
        <ele>1436</ele>
        <time>2017-03-02T01:30:46Z</time>
      </trkpt>
      <trkpt lat="44.14294" lon="3.5646">
        <ele>1435</ele>
        <time>2017-03-02T01:32:46Z</time>
      </trkpt>
      <trkpt lat="44.14301" lon="3.56458">
        <ele>1434</ele>
        <time>2017-03-02T01:34:46Z</time>
      </trkpt>
      <trkpt lat="44.14311" lon="3.56455">
        <ele>1432</ele>
        <time>2017-03-02T01:36:46Z</time>
      </trkpt>
      <trkpt lat="44.14325" lon="3.56448">
        <ele>1430</ele>
        <time>2017-03-02T01:38:46Z</time>
      </trkpt>
      <trkpt lat="44.14339" lon="3.56436">
        <ele>1427</ele>
        <time>2017-03-02T01:40:46Z</time>
      </trkpt>
      <trkpt lat="44.14346" lon="3.56425">
        <ele>1425</ele>
        <time>2017-03-02T01:42:46Z</time>
      </trkpt>
      <trkpt lat="44.14352" lon="3.56414">
        <ele>1423</ele>
        <time>2017-03-02T01:44:46Z</time>
      </trkpt>
      <trkpt lat="44.14359" lon="3.56404">
        <ele>1421</ele>
        <time>2017-03-02T01:46:46Z</time>
      </trkpt>
      <trkpt lat="44.14366" lon="3.56395">
        <ele>1419</ele>
        <time>2017-03-02T01:48:46Z</time>
      </trkpt>
      <trkpt lat="44.14375" lon="3.56386">
        <ele>1417</ele>
        <time>2017-03-02T01:50:46Z</time>
      </trkpt>
      <trkpt lat="44.14392" lon="3.56373">
        <ele>1415</ele>
        <time>2017-03-02T01:52:46Z</time>
      </trkpt>
      <trkpt lat="44.14409" lon="3.56358">
        <ele>1413</ele>
        <time>2017-03-02T01:54:46Z</time>
      </trkpt>
      <trkpt lat="44.14431" lon="3.5634">
        <ele>1411</ele>
        <time>2017-03-02T01:56:46Z</time>
      </trkpt>
      <trkpt lat="44.14453" lon="3.56322">
        <ele>1408</ele>
        <time>2017-03-02T01:58:46Z</time>
      </trkpt>
      <trkpt lat="44.14484" lon="3.56297">
        <ele>1404</ele>
        <time>2017-03-02T02:00:46Z</time>
      </trkpt>
      <trkpt lat="44.14514" lon="3.56278">
        <ele>1403</ele>
        <time>2017-03-02T02:02:46Z</time>
      </trkpt>
      <trkpt lat="44.14525" lon="3.56272">
        <ele>1403</ele>
        <time>2017-03-02T02:04:46Z</time>
      </trkpt>
      <trkpt lat="44.14545" lon="3.56257">
        <ele>1405</ele>
        <time>2017-03-02T02:06:46Z</time>
      </trkpt>
      <trkpt lat="44.14552" lon="3.56256">
        <ele>1406</ele>
        <time>2017-03-02T02:08:46Z</time>
      </trkpt>
      <trkpt lat="44.14559" lon="3.56249">
        <ele>1407</ele>
        <time>2017-03-02T02:10:46Z</time>
      </trkpt>
      <trkpt lat="44.14587" lon="3.56222">
        <ele>1408</ele>
        <time>2017-03-02T02:12:46Z</time>
      </trkpt>
      <trkpt lat="44.14621" lon="3.56181">
        <ele>1411</ele>
        <time>2017-03-02T02:14:46Z</time>
      </trkpt>
      <trkpt lat="44.14638" lon="3.56166">
        <ele>1414</ele>
        <time>2017-03-02T02:16:46Z</time>
      </trkpt>
      <trkpt lat="44.14667" lon="3.56145">
        <ele>1417</ele>
        <time>2017-03-02T02:18:46Z</time>
      </trkpt>
      <trkpt lat="44.14693" lon="3.56129">
        <ele>1419</ele>
        <time>2017-03-02T02:20:46Z</time>
      </trkpt>
      <trkpt lat="44.14708" lon="3.5612">
        <ele>1420</ele>
        <time>2017-03-02T02:22:46Z</time>
      </trkpt>
      <trkpt lat="44.14715" lon="3.56113">
        <ele>1421</ele>
        <time>2017-03-02T02:24:46Z</time>
      </trkpt>
      <trkpt lat="44.14721" lon="3.56103">
        <ele>1422</ele>
        <time>2017-03-02T02:26:46Z</time>
      </trkpt>
      <trkpt lat="44.14726" lon="3.5609">
        <ele>1423</ele>
        <time>2017-03-02T02:28:46Z</time>
      </trkpt>
      <trkpt lat="44.14733" lon="3.5607">
        <ele>1423</ele>
        <time>2017-03-02T02:30:46Z</time>
      </trkpt>
      <trkpt lat="44.14738" lon="3.56048">
        <ele>1423</ele>
        <time>2017-03-02T02:32:46Z</time>
      </trkpt>
      <trkpt lat="44.14746" lon="3.56029">
        <ele>1423</ele>
        <time>2017-03-02T02:34:46Z</time>
      </trkpt>
      <trkpt lat="44.14757" lon="3.56003">
        <ele>1424</ele>
        <time>2017-03-02T02:36:46Z</time>
      </trkpt>
      <trkpt lat="44.14767" lon="3.55985">
        <ele>1425</ele>
        <time>2017-03-02T02:38:46Z</time>
      </trkpt>
      <trkpt lat="44.14774" lon="3.5597">
        <ele>1425</ele>
        <time>2017-03-02T02:40:46Z</time>
      </trkpt>
      <trkpt lat="44.14782" lon="3.55946">
        <ele>1424</ele>
        <time>2017-03-02T02:42:46Z</time>
      </trkpt>
      <trkpt lat="44.14791" lon="3.55926">
        <ele>1423</ele>
        <time>2017-03-02T02:44:46Z</time>
      </trkpt>
      <trkpt lat="44.14801" lon="3.55911">
        <ele>1423</ele>
        <time>2017-03-02T02:46:46Z</time>
      </trkpt>
      <trkpt lat="44.14821" lon="3.55889">
        <ele>1422</ele>
        <time>2017-03-02T02:48:46Z</time>
      </trkpt>
      <trkpt lat="44.14837" lon="3.55874">
        <ele>1422</ele>
        <time>2017-03-02T02:50:46Z</time>
      </trkpt>
      <trkpt lat="44.14872" lon="3.55848">
        <ele>1424</ele>
        <time>2017-03-02T02:52:46Z</time>
      </trkpt>
      <trkpt lat="44.149" lon="3.55826">
        <ele>1426</ele>
        <time>2017-03-02T02:54:46Z</time>
      </trkpt>
      <trkpt lat="44.1491" lon="3.55818">
        <ele>1426</ele>
        <time>2017-03-02T02:56:46Z</time>
      </trkpt>
      <trkpt lat="44.14943" lon="3.55797">
        <ele>1428</ele>
        <time>2017-03-02T02:58:46Z</time>
      </trkpt>
      <trkpt lat="44.14968" lon="3.55785">
        <ele>1430</ele>
        <time>2017-03-02T03:00:46Z</time>
      </trkpt>
      <trkpt lat="44.15012" lon="3.55771">
        <ele>1435</ele>
        <time>2017-03-02T03:02:46Z</time>
      </trkpt>
      <trkpt lat="44.15044" lon="3.55764">
        <ele>1438</ele>
        <time>2017-03-02T03:04:46Z</time>
      </trkpt>
      <trkpt lat="44.15065" lon="3.55756">
        <ele>1440</ele>
        <time>2017-03-02T03:06:46Z</time>
      </trkpt>
      <trkpt lat="44.15079" lon="3.55744">
        <ele>1439</ele>
        <time>2017-03-02T03:08:46Z</time>
      </trkpt>
      <trkpt lat="44.15097" lon="3.55725">
        <ele>1437</ele>
        <time>2017-03-02T03:10:46Z</time>
      </trkpt>
      <trkpt lat="44.15111" lon="3.55705">
        <ele>1434</ele>
        <time>2017-03-02T03:12:46Z</time>
      </trkpt>
      <trkpt lat="44.15127" lon="3.55682">
        <ele>1431</ele>
        <time>2017-03-02T03:14:46Z</time>
      </trkpt>
      <trkpt lat="44.15148" lon="3.55663">
        <ele>1430</ele>
        <time>2017-03-02T03:16:46Z</time>
      </trkpt>
      <trkpt lat="44.15168" lon="3.5565">
        <ele>1429</ele>
        <time>2017-03-02T03:18:46Z</time>
      </trkpt>
      <trkpt lat="44.15192" lon="3.55643">
        <ele>1428</ele>
        <time>2017-03-02T03:20:46Z</time>
      </trkpt>
      <trkpt lat="44.1522" lon="3.55641">
        <ele>1428</ele>
        <time>2017-03-02T03:22:46Z</time>
      </trkpt>
      <trkpt lat="44.15256" lon="3.55641">
        <ele>1430</ele>
        <time>2017-03-02T03:24:46Z</time>
      </trkpt>
      <trkpt lat="44.15284" lon="3.55639">
        <ele>1432</ele>
        <time>2017-03-02T03:26:46Z</time>
      </trkpt>
      <trkpt lat="44.15304" lon="3.55636">
        <ele>1433</ele>
        <time>2017-03-02T03:28:46Z</time>
      </trkpt>
      <trkpt lat="44.15329" lon="3.55623">
        <ele>1434</ele>
        <time>2017-03-02T03:30:46Z</time>
      </trkpt>
      <trkpt lat="44.1535" lon="3.5561">
        <ele>1435</ele>
        <time>2017-03-02T03:32:46Z</time>
      </trkpt>
      <trkpt lat="44.15361" lon="3.55599">
        <ele>1436</ele>
        <time>2017-03-02T03:34:46Z</time>
      </trkpt>
      <trkpt lat="44.1537" lon="3.55584">
        <ele>1436</ele>
        <time>2017-03-02T03:36:46Z</time>
      </trkpt>
      <trkpt lat="44.15379" lon="3.55564">
        <ele>1436</ele>
        <time>2017-03-02T03:38:46Z</time>
      </trkpt>
      <trkpt lat="44.15388" lon="3.55534">
        <ele>1435</ele>
        <time>2017-03-02T03:40:46Z</time>
      </trkpt>
      <trkpt lat="44.15396" lon="3.55499">
        <ele>1434</ele>
        <time>2017-03-02T03:42:46Z</time>
      </trkpt>
      <trkpt lat="44.15398" lon="3.55472">
        <ele>1432</ele>
        <time>2017-03-02T03:44:46Z</time>
      </trkpt>
      <trkpt lat="44.15399" lon="3.5545">
        <ele>1430</ele>
        <time>2017-03-02T03:46:46Z</time>
      </trkpt>
      <trkpt lat="44.15404" lon="3.55428">
        <ele>1429</ele>
        <time>2017-03-02T03:48:46Z</time>
      </trkpt>
      <trkpt lat="44.1541" lon="3.55411">
        <ele>1429</ele>
        <time>2017-03-02T03:50:46Z</time>
      </trkpt>
      <trkpt lat="44.15421" lon="3.55399">
        <ele>1430</ele>
        <time>2017-03-02T03:52:46Z</time>
      </trkpt>
      <trkpt lat="44.15439" lon="3.55388">
        <ele>1431</ele>
        <time>2017-03-02T03:54:46Z</time>
      </trkpt>
      <trkpt lat="44.15462" lon="3.55384">
        <ele>1433</ele>
        <time>2017-03-02T03:56:46Z</time>
      </trkpt>
      <trkpt lat="44.15486" lon="3.55381">
        <ele>1436</ele>
        <time>2017-03-02T03:58:46Z</time>
      </trkpt>
      <trkpt lat="44.15517" lon="3.5538">
        <ele>1437</ele>
        <time>2017-03-02T04:00:46Z</time>
      </trkpt>
      <trkpt lat="44.1553" lon="3.55381">
        <ele>1436</ele>
        <time>2017-03-02T04:02:46Z</time>
      </trkpt>
      <trkpt lat="44.15536" lon="3.55385">
        <ele>1436</ele>
        <time>2017-03-02T04:04:46Z</time>
      </trkpt>
      <trkpt lat="44.15538" lon="3.55379">
        <ele>1435</ele>
        <time>2017-03-02T04:06:46Z</time>
      </trkpt>
      <trkpt lat="44.15549" lon="3.55366">
        <ele>1432</ele>
        <time>2017-03-02T04:08:46Z</time>
      </trkpt>
      <trkpt lat="44.15566" lon="3.55342">
        <ele>1429</ele>
        <time>2017-03-02T04:10:46Z</time>
      </trkpt>
      <trkpt lat="44.15577" lon="3.55328">
        <ele>1427</ele>
        <time>2017-03-02T04:12:46Z</time>
      </trkpt>
      <trkpt lat="44.15587" lon="3.5531">
        <ele>1424</ele>
        <time>2017-03-02T04:14:46Z</time>
      </trkpt>
      <trkpt lat="44.15595" lon="3.55299">
        <ele>1420</ele>
        <time>2017-03-02T04:16:46Z</time>
      </trkpt>
      <trkpt lat="44.15606" lon="3.55284">
        <ele>1416</ele>
        <time>2017-03-02T04:18:46Z</time>
      </trkpt>
      <trkpt lat="44.15618" lon="3.55267">
        <ele>1412</ele>
        <time>2017-03-02T04:20:46Z</time>
      </trkpt>
      <trkpt lat="44.15625" lon="3.55254">
        <ele>1410</ele>
        <time>2017-03-02T04:22:46Z</time>
      </trkpt>
      <trkpt lat="44.15626" lon="3.55247">
        <ele>1409</ele>
        <time>2017-03-02T04:24:46Z</time>
      </trkpt>
      <trkpt lat="44.1563" lon="3.55237">
        <ele>1408</ele>
        <time>2017-03-02T04:26:46Z</time>
      </trkpt>
      <trkpt lat="44.15633" lon="3.55229">
        <ele>1407</ele>
        <time>2017-03-02T04:28:46Z</time>
      </trkpt>
      <trkpt lat="44.15638" lon="3.55222">
        <ele>1406</ele>
        <time>2017-03-02T04:30:46Z</time>
      </trkpt>
      <trkpt lat="44.15645" lon="3.55214">
        <ele>1405</ele>
        <time>2017-03-02T04:32:46Z</time>
      </trkpt>
      <trkpt lat="44.15652" lon="3.55201">
        <ele>1404</ele>
        <time>2017-03-02T04:34:46Z</time>
      </trkpt>
      <trkpt lat="44.1566" lon="3.55183">
        <ele>1403</ele>
        <time>2017-03-02T04:36:46Z</time>
      </trkpt>
      <trkpt lat="44.15667" lon="3.5517">
        <ele>1403</ele>
        <time>2017-03-02T04:38:46Z</time>
      </trkpt>
      <trkpt lat="44.15679" lon="3.55138">
        <ele>1397</ele>
        <time>2017-03-02T04:40:46Z</time>
      </trkpt>
      <trkpt lat="44.15681" lon="3.55131">
        <ele>1396</ele>
        <time>2017-03-02T04:42:46Z</time>
      </trkpt>
      <trkpt lat="44.15685" lon="3.55127">
        <ele>1394</ele>
        <time>2017-03-02T04:44:46Z</time>
      </trkpt>
      <trkpt lat="44.15691" lon="3.55123">
        <ele>1393</ele>
        <time>2017-03-02T04:46:46Z</time>
      </trkpt>
      <trkpt lat="44.15697" lon="3.55123">
        <ele>1392</ele>
        <time>2017-03-02T04:48:46Z</time>
      </trkpt>
      <trkpt lat="44.15706" lon="3.55127">
        <ele>1390</ele>
        <time>2017-03-02T04:50:46Z</time>
      </trkpt>
      <trkpt lat="44.15712" lon="3.55132">
        <ele>1389</ele>
        <time>2017-03-02T04:52:46Z</time>
      </trkpt>
      <trkpt lat="44.15716" lon="3.5514">
        <ele>1389</ele>
        <time>2017-03-02T04:54:46Z</time>
      </trkpt>
      <trkpt lat="44.15718" lon="3.55151">
        <ele>1389</ele>
        <time>2017-03-02T04:56:46Z</time>
      </trkpt>
      <trkpt lat="44.15723" lon="3.55165">
        <ele>1388</ele>
        <time>2017-03-02T04:58:46Z</time>
      </trkpt>
      <trkpt lat="44.1573" lon="3.55179">
        <ele>1386</ele>
        <time>2017-03-02T05:00:46Z</time>
      </trkpt>
      <trkpt lat="44.15731" lon="3.55183">
        <ele>1386</ele>
        <time>2017-03-02T05:02:46Z</time>
      </trkpt>
      <trkpt lat="44.15731" lon="3.55188">
        <ele>1386</ele>
        <time>2017-03-02T05:04:46Z</time>
      </trkpt>
      <trkpt lat="44.15734" lon="3.55193">
        <ele>1386</ele>
        <time>2017-03-02T05:06:46Z</time>
      </trkpt>
      <trkpt lat="44.15738" lon="3.55196">
        <ele>1385</ele>
        <time>2017-03-02T05:08:46Z</time>
      </trkpt>
      <trkpt lat="44.15745" lon="3.55207">
        <ele>1383</ele>
        <time>2017-03-02T05:10:46Z</time>
      </trkpt>
      <trkpt lat="44.15745" lon="3.55211">
        <ele>1383</ele>
        <time>2017-03-02T05:12:46Z</time>
      </trkpt>
      <trkpt lat="44.15748" lon="3.55216">
        <ele>1382</ele>
        <time>2017-03-02T05:14:46Z</time>
      </trkpt>
      <trkpt lat="44.15753" lon="3.55222">
        <ele>1381</ele>
        <time>2017-03-02T05:16:46Z</time>
      </trkpt>
      <trkpt lat="44.15758" lon="3.55224">
        <ele>1379</ele>
        <time>2017-03-02T05:18:46Z</time>
      </trkpt>
      <trkpt lat="44.15762" lon="3.55222">
        <ele>1378</ele>
        <time>2017-03-02T05:20:46Z</time>
      </trkpt>
      <trkpt lat="44.15765" lon="3.55223">
        <ele>1377</ele>
        <time>2017-03-02T05:22:46Z</time>
      </trkpt>
      <trkpt lat="44.15768" lon="3.55236">
        <ele>1376</ele>
        <time>2017-03-02T05:24:46Z</time>
      </trkpt>
      <trkpt lat="44.15775" lon="3.5525">
        <ele>1373</ele>
        <time>2017-03-02T05:26:46Z</time>
      </trkpt>
      <trkpt lat="44.15777" lon="3.55256">
        <ele>1373</ele>
        <time>2017-03-02T05:28:46Z</time>
      </trkpt>
      <trkpt lat="44.15781" lon="3.5526">
        <ele>1371</ele>
        <time>2017-03-02T05:30:46Z</time>
      </trkpt>
      <trkpt lat="44.15785" lon="3.55261">
        <ele>1370</ele>
        <time>2017-03-02T05:32:46Z</time>
      </trkpt>
      <trkpt lat="44.15789" lon="3.55259">
        <ele>1368</ele>
        <time>2017-03-02T05:34:46Z</time>
      </trkpt>
      <trkpt lat="44.15792" lon="3.55258">
        <ele>1367</ele>
        <time>2017-03-02T05:36:46Z</time>
      </trkpt>
      <trkpt lat="44.15797" lon="3.55258">
        <ele>1366</ele>
        <time>2017-03-02T05:38:46Z</time>
      </trkpt>
      <trkpt lat="44.15801" lon="3.55255">
        <ele>1364</ele>
        <time>2017-03-02T05:40:46Z</time>
      </trkpt>
      <trkpt lat="44.15808" lon="3.55257">
        <ele>1362</ele>
        <time>2017-03-02T05:42:46Z</time>
      </trkpt>
      <trkpt lat="44.15813" lon="3.55257">
        <ele>1360</ele>
        <time>2017-03-02T05:44:46Z</time>
      </trkpt>
      <trkpt lat="44.15819" lon="3.55256">
        <ele>1358</ele>
        <time>2017-03-02T05:46:46Z</time>
      </trkpt>
      <trkpt lat="44.15825" lon="3.55252">
        <ele>1356</ele>
        <time>2017-03-02T05:48:46Z</time>
      </trkpt>
      <trkpt lat="44.15828" lon="3.55247">
        <ele>1355</ele>
        <time>2017-03-02T05:50:46Z</time>
      </trkpt>
      <trkpt lat="44.15834" lon="3.55242">
        <ele>1353</ele>
        <time>2017-03-02T05:52:46Z</time>
      </trkpt>
      <trkpt lat="44.15847" lon="3.55236">
        <ele>1348</ele>
        <time>2017-03-02T05:54:46Z</time>
      </trkpt>
      <trkpt lat="44.15852" lon="3.55232">
        <ele>1346</ele>
        <time>2017-03-02T05:56:46Z</time>
      </trkpt>
      <trkpt lat="44.15855" lon="3.55227">
        <ele>1345</ele>
        <time>2017-03-02T05:58:46Z</time>
      </trkpt>
      <trkpt lat="44.15863" lon="3.55227">
        <ele>1342</ele>
        <time>2017-03-02T06:00:46Z</time>
      </trkpt>
      <trkpt lat="44.15875" lon="3.55223">
        <ele>1337</ele>
        <time>2017-03-02T06:02:46Z</time>
      </trkpt>
      <trkpt lat="44.15877" lon="3.55224">
        <ele>1336</ele>
        <time>2017-03-02T06:04:46Z</time>
      </trkpt>
      <trkpt lat="44.15881" lon="3.55223">
        <ele>1335</ele>
        <time>2017-03-02T06:06:46Z</time>
      </trkpt>
      <trkpt lat="44.15885" lon="3.55222">
        <ele>1333</ele>
        <time>2017-03-02T06:08:46Z</time>
      </trkpt>
      <trkpt lat="44.1589" lon="3.55224">
        <ele>1331</ele>
        <time>2017-03-02T06:10:46Z</time>
      </trkpt>
      <trkpt lat="44.15899" lon="3.55222">
        <ele>1328</ele>
        <time>2017-03-02T06:12:46Z</time>
      </trkpt>
      <trkpt lat="44.15906" lon="3.55222">
        <ele>1325</ele>
        <time>2017-03-02T06:14:46Z</time>
      </trkpt>
      <trkpt lat="44.1591" lon="3.55218">
        <ele>1323</ele>
        <time>2017-03-02T06:16:46Z</time>
      </trkpt>
      <trkpt lat="44.15913" lon="3.55219">
        <ele>1322</ele>
        <time>2017-03-02T06:18:46Z</time>
      </trkpt>
      <trkpt lat="44.15918" lon="3.55215">
        <ele>1320</ele>
        <time>2017-03-02T06:20:46Z</time>
      </trkpt>
      <trkpt lat="44.15923" lon="3.55215">
        <ele>1319</ele>
        <time>2017-03-02T06:22:46Z</time>
      </trkpt>
      <trkpt lat="44.15928" lon="3.55213">
        <ele>1318</ele>
        <time>2017-03-02T06:24:46Z</time>
      </trkpt>
      <trkpt lat="44.15933" lon="3.55212">
        <ele>1316</ele>
        <time>2017-03-02T06:26:46Z</time>
      </trkpt>
      <trkpt lat="44.15938" lon="3.55209">
        <ele>1315</ele>
        <time>2017-03-02T06:28:46Z</time>
      </trkpt>
      <trkpt lat="44.15946" lon="3.55208">
        <ele>1312</ele>
        <time>2017-03-02T06:30:46Z</time>
      </trkpt>
      <trkpt lat="44.15959" lon="3.55203">
        <ele>1308</ele>
        <time>2017-03-02T06:32:46Z</time>
      </trkpt>
      <trkpt lat="44.15969" lon="3.55201">
        <ele>1305</ele>
        <time>2017-03-02T06:34:46Z</time>
      </trkpt>
      <trkpt lat="44.15975" lon="3.55199">
        <ele>1303</ele>
        <time>2017-03-02T06:36:46Z</time>
      </trkpt>
      <trkpt lat="44.15985" lon="3.55192">
        <ele>1300</ele>
        <time>2017-03-02T06:38:46Z</time>
      </trkpt>
      <trkpt lat="44.15996" lon="3.55187">
        <ele>1296</ele>
        <time>2017-03-02T06:40:46Z</time>
      </trkpt>
      <trkpt lat="44.16005" lon="3.55184">
        <ele>1294</ele>
        <time>2017-03-02T06:42:46Z</time>
      </trkpt>
      <trkpt lat="44.16011" lon="3.55182">
        <ele>1292</ele>
        <time>2017-03-02T06:44:46Z</time>
      </trkpt>
      <trkpt lat="44.16017" lon="3.55178">
        <ele>1290</ele>
        <time>2017-03-02T06:46:46Z</time>
      </trkpt>
      <trkpt lat="44.16022" lon="3.55175">
        <ele>1289</ele>
        <time>2017-03-02T06:48:46Z</time>
      </trkpt>
      <trkpt lat="44.16031" lon="3.55166">
        <ele>1286</ele>
        <time>2017-03-02T06:50:46Z</time>
      </trkpt>
      <trkpt lat="44.16034" lon="3.55162">
        <ele>1285</ele>
        <time>2017-03-02T06:52:46Z</time>
      </trkpt>
      <trkpt lat="44.16039" lon="3.55161">
        <ele>1284</ele>
        <time>2017-03-02T06:54:46Z</time>
      </trkpt>
      <trkpt lat="44.16046" lon="3.55156">
        <ele>1282</ele>
        <time>2017-03-02T06:56:46Z</time>
      </trkpt>
      <trkpt lat="44.16056" lon="3.5515">
        <ele>1279</ele>
        <time>2017-03-02T06:58:46Z</time>
      </trkpt>
      <trkpt lat="44.16063" lon="3.55147">
        <ele>1277</ele>
        <time>2017-03-02T07:00:46Z</time>
      </trkpt>
      <trkpt lat="44.16072" lon="3.55144">
        <ele>1275</ele>
        <time>2017-03-02T07:02:46Z</time>
      </trkpt>
      <trkpt lat="44.16077" lon="3.55141">
        <ele>1273</ele>
        <time>2017-03-02T07:04:46Z</time>
      </trkpt>
      <trkpt lat="44.16081" lon="3.55134">
        <ele>1272</ele>
        <time>2017-03-02T07:06:46Z</time>
      </trkpt>
      <trkpt lat="44.16087" lon="3.55127">
        <ele>1269</ele>
        <time>2017-03-02T07:08:46Z</time>
      </trkpt>
      <trkpt lat="44.16092" lon="3.55116">
        <ele>1267</ele>
        <time>2017-03-02T07:10:46Z</time>
      </trkpt>
      <trkpt lat="44.16095" lon="3.55116">
        <ele>1266</ele>
        <time>2017-03-02T07:12:46Z</time>
      </trkpt>
      <trkpt lat="44.161" lon="3.55108">
        <ele>1265</ele>
        <time>2017-03-02T07:14:46Z</time>
      </trkpt>
      <trkpt lat="44.16103" lon="3.551">
        <ele>1263</ele>
        <time>2017-03-02T07:16:46Z</time>
      </trkpt>
      <trkpt lat="44.16106" lon="3.55094">
        <ele>1262</ele>
        <time>2017-03-02T07:18:46Z</time>
      </trkpt>
      <trkpt lat="44.16115" lon="3.55085">
        <ele>1260</ele>
        <time>2017-03-02T07:20:46Z</time>
      </trkpt>
      <trkpt lat="44.16124" lon="3.55077">
        <ele>1258</ele>
        <time>2017-03-02T07:22:46Z</time>
      </trkpt>
      <trkpt lat="44.16131" lon="3.55073">
        <ele>1256</ele>
        <time>2017-03-02T07:24:46Z</time>
      </trkpt>
      <trkpt lat="44.16136" lon="3.55069">
        <ele>1255</ele>
        <time>2017-03-02T07:26:46Z</time>
      </trkpt>
      <trkpt lat="44.16144" lon="3.55057">
        <ele>1252</ele>
        <time>2017-03-02T07:28:46Z</time>
      </trkpt>
      <trkpt lat="44.16148" lon="3.55053">
        <ele>1251</ele>
        <time>2017-03-02T07:30:46Z</time>
      </trkpt>
      <trkpt lat="44.1615" lon="3.5505">
        <ele>1251</ele>
        <time>2017-03-02T07:32:46Z</time>
      </trkpt>
      <trkpt lat="44.16155" lon="3.5505">
        <ele>1250</ele>
        <time>2017-03-02T07:34:46Z</time>
      </trkpt>
      <trkpt lat="44.16177" lon="3.55046">
        <ele>1246</ele>
        <time>2017-03-02T07:36:46Z</time>
      </trkpt>
      <trkpt lat="44.1618" lon="3.55044">
        <ele>1246</ele>
        <time>2017-03-02T07:38:46Z</time>
      </trkpt>
      <trkpt lat="44.16186" lon="3.55045">
        <ele>1245</ele>
        <time>2017-03-02T07:40:46Z</time>
      </trkpt>
      <trkpt lat="44.16194" lon="3.55041">
        <ele>1244</ele>
        <time>2017-03-02T07:42:46Z</time>
      </trkpt>
      <trkpt lat="44.16201" lon="3.55036">
        <ele>1242</ele>
        <time>2017-03-02T07:44:46Z</time>
      </trkpt>
      <trkpt lat="44.16207" lon="3.55034">
        <ele>1242</ele>
        <time>2017-03-02T07:46:46Z</time>
      </trkpt>
      <trkpt lat="44.16211" lon="3.55035">
        <ele>1241</ele>
        <time>2017-03-02T07:48:46Z</time>
      </trkpt>
      <trkpt lat="44.16228" lon="3.55027">
        <ele>1239</ele>
        <time>2017-03-02T07:50:46Z</time>
      </trkpt>
      <trkpt lat="44.16243" lon="3.55022">
        <ele>1237</ele>
        <time>2017-03-02T07:52:46Z</time>
      </trkpt>
      <trkpt lat="44.1625" lon="3.5502">
        <ele>1237</ele>
        <time>2017-03-02T07:54:46Z</time>
      </trkpt>
      <trkpt lat="44.16256" lon="3.55019">
        <ele>1235</ele>
        <time>2017-03-02T07:56:46Z</time>
      </trkpt>
      <trkpt lat="44.16261" lon="3.55016">
        <ele>1234</ele>
        <time>2017-03-02T07:58:46Z</time>
      </trkpt>
      <trkpt lat="44.16285" lon="3.54993">
        <ele>1229</ele>
        <time>2017-03-02T08:00:46Z</time>
      </trkpt>
      <trkpt lat="44.1629" lon="3.54988">
        <ele>1228</ele>
        <time>2017-03-02T08:02:46Z</time>
      </trkpt>
      <trkpt lat="44.16301" lon="3.54969">
        <ele>1224</ele>
        <time>2017-03-02T08:04:46Z</time>
      </trkpt>
      <trkpt lat="44.16312" lon="3.54957">
        <ele>1221</ele>
        <time>2017-03-02T08:06:46Z</time>
      </trkpt>
      <trkpt lat="44.16316" lon="3.54954">
        <ele>1221</ele>
        <time>2017-03-02T08:08:46Z</time>
      </trkpt>
      <trkpt lat="44.16333" lon="3.54953">
        <ele>1218</ele>
        <time>2017-03-02T08:10:46Z</time>
      </trkpt>
      <trkpt lat="44.1634" lon="3.54951">
        <ele>1217</ele>
        <time>2017-03-02T08:12:46Z</time>
      </trkpt>
      <trkpt lat="44.16344" lon="3.54951">
        <ele>1216</ele>
        <time>2017-03-02T08:14:46Z</time>
      </trkpt>
      <trkpt lat="44.16347" lon="3.54952">
        <ele>1216</ele>
        <time>2017-03-02T08:16:46Z</time>
      </trkpt>
      <trkpt lat="44.16355" lon="3.54954">
        <ele>1215</ele>
        <time>2017-03-02T08:18:46Z</time>
      </trkpt>
      <trkpt lat="44.16364" lon="3.54953">
        <ele>1213</ele>
        <time>2017-03-02T08:20:46Z</time>
      </trkpt>
      <trkpt lat="44.16374" lon="3.5495">
        <ele>1211</ele>
        <time>2017-03-02T08:22:46Z</time>
      </trkpt>
      <trkpt lat="44.16382" lon="3.54949">
        <ele>1210</ele>
        <time>2017-03-02T08:24:46Z</time>
      </trkpt>
      <trkpt lat="44.16399" lon="3.54952">
        <ele>1207</ele>
        <time>2017-03-02T08:26:46Z</time>
      </trkpt>
      <trkpt lat="44.16407" lon="3.5495">
        <ele>1206</ele>
        <time>2017-03-02T08:28:46Z</time>
      </trkpt>
      <trkpt lat="44.16421" lon="3.54944">
        <ele>1204</ele>
        <time>2017-03-02T08:30:46Z</time>
      </trkpt>
      <trkpt lat="44.16428" lon="3.54946">
        <ele>1203</ele>
        <time>2017-03-02T08:32:46Z</time>
      </trkpt>
      <trkpt lat="44.16434" lon="3.54946">
        <ele>1203</ele>
        <time>2017-03-02T08:34:46Z</time>
      </trkpt>
      <trkpt lat="44.16437" lon="3.54954">
        <ele>1203</ele>
        <time>2017-03-02T08:36:46Z</time>
      </trkpt>
      <trkpt lat="44.16447" lon="3.54976">
        <ele>1202</ele>
        <time>2017-03-02T08:38:46Z</time>
      </trkpt>
      <trkpt lat="44.16449" lon="3.54973">
        <ele>1202</ele>
        <time>2017-03-02T08:40:46Z</time>
      </trkpt>
      <trkpt lat="44.16454" lon="3.54961">
        <ele>1202</ele>
        <time>2017-03-02T08:42:46Z</time>
      </trkpt>
      <trkpt lat="44.16455" lon="3.54957">
        <ele>1201</ele>
        <time>2017-03-02T08:44:46Z</time>
      </trkpt>
      <trkpt lat="44.16458" lon="3.54947">
        <ele>1201</ele>
        <time>2017-03-02T08:46:46Z</time>
      </trkpt>
      <trkpt lat="44.16462" lon="3.54941">
        <ele>1201</ele>
        <time>2017-03-02T08:48:46Z</time>
      </trkpt>
      <trkpt lat="44.16489" lon="3.54907">
        <ele>1199</ele>
        <time>2017-03-02T08:50:46Z</time>
      </trkpt>
      <trkpt lat="44.16506" lon="3.54888">
        <ele>1196</ele>
        <time>2017-03-02T08:52:46Z</time>
      </trkpt>
      <trkpt lat="44.16539" lon="3.54859">
        <ele>1194</ele>
        <time>2017-03-02T08:54:46Z</time>
      </trkpt>
      <trkpt lat="44.16544" lon="3.54853">
        <ele>1194</ele>
        <time>2017-03-02T08:56:46Z</time>
      </trkpt>
      <trkpt lat="44.16554" lon="3.54838">
        <ele>1194</ele>
        <time>2017-03-02T08:58:46Z</time>
      </trkpt>
      <trkpt lat="44.1657" lon="3.54814">
        <ele>1193</ele>
        <time>2017-03-02T09:00:46Z</time>
      </trkpt>
      <trkpt lat="44.16582" lon="3.54803">
        <ele>1193</ele>
        <time>2017-03-02T09:02:46Z</time>
      </trkpt>
      <trkpt lat="44.16595" lon="3.54793">
        <ele>1192</ele>
        <time>2017-03-02T09:04:46Z</time>
      </trkpt>
      <trkpt lat="44.16597" lon="3.54784">
        <ele>1191</ele>
        <time>2017-03-02T09:06:46Z</time>
      </trkpt>
      <trkpt lat="44.16602" lon="3.54769">
        <ele>1191</ele>
        <time>2017-03-02T09:08:46Z</time>
      </trkpt>
      <trkpt lat="44.1661" lon="3.54756">
        <ele>1191</ele>
        <time>2017-03-02T09:10:46Z</time>
      </trkpt>
      <trkpt lat="44.16624" lon="3.54741">
        <ele>1191</ele>
        <time>2017-03-02T09:12:46Z</time>
      </trkpt>
      <trkpt lat="44.16637" lon="3.54733">
        <ele>1192</ele>
        <time>2017-03-02T09:14:46Z</time>
      </trkpt>
      <trkpt lat="44.16653" lon="3.54729">
        <ele>1193</ele>
        <time>2017-03-02T09:16:46Z</time>
      </trkpt>
      <trkpt lat="44.16673" lon="3.54725">
        <ele>1194</ele>
        <time>2017-03-02T09:18:46Z</time>
      </trkpt>
      <trkpt lat="44.16695" lon="3.54721">
        <ele>1193</ele>
        <time>2017-03-02T09:20:46Z</time>
      </trkpt>
      <trkpt lat="44.1671" lon="3.54716">
        <ele>1192</ele>
        <time>2017-03-02T09:22:46Z</time>
      </trkpt>
      <trkpt lat="44.16723" lon="3.54709">
        <ele>1192</ele>
        <time>2017-03-02T09:24:46Z</time>
      </trkpt>
      <trkpt lat="44.16742" lon="3.54695">
        <ele>1193</ele>
        <time>2017-03-02T09:26:46Z</time>
      </trkpt>
      <trkpt lat="44.16756" lon="3.54683">
        <ele>1193</ele>
        <time>2017-03-02T09:28:46Z</time>
      </trkpt>
      <trkpt lat="44.16767" lon="3.54671">
        <ele>1192</ele>
        <time>2017-03-02T09:30:46Z</time>
      </trkpt>
      <trkpt lat="44.16775" lon="3.54657">
        <ele>1192</ele>
        <time>2017-03-02T09:32:46Z</time>
      </trkpt>
      <trkpt lat="44.16793" lon="3.54617">
        <ele>1192</ele>
        <time>2017-03-02T09:34:46Z</time>
      </trkpt>
      <trkpt lat="44.168" lon="3.54601">
        <ele>1193</ele>
        <time>2017-03-02T09:36:46Z</time>
      </trkpt>
      <trkpt lat="44.1681" lon="3.54587">
        <ele>1195</ele>
        <time>2017-03-02T09:38:46Z</time>
      </trkpt>
      <trkpt lat="44.16823" lon="3.54574">
        <ele>1196</ele>
        <time>2017-03-02T09:40:46Z</time>
      </trkpt>
      <trkpt lat="44.16839" lon="3.5456">
        <ele>1198</ele>
        <time>2017-03-02T09:42:46Z</time>
      </trkpt>
      <trkpt lat="44.16856" lon="3.54551">
        <ele>1199</ele>
        <time>2017-03-02T09:44:46Z</time>
      </trkpt>
      <trkpt lat="44.16886" lon="3.5454">
        <ele>1201</ele>
        <time>2017-03-02T09:46:46Z</time>
      </trkpt>
      <trkpt lat="44.16915" lon="3.5453">
        <ele>1203</ele>
        <time>2017-03-02T09:48:46Z</time>
      </trkpt>
      <trkpt lat="44.16931" lon="3.54522">
        <ele>1202</ele>
        <time>2017-03-02T09:50:46Z</time>
      </trkpt>
      <trkpt lat="44.16949" lon="3.5451">
        <ele>1203</ele>
        <time>2017-03-02T09:52:46Z</time>
      </trkpt>
      <trkpt lat="44.16971" lon="3.54494">
        <ele>1204</ele>
        <time>2017-03-02T09:54:46Z</time>
      </trkpt>
      <trkpt lat="44.16995" lon="3.54475">
        <ele>1204</ele>
        <time>2017-03-02T09:56:46Z</time>
      </trkpt>
      <trkpt lat="44.17011" lon="3.54459">
        <ele>1205</ele>
        <time>2017-03-02T09:58:46Z</time>
      </trkpt>
      <trkpt lat="44.17034" lon="3.54435">
        <ele>1206</ele>
        <time>2017-03-02T10:00:46Z</time>
      </trkpt>
      <trkpt lat="44.17071" lon="3.54399">
        <ele>1208</ele>
        <time>2017-03-02T10:02:46Z</time>
      </trkpt>
      <trkpt lat="44.17089" lon="3.54383">
        <ele>1208</ele>
        <time>2017-03-02T10:04:46Z</time>
      </trkpt>
      <trkpt lat="44.17097" lon="3.54375">
        <ele>1208</ele>
        <time>2017-03-02T10:06:46Z</time>
      </trkpt>
      <trkpt lat="44.17139" lon="3.54338">
        <ele>1208</ele>
        <time>2017-03-02T10:08:46Z</time>
      </trkpt>
      <trkpt lat="44.17165" lon="3.54316">
        <ele>1207</ele>
        <time>2017-03-02T10:10:46Z</time>
      </trkpt>
      <trkpt lat="44.17228" lon="3.54259">
        <ele>1210</ele>
        <time>2017-03-02T10:12:46Z</time>
      </trkpt>
      <trkpt lat="44.17253" lon="3.54236">
        <ele>1211</ele>
        <time>2017-03-02T10:14:46Z</time>
      </trkpt>
      <trkpt lat="44.17269" lon="3.54224">
        <ele>1212</ele>
        <time>2017-03-02T10:16:46Z</time>
      </trkpt>
      <trkpt lat="44.17299" lon="3.54204">
        <ele>1213</ele>
        <time>2017-03-02T10:18:46Z</time>
      </trkpt>
      <trkpt lat="44.17358" lon="3.5416">
        <ele>1217</ele>
        <time>2017-03-02T10:20:46Z</time>
      </trkpt>
      <trkpt lat="44.17417" lon="3.54121">
        <ele>1217</ele>
        <time>2017-03-02T10:22:46Z</time>
      </trkpt>
      <trkpt lat="44.17423" lon="3.54116">
        <ele>1218</ele>
        <time>2017-03-02T10:24:46Z</time>
      </trkpt>
      <trkpt lat="44.17428" lon="3.54119">
        <ele>1219</ele>
        <time>2017-03-02T10:26:46Z</time>
      </trkpt>
      <trkpt lat="44.17438" lon="3.54121">
        <ele>1220</ele>
        <time>2017-03-02T10:28:46Z</time>
      </trkpt>
      <trkpt lat="44.17454" lon="3.54122">
        <ele>1223</ele>
        <time>2017-03-02T10:30:46Z</time>
      </trkpt>
      <trkpt lat="44.17464" lon="3.54122">
        <ele>1225</ele>
        <time>2017-03-02T10:32:46Z</time>
      </trkpt>
      <trkpt lat="44.17479" lon="3.54113">
        <ele>1226</ele>
        <time>2017-03-02T10:34:46Z</time>
      </trkpt>
      <trkpt lat="44.17488" lon="3.54106">
        <ele>1227</ele>
        <time>2017-03-02T10:36:46Z</time>
      </trkpt>
      <trkpt lat="44.17497" lon="3.54103">
        <ele>1228</ele>
        <time>2017-03-02T10:38:46Z</time>
      </trkpt>
      <trkpt lat="44.17505" lon="3.54101">
        <ele>1230</ele>
        <time>2017-03-02T10:40:46Z</time>
      </trkpt>
      <trkpt lat="44.17513" lon="3.54103">
        <ele>1231</ele>
        <time>2017-03-02T10:42:46Z</time>
      </trkpt>
      <trkpt lat="44.17521" lon="3.54107">
        <ele>1233</ele>
        <time>2017-03-02T10:44:46Z</time>
      </trkpt>
      <trkpt lat="44.17528" lon="3.54108">
        <ele>1235</ele>
        <time>2017-03-02T10:46:46Z</time>
      </trkpt>
      <trkpt lat="44.17534" lon="3.54108">
        <ele>1236</ele>
        <time>2017-03-02T10:48:46Z</time>
      </trkpt>
      <trkpt lat="44.17539" lon="3.54104">
        <ele>1237</ele>
        <time>2017-03-02T10:50:46Z</time>
      </trkpt>
      <trkpt lat="44.17545" lon="3.54097">
        <ele>1237</ele>
        <time>2017-03-02T10:52:46Z</time>
      </trkpt>
      <trkpt lat="44.17558" lon="3.54085">
        <ele>1238</ele>
        <time>2017-03-02T10:54:46Z</time>
      </trkpt>
      <trkpt lat="44.17579" lon="3.54074">
        <ele>1242</ele>
        <time>2017-03-02T10:56:46Z</time>
      </trkpt>
      <trkpt lat="44.17586" lon="3.54066">
        <ele>1243</ele>
        <time>2017-03-02T10:58:46Z</time>
      </trkpt>
      <trkpt lat="44.17596" lon="3.54052">
        <ele>1245</ele>
        <time>2017-03-02T11:00:46Z</time>
      </trkpt>
      <trkpt lat="44.17602" lon="3.54046">
        <ele>1246</ele>
        <time>2017-03-02T11:02:46Z</time>
      </trkpt>
      <trkpt lat="44.17608" lon="3.54036">
        <ele>1247</ele>
        <time>2017-03-02T11:04:46Z</time>
      </trkpt>
      <trkpt lat="44.1761" lon="3.54029">
        <ele>1247</ele>
        <time>2017-03-02T11:06:46Z</time>
      </trkpt>
      <trkpt lat="44.17611" lon="3.5401">
        <ele>1246</ele>
        <time>2017-03-02T11:08:46Z</time>
      </trkpt>
      <trkpt lat="44.17617" lon="3.53978">
        <ele>1247</ele>
        <time>2017-03-02T11:10:46Z</time>
      </trkpt>
      <trkpt lat="44.17622" lon="3.53938">
        <ele>1247</ele>
        <time>2017-03-02T11:12:46Z</time>
      </trkpt>
      <trkpt lat="44.17644" lon="3.53882">
        <ele>1250</ele>
        <time>2017-03-02T11:14:46Z</time>
      </trkpt>
      <trkpt lat="44.17658" lon="3.53855">
        <ele>1252</ele>
        <time>2017-03-02T11:16:46Z</time>
      </trkpt>
      <trkpt lat="44.17671" lon="3.53837">
        <ele>1254</ele>
        <time>2017-03-02T11:18:46Z</time>
      </trkpt>
      <trkpt lat="44.17676" lon="3.53828">
        <ele>1255</ele>
        <time>2017-03-02T11:20:46Z</time>
      </trkpt>
      <trkpt lat="44.17681" lon="3.53816">
        <ele>1254</ele>
        <time>2017-03-02T11:22:46Z</time>
      </trkpt>
      <trkpt lat="44.17687" lon="3.53803">
        <ele>1254</ele>
        <time>2017-03-02T11:24:46Z</time>
      </trkpt>
      <trkpt lat="44.17701" lon="3.53779">
        <ele>1255</ele>
        <time>2017-03-02T11:26:46Z</time>
      </trkpt>
      <trkpt lat="44.1771" lon="3.53767">
        <ele>1255</ele>
        <time>2017-03-02T11:28:46Z</time>
      </trkpt>
      <trkpt lat="44.17721" lon="3.53746">
        <ele>1256</ele>
        <time>2017-03-02T11:30:46Z</time>
      </trkpt>
      <trkpt lat="44.17731" lon="3.53724">
        <ele>1256</ele>
        <time>2017-03-02T11:32:46Z</time>
      </trkpt>
      <trkpt lat="44.17738" lon="3.53706">
        <ele>1255</ele>
        <time>2017-03-02T11:34:46Z</time>
      </trkpt>
      <trkpt lat="44.17748" lon="3.53689">
        <ele>1257</ele>
        <time>2017-03-02T11:36:46Z</time>
      </trkpt>
      <trkpt lat="44.17756" lon="3.53674">
        <ele>1258</ele>
        <time>2017-03-02T11:38:46Z</time>
      </trkpt>
      <trkpt lat="44.17765" lon="3.53657">
        <ele>1260</ele>
        <time>2017-03-02T11:40:46Z</time>
      </trkpt>
      <trkpt lat="44.17774" lon="3.53638">
        <ele>1263</ele>
        <time>2017-03-02T11:42:46Z</time>
      </trkpt>
      <trkpt lat="44.17779" lon="3.53621">
        <ele>1264</ele>
        <time>2017-03-02T11:44:46Z</time>
      </trkpt>
      <trkpt lat="44.17782" lon="3.53607">
        <ele>1264</ele>
        <time>2017-03-02T11:46:46Z</time>
      </trkpt>
      <trkpt lat="44.17782" lon="3.53597">
        <ele>1264</ele>
        <time>2017-03-02T11:48:46Z</time>
      </trkpt>
      <trkpt lat="44.17782" lon="3.53576">
        <ele>1263</ele>
        <time>2017-03-02T11:50:46Z</time>
      </trkpt>
      <trkpt lat="44.17778" lon="3.53554">
        <ele>1262</ele>
        <time>2017-03-02T11:52:46Z</time>
      </trkpt>
      <trkpt lat="44.17777" lon="3.53539">
        <ele>1262</ele>
        <time>2017-03-02T11:54:46Z</time>
      </trkpt>
      <trkpt lat="44.17778" lon="3.53522">
        <ele>1263</ele>
        <time>2017-03-02T11:56:46Z</time>
      </trkpt>
      <trkpt lat="44.17782" lon="3.53501">
        <ele>1264</ele>
        <time>2017-03-02T11:58:46Z</time>
      </trkpt>
      <trkpt lat="44.17791" lon="3.53472">
        <ele>1264</ele>
        <time>2017-03-02T12:00:46Z</time>
      </trkpt>
      <trkpt lat="44.17803" lon="3.53447">
        <ele>1264</ele>
        <time>2017-03-02T12:02:46Z</time>
      </trkpt>
      <trkpt lat="44.1782" lon="3.53416">
        <ele>1265</ele>
        <time>2017-03-02T12:04:46Z</time>
      </trkpt>
      <trkpt lat="44.17841" lon="3.53385">
        <ele>1263</ele>
        <time>2017-03-02T12:06:46Z</time>
      </trkpt>
      <trkpt lat="44.17859" lon="3.53364">
        <ele>1262</ele>
        <time>2017-03-02T12:08:46Z</time>
      </trkpt>
      <trkpt lat="44.17875" lon="3.5335">
        <ele>1262</ele>
        <time>2017-03-02T12:10:46Z</time>
      </trkpt>
      <trkpt lat="44.17879" lon="3.53347">
        <ele>1262</ele>
        <time>2017-03-02T12:12:46Z</time>
      </trkpt>
      <trkpt lat="44.17912" lon="3.53324">
        <ele>1263</ele>
        <time>2017-03-02T12:14:46Z</time>
      </trkpt>
      <trkpt lat="44.17926" lon="3.53309">
        <ele>1263</ele>
        <time>2017-03-02T12:16:46Z</time>
      </trkpt>
      <trkpt lat="44.17981" lon="3.53252">
        <ele>1263</ele>
        <time>2017-03-02T12:18:46Z</time>
      </trkpt>
      <trkpt lat="44.18008" lon="3.53231">
        <ele>1264</ele>
        <time>2017-03-02T12:20:46Z</time>
      </trkpt>
      <trkpt lat="44.1803" lon="3.53209">
        <ele>1263</ele>
        <time>2017-03-02T12:22:46Z</time>
      </trkpt>
      <trkpt lat="44.18054" lon="3.53178">
        <ele>1259</ele>
        <time>2017-03-02T12:24:46Z</time>
      </trkpt>
      <trkpt lat="44.1808" lon="3.53153">
        <ele>1255</ele>
        <time>2017-03-02T12:26:46Z</time>
      </trkpt>
      <trkpt lat="44.18102" lon="3.53134">
        <ele>1253</ele>
        <time>2017-03-02T12:28:46Z</time>
      </trkpt>
      <trkpt lat="44.18109" lon="3.53125">
        <ele>1252</ele>
        <time>2017-03-02T12:30:46Z</time>
      </trkpt>
      <trkpt lat="44.18115" lon="3.53113">
        <ele>1250</ele>
        <time>2017-03-02T12:32:46Z</time>
      </trkpt>
      <trkpt lat="44.18123" lon="3.53096">
        <ele>1247</ele>
        <time>2017-03-02T12:34:46Z</time>
      </trkpt>
      <trkpt lat="44.18129" lon="3.53082">
        <ele>1245</ele>
        <time>2017-03-02T12:36:46Z</time>
      </trkpt>
      <trkpt lat="44.18151" lon="3.53051">
        <ele>1243</ele>
        <time>2017-03-02T12:38:46Z</time>
      </trkpt>
      <trkpt lat="44.18173" lon="3.53021">
        <ele>1242</ele>
        <time>2017-03-02T12:40:46Z</time>
      </trkpt>
      <trkpt lat="44.18196" lon="3.52985">
        <ele>1238</ele>
        <time>2017-03-02T12:42:46Z</time>
      </trkpt>
      <trkpt lat="44.18214" lon="3.52955">
        <ele>1235</ele>
        <time>2017-03-02T12:44:46Z</time>
      </trkpt>
      <trkpt lat="44.18231" lon="3.52931">
        <ele>1234</ele>
        <time>2017-03-02T12:46:46Z</time>
      </trkpt>
      <trkpt lat="44.18249" lon="3.529">
        <ele>1234</ele>
        <time>2017-03-02T12:48:46Z</time>
      </trkpt>
      <trkpt lat="44.18265" lon="3.52869">
        <ele>1230</ele>
        <time>2017-03-02T12:50:46Z</time>
      </trkpt>
      <trkpt lat="44.18271" lon="3.52863">
        <ele>1229</ele>
        <time>2017-03-02T12:52:46Z</time>
      </trkpt>
      <trkpt lat="44.18275" lon="3.52861">
        <ele>1229</ele>
        <time>2017-03-02T12:54:46Z</time>
      </trkpt>
      <trkpt lat="44.18275" lon="3.52853">
        <ele>1228</ele>
        <time>2017-03-02T12:56:46Z</time>
      </trkpt>
      <trkpt lat="44.18276" lon="3.52846">
        <ele>1227</ele>
        <time>2017-03-02T12:58:46Z</time>
      </trkpt>
      <trkpt lat="44.18281" lon="3.52833">
        <ele>1226</ele>
        <time>2017-03-02T13:00:46Z</time>
      </trkpt>
      <trkpt lat="44.18291" lon="3.52811">
        <ele>1224</ele>
        <time>2017-03-02T13:02:46Z</time>
      </trkpt>
      <trkpt lat="44.18309" lon="3.52781">
        <ele>1223</ele>
        <time>2017-03-02T13:04:46Z</time>
      </trkpt>
      <trkpt lat="44.18324" lon="3.52751">
        <ele>1222</ele>
        <time>2017-03-02T13:06:46Z</time>
      </trkpt>
      <trkpt lat="44.18341" lon="3.52717">
        <ele>1221</ele>
        <time>2017-03-02T13:08:46Z</time>
      </trkpt>
      <trkpt lat="44.1836" lon="3.52682">
        <ele>1218</ele>
        <time>2017-03-02T13:10:46Z</time>
      </trkpt>
      <trkpt lat="44.1838" lon="3.52641">
        <ele>1216</ele>
        <time>2017-03-02T13:12:46Z</time>
      </trkpt>
      <trkpt lat="44.18398" lon="3.52602">
        <ele>1215</ele>
        <time>2017-03-02T13:14:46Z</time>
      </trkpt>
      <trkpt lat="44.18409" lon="3.52583">
        <ele>1216</ele>
        <time>2017-03-02T13:16:46Z</time>
      </trkpt>
      <trkpt lat="44.18427" lon="3.52561">
        <ele>1213</ele>
        <time>2017-03-02T13:18:46Z</time>
      </trkpt>
      <trkpt lat="44.18451" lon="3.52515">
        <ele>1207</ele>
        <time>2017-03-02T13:20:46Z</time>
      </trkpt>
      <trkpt lat="44.18466" lon="3.52488">
        <ele>1205</ele>
        <time>2017-03-02T13:22:46Z</time>
      </trkpt>
      <trkpt lat="44.18475" lon="3.52474">
        <ele>1204</ele>
        <time>2017-03-02T13:24:46Z</time>
      </trkpt>
      <trkpt lat="44.18481" lon="3.52469">
        <ele>1203</ele>
        <time>2017-03-02T13:26:46Z</time>
      </trkpt>
      <trkpt lat="44.18489" lon="3.52464">
        <ele>1204</ele>
        <time>2017-03-02T13:28:46Z</time>
      </trkpt>
      <trkpt lat="44.18505" lon="3.52454">
        <ele>1203</ele>
        <time>2017-03-02T13:30:46Z</time>
      </trkpt>
      <trkpt lat="44.18528" lon="3.52443">
        <ele>1199</ele>
        <time>2017-03-02T13:32:46Z</time>
      </trkpt>
      <trkpt lat="44.1855" lon="3.52437">
        <ele>1196</ele>
        <time>2017-03-02T13:34:46Z</time>
      </trkpt>
      <trkpt lat="44.18582" lon="3.52427">
        <ele>1193</ele>
        <time>2017-03-02T13:36:46Z</time>
      </trkpt>
      <trkpt lat="44.18608" lon="3.52417">
        <ele>1189</ele>
        <time>2017-03-02T13:38:46Z</time>
      </trkpt>
      <trkpt lat="44.18638" lon="3.52405">
        <ele>1183</ele>
        <time>2017-03-02T13:40:46Z</time>
      </trkpt>
      <trkpt lat="44.18671" lon="3.52393">
        <ele>1177</ele>
        <time>2017-03-02T13:42:46Z</time>
      </trkpt>
      <trkpt lat="44.18704" lon="3.5238">
        <ele>1170</ele>
        <time>2017-03-02T13:44:46Z</time>
      </trkpt>
      <trkpt lat="44.18765" lon="3.52359">
        <ele>1157</ele>
        <time>2017-03-02T13:46:46Z</time>
      </trkpt>
      <trkpt lat="44.18794" lon="3.5235">
        <ele>1152</ele>
        <time>2017-03-02T13:48:46Z</time>
      </trkpt>
      <trkpt lat="44.18828" lon="3.52338">
        <ele>1146</ele>
        <time>2017-03-02T13:50:46Z</time>
      </trkpt>
      <trkpt lat="44.18889" lon="3.52312">
        <ele>1133</ele>
        <time>2017-03-02T13:52:46Z</time>
      </trkpt>
      <trkpt lat="44.18928" lon="3.52298">
        <ele>1124</ele>
        <time>2017-03-02T13:54:46Z</time>
      </trkpt>
      <trkpt lat="44.18947" lon="3.52288">
        <ele>1120</ele>
        <time>2017-03-02T13:56:46Z</time>
      </trkpt>
      <trkpt lat="44.18965" lon="3.52275">
        <ele>1117</ele>
        <time>2017-03-02T13:58:46Z</time>
      </trkpt>
      <trkpt lat="44.18984" lon="3.5226">
        <ele>1113</ele>
        <time>2017-03-02T14:00:46Z</time>
      </trkpt>
      <trkpt lat="44.19001" lon="3.52241">
        <ele>1110</ele>
        <time>2017-03-02T14:02:46Z</time>
      </trkpt>
      <trkpt lat="44.19039" lon="3.52211">
        <ele>1098</ele>
        <time>2017-03-02T14:04:46Z</time>
      </trkpt>
      <trkpt lat="44.19056" lon="3.52193">
        <ele>1094</ele>
        <time>2017-03-02T14:06:46Z</time>
      </trkpt>
      <trkpt lat="44.19073" lon="3.52173">
        <ele>1090</ele>
        <time>2017-03-02T14:08:46Z</time>
      </trkpt>
      <trkpt lat="44.19088" lon="3.52159">
        <ele>1086</ele>
        <time>2017-03-02T14:10:46Z</time>
      </trkpt>
      <trkpt lat="44.19125" lon="3.52132">
        <ele>1077</ele>
        <time>2017-03-02T14:12:46Z</time>
      </trkpt>
      <trkpt lat="44.19145" lon="3.52117">
        <ele>1072</ele>
        <time>2017-03-02T14:14:46Z</time>
      </trkpt>
      <trkpt lat="44.19154" lon="3.52111">
        <ele>1070</ele>
        <time>2017-03-02T14:16:46Z</time>
      </trkpt>
      <trkpt lat="44.19165" lon="3.52109">
        <ele>1068</ele>
        <time>2017-03-02T14:18:46Z</time>
      </trkpt>
      <trkpt lat="44.19177" lon="3.52108">
        <ele>1066</ele>
        <time>2017-03-02T14:20:46Z</time>
      </trkpt>
      <trkpt lat="44.19186" lon="3.52106">
        <ele>1064</ele>
        <time>2017-03-02T14:22:46Z</time>
      </trkpt>
      <trkpt lat="44.19195" lon="3.52099">
        <ele>1062</ele>
        <time>2017-03-02T14:24:46Z</time>
      </trkpt>
      <trkpt lat="44.19204" lon="3.52089">
        <ele>1060</ele>
        <time>2017-03-02T14:26:46Z</time>
      </trkpt>
      <trkpt lat="44.19219" lon="3.52074">
        <ele>1057</ele>
        <time>2017-03-02T14:28:46Z</time>
      </trkpt>
      <trkpt lat="44.19229" lon="3.52066">
        <ele>1054</ele>
        <time>2017-03-02T14:30:46Z</time>
      </trkpt>
      <trkpt lat="44.19268" lon="3.52052">
        <ele>1047</ele>
        <time>2017-03-02T14:32:46Z</time>
      </trkpt>
      <trkpt lat="44.19288" lon="3.52042">
        <ele>1043</ele>
        <time>2017-03-02T14:34:46Z</time>
      </trkpt>
      <trkpt lat="44.19305" lon="3.52032">
        <ele>1040</ele>
        <time>2017-03-02T14:36:46Z</time>
      </trkpt>
      <trkpt lat="44.1931" lon="3.52031">
        <ele>1040</ele>
        <time>2017-03-02T14:38:46Z</time>
      </trkpt>
      <trkpt lat="44.19314" lon="3.52031">
        <ele>1039</ele>
        <time>2017-03-02T14:40:46Z</time>
      </trkpt>
      <trkpt lat="44.19319" lon="3.52034">
        <ele>1038</ele>
        <time>2017-03-02T14:42:46Z</time>
      </trkpt>
      <trkpt lat="44.19332" lon="3.52022">
        <ele>1037</ele>
        <time>2017-03-02T14:44:46Z</time>
      </trkpt>
      <trkpt lat="44.19335" lon="3.52018">
        <ele>1037</ele>
        <time>2017-03-02T14:46:46Z</time>
      </trkpt>
      <trkpt lat="44.19336" lon="3.52015">
        <ele>1037</ele>
        <time>2017-03-02T14:48:46Z</time>
      </trkpt>
      <trkpt lat="44.19358" lon="3.52015">
        <ele>1036</ele>
        <time>2017-03-02T14:50:46Z</time>
      </trkpt>
      <trkpt lat="44.19389" lon="3.52017">
        <ele>1035</ele>
        <time>2017-03-02T14:52:46Z</time>
      </trkpt>
      <trkpt lat="44.19443" lon="3.52016">
        <ele>1033</ele>
        <time>2017-03-02T14:54:46Z</time>
      </trkpt>
      <trkpt lat="44.19453" lon="3.52015">
        <ele>1033</ele>
        <time>2017-03-02T14:56:46Z</time>
      </trkpt>
      <trkpt lat="44.19468" lon="3.52013">
        <ele>1033</ele>
        <time>2017-03-02T14:58:46Z</time>
      </trkpt>
      <trkpt lat="44.19495" lon="3.52006">
        <ele>1034</ele>
        <time>2017-03-02T15:00:46Z</time>
      </trkpt>
      <trkpt lat="44.1952" lon="3.51999">
        <ele>1038</ele>
        <time>2017-03-02T15:02:46Z</time>
      </trkpt>
      <trkpt lat="44.19541" lon="3.51992">
        <ele>1040</ele>
        <time>2017-03-02T15:04:46Z</time>
      </trkpt>
      <trkpt lat="44.19564" lon="3.51982">
        <ele>1042</ele>
        <time>2017-03-02T15:06:46Z</time>
      </trkpt>
      <trkpt lat="44.19579" lon="3.51974">
        <ele>1042</ele>
        <time>2017-03-02T15:08:46Z</time>
      </trkpt>
      <trkpt lat="44.19589" lon="3.51969">
        <ele>1043</ele>
        <time>2017-03-02T15:10:46Z</time>
      </trkpt>
      <trkpt lat="44.1961" lon="3.5195">
        <ele>1046</ele>
        <time>2017-03-02T15:12:46Z</time>
      </trkpt>
      <trkpt lat="44.19639" lon="3.51919">
        <ele>1049</ele>
        <time>2017-03-02T15:14:46Z</time>
      </trkpt>
      <trkpt lat="44.19652" lon="3.51904">
        <ele>1050</ele>
        <time>2017-03-02T15:16:46Z</time>
      </trkpt>
      <trkpt lat="44.19665" lon="3.51884">
        <ele>1050</ele>
        <time>2017-03-02T15:18:46Z</time>
      </trkpt>
      <trkpt lat="44.19673" lon="3.51868">
        <ele>1049</ele>
        <time>2017-03-02T15:20:46Z</time>
      </trkpt>
      <trkpt lat="44.19681" lon="3.51849">
        <ele>1047</ele>
        <time>2017-03-02T15:22:46Z</time>
      </trkpt>
      <trkpt lat="44.19691" lon="3.51818">
        <ele>1046</ele>
        <time>2017-03-02T15:24:46Z</time>
      </trkpt>
      <trkpt lat="44.19712" lon="3.51743">
        <ele>1046</ele>
        <time>2017-03-02T15:26:46Z</time>
      </trkpt>
      <trkpt lat="44.19716" lon="3.51733">
        <ele>1047</ele>
        <time>2017-03-02T15:28:46Z</time>
      </trkpt>
      <trkpt lat="44.19722" lon="3.51725">
        <ele>1049</ele>
        <time>2017-03-02T15:30:46Z</time>
      </trkpt>
      <trkpt lat="44.19731" lon="3.51716">
        <ele>1052</ele>
        <time>2017-03-02T15:32:46Z</time>
      </trkpt>
      <trkpt lat="44.19741" lon="3.51709">
        <ele>1055</ele>
        <time>2017-03-02T15:34:46Z</time>
      </trkpt>
      <trkpt lat="44.19762" lon="3.517">
        <ele>1059</ele>
        <time>2017-03-02T15:36:46Z</time>
      </trkpt>
      <trkpt lat="44.19794" lon="3.51687">
        <ele>1058</ele>
        <time>2017-03-02T15:38:46Z</time>
      </trkpt>
      <trkpt lat="44.19826" lon="3.51676">
        <ele>1057</ele>
        <time>2017-03-02T15:40:46Z</time>
      </trkpt>
      <trkpt lat="44.1986" lon="3.51661">
        <ele>1055</ele>
        <time>2017-03-02T15:42:46Z</time>
      </trkpt>
      <trkpt lat="44.19893" lon="3.51646">
        <ele>1052</ele>
        <time>2017-03-02T15:44:46Z</time>
      </trkpt>
      <trkpt lat="44.19925" lon="3.51632">
        <ele>1050</ele>
        <time>2017-03-02T15:46:46Z</time>
      </trkpt>
      <trkpt lat="44.1994" lon="3.51624">
        <ele>1049</ele>
        <time>2017-03-02T15:48:46Z</time>
      </trkpt>
      <trkpt lat="44.19956" lon="3.51613">
        <ele>1049</ele>
        <time>2017-03-02T15:50:46Z</time>
      </trkpt>
      <trkpt lat="44.19986" lon="3.51587">
        <ele>1048</ele>
        <time>2017-03-02T15:52:46Z</time>
      </trkpt>
      <trkpt lat="44.2002" lon="3.51553">
        <ele>1044</ele>
        <time>2017-03-02T15:54:46Z</time>
      </trkpt>
      <trkpt lat="44.20052" lon="3.5152">
        <ele>1043</ele>
        <time>2017-03-02T15:56:46Z</time>
      </trkpt>
      <trkpt lat="44.2009" lon="3.51478">
        <ele>1042</ele>
        <time>2017-03-02T15:58:46Z</time>
      </trkpt>
      <trkpt lat="44.20108" lon="3.5146">
        <ele>1039</ele>
        <time>2017-03-02T16:00:46Z</time>
      </trkpt>
      <trkpt lat="44.20118" lon="3.51453">
        <ele>1038</ele>
        <time>2017-03-02T16:02:46Z</time>
      </trkpt>
      <trkpt lat="44.20128" lon="3.5145">
        <ele>1038</ele>
        <time>2017-03-02T16:04:46Z</time>
      </trkpt>
      <trkpt lat="44.20141" lon="3.5145">
        <ele>1038</ele>
        <time>2017-03-02T16:06:46Z</time>
      </trkpt>
      <trkpt lat="44.2016" lon="3.51455">
        <ele>1039</ele>
        <time>2017-03-02T16:08:46Z</time>
      </trkpt>
      <trkpt lat="44.20189" lon="3.51466">
        <ele>1039</ele>
        <time>2017-03-02T16:10:46Z</time>
      </trkpt>
      <trkpt lat="44.20206" lon="3.51472">
        <ele>1039</ele>
        <time>2017-03-02T16:12:46Z</time>
      </trkpt>
      <trkpt lat="44.20223" lon="3.51476">
        <ele>1039</ele>
        <time>2017-03-02T16:14:46Z</time>
      </trkpt>
      <trkpt lat="44.20238" lon="3.51475">
        <ele>1038</ele>
        <time>2017-03-02T16:16:46Z</time>
      </trkpt>
      <trkpt lat="44.20254" lon="3.51471">
        <ele>1037</ele>
        <time>2017-03-02T16:18:46Z</time>
      </trkpt>
      <trkpt lat="44.20275" lon="3.51462">
        <ele>1035</ele>
        <time>2017-03-02T16:20:46Z</time>
      </trkpt>
      <trkpt lat="44.20292" lon="3.51456">
        <ele>1034</ele>
        <time>2017-03-02T16:22:46Z</time>
      </trkpt>
      <trkpt lat="44.20305" lon="3.51453">
        <ele>1034</ele>
        <time>2017-03-02T16:24:46Z</time>
      </trkpt>
      <trkpt lat="44.20317" lon="3.51453">
        <ele>1033</ele>
        <time>2017-03-02T16:26:46Z</time>
      </trkpt>
      <trkpt lat="44.20333" lon="3.51458">
        <ele>1033</ele>
        <time>2017-03-02T16:28:46Z</time>
      </trkpt>
      <trkpt lat="44.2035" lon="3.5147">
        <ele>1034</ele>
        <time>2017-03-02T16:30:46Z</time>
      </trkpt>
      <trkpt lat="44.20367" lon="3.51483">
        <ele>1034</ele>
        <time>2017-03-02T16:32:46Z</time>
      </trkpt>
      <trkpt lat="44.20383" lon="3.51492">
        <ele>1033</ele>
        <time>2017-03-02T16:34:46Z</time>
      </trkpt>
      <trkpt lat="44.20393" lon="3.51495">
        <ele>1032</ele>
        <time>2017-03-02T16:36:46Z</time>
      </trkpt>
      <trkpt lat="44.20403" lon="3.51495">
        <ele>1032</ele>
        <time>2017-03-02T16:38:46Z</time>
      </trkpt>
      <trkpt lat="44.20409" lon="3.51493">
        <ele>1031</ele>
        <time>2017-03-02T16:40:46Z</time>
      </trkpt>
      <trkpt lat="44.20412" lon="3.51493">
        <ele>1031</ele>
        <time>2017-03-02T16:42:46Z</time>
      </trkpt>
      <trkpt lat="44.20415" lon="3.51492">
        <ele>1031</ele>
        <time>2017-03-02T16:44:46Z</time>
      </trkpt>
      <trkpt lat="44.20425" lon="3.51482">
        <ele>1031</ele>
        <time>2017-03-02T16:46:46Z</time>
      </trkpt>
      <trkpt lat="44.20436" lon="3.51469">
        <ele>1031</ele>
        <time>2017-03-02T16:48:46Z</time>
      </trkpt>
      <trkpt lat="44.20443" lon="3.51457">
        <ele>1031</ele>
        <time>2017-03-02T16:50:46Z</time>
      </trkpt>
      <trkpt lat="44.20455" lon="3.51442">
        <ele>1032</ele>
        <time>2017-03-02T16:52:46Z</time>
      </trkpt>
      <trkpt lat="44.20468" lon="3.5143">
        <ele>1033</ele>
        <time>2017-03-02T16:54:46Z</time>
      </trkpt>
      <trkpt lat="44.20481" lon="3.51418">
        <ele>1035</ele>
        <time>2017-03-02T16:56:46Z</time>
      </trkpt>
      <trkpt lat="44.20489" lon="3.51406">
        <ele>1036</ele>
        <time>2017-03-02T16:58:46Z</time>
      </trkpt>
      <trkpt lat="44.20503" lon="3.51382">
        <ele>1037</ele>
        <time>2017-03-02T17:00:46Z</time>
      </trkpt>
      <trkpt lat="44.20515" lon="3.51353">
        <ele>1040</ele>
        <time>2017-03-02T17:02:46Z</time>
      </trkpt>
      <trkpt lat="44.20522" lon="3.51331">
        <ele>1042</ele>
        <time>2017-03-02T17:04:46Z</time>
      </trkpt>
      <trkpt lat="44.20527" lon="3.5131">
        <ele>1043</ele>
        <time>2017-03-02T17:06:46Z</time>
      </trkpt>
      <trkpt lat="44.20532" lon="3.5128">
        <ele>1044</ele>
        <time>2017-03-02T17:08:46Z</time>
      </trkpt>
      <trkpt lat="44.20539" lon="3.51249">
        <ele>1046</ele>
        <time>2017-03-02T17:10:46Z</time>
      </trkpt>
      <trkpt lat="44.20552" lon="3.51212">
        <ele>1047</ele>
        <time>2017-03-02T17:12:46Z</time>
      </trkpt>
      <trkpt lat="44.20572" lon="3.51153">
        <ele>1047</ele>
        <time>2017-03-02T17:14:46Z</time>
      </trkpt>
      <trkpt lat="44.20585" lon="3.51119">
        <ele>1047</ele>
        <time>2017-03-02T17:16:46Z</time>
      </trkpt>
      <trkpt lat="44.20597" lon="3.51096">
        <ele>1048</ele>
        <time>2017-03-02T17:18:46Z</time>
      </trkpt>
      <trkpt lat="44.20611" lon="3.51075">
        <ele>1049</ele>
        <time>2017-03-02T17:20:46Z</time>
      </trkpt>
      <trkpt lat="44.20628" lon="3.51056">
        <ele>1050</ele>
        <time>2017-03-02T17:22:46Z</time>
      </trkpt>
      <trkpt lat="44.20635" lon="3.51049">
        <ele>1051</ele>
        <time>2017-03-02T17:24:46Z</time>
      </trkpt>
      <trkpt lat="44.20644" lon="3.51044">
        <ele>1052</ele>
        <time>2017-03-02T17:26:46Z</time>
      </trkpt>
      <trkpt lat="44.20653" lon="3.51042">
        <ele>1054</ele>
        <time>2017-03-02T17:28:46Z</time>
      </trkpt>
      <trkpt lat="44.20669" lon="3.51039">
        <ele>1058</ele>
        <time>2017-03-02T17:30:46Z</time>
      </trkpt>
      <trkpt lat="44.20692" lon="3.51035">
        <ele>1060</ele>
        <time>2017-03-02T17:32:46Z</time>
      </trkpt>
      <trkpt lat="44.20718" lon="3.5103">
        <ele>1063</ele>
        <time>2017-03-02T17:34:46Z</time>
      </trkpt>
      <trkpt lat="44.20738" lon="3.51025">
        <ele>1065</ele>
        <time>2017-03-02T17:36:46Z</time>
      </trkpt>
      <trkpt lat="44.20749" lon="3.5102">
        <ele>1066</ele>
        <time>2017-03-02T17:38:46Z</time>
      </trkpt>
      <trkpt lat="44.20758" lon="3.51013">
        <ele>1066</ele>
        <time>2017-03-02T17:40:46Z</time>
      </trkpt>
      <trkpt lat="44.20769" lon="3.51002">
        <ele>1066</ele>
        <time>2017-03-02T17:42:46Z</time>
      </trkpt>
      <trkpt lat="44.20779" lon="3.50991">
        <ele>1066</ele>
        <time>2017-03-02T17:44:46Z</time>
      </trkpt>
      <trkpt lat="44.20794" lon="3.5098">
        <ele>1068</ele>
        <time>2017-03-02T17:46:46Z</time>
      </trkpt>
      <trkpt lat="44.20805" lon="3.50971">
        <ele>1069</ele>
        <time>2017-03-02T17:48:46Z</time>
      </trkpt>
      <trkpt lat="44.20812" lon="3.50965">
        <ele>1069</ele>
        <time>2017-03-02T17:50:46Z</time>
      </trkpt>
      <trkpt lat="44.20816" lon="3.50985">
        <ele>1069</ele>
        <time>2017-03-02T17:52:46Z</time>
      </trkpt>
      <trkpt lat="44.20823" lon="3.51">
        <ele>1069</ele>
        <time>2017-03-02T17:54:46Z</time>
      </trkpt>
      <trkpt lat="44.20831" lon="3.51017">
        <ele>1070</ele>
        <time>2017-03-02T17:56:46Z</time>
      </trkpt>
      <trkpt lat="44.20839" lon="3.51027">
        <ele>1070</ele>
        <time>2017-03-02T17:58:46Z</time>
      </trkpt>
      <trkpt lat="44.20849" lon="3.51032">
        <ele>1069</ele>
        <time>2017-03-02T18:00:46Z</time>
      </trkpt>
      <trkpt lat="44.20867" lon="3.51038">
        <ele>1068</ele>
        <time>2017-03-02T18:02:46Z</time>
      </trkpt>
      <trkpt lat="44.20892" lon="3.51046">
        <ele>1067</ele>
        <time>2017-03-02T18:04:46Z</time>
      </trkpt>
      <trkpt lat="44.20984" lon="3.51063">
        <ele>1060</ele>
        <time>2017-03-02T18:06:46Z</time>
      </trkpt>
      <trkpt lat="44.21013" lon="3.51071">
        <ele>1059</ele>
        <time>2017-03-02T18:08:46Z</time>
      </trkpt>
      <trkpt lat="44.21031" lon="3.51076">
        <ele>1058</ele>
        <time>2017-03-02T18:10:46Z</time>
      </trkpt>
      <trkpt lat="44.21054" lon="3.51081">
        <ele>1057</ele>
        <time>2017-03-02T18:12:46Z</time>
      </trkpt>
      <trkpt lat="44.21077" lon="3.51091">
        <ele>1056</ele>
        <time>2017-03-02T18:14:46Z</time>
      </trkpt>
      <trkpt lat="44.21103" lon="3.51103">
        <ele>1056</ele>
        <time>2017-03-02T18:16:46Z</time>
      </trkpt>
      <trkpt lat="44.21126" lon="3.5111">
        <ele>1057</ele>
        <time>2017-03-02T18:18:46Z</time>
      </trkpt>
      <trkpt lat="44.21147" lon="3.51117">
        <ele>1058</ele>
        <time>2017-03-02T18:20:46Z</time>
      </trkpt>
      <trkpt lat="44.21172" lon="3.51127">
        <ele>1058</ele>
        <time>2017-03-02T18:22:46Z</time>
      </trkpt>
      <trkpt lat="44.21189" lon="3.51134">
        <ele>1058</ele>
        <time>2017-03-02T18:24:46Z</time>
      </trkpt>
      <trkpt lat="44.21193" lon="3.51138">
        <ele>1057</ele>
        <time>2017-03-02T18:26:46Z</time>
      </trkpt>
      <trkpt lat="44.21219" lon="3.51093">
        <ele>1057</ele>
        <time>2017-03-02T18:28:46Z</time>
      </trkpt>
      <trkpt lat="44.21232" lon="3.5108">
        <ele>1057</ele>
        <time>2017-03-02T18:30:46Z</time>
      </trkpt>
      <trkpt lat="44.21248" lon="3.51069">
        <ele>1058</ele>
        <time>2017-03-02T18:32:46Z</time>
      </trkpt>
      <trkpt lat="44.2127" lon="3.5106">
        <ele>1059</ele>
        <time>2017-03-02T18:34:46Z</time>
      </trkpt>
      <trkpt lat="44.21314" lon="3.51049">
        <ele>1062</ele>
        <time>2017-03-02T18:36:46Z</time>
      </trkpt>
      <trkpt lat="44.21327" lon="3.5105">
        <ele>1063</ele>
        <time>2017-03-02T18:38:46Z</time>
      </trkpt>
      <trkpt lat="44.21347" lon="3.51044">
        <ele>1065</ele>
        <time>2017-03-02T18:40:46Z</time>
      </trkpt>
      <trkpt lat="44.21368" lon="3.51041">
        <ele>1068</ele>
        <time>2017-03-02T18:42:46Z</time>
      </trkpt>
      <trkpt lat="44.21387" lon="3.51036">
        <ele>1070</ele>
        <time>2017-03-02T18:44:46Z</time>
      </trkpt>
      <trkpt lat="44.21401" lon="3.51035">
        <ele>1072</ele>
        <time>2017-03-02T18:46:46Z</time>
      </trkpt>
      <trkpt lat="44.21418" lon="3.51038">
        <ele>1074</ele>
        <time>2017-03-02T18:48:46Z</time>
      </trkpt>
      <trkpt lat="44.21445" lon="3.51037">
        <ele>1077</ele>
        <time>2017-03-02T18:50:46Z</time>
      </trkpt>
      <trkpt lat="44.21455" lon="3.51037">
        <ele>1078</ele>
        <time>2017-03-02T18:52:46Z</time>
      </trkpt>
      <trkpt lat="44.21482" lon="3.51044">
        <ele>1080</ele>
        <time>2017-03-02T18:54:46Z</time>
      </trkpt>
      <trkpt lat="44.21506" lon="3.51048">
        <ele>1082</ele>
        <time>2017-03-02T18:56:46Z</time>
      </trkpt>
      <trkpt lat="44.21518" lon="3.5105">
        <ele>1083</ele>
        <time>2017-03-02T18:58:46Z</time>
      </trkpt>
      <trkpt lat="44.21534" lon="3.51055">
        <ele>1083</ele>
        <time>2017-03-02T19:00:46Z</time>
      </trkpt>
      <trkpt lat="44.21552" lon="3.51088">
        <ele>1083</ele>
        <time>2017-03-02T19:02:46Z</time>
      </trkpt>
      <trkpt lat="44.21572" lon="3.51127">
        <ele>1084</ele>
        <time>2017-03-02T19:04:46Z</time>
      </trkpt>
      <trkpt lat="44.21592" lon="3.51169">
        <ele>1084</ele>
        <time>2017-03-02T19:06:46Z</time>
      </trkpt>
      <trkpt lat="44.21611" lon="3.51212">
        <ele>1085</ele>
        <time>2017-03-02T19:08:46Z</time>
      </trkpt>
      <trkpt lat="44.21616" lon="3.51221">
        <ele>1085</ele>
        <time>2017-03-02T19:10:46Z</time>
      </trkpt>
      <trkpt lat="44.21626" lon="3.51233">
        <ele>1085</ele>
        <time>2017-03-02T19:12:46Z</time>
      </trkpt>
      <trkpt lat="44.21642" lon="3.51248">
        <ele>1085</ele>
        <time>2017-03-02T19:14:46Z</time>
      </trkpt>
      <trkpt lat="44.21667" lon="3.51267">
        <ele>1085</ele>
        <time>2017-03-02T19:16:46Z</time>
      </trkpt>
      <trkpt lat="44.21695" lon="3.51287">
        <ele>1085</ele>
        <time>2017-03-02T19:18:46Z</time>
      </trkpt>
      <trkpt lat="44.2174" lon="3.51322">
        <ele>1085</ele>
        <time>2017-03-02T19:20:46Z</time>
      </trkpt>
      <trkpt lat="44.21763" lon="3.51339">
        <ele>1085</ele>
        <time>2017-03-02T19:22:46Z</time>
      </trkpt>
      <trkpt lat="44.21776" lon="3.51352">
        <ele>1085</ele>
        <time>2017-03-02T19:24:46Z</time>
      </trkpt>
      <trkpt lat="44.21797" lon="3.51376">
        <ele>1085</ele>
        <time>2017-03-02T19:26:46Z</time>
      </trkpt>
      <trkpt lat="44.21811" lon="3.51394">
        <ele>1085</ele>
        <time>2017-03-02T19:28:46Z</time>
      </trkpt>
      <trkpt lat="44.21847" lon="3.51427">
        <ele>1085</ele>
        <time>2017-03-02T19:30:46Z</time>
      </trkpt>
      <trkpt lat="44.21861" lon="3.51435">
        <ele>1085</ele>
        <time>2017-03-02T19:32:46Z</time>
      </trkpt>
      <trkpt lat="44.21872" lon="3.51439">
        <ele>1085</ele>
        <time>2017-03-02T19:34:46Z</time>
      </trkpt>
      <trkpt lat="44.21881" lon="3.51439">
        <ele>1085</ele>
        <time>2017-03-02T19:36:46Z</time>
      </trkpt>
      <trkpt lat="44.21898" lon="3.51438">
        <ele>1084</ele>
        <time>2017-03-02T19:38:46Z</time>
      </trkpt>
      <trkpt lat="44.21914" lon="3.51438">
        <ele>1083</ele>
        <time>2017-03-02T19:40:46Z</time>
      </trkpt>
      <trkpt lat="44.21932" lon="3.51439">
        <ele>1083</ele>
        <time>2017-03-02T19:42:46Z</time>
      </trkpt>
      <trkpt lat="44.21952" lon="3.51442">
        <ele>1082</ele>
        <time>2017-03-02T19:44:46Z</time>
      </trkpt>
      <trkpt lat="44.21993" lon="3.51454">
        <ele>1082</ele>
        <time>2017-03-02T19:46:46Z</time>
      </trkpt>
      <trkpt lat="44.22038" lon="3.51464">
        <ele>1082</ele>
        <time>2017-03-02T19:48:46Z</time>
      </trkpt>
      <trkpt lat="44.22061" lon="3.51469">
        <ele>1081</ele>
        <time>2017-03-02T19:50:46Z</time>
      </trkpt>
      <trkpt lat="44.22071" lon="3.51472">
        <ele>1081</ele>
        <time>2017-03-02T19:52:46Z</time>
      </trkpt>
      <trkpt lat="44.22095" lon="3.51454">
        <ele>1080</ele>
        <time>2017-03-02T19:54:46Z</time>
      </trkpt>
      <trkpt lat="44.22108" lon="3.51448">
        <ele>1079</ele>
        <time>2017-03-02T19:56:46Z</time>
      </trkpt>
      <trkpt lat="44.2212" lon="3.51447">
        <ele>1078</ele>
        <time>2017-03-02T19:58:46Z</time>
      </trkpt>
      <trkpt lat="44.22138" lon="3.51448">
        <ele>1077</ele>
        <time>2017-03-02T20:00:46Z</time>
      </trkpt>
      <trkpt lat="44.22176" lon="3.51454">
        <ele>1075</ele>
        <time>2017-03-02T20:02:46Z</time>
      </trkpt>
      <trkpt lat="44.22197" lon="3.51457">
        <ele>1073</ele>
        <time>2017-03-02T20:04:46Z</time>
      </trkpt>
      <trkpt lat="44.22212" lon="3.5146">
        <ele>1073</ele>
        <time>2017-03-02T20:06:46Z</time>
      </trkpt>
      <trkpt lat="44.22226" lon="3.51462">
        <ele>1072</ele>
        <time>2017-03-02T20:08:46Z</time>
      </trkpt>
      <trkpt lat="44.22282" lon="3.51463">
        <ele>1069</ele>
        <time>2017-03-02T20:10:46Z</time>
      </trkpt>
      <trkpt lat="44.22294" lon="3.51462">
        <ele>1069</ele>
        <time>2017-03-02T20:12:46Z</time>
      </trkpt>
      <trkpt lat="44.22306" lon="3.5146">
        <ele>1069</ele>
        <time>2017-03-02T20:14:46Z</time>
      </trkpt>
      <trkpt lat="44.22317" lon="3.51455">
        <ele>1068</ele>
        <time>2017-03-02T20:16:46Z</time>
      </trkpt>
      <trkpt lat="44.22328" lon="3.51449">
        <ele>1068</ele>
        <time>2017-03-02T20:18:46Z</time>
      </trkpt>
      <trkpt lat="44.22362" lon="3.51422">
        <ele>1068</ele>
        <time>2017-03-02T20:20:46Z</time>
      </trkpt>
      <trkpt lat="44.22402" lon="3.51405">
        <ele>1070</ele>
        <time>2017-03-02T20:22:46Z</time>
      </trkpt>
      <trkpt lat="44.22415" lon="3.514">
        <ele>1070</ele>
        <time>2017-03-02T20:24:46Z</time>
      </trkpt>
      <trkpt lat="44.22429" lon="3.51394">
        <ele>1071</ele>
        <time>2017-03-02T20:26:46Z</time>
      </trkpt>
      <trkpt lat="44.22442" lon="3.51389">
        <ele>1072</ele>
        <time>2017-03-02T20:28:46Z</time>
      </trkpt>
      <trkpt lat="44.22456" lon="3.51384">
        <ele>1073</ele>
        <time>2017-03-02T20:30:46Z</time>
      </trkpt>
      <trkpt lat="44.22513" lon="3.51367">
        <ele>1077</ele>
        <time>2017-03-02T20:32:46Z</time>
      </trkpt>
      <trkpt lat="44.22531" lon="3.51369">
        <ele>1079</ele>
        <time>2017-03-02T20:34:46Z</time>
      </trkpt>
      <trkpt lat="44.22534" lon="3.51371">
        <ele>1080</ele>
        <time>2017-03-02T20:36:46Z</time>
      </trkpt>
      <trkpt lat="44.22545" lon="3.51381">
        <ele>1080</ele>
        <time>2017-03-02T20:38:46Z</time>
      </trkpt>
      <trkpt lat="44.22552" lon="3.51389">
        <ele>1081</ele>
        <time>2017-03-02T20:40:46Z</time>
      </trkpt>
      <trkpt lat="44.2256" lon="3.514">
        <ele>1081</ele>
        <time>2017-03-02T20:42:46Z</time>
      </trkpt>
      <trkpt lat="44.22566" lon="3.51411">
        <ele>1081</ele>
        <time>2017-03-02T20:44:46Z</time>
      </trkpt>
      <trkpt lat="44.22569" lon="3.51419">
        <ele>1080</ele>
        <time>2017-03-02T20:46:46Z</time>
      </trkpt>
      <trkpt lat="44.22574" lon="3.51439">
        <ele>1079</ele>
        <time>2017-03-02T20:48:46Z</time>
      </trkpt>
      <trkpt lat="44.22579" lon="3.51451">
        <ele>1078</ele>
        <time>2017-03-02T20:50:46Z</time>
      </trkpt>
      <trkpt lat="44.22585" lon="3.51461">
        <ele>1077</ele>
        <time>2017-03-02T20:52:46Z</time>
      </trkpt>
      <trkpt lat="44.22588" lon="3.51481">
        <ele>1076</ele>
        <time>2017-03-02T20:54:46Z</time>
      </trkpt>
      <trkpt lat="44.22594" lon="3.51498">
        <ele>1075</ele>
        <time>2017-03-02T20:56:46Z</time>
      </trkpt>
      <trkpt lat="44.22596" lon="3.51503">
        <ele>1074</ele>
        <time>2017-03-02T20:58:46Z</time>
      </trkpt>
      <trkpt lat="44.22596" lon="3.51509">
        <ele>1074</ele>
        <time>2017-03-02T21:00:46Z</time>
      </trkpt>
      <trkpt lat="44.22599" lon="3.51515">
        <ele>1073</ele>
        <time>2017-03-02T21:02:46Z</time>
      </trkpt>
      <trkpt lat="44.22605" lon="3.51521">
        <ele>1073</ele>
        <time>2017-03-02T21:04:46Z</time>
      </trkpt>
      <trkpt lat="44.22613" lon="3.51527">
        <ele>1073</ele>
        <time>2017-03-02T21:06:46Z</time>
      </trkpt>
      <trkpt lat="44.2262" lon="3.51535">
        <ele>1073</ele>
        <time>2017-03-02T21:08:46Z</time>
      </trkpt>
      <trkpt lat="44.22628" lon="3.51547">
        <ele>1072</ele>
        <time>2017-03-02T21:10:46Z</time>
      </trkpt>
      <trkpt lat="44.22631" lon="3.51556">
        <ele>1071</ele>
        <time>2017-03-02T21:12:46Z</time>
      </trkpt>
      <trkpt lat="44.22632" lon="3.51565">
        <ele>1069</ele>
        <time>2017-03-02T21:14:46Z</time>
      </trkpt>
      <trkpt lat="44.22632" lon="3.51573">
        <ele>1068</ele>
        <time>2017-03-02T21:16:46Z</time>
      </trkpt>
      <trkpt lat="44.22631" lon="3.5158">
        <ele>1067</ele>
        <time>2017-03-02T21:18:46Z</time>
      </trkpt>
      <trkpt lat="44.2263" lon="3.51589">
        <ele>1066</ele>
        <time>2017-03-02T21:20:46Z</time>
      </trkpt>
      <trkpt lat="44.22631" lon="3.51596">
        <ele>1066</ele>
        <time>2017-03-02T21:22:46Z</time>
      </trkpt>
      <trkpt lat="44.22634" lon="3.51602">
        <ele>1066</ele>
        <time>2017-03-02T21:24:46Z</time>
      </trkpt>
      <trkpt lat="44.22639" lon="3.51608">
        <ele>1066</ele>
        <time>2017-03-02T21:26:46Z</time>
      </trkpt>
      <trkpt lat="44.22643" lon="3.51612">
        <ele>1065</ele>
        <time>2017-03-02T21:28:46Z</time>
      </trkpt>
      <trkpt lat="44.22647" lon="3.51618">
        <ele>1065</ele>
        <time>2017-03-02T21:30:46Z</time>
      </trkpt>
      <trkpt lat="44.22658" lon="3.51639">
        <ele>1064</ele>
        <time>2017-03-02T21:32:46Z</time>
      </trkpt>
      <trkpt lat="44.22662" lon="3.51652">
        <ele>1063</ele>
        <time>2017-03-02T21:34:46Z</time>
      </trkpt>
      <trkpt lat="44.22672" lon="3.51678">
        <ele>1062</ele>
        <time>2017-03-02T21:36:46Z</time>
      </trkpt>
      <trkpt lat="44.22679" lon="3.51703">
        <ele>1063</ele>
        <time>2017-03-02T21:38:46Z</time>
      </trkpt>
      <trkpt lat="44.22686" lon="3.5173">
        <ele>1063</ele>
        <time>2017-03-02T21:40:46Z</time>
      </trkpt>
      <trkpt lat="44.22691" lon="3.51755">
        <ele>1063</ele>
        <time>2017-03-02T21:42:46Z</time>
      </trkpt>
      <trkpt lat="44.22698" lon="3.51777">
        <ele>1064</ele>
        <time>2017-03-02T21:44:46Z</time>
      </trkpt>
      <trkpt lat="44.22704" lon="3.518">
        <ele>1064</ele>
        <time>2017-03-02T21:46:46Z</time>
      </trkpt>
      <trkpt lat="44.22707" lon="3.51825">
        <ele>1065</ele>
        <time>2017-03-02T21:48:46Z</time>
      </trkpt>
      <trkpt lat="44.22712" lon="3.51841">
        <ele>1065</ele>
        <time>2017-03-02T21:50:46Z</time>
      </trkpt>
      <trkpt lat="44.22719" lon="3.5186">
        <ele>1065</ele>
        <time>2017-03-02T21:52:46Z</time>
      </trkpt>
      <trkpt lat="44.22729" lon="3.51876">
        <ele>1065</ele>
        <time>2017-03-02T21:54:46Z</time>
      </trkpt>
      <trkpt lat="44.22738" lon="3.5189">
        <ele>1065</ele>
        <time>2017-03-02T21:56:46Z</time>
      </trkpt>
      <trkpt lat="44.22757" lon="3.51905">
        <ele>1065</ele>
        <time>2017-03-02T21:58:46Z</time>
      </trkpt>
      <trkpt lat="44.22763" lon="3.5191">
        <ele>1065</ele>
        <time>2017-03-02T22:00:46Z</time>
      </trkpt>
      <trkpt lat="44.22767" lon="3.51916">
        <ele>1065</ele>
        <time>2017-03-02T22:02:46Z</time>
      </trkpt>
      <trkpt lat="44.22769" lon="3.51928">
        <ele>1065</ele>
        <time>2017-03-02T22:04:46Z</time>
      </trkpt>
      <trkpt lat="44.22773" lon="3.51942">
        <ele>1065</ele>
        <time>2017-03-02T22:06:46Z</time>
      </trkpt>
      <trkpt lat="44.2278" lon="3.51957">
        <ele>1065</ele>
        <time>2017-03-02T22:08:46Z</time>
      </trkpt>
      <trkpt lat="44.22795" lon="3.51982">
        <ele>1066</ele>
        <time>2017-03-02T22:10:46Z</time>
      </trkpt>
      <trkpt lat="44.22803" lon="3.51997">
        <ele>1066</ele>
        <time>2017-03-02T22:12:46Z</time>
      </trkpt>
      <trkpt lat="44.22811" lon="3.52012">
        <ele>1066</ele>
        <time>2017-03-02T22:14:46Z</time>
      </trkpt>
      <trkpt lat="44.22826" lon="3.52031">
        <ele>1066</ele>
        <time>2017-03-02T22:16:46Z</time>
      </trkpt>
      <trkpt lat="44.22834" lon="3.52044">
        <ele>1067</ele>
        <time>2017-03-02T22:18:46Z</time>
      </trkpt>
      <trkpt lat="44.22843" lon="3.52065">
        <ele>1067</ele>
        <time>2017-03-02T22:20:46Z</time>
      </trkpt>
      <trkpt lat="44.2285" lon="3.52085">
        <ele>1068</ele>
        <time>2017-03-02T22:22:46Z</time>
      </trkpt>
      <trkpt lat="44.22849" lon="3.52101">
        <ele>1068</ele>
        <time>2017-03-02T22:24:46Z</time>
      </trkpt>
      <trkpt lat="44.22851" lon="3.52118">
        <ele>1069</ele>
        <time>2017-03-02T22:26:46Z</time>
      </trkpt>
      <trkpt lat="44.22851" lon="3.52133">
        <ele>1070</ele>
        <time>2017-03-02T22:28:46Z</time>
      </trkpt>
      <trkpt lat="44.22852" lon="3.52149">
        <ele>1070</ele>
        <time>2017-03-02T22:30:46Z</time>
      </trkpt>
      <trkpt lat="44.22855" lon="3.52171">
        <ele>1072</ele>
        <time>2017-03-02T22:32:46Z</time>
      </trkpt>
      <trkpt lat="44.22858" lon="3.52197">
        <ele>1073</ele>
        <time>2017-03-02T22:34:46Z</time>
      </trkpt>
      <trkpt lat="44.2286" lon="3.52222">
        <ele>1074</ele>
        <time>2017-03-02T22:36:46Z</time>
      </trkpt>
      <trkpt lat="44.22863" lon="3.52248">
        <ele>1076</ele>
        <time>2017-03-02T22:38:46Z</time>
      </trkpt>
      <trkpt lat="44.22864" lon="3.52258">
        <ele>1077</ele>
        <time>2017-03-02T22:40:46Z</time>
      </trkpt>
      <trkpt lat="44.22864" lon="3.52273">
        <ele>1078</ele>
        <time>2017-03-02T22:42:46Z</time>
      </trkpt>
      <trkpt lat="44.22866" lon="3.52289">
        <ele>1079</ele>
        <time>2017-03-02T22:44:46Z</time>
      </trkpt>
      <trkpt lat="44.22868" lon="3.52303">
        <ele>1080</ele>
        <time>2017-03-02T22:46:46Z</time>
      </trkpt>
      <trkpt lat="44.22867" lon="3.52313">
        <ele>1081</ele>
        <time>2017-03-02T22:48:46Z</time>
      </trkpt>
      <trkpt lat="44.22868" lon="3.52323">
        <ele>1082</ele>
        <time>2017-03-02T22:50:46Z</time>
      </trkpt>
      <trkpt lat="44.22867" lon="3.52333">
        <ele>1083</ele>
        <time>2017-03-02T22:52:46Z</time>
      </trkpt>
      <trkpt lat="44.22868" lon="3.52345">
        <ele>1084</ele>
        <time>2017-03-02T22:54:46Z</time>
      </trkpt>
      <trkpt lat="44.2287" lon="3.52351">
        <ele>1084</ele>
        <time>2017-03-02T22:56:46Z</time>
      </trkpt>
      <trkpt lat="44.22876" lon="3.52359">
        <ele>1086</ele>
        <time>2017-03-02T22:58:46Z</time>
      </trkpt>
      <trkpt lat="44.22866" lon="3.5236">
        <ele>1085</ele>
        <time>2017-03-02T23:00:46Z</time>
      </trkpt>
      <trkpt lat="44.22858" lon="3.52365">
        <ele>1084</ele>
        <time>2017-03-02T23:02:46Z</time>
      </trkpt>
      <trkpt lat="44.22855" lon="3.52374">
        <ele>1085</ele>
        <time>2017-03-02T23:04:46Z</time>
      </trkpt>
      <trkpt lat="44.22855" lon="3.52382">
        <ele>1085</ele>
        <time>2017-03-02T23:06:46Z</time>
      </trkpt>
      <trkpt lat="44.22854" lon="3.52397">
        <ele>1087</ele>
        <time>2017-03-02T23:08:46Z</time>
      </trkpt>
      <trkpt lat="44.22852" lon="3.52405">
        <ele>1087</ele>
        <time>2017-03-02T23:10:46Z</time>
      </trkpt>
      <trkpt lat="44.22847" lon="3.52412">
        <ele>1087</ele>
        <time>2017-03-02T23:12:46Z</time>
      </trkpt>
      <trkpt lat="44.22836" lon="3.52419">
        <ele>1086</ele>
        <time>2017-03-02T23:14:46Z</time>
      </trkpt>
      <trkpt lat="44.22819" lon="3.52433">
        <ele>1086</ele>
        <time>2017-03-02T23:16:46Z</time>
      </trkpt>
      <trkpt lat="44.22808" lon="3.52442">
        <ele>1086</ele>
        <time>2017-03-02T23:18:46Z</time>
      </trkpt>
      <trkpt lat="44.22802" lon="3.52445">
        <ele>1086</ele>
        <time>2017-03-02T23:20:46Z</time>
      </trkpt>
      <trkpt lat="44.22795" lon="3.52446">
        <ele>1086</ele>
        <time>2017-03-02T23:22:46Z</time>
      </trkpt>
      <trkpt lat="44.22782" lon="3.52442">
        <ele>1085</ele>
        <time>2017-03-02T23:24:46Z</time>
      </trkpt>
      <trkpt lat="44.22782" lon="3.52449">
        <ele>1085</ele>
        <time>2017-03-02T23:26:46Z</time>
      </trkpt>
      <trkpt lat="44.2278" lon="3.52464">
        <ele>1086</ele>
        <time>2017-03-02T23:28:46Z</time>
      </trkpt>
      <trkpt lat="44.22777" lon="3.52478">
        <ele>1087</ele>
        <time>2017-03-02T23:30:46Z</time>
      </trkpt>
      <trkpt lat="44.22776" lon="3.52481">
        <ele>1087</ele>
        <time>2017-03-02T23:32:46Z</time>
      </trkpt>
      <trkpt lat="44.22786" lon="3.52495">
        <ele>1088</ele>
        <time>2017-03-02T23:34:46Z</time>
      </trkpt>
      <trkpt lat="44.22795" lon="3.52502">
        <ele>1089</ele>
        <time>2017-03-02T23:36:46Z</time>
      </trkpt>
      <trkpt lat="44.228" lon="3.52508">
        <ele>1090</ele>
        <time>2017-03-02T23:38:46Z</time>
      </trkpt>
      <trkpt lat="44.22803" lon="3.52521">
        <ele>1092</ele>
        <time>2017-03-02T23:40:46Z</time>
      </trkpt>
      <trkpt lat="44.22808" lon="3.52539">
        <ele>1093</ele>
        <time>2017-03-02T23:42:46Z</time>
      </trkpt>
      <trkpt lat="44.22811" lon="3.52551">
        <ele>1095</ele>
        <time>2017-03-02T23:44:46Z</time>
      </trkpt>
      <trkpt lat="44.22819" lon="3.52569">
        <ele>1096</ele>
        <time>2017-03-02T23:46:46Z</time>
      </trkpt>
      <trkpt lat="44.22823" lon="3.52581">
        <ele>1097</ele>
        <time>2017-03-02T23:48:46Z</time>
      </trkpt>
      <trkpt lat="44.22827" lon="3.52597">
        <ele>1099</ele>
        <time>2017-03-02T23:50:46Z</time>
      </trkpt>
      <trkpt lat="44.22831" lon="3.52606">
        <ele>1100</ele>
        <time>2017-03-02T23:52:46Z</time>
      </trkpt>
      <trkpt lat="44.2284" lon="3.52616">
        <ele>1101</ele>
        <time>2017-03-02T23:54:46Z</time>
      </trkpt>
      <trkpt lat="44.22854" lon="3.52626">
        <ele>1103</ele>
        <time>2017-03-02T23:56:46Z</time>
      </trkpt>
      <trkpt lat="44.2286" lon="3.52629">
        <ele>1104</ele>
        <time>2017-03-02T23:58:46Z</time>
      </trkpt>
      <trkpt lat="44.22864" lon="3.52635">
        <ele>1104</ele>
        <time>2017-03-03T00:00:46Z</time>
      </trkpt>
      <trkpt lat="44.22868" lon="3.52645">
        <ele>1105</ele>
        <time>2017-03-03T00:02:46Z</time>
      </trkpt>
      <trkpt lat="44.22871" lon="3.52659">
        <ele>1106</ele>
        <time>2017-03-03T00:04:46Z</time>
      </trkpt>
      <trkpt lat="44.22872" lon="3.52668">
        <ele>1106</ele>
        <time>2017-03-03T00:06:46Z</time>
      </trkpt>
      <trkpt lat="44.22888" lon="3.52691">
        <ele>1108</ele>
        <time>2017-03-03T00:08:46Z</time>
      </trkpt>
      <trkpt lat="44.22893" lon="3.52695">
        <ele>1108</ele>
        <time>2017-03-03T00:10:46Z</time>
      </trkpt>
      <trkpt lat="44.22898" lon="3.52697">
        <ele>1109</ele>
        <time>2017-03-03T00:12:46Z</time>
      </trkpt>
      <trkpt lat="44.22907" lon="3.52695">
        <ele>1109</ele>
        <time>2017-03-03T00:14:46Z</time>
      </trkpt>
      <trkpt lat="44.22913" lon="3.52694">
        <ele>1109</ele>
        <time>2017-03-03T00:16:46Z</time>
      </trkpt>
      <trkpt lat="44.22919" lon="3.52695">
        <ele>1109</ele>
        <time>2017-03-03T00:18:46Z</time>
      </trkpt>
      <trkpt lat="44.22929" lon="3.527">
        <ele>1110</ele>
        <time>2017-03-03T00:20:46Z</time>
      </trkpt>
      <trkpt lat="44.22937" lon="3.52699">
        <ele>1110</ele>
        <time>2017-03-03T00:22:46Z</time>
      </trkpt>
      <trkpt lat="44.22949" lon="3.52694">
        <ele>1110</ele>
        <time>2017-03-03T00:24:46Z</time>
      </trkpt>
      <trkpt lat="44.22957" lon="3.52686">
        <ele>1111</ele>
        <time>2017-03-03T00:26:46Z</time>
      </trkpt>
      <trkpt lat="44.22968" lon="3.5267">
        <ele>1112</ele>
        <time>2017-03-03T00:28:46Z</time>
      </trkpt>
      <trkpt lat="44.22972" lon="3.52661">
        <ele>1113</ele>
        <time>2017-03-03T00:30:46Z</time>
      </trkpt>
      <trkpt lat="44.22973" lon="3.52654">
        <ele>1114</ele>
        <time>2017-03-03T00:32:46Z</time>
      </trkpt>
      <trkpt lat="44.22972" lon="3.52645">
        <ele>1114</ele>
        <time>2017-03-03T00:34:46Z</time>
      </trkpt>
      <trkpt lat="44.22969" lon="3.52637">
        <ele>1114</ele>
        <time>2017-03-03T00:36:46Z</time>
      </trkpt>
      <trkpt lat="44.22965" lon="3.52631">
        <ele>1114</ele>
        <time>2017-03-03T00:38:46Z</time>
      </trkpt>
      <trkpt lat="44.22957" lon="3.52622">
        <ele>1113</ele>
        <time>2017-03-03T00:40:46Z</time>
      </trkpt>
      <trkpt lat="44.2295" lon="3.52616">
        <ele>1112</ele>
        <time>2017-03-03T00:42:46Z</time>
      </trkpt>
      <trkpt lat="44.22942" lon="3.52604">
        <ele>1111</ele>
        <time>2017-03-03T00:44:46Z</time>
      </trkpt>
      <trkpt lat="44.22939" lon="3.52594">
        <ele>1111</ele>
        <time>2017-03-03T00:46:46Z</time>
      </trkpt>
      <trkpt lat="44.22937" lon="3.52586">
        <ele>1111</ele>
        <time>2017-03-03T00:48:46Z</time>
      </trkpt>
      <trkpt lat="44.22937" lon="3.52579">
        <ele>1111</ele>
        <time>2017-03-03T00:50:46Z</time>
      </trkpt>
      <trkpt lat="44.2294" lon="3.5257">
        <ele>1111</ele>
        <time>2017-03-03T00:52:46Z</time>
      </trkpt>
      <trkpt lat="44.22943" lon="3.52565">
        <ele>1111</ele>
        <time>2017-03-03T00:54:46Z</time>
      </trkpt>
      <trkpt lat="44.22954" lon="3.52554">
        <ele>1113</ele>
        <time>2017-03-03T00:56:46Z</time>
      </trkpt>
      <trkpt lat="44.22964" lon="3.52545">
        <ele>1114</ele>
        <time>2017-03-03T00:58:46Z</time>
      </trkpt>
      <trkpt lat="44.22978" lon="3.52537">
        <ele>1116</ele>
        <time>2017-03-03T01:00:46Z</time>
      </trkpt>
      <trkpt lat="44.22992" lon="3.52526">
        <ele>1118</ele>
        <time>2017-03-03T01:02:46Z</time>
      </trkpt>
      <trkpt lat="44.23006" lon="3.52513">
        <ele>1119</ele>
        <time>2017-03-03T01:04:46Z</time>
      </trkpt>
      <trkpt lat="44.23025" lon="3.52497">
        <ele>1120</ele>
        <time>2017-03-03T01:06:46Z</time>
      </trkpt>
      <trkpt lat="44.23037" lon="3.52488">
        <ele>1120</ele>
        <time>2017-03-03T01:08:46Z</time>
      </trkpt>
      <trkpt lat="44.23073" lon="3.52469">
        <ele>1123</ele>
        <time>2017-03-03T01:10:46Z</time>
      </trkpt>
      <trkpt lat="44.23084" lon="3.52461">
        <ele>1123</ele>
        <time>2017-03-03T01:12:46Z</time>
      </trkpt>
      <trkpt lat="44.23095" lon="3.52454">
        <ele>1124</ele>
        <time>2017-03-03T01:14:46Z</time>
      </trkpt>
      <trkpt lat="44.23109" lon="3.52444">
        <ele>1124</ele>
        <time>2017-03-03T01:16:46Z</time>
      </trkpt>
      <trkpt lat="44.23129" lon="3.52429">
        <ele>1125</ele>
        <time>2017-03-03T01:18:46Z</time>
      </trkpt>
      <trkpt lat="44.23138" lon="3.52424">
        <ele>1126</ele>
        <time>2017-03-03T01:20:46Z</time>
      </trkpt>
      <trkpt lat="44.23147" lon="3.5242">
        <ele>1127</ele>
        <time>2017-03-03T01:22:46Z</time>
      </trkpt>
      <trkpt lat="44.23155" lon="3.52414">
        <ele>1127</ele>
        <time>2017-03-03T01:24:46Z</time>
      </trkpt>
      <trkpt lat="44.23168" lon="3.52406">
        <ele>1127</ele>
        <time>2017-03-03T01:26:46Z</time>
      </trkpt>
      <trkpt lat="44.23187" lon="3.52395">
        <ele>1128</ele>
        <time>2017-03-03T01:28:46Z</time>
      </trkpt>
      <trkpt lat="44.23197" lon="3.52391">
        <ele>1128</ele>
        <time>2017-03-03T01:30:46Z</time>
      </trkpt>
      <trkpt lat="44.23219" lon="3.52385">
        <ele>1130</ele>
        <time>2017-03-03T01:32:46Z</time>
      </trkpt>
      <trkpt lat="44.23258" lon="3.52374">
        <ele>1132</ele>
        <time>2017-03-03T01:34:46Z</time>
      </trkpt>
      <trkpt lat="44.2328" lon="3.52364">
        <ele>1132</ele>
        <time>2017-03-03T01:36:46Z</time>
      </trkpt>
      <trkpt lat="44.23287" lon="3.52361">
        <ele>1132</ele>
        <time>2017-03-03T01:38:46Z</time>
      </trkpt>
      <trkpt lat="44.23297" lon="3.52354">
        <ele>1132</ele>
        <time>2017-03-03T01:40:46Z</time>
      </trkpt>
      <trkpt lat="44.23316" lon="3.52339">
        <ele>1132</ele>
        <time>2017-03-03T01:42:46Z</time>
      </trkpt>
      <trkpt lat="44.23363" lon="3.5231">
        <ele>1133</ele>
        <time>2017-03-03T01:44:46Z</time>
      </trkpt>
      <trkpt lat="44.23382" lon="3.52305">
        <ele>1134</ele>
        <time>2017-03-03T01:46:46Z</time>
      </trkpt>
      <trkpt lat="44.23396" lon="3.523">
        <ele>1135</ele>
        <time>2017-03-03T01:48:46Z</time>
      </trkpt>
      <trkpt lat="44.23405" lon="3.52294">
        <ele>1135</ele>
        <time>2017-03-03T01:50:46Z</time>
      </trkpt>
      <trkpt lat="44.23433" lon="3.52275">
        <ele>1135</ele>
        <time>2017-03-03T01:52:46Z</time>
      </trkpt>
      <trkpt lat="44.23448" lon="3.52264">
        <ele>1134</ele>
        <time>2017-03-03T01:54:46Z</time>
      </trkpt>
      <trkpt lat="44.23458" lon="3.52255">
        <ele>1134</ele>
        <time>2017-03-03T01:56:46Z</time>
      </trkpt>
      <trkpt lat="44.23466" lon="3.52244">
        <ele>1134</ele>
        <time>2017-03-03T01:58:46Z</time>
      </trkpt>
      <trkpt lat="44.23472" lon="3.52231">
        <ele>1135</ele>
        <time>2017-03-03T02:00:46Z</time>
      </trkpt>
      <trkpt lat="44.23477" lon="3.52217">
        <ele>1135</ele>
        <time>2017-03-03T02:02:46Z</time>
      </trkpt>
      <trkpt lat="44.23479" lon="3.52201">
        <ele>1136</ele>
        <time>2017-03-03T02:04:46Z</time>
      </trkpt>
      <trkpt lat="44.2348" lon="3.52187">
        <ele>1137</ele>
        <time>2017-03-03T02:06:46Z</time>
      </trkpt>
      <trkpt lat="44.2348" lon="3.52174">
        <ele>1137</ele>
        <time>2017-03-03T02:08:46Z</time>
      </trkpt>
      <trkpt lat="44.23479" lon="3.52164">
        <ele>1137</ele>
        <time>2017-03-03T02:10:46Z</time>
      </trkpt>
      <trkpt lat="44.23477" lon="3.52153">
        <ele>1138</ele>
        <time>2017-03-03T02:12:46Z</time>
      </trkpt>
      <trkpt lat="44.23473" lon="3.5214">
        <ele>1139</ele>
        <time>2017-03-03T02:14:46Z</time>
      </trkpt>
      <trkpt lat="44.23466" lon="3.5212">
        <ele>1139</ele>
        <time>2017-03-03T02:16:46Z</time>
      </trkpt>
      <trkpt lat="44.23461" lon="3.52107">
        <ele>1140</ele>
        <time>2017-03-03T02:18:46Z</time>
      </trkpt>
      <trkpt lat="44.23452" lon="3.52083">
        <ele>1140</ele>
        <time>2017-03-03T02:20:46Z</time>
      </trkpt>
      <trkpt lat="44.23451" lon="3.52075">
        <ele>1140</ele>
        <time>2017-03-03T02:22:46Z</time>
      </trkpt>
      <trkpt lat="44.23452" lon="3.52071">
        <ele>1141</ele>
        <time>2017-03-03T02:24:46Z</time>
      </trkpt>
      <trkpt lat="44.23454" lon="3.52067">
        <ele>1141</ele>
        <time>2017-03-03T02:26:46Z</time>
      </trkpt>
      <trkpt lat="44.23458" lon="3.52065">
        <ele>1142</ele>
        <time>2017-03-03T02:28:46Z</time>
      </trkpt>
      <trkpt lat="44.23462" lon="3.52066">
        <ele>1142</ele>
        <time>2017-03-03T02:30:46Z</time>
      </trkpt>
      <trkpt lat="44.23465" lon="3.52071">
        <ele>1142</ele>
        <time>2017-03-03T02:32:46Z</time>
      </trkpt>
      <trkpt lat="44.23469" lon="3.52074">
        <ele>1143</ele>
        <time>2017-03-03T02:34:46Z</time>
      </trkpt>
      <trkpt lat="44.23474" lon="3.52078">
        <ele>1143</ele>
        <time>2017-03-03T02:36:46Z</time>
      </trkpt>
      <trkpt lat="44.23483" lon="3.52082">
        <ele>1144</ele>
        <time>2017-03-03T02:38:46Z</time>
      </trkpt>
      <trkpt lat="44.23533" lon="3.52087">
        <ele>1147</ele>
        <time>2017-03-03T02:40:46Z</time>
      </trkpt>
      <trkpt lat="44.23545" lon="3.5209">
        <ele>1148</ele>
        <time>2017-03-03T02:42:46Z</time>
      </trkpt>
      <trkpt lat="44.23568" lon="3.52096">
        <ele>1148</ele>
        <time>2017-03-03T02:44:46Z</time>
      </trkpt>
      <trkpt lat="44.23575" lon="3.52096">
        <ele>1149</ele>
        <time>2017-03-03T02:46:46Z</time>
      </trkpt>
      <trkpt lat="44.23583" lon="3.52094">
        <ele>1149</ele>
        <time>2017-03-03T02:48:46Z</time>
      </trkpt>
      <trkpt lat="44.23592" lon="3.5209">
        <ele>1149</ele>
        <time>2017-03-03T02:50:46Z</time>
      </trkpt>
      <trkpt lat="44.23604" lon="3.52083">
        <ele>1149</ele>
        <time>2017-03-03T02:52:46Z</time>
      </trkpt>
      <trkpt lat="44.23614" lon="3.52077">
        <ele>1149</ele>
        <time>2017-03-03T02:54:46Z</time>
      </trkpt>
      <trkpt lat="44.23622" lon="3.52071">
        <ele>1149</ele>
        <time>2017-03-03T02:56:46Z</time>
      </trkpt>
      <trkpt lat="44.23627" lon="3.52066">
        <ele>1149</ele>
        <time>2017-03-03T02:58:46Z</time>
      </trkpt>
      <trkpt lat="44.23632" lon="3.5206">
        <ele>1149</ele>
        <time>2017-03-03T03:00:46Z</time>
      </trkpt>
      <trkpt lat="44.2365" lon="3.52042">
        <ele>1150</ele>
        <time>2017-03-03T03:02:46Z</time>
      </trkpt>
      <trkpt lat="44.23677" lon="3.52022">
        <ele>1151</ele>
        <time>2017-03-03T03:04:46Z</time>
      </trkpt>
      <trkpt lat="44.23692" lon="3.52009">
        <ele>1152</ele>
        <time>2017-03-03T03:06:46Z</time>
      </trkpt>
      <trkpt lat="44.23703" lon="3.51999">
        <ele>1153</ele>
        <time>2017-03-03T03:08:46Z</time>
      </trkpt>
      <trkpt lat="44.23713" lon="3.51991">
        <ele>1152</ele>
        <time>2017-03-03T03:10:46Z</time>
      </trkpt>
      <trkpt lat="44.23719" lon="3.51991">
        <ele>1152</ele>
        <time>2017-03-03T03:12:46Z</time>
      </trkpt>
      <trkpt lat="44.23725" lon="3.51992">
        <ele>1152</ele>
        <time>2017-03-03T03:14:46Z</time>
      </trkpt>
      <trkpt lat="44.23734" lon="3.51998">
        <ele>1152</ele>
        <time>2017-03-03T03:16:46Z</time>
      </trkpt>
      <trkpt lat="44.23764" lon="3.52014">
        <ele>1152</ele>
        <time>2017-03-03T03:18:46Z</time>
      </trkpt>
      <trkpt lat="44.23776" lon="3.52024">
        <ele>1152</ele>
        <time>2017-03-03T03:20:46Z</time>
      </trkpt>
      <trkpt lat="44.23786" lon="3.52032">
        <ele>1152</ele>
        <time>2017-03-03T03:22:46Z</time>
      </trkpt>
      <trkpt lat="44.23797" lon="3.52036">
        <ele>1152</ele>
        <time>2017-03-03T03:24:46Z</time>
      </trkpt>
      <trkpt lat="44.23812" lon="3.52042">
        <ele>1152</ele>
        <time>2017-03-03T03:26:46Z</time>
      </trkpt>
      <trkpt lat="44.23828" lon="3.52048">
        <ele>1152</ele>
        <time>2017-03-03T03:28:46Z</time>
      </trkpt>
      <trkpt lat="44.23845" lon="3.52053">
        <ele>1153</ele>
        <time>2017-03-03T03:30:46Z</time>
      </trkpt>
      <trkpt lat="44.23856" lon="3.52059">
        <ele>1153</ele>
        <time>2017-03-03T03:32:46Z</time>
      </trkpt>
      <trkpt lat="44.23875" lon="3.5207">
        <ele>1153</ele>
        <time>2017-03-03T03:34:46Z</time>
      </trkpt>
      <trkpt lat="44.23887" lon="3.52081">
        <ele>1153</ele>
        <time>2017-03-03T03:36:46Z</time>
      </trkpt>
      <trkpt lat="44.23899" lon="3.52099">
        <ele>1153</ele>
        <time>2017-03-03T03:38:46Z</time>
      </trkpt>
      <trkpt lat="44.23906" lon="3.52112">
        <ele>1153</ele>
        <time>2017-03-03T03:40:46Z</time>
      </trkpt>
      <trkpt lat="44.23917" lon="3.52126">
        <ele>1153</ele>
        <time>2017-03-03T03:42:46Z</time>
      </trkpt>
      <trkpt lat="44.23926" lon="3.52136">
        <ele>1153</ele>
        <time>2017-03-03T03:44:46Z</time>
      </trkpt>
      <trkpt lat="44.23937" lon="3.52144">
        <ele>1153</ele>
        <time>2017-03-03T03:46:46Z</time>
      </trkpt>
      <trkpt lat="44.23946" lon="3.52148">
        <ele>1153</ele>
        <time>2017-03-03T03:48:46Z</time>
      </trkpt>
      <trkpt lat="44.23956" lon="3.5215">
        <ele>1153</ele>
        <time>2017-03-03T03:50:46Z</time>
      </trkpt>
      <trkpt lat="44.23973" lon="3.52148">
        <ele>1153</ele>
        <time>2017-03-03T03:52:46Z</time>
      </trkpt>
      <trkpt lat="44.2399" lon="3.52145">
        <ele>1154</ele>
        <time>2017-03-03T03:54:46Z</time>
      </trkpt>
      <trkpt lat="44.24015" lon="3.52139">
        <ele>1153</ele>
        <time>2017-03-03T03:56:46Z</time>
      </trkpt>
      <trkpt lat="44.24041" lon="3.52134">
        <ele>1152</ele>
        <time>2017-03-03T03:58:46Z</time>
      </trkpt>
      <trkpt lat="44.24071" lon="3.52137">
        <ele>1151</ele>
        <time>2017-03-03T04:00:46Z</time>
      </trkpt>
      <trkpt lat="44.24099" lon="3.52141">
        <ele>1150</ele>
        <time>2017-03-03T04:02:46Z</time>
      </trkpt>
      <trkpt lat="44.24124" lon="3.52146">
        <ele>1149</ele>
        <time>2017-03-03T04:04:46Z</time>
      </trkpt>
      <trkpt lat="44.2414" lon="3.52149">
        <ele>1149</ele>
        <time>2017-03-03T04:06:46Z</time>
      </trkpt>
      <trkpt lat="44.24191" lon="3.52159">
        <ele>1148</ele>
        <time>2017-03-03T04:08:46Z</time>
      </trkpt>
      <trkpt lat="44.24211" lon="3.52162">
        <ele>1147</ele>
        <time>2017-03-03T04:10:46Z</time>
      </trkpt>
      <trkpt lat="44.24249" lon="3.52171">
        <ele>1145</ele>
        <time>2017-03-03T04:12:46Z</time>
      </trkpt>
      <trkpt lat="44.24281" lon="3.52179">
        <ele>1142</ele>
        <time>2017-03-03T04:14:46Z</time>
      </trkpt>
      <trkpt lat="44.24319" lon="3.52191">
        <ele>1138</ele>
        <time>2017-03-03T04:16:46Z</time>
      </trkpt>
      <trkpt lat="44.24338" lon="3.52198">
        <ele>1136</ele>
        <time>2017-03-03T04:18:46Z</time>
      </trkpt>
      <trkpt lat="44.24353" lon="3.52204">
        <ele>1135</ele>
        <time>2017-03-03T04:20:46Z</time>
      </trkpt>
      <trkpt lat="44.24375" lon="3.52212">
        <ele>1133</ele>
        <time>2017-03-03T04:22:46Z</time>
      </trkpt>
      <trkpt lat="44.24385" lon="3.52215">
        <ele>1132</ele>
        <time>2017-03-03T04:24:46Z</time>
      </trkpt>
      <trkpt lat="44.24393" lon="3.52219">
        <ele>1132</ele>
        <time>2017-03-03T04:26:46Z</time>
      </trkpt>
      <trkpt lat="44.24416" lon="3.52227">
        <ele>1130</ele>
        <time>2017-03-03T04:28:46Z</time>
      </trkpt>
      <trkpt lat="44.24427" lon="3.5223">
        <ele>1129</ele>
        <time>2017-03-03T04:30:46Z</time>
      </trkpt>
      <trkpt lat="44.24441" lon="3.52234">
        <ele>1128</ele>
        <time>2017-03-03T04:32:46Z</time>
      </trkpt>
      <trkpt lat="44.24458" lon="3.52239">
        <ele>1127</ele>
        <time>2017-03-03T04:34:46Z</time>
      </trkpt>
      <trkpt lat="44.24475" lon="3.52245">
        <ele>1126</ele>
        <time>2017-03-03T04:36:46Z</time>
      </trkpt>
      <trkpt lat="44.24487" lon="3.52248">
        <ele>1126</ele>
        <time>2017-03-03T04:38:46Z</time>
      </trkpt>
      <trkpt lat="44.24501" lon="3.5225">
        <ele>1125</ele>
        <time>2017-03-03T04:40:46Z</time>
      </trkpt>
      <trkpt lat="44.24516" lon="3.52251">
        <ele>1125</ele>
        <time>2017-03-03T04:42:46Z</time>
      </trkpt>
      <trkpt lat="44.24531" lon="3.52251">
        <ele>1124</ele>
        <time>2017-03-03T04:44:46Z</time>
      </trkpt>
      <trkpt lat="44.24545" lon="3.52251">
        <ele>1124</ele>
        <time>2017-03-03T04:46:46Z</time>
      </trkpt>
      <trkpt lat="44.2456" lon="3.52249">
        <ele>1123</ele>
        <time>2017-03-03T04:48:46Z</time>
      </trkpt>
      <trkpt lat="44.24582" lon="3.52244">
        <ele>1122</ele>
        <time>2017-03-03T04:50:46Z</time>
      </trkpt>
      <trkpt lat="44.24588" lon="3.52243">
        <ele>1122</ele>
        <time>2017-03-03T04:52:46Z</time>
      </trkpt>
      <trkpt lat="44.24604" lon="3.52247">
        <ele>1121</ele>
        <time>2017-03-03T04:54:46Z</time>
      </trkpt>
      <trkpt lat="44.24618" lon="3.52251">
        <ele>1121</ele>
        <time>2017-03-03T04:56:46Z</time>
      </trkpt>
      <trkpt lat="44.2463" lon="3.52259">
        <ele>1121</ele>
        <time>2017-03-03T04:58:46Z</time>
      </trkpt>
      <trkpt lat="44.24641" lon="3.5227">
        <ele>1121</ele>
        <time>2017-03-03T05:00:46Z</time>
      </trkpt>
      <trkpt lat="44.24652" lon="3.52278">
        <ele>1121</ele>
        <time>2017-03-03T05:02:46Z</time>
      </trkpt>
      <trkpt lat="44.24667" lon="3.52283">
        <ele>1121</ele>
        <time>2017-03-03T05:04:46Z</time>
      </trkpt>
      <trkpt lat="44.2468" lon="3.52287">
        <ele>1120</ele>
        <time>2017-03-03T05:06:46Z</time>
      </trkpt>
      <trkpt lat="44.24695" lon="3.5229">
        <ele>1120</ele>
        <time>2017-03-03T05:08:46Z</time>
      </trkpt>
      <trkpt lat="44.24715" lon="3.52291">
        <ele>1118</ele>
        <time>2017-03-03T05:10:46Z</time>
      </trkpt>
      <trkpt lat="44.24738" lon="3.52294">
        <ele>1117</ele>
        <time>2017-03-03T05:12:46Z</time>
      </trkpt>
      <trkpt lat="44.24758" lon="3.52296">
        <ele>1115</ele>
        <time>2017-03-03T05:14:46Z</time>
      </trkpt>
      <trkpt lat="44.24773" lon="3.52299">
        <ele>1114</ele>
        <time>2017-03-03T05:16:46Z</time>
      </trkpt>
      <trkpt lat="44.24789" lon="3.52304">
        <ele>1113</ele>
        <time>2017-03-03T05:18:46Z</time>
      </trkpt>
      <trkpt lat="44.24819" lon="3.52319">
        <ele>1111</ele>
        <time>2017-03-03T05:20:46Z</time>
      </trkpt>
      <trkpt lat="44.24835" lon="3.52328">
        <ele>1110</ele>
        <time>2017-03-03T05:22:46Z</time>
      </trkpt>
      <trkpt lat="44.24852" lon="3.52338">
        <ele>1110</ele>
        <time>2017-03-03T05:24:46Z</time>
      </trkpt>
      <trkpt lat="44.24869" lon="3.52346">
        <ele>1110</ele>
        <time>2017-03-03T05:26:46Z</time>
      </trkpt>
      <trkpt lat="44.24878" lon="3.52351">
        <ele>1110</ele>
        <time>2017-03-03T05:28:46Z</time>
      </trkpt>
      <trkpt lat="44.24887" lon="3.52353">
        <ele>1110</ele>
        <time>2017-03-03T05:30:46Z</time>
      </trkpt>
      <trkpt lat="44.24898" lon="3.52349">
        <ele>1110</ele>
        <time>2017-03-03T05:32:46Z</time>
      </trkpt>
      <trkpt lat="44.24905" lon="3.52343">
        <ele>1110</ele>
        <time>2017-03-03T05:34:46Z</time>
      </trkpt>
      <trkpt lat="44.2492" lon="3.52325">
        <ele>1110</ele>
        <time>2017-03-03T05:36:46Z</time>
      </trkpt>
      <trkpt lat="44.24926" lon="3.52323">
        <ele>1111</ele>
        <time>2017-03-03T05:38:46Z</time>
      </trkpt>
      <trkpt lat="44.24936" lon="3.5232">
        <ele>1112</ele>
        <time>2017-03-03T05:40:46Z</time>
      </trkpt>
      <trkpt lat="44.24948" lon="3.52319">
        <ele>1113</ele>
        <time>2017-03-03T05:42:46Z</time>
      </trkpt>
      <trkpt lat="44.24958" lon="3.5232">
        <ele>1113</ele>
        <time>2017-03-03T05:44:46Z</time>
      </trkpt>
      <trkpt lat="44.2498" lon="3.52325">
        <ele>1114</ele>
        <time>2017-03-03T05:46:46Z</time>
      </trkpt>
      <trkpt lat="44.24994" lon="3.52327">
        <ele>1115</ele>
        <time>2017-03-03T05:48:46Z</time>
      </trkpt>
      <trkpt lat="44.25012" lon="3.5233">
        <ele>1116</ele>
        <time>2017-03-03T05:50:46Z</time>
      </trkpt>
      <trkpt lat="44.25022" lon="3.5233">
        <ele>1117</ele>
        <time>2017-03-03T05:52:46Z</time>
      </trkpt>
      <trkpt lat="44.25038" lon="3.52326">
        <ele>1118</ele>
        <time>2017-03-03T05:54:46Z</time>
      </trkpt>
      <trkpt lat="44.25045" lon="3.52326">
        <ele>1119</ele>
        <time>2017-03-03T05:56:46Z</time>
      </trkpt>
      <trkpt lat="44.25051" lon="3.52322">
        <ele>1120</ele>
        <time>2017-03-03T05:58:46Z</time>
      </trkpt>
      <trkpt lat="44.25053" lon="3.52316">
        <ele>1120</ele>
        <time>2017-03-03T06:00:46Z</time>
      </trkpt>
      <trkpt lat="44.25053" lon="3.5231">
        <ele>1121</ele>
        <time>2017-03-03T06:02:46Z</time>
      </trkpt>
      <trkpt lat="44.25059" lon="3.52315">
        <ele>1121</ele>
        <time>2017-03-03T06:04:46Z</time>
      </trkpt>
      <trkpt lat="44.25064" lon="3.52316">
        <ele>1121</ele>
        <time>2017-03-03T06:06:46Z</time>
      </trkpt>
      <trkpt lat="44.25074" lon="3.52313">
        <ele>1122</ele>
        <time>2017-03-03T06:08:46Z</time>
      </trkpt>
      <trkpt lat="44.2508" lon="3.52313">
        <ele>1123</ele>
        <time>2017-03-03T06:10:46Z</time>
      </trkpt>
      <trkpt lat="44.2509" lon="3.52317">
        <ele>1123</ele>
        <time>2017-03-03T06:12:46Z</time>
      </trkpt>
      <trkpt lat="44.25107" lon="3.52325">
        <ele>1124</ele>
        <time>2017-03-03T06:14:46Z</time>
      </trkpt>
      <trkpt lat="44.25129" lon="3.52341">
        <ele>1123</ele>
        <time>2017-03-03T06:16:46Z</time>
      </trkpt>
      <trkpt lat="44.25139" lon="3.52346">
        <ele>1123</ele>
        <time>2017-03-03T06:18:46Z</time>
      </trkpt>
      <trkpt lat="44.25148" lon="3.52352">
        <ele>1122</ele>
        <time>2017-03-03T06:20:46Z</time>
      </trkpt>
      <trkpt lat="44.25162" lon="3.52365">
        <ele>1121</ele>
        <time>2017-03-03T06:22:46Z</time>
      </trkpt>
      <trkpt lat="44.25175" lon="3.52375">
        <ele>1120</ele>
        <time>2017-03-03T06:24:46Z</time>
      </trkpt>
      <trkpt lat="44.25193" lon="3.52385">
        <ele>1121</ele>
        <time>2017-03-03T06:26:46Z</time>
      </trkpt>
      <trkpt lat="44.25207" lon="3.52391">
        <ele>1121</ele>
        <time>2017-03-03T06:28:46Z</time>
      </trkpt>
      <trkpt lat="44.25218" lon="3.52396">
        <ele>1121</ele>
        <time>2017-03-03T06:30:46Z</time>
      </trkpt>
      <trkpt lat="44.25239" lon="3.52402">
        <ele>1123</ele>
        <time>2017-03-03T06:32:46Z</time>
      </trkpt>
      <trkpt lat="44.25252" lon="3.52411">
        <ele>1122</ele>
        <time>2017-03-03T06:34:46Z</time>
      </trkpt>
      <trkpt lat="44.25266" lon="3.52426">
        <ele>1123</ele>
        <time>2017-03-03T06:36:46Z</time>
      </trkpt>
      <trkpt lat="44.25283" lon="3.52443">
        <ele>1123</ele>
        <time>2017-03-03T06:38:46Z</time>
      </trkpt>
      <trkpt lat="44.25304" lon="3.52466">
        <ele>1123</ele>
        <time>2017-03-03T06:40:46Z</time>
      </trkpt>
      <trkpt lat="44.25333" lon="3.52501">
        <ele>1123</ele>
        <time>2017-03-03T06:42:46Z</time>
      </trkpt>
      <trkpt lat="44.25342" lon="3.52513">
        <ele>1122</ele>
        <time>2017-03-03T06:44:46Z</time>
      </trkpt>
      <trkpt lat="44.25353" lon="3.52521">
        <ele>1122</ele>
        <time>2017-03-03T06:46:46Z</time>
      </trkpt>
      <trkpt lat="44.25362" lon="3.52525">
        <ele>1123</ele>
        <time>2017-03-03T06:48:46Z</time>
      </trkpt>
      <trkpt lat="44.25369" lon="3.52528">
        <ele>1123</ele>
        <time>2017-03-03T06:50:46Z</time>
      </trkpt>
      <trkpt lat="44.25379" lon="3.52531">
        <ele>1124</ele>
        <time>2017-03-03T06:52:46Z</time>
      </trkpt>
      <trkpt lat="44.2539" lon="3.52537">
        <ele>1125</ele>
        <time>2017-03-03T06:54:46Z</time>
      </trkpt>
      <trkpt lat="44.25401" lon="3.52545">
        <ele>1125</ele>
        <time>2017-03-03T06:56:46Z</time>
      </trkpt>
      <trkpt lat="44.25409" lon="3.52553">
        <ele>1124</ele>
        <time>2017-03-03T06:58:46Z</time>
      </trkpt>
      <trkpt lat="44.25421" lon="3.52571">
        <ele>1123</ele>
        <time>2017-03-03T07:00:46Z</time>
      </trkpt>
      <trkpt lat="44.25432" lon="3.52584">
        <ele>1122</ele>
        <time>2017-03-03T07:02:46Z</time>
      </trkpt>
      <trkpt lat="44.25442" lon="3.52599">
        <ele>1121</ele>
        <time>2017-03-03T07:04:46Z</time>
      </trkpt>
      <trkpt lat="44.25456" lon="3.52613">
        <ele>1121</ele>
        <time>2017-03-03T07:06:46Z</time>
      </trkpt>
      <trkpt lat="44.2548" lon="3.52626">
        <ele>1122</ele>
        <time>2017-03-03T07:08:46Z</time>
      </trkpt>
      <trkpt lat="44.25491" lon="3.52631">
        <ele>1123</ele>
        <time>2017-03-03T07:10:46Z</time>
      </trkpt>
      <trkpt lat="44.25499" lon="3.52636">
        <ele>1124</ele>
        <time>2017-03-03T07:12:46Z</time>
      </trkpt>
      <trkpt lat="44.25509" lon="3.52649">
        <ele>1122</ele>
        <time>2017-03-03T07:14:46Z</time>
      </trkpt>
      <trkpt lat="44.25524" lon="3.52663">
        <ele>1120</ele>
        <time>2017-03-03T07:16:46Z</time>
      </trkpt>
      <trkpt lat="44.25535" lon="3.52673">
        <ele>1119</ele>
        <time>2017-03-03T07:18:46Z</time>
      </trkpt>
      <trkpt lat="44.25545" lon="3.52683">
        <ele>1118</ele>
        <time>2017-03-03T07:20:46Z</time>
      </trkpt>
      <trkpt lat="44.25556" lon="3.5269">
        <ele>1118</ele>
        <time>2017-03-03T07:22:46Z</time>
      </trkpt>
      <trkpt lat="44.25572" lon="3.52697">
        <ele>1117</ele>
        <time>2017-03-03T07:24:46Z</time>
      </trkpt>
      <trkpt lat="44.25589" lon="3.52704">
        <ele>1117</ele>
        <time>2017-03-03T07:26:46Z</time>
      </trkpt>
      <trkpt lat="44.25607" lon="3.52715">
        <ele>1115</ele>
        <time>2017-03-03T07:28:46Z</time>
      </trkpt>
      <trkpt lat="44.25624" lon="3.52727">
        <ele>1113</ele>
        <time>2017-03-03T07:30:46Z</time>
      </trkpt>
      <trkpt lat="44.25641" lon="3.52747">
        <ele>1112</ele>
        <time>2017-03-03T07:32:46Z</time>
      </trkpt>
      <trkpt lat="44.2565" lon="3.52756">
        <ele>1111</ele>
        <time>2017-03-03T07:34:46Z</time>
      </trkpt>
      <trkpt lat="44.25666" lon="3.52749">
        <ele>1110</ele>
        <time>2017-03-03T07:36:46Z</time>
      </trkpt>
      <trkpt lat="44.25685" lon="3.52743">
        <ele>1109</ele>
        <time>2017-03-03T07:38:46Z</time>
      </trkpt>
      <trkpt lat="44.25702" lon="3.5274">
        <ele>1109</ele>
        <time>2017-03-03T07:40:46Z</time>
      </trkpt>
      <trkpt lat="44.25719" lon="3.52739">
        <ele>1108</ele>
        <time>2017-03-03T07:42:46Z</time>
      </trkpt>
      <trkpt lat="44.2574" lon="3.52735">
        <ele>1107</ele>
        <time>2017-03-03T07:44:46Z</time>
      </trkpt>
      <trkpt lat="44.25763" lon="3.52732">
        <ele>1107</ele>
        <time>2017-03-03T07:46:46Z</time>
      </trkpt>
      <trkpt lat="44.25783" lon="3.5273">
        <ele>1106</ele>
        <time>2017-03-03T07:48:46Z</time>
      </trkpt>
      <trkpt lat="44.25807" lon="3.52729">
        <ele>1106</ele>
        <time>2017-03-03T07:50:46Z</time>
      </trkpt>
      <trkpt lat="44.25824" lon="3.52729">
        <ele>1106</ele>
        <time>2017-03-03T07:52:46Z</time>
      </trkpt>
      <trkpt lat="44.25839" lon="3.52731">
        <ele>1105</ele>
        <time>2017-03-03T07:54:46Z</time>
      </trkpt>
      <trkpt lat="44.25851" lon="3.52737">
        <ele>1105</ele>
        <time>2017-03-03T07:56:46Z</time>
      </trkpt>
      <trkpt lat="44.2587" lon="3.52746">
        <ele>1105</ele>
        <time>2017-03-03T07:58:46Z</time>
      </trkpt>
      <trkpt lat="44.25887" lon="3.52756">
        <ele>1105</ele>
        <time>2017-03-03T08:00:46Z</time>
      </trkpt>
      <trkpt lat="44.25897" lon="3.5276">
        <ele>1105</ele>
        <time>2017-03-03T08:02:46Z</time>
      </trkpt>
      <trkpt lat="44.25906" lon="3.52761">
        <ele>1105</ele>
        <time>2017-03-03T08:04:46Z</time>
      </trkpt>
      <trkpt lat="44.25916" lon="3.5276">
        <ele>1105</ele>
        <time>2017-03-03T08:06:46Z</time>
      </trkpt>
      <trkpt lat="44.2593" lon="3.52756">
        <ele>1104</ele>
        <time>2017-03-03T08:08:46Z</time>
      </trkpt>
      <trkpt lat="44.25943" lon="3.52755">
        <ele>1104</ele>
        <time>2017-03-03T08:10:46Z</time>
      </trkpt>
      <trkpt lat="44.25967" lon="3.52754">
        <ele>1103</ele>
        <time>2017-03-03T08:12:46Z</time>
      </trkpt>
      <trkpt lat="44.25979" lon="3.52755">
        <ele>1103</ele>
        <time>2017-03-03T08:14:46Z</time>
      </trkpt>
      <trkpt lat="44.25995" lon="3.52755">
        <ele>1102</ele>
        <time>2017-03-03T08:16:46Z</time>
      </trkpt>
      <trkpt lat="44.26028" lon="3.52747">
        <ele>1101</ele>
        <time>2017-03-03T08:18:46Z</time>
      </trkpt>
      <trkpt lat="44.26053" lon="3.52737">
        <ele>1100</ele>
        <time>2017-03-03T08:20:46Z</time>
      </trkpt>
      <trkpt lat="44.26063" lon="3.52735">
        <ele>1100</ele>
        <time>2017-03-03T08:22:46Z</time>
      </trkpt>
      <trkpt lat="44.26075" lon="3.52735">
        <ele>1099</ele>
        <time>2017-03-03T08:24:46Z</time>
      </trkpt>
      <trkpt lat="44.26093" lon="3.52737">
        <ele>1099</ele>
        <time>2017-03-03T08:26:46Z</time>
      </trkpt>
      <trkpt lat="44.26108" lon="3.5274">
        <ele>1100</ele>
        <time>2017-03-03T08:28:46Z</time>
      </trkpt>
      <trkpt lat="44.2612" lon="3.52744">
        <ele>1100</ele>
        <time>2017-03-03T08:30:46Z</time>
      </trkpt>
      <trkpt lat="44.26129" lon="3.52751">
        <ele>1100</ele>
        <time>2017-03-03T08:32:46Z</time>
      </trkpt>
      <trkpt lat="44.26136" lon="3.5276">
        <ele>1100</ele>
        <time>2017-03-03T08:34:46Z</time>
      </trkpt>
      <trkpt lat="44.26141" lon="3.52771">
        <ele>1099</ele>
        <time>2017-03-03T08:36:46Z</time>
      </trkpt>
      <trkpt lat="44.26149" lon="3.52791">
        <ele>1098</ele>
        <time>2017-03-03T08:38:46Z</time>
      </trkpt>
      <trkpt lat="44.26154" lon="3.52801">
        <ele>1097</ele>
        <time>2017-03-03T08:40:46Z</time>
      </trkpt>
      <trkpt lat="44.26176" lon="3.52828">
        <ele>1094</ele>
        <time>2017-03-03T08:42:46Z</time>
      </trkpt>
      <trkpt lat="44.26195" lon="3.52853">
        <ele>1094</ele>
        <time>2017-03-03T08:44:46Z</time>
      </trkpt>
      <trkpt lat="44.26202" lon="3.52863">
        <ele>1094</ele>
        <time>2017-03-03T08:46:46Z</time>
      </trkpt>
      <trkpt lat="44.26208" lon="3.5287">
        <ele>1094</ele>
        <time>2017-03-03T08:48:46Z</time>
      </trkpt>
      <trkpt lat="44.26218" lon="3.5288">
        <ele>1093</ele>
        <time>2017-03-03T08:50:46Z</time>
      </trkpt>
      <trkpt lat="44.26227" lon="3.5289">
        <ele>1092</ele>
        <time>2017-03-03T08:52:46Z</time>
      </trkpt>
      <trkpt lat="44.26234" lon="3.52901">
        <ele>1091</ele>
        <time>2017-03-03T08:54:46Z</time>
      </trkpt>
      <trkpt lat="44.26243" lon="3.52911">
        <ele>1089</ele>
        <time>2017-03-03T08:56:46Z</time>
      </trkpt>
      <trkpt lat="44.26253" lon="3.52919">
        <ele>1088</ele>
        <time>2017-03-03T08:58:46Z</time>
      </trkpt>
      <trkpt lat="44.26259" lon="3.52922">
        <ele>1088</ele>
        <time>2017-03-03T09:00:46Z</time>
      </trkpt>
      <trkpt lat="44.26269" lon="3.52926">
        <ele>1088</ele>
        <time>2017-03-03T09:02:46Z</time>
      </trkpt>
      <trkpt lat="44.26281" lon="3.52931">
        <ele>1088</ele>
        <time>2017-03-03T09:04:46Z</time>
      </trkpt>
      <trkpt lat="44.26293" lon="3.52938">
        <ele>1087</ele>
        <time>2017-03-03T09:06:46Z</time>
      </trkpt>
      <trkpt lat="44.26306" lon="3.52945">
        <ele>1087</ele>
        <time>2017-03-03T09:08:46Z</time>
      </trkpt>
      <trkpt lat="44.26321" lon="3.52956">
        <ele>1086</ele>
        <time>2017-03-03T09:10:46Z</time>
      </trkpt>
      <trkpt lat="44.26349" lon="3.52978">
        <ele>1084</ele>
        <time>2017-03-03T09:12:46Z</time>
      </trkpt>
      <trkpt lat="44.26358" lon="3.52989">
        <ele>1083</ele>
        <time>2017-03-03T09:14:46Z</time>
      </trkpt>
      <trkpt lat="44.26371" lon="3.53013">
        <ele>1082</ele>
        <time>2017-03-03T09:16:46Z</time>
      </trkpt>
      <trkpt lat="44.26377" lon="3.53021">
        <ele>1082</ele>
        <time>2017-03-03T09:18:46Z</time>
      </trkpt>
      <trkpt lat="44.26404" lon="3.53047">
        <ele>1081</ele>
        <time>2017-03-03T09:20:46Z</time>
      </trkpt>
      <trkpt lat="44.26412" lon="3.53053">
        <ele>1080</ele>
        <time>2017-03-03T09:22:46Z</time>
      </trkpt>
      <trkpt lat="44.26418" lon="3.53055">
        <ele>1080</ele>
        <time>2017-03-03T09:24:46Z</time>
      </trkpt>
      <trkpt lat="44.26426" lon="3.53053">
        <ele>1080</ele>
        <time>2017-03-03T09:26:46Z</time>
      </trkpt>
      <trkpt lat="44.26432" lon="3.53048">
        <ele>1080</ele>
        <time>2017-03-03T09:28:46Z</time>
      </trkpt>
      <trkpt lat="44.26442" lon="3.53038">
        <ele>1080</ele>
        <time>2017-03-03T09:30:46Z</time>
      </trkpt>
      <trkpt lat="44.2645" lon="3.53026">
        <ele>1080</ele>
        <time>2017-03-03T09:32:46Z</time>
      </trkpt>
      <trkpt lat="44.26459" lon="3.53019">
        <ele>1080</ele>
        <time>2017-03-03T09:34:46Z</time>
      </trkpt>
      <trkpt lat="44.26467" lon="3.53017">
        <ele>1080</ele>
        <time>2017-03-03T09:36:46Z</time>
      </trkpt>
      <trkpt lat="44.26488" lon="3.53022">
        <ele>1079</ele>
        <time>2017-03-03T09:38:46Z</time>
      </trkpt>
      <trkpt lat="44.26498" lon="3.53023">
        <ele>1079</ele>
        <time>2017-03-03T09:40:46Z</time>
      </trkpt>
      <trkpt lat="44.26508" lon="3.53025">
        <ele>1079</ele>
        <time>2017-03-03T09:42:46Z</time>
      </trkpt>
      <trkpt lat="44.26516" lon="3.53029">
        <ele>1079</ele>
        <time>2017-03-03T09:44:46Z</time>
      </trkpt>
      <trkpt lat="44.26532" lon="3.53045">
        <ele>1080</ele>
        <time>2017-03-03T09:46:46Z</time>
      </trkpt>
      <trkpt lat="44.26602" lon="3.53121">
        <ele>1082</ele>
        <time>2017-03-03T09:48:46Z</time>
      </trkpt>
      <trkpt lat="44.26628" lon="3.53154">
        <ele>1084</ele>
        <time>2017-03-03T09:50:46Z</time>
      </trkpt>
      <trkpt lat="44.26642" lon="3.53173">
        <ele>1085</ele>
        <time>2017-03-03T09:52:46Z</time>
      </trkpt>
      <trkpt lat="44.26651" lon="3.53198">
        <ele>1085</ele>
        <time>2017-03-03T09:54:46Z</time>
      </trkpt>
      <trkpt lat="44.26662" lon="3.53229">
        <ele>1084</ele>
        <time>2017-03-03T09:56:46Z</time>
      </trkpt>
      <trkpt lat="44.26666" lon="3.53249">
        <ele>1084</ele>
        <time>2017-03-03T09:58:46Z</time>
      </trkpt>
      <trkpt lat="44.26669" lon="3.53278">
        <ele>1084</ele>
        <time>2017-03-03T10:00:46Z</time>
      </trkpt>
      <trkpt lat="44.26668" lon="3.53288">
        <ele>1084</ele>
        <time>2017-03-03T10:02:46Z</time>
      </trkpt>
      <trkpt lat="44.26657" lon="3.53327">
        <ele>1083</ele>
        <time>2017-03-03T10:04:46Z</time>
      </trkpt>
      <trkpt lat="44.26668" lon="3.53288">
        <ele>1084</ele>
        <time>2017-03-03T10:06:46Z</time>
      </trkpt>
      <trkpt lat="44.26669" lon="3.53278">
        <ele>1084</ele>
        <time>2017-03-03T10:08:46Z</time>
      </trkpt>
      <trkpt lat="44.26666" lon="3.53249">
        <ele>1084</ele>
        <time>2017-03-03T10:10:46Z</time>
      </trkpt>
      <trkpt lat="44.26662" lon="3.53229">
        <ele>1084</ele>
        <time>2017-03-03T10:12:46Z</time>
      </trkpt>
      <trkpt lat="44.26658" lon="3.53206">
        <ele>1085</ele>
        <time>2017-03-03T10:14:46Z</time>
      </trkpt>
      <trkpt lat="44.26657" lon="3.53187">
        <ele>1085</ele>
        <time>2017-03-03T10:16:46Z</time>
      </trkpt>
      <trkpt lat="44.2666" lon="3.53165">
        <ele>1086</ele>
        <time>2017-03-03T10:18:46Z</time>
      </trkpt>
      <trkpt lat="44.26663" lon="3.53152">
        <ele>1085</ele>
        <time>2017-03-03T10:20:46Z</time>
      </trkpt>
      <trkpt lat="44.26675" lon="3.53132">
        <ele>1086</ele>
        <time>2017-03-03T10:22:46Z</time>
      </trkpt>
      <trkpt lat="44.26703" lon="3.53034">
        <ele>1086</ele>
        <time>2017-03-03T10:24:46Z</time>
      </trkpt>
      <trkpt lat="44.26711" lon="3.53004">
        <ele>1086</ele>
        <time>2017-03-03T10:26:46Z</time>
      </trkpt>
      <trkpt lat="44.26718" lon="3.52952">
        <ele>1086</ele>
        <time>2017-03-03T10:28:46Z</time>
      </trkpt>
      <trkpt lat="44.26722" lon="3.52931">
        <ele>1086</ele>
        <time>2017-03-03T10:30:46Z</time>
      </trkpt>
      <trkpt lat="44.26735" lon="3.52897">
        <ele>1087</ele>
        <time>2017-03-03T10:32:46Z</time>
      </trkpt>
      <trkpt lat="44.26749" lon="3.52856">
        <ele>1088</ele>
        <time>2017-03-03T10:34:46Z</time>
      </trkpt>
      <trkpt lat="44.26757" lon="3.52827">
        <ele>1088</ele>
        <time>2017-03-03T10:36:46Z</time>
      </trkpt>
      <trkpt lat="44.26766" lon="3.52798">
        <ele>1088</ele>
        <time>2017-03-03T10:38:46Z</time>
      </trkpt>
      <trkpt lat="44.26787" lon="3.52741">
        <ele>1088</ele>
        <time>2017-03-03T10:40:46Z</time>
      </trkpt>
      <trkpt lat="44.268" lon="3.52701">
        <ele>1088</ele>
        <time>2017-03-03T10:42:46Z</time>
      </trkpt>
      <trkpt lat="44.26806" lon="3.52664">
        <ele>1087</ele>
        <time>2017-03-03T10:44:46Z</time>
      </trkpt>
      <trkpt lat="44.26819" lon="3.52623">
        <ele>1088</ele>
        <time>2017-03-03T10:46:46Z</time>
      </trkpt>
      <trkpt lat="44.26823" lon="3.52605">
        <ele>1088</ele>
        <time>2017-03-03T10:48:46Z</time>
      </trkpt>
      <trkpt lat="44.26826" lon="3.526">
        <ele>1088</ele>
        <time>2017-03-03T10:50:46Z</time>
      </trkpt>
      <trkpt lat="44.2683" lon="3.52593">
        <ele>1088</ele>
        <time>2017-03-03T10:52:46Z</time>
      </trkpt>
      <trkpt lat="44.26835" lon="3.52575">
        <ele>1088</ele>
        <time>2017-03-03T10:54:46Z</time>
      </trkpt>
      <trkpt lat="44.2684" lon="3.52558">
        <ele>1088</ele>
        <time>2017-03-03T10:56:46Z</time>
      </trkpt>
      <trkpt lat="44.26847" lon="3.52539">
        <ele>1088</ele>
        <time>2017-03-03T10:58:46Z</time>
      </trkpt>
      <trkpt lat="44.26857" lon="3.52518">
        <ele>1089</ele>
        <time>2017-03-03T11:00:46Z</time>
      </trkpt>
      <trkpt lat="44.26866" lon="3.52502">
        <ele>1090</ele>
        <time>2017-03-03T11:02:46Z</time>
      </trkpt>
      <trkpt lat="44.26878" lon="3.52488">
        <ele>1091</ele>
        <time>2017-03-03T11:04:46Z</time>
      </trkpt>
      <trkpt lat="44.26886" lon="3.52476">
        <ele>1091</ele>
        <time>2017-03-03T11:06:46Z</time>
      </trkpt>
      <trkpt lat="44.26895" lon="3.52466">
        <ele>1092</ele>
        <time>2017-03-03T11:08:46Z</time>
      </trkpt>
      <trkpt lat="44.26895" lon="3.52461">
        <ele>1092</ele>
        <time>2017-03-03T11:10:46Z</time>
      </trkpt>
      <trkpt lat="44.26894" lon="3.52451">
        <ele>1092</ele>
        <time>2017-03-03T11:12:46Z</time>
      </trkpt>
      <trkpt lat="44.26893" lon="3.52442">
        <ele>1092</ele>
        <time>2017-03-03T11:14:46Z</time>
      </trkpt>
      <trkpt lat="44.26894" lon="3.52421">
        <ele>1091</ele>
        <time>2017-03-03T11:16:46Z</time>
      </trkpt>
      <trkpt lat="44.26894" lon="3.52404">
        <ele>1091</ele>
        <time>2017-03-03T11:18:46Z</time>
      </trkpt>
      <trkpt lat="44.26895" lon="3.52387">
        <ele>1091</ele>
        <time>2017-03-03T11:20:46Z</time>
      </trkpt>
      <trkpt lat="44.26898" lon="3.52373">
        <ele>1091</ele>
        <time>2017-03-03T11:22:46Z</time>
      </trkpt>
      <trkpt lat="44.26898" lon="3.52366">
        <ele>1091</ele>
        <time>2017-03-03T11:24:46Z</time>
      </trkpt>
      <trkpt lat="44.26894" lon="3.52355">
        <ele>1091</ele>
        <time>2017-03-03T11:26:46Z</time>
      </trkpt>
      <trkpt lat="44.26892" lon="3.52345">
        <ele>1091</ele>
        <time>2017-03-03T11:28:46Z</time>
      </trkpt>
      <trkpt lat="44.26892" lon="3.52326">
        <ele>1091</ele>
        <time>2017-03-03T11:30:46Z</time>
      </trkpt>
      <trkpt lat="44.26894" lon="3.52318">
        <ele>1090</ele>
        <time>2017-03-03T11:32:46Z</time>
      </trkpt>
      <trkpt lat="44.26899" lon="3.52312">
        <ele>1090</ele>
        <time>2017-03-03T11:34:46Z</time>
      </trkpt>
      <trkpt lat="44.26906" lon="3.52307">
        <ele>1089</ele>
        <time>2017-03-03T11:36:46Z</time>
      </trkpt>
      <trkpt lat="44.2691" lon="3.52299">
        <ele>1089</ele>
        <time>2017-03-03T11:38:46Z</time>
      </trkpt>
      <trkpt lat="44.26913" lon="3.52288">
        <ele>1088</ele>
        <time>2017-03-03T11:40:46Z</time>
      </trkpt>
      <trkpt lat="44.26915" lon="3.52272">
        <ele>1087</ele>
        <time>2017-03-03T11:42:46Z</time>
      </trkpt>
      <trkpt lat="44.26914" lon="3.52253">
        <ele>1085</ele>
        <time>2017-03-03T11:44:46Z</time>
      </trkpt>
      <trkpt lat="44.26911" lon="3.52236">
        <ele>1084</ele>
        <time>2017-03-03T11:46:46Z</time>
      </trkpt>
      <trkpt lat="44.26898" lon="3.52176">
        <ele>1080</ele>
        <time>2017-03-03T11:48:46Z</time>
      </trkpt>
      <trkpt lat="44.26895" lon="3.52157">
        <ele>1079</ele>
        <time>2017-03-03T11:50:46Z</time>
      </trkpt>
      <trkpt lat="44.26893" lon="3.52139">
        <ele>1078</ele>
        <time>2017-03-03T11:52:46Z</time>
      </trkpt>
      <trkpt lat="44.2689" lon="3.52119">
        <ele>1077</ele>
        <time>2017-03-03T11:54:46Z</time>
      </trkpt>
      <trkpt lat="44.26886" lon="3.52099">
        <ele>1077</ele>
        <time>2017-03-03T11:56:46Z</time>
      </trkpt>
      <trkpt lat="44.26885" lon="3.52084">
        <ele>1076</ele>
        <time>2017-03-03T11:58:46Z</time>
      </trkpt>
      <trkpt lat="44.26885" lon="3.52072">
        <ele>1075</ele>
        <time>2017-03-03T12:00:46Z</time>
      </trkpt>
      <trkpt lat="44.26886" lon="3.52065">
        <ele>1075</ele>
        <time>2017-03-03T12:02:46Z</time>
      </trkpt>
      <trkpt lat="44.26889" lon="3.5206">
        <ele>1075</ele>
        <time>2017-03-03T12:04:46Z</time>
      </trkpt>
      <trkpt lat="44.26893" lon="3.52059">
        <ele>1074</ele>
        <time>2017-03-03T12:06:46Z</time>
      </trkpt>
      <trkpt lat="44.26898" lon="3.5206">
        <ele>1073</ele>
        <time>2017-03-03T12:08:46Z</time>
      </trkpt>
      <trkpt lat="44.26904" lon="3.52067">
        <ele>1072</ele>
        <time>2017-03-03T12:10:46Z</time>
      </trkpt>
      <trkpt lat="44.26918" lon="3.5209">
        <ele>1069</ele>
        <time>2017-03-03T12:12:46Z</time>
      </trkpt>
      <trkpt lat="44.26956" lon="3.52153">
        <ele>1068</ele>
        <time>2017-03-03T12:14:46Z</time>
      </trkpt>
      <trkpt lat="44.26969" lon="3.52176">
        <ele>1068</ele>
        <time>2017-03-03T12:16:46Z</time>
      </trkpt>
      <trkpt lat="44.26977" lon="3.52189">
        <ele>1068</ele>
        <time>2017-03-03T12:18:46Z</time>
      </trkpt>
      <trkpt lat="44.26983" lon="3.52195">
        <ele>1067</ele>
        <time>2017-03-03T12:20:46Z</time>
      </trkpt>
      <trkpt lat="44.26994" lon="3.52201">
        <ele>1066</ele>
        <time>2017-03-03T12:22:46Z</time>
      </trkpt>
      <trkpt lat="44.2701" lon="3.52209">
        <ele>1065</ele>
        <time>2017-03-03T12:24:46Z</time>
      </trkpt>
      <trkpt lat="44.27022" lon="3.52212">
        <ele>1065</ele>
        <time>2017-03-03T12:26:46Z</time>
      </trkpt>
      <trkpt lat="44.27043" lon="3.52214">
        <ele>1064</ele>
        <time>2017-03-03T12:28:46Z</time>
      </trkpt>
      <trkpt lat="44.27056" lon="3.52216">
        <ele>1063</ele>
        <time>2017-03-03T12:30:46Z</time>
      </trkpt>
      <trkpt lat="44.27064" lon="3.52217">
        <ele>1063</ele>
        <time>2017-03-03T12:32:46Z</time>
      </trkpt>
      <trkpt lat="44.2707" lon="3.52215">
        <ele>1062</ele>
        <time>2017-03-03T12:34:46Z</time>
      </trkpt>
      <trkpt lat="44.27076" lon="3.5221">
        <ele>1061</ele>
        <time>2017-03-03T12:36:46Z</time>
      </trkpt>
      <trkpt lat="44.27084" lon="3.52198">
        <ele>1059</ele>
        <time>2017-03-03T12:38:46Z</time>
      </trkpt>
      <trkpt lat="44.27092" lon="3.52185">
        <ele>1058</ele>
        <time>2017-03-03T12:40:46Z</time>
      </trkpt>
      <trkpt lat="44.27102" lon="3.52175">
        <ele>1057</ele>
        <time>2017-03-03T12:42:46Z</time>
      </trkpt>
      <trkpt lat="44.27114" lon="3.52167">
        <ele>1055</ele>
        <time>2017-03-03T12:44:46Z</time>
      </trkpt>
      <trkpt lat="44.27129" lon="3.52158">
        <ele>1054</ele>
        <time>2017-03-03T12:46:46Z</time>
      </trkpt>
      <trkpt lat="44.27142" lon="3.5215">
        <ele>1052</ele>
        <time>2017-03-03T12:48:46Z</time>
      </trkpt>
      <trkpt lat="44.27145" lon="3.52149">
        <ele>1052</ele>
        <time>2017-03-03T12:50:46Z</time>
      </trkpt>
      <trkpt lat="44.27147" lon="3.52165">
        <ele>1054</ele>
        <time>2017-03-03T12:52:46Z</time>
      </trkpt>
      <trkpt lat="44.27145" lon="3.52149">
        <ele>1052</ele>
        <time>2017-03-03T12:54:46Z</time>
      </trkpt>
      <trkpt lat="44.27151" lon="3.52148">
        <ele>1052</ele>
        <time>2017-03-03T12:56:46Z</time>
      </trkpt>
      <trkpt lat="44.27161" lon="3.52147">
        <ele>1051</ele>
        <time>2017-03-03T12:58:46Z</time>
      </trkpt>
      <trkpt lat="44.27181" lon="3.52148">
        <ele>1051</ele>
        <time>2017-03-03T13:00:46Z</time>
      </trkpt>
      <trkpt lat="44.27189" lon="3.52146">
        <ele>1050</ele>
        <time>2017-03-03T13:02:46Z</time>
      </trkpt>
      <trkpt lat="44.27212" lon="3.52137">
        <ele>1048</ele>
        <time>2017-03-03T13:04:46Z</time>
      </trkpt>
      <trkpt lat="44.27234" lon="3.52129">
        <ele>1046</ele>
        <time>2017-03-03T13:06:46Z</time>
      </trkpt>
      <trkpt lat="44.27244" lon="3.52127">
        <ele>1045</ele>
        <time>2017-03-03T13:08:46Z</time>
      </trkpt>
      <trkpt lat="44.27253" lon="3.52126">
        <ele>1044</ele>
        <time>2017-03-03T13:10:46Z</time>
      </trkpt>
      <trkpt lat="44.27294" lon="3.52131">
        <ele>1042</ele>
        <time>2017-03-03T13:12:46Z</time>
      </trkpt>
      <trkpt lat="44.27308" lon="3.52131">
        <ele>1041</ele>
        <time>2017-03-03T13:14:46Z</time>
      </trkpt>
      <trkpt lat="44.27319" lon="3.5213">
        <ele>1040</ele>
        <time>2017-03-03T13:16:46Z</time>
      </trkpt>
      <trkpt lat="44.27329" lon="3.52126">
        <ele>1038</ele>
        <time>2017-03-03T13:18:46Z</time>
      </trkpt>
      <trkpt lat="44.27335" lon="3.52122">
        <ele>1038</ele>
        <time>2017-03-03T13:20:46Z</time>
      </trkpt>
      <trkpt lat="44.27338" lon="3.52117">
        <ele>1037</ele>
        <time>2017-03-03T13:22:46Z</time>
      </trkpt>
      <trkpt lat="44.27343" lon="3.52102">
        <ele>1035</ele>
        <time>2017-03-03T13:24:46Z</time>
      </trkpt>
      <trkpt lat="44.27348" lon="3.52084">
        <ele>1033</ele>
        <time>2017-03-03T13:26:46Z</time>
      </trkpt>
      <trkpt lat="44.27352" lon="3.52069">
        <ele>1031</ele>
        <time>2017-03-03T13:28:46Z</time>
      </trkpt>
      <trkpt lat="44.2736" lon="3.52052">
        <ele>1030</ele>
        <time>2017-03-03T13:30:46Z</time>
      </trkpt>
      <trkpt lat="44.27366" lon="3.52044">
        <ele>1029</ele>
        <time>2017-03-03T13:32:46Z</time>
      </trkpt>
      <trkpt lat="44.27375" lon="3.52035">
        <ele>1028</ele>
        <time>2017-03-03T13:34:46Z</time>
      </trkpt>
      <trkpt lat="44.27381" lon="3.52028">
        <ele>1027</ele>
        <time>2017-03-03T13:36:46Z</time>
      </trkpt>
      <trkpt lat="44.27386" lon="3.52019">
        <ele>1026</ele>
        <time>2017-03-03T13:38:46Z</time>
      </trkpt>
      <trkpt lat="44.27389" lon="3.52009">
        <ele>1025</ele>
        <time>2017-03-03T13:40:46Z</time>
      </trkpt>
      <trkpt lat="44.27395" lon="3.52001">
        <ele>1024</ele>
        <time>2017-03-03T13:42:46Z</time>
      </trkpt>
      <trkpt lat="44.27408" lon="3.5199">
        <ele>1023</ele>
        <time>2017-03-03T13:44:46Z</time>
      </trkpt>
      <trkpt lat="44.27418" lon="3.5198">
        <ele>1022</ele>
        <time>2017-03-03T13:46:46Z</time>
      </trkpt>
      <trkpt lat="44.27428" lon="3.51969">
        <ele>1021</ele>
        <time>2017-03-03T13:48:46Z</time>
      </trkpt>
      <trkpt lat="44.27439" lon="3.51953">
        <ele>1020</ele>
        <time>2017-03-03T13:50:46Z</time>
      </trkpt>
      <trkpt lat="44.27447" lon="3.51944">
        <ele>1019</ele>
        <time>2017-03-03T13:52:46Z</time>
      </trkpt>
      <trkpt lat="44.27458" lon="3.51934">
        <ele>1019</ele>
        <time>2017-03-03T13:54:46Z</time>
      </trkpt>
      <trkpt lat="44.27459" lon="3.51929">
        <ele>1018</ele>
        <time>2017-03-03T13:56:46Z</time>
      </trkpt>
      <trkpt lat="44.27476" lon="3.51925">
        <ele>1018</ele>
        <time>2017-03-03T13:58:46Z</time>
      </trkpt>
      <trkpt lat="44.27527" lon="3.51896">
        <ele>1015</ele>
        <time>2017-03-03T14:00:46Z</time>
      </trkpt>
      <trkpt lat="44.27586" lon="3.51867">
        <ele>1013</ele>
        <time>2017-03-03T14:02:46Z</time>
      </trkpt>
      <trkpt lat="44.27665" lon="3.51858">
        <ele>1010</ele>
        <time>2017-03-03T14:04:46Z</time>
      </trkpt>
      <trkpt lat="44.27702" lon="3.5184">
        <ele>1008</ele>
        <time>2017-03-03T14:06:46Z</time>
      </trkpt>
      <trkpt lat="44.27752" lon="3.518">
        <ele>1004</ele>
        <time>2017-03-03T14:08:46Z</time>
      </trkpt>
      <trkpt lat="44.27763" lon="3.51795">
        <ele>1003</ele>
        <time>2017-03-03T14:10:46Z</time>
      </trkpt>
      <trkpt lat="44.27783" lon="3.51791">
        <ele>1002</ele>
        <time>2017-03-03T14:12:46Z</time>
      </trkpt>
      <trkpt lat="44.27823" lon="3.51786">
        <ele>999</ele>
        <time>2017-03-03T14:14:46Z</time>
      </trkpt>
      <trkpt lat="44.27861" lon="3.51789">
        <ele>998</ele>
        <time>2017-03-03T14:16:46Z</time>
      </trkpt>
      <trkpt lat="44.27875" lon="3.51788">
        <ele>997</ele>
        <time>2017-03-03T14:18:46Z</time>
      </trkpt>
      <trkpt lat="44.27894" lon="3.51787">
        <ele>996</ele>
        <time>2017-03-03T14:20:46Z</time>
      </trkpt>
      <trkpt lat="44.27908" lon="3.51787">
        <ele>995</ele>
        <time>2017-03-03T14:22:46Z</time>
      </trkpt>
      <trkpt lat="44.27917" lon="3.51789">
        <ele>995</ele>
        <time>2017-03-03T14:24:46Z</time>
      </trkpt>
      <trkpt lat="44.2794" lon="3.51797">
        <ele>994</ele>
        <time>2017-03-03T14:26:46Z</time>
      </trkpt>
      <trkpt lat="44.27967" lon="3.51802">
        <ele>992</ele>
        <time>2017-03-03T14:28:46Z</time>
      </trkpt>
      <trkpt lat="44.27979" lon="3.51807">
        <ele>992</ele>
        <time>2017-03-03T14:30:46Z</time>
      </trkpt>
      <trkpt lat="44.27991" lon="3.51812">
        <ele>991</ele>
        <time>2017-03-03T14:32:46Z</time>
      </trkpt>
      <trkpt lat="44.28016" lon="3.51817">
        <ele>990</ele>
        <time>2017-03-03T14:34:46Z</time>
      </trkpt>
      <trkpt lat="44.28028" lon="3.51821">
        <ele>989</ele>
        <time>2017-03-03T14:36:46Z</time>
      </trkpt>
      <trkpt lat="44.28038" lon="3.51827">
        <ele>989</ele>
        <time>2017-03-03T14:38:46Z</time>
      </trkpt>
      <trkpt lat="44.28047" lon="3.51831">
        <ele>988</ele>
        <time>2017-03-03T14:40:46Z</time>
      </trkpt>
      <trkpt lat="44.28063" lon="3.51833">
        <ele>988</ele>
        <time>2017-03-03T14:42:46Z</time>
      </trkpt>
      <trkpt lat="44.2808" lon="3.51836">
        <ele>987</ele>
        <time>2017-03-03T14:44:46Z</time>
      </trkpt>
      <trkpt lat="44.28097" lon="3.51841">
        <ele>987</ele>
        <time>2017-03-03T14:46:46Z</time>
      </trkpt>
      <trkpt lat="44.28124" lon="3.51846">
        <ele>986</ele>
        <time>2017-03-03T14:48:46Z</time>
      </trkpt>
      <trkpt lat="44.28145" lon="3.51853">
        <ele>985</ele>
        <time>2017-03-03T14:50:46Z</time>
      </trkpt>
      <trkpt lat="44.28174" lon="3.51861">
        <ele>984</ele>
        <time>2017-03-03T14:52:46Z</time>
      </trkpt>
      <trkpt lat="44.28198" lon="3.51867">
        <ele>983</ele>
        <time>2017-03-03T14:54:46Z</time>
      </trkpt>
      <trkpt lat="44.28221" lon="3.51874">
        <ele>983</ele>
        <time>2017-03-03T14:56:46Z</time>
      </trkpt>
      <trkpt lat="44.2824" lon="3.51881">
        <ele>982</ele>
        <time>2017-03-03T14:58:46Z</time>
      </trkpt>
      <trkpt lat="44.28263" lon="3.51892">
        <ele>981</ele>
        <time>2017-03-03T15:00:46Z</time>
      </trkpt>
      <trkpt lat="44.28293" lon="3.51904">
        <ele>980</ele>
        <time>2017-03-03T15:02:46Z</time>
      </trkpt>
      <trkpt lat="44.2832" lon="3.51913">
        <ele>979</ele>
        <time>2017-03-03T15:04:46Z</time>
      </trkpt>
      <trkpt lat="44.28342" lon="3.5192">
        <ele>978</ele>
        <time>2017-03-03T15:06:46Z</time>
      </trkpt>
      <trkpt lat="44.28367" lon="3.51925">
        <ele>977</ele>
        <time>2017-03-03T15:08:46Z</time>
      </trkpt>
      <trkpt lat="44.28405" lon="3.51934">
        <ele>976</ele>
        <time>2017-03-03T15:10:46Z</time>
      </trkpt>
      <trkpt lat="44.28434" lon="3.5194">
        <ele>976</ele>
        <time>2017-03-03T15:12:46Z</time>
      </trkpt>
      <trkpt lat="44.28462" lon="3.51947">
        <ele>975</ele>
        <time>2017-03-03T15:14:46Z</time>
      </trkpt>
      <trkpt lat="44.28475" lon="3.5195">
        <ele>975</ele>
        <time>2017-03-03T15:16:46Z</time>
      </trkpt>
      <trkpt lat="44.28509" lon="3.51953">
        <ele>974</ele>
        <time>2017-03-03T15:18:46Z</time>
      </trkpt>
      <trkpt lat="44.28513" lon="3.51964">
        <ele>974</ele>
        <time>2017-03-03T15:20:46Z</time>
      </trkpt>
      <trkpt lat="44.28519" lon="3.51972">
        <ele>974</ele>
        <time>2017-03-03T15:22:46Z</time>
      </trkpt>
      <trkpt lat="44.2853" lon="3.51979">
        <ele>973</ele>
        <time>2017-03-03T15:24:46Z</time>
      </trkpt>
      <trkpt lat="44.2855" lon="3.51984">
        <ele>972</ele>
        <time>2017-03-03T15:26:46Z</time>
      </trkpt>
      <trkpt lat="44.28575" lon="3.51986">
        <ele>971</ele>
        <time>2017-03-03T15:28:46Z</time>
      </trkpt>
      <trkpt lat="44.28614" lon="3.51992">
        <ele>970</ele>
        <time>2017-03-03T15:30:46Z</time>
      </trkpt>
      <trkpt lat="44.28638" lon="3.51998">
        <ele>970</ele>
        <time>2017-03-03T15:32:46Z</time>
      </trkpt>
      <trkpt lat="44.28681" lon="3.52008">
        <ele>970</ele>
        <time>2017-03-03T15:34:46Z</time>
      </trkpt>
      <trkpt lat="44.28716" lon="3.52017">
        <ele>969</ele>
        <time>2017-03-03T15:36:46Z</time>
      </trkpt>
      <trkpt lat="44.28747" lon="3.52025">
        <ele>968</ele>
        <time>2017-03-03T15:38:46Z</time>
      </trkpt>
      <trkpt lat="44.28773" lon="3.5203">
        <ele>967</ele>
        <time>2017-03-03T15:40:46Z</time>
      </trkpt>
      <trkpt lat="44.28791" lon="3.52033">
        <ele>967</ele>
        <time>2017-03-03T15:42:46Z</time>
      </trkpt>
      <trkpt lat="44.28808" lon="3.52038">
        <ele>967</ele>
        <time>2017-03-03T15:44:46Z</time>
      </trkpt>
      <trkpt lat="44.28816" lon="3.52038">
        <ele>966</ele>
        <time>2017-03-03T15:46:46Z</time>
      </trkpt>
      <trkpt lat="44.28824" lon="3.52036">
        <ele>966</ele>
        <time>2017-03-03T15:48:46Z</time>
      </trkpt>
      <trkpt lat="44.28832" lon="3.52031">
        <ele>966</ele>
        <time>2017-03-03T15:50:46Z</time>
      </trkpt>
      <trkpt lat="44.28839" lon="3.52022">
        <ele>966</ele>
        <time>2017-03-03T15:52:46Z</time>
      </trkpt>
      <trkpt lat="44.28846" lon="3.52005">
        <ele>966</ele>
        <time>2017-03-03T15:54:46Z</time>
      </trkpt>
      <trkpt lat="44.28854" lon="3.51983">
        <ele>966</ele>
        <time>2017-03-03T15:56:46Z</time>
      </trkpt>
      <trkpt lat="44.28862" lon="3.51965">
        <ele>966</ele>
        <time>2017-03-03T15:58:46Z</time>
      </trkpt>
      <trkpt lat="44.28869" lon="3.51954">
        <ele>967</ele>
        <time>2017-03-03T16:00:46Z</time>
      </trkpt>
      <trkpt lat="44.28876" lon="3.51947">
        <ele>966</ele>
        <time>2017-03-03T16:02:46Z</time>
      </trkpt>
      <trkpt lat="44.28885" lon="3.51942">
        <ele>966</ele>
        <time>2017-03-03T16:04:46Z</time>
      </trkpt>
      <trkpt lat="44.28893" lon="3.51941">
        <ele>966</ele>
        <time>2017-03-03T16:06:46Z</time>
      </trkpt>
      <trkpt lat="44.28902" lon="3.51943">
        <ele>966</ele>
        <time>2017-03-03T16:08:46Z</time>
      </trkpt>
      <trkpt lat="44.2892" lon="3.51951">
        <ele>965</ele>
        <time>2017-03-03T16:10:46Z</time>
      </trkpt>
      <trkpt lat="44.28945" lon="3.51963">
        <ele>965</ele>
        <time>2017-03-03T16:12:46Z</time>
      </trkpt>
      <trkpt lat="44.29022" lon="3.51995">
        <ele>964</ele>
        <time>2017-03-03T16:14:46Z</time>
      </trkpt>
      <trkpt lat="44.29063" lon="3.52015">
        <ele>963</ele>
        <time>2017-03-03T16:16:46Z</time>
      </trkpt>
      <trkpt lat="44.29096" lon="3.52029">
        <ele>963</ele>
        <time>2017-03-03T16:18:46Z</time>
      </trkpt>
      <trkpt lat="44.29145" lon="3.52046">
        <ele>962</ele>
        <time>2017-03-03T16:20:46Z</time>
      </trkpt>
      <trkpt lat="44.29193" lon="3.52062">
        <ele>961</ele>
        <time>2017-03-03T16:22:46Z</time>
      </trkpt>
      <trkpt lat="44.2923" lon="3.52074">
        <ele>961</ele>
        <time>2017-03-03T16:24:46Z</time>
      </trkpt>
      <trkpt lat="44.29271" lon="3.52086">
        <ele>961</ele>
        <time>2017-03-03T16:26:46Z</time>
      </trkpt>
      <trkpt lat="44.29308" lon="3.52095">
        <ele>961</ele>
        <time>2017-03-03T16:28:46Z</time>
      </trkpt>
      <trkpt lat="44.29351" lon="3.52105">
        <ele>961</ele>
        <time>2017-03-03T16:30:46Z</time>
      </trkpt>
      <trkpt lat="44.29434" lon="3.52124">
        <ele>964</ele>
        <time>2017-03-03T16:32:46Z</time>
      </trkpt>
      <trkpt lat="44.29443" lon="3.52125">
        <ele>965</ele>
        <time>2017-03-03T16:34:46Z</time>
      </trkpt>
      <trkpt lat="44.29475" lon="3.5212">
        <ele>967</ele>
        <time>2017-03-03T16:36:46Z</time>
      </trkpt>
      <trkpt lat="44.29483" lon="3.52123">
        <ele>967</ele>
        <time>2017-03-03T16:38:46Z</time>
      </trkpt>
      <trkpt lat="44.2949" lon="3.52128">
        <ele>968</ele>
        <time>2017-03-03T16:40:46Z</time>
      </trkpt>
      <trkpt lat="44.295" lon="3.5214">
        <ele>968</ele>
        <time>2017-03-03T16:42:46Z</time>
      </trkpt>
      <trkpt lat="44.29514" lon="3.52157">
        <ele>968</ele>
        <time>2017-03-03T16:44:46Z</time>
      </trkpt>
      <trkpt lat="44.2953" lon="3.52175">
        <ele>969</ele>
        <time>2017-03-03T16:46:46Z</time>
      </trkpt>
      <trkpt lat="44.29544" lon="3.5219">
        <ele>969</ele>
        <time>2017-03-03T16:48:46Z</time>
      </trkpt>
      <trkpt lat="44.29573" lon="3.52213">
        <ele>970</ele>
        <time>2017-03-03T16:50:46Z</time>
      </trkpt>
      <trkpt lat="44.29589" lon="3.52228">
        <ele>970</ele>
        <time>2017-03-03T16:52:46Z</time>
      </trkpt>
      <trkpt lat="44.29598" lon="3.52237">
        <ele>971</ele>
        <time>2017-03-03T16:54:46Z</time>
      </trkpt>
      <trkpt lat="44.29611" lon="3.52256">
        <ele>971</ele>
        <time>2017-03-03T16:56:46Z</time>
      </trkpt>
      <trkpt lat="44.29631" lon="3.52282">
        <ele>972</ele>
        <time>2017-03-03T16:58:46Z</time>
      </trkpt>
      <trkpt lat="44.29654" lon="3.52308">
        <ele>973</ele>
        <time>2017-03-03T17:00:46Z</time>
      </trkpt>
      <trkpt lat="44.29668" lon="3.52326">
        <ele>973</ele>
        <time>2017-03-03T17:02:46Z</time>
      </trkpt>
      <trkpt lat="44.29675" lon="3.52332">
        <ele>973</ele>
        <time>2017-03-03T17:04:46Z</time>
      </trkpt>
      <trkpt lat="44.29686" lon="3.52337">
        <ele>973</ele>
        <time>2017-03-03T17:06:46Z</time>
      </trkpt>
      <trkpt lat="44.29717" lon="3.52353">
        <ele>973</ele>
        <time>2017-03-03T17:08:46Z</time>
      </trkpt>
      <trkpt lat="44.29749" lon="3.52369">
        <ele>972</ele>
        <time>2017-03-03T17:10:46Z</time>
      </trkpt>
      <trkpt lat="44.29763" lon="3.52378">
        <ele>971</ele>
        <time>2017-03-03T17:12:46Z</time>
      </trkpt>
      <trkpt lat="44.29777" lon="3.52385">
        <ele>971</ele>
        <time>2017-03-03T17:14:46Z</time>
      </trkpt>
      <trkpt lat="44.29821" lon="3.52406">
        <ele>969</ele>
        <time>2017-03-03T17:16:46Z</time>
      </trkpt>
      <trkpt lat="44.29876" lon="3.52436">
        <ele>970</ele>
        <time>2017-03-03T17:18:46Z</time>
      </trkpt>
      <trkpt lat="44.29895" lon="3.52445">
        <ele>971</ele>
        <time>2017-03-03T17:20:46Z</time>
      </trkpt>
      <trkpt lat="44.29912" lon="3.52456">
        <ele>971</ele>
        <time>2017-03-03T17:22:46Z</time>
      </trkpt>
      <trkpt lat="44.29921" lon="3.52464">
        <ele>971</ele>
        <time>2017-03-03T17:24:46Z</time>
      </trkpt>
      <trkpt lat="44.29932" lon="3.52478">
        <ele>970</ele>
        <time>2017-03-03T17:26:46Z</time>
      </trkpt>
      <trkpt lat="44.29937" lon="3.5249">
        <ele>969</ele>
        <time>2017-03-03T17:28:46Z</time>
      </trkpt>
      <trkpt lat="44.29943" lon="3.52518">
        <ele>968</ele>
        <time>2017-03-03T17:30:46Z</time>
      </trkpt>
      <trkpt lat="44.29951" lon="3.5254">
        <ele>968</ele>
        <time>2017-03-03T17:32:46Z</time>
      </trkpt>
      <trkpt lat="44.29957" lon="3.5256">
        <ele>968</ele>
        <time>2017-03-03T17:34:46Z</time>
      </trkpt>
      <trkpt lat="44.29958" lon="3.52576">
        <ele>968</ele>
        <time>2017-03-03T17:36:46Z</time>
      </trkpt>
      <trkpt lat="44.29962" lon="3.52628">
        <ele>968</ele>
        <time>2017-03-03T17:38:46Z</time>
      </trkpt>
      <trkpt lat="44.29964" lon="3.52641">
        <ele>968</ele>
        <time>2017-03-03T17:40:46Z</time>
      </trkpt>
      <trkpt lat="44.29967" lon="3.52651">
        <ele>969</ele>
        <time>2017-03-03T17:42:46Z</time>
      </trkpt>
      <trkpt lat="44.29969" lon="3.52654">
        <ele>969</ele>
        <time>2017-03-03T17:44:46Z</time>
      </trkpt>
      <trkpt lat="44.29974" lon="3.52663">
        <ele>970</ele>
        <time>2017-03-03T17:46:46Z</time>
      </trkpt>
      <trkpt lat="44.29978" lon="3.52675">
        <ele>970</ele>
        <time>2017-03-03T17:48:46Z</time>
      </trkpt>
      <trkpt lat="44.2998" lon="3.52687">
        <ele>971</ele>
        <time>2017-03-03T17:50:46Z</time>
      </trkpt>
      <trkpt lat="44.2998" lon="3.52703">
        <ele>971</ele>
        <time>2017-03-03T17:52:46Z</time>
      </trkpt>
      <trkpt lat="44.29981" lon="3.52715">
        <ele>972</ele>
        <time>2017-03-03T17:54:46Z</time>
      </trkpt>
      <trkpt lat="44.29985" lon="3.52726">
        <ele>972</ele>
        <time>2017-03-03T17:56:46Z</time>
      </trkpt>
      <trkpt lat="44.29992" lon="3.52738">
        <ele>974</ele>
        <time>2017-03-03T17:58:46Z</time>
      </trkpt>
      <trkpt lat="44.29998" lon="3.52749">
        <ele>975</ele>
        <time>2017-03-03T18:00:46Z</time>
      </trkpt>
      <trkpt lat="44.30005" lon="3.52753">
        <ele>976</ele>
        <time>2017-03-03T18:02:46Z</time>
      </trkpt>
      <trkpt lat="44.30008" lon="3.52753">
        <ele>976</ele>
        <time>2017-03-03T18:04:46Z</time>
      </trkpt>
      <trkpt lat="44.30012" lon="3.52765">
        <ele>978</ele>
        <time>2017-03-03T18:06:46Z</time>
      </trkpt>
      <trkpt lat="44.30012" lon="3.52789">
        <ele>978</ele>
        <time>2017-03-03T18:08:46Z</time>
      </trkpt>
      <trkpt lat="44.30009" lon="3.52798">
        <ele>978</ele>
        <time>2017-03-03T18:10:46Z</time>
      </trkpt>
      <trkpt lat="44.30005" lon="3.52804">
        <ele>978</ele>
        <time>2017-03-03T18:12:46Z</time>
      </trkpt>
      <trkpt lat="44.29993" lon="3.52825">
        <ele>977</ele>
        <time>2017-03-03T18:14:46Z</time>
      </trkpt>
      <trkpt lat="44.2998" lon="3.52854">
        <ele>976</ele>
        <time>2017-03-03T18:16:46Z</time>
      </trkpt>
      <trkpt lat="44.29968" lon="3.52882">
        <ele>976</ele>
        <time>2017-03-03T18:18:46Z</time>
      </trkpt>
      <trkpt lat="44.29957" lon="3.52899">
        <ele>976</ele>
        <time>2017-03-03T18:20:46Z</time>
      </trkpt>
      <trkpt lat="44.29943" lon="3.5292">
        <ele>976</ele>
        <time>2017-03-03T18:22:46Z</time>
      </trkpt>
      <trkpt lat="44.29937" lon="3.52935">
        <ele>976</ele>
        <time>2017-03-03T18:24:46Z</time>
      </trkpt>
      <trkpt lat="44.29935" lon="3.52951">
        <ele>977</ele>
        <time>2017-03-03T18:26:46Z</time>
      </trkpt>
      <trkpt lat="44.29934" lon="3.52985">
        <ele>978</ele>
        <time>2017-03-03T18:28:46Z</time>
      </trkpt>
      <trkpt lat="44.29931" lon="3.53018">
        <ele>979</ele>
        <time>2017-03-03T18:30:46Z</time>
      </trkpt>
      <trkpt lat="44.29931" lon="3.53028">
        <ele>979</ele>
        <time>2017-03-03T18:32:46Z</time>
      </trkpt>
      <trkpt lat="44.29931" lon="3.53048">
        <ele>979</ele>
        <time>2017-03-03T18:34:46Z</time>
      </trkpt>
      <trkpt lat="44.29937" lon="3.53105">
        <ele>979</ele>
        <time>2017-03-03T18:36:46Z</time>
      </trkpt>
      <trkpt lat="44.29939" lon="3.53123">
        <ele>978</ele>
        <time>2017-03-03T18:38:46Z</time>
      </trkpt>
      <trkpt lat="44.29936" lon="3.53136">
        <ele>978</ele>
        <time>2017-03-03T18:40:46Z</time>
      </trkpt>
      <trkpt lat="44.29932" lon="3.53148">
        <ele>978</ele>
        <time>2017-03-03T18:42:46Z</time>
      </trkpt>
      <trkpt lat="44.29923" lon="3.53166">
        <ele>978</ele>
        <time>2017-03-03T18:44:46Z</time>
      </trkpt>
      <trkpt lat="44.29919" lon="3.53176">
        <ele>979</ele>
        <time>2017-03-03T18:46:46Z</time>
      </trkpt>
      <trkpt lat="44.29918" lon="3.53189">
        <ele>979</ele>
        <time>2017-03-03T18:48:46Z</time>
      </trkpt>
      <trkpt lat="44.29918" lon="3.53205">
        <ele>979</ele>
        <time>2017-03-03T18:50:46Z</time>
      </trkpt>
      <trkpt lat="44.29924" lon="3.53222">
        <ele>979</ele>
        <time>2017-03-03T18:52:46Z</time>
      </trkpt>
      <trkpt lat="44.29957" lon="3.53295">
        <ele>976</ele>
        <time>2017-03-03T18:54:46Z</time>
      </trkpt>
      <trkpt lat="44.29984" lon="3.53367">
        <ele>976</ele>
        <time>2017-03-03T18:56:46Z</time>
      </trkpt>
      <trkpt lat="44.29997" lon="3.53394">
        <ele>975</ele>
        <time>2017-03-03T18:58:46Z</time>
      </trkpt>
      <trkpt lat="44.30015" lon="3.5342">
        <ele>975</ele>
        <time>2017-03-03T19:00:46Z</time>
      </trkpt>
      <trkpt lat="44.30036" lon="3.53445">
        <ele>973</ele>
        <time>2017-03-03T19:02:46Z</time>
      </trkpt>
      <trkpt lat="44.30043" lon="3.53456">
        <ele>973</ele>
        <time>2017-03-03T19:04:46Z</time>
      </trkpt>
      <trkpt lat="44.30048" lon="3.53471">
        <ele>972</ele>
        <time>2017-03-03T19:06:46Z</time>
      </trkpt>
      <trkpt lat="44.30065" lon="3.53527">
        <ele>971</ele>
        <time>2017-03-03T19:08:46Z</time>
      </trkpt>
      <trkpt lat="44.30068" lon="3.53555">
        <ele>971</ele>
        <time>2017-03-03T19:10:46Z</time>
      </trkpt>
      <trkpt lat="44.30072" lon="3.53593">
        <ele>971</ele>
        <time>2017-03-03T19:12:46Z</time>
      </trkpt>
      <trkpt lat="44.30076" lon="3.53621">
        <ele>970</ele>
        <time>2017-03-03T19:14:46Z</time>
      </trkpt>
      <trkpt lat="44.30086" lon="3.53671">
        <ele>969</ele>
        <time>2017-03-03T19:16:46Z</time>
      </trkpt>
      <trkpt lat="44.30088" lon="3.53695">
        <ele>969</ele>
        <time>2017-03-03T19:18:46Z</time>
      </trkpt>
      <trkpt lat="44.30089" lon="3.53721">
        <ele>969</ele>
        <time>2017-03-03T19:20:46Z</time>
      </trkpt>
      <trkpt lat="44.30091" lon="3.53749">
        <ele>968</ele>
        <time>2017-03-03T19:22:46Z</time>
      </trkpt>
      <trkpt lat="44.3009" lon="3.53764">
        <ele>968</ele>
        <time>2017-03-03T19:24:46Z</time>
      </trkpt>
      <trkpt lat="44.30083" lon="3.53824">
        <ele>969</ele>
        <time>2017-03-03T19:26:46Z</time>
      </trkpt>
      <trkpt lat="44.3008" lon="3.53847">
        <ele>969</ele>
        <time>2017-03-03T19:28:46Z</time>
      </trkpt>
      <trkpt lat="44.30079" lon="3.53851">
        <ele>969</ele>
        <time>2017-03-03T19:30:46Z</time>
      </trkpt>
      <trkpt lat="44.30077" lon="3.53857">
        <ele>969</ele>
        <time>2017-03-03T19:32:46Z</time>
      </trkpt>
      <trkpt lat="44.30072" lon="3.53868">
        <ele>969</ele>
        <time>2017-03-03T19:34:46Z</time>
      </trkpt>
      <trkpt lat="44.30066" lon="3.53894">
        <ele>969</ele>
        <time>2017-03-03T19:36:46Z</time>
      </trkpt>
      <trkpt lat="44.30066" lon="3.53906">
        <ele>969</ele>
        <time>2017-03-03T19:38:46Z</time>
      </trkpt>
      <trkpt lat="44.30068" lon="3.53919">
        <ele>969</ele>
        <time>2017-03-03T19:40:46Z</time>
      </trkpt>
      <trkpt lat="44.30075" lon="3.5393">
        <ele>969</ele>
        <time>2017-03-03T19:42:46Z</time>
      </trkpt>
      <trkpt lat="44.30105" lon="3.53961">
        <ele>970</ele>
        <time>2017-03-03T19:44:46Z</time>
      </trkpt>
      <trkpt lat="44.30148" lon="3.54005">
        <ele>971</ele>
        <time>2017-03-03T19:46:46Z</time>
      </trkpt>
      <trkpt lat="44.30164" lon="3.54029">
        <ele>972</ele>
        <time>2017-03-03T19:48:46Z</time>
      </trkpt>
      <trkpt lat="44.302" lon="3.54088">
        <ele>974</ele>
        <time>2017-03-03T19:50:46Z</time>
      </trkpt>
      <trkpt lat="44.30228" lon="3.54139">
        <ele>977</ele>
        <time>2017-03-03T19:52:46Z</time>
      </trkpt>
      <trkpt lat="44.30256" lon="3.54193">
        <ele>978</ele>
        <time>2017-03-03T19:54:46Z</time>
      </trkpt>
      <trkpt lat="44.30264" lon="3.54208">
        <ele>979</ele>
        <time>2017-03-03T19:56:46Z</time>
      </trkpt>
      <trkpt lat="44.30266" lon="3.54219">
        <ele>979</ele>
        <time>2017-03-03T19:58:46Z</time>
      </trkpt>
      <trkpt lat="44.30266" lon="3.54229">
        <ele>980</ele>
        <time>2017-03-03T20:00:46Z</time>
      </trkpt>
      <trkpt lat="44.30263" lon="3.5424">
        <ele>980</ele>
        <time>2017-03-03T20:02:46Z</time>
      </trkpt>
      <trkpt lat="44.30241" lon="3.54303">
        <ele>982</ele>
        <time>2017-03-03T20:04:46Z</time>
      </trkpt>
      <trkpt lat="44.30229" lon="3.54333">
        <ele>984</ele>
        <time>2017-03-03T20:06:46Z</time>
      </trkpt>
      <trkpt lat="44.30223" lon="3.54341">
        <ele>984</ele>
        <time>2017-03-03T20:08:46Z</time>
      </trkpt>
      <trkpt lat="44.30213" lon="3.54354">
        <ele>985</ele>
        <time>2017-03-03T20:10:46Z</time>
      </trkpt>
      <trkpt lat="44.30209" lon="3.54362">
        <ele>985</ele>
        <time>2017-03-03T20:12:46Z</time>
      </trkpt>
      <trkpt lat="44.30207" lon="3.54372">
        <ele>986</ele>
        <time>2017-03-03T20:14:46Z</time>
      </trkpt>
      <trkpt lat="44.30204" lon="3.54413">
        <ele>986</ele>
        <time>2017-03-03T20:16:46Z</time>
      </trkpt>
      <trkpt lat="44.30197" lon="3.54453">
        <ele>988</ele>
        <time>2017-03-03T20:18:46Z</time>
      </trkpt>
      <trkpt lat="44.30194" lon="3.54474">
        <ele>989</ele>
        <time>2017-03-03T20:20:46Z</time>
      </trkpt>
      <trkpt lat="44.30195" lon="3.54495">
        <ele>989</ele>
        <time>2017-03-03T20:22:46Z</time>
      </trkpt>
      <trkpt lat="44.30199" lon="3.54527">
        <ele>989</ele>
        <time>2017-03-03T20:24:46Z</time>
      </trkpt>
      <trkpt lat="44.30197" lon="3.5454">
        <ele>989</ele>
        <time>2017-03-03T20:26:46Z</time>
      </trkpt>
      <trkpt lat="44.30193" lon="3.54553">
        <ele>989</ele>
        <time>2017-03-03T20:28:46Z</time>
      </trkpt>
      <trkpt lat="44.30187" lon="3.54568">
        <ele>989</ele>
        <time>2017-03-03T20:30:46Z</time>
      </trkpt>
      <trkpt lat="44.30186" lon="3.54575">
        <ele>989</ele>
        <time>2017-03-03T20:32:46Z</time>
      </trkpt>
      <trkpt lat="44.30187" lon="3.54584">
        <ele>989</ele>
        <time>2017-03-03T20:34:46Z</time>
      </trkpt>
      <trkpt lat="44.30192" lon="3.54596">
        <ele>989</ele>
        <time>2017-03-03T20:36:46Z</time>
      </trkpt>
      <trkpt lat="44.30233" lon="3.54666">
        <ele>990</ele>
        <time>2017-03-03T20:38:46Z</time>
      </trkpt>
      <trkpt lat="44.30249" lon="3.54689">
        <ele>992</ele>
        <time>2017-03-03T20:40:46Z</time>
      </trkpt>
      <trkpt lat="44.30256" lon="3.54706">
        <ele>993</ele>
        <time>2017-03-03T20:42:46Z</time>
      </trkpt>
      <trkpt lat="44.3026" lon="3.5472">
        <ele>995</ele>
        <time>2017-03-03T20:44:46Z</time>
      </trkpt>
      <trkpt lat="44.30262" lon="3.54728">
        <ele>995</ele>
        <time>2017-03-03T20:46:46Z</time>
      </trkpt>
      <trkpt lat="44.30264" lon="3.54736">
        <ele>996</ele>
        <time>2017-03-03T20:48:46Z</time>
      </trkpt>
      <trkpt lat="44.3027" lon="3.54747">
        <ele>997</ele>
        <time>2017-03-03T20:50:46Z</time>
      </trkpt>
      <trkpt lat="44.3028" lon="3.54756">
        <ele>998</ele>
        <time>2017-03-03T20:52:46Z</time>
      </trkpt>
      <trkpt lat="44.30304" lon="3.54774">
        <ele>1001</ele>
        <time>2017-03-03T20:54:46Z</time>
      </trkpt>
      <trkpt lat="44.30312" lon="3.54777">
        <ele>1002</ele>
        <time>2017-03-03T20:56:46Z</time>
      </trkpt>
      <trkpt lat="44.30342" lon="3.54781">
        <ele>1003</ele>
        <time>2017-03-03T20:58:46Z</time>
      </trkpt>
      <trkpt lat="44.30347" lon="3.54782">
        <ele>1003</ele>
        <time>2017-03-03T21:00:46Z</time>
      </trkpt>
      <trkpt lat="44.30359" lon="3.54789">
        <ele>1004</ele>
        <time>2017-03-03T21:02:46Z</time>
      </trkpt>
      <trkpt lat="44.30368" lon="3.54792">
        <ele>1005</ele>
        <time>2017-03-03T21:04:46Z</time>
      </trkpt>
      <trkpt lat="44.30371" lon="3.54792">
        <ele>1005</ele>
        <time>2017-03-03T21:06:46Z</time>
      </trkpt>
      <trkpt lat="44.30411" lon="3.54772">
        <ele>1004</ele>
        <time>2017-03-03T21:08:46Z</time>
      </trkpt>
      <trkpt lat="44.30419" lon="3.54769">
        <ele>1004</ele>
        <time>2017-03-03T21:10:46Z</time>
      </trkpt>
      <trkpt lat="44.30447" lon="3.54765">
        <ele>1004</ele>
        <time>2017-03-03T21:12:46Z</time>
      </trkpt>
      <trkpt lat="44.30465" lon="3.54758">
        <ele>1003</ele>
        <time>2017-03-03T21:14:46Z</time>
      </trkpt>
      <trkpt lat="44.30473" lon="3.54755">
        <ele>1003</ele>
        <time>2017-03-03T21:16:46Z</time>
      </trkpt>
      <trkpt lat="44.30479" lon="3.54756">
        <ele>1003</ele>
        <time>2017-03-03T21:18:46Z</time>
      </trkpt>
      <trkpt lat="44.30489" lon="3.54761">
        <ele>1003</ele>
        <time>2017-03-03T21:20:46Z</time>
      </trkpt>
      <trkpt lat="44.30501" lon="3.54768">
        <ele>1003</ele>
        <time>2017-03-03T21:22:46Z</time>
      </trkpt>
      <trkpt lat="44.30517" lon="3.54774">
        <ele>1004</ele>
        <time>2017-03-03T21:24:46Z</time>
      </trkpt>
      <trkpt lat="44.30523" lon="3.54776">
        <ele>1004</ele>
        <time>2017-03-03T21:26:46Z</time>
      </trkpt>
      <trkpt lat="44.30528" lon="3.54784">
        <ele>1004</ele>
        <time>2017-03-03T21:28:46Z</time>
      </trkpt>
      <trkpt lat="44.30533" lon="3.54795">
        <ele>1004</ele>
        <time>2017-03-03T21:30:46Z</time>
      </trkpt>
      <trkpt lat="44.30537" lon="3.54805">
        <ele>1003</ele>
        <time>2017-03-03T21:32:46Z</time>
      </trkpt>
      <trkpt lat="44.30542" lon="3.54824">
        <ele>1003</ele>
        <time>2017-03-03T21:34:46Z</time>
      </trkpt>
      <trkpt lat="44.30543" lon="3.54835">
        <ele>1002</ele>
        <time>2017-03-03T21:36:46Z</time>
      </trkpt>
      <trkpt lat="44.30545" lon="3.54855">
        <ele>1003</ele>
        <time>2017-03-03T21:38:46Z</time>
      </trkpt>
      <trkpt lat="44.30547" lon="3.54865">
        <ele>1003</ele>
        <time>2017-03-03T21:40:46Z</time>
      </trkpt>
      <trkpt lat="44.30556" lon="3.54878">
        <ele>1002</ele>
        <time>2017-03-03T21:42:46Z</time>
      </trkpt>
      <trkpt lat="44.30569" lon="3.54891">
        <ele>1001</ele>
        <time>2017-03-03T21:44:46Z</time>
      </trkpt>
      <trkpt lat="44.30585" lon="3.54908">
        <ele>1000</ele>
        <time>2017-03-03T21:46:46Z</time>
      </trkpt>
      <trkpt lat="44.30595" lon="3.54921">
        <ele>999</ele>
        <time>2017-03-03T21:48:46Z</time>
      </trkpt>
      <trkpt lat="44.30603" lon="3.54939">
        <ele>999</ele>
        <time>2017-03-03T21:50:46Z</time>
      </trkpt>
      <trkpt lat="44.30611" lon="3.5496">
        <ele>998</ele>
        <time>2017-03-03T21:52:46Z</time>
      </trkpt>
      <trkpt lat="44.30621" lon="3.54975">
        <ele>998</ele>
        <time>2017-03-03T21:54:46Z</time>
      </trkpt>
      <trkpt lat="44.30631" lon="3.54987">
        <ele>997</ele>
        <time>2017-03-03T21:56:46Z</time>
      </trkpt>
      <trkpt lat="44.30639" lon="3.54991">
        <ele>996</ele>
        <time>2017-03-03T21:58:46Z</time>
      </trkpt>
      <trkpt lat="44.30647" lon="3.54993">
        <ele>996</ele>
        <time>2017-03-03T22:00:46Z</time>
      </trkpt>
      <trkpt lat="44.30668" lon="3.54991">
        <ele>994</ele>
        <time>2017-03-03T22:02:46Z</time>
      </trkpt>
      <trkpt lat="44.30679" lon="3.54991">
        <ele>993</ele>
        <time>2017-03-03T22:04:46Z</time>
      </trkpt>
      <trkpt lat="44.30685" lon="3.54993">
        <ele>993</ele>
        <time>2017-03-03T22:06:46Z</time>
      </trkpt>
      <trkpt lat="44.30692" lon="3.55">
        <ele>992</ele>
        <time>2017-03-03T22:08:46Z</time>
      </trkpt>
      <trkpt lat="44.30702" lon="3.5502">
        <ele>992</ele>
        <time>2017-03-03T22:10:46Z</time>
      </trkpt>
      <trkpt lat="44.30709" lon="3.55027">
        <ele>992</ele>
        <time>2017-03-03T22:12:46Z</time>
      </trkpt>
      <trkpt lat="44.30725" lon="3.55034">
        <ele>991</ele>
        <time>2017-03-03T22:14:46Z</time>
      </trkpt>
      <trkpt lat="44.30744" lon="3.55034">
        <ele>989</ele>
        <time>2017-03-03T22:16:46Z</time>
      </trkpt>
      <trkpt lat="44.30764" lon="3.55038">
        <ele>987</ele>
        <time>2017-03-03T22:18:46Z</time>
      </trkpt>
      <trkpt lat="44.30783" lon="3.55044">
        <ele>985</ele>
        <time>2017-03-03T22:20:46Z</time>
      </trkpt>
      <trkpt lat="44.30803" lon="3.55054">
        <ele>983</ele>
        <time>2017-03-03T22:22:46Z</time>
      </trkpt>
      <trkpt lat="44.30829" lon="3.55074">
        <ele>980</ele>
        <time>2017-03-03T22:24:46Z</time>
      </trkpt>
      <trkpt lat="44.30844" lon="3.55089">
        <ele>980</ele>
        <time>2017-03-03T22:26:46Z</time>
      </trkpt>
      <trkpt lat="44.30866" lon="3.55113">
        <ele>979</ele>
        <time>2017-03-03T22:28:46Z</time>
      </trkpt>
      <trkpt lat="44.30884" lon="3.55132">
        <ele>979</ele>
        <time>2017-03-03T22:30:46Z</time>
      </trkpt>
      <trkpt lat="44.30907" lon="3.55147">
        <ele>978</ele>
        <time>2017-03-03T22:32:46Z</time>
      </trkpt>
      <trkpt lat="44.30922" lon="3.55155">
        <ele>978</ele>
        <time>2017-03-03T22:34:46Z</time>
      </trkpt>
      <trkpt lat="44.30936" lon="3.55168">
        <ele>978</ele>
        <time>2017-03-03T22:36:46Z</time>
      </trkpt>
      <trkpt lat="44.30955" lon="3.55182">
        <ele>978</ele>
        <time>2017-03-03T22:38:46Z</time>
      </trkpt>
      <trkpt lat="44.30982" lon="3.55192">
        <ele>978</ele>
        <time>2017-03-03T22:40:46Z</time>
      </trkpt>
      <trkpt lat="44.30988" lon="3.55199">
        <ele>978</ele>
        <time>2017-03-03T22:42:46Z</time>
      </trkpt>
      <trkpt lat="44.30998" lon="3.55221">
        <ele>979</ele>
        <time>2017-03-03T22:44:46Z</time>
      </trkpt>
      <trkpt lat="44.31007" lon="3.55238">
        <ele>979</ele>
        <time>2017-03-03T22:46:46Z</time>
      </trkpt>
      <trkpt lat="44.31025" lon="3.55258">
        <ele>980</ele>
        <time>2017-03-03T22:48:46Z</time>
      </trkpt>
      <trkpt lat="44.31057" lon="3.55299">
        <ele>981</ele>
        <time>2017-03-03T22:50:46Z</time>
      </trkpt>
      <trkpt lat="44.3107" lon="3.55315">
        <ele>981</ele>
        <time>2017-03-03T22:52:46Z</time>
      </trkpt>
      <trkpt lat="44.31095" lon="3.55336">
        <ele>982</ele>
        <time>2017-03-03T22:54:46Z</time>
      </trkpt>
      <trkpt lat="44.31105" lon="3.55348">
        <ele>983</ele>
        <time>2017-03-03T22:56:46Z</time>
      </trkpt>
      <trkpt lat="44.31116" lon="3.55364">
        <ele>984</ele>
        <time>2017-03-03T22:58:46Z</time>
      </trkpt>
      <trkpt lat="44.31133" lon="3.55387">
        <ele>984</ele>
        <time>2017-03-03T23:00:46Z</time>
      </trkpt>
      <trkpt lat="44.31144" lon="3.55399">
        <ele>985</ele>
        <time>2017-03-03T23:02:46Z</time>
      </trkpt>
      <trkpt lat="44.31165" lon="3.55423">
        <ele>985</ele>
        <time>2017-03-03T23:04:46Z</time>
      </trkpt>
      <trkpt lat="44.31182" lon="3.55447">
        <ele>986</ele>
        <time>2017-03-03T23:06:46Z</time>
      </trkpt>
      <trkpt lat="44.31191" lon="3.55461">
        <ele>987</ele>
        <time>2017-03-03T23:08:46Z</time>
      </trkpt>
      <trkpt lat="44.31197" lon="3.55471">
        <ele>987</ele>
        <time>2017-03-03T23:10:46Z</time>
      </trkpt>
      <trkpt lat="44.31204" lon="3.55477">
        <ele>987</ele>
        <time>2017-03-03T23:12:46Z</time>
      </trkpt>
      <trkpt lat="44.3122" lon="3.55485">
        <ele>987</ele>
        <time>2017-03-03T23:14:46Z</time>
      </trkpt>
      <trkpt lat="44.31236" lon="3.55493">
        <ele>987</ele>
        <time>2017-03-03T23:16:46Z</time>
      </trkpt>
      <trkpt lat="44.3124" lon="3.55497">
        <ele>987</ele>
        <time>2017-03-03T23:18:46Z</time>
      </trkpt>
      <trkpt lat="44.31249" lon="3.55512">
        <ele>987</ele>
        <time>2017-03-03T23:20:46Z</time>
      </trkpt>
      <trkpt lat="44.3125" lon="3.5552">
        <ele>987</ele>
        <time>2017-03-03T23:22:46Z</time>
      </trkpt>
      <trkpt lat="44.31254" lon="3.55536">
        <ele>987</ele>
        <time>2017-03-03T23:24:46Z</time>
      </trkpt>
      <trkpt lat="44.31259" lon="3.55547">
        <ele>987</ele>
        <time>2017-03-03T23:26:46Z</time>
      </trkpt>
      <trkpt lat="44.31265" lon="3.55557">
        <ele>987</ele>
        <time>2017-03-03T23:28:46Z</time>
      </trkpt>
      <trkpt lat="44.31284" lon="3.55589">
        <ele>988</ele>
        <time>2017-03-03T23:30:46Z</time>
      </trkpt>
      <trkpt lat="44.31304" lon="3.55616">
        <ele>989</ele>
        <time>2017-03-03T23:32:46Z</time>
      </trkpt>
      <trkpt lat="44.31314" lon="3.55637">
        <ele>989</ele>
        <time>2017-03-03T23:34:46Z</time>
      </trkpt>
      <trkpt lat="44.31329" lon="3.55676">
        <ele>989</ele>
        <time>2017-03-03T23:36:46Z</time>
      </trkpt>
      <trkpt lat="44.3134" lon="3.55699">
        <ele>989</ele>
        <time>2017-03-03T23:38:46Z</time>
      </trkpt>
      <trkpt lat="44.31354" lon="3.55717">
        <ele>989</ele>
        <time>2017-03-03T23:40:46Z</time>
      </trkpt>
      <trkpt lat="44.31369" lon="3.55731">
        <ele>990</ele>
        <time>2017-03-03T23:42:46Z</time>
      </trkpt>
      <trkpt lat="44.31389" lon="3.55746">
        <ele>992</ele>
        <time>2017-03-03T23:44:46Z</time>
      </trkpt>
      <trkpt lat="44.31415" lon="3.55768">
        <ele>994</ele>
        <time>2017-03-03T23:46:46Z</time>
      </trkpt>
      <trkpt lat="44.31428" lon="3.55784">
        <ele>995</ele>
        <time>2017-03-03T23:48:46Z</time>
      </trkpt>
      <trkpt lat="44.31447" lon="3.55817">
        <ele>995</ele>
        <time>2017-03-03T23:50:46Z</time>
      </trkpt>
      <trkpt lat="44.31461" lon="3.55834">
        <ele>997</ele>
        <time>2017-03-03T23:52:46Z</time>
      </trkpt>
      <trkpt lat="44.31478" lon="3.55863">
        <ele>997</ele>
        <time>2017-03-03T23:54:46Z</time>
      </trkpt>
      <trkpt lat="44.31493" lon="3.55896">
        <ele>996</ele>
        <time>2017-03-03T23:56:46Z</time>
      </trkpt>
      <trkpt lat="44.31502" lon="3.55908">
        <ele>996</ele>
        <time>2017-03-03T23:58:46Z</time>
      </trkpt>
      <trkpt lat="44.31516" lon="3.55926">
        <ele>996</ele>
        <time>2017-03-04T00:00:46Z</time>
      </trkpt>
      <trkpt lat="44.31526" lon="3.55944">
        <ele>995</ele>
        <time>2017-03-04T00:02:46Z</time>
      </trkpt>
      <trkpt lat="44.3154" lon="3.5597">
        <ele>995</ele>
        <time>2017-03-04T00:04:46Z</time>
      </trkpt>
      <trkpt lat="44.31554" lon="3.55985">
        <ele>995</ele>
        <time>2017-03-04T00:06:46Z</time>
      </trkpt>
      <trkpt lat="44.31577" lon="3.56003">
        <ele>996</ele>
        <time>2017-03-04T00:08:46Z</time>
      </trkpt>
      <trkpt lat="44.31596" lon="3.56014">
        <ele>997</ele>
        <time>2017-03-04T00:10:46Z</time>
      </trkpt>
      <trkpt lat="44.31626" lon="3.56026">
        <ele>999</ele>
        <time>2017-03-04T00:12:46Z</time>
      </trkpt>
      <trkpt lat="44.31665" lon="3.56042">
        <ele>1001</ele>
        <time>2017-03-04T00:14:46Z</time>
      </trkpt>
      <trkpt lat="44.31677" lon="3.5605">
        <ele>1001</ele>
        <time>2017-03-04T00:16:46Z</time>
      </trkpt>
      <trkpt lat="44.31722" lon="3.56097">
        <ele>1001</ele>
        <time>2017-03-04T00:18:46Z</time>
      </trkpt>
      <trkpt lat="44.31728" lon="3.56102">
        <ele>1002</ele>
        <time>2017-03-04T00:20:46Z</time>
      </trkpt>
      <trkpt lat="44.31751" lon="3.56119">
        <ele>1004</ele>
        <time>2017-03-04T00:22:46Z</time>
      </trkpt>
      <trkpt lat="44.31775" lon="3.56131">
        <ele>1004</ele>
        <time>2017-03-04T00:24:46Z</time>
      </trkpt>
      <trkpt lat="44.3181" lon="3.56146">
        <ele>1003</ele>
        <time>2017-03-04T00:26:46Z</time>
      </trkpt>
      <trkpt lat="44.31874" lon="3.56178">
        <ele>1004</ele>
        <time>2017-03-04T00:28:46Z</time>
      </trkpt>
      <trkpt lat="44.31901" lon="3.56189">
        <ele>1005</ele>
        <time>2017-03-04T00:30:46Z</time>
      </trkpt>
      <trkpt lat="44.31911" lon="3.56191">
        <ele>1005</ele>
        <time>2017-03-04T00:32:46Z</time>
      </trkpt>
      <trkpt lat="44.31933" lon="3.56193">
        <ele>1005</ele>
        <time>2017-03-04T00:34:46Z</time>
      </trkpt>
      <trkpt lat="44.31959" lon="3.56197">
        <ele>1004</ele>
        <time>2017-03-04T00:36:46Z</time>
      </trkpt>
      <trkpt lat="44.31985" lon="3.56203">
        <ele>1004</ele>
        <time>2017-03-04T00:38:46Z</time>
      </trkpt>
      <trkpt lat="44.32014" lon="3.56213">
        <ele>1004</ele>
        <time>2017-03-04T00:40:46Z</time>
      </trkpt>
      <trkpt lat="44.32031" lon="3.56218">
        <ele>1004</ele>
        <time>2017-03-04T00:42:46Z</time>
      </trkpt>
      <trkpt lat="44.3207" lon="3.56231">
        <ele>1004</ele>
        <time>2017-03-04T00:44:46Z</time>
      </trkpt>
      <trkpt lat="44.321" lon="3.56241">
        <ele>1004</ele>
        <time>2017-03-04T00:46:46Z</time>
      </trkpt>
      <trkpt lat="44.32122" lon="3.56248">
        <ele>1003</ele>
        <time>2017-03-04T00:48:46Z</time>
      </trkpt>
      <trkpt lat="44.32138" lon="3.56253">
        <ele>1002</ele>
        <time>2017-03-04T00:50:46Z</time>
      </trkpt>
      <trkpt lat="44.3215" lon="3.5626">
        <ele>1002</ele>
        <time>2017-03-04T00:52:46Z</time>
      </trkpt>
      <trkpt lat="44.32159" lon="3.56268">
        <ele>1003</ele>
        <time>2017-03-04T00:54:46Z</time>
      </trkpt>
      <trkpt lat="44.32171" lon="3.56278">
        <ele>1003</ele>
        <time>2017-03-04T00:56:46Z</time>
      </trkpt>
      <trkpt lat="44.32229" lon="3.56345">
        <ele>1005</ele>
        <time>2017-03-04T00:58:46Z</time>
      </trkpt>
      <trkpt lat="44.32259" lon="3.56375">
        <ele>1006</ele>
        <time>2017-03-04T01:00:46Z</time>
      </trkpt>
      <trkpt lat="44.32262" lon="3.56382">
        <ele>1007</ele>
        <time>2017-03-04T01:02:46Z</time>
      </trkpt>
      <trkpt lat="44.32267" lon="3.56389">
        <ele>1008</ele>
        <time>2017-03-04T01:04:46Z</time>
      </trkpt>
      <trkpt lat="44.32274" lon="3.56396">
        <ele>1008</ele>
        <time>2017-03-04T01:06:46Z</time>
      </trkpt>
      <trkpt lat="44.32283" lon="3.56407">
        <ele>1009</ele>
        <time>2017-03-04T01:08:46Z</time>
      </trkpt>
      <trkpt lat="44.32286" lon="3.56414">
        <ele>1009</ele>
        <time>2017-03-04T01:10:46Z</time>
      </trkpt>
      <trkpt lat="44.32292" lon="3.56431">
        <ele>1010</ele>
        <time>2017-03-04T01:12:46Z</time>
      </trkpt>
      <trkpt lat="44.32299" lon="3.56455">
        <ele>1011</ele>
        <time>2017-03-04T01:14:46Z</time>
      </trkpt>
      <trkpt lat="44.32303" lon="3.56465">
        <ele>1011</ele>
        <time>2017-03-04T01:16:46Z</time>
      </trkpt>
      <trkpt lat="44.32306" lon="3.56481">
        <ele>1011</ele>
        <time>2017-03-04T01:18:46Z</time>
      </trkpt>
      <trkpt lat="44.32306" lon="3.56489">
        <ele>1012</ele>
        <time>2017-03-04T01:20:46Z</time>
      </trkpt>
      <trkpt lat="44.32305" lon="3.565">
        <ele>1012</ele>
        <time>2017-03-04T01:22:46Z</time>
      </trkpt>
      <trkpt lat="44.32304" lon="3.56517">
        <ele>1013</ele>
        <time>2017-03-04T01:24:46Z</time>
      </trkpt>
      <trkpt lat="44.32305" lon="3.56536">
        <ele>1014</ele>
        <time>2017-03-04T01:26:46Z</time>
      </trkpt>
      <trkpt lat="44.32306" lon="3.56562">
        <ele>1016</ele>
        <time>2017-03-04T01:28:46Z</time>
      </trkpt>
      <trkpt lat="44.32307" lon="3.56585">
        <ele>1017</ele>
        <time>2017-03-04T01:30:46Z</time>
      </trkpt>
      <trkpt lat="44.32314" lon="3.56627">
        <ele>1017</ele>
        <time>2017-03-04T01:32:46Z</time>
      </trkpt>
      <trkpt lat="44.32319" lon="3.56648">
        <ele>1017</ele>
        <time>2017-03-04T01:34:46Z</time>
      </trkpt>
      <trkpt lat="44.32324" lon="3.56664">
        <ele>1018</ele>
        <time>2017-03-04T01:36:46Z</time>
      </trkpt>
      <trkpt lat="44.32325" lon="3.56668">
        <ele>1018</ele>
        <time>2017-03-04T01:38:46Z</time>
      </trkpt>
      <trkpt lat="44.32328" lon="3.56674">
        <ele>1018</ele>
        <time>2017-03-04T01:40:46Z</time>
      </trkpt>
      <trkpt lat="44.32333" lon="3.56681">
        <ele>1018</ele>
        <time>2017-03-04T01:42:46Z</time>
      </trkpt>
      <trkpt lat="44.32342" lon="3.5669">
        <ele>1018</ele>
        <time>2017-03-04T01:44:46Z</time>
      </trkpt>
      <trkpt lat="44.32344" lon="3.56692">
        <ele>1018</ele>
        <time>2017-03-04T01:46:46Z</time>
      </trkpt>
      <trkpt lat="44.32348" lon="3.56702">
        <ele>1018</ele>
        <time>2017-03-04T01:48:46Z</time>
      </trkpt>
      <trkpt lat="44.32354" lon="3.56712">
        <ele>1019</ele>
        <time>2017-03-04T01:50:46Z</time>
      </trkpt>
      <trkpt lat="44.32364" lon="3.5673">
        <ele>1019</ele>
        <time>2017-03-04T01:52:46Z</time>
      </trkpt>
      <trkpt lat="44.32368" lon="3.56741">
        <ele>1019</ele>
        <time>2017-03-04T01:54:46Z</time>
      </trkpt>
      <trkpt lat="44.3237" lon="3.5675">
        <ele>1020</ele>
        <time>2017-03-04T01:56:46Z</time>
      </trkpt>
      <trkpt lat="44.32376" lon="3.56785">
        <ele>1019</ele>
        <time>2017-03-04T01:58:46Z</time>
      </trkpt>
      <trkpt lat="44.32379" lon="3.56803">
        <ele>1019</ele>
        <time>2017-03-04T02:00:46Z</time>
      </trkpt>
      <trkpt lat="44.32386" lon="3.56827">
        <ele>1019</ele>
        <time>2017-03-04T02:02:46Z</time>
      </trkpt>
      <trkpt lat="44.32397" lon="3.56858">
        <ele>1019</ele>
        <time>2017-03-04T02:04:46Z</time>
      </trkpt>
      <trkpt lat="44.32412" lon="3.56909">
        <ele>1019</ele>
        <time>2017-03-04T02:06:46Z</time>
      </trkpt>
      <trkpt lat="44.32418" lon="3.56927">
        <ele>1019</ele>
        <time>2017-03-04T02:08:46Z</time>
      </trkpt>
      <trkpt lat="44.32421" lon="3.56939">
        <ele>1019</ele>
        <time>2017-03-04T02:10:46Z</time>
      </trkpt>
      <trkpt lat="44.32424" lon="3.56959">
        <ele>1019</ele>
        <time>2017-03-04T02:12:46Z</time>
      </trkpt>
      <trkpt lat="44.32431" lon="3.56982">
        <ele>1019</ele>
        <time>2017-03-04T02:14:46Z</time>
      </trkpt>
      <trkpt lat="44.32444" lon="3.5702">
        <ele>1020</ele>
        <time>2017-03-04T02:16:46Z</time>
      </trkpt>
      <trkpt lat="44.32446" lon="3.57028">
        <ele>1020</ele>
        <time>2017-03-04T02:18:46Z</time>
      </trkpt>
      <trkpt lat="44.32444" lon="3.57048">
        <ele>1020</ele>
        <time>2017-03-04T02:20:46Z</time>
      </trkpt>
      <trkpt lat="44.32444" lon="3.57055">
        <ele>1020</ele>
        <time>2017-03-04T02:22:46Z</time>
      </trkpt>
      <trkpt lat="44.32447" lon="3.57064">
        <ele>1020</ele>
        <time>2017-03-04T02:24:46Z</time>
      </trkpt>
      <trkpt lat="44.32451" lon="3.57071">
        <ele>1021</ele>
        <time>2017-03-04T02:26:46Z</time>
      </trkpt>
      <trkpt lat="44.32452" lon="3.57097">
        <ele>1022</ele>
        <time>2017-03-04T02:28:46Z</time>
      </trkpt>
      <trkpt lat="44.32453" lon="3.57106">
        <ele>1022</ele>
        <time>2017-03-04T02:30:46Z</time>
      </trkpt>
      <trkpt lat="44.32455" lon="3.57108">
        <ele>1023</ele>
        <time>2017-03-04T02:32:46Z</time>
      </trkpt>
      <trkpt lat="44.32436" lon="3.57129">
        <ele>1022</ele>
        <time>2017-03-04T02:34:46Z</time>
      </trkpt>
      <trkpt lat="44.3242" lon="3.57145">
        <ele>1021</ele>
        <time>2017-03-04T02:36:46Z</time>
      </trkpt>
      <trkpt lat="44.324" lon="3.57162">
        <ele>1020</ele>
        <time>2017-03-04T02:38:46Z</time>
      </trkpt>
      <trkpt lat="44.32355" lon="3.572">
        <ele>1018</ele>
        <time>2017-03-04T02:40:46Z</time>
      </trkpt>
      <trkpt lat="44.32335" lon="3.57217">
        <ele>1017</ele>
        <time>2017-03-04T02:42:46Z</time>
      </trkpt>
      <trkpt lat="44.32326" lon="3.57226">
        <ele>1018</ele>
        <time>2017-03-04T02:44:46Z</time>
      </trkpt>
      <trkpt lat="44.32321" lon="3.57228">
        <ele>1018</ele>
        <time>2017-03-04T02:46:46Z</time>
      </trkpt>
      <trkpt lat="44.32311" lon="3.57235">
        <ele>1018</ele>
        <time>2017-03-04T02:48:46Z</time>
      </trkpt>
      <trkpt lat="44.32295" lon="3.57248">
        <ele>1018</ele>
        <time>2017-03-04T02:50:46Z</time>
      </trkpt>
      <trkpt lat="44.32276" lon="3.57264">
        <ele>1020</ele>
        <time>2017-03-04T02:52:46Z</time>
      </trkpt>
      <trkpt lat="44.32263" lon="3.57276">
        <ele>1021</ele>
        <time>2017-03-04T02:54:46Z</time>
      </trkpt>
      <trkpt lat="44.32256" lon="3.57283">
        <ele>1021</ele>
        <time>2017-03-04T02:56:46Z</time>
      </trkpt>
      <trkpt lat="44.32246" lon="3.57296">
        <ele>1022</ele>
        <time>2017-03-04T02:58:46Z</time>
      </trkpt>
      <trkpt lat="44.3224" lon="3.57304">
        <ele>1023</ele>
        <time>2017-03-04T03:00:46Z</time>
      </trkpt>
      <trkpt lat="44.32235" lon="3.5731">
        <ele>1024</ele>
        <time>2017-03-04T03:02:46Z</time>
      </trkpt>
      <trkpt lat="44.32231" lon="3.57314">
        <ele>1024</ele>
        <time>2017-03-04T03:04:46Z</time>
      </trkpt>
      <trkpt lat="44.32208" lon="3.57328">
        <ele>1024</ele>
        <time>2017-03-04T03:06:46Z</time>
      </trkpt>
      <trkpt lat="44.32186" lon="3.57336">
        <ele>1023</ele>
        <time>2017-03-04T03:08:46Z</time>
      </trkpt>
      <trkpt lat="44.32147" lon="3.57358">
        <ele>1025</ele>
        <time>2017-03-04T03:10:46Z</time>
      </trkpt>
      <trkpt lat="44.32136" lon="3.57361">
        <ele>1025</ele>
        <time>2017-03-04T03:12:46Z</time>
      </trkpt>
      <trkpt lat="44.32129" lon="3.57366">
        <ele>1026</ele>
        <time>2017-03-04T03:14:46Z</time>
      </trkpt>
      <trkpt lat="44.32124" lon="3.57371">
        <ele>1027</ele>
        <time>2017-03-04T03:16:46Z</time>
      </trkpt>
      <trkpt lat="44.32118" lon="3.57379">
        <ele>1027</ele>
        <time>2017-03-04T03:18:46Z</time>
      </trkpt>
      <trkpt lat="44.32113" lon="3.57389">
        <ele>1028</ele>
        <time>2017-03-04T03:20:46Z</time>
      </trkpt>
      <trkpt lat="44.32109" lon="3.574">
        <ele>1029</ele>
        <time>2017-03-04T03:22:46Z</time>
      </trkpt>
      <trkpt lat="44.32104" lon="3.57417">
        <ele>1030</ele>
        <time>2017-03-04T03:24:46Z</time>
      </trkpt>
      <trkpt lat="44.32099" lon="3.57429">
        <ele>1030</ele>
        <time>2017-03-04T03:26:46Z</time>
      </trkpt>
      <trkpt lat="44.32093" lon="3.5744">
        <ele>1030</ele>
        <time>2017-03-04T03:28:46Z</time>
      </trkpt>
      <trkpt lat="44.32085" lon="3.5745">
        <ele>1030</ele>
        <time>2017-03-04T03:30:46Z</time>
      </trkpt>
      <trkpt lat="44.32074" lon="3.57463">
        <ele>1031</ele>
        <time>2017-03-04T03:32:46Z</time>
      </trkpt>
      <trkpt lat="44.32063" lon="3.5747">
        <ele>1031</ele>
        <time>2017-03-04T03:34:46Z</time>
      </trkpt>
      <trkpt lat="44.32052" lon="3.57475">
        <ele>1032</ele>
        <time>2017-03-04T03:36:46Z</time>
      </trkpt>
      <trkpt lat="44.32028" lon="3.57477">
        <ele>1034</ele>
        <time>2017-03-04T03:38:46Z</time>
      </trkpt>
      <trkpt lat="44.32019" lon="3.57481">
        <ele>1034</ele>
        <time>2017-03-04T03:40:46Z</time>
      </trkpt>
      <trkpt lat="44.32004" lon="3.57487">
        <ele>1035</ele>
        <time>2017-03-04T03:42:46Z</time>
      </trkpt>
      <trkpt lat="44.31992" lon="3.57496">
        <ele>1036</ele>
        <time>2017-03-04T03:44:46Z</time>
      </trkpt>
      <trkpt lat="44.31986" lon="3.575">
        <ele>1036</ele>
        <time>2017-03-04T03:46:46Z</time>
      </trkpt>
      <trkpt lat="44.31974" lon="3.57512">
        <ele>1037</ele>
        <time>2017-03-04T03:48:46Z</time>
      </trkpt>
      <trkpt lat="44.31966" lon="3.57523">
        <ele>1037</ele>
        <time>2017-03-04T03:50:46Z</time>
      </trkpt>
      <trkpt lat="44.31946" lon="3.57553">
        <ele>1038</ele>
        <time>2017-03-04T03:52:46Z</time>
      </trkpt>
      <trkpt lat="44.31941" lon="3.5756">
        <ele>1038</ele>
        <time>2017-03-04T03:54:46Z</time>
      </trkpt>
      <trkpt lat="44.31936" lon="3.57564">
        <ele>1038</ele>
        <time>2017-03-04T03:56:46Z</time>
      </trkpt>
      <trkpt lat="44.31924" lon="3.57572">
        <ele>1038</ele>
        <time>2017-03-04T03:58:46Z</time>
      </trkpt>
      <trkpt lat="44.3192" lon="3.57578">
        <ele>1038</ele>
        <time>2017-03-04T04:00:46Z</time>
      </trkpt>
      <trkpt lat="44.31914" lon="3.57591">
        <ele>1039</ele>
        <time>2017-03-04T04:02:46Z</time>
      </trkpt>
      <trkpt lat="44.31908" lon="3.57601">
        <ele>1039</ele>
        <time>2017-03-04T04:04:46Z</time>
      </trkpt>
      <trkpt lat="44.31901" lon="3.57609">
        <ele>1040</ele>
        <time>2017-03-04T04:06:46Z</time>
      </trkpt>
      <trkpt lat="44.31892" lon="3.57617">
        <ele>1041</ele>
        <time>2017-03-04T04:08:46Z</time>
      </trkpt>
      <trkpt lat="44.31879" lon="3.57632">
        <ele>1043</ele>
        <time>2017-03-04T04:10:46Z</time>
      </trkpt>
      <trkpt lat="44.31867" lon="3.57651">
        <ele>1044</ele>
        <time>2017-03-04T04:12:46Z</time>
      </trkpt>
      <trkpt lat="44.31858" lon="3.57661">
        <ele>1045</ele>
        <time>2017-03-04T04:14:46Z</time>
      </trkpt>
      <trkpt lat="44.31852" lon="3.57673">
        <ele>1045</ele>
        <time>2017-03-04T04:16:46Z</time>
      </trkpt>
      <trkpt lat="44.31846" lon="3.57686">
        <ele>1046</ele>
        <time>2017-03-04T04:18:46Z</time>
      </trkpt>
      <trkpt lat="44.31838" lon="3.57698">
        <ele>1047</ele>
        <time>2017-03-04T04:20:46Z</time>
      </trkpt>
      <trkpt lat="44.31816" lon="3.57736">
        <ele>1048</ele>
        <time>2017-03-04T04:22:46Z</time>
      </trkpt>
      <trkpt lat="44.31805" lon="3.57753">
        <ele>1048</ele>
        <time>2017-03-04T04:24:46Z</time>
      </trkpt>
      <trkpt lat="44.31796" lon="3.57763">
        <ele>1048</ele>
        <time>2017-03-04T04:26:46Z</time>
      </trkpt>
      <trkpt lat="44.31791" lon="3.5777">
        <ele>1048</ele>
        <time>2017-03-04T04:28:46Z</time>
      </trkpt>
      <trkpt lat="44.31788" lon="3.57777">
        <ele>1048</ele>
        <time>2017-03-04T04:30:46Z</time>
      </trkpt>
      <trkpt lat="44.31782" lon="3.57795">
        <ele>1048</ele>
        <time>2017-03-04T04:32:46Z</time>
      </trkpt>
      <trkpt lat="44.31771" lon="3.57824">
        <ele>1047</ele>
        <time>2017-03-04T04:34:46Z</time>
      </trkpt>
      <trkpt lat="44.31758" lon="3.57846">
        <ele>1047</ele>
        <time>2017-03-04T04:36:46Z</time>
      </trkpt>
      <trkpt lat="44.31748" lon="3.57861">
        <ele>1047</ele>
        <time>2017-03-04T04:38:46Z</time>
      </trkpt>
      <trkpt lat="44.3174" lon="3.57869">
        <ele>1046</ele>
        <time>2017-03-04T04:40:46Z</time>
      </trkpt>
      <trkpt lat="44.31735" lon="3.57873">
        <ele>1046</ele>
        <time>2017-03-04T04:42:46Z</time>
      </trkpt>
      <trkpt lat="44.31725" lon="3.57878">
        <ele>1045</ele>
        <time>2017-03-04T04:44:46Z</time>
      </trkpt>
      <trkpt lat="44.31666" lon="3.57904">
        <ele>1042</ele>
        <time>2017-03-04T04:46:46Z</time>
      </trkpt>
      <trkpt lat="44.31652" lon="3.57909">
        <ele>1041</ele>
        <time>2017-03-04T04:48:46Z</time>
      </trkpt>
      <trkpt lat="44.3164" lon="3.5791">
        <ele>1040</ele>
        <time>2017-03-04T04:50:46Z</time>
      </trkpt>
      <trkpt lat="44.31629" lon="3.57909">
        <ele>1039</ele>
        <time>2017-03-04T04:52:46Z</time>
      </trkpt>
      <trkpt lat="44.31596" lon="3.57899">
        <ele>1037</ele>
        <time>2017-03-04T04:54:46Z</time>
      </trkpt>
      <trkpt lat="44.31564" lon="3.57893">
        <ele>1035</ele>
        <time>2017-03-04T04:56:46Z</time>
      </trkpt>
      <trkpt lat="44.31559" lon="3.57894">
        <ele>1035</ele>
        <time>2017-03-04T04:58:46Z</time>
      </trkpt>
      <trkpt lat="44.31552" lon="3.57897">
        <ele>1035</ele>
        <time>2017-03-04T05:00:46Z</time>
      </trkpt>
      <trkpt lat="44.31543" lon="3.57904">
        <ele>1034</ele>
        <time>2017-03-04T05:02:46Z</time>
      </trkpt>
      <trkpt lat="44.31522" lon="3.57915">
        <ele>1034</ele>
        <time>2017-03-04T05:04:46Z</time>
      </trkpt>
      <trkpt lat="44.31515" lon="3.57919">
        <ele>1034</ele>
        <time>2017-03-04T05:06:46Z</time>
      </trkpt>
      <trkpt lat="44.31507" lon="3.57928">
        <ele>1034</ele>
        <time>2017-03-04T05:08:46Z</time>
      </trkpt>
      <trkpt lat="44.31498" lon="3.57937">
        <ele>1034</ele>
        <time>2017-03-04T05:10:46Z</time>
      </trkpt>
      <trkpt lat="44.31485" lon="3.57956">
        <ele>1035</ele>
        <time>2017-03-04T05:12:46Z</time>
      </trkpt>
      <trkpt lat="44.31463" lon="3.57973">
        <ele>1036</ele>
        <time>2017-03-04T05:14:46Z</time>
      </trkpt>
      <trkpt lat="44.31458" lon="3.57978">
        <ele>1037</ele>
        <time>2017-03-04T05:16:46Z</time>
      </trkpt>
      <trkpt lat="44.31451" lon="3.57989">
        <ele>1037</ele>
        <time>2017-03-04T05:18:46Z</time>
      </trkpt>
      <trkpt lat="44.31437" lon="3.58012">
        <ele>1039</ele>
        <time>2017-03-04T05:20:46Z</time>
      </trkpt>
      <trkpt lat="44.31424" lon="3.58029">
        <ele>1041</ele>
        <time>2017-03-04T05:22:46Z</time>
      </trkpt>
      <trkpt lat="44.31416" lon="3.58036">
        <ele>1042</ele>
        <time>2017-03-04T05:24:46Z</time>
      </trkpt>
      <trkpt lat="44.31411" lon="3.58041">
        <ele>1043</ele>
        <time>2017-03-04T05:26:46Z</time>
      </trkpt>
      <trkpt lat="44.31405" lon="3.58051">
        <ele>1044</ele>
        <time>2017-03-04T05:28:46Z</time>
      </trkpt>
      <trkpt lat="44.31403" lon="3.58063">
        <ele>1045</ele>
        <time>2017-03-04T05:30:46Z</time>
      </trkpt>
      <trkpt lat="44.31399" lon="3.5807">
        <ele>1046</ele>
        <time>2017-03-04T05:32:46Z</time>
      </trkpt>
      <trkpt lat="44.31392" lon="3.58078">
        <ele>1046</ele>
        <time>2017-03-04T05:34:46Z</time>
      </trkpt>
      <trkpt lat="44.31358" lon="3.58102">
        <ele>1049</ele>
        <time>2017-03-04T05:36:46Z</time>
      </trkpt>
      <trkpt lat="44.3135" lon="3.58107">
        <ele>1049</ele>
        <time>2017-03-04T05:38:46Z</time>
      </trkpt>
      <trkpt lat="44.31341" lon="3.5811">
        <ele>1050</ele>
        <time>2017-03-04T05:40:46Z</time>
      </trkpt>
      <trkpt lat="44.3132" lon="3.58118">
        <ele>1050</ele>
        <time>2017-03-04T05:42:46Z</time>
      </trkpt>
      <trkpt lat="44.31295" lon="3.58128">
        <ele>1050</ele>
        <time>2017-03-04T05:44:46Z</time>
      </trkpt>
      <trkpt lat="44.31287" lon="3.5813">
        <ele>1051</ele>
        <time>2017-03-04T05:46:46Z</time>
      </trkpt>
      <trkpt lat="44.31276" lon="3.58134">
        <ele>1051</ele>
        <time>2017-03-04T05:48:46Z</time>
      </trkpt>
      <trkpt lat="44.31268" lon="3.58138">
        <ele>1051</ele>
        <time>2017-03-04T05:50:46Z</time>
      </trkpt>
      <trkpt lat="44.31249" lon="3.58151">
        <ele>1052</ele>
        <time>2017-03-04T05:52:46Z</time>
      </trkpt>
      <trkpt lat="44.3123" lon="3.58167">
        <ele>1054</ele>
        <time>2017-03-04T05:54:46Z</time>
      </trkpt>
      <trkpt lat="44.31214" lon="3.58177">
        <ele>1054</ele>
        <time>2017-03-04T05:56:46Z</time>
      </trkpt>
      <trkpt lat="44.31202" lon="3.58181">
        <ele>1055</ele>
        <time>2017-03-04T05:58:46Z</time>
      </trkpt>
      <trkpt lat="44.31185" lon="3.58184">
        <ele>1055</ele>
        <time>2017-03-04T06:00:46Z</time>
      </trkpt>
      <trkpt lat="44.31171" lon="3.58182">
        <ele>1056</ele>
        <time>2017-03-04T06:02:46Z</time>
      </trkpt>
      <trkpt lat="44.31157" lon="3.58178">
        <ele>1057</ele>
        <time>2017-03-04T06:04:46Z</time>
      </trkpt>
      <trkpt lat="44.31141" lon="3.5817">
        <ele>1058</ele>
        <time>2017-03-04T06:06:46Z</time>
      </trkpt>
      <trkpt lat="44.31128" lon="3.58167">
        <ele>1060</ele>
        <time>2017-03-04T06:08:46Z</time>
      </trkpt>
      <trkpt lat="44.31096" lon="3.58162">
        <ele>1063</ele>
        <time>2017-03-04T06:10:46Z</time>
      </trkpt>
      <trkpt lat="44.3107" lon="3.58154">
        <ele>1066</ele>
        <time>2017-03-04T06:12:46Z</time>
      </trkpt>
      <trkpt lat="44.31053" lon="3.58155">
        <ele>1068</ele>
        <time>2017-03-04T06:14:46Z</time>
      </trkpt>
      <trkpt lat="44.31014" lon="3.58164">
        <ele>1073</ele>
        <time>2017-03-04T06:16:46Z</time>
      </trkpt>
      <trkpt lat="44.30973" lon="3.58179">
        <ele>1074</ele>
        <time>2017-03-04T06:18:46Z</time>
      </trkpt>
      <trkpt lat="44.30944" lon="3.5819">
        <ele>1074</ele>
        <time>2017-03-04T06:20:46Z</time>
      </trkpt>
      <trkpt lat="44.3093" lon="3.58193">
        <ele>1074</ele>
        <time>2017-03-04T06:22:46Z</time>
      </trkpt>
      <trkpt lat="44.30921" lon="3.58192">
        <ele>1074</ele>
        <time>2017-03-04T06:24:46Z</time>
      </trkpt>
      <trkpt lat="44.30914" lon="3.58189">
        <ele>1075</ele>
        <time>2017-03-04T06:26:46Z</time>
      </trkpt>
      <trkpt lat="44.3091" lon="3.58184">
        <ele>1075</ele>
        <time>2017-03-04T06:28:46Z</time>
      </trkpt>
      <trkpt lat="44.30897" lon="3.58152">
        <ele>1078</ele>
        <time>2017-03-04T06:30:46Z</time>
      </trkpt>
      <trkpt lat="44.30892" lon="3.58139">
        <ele>1080</ele>
        <time>2017-03-04T06:32:46Z</time>
      </trkpt>
      <trkpt lat="44.30888" lon="3.58134">
        <ele>1080</ele>
        <time>2017-03-04T06:34:46Z</time>
      </trkpt>
      <trkpt lat="44.30883" lon="3.58129">
        <ele>1080</ele>
        <time>2017-03-04T06:36:46Z</time>
      </trkpt>
      <trkpt lat="44.30877" lon="3.58125">
        <ele>1081</ele>
        <time>2017-03-04T06:38:46Z</time>
      </trkpt>
      <trkpt lat="44.3087" lon="3.58123">
        <ele>1080</ele>
        <time>2017-03-04T06:40:46Z</time>
      </trkpt>
      <trkpt lat="44.30851" lon="3.58122">
        <ele>1079</ele>
        <time>2017-03-04T06:42:46Z</time>
      </trkpt>
      <trkpt lat="44.30839" lon="3.58118">
        <ele>1079</ele>
        <time>2017-03-04T06:44:46Z</time>
      </trkpt>
      <trkpt lat="44.30822" lon="3.58111">
        <ele>1080</ele>
        <time>2017-03-04T06:46:46Z</time>
      </trkpt>
      <trkpt lat="44.30803" lon="3.58101">
        <ele>1082</ele>
        <time>2017-03-04T06:48:46Z</time>
      </trkpt>
      <trkpt lat="44.30789" lon="3.58089">
        <ele>1083</ele>
        <time>2017-03-04T06:50:46Z</time>
      </trkpt>
      <trkpt lat="44.30779" lon="3.5808">
        <ele>1084</ele>
        <time>2017-03-04T06:52:46Z</time>
      </trkpt>
      <trkpt lat="44.30773" lon="3.58073">
        <ele>1085</ele>
        <time>2017-03-04T06:54:46Z</time>
      </trkpt>
      <trkpt lat="44.30767" lon="3.58068">
        <ele>1085</ele>
        <time>2017-03-04T06:56:46Z</time>
      </trkpt>
      <trkpt lat="44.30758" lon="3.58066">
        <ele>1085</ele>
        <time>2017-03-04T06:58:46Z</time>
      </trkpt>
      <trkpt lat="44.30745" lon="3.58068">
        <ele>1086</ele>
        <time>2017-03-04T07:00:46Z</time>
      </trkpt>
      <trkpt lat="44.30731" lon="3.58069">
        <ele>1087</ele>
        <time>2017-03-04T07:02:46Z</time>
      </trkpt>
      <trkpt lat="44.30717" lon="3.58065">
        <ele>1088</ele>
        <time>2017-03-04T07:04:46Z</time>
      </trkpt>
      <trkpt lat="44.307" lon="3.58056">
        <ele>1090</ele>
        <time>2017-03-04T07:06:46Z</time>
      </trkpt>
      <trkpt lat="44.30679" lon="3.58045">
        <ele>1093</ele>
        <time>2017-03-04T07:08:46Z</time>
      </trkpt>
      <trkpt lat="44.30664" lon="3.58043">
        <ele>1095</ele>
        <time>2017-03-04T07:10:46Z</time>
      </trkpt>
      <trkpt lat="44.30638" lon="3.58046">
        <ele>1096</ele>
        <time>2017-03-04T07:12:46Z</time>
      </trkpt>
      <trkpt lat="44.3061" lon="3.58045">
        <ele>1097</ele>
        <time>2017-03-04T07:14:46Z</time>
      </trkpt>
      <trkpt lat="44.30584" lon="3.58043">
        <ele>1098</ele>
        <time>2017-03-04T07:16:46Z</time>
      </trkpt>
      <trkpt lat="44.30546" lon="3.5804">
        <ele>1099</ele>
        <time>2017-03-04T07:18:46Z</time>
      </trkpt>
      <trkpt lat="44.30513" lon="3.58042">
        <ele>1100</ele>
        <time>2017-03-04T07:20:46Z</time>
      </trkpt>
      <trkpt lat="44.30488" lon="3.58046">
        <ele>1100</ele>
        <time>2017-03-04T07:22:46Z</time>
      </trkpt>
      <trkpt lat="44.30456" lon="3.5805">
        <ele>1099</ele>
        <time>2017-03-04T07:24:46Z</time>
      </trkpt>
      <trkpt lat="44.30426" lon="3.58056">
        <ele>1098</ele>
        <time>2017-03-04T07:26:46Z</time>
      </trkpt>
      <trkpt lat="44.30418" lon="3.58057">
        <ele>1098</ele>
        <time>2017-03-04T07:28:46Z</time>
      </trkpt>
      <trkpt lat="44.30412" lon="3.58056">
        <ele>1098</ele>
        <time>2017-03-04T07:30:46Z</time>
      </trkpt>
      <trkpt lat="44.30402" lon="3.58051">
        <ele>1098</ele>
        <time>2017-03-04T07:32:46Z</time>
      </trkpt>
      <trkpt lat="44.30389" lon="3.5805">
        <ele>1099</ele>
        <time>2017-03-04T07:34:46Z</time>
      </trkpt>
      <trkpt lat="44.3038" lon="3.58048">
        <ele>1099</ele>
        <time>2017-03-04T07:36:46Z</time>
      </trkpt>
      <trkpt lat="44.30355" lon="3.5804">
        <ele>1101</ele>
        <time>2017-03-04T07:38:46Z</time>
      </trkpt>
      <trkpt lat="44.30337" lon="3.58028">
        <ele>1102</ele>
        <time>2017-03-04T07:40:46Z</time>
      </trkpt>
      <trkpt lat="44.30317" lon="3.58022">
        <ele>1104</ele>
        <time>2017-03-04T07:42:46Z</time>
      </trkpt>
      <trkpt lat="44.30289" lon="3.58014">
        <ele>1105</ele>
        <time>2017-03-04T07:44:46Z</time>
      </trkpt>
      <trkpt lat="44.30265" lon="3.58013">
        <ele>1106</ele>
        <time>2017-03-04T07:46:46Z</time>
      </trkpt>
      <trkpt lat="44.30231" lon="3.58013">
        <ele>1109</ele>
        <time>2017-03-04T07:48:46Z</time>
      </trkpt>
      <trkpt lat="44.30221" lon="3.58015">
        <ele>1110</ele>
        <time>2017-03-04T07:50:46Z</time>
      </trkpt>
      <trkpt lat="44.30213" lon="3.58022">
        <ele>1110</ele>
        <time>2017-03-04T07:52:46Z</time>
      </trkpt>
      <trkpt lat="44.3019" lon="3.58051">
        <ele>1110</ele>
        <time>2017-03-04T07:54:46Z</time>
      </trkpt>
      <trkpt lat="44.30181" lon="3.58061">
        <ele>1110</ele>
        <time>2017-03-04T07:56:46Z</time>
      </trkpt>
      <trkpt lat="44.30169" lon="3.58073">
        <ele>1111</ele>
        <time>2017-03-04T07:58:46Z</time>
      </trkpt>
      <trkpt lat="44.30164" lon="3.5808">
        <ele>1110</ele>
        <time>2017-03-04T08:00:46Z</time>
      </trkpt>
      <trkpt lat="44.30157" lon="3.5809">
        <ele>1110</ele>
        <time>2017-03-04T08:02:46Z</time>
      </trkpt>
      <trkpt lat="44.30152" lon="3.58104">
        <ele>1110</ele>
        <time>2017-03-04T08:04:46Z</time>
      </trkpt>
      <trkpt lat="44.30138" lon="3.58129">
        <ele>1109</ele>
        <time>2017-03-04T08:06:46Z</time>
      </trkpt>
      <trkpt lat="44.30119" lon="3.58162">
        <ele>1107</ele>
        <time>2017-03-04T08:08:46Z</time>
      </trkpt>
      <trkpt lat="44.30102" lon="3.58189">
        <ele>1105</ele>
        <time>2017-03-04T08:10:46Z</time>
      </trkpt>
      <trkpt lat="44.30083" lon="3.58212">
        <ele>1103</ele>
        <time>2017-03-04T08:12:46Z</time>
      </trkpt>
      <trkpt lat="44.30073" lon="3.58222">
        <ele>1101</ele>
        <time>2017-03-04T08:14:46Z</time>
      </trkpt>
      <trkpt lat="44.30066" lon="3.58226">
        <ele>1100</ele>
        <time>2017-03-04T08:16:46Z</time>
      </trkpt>
      <trkpt lat="44.30057" lon="3.58226">
        <ele>1100</ele>
        <time>2017-03-04T08:18:46Z</time>
      </trkpt>
      <trkpt lat="44.30046" lon="3.58226">
        <ele>1099</ele>
        <time>2017-03-04T08:20:46Z</time>
      </trkpt>
      <trkpt lat="44.30035" lon="3.58227">
        <ele>1097</ele>
        <time>2017-03-04T08:22:46Z</time>
      </trkpt>
      <trkpt lat="44.3001" lon="3.5824">
        <ele>1094</ele>
        <time>2017-03-04T08:24:46Z</time>
      </trkpt>
      <trkpt lat="44.29987" lon="3.58253">
        <ele>1091</ele>
        <time>2017-03-04T08:26:46Z</time>
      </trkpt>
      <trkpt lat="44.29968" lon="3.58266">
        <ele>1088</ele>
        <time>2017-03-04T08:28:46Z</time>
      </trkpt>
      <trkpt lat="44.29959" lon="3.58273">
        <ele>1087</ele>
        <time>2017-03-04T08:30:46Z</time>
      </trkpt>
      <trkpt lat="44.29954" lon="3.58274">
        <ele>1086</ele>
        <time>2017-03-04T08:32:46Z</time>
      </trkpt>
      <trkpt lat="44.29946" lon="3.58272">
        <ele>1086</ele>
        <time>2017-03-04T08:34:46Z</time>
      </trkpt>
      <trkpt lat="44.29937" lon="3.58271">
        <ele>1085</ele>
        <time>2017-03-04T08:36:46Z</time>
      </trkpt>
      <trkpt lat="44.2993" lon="3.5827">
        <ele>1084</ele>
        <time>2017-03-04T08:38:46Z</time>
      </trkpt>
      <trkpt lat="44.29919" lon="3.58272">
        <ele>1083</ele>
        <time>2017-03-04T08:40:46Z</time>
      </trkpt>
      <trkpt lat="44.29912" lon="3.5827">
        <ele>1083</ele>
        <time>2017-03-04T08:42:46Z</time>
      </trkpt>
      <trkpt lat="44.29907" lon="3.58264">
        <ele>1083</ele>
        <time>2017-03-04T08:44:46Z</time>
      </trkpt>
      <trkpt lat="44.29904" lon="3.58256">
        <ele>1083</ele>
        <time>2017-03-04T08:46:46Z</time>
      </trkpt>
      <trkpt lat="44.29892" lon="3.58235">
        <ele>1084</ele>
        <time>2017-03-04T08:48:46Z</time>
      </trkpt>
      <trkpt lat="44.29883" lon="3.58208">
        <ele>1085</ele>
        <time>2017-03-04T08:50:46Z</time>
      </trkpt>
      <trkpt lat="44.29877" lon="3.58203">
        <ele>1085</ele>
        <time>2017-03-04T08:52:46Z</time>
      </trkpt>
      <trkpt lat="44.29868" lon="3.58202">
        <ele>1084</ele>
        <time>2017-03-04T08:54:46Z</time>
      </trkpt>
      <trkpt lat="44.2983" lon="3.58199">
        <ele>1083</ele>
        <time>2017-03-04T08:56:46Z</time>
      </trkpt>
      <trkpt lat="44.29788" lon="3.58204">
        <ele>1083</ele>
        <time>2017-03-04T08:58:46Z</time>
      </trkpt>
      <trkpt lat="44.29763" lon="3.58209">
        <ele>1083</ele>
        <time>2017-03-04T09:00:46Z</time>
      </trkpt>
      <trkpt lat="44.2975" lon="3.58219">
        <ele>1083</ele>
        <time>2017-03-04T09:02:46Z</time>
      </trkpt>
      <trkpt lat="44.29743" lon="3.5823">
        <ele>1083</ele>
        <time>2017-03-04T09:04:46Z</time>
      </trkpt>
      <trkpt lat="44.29741" lon="3.5824">
        <ele>1083</ele>
        <time>2017-03-04T09:06:46Z</time>
      </trkpt>
      <trkpt lat="44.29741" lon="3.58252">
        <ele>1082</ele>
        <time>2017-03-04T09:08:46Z</time>
      </trkpt>
      <trkpt lat="44.29742" lon="3.5831">
        <ele>1081</ele>
        <time>2017-03-04T09:10:46Z</time>
      </trkpt>
      <trkpt lat="44.2974" lon="3.58327">
        <ele>1080</ele>
        <time>2017-03-04T09:12:46Z</time>
      </trkpt>
      <trkpt lat="44.29735" lon="3.58338">
        <ele>1080</ele>
        <time>2017-03-04T09:14:46Z</time>
      </trkpt>
      <trkpt lat="44.29729" lon="3.58341">
        <ele>1080</ele>
        <time>2017-03-04T09:16:46Z</time>
      </trkpt>
      <trkpt lat="44.29726" lon="3.5834">
        <ele>1080</ele>
        <time>2017-03-04T09:18:46Z</time>
      </trkpt>
      <trkpt lat="44.29723" lon="3.58336">
        <ele>1080</ele>
        <time>2017-03-04T09:20:46Z</time>
      </trkpt>
      <trkpt lat="44.29708" lon="3.58291">
        <ele>1082</ele>
        <time>2017-03-04T09:22:46Z</time>
      </trkpt>
      <trkpt lat="44.29696" lon="3.58273">
        <ele>1082</ele>
        <time>2017-03-04T09:24:46Z</time>
      </trkpt>
      <trkpt lat="44.29682" lon="3.58261">
        <ele>1083</ele>
        <time>2017-03-04T09:26:46Z</time>
      </trkpt>
      <trkpt lat="44.2967" lon="3.58242">
        <ele>1084</ele>
        <time>2017-03-04T09:28:46Z</time>
      </trkpt>
      <trkpt lat="44.29669" lon="3.58238">
        <ele>1085</ele>
        <time>2017-03-04T09:30:46Z</time>
      </trkpt>
      <trkpt lat="44.29673" lon="3.58234">
        <ele>1085</ele>
        <time>2017-03-04T09:32:46Z</time>
      </trkpt>
      <trkpt lat="44.29669" lon="3.58238">
        <ele>1085</ele>
        <time>2017-03-04T09:34:46Z</time>
      </trkpt>
      <trkpt lat="44.2967" lon="3.58242">
        <ele>1084</ele>
        <time>2017-03-04T09:36:46Z</time>
      </trkpt>
      <trkpt lat="44.29682" lon="3.58261">
        <ele>1083</ele>
        <time>2017-03-04T09:38:46Z</time>
      </trkpt>
      <trkpt lat="44.29682" lon="3.58268">
        <ele>1083</ele>
        <time>2017-03-04T09:40:46Z</time>
      </trkpt>
      <trkpt lat="44.29682" lon="3.58273">
        <ele>1083</ele>
        <time>2017-03-04T09:42:46Z</time>
      </trkpt>
      <trkpt lat="44.29686" lon="3.58286">
        <ele>1082</ele>
        <time>2017-03-04T09:44:46Z</time>
      </trkpt>
      <trkpt lat="44.2969" lon="3.58307">
        <ele>1081</ele>
        <time>2017-03-04T09:46:46Z</time>
      </trkpt>
      <trkpt lat="44.29697" lon="3.58345">
        <ele>1079</ele>
        <time>2017-03-04T09:48:46Z</time>
      </trkpt>
      <trkpt lat="44.29705" lon="3.58389">
        <ele>1077</ele>
        <time>2017-03-04T09:50:46Z</time>
      </trkpt>
      <trkpt lat="44.29707" lon="3.58407">
        <ele>1076</ele>
        <time>2017-03-04T09:52:46Z</time>
      </trkpt>
      <trkpt lat="44.29707" lon="3.5842">
        <ele>1076</ele>
        <time>2017-03-04T09:54:46Z</time>
      </trkpt>
      <trkpt lat="44.29707" lon="3.58432">
        <ele>1076</ele>
        <time>2017-03-04T09:56:46Z</time>
      </trkpt>
      <trkpt lat="44.29707" lon="3.58445">
        <ele>1076</ele>
        <time>2017-03-04T09:58:46Z</time>
      </trkpt>
      <trkpt lat="44.29707" lon="3.58455">
        <ele>1075</ele>
        <time>2017-03-04T10:00:46Z</time>
      </trkpt>
      <trkpt lat="44.29709" lon="3.58468">
        <ele>1075</ele>
        <time>2017-03-04T10:02:46Z</time>
      </trkpt>
      <trkpt lat="44.29715" lon="3.58495">
        <ele>1076</ele>
        <time>2017-03-04T10:04:46Z</time>
      </trkpt>
      <trkpt lat="44.29716" lon="3.58507">
        <ele>1076</ele>
        <time>2017-03-04T10:06:46Z</time>
      </trkpt>
      <trkpt lat="44.29718" lon="3.58539">
        <ele>1077</ele>
        <time>2017-03-04T10:08:46Z</time>
      </trkpt>
      <trkpt lat="44.29718" lon="3.58551">
        <ele>1077</ele>
        <time>2017-03-04T10:10:46Z</time>
      </trkpt>
      <trkpt lat="44.29717" lon="3.5856">
        <ele>1077</ele>
        <time>2017-03-04T10:12:46Z</time>
      </trkpt>
      <trkpt lat="44.29715" lon="3.5857">
        <ele>1077</ele>
        <time>2017-03-04T10:14:46Z</time>
      </trkpt>
      <trkpt lat="44.29711" lon="3.58586">
        <ele>1077</ele>
        <time>2017-03-04T10:16:46Z</time>
      </trkpt>
      <trkpt lat="44.29707" lon="3.58607">
        <ele>1076</ele>
        <time>2017-03-04T10:18:46Z</time>
      </trkpt>
      <trkpt lat="44.29705" lon="3.58617">
        <ele>1076</ele>
        <time>2017-03-04T10:20:46Z</time>
      </trkpt>
      <trkpt lat="44.297" lon="3.58631">
        <ele>1075</ele>
        <time>2017-03-04T10:22:46Z</time>
      </trkpt>
      <trkpt lat="44.29685" lon="3.58667">
        <ele>1071</ele>
        <time>2017-03-04T10:24:46Z</time>
      </trkpt>
      <trkpt lat="44.29672" lon="3.58707">
        <ele>1066</ele>
        <time>2017-03-04T10:26:46Z</time>
      </trkpt>
      <trkpt lat="44.29665" lon="3.58733">
        <ele>1064</ele>
        <time>2017-03-04T10:28:46Z</time>
      </trkpt>
      <trkpt lat="44.29662" lon="3.58749">
        <ele>1062</ele>
        <time>2017-03-04T10:30:46Z</time>
      </trkpt>
      <trkpt lat="44.29664" lon="3.58758">
        <ele>1059</ele>
        <time>2017-03-04T10:32:46Z</time>
      </trkpt>
      <trkpt lat="44.29671" lon="3.58762">
        <ele>1057</ele>
        <time>2017-03-04T10:34:46Z</time>
      </trkpt>
      <trkpt lat="44.29686" lon="3.58758">
        <ele>1057</ele>
        <time>2017-03-04T10:36:46Z</time>
      </trkpt>
      <trkpt lat="44.29691" lon="3.58758">
        <ele>1056</ele>
        <time>2017-03-04T10:38:46Z</time>
      </trkpt>
      <trkpt lat="44.29694" lon="3.58757">
        <ele>1056</ele>
        <time>2017-03-04T10:40:46Z</time>
      </trkpt>
      <trkpt lat="44.29698" lon="3.58754">
        <ele>1057</ele>
        <time>2017-03-04T10:42:46Z</time>
      </trkpt>
      <trkpt lat="44.29719" lon="3.5875">
        <ele>1057</ele>
        <time>2017-03-04T10:44:46Z</time>
      </trkpt>
      <trkpt lat="44.29733" lon="3.58747">
        <ele>1056</ele>
        <time>2017-03-04T10:46:46Z</time>
      </trkpt>
      <trkpt lat="44.29749" lon="3.58741">
        <ele>1056</ele>
        <time>2017-03-04T10:48:46Z</time>
      </trkpt>
      <trkpt lat="44.2977" lon="3.58736">
        <ele>1057</ele>
        <time>2017-03-04T10:50:46Z</time>
      </trkpt>
      <trkpt lat="44.29787" lon="3.58736">
        <ele>1056</ele>
        <time>2017-03-04T10:52:46Z</time>
      </trkpt>
      <trkpt lat="44.29801" lon="3.58737">
        <ele>1055</ele>
        <time>2017-03-04T10:54:46Z</time>
      </trkpt>
      <trkpt lat="44.29808" lon="3.5874">
        <ele>1053</ele>
        <time>2017-03-04T10:56:46Z</time>
      </trkpt>
      <trkpt lat="44.29819" lon="3.58747">
        <ele>1051</ele>
        <time>2017-03-04T10:58:46Z</time>
      </trkpt>
      <trkpt lat="44.29833" lon="3.58759">
        <ele>1045</ele>
        <time>2017-03-04T11:00:46Z</time>
      </trkpt>
      <trkpt lat="44.29845" lon="3.58771">
        <ele>1041</ele>
        <time>2017-03-04T11:02:46Z</time>
      </trkpt>
      <trkpt lat="44.29854" lon="3.5878">
        <ele>1039</ele>
        <time>2017-03-04T11:04:46Z</time>
      </trkpt>
      <trkpt lat="44.29859" lon="3.58783">
        <ele>1039</ele>
        <time>2017-03-04T11:06:46Z</time>
      </trkpt>
      <trkpt lat="44.29863" lon="3.58785">
        <ele>1039</ele>
        <time>2017-03-04T11:08:46Z</time>
      </trkpt>
      <trkpt lat="44.29869" lon="3.58786">
        <ele>1040</ele>
        <time>2017-03-04T11:10:46Z</time>
      </trkpt>
      <trkpt lat="44.2988" lon="3.58792">
        <ele>1040</ele>
        <time>2017-03-04T11:12:46Z</time>
      </trkpt>
      <trkpt lat="44.29883" lon="3.58795">
        <ele>1039</ele>
        <time>2017-03-04T11:14:46Z</time>
      </trkpt>
      <trkpt lat="44.29893" lon="3.58808">
        <ele>1037</ele>
        <time>2017-03-04T11:16:46Z</time>
      </trkpt>
      <trkpt lat="44.29897" lon="3.58819">
        <ele>1034</ele>
        <time>2017-03-04T11:18:46Z</time>
      </trkpt>
      <trkpt lat="44.29899" lon="3.58828">
        <ele>1031</ele>
        <time>2017-03-04T11:20:46Z</time>
      </trkpt>
      <trkpt lat="44.299" lon="3.58833">
        <ele>1029</ele>
        <time>2017-03-04T11:22:46Z</time>
      </trkpt>
      <trkpt lat="44.29899" lon="3.58837">
        <ele>1027</ele>
        <time>2017-03-04T11:24:46Z</time>
      </trkpt>
      <trkpt lat="44.29903" lon="3.58845">
        <ele>1025</ele>
        <time>2017-03-04T11:26:46Z</time>
      </trkpt>
      <trkpt lat="44.29899" lon="3.58837">
        <ele>1027</ele>
        <time>2017-03-04T11:28:46Z</time>
      </trkpt>
      <trkpt lat="44.29896" lon="3.58837">
        <ele>1026</ele>
        <time>2017-03-04T11:30:46Z</time>
      </trkpt>
      <trkpt lat="44.29886" lon="3.58824">
        <ele>1029</ele>
        <time>2017-03-04T11:32:46Z</time>
      </trkpt>
      <trkpt lat="44.29877" lon="3.58817">
        <ele>1029</ele>
        <time>2017-03-04T11:34:46Z</time>
      </trkpt>
      <trkpt lat="44.2987" lon="3.58814">
        <ele>1028</ele>
        <time>2017-03-04T11:36:46Z</time>
      </trkpt>
      <trkpt lat="44.29869" lon="3.58818">
        <ele>1026</ele>
        <time>2017-03-04T11:38:46Z</time>
      </trkpt>
      <trkpt lat="44.29873" lon="3.58826">
        <ele>1024</ele>
        <time>2017-03-04T11:40:46Z</time>
      </trkpt>
      <trkpt lat="44.29877" lon="3.58838">
        <ele>1020</ele>
        <time>2017-03-04T11:42:46Z</time>
      </trkpt>
      <trkpt lat="44.29877" lon="3.58843">
        <ele>1018</ele>
        <time>2017-03-04T11:44:46Z</time>
      </trkpt>
      <trkpt lat="44.29869" lon="3.58838">
        <ele>1018</ele>
        <time>2017-03-04T11:46:46Z</time>
      </trkpt>
      <trkpt lat="44.29863" lon="3.58833">
        <ele>1018</ele>
        <time>2017-03-04T11:48:46Z</time>
      </trkpt>
      <trkpt lat="44.29854" lon="3.58833">
        <ele>1015</ele>
        <time>2017-03-04T11:50:46Z</time>
      </trkpt>
      <trkpt lat="44.29834" lon="3.58833">
        <ele>1009</ele>
        <time>2017-03-04T11:52:46Z</time>
      </trkpt>
      <trkpt lat="44.29821" lon="3.58833">
        <ele>1008</ele>
        <time>2017-03-04T11:54:46Z</time>
      </trkpt>
      <trkpt lat="44.29808" lon="3.58834">
        <ele>1007</ele>
        <time>2017-03-04T11:56:46Z</time>
      </trkpt>
      <trkpt lat="44.29801" lon="3.58836">
        <ele>1005</ele>
        <time>2017-03-04T11:58:46Z</time>
      </trkpt>
      <trkpt lat="44.29799" lon="3.5884">
        <ele>1003</ele>
        <time>2017-03-04T12:00:46Z</time>
      </trkpt>
      <trkpt lat="44.29815" lon="3.58848">
        <ele>1001</ele>
        <time>2017-03-04T12:02:46Z</time>
      </trkpt>
      <trkpt lat="44.2982" lon="3.58852">
        <ele>1000</ele>
        <time>2017-03-04T12:04:46Z</time>
      </trkpt>
      <trkpt lat="44.29829" lon="3.58863">
        <ele>996</ele>
        <time>2017-03-04T12:06:46Z</time>
      </trkpt>
      <trkpt lat="44.29838" lon="3.58873">
        <ele>993</ele>
        <time>2017-03-04T12:08:46Z</time>
      </trkpt>
      <trkpt lat="44.2984" lon="3.58877">
        <ele>992</ele>
        <time>2017-03-04T12:10:46Z</time>
      </trkpt>
      <trkpt lat="44.2984" lon="3.58881">
        <ele>991</ele>
        <time>2017-03-04T12:12:46Z</time>
      </trkpt>
      <trkpt lat="44.29824" lon="3.58877">
        <ele>989</ele>
        <time>2017-03-04T12:14:46Z</time>
      </trkpt>
      <trkpt lat="44.29815" lon="3.58877">
        <ele>988</ele>
        <time>2017-03-04T12:16:46Z</time>
      </trkpt>
      <trkpt lat="44.29801" lon="3.58881">
        <ele>984</ele>
        <time>2017-03-04T12:18:46Z</time>
      </trkpt>
      <trkpt lat="44.29791" lon="3.58886">
        <ele>980</ele>
        <time>2017-03-04T12:20:46Z</time>
      </trkpt>
      <trkpt lat="44.29778" lon="3.5889">
        <ele>976</ele>
        <time>2017-03-04T12:22:46Z</time>
      </trkpt>
      <trkpt lat="44.29763" lon="3.58894">
        <ele>972</ele>
        <time>2017-03-04T12:24:46Z</time>
      </trkpt>
      <trkpt lat="44.29756" lon="3.58895">
        <ele>970</ele>
        <time>2017-03-04T12:26:46Z</time>
      </trkpt>
      <trkpt lat="44.29749" lon="3.58892">
        <ele>971</ele>
        <time>2017-03-04T12:28:46Z</time>
      </trkpt>
      <trkpt lat="44.29741" lon="3.58891">
        <ele>973</ele>
        <time>2017-03-04T12:30:46Z</time>
      </trkpt>
      <trkpt lat="44.29735" lon="3.58892">
        <ele>973</ele>
        <time>2017-03-04T12:32:46Z</time>
      </trkpt>
      <trkpt lat="44.29729" lon="3.58896">
        <ele>972</ele>
        <time>2017-03-04T12:34:46Z</time>
      </trkpt>
      <trkpt lat="44.29725" lon="3.589">
        <ele>970</ele>
        <time>2017-03-04T12:36:46Z</time>
      </trkpt>
      <trkpt lat="44.29721" lon="3.58905">
        <ele>968</ele>
        <time>2017-03-04T12:38:46Z</time>
      </trkpt>
      <trkpt lat="44.29716" lon="3.58924">
        <ele>958</ele>
        <time>2017-03-04T12:40:46Z</time>
      </trkpt>
      <trkpt lat="44.2971" lon="3.58933">
        <ele>954</ele>
        <time>2017-03-04T12:42:46Z</time>
      </trkpt>
      <trkpt lat="44.29704" lon="3.5894">
        <ele>951</ele>
        <time>2017-03-04T12:44:46Z</time>
      </trkpt>
      <trkpt lat="44.29696" lon="3.58943">
        <ele>951</ele>
        <time>2017-03-04T12:46:46Z</time>
      </trkpt>
      <trkpt lat="44.29684" lon="3.58946">
        <ele>950</ele>
        <time>2017-03-04T12:48:46Z</time>
      </trkpt>
      <trkpt lat="44.2967" lon="3.58947">
        <ele>952</ele>
        <time>2017-03-04T12:50:46Z</time>
      </trkpt>
      <trkpt lat="44.29659" lon="3.5895">
        <ele>949</ele>
        <time>2017-03-04T12:52:46Z</time>
      </trkpt>
      <trkpt lat="44.29648" lon="3.58958">
        <ele>943</ele>
        <time>2017-03-04T12:54:46Z</time>
      </trkpt>
      <trkpt lat="44.29644" lon="3.58959">
        <ele>941</ele>
        <time>2017-03-04T12:56:46Z</time>
      </trkpt>
      <trkpt lat="44.29638" lon="3.58955">
        <ele>943</ele>
        <time>2017-03-04T12:58:46Z</time>
      </trkpt>
      <trkpt lat="44.29634" lon="3.5895">
        <ele>945</ele>
        <time>2017-03-04T13:00:46Z</time>
      </trkpt>
      <trkpt lat="44.29632" lon="3.58953">
        <ele>943</ele>
        <time>2017-03-04T13:02:46Z</time>
      </trkpt>
      <trkpt lat="44.29633" lon="3.58961">
        <ele>938</ele>
        <time>2017-03-04T13:04:46Z</time>
      </trkpt>
      <trkpt lat="44.29633" lon="3.58965">
        <ele>936</ele>
        <time>2017-03-04T13:06:46Z</time>
      </trkpt>
      <trkpt lat="44.29628" lon="3.58964">
        <ele>936</ele>
        <time>2017-03-04T13:08:46Z</time>
      </trkpt>
      <trkpt lat="44.29625" lon="3.58958">
        <ele>938</ele>
        <time>2017-03-04T13:10:46Z</time>
      </trkpt>
      <trkpt lat="44.29622" lon="3.58955">
        <ele>940</ele>
        <time>2017-03-04T13:12:46Z</time>
      </trkpt>
      <trkpt lat="44.29622" lon="3.58961">
        <ele>936</ele>
        <time>2017-03-04T13:14:46Z</time>
      </trkpt>
      <trkpt lat="44.29623" lon="3.58966">
        <ele>933</ele>
        <time>2017-03-04T13:16:46Z</time>
      </trkpt>
      <trkpt lat="44.29619" lon="3.58966">
        <ele>933</ele>
        <time>2017-03-04T13:18:46Z</time>
      </trkpt>
      <trkpt lat="44.29616" lon="3.58964">
        <ele>933</ele>
        <time>2017-03-04T13:20:46Z</time>
      </trkpt>
      <trkpt lat="44.29612" lon="3.5897">
        <ele>929</ele>
        <time>2017-03-04T13:22:46Z</time>
      </trkpt>
      <trkpt lat="44.29612" lon="3.58974">
        <ele>927</ele>
        <time>2017-03-04T13:24:46Z</time>
      </trkpt>
      <trkpt lat="44.29613" lon="3.5898">
        <ele>923</ele>
        <time>2017-03-04T13:26:46Z</time>
      </trkpt>
      <trkpt lat="44.29618" lon="3.58987">
        <ele>920</ele>
        <time>2017-03-04T13:28:46Z</time>
      </trkpt>
      <trkpt lat="44.29622" lon="3.58999">
        <ele>914</ele>
        <time>2017-03-04T13:30:46Z</time>
      </trkpt>
      <trkpt lat="44.29623" lon="3.59006">
        <ele>910</ele>
        <time>2017-03-04T13:32:46Z</time>
      </trkpt>
      <trkpt lat="44.2962" lon="3.59006">
        <ele>909</ele>
        <time>2017-03-04T13:34:46Z</time>
      </trkpt>
      <trkpt lat="44.29618" lon="3.59001">
        <ele>912</ele>
        <time>2017-03-04T13:36:46Z</time>
      </trkpt>
      <trkpt lat="44.29614" lon="3.58995">
        <ele>915</ele>
        <time>2017-03-04T13:38:46Z</time>
      </trkpt>
      <trkpt lat="44.29606" lon="3.58988">
        <ele>917</ele>
        <time>2017-03-04T13:40:46Z</time>
      </trkpt>
      <trkpt lat="44.29598" lon="3.58985">
        <ele>917</ele>
        <time>2017-03-04T13:42:46Z</time>
      </trkpt>
      <trkpt lat="44.29581" lon="3.58987">
        <ele>912</ele>
        <time>2017-03-04T13:44:46Z</time>
      </trkpt>
      <trkpt lat="44.29562" lon="3.58987">
        <ele>908</ele>
        <time>2017-03-04T13:46:46Z</time>
      </trkpt>
      <trkpt lat="44.29554" lon="3.58985">
        <ele>908</ele>
        <time>2017-03-04T13:48:46Z</time>
      </trkpt>
      <trkpt lat="44.29546" lon="3.58984">
        <ele>907</ele>
        <time>2017-03-04T13:50:46Z</time>
      </trkpt>
      <trkpt lat="44.29543" lon="3.58985">
        <ele>905</ele>
        <time>2017-03-04T13:52:46Z</time>
      </trkpt>
      <trkpt lat="44.29543" lon="3.58991">
        <ele>902</ele>
        <time>2017-03-04T13:54:46Z</time>
      </trkpt>
      <trkpt lat="44.29547" lon="3.58995">
        <ele>900</ele>
        <time>2017-03-04T13:56:46Z</time>
      </trkpt>
      <trkpt lat="44.29553" lon="3.58999">
        <ele>899</ele>
        <time>2017-03-04T13:58:46Z</time>
      </trkpt>
      <trkpt lat="44.29561" lon="3.59002">
        <ele>899</ele>
        <time>2017-03-04T14:00:46Z</time>
      </trkpt>
      <trkpt lat="44.2957" lon="3.59007">
        <ele>898</ele>
        <time>2017-03-04T14:02:46Z</time>
      </trkpt>
      <trkpt lat="44.29578" lon="3.59009">
        <ele>898</ele>
        <time>2017-03-04T14:04:46Z</time>
      </trkpt>
      <trkpt lat="44.29581" lon="3.59012">
        <ele>897</ele>
        <time>2017-03-04T14:06:46Z</time>
      </trkpt>
      <trkpt lat="44.29576" lon="3.59018">
        <ele>892</ele>
        <time>2017-03-04T14:08:46Z</time>
      </trkpt>
      <trkpt lat="44.29565" lon="3.59021">
        <ele>888</ele>
        <time>2017-03-04T14:10:46Z</time>
      </trkpt>
      <trkpt lat="44.29553" lon="3.5902">
        <ele>886</ele>
        <time>2017-03-04T14:12:46Z</time>
      </trkpt>
      <trkpt lat="44.29544" lon="3.59018">
        <ele>885</ele>
        <time>2017-03-04T14:14:46Z</time>
      </trkpt>
      <trkpt lat="44.29537" lon="3.5902">
        <ele>882</ele>
        <time>2017-03-04T14:16:46Z</time>
      </trkpt>
      <trkpt lat="44.29525" lon="3.59024">
        <ele>878</ele>
        <time>2017-03-04T14:18:46Z</time>
      </trkpt>
      <trkpt lat="44.29515" lon="3.5903">
        <ele>872</ele>
        <time>2017-03-04T14:20:46Z</time>
      </trkpt>
      <trkpt lat="44.29508" lon="3.59036">
        <ele>867</ele>
        <time>2017-03-04T14:22:46Z</time>
      </trkpt>
      <trkpt lat="44.29498" lon="3.59038">
        <ele>864</ele>
        <time>2017-03-04T14:24:46Z</time>
      </trkpt>
      <trkpt lat="44.29488" lon="3.5904">
        <ele>861</ele>
        <time>2017-03-04T14:26:46Z</time>
      </trkpt>
      <trkpt lat="44.29477" lon="3.5904">
        <ele>859</ele>
        <time>2017-03-04T14:28:46Z</time>
      </trkpt>
      <trkpt lat="44.29465" lon="3.59041">
        <ele>857</ele>
        <time>2017-03-04T14:30:46Z</time>
      </trkpt>
      <trkpt lat="44.29447" lon="3.59045">
        <ele>852</ele>
        <time>2017-03-04T14:32:46Z</time>
      </trkpt>
      <trkpt lat="44.29431" lon="3.59052">
        <ele>846</ele>
        <time>2017-03-04T14:34:46Z</time>
      </trkpt>
      <trkpt lat="44.29414" lon="3.59054">
        <ele>842</ele>
        <time>2017-03-04T14:36:46Z</time>
      </trkpt>
      <trkpt lat="44.2939" lon="3.59059">
        <ele>833</ele>
        <time>2017-03-04T14:38:46Z</time>
      </trkpt>
      <trkpt lat="44.29389" lon="3.5906">
        <ele>832</ele>
        <time>2017-03-04T14:40:46Z</time>
      </trkpt>
      <trkpt lat="44.29388" lon="3.59063">
        <ele>830</ele>
        <time>2017-03-04T14:42:46Z</time>
      </trkpt>
      <trkpt lat="44.2939" lon="3.59069">
        <ele>828</ele>
        <time>2017-03-04T14:44:46Z</time>
      </trkpt>
      <trkpt lat="44.29392" lon="3.59073">
        <ele>827</ele>
        <time>2017-03-04T14:46:46Z</time>
      </trkpt>
      <trkpt lat="44.29396" lon="3.59075">
        <ele>827</ele>
        <time>2017-03-04T14:48:46Z</time>
      </trkpt>
      <trkpt lat="44.29402" lon="3.59078">
        <ele>827</ele>
        <time>2017-03-04T14:50:46Z</time>
      </trkpt>
      <trkpt lat="44.29413" lon="3.59081">
        <ele>828</ele>
        <time>2017-03-04T14:52:46Z</time>
      </trkpt>
      <trkpt lat="44.29416" lon="3.59083">
        <ele>828</ele>
        <time>2017-03-04T14:54:46Z</time>
      </trkpt>
      <trkpt lat="44.29414" lon="3.59087">
        <ele>827</ele>
        <time>2017-03-04T14:56:46Z</time>
      </trkpt>
      <trkpt lat="44.29409" lon="3.5909">
        <ele>825</ele>
        <time>2017-03-04T14:58:46Z</time>
      </trkpt>
      <trkpt lat="44.29396" lon="3.59095">
        <ele>821</ele>
        <time>2017-03-04T15:00:46Z</time>
      </trkpt>
      <trkpt lat="44.29386" lon="3.59098">
        <ele>819</ele>
        <time>2017-03-04T15:02:46Z</time>
      </trkpt>
      <trkpt lat="44.29392" lon="3.59103">
        <ele>819</ele>
        <time>2017-03-04T15:04:46Z</time>
      </trkpt>
      <trkpt lat="44.29402" lon="3.59107">
        <ele>820</ele>
        <time>2017-03-04T15:06:46Z</time>
      </trkpt>
      <trkpt lat="44.29406" lon="3.59111">
        <ele>820</ele>
        <time>2017-03-04T15:08:46Z</time>
      </trkpt>
      <trkpt lat="44.29421" lon="3.59126">
        <ele>818</ele>
        <time>2017-03-04T15:10:46Z</time>
      </trkpt>
      <trkpt lat="44.2944" lon="3.5915">
        <ele>812</ele>
        <time>2017-03-04T15:12:46Z</time>
      </trkpt>
      <trkpt lat="44.29446" lon="3.59161">
        <ele>809</ele>
        <time>2017-03-04T15:14:46Z</time>
      </trkpt>
      <trkpt lat="44.29455" lon="3.59178">
        <ele>804</ele>
        <time>2017-03-04T15:16:46Z</time>
      </trkpt>
      <trkpt lat="44.29473" lon="3.59175">
        <ele>804</ele>
        <time>2017-03-04T15:18:46Z</time>
      </trkpt>
      <trkpt lat="44.29482" lon="3.59172">
        <ele>804</ele>
        <time>2017-03-04T15:20:46Z</time>
      </trkpt>
      <trkpt lat="44.29487" lon="3.5917">
        <ele>804</ele>
        <time>2017-03-04T15:22:46Z</time>
      </trkpt>
      <trkpt lat="44.29513" lon="3.59146">
        <ele>815</ele>
        <time>2017-03-04T15:24:46Z</time>
      </trkpt>
      <trkpt lat="44.29523" lon="3.59137">
        <ele>820</ele>
        <time>2017-03-04T15:26:46Z</time>
      </trkpt>
      <trkpt lat="44.29528" lon="3.59135">
        <ele>821</ele>
        <time>2017-03-04T15:28:46Z</time>
      </trkpt>
      <trkpt lat="44.29537" lon="3.59137">
        <ele>822</ele>
        <time>2017-03-04T15:30:46Z</time>
      </trkpt>
      <trkpt lat="44.29546" lon="3.5914">
        <ele>822</ele>
        <time>2017-03-04T15:32:46Z</time>
      </trkpt>
      <trkpt lat="44.2956" lon="3.59153">
        <ele>818</ele>
        <time>2017-03-04T15:34:46Z</time>
      </trkpt>
      <trkpt lat="44.29583" lon="3.59178">
        <ele>810</ele>
        <time>2017-03-04T15:36:46Z</time>
      </trkpt>
      <trkpt lat="44.29598" lon="3.59198">
        <ele>803</ele>
        <time>2017-03-04T15:38:46Z</time>
      </trkpt>
      <trkpt lat="44.29606" lon="3.59206">
        <ele>800</ele>
        <time>2017-03-04T15:40:46Z</time>
      </trkpt>
      <trkpt lat="44.29611" lon="3.59211">
        <ele>798</ele>
        <time>2017-03-04T15:42:46Z</time>
      </trkpt>
      <trkpt lat="44.29618" lon="3.59213">
        <ele>798</ele>
        <time>2017-03-04T15:44:46Z</time>
      </trkpt>
      <trkpt lat="44.29632" lon="3.59213">
        <ele>798</ele>
        <time>2017-03-04T15:46:46Z</time>
      </trkpt>
      <trkpt lat="44.2965" lon="3.59208">
        <ele>801</ele>
        <time>2017-03-04T15:48:46Z</time>
      </trkpt>
      <trkpt lat="44.29668" lon="3.59202">
        <ele>804</ele>
        <time>2017-03-04T15:50:46Z</time>
      </trkpt>
      <trkpt lat="44.29694" lon="3.59196">
        <ele>806</ele>
        <time>2017-03-04T15:52:46Z</time>
      </trkpt>
      <trkpt lat="44.29704" lon="3.59198">
        <ele>806</ele>
        <time>2017-03-04T15:54:46Z</time>
      </trkpt>
      <trkpt lat="44.29713" lon="3.59201">
        <ele>805</ele>
        <time>2017-03-04T15:56:46Z</time>
      </trkpt>
      <trkpt lat="44.29744" lon="3.59224">
        <ele>797</ele>
        <time>2017-03-04T15:58:46Z</time>
      </trkpt>
      <trkpt lat="44.29761" lon="3.59241">
        <ele>795</ele>
        <time>2017-03-04T16:00:46Z</time>
      </trkpt>
      <trkpt lat="44.29778" lon="3.59256">
        <ele>798</ele>
        <time>2017-03-04T16:02:46Z</time>
      </trkpt>
      <trkpt lat="44.29787" lon="3.59267">
        <ele>799</ele>
        <time>2017-03-04T16:04:46Z</time>
      </trkpt>
      <trkpt lat="44.29795" lon="3.59273">
        <ele>800</ele>
        <time>2017-03-04T16:06:46Z</time>
      </trkpt>
      <trkpt lat="44.29807" lon="3.59282">
        <ele>802</ele>
        <time>2017-03-04T16:08:46Z</time>
      </trkpt>
      <trkpt lat="44.29811" lon="3.59288">
        <ele>802</ele>
        <time>2017-03-04T16:10:46Z</time>
      </trkpt>
      <trkpt lat="44.29816" lon="3.59301">
        <ele>800</ele>
        <time>2017-03-04T16:12:46Z</time>
      </trkpt>
      <trkpt lat="44.29824" lon="3.59317">
        <ele>798</ele>
        <time>2017-03-04T16:14:46Z</time>
      </trkpt>
      <trkpt lat="44.29837" lon="3.59339">
        <ele>796</ele>
        <time>2017-03-04T16:16:46Z</time>
      </trkpt>
      <trkpt lat="44.29847" lon="3.5936">
        <ele>792</ele>
        <time>2017-03-04T16:18:46Z</time>
      </trkpt>
      <trkpt lat="44.29851" lon="3.59367">
        <ele>791</ele>
        <time>2017-03-04T16:20:46Z</time>
      </trkpt>
      <trkpt lat="44.29877" lon="3.59395">
        <ele>788</ele>
        <time>2017-03-04T16:22:46Z</time>
      </trkpt>
      <trkpt lat="44.29884" lon="3.59401">
        <ele>788</ele>
        <time>2017-03-04T16:24:46Z</time>
      </trkpt>
      <trkpt lat="44.29891" lon="3.59405">
        <ele>787</ele>
        <time>2017-03-04T16:26:46Z</time>
      </trkpt>
      <trkpt lat="44.299" lon="3.59407">
        <ele>788</ele>
        <time>2017-03-04T16:28:46Z</time>
      </trkpt>
      <trkpt lat="44.2993" lon="3.59406">
        <ele>790</ele>
        <time>2017-03-04T16:30:46Z</time>
      </trkpt>
      <trkpt lat="44.29944" lon="3.59407">
        <ele>789</ele>
        <time>2017-03-04T16:32:46Z</time>
      </trkpt>
      <trkpt lat="44.29956" lon="3.59408">
        <ele>788</ele>
        <time>2017-03-04T16:34:46Z</time>
      </trkpt>
      <trkpt lat="44.29971" lon="3.59414">
        <ele>785</ele>
        <time>2017-03-04T16:36:46Z</time>
      </trkpt>
      <trkpt lat="44.29988" lon="3.59419">
        <ele>782</ele>
        <time>2017-03-04T16:38:46Z</time>
      </trkpt>
      <trkpt lat="44.29996" lon="3.5942">
        <ele>782</ele>
        <time>2017-03-04T16:40:46Z</time>
      </trkpt>
      <trkpt lat="44.30003" lon="3.59419">
        <ele>781</ele>
        <time>2017-03-04T16:42:46Z</time>
      </trkpt>
      <trkpt lat="44.30013" lon="3.59414">
        <ele>781</ele>
        <time>2017-03-04T16:44:46Z</time>
      </trkpt>
      <trkpt lat="44.30024" lon="3.59407">
        <ele>782</ele>
        <time>2017-03-04T16:46:46Z</time>
      </trkpt>
      <trkpt lat="44.30071" lon="3.59378">
        <ele>783</ele>
        <time>2017-03-04T16:48:46Z</time>
      </trkpt>
      <trkpt lat="44.30083" lon="3.59366">
        <ele>783</ele>
        <time>2017-03-04T16:50:46Z</time>
      </trkpt>
      <trkpt lat="44.30091" lon="3.59358">
        <ele>782</ele>
        <time>2017-03-04T16:52:46Z</time>
      </trkpt>
      <trkpt lat="44.30099" lon="3.59348">
        <ele>782</ele>
        <time>2017-03-04T16:54:46Z</time>
      </trkpt>
      <trkpt lat="44.30105" lon="3.59338">
        <ele>782</ele>
        <time>2017-03-04T16:56:46Z</time>
      </trkpt>
      <trkpt lat="44.30109" lon="3.5933">
        <ele>782</ele>
        <time>2017-03-04T16:58:46Z</time>
      </trkpt>
      <trkpt lat="44.30114" lon="3.59313">
        <ele>783</ele>
        <time>2017-03-04T17:00:46Z</time>
      </trkpt>
      <trkpt lat="44.30118" lon="3.593">
        <ele>784</ele>
        <time>2017-03-04T17:02:46Z</time>
      </trkpt>
      <trkpt lat="44.30123" lon="3.59293">
        <ele>782</ele>
        <time>2017-03-04T17:04:46Z</time>
      </trkpt>
      <trkpt lat="44.30126" lon="3.59285">
        <ele>782</ele>
        <time>2017-03-04T17:06:46Z</time>
      </trkpt>
      <trkpt lat="44.30127" lon="3.59266">
        <ele>785</ele>
        <time>2017-03-04T17:08:46Z</time>
      </trkpt>
      <trkpt lat="44.30127" lon="3.59253">
        <ele>787</ele>
        <time>2017-03-04T17:10:46Z</time>
      </trkpt>
      <trkpt lat="44.30127" lon="3.59246">
        <ele>788</ele>
        <time>2017-03-04T17:12:46Z</time>
      </trkpt>
      <trkpt lat="44.30129" lon="3.5924">
        <ele>788</ele>
        <time>2017-03-04T17:14:46Z</time>
      </trkpt>
      <trkpt lat="44.30132" lon="3.59234">
        <ele>788</ele>
        <time>2017-03-04T17:16:46Z</time>
      </trkpt>
      <trkpt lat="44.30138" lon="3.59229">
        <ele>785</ele>
        <time>2017-03-04T17:18:46Z</time>
      </trkpt>
      <trkpt lat="44.30145" lon="3.59224">
        <ele>782</ele>
        <time>2017-03-04T17:20:46Z</time>
      </trkpt>
      <trkpt lat="44.30151" lon="3.59213">
        <ele>781</ele>
        <time>2017-03-04T17:22:46Z</time>
      </trkpt>
      <trkpt lat="44.30157" lon="3.59206">
        <ele>779</ele>
        <time>2017-03-04T17:24:46Z</time>
      </trkpt>
      <trkpt lat="44.30164" lon="3.592">
        <ele>776</ele>
        <time>2017-03-04T17:26:46Z</time>
      </trkpt>
      <trkpt lat="44.30171" lon="3.59193">
        <ele>775</ele>
        <time>2017-03-04T17:28:46Z</time>
      </trkpt>
      <trkpt lat="44.30187" lon="3.59178">
        <ele>773</ele>
        <time>2017-03-04T17:30:46Z</time>
      </trkpt>
      <trkpt lat="44.30199" lon="3.59167">
        <ele>773</ele>
        <time>2017-03-04T17:32:46Z</time>
      </trkpt>
      <trkpt lat="44.30206" lon="3.59163">
        <ele>772</ele>
        <time>2017-03-04T17:34:46Z</time>
      </trkpt>
      <trkpt lat="44.30214" lon="3.59161">
        <ele>771</ele>
        <time>2017-03-04T17:36:46Z</time>
      </trkpt>
      <trkpt lat="44.30224" lon="3.59159">
        <ele>769</ele>
        <time>2017-03-04T17:38:46Z</time>
      </trkpt>
      <trkpt lat="44.3024" lon="3.59159">
        <ele>764</ele>
        <time>2017-03-04T17:40:46Z</time>
      </trkpt>
      <trkpt lat="44.30257" lon="3.5916">
        <ele>759</ele>
        <time>2017-03-04T17:42:46Z</time>
      </trkpt>
      <trkpt lat="44.30267" lon="3.59159">
        <ele>756</ele>
        <time>2017-03-04T17:44:46Z</time>
      </trkpt>
      <trkpt lat="44.30272" lon="3.59156">
        <ele>756</ele>
        <time>2017-03-04T17:46:46Z</time>
      </trkpt>
      <trkpt lat="44.3028" lon="3.59149">
        <ele>756</ele>
        <time>2017-03-04T17:48:46Z</time>
      </trkpt>
      <trkpt lat="44.30304" lon="3.5912">
        <ele>757</ele>
        <time>2017-03-04T17:50:46Z</time>
      </trkpt>
      <trkpt lat="44.30317" lon="3.59108">
        <ele>755</ele>
        <time>2017-03-04T17:52:46Z</time>
      </trkpt>
      <trkpt lat="44.30334" lon="3.59091">
        <ele>753</ele>
        <time>2017-03-04T17:54:46Z</time>
      </trkpt>
      <trkpt lat="44.30349" lon="3.59075">
        <ele>754</ele>
        <time>2017-03-04T17:56:46Z</time>
      </trkpt>
      <trkpt lat="44.30362" lon="3.59065">
        <ele>753</ele>
        <time>2017-03-04T17:58:46Z</time>
      </trkpt>
      <trkpt lat="44.30387" lon="3.59042">
        <ele>754</ele>
        <time>2017-03-04T18:00:46Z</time>
      </trkpt>
      <trkpt lat="44.30399" lon="3.59029">
        <ele>755</ele>
        <time>2017-03-04T18:02:46Z</time>
      </trkpt>
      <trkpt lat="44.30404" lon="3.59025">
        <ele>755</ele>
        <time>2017-03-04T18:04:46Z</time>
      </trkpt>
      <trkpt lat="44.30413" lon="3.59022">
        <ele>754</ele>
        <time>2017-03-04T18:06:46Z</time>
      </trkpt>
      <trkpt lat="44.30421" lon="3.5902">
        <ele>755</ele>
        <time>2017-03-04T18:08:46Z</time>
      </trkpt>
      <trkpt lat="44.30429" lon="3.5902">
        <ele>756</ele>
        <time>2017-03-04T18:10:46Z</time>
      </trkpt>
      <trkpt lat="44.30439" lon="3.59023">
        <ele>757</ele>
        <time>2017-03-04T18:12:46Z</time>
      </trkpt>
      <trkpt lat="44.30443" lon="3.59024">
        <ele>757</ele>
        <time>2017-03-04T18:14:46Z</time>
      </trkpt>
      <trkpt lat="44.3045" lon="3.5903">
        <ele>756</ele>
        <time>2017-03-04T18:16:46Z</time>
      </trkpt>
      <trkpt lat="44.30456" lon="3.59034">
        <ele>756</ele>
        <time>2017-03-04T18:18:46Z</time>
      </trkpt>
      <trkpt lat="44.30464" lon="3.59037">
        <ele>756</ele>
        <time>2017-03-04T18:20:46Z</time>
      </trkpt>
      <trkpt lat="44.30465" lon="3.59032">
        <ele>758</ele>
        <time>2017-03-04T18:22:46Z</time>
      </trkpt>
      <trkpt lat="44.30464" lon="3.59037">
        <ele>756</ele>
        <time>2017-03-04T18:24:46Z</time>
      </trkpt>
      <trkpt lat="44.30456" lon="3.59034">
        <ele>756</ele>
        <time>2017-03-04T18:26:46Z</time>
      </trkpt>
      <trkpt lat="44.3045" lon="3.5903">
        <ele>756</ele>
        <time>2017-03-04T18:28:46Z</time>
      </trkpt>
      <trkpt lat="44.30443" lon="3.59024">
        <ele>757</ele>
        <time>2017-03-04T18:30:46Z</time>
      </trkpt>
      <trkpt lat="44.30439" lon="3.59023">
        <ele>757</ele>
        <time>2017-03-04T18:32:46Z</time>
      </trkpt>
      <trkpt lat="44.30443" lon="3.59025">
        <ele>757</ele>
        <time>2017-03-04T18:34:46Z</time>
      </trkpt>
      <trkpt lat="44.3045" lon="3.59034">
        <ele>755</ele>
        <time>2017-03-04T18:36:46Z</time>
      </trkpt>
      <trkpt lat="44.30456" lon="3.59037">
        <ele>755</ele>
        <time>2017-03-04T18:38:46Z</time>
      </trkpt>
      <trkpt lat="44.30459" lon="3.59037">
        <ele>755</ele>
        <time>2017-03-04T18:40:46Z</time>
      </trkpt>
      <trkpt lat="44.30463" lon="3.5904">
        <ele>755</ele>
        <time>2017-03-04T18:42:46Z</time>
      </trkpt>
      <trkpt lat="44.30467" lon="3.59043">
        <ele>755</ele>
        <time>2017-03-04T18:44:46Z</time>
      </trkpt>
      <trkpt lat="44.3047" lon="3.59046">
        <ele>754</ele>
        <time>2017-03-04T18:46:46Z</time>
      </trkpt>
      <trkpt lat="44.30472" lon="3.59051">
        <ele>753</ele>
        <time>2017-03-04T18:48:46Z</time>
      </trkpt>
      <trkpt lat="44.30478" lon="3.59056">
        <ele>752</ele>
        <time>2017-03-04T18:50:46Z</time>
      </trkpt>
      <trkpt lat="44.30483" lon="3.59059">
        <ele>752</ele>
        <time>2017-03-04T18:52:46Z</time>
      </trkpt>
      <trkpt lat="44.30484" lon="3.59062">
        <ele>751</ele>
        <time>2017-03-04T18:54:46Z</time>
      </trkpt>
      <trkpt lat="44.30484" lon="3.59067">
        <ele>750</ele>
        <time>2017-03-04T18:56:46Z</time>
      </trkpt>
      <trkpt lat="44.30486" lon="3.59073">
        <ele>748</ele>
        <time>2017-03-04T18:58:46Z</time>
      </trkpt>
      <trkpt lat="44.30493" lon="3.59086">
        <ele>745</ele>
        <time>2017-03-04T19:00:46Z</time>
      </trkpt>
      <trkpt lat="44.30499" lon="3.59093">
        <ele>744</ele>
        <time>2017-03-04T19:02:46Z</time>
      </trkpt>
      <trkpt lat="44.30507" lon="3.59102">
        <ele>745</ele>
        <time>2017-03-04T19:04:46Z</time>
      </trkpt>
      <trkpt lat="44.30512" lon="3.5911">
        <ele>745</ele>
        <time>2017-03-04T19:06:46Z</time>
      </trkpt>
      <trkpt lat="44.30521" lon="3.59119">
        <ele>746</ele>
        <time>2017-03-04T19:08:46Z</time>
      </trkpt>
      <trkpt lat="44.30526" lon="3.59124">
        <ele>747</ele>
        <time>2017-03-04T19:10:46Z</time>
      </trkpt>
      <trkpt lat="44.30528" lon="3.5913">
        <ele>746</ele>
        <time>2017-03-04T19:12:46Z</time>
      </trkpt>
      <trkpt lat="44.30534" lon="3.5915">
        <ele>742</ele>
        <time>2017-03-04T19:14:46Z</time>
      </trkpt>
      <trkpt lat="44.30541" lon="3.5916">
        <ele>742</ele>
        <time>2017-03-04T19:16:46Z</time>
      </trkpt>
      <trkpt lat="44.30546" lon="3.5917">
        <ele>741</ele>
        <time>2017-03-04T19:18:46Z</time>
      </trkpt>
      <trkpt lat="44.30556" lon="3.59189">
        <ele>741</ele>
        <time>2017-03-04T19:20:46Z</time>
      </trkpt>
      <trkpt lat="44.30566" lon="3.59201">
        <ele>742</ele>
        <time>2017-03-04T19:22:46Z</time>
      </trkpt>
      <trkpt lat="44.3057" lon="3.59209">
        <ele>742</ele>
        <time>2017-03-04T19:24:46Z</time>
      </trkpt>
      <trkpt lat="44.30573" lon="3.59206">
        <ele>744</ele>
        <time>2017-03-04T19:26:46Z</time>
      </trkpt>
      <trkpt lat="44.3057" lon="3.59209">
        <ele>742</ele>
        <time>2017-03-04T19:28:46Z</time>
      </trkpt>
      <trkpt lat="44.3058" lon="3.59221">
        <ele>744</ele>
        <time>2017-03-04T19:30:46Z</time>
      </trkpt>
      <trkpt lat="44.30596" lon="3.59244">
        <ele>743</ele>
        <time>2017-03-04T19:32:46Z</time>
      </trkpt>
      <trkpt lat="44.30599" lon="3.59249">
        <ele>742</ele>
        <time>2017-03-04T19:34:46Z</time>
      </trkpt>
      <trkpt lat="44.30605" lon="3.5926">
        <ele>741</ele>
        <time>2017-03-04T19:36:46Z</time>
      </trkpt>
      <trkpt lat="44.30616" lon="3.59279">
        <ele>739</ele>
        <time>2017-03-04T19:38:46Z</time>
      </trkpt>
      <trkpt lat="44.30628" lon="3.593">
        <ele>737</ele>
        <time>2017-03-04T19:40:46Z</time>
      </trkpt>
      <trkpt lat="44.3064" lon="3.59321">
        <ele>735</ele>
        <time>2017-03-04T19:42:46Z</time>
      </trkpt>
      <trkpt lat="44.30642" lon="3.59322">
        <ele>735</ele>
        <time>2017-03-04T19:44:46Z</time>
      </trkpt>
      <trkpt lat="44.30649" lon="3.59323">
        <ele>737</ele>
        <time>2017-03-04T19:46:46Z</time>
      </trkpt>
      <trkpt lat="44.30678" lon="3.59316">
        <ele>742</ele>
        <time>2017-03-04T19:48:46Z</time>
      </trkpt>
      <trkpt lat="44.30691" lon="3.59311">
        <ele>742</ele>
        <time>2017-03-04T19:50:46Z</time>
      </trkpt>
      <trkpt lat="44.307" lon="3.59309">
        <ele>742</ele>
        <time>2017-03-04T19:52:46Z</time>
      </trkpt>
      <trkpt lat="44.30712" lon="3.59309">
        <ele>741</ele>
        <time>2017-03-04T19:54:46Z</time>
      </trkpt>
      <trkpt lat="44.30749" lon="3.59309">
        <ele>738</ele>
        <time>2017-03-04T19:56:46Z</time>
      </trkpt>
      <trkpt lat="44.30775" lon="3.59312">
        <ele>731</ele>
        <time>2017-03-04T19:58:46Z</time>
      </trkpt>
      <trkpt lat="44.30808" lon="3.59318">
        <ele>722</ele>
        <time>2017-03-04T20:00:46Z</time>
      </trkpt>
      <trkpt lat="44.30817" lon="3.59317">
        <ele>720</ele>
        <time>2017-03-04T20:02:46Z</time>
      </trkpt>
      <trkpt lat="44.3082" lon="3.59315">
        <ele>720</ele>
        <time>2017-03-04T20:04:46Z</time>
      </trkpt>
      <trkpt lat="44.30823" lon="3.59316">
        <ele>719</ele>
        <time>2017-03-04T20:06:46Z</time>
      </trkpt>
      <trkpt lat="44.30822" lon="3.5932">
        <ele>718</ele>
        <time>2017-03-04T20:08:46Z</time>
      </trkpt>
      <trkpt lat="44.30818" lon="3.59327">
        <ele>718</ele>
        <time>2017-03-04T20:10:46Z</time>
      </trkpt>
      <trkpt lat="44.30812" lon="3.59334">
        <ele>718</ele>
        <time>2017-03-04T20:12:46Z</time>
      </trkpt>
      <trkpt lat="44.30808" lon="3.59338">
        <ele>718</ele>
        <time>2017-03-04T20:14:46Z</time>
      </trkpt>
      <trkpt lat="44.308" lon="3.59339">
        <ele>720</ele>
        <time>2017-03-04T20:16:46Z</time>
      </trkpt>
      <trkpt lat="44.30798" lon="3.59343">
        <ele>719</ele>
        <time>2017-03-04T20:18:46Z</time>
      </trkpt>
      <trkpt lat="44.30804" lon="3.59346">
        <ele>717</ele>
        <time>2017-03-04T20:20:46Z</time>
      </trkpt>
      <trkpt lat="44.30829" lon="3.59343">
        <ele>713</ele>
        <time>2017-03-04T20:22:46Z</time>
      </trkpt>
      <trkpt lat="44.30835" lon="3.59339">
        <ele>712</ele>
        <time>2017-03-04T20:24:46Z</time>
      </trkpt>
      <trkpt lat="44.30841" lon="3.59336">
        <ele>710</ele>
        <time>2017-03-04T20:26:46Z</time>
      </trkpt>
      <trkpt lat="44.30846" lon="3.59332">
        <ele>709</ele>
        <time>2017-03-04T20:28:46Z</time>
      </trkpt>
      <trkpt lat="44.30848" lon="3.59331">
        <ele>708</ele>
        <time>2017-03-04T20:30:46Z</time>
      </trkpt>
      <trkpt lat="44.3085" lon="3.59336">
        <ele>706</ele>
        <time>2017-03-04T20:32:46Z</time>
      </trkpt>
      <trkpt lat="44.3085" lon="3.59341">
        <ele>705</ele>
        <time>2017-03-04T20:34:46Z</time>
      </trkpt>
      <trkpt lat="44.30849" lon="3.59349">
        <ele>704</ele>
        <time>2017-03-04T20:36:46Z</time>
      </trkpt>
      <trkpt lat="44.30848" lon="3.59358">
        <ele>703</ele>
        <time>2017-03-04T20:38:46Z</time>
      </trkpt>
      <trkpt lat="44.30845" lon="3.59365">
        <ele>703</ele>
        <time>2017-03-04T20:40:46Z</time>
      </trkpt>
      <trkpt lat="44.30841" lon="3.59372">
        <ele>703</ele>
        <time>2017-03-04T20:42:46Z</time>
      </trkpt>
      <trkpt lat="44.30835" lon="3.59379">
        <ele>704</ele>
        <time>2017-03-04T20:44:46Z</time>
      </trkpt>
      <trkpt lat="44.30822" lon="3.59388">
        <ele>704</ele>
        <time>2017-03-04T20:46:46Z</time>
      </trkpt>
      <trkpt lat="44.30802" lon="3.59398">
        <ele>703</ele>
        <time>2017-03-04T20:48:46Z</time>
      </trkpt>
      <trkpt lat="44.30798" lon="3.594">
        <ele>703</ele>
        <time>2017-03-04T20:50:46Z</time>
      </trkpt>
      <trkpt lat="44.30796" lon="3.59403">
        <ele>702</ele>
        <time>2017-03-04T20:52:46Z</time>
      </trkpt>
      <trkpt lat="44.30805" lon="3.59408">
        <ele>700</ele>
        <time>2017-03-04T20:54:46Z</time>
      </trkpt>
      <trkpt lat="44.30822" lon="3.59412">
        <ele>698</ele>
        <time>2017-03-04T20:56:46Z</time>
      </trkpt>
      <trkpt lat="44.30832" lon="3.59411">
        <ele>698</ele>
        <time>2017-03-04T20:58:46Z</time>
      </trkpt>
      <trkpt lat="44.30848" lon="3.59407">
        <ele>693</ele>
        <time>2017-03-04T21:00:46Z</time>
      </trkpt>
      <trkpt lat="44.30875" lon="3.59393">
        <ele>685</ele>
        <time>2017-03-04T21:02:46Z</time>
      </trkpt>
      <trkpt lat="44.30884" lon="3.5939">
        <ele>682</ele>
        <time>2017-03-04T21:04:46Z</time>
      </trkpt>
      <trkpt lat="44.3089" lon="3.59384">
        <ele>681</ele>
        <time>2017-03-04T21:06:46Z</time>
      </trkpt>
      <trkpt lat="44.30892" lon="3.59388">
        <ele>679</ele>
        <time>2017-03-04T21:08:46Z</time>
      </trkpt>
      <trkpt lat="44.30889" lon="3.59398">
        <ele>679</ele>
        <time>2017-03-04T21:10:46Z</time>
      </trkpt>
      <trkpt lat="44.30884" lon="3.59405">
        <ele>679</ele>
        <time>2017-03-04T21:12:46Z</time>
      </trkpt>
      <trkpt lat="44.30878" lon="3.59413">
        <ele>680</ele>
        <time>2017-03-04T21:14:46Z</time>
      </trkpt>
      <trkpt lat="44.30866" lon="3.59423">
        <ele>682</ele>
        <time>2017-03-04T21:16:46Z</time>
      </trkpt>
      <trkpt lat="44.30866" lon="3.59428">
        <ele>680</ele>
        <time>2017-03-04T21:18:46Z</time>
      </trkpt>
      <trkpt lat="44.30871" lon="3.59428">
        <ele>678</ele>
        <time>2017-03-04T21:20:46Z</time>
      </trkpt>
      <trkpt lat="44.3088" lon="3.59422">
        <ele>677</ele>
        <time>2017-03-04T21:22:46Z</time>
      </trkpt>
      <trkpt lat="44.30893" lon="3.59415">
        <ele>674</ele>
        <time>2017-03-04T21:24:46Z</time>
      </trkpt>
      <trkpt lat="44.30904" lon="3.59405">
        <ele>672</ele>
        <time>2017-03-04T21:26:46Z</time>
      </trkpt>
      <trkpt lat="44.30909" lon="3.59398">
        <ele>671</ele>
        <time>2017-03-04T21:28:46Z</time>
      </trkpt>
      <trkpt lat="44.30912" lon="3.59391">
        <ele>671</ele>
        <time>2017-03-04T21:30:46Z</time>
      </trkpt>
      <trkpt lat="44.30914" lon="3.59383">
        <ele>671</ele>
        <time>2017-03-04T21:32:46Z</time>
      </trkpt>
      <trkpt lat="44.30916" lon="3.59374">
        <ele>671</ele>
        <time>2017-03-04T21:34:46Z</time>
      </trkpt>
      <trkpt lat="44.3092" lon="3.59375">
        <ele>670</ele>
        <time>2017-03-04T21:36:46Z</time>
      </trkpt>
      <trkpt lat="44.30919" lon="3.59395">
        <ele>667</ele>
        <time>2017-03-04T21:38:46Z</time>
      </trkpt>
      <trkpt lat="44.30918" lon="3.59422">
        <ele>663</ele>
        <time>2017-03-04T21:40:46Z</time>
      </trkpt>
      <trkpt lat="44.30916" lon="3.59428">
        <ele>662</ele>
        <time>2017-03-04T21:42:46Z</time>
      </trkpt>
      <trkpt lat="44.30915" lon="3.59433">
        <ele>661</ele>
        <time>2017-03-04T21:44:46Z</time>
      </trkpt>
      <trkpt lat="44.30908" lon="3.59443">
        <ele>661</ele>
        <time>2017-03-04T21:46:46Z</time>
      </trkpt>
      <trkpt lat="44.30913" lon="3.59446">
        <ele>658</ele>
        <time>2017-03-04T21:48:46Z</time>
      </trkpt>
      <trkpt lat="44.30919" lon="3.59443">
        <ele>657</ele>
        <time>2017-03-04T21:50:46Z</time>
      </trkpt>
      <trkpt lat="44.30929" lon="3.59435">
        <ele>655</ele>
        <time>2017-03-04T21:52:46Z</time>
      </trkpt>
      <trkpt lat="44.30947" lon="3.59406">
        <ele>654</ele>
        <time>2017-03-04T21:54:46Z</time>
      </trkpt>
      <trkpt lat="44.30952" lon="3.59396">
        <ele>654</ele>
        <time>2017-03-04T21:56:46Z</time>
      </trkpt>
      <trkpt lat="44.30957" lon="3.59384">
        <ele>654</ele>
        <time>2017-03-04T21:58:46Z</time>
      </trkpt>
      <trkpt lat="44.30962" lon="3.5937">
        <ele>654</ele>
        <time>2017-03-04T22:00:46Z</time>
      </trkpt>
      <trkpt lat="44.30966" lon="3.59344">
        <ele>657</ele>
        <time>2017-03-04T22:02:46Z</time>
      </trkpt>
      <trkpt lat="44.30967" lon="3.59337">
        <ele>658</ele>
        <time>2017-03-04T22:04:46Z</time>
      </trkpt>
      <trkpt lat="44.30969" lon="3.59332">
        <ele>658</ele>
        <time>2017-03-04T22:06:46Z</time>
      </trkpt>
      <trkpt lat="44.30972" lon="3.59324">
        <ele>659</ele>
        <time>2017-03-04T22:08:46Z</time>
      </trkpt>
      <trkpt lat="44.30974" lon="3.59322">
        <ele>659</ele>
        <time>2017-03-04T22:10:46Z</time>
      </trkpt>
      <trkpt lat="44.30977" lon="3.59324">
        <ele>658</ele>
        <time>2017-03-04T22:12:46Z</time>
      </trkpt>
      <trkpt lat="44.30978" lon="3.59344">
        <ele>653</ele>
        <time>2017-03-04T22:14:46Z</time>
      </trkpt>
      <trkpt lat="44.30978" lon="3.5937">
        <ele>648</ele>
        <time>2017-03-04T22:16:46Z</time>
      </trkpt>
      <trkpt lat="44.30995" lon="3.59357">
        <ele>644</ele>
        <time>2017-03-04T22:18:46Z</time>
      </trkpt>
      <trkpt lat="44.31" lon="3.59381">
        <ele>637</ele>
        <time>2017-03-04T22:20:46Z</time>
      </trkpt>
      <trkpt lat="44.31008" lon="3.594">
        <ele>635</ele>
        <time>2017-03-04T22:22:46Z</time>
      </trkpt>
      <trkpt lat="44.31014" lon="3.59414">
        <ele>632</ele>
        <time>2017-03-04T22:24:46Z</time>
      </trkpt>
      <trkpt lat="44.31026" lon="3.5941">
        <ele>635</ele>
        <time>2017-03-04T22:26:46Z</time>
      </trkpt>
      <trkpt lat="44.31037" lon="3.59409">
        <ele>636</ele>
        <time>2017-03-04T22:28:46Z</time>
      </trkpt>
      <trkpt lat="44.31046" lon="3.5941">
        <ele>637</ele>
        <time>2017-03-04T22:30:46Z</time>
      </trkpt>
      <trkpt lat="44.31059" lon="3.59415">
        <ele>638</ele>
        <time>2017-03-04T22:32:46Z</time>
      </trkpt>
      <trkpt lat="44.31106" lon="3.5945">
        <ele>630</ele>
        <time>2017-03-04T22:34:46Z</time>
      </trkpt>
      <trkpt lat="44.31113" lon="3.59456">
        <ele>628</ele>
        <time>2017-03-04T22:36:46Z</time>
      </trkpt>
      <trkpt lat="44.31121" lon="3.59462">
        <ele>627</ele>
        <time>2017-03-04T22:38:46Z</time>
      </trkpt>
      <trkpt lat="44.31126" lon="3.59461">
        <ele>627</ele>
        <time>2017-03-04T22:40:46Z</time>
      </trkpt>
      <trkpt lat="44.31133" lon="3.59458">
        <ele>628</ele>
        <time>2017-03-04T22:42:46Z</time>
      </trkpt>
      <trkpt lat="44.31138" lon="3.59456">
        <ele>628</ele>
        <time>2017-03-04T22:44:46Z</time>
      </trkpt>
      <trkpt lat="44.31206" lon="3.5935">
        <ele>657</ele>
        <time>2017-03-04T22:46:46Z</time>
      </trkpt>
      <trkpt lat="44.31219" lon="3.59389">
        <ele>647</ele>
        <time>2017-03-04T22:48:46Z</time>
      </trkpt>
      <trkpt lat="44.31231" lon="3.59415">
        <ele>642</ele>
        <time>2017-03-04T22:50:46Z</time>
      </trkpt>
      <trkpt lat="44.31247" lon="3.59446">
        <ele>634</ele>
        <time>2017-03-04T22:52:46Z</time>
      </trkpt>
      <trkpt lat="44.31289" lon="3.59489">
        <ele>632</ele>
        <time>2017-03-04T22:54:46Z</time>
      </trkpt>
      <trkpt lat="44.31298" lon="3.59509">
        <ele>629</ele>
        <time>2017-03-04T22:56:46Z</time>
      </trkpt>
      <trkpt lat="44.31334" lon="3.59535">
        <ele>631</ele>
        <time>2017-03-04T22:58:46Z</time>
      </trkpt>
      <trkpt lat="44.31353" lon="3.5955">
        <ele>627</ele>
        <time>2017-03-04T23:00:46Z</time>
      </trkpt>
      <trkpt lat="44.31436" lon="3.59614">
        <ele>609</ele>
        <time>2017-03-04T23:02:46Z</time>
      </trkpt>
      <trkpt lat="44.31466" lon="3.59634">
        <ele>602</ele>
        <time>2017-03-04T23:04:46Z</time>
      </trkpt>
      <trkpt lat="44.31483" lon="3.59624">
        <ele>606</ele>
        <time>2017-03-04T23:06:46Z</time>
      </trkpt>
      <trkpt lat="44.31501" lon="3.59666">
        <ele>594</ele>
        <time>2017-03-04T23:08:46Z</time>
      </trkpt>
      <trkpt lat="44.31507" lon="3.59692">
        <ele>587</ele>
        <time>2017-03-04T23:10:46Z</time>
      </trkpt>
      <trkpt lat="44.31531" lon="3.59709">
        <ele>584</ele>
        <time>2017-03-04T23:12:46Z</time>
      </trkpt>
      <trkpt lat="44.31559" lon="3.59714">
        <ele>584</ele>
        <time>2017-03-04T23:14:46Z</time>
      </trkpt>
      <trkpt lat="44.31571" lon="3.59725">
        <ele>582</ele>
        <time>2017-03-04T23:16:46Z</time>
      </trkpt>
      <trkpt lat="44.31574" lon="3.59729">
        <ele>581</ele>
        <time>2017-03-04T23:18:46Z</time>
      </trkpt>
      <trkpt lat="44.31578" lon="3.59737">
        <ele>579</ele>
        <time>2017-03-04T23:20:46Z</time>
      </trkpt>
      <trkpt lat="44.31582" lon="3.59747">
        <ele>577</ele>
        <time>2017-03-04T23:22:46Z</time>
      </trkpt>
      <trkpt lat="44.31584" lon="3.59751">
        <ele>576</ele>
        <time>2017-03-04T23:24:46Z</time>
      </trkpt>
      <trkpt lat="44.31585" lon="3.59755">
        <ele>574</ele>
        <time>2017-03-04T23:26:46Z</time>
      </trkpt>
      <trkpt lat="44.31596" lon="3.59768">
        <ele>570</ele>
        <time>2017-03-04T23:28:46Z</time>
      </trkpt>
      <trkpt lat="44.31608" lon="3.59776">
        <ele>568</ele>
        <time>2017-03-04T23:30:46Z</time>
      </trkpt>
      <trkpt lat="44.31628" lon="3.59784">
        <ele>565</ele>
        <time>2017-03-04T23:32:46Z</time>
      </trkpt>
      <trkpt lat="44.31635" lon="3.59789">
        <ele>563</ele>
        <time>2017-03-04T23:34:46Z</time>
      </trkpt>
      <trkpt lat="44.31642" lon="3.59795">
        <ele>561</ele>
        <time>2017-03-04T23:36:46Z</time>
      </trkpt>
      <trkpt lat="44.31648" lon="3.59797">
        <ele>560</ele>
        <time>2017-03-04T23:38:46Z</time>
      </trkpt>
      <trkpt lat="44.31653" lon="3.598">
        <ele>559</ele>
        <time>2017-03-04T23:40:46Z</time>
      </trkpt>
      <trkpt lat="44.31659" lon="3.59809">
        <ele>557</ele>
        <time>2017-03-04T23:42:46Z</time>
      </trkpt>
      <trkpt lat="44.31687" lon="3.59809">
        <ele>555</ele>
        <time>2017-03-04T23:44:46Z</time>
      </trkpt>
      <trkpt lat="44.31732" lon="3.59805">
        <ele>554</ele>
        <time>2017-03-04T23:46:46Z</time>
      </trkpt>
      <trkpt lat="44.31775" lon="3.59802">
        <ele>552</ele>
        <time>2017-03-04T23:48:46Z</time>
      </trkpt>
      <trkpt lat="44.31809" lon="3.59797">
        <ele>550</ele>
        <time>2017-03-04T23:50:46Z</time>
      </trkpt>
      <trkpt lat="44.31855" lon="3.59785">
        <ele>549</ele>
        <time>2017-03-04T23:52:46Z</time>
      </trkpt>
      <trkpt lat="44.3186" lon="3.59783">
        <ele>549</ele>
        <time>2017-03-04T23:54:46Z</time>
      </trkpt>
      <trkpt lat="44.3187" lon="3.59782">
        <ele>549</ele>
        <time>2017-03-04T23:56:46Z</time>
      </trkpt>
      <trkpt lat="44.31882" lon="3.5979">
        <ele>548</ele>
        <time>2017-03-04T23:58:46Z</time>
      </trkpt>
      <trkpt lat="44.31883" lon="3.59795">
        <ele>548</ele>
        <time>2017-03-05T00:00:46Z</time>
      </trkpt>
      <trkpt lat="44.31885" lon="3.59799">
        <ele>548</ele>
        <time>2017-03-05T00:02:46Z</time>
      </trkpt>
      <trkpt lat="44.31889" lon="3.59801">
        <ele>548</ele>
        <time>2017-03-05T00:04:46Z</time>
      </trkpt>
      <trkpt lat="44.31892" lon="3.59801">
        <ele>548</ele>
        <time>2017-03-05T00:06:46Z</time>
      </trkpt>
      <trkpt lat="44.31895" lon="3.598">
        <ele>548</ele>
        <time>2017-03-05T00:08:46Z</time>
      </trkpt>
      <trkpt lat="44.31899" lon="3.59796">
        <ele>548</ele>
        <time>2017-03-05T00:10:46Z</time>
      </trkpt>
      <trkpt lat="44.319" lon="3.59789">
        <ele>548</ele>
        <time>2017-03-05T00:12:46Z</time>
      </trkpt>
      <trkpt lat="44.31906" lon="3.5978">
        <ele>548</ele>
        <time>2017-03-05T00:14:46Z</time>
      </trkpt>
      <trkpt lat="44.31909" lon="3.59776">
        <ele>548</ele>
        <time>2017-03-05T00:16:46Z</time>
      </trkpt>
      <trkpt lat="44.31911" lon="3.59772">
        <ele>548</ele>
        <time>2017-03-05T00:18:46Z</time>
      </trkpt>
      <trkpt lat="44.31916" lon="3.59769">
        <ele>548</ele>
        <time>2017-03-05T00:20:46Z</time>
      </trkpt>
      <trkpt lat="44.31935" lon="3.59763">
        <ele>548</ele>
        <time>2017-03-05T00:22:46Z</time>
      </trkpt>
      <trkpt lat="44.31981" lon="3.59748">
        <ele>549</ele>
        <time>2017-03-05T00:24:46Z</time>
      </trkpt>
      <trkpt lat="44.31994" lon="3.5974">
        <ele>549</ele>
        <time>2017-03-05T00:26:46Z</time>
      </trkpt>
      <trkpt lat="44.32021" lon="3.59721">
        <ele>550</ele>
        <time>2017-03-05T00:28:46Z</time>
      </trkpt>
      <trkpt lat="44.32053" lon="3.59702">
        <ele>549</ele>
        <time>2017-03-05T00:30:46Z</time>
      </trkpt>
      <trkpt lat="44.32078" lon="3.59686">
        <ele>549</ele>
        <time>2017-03-05T00:32:46Z</time>
      </trkpt>
      <trkpt lat="44.32088" lon="3.59679">
        <ele>549</ele>
        <time>2017-03-05T00:34:46Z</time>
      </trkpt>
      <trkpt lat="44.32101" lon="3.5967">
        <ele>549</ele>
        <time>2017-03-05T00:36:46Z</time>
      </trkpt>
      <trkpt lat="44.32112" lon="3.59662">
        <ele>549</ele>
        <time>2017-03-05T00:38:46Z</time>
      </trkpt>
      <trkpt lat="44.32124" lon="3.59657">
        <ele>550</ele>
        <time>2017-03-05T00:40:46Z</time>
      </trkpt>
      <trkpt lat="44.32209" lon="3.59645">
        <ele>549</ele>
        <time>2017-03-05T00:42:46Z</time>
      </trkpt>
      <trkpt lat="44.3224" lon="3.59638">
        <ele>548</ele>
        <time>2017-03-05T00:44:46Z</time>
      </trkpt>
      <trkpt lat="44.32287" lon="3.59625">
        <ele>548</ele>
        <time>2017-03-05T00:46:46Z</time>
      </trkpt>
      <trkpt lat="44.3232" lon="3.5962">
        <ele>548</ele>
        <time>2017-03-05T00:48:46Z</time>
      </trkpt>
      <trkpt lat="44.32323" lon="3.59619">
        <ele>548</ele>
        <time>2017-03-05T00:50:46Z</time>
      </trkpt>
      <trkpt lat="44.32328" lon="3.59618">
        <ele>548</ele>
        <time>2017-03-05T00:52:46Z</time>
      </trkpt>
      <trkpt lat="44.32333" lon="3.59615">
        <ele>548</ele>
        <time>2017-03-05T00:54:46Z</time>
      </trkpt>
      <trkpt lat="44.32342" lon="3.59609">
        <ele>548</ele>
        <time>2017-03-05T00:56:46Z</time>
      </trkpt>
      <trkpt lat="44.32378" lon="3.59579">
        <ele>548</ele>
        <time>2017-03-05T00:58:46Z</time>
      </trkpt>
      <trkpt lat="44.32383" lon="3.59576">
        <ele>548</ele>
        <time>2017-03-05T01:00:46Z</time>
      </trkpt>
      <trkpt lat="44.3241" lon="3.59556">
        <ele>548</ele>
        <time>2017-03-05T01:02:46Z</time>
      </trkpt>
      <trkpt lat="44.32453" lon="3.59521">
        <ele>548</ele>
        <time>2017-03-05T01:04:46Z</time>
      </trkpt>
      <trkpt lat="44.32462" lon="3.59515">
        <ele>548</ele>
        <time>2017-03-05T01:06:46Z</time>
      </trkpt>
      <trkpt lat="44.32479" lon="3.59501">
        <ele>548</ele>
        <time>2017-03-05T01:08:46Z</time>
      </trkpt>
      <trkpt lat="44.32477" lon="3.59483">
        <ele>548</ele>
        <time>2017-03-05T01:10:46Z</time>
      </trkpt>
      <trkpt lat="44.32475" lon="3.59476">
        <ele>548</ele>
        <time>2017-03-05T01:12:46Z</time>
      </trkpt>
      <trkpt lat="44.32461" lon="3.59441">
        <ele>549</ele>
        <time>2017-03-05T01:14:46Z</time>
      </trkpt>
      <trkpt lat="44.32459" lon="3.59432">
        <ele>549</ele>
        <time>2017-03-05T01:16:46Z</time>
      </trkpt>
      <trkpt lat="44.32473" lon="3.59419">
        <ele>549</ele>
        <time>2017-03-05T01:18:46Z</time>
      </trkpt>
      <trkpt lat="44.32487" lon="3.594">
        <ele>549</ele>
        <time>2017-03-05T01:20:46Z</time>
      </trkpt>
      <trkpt lat="44.32483" lon="3.59395">
        <ele>550</ele>
        <time>2017-03-05T01:22:46Z</time>
      </trkpt>
    </trkseg>
  </trk>
  <trk>
    <name><![CDATA[causwatts 03-chabriA-res-buti...]]></name>
    <trkseg>
      <trkpt lat="44.36357" lon="3.6479">
        <ele>761</ele>
        <time>2017-02-27T14:41:38Z</time>
      </trkpt>
      <trkpt lat="44.36361" lon="3.64782">
        <ele>762</ele>
        <time>2017-02-27T14:43:38Z</time>
      </trkpt>
      <trkpt lat="44.36365" lon="3.64774">
        <ele>763</ele>
        <time>2017-02-27T14:45:38Z</time>
      </trkpt>
      <trkpt lat="44.36366" lon="3.64772">
        <ele>763</ele>
        <time>2017-02-27T14:47:38Z</time>
      </trkpt>
      <trkpt lat="44.36367" lon="3.64771">
        <ele>763</ele>
        <time>2017-02-27T14:49:38Z</time>
      </trkpt>
      <trkpt lat="44.36368" lon="3.64771">
        <ele>764</ele>
        <time>2017-02-27T14:51:38Z</time>
      </trkpt>
      <trkpt lat="44.3637" lon="3.6477">
        <ele>764</ele>
        <time>2017-02-27T14:53:38Z</time>
      </trkpt>
      <trkpt lat="44.36374" lon="3.64769">
        <ele>765</ele>
        <time>2017-02-27T14:55:38Z</time>
      </trkpt>
      <trkpt lat="44.3638" lon="3.64768">
        <ele>766</ele>
        <time>2017-02-27T14:57:38Z</time>
      </trkpt>
      <trkpt lat="44.36398" lon="3.64767">
        <ele>769</ele>
        <time>2017-02-27T14:59:38Z</time>
      </trkpt>
      <trkpt lat="44.36405" lon="3.64766">
        <ele>771</ele>
        <time>2017-02-27T15:01:38Z</time>
      </trkpt>
      <trkpt lat="44.36409" lon="3.64764">
        <ele>772</ele>
        <time>2017-02-27T15:03:38Z</time>
      </trkpt>
      <trkpt lat="44.36414" lon="3.64761">
        <ele>773</ele>
        <time>2017-02-27T15:05:38Z</time>
      </trkpt>
      <trkpt lat="44.36416" lon="3.64759">
        <ele>774</ele>
        <time>2017-02-27T15:07:38Z</time>
      </trkpt>
      <trkpt lat="44.36419" lon="3.64756">
        <ele>774</ele>
        <time>2017-02-27T15:09:38Z</time>
      </trkpt>
      <trkpt lat="44.36423" lon="3.64751">
        <ele>775</ele>
        <time>2017-02-27T15:11:38Z</time>
      </trkpt>
      <trkpt lat="44.36427" lon="3.64746">
        <ele>776</ele>
        <time>2017-02-27T15:13:38Z</time>
      </trkpt>
      <trkpt lat="44.3643" lon="3.64738">
        <ele>777</ele>
        <time>2017-02-27T15:15:38Z</time>
      </trkpt>
      <trkpt lat="44.36433" lon="3.64731">
        <ele>778</ele>
        <time>2017-02-27T15:17:38Z</time>
      </trkpt>
      <trkpt lat="44.36434" lon="3.64729">
        <ele>779</ele>
        <time>2017-02-27T15:19:38Z</time>
      </trkpt>
      <trkpt lat="44.36435" lon="3.64727">
        <ele>779</ele>
        <time>2017-02-27T15:21:38Z</time>
      </trkpt>
      <trkpt lat="44.36438" lon="3.64724">
        <ele>780</ele>
        <time>2017-02-27T15:23:38Z</time>
      </trkpt>
      <trkpt lat="44.36447" lon="3.64715">
        <ele>782</ele>
        <time>2017-02-27T15:25:38Z</time>
      </trkpt>
      <trkpt lat="44.36464" lon="3.64697">
        <ele>788</ele>
        <time>2017-02-27T15:27:38Z</time>
      </trkpt>
      <trkpt lat="44.36466" lon="3.64695">
        <ele>789</ele>
        <time>2017-02-27T15:29:38Z</time>
      </trkpt>
      <trkpt lat="44.36467" lon="3.64693">
        <ele>790</ele>
        <time>2017-02-27T15:31:38Z</time>
      </trkpt>
      <trkpt lat="44.36467" lon="3.64691">
        <ele>790</ele>
        <time>2017-02-27T15:33:38Z</time>
      </trkpt>
      <trkpt lat="44.36468" lon="3.64689">
        <ele>791</ele>
        <time>2017-02-27T15:35:38Z</time>
      </trkpt>
      <trkpt lat="44.36468" lon="3.64687">
        <ele>791</ele>
        <time>2017-02-27T15:37:38Z</time>
      </trkpt>
      <trkpt lat="44.36468" lon="3.64685">
        <ele>791</ele>
        <time>2017-02-27T15:39:38Z</time>
      </trkpt>
      <trkpt lat="44.36468" lon="3.64683">
        <ele>792</ele>
        <time>2017-02-27T15:41:38Z</time>
      </trkpt>
      <trkpt lat="44.36468" lon="3.64681">
        <ele>792</ele>
        <time>2017-02-27T15:43:38Z</time>
      </trkpt>
      <trkpt lat="44.36467" lon="3.64678">
        <ele>792</ele>
        <time>2017-02-27T15:45:38Z</time>
      </trkpt>
      <trkpt lat="44.36464" lon="3.64675">
        <ele>792</ele>
        <time>2017-02-27T15:47:38Z</time>
      </trkpt>
      <trkpt lat="44.36458" lon="3.64669">
        <ele>792</ele>
        <time>2017-02-27T15:49:38Z</time>
      </trkpt>
      <trkpt lat="44.36455" lon="3.64667">
        <ele>792</ele>
        <time>2017-02-27T15:51:38Z</time>
      </trkpt>
      <trkpt lat="44.36453" lon="3.64666">
        <ele>791</ele>
        <time>2017-02-27T15:53:38Z</time>
      </trkpt>
      <trkpt lat="44.36452" lon="3.64664">
        <ele>791</ele>
        <time>2017-02-27T15:55:38Z</time>
      </trkpt>
      <trkpt lat="44.36452" lon="3.64662">
        <ele>792</ele>
        <time>2017-02-27T15:57:38Z</time>
      </trkpt>
      <trkpt lat="44.36452" lon="3.6466">
        <ele>792</ele>
        <time>2017-02-27T15:59:38Z</time>
      </trkpt>
      <trkpt lat="44.36452" lon="3.64658">
        <ele>793</ele>
        <time>2017-02-27T16:01:38Z</time>
      </trkpt>
      <trkpt lat="44.36452" lon="3.64656">
        <ele>793</ele>
        <time>2017-02-27T16:03:38Z</time>
      </trkpt>
      <trkpt lat="44.36453" lon="3.64655">
        <ele>794</ele>
        <time>2017-02-27T16:05:38Z</time>
      </trkpt>
      <trkpt lat="44.36454" lon="3.64654">
        <ele>794</ele>
        <time>2017-02-27T16:07:38Z</time>
      </trkpt>
      <trkpt lat="44.36455" lon="3.64653">
        <ele>794</ele>
        <time>2017-02-27T16:09:38Z</time>
      </trkpt>
      <trkpt lat="44.36457" lon="3.64652">
        <ele>795</ele>
        <time>2017-02-27T16:11:38Z</time>
      </trkpt>
      <trkpt lat="44.3646" lon="3.64651">
        <ele>796</ele>
        <time>2017-02-27T16:13:38Z</time>
      </trkpt>
      <trkpt lat="44.36461" lon="3.64651">
        <ele>797</ele>
        <time>2017-02-27T16:15:38Z</time>
      </trkpt>
      <trkpt lat="44.36465" lon="3.64651">
        <ele>798</ele>
        <time>2017-02-27T16:17:38Z</time>
      </trkpt>
      <trkpt lat="44.36469" lon="3.64652">
        <ele>798</ele>
        <time>2017-02-27T16:19:38Z</time>
      </trkpt>
      <trkpt lat="44.36493" lon="3.6466">
        <ele>803</ele>
        <time>2017-02-27T16:21:38Z</time>
      </trkpt>
      <trkpt lat="44.36497" lon="3.64661">
        <ele>804</ele>
        <time>2017-02-27T16:23:38Z</time>
      </trkpt>
      <trkpt lat="44.36502" lon="3.64661">
        <ele>805</ele>
        <time>2017-02-27T16:25:38Z</time>
      </trkpt>
      <trkpt lat="44.36507" lon="3.64661">
        <ele>805</ele>
        <time>2017-02-27T16:27:38Z</time>
      </trkpt>
      <trkpt lat="44.36514" lon="3.6466">
        <ele>806</ele>
        <time>2017-02-27T16:29:38Z</time>
      </trkpt>
      <trkpt lat="44.36539" lon="3.64648">
        <ele>812</ele>
        <time>2017-02-27T16:31:38Z</time>
      </trkpt>
      <trkpt lat="44.36562" lon="3.64636">
        <ele>819</ele>
        <time>2017-02-27T16:33:38Z</time>
      </trkpt>
      <trkpt lat="44.36566" lon="3.64633">
        <ele>821</ele>
        <time>2017-02-27T16:35:38Z</time>
      </trkpt>
      <trkpt lat="44.36569" lon="3.6463">
        <ele>822</ele>
        <time>2017-02-27T16:37:38Z</time>
      </trkpt>
      <trkpt lat="44.36577" lon="3.64624">
        <ele>825</ele>
        <time>2017-02-27T16:39:38Z</time>
      </trkpt>
      <trkpt lat="44.3658" lon="3.64622">
        <ele>827</ele>
        <time>2017-02-27T16:41:38Z</time>
      </trkpt>
      <trkpt lat="44.36584" lon="3.64621">
        <ele>828</ele>
        <time>2017-02-27T16:43:38Z</time>
      </trkpt>
      <trkpt lat="44.36587" lon="3.64619">
        <ele>829</ele>
        <time>2017-02-27T16:45:38Z</time>
      </trkpt>
      <trkpt lat="44.36598" lon="3.64614">
        <ele>834</ele>
        <time>2017-02-27T16:47:38Z</time>
      </trkpt>
      <trkpt lat="44.36599" lon="3.64613">
        <ele>835</ele>
        <time>2017-02-27T16:49:38Z</time>
      </trkpt>
      <trkpt lat="44.366" lon="3.64611">
        <ele>836</ele>
        <time>2017-02-27T16:51:38Z</time>
      </trkpt>
      <trkpt lat="44.36599" lon="3.64608">
        <ele>836</ele>
        <time>2017-02-27T16:53:38Z</time>
      </trkpt>
      <trkpt lat="44.36599" lon="3.64606">
        <ele>837</ele>
        <time>2017-02-27T16:55:38Z</time>
      </trkpt>
      <trkpt lat="44.36598" lon="3.64605">
        <ele>837</ele>
        <time>2017-02-27T16:57:38Z</time>
      </trkpt>
      <trkpt lat="44.36595" lon="3.64604">
        <ele>837</ele>
        <time>2017-02-27T16:59:38Z</time>
      </trkpt>
      <trkpt lat="44.36587" lon="3.64604">
        <ele>835</ele>
        <time>2017-02-27T17:01:38Z</time>
      </trkpt>
      <trkpt lat="44.36582" lon="3.64603">
        <ele>834</ele>
        <time>2017-02-27T17:03:38Z</time>
      </trkpt>
      <trkpt lat="44.36578" lon="3.64602">
        <ele>833</ele>
        <time>2017-02-27T17:05:38Z</time>
      </trkpt>
      <trkpt lat="44.36573" lon="3.64601">
        <ele>833</ele>
        <time>2017-02-27T17:07:38Z</time>
      </trkpt>
      <trkpt lat="44.36566" lon="3.64598">
        <ele>833</ele>
        <time>2017-02-27T17:09:38Z</time>
      </trkpt>
      <trkpt lat="44.36532" lon="3.64584">
        <ele>830</ele>
        <time>2017-02-27T17:11:38Z</time>
      </trkpt>
      <trkpt lat="44.36527" lon="3.64582">
        <ele>830</ele>
        <time>2017-02-27T17:13:38Z</time>
      </trkpt>
      <trkpt lat="44.36524" lon="3.6458">
        <ele>830</ele>
        <time>2017-02-27T17:15:38Z</time>
      </trkpt>
      <trkpt lat="44.36522" lon="3.64578">
        <ele>830</ele>
        <time>2017-02-27T17:17:38Z</time>
      </trkpt>
      <trkpt lat="44.3652" lon="3.64575">
        <ele>830</ele>
        <time>2017-02-27T17:19:38Z</time>
      </trkpt>
      <trkpt lat="44.36519" lon="3.64571">
        <ele>831</ele>
        <time>2017-02-27T17:21:38Z</time>
      </trkpt>
      <trkpt lat="44.36519" lon="3.64566">
        <ele>833</ele>
        <time>2017-02-27T17:23:38Z</time>
      </trkpt>
      <trkpt lat="44.36519" lon="3.64555">
        <ele>836</ele>
        <time>2017-02-27T17:25:38Z</time>
      </trkpt>
      <trkpt lat="44.36518" lon="3.6455">
        <ele>837</ele>
        <time>2017-02-27T17:27:38Z</time>
      </trkpt>
      <trkpt lat="44.36518" lon="3.64546">
        <ele>838</ele>
        <time>2017-02-27T17:29:38Z</time>
      </trkpt>
      <trkpt lat="44.36517" lon="3.64541">
        <ele>839</ele>
        <time>2017-02-27T17:31:38Z</time>
      </trkpt>
      <trkpt lat="44.36513" lon="3.64523">
        <ele>843</ele>
        <time>2017-02-27T17:33:38Z</time>
      </trkpt>
      <trkpt lat="44.36512" lon="3.64516">
        <ele>845</ele>
        <time>2017-02-27T17:35:38Z</time>
      </trkpt>
      <trkpt lat="44.36511" lon="3.64511">
        <ele>846</ele>
        <time>2017-02-27T17:37:38Z</time>
      </trkpt>
      <trkpt lat="44.36511" lon="3.64497">
        <ele>850</ele>
        <time>2017-02-27T17:39:38Z</time>
      </trkpt>
      <trkpt lat="44.3651" lon="3.64492">
        <ele>852</ele>
        <time>2017-02-27T17:41:38Z</time>
      </trkpt>
      <trkpt lat="44.36501" lon="3.64461">
        <ele>858</ele>
        <time>2017-02-27T17:43:38Z</time>
      </trkpt>
      <trkpt lat="44.36496" lon="3.64447">
        <ele>861</ele>
        <time>2017-02-27T17:45:38Z</time>
      </trkpt>
      <trkpt lat="44.36495" lon="3.64443">
        <ele>862</ele>
        <time>2017-02-27T17:47:38Z</time>
      </trkpt>
      <trkpt lat="44.36488" lon="3.64434">
        <ele>863</ele>
        <time>2017-02-27T17:49:38Z</time>
      </trkpt>
      <trkpt lat="44.36487" lon="3.64432">
        <ele>863</ele>
        <time>2017-02-27T17:51:38Z</time>
      </trkpt>
      <trkpt lat="44.36486" lon="3.6443">
        <ele>863</ele>
        <time>2017-02-27T17:53:38Z</time>
      </trkpt>
      <trkpt lat="44.36486" lon="3.64428">
        <ele>864</ele>
        <time>2017-02-27T17:55:38Z</time>
      </trkpt>
      <trkpt lat="44.36487" lon="3.64427">
        <ele>865</ele>
        <time>2017-02-27T17:57:38Z</time>
      </trkpt>
      <trkpt lat="44.36488" lon="3.64426">
        <ele>865</ele>
        <time>2017-02-27T17:59:38Z</time>
      </trkpt>
      <trkpt lat="44.36489" lon="3.64426">
        <ele>865</ele>
        <time>2017-02-27T18:01:38Z</time>
      </trkpt>
      <trkpt lat="44.36492" lon="3.64426">
        <ele>866</ele>
        <time>2017-02-27T18:03:38Z</time>
      </trkpt>
      <trkpt lat="44.36494" lon="3.64427">
        <ele>867</ele>
        <time>2017-02-27T18:05:38Z</time>
      </trkpt>
      <trkpt lat="44.36496" lon="3.64428">
        <ele>867</ele>
        <time>2017-02-27T18:07:38Z</time>
      </trkpt>
      <trkpt lat="44.365" lon="3.64431">
        <ele>868</ele>
        <time>2017-02-27T18:09:38Z</time>
      </trkpt>
      <trkpt lat="44.36517" lon="3.64443">
        <ele>870</ele>
        <time>2017-02-27T18:11:38Z</time>
      </trkpt>
      <trkpt lat="44.36524" lon="3.64448">
        <ele>870</ele>
        <time>2017-02-27T18:13:38Z</time>
      </trkpt>
      <trkpt lat="44.36532" lon="3.64455">
        <ele>871</ele>
        <time>2017-02-27T18:15:38Z</time>
      </trkpt>
      <trkpt lat="44.36547" lon="3.64467">
        <ele>872</ele>
        <time>2017-02-27T18:17:38Z</time>
      </trkpt>
      <trkpt lat="44.36554" lon="3.64472">
        <ele>872</ele>
        <time>2017-02-27T18:19:38Z</time>
      </trkpt>
      <trkpt lat="44.3656" lon="3.64476">
        <ele>873</ele>
        <time>2017-02-27T18:21:38Z</time>
      </trkpt>
      <trkpt lat="44.36564" lon="3.64478">
        <ele>873</ele>
        <time>2017-02-27T18:23:38Z</time>
      </trkpt>
      <trkpt lat="44.36567" lon="3.6448">
        <ele>873</ele>
        <time>2017-02-27T18:25:38Z</time>
      </trkpt>
      <trkpt lat="44.36571" lon="3.64481">
        <ele>874</ele>
        <time>2017-02-27T18:27:38Z</time>
      </trkpt>
      <trkpt lat="44.36579" lon="3.64481">
        <ele>877</ele>
        <time>2017-02-27T18:29:38Z</time>
      </trkpt>
      <trkpt lat="44.36591" lon="3.64479">
        <ele>880</ele>
        <time>2017-02-27T18:31:38Z</time>
      </trkpt>
      <trkpt lat="44.36617" lon="3.6447">
        <ele>887</ele>
        <time>2017-02-27T18:33:38Z</time>
      </trkpt>
      <trkpt lat="44.36625" lon="3.64468">
        <ele>889</ele>
        <time>2017-02-27T18:35:38Z</time>
      </trkpt>
      <trkpt lat="44.36632" lon="3.64466">
        <ele>891</ele>
        <time>2017-02-27T18:37:38Z</time>
      </trkpt>
      <trkpt lat="44.36639" lon="3.64465">
        <ele>893</ele>
        <time>2017-02-27T18:39:38Z</time>
      </trkpt>
      <trkpt lat="44.36669" lon="3.64463">
        <ele>899</ele>
        <time>2017-02-27T18:41:38Z</time>
      </trkpt>
      <trkpt lat="44.36678" lon="3.64461">
        <ele>903</ele>
        <time>2017-02-27T18:43:38Z</time>
      </trkpt>
      <trkpt lat="44.36681" lon="3.6446">
        <ele>904</ele>
        <time>2017-02-27T18:45:38Z</time>
      </trkpt>
      <trkpt lat="44.36685" lon="3.64458">
        <ele>907</ele>
        <time>2017-02-27T18:47:38Z</time>
      </trkpt>
      <trkpt lat="44.36686" lon="3.64456">
        <ele>908</ele>
        <time>2017-02-27T18:49:38Z</time>
      </trkpt>
      <trkpt lat="44.36687" lon="3.64455">
        <ele>908</ele>
        <time>2017-02-27T18:51:38Z</time>
      </trkpt>
      <trkpt lat="44.36688" lon="3.64453">
        <ele>909</ele>
        <time>2017-02-27T18:53:38Z</time>
      </trkpt>
      <trkpt lat="44.36688" lon="3.64451">
        <ele>910</ele>
        <time>2017-02-27T18:55:38Z</time>
      </trkpt>
      <trkpt lat="44.36687" lon="3.6445">
        <ele>910</ele>
        <time>2017-02-27T18:57:38Z</time>
      </trkpt>
      <trkpt lat="44.36686" lon="3.64449">
        <ele>910</ele>
        <time>2017-02-27T18:59:38Z</time>
      </trkpt>
      <trkpt lat="44.36683" lon="3.64449">
        <ele>909</ele>
        <time>2017-02-27T19:01:38Z</time>
      </trkpt>
      <trkpt lat="44.36677" lon="3.64448">
        <ele>907</ele>
        <time>2017-02-27T19:03:38Z</time>
      </trkpt>
      <trkpt lat="44.36674" lon="3.64446">
        <ele>907</ele>
        <time>2017-02-27T19:05:38Z</time>
      </trkpt>
      <trkpt lat="44.36671" lon="3.64445">
        <ele>906</ele>
        <time>2017-02-27T19:07:38Z</time>
      </trkpt>
      <trkpt lat="44.36666" lon="3.64441">
        <ele>906</ele>
        <time>2017-02-27T19:09:38Z</time>
      </trkpt>
      <trkpt lat="44.36654" lon="3.64429">
        <ele>908</ele>
        <time>2017-02-27T19:11:38Z</time>
      </trkpt>
      <trkpt lat="44.36634" lon="3.64405">
        <ele>914</ele>
        <time>2017-02-27T19:13:38Z</time>
      </trkpt>
      <trkpt lat="44.36596" lon="3.64357">
        <ele>922</ele>
        <time>2017-02-27T19:15:38Z</time>
      </trkpt>
      <trkpt lat="44.36592" lon="3.64352">
        <ele>922</ele>
        <time>2017-02-27T19:17:38Z</time>
      </trkpt>
      <trkpt lat="44.36588" lon="3.64346">
        <ele>923</ele>
        <time>2017-02-27T19:19:38Z</time>
      </trkpt>
      <trkpt lat="44.36578" lon="3.64327">
        <ele>926</ele>
        <time>2017-02-27T19:21:38Z</time>
      </trkpt>
      <trkpt lat="44.3655" lon="3.64278">
        <ele>933</ele>
        <time>2017-02-27T19:23:38Z</time>
      </trkpt>
      <trkpt lat="44.36535" lon="3.64251">
        <ele>937</ele>
        <time>2017-02-27T19:25:38Z</time>
      </trkpt>
      <trkpt lat="44.36534" lon="3.64249">
        <ele>937</ele>
        <time>2017-02-27T19:27:38Z</time>
      </trkpt>
      <trkpt lat="44.36534" lon="3.64247">
        <ele>936</ele>
        <time>2017-02-27T19:29:38Z</time>
      </trkpt>
      <trkpt lat="44.36534" lon="3.64245">
        <ele>936</ele>
        <time>2017-02-27T19:31:38Z</time>
      </trkpt>
      <trkpt lat="44.36534" lon="3.64243">
        <ele>936</ele>
        <time>2017-02-27T19:33:38Z</time>
      </trkpt>
      <trkpt lat="44.36536" lon="3.6424">
        <ele>937</ele>
        <time>2017-02-27T19:35:38Z</time>
      </trkpt>
      <trkpt lat="44.36538" lon="3.64239">
        <ele>937</ele>
        <time>2017-02-27T19:37:38Z</time>
      </trkpt>
      <trkpt lat="44.36541" lon="3.64239">
        <ele>938</ele>
        <time>2017-02-27T19:39:38Z</time>
      </trkpt>
      <trkpt lat="44.36543" lon="3.6424">
        <ele>939</ele>
        <time>2017-02-27T19:41:38Z</time>
      </trkpt>
      <trkpt lat="44.36544" lon="3.64241">
        <ele>939</ele>
        <time>2017-02-27T19:43:38Z</time>
      </trkpt>
      <trkpt lat="44.36552" lon="3.64249">
        <ele>942</ele>
        <time>2017-02-27T19:45:38Z</time>
      </trkpt>
      <trkpt lat="44.36559" lon="3.64255">
        <ele>943</ele>
        <time>2017-02-27T19:47:38Z</time>
      </trkpt>
      <trkpt lat="44.36563" lon="3.64257">
        <ele>943</ele>
        <time>2017-02-27T19:49:38Z</time>
      </trkpt>
      <trkpt lat="44.36567" lon="3.64259">
        <ele>944</ele>
        <time>2017-02-27T19:51:38Z</time>
      </trkpt>
      <trkpt lat="44.36588" lon="3.64264">
        <ele>949</ele>
        <time>2017-02-27T19:53:38Z</time>
      </trkpt>
      <trkpt lat="44.36595" lon="3.64266">
        <ele>950</ele>
        <time>2017-02-27T19:55:38Z</time>
      </trkpt>
      <trkpt lat="44.366" lon="3.64268">
        <ele>950</ele>
        <time>2017-02-27T19:57:38Z</time>
      </trkpt>
      <trkpt lat="44.36613" lon="3.64274">
        <ele>952</ele>
        <time>2017-02-27T19:59:38Z</time>
      </trkpt>
      <trkpt lat="44.36616" lon="3.64276">
        <ele>952</ele>
        <time>2017-02-27T20:01:38Z</time>
      </trkpt>
      <trkpt lat="44.36624" lon="3.64283">
        <ele>952</ele>
        <time>2017-02-27T20:03:38Z</time>
      </trkpt>
      <trkpt lat="44.36628" lon="3.64286">
        <ele>952</ele>
        <time>2017-02-27T20:05:38Z</time>
      </trkpt>
      <trkpt lat="44.36639" lon="3.6429">
        <ele>954</ele>
        <time>2017-02-27T20:07:38Z</time>
      </trkpt>
      <trkpt lat="44.36669" lon="3.64297">
        <ele>960</ele>
        <time>2017-02-27T20:09:38Z</time>
      </trkpt>
      <trkpt lat="44.36687" lon="3.64301">
        <ele>963</ele>
        <time>2017-02-27T20:11:38Z</time>
      </trkpt>
      <trkpt lat="44.36699" lon="3.64302">
        <ele>966</ele>
        <time>2017-02-27T20:13:38Z</time>
      </trkpt>
      <trkpt lat="44.36731" lon="3.64301">
        <ele>974</ele>
        <time>2017-02-27T20:15:38Z</time>
      </trkpt>
      <trkpt lat="44.36754" lon="3.64299">
        <ele>980</ele>
        <time>2017-02-27T20:17:38Z</time>
      </trkpt>
      <trkpt lat="44.36794" lon="3.64296">
        <ele>990</ele>
        <time>2017-02-27T20:19:38Z</time>
      </trkpt>
      <trkpt lat="44.36796" lon="3.64296">
        <ele>990</ele>
        <time>2017-02-27T20:21:38Z</time>
      </trkpt>
      <trkpt lat="44.36797" lon="3.64295">
        <ele>991</ele>
        <time>2017-02-27T20:23:38Z</time>
      </trkpt>
      <trkpt lat="44.368" lon="3.64292">
        <ele>992</ele>
        <time>2017-02-27T20:25:38Z</time>
      </trkpt>
      <trkpt lat="44.368" lon="3.64292">
        <ele>992</ele>
        <time>2017-02-27T20:27:38Z</time>
      </trkpt>
      <trkpt lat="44.36802" lon="3.64287">
        <ele>993</ele>
        <time>2017-02-27T20:29:38Z</time>
      </trkpt>
      <trkpt lat="44.36802" lon="3.64282">
        <ele>994</ele>
        <time>2017-02-27T20:31:38Z</time>
      </trkpt>
      <trkpt lat="44.36804" lon="3.6427">
        <ele>997</ele>
        <time>2017-02-27T20:33:38Z</time>
      </trkpt>
      <trkpt lat="44.36812" lon="3.64206">
        <ele>1002</ele>
        <time>2017-02-27T20:35:38Z</time>
      </trkpt>
      <trkpt lat="44.36814" lon="3.64191">
        <ele>1003</ele>
        <time>2017-02-27T20:37:38Z</time>
      </trkpt>
      <trkpt lat="44.36814" lon="3.64189">
        <ele>1003</ele>
        <time>2017-02-27T20:39:38Z</time>
      </trkpt>
      <trkpt lat="44.36815" lon="3.64186">
        <ele>1003</ele>
        <time>2017-02-27T20:41:38Z</time>
      </trkpt>
      <trkpt lat="44.36817" lon="3.64184">
        <ele>1004</ele>
        <time>2017-02-27T20:43:38Z</time>
      </trkpt>
      <trkpt lat="44.36822" lon="3.64179">
        <ele>1005</ele>
        <time>2017-02-27T20:45:38Z</time>
      </trkpt>
      <trkpt lat="44.36823" lon="3.64177">
        <ele>1005</ele>
        <time>2017-02-27T20:47:38Z</time>
      </trkpt>
      <trkpt lat="44.36824" lon="3.64175">
        <ele>1005</ele>
        <time>2017-02-27T20:49:38Z</time>
      </trkpt>
      <trkpt lat="44.36834" lon="3.64154">
        <ele>1007</ele>
        <time>2017-02-27T20:51:38Z</time>
      </trkpt>
      <trkpt lat="44.36852" lon="3.64122">
        <ele>1008</ele>
        <time>2017-02-27T20:53:38Z</time>
      </trkpt>
      <trkpt lat="44.36856" lon="3.64116">
        <ele>1009</ele>
        <time>2017-02-27T20:55:38Z</time>
      </trkpt>
      <trkpt lat="44.3686" lon="3.6411">
        <ele>1009</ele>
        <time>2017-02-27T20:57:38Z</time>
      </trkpt>
      <trkpt lat="44.36867" lon="3.64104">
        <ele>1010</ele>
        <time>2017-02-27T20:59:38Z</time>
      </trkpt>
      <trkpt lat="44.36874" lon="3.64098">
        <ele>1010</ele>
        <time>2017-02-27T21:01:38Z</time>
      </trkpt>
      <trkpt lat="44.36887" lon="3.64085">
        <ele>1011</ele>
        <time>2017-02-27T21:03:38Z</time>
      </trkpt>
      <trkpt lat="44.36902" lon="3.64054">
        <ele>1008</ele>
        <time>2017-02-27T21:05:38Z</time>
      </trkpt>
      <trkpt lat="44.36903" lon="3.64047">
        <ele>1007</ele>
        <time>2017-02-27T21:07:38Z</time>
      </trkpt>
      <trkpt lat="44.36903" lon="3.6404">
        <ele>1006</ele>
        <time>2017-02-27T21:09:38Z</time>
      </trkpt>
      <trkpt lat="44.36902" lon="3.6403">
        <ele>1005</ele>
        <time>2017-02-27T21:11:38Z</time>
      </trkpt>
      <trkpt lat="44.36893" lon="3.63977">
        <ele>997</ele>
        <time>2017-02-27T21:13:38Z</time>
      </trkpt>
      <trkpt lat="44.3689" lon="3.63963">
        <ele>995</ele>
        <time>2017-02-27T21:15:38Z</time>
      </trkpt>
      <trkpt lat="44.36888" lon="3.63956">
        <ele>994</ele>
        <time>2017-02-27T21:17:38Z</time>
      </trkpt>
      <trkpt lat="44.36877" lon="3.63934">
        <ele>992</ele>
        <time>2017-02-27T21:19:38Z</time>
      </trkpt>
      <trkpt lat="44.36863" lon="3.63908">
        <ele>991</ele>
        <time>2017-02-27T21:21:38Z</time>
      </trkpt>
      <trkpt lat="44.36863" lon="3.63908">
        <ele>991</ele>
        <time>2017-02-27T21:23:38Z</time>
      </trkpt>
      <trkpt lat="44.36868" lon="3.63912">
        <ele>990</ele>
        <time>2017-02-27T21:25:38Z</time>
      </trkpt>
      <trkpt lat="44.36872" lon="3.63915">
        <ele>990</ele>
        <time>2017-02-27T21:27:38Z</time>
      </trkpt>
      <trkpt lat="44.36874" lon="3.63917">
        <ele>990</ele>
        <time>2017-02-27T21:29:38Z</time>
      </trkpt>
      <trkpt lat="44.36875" lon="3.63919">
        <ele>990</ele>
        <time>2017-02-27T21:31:38Z</time>
      </trkpt>
      <trkpt lat="44.3695" lon="3.64039">
        <ele>1001</ele>
        <time>2017-02-27T21:33:38Z</time>
      </trkpt>
      <trkpt lat="44.36954" lon="3.64044">
        <ele>1001</ele>
        <time>2017-02-27T21:35:38Z</time>
      </trkpt>
      <trkpt lat="44.36956" lon="3.64047">
        <ele>1002</ele>
        <time>2017-02-27T21:37:38Z</time>
      </trkpt>
      <trkpt lat="44.36958" lon="3.6405">
        <ele>1002</ele>
        <time>2017-02-27T21:39:38Z</time>
      </trkpt>
      <trkpt lat="44.3696" lon="3.64051">
        <ele>1002</ele>
        <time>2017-02-27T21:41:38Z</time>
      </trkpt>
      <trkpt lat="44.36963" lon="3.64053">
        <ele>1002</ele>
        <time>2017-02-27T21:43:38Z</time>
      </trkpt>
      <trkpt lat="44.36979" lon="3.64061">
        <ele>1003</ele>
        <time>2017-02-27T21:45:38Z</time>
      </trkpt>
      <trkpt lat="44.37012" lon="3.64079">
        <ele>1006</ele>
        <time>2017-02-27T21:47:38Z</time>
      </trkpt>
      <trkpt lat="44.37074" lon="3.64115">
        <ele>1011</ele>
        <time>2017-02-27T21:49:38Z</time>
      </trkpt>
      <trkpt lat="44.37077" lon="3.64118">
        <ele>1012</ele>
        <time>2017-02-27T21:51:38Z</time>
      </trkpt>
      <trkpt lat="44.3708" lon="3.6412">
        <ele>1012</ele>
        <time>2017-02-27T21:53:38Z</time>
      </trkpt>
      <trkpt lat="44.37082" lon="3.64122">
        <ele>1013</ele>
        <time>2017-02-27T21:55:38Z</time>
      </trkpt>
      <trkpt lat="44.37085" lon="3.64125">
        <ele>1013</ele>
        <time>2017-02-27T21:57:38Z</time>
      </trkpt>
      <trkpt lat="44.3709" lon="3.64131">
        <ele>1014</ele>
        <time>2017-02-27T21:59:38Z</time>
      </trkpt>
      <trkpt lat="44.37117" lon="3.64161">
        <ele>1018</ele>
        <time>2017-02-27T22:01:38Z</time>
      </trkpt>
      <trkpt lat="44.37129" lon="3.64175">
        <ele>1019</ele>
        <time>2017-02-27T22:03:38Z</time>
      </trkpt>
      <trkpt lat="44.37139" lon="3.64186">
        <ele>1020</ele>
        <time>2017-02-27T22:05:38Z</time>
      </trkpt>
      <trkpt lat="44.37153" lon="3.64203">
        <ele>1021</ele>
        <time>2017-02-27T22:07:38Z</time>
      </trkpt>
      <trkpt lat="44.37168" lon="3.64219">
        <ele>1023</ele>
        <time>2017-02-27T22:09:38Z</time>
      </trkpt>
      <trkpt lat="44.37175" lon="3.64225">
        <ele>1024</ele>
        <time>2017-02-27T22:11:38Z</time>
      </trkpt>
      <trkpt lat="44.37187" lon="3.64235">
        <ele>1026</ele>
        <time>2017-02-27T22:13:38Z</time>
      </trkpt>
      <trkpt lat="44.37194" lon="3.6424">
        <ele>1027</ele>
        <time>2017-02-27T22:15:38Z</time>
      </trkpt>
      <trkpt lat="44.372" lon="3.64243">
        <ele>1027</ele>
        <time>2017-02-27T22:17:38Z</time>
      </trkpt>
      <trkpt lat="44.37204" lon="3.64245">
        <ele>1028</ele>
        <time>2017-02-27T22:19:38Z</time>
      </trkpt>
      <trkpt lat="44.37214" lon="3.64249">
        <ele>1028</ele>
        <time>2017-02-27T22:21:38Z</time>
      </trkpt>
      <trkpt lat="44.37224" lon="3.64251">
        <ele>1028</ele>
        <time>2017-02-27T22:23:38Z</time>
      </trkpt>
      <trkpt lat="44.37234" lon="3.64252">
        <ele>1028</ele>
        <time>2017-02-27T22:25:38Z</time>
      </trkpt>
      <trkpt lat="44.37266" lon="3.64257">
        <ele>1028</ele>
        <time>2017-02-27T22:27:38Z</time>
      </trkpt>
      <trkpt lat="44.37275" lon="3.64258">
        <ele>1028</ele>
        <time>2017-02-27T22:29:38Z</time>
      </trkpt>
      <trkpt lat="44.37287" lon="3.64259">
        <ele>1028</ele>
        <time>2017-02-27T22:31:38Z</time>
      </trkpt>
      <trkpt lat="44.37307" lon="3.64261">
        <ele>1029</ele>
        <time>2017-02-27T22:33:38Z</time>
      </trkpt>
      <trkpt lat="44.37323" lon="3.64262">
        <ele>1029</ele>
        <time>2017-02-27T22:35:38Z</time>
      </trkpt>
      <trkpt lat="44.37338" lon="3.64263">
        <ele>1028</ele>
        <time>2017-02-27T22:37:38Z</time>
      </trkpt>
      <trkpt lat="44.37346" lon="3.64265">
        <ele>1027</ele>
        <time>2017-02-27T22:39:38Z</time>
      </trkpt>
      <trkpt lat="44.37352" lon="3.64268">
        <ele>1026</ele>
        <time>2017-02-27T22:41:38Z</time>
      </trkpt>
      <trkpt lat="44.37359" lon="3.6427">
        <ele>1025</ele>
        <time>2017-02-27T22:43:38Z</time>
      </trkpt>
      <trkpt lat="44.37365" lon="3.64274">
        <ele>1025</ele>
        <time>2017-02-27T22:45:38Z</time>
      </trkpt>
      <trkpt lat="44.3737" lon="3.64278">
        <ele>1025</ele>
        <time>2017-02-27T22:47:38Z</time>
      </trkpt>
      <trkpt lat="44.37392" lon="3.64299">
        <ele>1025</ele>
        <time>2017-02-27T22:49:38Z</time>
      </trkpt>
      <trkpt lat="44.37403" lon="3.6431">
        <ele>1026</ele>
        <time>2017-02-27T22:51:38Z</time>
      </trkpt>
      <trkpt lat="44.37415" lon="3.64321">
        <ele>1027</ele>
        <time>2017-02-27T22:53:38Z</time>
      </trkpt>
      <trkpt lat="44.37432" lon="3.64334">
        <ele>1026</ele>
        <time>2017-02-27T22:55:38Z</time>
      </trkpt>
      <trkpt lat="44.37439" lon="3.64339">
        <ele>1025</ele>
        <time>2017-02-27T22:57:38Z</time>
      </trkpt>
      <trkpt lat="44.37443" lon="3.64342">
        <ele>1025</ele>
        <time>2017-02-27T22:59:38Z</time>
      </trkpt>
      <trkpt lat="44.37446" lon="3.64344">
        <ele>1024</ele>
        <time>2017-02-27T23:01:38Z</time>
      </trkpt>
      <trkpt lat="44.37447" lon="3.64346">
        <ele>1024</ele>
        <time>2017-02-27T23:03:38Z</time>
      </trkpt>
      <trkpt lat="44.37448" lon="3.6435">
        <ele>1024</ele>
        <time>2017-02-27T23:05:38Z</time>
      </trkpt>
      <trkpt lat="44.37451" lon="3.64363">
        <ele>1025</ele>
        <time>2017-02-27T23:07:38Z</time>
      </trkpt>
      <trkpt lat="44.37455" lon="3.64377">
        <ele>1026</ele>
        <time>2017-02-27T23:09:38Z</time>
      </trkpt>
      <trkpt lat="44.3746" lon="3.6439">
        <ele>1027</ele>
        <time>2017-02-27T23:11:38Z</time>
      </trkpt>
      <trkpt lat="44.37463" lon="3.64399">
        <ele>1028</ele>
        <time>2017-02-27T23:13:38Z</time>
      </trkpt>
      <trkpt lat="44.37468" lon="3.64406">
        <ele>1028</ele>
        <time>2017-02-27T23:15:38Z</time>
      </trkpt>
      <trkpt lat="44.37473" lon="3.64413">
        <ele>1028</ele>
        <time>2017-02-27T23:17:38Z</time>
      </trkpt>
      <trkpt lat="44.37479" lon="3.64418">
        <ele>1028</ele>
        <time>2017-02-27T23:19:38Z</time>
      </trkpt>
      <trkpt lat="44.3749" lon="3.64425">
        <ele>1026</ele>
        <time>2017-02-27T23:21:38Z</time>
      </trkpt>
      <trkpt lat="44.37505" lon="3.64433">
        <ele>1025</ele>
        <time>2017-02-27T23:23:38Z</time>
      </trkpt>
      <trkpt lat="44.37521" lon="3.64437">
        <ele>1025</ele>
        <time>2017-02-27T23:25:38Z</time>
      </trkpt>
      <trkpt lat="44.37526" lon="3.64437">
        <ele>1024</ele>
        <time>2017-02-27T23:27:38Z</time>
      </trkpt>
      <trkpt lat="44.37531" lon="3.64437">
        <ele>1024</ele>
        <time>2017-02-27T23:29:38Z</time>
      </trkpt>
      <trkpt lat="44.3754" lon="3.64435">
        <ele>1024</ele>
        <time>2017-02-27T23:31:38Z</time>
      </trkpt>
      <trkpt lat="44.37554" lon="3.64432">
        <ele>1023</ele>
        <time>2017-02-27T23:33:38Z</time>
      </trkpt>
      <trkpt lat="44.3756" lon="3.6443">
        <ele>1023</ele>
        <time>2017-02-27T23:35:38Z</time>
      </trkpt>
      <trkpt lat="44.37566" lon="3.64429">
        <ele>1023</ele>
        <time>2017-02-27T23:37:38Z</time>
      </trkpt>
      <trkpt lat="44.37576" lon="3.6443">
        <ele>1022</ele>
        <time>2017-02-27T23:39:38Z</time>
      </trkpt>
      <trkpt lat="44.37606" lon="3.64431">
        <ele>1021</ele>
        <time>2017-02-27T23:41:38Z</time>
      </trkpt>
      <trkpt lat="44.37626" lon="3.64431">
        <ele>1021</ele>
        <time>2017-02-27T23:43:38Z</time>
      </trkpt>
      <trkpt lat="44.37639" lon="3.64432">
        <ele>1020</ele>
        <time>2017-02-27T23:45:38Z</time>
      </trkpt>
      <trkpt lat="44.37644" lon="3.64433">
        <ele>1020</ele>
        <time>2017-02-27T23:47:38Z</time>
      </trkpt>
      <trkpt lat="44.37648" lon="3.64434">
        <ele>1020</ele>
        <time>2017-02-27T23:49:38Z</time>
      </trkpt>
      <trkpt lat="44.37652" lon="3.64435">
        <ele>1020</ele>
        <time>2017-02-27T23:51:38Z</time>
      </trkpt>
      <trkpt lat="44.37656" lon="3.64437">
        <ele>1020</ele>
        <time>2017-02-27T23:53:38Z</time>
      </trkpt>
      <trkpt lat="44.3766" lon="3.64439">
        <ele>1020</ele>
        <time>2017-02-27T23:55:38Z</time>
      </trkpt>
      <trkpt lat="44.37663" lon="3.64442">
        <ele>1020</ele>
        <time>2017-02-27T23:57:38Z</time>
      </trkpt>
      <trkpt lat="44.37663" lon="3.64442">
        <ele>1020</ele>
        <time>2017-02-27T23:59:38Z</time>
      </trkpt>
      <trkpt lat="44.37669" lon="3.64447">
        <ele>1019</ele>
        <time>2017-02-28T00:01:38Z</time>
      </trkpt>
      <trkpt lat="44.37677" lon="3.64455">
        <ele>1019</ele>
        <time>2017-02-28T00:03:38Z</time>
      </trkpt>
      <trkpt lat="44.37688" lon="3.64466">
        <ele>1018</ele>
        <time>2017-02-28T00:05:38Z</time>
      </trkpt>
      <trkpt lat="44.377" lon="3.64475">
        <ele>1019</ele>
        <time>2017-02-28T00:07:38Z</time>
      </trkpt>
      <trkpt lat="44.37712" lon="3.64487">
        <ele>1020</ele>
        <time>2017-02-28T00:09:38Z</time>
      </trkpt>
      <trkpt lat="44.37726" lon="3.64495">
        <ele>1021</ele>
        <time>2017-02-28T00:11:38Z</time>
      </trkpt>
      <trkpt lat="44.37731" lon="3.64498">
        <ele>1022</ele>
        <time>2017-02-28T00:13:38Z</time>
      </trkpt>
      <trkpt lat="44.37737" lon="3.645">
        <ele>1022</ele>
        <time>2017-02-28T00:15:38Z</time>
      </trkpt>
      <trkpt lat="44.37743" lon="3.64501">
        <ele>1022</ele>
        <time>2017-02-28T00:17:38Z</time>
      </trkpt>
      <trkpt lat="44.37749" lon="3.64502">
        <ele>1023</ele>
        <time>2017-02-28T00:19:38Z</time>
      </trkpt>
      <trkpt lat="44.37755" lon="3.64504">
        <ele>1023</ele>
        <time>2017-02-28T00:21:38Z</time>
      </trkpt>
      <trkpt lat="44.37766" lon="3.64508">
        <ele>1024</ele>
        <time>2017-02-28T00:23:38Z</time>
      </trkpt>
      <trkpt lat="44.37778" lon="3.64513">
        <ele>1025</ele>
        <time>2017-02-28T00:25:38Z</time>
      </trkpt>
      <trkpt lat="44.37784" lon="3.64514">
        <ele>1025</ele>
        <time>2017-02-28T00:27:38Z</time>
      </trkpt>
      <trkpt lat="44.37789" lon="3.64515">
        <ele>1026</ele>
        <time>2017-02-28T00:29:38Z</time>
      </trkpt>
      <trkpt lat="44.37799" lon="3.64515">
        <ele>1027</ele>
        <time>2017-02-28T00:31:38Z</time>
      </trkpt>
      <trkpt lat="44.37813" lon="3.64512">
        <ele>1029</ele>
        <time>2017-02-28T00:33:38Z</time>
      </trkpt>
      <trkpt lat="44.37832" lon="3.64509">
        <ele>1032</ele>
        <time>2017-02-28T00:35:38Z</time>
      </trkpt>
      <trkpt lat="44.3785" lon="3.64506">
        <ele>1031</ele>
        <time>2017-02-28T00:37:38Z</time>
      </trkpt>
      <trkpt lat="44.37854" lon="3.64505">
        <ele>1030</ele>
        <time>2017-02-28T00:39:38Z</time>
      </trkpt>
      <trkpt lat="44.37858" lon="3.64506">
        <ele>1030</ele>
        <time>2017-02-28T00:41:38Z</time>
      </trkpt>
      <trkpt lat="44.37863" lon="3.64507">
        <ele>1030</ele>
        <time>2017-02-28T00:43:38Z</time>
      </trkpt>
      <trkpt lat="44.37867" lon="3.64508">
        <ele>1030</ele>
        <time>2017-02-28T00:45:38Z</time>
      </trkpt>
      <trkpt lat="44.37872" lon="3.6451">
        <ele>1030</ele>
        <time>2017-02-28T00:47:38Z</time>
      </trkpt>
      <trkpt lat="44.37875" lon="3.64513">
        <ele>1030</ele>
        <time>2017-02-28T00:49:38Z</time>
      </trkpt>
      <trkpt lat="44.37878" lon="3.64516">
        <ele>1030</ele>
        <time>2017-02-28T00:51:38Z</time>
      </trkpt>
      <trkpt lat="44.37881" lon="3.64519">
        <ele>1030</ele>
        <time>2017-02-28T00:53:38Z</time>
      </trkpt>
      <trkpt lat="44.37884" lon="3.64525">
        <ele>1031</ele>
        <time>2017-02-28T00:55:38Z</time>
      </trkpt>
      <trkpt lat="44.37893" lon="3.64545">
        <ele>1035</ele>
        <time>2017-02-28T00:57:38Z</time>
      </trkpt>
      <trkpt lat="44.37905" lon="3.64572">
        <ele>1041</ele>
        <time>2017-02-28T00:59:38Z</time>
      </trkpt>
      <trkpt lat="44.3791" lon="3.64586">
        <ele>1044</ele>
        <time>2017-02-28T01:01:38Z</time>
      </trkpt>
      <trkpt lat="44.37917" lon="3.64599">
        <ele>1044</ele>
        <time>2017-02-28T01:03:38Z</time>
      </trkpt>
      <trkpt lat="44.37928" lon="3.64616">
        <ele>1043</ele>
        <time>2017-02-28T01:05:38Z</time>
      </trkpt>
      <trkpt lat="44.37944" lon="3.64636">
        <ele>1043</ele>
        <time>2017-02-28T01:07:38Z</time>
      </trkpt>
      <trkpt lat="44.3795" lon="3.64644">
        <ele>1043</ele>
        <time>2017-02-28T01:09:38Z</time>
      </trkpt>
      <trkpt lat="44.37958" lon="3.64653">
        <ele>1044</ele>
        <time>2017-02-28T01:11:38Z</time>
      </trkpt>
      <trkpt lat="44.37972" lon="3.64671">
        <ele>1046</ele>
        <time>2017-02-28T01:13:38Z</time>
      </trkpt>
      <trkpt lat="44.37986" lon="3.6469">
        <ele>1048</ele>
        <time>2017-02-28T01:15:38Z</time>
      </trkpt>
      <trkpt lat="44.38" lon="3.64704">
        <ele>1050</ele>
        <time>2017-02-28T01:17:38Z</time>
      </trkpt>
      <trkpt lat="44.38029" lon="3.64727">
        <ele>1055</ele>
        <time>2017-02-28T01:19:38Z</time>
      </trkpt>
      <trkpt lat="44.38043" lon="3.64742">
        <ele>1058</ele>
        <time>2017-02-28T01:21:38Z</time>
      </trkpt>
      <trkpt lat="44.3805" lon="3.64746">
        <ele>1059</ele>
        <time>2017-02-28T01:23:38Z</time>
      </trkpt>
      <trkpt lat="44.38053" lon="3.64747">
        <ele>1060</ele>
        <time>2017-02-28T01:25:38Z</time>
      </trkpt>
      <trkpt lat="44.38069" lon="3.64751">
        <ele>1063</ele>
        <time>2017-02-28T01:27:38Z</time>
      </trkpt>
      <trkpt lat="44.38098" lon="3.64755">
        <ele>1065</ele>
        <time>2017-02-28T01:29:38Z</time>
      </trkpt>
      <trkpt lat="44.38117" lon="3.64759">
        <ele>1065</ele>
        <time>2017-02-28T01:31:38Z</time>
      </trkpt>
      <trkpt lat="44.3813" lon="3.64763">
        <ele>1065</ele>
        <time>2017-02-28T01:33:38Z</time>
      </trkpt>
      <trkpt lat="44.38146" lon="3.64768">
        <ele>1066</ele>
        <time>2017-02-28T01:35:38Z</time>
      </trkpt>
      <trkpt lat="44.3817" lon="3.64775">
        <ele>1067</ele>
        <time>2017-02-28T01:37:38Z</time>
      </trkpt>
      <trkpt lat="44.38182" lon="3.64781">
        <ele>1066</ele>
        <time>2017-02-28T01:39:38Z</time>
      </trkpt>
      <trkpt lat="44.38197" lon="3.6479">
        <ele>1066</ele>
        <time>2017-02-28T01:41:38Z</time>
      </trkpt>
      <trkpt lat="44.38211" lon="3.64801">
        <ele>1067</ele>
        <time>2017-02-28T01:43:38Z</time>
      </trkpt>
      <trkpt lat="44.38223" lon="3.64809">
        <ele>1068</ele>
        <time>2017-02-28T01:45:38Z</time>
      </trkpt>
      <trkpt lat="44.38226" lon="3.64812">
        <ele>1068</ele>
        <time>2017-02-28T01:47:38Z</time>
      </trkpt>
      <trkpt lat="44.38228" lon="3.64813">
        <ele>1068</ele>
        <time>2017-02-28T01:49:38Z</time>
      </trkpt>
      <trkpt lat="44.3823" lon="3.64816">
        <ele>1069</ele>
        <time>2017-02-28T01:51:38Z</time>
      </trkpt>
      <trkpt lat="44.38235" lon="3.64827">
        <ele>1071</ele>
        <time>2017-02-28T01:53:38Z</time>
      </trkpt>
      <trkpt lat="44.38247" lon="3.64848">
        <ele>1073</ele>
        <time>2017-02-28T01:55:38Z</time>
      </trkpt>
      <trkpt lat="44.38254" lon="3.64862">
        <ele>1074</ele>
        <time>2017-02-28T01:57:38Z</time>
      </trkpt>
      <trkpt lat="44.38263" lon="3.64882">
        <ele>1075</ele>
        <time>2017-02-28T01:59:38Z</time>
      </trkpt>
      <trkpt lat="44.3827" lon="3.64894">
        <ele>1076</ele>
        <time>2017-02-28T02:01:38Z</time>
      </trkpt>
      <trkpt lat="44.38273" lon="3.64897">
        <ele>1076</ele>
        <time>2017-02-28T02:03:38Z</time>
      </trkpt>
      <trkpt lat="44.38287" lon="3.64906">
        <ele>1078</ele>
        <time>2017-02-28T02:05:38Z</time>
      </trkpt>
      <trkpt lat="44.38313" lon="3.64922">
        <ele>1082</ele>
        <time>2017-02-28T02:07:38Z</time>
      </trkpt>
      <trkpt lat="44.38339" lon="3.6494">
        <ele>1087</ele>
        <time>2017-02-28T02:09:38Z</time>
      </trkpt>
      <trkpt lat="44.3837" lon="3.64964">
        <ele>1092</ele>
        <time>2017-02-28T02:11:38Z</time>
      </trkpt>
      <trkpt lat="44.38404" lon="3.64988">
        <ele>1102</ele>
        <time>2017-02-28T02:13:38Z</time>
      </trkpt>
      <trkpt lat="44.38434" lon="3.65005">
        <ele>1109</ele>
        <time>2017-02-28T02:15:38Z</time>
      </trkpt>
      <trkpt lat="44.38464" lon="3.65024">
        <ele>1114</ele>
        <time>2017-02-28T02:17:38Z</time>
      </trkpt>
      <trkpt lat="44.385" lon="3.6505">
        <ele>1123</ele>
        <time>2017-02-28T02:19:38Z</time>
      </trkpt>
      <trkpt lat="44.38532" lon="3.65072">
        <ele>1129</ele>
        <time>2017-02-28T02:21:38Z</time>
      </trkpt>
      <trkpt lat="44.38558" lon="3.65089">
        <ele>1134</ele>
        <time>2017-02-28T02:23:38Z</time>
      </trkpt>
      <trkpt lat="44.38593" lon="3.65106">
        <ele>1138</ele>
        <time>2017-02-28T02:25:38Z</time>
      </trkpt>
      <trkpt lat="44.38627" lon="3.6512">
        <ele>1144</ele>
        <time>2017-02-28T02:27:38Z</time>
      </trkpt>
      <trkpt lat="44.38665" lon="3.65137">
        <ele>1152</ele>
        <time>2017-02-28T02:29:38Z</time>
      </trkpt>
      <trkpt lat="44.38694" lon="3.65147">
        <ele>1157</ele>
        <time>2017-02-28T02:31:38Z</time>
      </trkpt>
      <trkpt lat="44.38728" lon="3.65156">
        <ele>1161</ele>
        <time>2017-02-28T02:33:38Z</time>
      </trkpt>
      <trkpt lat="44.38763" lon="3.65164">
        <ele>1166</ele>
        <time>2017-02-28T02:35:38Z</time>
      </trkpt>
      <trkpt lat="44.38787" lon="3.65168">
        <ele>1170</ele>
        <time>2017-02-28T02:37:38Z</time>
      </trkpt>
      <trkpt lat="44.38804" lon="3.65168">
        <ele>1172</ele>
        <time>2017-02-28T02:39:38Z</time>
      </trkpt>
      <trkpt lat="44.38819" lon="3.65167">
        <ele>1173</ele>
        <time>2017-02-28T02:41:38Z</time>
      </trkpt>
      <trkpt lat="44.38829" lon="3.65166">
        <ele>1174</ele>
        <time>2017-02-28T02:43:38Z</time>
      </trkpt>
      <trkpt lat="44.38852" lon="3.65164">
        <ele>1177</ele>
        <time>2017-02-28T02:45:38Z</time>
      </trkpt>
      <trkpt lat="44.38881" lon="3.65158">
        <ele>1180</ele>
        <time>2017-02-28T02:47:38Z</time>
      </trkpt>
      <trkpt lat="44.38906" lon="3.65151">
        <ele>1182</ele>
        <time>2017-02-28T02:49:38Z</time>
      </trkpt>
      <trkpt lat="44.38941" lon="3.65138">
        <ele>1185</ele>
        <time>2017-02-28T02:51:38Z</time>
      </trkpt>
      <trkpt lat="44.38974" lon="3.65127">
        <ele>1189</ele>
        <time>2017-02-28T02:53:38Z</time>
      </trkpt>
      <trkpt lat="44.38996" lon="3.65121">
        <ele>1192</ele>
        <time>2017-02-28T02:55:38Z</time>
      </trkpt>
      <trkpt lat="44.39002" lon="3.6512">
        <ele>1193</ele>
        <time>2017-02-28T02:57:38Z</time>
      </trkpt>
      <trkpt lat="44.39018" lon="3.65115">
        <ele>1194</ele>
        <time>2017-02-28T02:59:38Z</time>
      </trkpt>
      <trkpt lat="44.3903" lon="3.65112">
        <ele>1195</ele>
        <time>2017-02-28T03:01:38Z</time>
      </trkpt>
      <trkpt lat="44.39039" lon="3.65108">
        <ele>1195</ele>
        <time>2017-02-28T03:03:38Z</time>
      </trkpt>
      <trkpt lat="44.3905" lon="3.65101">
        <ele>1196</ele>
        <time>2017-02-28T03:05:38Z</time>
      </trkpt>
      <trkpt lat="44.39061" lon="3.65092">
        <ele>1197</ele>
        <time>2017-02-28T03:07:38Z</time>
      </trkpt>
      <trkpt lat="44.39071" lon="3.65086">
        <ele>1199</ele>
        <time>2017-02-28T03:09:38Z</time>
      </trkpt>
      <trkpt lat="44.39091" lon="3.65077">
        <ele>1200</ele>
        <time>2017-02-28T03:11:38Z</time>
      </trkpt>
      <trkpt lat="44.39119" lon="3.65068">
        <ele>1200</ele>
        <time>2017-02-28T03:13:38Z</time>
      </trkpt>
      <trkpt lat="44.39123" lon="3.65066">
        <ele>1200</ele>
        <time>2017-02-28T03:15:38Z</time>
      </trkpt>
      <trkpt lat="44.39126" lon="3.65064">
        <ele>1200</ele>
        <time>2017-02-28T03:17:38Z</time>
      </trkpt>
      <trkpt lat="44.3913" lon="3.6506">
        <ele>1200</ele>
        <time>2017-02-28T03:19:38Z</time>
      </trkpt>
      <trkpt lat="44.39146" lon="3.65043">
        <ele>1201</ele>
        <time>2017-02-28T03:21:38Z</time>
      </trkpt>
      <trkpt lat="44.39166" lon="3.65025">
        <ele>1202</ele>
        <time>2017-02-28T03:23:38Z</time>
      </trkpt>
      <trkpt lat="44.39193" lon="3.65003">
        <ele>1203</ele>
        <time>2017-02-28T03:25:38Z</time>
      </trkpt>
      <trkpt lat="44.39207" lon="3.64986">
        <ele>1203</ele>
        <time>2017-02-28T03:27:38Z</time>
      </trkpt>
      <trkpt lat="44.39219" lon="3.64973">
        <ele>1204</ele>
        <time>2017-02-28T03:29:38Z</time>
      </trkpt>
      <trkpt lat="44.39235" lon="3.64957">
        <ele>1204</ele>
        <time>2017-02-28T03:31:38Z</time>
      </trkpt>
      <trkpt lat="44.39243" lon="3.6495">
        <ele>1205</ele>
        <time>2017-02-28T03:33:38Z</time>
      </trkpt>
      <trkpt lat="44.39257" lon="3.64939">
        <ele>1204</ele>
        <time>2017-02-28T03:35:38Z</time>
      </trkpt>
      <trkpt lat="44.39274" lon="3.64926">
        <ele>1203</ele>
        <time>2017-02-28T03:37:38Z</time>
      </trkpt>
      <trkpt lat="44.393" lon="3.64907">
        <ele>1201</ele>
        <time>2017-02-28T03:39:38Z</time>
      </trkpt>
      <trkpt lat="44.39333" lon="3.64879">
        <ele>1199</ele>
        <time>2017-02-28T03:41:38Z</time>
      </trkpt>
      <trkpt lat="44.39353" lon="3.64865">
        <ele>1197</ele>
        <time>2017-02-28T03:43:38Z</time>
      </trkpt>
      <trkpt lat="44.3937" lon="3.64853">
        <ele>1196</ele>
        <time>2017-02-28T03:45:38Z</time>
      </trkpt>
      <trkpt lat="44.39378" lon="3.64849">
        <ele>1196</ele>
        <time>2017-02-28T03:47:38Z</time>
      </trkpt>
      <trkpt lat="44.39385" lon="3.64846">
        <ele>1195</ele>
        <time>2017-02-28T03:49:38Z</time>
      </trkpt>
      <trkpt lat="44.39389" lon="3.64845">
        <ele>1195</ele>
        <time>2017-02-28T03:51:38Z</time>
      </trkpt>
      <trkpt lat="44.39415" lon="3.64835">
        <ele>1195</ele>
        <time>2017-02-28T03:53:38Z</time>
      </trkpt>
      <trkpt lat="44.39436" lon="3.6483">
        <ele>1192</ele>
        <time>2017-02-28T03:55:38Z</time>
      </trkpt>
      <trkpt lat="44.39477" lon="3.64821">
        <ele>1187</ele>
        <time>2017-02-28T03:57:38Z</time>
      </trkpt>
      <trkpt lat="44.39523" lon="3.64811">
        <ele>1185</ele>
        <time>2017-02-28T03:59:38Z</time>
      </trkpt>
      <trkpt lat="44.39551" lon="3.64804">
        <ele>1185</ele>
        <time>2017-02-28T04:01:38Z</time>
      </trkpt>
      <trkpt lat="44.39561" lon="3.64801">
        <ele>1184</ele>
        <time>2017-02-28T04:03:38Z</time>
      </trkpt>
      <trkpt lat="44.39574" lon="3.64796">
        <ele>1184</ele>
        <time>2017-02-28T04:05:38Z</time>
      </trkpt>
      <trkpt lat="44.39585" lon="3.64793">
        <ele>1184</ele>
        <time>2017-02-28T04:07:38Z</time>
      </trkpt>
      <trkpt lat="44.39597" lon="3.64792">
        <ele>1184</ele>
        <time>2017-02-28T04:09:38Z</time>
      </trkpt>
      <trkpt lat="44.39608" lon="3.64792">
        <ele>1184</ele>
        <time>2017-02-28T04:11:38Z</time>
      </trkpt>
      <trkpt lat="44.39638" lon="3.64793">
        <ele>1183</ele>
        <time>2017-02-28T04:13:38Z</time>
      </trkpt>
      <trkpt lat="44.39645" lon="3.64794">
        <ele>1183</ele>
        <time>2017-02-28T04:15:38Z</time>
      </trkpt>
      <trkpt lat="44.39654" lon="3.64794">
        <ele>1183</ele>
        <time>2017-02-28T04:17:38Z</time>
      </trkpt>
      <trkpt lat="44.39662" lon="3.64795">
        <ele>1183</ele>
        <time>2017-02-28T04:19:38Z</time>
      </trkpt>
      <trkpt lat="44.39678" lon="3.64794">
        <ele>1183</ele>
        <time>2017-02-28T04:21:38Z</time>
      </trkpt>
      <trkpt lat="44.39705" lon="3.6479">
        <ele>1185</ele>
        <time>2017-02-28T04:23:38Z</time>
      </trkpt>
      <trkpt lat="44.39734" lon="3.64785">
        <ele>1187</ele>
        <time>2017-02-28T04:25:38Z</time>
      </trkpt>
      <trkpt lat="44.39756" lon="3.64779">
        <ele>1188</ele>
        <time>2017-02-28T04:27:38Z</time>
      </trkpt>
      <trkpt lat="44.39759" lon="3.64778">
        <ele>1188</ele>
        <time>2017-02-28T04:29:38Z</time>
      </trkpt>
      <trkpt lat="44.39762" lon="3.64777">
        <ele>1188</ele>
        <time>2017-02-28T04:31:38Z</time>
      </trkpt>
      <trkpt lat="44.39771" lon="3.64771">
        <ele>1189</ele>
        <time>2017-02-28T04:33:38Z</time>
      </trkpt>
      <trkpt lat="44.39784" lon="3.64762">
        <ele>1189</ele>
        <time>2017-02-28T04:35:38Z</time>
      </trkpt>
      <trkpt lat="44.39794" lon="3.64753">
        <ele>1190</ele>
        <time>2017-02-28T04:37:38Z</time>
      </trkpt>
      <trkpt lat="44.39797" lon="3.64752">
        <ele>1190</ele>
        <time>2017-02-28T04:39:38Z</time>
      </trkpt>
      <trkpt lat="44.39801" lon="3.6475">
        <ele>1190</ele>
        <time>2017-02-28T04:41:38Z</time>
      </trkpt>
      <trkpt lat="44.39811" lon="3.64745">
        <ele>1190</ele>
        <time>2017-02-28T04:43:38Z</time>
      </trkpt>
      <trkpt lat="44.39813" lon="3.64744">
        <ele>1190</ele>
        <time>2017-02-28T04:45:38Z</time>
      </trkpt>
      <trkpt lat="44.39818" lon="3.64739">
        <ele>1189</ele>
        <time>2017-02-28T04:47:38Z</time>
      </trkpt>
      <trkpt lat="44.39818" lon="3.64739">
        <ele>1189</ele>
        <time>2017-02-28T04:49:38Z</time>
      </trkpt>
      <trkpt lat="44.39821" lon="3.64735">
        <ele>1188</ele>
        <time>2017-02-28T04:51:38Z</time>
      </trkpt>
      <trkpt lat="44.39827" lon="3.6472">
        <ele>1186</ele>
        <time>2017-02-28T04:53:38Z</time>
      </trkpt>
      <trkpt lat="44.39831" lon="3.64712">
        <ele>1184</ele>
        <time>2017-02-28T04:55:38Z</time>
      </trkpt>
      <trkpt lat="44.39838" lon="3.64703">
        <ele>1182</ele>
        <time>2017-02-28T04:57:38Z</time>
      </trkpt>
      <trkpt lat="44.39839" lon="3.64702">
        <ele>1182</ele>
        <time>2017-02-28T04:59:38Z</time>
      </trkpt>
      <trkpt lat="44.39849" lon="3.6469">
        <ele>1180</ele>
        <time>2017-02-28T05:01:38Z</time>
      </trkpt>
      <trkpt lat="44.39849" lon="3.64689">
        <ele>1180</ele>
        <time>2017-02-28T05:03:38Z</time>
      </trkpt>
      <trkpt lat="44.3985" lon="3.64688">
        <ele>1180</ele>
        <time>2017-02-28T05:05:38Z</time>
      </trkpt>
      <trkpt lat="44.3985" lon="3.64687">
        <ele>1180</ele>
        <time>2017-02-28T05:07:38Z</time>
      </trkpt>
      <trkpt lat="44.39866" lon="3.64672">
        <ele>1178</ele>
        <time>2017-02-28T05:09:38Z</time>
      </trkpt>
      <trkpt lat="44.39882" lon="3.64656">
        <ele>1175</ele>
        <time>2017-02-28T05:11:38Z</time>
      </trkpt>
      <trkpt lat="44.39884" lon="3.64655">
        <ele>1175</ele>
        <time>2017-02-28T05:13:38Z</time>
      </trkpt>
      <trkpt lat="44.39885" lon="3.64654">
        <ele>1175</ele>
        <time>2017-02-28T05:15:38Z</time>
      </trkpt>
      <trkpt lat="44.39903" lon="3.64642">
        <ele>1173</ele>
        <time>2017-02-28T05:17:38Z</time>
      </trkpt>
      <trkpt lat="44.39928" lon="3.64628">
        <ele>1172</ele>
        <time>2017-02-28T05:19:38Z</time>
      </trkpt>
      <trkpt lat="44.39946" lon="3.64619">
        <ele>1171</ele>
        <time>2017-02-28T05:21:38Z</time>
      </trkpt>
      <trkpt lat="44.39949" lon="3.64618">
        <ele>1171</ele>
        <time>2017-02-28T05:23:38Z</time>
      </trkpt>
      <trkpt lat="44.39954" lon="3.64617">
        <ele>1172</ele>
        <time>2017-02-28T05:25:38Z</time>
      </trkpt>
      <trkpt lat="44.39957" lon="3.64617">
        <ele>1172</ele>
        <time>2017-02-28T05:27:38Z</time>
      </trkpt>
      <trkpt lat="44.3996" lon="3.64617">
        <ele>1172</ele>
        <time>2017-02-28T05:29:38Z</time>
      </trkpt>
      <trkpt lat="44.39963" lon="3.64617">
        <ele>1172</ele>
        <time>2017-02-28T05:31:38Z</time>
      </trkpt>
      <trkpt lat="44.39968" lon="3.64618">
        <ele>1173</ele>
        <time>2017-02-28T05:33:38Z</time>
      </trkpt>
      <trkpt lat="44.39976" lon="3.64619">
        <ele>1174</ele>
        <time>2017-02-28T05:35:38Z</time>
      </trkpt>
      <trkpt lat="44.40011" lon="3.64617">
        <ele>1176</ele>
        <time>2017-02-28T05:37:38Z</time>
      </trkpt>
      <trkpt lat="44.40068" lon="3.64616">
        <ele>1177</ele>
        <time>2017-02-28T05:39:38Z</time>
      </trkpt>
      <trkpt lat="44.40098" lon="3.64616">
        <ele>1177</ele>
        <time>2017-02-28T05:41:38Z</time>
      </trkpt>
      <trkpt lat="44.401" lon="3.64616">
        <ele>1176</ele>
        <time>2017-02-28T05:43:38Z</time>
      </trkpt>
      <trkpt lat="44.40104" lon="3.64616">
        <ele>1176</ele>
        <time>2017-02-28T05:45:38Z</time>
      </trkpt>
      <trkpt lat="44.40107" lon="3.64615">
        <ele>1176</ele>
        <time>2017-02-28T05:47:38Z</time>
      </trkpt>
      <trkpt lat="44.40129" lon="3.64605">
        <ele>1175</ele>
        <time>2017-02-28T05:49:38Z</time>
      </trkpt>
      <trkpt lat="44.40131" lon="3.64604">
        <ele>1175</ele>
        <time>2017-02-28T05:51:38Z</time>
      </trkpt>
      <trkpt lat="44.40148" lon="3.64598">
        <ele>1174</ele>
        <time>2017-02-28T05:53:38Z</time>
      </trkpt>
      <trkpt lat="44.4015" lon="3.64597">
        <ele>1174</ele>
        <time>2017-02-28T05:55:38Z</time>
      </trkpt>
      <trkpt lat="44.40152" lon="3.64597">
        <ele>1174</ele>
        <time>2017-02-28T05:57:38Z</time>
      </trkpt>
      <trkpt lat="44.40155" lon="3.64596">
        <ele>1174</ele>
        <time>2017-02-28T05:59:38Z</time>
      </trkpt>
      <trkpt lat="44.40161" lon="3.64596">
        <ele>1173</ele>
        <time>2017-02-28T06:01:38Z</time>
      </trkpt>
      <trkpt lat="44.40175" lon="3.64597">
        <ele>1173</ele>
        <time>2017-02-28T06:03:38Z</time>
      </trkpt>
      <trkpt lat="44.40187" lon="3.64599">
        <ele>1173</ele>
        <time>2017-02-28T06:05:38Z</time>
      </trkpt>
      <trkpt lat="44.40195" lon="3.64602">
        <ele>1173</ele>
        <time>2017-02-28T06:07:38Z</time>
      </trkpt>
      <trkpt lat="44.40198" lon="3.64604">
        <ele>1173</ele>
        <time>2017-02-28T06:09:38Z</time>
      </trkpt>
      <trkpt lat="44.40208" lon="3.6461">
        <ele>1173</ele>
        <time>2017-02-28T06:11:38Z</time>
      </trkpt>
      <trkpt lat="44.4021" lon="3.64611">
        <ele>1173</ele>
        <time>2017-02-28T06:13:38Z</time>
      </trkpt>
      <trkpt lat="44.40212" lon="3.64612">
        <ele>1173</ele>
        <time>2017-02-28T06:15:38Z</time>
      </trkpt>
      <trkpt lat="44.40224" lon="3.64616">
        <ele>1173</ele>
        <time>2017-02-28T06:17:38Z</time>
      </trkpt>
      <trkpt lat="44.40228" lon="3.64617">
        <ele>1173</ele>
        <time>2017-02-28T06:19:38Z</time>
      </trkpt>
      <trkpt lat="44.40231" lon="3.64617">
        <ele>1173</ele>
        <time>2017-02-28T06:21:38Z</time>
      </trkpt>
      <trkpt lat="44.40238" lon="3.64617">
        <ele>1173</ele>
        <time>2017-02-28T06:23:38Z</time>
      </trkpt>
      <trkpt lat="44.4024" lon="3.64616">
        <ele>1173</ele>
        <time>2017-02-28T06:25:38Z</time>
      </trkpt>
      <trkpt lat="44.40242" lon="3.64615">
        <ele>1173</ele>
        <time>2017-02-28T06:27:38Z</time>
      </trkpt>
      <trkpt lat="44.40248" lon="3.6461">
        <ele>1173</ele>
        <time>2017-02-28T06:29:38Z</time>
      </trkpt>
      <trkpt lat="44.40256" lon="3.64603">
        <ele>1173</ele>
        <time>2017-02-28T06:31:38Z</time>
      </trkpt>
      <trkpt lat="44.40266" lon="3.646">
        <ele>1174</ele>
        <time>2017-02-28T06:33:38Z</time>
      </trkpt>
      <trkpt lat="44.4027" lon="3.64598">
        <ele>1174</ele>
        <time>2017-02-28T06:35:38Z</time>
      </trkpt>
      <trkpt lat="44.4028" lon="3.64598">
        <ele>1175</ele>
        <time>2017-02-28T06:37:38Z</time>
      </trkpt>
      <trkpt lat="44.40288" lon="3.64598">
        <ele>1176</ele>
        <time>2017-02-28T06:39:38Z</time>
      </trkpt>
      <trkpt lat="44.40295" lon="3.64599">
        <ele>1177</ele>
        <time>2017-02-28T06:41:38Z</time>
      </trkpt>
      <trkpt lat="44.40298" lon="3.646">
        <ele>1177</ele>
        <time>2017-02-28T06:43:38Z</time>
      </trkpt>
      <trkpt lat="44.40302" lon="3.64601">
        <ele>1178</ele>
        <time>2017-02-28T06:45:38Z</time>
      </trkpt>
      <trkpt lat="44.40304" lon="3.64602">
        <ele>1178</ele>
        <time>2017-02-28T06:47:38Z</time>
      </trkpt>
      <trkpt lat="44.40316" lon="3.6461">
        <ele>1179</ele>
        <time>2017-02-28T06:49:38Z</time>
      </trkpt>
      <trkpt lat="44.40317" lon="3.6461">
        <ele>1179</ele>
        <time>2017-02-28T06:51:38Z</time>
      </trkpt>
      <trkpt lat="44.40332" lon="3.64618">
        <ele>1181</ele>
        <time>2017-02-28T06:53:38Z</time>
      </trkpt>
      <trkpt lat="44.40334" lon="3.64618">
        <ele>1181</ele>
        <time>2017-02-28T06:55:38Z</time>
      </trkpt>
      <trkpt lat="44.40348" lon="3.64623">
        <ele>1184</ele>
        <time>2017-02-28T06:57:38Z</time>
      </trkpt>
      <trkpt lat="44.40367" lon="3.64627">
        <ele>1188</ele>
        <time>2017-02-28T06:59:38Z</time>
      </trkpt>
      <trkpt lat="44.40385" lon="3.64631">
        <ele>1192</ele>
        <time>2017-02-28T07:01:38Z</time>
      </trkpt>
      <trkpt lat="44.40387" lon="3.64631">
        <ele>1192</ele>
        <time>2017-02-28T07:03:38Z</time>
      </trkpt>
      <trkpt lat="44.40407" lon="3.64639">
        <ele>1196</ele>
        <time>2017-02-28T07:05:38Z</time>
      </trkpt>
      <trkpt lat="44.40444" lon="3.64654">
        <ele>1201</ele>
        <time>2017-02-28T07:07:38Z</time>
      </trkpt>
      <trkpt lat="44.40469" lon="3.64663">
        <ele>1204</ele>
        <time>2017-02-28T07:09:38Z</time>
      </trkpt>
      <trkpt lat="44.40495" lon="3.64675">
        <ele>1207</ele>
        <time>2017-02-28T07:11:38Z</time>
      </trkpt>
      <trkpt lat="44.40501" lon="3.64677">
        <ele>1207</ele>
        <time>2017-02-28T07:13:38Z</time>
      </trkpt>
      <trkpt lat="44.40519" lon="3.64685">
        <ele>1207</ele>
        <time>2017-02-28T07:15:38Z</time>
      </trkpt>
      <trkpt lat="44.40564" lon="3.64697">
        <ele>1207</ele>
        <time>2017-02-28T07:17:38Z</time>
      </trkpt>
      <trkpt lat="44.406" lon="3.64707">
        <ele>1210</ele>
        <time>2017-02-28T07:19:38Z</time>
      </trkpt>
      <trkpt lat="44.40621" lon="3.64713">
        <ele>1211</ele>
        <time>2017-02-28T07:21:38Z</time>
      </trkpt>
      <trkpt lat="44.40639" lon="3.6472">
        <ele>1213</ele>
        <time>2017-02-28T07:23:38Z</time>
      </trkpt>
      <trkpt lat="44.40653" lon="3.64727">
        <ele>1215</ele>
        <time>2017-02-28T07:25:38Z</time>
      </trkpt>
      <trkpt lat="44.40693" lon="3.6475">
        <ele>1219</ele>
        <time>2017-02-28T07:27:38Z</time>
      </trkpt>
      <trkpt lat="44.40727" lon="3.64767">
        <ele>1220</ele>
        <time>2017-02-28T07:29:38Z</time>
      </trkpt>
      <trkpt lat="44.40729" lon="3.64768">
        <ele>1221</ele>
        <time>2017-02-28T07:31:38Z</time>
      </trkpt>
      <trkpt lat="44.40731" lon="3.6477">
        <ele>1221</ele>
        <time>2017-02-28T07:33:38Z</time>
      </trkpt>
      <trkpt lat="44.4074" lon="3.64778">
        <ele>1222</ele>
        <time>2017-02-28T07:35:38Z</time>
      </trkpt>
      <trkpt lat="44.40749" lon="3.64785">
        <ele>1222</ele>
        <time>2017-02-28T07:37:38Z</time>
      </trkpt>
      <trkpt lat="44.40753" lon="3.64785">
        <ele>1223</ele>
        <time>2017-02-28T07:39:38Z</time>
      </trkpt>
      <trkpt lat="44.40758" lon="3.64784">
        <ele>1223</ele>
        <time>2017-02-28T07:41:38Z</time>
      </trkpt>
      <trkpt lat="44.40777" lon="3.64781">
        <ele>1224</ele>
        <time>2017-02-28T07:43:38Z</time>
      </trkpt>
      <trkpt lat="44.40783" lon="3.6478">
        <ele>1225</ele>
        <time>2017-02-28T07:45:38Z</time>
      </trkpt>
      <trkpt lat="44.40793" lon="3.64781">
        <ele>1226</ele>
        <time>2017-02-28T07:47:38Z</time>
      </trkpt>
      <trkpt lat="44.40812" lon="3.64785">
        <ele>1228</ele>
        <time>2017-02-28T07:49:38Z</time>
      </trkpt>
      <trkpt lat="44.40823" lon="3.64787">
        <ele>1229</ele>
        <time>2017-02-28T07:51:38Z</time>
      </trkpt>
      <trkpt lat="44.4083" lon="3.64787">
        <ele>1230</ele>
        <time>2017-02-28T07:53:38Z</time>
      </trkpt>
      <trkpt lat="44.40843" lon="3.64787">
        <ele>1232</ele>
        <time>2017-02-28T07:55:38Z</time>
      </trkpt>
      <trkpt lat="44.40852" lon="3.64786">
        <ele>1233</ele>
        <time>2017-02-28T07:57:38Z</time>
      </trkpt>
      <trkpt lat="44.4086" lon="3.64785">
        <ele>1234</ele>
        <time>2017-02-28T07:59:38Z</time>
      </trkpt>
      <trkpt lat="44.40862" lon="3.64785">
        <ele>1234</ele>
        <time>2017-02-28T08:01:38Z</time>
      </trkpt>
      <trkpt lat="44.40873" lon="3.64781">
        <ele>1235</ele>
        <time>2017-02-28T08:03:38Z</time>
      </trkpt>
      <trkpt lat="44.40895" lon="3.64774">
        <ele>1236</ele>
        <time>2017-02-28T08:05:38Z</time>
      </trkpt>
      <trkpt lat="44.40904" lon="3.64771">
        <ele>1237</ele>
        <time>2017-02-28T08:07:38Z</time>
      </trkpt>
      <trkpt lat="44.40906" lon="3.6477">
        <ele>1237</ele>
        <time>2017-02-28T08:09:38Z</time>
      </trkpt>
      <trkpt lat="44.40913" lon="3.64768">
        <ele>1237</ele>
        <time>2017-02-28T08:11:38Z</time>
      </trkpt>
      <trkpt lat="44.40916" lon="3.64768">
        <ele>1238</ele>
        <time>2017-02-28T08:13:38Z</time>
      </trkpt>
      <trkpt lat="44.40918" lon="3.64769">
        <ele>1238</ele>
        <time>2017-02-28T08:15:38Z</time>
      </trkpt>
      <trkpt lat="44.40919" lon="3.64771">
        <ele>1239</ele>
        <time>2017-02-28T08:17:38Z</time>
      </trkpt>
      <trkpt lat="44.4092" lon="3.64773">
        <ele>1240</ele>
        <time>2017-02-28T08:19:38Z</time>
      </trkpt>
      <trkpt lat="44.40919" lon="3.64774">
        <ele>1240</ele>
        <time>2017-02-28T08:21:38Z</time>
      </trkpt>
      <trkpt lat="44.40918" lon="3.64776">
        <ele>1240</ele>
        <time>2017-02-28T08:23:38Z</time>
      </trkpt>
      <trkpt lat="44.40916" lon="3.64778">
        <ele>1240</ele>
        <time>2017-02-28T08:25:38Z</time>
      </trkpt>
      <trkpt lat="44.40909" lon="3.64784">
        <ele>1240</ele>
        <time>2017-02-28T08:27:38Z</time>
      </trkpt>
      <trkpt lat="44.40897" lon="3.64795">
        <ele>1241</ele>
        <time>2017-02-28T08:29:38Z</time>
      </trkpt>
      <trkpt lat="44.40883" lon="3.64809">
        <ele>1242</ele>
        <time>2017-02-28T08:31:38Z</time>
      </trkpt>
      <trkpt lat="44.40869" lon="3.64822">
        <ele>1242</ele>
        <time>2017-02-28T08:33:38Z</time>
      </trkpt>
      <trkpt lat="44.40866" lon="3.64826">
        <ele>1242</ele>
        <time>2017-02-28T08:35:38Z</time>
      </trkpt>
      <trkpt lat="44.40863" lon="3.64829">
        <ele>1242</ele>
        <time>2017-02-28T08:37:38Z</time>
      </trkpt>
      <trkpt lat="44.40859" lon="3.64836">
        <ele>1243</ele>
        <time>2017-02-28T08:39:38Z</time>
      </trkpt>
      <trkpt lat="44.40855" lon="3.64844">
        <ele>1243</ele>
        <time>2017-02-28T08:41:38Z</time>
      </trkpt>
      <trkpt lat="44.40846" lon="3.64869">
        <ele>1246</ele>
        <time>2017-02-28T08:43:38Z</time>
      </trkpt>
      <trkpt lat="44.40842" lon="3.64877">
        <ele>1246</ele>
        <time>2017-02-28T08:45:38Z</time>
      </trkpt>
      <trkpt lat="44.40842" lon="3.64879">
        <ele>1247</ele>
        <time>2017-02-28T08:47:38Z</time>
      </trkpt>
      <trkpt lat="44.40834" lon="3.64895">
        <ele>1248</ele>
        <time>2017-02-28T08:49:38Z</time>
      </trkpt>
      <trkpt lat="44.40826" lon="3.64915">
        <ele>1249</ele>
        <time>2017-02-28T08:51:38Z</time>
      </trkpt>
      <trkpt lat="44.40821" lon="3.64928">
        <ele>1250</ele>
        <time>2017-02-28T08:53:38Z</time>
      </trkpt>
      <trkpt lat="44.40819" lon="3.64932">
        <ele>1251</ele>
        <time>2017-02-28T08:55:38Z</time>
      </trkpt>
      <trkpt lat="44.4081" lon="3.64946">
        <ele>1251</ele>
        <time>2017-02-28T08:57:38Z</time>
      </trkpt>
      <trkpt lat="44.40805" lon="3.64955">
        <ele>1251</ele>
        <time>2017-02-28T08:59:38Z</time>
      </trkpt>
      <trkpt lat="44.40802" lon="3.64959">
        <ele>1251</ele>
        <time>2017-02-28T09:01:38Z</time>
      </trkpt>
      <trkpt lat="44.40799" lon="3.64969">
        <ele>1252</ele>
        <time>2017-02-28T09:03:38Z</time>
      </trkpt>
      <trkpt lat="44.40796" lon="3.64974">
        <ele>1252</ele>
        <time>2017-02-28T09:05:38Z</time>
      </trkpt>
      <trkpt lat="44.40789" lon="3.64983">
        <ele>1252</ele>
        <time>2017-02-28T09:07:38Z</time>
      </trkpt>
      <trkpt lat="44.40784" lon="3.64989">
        <ele>1252</ele>
        <time>2017-02-28T09:09:38Z</time>
      </trkpt>
      <trkpt lat="44.4078" lon="3.64995">
        <ele>1252</ele>
        <time>2017-02-28T09:11:38Z</time>
      </trkpt>
      <trkpt lat="44.40775" lon="3.65006">
        <ele>1253</ele>
        <time>2017-02-28T09:13:38Z</time>
      </trkpt>
      <trkpt lat="44.40769" lon="3.65019">
        <ele>1254</ele>
        <time>2017-02-28T09:15:38Z</time>
      </trkpt>
      <trkpt lat="44.40764" lon="3.65034">
        <ele>1255</ele>
        <time>2017-02-28T09:17:38Z</time>
      </trkpt>
      <trkpt lat="44.40762" lon="3.6504">
        <ele>1256</ele>
        <time>2017-02-28T09:19:38Z</time>
      </trkpt>
      <trkpt lat="44.40756" lon="3.65058">
        <ele>1257</ele>
        <time>2017-02-28T09:21:38Z</time>
      </trkpt>
      <trkpt lat="44.40748" lon="3.65074">
        <ele>1258</ele>
        <time>2017-02-28T09:23:38Z</time>
      </trkpt>
      <trkpt lat="44.40741" lon="3.65087">
        <ele>1258</ele>
        <time>2017-02-28T09:25:38Z</time>
      </trkpt>
      <trkpt lat="44.40735" lon="3.65099">
        <ele>1258</ele>
        <time>2017-02-28T09:27:38Z</time>
      </trkpt>
      <trkpt lat="44.40729" lon="3.65106">
        <ele>1258</ele>
        <time>2017-02-28T09:29:38Z</time>
      </trkpt>
      <trkpt lat="44.40722" lon="3.65114">
        <ele>1257</ele>
        <time>2017-02-28T09:31:38Z</time>
      </trkpt>
      <trkpt lat="44.4072" lon="3.65116">
        <ele>1257</ele>
        <time>2017-02-28T09:33:38Z</time>
      </trkpt>
      <trkpt lat="44.4072" lon="3.65118">
        <ele>1257</ele>
        <time>2017-02-28T09:35:38Z</time>
      </trkpt>
      <trkpt lat="44.4072" lon="3.6512">
        <ele>1257</ele>
        <time>2017-02-28T09:37:38Z</time>
      </trkpt>
      <trkpt lat="44.4072" lon="3.65122">
        <ele>1257</ele>
        <time>2017-02-28T09:39:38Z</time>
      </trkpt>
      <trkpt lat="44.40721" lon="3.65124">
        <ele>1258</ele>
        <time>2017-02-28T09:41:38Z</time>
      </trkpt>
      <trkpt lat="44.40722" lon="3.65127">
        <ele>1259</ele>
        <time>2017-02-28T09:43:38Z</time>
      </trkpt>
      <trkpt lat="44.40724" lon="3.65128">
        <ele>1259</ele>
        <time>2017-02-28T09:45:38Z</time>
      </trkpt>
      <trkpt lat="44.40725" lon="3.65129">
        <ele>1260</ele>
        <time>2017-02-28T09:47:38Z</time>
      </trkpt>
      <trkpt lat="44.40727" lon="3.65129">
        <ele>1260</ele>
        <time>2017-02-28T09:49:38Z</time>
      </trkpt>
      <trkpt lat="44.40728" lon="3.65128">
        <ele>1260</ele>
        <time>2017-02-28T09:51:38Z</time>
      </trkpt>
      <trkpt lat="44.40731" lon="3.65125">
        <ele>1261</ele>
        <time>2017-02-28T09:53:38Z</time>
      </trkpt>
      <trkpt lat="44.40737" lon="3.65119">
        <ele>1261</ele>
        <time>2017-02-28T09:55:38Z</time>
      </trkpt>
      <trkpt lat="44.40748" lon="3.651">
        <ele>1262</ele>
        <time>2017-02-28T09:57:38Z</time>
      </trkpt>
      <trkpt lat="44.40758" lon="3.65088">
        <ele>1262</ele>
        <time>2017-02-28T09:59:38Z</time>
      </trkpt>
      <trkpt lat="44.40769" lon="3.65075">
        <ele>1262</ele>
        <time>2017-02-28T10:01:38Z</time>
      </trkpt>
      <trkpt lat="44.40784" lon="3.65059">
        <ele>1263</ele>
        <time>2017-02-28T10:03:38Z</time>
      </trkpt>
      <trkpt lat="44.40797" lon="3.65045">
        <ele>1263</ele>
        <time>2017-02-28T10:05:38Z</time>
      </trkpt>
      <trkpt lat="44.40804" lon="3.65038">
        <ele>1264</ele>
        <time>2017-02-28T10:07:38Z</time>
      </trkpt>
      <trkpt lat="44.40806" lon="3.65036">
        <ele>1264</ele>
        <time>2017-02-28T10:09:38Z</time>
      </trkpt>
      <trkpt lat="44.4081" lon="3.65033">
        <ele>1264</ele>
        <time>2017-02-28T10:11:38Z</time>
      </trkpt>
      <trkpt lat="44.40817" lon="3.65029">
        <ele>1265</ele>
        <time>2017-02-28T10:13:38Z</time>
      </trkpt>
      <trkpt lat="44.4082" lon="3.65028">
        <ele>1265</ele>
        <time>2017-02-28T10:15:38Z</time>
      </trkpt>
      <trkpt lat="44.40825" lon="3.65025">
        <ele>1266</ele>
        <time>2017-02-28T10:17:38Z</time>
      </trkpt>
      <trkpt lat="44.40829" lon="3.65023">
        <ele>1266</ele>
        <time>2017-02-28T10:19:38Z</time>
      </trkpt>
      <trkpt lat="44.40831" lon="3.6502">
        <ele>1266</ele>
        <time>2017-02-28T10:21:38Z</time>
      </trkpt>
      <trkpt lat="44.40838" lon="3.65014">
        <ele>1267</ele>
        <time>2017-02-28T10:23:38Z</time>
      </trkpt>
      <trkpt lat="44.40843" lon="3.65011">
        <ele>1267</ele>
        <time>2017-02-28T10:25:38Z</time>
      </trkpt>
      <trkpt lat="44.40848" lon="3.65005">
        <ele>1267</ele>
        <time>2017-02-28T10:27:38Z</time>
      </trkpt>
      <trkpt lat="44.40853" lon="3.65">
        <ele>1267</ele>
        <time>2017-02-28T10:29:38Z</time>
      </trkpt>
      <trkpt lat="44.40854" lon="3.64999">
        <ele>1267</ele>
        <time>2017-02-28T10:31:38Z</time>
      </trkpt>
      <trkpt lat="44.40868" lon="3.6499">
        <ele>1267</ele>
        <time>2017-02-28T10:33:38Z</time>
      </trkpt>
      <trkpt lat="44.40885" lon="3.6498">
        <ele>1268</ele>
        <time>2017-02-28T10:35:38Z</time>
      </trkpt>
      <trkpt lat="44.40907" lon="3.64967">
        <ele>1270</ele>
        <time>2017-02-28T10:37:38Z</time>
      </trkpt>
      <trkpt lat="44.4092" lon="3.64959">
        <ele>1272</ele>
        <time>2017-02-28T10:39:38Z</time>
      </trkpt>
      <trkpt lat="44.40921" lon="3.64958">
        <ele>1272</ele>
        <time>2017-02-28T10:41:38Z</time>
      </trkpt>
      <trkpt lat="44.40922" lon="3.64958">
        <ele>1272</ele>
        <time>2017-02-28T10:43:38Z</time>
      </trkpt>
      <trkpt lat="44.40932" lon="3.64949">
        <ele>1273</ele>
        <time>2017-02-28T10:45:38Z</time>
      </trkpt>
      <trkpt lat="44.40943" lon="3.64938">
        <ele>1274</ele>
        <time>2017-02-28T10:47:38Z</time>
      </trkpt>
      <trkpt lat="44.40961" lon="3.64916">
        <ele>1274</ele>
        <time>2017-02-28T10:49:38Z</time>
      </trkpt>
      <trkpt lat="44.40973" lon="3.64903">
        <ele>1274</ele>
        <time>2017-02-28T10:51:38Z</time>
      </trkpt>
      <trkpt lat="44.40974" lon="3.64902">
        <ele>1274</ele>
        <time>2017-02-28T10:53:38Z</time>
      </trkpt>
      <trkpt lat="44.40993" lon="3.64887">
        <ele>1276</ele>
        <time>2017-02-28T10:55:38Z</time>
      </trkpt>
      <trkpt lat="44.40999" lon="3.64881">
        <ele>1276</ele>
        <time>2017-02-28T10:57:38Z</time>
      </trkpt>
      <trkpt lat="44.41014" lon="3.64871">
        <ele>1278</ele>
        <time>2017-02-28T10:59:38Z</time>
      </trkpt>
      <trkpt lat="44.41036" lon="3.64853">
        <ele>1279</ele>
        <time>2017-02-28T11:01:38Z</time>
      </trkpt>
      <trkpt lat="44.41052" lon="3.6484">
        <ele>1281</ele>
        <time>2017-02-28T11:03:38Z</time>
      </trkpt>
      <trkpt lat="44.41058" lon="3.64836">
        <ele>1281</ele>
        <time>2017-02-28T11:05:38Z</time>
      </trkpt>
      <trkpt lat="44.41058" lon="3.64835">
        <ele>1281</ele>
        <time>2017-02-28T11:07:38Z</time>
      </trkpt>
      <trkpt lat="44.41064" lon="3.64832">
        <ele>1282</ele>
        <time>2017-02-28T11:09:38Z</time>
      </trkpt>
      <trkpt lat="44.41064" lon="3.64831">
        <ele>1282</ele>
        <time>2017-02-28T11:11:38Z</time>
      </trkpt>
      <trkpt lat="44.41072" lon="3.64827">
        <ele>1283</ele>
        <time>2017-02-28T11:13:38Z</time>
      </trkpt>
      <trkpt lat="44.41074" lon="3.64827">
        <ele>1283</ele>
        <time>2017-02-28T11:15:38Z</time>
      </trkpt>
      <trkpt lat="44.41085" lon="3.64823">
        <ele>1285</ele>
        <time>2017-02-28T11:17:38Z</time>
      </trkpt>
      <trkpt lat="44.41094" lon="3.6482">
        <ele>1286</ele>
        <time>2017-02-28T11:19:38Z</time>
      </trkpt>
      <trkpt lat="44.41106" lon="3.64814">
        <ele>1287</ele>
        <time>2017-02-28T11:21:38Z</time>
      </trkpt>
      <trkpt lat="44.41116" lon="3.64809">
        <ele>1287</ele>
        <time>2017-02-28T11:23:38Z</time>
      </trkpt>
      <trkpt lat="44.41132" lon="3.64799">
        <ele>1288</ele>
        <time>2017-02-28T11:25:38Z</time>
      </trkpt>
      <trkpt lat="44.41147" lon="3.64791">
        <ele>1289</ele>
        <time>2017-02-28T11:27:38Z</time>
      </trkpt>
      <trkpt lat="44.41162" lon="3.64783">
        <ele>1290</ele>
        <time>2017-02-28T11:29:38Z</time>
      </trkpt>
      <trkpt lat="44.41178" lon="3.64774">
        <ele>1292</ele>
        <time>2017-02-28T11:31:38Z</time>
      </trkpt>
      <trkpt lat="44.41188" lon="3.64768">
        <ele>1292</ele>
        <time>2017-02-28T11:33:38Z</time>
      </trkpt>
      <trkpt lat="44.41195" lon="3.64762">
        <ele>1293</ele>
        <time>2017-02-28T11:35:38Z</time>
      </trkpt>
      <trkpt lat="44.41214" lon="3.64742">
        <ele>1293</ele>
        <time>2017-02-28T11:37:38Z</time>
      </trkpt>
      <trkpt lat="44.4122" lon="3.64738">
        <ele>1293</ele>
        <time>2017-02-28T11:39:38Z</time>
      </trkpt>
      <trkpt lat="44.41223" lon="3.64736">
        <ele>1293</ele>
        <time>2017-02-28T11:41:38Z</time>
      </trkpt>
      <trkpt lat="44.41225" lon="3.64735">
        <ele>1294</ele>
        <time>2017-02-28T11:43:38Z</time>
      </trkpt>
      <trkpt lat="44.41226" lon="3.64734">
        <ele>1294</ele>
        <time>2017-02-28T11:45:38Z</time>
      </trkpt>
      <trkpt lat="44.41227" lon="3.64733">
        <ele>1294</ele>
        <time>2017-02-28T11:47:38Z</time>
      </trkpt>
      <trkpt lat="44.41229" lon="3.64732">
        <ele>1294</ele>
        <time>2017-02-28T11:49:38Z</time>
      </trkpt>
      <trkpt lat="44.41231" lon="3.64731">
        <ele>1294</ele>
        <time>2017-02-28T11:51:38Z</time>
      </trkpt>
      <trkpt lat="44.41232" lon="3.6473">
        <ele>1294</ele>
        <time>2017-02-28T11:53:38Z</time>
      </trkpt>
      <trkpt lat="44.41235" lon="3.64729">
        <ele>1294</ele>
        <time>2017-02-28T11:55:38Z</time>
      </trkpt>
      <trkpt lat="44.41268" lon="3.64715">
        <ele>1298</ele>
        <time>2017-02-28T11:57:38Z</time>
      </trkpt>
      <trkpt lat="44.41283" lon="3.64708">
        <ele>1299</ele>
        <time>2017-02-28T11:59:38Z</time>
      </trkpt>
      <trkpt lat="44.41294" lon="3.64703">
        <ele>1300</ele>
        <time>2017-02-28T12:01:38Z</time>
      </trkpt>
      <trkpt lat="44.41296" lon="3.64701">
        <ele>1300</ele>
        <time>2017-02-28T12:03:38Z</time>
      </trkpt>
      <trkpt lat="44.41298" lon="3.647">
        <ele>1301</ele>
        <time>2017-02-28T12:05:38Z</time>
      </trkpt>
      <trkpt lat="44.41299" lon="3.64699">
        <ele>1301</ele>
        <time>2017-02-28T12:07:38Z</time>
      </trkpt>
      <trkpt lat="44.41301" lon="3.64698">
        <ele>1301</ele>
        <time>2017-02-28T12:09:38Z</time>
      </trkpt>
      <trkpt lat="44.41302" lon="3.64697">
        <ele>1301</ele>
        <time>2017-02-28T12:11:38Z</time>
      </trkpt>
      <trkpt lat="44.41308" lon="3.64691">
        <ele>1301</ele>
        <time>2017-02-28T12:13:38Z</time>
      </trkpt>
      <trkpt lat="44.41309" lon="3.64689">
        <ele>1301</ele>
        <time>2017-02-28T12:15:38Z</time>
      </trkpt>
      <trkpt lat="44.41318" lon="3.64677">
        <ele>1302</ele>
        <time>2017-02-28T12:17:38Z</time>
      </trkpt>
      <trkpt lat="44.41319" lon="3.64675">
        <ele>1302</ele>
        <time>2017-02-28T12:19:38Z</time>
      </trkpt>
      <trkpt lat="44.4132" lon="3.64674">
        <ele>1302</ele>
        <time>2017-02-28T12:21:38Z</time>
      </trkpt>
      <trkpt lat="44.41332" lon="3.64663">
        <ele>1304</ele>
        <time>2017-02-28T12:23:38Z</time>
      </trkpt>
      <trkpt lat="44.4134" lon="3.64654">
        <ele>1304</ele>
        <time>2017-02-28T12:25:38Z</time>
      </trkpt>
      <trkpt lat="44.41342" lon="3.64652">
        <ele>1304</ele>
        <time>2017-02-28T12:27:38Z</time>
      </trkpt>
      <trkpt lat="44.41351" lon="3.64637">
        <ele>1305</ele>
        <time>2017-02-28T12:29:38Z</time>
      </trkpt>
      <trkpt lat="44.41358" lon="3.64626">
        <ele>1306</ele>
        <time>2017-02-28T12:31:38Z</time>
      </trkpt>
      <trkpt lat="44.41359" lon="3.64624">
        <ele>1306</ele>
        <time>2017-02-28T12:33:38Z</time>
      </trkpt>
      <trkpt lat="44.41359" lon="3.64622">
        <ele>1306</ele>
        <time>2017-02-28T12:35:38Z</time>
      </trkpt>
      <trkpt lat="44.41361" lon="3.64616">
        <ele>1306</ele>
        <time>2017-02-28T12:37:38Z</time>
      </trkpt>
      <trkpt lat="44.41362" lon="3.64614">
        <ele>1306</ele>
        <time>2017-02-28T12:39:38Z</time>
      </trkpt>
      <trkpt lat="44.41362" lon="3.64606">
        <ele>1306</ele>
        <time>2017-02-28T12:41:38Z</time>
      </trkpt>
      <trkpt lat="44.41363" lon="3.64599">
        <ele>1306</ele>
        <time>2017-02-28T12:43:38Z</time>
      </trkpt>
      <trkpt lat="44.41363" lon="3.64549">
        <ele>1306</ele>
        <time>2017-02-28T12:45:38Z</time>
      </trkpt>
      <trkpt lat="44.41363" lon="3.64524">
        <ele>1307</ele>
        <time>2017-02-28T12:47:38Z</time>
      </trkpt>
      <trkpt lat="44.41364" lon="3.64485">
        <ele>1308</ele>
        <time>2017-02-28T12:49:38Z</time>
      </trkpt>
      <trkpt lat="44.41365" lon="3.64463">
        <ele>1308</ele>
        <time>2017-02-28T12:51:38Z</time>
      </trkpt>
      <trkpt lat="44.41365" lon="3.64459">
        <ele>1308</ele>
        <time>2017-02-28T12:53:38Z</time>
      </trkpt>
      <trkpt lat="44.41365" lon="3.64456">
        <ele>1308</ele>
        <time>2017-02-28T12:55:38Z</time>
      </trkpt>
      <trkpt lat="44.41366" lon="3.6445">
        <ele>1308</ele>
        <time>2017-02-28T12:57:38Z</time>
      </trkpt>
      <trkpt lat="44.41367" lon="3.64447">
        <ele>1308</ele>
        <time>2017-02-28T12:59:38Z</time>
      </trkpt>
      <trkpt lat="44.41368" lon="3.64443">
        <ele>1308</ele>
        <time>2017-02-28T13:01:38Z</time>
      </trkpt>
      <trkpt lat="44.41373" lon="3.64429">
        <ele>1309</ele>
        <time>2017-02-28T13:03:38Z</time>
      </trkpt>
      <trkpt lat="44.41374" lon="3.64426">
        <ele>1309</ele>
        <time>2017-02-28T13:05:38Z</time>
      </trkpt>
      <trkpt lat="44.41375" lon="3.64423">
        <ele>1309</ele>
        <time>2017-02-28T13:07:38Z</time>
      </trkpt>
      <trkpt lat="44.41383" lon="3.64406">
        <ele>1309</ele>
        <time>2017-02-28T13:09:38Z</time>
      </trkpt>
      <trkpt lat="44.41396" lon="3.64382">
        <ele>1310</ele>
        <time>2017-02-28T13:11:38Z</time>
      </trkpt>
      <trkpt lat="44.41415" lon="3.64353">
        <ele>1311</ele>
        <time>2017-02-28T13:13:38Z</time>
      </trkpt>
      <trkpt lat="44.41439" lon="3.64325">
        <ele>1313</ele>
        <time>2017-02-28T13:15:38Z</time>
      </trkpt>
      <trkpt lat="44.41455" lon="3.6431">
        <ele>1313</ele>
        <time>2017-02-28T13:17:38Z</time>
      </trkpt>
      <trkpt lat="44.41475" lon="3.64297">
        <ele>1315</ele>
        <time>2017-02-28T13:19:38Z</time>
      </trkpt>
      <trkpt lat="44.41498" lon="3.64284">
        <ele>1318</ele>
        <time>2017-02-28T13:21:38Z</time>
      </trkpt>
      <trkpt lat="44.41516" lon="3.64273">
        <ele>1319</ele>
        <time>2017-02-28T13:23:38Z</time>
      </trkpt>
      <trkpt lat="44.41537" lon="3.64259">
        <ele>1320</ele>
        <time>2017-02-28T13:25:38Z</time>
      </trkpt>
      <trkpt lat="44.41555" lon="3.6425">
        <ele>1321</ele>
        <time>2017-02-28T13:27:38Z</time>
      </trkpt>
      <trkpt lat="44.41572" lon="3.64243">
        <ele>1322</ele>
        <time>2017-02-28T13:29:38Z</time>
      </trkpt>
      <trkpt lat="44.41585" lon="3.64237">
        <ele>1323</ele>
        <time>2017-02-28T13:31:38Z</time>
      </trkpt>
      <trkpt lat="44.41634" lon="3.64218">
        <ele>1326</ele>
        <time>2017-02-28T13:33:38Z</time>
      </trkpt>
      <trkpt lat="44.41646" lon="3.64213">
        <ele>1326</ele>
        <time>2017-02-28T13:35:38Z</time>
      </trkpt>
      <trkpt lat="44.41686" lon="3.64194">
        <ele>1329</ele>
        <time>2017-02-28T13:37:38Z</time>
      </trkpt>
      <trkpt lat="44.41695" lon="3.6419">
        <ele>1329</ele>
        <time>2017-02-28T13:39:38Z</time>
      </trkpt>
      <trkpt lat="44.41733" lon="3.64172">
        <ele>1332</ele>
        <time>2017-02-28T13:41:38Z</time>
      </trkpt>
      <trkpt lat="44.41754" lon="3.64162">
        <ele>1333</ele>
        <time>2017-02-28T13:43:38Z</time>
      </trkpt>
      <trkpt lat="44.41768" lon="3.64157">
        <ele>1335</ele>
        <time>2017-02-28T13:45:38Z</time>
      </trkpt>
      <trkpt lat="44.4178" lon="3.64152">
        <ele>1336</ele>
        <time>2017-02-28T13:47:38Z</time>
      </trkpt>
      <trkpt lat="44.41798" lon="3.64142">
        <ele>1337</ele>
        <time>2017-02-28T13:49:38Z</time>
      </trkpt>
      <trkpt lat="44.41808" lon="3.64134">
        <ele>1338</ele>
        <time>2017-02-28T13:51:38Z</time>
      </trkpt>
      <trkpt lat="44.41814" lon="3.64128">
        <ele>1338</ele>
        <time>2017-02-28T13:53:38Z</time>
      </trkpt>
      <trkpt lat="44.4182" lon="3.64125">
        <ele>1339</ele>
        <time>2017-02-28T13:55:38Z</time>
      </trkpt>
      <trkpt lat="44.41827" lon="3.64123">
        <ele>1339</ele>
        <time>2017-02-28T13:57:38Z</time>
      </trkpt>
      <trkpt lat="44.41839" lon="3.64119">
        <ele>1341</ele>
        <time>2017-02-28T13:59:38Z</time>
      </trkpt>
      <trkpt lat="44.41854" lon="3.64112">
        <ele>1342</ele>
        <time>2017-02-28T14:01:38Z</time>
      </trkpt>
      <trkpt lat="44.41857" lon="3.6411">
        <ele>1342</ele>
        <time>2017-02-28T14:03:38Z</time>
      </trkpt>
      <trkpt lat="44.41871" lon="3.64103">
        <ele>1343</ele>
        <time>2017-02-28T14:05:38Z</time>
      </trkpt>
      <trkpt lat="44.41919" lon="3.64074">
        <ele>1345</ele>
        <time>2017-02-28T14:07:38Z</time>
      </trkpt>
      <trkpt lat="44.41949" lon="3.64058">
        <ele>1346</ele>
        <time>2017-02-28T14:09:38Z</time>
      </trkpt>
      <trkpt lat="44.41967" lon="3.64048">
        <ele>1347</ele>
        <time>2017-02-28T14:11:38Z</time>
      </trkpt>
      <trkpt lat="44.41994" lon="3.64035">
        <ele>1348</ele>
        <time>2017-02-28T14:13:38Z</time>
      </trkpt>
      <trkpt lat="44.42017" lon="3.64029">
        <ele>1350</ele>
        <time>2017-02-28T14:15:38Z</time>
      </trkpt>
      <trkpt lat="44.42032" lon="3.64023">
        <ele>1351</ele>
        <time>2017-02-28T14:17:38Z</time>
      </trkpt>
      <trkpt lat="44.42048" lon="3.64013">
        <ele>1351</ele>
        <time>2017-02-28T14:19:38Z</time>
      </trkpt>
      <trkpt lat="44.42067" lon="3.64001">
        <ele>1352</ele>
        <time>2017-02-28T14:21:38Z</time>
      </trkpt>
      <trkpt lat="44.42081" lon="3.63994">
        <ele>1352</ele>
        <time>2017-02-28T14:23:38Z</time>
      </trkpt>
      <trkpt lat="44.42101" lon="3.6399">
        <ele>1353</ele>
        <time>2017-02-28T14:25:38Z</time>
      </trkpt>
      <trkpt lat="44.42134" lon="3.63984">
        <ele>1355</ele>
        <time>2017-02-28T14:27:38Z</time>
      </trkpt>
      <trkpt lat="44.4217" lon="3.63981">
        <ele>1357</ele>
        <time>2017-02-28T14:29:38Z</time>
      </trkpt>
      <trkpt lat="44.42202" lon="3.6398">
        <ele>1358</ele>
        <time>2017-02-28T14:31:38Z</time>
      </trkpt>
      <trkpt lat="44.42221" lon="3.63981">
        <ele>1359</ele>
        <time>2017-02-28T14:33:38Z</time>
      </trkpt>
      <trkpt lat="44.42249" lon="3.63987">
        <ele>1361</ele>
        <time>2017-02-28T14:35:38Z</time>
      </trkpt>
      <trkpt lat="44.42268" lon="3.63993">
        <ele>1361</ele>
        <time>2017-02-28T14:37:38Z</time>
      </trkpt>
      <trkpt lat="44.42282" lon="3.63999">
        <ele>1362</ele>
        <time>2017-02-28T14:39:38Z</time>
      </trkpt>
      <trkpt lat="44.42298" lon="3.64012">
        <ele>1363</ele>
        <time>2017-02-28T14:41:38Z</time>
      </trkpt>
      <trkpt lat="44.42321" lon="3.64031">
        <ele>1364</ele>
        <time>2017-02-28T14:43:38Z</time>
      </trkpt>
      <trkpt lat="44.42356" lon="3.6407">
        <ele>1368</ele>
        <time>2017-02-28T14:45:38Z</time>
      </trkpt>
      <trkpt lat="44.42383" lon="3.641">
        <ele>1369</ele>
        <time>2017-02-28T14:47:38Z</time>
      </trkpt>
      <trkpt lat="44.42401" lon="3.64124">
        <ele>1369</ele>
        <time>2017-02-28T14:49:38Z</time>
      </trkpt>
      <trkpt lat="44.42415" lon="3.6415">
        <ele>1370</ele>
        <time>2017-02-28T14:51:38Z</time>
      </trkpt>
      <trkpt lat="44.42428" lon="3.64179">
        <ele>1371</ele>
        <time>2017-02-28T14:53:38Z</time>
      </trkpt>
      <trkpt lat="44.42441" lon="3.64213">
        <ele>1372</ele>
        <time>2017-02-28T14:55:38Z</time>
      </trkpt>
      <trkpt lat="44.42452" lon="3.64251">
        <ele>1373</ele>
        <time>2017-02-28T14:57:38Z</time>
      </trkpt>
      <trkpt lat="44.42462" lon="3.64293">
        <ele>1374</ele>
        <time>2017-02-28T14:59:38Z</time>
      </trkpt>
      <trkpt lat="44.42466" lon="3.64324">
        <ele>1375</ele>
        <time>2017-02-28T15:01:38Z</time>
      </trkpt>
      <trkpt lat="44.42467" lon="3.6436">
        <ele>1376</ele>
        <time>2017-02-28T15:03:38Z</time>
      </trkpt>
      <trkpt lat="44.42467" lon="3.6441">
        <ele>1378</ele>
        <time>2017-02-28T15:05:38Z</time>
      </trkpt>
      <trkpt lat="44.42461" lon="3.64464">
        <ele>1380</ele>
        <time>2017-02-28T15:07:38Z</time>
      </trkpt>
      <trkpt lat="44.42459" lon="3.64507">
        <ele>1381</ele>
        <time>2017-02-28T15:09:38Z</time>
      </trkpt>
      <trkpt lat="44.42455" lon="3.64544">
        <ele>1382</ele>
        <time>2017-02-28T15:11:38Z</time>
      </trkpt>
      <trkpt lat="44.42446" lon="3.64598">
        <ele>1385</ele>
        <time>2017-02-28T15:13:38Z</time>
      </trkpt>
      <trkpt lat="44.42434" lon="3.6465">
        <ele>1388</ele>
        <time>2017-02-28T15:15:38Z</time>
      </trkpt>
      <trkpt lat="44.42414" lon="3.6472">
        <ele>1393</ele>
        <time>2017-02-28T15:17:38Z</time>
      </trkpt>
      <trkpt lat="44.42386" lon="3.64801">
        <ele>1396</ele>
        <time>2017-02-28T15:19:38Z</time>
      </trkpt>
      <trkpt lat="44.42364" lon="3.64867">
        <ele>1397</ele>
        <time>2017-02-28T15:21:38Z</time>
      </trkpt>
      <trkpt lat="44.42351" lon="3.64915">
        <ele>1398</ele>
        <time>2017-02-28T15:23:38Z</time>
      </trkpt>
      <trkpt lat="44.42329" lon="3.64998">
        <ele>1397</ele>
        <time>2017-02-28T15:25:38Z</time>
      </trkpt>
      <trkpt lat="44.42311" lon="3.65053">
        <ele>1397</ele>
        <time>2017-02-28T15:27:38Z</time>
      </trkpt>
      <trkpt lat="44.42295" lon="3.65103">
        <ele>1397</ele>
        <time>2017-02-28T15:29:38Z</time>
      </trkpt>
      <trkpt lat="44.42287" lon="3.65136">
        <ele>1396</ele>
        <time>2017-02-28T15:31:38Z</time>
      </trkpt>
      <trkpt lat="44.42281" lon="3.65178">
        <ele>1396</ele>
        <time>2017-02-28T15:33:38Z</time>
      </trkpt>
      <trkpt lat="44.42277" lon="3.65212">
        <ele>1396</ele>
        <time>2017-02-28T15:35:38Z</time>
      </trkpt>
      <trkpt lat="44.42275" lon="3.65232">
        <ele>1397</ele>
        <time>2017-02-28T15:37:38Z</time>
      </trkpt>
      <trkpt lat="44.42275" lon="3.65239">
        <ele>1397</ele>
        <time>2017-02-28T15:39:38Z</time>
      </trkpt>
      <trkpt lat="44.42272" lon="3.65259">
        <ele>1397</ele>
        <time>2017-02-28T15:41:38Z</time>
      </trkpt>
      <trkpt lat="44.42272" lon="3.65259">
        <ele>1397</ele>
        <time>2017-02-28T15:43:38Z</time>
      </trkpt>
      <trkpt lat="44.42275" lon="3.65272">
        <ele>1397</ele>
        <time>2017-02-28T15:45:38Z</time>
      </trkpt>
      <trkpt lat="44.42276" lon="3.65284">
        <ele>1396</ele>
        <time>2017-02-28T15:47:38Z</time>
      </trkpt>
      <trkpt lat="44.42278" lon="3.65353">
        <ele>1395</ele>
        <time>2017-02-28T15:49:38Z</time>
      </trkpt>
      <trkpt lat="44.4228" lon="3.65365">
        <ele>1395</ele>
        <time>2017-02-28T15:51:38Z</time>
      </trkpt>
      <trkpt lat="44.42282" lon="3.65375">
        <ele>1394</ele>
        <time>2017-02-28T15:53:38Z</time>
      </trkpt>
      <trkpt lat="44.42293" lon="3.65413">
        <ele>1393</ele>
        <time>2017-02-28T15:55:38Z</time>
      </trkpt>
      <trkpt lat="44.42295" lon="3.65419">
        <ele>1393</ele>
        <time>2017-02-28T15:57:38Z</time>
      </trkpt>
      <trkpt lat="44.42305" lon="3.65453">
        <ele>1392</ele>
        <time>2017-02-28T15:59:38Z</time>
      </trkpt>
      <trkpt lat="44.42306" lon="3.65454">
        <ele>1392</ele>
        <time>2017-02-28T16:01:38Z</time>
      </trkpt>
      <trkpt lat="44.42309" lon="3.65462">
        <ele>1392</ele>
        <time>2017-02-28T16:03:38Z</time>
      </trkpt>
      <trkpt lat="44.42317" lon="3.65469">
        <ele>1391</ele>
        <time>2017-02-28T16:05:38Z</time>
      </trkpt>
      <trkpt lat="44.4235" lon="3.65493">
        <ele>1392</ele>
        <time>2017-02-28T16:07:38Z</time>
      </trkpt>
      <trkpt lat="44.42356" lon="3.65494">
        <ele>1392</ele>
        <time>2017-02-28T16:09:38Z</time>
      </trkpt>
      <trkpt lat="44.42361" lon="3.65494">
        <ele>1393</ele>
        <time>2017-02-28T16:11:38Z</time>
      </trkpt>
      <trkpt lat="44.42385" lon="3.65493">
        <ele>1395</ele>
        <time>2017-02-28T16:13:38Z</time>
      </trkpt>
      <trkpt lat="44.42386" lon="3.65492">
        <ele>1395</ele>
        <time>2017-02-28T16:15:38Z</time>
      </trkpt>
      <trkpt lat="44.42399" lon="3.6546">
        <ele>1395</ele>
        <time>2017-02-28T16:17:38Z</time>
      </trkpt>
      <trkpt lat="44.42406" lon="3.65442">
        <ele>1395</ele>
        <time>2017-02-28T16:19:38Z</time>
      </trkpt>
      <trkpt lat="44.4241" lon="3.65432">
        <ele>1394</ele>
        <time>2017-02-28T16:21:38Z</time>
      </trkpt>
      <trkpt lat="44.42411" lon="3.6543">
        <ele>1394</ele>
        <time>2017-02-28T16:23:38Z</time>
      </trkpt>
      <trkpt lat="44.42413" lon="3.65423">
        <ele>1394</ele>
        <time>2017-02-28T16:25:38Z</time>
      </trkpt>
      <trkpt lat="44.42425" lon="3.65398">
        <ele>1394</ele>
        <time>2017-02-28T16:27:38Z</time>
      </trkpt>
      <trkpt lat="44.42436" lon="3.65379">
        <ele>1395</ele>
        <time>2017-02-28T16:29:38Z</time>
      </trkpt>
      <trkpt lat="44.4245" lon="3.65357">
        <ele>1396</ele>
        <time>2017-02-28T16:31:38Z</time>
      </trkpt>
      <trkpt lat="44.42459" lon="3.65342">
        <ele>1396</ele>
        <time>2017-02-28T16:33:38Z</time>
      </trkpt>
      <trkpt lat="44.42471" lon="3.65328">
        <ele>1397</ele>
        <time>2017-02-28T16:35:38Z</time>
      </trkpt>
      <trkpt lat="44.42483" lon="3.65316">
        <ele>1397</ele>
        <time>2017-02-28T16:37:38Z</time>
      </trkpt>
      <trkpt lat="44.42503" lon="3.653">
        <ele>1398</ele>
        <time>2017-02-28T16:39:38Z</time>
      </trkpt>
      <trkpt lat="44.42532" lon="3.6528">
        <ele>1400</ele>
        <time>2017-02-28T16:41:38Z</time>
      </trkpt>
      <trkpt lat="44.42553" lon="3.65267">
        <ele>1402</ele>
        <time>2017-02-28T16:43:38Z</time>
      </trkpt>
      <trkpt lat="44.42573" lon="3.6525">
        <ele>1402</ele>
        <time>2017-02-28T16:45:38Z</time>
      </trkpt>
      <trkpt lat="44.42599" lon="3.65233">
        <ele>1404</ele>
        <time>2017-02-28T16:47:38Z</time>
      </trkpt>
      <trkpt lat="44.42629" lon="3.65217">
        <ele>1405</ele>
        <time>2017-02-28T16:49:38Z</time>
      </trkpt>
      <trkpt lat="44.42648" lon="3.65208">
        <ele>1406</ele>
        <time>2017-02-28T16:51:38Z</time>
      </trkpt>
      <trkpt lat="44.42664" lon="3.65199">
        <ele>1407</ele>
        <time>2017-02-28T16:53:38Z</time>
      </trkpt>
      <trkpt lat="44.42709" lon="3.65169">
        <ele>1408</ele>
        <time>2017-02-28T16:55:38Z</time>
      </trkpt>
      <trkpt lat="44.42775" lon="3.65131">
        <ele>1410</ele>
        <time>2017-02-28T16:57:38Z</time>
      </trkpt>
      <trkpt lat="44.4279" lon="3.65122">
        <ele>1410</ele>
        <time>2017-02-28T16:59:38Z</time>
      </trkpt>
      <trkpt lat="44.42804" lon="3.65115">
        <ele>1411</ele>
        <time>2017-02-28T17:01:38Z</time>
      </trkpt>
      <trkpt lat="44.42831" lon="3.65106">
        <ele>1412</ele>
        <time>2017-02-28T17:03:38Z</time>
      </trkpt>
      <trkpt lat="44.42861" lon="3.65097">
        <ele>1414</ele>
        <time>2017-02-28T17:05:38Z</time>
      </trkpt>
      <trkpt lat="44.42881" lon="3.65088">
        <ele>1415</ele>
        <time>2017-02-28T17:07:38Z</time>
      </trkpt>
      <trkpt lat="44.4289" lon="3.65085">
        <ele>1416</ele>
        <time>2017-02-28T17:09:38Z</time>
      </trkpt>
      <trkpt lat="44.42896" lon="3.65078">
        <ele>1416</ele>
        <time>2017-02-28T17:11:38Z</time>
      </trkpt>
      <trkpt lat="44.42914" lon="3.65046">
        <ele>1414</ele>
        <time>2017-02-28T17:13:38Z</time>
      </trkpt>
      <trkpt lat="44.42923" lon="3.65032">
        <ele>1413</ele>
        <time>2017-02-28T17:15:38Z</time>
      </trkpt>
      <trkpt lat="44.42947" lon="3.64989">
        <ele>1411</ele>
        <time>2017-02-28T17:17:38Z</time>
      </trkpt>
      <trkpt lat="44.42971" lon="3.64945">
        <ele>1410</ele>
        <time>2017-02-28T17:19:38Z</time>
      </trkpt>
      <trkpt lat="44.42977" lon="3.64932">
        <ele>1410</ele>
        <time>2017-02-28T17:21:38Z</time>
      </trkpt>
      <trkpt lat="44.42983" lon="3.64914">
        <ele>1410</ele>
        <time>2017-02-28T17:23:38Z</time>
      </trkpt>
      <trkpt lat="44.42995" lon="3.64877">
        <ele>1409</ele>
        <time>2017-02-28T17:25:38Z</time>
      </trkpt>
      <trkpt lat="44.43012" lon="3.64825">
        <ele>1408</ele>
        <time>2017-02-28T17:27:38Z</time>
      </trkpt>
      <trkpt lat="44.43027" lon="3.64791">
        <ele>1406</ele>
        <time>2017-02-28T17:29:38Z</time>
      </trkpt>
      <trkpt lat="44.43034" lon="3.64773">
        <ele>1405</ele>
        <time>2017-02-28T17:31:38Z</time>
      </trkpt>
      <trkpt lat="44.43038" lon="3.6476">
        <ele>1405</ele>
        <time>2017-02-28T17:33:38Z</time>
      </trkpt>
      <trkpt lat="44.43046" lon="3.64742">
        <ele>1404</ele>
        <time>2017-02-28T17:35:38Z</time>
      </trkpt>
      <trkpt lat="44.43064" lon="3.64709">
        <ele>1403</ele>
        <time>2017-02-28T17:37:38Z</time>
      </trkpt>
      <trkpt lat="44.43085" lon="3.64676">
        <ele>1403</ele>
        <time>2017-02-28T17:39:38Z</time>
      </trkpt>
      <trkpt lat="44.43132" lon="3.6459">
        <ele>1399</ele>
        <time>2017-02-28T17:41:38Z</time>
      </trkpt>
      <trkpt lat="44.43177" lon="3.64509">
        <ele>1396</ele>
        <time>2017-02-28T17:43:38Z</time>
      </trkpt>
      <trkpt lat="44.43234" lon="3.64411">
        <ele>1392</ele>
        <time>2017-02-28T17:45:38Z</time>
      </trkpt>
      <trkpt lat="44.43257" lon="3.64369">
        <ele>1390</ele>
        <time>2017-02-28T17:47:38Z</time>
      </trkpt>
      <trkpt lat="44.43279" lon="3.6432">
        <ele>1387</ele>
        <time>2017-02-28T17:49:38Z</time>
      </trkpt>
      <trkpt lat="44.43292" lon="3.64294">
        <ele>1387</ele>
        <time>2017-02-28T17:51:38Z</time>
      </trkpt>
      <trkpt lat="44.4333" lon="3.64197">
        <ele>1383</ele>
        <time>2017-02-28T17:53:38Z</time>
      </trkpt>
      <trkpt lat="44.43337" lon="3.64181">
        <ele>1382</ele>
        <time>2017-02-28T17:55:38Z</time>
      </trkpt>
      <trkpt lat="44.43356" lon="3.64148">
        <ele>1381</ele>
        <time>2017-02-28T17:57:38Z</time>
      </trkpt>
      <trkpt lat="44.43405" lon="3.64079">
        <ele>1384</ele>
        <time>2017-02-28T17:59:38Z</time>
      </trkpt>
      <trkpt lat="44.43405" lon="3.64079">
        <ele>1384</ele>
        <time>2017-02-28T18:01:38Z</time>
      </trkpt>
      <trkpt lat="44.43448" lon="3.64154">
        <ele>1394</ele>
        <time>2017-02-28T18:03:38Z</time>
      </trkpt>
      <trkpt lat="44.4349" lon="3.64225">
        <ele>1407</ele>
        <time>2017-02-28T18:05:38Z</time>
      </trkpt>
      <trkpt lat="44.43527" lon="3.6429">
        <ele>1417</ele>
        <time>2017-02-28T18:07:38Z</time>
      </trkpt>
      <trkpt lat="44.43561" lon="3.64358">
        <ele>1427</ele>
        <time>2017-02-28T18:09:38Z</time>
      </trkpt>
      <trkpt lat="44.43577" lon="3.64388">
        <ele>1432</ele>
        <time>2017-02-28T18:11:38Z</time>
      </trkpt>
      <trkpt lat="44.43577" lon="3.64388">
        <ele>1432</ele>
        <time>2017-02-28T18:13:38Z</time>
      </trkpt>
      <trkpt lat="44.43573" lon="3.64408">
        <ele>1433</ele>
        <time>2017-02-28T18:15:38Z</time>
      </trkpt>
      <trkpt lat="44.43564" lon="3.64441">
        <ele>1435</ele>
        <time>2017-02-28T18:17:38Z</time>
      </trkpt>
      <trkpt lat="44.43558" lon="3.64463">
        <ele>1435</ele>
        <time>2017-02-28T18:19:38Z</time>
      </trkpt>
      <trkpt lat="44.43546" lon="3.6453">
        <ele>1439</ele>
        <time>2017-02-28T18:21:38Z</time>
      </trkpt>
      <trkpt lat="44.43534" lon="3.64561">
        <ele>1440</ele>
        <time>2017-02-28T18:23:38Z</time>
      </trkpt>
      <trkpt lat="44.43526" lon="3.64592">
        <ele>1442</ele>
        <time>2017-02-28T18:25:38Z</time>
      </trkpt>
      <trkpt lat="44.43504" lon="3.64685">
        <ele>1446</ele>
        <time>2017-02-28T18:27:38Z</time>
      </trkpt>
      <trkpt lat="44.43494" lon="3.64736">
        <ele>1448</ele>
        <time>2017-02-28T18:29:38Z</time>
      </trkpt>
      <trkpt lat="44.43478" lon="3.64839">
        <ele>1452</ele>
        <time>2017-02-28T18:31:38Z</time>
      </trkpt>
      <trkpt lat="44.43459" lon="3.64951">
        <ele>1461</ele>
        <time>2017-02-28T18:33:38Z</time>
      </trkpt>
      <trkpt lat="44.43447" lon="3.65028">
        <ele>1467</ele>
        <time>2017-02-28T18:35:38Z</time>
      </trkpt>
      <trkpt lat="44.43445" lon="3.65039">
        <ele>1468</ele>
        <time>2017-02-28T18:37:38Z</time>
      </trkpt>
      <trkpt lat="44.43444" lon="3.65058">
        <ele>1469</ele>
        <time>2017-02-28T18:39:38Z</time>
      </trkpt>
      <trkpt lat="44.43443" lon="3.65141">
        <ele>1475</ele>
        <time>2017-02-28T18:41:38Z</time>
      </trkpt>
      <trkpt lat="44.43441" lon="3.65225">
        <ele>1482</ele>
        <time>2017-02-28T18:43:38Z</time>
      </trkpt>
      <trkpt lat="44.4344" lon="3.65306">
        <ele>1488</ele>
        <time>2017-02-28T18:45:38Z</time>
      </trkpt>
      <trkpt lat="44.43441" lon="3.65397">
        <ele>1496</ele>
        <time>2017-02-28T18:47:38Z</time>
      </trkpt>
      <trkpt lat="44.43442" lon="3.65446">
        <ele>1500</ele>
        <time>2017-02-28T18:49:38Z</time>
      </trkpt>
      <trkpt lat="44.43442" lon="3.6545">
        <ele>1500</ele>
        <time>2017-02-28T18:51:38Z</time>
      </trkpt>
      <trkpt lat="44.43444" lon="3.65473">
        <ele>1502</ele>
        <time>2017-02-28T18:53:38Z</time>
      </trkpt>
      <trkpt lat="44.43448" lon="3.65498">
        <ele>1504</ele>
        <time>2017-02-28T18:55:38Z</time>
      </trkpt>
      <trkpt lat="44.43453" lon="3.65528">
        <ele>1505</ele>
        <time>2017-02-28T18:57:38Z</time>
      </trkpt>
      <trkpt lat="44.4346" lon="3.65565">
        <ele>1506</ele>
        <time>2017-02-28T18:59:38Z</time>
      </trkpt>
      <trkpt lat="44.43472" lon="3.65619">
        <ele>1508</ele>
        <time>2017-02-28T19:01:38Z</time>
      </trkpt>
      <trkpt lat="44.43488" lon="3.65689">
        <ele>1510</ele>
        <time>2017-02-28T19:03:38Z</time>
      </trkpt>
      <trkpt lat="44.43506" lon="3.6576">
        <ele>1514</ele>
        <time>2017-02-28T19:05:38Z</time>
      </trkpt>
      <trkpt lat="44.43515" lon="3.65801">
        <ele>1516</ele>
        <time>2017-02-28T19:07:38Z</time>
      </trkpt>
      <trkpt lat="44.43524" lon="3.65833">
        <ele>1518</ele>
        <time>2017-02-28T19:09:38Z</time>
      </trkpt>
      <trkpt lat="44.43533" lon="3.65865">
        <ele>1521</ele>
        <time>2017-02-28T19:11:38Z</time>
      </trkpt>
      <trkpt lat="44.43541" lon="3.65886">
        <ele>1523</ele>
        <time>2017-02-28T19:13:38Z</time>
      </trkpt>
      <trkpt lat="44.43554" lon="3.65913">
        <ele>1526</ele>
        <time>2017-02-28T19:15:38Z</time>
      </trkpt>
      <trkpt lat="44.4357" lon="3.65939">
        <ele>1528</ele>
        <time>2017-02-28T19:17:38Z</time>
      </trkpt>
      <trkpt lat="44.43583" lon="3.65961">
        <ele>1529</ele>
        <time>2017-02-28T19:19:38Z</time>
      </trkpt>
      <trkpt lat="44.43605" lon="3.65987">
        <ele>1530</ele>
        <time>2017-02-28T19:21:38Z</time>
      </trkpt>
      <trkpt lat="44.43625" lon="3.66009">
        <ele>1530</ele>
        <time>2017-02-28T19:23:38Z</time>
      </trkpt>
      <trkpt lat="44.43643" lon="3.6603">
        <ele>1530</ele>
        <time>2017-02-28T19:25:38Z</time>
      </trkpt>
      <trkpt lat="44.43651" lon="3.66042">
        <ele>1530</ele>
        <time>2017-02-28T19:27:38Z</time>
      </trkpt>
      <trkpt lat="44.43658" lon="3.66051">
        <ele>1531</ele>
        <time>2017-02-28T19:29:38Z</time>
      </trkpt>
      <trkpt lat="44.43665" lon="3.66057">
        <ele>1531</ele>
        <time>2017-02-28T19:31:38Z</time>
      </trkpt>
      <trkpt lat="44.43679" lon="3.66069">
        <ele>1532</ele>
        <time>2017-02-28T19:33:38Z</time>
      </trkpt>
      <trkpt lat="44.43711" lon="3.661">
        <ele>1532</ele>
        <time>2017-02-28T19:35:38Z</time>
      </trkpt>
      <trkpt lat="44.43733" lon="3.6612">
        <ele>1533</ele>
        <time>2017-02-28T19:37:38Z</time>
      </trkpt>
      <trkpt lat="44.43746" lon="3.66162">
        <ele>1533</ele>
        <time>2017-02-28T19:39:38Z</time>
      </trkpt>
      <trkpt lat="44.4376" lon="3.66211">
        <ele>1533</ele>
        <time>2017-02-28T19:41:38Z</time>
      </trkpt>
      <trkpt lat="44.43765" lon="3.66235">
        <ele>1533</ele>
        <time>2017-02-28T19:43:38Z</time>
      </trkpt>
      <trkpt lat="44.43767" lon="3.66253">
        <ele>1532</ele>
        <time>2017-02-28T19:45:38Z</time>
      </trkpt>
      <trkpt lat="44.43767" lon="3.66274">
        <ele>1533</ele>
        <time>2017-02-28T19:47:38Z</time>
      </trkpt>
      <trkpt lat="44.43767" lon="3.663">
        <ele>1533</ele>
        <time>2017-02-28T19:49:38Z</time>
      </trkpt>
      <trkpt lat="44.43764" lon="3.66343">
        <ele>1534</ele>
        <time>2017-02-28T19:51:38Z</time>
      </trkpt>
      <trkpt lat="44.4376" lon="3.66396">
        <ele>1535</ele>
        <time>2017-02-28T19:53:38Z</time>
      </trkpt>
      <trkpt lat="44.43757" lon="3.66422">
        <ele>1536</ele>
        <time>2017-02-28T19:55:38Z</time>
      </trkpt>
      <trkpt lat="44.43751" lon="3.6646">
        <ele>1537</ele>
        <time>2017-02-28T19:57:38Z</time>
      </trkpt>
      <trkpt lat="44.43743" lon="3.66499">
        <ele>1537</ele>
        <time>2017-02-28T19:59:38Z</time>
      </trkpt>
      <trkpt lat="44.43735" lon="3.66537">
        <ele>1539</ele>
        <time>2017-02-28T20:01:38Z</time>
      </trkpt>
      <trkpt lat="44.43731" lon="3.66549">
        <ele>1540</ele>
        <time>2017-02-28T20:03:38Z</time>
      </trkpt>
      <trkpt lat="44.43719" lon="3.6658">
        <ele>1540</ele>
        <time>2017-02-28T20:05:38Z</time>
      </trkpt>
      <trkpt lat="44.43707" lon="3.66606">
        <ele>1541</ele>
        <time>2017-02-28T20:07:38Z</time>
      </trkpt>
      <trkpt lat="44.43701" lon="3.66616">
        <ele>1541</ele>
        <time>2017-02-28T20:09:38Z</time>
      </trkpt>
      <trkpt lat="44.43698" lon="3.66622">
        <ele>1541</ele>
        <time>2017-02-28T20:11:38Z</time>
      </trkpt>
      <trkpt lat="44.4368" lon="3.66646">
        <ele>1540</ele>
        <time>2017-02-28T20:13:38Z</time>
      </trkpt>
      <trkpt lat="44.43664" lon="3.66666">
        <ele>1540</ele>
        <time>2017-02-28T20:15:38Z</time>
      </trkpt>
      <trkpt lat="44.4364" lon="3.66691">
        <ele>1542</ele>
        <time>2017-02-28T20:17:38Z</time>
      </trkpt>
      <trkpt lat="44.43618" lon="3.66711">
        <ele>1544</ele>
        <time>2017-02-28T20:19:38Z</time>
      </trkpt>
      <trkpt lat="44.43589" lon="3.66732">
        <ele>1545</ele>
        <time>2017-02-28T20:21:38Z</time>
      </trkpt>
      <trkpt lat="44.43561" lon="3.66751">
        <ele>1545</ele>
        <time>2017-02-28T20:23:38Z</time>
      </trkpt>
      <trkpt lat="44.43529" lon="3.66769">
        <ele>1546</ele>
        <time>2017-02-28T20:25:38Z</time>
      </trkpt>
      <trkpt lat="44.43493" lon="3.66785">
        <ele>1547</ele>
        <time>2017-02-28T20:27:38Z</time>
      </trkpt>
      <trkpt lat="44.43457" lon="3.66802">
        <ele>1548</ele>
        <time>2017-02-28T20:29:38Z</time>
      </trkpt>
      <trkpt lat="44.4344" lon="3.66813">
        <ele>1549</ele>
        <time>2017-02-28T20:31:38Z</time>
      </trkpt>
      <trkpt lat="44.43431" lon="3.6682">
        <ele>1549</ele>
        <time>2017-02-28T20:33:38Z</time>
      </trkpt>
      <trkpt lat="44.43423" lon="3.66829">
        <ele>1550</ele>
        <time>2017-02-28T20:35:38Z</time>
      </trkpt>
      <trkpt lat="44.43418" lon="3.66836">
        <ele>1550</ele>
        <time>2017-02-28T20:37:38Z</time>
      </trkpt>
      <trkpt lat="44.43414" lon="3.66845">
        <ele>1550</ele>
        <time>2017-02-28T20:39:38Z</time>
      </trkpt>
      <trkpt lat="44.43411" lon="3.66859">
        <ele>1551</ele>
        <time>2017-02-28T20:41:38Z</time>
      </trkpt>
      <trkpt lat="44.43408" lon="3.66873">
        <ele>1551</ele>
        <time>2017-02-28T20:43:38Z</time>
      </trkpt>
      <trkpt lat="44.43407" lon="3.66892">
        <ele>1552</ele>
        <time>2017-02-28T20:45:38Z</time>
      </trkpt>
      <trkpt lat="44.43406" lon="3.66912">
        <ele>1553</ele>
        <time>2017-02-28T20:47:38Z</time>
      </trkpt>
      <trkpt lat="44.43406" lon="3.66931">
        <ele>1553</ele>
        <time>2017-02-28T20:49:38Z</time>
      </trkpt>
      <trkpt lat="44.43407" lon="3.66954">
        <ele>1554</ele>
        <time>2017-02-28T20:51:38Z</time>
      </trkpt>
      <trkpt lat="44.43409" lon="3.66976">
        <ele>1554</ele>
        <time>2017-02-28T20:53:38Z</time>
      </trkpt>
      <trkpt lat="44.43424" lon="3.67086">
        <ele>1557</ele>
        <time>2017-02-28T20:55:38Z</time>
      </trkpt>
      <trkpt lat="44.4343" lon="3.67143">
        <ele>1557</ele>
        <time>2017-02-28T20:57:38Z</time>
      </trkpt>
      <trkpt lat="44.43435" lon="3.67168">
        <ele>1557</ele>
        <time>2017-02-28T20:59:38Z</time>
      </trkpt>
      <trkpt lat="44.43438" lon="3.6718">
        <ele>1557</ele>
        <time>2017-02-28T21:01:38Z</time>
      </trkpt>
      <trkpt lat="44.43442" lon="3.67192">
        <ele>1557</ele>
        <time>2017-02-28T21:03:38Z</time>
      </trkpt>
      <trkpt lat="44.43447" lon="3.67204">
        <ele>1557</ele>
        <time>2017-02-28T21:05:38Z</time>
      </trkpt>
      <trkpt lat="44.43453" lon="3.67214">
        <ele>1557</ele>
        <time>2017-02-28T21:07:38Z</time>
      </trkpt>
      <trkpt lat="44.43461" lon="3.67224">
        <ele>1557</ele>
        <time>2017-02-28T21:09:38Z</time>
      </trkpt>
      <trkpt lat="44.43486" lon="3.67253">
        <ele>1558</ele>
        <time>2017-02-28T21:11:38Z</time>
      </trkpt>
      <trkpt lat="44.43531" lon="3.67302">
        <ele>1558</ele>
        <time>2017-02-28T21:13:38Z</time>
      </trkpt>
      <trkpt lat="44.4356" lon="3.67331">
        <ele>1559</ele>
        <time>2017-02-28T21:15:38Z</time>
      </trkpt>
      <trkpt lat="44.43572" lon="3.67342">
        <ele>1559</ele>
        <time>2017-02-28T21:17:38Z</time>
      </trkpt>
      <trkpt lat="44.43581" lon="3.67352">
        <ele>1559</ele>
        <time>2017-02-28T21:19:38Z</time>
      </trkpt>
      <trkpt lat="44.43589" lon="3.67363">
        <ele>1560</ele>
        <time>2017-02-28T21:21:38Z</time>
      </trkpt>
      <trkpt lat="44.43595" lon="3.67376">
        <ele>1559</ele>
        <time>2017-02-28T21:23:38Z</time>
      </trkpt>
      <trkpt lat="44.43601" lon="3.67388">
        <ele>1559</ele>
        <time>2017-02-28T21:25:38Z</time>
      </trkpt>
      <trkpt lat="44.43606" lon="3.67403">
        <ele>1559</ele>
        <time>2017-02-28T21:27:38Z</time>
      </trkpt>
      <trkpt lat="44.4361" lon="3.67419">
        <ele>1558</ele>
        <time>2017-02-28T21:29:38Z</time>
      </trkpt>
      <trkpt lat="44.43614" lon="3.67436">
        <ele>1559</ele>
        <time>2017-02-28T21:31:38Z</time>
      </trkpt>
      <trkpt lat="44.43616" lon="3.67454">
        <ele>1558</ele>
        <time>2017-02-28T21:33:38Z</time>
      </trkpt>
      <trkpt lat="44.43617" lon="3.67471">
        <ele>1558</ele>
        <time>2017-02-28T21:35:38Z</time>
      </trkpt>
      <trkpt lat="44.43618" lon="3.67507">
        <ele>1558</ele>
        <time>2017-02-28T21:37:38Z</time>
      </trkpt>
      <trkpt lat="44.43618" lon="3.6751">
        <ele>1558</ele>
        <time>2017-02-28T21:39:38Z</time>
      </trkpt>
      <trkpt lat="44.43618" lon="3.67553">
        <ele>1558</ele>
        <time>2017-02-28T21:41:38Z</time>
      </trkpt>
      <trkpt lat="44.43618" lon="3.67562">
        <ele>1558</ele>
        <time>2017-02-28T21:43:38Z</time>
      </trkpt>
      <trkpt lat="44.43619" lon="3.6766">
        <ele>1559</ele>
        <time>2017-02-28T21:45:38Z</time>
      </trkpt>
      <trkpt lat="44.43619" lon="3.67722">
        <ele>1559</ele>
        <time>2017-02-28T21:47:38Z</time>
      </trkpt>
      <trkpt lat="44.43619" lon="3.67734">
        <ele>1559</ele>
        <time>2017-02-28T21:49:38Z</time>
      </trkpt>
      <trkpt lat="44.43619" lon="3.67757">
        <ele>1559</ele>
        <time>2017-02-28T21:51:38Z</time>
      </trkpt>
      <trkpt lat="44.43619" lon="3.67778">
        <ele>1559</ele>
        <time>2017-02-28T21:53:38Z</time>
      </trkpt>
      <trkpt lat="44.43617" lon="3.67799">
        <ele>1558</ele>
        <time>2017-02-28T21:55:38Z</time>
      </trkpt>
      <trkpt lat="44.43614" lon="3.67822">
        <ele>1558</ele>
        <time>2017-02-28T21:57:38Z</time>
      </trkpt>
      <trkpt lat="44.43609" lon="3.67844">
        <ele>1557</ele>
        <time>2017-02-28T21:59:38Z</time>
      </trkpt>
      <trkpt lat="44.43604" lon="3.6786">
        <ele>1557</ele>
        <time>2017-02-28T22:01:38Z</time>
      </trkpt>
      <trkpt lat="44.43598" lon="3.67877">
        <ele>1556</ele>
        <time>2017-02-28T22:03:38Z</time>
      </trkpt>
      <trkpt lat="44.43586" lon="3.67908">
        <ele>1556</ele>
        <time>2017-02-28T22:05:38Z</time>
      </trkpt>
      <trkpt lat="44.43571" lon="3.67947">
        <ele>1555</ele>
        <time>2017-02-28T22:07:38Z</time>
      </trkpt>
      <trkpt lat="44.43559" lon="3.67979">
        <ele>1554</ele>
        <time>2017-02-28T22:09:38Z</time>
      </trkpt>
      <trkpt lat="44.4355" lon="3.67998">
        <ele>1553</ele>
        <time>2017-02-28T22:11:38Z</time>
      </trkpt>
      <trkpt lat="44.43539" lon="3.68014">
        <ele>1553</ele>
        <time>2017-02-28T22:13:38Z</time>
      </trkpt>
      <trkpt lat="44.43528" lon="3.68032">
        <ele>1552</ele>
        <time>2017-02-28T22:15:38Z</time>
      </trkpt>
      <trkpt lat="44.43519" lon="3.68046">
        <ele>1552</ele>
        <time>2017-02-28T22:17:38Z</time>
      </trkpt>
      <trkpt lat="44.43513" lon="3.68057">
        <ele>1552</ele>
        <time>2017-02-28T22:19:38Z</time>
      </trkpt>
      <trkpt lat="44.4351" lon="3.68068">
        <ele>1552</ele>
        <time>2017-02-28T22:21:38Z</time>
      </trkpt>
      <trkpt lat="44.43508" lon="3.68082">
        <ele>1552</ele>
        <time>2017-02-28T22:23:38Z</time>
      </trkpt>
      <trkpt lat="44.43507" lon="3.68096">
        <ele>1552</ele>
        <time>2017-02-28T22:25:38Z</time>
      </trkpt>
      <trkpt lat="44.43509" lon="3.68109">
        <ele>1553</ele>
        <time>2017-02-28T22:27:38Z</time>
      </trkpt>
      <trkpt lat="44.43512" lon="3.68121">
        <ele>1553</ele>
        <time>2017-02-28T22:29:38Z</time>
      </trkpt>
      <trkpt lat="44.43517" lon="3.68134">
        <ele>1553</ele>
        <time>2017-02-28T22:31:38Z</time>
      </trkpt>
      <trkpt lat="44.43532" lon="3.68156">
        <ele>1553</ele>
        <time>2017-02-28T22:33:38Z</time>
      </trkpt>
      <trkpt lat="44.4356" lon="3.68198">
        <ele>1553</ele>
        <time>2017-02-28T22:35:38Z</time>
      </trkpt>
      <trkpt lat="44.43581" lon="3.68224">
        <ele>1553</ele>
        <time>2017-02-28T22:37:38Z</time>
      </trkpt>
      <trkpt lat="44.43593" lon="3.68239">
        <ele>1552</ele>
        <time>2017-02-28T22:39:38Z</time>
      </trkpt>
      <trkpt lat="44.43599" lon="3.6825">
        <ele>1552</ele>
        <time>2017-02-28T22:41:38Z</time>
      </trkpt>
      <trkpt lat="44.43604" lon="3.68262">
        <ele>1551</ele>
        <time>2017-02-28T22:43:38Z</time>
      </trkpt>
      <trkpt lat="44.43609" lon="3.68278">
        <ele>1550</ele>
        <time>2017-02-28T22:45:38Z</time>
      </trkpt>
      <trkpt lat="44.43613" lon="3.68297">
        <ele>1550</ele>
        <time>2017-02-28T22:47:38Z</time>
      </trkpt>
      <trkpt lat="44.43618" lon="3.68322">
        <ele>1549</ele>
        <time>2017-02-28T22:49:38Z</time>
      </trkpt>
      <trkpt lat="44.43623" lon="3.68338">
        <ele>1548</ele>
        <time>2017-02-28T22:51:38Z</time>
      </trkpt>
      <trkpt lat="44.43632" lon="3.68373">
        <ele>1547</ele>
        <time>2017-02-28T22:53:38Z</time>
      </trkpt>
      <trkpt lat="44.43638" lon="3.68404">
        <ele>1546</ele>
        <time>2017-02-28T22:55:38Z</time>
      </trkpt>
      <trkpt lat="44.4364" lon="3.68423">
        <ele>1546</ele>
        <time>2017-02-28T22:57:38Z</time>
      </trkpt>
      <trkpt lat="44.43641" lon="3.68437">
        <ele>1545</ele>
        <time>2017-02-28T22:59:38Z</time>
      </trkpt>
      <trkpt lat="44.43639" lon="3.68453">
        <ele>1545</ele>
        <time>2017-02-28T23:01:38Z</time>
      </trkpt>
      <trkpt lat="44.43636" lon="3.68476">
        <ele>1545</ele>
        <time>2017-02-28T23:03:38Z</time>
      </trkpt>
      <trkpt lat="44.43632" lon="3.68507">
        <ele>1544</ele>
        <time>2017-02-28T23:05:38Z</time>
      </trkpt>
      <trkpt lat="44.4363" lon="3.68525">
        <ele>1544</ele>
        <time>2017-02-28T23:07:38Z</time>
      </trkpt>
      <trkpt lat="44.43628" lon="3.68552">
        <ele>1543</ele>
        <time>2017-02-28T23:09:38Z</time>
      </trkpt>
      <trkpt lat="44.43624" lon="3.6864">
        <ele>1542</ele>
        <time>2017-02-28T23:11:38Z</time>
      </trkpt>
      <trkpt lat="44.43622" lon="3.68665">
        <ele>1542</ele>
        <time>2017-02-28T23:13:38Z</time>
      </trkpt>
      <trkpt lat="44.4362" lon="3.68684">
        <ele>1542</ele>
        <time>2017-02-28T23:15:38Z</time>
      </trkpt>
      <trkpt lat="44.43617" lon="3.68705">
        <ele>1541</ele>
        <time>2017-02-28T23:17:38Z</time>
      </trkpt>
      <trkpt lat="44.43615" lon="3.68717">
        <ele>1541</ele>
        <time>2017-02-28T23:19:38Z</time>
      </trkpt>
      <trkpt lat="44.43615" lon="3.68729">
        <ele>1541</ele>
        <time>2017-02-28T23:21:38Z</time>
      </trkpt>
      <trkpt lat="44.43616" lon="3.68739">
        <ele>1541</ele>
        <time>2017-02-28T23:23:38Z</time>
      </trkpt>
      <trkpt lat="44.4362" lon="3.68763">
        <ele>1540</ele>
        <time>2017-02-28T23:25:38Z</time>
      </trkpt>
      <trkpt lat="44.43625" lon="3.68789">
        <ele>1539</ele>
        <time>2017-02-28T23:27:38Z</time>
      </trkpt>
      <trkpt lat="44.43628" lon="3.68808">
        <ele>1539</ele>
        <time>2017-02-28T23:29:38Z</time>
      </trkpt>
      <trkpt lat="44.43628" lon="3.68808">
        <ele>1539</ele>
        <time>2017-02-28T23:31:38Z</time>
      </trkpt>
      <trkpt lat="44.43613" lon="3.68824">
        <ele>1540</ele>
        <time>2017-02-28T23:33:38Z</time>
      </trkpt>
      <trkpt lat="44.43611" lon="3.68827">
        <ele>1540</ele>
        <time>2017-02-28T23:35:38Z</time>
      </trkpt>
      <trkpt lat="44.43608" lon="3.68833">
        <ele>1541</ele>
        <time>2017-02-28T23:37:38Z</time>
      </trkpt>
      <trkpt lat="44.436" lon="3.68853">
        <ele>1542</ele>
        <time>2017-02-28T23:39:38Z</time>
      </trkpt>
      <trkpt lat="44.43584" lon="3.68891">
        <ele>1544</ele>
        <time>2017-02-28T23:41:38Z</time>
      </trkpt>
      <trkpt lat="44.43572" lon="3.68919">
        <ele>1545</ele>
        <time>2017-02-28T23:43:38Z</time>
      </trkpt>
      <trkpt lat="44.43561" lon="3.6895">
        <ele>1546</ele>
        <time>2017-02-28T23:45:38Z</time>
      </trkpt>
      <trkpt lat="44.43545" lon="3.68986">
        <ele>1548</ele>
        <time>2017-02-28T23:47:38Z</time>
      </trkpt>
      <trkpt lat="44.43531" lon="3.69017">
        <ele>1549</ele>
        <time>2017-02-28T23:49:38Z</time>
      </trkpt>
      <trkpt lat="44.43519" lon="3.69044">
        <ele>1550</ele>
        <time>2017-02-28T23:51:38Z</time>
      </trkpt>
      <trkpt lat="44.43507" lon="3.69074">
        <ele>1552</ele>
        <time>2017-02-28T23:53:38Z</time>
      </trkpt>
      <trkpt lat="44.43501" lon="3.69088">
        <ele>1552</ele>
        <time>2017-02-28T23:55:38Z</time>
      </trkpt>
      <trkpt lat="44.43498" lon="3.69095">
        <ele>1553</ele>
        <time>2017-02-28T23:57:38Z</time>
      </trkpt>
      <trkpt lat="44.43494" lon="3.69102">
        <ele>1553</ele>
        <time>2017-02-28T23:59:38Z</time>
      </trkpt>
      <trkpt lat="44.43486" lon="3.69118">
        <ele>1554</ele>
        <time>2017-03-01T00:01:38Z</time>
      </trkpt>
      <trkpt lat="44.43484" lon="3.69123">
        <ele>1554</ele>
        <time>2017-03-01T00:03:38Z</time>
      </trkpt>
      <trkpt lat="44.43472" lon="3.69149">
        <ele>1555</ele>
        <time>2017-03-01T00:05:38Z</time>
      </trkpt>
      <trkpt lat="44.43459" lon="3.69169">
        <ele>1556</ele>
        <time>2017-03-01T00:07:38Z</time>
      </trkpt>
      <trkpt lat="44.43455" lon="3.69174">
        <ele>1557</ele>
        <time>2017-03-01T00:09:38Z</time>
      </trkpt>
      <trkpt lat="44.43438" lon="3.69198">
        <ele>1559</ele>
        <time>2017-03-01T00:11:38Z</time>
      </trkpt>
      <trkpt lat="44.43419" lon="3.69224">
        <ele>1561</ele>
        <time>2017-03-01T00:13:38Z</time>
      </trkpt>
      <trkpt lat="44.43407" lon="3.69237">
        <ele>1562</ele>
        <time>2017-03-01T00:15:38Z</time>
      </trkpt>
      <trkpt lat="44.43395" lon="3.69249">
        <ele>1563</ele>
        <time>2017-03-01T00:17:38Z</time>
      </trkpt>
      <trkpt lat="44.43381" lon="3.69265">
        <ele>1564</ele>
        <time>2017-03-01T00:19:38Z</time>
      </trkpt>
      <trkpt lat="44.43362" lon="3.69287">
        <ele>1565</ele>
        <time>2017-03-01T00:21:38Z</time>
      </trkpt>
      <trkpt lat="44.43342" lon="3.69304">
        <ele>1566</ele>
        <time>2017-03-01T00:23:38Z</time>
      </trkpt>
      <trkpt lat="44.43338" lon="3.69307">
        <ele>1566</ele>
        <time>2017-03-01T00:25:38Z</time>
      </trkpt>
      <trkpt lat="44.43325" lon="3.69319">
        <ele>1567</ele>
        <time>2017-03-01T00:27:38Z</time>
      </trkpt>
      <trkpt lat="44.43306" lon="3.69328">
        <ele>1567</ele>
        <time>2017-03-01T00:29:38Z</time>
      </trkpt>
      <trkpt lat="44.43288" lon="3.6934">
        <ele>1567</ele>
        <time>2017-03-01T00:31:38Z</time>
      </trkpt>
      <trkpt lat="44.43262" lon="3.69359">
        <ele>1569</ele>
        <time>2017-03-01T00:33:38Z</time>
      </trkpt>
      <trkpt lat="44.43247" lon="3.69368">
        <ele>1569</ele>
        <time>2017-03-01T00:35:38Z</time>
      </trkpt>
      <trkpt lat="44.43237" lon="3.69372">
        <ele>1570</ele>
        <time>2017-03-01T00:37:38Z</time>
      </trkpt>
      <trkpt lat="44.43219" lon="3.69378">
        <ele>1570</ele>
        <time>2017-03-01T00:39:38Z</time>
      </trkpt>
      <trkpt lat="44.43199" lon="3.69385">
        <ele>1570</ele>
        <time>2017-03-01T00:41:38Z</time>
      </trkpt>
      <trkpt lat="44.43176" lon="3.69394">
        <ele>1571</ele>
        <time>2017-03-01T00:43:38Z</time>
      </trkpt>
      <trkpt lat="44.43156" lon="3.694">
        <ele>1571</ele>
        <time>2017-03-01T00:45:38Z</time>
      </trkpt>
      <trkpt lat="44.4313" lon="3.69405">
        <ele>1571</ele>
        <time>2017-03-01T00:47:38Z</time>
      </trkpt>
      <trkpt lat="44.43099" lon="3.69411">
        <ele>1571</ele>
        <time>2017-03-01T00:49:38Z</time>
      </trkpt>
      <trkpt lat="44.43084" lon="3.69414">
        <ele>1571</ele>
        <time>2017-03-01T00:51:38Z</time>
      </trkpt>
      <trkpt lat="44.4307" lon="3.69416">
        <ele>1571</ele>
        <time>2017-03-01T00:53:38Z</time>
      </trkpt>
      <trkpt lat="44.43062" lon="3.69416">
        <ele>1571</ele>
        <time>2017-03-01T00:55:38Z</time>
      </trkpt>
      <trkpt lat="44.43038" lon="3.69425">
        <ele>1572</ele>
        <time>2017-03-01T00:57:38Z</time>
      </trkpt>
      <trkpt lat="44.43023" lon="3.69429">
        <ele>1572</ele>
        <time>2017-03-01T00:59:38Z</time>
      </trkpt>
      <trkpt lat="44.4301" lon="3.69434">
        <ele>1572</ele>
        <time>2017-03-01T01:01:38Z</time>
      </trkpt>
      <trkpt lat="44.42999" lon="3.69439">
        <ele>1573</ele>
        <time>2017-03-01T01:03:38Z</time>
      </trkpt>
      <trkpt lat="44.42989" lon="3.69447">
        <ele>1573</ele>
        <time>2017-03-01T01:05:38Z</time>
      </trkpt>
      <trkpt lat="44.42976" lon="3.6946">
        <ele>1574</ele>
        <time>2017-03-01T01:07:38Z</time>
      </trkpt>
      <trkpt lat="44.42955" lon="3.69485">
        <ele>1576</ele>
        <time>2017-03-01T01:09:38Z</time>
      </trkpt>
      <trkpt lat="44.42937" lon="3.69511">
        <ele>1577</ele>
        <time>2017-03-01T01:11:38Z</time>
      </trkpt>
      <trkpt lat="44.42919" lon="3.69537">
        <ele>1578</ele>
        <time>2017-03-01T01:13:38Z</time>
      </trkpt>
      <trkpt lat="44.42903" lon="3.69564">
        <ele>1580</ele>
        <time>2017-03-01T01:15:38Z</time>
      </trkpt>
      <trkpt lat="44.42887" lon="3.69596">
        <ele>1581</ele>
        <time>2017-03-01T01:17:38Z</time>
      </trkpt>
      <trkpt lat="44.42862" lon="3.69651">
        <ele>1584</ele>
        <time>2017-03-01T01:19:38Z</time>
      </trkpt>
      <trkpt lat="44.4284" lon="3.697">
        <ele>1586</ele>
        <time>2017-03-01T01:21:38Z</time>
      </trkpt>
      <trkpt lat="44.42818" lon="3.69745">
        <ele>1587</ele>
        <time>2017-03-01T01:23:38Z</time>
      </trkpt>
      <trkpt lat="44.42798" lon="3.69786">
        <ele>1588</ele>
        <time>2017-03-01T01:25:38Z</time>
      </trkpt>
      <trkpt lat="44.42786" lon="3.69811">
        <ele>1589</ele>
        <time>2017-03-01T01:27:38Z</time>
      </trkpt>
      <trkpt lat="44.42775" lon="3.69838">
        <ele>1590</ele>
        <time>2017-03-01T01:29:38Z</time>
      </trkpt>
      <trkpt lat="44.42769" lon="3.69858">
        <ele>1591</ele>
        <time>2017-03-01T01:31:38Z</time>
      </trkpt>
      <trkpt lat="44.4276" lon="3.69888">
        <ele>1592</ele>
        <time>2017-03-01T01:33:38Z</time>
      </trkpt>
      <trkpt lat="44.42753" lon="3.69918">
        <ele>1593</ele>
        <time>2017-03-01T01:35:38Z</time>
      </trkpt>
      <trkpt lat="44.42748" lon="3.69943">
        <ele>1593</ele>
        <time>2017-03-01T01:37:38Z</time>
      </trkpt>
      <trkpt lat="44.42748" lon="3.69945">
        <ele>1594</ele>
        <time>2017-03-01T01:39:38Z</time>
      </trkpt>
      <trkpt lat="44.42748" lon="3.69963">
        <ele>1594</ele>
        <time>2017-03-01T01:41:38Z</time>
      </trkpt>
      <trkpt lat="44.42749" lon="3.69971">
        <ele>1594</ele>
        <time>2017-03-01T01:43:38Z</time>
      </trkpt>
      <trkpt lat="44.42751" lon="3.69983">
        <ele>1595</ele>
        <time>2017-03-01T01:45:38Z</time>
      </trkpt>
      <trkpt lat="44.42762" lon="3.70015">
        <ele>1597</ele>
        <time>2017-03-01T01:47:38Z</time>
      </trkpt>
      <trkpt lat="44.42774" lon="3.70049">
        <ele>1598</ele>
        <time>2017-03-01T01:49:38Z</time>
      </trkpt>
      <trkpt lat="44.42784" lon="3.70076">
        <ele>1599</ele>
        <time>2017-03-01T01:51:38Z</time>
      </trkpt>
      <trkpt lat="44.4279" lon="3.70097">
        <ele>1600</ele>
        <time>2017-03-01T01:53:38Z</time>
      </trkpt>
      <trkpt lat="44.42797" lon="3.70127">
        <ele>1600</ele>
        <time>2017-03-01T01:55:38Z</time>
      </trkpt>
      <trkpt lat="44.42802" lon="3.70157">
        <ele>1600</ele>
        <time>2017-03-01T01:57:38Z</time>
      </trkpt>
      <trkpt lat="44.4281" lon="3.70205">
        <ele>1600</ele>
        <time>2017-03-01T01:59:38Z</time>
      </trkpt>
      <trkpt lat="44.42816" lon="3.70246">
        <ele>1601</ele>
        <time>2017-03-01T02:01:38Z</time>
      </trkpt>
      <trkpt lat="44.42821" lon="3.70291">
        <ele>1603</ele>
        <time>2017-03-01T02:03:38Z</time>
      </trkpt>
      <trkpt lat="44.42825" lon="3.70335">
        <ele>1605</ele>
        <time>2017-03-01T02:05:38Z</time>
      </trkpt>
      <trkpt lat="44.42827" lon="3.70363">
        <ele>1605</ele>
        <time>2017-03-01T02:07:38Z</time>
      </trkpt>
      <trkpt lat="44.42828" lon="3.70393">
        <ele>1606</ele>
        <time>2017-03-01T02:09:38Z</time>
      </trkpt>
      <trkpt lat="44.42829" lon="3.70436">
        <ele>1607</ele>
        <time>2017-03-01T02:11:38Z</time>
      </trkpt>
      <trkpt lat="44.42828" lon="3.70464">
        <ele>1608</ele>
        <time>2017-03-01T02:13:38Z</time>
      </trkpt>
      <trkpt lat="44.42827" lon="3.70487">
        <ele>1609</ele>
        <time>2017-03-01T02:15:38Z</time>
      </trkpt>
      <trkpt lat="44.42822" lon="3.7051">
        <ele>1609</ele>
        <time>2017-03-01T02:17:38Z</time>
      </trkpt>
      <trkpt lat="44.42817" lon="3.70528">
        <ele>1609</ele>
        <time>2017-03-01T02:19:38Z</time>
      </trkpt>
      <trkpt lat="44.42802" lon="3.7057">
        <ele>1609</ele>
        <time>2017-03-01T02:21:38Z</time>
      </trkpt>
      <trkpt lat="44.42783" lon="3.70621">
        <ele>1609</ele>
        <time>2017-03-01T02:23:38Z</time>
      </trkpt>
      <trkpt lat="44.42754" lon="3.70691">
        <ele>1607</ele>
        <time>2017-03-01T02:25:38Z</time>
      </trkpt>
      <trkpt lat="44.42742" lon="3.70724">
        <ele>1607</ele>
        <time>2017-03-01T02:27:38Z</time>
      </trkpt>
      <trkpt lat="44.42738" lon="3.70742">
        <ele>1607</ele>
        <time>2017-03-01T02:29:38Z</time>
      </trkpt>
      <trkpt lat="44.42736" lon="3.70754">
        <ele>1606</ele>
        <time>2017-03-01T02:31:38Z</time>
      </trkpt>
      <trkpt lat="44.42735" lon="3.70767">
        <ele>1606</ele>
        <time>2017-03-01T02:33:38Z</time>
      </trkpt>
      <trkpt lat="44.42736" lon="3.70781">
        <ele>1606</ele>
        <time>2017-03-01T02:35:38Z</time>
      </trkpt>
      <trkpt lat="44.42738" lon="3.70796">
        <ele>1606</ele>
        <time>2017-03-01T02:37:38Z</time>
      </trkpt>
      <trkpt lat="44.42743" lon="3.7081">
        <ele>1606</ele>
        <time>2017-03-01T02:39:38Z</time>
      </trkpt>
      <trkpt lat="44.42756" lon="3.70838">
        <ele>1607</ele>
        <time>2017-03-01T02:41:38Z</time>
      </trkpt>
      <trkpt lat="44.42772" lon="3.70867">
        <ele>1606</ele>
        <time>2017-03-01T02:43:38Z</time>
      </trkpt>
      <trkpt lat="44.42785" lon="3.7089">
        <ele>1606</ele>
        <time>2017-03-01T02:45:38Z</time>
      </trkpt>
      <trkpt lat="44.42804" lon="3.70917">
        <ele>1606</ele>
        <time>2017-03-01T02:47:38Z</time>
      </trkpt>
      <trkpt lat="44.42821" lon="3.70937">
        <ele>1605</ele>
        <time>2017-03-01T02:49:38Z</time>
      </trkpt>
      <trkpt lat="44.42836" lon="3.70952">
        <ele>1604</ele>
        <time>2017-03-01T02:51:38Z</time>
      </trkpt>
      <trkpt lat="44.42859" lon="3.70972">
        <ele>1604</ele>
        <time>2017-03-01T02:53:38Z</time>
      </trkpt>
      <trkpt lat="44.42884" lon="3.70993">
        <ele>1605</ele>
        <time>2017-03-01T02:55:38Z</time>
      </trkpt>
      <trkpt lat="44.42904" lon="3.71014">
        <ele>1606</ele>
        <time>2017-03-01T02:57:38Z</time>
      </trkpt>
      <trkpt lat="44.42916" lon="3.71028">
        <ele>1606</ele>
        <time>2017-03-01T02:59:38Z</time>
      </trkpt>
      <trkpt lat="44.42926" lon="3.71042">
        <ele>1606</ele>
        <time>2017-03-01T03:01:38Z</time>
      </trkpt>
      <trkpt lat="44.42934" lon="3.7106">
        <ele>1605</ele>
        <time>2017-03-01T03:03:38Z</time>
      </trkpt>
      <trkpt lat="44.4294" lon="3.71076">
        <ele>1604</ele>
        <time>2017-03-01T03:05:38Z</time>
      </trkpt>
      <trkpt lat="44.42945" lon="3.71092">
        <ele>1604</ele>
        <time>2017-03-01T03:07:38Z</time>
      </trkpt>
      <trkpt lat="44.42954" lon="3.71129">
        <ele>1603</ele>
        <time>2017-03-01T03:09:38Z</time>
      </trkpt>
      <trkpt lat="44.42965" lon="3.71191">
        <ele>1603</ele>
        <time>2017-03-01T03:11:38Z</time>
      </trkpt>
      <trkpt lat="44.42971" lon="3.71231">
        <ele>1604</ele>
        <time>2017-03-01T03:13:38Z</time>
      </trkpt>
      <trkpt lat="44.42972" lon="3.71249">
        <ele>1605</ele>
        <time>2017-03-01T03:15:38Z</time>
      </trkpt>
      <trkpt lat="44.42971" lon="3.71261">
        <ele>1605</ele>
        <time>2017-03-01T03:17:38Z</time>
      </trkpt>
      <trkpt lat="44.42969" lon="3.7128">
        <ele>1605</ele>
        <time>2017-03-01T03:19:38Z</time>
      </trkpt>
      <trkpt lat="44.42963" lon="3.71306">
        <ele>1605</ele>
        <time>2017-03-01T03:21:38Z</time>
      </trkpt>
      <trkpt lat="44.42953" lon="3.71335">
        <ele>1604</ele>
        <time>2017-03-01T03:23:38Z</time>
      </trkpt>
      <trkpt lat="44.42941" lon="3.71364">
        <ele>1605</ele>
        <time>2017-03-01T03:25:38Z</time>
      </trkpt>
      <trkpt lat="44.4293" lon="3.71385">
        <ele>1605</ele>
        <time>2017-03-01T03:27:38Z</time>
      </trkpt>
      <trkpt lat="44.42914" lon="3.71413">
        <ele>1604</ele>
        <time>2017-03-01T03:29:38Z</time>
      </trkpt>
      <trkpt lat="44.42887" lon="3.7146">
        <ele>1607</ele>
        <time>2017-03-01T03:31:38Z</time>
      </trkpt>
      <trkpt lat="44.42843" lon="3.71537">
        <ele>1613</ele>
        <time>2017-03-01T03:33:38Z</time>
      </trkpt>
      <trkpt lat="44.4281" lon="3.7159">
        <ele>1615</ele>
        <time>2017-03-01T03:35:38Z</time>
      </trkpt>
      <trkpt lat="44.4278" lon="3.71641">
        <ele>1616</ele>
        <time>2017-03-01T03:37:38Z</time>
      </trkpt>
      <trkpt lat="44.42759" lon="3.71675">
        <ele>1617</ele>
        <time>2017-03-01T03:39:38Z</time>
      </trkpt>
      <trkpt lat="44.42742" lon="3.71709">
        <ele>1617</ele>
        <time>2017-03-01T03:41:38Z</time>
      </trkpt>
      <trkpt lat="44.42707" lon="3.7178">
        <ele>1617</ele>
        <time>2017-03-01T03:43:38Z</time>
      </trkpt>
      <trkpt lat="44.42671" lon="3.71855">
        <ele>1620</ele>
        <time>2017-03-01T03:45:38Z</time>
      </trkpt>
      <trkpt lat="44.42636" lon="3.71928">
        <ele>1623</ele>
        <time>2017-03-01T03:47:38Z</time>
      </trkpt>
      <trkpt lat="44.42607" lon="3.71989">
        <ele>1625</ele>
        <time>2017-03-01T03:49:38Z</time>
      </trkpt>
      <trkpt lat="44.42592" lon="3.72027">
        <ele>1627</ele>
        <time>2017-03-01T03:51:38Z</time>
      </trkpt>
      <trkpt lat="44.42579" lon="3.72051">
        <ele>1627</ele>
        <time>2017-03-01T03:53:38Z</time>
      </trkpt>
      <trkpt lat="44.42565" lon="3.72091">
        <ele>1629</ele>
        <time>2017-03-01T03:55:38Z</time>
      </trkpt>
      <trkpt lat="44.42548" lon="3.72143">
        <ele>1631</ele>
        <time>2017-03-01T03:57:38Z</time>
      </trkpt>
      <trkpt lat="44.42536" lon="3.72193">
        <ele>1633</ele>
        <time>2017-03-01T03:59:38Z</time>
      </trkpt>
      <trkpt lat="44.42527" lon="3.72237">
        <ele>1635</ele>
        <time>2017-03-01T04:01:38Z</time>
      </trkpt>
      <trkpt lat="44.42522" lon="3.72261">
        <ele>1636</ele>
        <time>2017-03-01T04:03:38Z</time>
      </trkpt>
      <trkpt lat="44.42519" lon="3.72281">
        <ele>1636</ele>
        <time>2017-03-01T04:05:38Z</time>
      </trkpt>
      <trkpt lat="44.42517" lon="3.72298">
        <ele>1637</ele>
        <time>2017-03-01T04:07:38Z</time>
      </trkpt>
      <trkpt lat="44.42517" lon="3.72311">
        <ele>1637</ele>
        <time>2017-03-01T04:09:38Z</time>
      </trkpt>
      <trkpt lat="44.42518" lon="3.72322">
        <ele>1638</ele>
        <time>2017-03-01T04:11:38Z</time>
      </trkpt>
      <trkpt lat="44.42519" lon="3.72334">
        <ele>1638</ele>
        <time>2017-03-01T04:13:38Z</time>
      </trkpt>
      <trkpt lat="44.42523" lon="3.72345">
        <ele>1638</ele>
        <time>2017-03-01T04:15:38Z</time>
      </trkpt>
      <trkpt lat="44.42529" lon="3.72363">
        <ele>1639</ele>
        <time>2017-03-01T04:17:38Z</time>
      </trkpt>
      <trkpt lat="44.42546" lon="3.72405">
        <ele>1641</ele>
        <time>2017-03-01T04:19:38Z</time>
      </trkpt>
      <trkpt lat="44.42584" lon="3.72492">
        <ele>1644</ele>
        <time>2017-03-01T04:21:38Z</time>
      </trkpt>
      <trkpt lat="44.42617" lon="3.7257">
        <ele>1644</ele>
        <time>2017-03-01T04:23:38Z</time>
      </trkpt>
      <trkpt lat="44.42641" lon="3.72632">
        <ele>1645</ele>
        <time>2017-03-01T04:25:38Z</time>
      </trkpt>
      <trkpt lat="44.42655" lon="3.72673">
        <ele>1646</ele>
        <time>2017-03-01T04:27:38Z</time>
      </trkpt>
      <trkpt lat="44.42662" lon="3.72693">
        <ele>1648</ele>
        <time>2017-03-01T04:29:38Z</time>
      </trkpt>
      <trkpt lat="44.42667" lon="3.72712">
        <ele>1649</ele>
        <time>2017-03-01T04:31:38Z</time>
      </trkpt>
      <trkpt lat="44.42671" lon="3.72731">
        <ele>1649</ele>
        <time>2017-03-01T04:33:38Z</time>
      </trkpt>
      <trkpt lat="44.42673" lon="3.72752">
        <ele>1649</ele>
        <time>2017-03-01T04:35:38Z</time>
      </trkpt>
      <trkpt lat="44.42675" lon="3.7277">
        <ele>1650</ele>
        <time>2017-03-01T04:37:38Z</time>
      </trkpt>
      <trkpt lat="44.42675" lon="3.72795">
        <ele>1650</ele>
        <time>2017-03-01T04:39:38Z</time>
      </trkpt>
      <trkpt lat="44.42673" lon="3.72825">
        <ele>1650</ele>
        <time>2017-03-01T04:41:38Z</time>
      </trkpt>
      <trkpt lat="44.42671" lon="3.72853">
        <ele>1651</ele>
        <time>2017-03-01T04:43:38Z</time>
      </trkpt>
      <trkpt lat="44.42667" lon="3.72877">
        <ele>1652</ele>
        <time>2017-03-01T04:45:38Z</time>
      </trkpt>
      <trkpt lat="44.42663" lon="3.72897">
        <ele>1652</ele>
        <time>2017-03-01T04:47:38Z</time>
      </trkpt>
      <trkpt lat="44.42657" lon="3.72918">
        <ele>1652</ele>
        <time>2017-03-01T04:49:38Z</time>
      </trkpt>
      <trkpt lat="44.4265" lon="3.72938">
        <ele>1653</ele>
        <time>2017-03-01T04:51:38Z</time>
      </trkpt>
      <trkpt lat="44.42642" lon="3.7296">
        <ele>1653</ele>
        <time>2017-03-01T04:53:38Z</time>
      </trkpt>
      <trkpt lat="44.42632" lon="3.72982">
        <ele>1654</ele>
        <time>2017-03-01T04:55:38Z</time>
      </trkpt>
      <trkpt lat="44.42621" lon="3.73006">
        <ele>1655</ele>
        <time>2017-03-01T04:57:38Z</time>
      </trkpt>
      <trkpt lat="44.42604" lon="3.73036">
        <ele>1655</ele>
        <time>2017-03-01T04:59:38Z</time>
      </trkpt>
      <trkpt lat="44.42583" lon="3.73069">
        <ele>1655</ele>
        <time>2017-03-01T05:01:38Z</time>
      </trkpt>
      <trkpt lat="44.42567" lon="3.73092">
        <ele>1656</ele>
        <time>2017-03-01T05:03:38Z</time>
      </trkpt>
      <trkpt lat="44.42547" lon="3.73119">
        <ele>1656</ele>
        <time>2017-03-01T05:05:38Z</time>
      </trkpt>
      <trkpt lat="44.42533" lon="3.73138">
        <ele>1657</ele>
        <time>2017-03-01T05:07:38Z</time>
      </trkpt>
      <trkpt lat="44.42521" lon="3.73153">
        <ele>1657</ele>
        <time>2017-03-01T05:09:38Z</time>
      </trkpt>
      <trkpt lat="44.42506" lon="3.73169">
        <ele>1657</ele>
        <time>2017-03-01T05:11:38Z</time>
      </trkpt>
      <trkpt lat="44.42491" lon="3.73184">
        <ele>1656</ele>
        <time>2017-03-01T05:13:38Z</time>
      </trkpt>
      <trkpt lat="44.42483" lon="3.73193">
        <ele>1656</ele>
        <time>2017-03-01T05:15:38Z</time>
      </trkpt>
      <trkpt lat="44.42474" lon="3.73207">
        <ele>1655</ele>
        <time>2017-03-01T05:17:38Z</time>
      </trkpt>
      <trkpt lat="44.42456" lon="3.73237">
        <ele>1656</ele>
        <time>2017-03-01T05:19:38Z</time>
      </trkpt>
      <trkpt lat="44.42435" lon="3.73277">
        <ele>1657</ele>
        <time>2017-03-01T05:21:38Z</time>
      </trkpt>
      <trkpt lat="44.42417" lon="3.73309">
        <ele>1658</ele>
        <time>2017-03-01T05:23:38Z</time>
      </trkpt>
      <trkpt lat="44.42408" lon="3.73325">
        <ele>1659</ele>
        <time>2017-03-01T05:25:38Z</time>
      </trkpt>
      <trkpt lat="44.42393" lon="3.73349">
        <ele>1660</ele>
        <time>2017-03-01T05:27:38Z</time>
      </trkpt>
      <trkpt lat="44.42363" lon="3.7339">
        <ele>1662</ele>
        <time>2017-03-01T05:29:38Z</time>
      </trkpt>
      <trkpt lat="44.42332" lon="3.73433">
        <ele>1664</ele>
        <time>2017-03-01T05:31:38Z</time>
      </trkpt>
      <trkpt lat="44.42304" lon="3.73474">
        <ele>1668</ele>
        <time>2017-03-01T05:33:38Z</time>
      </trkpt>
      <trkpt lat="44.4228" lon="3.73506">
        <ele>1670</ele>
        <time>2017-03-01T05:35:38Z</time>
      </trkpt>
      <trkpt lat="44.42258" lon="3.73532">
        <ele>1671</ele>
        <time>2017-03-01T05:37:38Z</time>
      </trkpt>
      <trkpt lat="44.42238" lon="3.73556">
        <ele>1670</ele>
        <time>2017-03-01T05:39:38Z</time>
      </trkpt>
      <trkpt lat="44.42233" lon="3.73563">
        <ele>1669</ele>
        <time>2017-03-01T05:41:38Z</time>
      </trkpt>
      <trkpt lat="44.4223" lon="3.73569">
        <ele>1669</ele>
        <time>2017-03-01T05:43:38Z</time>
      </trkpt>
      <trkpt lat="44.4223" lon="3.73577">
        <ele>1670</ele>
        <time>2017-03-01T05:45:38Z</time>
      </trkpt>
      <trkpt lat="44.4223" lon="3.73592">
        <ele>1669</ele>
        <time>2017-03-01T05:47:38Z</time>
      </trkpt>
      <trkpt lat="44.42231" lon="3.7361">
        <ele>1669</ele>
        <time>2017-03-01T05:49:38Z</time>
      </trkpt>
      <trkpt lat="44.42233" lon="3.73628">
        <ele>1668</ele>
        <time>2017-03-01T05:51:38Z</time>
      </trkpt>
      <trkpt lat="44.42239" lon="3.73667">
        <ele>1668</ele>
        <time>2017-03-01T05:53:38Z</time>
      </trkpt>
      <trkpt lat="44.42246" lon="3.73713">
        <ele>1666</ele>
        <time>2017-03-01T05:55:38Z</time>
      </trkpt>
      <trkpt lat="44.42253" lon="3.7375">
        <ele>1665</ele>
        <time>2017-03-01T05:57:38Z</time>
      </trkpt>
      <trkpt lat="44.4226" lon="3.73785">
        <ele>1665</ele>
        <time>2017-03-01T05:59:38Z</time>
      </trkpt>
      <trkpt lat="44.42265" lon="3.73819">
        <ele>1665</ele>
        <time>2017-03-01T06:01:38Z</time>
      </trkpt>
      <trkpt lat="44.42268" lon="3.73841">
        <ele>1664</ele>
        <time>2017-03-01T06:03:38Z</time>
      </trkpt>
      <trkpt lat="44.4227" lon="3.73863">
        <ele>1664</ele>
        <time>2017-03-01T06:05:38Z</time>
      </trkpt>
      <trkpt lat="44.4227" lon="3.73884">
        <ele>1664</ele>
        <time>2017-03-01T06:07:38Z</time>
      </trkpt>
      <trkpt lat="44.4227" lon="3.73892">
        <ele>1664</ele>
        <time>2017-03-01T06:09:38Z</time>
      </trkpt>
      <trkpt lat="44.4227" lon="3.73892">
        <ele>1664</ele>
        <time>2017-03-01T06:11:38Z</time>
      </trkpt>
      <trkpt lat="44.42278" lon="3.73888">
        <ele>1665</ele>
        <time>2017-03-01T06:13:38Z</time>
      </trkpt>
      <trkpt lat="44.42297" lon="3.73884">
        <ele>1668</ele>
        <time>2017-03-01T06:15:38Z</time>
      </trkpt>
      <trkpt lat="44.42335" lon="3.73881">
        <ele>1674</ele>
        <time>2017-03-01T06:17:38Z</time>
      </trkpt>
      <trkpt lat="44.42376" lon="3.73875">
        <ele>1680</ele>
        <time>2017-03-01T06:19:38Z</time>
      </trkpt>
      <trkpt lat="44.42409" lon="3.73872">
        <ele>1684</ele>
        <time>2017-03-01T06:21:38Z</time>
      </trkpt>
      <trkpt lat="44.42437" lon="3.73873">
        <ele>1688</ele>
        <time>2017-03-01T06:23:38Z</time>
      </trkpt>
      <trkpt lat="44.42454" lon="3.73874">
        <ele>1689</ele>
        <time>2017-03-01T06:25:38Z</time>
      </trkpt>
      <trkpt lat="44.42496" lon="3.73885">
        <ele>1694</ele>
        <time>2017-03-01T06:27:38Z</time>
      </trkpt>
      <trkpt lat="44.4253" lon="3.73894">
        <ele>1695</ele>
        <time>2017-03-01T06:29:38Z</time>
      </trkpt>
      <trkpt lat="44.42549" lon="3.739">
        <ele>1696</ele>
        <time>2017-03-01T06:31:38Z</time>
      </trkpt>
      <trkpt lat="44.4259" lon="3.73912">
        <ele>1698</ele>
        <time>2017-03-01T06:33:38Z</time>
      </trkpt>
      <trkpt lat="44.42608" lon="3.73917">
        <ele>1697</ele>
        <time>2017-03-01T06:35:38Z</time>
      </trkpt>
      <trkpt lat="44.42608" lon="3.73917">
        <ele>1697</ele>
        <time>2017-03-01T06:37:38Z</time>
      </trkpt>
      <trkpt lat="44.4261" lon="3.73943">
        <ele>1697</ele>
        <time>2017-03-01T06:39:38Z</time>
      </trkpt>
      <trkpt lat="44.42612" lon="3.73973">
        <ele>1696</ele>
        <time>2017-03-01T06:41:38Z</time>
      </trkpt>
      <trkpt lat="44.42615" lon="3.73999">
        <ele>1696</ele>
        <time>2017-03-01T06:43:38Z</time>
      </trkpt>
      <trkpt lat="44.42619" lon="3.74028">
        <ele>1694</ele>
        <time>2017-03-01T06:45:38Z</time>
      </trkpt>
      <trkpt lat="44.42625" lon="3.74062">
        <ele>1691</ele>
        <time>2017-03-01T06:47:38Z</time>
      </trkpt>
      <trkpt lat="44.42631" lon="3.74116">
        <ele>1687</ele>
        <time>2017-03-01T06:49:38Z</time>
      </trkpt>
      <trkpt lat="44.42638" lon="3.74157">
        <ele>1684</ele>
        <time>2017-03-01T06:51:38Z</time>
      </trkpt>
      <trkpt lat="44.42648" lon="3.74195">
        <ele>1681</ele>
        <time>2017-03-01T06:53:38Z</time>
      </trkpt>
      <trkpt lat="44.42656" lon="3.74238">
        <ele>1679</ele>
        <time>2017-03-01T06:55:38Z</time>
      </trkpt>
      <trkpt lat="44.42662" lon="3.74267">
        <ele>1678</ele>
        <time>2017-03-01T06:57:38Z</time>
      </trkpt>
      <trkpt lat="44.42665" lon="3.7428">
        <ele>1677</ele>
        <time>2017-03-01T06:59:38Z</time>
      </trkpt>
      <trkpt lat="44.42671" lon="3.74295">
        <ele>1677</ele>
        <time>2017-03-01T07:01:38Z</time>
      </trkpt>
      <trkpt lat="44.42677" lon="3.74314">
        <ele>1676</ele>
        <time>2017-03-01T07:03:38Z</time>
      </trkpt>
      <trkpt lat="44.42683" lon="3.74338">
        <ele>1676</ele>
        <time>2017-03-01T07:05:38Z</time>
      </trkpt>
      <trkpt lat="44.42694" lon="3.74381">
        <ele>1678</ele>
        <time>2017-03-01T07:07:38Z</time>
      </trkpt>
      <trkpt lat="44.42706" lon="3.74421">
        <ele>1680</ele>
        <time>2017-03-01T07:09:38Z</time>
      </trkpt>
      <trkpt lat="44.42716" lon="3.7445">
        <ele>1681</ele>
        <time>2017-03-01T07:11:38Z</time>
      </trkpt>
      <trkpt lat="44.42724" lon="3.74475">
        <ele>1681</ele>
        <time>2017-03-01T07:13:38Z</time>
      </trkpt>
      <trkpt lat="44.4273" lon="3.7449">
        <ele>1681</ele>
        <time>2017-03-01T07:15:38Z</time>
      </trkpt>
      <trkpt lat="44.42738" lon="3.74505">
        <ele>1682</ele>
        <time>2017-03-01T07:17:38Z</time>
      </trkpt>
      <trkpt lat="44.42742" lon="3.74511">
        <ele>1682</ele>
        <time>2017-03-01T07:19:38Z</time>
      </trkpt>
      <trkpt lat="44.42741" lon="3.74514">
        <ele>1681</ele>
        <time>2017-03-01T07:21:38Z</time>
      </trkpt>
      <trkpt lat="44.42739" lon="3.74518">
        <ele>1681</ele>
        <time>2017-03-01T07:23:38Z</time>
      </trkpt>
      <trkpt lat="44.42721" lon="3.74544">
        <ele>1681</ele>
        <time>2017-03-01T07:25:38Z</time>
      </trkpt>
      <trkpt lat="44.42704" lon="3.74564">
        <ele>1680</ele>
        <time>2017-03-01T07:27:38Z</time>
      </trkpt>
      <trkpt lat="44.42693" lon="3.74578">
        <ele>1680</ele>
        <time>2017-03-01T07:29:38Z</time>
      </trkpt>
      <trkpt lat="44.42687" lon="3.74591">
        <ele>1679</ele>
        <time>2017-03-01T07:31:38Z</time>
      </trkpt>
      <trkpt lat="44.42681" lon="3.7461">
        <ele>1678</ele>
        <time>2017-03-01T07:33:38Z</time>
      </trkpt>
      <trkpt lat="44.42675" lon="3.74635">
        <ele>1677</ele>
        <time>2017-03-01T07:35:38Z</time>
      </trkpt>
      <trkpt lat="44.42671" lon="3.74654">
        <ele>1676</ele>
        <time>2017-03-01T07:37:38Z</time>
      </trkpt>
      <trkpt lat="44.42667" lon="3.74688">
        <ele>1674</ele>
        <time>2017-03-01T07:39:38Z</time>
      </trkpt>
      <trkpt lat="44.42662" lon="3.7473">
        <ele>1671</ele>
        <time>2017-03-01T07:41:38Z</time>
      </trkpt>
      <trkpt lat="44.42662" lon="3.74736">
        <ele>1671</ele>
        <time>2017-03-01T07:43:38Z</time>
      </trkpt>
      <trkpt lat="44.42657" lon="3.74793">
        <ele>1667</ele>
        <time>2017-03-01T07:45:38Z</time>
      </trkpt>
      <trkpt lat="44.42654" lon="3.74828">
        <ele>1665</ele>
        <time>2017-03-01T07:47:38Z</time>
      </trkpt>
      <trkpt lat="44.42651" lon="3.74866">
        <ele>1661</ele>
        <time>2017-03-01T07:49:38Z</time>
      </trkpt>
      <trkpt lat="44.42648" lon="3.74917">
        <ele>1656</ele>
        <time>2017-03-01T07:51:38Z</time>
      </trkpt>
      <trkpt lat="44.42645" lon="3.74964">
        <ele>1652</ele>
        <time>2017-03-01T07:53:38Z</time>
      </trkpt>
      <trkpt lat="44.42642" lon="3.74987">
        <ele>1650</ele>
        <time>2017-03-01T07:55:38Z</time>
      </trkpt>
      <trkpt lat="44.42643" lon="3.75003">
        <ele>1649</ele>
        <time>2017-03-01T07:57:38Z</time>
      </trkpt>
      <trkpt lat="44.42644" lon="3.7502">
        <ele>1646</ele>
        <time>2017-03-01T07:59:38Z</time>
      </trkpt>
      <trkpt lat="44.42646" lon="3.75035">
        <ele>1644</ele>
        <time>2017-03-01T08:01:38Z</time>
      </trkpt>
      <trkpt lat="44.42648" lon="3.75056">
        <ele>1641</ele>
        <time>2017-03-01T08:03:38Z</time>
      </trkpt>
      <trkpt lat="44.42648" lon="3.75061">
        <ele>1640</ele>
        <time>2017-03-01T08:05:38Z</time>
      </trkpt>
      <trkpt lat="44.42645" lon="3.75069">
        <ele>1639</ele>
        <time>2017-03-01T08:07:38Z</time>
      </trkpt>
      <trkpt lat="44.4264" lon="3.75084">
        <ele>1638</ele>
        <time>2017-03-01T08:09:38Z</time>
      </trkpt>
      <trkpt lat="44.42639" lon="3.75094">
        <ele>1637</ele>
        <time>2017-03-01T08:11:38Z</time>
      </trkpt>
      <trkpt lat="44.42637" lon="3.75118">
        <ele>1635</ele>
        <time>2017-03-01T08:13:38Z</time>
      </trkpt>
      <trkpt lat="44.42636" lon="3.75142">
        <ele>1634</ele>
        <time>2017-03-01T08:15:38Z</time>
      </trkpt>
      <trkpt lat="44.42636" lon="3.75142">
        <ele>1634</ele>
        <time>2017-03-01T08:17:38Z</time>
      </trkpt>
      <trkpt lat="44.42627" lon="3.75148">
        <ele>1634</ele>
        <time>2017-03-01T08:19:38Z</time>
      </trkpt>
      <trkpt lat="44.42615" lon="3.75156">
        <ele>1634</ele>
        <time>2017-03-01T08:21:38Z</time>
      </trkpt>
      <trkpt lat="44.42605" lon="3.75157">
        <ele>1634</ele>
        <time>2017-03-01T08:23:38Z</time>
      </trkpt>
      <trkpt lat="44.42587" lon="3.75162">
        <ele>1635</ele>
        <time>2017-03-01T08:25:38Z</time>
      </trkpt>
      <trkpt lat="44.42576" lon="3.75165">
        <ele>1635</ele>
        <time>2017-03-01T08:27:38Z</time>
      </trkpt>
      <trkpt lat="44.42567" lon="3.75166">
        <ele>1634</ele>
        <time>2017-03-01T08:29:38Z</time>
      </trkpt>
      <trkpt lat="44.42564" lon="3.75166">
        <ele>1634</ele>
        <time>2017-03-01T08:31:38Z</time>
      </trkpt>
      <trkpt lat="44.42561" lon="3.75166">
        <ele>1634</ele>
        <time>2017-03-01T08:33:38Z</time>
      </trkpt>
      <trkpt lat="44.42553" lon="3.75164">
        <ele>1634</ele>
        <time>2017-03-01T08:35:38Z</time>
      </trkpt>
      <trkpt lat="44.42546" lon="3.75162">
        <ele>1634</ele>
        <time>2017-03-01T08:37:38Z</time>
      </trkpt>
      <trkpt lat="44.42539" lon="3.7516">
        <ele>1634</ele>
        <time>2017-03-01T08:39:38Z</time>
      </trkpt>
      <trkpt lat="44.42517" lon="3.75153">
        <ele>1633</ele>
        <time>2017-03-01T08:41:38Z</time>
      </trkpt>
      <trkpt lat="44.425" lon="3.75148">
        <ele>1633</ele>
        <time>2017-03-01T08:43:38Z</time>
      </trkpt>
      <trkpt lat="44.4249" lon="3.75152">
        <ele>1632</ele>
        <time>2017-03-01T08:45:38Z</time>
      </trkpt>
      <trkpt lat="44.42474" lon="3.75157">
        <ele>1631</ele>
        <time>2017-03-01T08:47:38Z</time>
      </trkpt>
      <trkpt lat="44.42462" lon="3.75157">
        <ele>1630</ele>
        <time>2017-03-01T08:49:38Z</time>
      </trkpt>
      <trkpt lat="44.42445" lon="3.75156">
        <ele>1628</ele>
        <time>2017-03-01T08:51:38Z</time>
      </trkpt>
      <trkpt lat="44.42423" lon="3.7515">
        <ele>1627</ele>
        <time>2017-03-01T08:53:38Z</time>
      </trkpt>
      <trkpt lat="44.42402" lon="3.75145">
        <ele>1624</ele>
        <time>2017-03-01T08:55:38Z</time>
      </trkpt>
      <trkpt lat="44.4239" lon="3.75142">
        <ele>1622</ele>
        <time>2017-03-01T08:57:38Z</time>
      </trkpt>
      <trkpt lat="44.42383" lon="3.75143">
        <ele>1621</ele>
        <time>2017-03-01T08:59:38Z</time>
      </trkpt>
      <trkpt lat="44.42377" lon="3.75143">
        <ele>1620</ele>
        <time>2017-03-01T09:01:38Z</time>
      </trkpt>
      <trkpt lat="44.42371" lon="3.7514">
        <ele>1619</ele>
        <time>2017-03-01T09:03:38Z</time>
      </trkpt>
      <trkpt lat="44.42366" lon="3.7514">
        <ele>1619</ele>
        <time>2017-03-01T09:05:38Z</time>
      </trkpt>
      <trkpt lat="44.4236" lon="3.75139">
        <ele>1618</ele>
        <time>2017-03-01T09:07:38Z</time>
      </trkpt>
      <trkpt lat="44.42354" lon="3.75139">
        <ele>1617</ele>
        <time>2017-03-01T09:09:38Z</time>
      </trkpt>
      <trkpt lat="44.42348" lon="3.7514">
        <ele>1616</ele>
        <time>2017-03-01T09:11:38Z</time>
      </trkpt>
      <trkpt lat="44.42337" lon="3.75141">
        <ele>1614</ele>
        <time>2017-03-01T09:13:38Z</time>
      </trkpt>
      <trkpt lat="44.4232" lon="3.75139">
        <ele>1611</ele>
        <time>2017-03-01T09:15:38Z</time>
      </trkpt>
      <trkpt lat="44.42302" lon="3.75134">
        <ele>1608</ele>
        <time>2017-03-01T09:17:38Z</time>
      </trkpt>
      <trkpt lat="44.42292" lon="3.7513">
        <ele>1606</ele>
        <time>2017-03-01T09:19:38Z</time>
      </trkpt>
      <trkpt lat="44.42284" lon="3.75127">
        <ele>1605</ele>
        <time>2017-03-01T09:21:38Z</time>
      </trkpt>
      <trkpt lat="44.42282" lon="3.75124">
        <ele>1604</ele>
        <time>2017-03-01T09:23:38Z</time>
      </trkpt>
      <trkpt lat="44.42278" lon="3.75117">
        <ele>1603</ele>
        <time>2017-03-01T09:25:38Z</time>
      </trkpt>
      <trkpt lat="44.42272" lon="3.75112">
        <ele>1601</ele>
        <time>2017-03-01T09:27:38Z</time>
      </trkpt>
      <trkpt lat="44.42264" lon="3.75107">
        <ele>1599</ele>
        <time>2017-03-01T09:29:38Z</time>
      </trkpt>
      <trkpt lat="44.4226" lon="3.75106">
        <ele>1599</ele>
        <time>2017-03-01T09:31:38Z</time>
      </trkpt>
      <trkpt lat="44.42251" lon="3.75108">
        <ele>1597</ele>
        <time>2017-03-01T09:33:38Z</time>
      </trkpt>
      <trkpt lat="44.42246" lon="3.75106">
        <ele>1596</ele>
        <time>2017-03-01T09:35:38Z</time>
      </trkpt>
      <trkpt lat="44.42241" lon="3.75103">
        <ele>1595</ele>
        <time>2017-03-01T09:37:38Z</time>
      </trkpt>
      <trkpt lat="44.42235" lon="3.75102">
        <ele>1593</ele>
        <time>2017-03-01T09:39:38Z</time>
      </trkpt>
      <trkpt lat="44.4223" lon="3.75101">
        <ele>1592</ele>
        <time>2017-03-01T09:41:38Z</time>
      </trkpt>
      <trkpt lat="44.42228" lon="3.75101">
        <ele>1592</ele>
        <time>2017-03-01T09:43:38Z</time>
      </trkpt>
      <trkpt lat="44.42222" lon="3.751">
        <ele>1590</ele>
        <time>2017-03-01T09:45:38Z</time>
      </trkpt>
      <trkpt lat="44.42214" lon="3.75098">
        <ele>1588</ele>
        <time>2017-03-01T09:47:38Z</time>
      </trkpt>
      <trkpt lat="44.42199" lon="3.75096">
        <ele>1585</ele>
        <time>2017-03-01T09:49:38Z</time>
      </trkpt>
      <trkpt lat="44.42176" lon="3.75091">
        <ele>1579</ele>
        <time>2017-03-01T09:51:38Z</time>
      </trkpt>
      <trkpt lat="44.42166" lon="3.75089">
        <ele>1576</ele>
        <time>2017-03-01T09:53:38Z</time>
      </trkpt>
      <trkpt lat="44.42162" lon="3.75091">
        <ele>1576</ele>
        <time>2017-03-01T09:55:38Z</time>
      </trkpt>
      <trkpt lat="44.42159" lon="3.75091">
        <ele>1575</ele>
        <time>2017-03-01T09:57:38Z</time>
      </trkpt>
      <trkpt lat="44.42157" lon="3.7509">
        <ele>1574</ele>
        <time>2017-03-01T09:59:38Z</time>
      </trkpt>
      <trkpt lat="44.42153" lon="3.75088">
        <ele>1573</ele>
        <time>2017-03-01T10:01:38Z</time>
      </trkpt>
      <trkpt lat="44.4215" lon="3.7509">
        <ele>1573</ele>
        <time>2017-03-01T10:03:38Z</time>
      </trkpt>
      <trkpt lat="44.42145" lon="3.75091">
        <ele>1572</ele>
        <time>2017-03-01T10:05:38Z</time>
      </trkpt>
      <trkpt lat="44.4214" lon="3.7509">
        <ele>1571</ele>
        <time>2017-03-01T10:07:38Z</time>
      </trkpt>
      <trkpt lat="44.42136" lon="3.75088">
        <ele>1570</ele>
        <time>2017-03-01T10:09:38Z</time>
      </trkpt>
      <trkpt lat="44.42135" lon="3.75085">
        <ele>1569</ele>
        <time>2017-03-01T10:11:38Z</time>
      </trkpt>
      <trkpt lat="44.42133" lon="3.75084">
        <ele>1569</ele>
        <time>2017-03-01T10:13:38Z</time>
      </trkpt>
      <trkpt lat="44.42128" lon="3.7508">
        <ele>1567</ele>
        <time>2017-03-01T10:15:38Z</time>
      </trkpt>
      <trkpt lat="44.42124" lon="3.75079">
        <ele>1566</ele>
        <time>2017-03-01T10:17:38Z</time>
      </trkpt>
      <trkpt lat="44.4212" lon="3.75078">
        <ele>1565</ele>
        <time>2017-03-01T10:19:38Z</time>
      </trkpt>
      <trkpt lat="44.4212" lon="3.75078">
        <ele>1565</ele>
        <time>2017-03-01T10:21:38Z</time>
      </trkpt>
      <trkpt lat="44.42119" lon="3.75068">
        <ele>1564</ele>
        <time>2017-03-01T10:23:38Z</time>
      </trkpt>
      <trkpt lat="44.4212" lon="3.75062">
        <ele>1564</ele>
        <time>2017-03-01T10:25:38Z</time>
      </trkpt>
      <trkpt lat="44.42121" lon="3.75057">
        <ele>1563</ele>
        <time>2017-03-01T10:27:38Z</time>
      </trkpt>
      <trkpt lat="44.42121" lon="3.75055">
        <ele>1563</ele>
        <time>2017-03-01T10:29:38Z</time>
      </trkpt>
      <trkpt lat="44.42121" lon="3.75054">
        <ele>1563</ele>
        <time>2017-03-01T10:31:38Z</time>
      </trkpt>
      <trkpt lat="44.42119" lon="3.75053">
        <ele>1563</ele>
        <time>2017-03-01T10:33:38Z</time>
      </trkpt>
      <trkpt lat="44.42113" lon="3.75054">
        <ele>1561</ele>
        <time>2017-03-01T10:35:38Z</time>
      </trkpt>
      <trkpt lat="44.42096" lon="3.75056">
        <ele>1558</ele>
        <time>2017-03-01T10:37:38Z</time>
      </trkpt>
      <trkpt lat="44.42065" lon="3.75063">
        <ele>1551</ele>
        <time>2017-03-01T10:39:38Z</time>
      </trkpt>
      <trkpt lat="44.42043" lon="3.75066">
        <ele>1546</ele>
        <time>2017-03-01T10:41:38Z</time>
      </trkpt>
      <trkpt lat="44.42038" lon="3.75067">
        <ele>1545</ele>
        <time>2017-03-01T10:43:38Z</time>
      </trkpt>
      <trkpt lat="44.42035" lon="3.75069">
        <ele>1545</ele>
        <time>2017-03-01T10:45:38Z</time>
      </trkpt>
      <trkpt lat="44.4203" lon="3.75073">
        <ele>1544</ele>
        <time>2017-03-01T10:47:38Z</time>
      </trkpt>
      <trkpt lat="44.42027" lon="3.75075">
        <ele>1544</ele>
        <time>2017-03-01T10:49:38Z</time>
      </trkpt>
      <trkpt lat="44.42025" lon="3.75074">
        <ele>1543</ele>
        <time>2017-03-01T10:51:38Z</time>
      </trkpt>
      <trkpt lat="44.42024" lon="3.75072">
        <ele>1543</ele>
        <time>2017-03-01T10:53:38Z</time>
      </trkpt>
      <trkpt lat="44.42024" lon="3.75068">
        <ele>1542</ele>
        <time>2017-03-01T10:55:38Z</time>
      </trkpt>
      <trkpt lat="44.42028" lon="3.75054">
        <ele>1541</ele>
        <time>2017-03-01T10:57:38Z</time>
      </trkpt>
      <trkpt lat="44.42036" lon="3.75035">
        <ele>1539</ele>
        <time>2017-03-01T10:59:38Z</time>
      </trkpt>
      <trkpt lat="44.4204" lon="3.75025">
        <ele>1539</ele>
        <time>2017-03-01T11:01:38Z</time>
      </trkpt>
      <trkpt lat="44.42041" lon="3.75024">
        <ele>1539</ele>
        <time>2017-03-01T11:03:38Z</time>
      </trkpt>
      <trkpt lat="44.4204" lon="3.75021">
        <ele>1538</ele>
        <time>2017-03-01T11:05:38Z</time>
      </trkpt>
      <trkpt lat="44.42039" lon="3.7502">
        <ele>1538</ele>
        <time>2017-03-01T11:07:38Z</time>
      </trkpt>
      <trkpt lat="44.42038" lon="3.7502">
        <ele>1537</ele>
        <time>2017-03-01T11:09:38Z</time>
      </trkpt>
      <trkpt lat="44.4203" lon="3.75022">
        <ele>1535</ele>
        <time>2017-03-01T11:11:38Z</time>
      </trkpt>
      <trkpt lat="44.4201" lon="3.75031">
        <ele>1532</ele>
        <time>2017-03-01T11:13:38Z</time>
      </trkpt>
      <trkpt lat="44.42" lon="3.75038">
        <ele>1530</ele>
        <time>2017-03-01T11:15:38Z</time>
      </trkpt>
      <trkpt lat="44.41997" lon="3.7504">
        <ele>1530</ele>
        <time>2017-03-01T11:17:38Z</time>
      </trkpt>
      <trkpt lat="44.41995" lon="3.75039">
        <ele>1529</ele>
        <time>2017-03-01T11:19:38Z</time>
      </trkpt>
      <trkpt lat="44.41994" lon="3.75035">
        <ele>1528</ele>
        <time>2017-03-01T11:21:38Z</time>
      </trkpt>
      <trkpt lat="44.41995" lon="3.75032">
        <ele>1528</ele>
        <time>2017-03-01T11:23:38Z</time>
      </trkpt>
      <trkpt lat="44.41998" lon="3.75023">
        <ele>1527</ele>
        <time>2017-03-01T11:25:38Z</time>
      </trkpt>
      <trkpt lat="44.42" lon="3.75015">
        <ele>1526</ele>
        <time>2017-03-01T11:27:38Z</time>
      </trkpt>
      <trkpt lat="44.42" lon="3.75011">
        <ele>1525</ele>
        <time>2017-03-01T11:29:38Z</time>
      </trkpt>
      <trkpt lat="44.41998" lon="3.75008">
        <ele>1524</ele>
        <time>2017-03-01T11:31:38Z</time>
      </trkpt>
      <trkpt lat="44.41995" lon="3.75007">
        <ele>1523</ele>
        <time>2017-03-01T11:33:38Z</time>
      </trkpt>
      <trkpt lat="44.41993" lon="3.75009">
        <ele>1523</ele>
        <time>2017-03-01T11:35:38Z</time>
      </trkpt>
      <trkpt lat="44.4198" lon="3.75016">
        <ele>1520</ele>
        <time>2017-03-01T11:37:38Z</time>
      </trkpt>
      <trkpt lat="44.41962" lon="3.75026">
        <ele>1516</ele>
        <time>2017-03-01T11:39:38Z</time>
      </trkpt>
      <trkpt lat="44.41955" lon="3.75029">
        <ele>1515</ele>
        <time>2017-03-01T11:41:38Z</time>
      </trkpt>
      <trkpt lat="44.4195" lon="3.75031">
        <ele>1514</ele>
        <time>2017-03-01T11:43:38Z</time>
      </trkpt>
      <trkpt lat="44.41944" lon="3.75035">
        <ele>1513</ele>
        <time>2017-03-01T11:45:38Z</time>
      </trkpt>
      <trkpt lat="44.41935" lon="3.75041">
        <ele>1511</ele>
        <time>2017-03-01T11:47:38Z</time>
      </trkpt>
      <trkpt lat="44.41926" lon="3.75048">
        <ele>1510</ele>
        <time>2017-03-01T11:49:38Z</time>
      </trkpt>
      <trkpt lat="44.41924" lon="3.75048">
        <ele>1509</ele>
        <time>2017-03-01T11:51:38Z</time>
      </trkpt>
      <trkpt lat="44.41923" lon="3.75046">
        <ele>1508</ele>
        <time>2017-03-01T11:53:38Z</time>
      </trkpt>
      <trkpt lat="44.41923" lon="3.75042">
        <ele>1507</ele>
        <time>2017-03-01T11:55:38Z</time>
      </trkpt>
      <trkpt lat="44.41924" lon="3.75033">
        <ele>1506</ele>
        <time>2017-03-01T11:57:38Z</time>
      </trkpt>
      <trkpt lat="44.41925" lon="3.7503">
        <ele>1506</ele>
        <time>2017-03-01T11:59:38Z</time>
      </trkpt>
      <trkpt lat="44.41924" lon="3.75028">
        <ele>1505</ele>
        <time>2017-03-01T12:01:38Z</time>
      </trkpt>
      <trkpt lat="44.41922" lon="3.75028">
        <ele>1505</ele>
        <time>2017-03-01T12:03:38Z</time>
      </trkpt>
      <trkpt lat="44.41919" lon="3.7503">
        <ele>1504</ele>
        <time>2017-03-01T12:05:38Z</time>
      </trkpt>
      <trkpt lat="44.41916" lon="3.75033">
        <ele>1504</ele>
        <time>2017-03-01T12:07:38Z</time>
      </trkpt>
      <trkpt lat="44.41914" lon="3.75033">
        <ele>1503</ele>
        <time>2017-03-01T12:09:38Z</time>
      </trkpt>
      <trkpt lat="44.41913" lon="3.7503">
        <ele>1502</ele>
        <time>2017-03-01T12:11:38Z</time>
      </trkpt>
      <trkpt lat="44.41916" lon="3.75018">
        <ele>1501</ele>
        <time>2017-03-01T12:13:38Z</time>
      </trkpt>
      <trkpt lat="44.41916" lon="3.75012">
        <ele>1500</ele>
        <time>2017-03-01T12:15:38Z</time>
      </trkpt>
      <trkpt lat="44.41914" lon="3.75011">
        <ele>1499</ele>
        <time>2017-03-01T12:17:38Z</time>
      </trkpt>
      <trkpt lat="44.41912" lon="3.75011">
        <ele>1499</ele>
        <time>2017-03-01T12:19:38Z</time>
      </trkpt>
      <trkpt lat="44.41906" lon="3.75015">
        <ele>1498</ele>
        <time>2017-03-01T12:21:38Z</time>
      </trkpt>
      <trkpt lat="44.41903" lon="3.75016">
        <ele>1497</ele>
        <time>2017-03-01T12:23:38Z</time>
      </trkpt>
      <trkpt lat="44.419" lon="3.75015">
        <ele>1496</ele>
        <time>2017-03-01T12:25:38Z</time>
      </trkpt>
      <trkpt lat="44.41898" lon="3.75012">
        <ele>1495</ele>
        <time>2017-03-01T12:27:38Z</time>
      </trkpt>
      <trkpt lat="44.41899" lon="3.75007">
        <ele>1495</ele>
        <time>2017-03-01T12:29:38Z</time>
      </trkpt>
      <trkpt lat="44.41904" lon="3.74996">
        <ele>1494</ele>
        <time>2017-03-01T12:31:38Z</time>
      </trkpt>
      <trkpt lat="44.41912" lon="3.74979">
        <ele>1495</ele>
        <time>2017-03-01T12:33:38Z</time>
      </trkpt>
      <trkpt lat="44.41925" lon="3.74952">
        <ele>1495</ele>
        <time>2017-03-01T12:35:38Z</time>
      </trkpt>
      <trkpt lat="44.41925" lon="3.74951">
        <ele>1495</ele>
        <time>2017-03-01T12:37:38Z</time>
      </trkpt>
      <trkpt lat="44.41925" lon="3.74949">
        <ele>1495</ele>
        <time>2017-03-01T12:39:38Z</time>
      </trkpt>
      <trkpt lat="44.41924" lon="3.74949">
        <ele>1495</ele>
        <time>2017-03-01T12:41:38Z</time>
      </trkpt>
      <trkpt lat="44.41922" lon="3.7495">
        <ele>1494</ele>
        <time>2017-03-01T12:43:38Z</time>
      </trkpt>
      <trkpt lat="44.41907" lon="3.7497">
        <ele>1493</ele>
        <time>2017-03-01T12:45:38Z</time>
      </trkpt>
      <trkpt lat="44.41898" lon="3.74978">
        <ele>1491</ele>
        <time>2017-03-01T12:47:38Z</time>
      </trkpt>
      <trkpt lat="44.41896" lon="3.74978">
        <ele>1491</ele>
        <time>2017-03-01T12:49:38Z</time>
      </trkpt>
      <trkpt lat="44.41895" lon="3.74976">
        <ele>1490</ele>
        <time>2017-03-01T12:51:38Z</time>
      </trkpt>
      <trkpt lat="44.41895" lon="3.74973">
        <ele>1490</ele>
        <time>2017-03-01T12:53:38Z</time>
      </trkpt>
      <trkpt lat="44.41898" lon="3.74958">
        <ele>1489</ele>
        <time>2017-03-01T12:55:38Z</time>
      </trkpt>
      <trkpt lat="44.41898" lon="3.7495">
        <ele>1489</ele>
        <time>2017-03-01T12:57:38Z</time>
      </trkpt>
      <trkpt lat="44.41898" lon="3.74943">
        <ele>1488</ele>
        <time>2017-03-01T12:59:38Z</time>
      </trkpt>
      <trkpt lat="44.41897" lon="3.74941">
        <ele>1488</ele>
        <time>2017-03-01T13:01:38Z</time>
      </trkpt>
      <trkpt lat="44.41896" lon="3.74941">
        <ele>1487</ele>
        <time>2017-03-01T13:03:38Z</time>
      </trkpt>
      <trkpt lat="44.41854" lon="3.74957">
        <ele>1480</ele>
        <time>2017-03-01T13:05:38Z</time>
      </trkpt>
      <trkpt lat="44.41804" lon="3.74975">
        <ele>1470</ele>
        <time>2017-03-01T13:07:38Z</time>
      </trkpt>
      <trkpt lat="44.41771" lon="3.75">
        <ele>1463</ele>
        <time>2017-03-01T13:09:38Z</time>
      </trkpt>
      <trkpt lat="44.41739" lon="3.75026">
        <ele>1458</ele>
        <time>2017-03-01T13:11:38Z</time>
      </trkpt>
      <trkpt lat="44.41738" lon="3.75026">
        <ele>1458</ele>
        <time>2017-03-01T13:13:38Z</time>
      </trkpt>
      <trkpt lat="44.41737" lon="3.75026">
        <ele>1458</ele>
        <time>2017-03-01T13:15:38Z</time>
      </trkpt>
      <trkpt lat="44.41725" lon="3.75014">
        <ele>1455</ele>
        <time>2017-03-01T13:17:38Z</time>
      </trkpt>
      <trkpt lat="44.41725" lon="3.75012">
        <ele>1454</ele>
        <time>2017-03-01T13:19:38Z</time>
      </trkpt>
      <trkpt lat="44.41725" lon="3.7501">
        <ele>1454</ele>
        <time>2017-03-01T13:21:38Z</time>
      </trkpt>
      <trkpt lat="44.41732" lon="3.74965">
        <ele>1458</ele>
        <time>2017-03-01T13:23:38Z</time>
      </trkpt>
      <trkpt lat="44.41731" lon="3.74962">
        <ele>1458</ele>
        <time>2017-03-01T13:25:38Z</time>
      </trkpt>
      <trkpt lat="44.4173" lon="3.74963">
        <ele>1458</ele>
        <time>2017-03-01T13:27:38Z</time>
      </trkpt>
      <trkpt lat="44.4172" lon="3.74973">
        <ele>1455</ele>
        <time>2017-03-01T13:29:38Z</time>
      </trkpt>
      <trkpt lat="44.41718" lon="3.74975">
        <ele>1455</ele>
        <time>2017-03-01T13:31:38Z</time>
      </trkpt>
      <trkpt lat="44.41703" lon="3.74984">
        <ele>1451</ele>
        <time>2017-03-01T13:33:38Z</time>
      </trkpt>
      <trkpt lat="44.41691" lon="3.7499">
        <ele>1449</ele>
        <time>2017-03-01T13:35:38Z</time>
      </trkpt>
      <trkpt lat="44.41684" lon="3.74992">
        <ele>1447</ele>
        <time>2017-03-01T13:37:38Z</time>
      </trkpt>
      <trkpt lat="44.4167" lon="3.74994">
        <ele>1445</ele>
        <time>2017-03-01T13:39:38Z</time>
      </trkpt>
      <trkpt lat="44.41656" lon="3.74997">
        <ele>1442</ele>
        <time>2017-03-01T13:41:38Z</time>
      </trkpt>
      <trkpt lat="44.41644" lon="3.74998">
        <ele>1440</ele>
        <time>2017-03-01T13:43:38Z</time>
      </trkpt>
      <trkpt lat="44.41637" lon="3.74998">
        <ele>1438</ele>
        <time>2017-03-01T13:45:38Z</time>
      </trkpt>
      <trkpt lat="44.41606" lon="3.75">
        <ele>1433</ele>
        <time>2017-03-01T13:47:38Z</time>
      </trkpt>
      <trkpt lat="44.41599" lon="3.75">
        <ele>1432</ele>
        <time>2017-03-01T13:49:38Z</time>
      </trkpt>
      <trkpt lat="44.4159" lon="3.74999">
        <ele>1430</ele>
        <time>2017-03-01T13:51:38Z</time>
      </trkpt>
      <trkpt lat="44.41577" lon="3.74996">
        <ele>1428</ele>
        <time>2017-03-01T13:53:38Z</time>
      </trkpt>
      <trkpt lat="44.41562" lon="3.74993">
        <ele>1426</ele>
        <time>2017-03-01T13:55:38Z</time>
      </trkpt>
      <trkpt lat="44.41551" lon="3.7499">
        <ele>1425</ele>
        <time>2017-03-01T13:57:38Z</time>
      </trkpt>
      <trkpt lat="44.41526" lon="3.7499">
        <ele>1420</ele>
        <time>2017-03-01T13:59:38Z</time>
      </trkpt>
      <trkpt lat="44.41504" lon="3.74991">
        <ele>1416</ele>
        <time>2017-03-01T14:01:38Z</time>
      </trkpt>
      <trkpt lat="44.41475" lon="3.74996">
        <ele>1411</ele>
        <time>2017-03-01T14:03:38Z</time>
      </trkpt>
      <trkpt lat="44.41454" lon="3.75">
        <ele>1407</ele>
        <time>2017-03-01T14:05:38Z</time>
      </trkpt>
      <trkpt lat="44.41438" lon="3.75008">
        <ele>1404</ele>
        <time>2017-03-01T14:07:38Z</time>
      </trkpt>
      <trkpt lat="44.41428" lon="3.75011">
        <ele>1402</ele>
        <time>2017-03-01T14:09:38Z</time>
      </trkpt>
      <trkpt lat="44.41415" lon="3.75015">
        <ele>1399</ele>
        <time>2017-03-01T14:11:38Z</time>
      </trkpt>
      <trkpt lat="44.41401" lon="3.75022">
        <ele>1397</ele>
        <time>2017-03-01T14:13:38Z</time>
      </trkpt>
      <trkpt lat="44.4139" lon="3.75031">
        <ele>1394</ele>
        <time>2017-03-01T14:15:38Z</time>
      </trkpt>
      <trkpt lat="44.4138" lon="3.75035">
        <ele>1392</ele>
        <time>2017-03-01T14:17:38Z</time>
      </trkpt>
      <trkpt lat="44.4137" lon="3.75039">
        <ele>1390</ele>
        <time>2017-03-01T14:19:38Z</time>
      </trkpt>
      <trkpt lat="44.41359" lon="3.75039">
        <ele>1388</ele>
        <time>2017-03-01T14:21:38Z</time>
      </trkpt>
      <trkpt lat="44.41343" lon="3.75035">
        <ele>1386</ele>
        <time>2017-03-01T14:23:38Z</time>
      </trkpt>
      <trkpt lat="44.4134" lon="3.75034">
        <ele>1385</ele>
        <time>2017-03-01T14:25:38Z</time>
      </trkpt>
      <trkpt lat="44.41338" lon="3.75032">
        <ele>1385</ele>
        <time>2017-03-01T14:27:38Z</time>
      </trkpt>
      <trkpt lat="44.41335" lon="3.75029">
        <ele>1385</ele>
        <time>2017-03-01T14:29:38Z</time>
      </trkpt>
      <trkpt lat="44.41325" lon="3.75024">
        <ele>1384</ele>
        <time>2017-03-01T14:31:38Z</time>
      </trkpt>
      <trkpt lat="44.41321" lon="3.75023">
        <ele>1384</ele>
        <time>2017-03-01T14:33:38Z</time>
      </trkpt>
      <trkpt lat="44.41317" lon="3.75022">
        <ele>1383</ele>
        <time>2017-03-01T14:35:38Z</time>
      </trkpt>
      <trkpt lat="44.41313" lon="3.75022">
        <ele>1383</ele>
        <time>2017-03-01T14:37:38Z</time>
      </trkpt>
      <trkpt lat="44.41309" lon="3.75023">
        <ele>1382</ele>
        <time>2017-03-01T14:39:38Z</time>
      </trkpt>
      <trkpt lat="44.41302" lon="3.75025">
        <ele>1381</ele>
        <time>2017-03-01T14:41:38Z</time>
      </trkpt>
      <trkpt lat="44.41296" lon="3.75026">
        <ele>1380</ele>
        <time>2017-03-01T14:43:38Z</time>
      </trkpt>
      <trkpt lat="44.41284" lon="3.75026">
        <ele>1378</ele>
        <time>2017-03-01T14:45:38Z</time>
      </trkpt>
      <trkpt lat="44.41275" lon="3.75026">
        <ele>1377</ele>
        <time>2017-03-01T14:47:38Z</time>
      </trkpt>
      <trkpt lat="44.41265" lon="3.75026">
        <ele>1375</ele>
        <time>2017-03-01T14:49:38Z</time>
      </trkpt>
      <trkpt lat="44.41248" lon="3.75025">
        <ele>1373</ele>
        <time>2017-03-01T14:51:38Z</time>
      </trkpt>
      <trkpt lat="44.41235" lon="3.75025">
        <ele>1371</ele>
        <time>2017-03-01T14:53:38Z</time>
      </trkpt>
      <trkpt lat="44.41229" lon="3.75025">
        <ele>1371</ele>
        <time>2017-03-01T14:55:38Z</time>
      </trkpt>
      <trkpt lat="44.41225" lon="3.75028">
        <ele>1370</ele>
        <time>2017-03-01T14:57:38Z</time>
      </trkpt>
      <trkpt lat="44.41218" lon="3.75034">
        <ele>1368</ele>
        <time>2017-03-01T14:59:38Z</time>
      </trkpt>
      <trkpt lat="44.41213" lon="3.75038">
        <ele>1367</ele>
        <time>2017-03-01T15:01:38Z</time>
      </trkpt>
      <trkpt lat="44.41212" lon="3.75039">
        <ele>1367</ele>
        <time>2017-03-01T15:03:38Z</time>
      </trkpt>
      <trkpt lat="44.4121" lon="3.7504">
        <ele>1367</ele>
        <time>2017-03-01T15:05:38Z</time>
      </trkpt>
      <trkpt lat="44.41207" lon="3.75041">
        <ele>1366</ele>
        <time>2017-03-01T15:07:38Z</time>
      </trkpt>
      <trkpt lat="44.41204" lon="3.75043">
        <ele>1366</ele>
        <time>2017-03-01T15:09:38Z</time>
      </trkpt>
      <trkpt lat="44.41199" lon="3.75044">
        <ele>1365</ele>
        <time>2017-03-01T15:11:38Z</time>
      </trkpt>
      <trkpt lat="44.41196" lon="3.75045">
        <ele>1364</ele>
        <time>2017-03-01T15:13:38Z</time>
      </trkpt>
      <trkpt lat="44.41192" lon="3.75046">
        <ele>1364</ele>
        <time>2017-03-01T15:15:38Z</time>
      </trkpt>
      <trkpt lat="44.41188" lon="3.75046">
        <ele>1363</ele>
        <time>2017-03-01T15:17:38Z</time>
      </trkpt>
      <trkpt lat="44.41183" lon="3.75046">
        <ele>1362</ele>
        <time>2017-03-01T15:19:38Z</time>
      </trkpt>
      <trkpt lat="44.41159" lon="3.75041">
        <ele>1360</ele>
        <time>2017-03-01T15:21:38Z</time>
      </trkpt>
      <trkpt lat="44.41151" lon="3.75041">
        <ele>1359</ele>
        <time>2017-03-01T15:23:38Z</time>
      </trkpt>
      <trkpt lat="44.41145" lon="3.7504">
        <ele>1358</ele>
        <time>2017-03-01T15:25:38Z</time>
      </trkpt>
      <trkpt lat="44.41139" lon="3.75039">
        <ele>1358</ele>
        <time>2017-03-01T15:27:38Z</time>
      </trkpt>
      <trkpt lat="44.41135" lon="3.75039">
        <ele>1357</ele>
        <time>2017-03-01T15:29:38Z</time>
      </trkpt>
      <trkpt lat="44.41131" lon="3.75039">
        <ele>1357</ele>
        <time>2017-03-01T15:31:38Z</time>
      </trkpt>
      <trkpt lat="44.41128" lon="3.75042">
        <ele>1356</ele>
        <time>2017-03-01T15:33:38Z</time>
      </trkpt>
      <trkpt lat="44.41117" lon="3.75051">
        <ele>1354</ele>
        <time>2017-03-01T15:35:38Z</time>
      </trkpt>
      <trkpt lat="44.41111" lon="3.75053">
        <ele>1353</ele>
        <time>2017-03-01T15:37:38Z</time>
      </trkpt>
      <trkpt lat="44.41105" lon="3.75054">
        <ele>1352</ele>
        <time>2017-03-01T15:39:38Z</time>
      </trkpt>
      <trkpt lat="44.41101" lon="3.75054">
        <ele>1352</ele>
        <time>2017-03-01T15:41:38Z</time>
      </trkpt>
      <trkpt lat="44.41091" lon="3.75053">
        <ele>1351</ele>
        <time>2017-03-01T15:43:38Z</time>
      </trkpt>
      <trkpt lat="44.41084" lon="3.75052">
        <ele>1350</ele>
        <time>2017-03-01T15:45:38Z</time>
      </trkpt>
      <trkpt lat="44.41078" lon="3.7505">
        <ele>1350</ele>
        <time>2017-03-01T15:47:38Z</time>
      </trkpt>
      <trkpt lat="44.41064" lon="3.75049">
        <ele>1347</ele>
        <time>2017-03-01T15:49:38Z</time>
      </trkpt>
      <trkpt lat="44.41052" lon="3.75049">
        <ele>1345</ele>
        <time>2017-03-01T15:51:38Z</time>
      </trkpt>
      <trkpt lat="44.4104" lon="3.7505">
        <ele>1343</ele>
        <time>2017-03-01T15:53:38Z</time>
      </trkpt>
      <trkpt lat="44.41031" lon="3.7505">
        <ele>1342</ele>
        <time>2017-03-01T15:55:38Z</time>
      </trkpt>
      <trkpt lat="44.41022" lon="3.7505">
        <ele>1341</ele>
        <time>2017-03-01T15:57:38Z</time>
      </trkpt>
      <trkpt lat="44.41015" lon="3.7505">
        <ele>1339</ele>
        <time>2017-03-01T15:59:38Z</time>
      </trkpt>
      <trkpt lat="44.41011" lon="3.75049">
        <ele>1339</ele>
        <time>2017-03-01T16:01:38Z</time>
      </trkpt>
      <trkpt lat="44.41006" lon="3.75048">
        <ele>1338</ele>
        <time>2017-03-01T16:03:38Z</time>
      </trkpt>
      <trkpt lat="44.41002" lon="3.75048">
        <ele>1338</ele>
        <time>2017-03-01T16:05:38Z</time>
      </trkpt>
      <trkpt lat="44.40995" lon="3.75051">
        <ele>1336</ele>
        <time>2017-03-01T16:07:38Z</time>
      </trkpt>
      <trkpt lat="44.40981" lon="3.75058">
        <ele>1334</ele>
        <time>2017-03-01T16:09:38Z</time>
      </trkpt>
      <trkpt lat="44.40981" lon="3.75058">
        <ele>1334</ele>
        <time>2017-03-01T16:11:38Z</time>
      </trkpt>
      <trkpt lat="44.40975" lon="3.75055">
        <ele>1334</ele>
        <time>2017-03-01T16:13:38Z</time>
      </trkpt>
      <trkpt lat="44.40974" lon="3.75054">
        <ele>1334</ele>
        <time>2017-03-01T16:15:38Z</time>
      </trkpt>
      <trkpt lat="44.40972" lon="3.75053">
        <ele>1333</ele>
        <time>2017-03-01T16:17:38Z</time>
      </trkpt>
      <trkpt lat="44.4097" lon="3.7505">
        <ele>1334</ele>
        <time>2017-03-01T16:19:38Z</time>
      </trkpt>
      <trkpt lat="44.40967" lon="3.75047">
        <ele>1334</ele>
        <time>2017-03-01T16:21:38Z</time>
      </trkpt>
      <trkpt lat="44.40965" lon="3.75046">
        <ele>1334</ele>
        <time>2017-03-01T16:23:38Z</time>
      </trkpt>
      <trkpt lat="44.40963" lon="3.75045">
        <ele>1334</ele>
        <time>2017-03-01T16:25:38Z</time>
      </trkpt>
      <trkpt lat="44.40961" lon="3.75045">
        <ele>1333</ele>
        <time>2017-03-01T16:27:38Z</time>
      </trkpt>
      <trkpt lat="44.40959" lon="3.75047">
        <ele>1333</ele>
        <time>2017-03-01T16:29:38Z</time>
      </trkpt>
      <trkpt lat="44.40951" lon="3.75054">
        <ele>1331</ele>
        <time>2017-03-01T16:31:38Z</time>
      </trkpt>
      <trkpt lat="44.40941" lon="3.75058">
        <ele>1329</ele>
        <time>2017-03-01T16:33:38Z</time>
      </trkpt>
      <trkpt lat="44.4093" lon="3.75063">
        <ele>1327</ele>
        <time>2017-03-01T16:35:38Z</time>
      </trkpt>
      <trkpt lat="44.40921" lon="3.75064">
        <ele>1326</ele>
        <time>2017-03-01T16:37:38Z</time>
      </trkpt>
      <trkpt lat="44.40921" lon="3.75064">
        <ele>1326</ele>
        <time>2017-03-01T16:39:38Z</time>
      </trkpt>
      <trkpt lat="44.40921" lon="3.75069">
        <ele>1325</ele>
        <time>2017-03-01T16:41:38Z</time>
      </trkpt>
      <trkpt lat="44.40921" lon="3.75077">
        <ele>1324</ele>
        <time>2017-03-01T16:43:38Z</time>
      </trkpt>
      <trkpt lat="44.4092" lon="3.75081">
        <ele>1323</ele>
        <time>2017-03-01T16:45:38Z</time>
      </trkpt>
      <trkpt lat="44.40919" lon="3.75086">
        <ele>1322</ele>
        <time>2017-03-01T16:47:38Z</time>
      </trkpt>
      <trkpt lat="44.40918" lon="3.75088">
        <ele>1322</ele>
        <time>2017-03-01T16:49:38Z</time>
      </trkpt>
      <trkpt lat="44.40916" lon="3.75091">
        <ele>1322</ele>
        <time>2017-03-01T16:51:38Z</time>
      </trkpt>
      <trkpt lat="44.40914" lon="3.75093">
        <ele>1322</ele>
        <time>2017-03-01T16:53:38Z</time>
      </trkpt>
      <trkpt lat="44.40912" lon="3.75095">
        <ele>1321</ele>
        <time>2017-03-01T16:55:38Z</time>
      </trkpt>
      <trkpt lat="44.40907" lon="3.75096">
        <ele>1321</ele>
        <time>2017-03-01T16:57:38Z</time>
      </trkpt>
      <trkpt lat="44.40903" lon="3.75096">
        <ele>1320</ele>
        <time>2017-03-01T16:59:38Z</time>
      </trkpt>
      <trkpt lat="44.409" lon="3.75094">
        <ele>1319</ele>
        <time>2017-03-01T17:01:38Z</time>
      </trkpt>
      <trkpt lat="44.40895" lon="3.7509">
        <ele>1318</ele>
        <time>2017-03-01T17:03:38Z</time>
      </trkpt>
      <trkpt lat="44.40886" lon="3.75082">
        <ele>1317</ele>
        <time>2017-03-01T17:05:38Z</time>
      </trkpt>
      <trkpt lat="44.40881" lon="3.75079">
        <ele>1317</ele>
        <time>2017-03-01T17:07:38Z</time>
      </trkpt>
      <trkpt lat="44.40877" lon="3.75077">
        <ele>1316</ele>
        <time>2017-03-01T17:09:38Z</time>
      </trkpt>
      <trkpt lat="44.40874" lon="3.75077">
        <ele>1316</ele>
        <time>2017-03-01T17:11:38Z</time>
      </trkpt>
      <trkpt lat="44.40869" lon="3.75079">
        <ele>1315</ele>
        <time>2017-03-01T17:13:38Z</time>
      </trkpt>
      <trkpt lat="44.40869" lon="3.75079">
        <ele>1315</ele>
        <time>2017-03-01T17:15:38Z</time>
      </trkpt>
      <trkpt lat="44.4085" lon="3.75069">
        <ele>1313</ele>
        <time>2017-03-01T17:17:38Z</time>
      </trkpt>
      <trkpt lat="44.4084" lon="3.75063">
        <ele>1313</ele>
        <time>2017-03-01T17:19:38Z</time>
      </trkpt>
      <trkpt lat="44.40828" lon="3.75056">
        <ele>1313</ele>
        <time>2017-03-01T17:21:38Z</time>
      </trkpt>
      <trkpt lat="44.40821" lon="3.75053">
        <ele>1312</ele>
        <time>2017-03-01T17:23:38Z</time>
      </trkpt>
      <trkpt lat="44.40814" lon="3.75052">
        <ele>1311</ele>
        <time>2017-03-01T17:25:38Z</time>
      </trkpt>
      <trkpt lat="44.40811" lon="3.75052">
        <ele>1311</ele>
        <time>2017-03-01T17:27:38Z</time>
      </trkpt>
      <trkpt lat="44.40806" lon="3.75052">
        <ele>1310</ele>
        <time>2017-03-01T17:29:38Z</time>
      </trkpt>
      <trkpt lat="44.40795" lon="3.75053">
        <ele>1309</ele>
        <time>2017-03-01T17:31:38Z</time>
      </trkpt>
      <trkpt lat="44.40795" lon="3.75053">
        <ele>1309</ele>
        <time>2017-03-01T17:33:38Z</time>
      </trkpt>
      <trkpt lat="44.40791" lon="3.75067">
        <ele>1306</ele>
        <time>2017-03-01T17:35:38Z</time>
      </trkpt>
      <trkpt lat="44.40786" lon="3.75072">
        <ele>1304</ele>
        <time>2017-03-01T17:37:38Z</time>
      </trkpt>
      <trkpt lat="44.4078" lon="3.75075">
        <ele>1303</ele>
        <time>2017-03-01T17:39:38Z</time>
      </trkpt>
      <trkpt lat="44.40775" lon="3.75077">
        <ele>1302</ele>
        <time>2017-03-01T17:41:38Z</time>
      </trkpt>
      <trkpt lat="44.40767" lon="3.75078">
        <ele>1301</ele>
        <time>2017-03-01T17:43:38Z</time>
      </trkpt>
      <trkpt lat="44.40734" lon="3.75078">
        <ele>1297</ele>
        <time>2017-03-01T17:45:38Z</time>
      </trkpt>
      <trkpt lat="44.40726" lon="3.75077">
        <ele>1296</ele>
        <time>2017-03-01T17:47:38Z</time>
      </trkpt>
      <trkpt lat="44.40686" lon="3.75063">
        <ele>1291</ele>
        <time>2017-03-01T17:49:38Z</time>
      </trkpt>
      <trkpt lat="44.40686" lon="3.75063">
        <ele>1291</ele>
        <time>2017-03-01T17:51:38Z</time>
      </trkpt>
      <trkpt lat="44.40682" lon="3.75073">
        <ele>1290</ele>
        <time>2017-03-01T17:53:38Z</time>
      </trkpt>
      <trkpt lat="44.4068" lon="3.7508">
        <ele>1289</ele>
        <time>2017-03-01T17:55:38Z</time>
      </trkpt>
      <trkpt lat="44.4068" lon="3.751">
        <ele>1288</ele>
        <time>2017-03-01T17:57:38Z</time>
      </trkpt>
      <trkpt lat="44.40678" lon="3.75113">
        <ele>1287</ele>
        <time>2017-03-01T17:59:38Z</time>
      </trkpt>
      <trkpt lat="44.40676" lon="3.75118">
        <ele>1286</ele>
        <time>2017-03-01T18:01:38Z</time>
      </trkpt>
      <trkpt lat="44.40674" lon="3.7512">
        <ele>1286</ele>
        <time>2017-03-01T18:03:38Z</time>
      </trkpt>
      <trkpt lat="44.40653" lon="3.75122">
        <ele>1283</ele>
        <time>2017-03-01T18:05:38Z</time>
      </trkpt>
      <trkpt lat="44.40646" lon="3.75122">
        <ele>1282</ele>
        <time>2017-03-01T18:07:38Z</time>
      </trkpt>
      <trkpt lat="44.40639" lon="3.7512">
        <ele>1281</ele>
        <time>2017-03-01T18:09:38Z</time>
      </trkpt>
      <trkpt lat="44.40633" lon="3.75119">
        <ele>1280</ele>
        <time>2017-03-01T18:11:38Z</time>
      </trkpt>
      <trkpt lat="44.40631" lon="3.75119">
        <ele>1280</ele>
        <time>2017-03-01T18:13:38Z</time>
      </trkpt>
      <trkpt lat="44.40628" lon="3.7512">
        <ele>1279</ele>
        <time>2017-03-01T18:15:38Z</time>
      </trkpt>
      <trkpt lat="44.40625" lon="3.75121">
        <ele>1279</ele>
        <time>2017-03-01T18:17:38Z</time>
      </trkpt>
      <trkpt lat="44.40623" lon="3.75123">
        <ele>1278</ele>
        <time>2017-03-01T18:19:38Z</time>
      </trkpt>
      <trkpt lat="44.40615" lon="3.7513">
        <ele>1277</ele>
        <time>2017-03-01T18:21:38Z</time>
      </trkpt>
      <trkpt lat="44.40603" lon="3.75137">
        <ele>1275</ele>
        <time>2017-03-01T18:23:38Z</time>
      </trkpt>
      <trkpt lat="44.40592" lon="3.75147">
        <ele>1273</ele>
        <time>2017-03-01T18:25:38Z</time>
      </trkpt>
      <trkpt lat="44.40584" lon="3.7515">
        <ele>1272</ele>
        <time>2017-03-01T18:27:38Z</time>
      </trkpt>
      <trkpt lat="44.40581" lon="3.75151">
        <ele>1271</ele>
        <time>2017-03-01T18:29:38Z</time>
      </trkpt>
      <trkpt lat="44.40576" lon="3.7515">
        <ele>1271</ele>
        <time>2017-03-01T18:31:38Z</time>
      </trkpt>
      <trkpt lat="44.40571" lon="3.75148">
        <ele>1270</ele>
        <time>2017-03-01T18:33:38Z</time>
      </trkpt>
      <trkpt lat="44.40567" lon="3.75147">
        <ele>1270</ele>
        <time>2017-03-01T18:35:38Z</time>
      </trkpt>
      <trkpt lat="44.40559" lon="3.75147">
        <ele>1269</ele>
        <time>2017-03-01T18:37:38Z</time>
      </trkpt>
      <trkpt lat="44.40541" lon="3.75147">
        <ele>1267</ele>
        <time>2017-03-01T18:39:38Z</time>
      </trkpt>
      <trkpt lat="44.40536" lon="3.75148">
        <ele>1266</ele>
        <time>2017-03-01T18:41:38Z</time>
      </trkpt>
      <trkpt lat="44.40528" lon="3.7515">
        <ele>1265</ele>
        <time>2017-03-01T18:43:38Z</time>
      </trkpt>
      <trkpt lat="44.40521" lon="3.75152">
        <ele>1264</ele>
        <time>2017-03-01T18:45:38Z</time>
      </trkpt>
      <trkpt lat="44.40514" lon="3.75151">
        <ele>1263</ele>
        <time>2017-03-01T18:47:38Z</time>
      </trkpt>
      <trkpt lat="44.40507" lon="3.75149">
        <ele>1262</ele>
        <time>2017-03-01T18:49:38Z</time>
      </trkpt>
      <trkpt lat="44.40501" lon="3.75148">
        <ele>1262</ele>
        <time>2017-03-01T18:51:38Z</time>
      </trkpt>
      <trkpt lat="44.40496" lon="3.75144">
        <ele>1261</ele>
        <time>2017-03-01T18:53:38Z</time>
      </trkpt>
      <trkpt lat="44.40489" lon="3.7514">
        <ele>1260</ele>
        <time>2017-03-01T18:55:38Z</time>
      </trkpt>
      <trkpt lat="44.40476" lon="3.75133">
        <ele>1259</ele>
        <time>2017-03-01T18:57:38Z</time>
      </trkpt>
      <trkpt lat="44.40462" lon="3.75123">
        <ele>1257</ele>
        <time>2017-03-01T18:59:38Z</time>
      </trkpt>
      <trkpt lat="44.40443" lon="3.75114">
        <ele>1254</ele>
        <time>2017-03-01T19:01:38Z</time>
      </trkpt>
      <trkpt lat="44.40432" lon="3.7511">
        <ele>1253</ele>
        <time>2017-03-01T19:03:38Z</time>
      </trkpt>
      <trkpt lat="44.40423" lon="3.75106">
        <ele>1251</ele>
        <time>2017-03-01T19:05:38Z</time>
      </trkpt>
      <trkpt lat="44.40418" lon="3.75102">
        <ele>1250</ele>
        <time>2017-03-01T19:07:38Z</time>
      </trkpt>
      <trkpt lat="44.40414" lon="3.75097">
        <ele>1249</ele>
        <time>2017-03-01T19:09:38Z</time>
      </trkpt>
      <trkpt lat="44.4041" lon="3.75086">
        <ele>1248</ele>
        <time>2017-03-01T19:11:38Z</time>
      </trkpt>
      <trkpt lat="44.40406" lon="3.75075">
        <ele>1248</ele>
        <time>2017-03-01T19:13:38Z</time>
      </trkpt>
      <trkpt lat="44.40402" lon="3.7507">
        <ele>1248</ele>
        <time>2017-03-01T19:15:38Z</time>
      </trkpt>
      <trkpt lat="44.40397" lon="3.75065">
        <ele>1247</ele>
        <time>2017-03-01T19:17:38Z</time>
      </trkpt>
      <trkpt lat="44.4039" lon="3.75063">
        <ele>1246</ele>
        <time>2017-03-01T19:19:38Z</time>
      </trkpt>
      <trkpt lat="44.40384" lon="3.75061">
        <ele>1245</ele>
        <time>2017-03-01T19:21:38Z</time>
      </trkpt>
      <trkpt lat="44.40375" lon="3.75061">
        <ele>1244</ele>
        <time>2017-03-01T19:23:38Z</time>
      </trkpt>
      <trkpt lat="44.40366" lon="3.75062">
        <ele>1243</ele>
        <time>2017-03-01T19:25:38Z</time>
      </trkpt>
      <trkpt lat="44.40353" lon="3.75064">
        <ele>1240</ele>
        <time>2017-03-01T19:27:38Z</time>
      </trkpt>
      <trkpt lat="44.4035" lon="3.75063">
        <ele>1240</ele>
        <time>2017-03-01T19:29:38Z</time>
      </trkpt>
      <trkpt lat="44.40348" lon="3.75062">
        <ele>1240</ele>
        <time>2017-03-01T19:31:38Z</time>
      </trkpt>
      <trkpt lat="44.40335" lon="3.75055">
        <ele>1238</ele>
        <time>2017-03-01T19:33:38Z</time>
      </trkpt>
      <trkpt lat="44.40316" lon="3.75044">
        <ele>1236</ele>
        <time>2017-03-01T19:35:38Z</time>
      </trkpt>
      <trkpt lat="44.40303" lon="3.75037">
        <ele>1234</ele>
        <time>2017-03-01T19:37:38Z</time>
      </trkpt>
      <trkpt lat="44.40295" lon="3.7503">
        <ele>1233</ele>
        <time>2017-03-01T19:39:38Z</time>
      </trkpt>
      <trkpt lat="44.40286" lon="3.75026">
        <ele>1232</ele>
        <time>2017-03-01T19:41:38Z</time>
      </trkpt>
      <trkpt lat="44.40276" lon="3.75023">
        <ele>1230</ele>
        <time>2017-03-01T19:43:38Z</time>
      </trkpt>
      <trkpt lat="44.40266" lon="3.75021">
        <ele>1229</ele>
        <time>2017-03-01T19:45:38Z</time>
      </trkpt>
      <trkpt lat="44.40258" lon="3.7502">
        <ele>1227</ele>
        <time>2017-03-01T19:47:38Z</time>
      </trkpt>
      <trkpt lat="44.40251" lon="3.75019">
        <ele>1226</ele>
        <time>2017-03-01T19:49:38Z</time>
      </trkpt>
      <trkpt lat="44.4024" lon="3.75019">
        <ele>1225</ele>
        <time>2017-03-01T19:51:38Z</time>
      </trkpt>
      <trkpt lat="44.40234" lon="3.75017">
        <ele>1225</ele>
        <time>2017-03-01T19:53:38Z</time>
      </trkpt>
      <trkpt lat="44.40226" lon="3.75015">
        <ele>1224</ele>
        <time>2017-03-01T19:55:38Z</time>
      </trkpt>
      <trkpt lat="44.40214" lon="3.75012">
        <ele>1223</ele>
        <time>2017-03-01T19:57:38Z</time>
      </trkpt>
      <trkpt lat="44.40214" lon="3.75012">
        <ele>1223</ele>
        <time>2017-03-01T19:59:38Z</time>
      </trkpt>
      <trkpt lat="44.40208" lon="3.75006">
        <ele>1221</ele>
        <time>2017-03-01T20:01:38Z</time>
      </trkpt>
      <trkpt lat="44.40202" lon="3.74996">
        <ele>1220</ele>
        <time>2017-03-01T20:03:38Z</time>
      </trkpt>
      <trkpt lat="44.40195" lon="3.74982">
        <ele>1219</ele>
        <time>2017-03-01T20:05:38Z</time>
      </trkpt>
      <trkpt lat="44.4019" lon="3.74967">
        <ele>1218</ele>
        <time>2017-03-01T20:07:38Z</time>
      </trkpt>
      <trkpt lat="44.40186" lon="3.74954">
        <ele>1217</ele>
        <time>2017-03-01T20:09:38Z</time>
      </trkpt>
      <trkpt lat="44.40181" lon="3.74945">
        <ele>1216</ele>
        <time>2017-03-01T20:11:38Z</time>
      </trkpt>
      <trkpt lat="44.40178" lon="3.7494">
        <ele>1215</ele>
        <time>2017-03-01T20:13:38Z</time>
      </trkpt>
      <trkpt lat="44.40173" lon="3.74935">
        <ele>1215</ele>
        <time>2017-03-01T20:15:38Z</time>
      </trkpt>
      <trkpt lat="44.40168" lon="3.74931">
        <ele>1214</ele>
        <time>2017-03-01T20:17:38Z</time>
      </trkpt>
      <trkpt lat="44.40163" lon="3.74929">
        <ele>1213</ele>
        <time>2017-03-01T20:19:38Z</time>
      </trkpt>
      <trkpt lat="44.40156" lon="3.74927">
        <ele>1213</ele>
        <time>2017-03-01T20:21:38Z</time>
      </trkpt>
      <trkpt lat="44.4015" lon="3.74924">
        <ele>1212</ele>
        <time>2017-03-01T20:23:38Z</time>
      </trkpt>
      <trkpt lat="44.40141" lon="3.74929">
        <ele>1212</ele>
        <time>2017-03-01T20:25:38Z</time>
      </trkpt>
      <trkpt lat="44.40138" lon="3.74931">
        <ele>1212</ele>
        <time>2017-03-01T20:27:38Z</time>
      </trkpt>
      <trkpt lat="44.40134" lon="3.74933">
        <ele>1212</ele>
        <time>2017-03-01T20:29:38Z</time>
      </trkpt>
      <trkpt lat="44.4013" lon="3.74936">
        <ele>1212</ele>
        <time>2017-03-01T20:31:38Z</time>
      </trkpt>
      <trkpt lat="44.40126" lon="3.74939">
        <ele>1212</ele>
        <time>2017-03-01T20:33:38Z</time>
      </trkpt>
      <trkpt lat="44.40122" lon="3.7494">
        <ele>1212</ele>
        <time>2017-03-01T20:35:38Z</time>
      </trkpt>
      <trkpt lat="44.40116" lon="3.7494">
        <ele>1211</ele>
        <time>2017-03-01T20:37:38Z</time>
      </trkpt>
      <trkpt lat="44.40111" lon="3.7494">
        <ele>1211</ele>
        <time>2017-03-01T20:39:38Z</time>
      </trkpt>
      <trkpt lat="44.40102" lon="3.74937">
        <ele>1210</ele>
        <time>2017-03-01T20:41:38Z</time>
      </trkpt>
      <trkpt lat="44.40086" lon="3.74931">
        <ele>1209</ele>
        <time>2017-03-01T20:43:38Z</time>
      </trkpt>
      <trkpt lat="44.40078" lon="3.74929">
        <ele>1209</ele>
        <time>2017-03-01T20:45:38Z</time>
      </trkpt>
      <trkpt lat="44.4007" lon="3.74928">
        <ele>1208</ele>
        <time>2017-03-01T20:47:38Z</time>
      </trkpt>
      <trkpt lat="44.4006" lon="3.74929">
        <ele>1208</ele>
        <time>2017-03-01T20:49:38Z</time>
      </trkpt>
      <trkpt lat="44.4005" lon="3.74931">
        <ele>1208</ele>
        <time>2017-03-01T20:51:38Z</time>
      </trkpt>
      <trkpt lat="44.40036" lon="3.74935">
        <ele>1207</ele>
        <time>2017-03-01T20:53:38Z</time>
      </trkpt>
      <trkpt lat="44.40024" lon="3.74938">
        <ele>1207</ele>
        <time>2017-03-01T20:55:38Z</time>
      </trkpt>
      <trkpt lat="44.40015" lon="3.7494">
        <ele>1207</ele>
        <time>2017-03-01T20:57:38Z</time>
      </trkpt>
      <trkpt lat="44.40007" lon="3.74944">
        <ele>1207</ele>
        <time>2017-03-01T20:59:38Z</time>
      </trkpt>
      <trkpt lat="44.4" lon="3.74948">
        <ele>1207</ele>
        <time>2017-03-01T21:01:38Z</time>
      </trkpt>
      <trkpt lat="44.39992" lon="3.74954">
        <ele>1206</ele>
        <time>2017-03-01T21:03:38Z</time>
      </trkpt>
      <trkpt lat="44.39973" lon="3.74968">
        <ele>1206</ele>
        <time>2017-03-01T21:05:38Z</time>
      </trkpt>
      <trkpt lat="44.39973" lon="3.74968">
        <ele>1206</ele>
        <time>2017-03-01T21:07:38Z</time>
      </trkpt>
      <trkpt lat="44.39981" lon="3.74981">
        <ele>1207</ele>
        <time>2017-03-01T21:09:38Z</time>
      </trkpt>
      <trkpt lat="44.39986" lon="3.7499">
        <ele>1208</ele>
        <time>2017-03-01T21:11:38Z</time>
      </trkpt>
      <trkpt lat="44.39995" lon="3.75008">
        <ele>1210</ele>
        <time>2017-03-01T21:13:38Z</time>
      </trkpt>
      <trkpt lat="44.39997" lon="3.75013">
        <ele>1210</ele>
        <time>2017-03-01T21:15:38Z</time>
      </trkpt>
      <trkpt lat="44.39998" lon="3.75016">
        <ele>1210</ele>
        <time>2017-03-01T21:17:38Z</time>
      </trkpt>
      <trkpt lat="44.39999" lon="3.75025">
        <ele>1211</ele>
        <time>2017-03-01T21:19:38Z</time>
      </trkpt>
      <trkpt lat="44.40002" lon="3.75042">
        <ele>1213</ele>
        <time>2017-03-01T21:21:38Z</time>
      </trkpt>
      <trkpt lat="44.40004" lon="3.75048">
        <ele>1214</ele>
        <time>2017-03-01T21:23:38Z</time>
      </trkpt>
      <trkpt lat="44.40008" lon="3.75057">
        <ele>1215</ele>
        <time>2017-03-01T21:25:38Z</time>
      </trkpt>
      <trkpt lat="44.40011" lon="3.75064">
        <ele>1216</ele>
        <time>2017-03-01T21:27:38Z</time>
      </trkpt>
      <trkpt lat="44.40012" lon="3.75068">
        <ele>1216</ele>
        <time>2017-03-01T21:29:38Z</time>
      </trkpt>
      <trkpt lat="44.40011" lon="3.75072">
        <ele>1217</ele>
        <time>2017-03-01T21:31:38Z</time>
      </trkpt>
      <trkpt lat="44.4001" lon="3.75076">
        <ele>1217</ele>
        <time>2017-03-01T21:33:38Z</time>
      </trkpt>
      <trkpt lat="44.40009" lon="3.75081">
        <ele>1217</ele>
        <time>2017-03-01T21:35:38Z</time>
      </trkpt>
      <trkpt lat="44.40004" lon="3.7509">
        <ele>1218</ele>
        <time>2017-03-01T21:37:38Z</time>
      </trkpt>
      <trkpt lat="44.39996" lon="3.75104">
        <ele>1218</ele>
        <time>2017-03-01T21:39:38Z</time>
      </trkpt>
      <trkpt lat="44.39988" lon="3.75125">
        <ele>1219</ele>
        <time>2017-03-01T21:41:38Z</time>
      </trkpt>
      <trkpt lat="44.39973" lon="3.75156">
        <ele>1219</ele>
        <time>2017-03-01T21:43:38Z</time>
      </trkpt>
      <trkpt lat="44.39962" lon="3.75176">
        <ele>1219</ele>
        <time>2017-03-01T21:45:38Z</time>
      </trkpt>
      <trkpt lat="44.39957" lon="3.75191">
        <ele>1220</ele>
        <time>2017-03-01T21:47:38Z</time>
      </trkpt>
      <trkpt lat="44.39954" lon="3.752">
        <ele>1220</ele>
        <time>2017-03-01T21:49:38Z</time>
      </trkpt>
      <trkpt lat="44.39947" lon="3.75225">
        <ele>1221</ele>
        <time>2017-03-01T21:51:38Z</time>
      </trkpt>
      <trkpt lat="44.39944" lon="3.75235">
        <ele>1222</ele>
        <time>2017-03-01T21:53:38Z</time>
      </trkpt>
      <trkpt lat="44.39941" lon="3.75246">
        <ele>1222</ele>
        <time>2017-03-01T21:55:38Z</time>
      </trkpt>
      <trkpt lat="44.39941" lon="3.75249">
        <ele>1222</ele>
        <time>2017-03-01T21:57:38Z</time>
      </trkpt>
      <trkpt lat="44.39941" lon="3.75249">
        <ele>1222</ele>
        <time>2017-03-01T21:59:38Z</time>
      </trkpt>
      <trkpt lat="44.3994" lon="3.75253">
        <ele>1223</ele>
        <time>2017-03-01T22:01:38Z</time>
      </trkpt>
      <trkpt lat="44.39939" lon="3.75275">
        <ele>1224</ele>
        <time>2017-03-01T22:03:38Z</time>
      </trkpt>
      <trkpt lat="44.39939" lon="3.7528">
        <ele>1224</ele>
        <time>2017-03-01T22:05:38Z</time>
      </trkpt>
      <trkpt lat="44.39938" lon="3.75283">
        <ele>1224</ele>
        <time>2017-03-01T22:07:38Z</time>
      </trkpt>
      <trkpt lat="44.39938" lon="3.75286">
        <ele>1224</ele>
        <time>2017-03-01T22:09:38Z</time>
      </trkpt>
      <trkpt lat="44.39935" lon="3.75291">
        <ele>1224</ele>
        <time>2017-03-01T22:11:38Z</time>
      </trkpt>
      <trkpt lat="44.39932" lon="3.75301">
        <ele>1224</ele>
        <time>2017-03-01T22:13:38Z</time>
      </trkpt>
      <trkpt lat="44.39926" lon="3.7532">
        <ele>1225</ele>
        <time>2017-03-01T22:15:38Z</time>
      </trkpt>
      <trkpt lat="44.39922" lon="3.75333">
        <ele>1225</ele>
        <time>2017-03-01T22:17:38Z</time>
      </trkpt>
      <trkpt lat="44.39918" lon="3.75341">
        <ele>1226</ele>
        <time>2017-03-01T22:19:38Z</time>
      </trkpt>
      <trkpt lat="44.39911" lon="3.75347">
        <ele>1227</ele>
        <time>2017-03-01T22:21:38Z</time>
      </trkpt>
      <trkpt lat="44.39904" lon="3.75352">
        <ele>1228</ele>
        <time>2017-03-01T22:23:38Z</time>
      </trkpt>
      <trkpt lat="44.39888" lon="3.75359">
        <ele>1229</ele>
        <time>2017-03-01T22:25:38Z</time>
      </trkpt>
      <trkpt lat="44.3987" lon="3.75366">
        <ele>1230</ele>
        <time>2017-03-01T22:27:38Z</time>
      </trkpt>
      <trkpt lat="44.39846" lon="3.75376">
        <ele>1233</ele>
        <time>2017-03-01T22:29:38Z</time>
      </trkpt>
      <trkpt lat="44.39828" lon="3.75385">
        <ele>1235</ele>
        <time>2017-03-01T22:31:38Z</time>
      </trkpt>
      <trkpt lat="44.39798" lon="3.754">
        <ele>1239</ele>
        <time>2017-03-01T22:33:38Z</time>
      </trkpt>
      <trkpt lat="44.39791" lon="3.75403">
        <ele>1240</ele>
        <time>2017-03-01T22:35:38Z</time>
      </trkpt>
      <trkpt lat="44.39788" lon="3.75406">
        <ele>1241</ele>
        <time>2017-03-01T22:37:38Z</time>
      </trkpt>
      <trkpt lat="44.39784" lon="3.75409">
        <ele>1241</ele>
        <time>2017-03-01T22:39:38Z</time>
      </trkpt>
      <trkpt lat="44.39783" lon="3.75411">
        <ele>1242</ele>
        <time>2017-03-01T22:41:38Z</time>
      </trkpt>
      <trkpt lat="44.3978" lon="3.75414">
        <ele>1243</ele>
        <time>2017-03-01T22:43:38Z</time>
      </trkpt>
      <trkpt lat="44.39766" lon="3.75417">
        <ele>1244</ele>
        <time>2017-03-01T22:45:38Z</time>
      </trkpt>
      <trkpt lat="44.39749" lon="3.75423">
        <ele>1246</ele>
        <time>2017-03-01T22:47:38Z</time>
      </trkpt>
      <trkpt lat="44.3974" lon="3.75427">
        <ele>1247</ele>
        <time>2017-03-01T22:49:38Z</time>
      </trkpt>
      <trkpt lat="44.39737" lon="3.75428">
        <ele>1248</ele>
        <time>2017-03-01T22:51:38Z</time>
      </trkpt>
      <trkpt lat="44.39736" lon="3.75429">
        <ele>1248</ele>
        <time>2017-03-01T22:53:38Z</time>
      </trkpt>
      <trkpt lat="44.39735" lon="3.75432">
        <ele>1249</ele>
        <time>2017-03-01T22:55:38Z</time>
      </trkpt>
      <trkpt lat="44.39734" lon="3.75436">
        <ele>1250</ele>
        <time>2017-03-01T22:57:38Z</time>
      </trkpt>
      <trkpt lat="44.39734" lon="3.75439">
        <ele>1251</ele>
        <time>2017-03-01T22:59:38Z</time>
      </trkpt>
      <trkpt lat="44.39733" lon="3.75441">
        <ele>1251</ele>
        <time>2017-03-01T23:01:38Z</time>
      </trkpt>
      <trkpt lat="44.39723" lon="3.75443">
        <ele>1252</ele>
        <time>2017-03-01T23:03:38Z</time>
      </trkpt>
      <trkpt lat="44.39721" lon="3.75443">
        <ele>1253</ele>
        <time>2017-03-01T23:05:38Z</time>
      </trkpt>
      <trkpt lat="44.3972" lon="3.75445">
        <ele>1253</ele>
        <time>2017-03-01T23:07:38Z</time>
      </trkpt>
      <trkpt lat="44.39719" lon="3.75448">
        <ele>1254</ele>
        <time>2017-03-01T23:09:38Z</time>
      </trkpt>
      <trkpt lat="44.39718" lon="3.7545">
        <ele>1255</ele>
        <time>2017-03-01T23:11:38Z</time>
      </trkpt>
      <trkpt lat="44.39717" lon="3.75452">
        <ele>1255</ele>
        <time>2017-03-01T23:13:38Z</time>
      </trkpt>
      <trkpt lat="44.39715" lon="3.75452">
        <ele>1255</ele>
        <time>2017-03-01T23:15:38Z</time>
      </trkpt>
      <trkpt lat="44.3971" lon="3.75453">
        <ele>1256</ele>
        <time>2017-03-01T23:17:38Z</time>
      </trkpt>
      <trkpt lat="44.39696" lon="3.75451">
        <ele>1256</ele>
        <time>2017-03-01T23:19:38Z</time>
      </trkpt>
      <trkpt lat="44.39683" lon="3.75451">
        <ele>1257</ele>
        <time>2017-03-01T23:21:38Z</time>
      </trkpt>
      <trkpt lat="44.39679" lon="3.75452">
        <ele>1257</ele>
        <time>2017-03-01T23:23:38Z</time>
      </trkpt>
      <trkpt lat="44.39676" lon="3.75453">
        <ele>1257</ele>
        <time>2017-03-01T23:25:38Z</time>
      </trkpt>
      <trkpt lat="44.39672" lon="3.75455">
        <ele>1258</ele>
        <time>2017-03-01T23:27:38Z</time>
      </trkpt>
      <trkpt lat="44.39651" lon="3.7547">
        <ele>1263</ele>
        <time>2017-03-01T23:29:38Z</time>
      </trkpt>
      <trkpt lat="44.39628" lon="3.75483">
        <ele>1266</ele>
        <time>2017-03-01T23:31:38Z</time>
      </trkpt>
      <trkpt lat="44.39591" lon="3.75511">
        <ele>1271</ele>
        <time>2017-03-01T23:33:38Z</time>
      </trkpt>
      <trkpt lat="44.39587" lon="3.75516">
        <ele>1272</ele>
        <time>2017-03-01T23:35:38Z</time>
      </trkpt>
      <trkpt lat="44.39585" lon="3.75519">
        <ele>1273</ele>
        <time>2017-03-01T23:37:38Z</time>
      </trkpt>
      <trkpt lat="44.39582" lon="3.75522">
        <ele>1274</ele>
        <time>2017-03-01T23:39:38Z</time>
      </trkpt>
      <trkpt lat="44.39578" lon="3.75526">
        <ele>1274</ele>
        <time>2017-03-01T23:41:38Z</time>
      </trkpt>
      <trkpt lat="44.39573" lon="3.75535">
        <ele>1276</ele>
        <time>2017-03-01T23:43:38Z</time>
      </trkpt>
      <trkpt lat="44.39571" lon="3.75539">
        <ele>1277</ele>
        <time>2017-03-01T23:45:38Z</time>
      </trkpt>
      <trkpt lat="44.39562" lon="3.75547">
        <ele>1278</ele>
        <time>2017-03-01T23:47:38Z</time>
      </trkpt>
      <trkpt lat="44.39552" lon="3.75561">
        <ele>1281</ele>
        <time>2017-03-01T23:49:38Z</time>
      </trkpt>
      <trkpt lat="44.39549" lon="3.75563">
        <ele>1281</ele>
        <time>2017-03-01T23:51:38Z</time>
      </trkpt>
      <trkpt lat="44.39546" lon="3.75564">
        <ele>1281</ele>
        <time>2017-03-01T23:53:38Z</time>
      </trkpt>
      <trkpt lat="44.39545" lon="3.75564">
        <ele>1281</ele>
        <time>2017-03-01T23:55:38Z</time>
      </trkpt>
      <trkpt lat="44.39542" lon="3.75565">
        <ele>1281</ele>
        <time>2017-03-01T23:57:38Z</time>
      </trkpt>
      <trkpt lat="44.3954" lon="3.75566">
        <ele>1281</ele>
        <time>2017-03-01T23:59:38Z</time>
      </trkpt>
      <trkpt lat="44.39539" lon="3.75567">
        <ele>1281</ele>
        <time>2017-03-02T00:01:38Z</time>
      </trkpt>
      <trkpt lat="44.39538" lon="3.75569">
        <ele>1282</ele>
        <time>2017-03-02T00:03:38Z</time>
      </trkpt>
      <trkpt lat="44.39536" lon="3.75573">
        <ele>1282</ele>
        <time>2017-03-02T00:05:38Z</time>
      </trkpt>
      <trkpt lat="44.39535" lon="3.75577">
        <ele>1283</ele>
        <time>2017-03-02T00:07:38Z</time>
      </trkpt>
      <trkpt lat="44.39534" lon="3.7558">
        <ele>1284</ele>
        <time>2017-03-02T00:09:38Z</time>
      </trkpt>
      <trkpt lat="44.39533" lon="3.75582">
        <ele>1284</ele>
        <time>2017-03-02T00:11:38Z</time>
      </trkpt>
      <trkpt lat="44.39533" lon="3.75583">
        <ele>1284</ele>
        <time>2017-03-02T00:13:38Z</time>
      </trkpt>
      <trkpt lat="44.39532" lon="3.75584">
        <ele>1285</ele>
        <time>2017-03-02T00:15:38Z</time>
      </trkpt>
      <trkpt lat="44.39513" lon="3.75602">
        <ele>1287</ele>
        <time>2017-03-02T00:17:38Z</time>
      </trkpt>
      <trkpt lat="44.39506" lon="3.75609">
        <ele>1288</ele>
        <time>2017-03-02T00:19:38Z</time>
      </trkpt>
      <trkpt lat="44.39503" lon="3.75612">
        <ele>1288</ele>
        <time>2017-03-02T00:21:38Z</time>
      </trkpt>
      <trkpt lat="44.39502" lon="3.75616">
        <ele>1289</ele>
        <time>2017-03-02T00:23:38Z</time>
      </trkpt>
      <trkpt lat="44.39495" lon="3.75629">
        <ele>1291</ele>
        <time>2017-03-02T00:25:38Z</time>
      </trkpt>
      <trkpt lat="44.39494" lon="3.75631">
        <ele>1292</ele>
        <time>2017-03-02T00:27:38Z</time>
      </trkpt>
      <trkpt lat="44.39493" lon="3.75632">
        <ele>1292</ele>
        <time>2017-03-02T00:29:38Z</time>
      </trkpt>
      <trkpt lat="44.39481" lon="3.75647">
        <ele>1293</ele>
        <time>2017-03-02T00:31:38Z</time>
      </trkpt>
      <trkpt lat="44.39479" lon="3.75648">
        <ele>1293</ele>
        <time>2017-03-02T00:33:38Z</time>
      </trkpt>
      <trkpt lat="44.39477" lon="3.7565">
        <ele>1293</ele>
        <time>2017-03-02T00:35:38Z</time>
      </trkpt>
      <trkpt lat="44.39475" lon="3.75651">
        <ele>1293</ele>
        <time>2017-03-02T00:37:38Z</time>
      </trkpt>
      <trkpt lat="44.3947" lon="3.75653">
        <ele>1292</ele>
        <time>2017-03-02T00:39:38Z</time>
      </trkpt>
      <trkpt lat="44.39466" lon="3.75655">
        <ele>1292</ele>
        <time>2017-03-02T00:41:38Z</time>
      </trkpt>
      <trkpt lat="44.39465" lon="3.75656">
        <ele>1292</ele>
        <time>2017-03-02T00:43:38Z</time>
      </trkpt>
      <trkpt lat="44.39464" lon="3.75657">
        <ele>1292</ele>
        <time>2017-03-02T00:45:38Z</time>
      </trkpt>
      <trkpt lat="44.39447" lon="3.75684">
        <ele>1294</ele>
        <time>2017-03-02T00:47:38Z</time>
      </trkpt>
      <trkpt lat="44.39435" lon="3.75701">
        <ele>1295</ele>
        <time>2017-03-02T00:49:38Z</time>
      </trkpt>
      <trkpt lat="44.39431" lon="3.75708">
        <ele>1296</ele>
        <time>2017-03-02T00:51:38Z</time>
      </trkpt>
      <trkpt lat="44.39427" lon="3.75715">
        <ele>1296</ele>
        <time>2017-03-02T00:53:38Z</time>
      </trkpt>
      <trkpt lat="44.39421" lon="3.7573">
        <ele>1298</ele>
        <time>2017-03-02T00:55:38Z</time>
      </trkpt>
      <trkpt lat="44.39417" lon="3.75737">
        <ele>1299</ele>
        <time>2017-03-02T00:57:38Z</time>
      </trkpt>
      <trkpt lat="44.39416" lon="3.75739">
        <ele>1299</ele>
        <time>2017-03-02T00:59:38Z</time>
      </trkpt>
      <trkpt lat="44.39415" lon="3.75743">
        <ele>1299</ele>
        <time>2017-03-02T01:01:38Z</time>
      </trkpt>
      <trkpt lat="44.39414" lon="3.75746">
        <ele>1300</ele>
        <time>2017-03-02T01:03:38Z</time>
      </trkpt>
      <trkpt lat="44.39412" lon="3.75752">
        <ele>1300</ele>
        <time>2017-03-02T01:05:38Z</time>
      </trkpt>
      <trkpt lat="44.39382" lon="3.75806">
        <ele>1305</ele>
        <time>2017-03-02T01:07:38Z</time>
      </trkpt>
      <trkpt lat="44.39377" lon="3.75819">
        <ele>1307</ele>
        <time>2017-03-02T01:09:38Z</time>
      </trkpt>
      <trkpt lat="44.39375" lon="3.75823">
        <ele>1307</ele>
        <time>2017-03-02T01:11:38Z</time>
      </trkpt>
      <trkpt lat="44.39374" lon="3.75826">
        <ele>1308</ele>
        <time>2017-03-02T01:13:38Z</time>
      </trkpt>
      <trkpt lat="44.39372" lon="3.75828">
        <ele>1307</ele>
        <time>2017-03-02T01:15:38Z</time>
      </trkpt>
      <trkpt lat="44.39367" lon="3.75834">
        <ele>1307</ele>
        <time>2017-03-02T01:17:38Z</time>
      </trkpt>
      <trkpt lat="44.39364" lon="3.75838">
        <ele>1307</ele>
        <time>2017-03-02T01:19:38Z</time>
      </trkpt>
      <trkpt lat="44.39363" lon="3.75841">
        <ele>1308</ele>
        <time>2017-03-02T01:21:38Z</time>
      </trkpt>
      <trkpt lat="44.3936" lon="3.75842">
        <ele>1307</ele>
        <time>2017-03-02T01:23:38Z</time>
      </trkpt>
      <trkpt lat="44.39357" lon="3.75846">
        <ele>1307</ele>
        <time>2017-03-02T01:25:38Z</time>
      </trkpt>
      <trkpt lat="44.39354" lon="3.75849">
        <ele>1307</ele>
        <time>2017-03-02T01:27:38Z</time>
      </trkpt>
      <trkpt lat="44.39353" lon="3.75855">
        <ele>1308</ele>
        <time>2017-03-02T01:29:38Z</time>
      </trkpt>
      <trkpt lat="44.39353" lon="3.7586">
        <ele>1309</ele>
        <time>2017-03-02T01:31:38Z</time>
      </trkpt>
      <trkpt lat="44.39353" lon="3.75865">
        <ele>1310</ele>
        <time>2017-03-02T01:33:38Z</time>
      </trkpt>
      <trkpt lat="44.39352" lon="3.75869">
        <ele>1311</ele>
        <time>2017-03-02T01:35:38Z</time>
      </trkpt>
      <trkpt lat="44.39351" lon="3.75872">
        <ele>1311</ele>
        <time>2017-03-02T01:37:38Z</time>
      </trkpt>
      <trkpt lat="44.3935" lon="3.75873">
        <ele>1311</ele>
        <time>2017-03-02T01:39:38Z</time>
      </trkpt>
      <trkpt lat="44.39341" lon="3.7589">
        <ele>1312</ele>
        <time>2017-03-02T01:41:38Z</time>
      </trkpt>
      <trkpt lat="44.39338" lon="3.75894">
        <ele>1312</ele>
        <time>2017-03-02T01:43:38Z</time>
      </trkpt>
      <trkpt lat="44.39337" lon="3.759">
        <ele>1313</ele>
        <time>2017-03-02T01:45:38Z</time>
      </trkpt>
      <trkpt lat="44.39336" lon="3.75908">
        <ele>1314</ele>
        <time>2017-03-02T01:47:38Z</time>
      </trkpt>
      <trkpt lat="44.39336" lon="3.75912">
        <ele>1315</ele>
        <time>2017-03-02T01:49:38Z</time>
      </trkpt>
      <trkpt lat="44.39335" lon="3.75918">
        <ele>1316</ele>
        <time>2017-03-02T01:51:38Z</time>
      </trkpt>
      <trkpt lat="44.39316" lon="3.7597">
        <ele>1317</ele>
        <time>2017-03-02T01:53:38Z</time>
      </trkpt>
      <trkpt lat="44.3931" lon="3.75986">
        <ele>1318</ele>
        <time>2017-03-02T01:55:38Z</time>
      </trkpt>
      <trkpt lat="44.39308" lon="3.76002">
        <ele>1319</ele>
        <time>2017-03-02T01:57:38Z</time>
      </trkpt>
      <trkpt lat="44.39308" lon="3.76014">
        <ele>1319</ele>
        <time>2017-03-02T01:59:38Z</time>
      </trkpt>
      <trkpt lat="44.39307" lon="3.76026">
        <ele>1319</ele>
        <time>2017-03-02T02:01:38Z</time>
      </trkpt>
      <trkpt lat="44.39306" lon="3.76034">
        <ele>1319</ele>
        <time>2017-03-02T02:03:38Z</time>
      </trkpt>
      <trkpt lat="44.39303" lon="3.76045">
        <ele>1319</ele>
        <time>2017-03-02T02:05:38Z</time>
      </trkpt>
      <trkpt lat="44.39301" lon="3.76055">
        <ele>1318</ele>
        <time>2017-03-02T02:07:38Z</time>
      </trkpt>
      <trkpt lat="44.39301" lon="3.76064">
        <ele>1318</ele>
        <time>2017-03-02T02:09:38Z</time>
      </trkpt>
      <trkpt lat="44.39303" lon="3.76077">
        <ele>1319</ele>
        <time>2017-03-02T02:11:38Z</time>
      </trkpt>
      <trkpt lat="44.39307" lon="3.76083">
        <ele>1320</ele>
        <time>2017-03-02T02:13:38Z</time>
      </trkpt>
      <trkpt lat="44.39311" lon="3.76086">
        <ele>1320</ele>
        <time>2017-03-02T02:15:38Z</time>
      </trkpt>
      <trkpt lat="44.39315" lon="3.76094">
        <ele>1319</ele>
        <time>2017-03-02T02:17:38Z</time>
      </trkpt>
      <trkpt lat="44.39322" lon="3.76101">
        <ele>1319</ele>
        <time>2017-03-02T02:19:38Z</time>
      </trkpt>
      <trkpt lat="44.3933" lon="3.76106">
        <ele>1319</ele>
        <time>2017-03-02T02:21:38Z</time>
      </trkpt>
      <trkpt lat="44.39341" lon="3.76111">
        <ele>1320</ele>
        <time>2017-03-02T02:23:38Z</time>
      </trkpt>
      <trkpt lat="44.39355" lon="3.76115">
        <ele>1321</ele>
        <time>2017-03-02T02:25:38Z</time>
      </trkpt>
      <trkpt lat="44.39367" lon="3.76121">
        <ele>1322</ele>
        <time>2017-03-02T02:27:38Z</time>
      </trkpt>
      <trkpt lat="44.39377" lon="3.76128">
        <ele>1322</ele>
        <time>2017-03-02T02:29:38Z</time>
      </trkpt>
      <trkpt lat="44.39385" lon="3.76135">
        <ele>1322</ele>
        <time>2017-03-02T02:31:38Z</time>
      </trkpt>
      <trkpt lat="44.39394" lon="3.76139">
        <ele>1322</ele>
        <time>2017-03-02T02:33:38Z</time>
      </trkpt>
      <trkpt lat="44.394" lon="3.76147">
        <ele>1322</ele>
        <time>2017-03-02T02:35:38Z</time>
      </trkpt>
      <trkpt lat="44.3941" lon="3.76159">
        <ele>1321</ele>
        <time>2017-03-02T02:37:38Z</time>
      </trkpt>
      <trkpt lat="44.39419" lon="3.76166">
        <ele>1321</ele>
        <time>2017-03-02T02:39:38Z</time>
      </trkpt>
      <trkpt lat="44.39425" lon="3.76173">
        <ele>1321</ele>
        <time>2017-03-02T02:41:38Z</time>
      </trkpt>
      <trkpt lat="44.39431" lon="3.76182">
        <ele>1320</ele>
        <time>2017-03-02T02:43:38Z</time>
      </trkpt>
      <trkpt lat="44.39439" lon="3.76192">
        <ele>1320</ele>
        <time>2017-03-02T02:45:38Z</time>
      </trkpt>
      <trkpt lat="44.39449" lon="3.7621">
        <ele>1320</ele>
        <time>2017-03-02T02:47:38Z</time>
      </trkpt>
      <trkpt lat="44.39455" lon="3.76224">
        <ele>1319</ele>
        <time>2017-03-02T02:49:38Z</time>
      </trkpt>
      <trkpt lat="44.39463" lon="3.76245">
        <ele>1317</ele>
        <time>2017-03-02T02:51:38Z</time>
      </trkpt>
      <trkpt lat="44.3947" lon="3.76267">
        <ele>1316</ele>
        <time>2017-03-02T02:53:38Z</time>
      </trkpt>
      <trkpt lat="44.39478" lon="3.76286">
        <ele>1315</ele>
        <time>2017-03-02T02:55:38Z</time>
      </trkpt>
      <trkpt lat="44.39481" lon="3.763">
        <ele>1315</ele>
        <time>2017-03-02T02:57:38Z</time>
      </trkpt>
      <trkpt lat="44.39486" lon="3.76314">
        <ele>1314</ele>
        <time>2017-03-02T02:59:38Z</time>
      </trkpt>
      <trkpt lat="44.39495" lon="3.76336">
        <ele>1314</ele>
        <time>2017-03-02T03:01:38Z</time>
      </trkpt>
      <trkpt lat="44.39498" lon="3.76347">
        <ele>1314</ele>
        <time>2017-03-02T03:03:38Z</time>
      </trkpt>
      <trkpt lat="44.39498" lon="3.76355">
        <ele>1313</ele>
        <time>2017-03-02T03:05:38Z</time>
      </trkpt>
      <trkpt lat="44.39497" lon="3.76371">
        <ele>1312</ele>
        <time>2017-03-02T03:07:38Z</time>
      </trkpt>
      <trkpt lat="44.39495" lon="3.76389">
        <ele>1310</ele>
        <time>2017-03-02T03:09:38Z</time>
      </trkpt>
      <trkpt lat="44.39495" lon="3.7641">
        <ele>1309</ele>
        <time>2017-03-02T03:11:38Z</time>
      </trkpt>
      <trkpt lat="44.39497" lon="3.76426">
        <ele>1308</ele>
        <time>2017-03-02T03:13:38Z</time>
      </trkpt>
      <trkpt lat="44.39502" lon="3.76445">
        <ele>1306</ele>
        <time>2017-03-02T03:15:38Z</time>
      </trkpt>
      <trkpt lat="44.39509" lon="3.76469">
        <ele>1304</ele>
        <time>2017-03-02T03:17:38Z</time>
      </trkpt>
      <trkpt lat="44.39515" lon="3.76486">
        <ele>1304</ele>
        <time>2017-03-02T03:19:38Z</time>
      </trkpt>
      <trkpt lat="44.39518" lon="3.76504">
        <ele>1303</ele>
        <time>2017-03-02T03:21:38Z</time>
      </trkpt>
      <trkpt lat="44.39518" lon="3.76504">
        <ele>1303</ele>
        <time>2017-03-02T03:23:38Z</time>
      </trkpt>
      <trkpt lat="44.39521" lon="3.76506">
        <ele>1303</ele>
        <time>2017-03-02T03:25:38Z</time>
      </trkpt>
      <trkpt lat="44.39521" lon="3.76507">
        <ele>1303</ele>
        <time>2017-03-02T03:27:38Z</time>
      </trkpt>
      <trkpt lat="44.39525" lon="3.76512">
        <ele>1304</ele>
        <time>2017-03-02T03:29:38Z</time>
      </trkpt>
      <trkpt lat="44.39527" lon="3.76518">
        <ele>1304</ele>
        <time>2017-03-02T03:31:38Z</time>
      </trkpt>
      <trkpt lat="44.39528" lon="3.76528">
        <ele>1304</ele>
        <time>2017-03-02T03:33:38Z</time>
      </trkpt>
      <trkpt lat="44.39527" lon="3.76539">
        <ele>1304</ele>
        <time>2017-03-02T03:35:38Z</time>
      </trkpt>
      <trkpt lat="44.39526" lon="3.76552">
        <ele>1303</ele>
        <time>2017-03-02T03:37:38Z</time>
      </trkpt>
      <trkpt lat="44.39522" lon="3.76573">
        <ele>1302</ele>
        <time>2017-03-02T03:39:38Z</time>
      </trkpt>
      <trkpt lat="44.3952" lon="3.76587">
        <ele>1302</ele>
        <time>2017-03-02T03:41:38Z</time>
      </trkpt>
      <trkpt lat="44.3952" lon="3.76606">
        <ele>1302</ele>
        <time>2017-03-02T03:43:38Z</time>
      </trkpt>
      <trkpt lat="44.3952" lon="3.76617">
        <ele>1302</ele>
        <time>2017-03-02T03:45:38Z</time>
      </trkpt>
      <trkpt lat="44.39518" lon="3.76622">
        <ele>1302</ele>
        <time>2017-03-02T03:47:38Z</time>
      </trkpt>
      <trkpt lat="44.39514" lon="3.7663">
        <ele>1301</ele>
        <time>2017-03-02T03:49:38Z</time>
      </trkpt>
      <trkpt lat="44.3951" lon="3.76639">
        <ele>1300</ele>
        <time>2017-03-02T03:51:38Z</time>
      </trkpt>
      <trkpt lat="44.39508" lon="3.76648">
        <ele>1299</ele>
        <time>2017-03-02T03:53:38Z</time>
      </trkpt>
      <trkpt lat="44.39507" lon="3.7666">
        <ele>1299</ele>
        <time>2017-03-02T03:55:38Z</time>
      </trkpt>
      <trkpt lat="44.39507" lon="3.76668">
        <ele>1299</ele>
        <time>2017-03-02T03:57:38Z</time>
      </trkpt>
      <trkpt lat="44.39509" lon="3.76678">
        <ele>1300</ele>
        <time>2017-03-02T03:59:38Z</time>
      </trkpt>
      <trkpt lat="44.39512" lon="3.76686">
        <ele>1301</ele>
        <time>2017-03-02T04:01:38Z</time>
      </trkpt>
      <trkpt lat="44.39517" lon="3.76694">
        <ele>1303</ele>
        <time>2017-03-02T04:03:38Z</time>
      </trkpt>
      <trkpt lat="44.39524" lon="3.76704">
        <ele>1305</ele>
        <time>2017-03-02T04:05:38Z</time>
      </trkpt>
      <trkpt lat="44.39526" lon="3.76708">
        <ele>1306</ele>
        <time>2017-03-02T04:07:38Z</time>
      </trkpt>
      <trkpt lat="44.39526" lon="3.76708">
        <ele>1306</ele>
        <time>2017-03-02T04:09:38Z</time>
      </trkpt>
      <trkpt lat="44.39526" lon="3.76711">
        <ele>1306</ele>
        <time>2017-03-02T04:11:38Z</time>
      </trkpt>
      <trkpt lat="44.39526" lon="3.76714">
        <ele>1306</ele>
        <time>2017-03-02T04:13:38Z</time>
      </trkpt>
      <trkpt lat="44.39519" lon="3.76726">
        <ele>1305</ele>
        <time>2017-03-02T04:15:38Z</time>
      </trkpt>
      <trkpt lat="44.39511" lon="3.76751">
        <ele>1304</ele>
        <time>2017-03-02T04:17:38Z</time>
      </trkpt>
      <trkpt lat="44.39505" lon="3.76772">
        <ele>1303</ele>
        <time>2017-03-02T04:19:38Z</time>
      </trkpt>
      <trkpt lat="44.39502" lon="3.76787">
        <ele>1303</ele>
        <time>2017-03-02T04:21:38Z</time>
      </trkpt>
      <trkpt lat="44.39501" lon="3.76803">
        <ele>1303</ele>
        <time>2017-03-02T04:23:38Z</time>
      </trkpt>
      <trkpt lat="44.39501" lon="3.76814">
        <ele>1304</ele>
        <time>2017-03-02T04:25:38Z</time>
      </trkpt>
      <trkpt lat="44.39501" lon="3.76819">
        <ele>1304</ele>
        <time>2017-03-02T04:27:38Z</time>
      </trkpt>
      <trkpt lat="44.39502" lon="3.76834">
        <ele>1304</ele>
        <time>2017-03-02T04:29:38Z</time>
      </trkpt>
      <trkpt lat="44.39503" lon="3.76845">
        <ele>1303</ele>
        <time>2017-03-02T04:31:38Z</time>
      </trkpt>
      <trkpt lat="44.39506" lon="3.76863">
        <ele>1301</ele>
        <time>2017-03-02T04:33:38Z</time>
      </trkpt>
      <trkpt lat="44.39507" lon="3.76868">
        <ele>1301</ele>
        <time>2017-03-02T04:35:38Z</time>
      </trkpt>
      <trkpt lat="44.3951" lon="3.76874">
        <ele>1300</ele>
        <time>2017-03-02T04:37:38Z</time>
      </trkpt>
      <trkpt lat="44.39512" lon="3.76878">
        <ele>1300</ele>
        <time>2017-03-02T04:39:38Z</time>
      </trkpt>
      <trkpt lat="44.39516" lon="3.76881">
        <ele>1300</ele>
        <time>2017-03-02T04:41:38Z</time>
      </trkpt>
      <trkpt lat="44.39521" lon="3.76883">
        <ele>1300</ele>
        <time>2017-03-02T04:43:38Z</time>
      </trkpt>
      <trkpt lat="44.39546" lon="3.76885">
        <ele>1301</ele>
        <time>2017-03-02T04:45:38Z</time>
      </trkpt>
      <trkpt lat="44.39562" lon="3.76887">
        <ele>1301</ele>
        <time>2017-03-02T04:47:38Z</time>
      </trkpt>
      <trkpt lat="44.39573" lon="3.76889">
        <ele>1301</ele>
        <time>2017-03-02T04:49:38Z</time>
      </trkpt>
      <trkpt lat="44.39584" lon="3.76892">
        <ele>1301</ele>
        <time>2017-03-02T04:51:38Z</time>
      </trkpt>
      <trkpt lat="44.39596" lon="3.76894">
        <ele>1300</ele>
        <time>2017-03-02T04:53:38Z</time>
      </trkpt>
      <trkpt lat="44.39606" lon="3.76894">
        <ele>1299</ele>
        <time>2017-03-02T04:55:38Z</time>
      </trkpt>
      <trkpt lat="44.39631" lon="3.7689">
        <ele>1298</ele>
        <time>2017-03-02T04:57:38Z</time>
      </trkpt>
      <trkpt lat="44.39674" lon="3.76881">
        <ele>1297</ele>
        <time>2017-03-02T04:59:38Z</time>
      </trkpt>
      <trkpt lat="44.39686" lon="3.76878">
        <ele>1297</ele>
        <time>2017-03-02T05:01:38Z</time>
      </trkpt>
      <trkpt lat="44.39708" lon="3.76875">
        <ele>1296</ele>
        <time>2017-03-02T05:03:38Z</time>
      </trkpt>
      <trkpt lat="44.39716" lon="3.76873">
        <ele>1295</ele>
        <time>2017-03-02T05:05:38Z</time>
      </trkpt>
      <trkpt lat="44.39721" lon="3.76871">
        <ele>1295</ele>
        <time>2017-03-02T05:07:38Z</time>
      </trkpt>
      <trkpt lat="44.39731" lon="3.76869">
        <ele>1295</ele>
        <time>2017-03-02T05:09:38Z</time>
      </trkpt>
      <trkpt lat="44.39738" lon="3.76868">
        <ele>1294</ele>
        <time>2017-03-02T05:11:38Z</time>
      </trkpt>
      <trkpt lat="44.39748" lon="3.76868">
        <ele>1294</ele>
        <time>2017-03-02T05:13:38Z</time>
      </trkpt>
      <trkpt lat="44.39764" lon="3.76871">
        <ele>1293</ele>
        <time>2017-03-02T05:15:38Z</time>
      </trkpt>
      <trkpt lat="44.39785" lon="3.76877">
        <ele>1291</ele>
        <time>2017-03-02T05:17:38Z</time>
      </trkpt>
      <trkpt lat="44.39793" lon="3.76879">
        <ele>1291</ele>
        <time>2017-03-02T05:19:38Z</time>
      </trkpt>
      <trkpt lat="44.39803" lon="3.76883">
        <ele>1291</ele>
        <time>2017-03-02T05:21:38Z</time>
      </trkpt>
      <trkpt lat="44.39811" lon="3.76888">
        <ele>1290</ele>
        <time>2017-03-02T05:23:38Z</time>
      </trkpt>
      <trkpt lat="44.39836" lon="3.76896">
        <ele>1290</ele>
        <time>2017-03-02T05:25:38Z</time>
      </trkpt>
      <trkpt lat="44.39842" lon="3.769">
        <ele>1290</ele>
        <time>2017-03-02T05:27:38Z</time>
      </trkpt>
      <trkpt lat="44.39847" lon="3.76905">
        <ele>1290</ele>
        <time>2017-03-02T05:29:38Z</time>
      </trkpt>
      <trkpt lat="44.39853" lon="3.76912">
        <ele>1290</ele>
        <time>2017-03-02T05:31:38Z</time>
      </trkpt>
      <trkpt lat="44.39855" lon="3.76917">
        <ele>1289</ele>
        <time>2017-03-02T05:33:38Z</time>
      </trkpt>
      <trkpt lat="44.39858" lon="3.76924">
        <ele>1290</ele>
        <time>2017-03-02T05:35:38Z</time>
      </trkpt>
      <trkpt lat="44.3986" lon="3.76932">
        <ele>1290</ele>
        <time>2017-03-02T05:37:38Z</time>
      </trkpt>
      <trkpt lat="44.39861" lon="3.7694">
        <ele>1290</ele>
        <time>2017-03-02T05:39:38Z</time>
      </trkpt>
      <trkpt lat="44.39862" lon="3.76951">
        <ele>1291</ele>
        <time>2017-03-02T05:41:38Z</time>
      </trkpt>
      <trkpt lat="44.39862" lon="3.76962">
        <ele>1291</ele>
        <time>2017-03-02T05:43:38Z</time>
      </trkpt>
      <trkpt lat="44.39859" lon="3.76973">
        <ele>1291</ele>
        <time>2017-03-02T05:45:38Z</time>
      </trkpt>
      <trkpt lat="44.39855" lon="3.76982">
        <ele>1291</ele>
        <time>2017-03-02T05:47:38Z</time>
      </trkpt>
      <trkpt lat="44.39849" lon="3.76991">
        <ele>1291</ele>
        <time>2017-03-02T05:49:38Z</time>
      </trkpt>
      <trkpt lat="44.39841" lon="3.77001">
        <ele>1290</ele>
        <time>2017-03-02T05:51:38Z</time>
      </trkpt>
      <trkpt lat="44.3984" lon="3.77005">
        <ele>1290</ele>
        <time>2017-03-02T05:53:38Z</time>
      </trkpt>
      <trkpt lat="44.39838" lon="3.77012">
        <ele>1290</ele>
        <time>2017-03-02T05:55:38Z</time>
      </trkpt>
      <trkpt lat="44.39838" lon="3.77025">
        <ele>1290</ele>
        <time>2017-03-02T05:57:38Z</time>
      </trkpt>
      <trkpt lat="44.39838" lon="3.77042">
        <ele>1291</ele>
        <time>2017-03-02T05:59:38Z</time>
      </trkpt>
      <trkpt lat="44.3984" lon="3.77052">
        <ele>1291</ele>
        <time>2017-03-02T06:01:38Z</time>
      </trkpt>
      <trkpt lat="44.39842" lon="3.7706">
        <ele>1291</ele>
        <time>2017-03-02T06:03:38Z</time>
      </trkpt>
      <trkpt lat="44.39846" lon="3.77065">
        <ele>1292</ele>
        <time>2017-03-02T06:05:38Z</time>
      </trkpt>
      <trkpt lat="44.39851" lon="3.77071">
        <ele>1293</ele>
        <time>2017-03-02T06:07:38Z</time>
      </trkpt>
      <trkpt lat="44.39857" lon="3.77075">
        <ele>1293</ele>
        <time>2017-03-02T06:09:38Z</time>
      </trkpt>
      <trkpt lat="44.39862" lon="3.77078">
        <ele>1294</ele>
        <time>2017-03-02T06:11:38Z</time>
      </trkpt>
      <trkpt lat="44.39867" lon="3.7708">
        <ele>1295</ele>
        <time>2017-03-02T06:13:38Z</time>
      </trkpt>
      <trkpt lat="44.39875" lon="3.77082">
        <ele>1295</ele>
        <time>2017-03-02T06:15:38Z</time>
      </trkpt>
      <trkpt lat="44.3989" lon="3.77084">
        <ele>1297</ele>
        <time>2017-03-02T06:17:38Z</time>
      </trkpt>
      <trkpt lat="44.39895" lon="3.77085">
        <ele>1298</ele>
        <time>2017-03-02T06:19:38Z</time>
      </trkpt>
      <trkpt lat="44.39916" lon="3.77086">
        <ele>1300</ele>
        <time>2017-03-02T06:21:38Z</time>
      </trkpt>
      <trkpt lat="44.3992" lon="3.77087">
        <ele>1300</ele>
        <time>2017-03-02T06:23:38Z</time>
      </trkpt>
      <trkpt lat="44.39921" lon="3.77088">
        <ele>1301</ele>
        <time>2017-03-02T06:25:38Z</time>
      </trkpt>
      <trkpt lat="44.39922" lon="3.7709">
        <ele>1301</ele>
        <time>2017-03-02T06:27:38Z</time>
      </trkpt>
      <trkpt lat="44.39922" lon="3.77093">
        <ele>1301</ele>
        <time>2017-03-02T06:29:38Z</time>
      </trkpt>
      <trkpt lat="44.39922" lon="3.77103">
        <ele>1301</ele>
        <time>2017-03-02T06:31:38Z</time>
      </trkpt>
      <trkpt lat="44.39921" lon="3.7711">
        <ele>1301</ele>
        <time>2017-03-02T06:33:38Z</time>
      </trkpt>
      <trkpt lat="44.39921" lon="3.77116">
        <ele>1302</ele>
        <time>2017-03-02T06:35:38Z</time>
      </trkpt>
      <trkpt lat="44.3992" lon="3.77128">
        <ele>1302</ele>
        <time>2017-03-02T06:37:38Z</time>
      </trkpt>
      <trkpt lat="44.39917" lon="3.77141">
        <ele>1302</ele>
        <time>2017-03-02T06:39:38Z</time>
      </trkpt>
      <trkpt lat="44.39917" lon="3.77143">
        <ele>1302</ele>
        <time>2017-03-02T06:41:38Z</time>
      </trkpt>
      <trkpt lat="44.39916" lon="3.77145">
        <ele>1302</ele>
        <time>2017-03-02T06:43:38Z</time>
      </trkpt>
      <trkpt lat="44.39915" lon="3.77147">
        <ele>1302</ele>
        <time>2017-03-02T06:45:38Z</time>
      </trkpt>
      <trkpt lat="44.39914" lon="3.7715">
        <ele>1302</ele>
        <time>2017-03-02T06:47:38Z</time>
      </trkpt>
      <trkpt lat="44.39912" lon="3.77152">
        <ele>1302</ele>
        <time>2017-03-02T06:49:38Z</time>
      </trkpt>
      <trkpt lat="44.3991" lon="3.77156">
        <ele>1302</ele>
        <time>2017-03-02T06:51:38Z</time>
      </trkpt>
      <trkpt lat="44.39907" lon="3.77159">
        <ele>1302</ele>
        <time>2017-03-02T06:53:38Z</time>
      </trkpt>
      <trkpt lat="44.39901" lon="3.77164">
        <ele>1301</ele>
        <time>2017-03-02T06:55:38Z</time>
      </trkpt>
      <trkpt lat="44.39888" lon="3.77172">
        <ele>1301</ele>
        <time>2017-03-02T06:57:38Z</time>
      </trkpt>
      <trkpt lat="44.3988" lon="3.77178">
        <ele>1301</ele>
        <time>2017-03-02T06:59:38Z</time>
      </trkpt>
      <trkpt lat="44.39876" lon="3.77183">
        <ele>1301</ele>
        <time>2017-03-02T07:01:38Z</time>
      </trkpt>
      <trkpt lat="44.39871" lon="3.77192">
        <ele>1302</ele>
        <time>2017-03-02T07:03:38Z</time>
      </trkpt>
      <trkpt lat="44.39865" lon="3.77208">
        <ele>1304</ele>
        <time>2017-03-02T07:05:38Z</time>
      </trkpt>
      <trkpt lat="44.39857" lon="3.77233">
        <ele>1306</ele>
        <time>2017-03-02T07:07:38Z</time>
      </trkpt>
      <trkpt lat="44.39854" lon="3.7724">
        <ele>1307</ele>
        <time>2017-03-02T07:09:38Z</time>
      </trkpt>
      <trkpt lat="44.3985" lon="3.77245">
        <ele>1307</ele>
        <time>2017-03-02T07:11:38Z</time>
      </trkpt>
      <trkpt lat="44.39843" lon="3.77249">
        <ele>1306</ele>
        <time>2017-03-02T07:13:38Z</time>
      </trkpt>
      <trkpt lat="44.39823" lon="3.77257">
        <ele>1307</ele>
        <time>2017-03-02T07:15:38Z</time>
      </trkpt>
      <trkpt lat="44.39807" lon="3.77264">
        <ele>1310</ele>
        <time>2017-03-02T07:17:38Z</time>
      </trkpt>
      <trkpt lat="44.39802" lon="3.77264">
        <ele>1310</ele>
        <time>2017-03-02T07:19:38Z</time>
      </trkpt>
      <trkpt lat="44.39796" lon="3.77262">
        <ele>1311</ele>
        <time>2017-03-02T07:21:38Z</time>
      </trkpt>
      <trkpt lat="44.39789" lon="3.7726">
        <ele>1311</ele>
        <time>2017-03-02T07:23:38Z</time>
      </trkpt>
      <trkpt lat="44.39782" lon="3.77255">
        <ele>1310</ele>
        <time>2017-03-02T07:25:38Z</time>
      </trkpt>
      <trkpt lat="44.39773" lon="3.77246">
        <ele>1309</ele>
        <time>2017-03-02T07:27:38Z</time>
      </trkpt>
      <trkpt lat="44.39762" lon="3.77234">
        <ele>1308</ele>
        <time>2017-03-02T07:29:38Z</time>
      </trkpt>
      <trkpt lat="44.39755" lon="3.7723">
        <ele>1307</ele>
        <time>2017-03-02T07:31:38Z</time>
      </trkpt>
      <trkpt lat="44.39744" lon="3.77225">
        <ele>1307</ele>
        <time>2017-03-02T07:33:38Z</time>
      </trkpt>
      <trkpt lat="44.39727" lon="3.77218">
        <ele>1307</ele>
        <time>2017-03-02T07:35:38Z</time>
      </trkpt>
      <trkpt lat="44.39715" lon="3.77217">
        <ele>1308</ele>
        <time>2017-03-02T07:37:38Z</time>
      </trkpt>
      <trkpt lat="44.39693" lon="3.77215">
        <ele>1309</ele>
        <time>2017-03-02T07:39:38Z</time>
      </trkpt>
      <trkpt lat="44.39673" lon="3.77214">
        <ele>1310</ele>
        <time>2017-03-02T07:41:38Z</time>
      </trkpt>
      <trkpt lat="44.39665" lon="3.77215">
        <ele>1311</ele>
        <time>2017-03-02T07:43:38Z</time>
      </trkpt>
      <trkpt lat="44.39657" lon="3.77217">
        <ele>1311</ele>
        <time>2017-03-02T07:45:38Z</time>
      </trkpt>
      <trkpt lat="44.39651" lon="3.7722">
        <ele>1311</ele>
        <time>2017-03-02T07:47:38Z</time>
      </trkpt>
      <trkpt lat="44.39642" lon="3.77227">
        <ele>1313</ele>
        <time>2017-03-02T07:49:38Z</time>
      </trkpt>
      <trkpt lat="44.39631" lon="3.77232">
        <ele>1314</ele>
        <time>2017-03-02T07:51:38Z</time>
      </trkpt>
      <trkpt lat="44.39622" lon="3.77235">
        <ele>1314</ele>
        <time>2017-03-02T07:53:38Z</time>
      </trkpt>
      <trkpt lat="44.39613" lon="3.77239">
        <ele>1315</ele>
        <time>2017-03-02T07:55:38Z</time>
      </trkpt>
      <trkpt lat="44.39606" lon="3.77244">
        <ele>1316</ele>
        <time>2017-03-02T07:57:38Z</time>
      </trkpt>
      <trkpt lat="44.39594" lon="3.77254">
        <ele>1318</ele>
        <time>2017-03-02T07:59:38Z</time>
      </trkpt>
      <trkpt lat="44.39586" lon="3.77261">
        <ele>1319</ele>
        <time>2017-03-02T08:01:38Z</time>
      </trkpt>
      <trkpt lat="44.39578" lon="3.77268">
        <ele>1321</ele>
        <time>2017-03-02T08:03:38Z</time>
      </trkpt>
      <trkpt lat="44.39573" lon="3.77276">
        <ele>1323</ele>
        <time>2017-03-02T08:05:38Z</time>
      </trkpt>
      <trkpt lat="44.39568" lon="3.77284">
        <ele>1325</ele>
        <time>2017-03-02T08:07:38Z</time>
      </trkpt>
      <trkpt lat="44.39563" lon="3.77289">
        <ele>1326</ele>
        <time>2017-03-02T08:09:38Z</time>
      </trkpt>
      <trkpt lat="44.39557" lon="3.77293">
        <ele>1327</ele>
        <time>2017-03-02T08:11:38Z</time>
      </trkpt>
      <trkpt lat="44.3955" lon="3.77294">
        <ele>1327</ele>
        <time>2017-03-02T08:13:38Z</time>
      </trkpt>
      <trkpt lat="44.39541" lon="3.77294">
        <ele>1327</ele>
        <time>2017-03-02T08:15:38Z</time>
      </trkpt>
      <trkpt lat="44.39529" lon="3.77295">
        <ele>1326</ele>
        <time>2017-03-02T08:17:38Z</time>
      </trkpt>
      <trkpt lat="44.39523" lon="3.77297">
        <ele>1327</ele>
        <time>2017-03-02T08:19:38Z</time>
      </trkpt>
      <trkpt lat="44.39511" lon="3.77302">
        <ele>1328</ele>
        <time>2017-03-02T08:21:38Z</time>
      </trkpt>
      <trkpt lat="44.39503" lon="3.77304">
        <ele>1328</ele>
        <time>2017-03-02T08:23:38Z</time>
      </trkpt>
      <trkpt lat="44.39495" lon="3.77303">
        <ele>1328</ele>
        <time>2017-03-02T08:25:38Z</time>
      </trkpt>
      <trkpt lat="44.3948" lon="3.773">
        <ele>1328</ele>
        <time>2017-03-02T08:27:38Z</time>
      </trkpt>
      <trkpt lat="44.39472" lon="3.773">
        <ele>1329</ele>
        <time>2017-03-02T08:29:38Z</time>
      </trkpt>
      <trkpt lat="44.39456" lon="3.77301">
        <ele>1330</ele>
        <time>2017-03-02T08:31:38Z</time>
      </trkpt>
      <trkpt lat="44.39436" lon="3.77302">
        <ele>1332</ele>
        <time>2017-03-02T08:33:38Z</time>
      </trkpt>
      <trkpt lat="44.39424" lon="3.77303">
        <ele>1333</ele>
        <time>2017-03-02T08:35:38Z</time>
      </trkpt>
      <trkpt lat="44.3941" lon="3.77303">
        <ele>1334</ele>
        <time>2017-03-02T08:37:38Z</time>
      </trkpt>
      <trkpt lat="44.39399" lon="3.77301">
        <ele>1334</ele>
        <time>2017-03-02T08:39:38Z</time>
      </trkpt>
      <trkpt lat="44.39386" lon="3.77296">
        <ele>1334</ele>
        <time>2017-03-02T08:41:38Z</time>
      </trkpt>
      <trkpt lat="44.39372" lon="3.77292">
        <ele>1335</ele>
        <time>2017-03-02T08:43:38Z</time>
      </trkpt>
      <trkpt lat="44.39362" lon="3.77291">
        <ele>1335</ele>
        <time>2017-03-02T08:45:38Z</time>
      </trkpt>
      <trkpt lat="44.39357" lon="3.77289">
        <ele>1335</ele>
        <time>2017-03-02T08:47:38Z</time>
      </trkpt>
      <trkpt lat="44.39354" lon="3.77287">
        <ele>1335</ele>
        <time>2017-03-02T08:49:38Z</time>
      </trkpt>
      <trkpt lat="44.3935" lon="3.77285">
        <ele>1335</ele>
        <time>2017-03-02T08:51:38Z</time>
      </trkpt>
      <trkpt lat="44.39343" lon="3.7728">
        <ele>1335</ele>
        <time>2017-03-02T08:53:38Z</time>
      </trkpt>
      <trkpt lat="44.39328" lon="3.7727">
        <ele>1335</ele>
        <time>2017-03-02T08:55:38Z</time>
      </trkpt>
      <trkpt lat="44.39319" lon="3.77264">
        <ele>1335</ele>
        <time>2017-03-02T08:57:38Z</time>
      </trkpt>
      <trkpt lat="44.39316" lon="3.77262">
        <ele>1335</ele>
        <time>2017-03-02T08:59:38Z</time>
      </trkpt>
      <trkpt lat="44.39313" lon="3.77261">
        <ele>1335</ele>
        <time>2017-03-02T09:01:38Z</time>
      </trkpt>
      <trkpt lat="44.3931" lon="3.7726">
        <ele>1335</ele>
        <time>2017-03-02T09:03:38Z</time>
      </trkpt>
      <trkpt lat="44.39306" lon="3.77259">
        <ele>1335</ele>
        <time>2017-03-02T09:05:38Z</time>
      </trkpt>
      <trkpt lat="44.39301" lon="3.77259">
        <ele>1335</ele>
        <time>2017-03-02T09:07:38Z</time>
      </trkpt>
      <trkpt lat="44.39295" lon="3.77258">
        <ele>1336</ele>
        <time>2017-03-02T09:09:38Z</time>
      </trkpt>
      <trkpt lat="44.3929" lon="3.77258">
        <ele>1336</ele>
        <time>2017-03-02T09:11:38Z</time>
      </trkpt>
      <trkpt lat="44.39284" lon="3.77255">
        <ele>1336</ele>
        <time>2017-03-02T09:13:38Z</time>
      </trkpt>
      <trkpt lat="44.39275" lon="3.7725">
        <ele>1336</ele>
        <time>2017-03-02T09:15:38Z</time>
      </trkpt>
      <trkpt lat="44.39269" lon="3.77246">
        <ele>1336</ele>
        <time>2017-03-02T09:17:38Z</time>
      </trkpt>
      <trkpt lat="44.39264" lon="3.77245">
        <ele>1336</ele>
        <time>2017-03-02T09:19:38Z</time>
      </trkpt>
      <trkpt lat="44.39259" lon="3.77245">
        <ele>1336</ele>
        <time>2017-03-02T09:21:38Z</time>
      </trkpt>
      <trkpt lat="44.39256" lon="3.77246">
        <ele>1337</ele>
        <time>2017-03-02T09:23:38Z</time>
      </trkpt>
      <trkpt lat="44.39254" lon="3.77248">
        <ele>1337</ele>
        <time>2017-03-02T09:25:38Z</time>
      </trkpt>
      <trkpt lat="44.3925" lon="3.77252">
        <ele>1338</ele>
        <time>2017-03-02T09:27:38Z</time>
      </trkpt>
      <trkpt lat="44.39248" lon="3.77258">
        <ele>1339</ele>
        <time>2017-03-02T09:29:38Z</time>
      </trkpt>
      <trkpt lat="44.39247" lon="3.77262">
        <ele>1339</ele>
        <time>2017-03-02T09:31:38Z</time>
      </trkpt>
      <trkpt lat="44.39245" lon="3.77275">
        <ele>1340</ele>
        <time>2017-03-02T09:33:38Z</time>
      </trkpt>
      <trkpt lat="44.39244" lon="3.77286">
        <ele>1341</ele>
        <time>2017-03-02T09:35:38Z</time>
      </trkpt>
      <trkpt lat="44.39243" lon="3.77295">
        <ele>1342</ele>
        <time>2017-03-02T09:37:38Z</time>
      </trkpt>
      <trkpt lat="44.39242" lon="3.77303">
        <ele>1342</ele>
        <time>2017-03-02T09:39:38Z</time>
      </trkpt>
      <trkpt lat="44.3924" lon="3.77312">
        <ele>1343</ele>
        <time>2017-03-02T09:41:38Z</time>
      </trkpt>
      <trkpt lat="44.39236" lon="3.77323">
        <ele>1344</ele>
        <time>2017-03-02T09:43:38Z</time>
      </trkpt>
      <trkpt lat="44.39232" lon="3.77334">
        <ele>1345</ele>
        <time>2017-03-02T09:45:38Z</time>
      </trkpt>
      <trkpt lat="44.39229" lon="3.77341">
        <ele>1345</ele>
        <time>2017-03-02T09:47:38Z</time>
      </trkpt>
      <trkpt lat="44.39226" lon="3.77346">
        <ele>1346</ele>
        <time>2017-03-02T09:49:38Z</time>
      </trkpt>
      <trkpt lat="44.39219" lon="3.77356">
        <ele>1346</ele>
        <time>2017-03-02T09:51:38Z</time>
      </trkpt>
      <trkpt lat="44.39214" lon="3.77364">
        <ele>1347</ele>
        <time>2017-03-02T09:53:38Z</time>
      </trkpt>
      <trkpt lat="44.39206" lon="3.77375">
        <ele>1348</ele>
        <time>2017-03-02T09:55:38Z</time>
      </trkpt>
      <trkpt lat="44.39199" lon="3.77389">
        <ele>1349</ele>
        <time>2017-03-02T09:57:38Z</time>
      </trkpt>
      <trkpt lat="44.3919" lon="3.77408">
        <ele>1350</ele>
        <time>2017-03-02T09:59:38Z</time>
      </trkpt>
      <trkpt lat="44.39182" lon="3.77421">
        <ele>1351</ele>
        <time>2017-03-02T10:01:38Z</time>
      </trkpt>
      <trkpt lat="44.39177" lon="3.77429">
        <ele>1352</ele>
        <time>2017-03-02T10:03:38Z</time>
      </trkpt>
      <trkpt lat="44.39166" lon="3.77444">
        <ele>1353</ele>
        <time>2017-03-02T10:05:38Z</time>
      </trkpt>
      <trkpt lat="44.39161" lon="3.7745">
        <ele>1353</ele>
        <time>2017-03-02T10:07:38Z</time>
      </trkpt>
      <trkpt lat="44.39158" lon="3.77456">
        <ele>1354</ele>
        <time>2017-03-02T10:09:38Z</time>
      </trkpt>
      <trkpt lat="44.39156" lon="3.77462">
        <ele>1354</ele>
        <time>2017-03-02T10:11:38Z</time>
      </trkpt>
      <trkpt lat="44.39153" lon="3.77469">
        <ele>1355</ele>
        <time>2017-03-02T10:13:38Z</time>
      </trkpt>
      <trkpt lat="44.39149" lon="3.77482">
        <ele>1356</ele>
        <time>2017-03-02T10:15:38Z</time>
      </trkpt>
      <trkpt lat="44.39135" lon="3.77529">
        <ele>1361</ele>
        <time>2017-03-02T10:17:38Z</time>
      </trkpt>
      <trkpt lat="44.39131" lon="3.77538">
        <ele>1362</ele>
        <time>2017-03-02T10:19:38Z</time>
      </trkpt>
      <trkpt lat="44.39127" lon="3.77545">
        <ele>1363</ele>
        <time>2017-03-02T10:21:38Z</time>
      </trkpt>
      <trkpt lat="44.39124" lon="3.77548">
        <ele>1363</ele>
        <time>2017-03-02T10:23:38Z</time>
      </trkpt>
      <trkpt lat="44.39121" lon="3.7755">
        <ele>1362</ele>
        <time>2017-03-02T10:25:38Z</time>
      </trkpt>
      <trkpt lat="44.39109" lon="3.77555">
        <ele>1361</ele>
        <time>2017-03-02T10:27:38Z</time>
      </trkpt>
      <trkpt lat="44.39094" lon="3.77563">
        <ele>1360</ele>
        <time>2017-03-02T10:29:38Z</time>
      </trkpt>
      <trkpt lat="44.3909" lon="3.77566">
        <ele>1360</ele>
        <time>2017-03-02T10:31:38Z</time>
      </trkpt>
      <trkpt lat="44.39083" lon="3.7757">
        <ele>1359</ele>
        <time>2017-03-02T10:33:38Z</time>
      </trkpt>
      <trkpt lat="44.39075" lon="3.77577">
        <ele>1360</ele>
        <time>2017-03-02T10:35:38Z</time>
      </trkpt>
      <trkpt lat="44.39069" lon="3.77583">
        <ele>1360</ele>
        <time>2017-03-02T10:37:38Z</time>
      </trkpt>
      <trkpt lat="44.39062" lon="3.7759">
        <ele>1361</ele>
        <time>2017-03-02T10:39:38Z</time>
      </trkpt>
      <trkpt lat="44.39047" lon="3.77608">
        <ele>1362</ele>
        <time>2017-03-02T10:41:38Z</time>
      </trkpt>
      <trkpt lat="44.3903" lon="3.77631">
        <ele>1364</ele>
        <time>2017-03-02T10:43:38Z</time>
      </trkpt>
      <trkpt lat="44.39027" lon="3.77637">
        <ele>1365</ele>
        <time>2017-03-02T10:45:38Z</time>
      </trkpt>
      <trkpt lat="44.39024" lon="3.77642">
        <ele>1365</ele>
        <time>2017-03-02T10:47:38Z</time>
      </trkpt>
      <trkpt lat="44.3902" lon="3.77649">
        <ele>1366</ele>
        <time>2017-03-02T10:49:38Z</time>
      </trkpt>
      <trkpt lat="44.39018" lon="3.77654">
        <ele>1366</ele>
        <time>2017-03-02T10:51:38Z</time>
      </trkpt>
      <trkpt lat="44.39005" lon="3.77682">
        <ele>1367</ele>
        <time>2017-03-02T10:53:38Z</time>
      </trkpt>
      <trkpt lat="44.39001" lon="3.77693">
        <ele>1367</ele>
        <time>2017-03-02T10:55:38Z</time>
      </trkpt>
      <trkpt lat="44.38998" lon="3.77702">
        <ele>1367</ele>
        <time>2017-03-02T10:57:38Z</time>
      </trkpt>
      <trkpt lat="44.38996" lon="3.77708">
        <ele>1367</ele>
        <time>2017-03-02T10:59:38Z</time>
      </trkpt>
      <trkpt lat="44.38993" lon="3.77716">
        <ele>1368</ele>
        <time>2017-03-02T11:01:38Z</time>
      </trkpt>
      <trkpt lat="44.38991" lon="3.77727">
        <ele>1368</ele>
        <time>2017-03-02T11:03:38Z</time>
      </trkpt>
      <trkpt lat="44.3899" lon="3.77736">
        <ele>1368</ele>
        <time>2017-03-02T11:05:38Z</time>
      </trkpt>
      <trkpt lat="44.3899" lon="3.77743">
        <ele>1369</ele>
        <time>2017-03-02T11:07:38Z</time>
      </trkpt>
      <trkpt lat="44.3899" lon="3.7775">
        <ele>1369</ele>
        <time>2017-03-02T11:09:38Z</time>
      </trkpt>
      <trkpt lat="44.38991" lon="3.77757">
        <ele>1368</ele>
        <time>2017-03-02T11:11:38Z</time>
      </trkpt>
      <trkpt lat="44.38991" lon="3.77762">
        <ele>1368</ele>
        <time>2017-03-02T11:13:38Z</time>
      </trkpt>
      <trkpt lat="44.38992" lon="3.77767">
        <ele>1367</ele>
        <time>2017-03-02T11:15:38Z</time>
      </trkpt>
      <trkpt lat="44.38994" lon="3.77774">
        <ele>1367</ele>
        <time>2017-03-02T11:17:38Z</time>
      </trkpt>
      <trkpt lat="44.38997" lon="3.7778">
        <ele>1366</ele>
        <time>2017-03-02T11:19:38Z</time>
      </trkpt>
      <trkpt lat="44.38999" lon="3.77786">
        <ele>1366</ele>
        <time>2017-03-02T11:21:38Z</time>
      </trkpt>
      <trkpt lat="44.39003" lon="3.77794">
        <ele>1366</ele>
        <time>2017-03-02T11:23:38Z</time>
      </trkpt>
      <trkpt lat="44.39006" lon="3.77801">
        <ele>1365</ele>
        <time>2017-03-02T11:25:38Z</time>
      </trkpt>
      <trkpt lat="44.39009" lon="3.77807">
        <ele>1365</ele>
        <time>2017-03-02T11:27:38Z</time>
      </trkpt>
      <trkpt lat="44.39012" lon="3.77812">
        <ele>1365</ele>
        <time>2017-03-02T11:29:38Z</time>
      </trkpt>
      <trkpt lat="44.39015" lon="3.77817">
        <ele>1365</ele>
        <time>2017-03-02T11:31:38Z</time>
      </trkpt>
      <trkpt lat="44.39021" lon="3.77824">
        <ele>1365</ele>
        <time>2017-03-02T11:33:38Z</time>
      </trkpt>
      <trkpt lat="44.39025" lon="3.77828">
        <ele>1365</ele>
        <time>2017-03-02T11:35:38Z</time>
      </trkpt>
      <trkpt lat="44.39029" lon="3.77832">
        <ele>1365</ele>
        <time>2017-03-02T11:37:38Z</time>
      </trkpt>
      <trkpt lat="44.39037" lon="3.7784">
        <ele>1365</ele>
        <time>2017-03-02T11:39:38Z</time>
      </trkpt>
      <trkpt lat="44.39042" lon="3.77845">
        <ele>1365</ele>
        <time>2017-03-02T11:41:38Z</time>
      </trkpt>
      <trkpt lat="44.39048" lon="3.77851">
        <ele>1364</ele>
        <time>2017-03-02T11:43:38Z</time>
      </trkpt>
      <trkpt lat="44.39066" lon="3.77865">
        <ele>1363</ele>
        <time>2017-03-02T11:45:38Z</time>
      </trkpt>
      <trkpt lat="44.39083" lon="3.77877">
        <ele>1363</ele>
        <time>2017-03-02T11:47:38Z</time>
      </trkpt>
      <trkpt lat="44.39091" lon="3.77882">
        <ele>1363</ele>
        <time>2017-03-02T11:49:38Z</time>
      </trkpt>
      <trkpt lat="44.39095" lon="3.77884">
        <ele>1363</ele>
        <time>2017-03-02T11:51:38Z</time>
      </trkpt>
      <trkpt lat="44.39099" lon="3.77886">
        <ele>1363</ele>
        <time>2017-03-02T11:53:38Z</time>
      </trkpt>
      <trkpt lat="44.39103" lon="3.77888">
        <ele>1363</ele>
        <time>2017-03-02T11:55:38Z</time>
      </trkpt>
      <trkpt lat="44.39108" lon="3.77888">
        <ele>1364</ele>
        <time>2017-03-02T11:57:38Z</time>
      </trkpt>
      <trkpt lat="44.39112" lon="3.7789">
        <ele>1364</ele>
        <time>2017-03-02T11:59:38Z</time>
      </trkpt>
      <trkpt lat="44.39124" lon="3.77893">
        <ele>1366</ele>
        <time>2017-03-02T12:01:38Z</time>
      </trkpt>
      <trkpt lat="44.39128" lon="3.77894">
        <ele>1366</ele>
        <time>2017-03-02T12:03:38Z</time>
      </trkpt>
      <trkpt lat="44.3913" lon="3.77895">
        <ele>1366</ele>
        <time>2017-03-02T12:05:38Z</time>
      </trkpt>
      <trkpt lat="44.39133" lon="3.77896">
        <ele>1367</ele>
        <time>2017-03-02T12:07:38Z</time>
      </trkpt>
      <trkpt lat="44.39136" lon="3.77898">
        <ele>1367</ele>
        <time>2017-03-02T12:09:38Z</time>
      </trkpt>
      <trkpt lat="44.39138" lon="3.77901">
        <ele>1366</ele>
        <time>2017-03-02T12:11:38Z</time>
      </trkpt>
      <trkpt lat="44.3914" lon="3.77902">
        <ele>1367</ele>
        <time>2017-03-02T12:13:38Z</time>
      </trkpt>
      <trkpt lat="44.39143" lon="3.77905">
        <ele>1366</ele>
        <time>2017-03-02T12:15:38Z</time>
      </trkpt>
      <trkpt lat="44.39145" lon="3.77908">
        <ele>1366</ele>
        <time>2017-03-02T12:17:38Z</time>
      </trkpt>
      <trkpt lat="44.39148" lon="3.77911">
        <ele>1366</ele>
        <time>2017-03-02T12:19:38Z</time>
      </trkpt>
      <trkpt lat="44.3915" lon="3.77914">
        <ele>1366</ele>
        <time>2017-03-02T12:21:38Z</time>
      </trkpt>
      <trkpt lat="44.39152" lon="3.77921">
        <ele>1365</ele>
        <time>2017-03-02T12:23:38Z</time>
      </trkpt>
      <trkpt lat="44.39153" lon="3.77927">
        <ele>1365</ele>
        <time>2017-03-02T12:25:38Z</time>
      </trkpt>
      <trkpt lat="44.39153" lon="3.77937">
        <ele>1364</ele>
        <time>2017-03-02T12:27:38Z</time>
      </trkpt>
      <trkpt lat="44.39154" lon="3.77957">
        <ele>1362</ele>
        <time>2017-03-02T12:29:38Z</time>
      </trkpt>
      <trkpt lat="44.39155" lon="3.77971">
        <ele>1360</ele>
        <time>2017-03-02T12:31:38Z</time>
      </trkpt>
      <trkpt lat="44.39157" lon="3.77982">
        <ele>1359</ele>
        <time>2017-03-02T12:33:38Z</time>
      </trkpt>
      <trkpt lat="44.39158" lon="3.77988">
        <ele>1359</ele>
        <time>2017-03-02T12:35:38Z</time>
      </trkpt>
      <trkpt lat="44.39159" lon="3.77994">
        <ele>1358</ele>
        <time>2017-03-02T12:37:38Z</time>
      </trkpt>
      <trkpt lat="44.3916" lon="3.78003">
        <ele>1358</ele>
        <time>2017-03-02T12:39:38Z</time>
      </trkpt>
      <trkpt lat="44.39161" lon="3.78011">
        <ele>1357</ele>
        <time>2017-03-02T12:41:38Z</time>
      </trkpt>
      <trkpt lat="44.39161" lon="3.78028">
        <ele>1356</ele>
        <time>2017-03-02T12:43:38Z</time>
      </trkpt>
      <trkpt lat="44.39162" lon="3.78044">
        <ele>1355</ele>
        <time>2017-03-02T12:45:38Z</time>
      </trkpt>
      <trkpt lat="44.39162" lon="3.78049">
        <ele>1354</ele>
        <time>2017-03-02T12:47:38Z</time>
      </trkpt>
      <trkpt lat="44.39163" lon="3.78055">
        <ele>1354</ele>
        <time>2017-03-02T12:49:38Z</time>
      </trkpt>
      <trkpt lat="44.39165" lon="3.7806">
        <ele>1354</ele>
        <time>2017-03-02T12:51:38Z</time>
      </trkpt>
      <trkpt lat="44.39167" lon="3.7807">
        <ele>1353</ele>
        <time>2017-03-02T12:53:38Z</time>
      </trkpt>
      <trkpt lat="44.39172" lon="3.78087">
        <ele>1352</ele>
        <time>2017-03-02T12:55:38Z</time>
      </trkpt>
      <trkpt lat="44.39174" lon="3.78094">
        <ele>1352</ele>
        <time>2017-03-02T12:57:38Z</time>
      </trkpt>
      <trkpt lat="44.39176" lon="3.78098">
        <ele>1352</ele>
        <time>2017-03-02T12:59:38Z</time>
      </trkpt>
      <trkpt lat="44.39178" lon="3.78102">
        <ele>1351</ele>
        <time>2017-03-02T13:01:38Z</time>
      </trkpt>
      <trkpt lat="44.39179" lon="3.78105">
        <ele>1351</ele>
        <time>2017-03-02T13:03:38Z</time>
      </trkpt>
      <trkpt lat="44.39181" lon="3.78106">
        <ele>1351</ele>
        <time>2017-03-02T13:05:38Z</time>
      </trkpt>
      <trkpt lat="44.39183" lon="3.78108">
        <ele>1351</ele>
        <time>2017-03-02T13:07:38Z</time>
      </trkpt>
      <trkpt lat="44.39186" lon="3.78111">
        <ele>1352</ele>
        <time>2017-03-02T13:09:38Z</time>
      </trkpt>
      <trkpt lat="44.3919" lon="3.78112">
        <ele>1352</ele>
        <time>2017-03-02T13:11:38Z</time>
      </trkpt>
      <trkpt lat="44.39194" lon="3.78114">
        <ele>1352</ele>
        <time>2017-03-02T13:13:38Z</time>
      </trkpt>
      <trkpt lat="44.39197" lon="3.78115">
        <ele>1352</ele>
        <time>2017-03-02T13:15:38Z</time>
      </trkpt>
      <trkpt lat="44.39205" lon="3.78117">
        <ele>1353</ele>
        <time>2017-03-02T13:17:38Z</time>
      </trkpt>
      <trkpt lat="44.39208" lon="3.78118">
        <ele>1354</ele>
        <time>2017-03-02T13:19:38Z</time>
      </trkpt>
      <trkpt lat="44.3921" lon="3.78118">
        <ele>1354</ele>
        <time>2017-03-02T13:21:38Z</time>
      </trkpt>
      <trkpt lat="44.39212" lon="3.7812">
        <ele>1354</ele>
        <time>2017-03-02T13:23:38Z</time>
      </trkpt>
      <trkpt lat="44.39214" lon="3.78121">
        <ele>1354</ele>
        <time>2017-03-02T13:25:38Z</time>
      </trkpt>
      <trkpt lat="44.39215" lon="3.78123">
        <ele>1354</ele>
        <time>2017-03-02T13:27:38Z</time>
      </trkpt>
      <trkpt lat="44.39217" lon="3.78125">
        <ele>1354</ele>
        <time>2017-03-02T13:29:38Z</time>
      </trkpt>
      <trkpt lat="44.39218" lon="3.78129">
        <ele>1354</ele>
        <time>2017-03-02T13:31:38Z</time>
      </trkpt>
      <trkpt lat="44.3922" lon="3.78132">
        <ele>1354</ele>
        <time>2017-03-02T13:33:38Z</time>
      </trkpt>
      <trkpt lat="44.39221" lon="3.78136">
        <ele>1354</ele>
        <time>2017-03-02T13:35:38Z</time>
      </trkpt>
      <trkpt lat="44.39223" lon="3.78145">
        <ele>1354</ele>
        <time>2017-03-02T13:37:38Z</time>
      </trkpt>
      <trkpt lat="44.39223" lon="3.78149">
        <ele>1354</ele>
        <time>2017-03-02T13:39:38Z</time>
      </trkpt>
      <trkpt lat="44.39224" lon="3.78154">
        <ele>1354</ele>
        <time>2017-03-02T13:41:38Z</time>
      </trkpt>
      <trkpt lat="44.39224" lon="3.78154">
        <ele>1354</ele>
        <time>2017-03-02T13:43:38Z</time>
      </trkpt>
      <trkpt lat="44.39223" lon="3.78168">
        <ele>1354</ele>
        <time>2017-03-02T13:45:38Z</time>
      </trkpt>
      <trkpt lat="44.39222" lon="3.78173">
        <ele>1354</ele>
        <time>2017-03-02T13:47:38Z</time>
      </trkpt>
      <trkpt lat="44.39219" lon="3.78193">
        <ele>1354</ele>
        <time>2017-03-02T13:49:38Z</time>
      </trkpt>
      <trkpt lat="44.39218" lon="3.78205">
        <ele>1354</ele>
        <time>2017-03-02T13:51:38Z</time>
      </trkpt>
      <trkpt lat="44.39217" lon="3.78212">
        <ele>1354</ele>
        <time>2017-03-02T13:53:38Z</time>
      </trkpt>
      <trkpt lat="44.39215" lon="3.78217">
        <ele>1354</ele>
        <time>2017-03-02T13:55:38Z</time>
      </trkpt>
      <trkpt lat="44.39214" lon="3.78221">
        <ele>1354</ele>
        <time>2017-03-02T13:57:38Z</time>
      </trkpt>
      <trkpt lat="44.39208" lon="3.78232">
        <ele>1353</ele>
        <time>2017-03-02T13:59:38Z</time>
      </trkpt>
      <trkpt lat="44.39203" lon="3.78239">
        <ele>1352</ele>
        <time>2017-03-02T14:01:38Z</time>
      </trkpt>
      <trkpt lat="44.392" lon="3.78246">
        <ele>1351</ele>
        <time>2017-03-02T14:03:38Z</time>
      </trkpt>
      <trkpt lat="44.39197" lon="3.78252">
        <ele>1351</ele>
        <time>2017-03-02T14:05:38Z</time>
      </trkpt>
      <trkpt lat="44.39195" lon="3.78256">
        <ele>1351</ele>
        <time>2017-03-02T14:07:38Z</time>
      </trkpt>
      <trkpt lat="44.39191" lon="3.78264">
        <ele>1350</ele>
        <time>2017-03-02T14:09:38Z</time>
      </trkpt>
      <trkpt lat="44.39186" lon="3.78272">
        <ele>1349</ele>
        <time>2017-03-02T14:11:38Z</time>
      </trkpt>
      <trkpt lat="44.39179" lon="3.78281">
        <ele>1348</ele>
        <time>2017-03-02T14:13:38Z</time>
      </trkpt>
      <trkpt lat="44.39169" lon="3.78293">
        <ele>1346</ele>
        <time>2017-03-02T14:15:38Z</time>
      </trkpt>
      <trkpt lat="44.39159" lon="3.78309">
        <ele>1345</ele>
        <time>2017-03-02T14:17:38Z</time>
      </trkpt>
      <trkpt lat="44.39157" lon="3.78311">
        <ele>1345</ele>
        <time>2017-03-02T14:19:38Z</time>
      </trkpt>
      <trkpt lat="44.39154" lon="3.78313">
        <ele>1345</ele>
        <time>2017-03-02T14:21:38Z</time>
      </trkpt>
      <trkpt lat="44.39153" lon="3.78315">
        <ele>1344</ele>
        <time>2017-03-02T14:23:38Z</time>
      </trkpt>
      <trkpt lat="44.39147" lon="3.78319">
        <ele>1344</ele>
        <time>2017-03-02T14:25:38Z</time>
      </trkpt>
      <trkpt lat="44.39144" lon="3.7832">
        <ele>1343</ele>
        <time>2017-03-02T14:27:38Z</time>
      </trkpt>
      <trkpt lat="44.39138" lon="3.78321">
        <ele>1342</ele>
        <time>2017-03-02T14:29:38Z</time>
      </trkpt>
      <trkpt lat="44.39136" lon="3.78322">
        <ele>1342</ele>
        <time>2017-03-02T14:31:38Z</time>
      </trkpt>
      <trkpt lat="44.39135" lon="3.78323">
        <ele>1342</ele>
        <time>2017-03-02T14:33:38Z</time>
      </trkpt>
      <trkpt lat="44.39133" lon="3.78326">
        <ele>1341</ele>
        <time>2017-03-02T14:35:38Z</time>
      </trkpt>
      <trkpt lat="44.39131" lon="3.78333">
        <ele>1341</ele>
        <time>2017-03-02T14:37:38Z</time>
      </trkpt>
      <trkpt lat="44.39127" lon="3.7835">
        <ele>1342</ele>
        <time>2017-03-02T14:39:38Z</time>
      </trkpt>
      <trkpt lat="44.39123" lon="3.78368">
        <ele>1342</ele>
        <time>2017-03-02T14:41:38Z</time>
      </trkpt>
      <trkpt lat="44.39121" lon="3.78375">
        <ele>1342</ele>
        <time>2017-03-02T14:43:38Z</time>
      </trkpt>
      <trkpt lat="44.39118" lon="3.78381">
        <ele>1342</ele>
        <time>2017-03-02T14:45:38Z</time>
      </trkpt>
      <trkpt lat="44.39114" lon="3.78389">
        <ele>1342</ele>
        <time>2017-03-02T14:47:38Z</time>
      </trkpt>
      <trkpt lat="44.39112" lon="3.78395">
        <ele>1342</ele>
        <time>2017-03-02T14:49:38Z</time>
      </trkpt>
      <trkpt lat="44.39112" lon="3.78398">
        <ele>1342</ele>
        <time>2017-03-02T14:51:38Z</time>
      </trkpt>
      <trkpt lat="44.39111" lon="3.78401">
        <ele>1342</ele>
        <time>2017-03-02T14:53:38Z</time>
      </trkpt>
      <trkpt lat="44.3911" lon="3.78407">
        <ele>1343</ele>
        <time>2017-03-02T14:55:38Z</time>
      </trkpt>
      <trkpt lat="44.39108" lon="3.78419">
        <ele>1343</ele>
        <time>2017-03-02T14:57:38Z</time>
      </trkpt>
      <trkpt lat="44.39106" lon="3.78431">
        <ele>1343</ele>
        <time>2017-03-02T14:59:38Z</time>
      </trkpt>
      <trkpt lat="44.39105" lon="3.78436">
        <ele>1342</ele>
        <time>2017-03-02T15:01:38Z</time>
      </trkpt>
      <trkpt lat="44.39104" lon="3.78441">
        <ele>1342</ele>
        <time>2017-03-02T15:03:38Z</time>
      </trkpt>
      <trkpt lat="44.39104" lon="3.78446">
        <ele>1342</ele>
        <time>2017-03-02T15:05:38Z</time>
      </trkpt>
      <trkpt lat="44.39103" lon="3.78452">
        <ele>1342</ele>
        <time>2017-03-02T15:07:38Z</time>
      </trkpt>
      <trkpt lat="44.39103" lon="3.78466">
        <ele>1342</ele>
        <time>2017-03-02T15:09:38Z</time>
      </trkpt>
      <trkpt lat="44.39103" lon="3.78475">
        <ele>1342</ele>
        <time>2017-03-02T15:11:38Z</time>
      </trkpt>
      <trkpt lat="44.39103" lon="3.78482">
        <ele>1342</ele>
        <time>2017-03-02T15:13:38Z</time>
      </trkpt>
      <trkpt lat="44.39103" lon="3.78487">
        <ele>1342</ele>
        <time>2017-03-02T15:15:38Z</time>
      </trkpt>
      <trkpt lat="44.39103" lon="3.78491">
        <ele>1342</ele>
        <time>2017-03-02T15:17:38Z</time>
      </trkpt>
      <trkpt lat="44.39104" lon="3.78493">
        <ele>1342</ele>
        <time>2017-03-02T15:19:38Z</time>
      </trkpt>
      <trkpt lat="44.39104" lon="3.78495">
        <ele>1342</ele>
        <time>2017-03-02T15:21:38Z</time>
      </trkpt>
      <trkpt lat="44.39106" lon="3.78499">
        <ele>1343</ele>
        <time>2017-03-02T15:23:38Z</time>
      </trkpt>
      <trkpt lat="44.39119" lon="3.78521">
        <ele>1345</ele>
        <time>2017-03-02T15:25:38Z</time>
      </trkpt>
      <trkpt lat="44.39127" lon="3.78537">
        <ele>1347</ele>
        <time>2017-03-02T15:27:38Z</time>
      </trkpt>
      <trkpt lat="44.39132" lon="3.78547">
        <ele>1347</ele>
        <time>2017-03-02T15:29:38Z</time>
      </trkpt>
      <trkpt lat="44.39134" lon="3.78553">
        <ele>1348</ele>
        <time>2017-03-02T15:31:38Z</time>
      </trkpt>
      <trkpt lat="44.39134" lon="3.78553">
        <ele>1348</ele>
        <time>2017-03-02T15:33:38Z</time>
      </trkpt>
      <trkpt lat="44.39134" lon="3.78558">
        <ele>1348</ele>
        <time>2017-03-02T15:35:38Z</time>
      </trkpt>
      <trkpt lat="44.39132" lon="3.78566">
        <ele>1347</ele>
        <time>2017-03-02T15:37:38Z</time>
      </trkpt>
      <trkpt lat="44.39122" lon="3.78592">
        <ele>1346</ele>
        <time>2017-03-02T15:39:38Z</time>
      </trkpt>
      <trkpt lat="44.39111" lon="3.78614">
        <ele>1346</ele>
        <time>2017-03-02T15:41:38Z</time>
      </trkpt>
      <trkpt lat="44.39109" lon="3.78617">
        <ele>1346</ele>
        <time>2017-03-02T15:43:38Z</time>
      </trkpt>
      <trkpt lat="44.39106" lon="3.78621">
        <ele>1346</ele>
        <time>2017-03-02T15:45:38Z</time>
      </trkpt>
      <trkpt lat="44.39104" lon="3.78624">
        <ele>1346</ele>
        <time>2017-03-02T15:47:38Z</time>
      </trkpt>
      <trkpt lat="44.39102" lon="3.78627">
        <ele>1346</ele>
        <time>2017-03-02T15:49:38Z</time>
      </trkpt>
      <trkpt lat="44.39098" lon="3.78632">
        <ele>1346</ele>
        <time>2017-03-02T15:51:38Z</time>
      </trkpt>
      <trkpt lat="44.39095" lon="3.78635">
        <ele>1346</ele>
        <time>2017-03-02T15:53:38Z</time>
      </trkpt>
      <trkpt lat="44.39091" lon="3.78638">
        <ele>1346</ele>
        <time>2017-03-02T15:55:38Z</time>
      </trkpt>
      <trkpt lat="44.39089" lon="3.78641">
        <ele>1345</ele>
        <time>2017-03-02T15:57:38Z</time>
      </trkpt>
      <trkpt lat="44.39084" lon="3.78647">
        <ele>1345</ele>
        <time>2017-03-02T15:59:38Z</time>
      </trkpt>
      <trkpt lat="44.39077" lon="3.78656">
        <ele>1345</ele>
        <time>2017-03-02T16:01:38Z</time>
      </trkpt>
      <trkpt lat="44.39066" lon="3.78668">
        <ele>1345</ele>
        <time>2017-03-02T16:03:38Z</time>
      </trkpt>
      <trkpt lat="44.39062" lon="3.78675">
        <ele>1345</ele>
        <time>2017-03-02T16:05:38Z</time>
      </trkpt>
      <trkpt lat="44.3906" lon="3.78678">
        <ele>1345</ele>
        <time>2017-03-02T16:07:38Z</time>
      </trkpt>
      <trkpt lat="44.39058" lon="3.7868">
        <ele>1345</ele>
        <time>2017-03-02T16:09:38Z</time>
      </trkpt>
      <trkpt lat="44.39055" lon="3.78683">
        <ele>1345</ele>
        <time>2017-03-02T16:11:38Z</time>
      </trkpt>
      <trkpt lat="44.39052" lon="3.78686">
        <ele>1345</ele>
        <time>2017-03-02T16:13:38Z</time>
      </trkpt>
      <trkpt lat="44.39031" lon="3.78698">
        <ele>1344</ele>
        <time>2017-03-02T16:15:38Z</time>
      </trkpt>
      <trkpt lat="44.39024" lon="3.78703">
        <ele>1344</ele>
        <time>2017-03-02T16:17:38Z</time>
      </trkpt>
      <trkpt lat="44.39019" lon="3.78707">
        <ele>1344</ele>
        <time>2017-03-02T16:19:38Z</time>
      </trkpt>
      <trkpt lat="44.39016" lon="3.78711">
        <ele>1344</ele>
        <time>2017-03-02T16:21:38Z</time>
      </trkpt>
      <trkpt lat="44.39012" lon="3.78716">
        <ele>1344</ele>
        <time>2017-03-02T16:23:38Z</time>
      </trkpt>
      <trkpt lat="44.39006" lon="3.78724">
        <ele>1344</ele>
        <time>2017-03-02T16:25:38Z</time>
      </trkpt>
      <trkpt lat="44.39" lon="3.78733">
        <ele>1345</ele>
        <time>2017-03-02T16:27:38Z</time>
      </trkpt>
      <trkpt lat="44.38994" lon="3.78746">
        <ele>1345</ele>
        <time>2017-03-02T16:29:38Z</time>
      </trkpt>
      <trkpt lat="44.38988" lon="3.78762">
        <ele>1345</ele>
        <time>2017-03-02T16:31:38Z</time>
      </trkpt>
      <trkpt lat="44.38985" lon="3.78775">
        <ele>1344</ele>
        <time>2017-03-02T16:33:38Z</time>
      </trkpt>
      <trkpt lat="44.38982" lon="3.78792">
        <ele>1344</ele>
        <time>2017-03-02T16:35:38Z</time>
      </trkpt>
      <trkpt lat="44.3898" lon="3.78807">
        <ele>1344</ele>
        <time>2017-03-02T16:37:38Z</time>
      </trkpt>
      <trkpt lat="44.3898" lon="3.78817">
        <ele>1344</ele>
        <time>2017-03-02T16:39:38Z</time>
      </trkpt>
      <trkpt lat="44.3898" lon="3.78827">
        <ele>1345</ele>
        <time>2017-03-02T16:41:38Z</time>
      </trkpt>
      <trkpt lat="44.38982" lon="3.78835">
        <ele>1345</ele>
        <time>2017-03-02T16:43:38Z</time>
      </trkpt>
      <trkpt lat="44.38984" lon="3.78841">
        <ele>1345</ele>
        <time>2017-03-02T16:45:38Z</time>
      </trkpt>
      <trkpt lat="44.38987" lon="3.78848">
        <ele>1345</ele>
        <time>2017-03-02T16:47:38Z</time>
      </trkpt>
      <trkpt lat="44.38991" lon="3.78854">
        <ele>1345</ele>
        <time>2017-03-02T16:49:38Z</time>
      </trkpt>
      <trkpt lat="44.38995" lon="3.7886">
        <ele>1345</ele>
        <time>2017-03-02T16:51:38Z</time>
      </trkpt>
      <trkpt lat="44.38998" lon="3.78864">
        <ele>1345</ele>
        <time>2017-03-02T16:53:38Z</time>
      </trkpt>
      <trkpt lat="44.39001" lon="3.78867">
        <ele>1345</ele>
        <time>2017-03-02T16:55:38Z</time>
      </trkpt>
      <trkpt lat="44.39009" lon="3.78872">
        <ele>1345</ele>
        <time>2017-03-02T16:57:38Z</time>
      </trkpt>
      <trkpt lat="44.39016" lon="3.78875">
        <ele>1345</ele>
        <time>2017-03-02T16:59:38Z</time>
      </trkpt>
      <trkpt lat="44.39032" lon="3.78881">
        <ele>1345</ele>
        <time>2017-03-02T17:01:38Z</time>
      </trkpt>
      <trkpt lat="44.39075" lon="3.78892">
        <ele>1346</ele>
        <time>2017-03-02T17:03:38Z</time>
      </trkpt>
      <trkpt lat="44.39089" lon="3.78895">
        <ele>1346</ele>
        <time>2017-03-02T17:05:38Z</time>
      </trkpt>
      <trkpt lat="44.39097" lon="3.78895">
        <ele>1346</ele>
        <time>2017-03-02T17:07:38Z</time>
      </trkpt>
      <trkpt lat="44.39106" lon="3.78894">
        <ele>1346</ele>
        <time>2017-03-02T17:09:38Z</time>
      </trkpt>
      <trkpt lat="44.39163" lon="3.78892">
        <ele>1349</ele>
        <time>2017-03-02T17:11:38Z</time>
      </trkpt>
      <trkpt lat="44.39167" lon="3.78892">
        <ele>1349</ele>
        <time>2017-03-02T17:13:38Z</time>
      </trkpt>
      <trkpt lat="44.39171" lon="3.78893">
        <ele>1349</ele>
        <time>2017-03-02T17:15:38Z</time>
      </trkpt>
      <trkpt lat="44.39177" lon="3.78895">
        <ele>1350</ele>
        <time>2017-03-02T17:17:38Z</time>
      </trkpt>
      <trkpt lat="44.39187" lon="3.789">
        <ele>1350</ele>
        <time>2017-03-02T17:19:38Z</time>
      </trkpt>
      <trkpt lat="44.39205" lon="3.78911">
        <ele>1350</ele>
        <time>2017-03-02T17:21:38Z</time>
      </trkpt>
      <trkpt lat="44.3921" lon="3.78915">
        <ele>1350</ele>
        <time>2017-03-02T17:23:38Z</time>
      </trkpt>
      <trkpt lat="44.39216" lon="3.7892">
        <ele>1349</ele>
        <time>2017-03-02T17:25:38Z</time>
      </trkpt>
      <trkpt lat="44.39222" lon="3.78923">
        <ele>1350</ele>
        <time>2017-03-02T17:27:38Z</time>
      </trkpt>
      <trkpt lat="44.39227" lon="3.78923">
        <ele>1350</ele>
        <time>2017-03-02T17:29:38Z</time>
      </trkpt>
      <trkpt lat="44.39258" lon="3.78933">
        <ele>1352</ele>
        <time>2017-03-02T17:31:38Z</time>
      </trkpt>
      <trkpt lat="44.39287" lon="3.78937">
        <ele>1354</ele>
        <time>2017-03-02T17:33:38Z</time>
      </trkpt>
      <trkpt lat="44.39311" lon="3.7894">
        <ele>1355</ele>
        <time>2017-03-02T17:35:38Z</time>
      </trkpt>
      <trkpt lat="44.39314" lon="3.78941">
        <ele>1355</ele>
        <time>2017-03-02T17:37:38Z</time>
      </trkpt>
      <trkpt lat="44.39319" lon="3.78942">
        <ele>1355</ele>
        <time>2017-03-02T17:39:38Z</time>
      </trkpt>
      <trkpt lat="44.39333" lon="3.78948">
        <ele>1355</ele>
        <time>2017-03-02T17:41:38Z</time>
      </trkpt>
      <trkpt lat="44.39358" lon="3.78956">
        <ele>1356</ele>
        <time>2017-03-02T17:43:38Z</time>
      </trkpt>
      <trkpt lat="44.39406" lon="3.78979">
        <ele>1356</ele>
        <time>2017-03-02T17:45:38Z</time>
      </trkpt>
      <trkpt lat="44.39416" lon="3.78986">
        <ele>1355</ele>
        <time>2017-03-02T17:47:38Z</time>
      </trkpt>
      <trkpt lat="44.3942" lon="3.7899">
        <ele>1355</ele>
        <time>2017-03-02T17:49:38Z</time>
      </trkpt>
      <trkpt lat="44.39422" lon="3.78993">
        <ele>1354</ele>
        <time>2017-03-02T17:51:38Z</time>
      </trkpt>
      <trkpt lat="44.39424" lon="3.78999">
        <ele>1353</ele>
        <time>2017-03-02T17:53:38Z</time>
      </trkpt>
      <trkpt lat="44.39424" lon="3.79004">
        <ele>1353</ele>
        <time>2017-03-02T17:55:38Z</time>
      </trkpt>
      <trkpt lat="44.39424" lon="3.7901">
        <ele>1353</ele>
        <time>2017-03-02T17:57:38Z</time>
      </trkpt>
      <trkpt lat="44.39424" lon="3.79022">
        <ele>1353</ele>
        <time>2017-03-02T17:59:38Z</time>
      </trkpt>
      <trkpt lat="44.39423" lon="3.79031">
        <ele>1354</ele>
        <time>2017-03-02T18:01:38Z</time>
      </trkpt>
      <trkpt lat="44.3942" lon="3.79043">
        <ele>1353</ele>
        <time>2017-03-02T18:03:38Z</time>
      </trkpt>
      <trkpt lat="44.39416" lon="3.79054">
        <ele>1353</ele>
        <time>2017-03-02T18:05:38Z</time>
      </trkpt>
      <trkpt lat="44.39413" lon="3.7906">
        <ele>1352</ele>
        <time>2017-03-02T18:07:38Z</time>
      </trkpt>
      <trkpt lat="44.394" lon="3.7908">
        <ele>1350</ele>
        <time>2017-03-02T18:09:38Z</time>
      </trkpt>
      <trkpt lat="44.39387" lon="3.79096">
        <ele>1351</ele>
        <time>2017-03-02T18:11:38Z</time>
      </trkpt>
      <trkpt lat="44.39376" lon="3.7911">
        <ele>1352</ele>
        <time>2017-03-02T18:13:38Z</time>
      </trkpt>
      <trkpt lat="44.39364" lon="3.79121">
        <ele>1352</ele>
        <time>2017-03-02T18:15:38Z</time>
      </trkpt>
      <trkpt lat="44.39344" lon="3.79136">
        <ele>1352</ele>
        <time>2017-03-02T18:17:38Z</time>
      </trkpt>
      <trkpt lat="44.39327" lon="3.7915">
        <ele>1352</ele>
        <time>2017-03-02T18:19:38Z</time>
      </trkpt>
      <trkpt lat="44.39306" lon="3.79168">
        <ele>1354</ele>
        <time>2017-03-02T18:21:38Z</time>
      </trkpt>
      <trkpt lat="44.39302" lon="3.79171">
        <ele>1355</ele>
        <time>2017-03-02T18:23:38Z</time>
      </trkpt>
      <trkpt lat="44.39297" lon="3.79175">
        <ele>1355</ele>
        <time>2017-03-02T18:25:38Z</time>
      </trkpt>
      <trkpt lat="44.39293" lon="3.7918">
        <ele>1355</ele>
        <time>2017-03-02T18:27:38Z</time>
      </trkpt>
      <trkpt lat="44.3929" lon="3.79186">
        <ele>1356</ele>
        <time>2017-03-02T18:29:38Z</time>
      </trkpt>
      <trkpt lat="44.39285" lon="3.79193">
        <ele>1357</ele>
        <time>2017-03-02T18:31:38Z</time>
      </trkpt>
      <trkpt lat="44.39278" lon="3.79201">
        <ele>1358</ele>
        <time>2017-03-02T18:33:38Z</time>
      </trkpt>
      <trkpt lat="44.39269" lon="3.7921">
        <ele>1358</ele>
        <time>2017-03-02T18:35:38Z</time>
      </trkpt>
      <trkpt lat="44.39259" lon="3.79217">
        <ele>1358</ele>
        <time>2017-03-02T18:37:38Z</time>
      </trkpt>
      <trkpt lat="44.39232" lon="3.7923">
        <ele>1358</ele>
        <time>2017-03-02T18:39:38Z</time>
      </trkpt>
      <trkpt lat="44.39225" lon="3.79234">
        <ele>1358</ele>
        <time>2017-03-02T18:41:38Z</time>
      </trkpt>
      <trkpt lat="44.39218" lon="3.7924">
        <ele>1359</ele>
        <time>2017-03-02T18:43:38Z</time>
      </trkpt>
      <trkpt lat="44.39214" lon="3.79246">
        <ele>1359</ele>
        <time>2017-03-02T18:45:38Z</time>
      </trkpt>
      <trkpt lat="44.3921" lon="3.79252">
        <ele>1360</ele>
        <time>2017-03-02T18:47:38Z</time>
      </trkpt>
      <trkpt lat="44.39206" lon="3.79258">
        <ele>1360</ele>
        <time>2017-03-02T18:49:38Z</time>
      </trkpt>
      <trkpt lat="44.39204" lon="3.79263">
        <ele>1360</ele>
        <time>2017-03-02T18:51:38Z</time>
      </trkpt>
      <trkpt lat="44.39201" lon="3.79274">
        <ele>1360</ele>
        <time>2017-03-02T18:53:38Z</time>
      </trkpt>
      <trkpt lat="44.39198" lon="3.79281">
        <ele>1360</ele>
        <time>2017-03-02T18:55:38Z</time>
      </trkpt>
      <trkpt lat="44.39198" lon="3.79281">
        <ele>1360</ele>
        <time>2017-03-02T18:57:38Z</time>
      </trkpt>
      <trkpt lat="44.3919" lon="3.7927">
        <ele>1359</ele>
        <time>2017-03-02T18:59:38Z</time>
      </trkpt>
      <trkpt lat="44.39181" lon="3.7926">
        <ele>1358</ele>
        <time>2017-03-02T19:01:38Z</time>
      </trkpt>
      <trkpt lat="44.39175" lon="3.79254">
        <ele>1358</ele>
        <time>2017-03-02T19:03:38Z</time>
      </trkpt>
      <trkpt lat="44.39165" lon="3.79248">
        <ele>1357</ele>
        <time>2017-03-02T19:05:38Z</time>
      </trkpt>
      <trkpt lat="44.39151" lon="3.79241">
        <ele>1356</ele>
        <time>2017-03-02T19:07:38Z</time>
      </trkpt>
      <trkpt lat="44.3913" lon="3.79229">
        <ele>1354</ele>
        <time>2017-03-02T19:09:38Z</time>
      </trkpt>
      <trkpt lat="44.39115" lon="3.79223">
        <ele>1353</ele>
        <time>2017-03-02T19:11:38Z</time>
      </trkpt>
      <trkpt lat="44.39099" lon="3.79218">
        <ele>1351</ele>
        <time>2017-03-02T19:13:38Z</time>
      </trkpt>
      <trkpt lat="44.39087" lon="3.79214">
        <ele>1351</ele>
        <time>2017-03-02T19:15:38Z</time>
      </trkpt>
      <trkpt lat="44.39063" lon="3.79208">
        <ele>1349</ele>
        <time>2017-03-02T19:17:38Z</time>
      </trkpt>
      <trkpt lat="44.39048" lon="3.79205">
        <ele>1349</ele>
        <time>2017-03-02T19:19:38Z</time>
      </trkpt>
      <trkpt lat="44.39024" lon="3.792">
        <ele>1347</ele>
        <time>2017-03-02T19:21:38Z</time>
      </trkpt>
      <trkpt lat="44.39011" lon="3.792">
        <ele>1347</ele>
        <time>2017-03-02T19:23:38Z</time>
      </trkpt>
      <trkpt lat="44.38999" lon="3.792">
        <ele>1346</ele>
        <time>2017-03-02T19:25:38Z</time>
      </trkpt>
      <trkpt lat="44.38986" lon="3.79202">
        <ele>1346</ele>
        <time>2017-03-02T19:27:38Z</time>
      </trkpt>
      <trkpt lat="44.38969" lon="3.79201">
        <ele>1346</ele>
        <time>2017-03-02T19:29:38Z</time>
      </trkpt>
      <trkpt lat="44.38961" lon="3.79199">
        <ele>1345</ele>
        <time>2017-03-02T19:31:38Z</time>
      </trkpt>
      <trkpt lat="44.38954" lon="3.79197">
        <ele>1345</ele>
        <time>2017-03-02T19:33:38Z</time>
      </trkpt>
      <trkpt lat="44.38947" lon="3.792">
        <ele>1345</ele>
        <time>2017-03-02T19:35:38Z</time>
      </trkpt>
      <trkpt lat="44.3894" lon="3.79202">
        <ele>1345</ele>
        <time>2017-03-02T19:37:38Z</time>
      </trkpt>
      <trkpt lat="44.38925" lon="3.79203">
        <ele>1345</ele>
        <time>2017-03-02T19:39:38Z</time>
      </trkpt>
      <trkpt lat="44.38905" lon="3.79203">
        <ele>1345</ele>
        <time>2017-03-02T19:41:38Z</time>
      </trkpt>
      <trkpt lat="44.38896" lon="3.79203">
        <ele>1345</ele>
        <time>2017-03-02T19:43:38Z</time>
      </trkpt>
      <trkpt lat="44.38889" lon="3.79201">
        <ele>1344</ele>
        <time>2017-03-02T19:45:38Z</time>
      </trkpt>
      <trkpt lat="44.38873" lon="3.79196">
        <ele>1344</ele>
        <time>2017-03-02T19:47:38Z</time>
      </trkpt>
      <trkpt lat="44.38859" lon="3.79192">
        <ele>1343</ele>
        <time>2017-03-02T19:49:38Z</time>
      </trkpt>
      <trkpt lat="44.38849" lon="3.79192">
        <ele>1343</ele>
        <time>2017-03-02T19:51:38Z</time>
      </trkpt>
      <trkpt lat="44.38842" lon="3.79192">
        <ele>1343</ele>
        <time>2017-03-02T19:53:38Z</time>
      </trkpt>
      <trkpt lat="44.38833" lon="3.7919">
        <ele>1342</ele>
        <time>2017-03-02T19:55:38Z</time>
      </trkpt>
      <trkpt lat="44.38821" lon="3.79187">
        <ele>1342</ele>
        <time>2017-03-02T19:57:38Z</time>
      </trkpt>
      <trkpt lat="44.38803" lon="3.79183">
        <ele>1341</ele>
        <time>2017-03-02T19:59:38Z</time>
      </trkpt>
      <trkpt lat="44.38785" lon="3.7918">
        <ele>1341</ele>
        <time>2017-03-02T20:01:38Z</time>
      </trkpt>
      <trkpt lat="44.3877" lon="3.7918">
        <ele>1341</ele>
        <time>2017-03-02T20:03:38Z</time>
      </trkpt>
      <trkpt lat="44.38752" lon="3.79179">
        <ele>1340</ele>
        <time>2017-03-02T20:05:38Z</time>
      </trkpt>
      <trkpt lat="44.3873" lon="3.79178">
        <ele>1340</ele>
        <time>2017-03-02T20:07:38Z</time>
      </trkpt>
      <trkpt lat="44.387" lon="3.79182">
        <ele>1339</ele>
        <time>2017-03-02T20:09:38Z</time>
      </trkpt>
      <trkpt lat="44.38679" lon="3.79183">
        <ele>1338</ele>
        <time>2017-03-02T20:11:38Z</time>
      </trkpt>
      <trkpt lat="44.3866" lon="3.79188">
        <ele>1338</ele>
        <time>2017-03-02T20:13:38Z</time>
      </trkpt>
      <trkpt lat="44.38646" lon="3.79191">
        <ele>1336</ele>
        <time>2017-03-02T20:15:38Z</time>
      </trkpt>
      <trkpt lat="44.3863" lon="3.79192">
        <ele>1335</ele>
        <time>2017-03-02T20:17:38Z</time>
      </trkpt>
      <trkpt lat="44.38625" lon="3.79192">
        <ele>1334</ele>
        <time>2017-03-02T20:19:38Z</time>
      </trkpt>
      <trkpt lat="44.38616" lon="3.79189">
        <ele>1333</ele>
        <time>2017-03-02T20:21:38Z</time>
      </trkpt>
      <trkpt lat="44.38609" lon="3.79188">
        <ele>1332</ele>
        <time>2017-03-02T20:23:38Z</time>
      </trkpt>
      <trkpt lat="44.38597" lon="3.79183">
        <ele>1331</ele>
        <time>2017-03-02T20:25:38Z</time>
      </trkpt>
      <trkpt lat="44.38587" lon="3.7918">
        <ele>1330</ele>
        <time>2017-03-02T20:27:38Z</time>
      </trkpt>
      <trkpt lat="44.38579" lon="3.79179">
        <ele>1329</ele>
        <time>2017-03-02T20:29:38Z</time>
      </trkpt>
      <trkpt lat="44.3857" lon="3.79184">
        <ele>1329</ele>
        <time>2017-03-02T20:31:38Z</time>
      </trkpt>
      <trkpt lat="44.38562" lon="3.79186">
        <ele>1328</ele>
        <time>2017-03-02T20:33:38Z</time>
      </trkpt>
      <trkpt lat="44.38548" lon="3.79189">
        <ele>1327</ele>
        <time>2017-03-02T20:35:38Z</time>
      </trkpt>
      <trkpt lat="44.38536" lon="3.79192">
        <ele>1326</ele>
        <time>2017-03-02T20:37:38Z</time>
      </trkpt>
      <trkpt lat="44.38527" lon="3.79192">
        <ele>1326</ele>
        <time>2017-03-02T20:39:38Z</time>
      </trkpt>
      <trkpt lat="44.38523" lon="3.79192">
        <ele>1325</ele>
        <time>2017-03-02T20:41:38Z</time>
      </trkpt>
      <trkpt lat="44.38515" lon="3.79191">
        <ele>1325</ele>
        <time>2017-03-02T20:43:38Z</time>
      </trkpt>
      <trkpt lat="44.38507" lon="3.79191">
        <ele>1324</ele>
        <time>2017-03-02T20:45:38Z</time>
      </trkpt>
      <trkpt lat="44.38499" lon="3.79191">
        <ele>1324</ele>
        <time>2017-03-02T20:47:38Z</time>
      </trkpt>
      <trkpt lat="44.38494" lon="3.79191">
        <ele>1323</ele>
        <time>2017-03-02T20:49:38Z</time>
      </trkpt>
      <trkpt lat="44.38486" lon="3.79189">
        <ele>1323</ele>
        <time>2017-03-02T20:51:38Z</time>
      </trkpt>
      <trkpt lat="44.38481" lon="3.79189">
        <ele>1323</ele>
        <time>2017-03-02T20:53:38Z</time>
      </trkpt>
      <trkpt lat="44.38476" lon="3.79187">
        <ele>1323</ele>
        <time>2017-03-02T20:55:38Z</time>
      </trkpt>
      <trkpt lat="44.38467" lon="3.79186">
        <ele>1323</ele>
        <time>2017-03-02T20:57:38Z</time>
      </trkpt>
      <trkpt lat="44.38459" lon="3.79186">
        <ele>1322</ele>
        <time>2017-03-02T20:59:38Z</time>
      </trkpt>
      <trkpt lat="44.38452" lon="3.79186">
        <ele>1322</ele>
        <time>2017-03-02T21:01:38Z</time>
      </trkpt>
      <trkpt lat="44.38446" lon="3.79187">
        <ele>1322</ele>
        <time>2017-03-02T21:03:38Z</time>
      </trkpt>
      <trkpt lat="44.38438" lon="3.79187">
        <ele>1322</ele>
        <time>2017-03-02T21:05:38Z</time>
      </trkpt>
      <trkpt lat="44.38428" lon="3.79186">
        <ele>1321</ele>
        <time>2017-03-02T21:07:38Z</time>
      </trkpt>
      <trkpt lat="44.38416" lon="3.79183">
        <ele>1321</ele>
        <time>2017-03-02T21:09:38Z</time>
      </trkpt>
      <trkpt lat="44.38403" lon="3.7918">
        <ele>1321</ele>
        <time>2017-03-02T21:11:38Z</time>
      </trkpt>
      <trkpt lat="44.38389" lon="3.79178">
        <ele>1321</ele>
        <time>2017-03-02T21:13:38Z</time>
      </trkpt>
      <trkpt lat="44.38378" lon="3.79177">
        <ele>1321</ele>
        <time>2017-03-02T21:15:38Z</time>
      </trkpt>
      <trkpt lat="44.3837" lon="3.79178">
        <ele>1320</ele>
        <time>2017-03-02T21:17:38Z</time>
      </trkpt>
      <trkpt lat="44.38363" lon="3.79176">
        <ele>1320</ele>
        <time>2017-03-02T21:19:38Z</time>
      </trkpt>
      <trkpt lat="44.38351" lon="3.79173">
        <ele>1320</ele>
        <time>2017-03-02T21:21:38Z</time>
      </trkpt>
      <trkpt lat="44.38336" lon="3.79169">
        <ele>1320</ele>
        <time>2017-03-02T21:23:38Z</time>
      </trkpt>
      <trkpt lat="44.3832" lon="3.79166">
        <ele>1320</ele>
        <time>2017-03-02T21:25:38Z</time>
      </trkpt>
      <trkpt lat="44.38312" lon="3.79163">
        <ele>1320</ele>
        <time>2017-03-02T21:27:38Z</time>
      </trkpt>
      <trkpt lat="44.38305" lon="3.79159">
        <ele>1320</ele>
        <time>2017-03-02T21:29:38Z</time>
      </trkpt>
      <trkpt lat="44.38295" lon="3.7915">
        <ele>1319</ele>
        <time>2017-03-02T21:31:38Z</time>
      </trkpt>
      <trkpt lat="44.38281" lon="3.79137">
        <ele>1318</ele>
        <time>2017-03-02T21:33:38Z</time>
      </trkpt>
      <trkpt lat="44.3827" lon="3.79128">
        <ele>1318</ele>
        <time>2017-03-02T21:35:38Z</time>
      </trkpt>
      <trkpt lat="44.38258" lon="3.79124">
        <ele>1318</ele>
        <time>2017-03-02T21:37:38Z</time>
      </trkpt>
      <trkpt lat="44.38247" lon="3.79121">
        <ele>1318</ele>
        <time>2017-03-02T21:39:38Z</time>
      </trkpt>
      <trkpt lat="44.38239" lon="3.79121">
        <ele>1317</ele>
        <time>2017-03-02T21:41:38Z</time>
      </trkpt>
      <trkpt lat="44.38231" lon="3.79122">
        <ele>1317</ele>
        <time>2017-03-02T21:43:38Z</time>
      </trkpt>
      <trkpt lat="44.38223" lon="3.79126">
        <ele>1317</ele>
        <time>2017-03-02T21:45:38Z</time>
      </trkpt>
      <trkpt lat="44.38215" lon="3.79133">
        <ele>1317</ele>
        <time>2017-03-02T21:47:38Z</time>
      </trkpt>
      <trkpt lat="44.38204" lon="3.7914">
        <ele>1318</ele>
        <time>2017-03-02T21:49:38Z</time>
      </trkpt>
      <trkpt lat="44.38191" lon="3.79144">
        <ele>1317</ele>
        <time>2017-03-02T21:51:38Z</time>
      </trkpt>
      <trkpt lat="44.38183" lon="3.79143">
        <ele>1317</ele>
        <time>2017-03-02T21:53:38Z</time>
      </trkpt>
      <trkpt lat="44.38175" lon="3.7914">
        <ele>1317</ele>
        <time>2017-03-02T21:55:38Z</time>
      </trkpt>
      <trkpt lat="44.38161" lon="3.79133">
        <ele>1316</ele>
        <time>2017-03-02T21:57:38Z</time>
      </trkpt>
      <trkpt lat="44.3815" lon="3.79124">
        <ele>1315</ele>
        <time>2017-03-02T21:59:38Z</time>
      </trkpt>
      <trkpt lat="44.38136" lon="3.79114">
        <ele>1314</ele>
        <time>2017-03-02T22:01:38Z</time>
      </trkpt>
      <trkpt lat="44.3812" lon="3.79108">
        <ele>1313</ele>
        <time>2017-03-02T22:03:38Z</time>
      </trkpt>
      <trkpt lat="44.38104" lon="3.79102">
        <ele>1313</ele>
        <time>2017-03-02T22:05:38Z</time>
      </trkpt>
      <trkpt lat="44.38094" lon="3.79101">
        <ele>1312</ele>
        <time>2017-03-02T22:07:38Z</time>
      </trkpt>
      <trkpt lat="44.38083" lon="3.79101">
        <ele>1312</ele>
        <time>2017-03-02T22:09:38Z</time>
      </trkpt>
      <trkpt lat="44.38075" lon="3.79104">
        <ele>1311</ele>
        <time>2017-03-02T22:11:38Z</time>
      </trkpt>
      <trkpt lat="44.38067" lon="3.79111">
        <ele>1311</ele>
        <time>2017-03-02T22:13:38Z</time>
      </trkpt>
      <trkpt lat="44.38054" lon="3.79122">
        <ele>1310</ele>
        <time>2017-03-02T22:15:38Z</time>
      </trkpt>
      <trkpt lat="44.38042" lon="3.79129">
        <ele>1310</ele>
        <time>2017-03-02T22:17:38Z</time>
      </trkpt>
      <trkpt lat="44.3803" lon="3.79133">
        <ele>1309</ele>
        <time>2017-03-02T22:19:38Z</time>
      </trkpt>
      <trkpt lat="44.38022" lon="3.79136">
        <ele>1309</ele>
        <time>2017-03-02T22:21:38Z</time>
      </trkpt>
      <trkpt lat="44.38006" lon="3.79147">
        <ele>1308</ele>
        <time>2017-03-02T22:23:38Z</time>
      </trkpt>
      <trkpt lat="44.37989" lon="3.79159">
        <ele>1307</ele>
        <time>2017-03-02T22:25:38Z</time>
      </trkpt>
      <trkpt lat="44.3797" lon="3.79171">
        <ele>1305</ele>
        <time>2017-03-02T22:27:38Z</time>
      </trkpt>
      <trkpt lat="44.37954" lon="3.79177">
        <ele>1304</ele>
        <time>2017-03-02T22:29:38Z</time>
      </trkpt>
      <trkpt lat="44.3793" lon="3.79194">
        <ele>1303</ele>
        <time>2017-03-02T22:31:38Z</time>
      </trkpt>
      <trkpt lat="44.37916" lon="3.79205">
        <ele>1302</ele>
        <time>2017-03-02T22:33:38Z</time>
      </trkpt>
      <trkpt lat="44.3791" lon="3.79213">
        <ele>1302</ele>
        <time>2017-03-02T22:35:38Z</time>
      </trkpt>
      <trkpt lat="44.37903" lon="3.79217">
        <ele>1302</ele>
        <time>2017-03-02T22:37:38Z</time>
      </trkpt>
      <trkpt lat="44.37894" lon="3.79218">
        <ele>1302</ele>
        <time>2017-03-02T22:39:38Z</time>
      </trkpt>
      <trkpt lat="44.37874" lon="3.79228">
        <ele>1302</ele>
        <time>2017-03-02T22:41:38Z</time>
      </trkpt>
      <trkpt lat="44.37858" lon="3.79237">
        <ele>1302</ele>
        <time>2017-03-02T22:43:38Z</time>
      </trkpt>
      <trkpt lat="44.37843" lon="3.79245">
        <ele>1303</ele>
        <time>2017-03-02T22:45:38Z</time>
      </trkpt>
      <trkpt lat="44.37843" lon="3.79245">
        <ele>1303</ele>
        <time>2017-03-02T22:47:38Z</time>
      </trkpt>
      <trkpt lat="44.37828" lon="3.7923">
        <ele>1302</ele>
        <time>2017-03-02T22:49:38Z</time>
      </trkpt>
      <trkpt lat="44.3779" lon="3.7919">
        <ele>1299</ele>
        <time>2017-03-02T22:51:38Z</time>
      </trkpt>
      <trkpt lat="44.37774" lon="3.79174">
        <ele>1298</ele>
        <time>2017-03-02T22:53:38Z</time>
      </trkpt>
      <trkpt lat="44.37766" lon="3.79167">
        <ele>1297</ele>
        <time>2017-03-02T22:55:38Z</time>
      </trkpt>
      <trkpt lat="44.3776" lon="3.79165">
        <ele>1297</ele>
        <time>2017-03-02T22:57:38Z</time>
      </trkpt>
      <trkpt lat="44.37744" lon="3.79159">
        <ele>1296</ele>
        <time>2017-03-02T22:59:38Z</time>
      </trkpt>
      <trkpt lat="44.37702" lon="3.79145">
        <ele>1293</ele>
        <time>2017-03-02T23:01:38Z</time>
      </trkpt>
      <trkpt lat="44.37689" lon="3.79142">
        <ele>1292</ele>
        <time>2017-03-02T23:03:38Z</time>
      </trkpt>
      <trkpt lat="44.37681" lon="3.79141">
        <ele>1292</ele>
        <time>2017-03-02T23:05:38Z</time>
      </trkpt>
      <trkpt lat="44.37673" lon="3.79142">
        <ele>1292</ele>
        <time>2017-03-02T23:07:38Z</time>
      </trkpt>
      <trkpt lat="44.37662" lon="3.79143">
        <ele>1291</ele>
        <time>2017-03-02T23:09:38Z</time>
      </trkpt>
      <trkpt lat="44.37645" lon="3.79145">
        <ele>1291</ele>
        <time>2017-03-02T23:11:38Z</time>
      </trkpt>
      <trkpt lat="44.37636" lon="3.79145">
        <ele>1291</ele>
        <time>2017-03-02T23:13:38Z</time>
      </trkpt>
      <trkpt lat="44.37626" lon="3.79143">
        <ele>1290</ele>
        <time>2017-03-02T23:15:38Z</time>
      </trkpt>
      <trkpt lat="44.37618" lon="3.79142">
        <ele>1290</ele>
        <time>2017-03-02T23:17:38Z</time>
      </trkpt>
      <trkpt lat="44.37586" lon="3.79136">
        <ele>1288</ele>
        <time>2017-03-02T23:19:38Z</time>
      </trkpt>
      <trkpt lat="44.37561" lon="3.79132">
        <ele>1287</ele>
        <time>2017-03-02T23:21:38Z</time>
      </trkpt>
      <trkpt lat="44.37546" lon="3.79129">
        <ele>1286</ele>
        <time>2017-03-02T23:23:38Z</time>
      </trkpt>
      <trkpt lat="44.37523" lon="3.79122">
        <ele>1285</ele>
        <time>2017-03-02T23:25:38Z</time>
      </trkpt>
      <trkpt lat="44.37498" lon="3.79114">
        <ele>1283</ele>
        <time>2017-03-02T23:27:38Z</time>
      </trkpt>
      <trkpt lat="44.37476" lon="3.79108">
        <ele>1281</ele>
        <time>2017-03-02T23:29:38Z</time>
      </trkpt>
      <trkpt lat="44.37464" lon="3.79106">
        <ele>1280</ele>
        <time>2017-03-02T23:31:38Z</time>
      </trkpt>
      <trkpt lat="44.37453" lon="3.79106">
        <ele>1279</ele>
        <time>2017-03-02T23:33:38Z</time>
      </trkpt>
      <trkpt lat="44.37438" lon="3.79107">
        <ele>1278</ele>
        <time>2017-03-02T23:35:38Z</time>
      </trkpt>
      <trkpt lat="44.37422" lon="3.79109">
        <ele>1278</ele>
        <time>2017-03-02T23:37:38Z</time>
      </trkpt>
      <trkpt lat="44.37409" lon="3.79111">
        <ele>1277</ele>
        <time>2017-03-02T23:39:38Z</time>
      </trkpt>
      <trkpt lat="44.37403" lon="3.79112">
        <ele>1277</ele>
        <time>2017-03-02T23:41:38Z</time>
      </trkpt>
      <trkpt lat="44.37396" lon="3.79111">
        <ele>1277</ele>
        <time>2017-03-02T23:43:38Z</time>
      </trkpt>
      <trkpt lat="44.37391" lon="3.79109">
        <ele>1276</ele>
        <time>2017-03-02T23:45:38Z</time>
      </trkpt>
      <trkpt lat="44.37382" lon="3.79103">
        <ele>1275</ele>
        <time>2017-03-02T23:47:38Z</time>
      </trkpt>
      <trkpt lat="44.37359" lon="3.79086">
        <ele>1271</ele>
        <time>2017-03-02T23:49:38Z</time>
      </trkpt>
      <trkpt lat="44.37335" lon="3.79068">
        <ele>1269</ele>
        <time>2017-03-02T23:51:38Z</time>
      </trkpt>
      <trkpt lat="44.37329" lon="3.79064">
        <ele>1269</ele>
        <time>2017-03-02T23:53:38Z</time>
      </trkpt>
      <trkpt lat="44.37326" lon="3.79059">
        <ele>1269</ele>
        <time>2017-03-02T23:55:38Z</time>
      </trkpt>
      <trkpt lat="44.37314" lon="3.79061">
        <ele>1269</ele>
        <time>2017-03-02T23:57:38Z</time>
      </trkpt>
      <trkpt lat="44.37302" lon="3.79062">
        <ele>1269</ele>
        <time>2017-03-02T23:59:38Z</time>
      </trkpt>
      <trkpt lat="44.37293" lon="3.79063">
        <ele>1269</ele>
        <time>2017-03-03T00:01:38Z</time>
      </trkpt>
      <trkpt lat="44.37284" lon="3.79066">
        <ele>1269</ele>
        <time>2017-03-03T00:03:38Z</time>
      </trkpt>
      <trkpt lat="44.37278" lon="3.79066">
        <ele>1269</ele>
        <time>2017-03-03T00:05:38Z</time>
      </trkpt>
      <trkpt lat="44.37267" lon="3.79065">
        <ele>1269</ele>
        <time>2017-03-03T00:07:38Z</time>
      </trkpt>
      <trkpt lat="44.37257" lon="3.79065">
        <ele>1269</ele>
        <time>2017-03-03T00:09:38Z</time>
      </trkpt>
      <trkpt lat="44.37243" lon="3.79066">
        <ele>1269</ele>
        <time>2017-03-03T00:11:38Z</time>
      </trkpt>
      <trkpt lat="44.37236" lon="3.79065">
        <ele>1269</ele>
        <time>2017-03-03T00:13:38Z</time>
      </trkpt>
      <trkpt lat="44.37228" lon="3.79062">
        <ele>1268</ele>
        <time>2017-03-03T00:15:38Z</time>
      </trkpt>
      <trkpt lat="44.37221" lon="3.79061">
        <ele>1268</ele>
        <time>2017-03-03T00:17:38Z</time>
      </trkpt>
      <trkpt lat="44.37212" lon="3.79061">
        <ele>1268</ele>
        <time>2017-03-03T00:19:38Z</time>
      </trkpt>
      <trkpt lat="44.37198" lon="3.79062">
        <ele>1267</ele>
        <time>2017-03-03T00:21:38Z</time>
      </trkpt>
      <trkpt lat="44.37188" lon="3.79062">
        <ele>1267</ele>
        <time>2017-03-03T00:23:38Z</time>
      </trkpt>
      <trkpt lat="44.37178" lon="3.79062">
        <ele>1267</ele>
        <time>2017-03-03T00:25:38Z</time>
      </trkpt>
      <trkpt lat="44.37171" lon="3.79065">
        <ele>1267</ele>
        <time>2017-03-03T00:27:38Z</time>
      </trkpt>
      <trkpt lat="44.37157" lon="3.79074">
        <ele>1266</ele>
        <time>2017-03-03T00:29:38Z</time>
      </trkpt>
      <trkpt lat="44.37152" lon="3.79077">
        <ele>1265</ele>
        <time>2017-03-03T00:31:38Z</time>
      </trkpt>
      <trkpt lat="44.37151" lon="3.79081">
        <ele>1266</ele>
        <time>2017-03-03T00:33:38Z</time>
      </trkpt>
      <trkpt lat="44.37151" lon="3.79085">
        <ele>1266</ele>
        <time>2017-03-03T00:35:38Z</time>
      </trkpt>
      <trkpt lat="44.37154" lon="3.79095">
        <ele>1267</ele>
        <time>2017-03-03T00:37:38Z</time>
      </trkpt>
      <trkpt lat="44.37163" lon="3.79123">
        <ele>1269</ele>
        <time>2017-03-03T00:39:38Z</time>
      </trkpt>
      <trkpt lat="44.3717" lon="3.7915">
        <ele>1270</ele>
        <time>2017-03-03T00:41:38Z</time>
      </trkpt>
      <trkpt lat="44.37172" lon="3.7916">
        <ele>1271</ele>
        <time>2017-03-03T00:43:38Z</time>
      </trkpt>
      <trkpt lat="44.37172" lon="3.79173">
        <ele>1271</ele>
        <time>2017-03-03T00:45:38Z</time>
      </trkpt>
      <trkpt lat="44.37171" lon="3.79186">
        <ele>1272</ele>
        <time>2017-03-03T00:47:38Z</time>
      </trkpt>
      <trkpt lat="44.37166" lon="3.79209">
        <ele>1272</ele>
        <time>2017-03-03T00:49:38Z</time>
      </trkpt>
      <trkpt lat="44.37158" lon="3.79234">
        <ele>1272</ele>
        <time>2017-03-03T00:51:38Z</time>
      </trkpt>
      <trkpt lat="44.37151" lon="3.7925">
        <ele>1271</ele>
        <time>2017-03-03T00:53:38Z</time>
      </trkpt>
      <trkpt lat="44.37146" lon="3.79268">
        <ele>1272</ele>
        <time>2017-03-03T00:55:38Z</time>
      </trkpt>
      <trkpt lat="44.37144" lon="3.7928">
        <ele>1272</ele>
        <time>2017-03-03T00:57:38Z</time>
      </trkpt>
      <trkpt lat="44.37144" lon="3.79295">
        <ele>1273</ele>
        <time>2017-03-03T00:59:38Z</time>
      </trkpt>
      <trkpt lat="44.37145" lon="3.79312">
        <ele>1275</ele>
        <time>2017-03-03T01:01:38Z</time>
      </trkpt>
      <trkpt lat="44.37147" lon="3.79332">
        <ele>1277</ele>
        <time>2017-03-03T01:03:38Z</time>
      </trkpt>
      <trkpt lat="44.37149" lon="3.79353">
        <ele>1278</ele>
        <time>2017-03-03T01:05:38Z</time>
      </trkpt>
      <trkpt lat="44.37149" lon="3.79371">
        <ele>1278</ele>
        <time>2017-03-03T01:07:38Z</time>
      </trkpt>
      <trkpt lat="44.37148" lon="3.79389">
        <ele>1278</ele>
        <time>2017-03-03T01:09:38Z</time>
      </trkpt>
      <trkpt lat="44.3715" lon="3.79401">
        <ele>1279</ele>
        <time>2017-03-03T01:11:38Z</time>
      </trkpt>
      <trkpt lat="44.37151" lon="3.79411">
        <ele>1279</ele>
        <time>2017-03-03T01:13:38Z</time>
      </trkpt>
      <trkpt lat="44.37151" lon="3.79417">
        <ele>1279</ele>
        <time>2017-03-03T01:15:38Z</time>
      </trkpt>
      <trkpt lat="44.37154" lon="3.79424">
        <ele>1279</ele>
        <time>2017-03-03T01:17:38Z</time>
      </trkpt>
      <trkpt lat="44.3716" lon="3.79442">
        <ele>1279</ele>
        <time>2017-03-03T01:19:38Z</time>
      </trkpt>
      <trkpt lat="44.37164" lon="3.79456">
        <ele>1278</ele>
        <time>2017-03-03T01:21:38Z</time>
      </trkpt>
      <trkpt lat="44.37165" lon="3.79469">
        <ele>1277</ele>
        <time>2017-03-03T01:23:38Z</time>
      </trkpt>
      <trkpt lat="44.37168" lon="3.79479">
        <ele>1277</ele>
        <time>2017-03-03T01:25:38Z</time>
      </trkpt>
      <trkpt lat="44.37172" lon="3.79488">
        <ele>1278</ele>
        <time>2017-03-03T01:27:38Z</time>
      </trkpt>
      <trkpt lat="44.37212" lon="3.79591">
        <ele>1276</ele>
        <time>2017-03-03T01:29:38Z</time>
      </trkpt>
      <trkpt lat="44.37211" lon="3.79591">
        <ele>1276</ele>
        <time>2017-03-03T01:31:38Z</time>
      </trkpt>
      <trkpt lat="44.37211" lon="3.79588">
        <ele>1276</ele>
        <time>2017-03-03T01:33:38Z</time>
      </trkpt>
      <trkpt lat="44.37207" lon="3.79583">
        <ele>1276</ele>
        <time>2017-03-03T01:35:38Z</time>
      </trkpt>
      <trkpt lat="44.37202" lon="3.79583">
        <ele>1275</ele>
        <time>2017-03-03T01:37:38Z</time>
      </trkpt>
      <trkpt lat="44.37194" lon="3.79584">
        <ele>1273</ele>
        <time>2017-03-03T01:39:38Z</time>
      </trkpt>
      <trkpt lat="44.37183" lon="3.79583">
        <ele>1271</ele>
        <time>2017-03-03T01:41:38Z</time>
      </trkpt>
      <trkpt lat="44.37177" lon="3.79582">
        <ele>1269</ele>
        <time>2017-03-03T01:43:38Z</time>
      </trkpt>
      <trkpt lat="44.37163" lon="3.79578">
        <ele>1268</ele>
        <time>2017-03-03T01:45:38Z</time>
      </trkpt>
      <trkpt lat="44.37153" lon="3.79572">
        <ele>1269</ele>
        <time>2017-03-03T01:47:38Z</time>
      </trkpt>
      <trkpt lat="44.37145" lon="3.79565">
        <ele>1269</ele>
        <time>2017-03-03T01:49:38Z</time>
      </trkpt>
      <trkpt lat="44.3714" lon="3.79561">
        <ele>1270</ele>
        <time>2017-03-03T01:51:38Z</time>
      </trkpt>
      <trkpt lat="44.37137" lon="3.79561">
        <ele>1270</ele>
        <time>2017-03-03T01:53:38Z</time>
      </trkpt>
      <trkpt lat="44.37132" lon="3.79565">
        <ele>1270</ele>
        <time>2017-03-03T01:55:38Z</time>
      </trkpt>
      <trkpt lat="44.37125" lon="3.79578">
        <ele>1269</ele>
        <time>2017-03-03T01:57:38Z</time>
      </trkpt>
      <trkpt lat="44.37119" lon="3.79587">
        <ele>1269</ele>
        <time>2017-03-03T01:59:38Z</time>
      </trkpt>
      <trkpt lat="44.37114" lon="3.79591">
        <ele>1270</ele>
        <time>2017-03-03T02:01:38Z</time>
      </trkpt>
      <trkpt lat="44.37107" lon="3.79593">
        <ele>1270</ele>
        <time>2017-03-03T02:03:38Z</time>
      </trkpt>
      <trkpt lat="44.37102" lon="3.79592">
        <ele>1270</ele>
        <time>2017-03-03T02:05:38Z</time>
      </trkpt>
      <trkpt lat="44.37096" lon="3.79589">
        <ele>1270</ele>
        <time>2017-03-03T02:07:38Z</time>
      </trkpt>
      <trkpt lat="44.37087" lon="3.7958">
        <ele>1271</ele>
        <time>2017-03-03T02:09:38Z</time>
      </trkpt>
      <trkpt lat="44.37083" lon="3.79576">
        <ele>1271</ele>
        <time>2017-03-03T02:11:38Z</time>
      </trkpt>
      <trkpt lat="44.3708" lon="3.79572">
        <ele>1272</ele>
        <time>2017-03-03T02:13:38Z</time>
      </trkpt>
      <trkpt lat="44.37077" lon="3.79572">
        <ele>1273</ele>
        <time>2017-03-03T02:15:38Z</time>
      </trkpt>
      <trkpt lat="44.37073" lon="3.79574">
        <ele>1273</ele>
        <time>2017-03-03T02:17:38Z</time>
      </trkpt>
      <trkpt lat="44.37071" lon="3.79576">
        <ele>1274</ele>
        <time>2017-03-03T02:19:38Z</time>
      </trkpt>
      <trkpt lat="44.37063" lon="3.7959">
        <ele>1275</ele>
        <time>2017-03-03T02:21:38Z</time>
      </trkpt>
      <trkpt lat="44.37063" lon="3.7959">
        <ele>1275</ele>
        <time>2017-03-03T02:23:38Z</time>
      </trkpt>
      <trkpt lat="44.37061" lon="3.79598">
        <ele>1275</ele>
        <time>2017-03-03T02:25:38Z</time>
      </trkpt>
      <trkpt lat="44.3706" lon="3.79602">
        <ele>1275</ele>
        <time>2017-03-03T02:27:38Z</time>
      </trkpt>
      <trkpt lat="44.37059" lon="3.79606">
        <ele>1276</ele>
        <time>2017-03-03T02:29:38Z</time>
      </trkpt>
      <trkpt lat="44.37058" lon="3.7961">
        <ele>1276</ele>
        <time>2017-03-03T02:31:38Z</time>
      </trkpt>
      <trkpt lat="44.37055" lon="3.79616">
        <ele>1276</ele>
        <time>2017-03-03T02:33:38Z</time>
      </trkpt>
      <trkpt lat="44.37051" lon="3.79623">
        <ele>1277</ele>
        <time>2017-03-03T02:35:38Z</time>
      </trkpt>
      <trkpt lat="44.37049" lon="3.79627">
        <ele>1277</ele>
        <time>2017-03-03T02:37:38Z</time>
      </trkpt>
      <trkpt lat="44.37045" lon="3.79635">
        <ele>1278</ele>
        <time>2017-03-03T02:39:38Z</time>
      </trkpt>
      <trkpt lat="44.37042" lon="3.79642">
        <ele>1279</ele>
        <time>2017-03-03T02:41:38Z</time>
      </trkpt>
      <trkpt lat="44.37041" lon="3.79647">
        <ele>1279</ele>
        <time>2017-03-03T02:43:38Z</time>
      </trkpt>
      <trkpt lat="44.37034" lon="3.79666">
        <ele>1281</ele>
        <time>2017-03-03T02:45:38Z</time>
      </trkpt>
      <trkpt lat="44.37032" lon="3.79672">
        <ele>1281</ele>
        <time>2017-03-03T02:47:38Z</time>
      </trkpt>
      <trkpt lat="44.37033" lon="3.79678">
        <ele>1281</ele>
        <time>2017-03-03T02:49:38Z</time>
      </trkpt>
      <trkpt lat="44.37036" lon="3.7971">
        <ele>1281</ele>
        <time>2017-03-03T02:51:38Z</time>
      </trkpt>
      <trkpt lat="44.37038" lon="3.79719">
        <ele>1281</ele>
        <time>2017-03-03T02:53:38Z</time>
      </trkpt>
      <trkpt lat="44.3704" lon="3.79725">
        <ele>1281</ele>
        <time>2017-03-03T02:55:38Z</time>
      </trkpt>
      <trkpt lat="44.37039" lon="3.79733">
        <ele>1281</ele>
        <time>2017-03-03T02:57:38Z</time>
      </trkpt>
      <trkpt lat="44.37037" lon="3.79744">
        <ele>1282</ele>
        <time>2017-03-03T02:59:38Z</time>
      </trkpt>
      <trkpt lat="44.37036" lon="3.7975">
        <ele>1283</ele>
        <time>2017-03-03T03:01:38Z</time>
      </trkpt>
      <trkpt lat="44.37033" lon="3.79761">
        <ele>1284</ele>
        <time>2017-03-03T03:03:38Z</time>
      </trkpt>
      <trkpt lat="44.37017" lon="3.79808">
        <ele>1289</ele>
        <time>2017-03-03T03:05:38Z</time>
      </trkpt>
      <trkpt lat="44.37016" lon="3.79812">
        <ele>1290</ele>
        <time>2017-03-03T03:07:38Z</time>
      </trkpt>
      <trkpt lat="44.37011" lon="3.79822">
        <ele>1291</ele>
        <time>2017-03-03T03:09:38Z</time>
      </trkpt>
      <trkpt lat="44.37009" lon="3.7983">
        <ele>1292</ele>
        <time>2017-03-03T03:11:38Z</time>
      </trkpt>
      <trkpt lat="44.37009" lon="3.79834">
        <ele>1292</ele>
        <time>2017-03-03T03:13:38Z</time>
      </trkpt>
      <trkpt lat="44.37011" lon="3.79843">
        <ele>1292</ele>
        <time>2017-03-03T03:15:38Z</time>
      </trkpt>
      <trkpt lat="44.37011" lon="3.79849">
        <ele>1293</ele>
        <time>2017-03-03T03:17:38Z</time>
      </trkpt>
      <trkpt lat="44.37011" lon="3.79853">
        <ele>1293</ele>
        <time>2017-03-03T03:19:38Z</time>
      </trkpt>
      <trkpt lat="44.3701" lon="3.79862">
        <ele>1293</ele>
        <time>2017-03-03T03:21:38Z</time>
      </trkpt>
      <trkpt lat="44.3701" lon="3.79869">
        <ele>1294</ele>
        <time>2017-03-03T03:23:38Z</time>
      </trkpt>
      <trkpt lat="44.37011" lon="3.79874">
        <ele>1294</ele>
        <time>2017-03-03T03:25:38Z</time>
      </trkpt>
      <trkpt lat="44.3701" lon="3.79882">
        <ele>1294</ele>
        <time>2017-03-03T03:27:38Z</time>
      </trkpt>
      <trkpt lat="44.37008" lon="3.79888">
        <ele>1295</ele>
        <time>2017-03-03T03:29:38Z</time>
      </trkpt>
      <trkpt lat="44.37005" lon="3.79895">
        <ele>1295</ele>
        <time>2017-03-03T03:31:38Z</time>
      </trkpt>
      <trkpt lat="44.37001" lon="3.79902">
        <ele>1296</ele>
        <time>2017-03-03T03:33:38Z</time>
      </trkpt>
      <trkpt lat="44.36997" lon="3.79908">
        <ele>1297</ele>
        <time>2017-03-03T03:35:38Z</time>
      </trkpt>
      <trkpt lat="44.36995" lon="3.79913">
        <ele>1298</ele>
        <time>2017-03-03T03:37:38Z</time>
      </trkpt>
      <trkpt lat="44.36991" lon="3.79921">
        <ele>1300</ele>
        <time>2017-03-03T03:39:38Z</time>
      </trkpt>
      <trkpt lat="44.36988" lon="3.79931">
        <ele>1301</ele>
        <time>2017-03-03T03:41:38Z</time>
      </trkpt>
      <trkpt lat="44.36987" lon="3.79937">
        <ele>1302</ele>
        <time>2017-03-03T03:43:38Z</time>
      </trkpt>
      <trkpt lat="44.36985" lon="3.79948">
        <ele>1304</ele>
        <time>2017-03-03T03:45:38Z</time>
      </trkpt>
      <trkpt lat="44.36984" lon="3.7996">
        <ele>1305</ele>
        <time>2017-03-03T03:47:38Z</time>
      </trkpt>
      <trkpt lat="44.36984" lon="3.7997">
        <ele>1306</ele>
        <time>2017-03-03T03:49:38Z</time>
      </trkpt>
      <trkpt lat="44.36983" lon="3.79982">
        <ele>1307</ele>
        <time>2017-03-03T03:51:38Z</time>
      </trkpt>
      <trkpt lat="44.36983" lon="3.79991">
        <ele>1308</ele>
        <time>2017-03-03T03:53:38Z</time>
      </trkpt>
      <trkpt lat="44.36984" lon="3.80001">
        <ele>1309</ele>
        <time>2017-03-03T03:55:38Z</time>
      </trkpt>
      <trkpt lat="44.36986" lon="3.8001">
        <ele>1309</ele>
        <time>2017-03-03T03:57:38Z</time>
      </trkpt>
      <trkpt lat="44.36987" lon="3.80014">
        <ele>1309</ele>
        <time>2017-03-03T03:59:38Z</time>
      </trkpt>
      <trkpt lat="44.36986" lon="3.80025">
        <ele>1310</ele>
        <time>2017-03-03T04:01:38Z</time>
      </trkpt>
      <trkpt lat="44.37021" lon="3.80108">
        <ele>1311</ele>
        <time>2017-03-03T04:03:38Z</time>
      </trkpt>
      <trkpt lat="44.37028" lon="3.80124">
        <ele>1312</ele>
        <time>2017-03-03T04:05:38Z</time>
      </trkpt>
      <trkpt lat="44.37035" lon="3.80134">
        <ele>1312</ele>
        <time>2017-03-03T04:07:38Z</time>
      </trkpt>
      <trkpt lat="44.37042" lon="3.80143">
        <ele>1311</ele>
        <time>2017-03-03T04:09:38Z</time>
      </trkpt>
      <trkpt lat="44.37051" lon="3.80154">
        <ele>1311</ele>
        <time>2017-03-03T04:11:38Z</time>
      </trkpt>
      <trkpt lat="44.37058" lon="3.80161">
        <ele>1310</ele>
        <time>2017-03-03T04:13:38Z</time>
      </trkpt>
      <trkpt lat="44.3707" lon="3.80177">
        <ele>1310</ele>
        <time>2017-03-03T04:15:38Z</time>
      </trkpt>
      <trkpt lat="44.37082" lon="3.80192">
        <ele>1310</ele>
        <time>2017-03-03T04:17:38Z</time>
      </trkpt>
      <trkpt lat="44.37104" lon="3.80219">
        <ele>1311</ele>
        <time>2017-03-03T04:19:38Z</time>
      </trkpt>
      <trkpt lat="44.3712" lon="3.80246">
        <ele>1312</ele>
        <time>2017-03-03T04:21:38Z</time>
      </trkpt>
      <trkpt lat="44.37131" lon="3.80272">
        <ele>1313</ele>
        <time>2017-03-03T04:23:38Z</time>
      </trkpt>
      <trkpt lat="44.37141" lon="3.80298">
        <ele>1314</ele>
        <time>2017-03-03T04:25:38Z</time>
      </trkpt>
      <trkpt lat="44.37145" lon="3.80322">
        <ele>1316</ele>
        <time>2017-03-03T04:27:38Z</time>
      </trkpt>
      <trkpt lat="44.37151" lon="3.80345">
        <ele>1318</ele>
        <time>2017-03-03T04:29:38Z</time>
      </trkpt>
      <trkpt lat="44.37159" lon="3.80364">
        <ele>1318</ele>
        <time>2017-03-03T04:31:38Z</time>
      </trkpt>
      <trkpt lat="44.37171" lon="3.80384">
        <ele>1319</ele>
        <time>2017-03-03T04:33:38Z</time>
      </trkpt>
      <trkpt lat="44.37178" lon="3.80401">
        <ele>1321</ele>
        <time>2017-03-03T04:35:38Z</time>
      </trkpt>
      <trkpt lat="44.37185" lon="3.80422">
        <ele>1323</ele>
        <time>2017-03-03T04:37:38Z</time>
      </trkpt>
      <trkpt lat="44.37188" lon="3.80437">
        <ele>1324</ele>
        <time>2017-03-03T04:39:38Z</time>
      </trkpt>
      <trkpt lat="44.3719" lon="3.80455">
        <ele>1325</ele>
        <time>2017-03-03T04:41:38Z</time>
      </trkpt>
      <trkpt lat="44.37192" lon="3.80476">
        <ele>1326</ele>
        <time>2017-03-03T04:43:38Z</time>
      </trkpt>
      <trkpt lat="44.37196" lon="3.80502">
        <ele>1327</ele>
        <time>2017-03-03T04:45:38Z</time>
      </trkpt>
      <trkpt lat="44.37202" lon="3.80534">
        <ele>1327</ele>
        <time>2017-03-03T04:47:38Z</time>
      </trkpt>
      <trkpt lat="44.37208" lon="3.80564">
        <ele>1326</ele>
        <time>2017-03-03T04:49:38Z</time>
      </trkpt>
      <trkpt lat="44.3721" lon="3.80581">
        <ele>1326</ele>
        <time>2017-03-03T04:51:38Z</time>
      </trkpt>
      <trkpt lat="44.3721" lon="3.80585">
        <ele>1326</ele>
        <time>2017-03-03T04:53:38Z</time>
      </trkpt>
      <trkpt lat="44.37209" lon="3.80588">
        <ele>1326</ele>
        <time>2017-03-03T04:55:38Z</time>
      </trkpt>
      <trkpt lat="44.37208" lon="3.8059">
        <ele>1326</ele>
        <time>2017-03-03T04:57:38Z</time>
      </trkpt>
      <trkpt lat="44.37206" lon="3.80592">
        <ele>1326</ele>
        <time>2017-03-03T04:59:38Z</time>
      </trkpt>
      <trkpt lat="44.37199" lon="3.80601">
        <ele>1326</ele>
        <time>2017-03-03T05:01:38Z</time>
      </trkpt>
      <trkpt lat="44.37194" lon="3.80612">
        <ele>1326</ele>
        <time>2017-03-03T05:03:38Z</time>
      </trkpt>
      <trkpt lat="44.37192" lon="3.80628">
        <ele>1326</ele>
        <time>2017-03-03T05:05:38Z</time>
      </trkpt>
      <trkpt lat="44.37191" lon="3.80636">
        <ele>1326</ele>
        <time>2017-03-03T05:07:38Z</time>
      </trkpt>
      <trkpt lat="44.37191" lon="3.80642">
        <ele>1326</ele>
        <time>2017-03-03T05:09:38Z</time>
      </trkpt>
      <trkpt lat="44.3719" lon="3.8065">
        <ele>1326</ele>
        <time>2017-03-03T05:11:38Z</time>
      </trkpt>
      <trkpt lat="44.37187" lon="3.80657">
        <ele>1326</ele>
        <time>2017-03-03T05:13:38Z</time>
      </trkpt>
      <trkpt lat="44.37179" lon="3.80673">
        <ele>1326</ele>
        <time>2017-03-03T05:15:38Z</time>
      </trkpt>
      <trkpt lat="44.3717" lon="3.80689">
        <ele>1325</ele>
        <time>2017-03-03T05:17:38Z</time>
      </trkpt>
      <trkpt lat="44.37157" lon="3.80703">
        <ele>1325</ele>
        <time>2017-03-03T05:19:38Z</time>
      </trkpt>
      <trkpt lat="44.37142" lon="3.80717">
        <ele>1325</ele>
        <time>2017-03-03T05:21:38Z</time>
      </trkpt>
      <trkpt lat="44.37135" lon="3.80727">
        <ele>1325</ele>
        <time>2017-03-03T05:23:38Z</time>
      </trkpt>
      <trkpt lat="44.3713" lon="3.80742">
        <ele>1323</ele>
        <time>2017-03-03T05:25:38Z</time>
      </trkpt>
      <trkpt lat="44.37127" lon="3.80749">
        <ele>1323</ele>
        <time>2017-03-03T05:27:38Z</time>
      </trkpt>
      <trkpt lat="44.37127" lon="3.80749">
        <ele>1323</ele>
        <time>2017-03-03T05:29:38Z</time>
      </trkpt>
      <trkpt lat="44.37122" lon="3.80759">
        <ele>1322</ele>
        <time>2017-03-03T05:31:38Z</time>
      </trkpt>
      <trkpt lat="44.37122" lon="3.80761">
        <ele>1322</ele>
        <time>2017-03-03T05:33:38Z</time>
      </trkpt>
      <trkpt lat="44.37121" lon="3.80765">
        <ele>1322</ele>
        <time>2017-03-03T05:35:38Z</time>
      </trkpt>
      <trkpt lat="44.37121" lon="3.80768">
        <ele>1322</ele>
        <time>2017-03-03T05:37:38Z</time>
      </trkpt>
      <trkpt lat="44.37121" lon="3.80771">
        <ele>1322</ele>
        <time>2017-03-03T05:39:38Z</time>
      </trkpt>
      <trkpt lat="44.37121" lon="3.80777">
        <ele>1322</ele>
        <time>2017-03-03T05:41:38Z</time>
      </trkpt>
      <trkpt lat="44.37121" lon="3.80784">
        <ele>1322</ele>
        <time>2017-03-03T05:43:38Z</time>
      </trkpt>
      <trkpt lat="44.3712" lon="3.80789">
        <ele>1321</ele>
        <time>2017-03-03T05:45:38Z</time>
      </trkpt>
      <trkpt lat="44.37118" lon="3.80794">
        <ele>1321</ele>
        <time>2017-03-03T05:47:38Z</time>
      </trkpt>
      <trkpt lat="44.37116" lon="3.80798">
        <ele>1321</ele>
        <time>2017-03-03T05:49:38Z</time>
      </trkpt>
      <trkpt lat="44.37114" lon="3.80801">
        <ele>1321</ele>
        <time>2017-03-03T05:51:38Z</time>
      </trkpt>
      <trkpt lat="44.37109" lon="3.80806">
        <ele>1321</ele>
        <time>2017-03-03T05:53:38Z</time>
      </trkpt>
      <trkpt lat="44.37106" lon="3.80809">
        <ele>1321</ele>
        <time>2017-03-03T05:55:38Z</time>
      </trkpt>
      <trkpt lat="44.37104" lon="3.80811">
        <ele>1321</ele>
        <time>2017-03-03T05:57:38Z</time>
      </trkpt>
      <trkpt lat="44.37103" lon="3.80814">
        <ele>1321</ele>
        <time>2017-03-03T05:59:38Z</time>
      </trkpt>
      <trkpt lat="44.37102" lon="3.80816">
        <ele>1321</ele>
        <time>2017-03-03T06:01:38Z</time>
      </trkpt>
      <trkpt lat="44.37096" lon="3.80833">
        <ele>1320</ele>
        <time>2017-03-03T06:03:38Z</time>
      </trkpt>
      <trkpt lat="44.37088" lon="3.80851">
        <ele>1320</ele>
        <time>2017-03-03T06:05:38Z</time>
      </trkpt>
      <trkpt lat="44.37086" lon="3.80857">
        <ele>1320</ele>
        <time>2017-03-03T06:07:38Z</time>
      </trkpt>
      <trkpt lat="44.37084" lon="3.8086">
        <ele>1320</ele>
        <time>2017-03-03T06:09:38Z</time>
      </trkpt>
      <trkpt lat="44.37083" lon="3.80862">
        <ele>1320</ele>
        <time>2017-03-03T06:11:38Z</time>
      </trkpt>
      <trkpt lat="44.37075" lon="3.80868">
        <ele>1320</ele>
        <time>2017-03-03T06:13:38Z</time>
      </trkpt>
      <trkpt lat="44.37072" lon="3.80873">
        <ele>1320</ele>
        <time>2017-03-03T06:15:38Z</time>
      </trkpt>
      <trkpt lat="44.37062" lon="3.80885">
        <ele>1320</ele>
        <time>2017-03-03T06:17:38Z</time>
      </trkpt>
      <trkpt lat="44.37057" lon="3.80888">
        <ele>1321</ele>
        <time>2017-03-03T06:19:38Z</time>
      </trkpt>
      <trkpt lat="44.37051" lon="3.80892">
        <ele>1321</ele>
        <time>2017-03-03T06:21:38Z</time>
      </trkpt>
      <trkpt lat="44.37044" lon="3.80899">
        <ele>1321</ele>
        <time>2017-03-03T06:23:38Z</time>
      </trkpt>
      <trkpt lat="44.3704" lon="3.80901">
        <ele>1321</ele>
        <time>2017-03-03T06:25:38Z</time>
      </trkpt>
      <trkpt lat="44.3703" lon="3.80908">
        <ele>1321</ele>
        <time>2017-03-03T06:27:38Z</time>
      </trkpt>
      <trkpt lat="44.3702" lon="3.80916">
        <ele>1321</ele>
        <time>2017-03-03T06:29:38Z</time>
      </trkpt>
      <trkpt lat="44.37016" lon="3.8092">
        <ele>1321</ele>
        <time>2017-03-03T06:31:38Z</time>
      </trkpt>
      <trkpt lat="44.37016" lon="3.80921">
        <ele>1321</ele>
        <time>2017-03-03T06:33:38Z</time>
      </trkpt>
      <trkpt lat="44.37015" lon="3.80922">
        <ele>1321</ele>
        <time>2017-03-03T06:35:38Z</time>
      </trkpt>
      <trkpt lat="44.37015" lon="3.80923">
        <ele>1321</ele>
        <time>2017-03-03T06:37:38Z</time>
      </trkpt>
      <trkpt lat="44.37015" lon="3.80924">
        <ele>1321</ele>
        <time>2017-03-03T06:39:38Z</time>
      </trkpt>
      <trkpt lat="44.37015" lon="3.80926">
        <ele>1321</ele>
        <time>2017-03-03T06:41:38Z</time>
      </trkpt>
      <trkpt lat="44.37016" lon="3.80927">
        <ele>1321</ele>
        <time>2017-03-03T06:43:38Z</time>
      </trkpt>
      <trkpt lat="44.37017" lon="3.80928">
        <ele>1321</ele>
        <time>2017-03-03T06:45:38Z</time>
      </trkpt>
      <trkpt lat="44.37017" lon="3.80929">
        <ele>1321</ele>
        <time>2017-03-03T06:47:38Z</time>
      </trkpt>
      <trkpt lat="44.37018" lon="3.80931">
        <ele>1321</ele>
        <time>2017-03-03T06:49:38Z</time>
      </trkpt>
      <trkpt lat="44.37018" lon="3.80932">
        <ele>1321</ele>
        <time>2017-03-03T06:51:38Z</time>
      </trkpt>
      <trkpt lat="44.37018" lon="3.80935">
        <ele>1321</ele>
        <time>2017-03-03T06:53:38Z</time>
      </trkpt>
      <trkpt lat="44.37013" lon="3.80964">
        <ele>1321</ele>
        <time>2017-03-03T06:55:38Z</time>
      </trkpt>
      <trkpt lat="44.37012" lon="3.80983">
        <ele>1321</ele>
        <time>2017-03-03T06:57:38Z</time>
      </trkpt>
      <trkpt lat="44.37012" lon="3.80993">
        <ele>1321</ele>
        <time>2017-03-03T06:59:38Z</time>
      </trkpt>
      <trkpt lat="44.37012" lon="3.81">
        <ele>1321</ele>
        <time>2017-03-03T07:01:38Z</time>
      </trkpt>
      <trkpt lat="44.37012" lon="3.81007">
        <ele>1321</ele>
        <time>2017-03-03T07:03:38Z</time>
      </trkpt>
      <trkpt lat="44.37011" lon="3.81012">
        <ele>1321</ele>
        <time>2017-03-03T07:05:38Z</time>
      </trkpt>
      <trkpt lat="44.37006" lon="3.81029">
        <ele>1321</ele>
        <time>2017-03-03T07:07:38Z</time>
      </trkpt>
      <trkpt lat="44.37005" lon="3.81038">
        <ele>1321</ele>
        <time>2017-03-03T07:09:38Z</time>
      </trkpt>
      <trkpt lat="44.37005" lon="3.81049">
        <ele>1320</ele>
        <time>2017-03-03T07:11:38Z</time>
      </trkpt>
      <trkpt lat="44.37005" lon="3.81061">
        <ele>1320</ele>
        <time>2017-03-03T07:13:38Z</time>
      </trkpt>
      <trkpt lat="44.37006" lon="3.81068">
        <ele>1320</ele>
        <time>2017-03-03T07:15:38Z</time>
      </trkpt>
      <trkpt lat="44.37008" lon="3.81074">
        <ele>1320</ele>
        <time>2017-03-03T07:17:38Z</time>
      </trkpt>
      <trkpt lat="44.37008" lon="3.81081">
        <ele>1320</ele>
        <time>2017-03-03T07:19:38Z</time>
      </trkpt>
      <trkpt lat="44.37009" lon="3.81086">
        <ele>1320</ele>
        <time>2017-03-03T07:21:38Z</time>
      </trkpt>
      <trkpt lat="44.37009" lon="3.81093">
        <ele>1320</ele>
        <time>2017-03-03T07:23:38Z</time>
      </trkpt>
      <trkpt lat="44.37008" lon="3.81099">
        <ele>1321</ele>
        <time>2017-03-03T07:25:38Z</time>
      </trkpt>
      <trkpt lat="44.37008" lon="3.81105">
        <ele>1321</ele>
        <time>2017-03-03T07:27:38Z</time>
      </trkpt>
      <trkpt lat="44.37009" lon="3.81112">
        <ele>1321</ele>
        <time>2017-03-03T07:29:38Z</time>
      </trkpt>
      <trkpt lat="44.37009" lon="3.81117">
        <ele>1321</ele>
        <time>2017-03-03T07:31:38Z</time>
      </trkpt>
      <trkpt lat="44.37008" lon="3.81121">
        <ele>1321</ele>
        <time>2017-03-03T07:33:38Z</time>
      </trkpt>
      <trkpt lat="44.37008" lon="3.81123">
        <ele>1321</ele>
        <time>2017-03-03T07:35:38Z</time>
      </trkpt>
      <trkpt lat="44.37008" lon="3.81126">
        <ele>1321</ele>
        <time>2017-03-03T07:37:38Z</time>
      </trkpt>
      <trkpt lat="44.37007" lon="3.81129">
        <ele>1321</ele>
        <time>2017-03-03T07:39:38Z</time>
      </trkpt>
      <trkpt lat="44.37006" lon="3.81133">
        <ele>1321</ele>
        <time>2017-03-03T07:41:38Z</time>
      </trkpt>
      <trkpt lat="44.37003" lon="3.81152">
        <ele>1322</ele>
        <time>2017-03-03T07:43:38Z</time>
      </trkpt>
      <trkpt lat="44.36998" lon="3.81177">
        <ele>1322</ele>
        <time>2017-03-03T07:45:38Z</time>
      </trkpt>
      <trkpt lat="44.36998" lon="3.81178">
        <ele>1322</ele>
        <time>2017-03-03T07:47:38Z</time>
      </trkpt>
      <trkpt lat="44.36997" lon="3.8118">
        <ele>1322</ele>
        <time>2017-03-03T07:49:38Z</time>
      </trkpt>
      <trkpt lat="44.36997" lon="3.81181">
        <ele>1322</ele>
        <time>2017-03-03T07:51:38Z</time>
      </trkpt>
      <trkpt lat="44.36996" lon="3.81182">
        <ele>1322</ele>
        <time>2017-03-03T07:53:38Z</time>
      </trkpt>
      <trkpt lat="44.36996" lon="3.81184">
        <ele>1322</ele>
        <time>2017-03-03T07:55:38Z</time>
      </trkpt>
      <trkpt lat="44.36995" lon="3.81186">
        <ele>1322</ele>
        <time>2017-03-03T07:57:38Z</time>
      </trkpt>
      <trkpt lat="44.36995" lon="3.81202">
        <ele>1322</ele>
        <time>2017-03-03T07:59:38Z</time>
      </trkpt>
      <trkpt lat="44.36994" lon="3.81205">
        <ele>1322</ele>
        <time>2017-03-03T08:01:38Z</time>
      </trkpt>
      <trkpt lat="44.36991" lon="3.81208">
        <ele>1322</ele>
        <time>2017-03-03T08:03:38Z</time>
      </trkpt>
      <trkpt lat="44.36987" lon="3.81211">
        <ele>1322</ele>
        <time>2017-03-03T08:05:38Z</time>
      </trkpt>
      <trkpt lat="44.3698" lon="3.81217">
        <ele>1322</ele>
        <time>2017-03-03T08:07:38Z</time>
      </trkpt>
      <trkpt lat="44.36973" lon="3.8122">
        <ele>1322</ele>
        <time>2017-03-03T08:09:38Z</time>
      </trkpt>
      <trkpt lat="44.36969" lon="3.81221">
        <ele>1323</ele>
        <time>2017-03-03T08:11:38Z</time>
      </trkpt>
      <trkpt lat="44.36962" lon="3.81224">
        <ele>1323</ele>
        <time>2017-03-03T08:13:38Z</time>
      </trkpt>
      <trkpt lat="44.36959" lon="3.81224">
        <ele>1323</ele>
        <time>2017-03-03T08:15:38Z</time>
      </trkpt>
      <trkpt lat="44.36957" lon="3.81225">
        <ele>1323</ele>
        <time>2017-03-03T08:17:38Z</time>
      </trkpt>
      <trkpt lat="44.36954" lon="3.81227">
        <ele>1323</ele>
        <time>2017-03-03T08:19:38Z</time>
      </trkpt>
      <trkpt lat="44.36952" lon="3.8123">
        <ele>1323</ele>
        <time>2017-03-03T08:21:38Z</time>
      </trkpt>
      <trkpt lat="44.36946" lon="3.81237">
        <ele>1323</ele>
        <time>2017-03-03T08:23:38Z</time>
      </trkpt>
      <trkpt lat="44.36941" lon="3.81243">
        <ele>1323</ele>
        <time>2017-03-03T08:25:38Z</time>
      </trkpt>
      <trkpt lat="44.36938" lon="3.81246">
        <ele>1323</ele>
        <time>2017-03-03T08:27:38Z</time>
      </trkpt>
      <trkpt lat="44.36933" lon="3.8125">
        <ele>1323</ele>
        <time>2017-03-03T08:29:38Z</time>
      </trkpt>
      <trkpt lat="44.36921" lon="3.81257">
        <ele>1323</ele>
        <time>2017-03-03T08:31:38Z</time>
      </trkpt>
      <trkpt lat="44.36915" lon="3.81261">
        <ele>1323</ele>
        <time>2017-03-03T08:33:38Z</time>
      </trkpt>
      <trkpt lat="44.3691" lon="3.81267">
        <ele>1323</ele>
        <time>2017-03-03T08:35:38Z</time>
      </trkpt>
      <trkpt lat="44.36897" lon="3.81282">
        <ele>1324</ele>
        <time>2017-03-03T08:37:38Z</time>
      </trkpt>
      <trkpt lat="44.36894" lon="3.81284">
        <ele>1325</ele>
        <time>2017-03-03T08:39:38Z</time>
      </trkpt>
      <trkpt lat="44.36891" lon="3.81285">
        <ele>1325</ele>
        <time>2017-03-03T08:41:38Z</time>
      </trkpt>
      <trkpt lat="44.36887" lon="3.81284">
        <ele>1325</ele>
        <time>2017-03-03T08:43:38Z</time>
      </trkpt>
      <trkpt lat="44.36884" lon="3.8129">
        <ele>1325</ele>
        <time>2017-03-03T08:45:38Z</time>
      </trkpt>
      <trkpt lat="44.36882" lon="3.81295">
        <ele>1325</ele>
        <time>2017-03-03T08:47:38Z</time>
      </trkpt>
      <trkpt lat="44.36879" lon="3.81301">
        <ele>1325</ele>
        <time>2017-03-03T08:49:38Z</time>
      </trkpt>
      <trkpt lat="44.36875" lon="3.81307">
        <ele>1325</ele>
        <time>2017-03-03T08:51:38Z</time>
      </trkpt>
      <trkpt lat="44.36872" lon="3.81313">
        <ele>1325</ele>
        <time>2017-03-03T08:53:38Z</time>
      </trkpt>
      <trkpt lat="44.3687" lon="3.81317">
        <ele>1325</ele>
        <time>2017-03-03T08:55:38Z</time>
      </trkpt>
      <trkpt lat="44.36867" lon="3.81323">
        <ele>1325</ele>
        <time>2017-03-03T08:57:38Z</time>
      </trkpt>
      <trkpt lat="44.36865" lon="3.81327">
        <ele>1325</ele>
        <time>2017-03-03T08:59:38Z</time>
      </trkpt>
      <trkpt lat="44.36863" lon="3.8133">
        <ele>1325</ele>
        <time>2017-03-03T09:01:38Z</time>
      </trkpt>
      <trkpt lat="44.3686" lon="3.81333">
        <ele>1325</ele>
        <time>2017-03-03T09:03:38Z</time>
      </trkpt>
      <trkpt lat="44.36857" lon="3.81335">
        <ele>1325</ele>
        <time>2017-03-03T09:05:38Z</time>
      </trkpt>
      <trkpt lat="44.36854" lon="3.81337">
        <ele>1325</ele>
        <time>2017-03-03T09:07:38Z</time>
      </trkpt>
      <trkpt lat="44.3685" lon="3.81344">
        <ele>1325</ele>
        <time>2017-03-03T09:09:38Z</time>
      </trkpt>
      <trkpt lat="44.36848" lon="3.81347">
        <ele>1325</ele>
        <time>2017-03-03T09:11:38Z</time>
      </trkpt>
      <trkpt lat="44.36844" lon="3.81349">
        <ele>1325</ele>
        <time>2017-03-03T09:13:38Z</time>
      </trkpt>
      <trkpt lat="44.36844" lon="3.8135">
        <ele>1325</ele>
        <time>2017-03-03T09:15:38Z</time>
      </trkpt>
      <trkpt lat="44.36843" lon="3.81352">
        <ele>1326</ele>
        <time>2017-03-03T09:17:38Z</time>
      </trkpt>
      <trkpt lat="44.36842" lon="3.81357">
        <ele>1326</ele>
        <time>2017-03-03T09:19:38Z</time>
      </trkpt>
      <trkpt lat="44.36838" lon="3.81361">
        <ele>1326</ele>
        <time>2017-03-03T09:21:38Z</time>
      </trkpt>
      <trkpt lat="44.36836" lon="3.81364">
        <ele>1326</ele>
        <time>2017-03-03T09:23:38Z</time>
      </trkpt>
      <trkpt lat="44.36835" lon="3.81371">
        <ele>1326</ele>
        <time>2017-03-03T09:25:38Z</time>
      </trkpt>
      <trkpt lat="44.36835" lon="3.81378">
        <ele>1326</ele>
        <time>2017-03-03T09:27:38Z</time>
      </trkpt>
      <trkpt lat="44.36834" lon="3.81382">
        <ele>1326</ele>
        <time>2017-03-03T09:29:38Z</time>
      </trkpt>
      <trkpt lat="44.36833" lon="3.81386">
        <ele>1326</ele>
        <time>2017-03-03T09:31:38Z</time>
      </trkpt>
      <trkpt lat="44.36832" lon="3.81392">
        <ele>1326</ele>
        <time>2017-03-03T09:33:38Z</time>
      </trkpt>
      <trkpt lat="44.36829" lon="3.81423">
        <ele>1327</ele>
        <time>2017-03-03T09:35:38Z</time>
      </trkpt>
      <trkpt lat="44.3683" lon="3.81429">
        <ele>1327</ele>
        <time>2017-03-03T09:37:38Z</time>
      </trkpt>
      <trkpt lat="44.36833" lon="3.8145">
        <ele>1326</ele>
        <time>2017-03-03T09:39:38Z</time>
      </trkpt>
      <trkpt lat="44.36834" lon="3.8146">
        <ele>1326</ele>
        <time>2017-03-03T09:41:38Z</time>
      </trkpt>
      <trkpt lat="44.36833" lon="3.81464">
        <ele>1327</ele>
        <time>2017-03-03T09:43:38Z</time>
      </trkpt>
      <trkpt lat="44.36831" lon="3.81467">
        <ele>1327</ele>
        <time>2017-03-03T09:45:38Z</time>
      </trkpt>
      <trkpt lat="44.36831" lon="3.8147">
        <ele>1327</ele>
        <time>2017-03-03T09:47:38Z</time>
      </trkpt>
      <trkpt lat="44.36832" lon="3.81473">
        <ele>1327</ele>
        <time>2017-03-03T09:49:38Z</time>
      </trkpt>
      <trkpt lat="44.36834" lon="3.81476">
        <ele>1327</ele>
        <time>2017-03-03T09:51:38Z</time>
      </trkpt>
      <trkpt lat="44.3684" lon="3.81481">
        <ele>1326</ele>
        <time>2017-03-03T09:53:38Z</time>
      </trkpt>
      <trkpt lat="44.36852" lon="3.81493">
        <ele>1325</ele>
        <time>2017-03-03T09:55:38Z</time>
      </trkpt>
      <trkpt lat="44.36855" lon="3.81505">
        <ele>1325</ele>
        <time>2017-03-03T09:57:38Z</time>
      </trkpt>
      <trkpt lat="44.36859" lon="3.8151">
        <ele>1325</ele>
        <time>2017-03-03T09:59:38Z</time>
      </trkpt>
      <trkpt lat="44.36878" lon="3.81529">
        <ele>1324</ele>
        <time>2017-03-03T10:01:38Z</time>
      </trkpt>
      <trkpt lat="44.36884" lon="3.81533">
        <ele>1324</ele>
        <time>2017-03-03T10:03:38Z</time>
      </trkpt>
      <trkpt lat="44.36907" lon="3.81542">
        <ele>1322</ele>
        <time>2017-03-03T10:05:38Z</time>
      </trkpt>
      <trkpt lat="44.36919" lon="3.81551">
        <ele>1322</ele>
        <time>2017-03-03T10:07:38Z</time>
      </trkpt>
      <trkpt lat="44.37009" lon="3.81599">
        <ele>1324</ele>
        <time>2017-03-03T10:09:38Z</time>
      </trkpt>
      <trkpt lat="44.37014" lon="3.81601">
        <ele>1324</ele>
        <time>2017-03-03T10:11:38Z</time>
      </trkpt>
      <trkpt lat="44.37018" lon="3.81605">
        <ele>1324</ele>
        <time>2017-03-03T10:13:38Z</time>
      </trkpt>
      <trkpt lat="44.3702" lon="3.81607">
        <ele>1324</ele>
        <time>2017-03-03T10:15:38Z</time>
      </trkpt>
      <trkpt lat="44.37021" lon="3.81609">
        <ele>1324</ele>
        <time>2017-03-03T10:17:38Z</time>
      </trkpt>
      <trkpt lat="44.37023" lon="3.8161">
        <ele>1324</ele>
        <time>2017-03-03T10:19:38Z</time>
      </trkpt>
      <trkpt lat="44.37024" lon="3.81613">
        <ele>1324</ele>
        <time>2017-03-03T10:21:38Z</time>
      </trkpt>
      <trkpt lat="44.37024" lon="3.81615">
        <ele>1324</ele>
        <time>2017-03-03T10:23:38Z</time>
      </trkpt>
      <trkpt lat="44.37026" lon="3.81624">
        <ele>1324</ele>
        <time>2017-03-03T10:25:38Z</time>
      </trkpt>
      <trkpt lat="44.37028" lon="3.81628">
        <ele>1324</ele>
        <time>2017-03-03T10:27:38Z</time>
      </trkpt>
      <trkpt lat="44.3703" lon="3.81631">
        <ele>1324</ele>
        <time>2017-03-03T10:29:38Z</time>
      </trkpt>
      <trkpt lat="44.37035" lon="3.81634">
        <ele>1324</ele>
        <time>2017-03-03T10:31:38Z</time>
      </trkpt>
      <trkpt lat="44.37041" lon="3.81638">
        <ele>1324</ele>
        <time>2017-03-03T10:33:38Z</time>
      </trkpt>
      <trkpt lat="44.37058" lon="3.81646">
        <ele>1324</ele>
        <time>2017-03-03T10:35:38Z</time>
      </trkpt>
      <trkpt lat="44.37077" lon="3.81655">
        <ele>1324</ele>
        <time>2017-03-03T10:37:38Z</time>
      </trkpt>
      <trkpt lat="44.3708" lon="3.81656">
        <ele>1324</ele>
        <time>2017-03-03T10:39:38Z</time>
      </trkpt>
      <trkpt lat="44.37083" lon="3.81657">
        <ele>1324</ele>
        <time>2017-03-03T10:41:38Z</time>
      </trkpt>
      <trkpt lat="44.37084" lon="3.81659">
        <ele>1324</ele>
        <time>2017-03-03T10:43:38Z</time>
      </trkpt>
      <trkpt lat="44.37085" lon="3.81661">
        <ele>1324</ele>
        <time>2017-03-03T10:45:38Z</time>
      </trkpt>
      <trkpt lat="44.37086" lon="3.81664">
        <ele>1324</ele>
        <time>2017-03-03T10:47:38Z</time>
      </trkpt>
      <trkpt lat="44.37087" lon="3.81666">
        <ele>1324</ele>
        <time>2017-03-03T10:49:38Z</time>
      </trkpt>
      <trkpt lat="44.37087" lon="3.81668">
        <ele>1324</ele>
        <time>2017-03-03T10:51:38Z</time>
      </trkpt>
      <trkpt lat="44.37091" lon="3.81672">
        <ele>1324</ele>
        <time>2017-03-03T10:53:38Z</time>
      </trkpt>
      <trkpt lat="44.37106" lon="3.81688">
        <ele>1325</ele>
        <time>2017-03-03T10:55:38Z</time>
      </trkpt>
      <trkpt lat="44.3711" lon="3.81692">
        <ele>1325</ele>
        <time>2017-03-03T10:57:38Z</time>
      </trkpt>
      <trkpt lat="44.37131" lon="3.81716">
        <ele>1325</ele>
        <time>2017-03-03T10:59:38Z</time>
      </trkpt>
      <trkpt lat="44.37138" lon="3.81725">
        <ele>1325</ele>
        <time>2017-03-03T11:01:38Z</time>
      </trkpt>
      <trkpt lat="44.37142" lon="3.81731">
        <ele>1326</ele>
        <time>2017-03-03T11:03:38Z</time>
      </trkpt>
      <trkpt lat="44.37145" lon="3.81734">
        <ele>1326</ele>
        <time>2017-03-03T11:05:38Z</time>
      </trkpt>
      <trkpt lat="44.37149" lon="3.81742">
        <ele>1326</ele>
        <time>2017-03-03T11:07:38Z</time>
      </trkpt>
      <trkpt lat="44.37157" lon="3.81755">
        <ele>1326</ele>
        <time>2017-03-03T11:09:38Z</time>
      </trkpt>
      <trkpt lat="44.37158" lon="3.81758">
        <ele>1326</ele>
        <time>2017-03-03T11:11:38Z</time>
      </trkpt>
      <trkpt lat="44.37159" lon="3.81761">
        <ele>1326</ele>
        <time>2017-03-03T11:13:38Z</time>
      </trkpt>
      <trkpt lat="44.37161" lon="3.81765">
        <ele>1326</ele>
        <time>2017-03-03T11:15:38Z</time>
      </trkpt>
      <trkpt lat="44.37162" lon="3.81769">
        <ele>1326</ele>
        <time>2017-03-03T11:17:38Z</time>
      </trkpt>
      <trkpt lat="44.37165" lon="3.81774">
        <ele>1326</ele>
        <time>2017-03-03T11:19:38Z</time>
      </trkpt>
      <trkpt lat="44.37167" lon="3.81778">
        <ele>1326</ele>
        <time>2017-03-03T11:21:38Z</time>
      </trkpt>
      <trkpt lat="44.37169" lon="3.81783">
        <ele>1326</ele>
        <time>2017-03-03T11:23:38Z</time>
      </trkpt>
      <trkpt lat="44.37171" lon="3.81786">
        <ele>1326</ele>
        <time>2017-03-03T11:25:38Z</time>
      </trkpt>
      <trkpt lat="44.37172" lon="3.81789">
        <ele>1326</ele>
        <time>2017-03-03T11:27:38Z</time>
      </trkpt>
      <trkpt lat="44.37172" lon="3.81793">
        <ele>1326</ele>
        <time>2017-03-03T11:29:38Z</time>
      </trkpt>
      <trkpt lat="44.37173" lon="3.81797">
        <ele>1326</ele>
        <time>2017-03-03T11:31:38Z</time>
      </trkpt>
      <trkpt lat="44.37173" lon="3.81801">
        <ele>1326</ele>
        <time>2017-03-03T11:33:38Z</time>
      </trkpt>
      <trkpt lat="44.37172" lon="3.81809">
        <ele>1326</ele>
        <time>2017-03-03T11:35:38Z</time>
      </trkpt>
      <trkpt lat="44.37171" lon="3.81821">
        <ele>1327</ele>
        <time>2017-03-03T11:37:38Z</time>
      </trkpt>
      <trkpt lat="44.37168" lon="3.81832">
        <ele>1327</ele>
        <time>2017-03-03T11:39:38Z</time>
      </trkpt>
      <trkpt lat="44.37156" lon="3.81876">
        <ele>1327</ele>
        <time>2017-03-03T11:41:38Z</time>
      </trkpt>
      <trkpt lat="44.37154" lon="3.81884">
        <ele>1327</ele>
        <time>2017-03-03T11:43:38Z</time>
      </trkpt>
      <trkpt lat="44.37152" lon="3.81892">
        <ele>1327</ele>
        <time>2017-03-03T11:45:38Z</time>
      </trkpt>
      <trkpt lat="44.3715" lon="3.81899">
        <ele>1327</ele>
        <time>2017-03-03T11:47:38Z</time>
      </trkpt>
      <trkpt lat="44.3715" lon="3.81903">
        <ele>1327</ele>
        <time>2017-03-03T11:49:38Z</time>
      </trkpt>
      <trkpt lat="44.3715" lon="3.81907">
        <ele>1327</ele>
        <time>2017-03-03T11:51:38Z</time>
      </trkpt>
      <trkpt lat="44.3715" lon="3.81911">
        <ele>1327</ele>
        <time>2017-03-03T11:53:38Z</time>
      </trkpt>
      <trkpt lat="44.3715" lon="3.81915">
        <ele>1326</ele>
        <time>2017-03-03T11:55:38Z</time>
      </trkpt>
      <trkpt lat="44.37149" lon="3.81918">
        <ele>1326</ele>
        <time>2017-03-03T11:57:38Z</time>
      </trkpt>
      <trkpt lat="44.37148" lon="3.81923">
        <ele>1326</ele>
        <time>2017-03-03T11:59:38Z</time>
      </trkpt>
      <trkpt lat="44.37144" lon="3.81934">
        <ele>1327</ele>
        <time>2017-03-03T12:01:38Z</time>
      </trkpt>
      <trkpt lat="44.37142" lon="3.81941">
        <ele>1327</ele>
        <time>2017-03-03T12:03:38Z</time>
      </trkpt>
      <trkpt lat="44.37141" lon="3.81945">
        <ele>1327</ele>
        <time>2017-03-03T12:05:38Z</time>
      </trkpt>
      <trkpt lat="44.3714" lon="3.8195">
        <ele>1327</ele>
        <time>2017-03-03T12:07:38Z</time>
      </trkpt>
      <trkpt lat="44.37139" lon="3.81958">
        <ele>1327</ele>
        <time>2017-03-03T12:09:38Z</time>
      </trkpt>
      <trkpt lat="44.37138" lon="3.81961">
        <ele>1327</ele>
        <time>2017-03-03T12:11:38Z</time>
      </trkpt>
      <trkpt lat="44.37137" lon="3.81965">
        <ele>1327</ele>
        <time>2017-03-03T12:13:38Z</time>
      </trkpt>
      <trkpt lat="44.37135" lon="3.81969">
        <ele>1327</ele>
        <time>2017-03-03T12:15:38Z</time>
      </trkpt>
      <trkpt lat="44.37134" lon="3.81972">
        <ele>1327</ele>
        <time>2017-03-03T12:17:38Z</time>
      </trkpt>
      <trkpt lat="44.37132" lon="3.81974">
        <ele>1327</ele>
        <time>2017-03-03T12:19:38Z</time>
      </trkpt>
      <trkpt lat="44.37131" lon="3.81977">
        <ele>1327</ele>
        <time>2017-03-03T12:21:38Z</time>
      </trkpt>
      <trkpt lat="44.3713" lon="3.81981">
        <ele>1327</ele>
        <time>2017-03-03T12:23:38Z</time>
      </trkpt>
      <trkpt lat="44.37129" lon="3.81983">
        <ele>1327</ele>
        <time>2017-03-03T12:25:38Z</time>
      </trkpt>
      <trkpt lat="44.37129" lon="3.81987">
        <ele>1327</ele>
        <time>2017-03-03T12:27:38Z</time>
      </trkpt>
      <trkpt lat="44.37129" lon="3.8199">
        <ele>1327</ele>
        <time>2017-03-03T12:29:38Z</time>
      </trkpt>
      <trkpt lat="44.37129" lon="3.81992">
        <ele>1327</ele>
        <time>2017-03-03T12:31:38Z</time>
      </trkpt>
      <trkpt lat="44.3713" lon="3.81995">
        <ele>1326</ele>
        <time>2017-03-03T12:33:38Z</time>
      </trkpt>
      <trkpt lat="44.3713" lon="3.81999">
        <ele>1326</ele>
        <time>2017-03-03T12:35:38Z</time>
      </trkpt>
      <trkpt lat="44.3713" lon="3.82002">
        <ele>1326</ele>
        <time>2017-03-03T12:37:38Z</time>
      </trkpt>
      <trkpt lat="44.3713" lon="3.82005">
        <ele>1326</ele>
        <time>2017-03-03T12:39:38Z</time>
      </trkpt>
      <trkpt lat="44.37128" lon="3.82008">
        <ele>1326</ele>
        <time>2017-03-03T12:41:38Z</time>
      </trkpt>
      <trkpt lat="44.37128" lon="3.8201">
        <ele>1326</ele>
        <time>2017-03-03T12:43:38Z</time>
      </trkpt>
      <trkpt lat="44.37127" lon="3.82014">
        <ele>1326</ele>
        <time>2017-03-03T12:45:38Z</time>
      </trkpt>
      <trkpt lat="44.37126" lon="3.82019">
        <ele>1326</ele>
        <time>2017-03-03T12:47:38Z</time>
      </trkpt>
      <trkpt lat="44.37126" lon="3.82023">
        <ele>1326</ele>
        <time>2017-03-03T12:49:38Z</time>
      </trkpt>
      <trkpt lat="44.37126" lon="3.82028">
        <ele>1326</ele>
        <time>2017-03-03T12:51:38Z</time>
      </trkpt>
      <trkpt lat="44.37127" lon="3.82032">
        <ele>1326</ele>
        <time>2017-03-03T12:53:38Z</time>
      </trkpt>
      <trkpt lat="44.37128" lon="3.82035">
        <ele>1326</ele>
        <time>2017-03-03T12:55:38Z</time>
      </trkpt>
      <trkpt lat="44.37129" lon="3.8204">
        <ele>1326</ele>
        <time>2017-03-03T12:57:38Z</time>
      </trkpt>
      <trkpt lat="44.37141" lon="3.82072">
        <ele>1325</ele>
        <time>2017-03-03T12:59:38Z</time>
      </trkpt>
      <trkpt lat="44.37159" lon="3.82106">
        <ele>1325</ele>
        <time>2017-03-03T13:01:38Z</time>
      </trkpt>
      <trkpt lat="44.37161" lon="3.82109">
        <ele>1325</ele>
        <time>2017-03-03T13:03:38Z</time>
      </trkpt>
      <trkpt lat="44.37163" lon="3.82113">
        <ele>1325</ele>
        <time>2017-03-03T13:05:38Z</time>
      </trkpt>
      <trkpt lat="44.37164" lon="3.82116">
        <ele>1325</ele>
        <time>2017-03-03T13:07:38Z</time>
      </trkpt>
      <trkpt lat="44.37165" lon="3.82122">
        <ele>1325</ele>
        <time>2017-03-03T13:09:38Z</time>
      </trkpt>
      <trkpt lat="44.37166" lon="3.82127">
        <ele>1326</ele>
        <time>2017-03-03T13:11:38Z</time>
      </trkpt>
      <trkpt lat="44.37168" lon="3.82133">
        <ele>1326</ele>
        <time>2017-03-03T13:13:38Z</time>
      </trkpt>
      <trkpt lat="44.37169" lon="3.82136">
        <ele>1326</ele>
        <time>2017-03-03T13:15:38Z</time>
      </trkpt>
      <trkpt lat="44.3717" lon="3.82139">
        <ele>1326</ele>
        <time>2017-03-03T13:17:38Z</time>
      </trkpt>
      <trkpt lat="44.37172" lon="3.82144">
        <ele>1326</ele>
        <time>2017-03-03T13:19:38Z</time>
      </trkpt>
      <trkpt lat="44.37175" lon="3.8215">
        <ele>1326</ele>
        <time>2017-03-03T13:21:38Z</time>
      </trkpt>
      <trkpt lat="44.37192" lon="3.82181">
        <ele>1327</ele>
        <time>2017-03-03T13:23:38Z</time>
      </trkpt>
      <trkpt lat="44.37196" lon="3.82186">
        <ele>1327</ele>
        <time>2017-03-03T13:25:38Z</time>
      </trkpt>
      <trkpt lat="44.37202" lon="3.82195">
        <ele>1327</ele>
        <time>2017-03-03T13:27:38Z</time>
      </trkpt>
      <trkpt lat="44.37205" lon="3.82199">
        <ele>1327</ele>
        <time>2017-03-03T13:29:38Z</time>
      </trkpt>
      <trkpt lat="44.37207" lon="3.82201">
        <ele>1327</ele>
        <time>2017-03-03T13:31:38Z</time>
      </trkpt>
      <trkpt lat="44.37212" lon="3.82206">
        <ele>1327</ele>
        <time>2017-03-03T13:33:38Z</time>
      </trkpt>
      <trkpt lat="44.37218" lon="3.8221">
        <ele>1328</ele>
        <time>2017-03-03T13:35:38Z</time>
      </trkpt>
      <trkpt lat="44.37219" lon="3.82211">
        <ele>1328</ele>
        <time>2017-03-03T13:37:38Z</time>
      </trkpt>
      <trkpt lat="44.37225" lon="3.82214">
        <ele>1328</ele>
        <time>2017-03-03T13:39:38Z</time>
      </trkpt>
      <trkpt lat="44.37227" lon="3.82215">
        <ele>1328</ele>
        <time>2017-03-03T13:41:38Z</time>
      </trkpt>
      <trkpt lat="44.37235" lon="3.82215">
        <ele>1328</ele>
        <time>2017-03-03T13:43:38Z</time>
      </trkpt>
      <trkpt lat="44.37235" lon="3.82215">
        <ele>1328</ele>
        <time>2017-03-03T13:45:38Z</time>
      </trkpt>
      <trkpt lat="44.37243" lon="3.82232">
        <ele>1328</ele>
        <time>2017-03-03T13:47:38Z</time>
      </trkpt>
      <trkpt lat="44.37246" lon="3.8224">
        <ele>1328</ele>
        <time>2017-03-03T13:49:38Z</time>
      </trkpt>
      <trkpt lat="44.37249" lon="3.82245">
        <ele>1328</ele>
        <time>2017-03-03T13:51:38Z</time>
      </trkpt>
      <trkpt lat="44.3725" lon="3.82251">
        <ele>1328</ele>
        <time>2017-03-03T13:53:38Z</time>
      </trkpt>
      <trkpt lat="44.37252" lon="3.82255">
        <ele>1328</ele>
        <time>2017-03-03T13:55:38Z</time>
      </trkpt>
      <trkpt lat="44.37254" lon="3.82258">
        <ele>1328</ele>
        <time>2017-03-03T13:57:38Z</time>
      </trkpt>
      <trkpt lat="44.37258" lon="3.8226">
        <ele>1328</ele>
        <time>2017-03-03T13:59:38Z</time>
      </trkpt>
      <trkpt lat="44.37264" lon="3.82263">
        <ele>1328</ele>
        <time>2017-03-03T14:01:38Z</time>
      </trkpt>
      <trkpt lat="44.37275" lon="3.82266">
        <ele>1329</ele>
        <time>2017-03-03T14:03:38Z</time>
      </trkpt>
      <trkpt lat="44.37312" lon="3.8227">
        <ele>1329</ele>
        <time>2017-03-03T14:05:38Z</time>
      </trkpt>
      <trkpt lat="44.37331" lon="3.82272">
        <ele>1329</ele>
        <time>2017-03-03T14:07:38Z</time>
      </trkpt>
      <trkpt lat="44.37369" lon="3.8228">
        <ele>1330</ele>
        <time>2017-03-03T14:09:38Z</time>
      </trkpt>
      <trkpt lat="44.37377" lon="3.82282">
        <ele>1330</ele>
        <time>2017-03-03T14:11:38Z</time>
      </trkpt>
      <trkpt lat="44.37381" lon="3.82285">
        <ele>1330</ele>
        <time>2017-03-03T14:13:38Z</time>
      </trkpt>
      <trkpt lat="44.37395" lon="3.823">
        <ele>1330</ele>
        <time>2017-03-03T14:15:38Z</time>
      </trkpt>
      <trkpt lat="44.37408" lon="3.82313">
        <ele>1331</ele>
        <time>2017-03-03T14:17:38Z</time>
      </trkpt>
      <trkpt lat="44.37433" lon="3.82336">
        <ele>1332</ele>
        <time>2017-03-03T14:19:38Z</time>
      </trkpt>
      <trkpt lat="44.37434" lon="3.82338">
        <ele>1332</ele>
        <time>2017-03-03T14:21:38Z</time>
      </trkpt>
      <trkpt lat="44.37449" lon="3.82355">
        <ele>1333</ele>
        <time>2017-03-03T14:23:38Z</time>
      </trkpt>
      <trkpt lat="44.37459" lon="3.82364">
        <ele>1333</ele>
        <time>2017-03-03T14:25:38Z</time>
      </trkpt>
      <trkpt lat="44.37475" lon="3.82381">
        <ele>1334</ele>
        <time>2017-03-03T14:27:38Z</time>
      </trkpt>
      <trkpt lat="44.375" lon="3.82406">
        <ele>1335</ele>
        <time>2017-03-03T14:29:38Z</time>
      </trkpt>
      <trkpt lat="44.37519" lon="3.82427">
        <ele>1336</ele>
        <time>2017-03-03T14:31:38Z</time>
      </trkpt>
      <trkpt lat="44.37549" lon="3.8246">
        <ele>1336</ele>
        <time>2017-03-03T14:33:38Z</time>
      </trkpt>
      <trkpt lat="44.3756" lon="3.82473">
        <ele>1336</ele>
        <time>2017-03-03T14:35:38Z</time>
      </trkpt>
      <trkpt lat="44.37567" lon="3.82485">
        <ele>1336</ele>
        <time>2017-03-03T14:37:38Z</time>
      </trkpt>
      <trkpt lat="44.37573" lon="3.82499">
        <ele>1336</ele>
        <time>2017-03-03T14:39:38Z</time>
      </trkpt>
      <trkpt lat="44.37578" lon="3.82517">
        <ele>1336</ele>
        <time>2017-03-03T14:41:38Z</time>
      </trkpt>
      <trkpt lat="44.3758" lon="3.82528">
        <ele>1336</ele>
        <time>2017-03-03T14:43:38Z</time>
      </trkpt>
      <trkpt lat="44.3758" lon="3.82539">
        <ele>1336</ele>
        <time>2017-03-03T14:45:38Z</time>
      </trkpt>
      <trkpt lat="44.3758" lon="3.82563">
        <ele>1336</ele>
        <time>2017-03-03T14:47:38Z</time>
      </trkpt>
      <trkpt lat="44.37578" lon="3.8258">
        <ele>1336</ele>
        <time>2017-03-03T14:49:38Z</time>
      </trkpt>
      <trkpt lat="44.37576" lon="3.82592">
        <ele>1337</ele>
        <time>2017-03-03T14:51:38Z</time>
      </trkpt>
      <trkpt lat="44.37571" lon="3.82606">
        <ele>1337</ele>
        <time>2017-03-03T14:53:38Z</time>
      </trkpt>
      <trkpt lat="44.37564" lon="3.82622">
        <ele>1338</ele>
        <time>2017-03-03T14:55:38Z</time>
      </trkpt>
      <trkpt lat="44.37558" lon="3.82636">
        <ele>1338</ele>
        <time>2017-03-03T14:57:38Z</time>
      </trkpt>
      <trkpt lat="44.37554" lon="3.82649">
        <ele>1339</ele>
        <time>2017-03-03T14:59:38Z</time>
      </trkpt>
      <trkpt lat="44.3755" lon="3.82667">
        <ele>1339</ele>
        <time>2017-03-03T15:01:38Z</time>
      </trkpt>
      <trkpt lat="44.37546" lon="3.82683">
        <ele>1339</ele>
        <time>2017-03-03T15:03:38Z</time>
      </trkpt>
      <trkpt lat="44.37544" lon="3.82693">
        <ele>1339</ele>
        <time>2017-03-03T15:05:38Z</time>
      </trkpt>
      <trkpt lat="44.37539" lon="3.82705">
        <ele>1339</ele>
        <time>2017-03-03T15:07:38Z</time>
      </trkpt>
      <trkpt lat="44.37533" lon="3.82718">
        <ele>1338</ele>
        <time>2017-03-03T15:09:38Z</time>
      </trkpt>
      <trkpt lat="44.37526" lon="3.82728">
        <ele>1338</ele>
        <time>2017-03-03T15:11:38Z</time>
      </trkpt>
      <trkpt lat="44.37515" lon="3.82739">
        <ele>1339</ele>
        <time>2017-03-03T15:13:38Z</time>
      </trkpt>
      <trkpt lat="44.37505" lon="3.8275">
        <ele>1339</ele>
        <time>2017-03-03T15:15:38Z</time>
      </trkpt>
      <trkpt lat="44.37497" lon="3.82756">
        <ele>1339</ele>
        <time>2017-03-03T15:17:38Z</time>
      </trkpt>
      <trkpt lat="44.37482" lon="3.82762">
        <ele>1340</ele>
        <time>2017-03-03T15:19:38Z</time>
      </trkpt>
      <trkpt lat="44.37461" lon="3.8277">
        <ele>1342</ele>
        <time>2017-03-03T15:21:38Z</time>
      </trkpt>
      <trkpt lat="44.37451" lon="3.82774">
        <ele>1342</ele>
        <time>2017-03-03T15:23:38Z</time>
      </trkpt>
      <trkpt lat="44.37442" lon="3.82776">
        <ele>1343</ele>
        <time>2017-03-03T15:25:38Z</time>
      </trkpt>
      <trkpt lat="44.37429" lon="3.82779">
        <ele>1344</ele>
        <time>2017-03-03T15:27:38Z</time>
      </trkpt>
      <trkpt lat="44.3742" lon="3.82782">
        <ele>1345</ele>
        <time>2017-03-03T15:29:38Z</time>
      </trkpt>
      <trkpt lat="44.37411" lon="3.82787">
        <ele>1345</ele>
        <time>2017-03-03T15:31:38Z</time>
      </trkpt>
      <trkpt lat="44.37403" lon="3.82794">
        <ele>1345</ele>
        <time>2017-03-03T15:33:38Z</time>
      </trkpt>
      <trkpt lat="44.37396" lon="3.82802">
        <ele>1346</ele>
        <time>2017-03-03T15:35:38Z</time>
      </trkpt>
      <trkpt lat="44.37388" lon="3.82814">
        <ele>1346</ele>
        <time>2017-03-03T15:37:38Z</time>
      </trkpt>
      <trkpt lat="44.37385" lon="3.82821">
        <ele>1346</ele>
        <time>2017-03-03T15:39:38Z</time>
      </trkpt>
      <trkpt lat="44.37383" lon="3.82827">
        <ele>1346</ele>
        <time>2017-03-03T15:41:38Z</time>
      </trkpt>
      <trkpt lat="44.37381" lon="3.82837">
        <ele>1347</ele>
        <time>2017-03-03T15:43:38Z</time>
      </trkpt>
      <trkpt lat="44.37381" lon="3.82847">
        <ele>1348</ele>
        <time>2017-03-03T15:45:38Z</time>
      </trkpt>
      <trkpt lat="44.37383" lon="3.82858">
        <ele>1348</ele>
        <time>2017-03-03T15:47:38Z</time>
      </trkpt>
      <trkpt lat="44.37387" lon="3.82871">
        <ele>1349</ele>
        <time>2017-03-03T15:49:38Z</time>
      </trkpt>
      <trkpt lat="44.37404" lon="3.82902">
        <ele>1349</ele>
        <time>2017-03-03T15:51:38Z</time>
      </trkpt>
      <trkpt lat="44.37413" lon="3.82917">
        <ele>1349</ele>
        <time>2017-03-03T15:53:38Z</time>
      </trkpt>
      <trkpt lat="44.37421" lon="3.82931">
        <ele>1349</ele>
        <time>2017-03-03T15:55:38Z</time>
      </trkpt>
      <trkpt lat="44.37434" lon="3.82953">
        <ele>1350</ele>
        <time>2017-03-03T15:57:38Z</time>
      </trkpt>
      <trkpt lat="44.37444" lon="3.82974">
        <ele>1351</ele>
        <time>2017-03-03T15:59:38Z</time>
      </trkpt>
      <trkpt lat="44.37449" lon="3.82988">
        <ele>1352</ele>
        <time>2017-03-03T16:01:38Z</time>
      </trkpt>
      <trkpt lat="44.37453" lon="3.83001">
        <ele>1352</ele>
        <time>2017-03-03T16:03:38Z</time>
      </trkpt>
      <trkpt lat="44.37458" lon="3.83016">
        <ele>1352</ele>
        <time>2017-03-03T16:05:38Z</time>
      </trkpt>
      <trkpt lat="44.37462" lon="3.83036">
        <ele>1353</ele>
        <time>2017-03-03T16:07:38Z</time>
      </trkpt>
      <trkpt lat="44.37464" lon="3.83051">
        <ele>1353</ele>
        <time>2017-03-03T16:09:38Z</time>
      </trkpt>
      <trkpt lat="44.37465" lon="3.83092">
        <ele>1355</ele>
        <time>2017-03-03T16:11:38Z</time>
      </trkpt>
      <trkpt lat="44.37465" lon="3.83124">
        <ele>1355</ele>
        <time>2017-03-03T16:13:38Z</time>
      </trkpt>
      <trkpt lat="44.37463" lon="3.83145">
        <ele>1356</ele>
        <time>2017-03-03T16:15:38Z</time>
      </trkpt>
      <trkpt lat="44.37461" lon="3.83165">
        <ele>1356</ele>
        <time>2017-03-03T16:17:38Z</time>
      </trkpt>
      <trkpt lat="44.37456" lon="3.83184">
        <ele>1357</ele>
        <time>2017-03-03T16:19:38Z</time>
      </trkpt>
      <trkpt lat="44.37449" lon="3.83207">
        <ele>1357</ele>
        <time>2017-03-03T16:21:38Z</time>
      </trkpt>
      <trkpt lat="44.37441" lon="3.83227">
        <ele>1356</ele>
        <time>2017-03-03T16:23:38Z</time>
      </trkpt>
      <trkpt lat="44.37429" lon="3.83252">
        <ele>1356</ele>
        <time>2017-03-03T16:25:38Z</time>
      </trkpt>
      <trkpt lat="44.3742" lon="3.83269">
        <ele>1356</ele>
        <time>2017-03-03T16:27:38Z</time>
      </trkpt>
      <trkpt lat="44.37414" lon="3.83281">
        <ele>1356</ele>
        <time>2017-03-03T16:29:38Z</time>
      </trkpt>
      <trkpt lat="44.37406" lon="3.83299">
        <ele>1357</ele>
        <time>2017-03-03T16:31:38Z</time>
      </trkpt>
      <trkpt lat="44.37399" lon="3.83322">
        <ele>1356</ele>
        <time>2017-03-03T16:33:38Z</time>
      </trkpt>
      <trkpt lat="44.37392" lon="3.83337">
        <ele>1356</ele>
        <time>2017-03-03T16:35:38Z</time>
      </trkpt>
      <trkpt lat="44.37382" lon="3.83356">
        <ele>1358</ele>
        <time>2017-03-03T16:37:38Z</time>
      </trkpt>
      <trkpt lat="44.37362" lon="3.83389">
        <ele>1359</ele>
        <time>2017-03-03T16:39:38Z</time>
      </trkpt>
      <trkpt lat="44.37348" lon="3.8341">
        <ele>1359</ele>
        <time>2017-03-03T16:41:38Z</time>
      </trkpt>
      <trkpt lat="44.37337" lon="3.83425">
        <ele>1359</ele>
        <time>2017-03-03T16:43:38Z</time>
      </trkpt>
      <trkpt lat="44.3733" lon="3.83436">
        <ele>1360</ele>
        <time>2017-03-03T16:45:38Z</time>
      </trkpt>
      <trkpt lat="44.37326" lon="3.83445">
        <ele>1360</ele>
        <time>2017-03-03T16:47:38Z</time>
      </trkpt>
      <trkpt lat="44.37324" lon="3.83453">
        <ele>1361</ele>
        <time>2017-03-03T16:49:38Z</time>
      </trkpt>
      <trkpt lat="44.37324" lon="3.83455">
        <ele>1361</ele>
        <time>2017-03-03T16:51:38Z</time>
      </trkpt>
      <trkpt lat="44.37323" lon="3.83464">
        <ele>1361</ele>
        <time>2017-03-03T16:53:38Z</time>
      </trkpt>
      <trkpt lat="44.37324" lon="3.83475">
        <ele>1361</ele>
        <time>2017-03-03T16:55:38Z</time>
      </trkpt>
      <trkpt lat="44.37324" lon="3.83475">
        <ele>1361</ele>
        <time>2017-03-03T16:57:38Z</time>
      </trkpt>
      <trkpt lat="44.37341" lon="3.83469">
        <ele>1360</ele>
        <time>2017-03-03T16:59:38Z</time>
      </trkpt>
      <trkpt lat="44.37357" lon="3.83464">
        <ele>1360</ele>
        <time>2017-03-03T17:01:38Z</time>
      </trkpt>
      <trkpt lat="44.37362" lon="3.83459">
        <ele>1360</ele>
        <time>2017-03-03T17:03:38Z</time>
      </trkpt>
      <trkpt lat="44.37367" lon="3.83453">
        <ele>1359</ele>
        <time>2017-03-03T17:05:38Z</time>
      </trkpt>
      <trkpt lat="44.37373" lon="3.83443">
        <ele>1359</ele>
        <time>2017-03-03T17:07:38Z</time>
      </trkpt>
      <trkpt lat="44.37378" lon="3.83437">
        <ele>1358</ele>
        <time>2017-03-03T17:09:38Z</time>
      </trkpt>
      <trkpt lat="44.37389" lon="3.83429">
        <ele>1357</ele>
        <time>2017-03-03T17:11:38Z</time>
      </trkpt>
      <trkpt lat="44.37411" lon="3.83422">
        <ele>1356</ele>
        <time>2017-03-03T17:13:38Z</time>
      </trkpt>
      <trkpt lat="44.3742" lon="3.83422">
        <ele>1355</ele>
        <time>2017-03-03T17:15:38Z</time>
      </trkpt>
      <trkpt lat="44.37427" lon="3.83421">
        <ele>1355</ele>
        <time>2017-03-03T17:17:38Z</time>
      </trkpt>
      <trkpt lat="44.37433" lon="3.8342">
        <ele>1355</ele>
        <time>2017-03-03T17:19:38Z</time>
      </trkpt>
      <trkpt lat="44.3744" lon="3.83417">
        <ele>1354</ele>
        <time>2017-03-03T17:21:38Z</time>
      </trkpt>
      <trkpt lat="44.37447" lon="3.83415">
        <ele>1353</ele>
        <time>2017-03-03T17:23:38Z</time>
      </trkpt>
      <trkpt lat="44.37459" lon="3.83412">
        <ele>1353</ele>
        <time>2017-03-03T17:25:38Z</time>
      </trkpt>
      <trkpt lat="44.37467" lon="3.83412">
        <ele>1352</ele>
        <time>2017-03-03T17:27:38Z</time>
      </trkpt>
      <trkpt lat="44.37478" lon="3.83412">
        <ele>1352</ele>
        <time>2017-03-03T17:29:38Z</time>
      </trkpt>
      <trkpt lat="44.37507" lon="3.83413">
        <ele>1351</ele>
        <time>2017-03-03T17:31:38Z</time>
      </trkpt>
      <trkpt lat="44.37521" lon="3.83415">
        <ele>1351</ele>
        <time>2017-03-03T17:33:38Z</time>
      </trkpt>
      <trkpt lat="44.37539" lon="3.83412">
        <ele>1351</ele>
        <time>2017-03-03T17:35:38Z</time>
      </trkpt>
      <trkpt lat="44.37568" lon="3.83403">
        <ele>1351</ele>
        <time>2017-03-03T17:37:38Z</time>
      </trkpt>
      <trkpt lat="44.3758" lon="3.83399">
        <ele>1351</ele>
        <time>2017-03-03T17:39:38Z</time>
      </trkpt>
      <trkpt lat="44.37597" lon="3.83396">
        <ele>1351</ele>
        <time>2017-03-03T17:41:38Z</time>
      </trkpt>
      <trkpt lat="44.37604" lon="3.83396">
        <ele>1351</ele>
        <time>2017-03-03T17:43:38Z</time>
      </trkpt>
      <trkpt lat="44.37614" lon="3.83399">
        <ele>1351</ele>
        <time>2017-03-03T17:45:38Z</time>
      </trkpt>
      <trkpt lat="44.3762" lon="3.834">
        <ele>1351</ele>
        <time>2017-03-03T17:47:38Z</time>
      </trkpt>
      <trkpt lat="44.37626" lon="3.83401">
        <ele>1351</ele>
        <time>2017-03-03T17:49:38Z</time>
      </trkpt>
      <trkpt lat="44.37635" lon="3.834">
        <ele>1351</ele>
        <time>2017-03-03T17:51:38Z</time>
      </trkpt>
      <trkpt lat="44.37646" lon="3.834">
        <ele>1351</ele>
        <time>2017-03-03T17:53:38Z</time>
      </trkpt>
      <trkpt lat="44.37659" lon="3.83401">
        <ele>1351</ele>
        <time>2017-03-03T17:55:38Z</time>
      </trkpt>
      <trkpt lat="44.37669" lon="3.83403">
        <ele>1351</ele>
        <time>2017-03-03T17:57:38Z</time>
      </trkpt>
      <trkpt lat="44.37677" lon="3.83405">
        <ele>1351</ele>
        <time>2017-03-03T17:59:38Z</time>
      </trkpt>
      <trkpt lat="44.37691" lon="3.83409">
        <ele>1351</ele>
        <time>2017-03-03T18:01:38Z</time>
      </trkpt>
      <trkpt lat="44.37697" lon="3.8341">
        <ele>1351</ele>
        <time>2017-03-03T18:03:38Z</time>
      </trkpt>
      <trkpt lat="44.37705" lon="3.83412">
        <ele>1351</ele>
        <time>2017-03-03T18:05:38Z</time>
      </trkpt>
      <trkpt lat="44.37708" lon="3.83412">
        <ele>1351</ele>
        <time>2017-03-03T18:07:38Z</time>
      </trkpt>
      <trkpt lat="44.37721" lon="3.83418">
        <ele>1351</ele>
        <time>2017-03-03T18:09:38Z</time>
      </trkpt>
      <trkpt lat="44.37722" lon="3.83419">
        <ele>1351</ele>
        <time>2017-03-03T18:11:38Z</time>
      </trkpt>
      <trkpt lat="44.37732" lon="3.83423">
        <ele>1351</ele>
        <time>2017-03-03T18:13:38Z</time>
      </trkpt>
      <trkpt lat="44.37746" lon="3.83423">
        <ele>1350</ele>
        <time>2017-03-03T18:15:38Z</time>
      </trkpt>
      <trkpt lat="44.37769" lon="3.83431">
        <ele>1351</ele>
        <time>2017-03-03T18:17:38Z</time>
      </trkpt>
      <trkpt lat="44.37785" lon="3.83439">
        <ele>1351</ele>
        <time>2017-03-03T18:19:38Z</time>
      </trkpt>
      <trkpt lat="44.37792" lon="3.83443">
        <ele>1351</ele>
        <time>2017-03-03T18:21:38Z</time>
      </trkpt>
      <trkpt lat="44.37798" lon="3.83443">
        <ele>1351</ele>
        <time>2017-03-03T18:23:38Z</time>
      </trkpt>
      <trkpt lat="44.3781" lon="3.83442">
        <ele>1351</ele>
        <time>2017-03-03T18:25:38Z</time>
      </trkpt>
      <trkpt lat="44.37818" lon="3.83438">
        <ele>1351</ele>
        <time>2017-03-03T18:27:38Z</time>
      </trkpt>
      <trkpt lat="44.37833" lon="3.83431">
        <ele>1350</ele>
        <time>2017-03-03T18:29:38Z</time>
      </trkpt>
      <trkpt lat="44.37838" lon="3.83429">
        <ele>1350</ele>
        <time>2017-03-03T18:31:38Z</time>
      </trkpt>
      <trkpt lat="44.37843" lon="3.83427">
        <ele>1350</ele>
        <time>2017-03-03T18:33:38Z</time>
      </trkpt>
      <trkpt lat="44.37852" lon="3.83424">
        <ele>1351</ele>
        <time>2017-03-03T18:35:38Z</time>
      </trkpt>
      <trkpt lat="44.37857" lon="3.83423">
        <ele>1351</ele>
        <time>2017-03-03T18:37:38Z</time>
      </trkpt>
      <trkpt lat="44.3786" lon="3.83422">
        <ele>1351</ele>
        <time>2017-03-03T18:39:38Z</time>
      </trkpt>
      <trkpt lat="44.37863" lon="3.83423">
        <ele>1351</ele>
        <time>2017-03-03T18:41:38Z</time>
      </trkpt>
      <trkpt lat="44.37866" lon="3.83424">
        <ele>1351</ele>
        <time>2017-03-03T18:43:38Z</time>
      </trkpt>
      <trkpt lat="44.37868" lon="3.83427">
        <ele>1351</ele>
        <time>2017-03-03T18:45:38Z</time>
      </trkpt>
      <trkpt lat="44.37876" lon="3.83449">
        <ele>1352</ele>
        <time>2017-03-03T18:47:38Z</time>
      </trkpt>
      <trkpt lat="44.37879" lon="3.83463">
        <ele>1352</ele>
        <time>2017-03-03T18:49:38Z</time>
      </trkpt>
      <trkpt lat="44.37881" lon="3.83466">
        <ele>1352</ele>
        <time>2017-03-03T18:51:38Z</time>
      </trkpt>
      <trkpt lat="44.37885" lon="3.83473">
        <ele>1353</ele>
        <time>2017-03-03T18:53:38Z</time>
      </trkpt>
      <trkpt lat="44.37893" lon="3.8348">
        <ele>1353</ele>
        <time>2017-03-03T18:55:38Z</time>
      </trkpt>
      <trkpt lat="44.37903" lon="3.83488">
        <ele>1353</ele>
        <time>2017-03-03T18:57:38Z</time>
      </trkpt>
      <trkpt lat="44.37914" lon="3.83496">
        <ele>1354</ele>
        <time>2017-03-03T18:59:38Z</time>
      </trkpt>
      <trkpt lat="44.37927" lon="3.83505">
        <ele>1355</ele>
        <time>2017-03-03T19:01:38Z</time>
      </trkpt>
      <trkpt lat="44.3793" lon="3.83508">
        <ele>1355</ele>
        <time>2017-03-03T19:03:38Z</time>
      </trkpt>
      <trkpt lat="44.37934" lon="3.83514">
        <ele>1355</ele>
        <time>2017-03-03T19:05:38Z</time>
      </trkpt>
      <trkpt lat="44.3794" lon="3.83521">
        <ele>1356</ele>
        <time>2017-03-03T19:07:38Z</time>
      </trkpt>
      <trkpt lat="44.37944" lon="3.83525">
        <ele>1356</ele>
        <time>2017-03-03T19:09:38Z</time>
      </trkpt>
      <trkpt lat="44.3795" lon="3.83527">
        <ele>1356</ele>
        <time>2017-03-03T19:11:38Z</time>
      </trkpt>
      <trkpt lat="44.37954" lon="3.83526">
        <ele>1357</ele>
        <time>2017-03-03T19:13:38Z</time>
      </trkpt>
      <trkpt lat="44.37957" lon="3.83523">
        <ele>1357</ele>
        <time>2017-03-03T19:15:38Z</time>
      </trkpt>
      <trkpt lat="44.37963" lon="3.83518">
        <ele>1357</ele>
        <time>2017-03-03T19:17:38Z</time>
      </trkpt>
      <trkpt lat="44.37968" lon="3.83516">
        <ele>1357</ele>
        <time>2017-03-03T19:19:38Z</time>
      </trkpt>
      <trkpt lat="44.37976" lon="3.83514">
        <ele>1358</ele>
        <time>2017-03-03T19:21:38Z</time>
      </trkpt>
      <trkpt lat="44.37996" lon="3.8351">
        <ele>1359</ele>
        <time>2017-03-03T19:23:38Z</time>
      </trkpt>
      <trkpt lat="44.38" lon="3.83508">
        <ele>1359</ele>
        <time>2017-03-03T19:25:38Z</time>
      </trkpt>
      <trkpt lat="44.38004" lon="3.83506">
        <ele>1359</ele>
        <time>2017-03-03T19:27:38Z</time>
      </trkpt>
      <trkpt lat="44.38014" lon="3.83502">
        <ele>1359</ele>
        <time>2017-03-03T19:29:38Z</time>
      </trkpt>
      <trkpt lat="44.38026" lon="3.83496">
        <ele>1360</ele>
        <time>2017-03-03T19:31:38Z</time>
      </trkpt>
      <trkpt lat="44.3805" lon="3.8348">
        <ele>1361</ele>
        <time>2017-03-03T19:33:38Z</time>
      </trkpt>
      <trkpt lat="44.38071" lon="3.83469">
        <ele>1361</ele>
        <time>2017-03-03T19:35:38Z</time>
      </trkpt>
      <trkpt lat="44.38108" lon="3.83452">
        <ele>1363</ele>
        <time>2017-03-03T19:37:38Z</time>
      </trkpt>
      <trkpt lat="44.38126" lon="3.83449">
        <ele>1365</ele>
        <time>2017-03-03T19:39:38Z</time>
      </trkpt>
      <trkpt lat="44.3816" lon="3.83449">
        <ele>1367</ele>
        <time>2017-03-03T19:41:38Z</time>
      </trkpt>
      <trkpt lat="44.38172" lon="3.83451">
        <ele>1368</ele>
        <time>2017-03-03T19:43:38Z</time>
      </trkpt>
      <trkpt lat="44.38172" lon="3.83451">
        <ele>1368</ele>
        <time>2017-03-03T19:45:38Z</time>
      </trkpt>
      <trkpt lat="44.38176" lon="3.83468">
        <ele>1369</ele>
        <time>2017-03-03T19:47:38Z</time>
      </trkpt>
      <trkpt lat="44.38179" lon="3.83481">
        <ele>1369</ele>
        <time>2017-03-03T19:49:38Z</time>
      </trkpt>
      <trkpt lat="44.38182" lon="3.83494">
        <ele>1369</ele>
        <time>2017-03-03T19:51:38Z</time>
      </trkpt>
      <trkpt lat="44.38182" lon="3.83502">
        <ele>1369</ele>
        <time>2017-03-03T19:53:38Z</time>
      </trkpt>
      <trkpt lat="44.3818" lon="3.8351">
        <ele>1369</ele>
        <time>2017-03-03T19:55:38Z</time>
      </trkpt>
      <trkpt lat="44.38178" lon="3.8352">
        <ele>1369</ele>
        <time>2017-03-03T19:57:38Z</time>
      </trkpt>
      <trkpt lat="44.38177" lon="3.83532">
        <ele>1369</ele>
        <time>2017-03-03T19:59:38Z</time>
      </trkpt>
      <trkpt lat="44.38176" lon="3.83549">
        <ele>1369</ele>
        <time>2017-03-03T20:01:38Z</time>
      </trkpt>
      <trkpt lat="44.38176" lon="3.83558">
        <ele>1369</ele>
        <time>2017-03-03T20:03:38Z</time>
      </trkpt>
      <trkpt lat="44.38177" lon="3.83566">
        <ele>1369</ele>
        <time>2017-03-03T20:05:38Z</time>
      </trkpt>
      <trkpt lat="44.38179" lon="3.83572">
        <ele>1369</ele>
        <time>2017-03-03T20:07:38Z</time>
      </trkpt>
      <trkpt lat="44.38184" lon="3.83579">
        <ele>1370</ele>
        <time>2017-03-03T20:09:38Z</time>
      </trkpt>
      <trkpt lat="44.38193" lon="3.83587">
        <ele>1371</ele>
        <time>2017-03-03T20:11:38Z</time>
      </trkpt>
      <trkpt lat="44.38197" lon="3.83592">
        <ele>1371</ele>
        <time>2017-03-03T20:13:38Z</time>
      </trkpt>
      <trkpt lat="44.38204" lon="3.83604">
        <ele>1372</ele>
        <time>2017-03-03T20:15:38Z</time>
      </trkpt>
      <trkpt lat="44.3821" lon="3.83616">
        <ele>1372</ele>
        <time>2017-03-03T20:17:38Z</time>
      </trkpt>
      <trkpt lat="44.38215" lon="3.83629">
        <ele>1372</ele>
        <time>2017-03-03T20:19:38Z</time>
      </trkpt>
      <trkpt lat="44.38221" lon="3.83647">
        <ele>1373</ele>
        <time>2017-03-03T20:21:38Z</time>
      </trkpt>
      <trkpt lat="44.38224" lon="3.83662">
        <ele>1373</ele>
        <time>2017-03-03T20:23:38Z</time>
      </trkpt>
      <trkpt lat="44.38226" lon="3.83675">
        <ele>1372</ele>
        <time>2017-03-03T20:25:38Z</time>
      </trkpt>
      <trkpt lat="44.38228" lon="3.83693">
        <ele>1371</ele>
        <time>2017-03-03T20:27:38Z</time>
      </trkpt>
      <trkpt lat="44.38229" lon="3.83704">
        <ele>1370</ele>
        <time>2017-03-03T20:29:38Z</time>
      </trkpt>
      <trkpt lat="44.38232" lon="3.83715">
        <ele>1370</ele>
        <time>2017-03-03T20:31:38Z</time>
      </trkpt>
      <trkpt lat="44.38236" lon="3.83729">
        <ele>1369</ele>
        <time>2017-03-03T20:33:38Z</time>
      </trkpt>
      <trkpt lat="44.38241" lon="3.83745">
        <ele>1368</ele>
        <time>2017-03-03T20:35:38Z</time>
      </trkpt>
      <trkpt lat="44.38248" lon="3.83766">
        <ele>1368</ele>
        <time>2017-03-03T20:37:38Z</time>
      </trkpt>
      <trkpt lat="44.38252" lon="3.83781">
        <ele>1368</ele>
        <time>2017-03-03T20:39:38Z</time>
      </trkpt>
      <trkpt lat="44.38254" lon="3.83796">
        <ele>1367</ele>
        <time>2017-03-03T20:41:38Z</time>
      </trkpt>
      <trkpt lat="44.38253" lon="3.83812">
        <ele>1366</ele>
        <time>2017-03-03T20:43:38Z</time>
      </trkpt>
      <trkpt lat="44.3825" lon="3.83844">
        <ele>1364</ele>
        <time>2017-03-03T20:45:38Z</time>
      </trkpt>
      <trkpt lat="44.3825" lon="3.83858">
        <ele>1364</ele>
        <time>2017-03-03T20:47:38Z</time>
      </trkpt>
      <trkpt lat="44.3825" lon="3.83873">
        <ele>1364</ele>
        <time>2017-03-03T20:49:38Z</time>
      </trkpt>
      <trkpt lat="44.3825" lon="3.8388">
        <ele>1363</ele>
        <time>2017-03-03T20:51:38Z</time>
      </trkpt>
      <trkpt lat="44.38251" lon="3.83888">
        <ele>1363</ele>
        <time>2017-03-03T20:53:38Z</time>
      </trkpt>
      <trkpt lat="44.38251" lon="3.83895">
        <ele>1363</ele>
        <time>2017-03-03T20:55:38Z</time>
      </trkpt>
      <trkpt lat="44.38251" lon="3.83901">
        <ele>1363</ele>
        <time>2017-03-03T20:57:38Z</time>
      </trkpt>
      <trkpt lat="44.38253" lon="3.83938">
        <ele>1364</ele>
        <time>2017-03-03T20:59:38Z</time>
      </trkpt>
      <trkpt lat="44.38254" lon="3.83959">
        <ele>1365</ele>
        <time>2017-03-03T21:01:38Z</time>
      </trkpt>
      <trkpt lat="44.38253" lon="3.83976">
        <ele>1365</ele>
        <time>2017-03-03T21:03:38Z</time>
      </trkpt>
      <trkpt lat="44.3825" lon="3.83992">
        <ele>1366</ele>
        <time>2017-03-03T21:05:38Z</time>
      </trkpt>
      <trkpt lat="44.38244" lon="3.84012">
        <ele>1366</ele>
        <time>2017-03-03T21:07:38Z</time>
      </trkpt>
      <trkpt lat="44.38241" lon="3.84021">
        <ele>1366</ele>
        <time>2017-03-03T21:09:38Z</time>
      </trkpt>
      <trkpt lat="44.38238" lon="3.84039">
        <ele>1366</ele>
        <time>2017-03-03T21:11:38Z</time>
      </trkpt>
      <trkpt lat="44.38236" lon="3.84053">
        <ele>1366</ele>
        <time>2017-03-03T21:13:38Z</time>
      </trkpt>
      <trkpt lat="44.38237" lon="3.84069">
        <ele>1366</ele>
        <time>2017-03-03T21:15:38Z</time>
      </trkpt>
      <trkpt lat="44.38238" lon="3.84076">
        <ele>1366</ele>
        <time>2017-03-03T21:17:38Z</time>
      </trkpt>
      <trkpt lat="44.3824" lon="3.84079">
        <ele>1367</ele>
        <time>2017-03-03T21:19:38Z</time>
      </trkpt>
      <trkpt lat="44.38247" lon="3.84092">
        <ele>1367</ele>
        <time>2017-03-03T21:21:38Z</time>
      </trkpt>
      <trkpt lat="44.38257" lon="3.84107">
        <ele>1368</ele>
        <time>2017-03-03T21:23:38Z</time>
      </trkpt>
      <trkpt lat="44.38267" lon="3.84118">
        <ele>1369</ele>
        <time>2017-03-03T21:25:38Z</time>
      </trkpt>
      <trkpt lat="44.38275" lon="3.84126">
        <ele>1369</ele>
        <time>2017-03-03T21:27:38Z</time>
      </trkpt>
      <trkpt lat="44.38277" lon="3.84129">
        <ele>1369</ele>
        <time>2017-03-03T21:29:38Z</time>
      </trkpt>
      <trkpt lat="44.3828" lon="3.84134">
        <ele>1370</ele>
        <time>2017-03-03T21:31:38Z</time>
      </trkpt>
      <trkpt lat="44.38281" lon="3.84144">
        <ele>1370</ele>
        <time>2017-03-03T21:33:38Z</time>
      </trkpt>
      <trkpt lat="44.38281" lon="3.84149">
        <ele>1370</ele>
        <time>2017-03-03T21:35:38Z</time>
      </trkpt>
      <trkpt lat="44.3828" lon="3.84154">
        <ele>1370</ele>
        <time>2017-03-03T21:37:38Z</time>
      </trkpt>
      <trkpt lat="44.38279" lon="3.8416">
        <ele>1370</ele>
        <time>2017-03-03T21:39:38Z</time>
      </trkpt>
      <trkpt lat="44.38277" lon="3.8417">
        <ele>1370</ele>
        <time>2017-03-03T21:41:38Z</time>
      </trkpt>
      <trkpt lat="44.38271" lon="3.84184">
        <ele>1371</ele>
        <time>2017-03-03T21:43:38Z</time>
      </trkpt>
      <trkpt lat="44.38263" lon="3.84198">
        <ele>1372</ele>
        <time>2017-03-03T21:45:38Z</time>
      </trkpt>
      <trkpt lat="44.38257" lon="3.84203">
        <ele>1373</ele>
        <time>2017-03-03T21:47:38Z</time>
      </trkpt>
      <trkpt lat="44.38252" lon="3.84205">
        <ele>1373</ele>
        <time>2017-03-03T21:49:38Z</time>
      </trkpt>
      <trkpt lat="44.38244" lon="3.84205">
        <ele>1373</ele>
        <time>2017-03-03T21:51:38Z</time>
      </trkpt>
      <trkpt lat="44.38232" lon="3.84202">
        <ele>1373</ele>
        <time>2017-03-03T21:53:38Z</time>
      </trkpt>
      <trkpt lat="44.38224" lon="3.84201">
        <ele>1373</ele>
        <time>2017-03-03T21:55:38Z</time>
      </trkpt>
      <trkpt lat="44.38214" lon="3.842">
        <ele>1374</ele>
        <time>2017-03-03T21:57:38Z</time>
      </trkpt>
      <trkpt lat="44.38203" lon="3.84204">
        <ele>1374</ele>
        <time>2017-03-03T21:59:38Z</time>
      </trkpt>
      <trkpt lat="44.38192" lon="3.84208">
        <ele>1375</ele>
        <time>2017-03-03T22:01:38Z</time>
      </trkpt>
      <trkpt lat="44.38183" lon="3.8421">
        <ele>1376</ele>
        <time>2017-03-03T22:03:38Z</time>
      </trkpt>
      <trkpt lat="44.38176" lon="3.84211">
        <ele>1376</ele>
        <time>2017-03-03T22:05:38Z</time>
      </trkpt>
      <trkpt lat="44.38155" lon="3.84207">
        <ele>1376</ele>
        <time>2017-03-03T22:07:38Z</time>
      </trkpt>
      <trkpt lat="44.38121" lon="3.84204">
        <ele>1376</ele>
        <time>2017-03-03T22:09:38Z</time>
      </trkpt>
      <trkpt lat="44.38107" lon="3.84205">
        <ele>1376</ele>
        <time>2017-03-03T22:11:38Z</time>
      </trkpt>
      <trkpt lat="44.38098" lon="3.84208">
        <ele>1377</ele>
        <time>2017-03-03T22:13:38Z</time>
      </trkpt>
      <trkpt lat="44.38088" lon="3.84217">
        <ele>1378</ele>
        <time>2017-03-03T22:15:38Z</time>
      </trkpt>
      <trkpt lat="44.38075" lon="3.84232">
        <ele>1379</ele>
        <time>2017-03-03T22:17:38Z</time>
      </trkpt>
      <trkpt lat="44.38067" lon="3.84241">
        <ele>1379</ele>
        <time>2017-03-03T22:19:38Z</time>
      </trkpt>
      <trkpt lat="44.38059" lon="3.8426">
        <ele>1381</ele>
        <time>2017-03-03T22:21:38Z</time>
      </trkpt>
      <trkpt lat="44.38048" lon="3.84288">
        <ele>1382</ele>
        <time>2017-03-03T22:23:38Z</time>
      </trkpt>
      <trkpt lat="44.3804" lon="3.84308">
        <ele>1383</ele>
        <time>2017-03-03T22:25:38Z</time>
      </trkpt>
      <trkpt lat="44.38032" lon="3.84323">
        <ele>1383</ele>
        <time>2017-03-03T22:27:38Z</time>
      </trkpt>
      <trkpt lat="44.38025" lon="3.84337">
        <ele>1383</ele>
        <time>2017-03-03T22:29:38Z</time>
      </trkpt>
      <trkpt lat="44.38021" lon="3.84351">
        <ele>1383</ele>
        <time>2017-03-03T22:31:38Z</time>
      </trkpt>
      <trkpt lat="44.38019" lon="3.84369">
        <ele>1383</ele>
        <time>2017-03-03T22:33:38Z</time>
      </trkpt>
      <trkpt lat="44.38017" lon="3.84394">
        <ele>1384</ele>
        <time>2017-03-03T22:35:38Z</time>
      </trkpt>
      <trkpt lat="44.38017" lon="3.84423">
        <ele>1385</ele>
        <time>2017-03-03T22:37:38Z</time>
      </trkpt>
      <trkpt lat="44.38019" lon="3.84452">
        <ele>1387</ele>
        <time>2017-03-03T22:39:38Z</time>
      </trkpt>
      <trkpt lat="44.38023" lon="3.84486">
        <ele>1389</ele>
        <time>2017-03-03T22:41:38Z</time>
      </trkpt>
      <trkpt lat="44.3803" lon="3.84523">
        <ele>1391</ele>
        <time>2017-03-03T22:43:38Z</time>
      </trkpt>
      <trkpt lat="44.38037" lon="3.84557">
        <ele>1393</ele>
        <time>2017-03-03T22:45:38Z</time>
      </trkpt>
      <trkpt lat="44.38042" lon="3.8458">
        <ele>1394</ele>
        <time>2017-03-03T22:47:38Z</time>
      </trkpt>
      <trkpt lat="44.38047" lon="3.8459">
        <ele>1395</ele>
        <time>2017-03-03T22:49:38Z</time>
      </trkpt>
      <trkpt lat="44.3805" lon="3.84597">
        <ele>1395</ele>
        <time>2017-03-03T22:51:38Z</time>
      </trkpt>
      <trkpt lat="44.38058" lon="3.84607">
        <ele>1396</ele>
        <time>2017-03-03T22:53:38Z</time>
      </trkpt>
      <trkpt lat="44.38069" lon="3.84621">
        <ele>1397</ele>
        <time>2017-03-03T22:55:38Z</time>
      </trkpt>
      <trkpt lat="44.38084" lon="3.84644">
        <ele>1398</ele>
        <time>2017-03-03T22:57:38Z</time>
      </trkpt>
      <trkpt lat="44.38092" lon="3.84655">
        <ele>1399</ele>
        <time>2017-03-03T22:59:38Z</time>
      </trkpt>
      <trkpt lat="44.381" lon="3.84667">
        <ele>1399</ele>
        <time>2017-03-03T23:01:38Z</time>
      </trkpt>
      <trkpt lat="44.38109" lon="3.84681">
        <ele>1400</ele>
        <time>2017-03-03T23:03:38Z</time>
      </trkpt>
      <trkpt lat="44.38118" lon="3.84696">
        <ele>1401</ele>
        <time>2017-03-03T23:05:38Z</time>
      </trkpt>
      <trkpt lat="44.38128" lon="3.84714">
        <ele>1402</ele>
        <time>2017-03-03T23:07:38Z</time>
      </trkpt>
      <trkpt lat="44.38134" lon="3.84726">
        <ele>1403</ele>
        <time>2017-03-03T23:09:38Z</time>
      </trkpt>
      <trkpt lat="44.38139" lon="3.84738">
        <ele>1404</ele>
        <time>2017-03-03T23:11:38Z</time>
      </trkpt>
      <trkpt lat="44.38143" lon="3.8475">
        <ele>1405</ele>
        <time>2017-03-03T23:13:38Z</time>
      </trkpt>
      <trkpt lat="44.38146" lon="3.84762">
        <ele>1405</ele>
        <time>2017-03-03T23:15:38Z</time>
      </trkpt>
      <trkpt lat="44.38147" lon="3.84773">
        <ele>1406</ele>
        <time>2017-03-03T23:17:38Z</time>
      </trkpt>
      <trkpt lat="44.38148" lon="3.8479">
        <ele>1407</ele>
        <time>2017-03-03T23:19:38Z</time>
      </trkpt>
      <trkpt lat="44.38146" lon="3.84804">
        <ele>1407</ele>
        <time>2017-03-03T23:21:38Z</time>
      </trkpt>
      <trkpt lat="44.38142" lon="3.84816">
        <ele>1407</ele>
        <time>2017-03-03T23:23:38Z</time>
      </trkpt>
      <trkpt lat="44.38131" lon="3.84839">
        <ele>1408</ele>
        <time>2017-03-03T23:25:38Z</time>
      </trkpt>
      <trkpt lat="44.38126" lon="3.84853">
        <ele>1408</ele>
        <time>2017-03-03T23:27:38Z</time>
      </trkpt>
      <trkpt lat="44.38123" lon="3.84865">
        <ele>1408</ele>
        <time>2017-03-03T23:29:38Z</time>
      </trkpt>
      <trkpt lat="44.38122" lon="3.84875">
        <ele>1408</ele>
        <time>2017-03-03T23:31:38Z</time>
      </trkpt>
      <trkpt lat="44.38123" lon="3.849">
        <ele>1409</ele>
        <time>2017-03-03T23:33:38Z</time>
      </trkpt>
      <trkpt lat="44.38126" lon="3.84919">
        <ele>1410</ele>
        <time>2017-03-03T23:35:38Z</time>
      </trkpt>
      <trkpt lat="44.38129" lon="3.84932">
        <ele>1411</ele>
        <time>2017-03-03T23:37:38Z</time>
      </trkpt>
      <trkpt lat="44.38136" lon="3.84954">
        <ele>1412</ele>
        <time>2017-03-03T23:39:38Z</time>
      </trkpt>
      <trkpt lat="44.3815" lon="3.84997">
        <ele>1415</ele>
        <time>2017-03-03T23:41:38Z</time>
      </trkpt>
      <trkpt lat="44.38159" lon="3.85019">
        <ele>1416</ele>
        <time>2017-03-03T23:43:38Z</time>
      </trkpt>
      <trkpt lat="44.38164" lon="3.85033">
        <ele>1416</ele>
        <time>2017-03-03T23:45:38Z</time>
      </trkpt>
      <trkpt lat="44.38168" lon="3.85051">
        <ele>1416</ele>
        <time>2017-03-03T23:47:38Z</time>
      </trkpt>
      <trkpt lat="44.38171" lon="3.85062">
        <ele>1416</ele>
        <time>2017-03-03T23:49:38Z</time>
      </trkpt>
      <trkpt lat="44.38174" lon="3.85069">
        <ele>1416</ele>
        <time>2017-03-03T23:51:38Z</time>
      </trkpt>
      <trkpt lat="44.38183" lon="3.85077">
        <ele>1416</ele>
        <time>2017-03-03T23:53:38Z</time>
      </trkpt>
      <trkpt lat="44.38195" lon="3.85081">
        <ele>1417</ele>
        <time>2017-03-03T23:55:38Z</time>
      </trkpt>
      <trkpt lat="44.38202" lon="3.85084">
        <ele>1418</ele>
        <time>2017-03-03T23:57:38Z</time>
      </trkpt>
      <trkpt lat="44.38221" lon="3.85084">
        <ele>1419</ele>
        <time>2017-03-03T23:59:38Z</time>
      </trkpt>
      <trkpt lat="44.3824" lon="3.85085">
        <ele>1420</ele>
        <time>2017-03-04T00:01:38Z</time>
      </trkpt>
      <trkpt lat="44.38258" lon="3.85086">
        <ele>1421</ele>
        <time>2017-03-04T00:03:38Z</time>
      </trkpt>
      <trkpt lat="44.38268" lon="3.85085">
        <ele>1421</ele>
        <time>2017-03-04T00:05:38Z</time>
      </trkpt>
      <trkpt lat="44.38284" lon="3.85076">
        <ele>1422</ele>
        <time>2017-03-04T00:07:38Z</time>
      </trkpt>
      <trkpt lat="44.38292" lon="3.85073">
        <ele>1423</ele>
        <time>2017-03-04T00:09:38Z</time>
      </trkpt>
      <trkpt lat="44.38302" lon="3.85072">
        <ele>1423</ele>
        <time>2017-03-04T00:11:38Z</time>
      </trkpt>
      <trkpt lat="44.38311" lon="3.85075">
        <ele>1423</ele>
        <time>2017-03-04T00:13:38Z</time>
      </trkpt>
      <trkpt lat="44.38315" lon="3.85077">
        <ele>1422</ele>
        <time>2017-03-04T00:15:38Z</time>
      </trkpt>
      <trkpt lat="44.3832" lon="3.85081">
        <ele>1422</ele>
        <time>2017-03-04T00:17:38Z</time>
      </trkpt>
      <trkpt lat="44.38326" lon="3.85083">
        <ele>1422</ele>
        <time>2017-03-04T00:19:38Z</time>
      </trkpt>
      <trkpt lat="44.38347" lon="3.85082">
        <ele>1423</ele>
        <time>2017-03-04T00:21:38Z</time>
      </trkpt>
      <trkpt lat="44.38355" lon="3.85082">
        <ele>1423</ele>
        <time>2017-03-04T00:23:38Z</time>
      </trkpt>
      <trkpt lat="44.38364" lon="3.85084">
        <ele>1424</ele>
        <time>2017-03-04T00:25:38Z</time>
      </trkpt>
      <trkpt lat="44.38381" lon="3.85093">
        <ele>1425</ele>
        <time>2017-03-04T00:27:38Z</time>
      </trkpt>
      <trkpt lat="44.38425" lon="3.85118">
        <ele>1426</ele>
        <time>2017-03-04T00:29:38Z</time>
      </trkpt>
      <trkpt lat="44.38458" lon="3.85138">
        <ele>1428</ele>
        <time>2017-03-04T00:31:38Z</time>
      </trkpt>
      <trkpt lat="44.38463" lon="3.85141">
        <ele>1428</ele>
        <time>2017-03-04T00:33:38Z</time>
      </trkpt>
      <trkpt lat="44.38467" lon="3.85144">
        <ele>1428</ele>
        <time>2017-03-04T00:35:38Z</time>
      </trkpt>
      <trkpt lat="44.38474" lon="3.85153">
        <ele>1428</ele>
        <time>2017-03-04T00:37:38Z</time>
      </trkpt>
      <trkpt lat="44.38479" lon="3.85163">
        <ele>1429</ele>
        <time>2017-03-04T00:39:38Z</time>
      </trkpt>
      <trkpt lat="44.38481" lon="3.85173">
        <ele>1429</ele>
        <time>2017-03-04T00:41:38Z</time>
      </trkpt>
      <trkpt lat="44.38481" lon="3.85196">
        <ele>1430</ele>
        <time>2017-03-04T00:43:38Z</time>
      </trkpt>
      <trkpt lat="44.38479" lon="3.85217">
        <ele>1431</ele>
        <time>2017-03-04T00:45:38Z</time>
      </trkpt>
      <trkpt lat="44.38479" lon="3.85218">
        <ele>1431</ele>
        <time>2017-03-04T00:47:38Z</time>
      </trkpt>
      <trkpt lat="44.38479" lon="3.8522">
        <ele>1431</ele>
        <time>2017-03-04T00:49:38Z</time>
      </trkpt>
      <trkpt lat="44.38479" lon="3.85221">
        <ele>1431</ele>
        <time>2017-03-04T00:51:38Z</time>
      </trkpt>
      <trkpt lat="44.38476" lon="3.85226">
        <ele>1431</ele>
        <time>2017-03-04T00:53:38Z</time>
      </trkpt>
      <trkpt lat="44.3847" lon="3.85233">
        <ele>1431</ele>
        <time>2017-03-04T00:55:38Z</time>
      </trkpt>
      <trkpt lat="44.38461" lon="3.8524">
        <ele>1431</ele>
        <time>2017-03-04T00:57:38Z</time>
      </trkpt>
      <trkpt lat="44.38447" lon="3.85245">
        <ele>1430</ele>
        <time>2017-03-04T00:59:38Z</time>
      </trkpt>
      <trkpt lat="44.38436" lon="3.85249">
        <ele>1430</ele>
        <time>2017-03-04T01:01:38Z</time>
      </trkpt>
      <trkpt lat="44.38424" lon="3.85256">
        <ele>1430</ele>
        <time>2017-03-04T01:03:38Z</time>
      </trkpt>
      <trkpt lat="44.3841" lon="3.85264">
        <ele>1431</ele>
        <time>2017-03-04T01:05:38Z</time>
      </trkpt>
      <trkpt lat="44.38398" lon="3.85273">
        <ele>1432</ele>
        <time>2017-03-04T01:07:38Z</time>
      </trkpt>
      <trkpt lat="44.38386" lon="3.85285">
        <ele>1433</ele>
        <time>2017-03-04T01:09:38Z</time>
      </trkpt>
      <trkpt lat="44.38376" lon="3.85297">
        <ele>1435</ele>
        <time>2017-03-04T01:11:38Z</time>
      </trkpt>
      <trkpt lat="44.38367" lon="3.85304">
        <ele>1436</ele>
        <time>2017-03-04T01:13:38Z</time>
      </trkpt>
      <trkpt lat="44.38351" lon="3.85315">
        <ele>1437</ele>
        <time>2017-03-04T01:15:38Z</time>
      </trkpt>
      <trkpt lat="44.3834" lon="3.85325">
        <ele>1438</ele>
        <time>2017-03-04T01:17:38Z</time>
      </trkpt>
      <trkpt lat="44.38325" lon="3.85342">
        <ele>1439</ele>
        <time>2017-03-04T01:19:38Z</time>
      </trkpt>
      <trkpt lat="44.38316" lon="3.85355">
        <ele>1439</ele>
        <time>2017-03-04T01:21:38Z</time>
      </trkpt>
      <trkpt lat="44.38306" lon="3.85368">
        <ele>1439</ele>
        <time>2017-03-04T01:23:38Z</time>
      </trkpt>
      <trkpt lat="44.38301" lon="3.8538">
        <ele>1439</ele>
        <time>2017-03-04T01:25:38Z</time>
      </trkpt>
      <trkpt lat="44.38298" lon="3.85388">
        <ele>1439</ele>
        <time>2017-03-04T01:27:38Z</time>
      </trkpt>
      <trkpt lat="44.38297" lon="3.85398">
        <ele>1439</ele>
        <time>2017-03-04T01:29:38Z</time>
      </trkpt>
      <trkpt lat="44.38299" lon="3.85425">
        <ele>1438</ele>
        <time>2017-03-04T01:31:38Z</time>
      </trkpt>
      <trkpt lat="44.38303" lon="3.85458">
        <ele>1437</ele>
        <time>2017-03-04T01:33:38Z</time>
      </trkpt>
      <trkpt lat="44.38308" lon="3.85476">
        <ele>1437</ele>
        <time>2017-03-04T01:35:38Z</time>
      </trkpt>
      <trkpt lat="44.38312" lon="3.8549">
        <ele>1436</ele>
        <time>2017-03-04T01:37:38Z</time>
      </trkpt>
      <trkpt lat="44.38316" lon="3.85499">
        <ele>1436</ele>
        <time>2017-03-04T01:39:38Z</time>
      </trkpt>
      <trkpt lat="44.38323" lon="3.85535">
        <ele>1435</ele>
        <time>2017-03-04T01:41:38Z</time>
      </trkpt>
      <trkpt lat="44.38329" lon="3.85555">
        <ele>1434</ele>
        <time>2017-03-04T01:43:38Z</time>
      </trkpt>
      <trkpt lat="44.38336" lon="3.85573">
        <ele>1434</ele>
        <time>2017-03-04T01:45:38Z</time>
      </trkpt>
      <trkpt lat="44.38344" lon="3.85589">
        <ele>1434</ele>
        <time>2017-03-04T01:47:38Z</time>
      </trkpt>
      <trkpt lat="44.38351" lon="3.85611">
        <ele>1435</ele>
        <time>2017-03-04T01:49:38Z</time>
      </trkpt>
      <trkpt lat="44.38357" lon="3.85638">
        <ele>1434</ele>
        <time>2017-03-04T01:51:38Z</time>
      </trkpt>
      <trkpt lat="44.38361" lon="3.85665">
        <ele>1434</ele>
        <time>2017-03-04T01:53:38Z</time>
      </trkpt>
      <trkpt lat="44.38362" lon="3.85675">
        <ele>1434</ele>
        <time>2017-03-04T01:55:38Z</time>
      </trkpt>
      <trkpt lat="44.38364" lon="3.85684">
        <ele>1434</ele>
        <time>2017-03-04T01:57:38Z</time>
      </trkpt>
      <trkpt lat="44.38365" lon="3.85695">
        <ele>1434</ele>
        <time>2017-03-04T01:59:38Z</time>
      </trkpt>
      <trkpt lat="44.38366" lon="3.85709">
        <ele>1434</ele>
        <time>2017-03-04T02:01:38Z</time>
      </trkpt>
      <trkpt lat="44.38366" lon="3.85727">
        <ele>1433</ele>
        <time>2017-03-04T02:03:38Z</time>
      </trkpt>
      <trkpt lat="44.38364" lon="3.85836">
        <ele>1433</ele>
        <time>2017-03-04T02:05:38Z</time>
      </trkpt>
      <trkpt lat="44.38362" lon="3.85953">
        <ele>1432</ele>
        <time>2017-03-04T02:07:38Z</time>
      </trkpt>
      <trkpt lat="44.38362" lon="3.85968">
        <ele>1432</ele>
        <time>2017-03-04T02:09:38Z</time>
      </trkpt>
      <trkpt lat="44.38361" lon="3.86033">
        <ele>1433</ele>
        <time>2017-03-04T02:11:38Z</time>
      </trkpt>
      <trkpt lat="44.3836" lon="3.86043">
        <ele>1433</ele>
        <time>2017-03-04T02:13:38Z</time>
      </trkpt>
      <trkpt lat="44.3836" lon="3.86052">
        <ele>1433</ele>
        <time>2017-03-04T02:15:38Z</time>
      </trkpt>
      <trkpt lat="44.3836" lon="3.8606">
        <ele>1433</ele>
        <time>2017-03-04T02:17:38Z</time>
      </trkpt>
      <trkpt lat="44.38358" lon="3.86085">
        <ele>1433</ele>
        <time>2017-03-04T02:19:38Z</time>
      </trkpt>
      <trkpt lat="44.38356" lon="3.86113">
        <ele>1434</ele>
        <time>2017-03-04T02:21:38Z</time>
      </trkpt>
      <trkpt lat="44.38354" lon="3.86124">
        <ele>1434</ele>
        <time>2017-03-04T02:23:38Z</time>
      </trkpt>
      <trkpt lat="44.38351" lon="3.86144">
        <ele>1435</ele>
        <time>2017-03-04T02:25:38Z</time>
      </trkpt>
      <trkpt lat="44.38349" lon="3.86167">
        <ele>1435</ele>
        <time>2017-03-04T02:27:38Z</time>
      </trkpt>
      <trkpt lat="44.38347" lon="3.86184">
        <ele>1435</ele>
        <time>2017-03-04T02:29:38Z</time>
      </trkpt>
      <trkpt lat="44.38344" lon="3.86213">
        <ele>1436</ele>
        <time>2017-03-04T02:31:38Z</time>
      </trkpt>
      <trkpt lat="44.38343" lon="3.86224">
        <ele>1436</ele>
        <time>2017-03-04T02:33:38Z</time>
      </trkpt>
      <trkpt lat="44.38344" lon="3.86234">
        <ele>1436</ele>
        <time>2017-03-04T02:35:38Z</time>
      </trkpt>
      <trkpt lat="44.38345" lon="3.86249">
        <ele>1436</ele>
        <time>2017-03-04T02:37:38Z</time>
      </trkpt>
      <trkpt lat="44.38351" lon="3.8627">
        <ele>1436</ele>
        <time>2017-03-04T02:39:38Z</time>
      </trkpt>
      <trkpt lat="44.38361" lon="3.863">
        <ele>1436</ele>
        <time>2017-03-04T02:41:38Z</time>
      </trkpt>
      <trkpt lat="44.38371" lon="3.86324">
        <ele>1436</ele>
        <time>2017-03-04T02:43:38Z</time>
      </trkpt>
      <trkpt lat="44.38378" lon="3.86345">
        <ele>1436</ele>
        <time>2017-03-04T02:45:38Z</time>
      </trkpt>
      <trkpt lat="44.38383" lon="3.86365">
        <ele>1436</ele>
        <time>2017-03-04T02:47:38Z</time>
      </trkpt>
      <trkpt lat="44.38387" lon="3.86382">
        <ele>1436</ele>
        <time>2017-03-04T02:49:38Z</time>
      </trkpt>
      <trkpt lat="44.38395" lon="3.86402">
        <ele>1436</ele>
        <time>2017-03-04T02:51:38Z</time>
      </trkpt>
      <trkpt lat="44.38409" lon="3.86428">
        <ele>1436</ele>
        <time>2017-03-04T02:53:38Z</time>
      </trkpt>
      <trkpt lat="44.38416" lon="3.86443">
        <ele>1436</ele>
        <time>2017-03-04T02:55:38Z</time>
      </trkpt>
      <trkpt lat="44.38419" lon="3.86455">
        <ele>1435</ele>
        <time>2017-03-04T02:57:38Z</time>
      </trkpt>
      <trkpt lat="44.38422" lon="3.86475">
        <ele>1435</ele>
        <time>2017-03-04T02:59:38Z</time>
      </trkpt>
      <trkpt lat="44.38423" lon="3.86496">
        <ele>1434</ele>
        <time>2017-03-04T03:01:38Z</time>
      </trkpt>
      <trkpt lat="44.38422" lon="3.86508">
        <ele>1434</ele>
        <time>2017-03-04T03:03:38Z</time>
      </trkpt>
      <trkpt lat="44.38419" lon="3.86516">
        <ele>1433</ele>
        <time>2017-03-04T03:05:38Z</time>
      </trkpt>
      <trkpt lat="44.38412" lon="3.86529">
        <ele>1432</ele>
        <time>2017-03-04T03:07:38Z</time>
      </trkpt>
      <trkpt lat="44.38409" lon="3.86539">
        <ele>1431</ele>
        <time>2017-03-04T03:09:38Z</time>
      </trkpt>
      <trkpt lat="44.38408" lon="3.86548">
        <ele>1431</ele>
        <time>2017-03-04T03:11:38Z</time>
      </trkpt>
      <trkpt lat="44.38408" lon="3.86559">
        <ele>1431</ele>
        <time>2017-03-04T03:13:38Z</time>
      </trkpt>
      <trkpt lat="44.38411" lon="3.8657">
        <ele>1431</ele>
        <time>2017-03-04T03:15:38Z</time>
      </trkpt>
      <trkpt lat="44.38421" lon="3.86591">
        <ele>1431</ele>
        <time>2017-03-04T03:17:38Z</time>
      </trkpt>
      <trkpt lat="44.38433" lon="3.86615">
        <ele>1432</ele>
        <time>2017-03-04T03:19:38Z</time>
      </trkpt>
      <trkpt lat="44.38442" lon="3.86633">
        <ele>1432</ele>
        <time>2017-03-04T03:21:38Z</time>
      </trkpt>
      <trkpt lat="44.3845" lon="3.86645">
        <ele>1432</ele>
        <time>2017-03-04T03:23:38Z</time>
      </trkpt>
      <trkpt lat="44.3849" lon="3.86685">
        <ele>1433</ele>
        <time>2017-03-04T03:25:38Z</time>
      </trkpt>
      <trkpt lat="44.38506" lon="3.86702">
        <ele>1433</ele>
        <time>2017-03-04T03:27:38Z</time>
      </trkpt>
      <trkpt lat="44.38521" lon="3.86719">
        <ele>1432</ele>
        <time>2017-03-04T03:29:38Z</time>
      </trkpt>
      <trkpt lat="44.38544" lon="3.86746">
        <ele>1432</ele>
        <time>2017-03-04T03:31:38Z</time>
      </trkpt>
      <trkpt lat="44.38548" lon="3.86752">
        <ele>1432</ele>
        <time>2017-03-04T03:33:38Z</time>
      </trkpt>
      <trkpt lat="44.38548" lon="3.86752">
        <ele>1432</ele>
        <time>2017-03-04T03:35:38Z</time>
      </trkpt>
      <trkpt lat="44.38554" lon="3.86782">
        <ele>1432</ele>
        <time>2017-03-04T03:37:38Z</time>
      </trkpt>
      <trkpt lat="44.38562" lon="3.86808">
        <ele>1432</ele>
        <time>2017-03-04T03:39:38Z</time>
      </trkpt>
      <trkpt lat="44.38565" lon="3.86822">
        <ele>1432</ele>
        <time>2017-03-04T03:41:38Z</time>
      </trkpt>
      <trkpt lat="44.38568" lon="3.86839">
        <ele>1433</ele>
        <time>2017-03-04T03:43:38Z</time>
      </trkpt>
      <trkpt lat="44.38569" lon="3.86843">
        <ele>1433</ele>
        <time>2017-03-04T03:45:38Z</time>
      </trkpt>
      <trkpt lat="44.38574" lon="3.86856">
        <ele>1434</ele>
        <time>2017-03-04T03:47:38Z</time>
      </trkpt>
      <trkpt lat="44.38571" lon="3.86866">
        <ele>1434</ele>
        <time>2017-03-04T03:49:38Z</time>
      </trkpt>
      <trkpt lat="44.38571" lon="3.86875">
        <ele>1434</ele>
        <time>2017-03-04T03:51:38Z</time>
      </trkpt>
      <trkpt lat="44.38571" lon="3.86894">
        <ele>1435</ele>
        <time>2017-03-04T03:53:38Z</time>
      </trkpt>
      <trkpt lat="44.38573" lon="3.86917">
        <ele>1436</ele>
        <time>2017-03-04T03:55:38Z</time>
      </trkpt>
      <trkpt lat="44.38575" lon="3.86936">
        <ele>1436</ele>
        <time>2017-03-04T03:57:38Z</time>
      </trkpt>
      <trkpt lat="44.38576" lon="3.86956">
        <ele>1436</ele>
        <time>2017-03-04T03:59:38Z</time>
      </trkpt>
      <trkpt lat="44.38577" lon="3.86975">
        <ele>1436</ele>
        <time>2017-03-04T04:01:38Z</time>
      </trkpt>
      <trkpt lat="44.38577" lon="3.86982">
        <ele>1436</ele>
        <time>2017-03-04T04:03:38Z</time>
      </trkpt>
      <trkpt lat="44.38578" lon="3.86992">
        <ele>1437</ele>
        <time>2017-03-04T04:05:38Z</time>
      </trkpt>
      <trkpt lat="44.38578" lon="3.86998">
        <ele>1437</ele>
        <time>2017-03-04T04:07:38Z</time>
      </trkpt>
      <trkpt lat="44.38579" lon="3.87003">
        <ele>1436</ele>
        <time>2017-03-04T04:09:38Z</time>
      </trkpt>
      <trkpt lat="44.38582" lon="3.87017">
        <ele>1436</ele>
        <time>2017-03-04T04:11:38Z</time>
      </trkpt>
      <trkpt lat="44.38584" lon="3.87022">
        <ele>1436</ele>
        <time>2017-03-04T04:13:38Z</time>
      </trkpt>
      <trkpt lat="44.38586" lon="3.87028">
        <ele>1436</ele>
        <time>2017-03-04T04:15:38Z</time>
      </trkpt>
      <trkpt lat="44.38587" lon="3.87035">
        <ele>1436</ele>
        <time>2017-03-04T04:17:38Z</time>
      </trkpt>
      <trkpt lat="44.38588" lon="3.87041">
        <ele>1435</ele>
        <time>2017-03-04T04:19:38Z</time>
      </trkpt>
      <trkpt lat="44.3859" lon="3.87047">
        <ele>1435</ele>
        <time>2017-03-04T04:21:38Z</time>
      </trkpt>
      <trkpt lat="44.3859" lon="3.87053">
        <ele>1435</ele>
        <time>2017-03-04T04:23:38Z</time>
      </trkpt>
      <trkpt lat="44.38591" lon="3.87059">
        <ele>1435</ele>
        <time>2017-03-04T04:25:38Z</time>
      </trkpt>
      <trkpt lat="44.38592" lon="3.87065">
        <ele>1435</ele>
        <time>2017-03-04T04:27:38Z</time>
      </trkpt>
      <trkpt lat="44.38592" lon="3.8707">
        <ele>1434</ele>
        <time>2017-03-04T04:29:38Z</time>
      </trkpt>
      <trkpt lat="44.38593" lon="3.87076">
        <ele>1434</ele>
        <time>2017-03-04T04:31:38Z</time>
      </trkpt>
      <trkpt lat="44.38593" lon="3.87083">
        <ele>1434</ele>
        <time>2017-03-04T04:33:38Z</time>
      </trkpt>
      <trkpt lat="44.38593" lon="3.87089">
        <ele>1434</ele>
        <time>2017-03-04T04:35:38Z</time>
      </trkpt>
      <trkpt lat="44.38593" lon="3.87094">
        <ele>1434</ele>
        <time>2017-03-04T04:37:38Z</time>
      </trkpt>
      <trkpt lat="44.38594" lon="3.87099">
        <ele>1433</ele>
        <time>2017-03-04T04:39:38Z</time>
      </trkpt>
      <trkpt lat="44.38594" lon="3.87103">
        <ele>1433</ele>
        <time>2017-03-04T04:41:38Z</time>
      </trkpt>
      <trkpt lat="44.38594" lon="3.87104">
        <ele>1433</ele>
        <time>2017-03-04T04:43:38Z</time>
      </trkpt>
      <trkpt lat="44.38595" lon="3.87107">
        <ele>1433</ele>
        <time>2017-03-04T04:45:38Z</time>
      </trkpt>
      <trkpt lat="44.38596" lon="3.87111">
        <ele>1433</ele>
        <time>2017-03-04T04:47:38Z</time>
      </trkpt>
      <trkpt lat="44.38597" lon="3.87115">
        <ele>1433</ele>
        <time>2017-03-04T04:49:38Z</time>
      </trkpt>
      <trkpt lat="44.38599" lon="3.8712">
        <ele>1433</ele>
        <time>2017-03-04T04:51:38Z</time>
      </trkpt>
      <trkpt lat="44.38599" lon="3.8712">
        <ele>1433</ele>
        <time>2017-03-04T04:53:38Z</time>
      </trkpt>
      <trkpt lat="44.386" lon="3.87123">
        <ele>1433</ele>
        <time>2017-03-04T04:55:38Z</time>
      </trkpt>
      <trkpt lat="44.38602" lon="3.87126">
        <ele>1433</ele>
        <time>2017-03-04T04:57:38Z</time>
      </trkpt>
      <trkpt lat="44.38608" lon="3.87135">
        <ele>1433</ele>
        <time>2017-03-04T04:59:38Z</time>
      </trkpt>
      <trkpt lat="44.38612" lon="3.87138">
        <ele>1434</ele>
        <time>2017-03-04T05:01:38Z</time>
      </trkpt>
      <trkpt lat="44.38616" lon="3.8714">
        <ele>1434</ele>
        <time>2017-03-04T05:03:38Z</time>
      </trkpt>
      <trkpt lat="44.3862" lon="3.87143">
        <ele>1434</ele>
        <time>2017-03-04T05:05:38Z</time>
      </trkpt>
      <trkpt lat="44.38624" lon="3.87145">
        <ele>1434</ele>
        <time>2017-03-04T05:07:38Z</time>
      </trkpt>
      <trkpt lat="44.38627" lon="3.87148">
        <ele>1434</ele>
        <time>2017-03-04T05:09:38Z</time>
      </trkpt>
      <trkpt lat="44.3864" lon="3.87162">
        <ele>1435</ele>
        <time>2017-03-04T05:11:38Z</time>
      </trkpt>
      <trkpt lat="44.38643" lon="3.87166">
        <ele>1435</ele>
        <time>2017-03-04T05:13:38Z</time>
      </trkpt>
      <trkpt lat="44.38645" lon="3.8717">
        <ele>1435</ele>
        <time>2017-03-04T05:15:38Z</time>
      </trkpt>
      <trkpt lat="44.38646" lon="3.87174">
        <ele>1435</ele>
        <time>2017-03-04T05:17:38Z</time>
      </trkpt>
      <trkpt lat="44.38647" lon="3.87179">
        <ele>1435</ele>
        <time>2017-03-04T05:19:38Z</time>
      </trkpt>
      <trkpt lat="44.38648" lon="3.87184">
        <ele>1434</ele>
        <time>2017-03-04T05:21:38Z</time>
      </trkpt>
      <trkpt lat="44.38648" lon="3.87191">
        <ele>1434</ele>
        <time>2017-03-04T05:23:38Z</time>
      </trkpt>
      <trkpt lat="44.38646" lon="3.87211">
        <ele>1433</ele>
        <time>2017-03-04T05:25:38Z</time>
      </trkpt>
      <trkpt lat="44.38645" lon="3.87227">
        <ele>1432</ele>
        <time>2017-03-04T05:27:38Z</time>
      </trkpt>
      <trkpt lat="44.38644" lon="3.87233">
        <ele>1432</ele>
        <time>2017-03-04T05:29:38Z</time>
      </trkpt>
      <trkpt lat="44.38644" lon="3.87234">
        <ele>1431</ele>
        <time>2017-03-04T05:31:38Z</time>
      </trkpt>
      <trkpt lat="44.38644" lon="3.8724">
        <ele>1431</ele>
        <time>2017-03-04T05:33:38Z</time>
      </trkpt>
      <trkpt lat="44.38644" lon="3.87249">
        <ele>1431</ele>
        <time>2017-03-04T05:35:38Z</time>
      </trkpt>
      <trkpt lat="44.38645" lon="3.87258">
        <ele>1431</ele>
        <time>2017-03-04T05:37:38Z</time>
      </trkpt>
      <trkpt lat="44.38644" lon="3.87267">
        <ele>1431</ele>
        <time>2017-03-04T05:39:38Z</time>
      </trkpt>
      <trkpt lat="44.38643" lon="3.87281">
        <ele>1430</ele>
        <time>2017-03-04T05:41:38Z</time>
      </trkpt>
      <trkpt lat="44.38635" lon="3.87319">
        <ele>1429</ele>
        <time>2017-03-04T05:43:38Z</time>
      </trkpt>
      <trkpt lat="44.38625" lon="3.87362">
        <ele>1429</ele>
        <time>2017-03-04T05:45:38Z</time>
      </trkpt>
      <trkpt lat="44.38621" lon="3.87373">
        <ele>1429</ele>
        <time>2017-03-04T05:47:38Z</time>
      </trkpt>
      <trkpt lat="44.38618" lon="3.87385">
        <ele>1429</ele>
        <time>2017-03-04T05:49:38Z</time>
      </trkpt>
      <trkpt lat="44.38615" lon="3.87394">
        <ele>1429</ele>
        <time>2017-03-04T05:51:38Z</time>
      </trkpt>
      <trkpt lat="44.38614" lon="3.87406">
        <ele>1430</ele>
        <time>2017-03-04T05:53:38Z</time>
      </trkpt>
      <trkpt lat="44.38612" lon="3.87424">
        <ele>1430</ele>
        <time>2017-03-04T05:55:38Z</time>
      </trkpt>
      <trkpt lat="44.3861" lon="3.87434">
        <ele>1431</ele>
        <time>2017-03-04T05:57:38Z</time>
      </trkpt>
      <trkpt lat="44.38601" lon="3.87462">
        <ele>1431</ele>
        <time>2017-03-04T05:59:38Z</time>
      </trkpt>
      <trkpt lat="44.38595" lon="3.8748">
        <ele>1431</ele>
        <time>2017-03-04T06:01:38Z</time>
      </trkpt>
      <trkpt lat="44.38594" lon="3.87486">
        <ele>1431</ele>
        <time>2017-03-04T06:03:38Z</time>
      </trkpt>
      <trkpt lat="44.38594" lon="3.87486">
        <ele>1431</ele>
        <time>2017-03-04T06:05:38Z</time>
      </trkpt>
      <trkpt lat="44.386" lon="3.87485">
        <ele>1432</ele>
        <time>2017-03-04T06:07:38Z</time>
      </trkpt>
      <trkpt lat="44.38635" lon="3.87472">
        <ele>1434</ele>
        <time>2017-03-04T06:09:38Z</time>
      </trkpt>
      <trkpt lat="44.38638" lon="3.8747">
        <ele>1435</ele>
        <time>2017-03-04T06:11:38Z</time>
      </trkpt>
      <trkpt lat="44.38641" lon="3.87469">
        <ele>1435</ele>
        <time>2017-03-04T06:13:38Z</time>
      </trkpt>
      <trkpt lat="44.38644" lon="3.87467">
        <ele>1435</ele>
        <time>2017-03-04T06:15:38Z</time>
      </trkpt>
      <trkpt lat="44.38647" lon="3.87464">
        <ele>1435</ele>
        <time>2017-03-04T06:17:38Z</time>
      </trkpt>
      <trkpt lat="44.38649" lon="3.87461">
        <ele>1435</ele>
        <time>2017-03-04T06:19:38Z</time>
      </trkpt>
      <trkpt lat="44.38651" lon="3.87457">
        <ele>1435</ele>
        <time>2017-03-04T06:21:38Z</time>
      </trkpt>
      <trkpt lat="44.38655" lon="3.87443">
        <ele>1435</ele>
        <time>2017-03-04T06:23:38Z</time>
      </trkpt>
      <trkpt lat="44.38662" lon="3.87429">
        <ele>1436</ele>
        <time>2017-03-04T06:25:38Z</time>
      </trkpt>
      <trkpt lat="44.38667" lon="3.87417">
        <ele>1436</ele>
        <time>2017-03-04T06:27:38Z</time>
      </trkpt>
      <trkpt lat="44.38672" lon="3.87408">
        <ele>1437</ele>
        <time>2017-03-04T06:29:38Z</time>
      </trkpt>
      <trkpt lat="44.38686" lon="3.87387">
        <ele>1440</ele>
        <time>2017-03-04T06:31:38Z</time>
      </trkpt>
      <trkpt lat="44.38703" lon="3.87362">
        <ele>1442</ele>
        <time>2017-03-04T06:33:38Z</time>
      </trkpt>
      <trkpt lat="44.3871" lon="3.87352">
        <ele>1443</ele>
        <time>2017-03-04T06:35:38Z</time>
      </trkpt>
      <trkpt lat="44.38716" lon="3.87344">
        <ele>1444</ele>
        <time>2017-03-04T06:37:38Z</time>
      </trkpt>
      <trkpt lat="44.38727" lon="3.87327">
        <ele>1446</ele>
        <time>2017-03-04T06:39:38Z</time>
      </trkpt>
      <trkpt lat="44.3874" lon="3.87313">
        <ele>1448</ele>
        <time>2017-03-04T06:41:38Z</time>
      </trkpt>
      <trkpt lat="44.3875" lon="3.87305">
        <ele>1449</ele>
        <time>2017-03-04T06:43:38Z</time>
      </trkpt>
      <trkpt lat="44.38759" lon="3.87295">
        <ele>1450</ele>
        <time>2017-03-04T06:45:38Z</time>
      </trkpt>
      <trkpt lat="44.38772" lon="3.87287">
        <ele>1451</ele>
        <time>2017-03-04T06:47:38Z</time>
      </trkpt>
      <trkpt lat="44.38795" lon="3.87273">
        <ele>1453</ele>
        <time>2017-03-04T06:49:38Z</time>
      </trkpt>
      <trkpt lat="44.38817" lon="3.87261">
        <ele>1456</ele>
        <time>2017-03-04T06:51:38Z</time>
      </trkpt>
      <trkpt lat="44.38826" lon="3.87257">
        <ele>1457</ele>
        <time>2017-03-04T06:53:38Z</time>
      </trkpt>
      <trkpt lat="44.38852" lon="3.8725">
        <ele>1459</ele>
        <time>2017-03-04T06:55:38Z</time>
      </trkpt>
      <trkpt lat="44.38881" lon="3.87241">
        <ele>1462</ele>
        <time>2017-03-04T06:57:38Z</time>
      </trkpt>
      <trkpt lat="44.389" lon="3.87236">
        <ele>1464</ele>
        <time>2017-03-04T06:59:38Z</time>
      </trkpt>
      <trkpt lat="44.3892" lon="3.8723">
        <ele>1466</ele>
        <time>2017-03-04T07:01:38Z</time>
      </trkpt>
      <trkpt lat="44.38943" lon="3.87224">
        <ele>1469</ele>
        <time>2017-03-04T07:03:38Z</time>
      </trkpt>
      <trkpt lat="44.3896" lon="3.87221">
        <ele>1471</ele>
        <time>2017-03-04T07:05:38Z</time>
      </trkpt>
      <trkpt lat="44.38981" lon="3.87218">
        <ele>1474</ele>
        <time>2017-03-04T07:07:38Z</time>
      </trkpt>
      <trkpt lat="44.38988" lon="3.87216">
        <ele>1474</ele>
        <time>2017-03-04T07:09:38Z</time>
      </trkpt>
      <trkpt lat="44.38993" lon="3.87214">
        <ele>1475</ele>
        <time>2017-03-04T07:11:38Z</time>
      </trkpt>
      <trkpt lat="44.38997" lon="3.87212">
        <ele>1475</ele>
        <time>2017-03-04T07:13:38Z</time>
      </trkpt>
      <trkpt lat="44.39001" lon="3.8721">
        <ele>1475</ele>
        <time>2017-03-04T07:15:38Z</time>
      </trkpt>
      <trkpt lat="44.39006" lon="3.87206">
        <ele>1476</ele>
        <time>2017-03-04T07:17:38Z</time>
      </trkpt>
      <trkpt lat="44.3901" lon="3.87203">
        <ele>1476</ele>
        <time>2017-03-04T07:19:38Z</time>
      </trkpt>
      <trkpt lat="44.39015" lon="3.87198">
        <ele>1477</ele>
        <time>2017-03-04T07:21:38Z</time>
      </trkpt>
      <trkpt lat="44.39028" lon="3.87186">
        <ele>1478</ele>
        <time>2017-03-04T07:23:38Z</time>
      </trkpt>
      <trkpt lat="44.39068" lon="3.87144">
        <ele>1481</ele>
        <time>2017-03-04T07:25:38Z</time>
      </trkpt>
      <trkpt lat="44.39096" lon="3.87116">
        <ele>1484</ele>
        <time>2017-03-04T07:27:38Z</time>
      </trkpt>
      <trkpt lat="44.39123" lon="3.8709">
        <ele>1488</ele>
        <time>2017-03-04T07:29:38Z</time>
      </trkpt>
      <trkpt lat="44.39133" lon="3.87076">
        <ele>1489</ele>
        <time>2017-03-04T07:31:38Z</time>
      </trkpt>
      <trkpt lat="44.39143" lon="3.8706">
        <ele>1491</ele>
        <time>2017-03-04T07:33:38Z</time>
      </trkpt>
      <trkpt lat="44.39147" lon="3.87051">
        <ele>1492</ele>
        <time>2017-03-04T07:35:38Z</time>
      </trkpt>
      <trkpt lat="44.39149" lon="3.87047">
        <ele>1492</ele>
        <time>2017-03-04T07:37:38Z</time>
      </trkpt>
      <trkpt lat="44.3915" lon="3.87042">
        <ele>1492</ele>
        <time>2017-03-04T07:39:38Z</time>
      </trkpt>
      <trkpt lat="44.39151" lon="3.87037">
        <ele>1492</ele>
        <time>2017-03-04T07:41:38Z</time>
      </trkpt>
      <trkpt lat="44.39152" lon="3.87033">
        <ele>1492</ele>
        <time>2017-03-04T07:43:38Z</time>
      </trkpt>
      <trkpt lat="44.39152" lon="3.87027">
        <ele>1492</ele>
        <time>2017-03-04T07:45:38Z</time>
      </trkpt>
      <trkpt lat="44.39152" lon="3.87022">
        <ele>1492</ele>
        <time>2017-03-04T07:47:38Z</time>
      </trkpt>
      <trkpt lat="44.39152" lon="3.87017">
        <ele>1492</ele>
        <time>2017-03-04T07:49:38Z</time>
      </trkpt>
      <trkpt lat="44.39152" lon="3.87012">
        <ele>1492</ele>
        <time>2017-03-04T07:51:38Z</time>
      </trkpt>
      <trkpt lat="44.39152" lon="3.87006">
        <ele>1491</ele>
        <time>2017-03-04T07:53:38Z</time>
      </trkpt>
      <trkpt lat="44.39153" lon="3.87">
        <ele>1491</ele>
        <time>2017-03-04T07:55:38Z</time>
      </trkpt>
      <trkpt lat="44.39154" lon="3.86996">
        <ele>1492</ele>
        <time>2017-03-04T07:57:38Z</time>
      </trkpt>
      <trkpt lat="44.39155" lon="3.86989">
        <ele>1492</ele>
        <time>2017-03-04T07:59:38Z</time>
      </trkpt>
      <trkpt lat="44.39161" lon="3.8697">
        <ele>1493</ele>
        <time>2017-03-04T08:01:38Z</time>
      </trkpt>
      <trkpt lat="44.39169" lon="3.86946">
        <ele>1495</ele>
        <time>2017-03-04T08:03:38Z</time>
      </trkpt>
      <trkpt lat="44.39175" lon="3.86918">
        <ele>1496</ele>
        <time>2017-03-04T08:05:38Z</time>
      </trkpt>
      <trkpt lat="44.39177" lon="3.86902">
        <ele>1497</ele>
        <time>2017-03-04T08:07:38Z</time>
      </trkpt>
      <trkpt lat="44.39177" lon="3.86895">
        <ele>1497</ele>
        <time>2017-03-04T08:09:38Z</time>
      </trkpt>
      <trkpt lat="44.39177" lon="3.86895">
        <ele>1497</ele>
        <time>2017-03-04T08:11:38Z</time>
      </trkpt>
      <trkpt lat="44.39192" lon="3.86876">
        <ele>1500</ele>
        <time>2017-03-04T08:13:38Z</time>
      </trkpt>
      <trkpt lat="44.39194" lon="3.86875">
        <ele>1500</ele>
        <time>2017-03-04T08:15:38Z</time>
      </trkpt>
      <trkpt lat="44.39196" lon="3.86875">
        <ele>1500</ele>
        <time>2017-03-04T08:17:38Z</time>
      </trkpt>
      <trkpt lat="44.39199" lon="3.86877">
        <ele>1501</ele>
        <time>2017-03-04T08:19:38Z</time>
      </trkpt>
      <trkpt lat="44.39212" lon="3.86893">
        <ele>1503</ele>
        <time>2017-03-04T08:21:38Z</time>
      </trkpt>
      <trkpt lat="44.3922" lon="3.869">
        <ele>1504</ele>
        <time>2017-03-04T08:23:38Z</time>
      </trkpt>
      <trkpt lat="44.39233" lon="3.86911">
        <ele>1507</ele>
        <time>2017-03-04T08:25:38Z</time>
      </trkpt>
      <trkpt lat="44.39252" lon="3.86923">
        <ele>1511</ele>
        <time>2017-03-04T08:27:38Z</time>
      </trkpt>
      <trkpt lat="44.39274" lon="3.86937">
        <ele>1515</ele>
        <time>2017-03-04T08:29:38Z</time>
      </trkpt>
      <trkpt lat="44.39287" lon="3.86945">
        <ele>1518</ele>
        <time>2017-03-04T08:31:38Z</time>
      </trkpt>
      <trkpt lat="44.39287" lon="3.86945">
        <ele>1518</ele>
        <time>2017-03-04T08:33:38Z</time>
      </trkpt>
      <trkpt lat="44.39291" lon="3.86938">
        <ele>1518</ele>
        <time>2017-03-04T08:35:38Z</time>
      </trkpt>
      <trkpt lat="44.39304" lon="3.86921">
        <ele>1519</ele>
        <time>2017-03-04T08:37:38Z</time>
      </trkpt>
      <trkpt lat="44.39313" lon="3.86911">
        <ele>1520</ele>
        <time>2017-03-04T08:39:38Z</time>
      </trkpt>
      <trkpt lat="44.39318" lon="3.86905">
        <ele>1521</ele>
        <time>2017-03-04T08:41:38Z</time>
      </trkpt>
      <trkpt lat="44.39326" lon="3.86901">
        <ele>1522</ele>
        <time>2017-03-04T08:43:38Z</time>
      </trkpt>
      <trkpt lat="44.39339" lon="3.86896">
        <ele>1524</ele>
        <time>2017-03-04T08:45:38Z</time>
      </trkpt>
      <trkpt lat="44.39348" lon="3.86894">
        <ele>1525</ele>
        <time>2017-03-04T08:47:38Z</time>
      </trkpt>
      <trkpt lat="44.39357" lon="3.86888">
        <ele>1527</ele>
        <time>2017-03-04T08:49:38Z</time>
      </trkpt>
      <trkpt lat="44.39365" lon="3.86881">
        <ele>1528</ele>
        <time>2017-03-04T08:51:38Z</time>
      </trkpt>
      <trkpt lat="44.3937" lon="3.86875">
        <ele>1529</ele>
        <time>2017-03-04T08:53:38Z</time>
      </trkpt>
      <trkpt lat="44.39374" lon="3.86871">
        <ele>1529</ele>
        <time>2017-03-04T08:55:38Z</time>
      </trkpt>
      <trkpt lat="44.39387" lon="3.86855">
        <ele>1531</ele>
        <time>2017-03-04T08:57:38Z</time>
      </trkpt>
      <trkpt lat="44.39407" lon="3.86819">
        <ele>1533</ele>
        <time>2017-03-04T08:59:38Z</time>
      </trkpt>
      <trkpt lat="44.39431" lon="3.86762">
        <ele>1535</ele>
        <time>2017-03-04T09:01:38Z</time>
      </trkpt>
      <trkpt lat="44.39448" lon="3.86726">
        <ele>1537</ele>
        <time>2017-03-04T09:03:38Z</time>
      </trkpt>
      <trkpt lat="44.39459" lon="3.86708">
        <ele>1538</ele>
        <time>2017-03-04T09:05:38Z</time>
      </trkpt>
      <trkpt lat="44.39478" lon="3.86684">
        <ele>1540</ele>
        <time>2017-03-04T09:07:38Z</time>
      </trkpt>
      <trkpt lat="44.39506" lon="3.86649">
        <ele>1544</ele>
        <time>2017-03-04T09:09:38Z</time>
      </trkpt>
      <trkpt lat="44.39542" lon="3.86597">
        <ele>1548</ele>
        <time>2017-03-04T09:11:38Z</time>
      </trkpt>
      <trkpt lat="44.39563" lon="3.86564">
        <ele>1552</ele>
        <time>2017-03-04T09:13:38Z</time>
      </trkpt>
      <trkpt lat="44.39569" lon="3.86552">
        <ele>1553</ele>
        <time>2017-03-04T09:15:38Z</time>
      </trkpt>
      <trkpt lat="44.39581" lon="3.86506">
        <ele>1555</ele>
        <time>2017-03-04T09:17:38Z</time>
      </trkpt>
      <trkpt lat="44.39585" lon="3.86483">
        <ele>1556</ele>
        <time>2017-03-04T09:19:38Z</time>
      </trkpt>
      <trkpt lat="44.39584" lon="3.86472">
        <ele>1556</ele>
        <time>2017-03-04T09:21:38Z</time>
      </trkpt>
      <trkpt lat="44.39583" lon="3.86463">
        <ele>1557</ele>
        <time>2017-03-04T09:23:38Z</time>
      </trkpt>
      <trkpt lat="44.39578" lon="3.86444">
        <ele>1556</ele>
        <time>2017-03-04T09:25:38Z</time>
      </trkpt>
      <trkpt lat="44.3957" lon="3.86393">
        <ele>1558</ele>
        <time>2017-03-04T09:27:38Z</time>
      </trkpt>
      <trkpt lat="44.39566" lon="3.86371">
        <ele>1559</ele>
        <time>2017-03-04T09:29:38Z</time>
      </trkpt>
      <trkpt lat="44.39564" lon="3.86345">
        <ele>1562</ele>
        <time>2017-03-04T09:31:38Z</time>
      </trkpt>
      <trkpt lat="44.39562" lon="3.86317">
        <ele>1563</ele>
        <time>2017-03-04T09:33:38Z</time>
      </trkpt>
      <trkpt lat="44.39562" lon="3.86278">
        <ele>1564</ele>
        <time>2017-03-04T09:35:38Z</time>
      </trkpt>
      <trkpt lat="44.39563" lon="3.86248">
        <ele>1565</ele>
        <time>2017-03-04T09:37:38Z</time>
      </trkpt>
      <trkpt lat="44.39571" lon="3.86197">
        <ele>1568</ele>
        <time>2017-03-04T09:39:38Z</time>
      </trkpt>
      <trkpt lat="44.39571" lon="3.86193">
        <ele>1567</ele>
        <time>2017-03-04T09:41:38Z</time>
      </trkpt>
      <trkpt lat="44.39572" lon="3.86191">
        <ele>1568</ele>
        <time>2017-03-04T09:43:38Z</time>
      </trkpt>
      <trkpt lat="44.39578" lon="3.86144">
        <ele>1570</ele>
        <time>2017-03-04T09:45:38Z</time>
      </trkpt>
      <trkpt lat="44.39584" lon="3.86105">
        <ele>1573</ele>
        <time>2017-03-04T09:47:38Z</time>
      </trkpt>
      <trkpt lat="44.39592" lon="3.8607">
        <ele>1577</ele>
        <time>2017-03-04T09:49:38Z</time>
      </trkpt>
      <trkpt lat="44.39597" lon="3.86047">
        <ele>1580</ele>
        <time>2017-03-04T09:51:38Z</time>
      </trkpt>
      <trkpt lat="44.39597" lon="3.86031">
        <ele>1581</ele>
        <time>2017-03-04T09:53:38Z</time>
      </trkpt>
      <trkpt lat="44.39597" lon="3.86023">
        <ele>1582</ele>
        <time>2017-03-04T09:55:38Z</time>
      </trkpt>
      <trkpt lat="44.39594" lon="3.86014">
        <ele>1581</ele>
        <time>2017-03-04T09:57:38Z</time>
      </trkpt>
      <trkpt lat="44.39585" lon="3.8599">
        <ele>1582</ele>
        <time>2017-03-04T09:59:38Z</time>
      </trkpt>
      <trkpt lat="44.39564" lon="3.85934">
        <ele>1585</ele>
        <time>2017-03-04T10:01:38Z</time>
      </trkpt>
      <trkpt lat="44.39546" lon="3.85891">
        <ele>1587</ele>
        <time>2017-03-04T10:03:38Z</time>
      </trkpt>
      <trkpt lat="44.39528" lon="3.85856">
        <ele>1588</ele>
        <time>2017-03-04T10:05:38Z</time>
      </trkpt>
      <trkpt lat="44.39512" lon="3.85823">
        <ele>1589</ele>
        <time>2017-03-04T10:07:38Z</time>
      </trkpt>
      <trkpt lat="44.39505" lon="3.85809">
        <ele>1589</ele>
        <time>2017-03-04T10:09:38Z</time>
      </trkpt>
      <trkpt lat="44.39494" lon="3.85773">
        <ele>1591</ele>
        <time>2017-03-04T10:11:38Z</time>
      </trkpt>
      <trkpt lat="44.39485" lon="3.8574">
        <ele>1592</ele>
        <time>2017-03-04T10:13:38Z</time>
      </trkpt>
      <trkpt lat="44.39484" lon="3.85725">
        <ele>1591</ele>
        <time>2017-03-04T10:15:38Z</time>
      </trkpt>
      <trkpt lat="44.39484" lon="3.85714">
        <ele>1591</ele>
        <time>2017-03-04T10:17:38Z</time>
      </trkpt>
      <trkpt lat="44.39488" lon="3.85706">
        <ele>1591</ele>
        <time>2017-03-04T10:19:38Z</time>
      </trkpt>
      <trkpt lat="44.39493" lon="3.85701">
        <ele>1591</ele>
        <time>2017-03-04T10:21:38Z</time>
      </trkpt>
      <trkpt lat="44.39506" lon="3.85697">
        <ele>1591</ele>
        <time>2017-03-04T10:23:38Z</time>
      </trkpt>
      <trkpt lat="44.39521" lon="3.85695">
        <ele>1592</ele>
        <time>2017-03-04T10:25:38Z</time>
      </trkpt>
      <trkpt lat="44.39556" lon="3.85693">
        <ele>1594</ele>
        <time>2017-03-04T10:27:38Z</time>
      </trkpt>
      <trkpt lat="44.39571" lon="3.85692">
        <ele>1594</ele>
        <time>2017-03-04T10:29:38Z</time>
      </trkpt>
      <trkpt lat="44.3961" lon="3.85686">
        <ele>1596</ele>
        <time>2017-03-04T10:31:38Z</time>
      </trkpt>
      <trkpt lat="44.39633" lon="3.85682">
        <ele>1596</ele>
        <time>2017-03-04T10:33:38Z</time>
      </trkpt>
      <trkpt lat="44.39647" lon="3.85681">
        <ele>1597</ele>
        <time>2017-03-04T10:35:38Z</time>
      </trkpt>
      <trkpt lat="44.39657" lon="3.85681">
        <ele>1597</ele>
        <time>2017-03-04T10:37:38Z</time>
      </trkpt>
      <trkpt lat="44.39663" lon="3.85683">
        <ele>1598</ele>
        <time>2017-03-04T10:39:38Z</time>
      </trkpt>
      <trkpt lat="44.39689" lon="3.85692">
        <ele>1599</ele>
        <time>2017-03-04T10:41:38Z</time>
      </trkpt>
      <trkpt lat="44.39694" lon="3.85693">
        <ele>1599</ele>
        <time>2017-03-04T10:43:38Z</time>
      </trkpt>
      <trkpt lat="44.39748" lon="3.85715">
        <ele>1601</ele>
        <time>2017-03-04T10:45:38Z</time>
      </trkpt>
      <trkpt lat="44.39751" lon="3.85716">
        <ele>1601</ele>
        <time>2017-03-04T10:47:38Z</time>
      </trkpt>
      <trkpt lat="44.39771" lon="3.85725">
        <ele>1603</ele>
        <time>2017-03-04T10:49:38Z</time>
      </trkpt>
      <trkpt lat="44.39781" lon="3.85728">
        <ele>1603</ele>
        <time>2017-03-04T10:51:38Z</time>
      </trkpt>
      <trkpt lat="44.39788" lon="3.85728">
        <ele>1604</ele>
        <time>2017-03-04T10:53:38Z</time>
      </trkpt>
      <trkpt lat="44.39797" lon="3.85727">
        <ele>1604</ele>
        <time>2017-03-04T10:55:38Z</time>
      </trkpt>
      <trkpt lat="44.39838" lon="3.85707">
        <ele>1602</ele>
        <time>2017-03-04T10:57:38Z</time>
      </trkpt>
      <trkpt lat="44.39843" lon="3.85705">
        <ele>1602</ele>
        <time>2017-03-04T10:59:38Z</time>
      </trkpt>
      <trkpt lat="44.39867" lon="3.85694">
        <ele>1602</ele>
        <time>2017-03-04T11:01:38Z</time>
      </trkpt>
      <trkpt lat="44.39875" lon="3.85689">
        <ele>1602</ele>
        <time>2017-03-04T11:03:38Z</time>
      </trkpt>
      <trkpt lat="44.39887" lon="3.85678">
        <ele>1602</ele>
        <time>2017-03-04T11:05:38Z</time>
      </trkpt>
      <trkpt lat="44.39896" lon="3.85669">
        <ele>1602</ele>
        <time>2017-03-04T11:07:38Z</time>
      </trkpt>
      <trkpt lat="44.39937" lon="3.85617">
        <ele>1599</ele>
        <time>2017-03-04T11:09:38Z</time>
      </trkpt>
      <trkpt lat="44.39958" lon="3.85592">
        <ele>1597</ele>
        <time>2017-03-04T11:11:38Z</time>
      </trkpt>
      <trkpt lat="44.39978" lon="3.8556">
        <ele>1597</ele>
        <time>2017-03-04T11:13:38Z</time>
      </trkpt>
      <trkpt lat="44.39978" lon="3.8556">
        <ele>1597</ele>
        <time>2017-03-04T11:15:38Z</time>
      </trkpt>
      <trkpt lat="44.39984" lon="3.85565">
        <ele>1597</ele>
        <time>2017-03-04T11:17:38Z</time>
      </trkpt>
      <trkpt lat="44.3999" lon="3.85568">
        <ele>1596</ele>
        <time>2017-03-04T11:19:38Z</time>
      </trkpt>
      <trkpt lat="44.39997" lon="3.85573">
        <ele>1596</ele>
        <time>2017-03-04T11:21:38Z</time>
      </trkpt>
      <trkpt lat="44.40002" lon="3.85574">
        <ele>1595</ele>
        <time>2017-03-04T11:23:38Z</time>
      </trkpt>
      <trkpt lat="44.40008" lon="3.85575">
        <ele>1592</ele>
        <time>2017-03-04T11:25:38Z</time>
      </trkpt>
      <trkpt lat="44.40013" lon="3.85575">
        <ele>1590</ele>
        <time>2017-03-04T11:27:38Z</time>
      </trkpt>
      <trkpt lat="44.40018" lon="3.85575">
        <ele>1588</ele>
        <time>2017-03-04T11:29:38Z</time>
      </trkpt>
      <trkpt lat="44.4002" lon="3.85574">
        <ele>1588</ele>
        <time>2017-03-04T11:31:38Z</time>
      </trkpt>
      <trkpt lat="44.40023" lon="3.8557">
        <ele>1587</ele>
        <time>2017-03-04T11:33:38Z</time>
      </trkpt>
      <trkpt lat="44.4003" lon="3.85558">
        <ele>1586</ele>
        <time>2017-03-04T11:35:38Z</time>
      </trkpt>
      <trkpt lat="44.40032" lon="3.85554">
        <ele>1585</ele>
        <time>2017-03-04T11:37:38Z</time>
      </trkpt>
      <trkpt lat="44.40034" lon="3.85553">
        <ele>1585</ele>
        <time>2017-03-04T11:39:38Z</time>
      </trkpt>
      <trkpt lat="44.40035" lon="3.85554">
        <ele>1584</ele>
        <time>2017-03-04T11:41:38Z</time>
      </trkpt>
      <trkpt lat="44.40035" lon="3.85557">
        <ele>1584</ele>
        <time>2017-03-04T11:43:38Z</time>
      </trkpt>
      <trkpt lat="44.40035" lon="3.85564">
        <ele>1583</ele>
        <time>2017-03-04T11:45:38Z</time>
      </trkpt>
      <trkpt lat="44.40035" lon="3.85571">
        <ele>1582</ele>
        <time>2017-03-04T11:47:38Z</time>
      </trkpt>
      <trkpt lat="44.40036" lon="3.85576">
        <ele>1581</ele>
        <time>2017-03-04T11:49:38Z</time>
      </trkpt>
      <trkpt lat="44.40037" lon="3.85576">
        <ele>1580</ele>
        <time>2017-03-04T11:51:38Z</time>
      </trkpt>
      <trkpt lat="44.40038" lon="3.85576">
        <ele>1580</ele>
        <time>2017-03-04T11:53:38Z</time>
      </trkpt>
      <trkpt lat="44.40039" lon="3.85576">
        <ele>1580</ele>
        <time>2017-03-04T11:55:38Z</time>
      </trkpt>
      <trkpt lat="44.4004" lon="3.8557">
        <ele>1580</ele>
        <time>2017-03-04T11:57:38Z</time>
      </trkpt>
      <trkpt lat="44.40041" lon="3.85562">
        <ele>1581</ele>
        <time>2017-03-04T11:59:38Z</time>
      </trkpt>
      <trkpt lat="44.40042" lon="3.85559">
        <ele>1581</ele>
        <time>2017-03-04T12:01:38Z</time>
      </trkpt>
      <trkpt lat="44.40043" lon="3.85557">
        <ele>1581</ele>
        <time>2017-03-04T12:03:38Z</time>
      </trkpt>
      <trkpt lat="44.40045" lon="3.85557">
        <ele>1580</ele>
        <time>2017-03-04T12:05:38Z</time>
      </trkpt>
      <trkpt lat="44.40046" lon="3.85557">
        <ele>1579</ele>
        <time>2017-03-04T12:07:38Z</time>
      </trkpt>
      <trkpt lat="44.40048" lon="3.85559">
        <ele>1578</ele>
        <time>2017-03-04T12:09:38Z</time>
      </trkpt>
      <trkpt lat="44.40049" lon="3.85566">
        <ele>1577</ele>
        <time>2017-03-04T12:11:38Z</time>
      </trkpt>
      <trkpt lat="44.4005" lon="3.85576">
        <ele>1575</ele>
        <time>2017-03-04T12:13:38Z</time>
      </trkpt>
      <trkpt lat="44.40051" lon="3.85579">
        <ele>1574</ele>
        <time>2017-03-04T12:15:38Z</time>
      </trkpt>
      <trkpt lat="44.40052" lon="3.85579">
        <ele>1574</ele>
        <time>2017-03-04T12:17:38Z</time>
      </trkpt>
      <trkpt lat="44.40053" lon="3.85577">
        <ele>1574</ele>
        <time>2017-03-04T12:19:38Z</time>
      </trkpt>
      <trkpt lat="44.40053" lon="3.85572">
        <ele>1574</ele>
        <time>2017-03-04T12:21:38Z</time>
      </trkpt>
      <trkpt lat="44.40054" lon="3.85562">
        <ele>1576</ele>
        <time>2017-03-04T12:23:38Z</time>
      </trkpt>
      <trkpt lat="44.40054" lon="3.85554">
        <ele>1577</ele>
        <time>2017-03-04T12:25:38Z</time>
      </trkpt>
      <trkpt lat="44.40055" lon="3.85552">
        <ele>1577</ele>
        <time>2017-03-04T12:27:38Z</time>
      </trkpt>
      <trkpt lat="44.40056" lon="3.85551">
        <ele>1577</ele>
        <time>2017-03-04T12:29:38Z</time>
      </trkpt>
      <trkpt lat="44.40058" lon="3.85552">
        <ele>1576</ele>
        <time>2017-03-04T12:31:38Z</time>
      </trkpt>
      <trkpt lat="44.40059" lon="3.85554">
        <ele>1575</ele>
        <time>2017-03-04T12:33:38Z</time>
      </trkpt>
      <trkpt lat="44.40061" lon="3.85568">
        <ele>1572</ele>
        <time>2017-03-04T12:35:38Z</time>
      </trkpt>
      <trkpt lat="44.40061" lon="3.85574">
        <ele>1571</ele>
        <time>2017-03-04T12:37:38Z</time>
      </trkpt>
      <trkpt lat="44.40061" lon="3.85579">
        <ele>1570</ele>
        <time>2017-03-04T12:39:38Z</time>
      </trkpt>
      <trkpt lat="44.40059" lon="3.85585">
        <ele>1570</ele>
        <time>2017-03-04T12:41:38Z</time>
      </trkpt>
      <trkpt lat="44.40059" lon="3.85592">
        <ele>1569</ele>
        <time>2017-03-04T12:43:38Z</time>
      </trkpt>
      <trkpt lat="44.40062" lon="3.85593">
        <ele>1568</ele>
        <time>2017-03-04T12:45:38Z</time>
      </trkpt>
      <trkpt lat="44.40064" lon="3.85589">
        <ele>1567</ele>
        <time>2017-03-04T12:47:38Z</time>
      </trkpt>
      <trkpt lat="44.40066" lon="3.85581">
        <ele>1568</ele>
        <time>2017-03-04T12:49:38Z</time>
      </trkpt>
      <trkpt lat="44.40069" lon="3.85571">
        <ele>1568</ele>
        <time>2017-03-04T12:51:38Z</time>
      </trkpt>
      <trkpt lat="44.40069" lon="3.85566">
        <ele>1569</ele>
        <time>2017-03-04T12:53:38Z</time>
      </trkpt>
      <trkpt lat="44.4007" lon="3.85559">
        <ele>1570</ele>
        <time>2017-03-04T12:55:38Z</time>
      </trkpt>
      <trkpt lat="44.40071" lon="3.85552">
        <ele>1571</ele>
        <time>2017-03-04T12:57:38Z</time>
      </trkpt>
      <trkpt lat="44.40072" lon="3.85548">
        <ele>1571</ele>
        <time>2017-03-04T12:59:38Z</time>
      </trkpt>
      <trkpt lat="44.40072" lon="3.85545">
        <ele>1572</ele>
        <time>2017-03-04T13:01:38Z</time>
      </trkpt>
      <trkpt lat="44.40073" lon="3.85543">
        <ele>1572</ele>
        <time>2017-03-04T13:03:38Z</time>
      </trkpt>
      <trkpt lat="44.40074" lon="3.85542">
        <ele>1571</ele>
        <time>2017-03-04T13:05:38Z</time>
      </trkpt>
      <trkpt lat="44.40075" lon="3.85541">
        <ele>1571</ele>
        <time>2017-03-04T13:07:38Z</time>
      </trkpt>
      <trkpt lat="44.40076" lon="3.85542">
        <ele>1571</ele>
        <time>2017-03-04T13:09:38Z</time>
      </trkpt>
      <trkpt lat="44.40077" lon="3.85544">
        <ele>1570</ele>
        <time>2017-03-04T13:11:38Z</time>
      </trkpt>
      <trkpt lat="44.40078" lon="3.85552">
        <ele>1568</ele>
        <time>2017-03-04T13:13:38Z</time>
      </trkpt>
      <trkpt lat="44.40079" lon="3.85558">
        <ele>1567</ele>
        <time>2017-03-04T13:15:38Z</time>
      </trkpt>
      <trkpt lat="44.40079" lon="3.85565">
        <ele>1565</ele>
        <time>2017-03-04T13:17:38Z</time>
      </trkpt>
      <trkpt lat="44.40079" lon="3.85571">
        <ele>1564</ele>
        <time>2017-03-04T13:19:38Z</time>
      </trkpt>
      <trkpt lat="44.4008" lon="3.85574">
        <ele>1563</ele>
        <time>2017-03-04T13:21:38Z</time>
      </trkpt>
      <trkpt lat="44.40082" lon="3.85574">
        <ele>1562</ele>
        <time>2017-03-04T13:23:38Z</time>
      </trkpt>
      <trkpt lat="44.40083" lon="3.85571">
        <ele>1563</ele>
        <time>2017-03-04T13:25:38Z</time>
      </trkpt>
      <trkpt lat="44.40083" lon="3.85568">
        <ele>1563</ele>
        <time>2017-03-04T13:27:38Z</time>
      </trkpt>
      <trkpt lat="44.40083" lon="3.8556">
        <ele>1565</ele>
        <time>2017-03-04T13:29:38Z</time>
      </trkpt>
      <trkpt lat="44.40085" lon="3.85541">
        <ele>1567</ele>
        <time>2017-03-04T13:31:38Z</time>
      </trkpt>
      <trkpt lat="44.40085" lon="3.85536">
        <ele>1568</ele>
        <time>2017-03-04T13:33:38Z</time>
      </trkpt>
      <trkpt lat="44.40088" lon="3.85534">
        <ele>1567</ele>
        <time>2017-03-04T13:35:38Z</time>
      </trkpt>
      <trkpt lat="44.4009" lon="3.85535">
        <ele>1566</ele>
        <time>2017-03-04T13:37:38Z</time>
      </trkpt>
      <trkpt lat="44.40092" lon="3.85539">
        <ele>1565</ele>
        <time>2017-03-04T13:39:38Z</time>
      </trkpt>
      <trkpt lat="44.40092" lon="3.85551">
        <ele>1562</ele>
        <time>2017-03-04T13:41:38Z</time>
      </trkpt>
      <trkpt lat="44.40093" lon="3.85571">
        <ele>1558</ele>
        <time>2017-03-04T13:43:38Z</time>
      </trkpt>
      <trkpt lat="44.40092" lon="3.85581">
        <ele>1556</ele>
        <time>2017-03-04T13:45:38Z</time>
      </trkpt>
      <trkpt lat="44.40091" lon="3.85587">
        <ele>1556</ele>
        <time>2017-03-04T13:47:38Z</time>
      </trkpt>
      <trkpt lat="44.40092" lon="3.85589">
        <ele>1555</ele>
        <time>2017-03-04T13:49:38Z</time>
      </trkpt>
      <trkpt lat="44.40094" lon="3.85589">
        <ele>1554</ele>
        <time>2017-03-04T13:51:38Z</time>
      </trkpt>
      <trkpt lat="44.40095" lon="3.85587">
        <ele>1554</ele>
        <time>2017-03-04T13:53:38Z</time>
      </trkpt>
      <trkpt lat="44.40097" lon="3.85581">
        <ele>1554</ele>
        <time>2017-03-04T13:55:38Z</time>
      </trkpt>
      <trkpt lat="44.40099" lon="3.8557">
        <ele>1555</ele>
        <time>2017-03-04T13:57:38Z</time>
      </trkpt>
      <trkpt lat="44.401" lon="3.85563">
        <ele>1556</ele>
        <time>2017-03-04T13:59:38Z</time>
      </trkpt>
      <trkpt lat="44.40101" lon="3.85559">
        <ele>1556</ele>
        <time>2017-03-04T14:01:38Z</time>
      </trkpt>
      <trkpt lat="44.40102" lon="3.85554">
        <ele>1557</ele>
        <time>2017-03-04T14:03:38Z</time>
      </trkpt>
      <trkpt lat="44.40103" lon="3.85545">
        <ele>1559</ele>
        <time>2017-03-04T14:05:38Z</time>
      </trkpt>
      <trkpt lat="44.40104" lon="3.85543">
        <ele>1559</ele>
        <time>2017-03-04T14:07:38Z</time>
      </trkpt>
      <trkpt lat="44.40106" lon="3.85542">
        <ele>1558</ele>
        <time>2017-03-04T14:09:38Z</time>
      </trkpt>
      <trkpt lat="44.40107" lon="3.85543">
        <ele>1557</ele>
        <time>2017-03-04T14:11:38Z</time>
      </trkpt>
      <trkpt lat="44.40108" lon="3.85546">
        <ele>1556</ele>
        <time>2017-03-04T14:13:38Z</time>
      </trkpt>
      <trkpt lat="44.40108" lon="3.85556">
        <ele>1554</ele>
        <time>2017-03-04T14:15:38Z</time>
      </trkpt>
      <trkpt lat="44.40109" lon="3.8557">
        <ele>1550</ele>
        <time>2017-03-04T14:17:38Z</time>
      </trkpt>
      <trkpt lat="44.4011" lon="3.85591">
        <ele>1545</ele>
        <time>2017-03-04T14:19:38Z</time>
      </trkpt>
      <trkpt lat="44.40111" lon="3.856">
        <ele>1543</ele>
        <time>2017-03-04T14:21:38Z</time>
      </trkpt>
      <trkpt lat="44.40114" lon="3.85603">
        <ele>1541</ele>
        <time>2017-03-04T14:23:38Z</time>
      </trkpt>
      <trkpt lat="44.40119" lon="3.85604">
        <ele>1538</ele>
        <time>2017-03-04T14:25:38Z</time>
      </trkpt>
      <trkpt lat="44.40124" lon="3.85604">
        <ele>1536</ele>
        <time>2017-03-04T14:27:38Z</time>
      </trkpt>
      <trkpt lat="44.40127" lon="3.85601">
        <ele>1535</ele>
        <time>2017-03-04T14:29:38Z</time>
      </trkpt>
      <trkpt lat="44.40133" lon="3.85593">
        <ele>1533</ele>
        <time>2017-03-04T14:31:38Z</time>
      </trkpt>
      <trkpt lat="44.40136" lon="3.85593">
        <ele>1532</ele>
        <time>2017-03-04T14:33:38Z</time>
      </trkpt>
      <trkpt lat="44.40139" lon="3.85595">
        <ele>1530</ele>
        <time>2017-03-04T14:35:38Z</time>
      </trkpt>
      <trkpt lat="44.4014" lon="3.85599">
        <ele>1528</ele>
        <time>2017-03-04T14:37:38Z</time>
      </trkpt>
      <trkpt lat="44.40141" lon="3.85611">
        <ele>1525</ele>
        <time>2017-03-04T14:39:38Z</time>
      </trkpt>
      <trkpt lat="44.40141" lon="3.85623">
        <ele>1522</ele>
        <time>2017-03-04T14:41:38Z</time>
      </trkpt>
      <trkpt lat="44.4014" lon="3.85642">
        <ele>1518</ele>
        <time>2017-03-04T14:43:38Z</time>
      </trkpt>
      <trkpt lat="44.4014" lon="3.85656">
        <ele>1515</ele>
        <time>2017-03-04T14:45:38Z</time>
      </trkpt>
      <trkpt lat="44.40142" lon="3.85685">
        <ele>1510</ele>
        <time>2017-03-04T14:47:38Z</time>
      </trkpt>
      <trkpt lat="44.40143" lon="3.85693">
        <ele>1508</ele>
        <time>2017-03-04T14:49:38Z</time>
      </trkpt>
      <trkpt lat="44.40146" lon="3.85702">
        <ele>1505</ele>
        <time>2017-03-04T14:51:38Z</time>
      </trkpt>
      <trkpt lat="44.4015" lon="3.85713">
        <ele>1502</ele>
        <time>2017-03-04T14:53:38Z</time>
      </trkpt>
      <trkpt lat="44.40156" lon="3.8573">
        <ele>1496</ele>
        <time>2017-03-04T14:55:38Z</time>
      </trkpt>
      <trkpt lat="44.40159" lon="3.85738">
        <ele>1493</ele>
        <time>2017-03-04T14:57:38Z</time>
      </trkpt>
      <trkpt lat="44.4016" lon="3.85745">
        <ele>1492</ele>
        <time>2017-03-04T14:59:38Z</time>
      </trkpt>
      <trkpt lat="44.40162" lon="3.85753">
        <ele>1490</ele>
        <time>2017-03-04T15:01:38Z</time>
      </trkpt>
      <trkpt lat="44.40163" lon="3.85759">
        <ele>1488</ele>
        <time>2017-03-04T15:03:38Z</time>
      </trkpt>
      <trkpt lat="44.40165" lon="3.85774">
        <ele>1485</ele>
        <time>2017-03-04T15:05:38Z</time>
      </trkpt>
      <trkpt lat="44.40166" lon="3.85784">
        <ele>1483</ele>
        <time>2017-03-04T15:07:38Z</time>
      </trkpt>
      <trkpt lat="44.40167" lon="3.85794">
        <ele>1481</ele>
        <time>2017-03-04T15:09:38Z</time>
      </trkpt>
      <trkpt lat="44.40168" lon="3.85811">
        <ele>1478</ele>
        <time>2017-03-04T15:11:38Z</time>
      </trkpt>
      <trkpt lat="44.40169" lon="3.8583">
        <ele>1474</ele>
        <time>2017-03-04T15:13:38Z</time>
      </trkpt>
      <trkpt lat="44.40169" lon="3.8584">
        <ele>1472</ele>
        <time>2017-03-04T15:15:38Z</time>
      </trkpt>
      <trkpt lat="44.40169" lon="3.85848">
        <ele>1470</ele>
        <time>2017-03-04T15:17:38Z</time>
      </trkpt>
      <trkpt lat="44.40169" lon="3.85857">
        <ele>1467</ele>
        <time>2017-03-04T15:19:38Z</time>
      </trkpt>
      <trkpt lat="44.40169" lon="3.85865">
        <ele>1465</ele>
        <time>2017-03-04T15:21:38Z</time>
      </trkpt>
      <trkpt lat="44.40169" lon="3.85881">
        <ele>1461</ele>
        <time>2017-03-04T15:23:38Z</time>
      </trkpt>
      <trkpt lat="44.40165" lon="3.85891">
        <ele>1460</ele>
        <time>2017-03-04T15:25:38Z</time>
      </trkpt>
      <trkpt lat="44.40162" lon="3.85905">
        <ele>1458</ele>
        <time>2017-03-04T15:27:38Z</time>
      </trkpt>
      <trkpt lat="44.40158" lon="3.85929">
        <ele>1455</ele>
        <time>2017-03-04T15:29:38Z</time>
      </trkpt>
      <trkpt lat="44.40152" lon="3.85955">
        <ele>1453</ele>
        <time>2017-03-04T15:31:38Z</time>
      </trkpt>
      <trkpt lat="44.40142" lon="3.85984">
        <ele>1453</ele>
        <time>2017-03-04T15:33:38Z</time>
      </trkpt>
      <trkpt lat="44.40125" lon="3.86022">
        <ele>1453</ele>
        <time>2017-03-04T15:35:38Z</time>
      </trkpt>
      <trkpt lat="44.40102" lon="3.86064">
        <ele>1451</ele>
        <time>2017-03-04T15:37:38Z</time>
      </trkpt>
      <trkpt lat="44.40098" lon="3.8607">
        <ele>1451</ele>
        <time>2017-03-04T15:39:38Z</time>
      </trkpt>
      <trkpt lat="44.40093" lon="3.861">
        <ele>1443</ele>
        <time>2017-03-04T15:41:38Z</time>
      </trkpt>
      <trkpt lat="44.40093" lon="3.86105">
        <ele>1441</ele>
        <time>2017-03-04T15:43:38Z</time>
      </trkpt>
      <trkpt lat="44.40094" lon="3.86111">
        <ele>1439</ele>
        <time>2017-03-04T15:45:38Z</time>
      </trkpt>
      <trkpt lat="44.40099" lon="3.86129">
        <ele>1432</ele>
        <time>2017-03-04T15:47:38Z</time>
      </trkpt>
      <trkpt lat="44.40102" lon="3.86142">
        <ele>1428</ele>
        <time>2017-03-04T15:49:38Z</time>
      </trkpt>
      <trkpt lat="44.40107" lon="3.86149">
        <ele>1425</ele>
        <time>2017-03-04T15:51:38Z</time>
      </trkpt>
      <trkpt lat="44.40114" lon="3.86158">
        <ele>1421</ele>
        <time>2017-03-04T15:53:38Z</time>
      </trkpt>
      <trkpt lat="44.40116" lon="3.86161">
        <ele>1420</ele>
        <time>2017-03-04T15:55:38Z</time>
      </trkpt>
      <trkpt lat="44.40117" lon="3.86165">
        <ele>1419</ele>
        <time>2017-03-04T15:57:38Z</time>
      </trkpt>
      <trkpt lat="44.40117" lon="3.86169">
        <ele>1418</ele>
        <time>2017-03-04T15:59:38Z</time>
      </trkpt>
      <trkpt lat="44.40122" lon="3.86199">
        <ele>1411</ele>
        <time>2017-03-04T16:01:38Z</time>
      </trkpt>
      <trkpt lat="44.40122" lon="3.86203">
        <ele>1411</ele>
        <time>2017-03-04T16:03:38Z</time>
      </trkpt>
      <trkpt lat="44.40122" lon="3.86206">
        <ele>1410</ele>
        <time>2017-03-04T16:05:38Z</time>
      </trkpt>
      <trkpt lat="44.4012" lon="3.86209">
        <ele>1410</ele>
        <time>2017-03-04T16:07:38Z</time>
      </trkpt>
      <trkpt lat="44.40113" lon="3.86223">
        <ele>1407</ele>
        <time>2017-03-04T16:09:38Z</time>
      </trkpt>
      <trkpt lat="44.40109" lon="3.86229">
        <ele>1406</ele>
        <time>2017-03-04T16:11:38Z</time>
      </trkpt>
      <trkpt lat="44.40105" lon="3.86235">
        <ele>1405</ele>
        <time>2017-03-04T16:13:38Z</time>
      </trkpt>
      <trkpt lat="44.40103" lon="3.86238">
        <ele>1404</ele>
        <time>2017-03-04T16:15:38Z</time>
      </trkpt>
      <trkpt lat="44.40101" lon="3.86243">
        <ele>1403</ele>
        <time>2017-03-04T16:17:38Z</time>
      </trkpt>
      <trkpt lat="44.401" lon="3.86249">
        <ele>1401</ele>
        <time>2017-03-04T16:19:38Z</time>
      </trkpt>
      <trkpt lat="44.401" lon="3.86249">
        <ele>1401</ele>
        <time>2017-03-04T16:21:38Z</time>
      </trkpt>
      <trkpt lat="44.40111" lon="3.8625">
        <ele>1401</ele>
        <time>2017-03-04T16:23:38Z</time>
      </trkpt>
      <trkpt lat="44.4012" lon="3.86254">
        <ele>1401</ele>
        <time>2017-03-04T16:25:38Z</time>
      </trkpt>
      <trkpt lat="44.40126" lon="3.86258">
        <ele>1400</ele>
        <time>2017-03-04T16:27:38Z</time>
      </trkpt>
      <trkpt lat="44.40137" lon="3.86266">
        <ele>1399</ele>
        <time>2017-03-04T16:29:38Z</time>
      </trkpt>
      <trkpt lat="44.40144" lon="3.86273">
        <ele>1398</ele>
        <time>2017-03-04T16:31:38Z</time>
      </trkpt>
      <trkpt lat="44.40169" lon="3.86296">
        <ele>1393</ele>
        <time>2017-03-04T16:33:38Z</time>
      </trkpt>
      <trkpt lat="44.40228" lon="3.86354">
        <ele>1369</ele>
        <time>2017-03-04T16:35:38Z</time>
      </trkpt>
      <trkpt lat="44.40245" lon="3.8638">
        <ele>1362</ele>
        <time>2017-03-04T16:37:38Z</time>
      </trkpt>
      <trkpt lat="44.40247" lon="3.86384">
        <ele>1361</ele>
        <time>2017-03-04T16:39:38Z</time>
      </trkpt>
      <trkpt lat="44.40248" lon="3.86389">
        <ele>1360</ele>
        <time>2017-03-04T16:41:38Z</time>
      </trkpt>
      <trkpt lat="44.40246" lon="3.86395">
        <ele>1360</ele>
        <time>2017-03-04T16:43:38Z</time>
      </trkpt>
      <trkpt lat="44.40243" lon="3.86397">
        <ele>1360</ele>
        <time>2017-03-04T16:45:38Z</time>
      </trkpt>
      <trkpt lat="44.40239" lon="3.86397">
        <ele>1360</ele>
        <time>2017-03-04T16:47:38Z</time>
      </trkpt>
      <trkpt lat="44.40233" lon="3.86396">
        <ele>1361</ele>
        <time>2017-03-04T16:49:38Z</time>
      </trkpt>
      <trkpt lat="44.40224" lon="3.86393">
        <ele>1363</ele>
        <time>2017-03-04T16:51:38Z</time>
      </trkpt>
      <trkpt lat="44.40216" lon="3.86389">
        <ele>1364</ele>
        <time>2017-03-04T16:53:38Z</time>
      </trkpt>
      <trkpt lat="44.4021" lon="3.86386">
        <ele>1366</ele>
        <time>2017-03-04T16:55:38Z</time>
      </trkpt>
      <trkpt lat="44.40201" lon="3.86378">
        <ele>1369</ele>
        <time>2017-03-04T16:57:38Z</time>
      </trkpt>
      <trkpt lat="44.40198" lon="3.86376">
        <ele>1370</ele>
        <time>2017-03-04T16:59:38Z</time>
      </trkpt>
      <trkpt lat="44.40196" lon="3.86376">
        <ele>1370</ele>
        <time>2017-03-04T17:01:38Z</time>
      </trkpt>
      <trkpt lat="44.40194" lon="3.86377">
        <ele>1370</ele>
        <time>2017-03-04T17:03:38Z</time>
      </trkpt>
      <trkpt lat="44.40193" lon="3.8638">
        <ele>1369</ele>
        <time>2017-03-04T17:05:38Z</time>
      </trkpt>
      <trkpt lat="44.40193" lon="3.86385">
        <ele>1368</ele>
        <time>2017-03-04T17:07:38Z</time>
      </trkpt>
      <trkpt lat="44.40195" lon="3.86392">
        <ele>1366</ele>
        <time>2017-03-04T17:09:38Z</time>
      </trkpt>
      <trkpt lat="44.40213" lon="3.8643">
        <ele>1356</ele>
        <time>2017-03-04T17:11:38Z</time>
      </trkpt>
      <trkpt lat="44.40242" lon="3.86473">
        <ele>1344</ele>
        <time>2017-03-04T17:13:38Z</time>
      </trkpt>
      <trkpt lat="44.40277" lon="3.86506">
        <ele>1325</ele>
        <time>2017-03-04T17:15:38Z</time>
      </trkpt>
      <trkpt lat="44.40283" lon="3.86515">
        <ele>1320</ele>
        <time>2017-03-04T17:17:38Z</time>
      </trkpt>
      <trkpt lat="44.40287" lon="3.86518">
        <ele>1318</ele>
        <time>2017-03-04T17:19:38Z</time>
      </trkpt>
      <trkpt lat="44.40292" lon="3.86519">
        <ele>1316</ele>
        <time>2017-03-04T17:21:38Z</time>
      </trkpt>
      <trkpt lat="44.40293" lon="3.8652">
        <ele>1315</ele>
        <time>2017-03-04T17:23:38Z</time>
      </trkpt>
      <trkpt lat="44.40295" lon="3.86521">
        <ele>1314</ele>
        <time>2017-03-04T17:25:38Z</time>
      </trkpt>
      <trkpt lat="44.40295" lon="3.86523">
        <ele>1314</ele>
        <time>2017-03-04T17:27:38Z</time>
      </trkpt>
      <trkpt lat="44.40295" lon="3.86526">
        <ele>1313</ele>
        <time>2017-03-04T17:29:38Z</time>
      </trkpt>
      <trkpt lat="44.40295" lon="3.86528">
        <ele>1313</ele>
        <time>2017-03-04T17:31:38Z</time>
      </trkpt>
      <trkpt lat="44.40289" lon="3.86542">
        <ele>1312</ele>
        <time>2017-03-04T17:33:38Z</time>
      </trkpt>
      <trkpt lat="44.40282" lon="3.8655">
        <ele>1313</ele>
        <time>2017-03-04T17:35:38Z</time>
      </trkpt>
      <trkpt lat="44.4027" lon="3.86556">
        <ele>1316</ele>
        <time>2017-03-04T17:37:38Z</time>
      </trkpt>
      <trkpt lat="44.40253" lon="3.86559">
        <ele>1321</ele>
        <time>2017-03-04T17:39:38Z</time>
      </trkpt>
      <trkpt lat="44.40244" lon="3.8656">
        <ele>1322</ele>
        <time>2017-03-04T17:41:38Z</time>
      </trkpt>
      <trkpt lat="44.40243" lon="3.8656">
        <ele>1322</ele>
        <time>2017-03-04T17:43:38Z</time>
      </trkpt>
      <trkpt lat="44.40242" lon="3.86561">
        <ele>1322</ele>
        <time>2017-03-04T17:45:38Z</time>
      </trkpt>
      <trkpt lat="44.40241" lon="3.86564">
        <ele>1322</ele>
        <time>2017-03-04T17:47:38Z</time>
      </trkpt>
      <trkpt lat="44.40241" lon="3.86565">
        <ele>1321</ele>
        <time>2017-03-04T17:49:38Z</time>
      </trkpt>
      <trkpt lat="44.40241" lon="3.86567">
        <ele>1321</ele>
        <time>2017-03-04T17:51:38Z</time>
      </trkpt>
      <trkpt lat="44.40241" lon="3.86568">
        <ele>1321</ele>
        <time>2017-03-04T17:53:38Z</time>
      </trkpt>
      <trkpt lat="44.40248" lon="3.86583">
        <ele>1316</ele>
        <time>2017-03-04T17:55:38Z</time>
      </trkpt>
      <trkpt lat="44.40248" lon="3.86585">
        <ele>1316</ele>
        <time>2017-03-04T17:57:38Z</time>
      </trkpt>
      <trkpt lat="44.4025" lon="3.86587">
        <ele>1315</ele>
        <time>2017-03-04T17:59:38Z</time>
      </trkpt>
      <trkpt lat="44.40262" lon="3.86595">
        <ele>1309</ele>
        <time>2017-03-04T18:01:38Z</time>
      </trkpt>
      <trkpt lat="44.40281" lon="3.8661">
        <ele>1299</ele>
        <time>2017-03-04T18:03:38Z</time>
      </trkpt>
      <trkpt lat="44.40304" lon="3.86618">
        <ele>1289</ele>
        <time>2017-03-04T18:05:38Z</time>
      </trkpt>
      <trkpt lat="44.40305" lon="3.86619">
        <ele>1289</ele>
        <time>2017-03-04T18:07:38Z</time>
      </trkpt>
      <trkpt lat="44.40305" lon="3.8662">
        <ele>1288</ele>
        <time>2017-03-04T18:09:38Z</time>
      </trkpt>
      <trkpt lat="44.40305" lon="3.86621">
        <ele>1288</ele>
        <time>2017-03-04T18:11:38Z</time>
      </trkpt>
      <trkpt lat="44.40305" lon="3.86622">
        <ele>1288</ele>
        <time>2017-03-04T18:13:38Z</time>
      </trkpt>
      <trkpt lat="44.40296" lon="3.86627">
        <ele>1289</ele>
        <time>2017-03-04T18:15:38Z</time>
      </trkpt>
      <trkpt lat="44.40285" lon="3.8663">
        <ele>1292</ele>
        <time>2017-03-04T18:17:38Z</time>
      </trkpt>
      <trkpt lat="44.40283" lon="3.86631">
        <ele>1292</ele>
        <time>2017-03-04T18:19:38Z</time>
      </trkpt>
      <trkpt lat="44.40282" lon="3.86632">
        <ele>1292</ele>
        <time>2017-03-04T18:21:38Z</time>
      </trkpt>
      <trkpt lat="44.4028" lon="3.86635">
        <ele>1292</ele>
        <time>2017-03-04T18:23:38Z</time>
      </trkpt>
      <trkpt lat="44.4028" lon="3.86637">
        <ele>1292</ele>
        <time>2017-03-04T18:25:38Z</time>
      </trkpt>
      <trkpt lat="44.40281" lon="3.86639">
        <ele>1291</ele>
        <time>2017-03-04T18:27:38Z</time>
      </trkpt>
      <trkpt lat="44.40282" lon="3.86641">
        <ele>1290</ele>
        <time>2017-03-04T18:29:38Z</time>
      </trkpt>
      <trkpt lat="44.40283" lon="3.86642">
        <ele>1289</ele>
        <time>2017-03-04T18:31:38Z</time>
      </trkpt>
      <trkpt lat="44.40285" lon="3.86643">
        <ele>1288</ele>
        <time>2017-03-04T18:33:38Z</time>
      </trkpt>
      <trkpt lat="44.40294" lon="3.86642">
        <ele>1286</ele>
        <time>2017-03-04T18:35:38Z</time>
      </trkpt>
      <trkpt lat="44.40309" lon="3.86638">
        <ele>1282</ele>
        <time>2017-03-04T18:37:38Z</time>
      </trkpt>
      <trkpt lat="44.40312" lon="3.86639">
        <ele>1281</ele>
        <time>2017-03-04T18:39:38Z</time>
      </trkpt>
      <trkpt lat="44.40313" lon="3.86642">
        <ele>1280</ele>
        <time>2017-03-04T18:41:38Z</time>
      </trkpt>
      <trkpt lat="44.40313" lon="3.86648">
        <ele>1278</ele>
        <time>2017-03-04T18:43:38Z</time>
      </trkpt>
      <trkpt lat="44.40312" lon="3.8665">
        <ele>1278</ele>
        <time>2017-03-04T18:45:38Z</time>
      </trkpt>
      <trkpt lat="44.4031" lon="3.86652">
        <ele>1278</ele>
        <time>2017-03-04T18:47:38Z</time>
      </trkpt>
      <trkpt lat="44.40294" lon="3.8666">
        <ele>1281</ele>
        <time>2017-03-04T18:49:38Z</time>
      </trkpt>
      <trkpt lat="44.40284" lon="3.86667">
        <ele>1282</ele>
        <time>2017-03-04T18:51:38Z</time>
      </trkpt>
      <trkpt lat="44.40283" lon="3.86668">
        <ele>1282</ele>
        <time>2017-03-04T18:53:38Z</time>
      </trkpt>
      <trkpt lat="44.40282" lon="3.86671">
        <ele>1282</ele>
        <time>2017-03-04T18:55:38Z</time>
      </trkpt>
      <trkpt lat="44.40283" lon="3.86674">
        <ele>1281</ele>
        <time>2017-03-04T18:57:38Z</time>
      </trkpt>
      <trkpt lat="44.40283" lon="3.86676">
        <ele>1281</ele>
        <time>2017-03-04T18:59:38Z</time>
      </trkpt>
      <trkpt lat="44.40284" lon="3.86678">
        <ele>1280</ele>
        <time>2017-03-04T19:01:38Z</time>
      </trkpt>
      <trkpt lat="44.40285" lon="3.86679">
        <ele>1280</ele>
        <time>2017-03-04T19:03:38Z</time>
      </trkpt>
      <trkpt lat="44.4029" lon="3.86678">
        <ele>1278</ele>
        <time>2017-03-04T19:05:38Z</time>
      </trkpt>
      <trkpt lat="44.40302" lon="3.86676">
        <ele>1275</ele>
        <time>2017-03-04T19:07:38Z</time>
      </trkpt>
      <trkpt lat="44.40307" lon="3.86677">
        <ele>1273</ele>
        <time>2017-03-04T19:09:38Z</time>
      </trkpt>
      <trkpt lat="44.40309" lon="3.86679">
        <ele>1272</ele>
        <time>2017-03-04T19:11:38Z</time>
      </trkpt>
      <trkpt lat="44.40311" lon="3.8668">
        <ele>1271</ele>
        <time>2017-03-04T19:13:38Z</time>
      </trkpt>
      <trkpt lat="44.40312" lon="3.86681">
        <ele>1271</ele>
        <time>2017-03-04T19:15:38Z</time>
      </trkpt>
      <trkpt lat="44.40313" lon="3.86684">
        <ele>1270</ele>
        <time>2017-03-04T19:17:38Z</time>
      </trkpt>
      <trkpt lat="44.40313" lon="3.86686">
        <ele>1269</ele>
        <time>2017-03-04T19:19:38Z</time>
      </trkpt>
      <trkpt lat="44.40312" lon="3.86689">
        <ele>1269</ele>
        <time>2017-03-04T19:21:38Z</time>
      </trkpt>
      <trkpt lat="44.4031" lon="3.86694">
        <ele>1268</ele>
        <time>2017-03-04T19:23:38Z</time>
      </trkpt>
      <trkpt lat="44.40296" lon="3.8671">
        <ele>1270</ele>
        <time>2017-03-04T19:25:38Z</time>
      </trkpt>
      <trkpt lat="44.40292" lon="3.86719">
        <ele>1269</ele>
        <time>2017-03-04T19:27:38Z</time>
      </trkpt>
      <trkpt lat="44.40292" lon="3.86724">
        <ele>1268</ele>
        <time>2017-03-04T19:29:38Z</time>
      </trkpt>
      <trkpt lat="44.40292" lon="3.86726">
        <ele>1268</ele>
        <time>2017-03-04T19:31:38Z</time>
      </trkpt>
      <trkpt lat="44.40294" lon="3.86729">
        <ele>1266</ele>
        <time>2017-03-04T19:33:38Z</time>
      </trkpt>
      <trkpt lat="44.40301" lon="3.86739">
        <ele>1262</ele>
        <time>2017-03-04T19:35:38Z</time>
      </trkpt>
      <trkpt lat="44.40305" lon="3.86743">
        <ele>1260</ele>
        <time>2017-03-04T19:37:38Z</time>
      </trkpt>
      <trkpt lat="44.40309" lon="3.86748">
        <ele>1257</ele>
        <time>2017-03-04T19:39:38Z</time>
      </trkpt>
      <trkpt lat="44.40311" lon="3.8675">
        <ele>1256</ele>
        <time>2017-03-04T19:41:38Z</time>
      </trkpt>
      <trkpt lat="44.40313" lon="3.86752">
        <ele>1255</ele>
        <time>2017-03-04T19:43:38Z</time>
      </trkpt>
      <trkpt lat="44.40318" lon="3.86753">
        <ele>1253</ele>
        <time>2017-03-04T19:45:38Z</time>
      </trkpt>
      <trkpt lat="44.40321" lon="3.86754">
        <ele>1252</ele>
        <time>2017-03-04T19:47:38Z</time>
      </trkpt>
      <trkpt lat="44.40324" lon="3.86753">
        <ele>1251</ele>
        <time>2017-03-04T19:49:38Z</time>
      </trkpt>
      <trkpt lat="44.40327" lon="3.86751">
        <ele>1250</ele>
        <time>2017-03-04T19:51:38Z</time>
      </trkpt>
      <trkpt lat="44.40328" lon="3.8675">
        <ele>1250</ele>
        <time>2017-03-04T19:53:38Z</time>
      </trkpt>
      <trkpt lat="44.40358" lon="3.86712">
        <ele>1247</ele>
        <time>2017-03-04T19:55:38Z</time>
      </trkpt>
      <trkpt lat="44.4036" lon="3.86711">
        <ele>1246</ele>
        <time>2017-03-04T19:57:38Z</time>
      </trkpt>
      <trkpt lat="44.40361" lon="3.86711">
        <ele>1246</ele>
        <time>2017-03-04T19:59:38Z</time>
      </trkpt>
      <trkpt lat="44.40362" lon="3.86711">
        <ele>1246</ele>
        <time>2017-03-04T20:01:38Z</time>
      </trkpt>
      <trkpt lat="44.40363" lon="3.86712">
        <ele>1245</ele>
        <time>2017-03-04T20:03:38Z</time>
      </trkpt>
      <trkpt lat="44.40365" lon="3.86714">
        <ele>1244</ele>
        <time>2017-03-04T20:05:38Z</time>
      </trkpt>
      <trkpt lat="44.40366" lon="3.86716">
        <ele>1243</ele>
        <time>2017-03-04T20:07:38Z</time>
      </trkpt>
      <trkpt lat="44.40366" lon="3.86719">
        <ele>1242</ele>
        <time>2017-03-04T20:09:38Z</time>
      </trkpt>
      <trkpt lat="44.40367" lon="3.86721">
        <ele>1242</ele>
        <time>2017-03-04T20:11:38Z</time>
      </trkpt>
      <trkpt lat="44.40363" lon="3.86771">
        <ele>1234</ele>
        <time>2017-03-04T20:13:38Z</time>
      </trkpt>
      <trkpt lat="44.40364" lon="3.86822">
        <ele>1226</ele>
        <time>2017-03-04T20:15:38Z</time>
      </trkpt>
      <trkpt lat="44.40364" lon="3.86822">
        <ele>1226</ele>
        <time>2017-03-04T20:17:38Z</time>
      </trkpt>
      <trkpt lat="44.40362" lon="3.86825">
        <ele>1226</ele>
        <time>2017-03-04T20:19:38Z</time>
      </trkpt>
      <trkpt lat="44.40359" lon="3.86835">
        <ele>1226</ele>
        <time>2017-03-04T20:21:38Z</time>
      </trkpt>
      <trkpt lat="44.40335" lon="3.8693">
        <ele>1230</ele>
        <time>2017-03-04T20:23:38Z</time>
      </trkpt>
      <trkpt lat="44.40328" lon="3.86962">
        <ele>1233</ele>
        <time>2017-03-04T20:25:38Z</time>
      </trkpt>
      <trkpt lat="44.40325" lon="3.86971">
        <ele>1234</ele>
        <time>2017-03-04T20:27:38Z</time>
      </trkpt>
      <trkpt lat="44.40324" lon="3.86981">
        <ele>1234</ele>
        <time>2017-03-04T20:29:38Z</time>
      </trkpt>
      <trkpt lat="44.40322" lon="3.86998">
        <ele>1235</ele>
        <time>2017-03-04T20:31:38Z</time>
      </trkpt>
      <trkpt lat="44.40321" lon="3.87012">
        <ele>1237</ele>
        <time>2017-03-04T20:33:38Z</time>
      </trkpt>
      <trkpt lat="44.4032" lon="3.87037">
        <ele>1239</ele>
        <time>2017-03-04T20:35:38Z</time>
      </trkpt>
      <trkpt lat="44.40317" lon="3.8712">
        <ele>1245</ele>
        <time>2017-03-04T20:37:38Z</time>
      </trkpt>
      <trkpt lat="44.40317" lon="3.87165">
        <ele>1246</ele>
        <time>2017-03-04T20:39:38Z</time>
      </trkpt>
      <trkpt lat="44.40316" lon="3.87202">
        <ele>1247</ele>
        <time>2017-03-04T20:41:38Z</time>
      </trkpt>
      <trkpt lat="44.40314" lon="3.87228">
        <ele>1248</ele>
        <time>2017-03-04T20:43:38Z</time>
      </trkpt>
      <trkpt lat="44.40312" lon="3.87246">
        <ele>1249</ele>
        <time>2017-03-04T20:45:38Z</time>
      </trkpt>
      <trkpt lat="44.4031" lon="3.87262">
        <ele>1251</ele>
        <time>2017-03-04T20:47:38Z</time>
      </trkpt>
      <trkpt lat="44.40303" lon="3.87294">
        <ele>1256</ele>
        <time>2017-03-04T20:49:38Z</time>
      </trkpt>
      <trkpt lat="44.40298" lon="3.87326">
        <ele>1260</ele>
        <time>2017-03-04T20:51:38Z</time>
      </trkpt>
      <trkpt lat="44.40292" lon="3.87382">
        <ele>1264</ele>
        <time>2017-03-04T20:53:38Z</time>
      </trkpt>
      <trkpt lat="44.40284" lon="3.87472">
        <ele>1267</ele>
        <time>2017-03-04T20:55:38Z</time>
      </trkpt>
      <trkpt lat="44.40278" lon="3.87528">
        <ele>1270</ele>
        <time>2017-03-04T20:57:38Z</time>
      </trkpt>
      <trkpt lat="44.40274" lon="3.87572">
        <ele>1271</ele>
        <time>2017-03-04T20:59:38Z</time>
      </trkpt>
      <trkpt lat="44.40272" lon="3.87602">
        <ele>1272</ele>
        <time>2017-03-04T21:01:38Z</time>
      </trkpt>
      <trkpt lat="44.40271" lon="3.87651">
        <ele>1272</ele>
        <time>2017-03-04T21:03:38Z</time>
      </trkpt>
      <trkpt lat="44.4027" lon="3.87686">
        <ele>1272</ele>
        <time>2017-03-04T21:05:38Z</time>
      </trkpt>
      <trkpt lat="44.4027" lon="3.87718">
        <ele>1270</ele>
        <time>2017-03-04T21:07:38Z</time>
      </trkpt>
      <trkpt lat="44.4027" lon="3.87728">
        <ele>1269</ele>
        <time>2017-03-04T21:09:38Z</time>
      </trkpt>
      <trkpt lat="44.40269" lon="3.87734">
        <ele>1269</ele>
        <time>2017-03-04T21:11:38Z</time>
      </trkpt>
      <trkpt lat="44.40267" lon="3.87742">
        <ele>1270</ele>
        <time>2017-03-04T21:13:38Z</time>
      </trkpt>
      <trkpt lat="44.40263" lon="3.87754">
        <ele>1270</ele>
        <time>2017-03-04T21:15:38Z</time>
      </trkpt>
      <trkpt lat="44.40261" lon="3.87759">
        <ele>1271</ele>
        <time>2017-03-04T21:17:38Z</time>
      </trkpt>
      <trkpt lat="44.40259" lon="3.87764">
        <ele>1271</ele>
        <time>2017-03-04T21:19:38Z</time>
      </trkpt>
      <trkpt lat="44.40256" lon="3.87768">
        <ele>1271</ele>
        <time>2017-03-04T21:21:38Z</time>
      </trkpt>
      <trkpt lat="44.40252" lon="3.87769">
        <ele>1273</ele>
        <time>2017-03-04T21:23:38Z</time>
      </trkpt>
      <trkpt lat="44.40249" lon="3.87769">
        <ele>1273</ele>
        <time>2017-03-04T21:25:38Z</time>
      </trkpt>
      <trkpt lat="44.40246" lon="3.87769">
        <ele>1274</ele>
        <time>2017-03-04T21:27:38Z</time>
      </trkpt>
      <trkpt lat="44.40241" lon="3.87768">
        <ele>1275</ele>
        <time>2017-03-04T21:29:38Z</time>
      </trkpt>
      <trkpt lat="44.40238" lon="3.87766">
        <ele>1275</ele>
        <time>2017-03-04T21:31:38Z</time>
      </trkpt>
      <trkpt lat="44.40234" lon="3.87764">
        <ele>1276</ele>
        <time>2017-03-04T21:33:38Z</time>
      </trkpt>
      <trkpt lat="44.40224" lon="3.87757">
        <ele>1279</ele>
        <time>2017-03-04T21:35:38Z</time>
      </trkpt>
      <trkpt lat="44.40211" lon="3.87754">
        <ele>1282</ele>
        <time>2017-03-04T21:37:38Z</time>
      </trkpt>
      <trkpt lat="44.40196" lon="3.87751">
        <ele>1285</ele>
        <time>2017-03-04T21:39:38Z</time>
      </trkpt>
      <trkpt lat="44.40191" lon="3.8775">
        <ele>1286</ele>
        <time>2017-03-04T21:41:38Z</time>
      </trkpt>
      <trkpt lat="44.40187" lon="3.87749">
        <ele>1287</ele>
        <time>2017-03-04T21:43:38Z</time>
      </trkpt>
      <trkpt lat="44.40177" lon="3.87748">
        <ele>1289</ele>
        <time>2017-03-04T21:45:38Z</time>
      </trkpt>
      <trkpt lat="44.40167" lon="3.87748">
        <ele>1291</ele>
        <time>2017-03-04T21:47:38Z</time>
      </trkpt>
      <trkpt lat="44.40152" lon="3.87748">
        <ele>1294</ele>
        <time>2017-03-04T21:49:38Z</time>
      </trkpt>
      <trkpt lat="44.40139" lon="3.87747">
        <ele>1297</ele>
        <time>2017-03-04T21:51:38Z</time>
      </trkpt>
      <trkpt lat="44.40131" lon="3.87746">
        <ele>1299</ele>
        <time>2017-03-04T21:53:38Z</time>
      </trkpt>
      <trkpt lat="44.40126" lon="3.87745">
        <ele>1300</ele>
        <time>2017-03-04T21:55:38Z</time>
      </trkpt>
      <trkpt lat="44.40121" lon="3.87745">
        <ele>1301</ele>
        <time>2017-03-04T21:57:38Z</time>
      </trkpt>
      <trkpt lat="44.40116" lon="3.87745">
        <ele>1302</ele>
        <time>2017-03-04T21:59:38Z</time>
      </trkpt>
      <trkpt lat="44.40112" lon="3.87745">
        <ele>1303</ele>
        <time>2017-03-04T22:01:38Z</time>
      </trkpt>
      <trkpt lat="44.40108" lon="3.87745">
        <ele>1304</ele>
        <time>2017-03-04T22:03:38Z</time>
      </trkpt>
      <trkpt lat="44.40103" lon="3.87746">
        <ele>1304</ele>
        <time>2017-03-04T22:05:38Z</time>
      </trkpt>
      <trkpt lat="44.40091" lon="3.87751">
        <ele>1305</ele>
        <time>2017-03-04T22:07:38Z</time>
      </trkpt>
      <trkpt lat="44.40087" lon="3.87753">
        <ele>1306</ele>
        <time>2017-03-04T22:09:38Z</time>
      </trkpt>
      <trkpt lat="44.40083" lon="3.87756">
        <ele>1306</ele>
        <time>2017-03-04T22:11:38Z</time>
      </trkpt>
      <trkpt lat="44.4008" lon="3.87758">
        <ele>1307</ele>
        <time>2017-03-04T22:13:38Z</time>
      </trkpt>
      <trkpt lat="44.40078" lon="3.87763">
        <ele>1307</ele>
        <time>2017-03-04T22:15:38Z</time>
      </trkpt>
      <trkpt lat="44.40073" lon="3.87774">
        <ele>1308</ele>
        <time>2017-03-04T22:17:38Z</time>
      </trkpt>
      <trkpt lat="44.40067" lon="3.87797">
        <ele>1307</ele>
        <time>2017-03-04T22:19:38Z</time>
      </trkpt>
      <trkpt lat="44.40063" lon="3.87816">
        <ele>1306</ele>
        <time>2017-03-04T22:21:38Z</time>
      </trkpt>
      <trkpt lat="44.4006" lon="3.8784">
        <ele>1304</ele>
        <time>2017-03-04T22:23:38Z</time>
      </trkpt>
      <trkpt lat="44.40059" lon="3.87864">
        <ele>1301</ele>
        <time>2017-03-04T22:25:38Z</time>
      </trkpt>
      <trkpt lat="44.40055" lon="3.87884">
        <ele>1301</ele>
        <time>2017-03-04T22:27:38Z</time>
      </trkpt>
      <trkpt lat="44.40053" lon="3.87891">
        <ele>1301</ele>
        <time>2017-03-04T22:29:38Z</time>
      </trkpt>
      <trkpt lat="44.40051" lon="3.87896">
        <ele>1302</ele>
        <time>2017-03-04T22:31:38Z</time>
      </trkpt>
      <trkpt lat="44.40048" lon="3.87903">
        <ele>1302</ele>
        <time>2017-03-04T22:33:38Z</time>
      </trkpt>
      <trkpt lat="44.40045" lon="3.87909">
        <ele>1303</ele>
        <time>2017-03-04T22:35:38Z</time>
      </trkpt>
      <trkpt lat="44.40033" lon="3.87926">
        <ele>1307</ele>
        <time>2017-03-04T22:37:38Z</time>
      </trkpt>
      <trkpt lat="44.40023" lon="3.87939">
        <ele>1309</ele>
        <time>2017-03-04T22:39:38Z</time>
      </trkpt>
      <trkpt lat="44.40015" lon="3.8795">
        <ele>1310</ele>
        <time>2017-03-04T22:41:38Z</time>
      </trkpt>
      <trkpt lat="44.40002" lon="3.8797">
        <ele>1312</ele>
        <time>2017-03-04T22:43:38Z</time>
      </trkpt>
      <trkpt lat="44.39988" lon="3.87992">
        <ele>1312</ele>
        <time>2017-03-04T22:45:38Z</time>
      </trkpt>
      <trkpt lat="44.39984" lon="3.87999">
        <ele>1312</ele>
        <time>2017-03-04T22:47:38Z</time>
      </trkpt>
      <trkpt lat="44.39981" lon="3.88004">
        <ele>1312</ele>
        <time>2017-03-04T22:49:38Z</time>
      </trkpt>
      <trkpt lat="44.39977" lon="3.88009">
        <ele>1312</ele>
        <time>2017-03-04T22:51:38Z</time>
      </trkpt>
      <trkpt lat="44.39971" lon="3.88016">
        <ele>1312</ele>
        <time>2017-03-04T22:53:38Z</time>
      </trkpt>
      <trkpt lat="44.39956" lon="3.88028">
        <ele>1315</ele>
        <time>2017-03-04T22:55:38Z</time>
      </trkpt>
      <trkpt lat="44.39939" lon="3.88042">
        <ele>1318</ele>
        <time>2017-03-04T22:57:38Z</time>
      </trkpt>
      <trkpt lat="44.39912" lon="3.88062">
        <ele>1323</ele>
        <time>2017-03-04T22:59:38Z</time>
      </trkpt>
      <trkpt lat="44.39888" lon="3.88079">
        <ele>1329</ele>
        <time>2017-03-04T23:01:38Z</time>
      </trkpt>
      <trkpt lat="44.39877" lon="3.88088">
        <ele>1332</ele>
        <time>2017-03-04T23:03:38Z</time>
      </trkpt>
      <trkpt lat="44.39867" lon="3.88098">
        <ele>1334</ele>
        <time>2017-03-04T23:05:38Z</time>
      </trkpt>
      <trkpt lat="44.39848" lon="3.8812">
        <ele>1337</ele>
        <time>2017-03-04T23:07:38Z</time>
      </trkpt>
      <trkpt lat="44.39824" lon="3.88155">
        <ele>1339</ele>
        <time>2017-03-04T23:09:38Z</time>
      </trkpt>
      <trkpt lat="44.39812" lon="3.88174">
        <ele>1341</ele>
        <time>2017-03-04T23:11:38Z</time>
      </trkpt>
      <trkpt lat="44.39809" lon="3.88179">
        <ele>1342</ele>
        <time>2017-03-04T23:13:38Z</time>
      </trkpt>
      <trkpt lat="44.39806" lon="3.88187">
        <ele>1343</ele>
        <time>2017-03-04T23:15:38Z</time>
      </trkpt>
      <trkpt lat="44.39803" lon="3.88199">
        <ele>1343</ele>
        <time>2017-03-04T23:17:38Z</time>
      </trkpt>
      <trkpt lat="44.398" lon="3.88214">
        <ele>1342</ele>
        <time>2017-03-04T23:19:38Z</time>
      </trkpt>
      <trkpt lat="44.39799" lon="3.88216">
        <ele>1342</ele>
        <time>2017-03-04T23:21:38Z</time>
      </trkpt>
      <trkpt lat="44.39795" lon="3.88247">
        <ele>1340</ele>
        <time>2017-03-04T23:23:38Z</time>
      </trkpt>
      <trkpt lat="44.39792" lon="3.88263">
        <ele>1342</ele>
        <time>2017-03-04T23:25:38Z</time>
      </trkpt>
      <trkpt lat="44.3979" lon="3.88269">
        <ele>1344</ele>
        <time>2017-03-04T23:27:38Z</time>
      </trkpt>
      <trkpt lat="44.39787" lon="3.88274">
        <ele>1346</ele>
        <time>2017-03-04T23:29:38Z</time>
      </trkpt>
      <trkpt lat="44.39785" lon="3.88279">
        <ele>1347</ele>
        <time>2017-03-04T23:31:38Z</time>
      </trkpt>
      <trkpt lat="44.39782" lon="3.88283">
        <ele>1349</ele>
        <time>2017-03-04T23:33:38Z</time>
      </trkpt>
      <trkpt lat="44.39779" lon="3.88287">
        <ele>1351</ele>
        <time>2017-03-04T23:35:38Z</time>
      </trkpt>
      <trkpt lat="44.39777" lon="3.88292">
        <ele>1352</ele>
        <time>2017-03-04T23:37:38Z</time>
      </trkpt>
      <trkpt lat="44.39776" lon="3.88296">
        <ele>1353</ele>
        <time>2017-03-04T23:39:38Z</time>
      </trkpt>
      <trkpt lat="44.39775" lon="3.883">
        <ele>1354</ele>
        <time>2017-03-04T23:41:38Z</time>
      </trkpt>
      <trkpt lat="44.39776" lon="3.88303">
        <ele>1353</ele>
        <time>2017-03-04T23:43:38Z</time>
      </trkpt>
      <trkpt lat="44.39776" lon="3.88305">
        <ele>1353</ele>
        <time>2017-03-04T23:45:38Z</time>
      </trkpt>
      <trkpt lat="44.39778" lon="3.88308">
        <ele>1352</ele>
        <time>2017-03-04T23:47:38Z</time>
      </trkpt>
      <trkpt lat="44.39829" lon="3.88381">
        <ele>1338</ele>
        <time>2017-03-04T23:49:38Z</time>
      </trkpt>
      <trkpt lat="44.3984" lon="3.88398">
        <ele>1337</ele>
        <time>2017-03-04T23:51:38Z</time>
      </trkpt>
      <trkpt lat="44.39841" lon="3.88402">
        <ele>1337</ele>
        <time>2017-03-04T23:53:38Z</time>
      </trkpt>
      <trkpt lat="44.39842" lon="3.88407">
        <ele>1338</ele>
        <time>2017-03-04T23:55:38Z</time>
      </trkpt>
      <trkpt lat="44.39842" lon="3.88412">
        <ele>1339</ele>
        <time>2017-03-04T23:57:38Z</time>
      </trkpt>
      <trkpt lat="44.39841" lon="3.8842">
        <ele>1340</ele>
        <time>2017-03-04T23:59:38Z</time>
      </trkpt>
      <trkpt lat="44.39839" lon="3.88425">
        <ele>1340</ele>
        <time>2017-03-05T00:01:38Z</time>
      </trkpt>
      <trkpt lat="44.39836" lon="3.88433">
        <ele>1341</ele>
        <time>2017-03-05T00:03:38Z</time>
      </trkpt>
      <trkpt lat="44.39829" lon="3.88443">
        <ele>1342</ele>
        <time>2017-03-05T00:05:38Z</time>
      </trkpt>
      <trkpt lat="44.39829" lon="3.88443">
        <ele>1342</ele>
        <time>2017-03-05T00:07:38Z</time>
      </trkpt>
      <trkpt lat="44.39828" lon="3.88448">
        <ele>1342</ele>
        <time>2017-03-05T00:09:38Z</time>
      </trkpt>
      <trkpt lat="44.39828" lon="3.8845">
        <ele>1342</ele>
        <time>2017-03-05T00:11:38Z</time>
      </trkpt>
      <trkpt lat="44.39826" lon="3.88455">
        <ele>1342</ele>
        <time>2017-03-05T00:13:38Z</time>
      </trkpt>
      <trkpt lat="44.3982" lon="3.88464">
        <ele>1344</ele>
        <time>2017-03-05T00:15:38Z</time>
      </trkpt>
      <trkpt lat="44.39788" lon="3.88506">
        <ele>1348</ele>
        <time>2017-03-05T00:17:38Z</time>
      </trkpt>
      <trkpt lat="44.39773" lon="3.88525">
        <ele>1348</ele>
        <time>2017-03-05T00:19:38Z</time>
      </trkpt>
      <trkpt lat="44.3975" lon="3.88563">
        <ele>1347</ele>
        <time>2017-03-05T00:21:38Z</time>
      </trkpt>
      <trkpt lat="44.39746" lon="3.88569">
        <ele>1348</ele>
        <time>2017-03-05T00:23:38Z</time>
      </trkpt>
      <trkpt lat="44.39744" lon="3.88575">
        <ele>1348</ele>
        <time>2017-03-05T00:25:38Z</time>
      </trkpt>
      <trkpt lat="44.39742" lon="3.88581">
        <ele>1347</ele>
        <time>2017-03-05T00:27:38Z</time>
      </trkpt>
      <trkpt lat="44.39741" lon="3.88587">
        <ele>1347</ele>
        <time>2017-03-05T00:29:38Z</time>
      </trkpt>
      <trkpt lat="44.39741" lon="3.88594">
        <ele>1347</ele>
        <time>2017-03-05T00:31:38Z</time>
      </trkpt>
      <trkpt lat="44.39743" lon="3.88602">
        <ele>1345</ele>
        <time>2017-03-05T00:33:38Z</time>
      </trkpt>
      <trkpt lat="44.39744" lon="3.8861">
        <ele>1344</ele>
        <time>2017-03-05T00:35:38Z</time>
      </trkpt>
      <trkpt lat="44.39745" lon="3.8862">
        <ele>1343</ele>
        <time>2017-03-05T00:37:38Z</time>
      </trkpt>
      <trkpt lat="44.39748" lon="3.88638">
        <ele>1341</ele>
        <time>2017-03-05T00:39:38Z</time>
      </trkpt>
      <trkpt lat="44.39748" lon="3.88647">
        <ele>1340</ele>
        <time>2017-03-05T00:41:38Z</time>
      </trkpt>
      <trkpt lat="44.39748" lon="3.88654">
        <ele>1340</ele>
        <time>2017-03-05T00:43:38Z</time>
      </trkpt>
      <trkpt lat="44.39748" lon="3.88661">
        <ele>1339</ele>
        <time>2017-03-05T00:45:38Z</time>
      </trkpt>
      <trkpt lat="44.39747" lon="3.88667">
        <ele>1339</ele>
        <time>2017-03-05T00:47:38Z</time>
      </trkpt>
      <trkpt lat="44.39747" lon="3.88674">
        <ele>1340</ele>
        <time>2017-03-05T00:49:38Z</time>
      </trkpt>
      <trkpt lat="44.39747" lon="3.88681">
        <ele>1340</ele>
        <time>2017-03-05T00:51:38Z</time>
      </trkpt>
      <trkpt lat="44.39747" lon="3.88686">
        <ele>1340</ele>
        <time>2017-03-05T00:53:38Z</time>
      </trkpt>
      <trkpt lat="44.39748" lon="3.88695">
        <ele>1340</ele>
        <time>2017-03-05T00:55:38Z</time>
      </trkpt>
      <trkpt lat="44.3976" lon="3.88739">
        <ele>1336</ele>
        <time>2017-03-05T00:57:38Z</time>
      </trkpt>
      <trkpt lat="44.39766" lon="3.88761">
        <ele>1335</ele>
        <time>2017-03-05T00:59:38Z</time>
      </trkpt>
      <trkpt lat="44.39772" lon="3.88778">
        <ele>1333</ele>
        <time>2017-03-05T01:01:38Z</time>
      </trkpt>
      <trkpt lat="44.39775" lon="3.88784">
        <ele>1332</ele>
        <time>2017-03-05T01:03:38Z</time>
      </trkpt>
      <trkpt lat="44.39777" lon="3.88789">
        <ele>1331</ele>
        <time>2017-03-05T01:05:38Z</time>
      </trkpt>
      <trkpt lat="44.39779" lon="3.88796">
        <ele>1331</ele>
        <time>2017-03-05T01:07:38Z</time>
      </trkpt>
      <trkpt lat="44.39781" lon="3.888">
        <ele>1330</ele>
        <time>2017-03-05T01:09:38Z</time>
      </trkpt>
      <trkpt lat="44.39782" lon="3.88807">
        <ele>1330</ele>
        <time>2017-03-05T01:11:38Z</time>
      </trkpt>
      <trkpt lat="44.39783" lon="3.88813">
        <ele>1330</ele>
        <time>2017-03-05T01:13:38Z</time>
      </trkpt>
      <trkpt lat="44.39783" lon="3.88821">
        <ele>1330</ele>
        <time>2017-03-05T01:15:38Z</time>
      </trkpt>
      <trkpt lat="44.39784" lon="3.8883">
        <ele>1330</ele>
        <time>2017-03-05T01:17:38Z</time>
      </trkpt>
      <trkpt lat="44.39784" lon="3.88842">
        <ele>1330</ele>
        <time>2017-03-05T01:19:38Z</time>
      </trkpt>
      <trkpt lat="44.39785" lon="3.88851">
        <ele>1330</ele>
        <time>2017-03-05T01:21:38Z</time>
      </trkpt>
      <trkpt lat="44.39785" lon="3.88859">
        <ele>1330</ele>
        <time>2017-03-05T01:23:38Z</time>
      </trkpt>
      <trkpt lat="44.39786" lon="3.88866">
        <ele>1330</ele>
        <time>2017-03-05T01:25:38Z</time>
      </trkpt>
      <trkpt lat="44.39788" lon="3.88875">
        <ele>1330</ele>
        <time>2017-03-05T01:27:38Z</time>
      </trkpt>
      <trkpt lat="44.3979" lon="3.88886">
        <ele>1329</ele>
        <time>2017-03-05T01:29:38Z</time>
      </trkpt>
      <trkpt lat="44.39795" lon="3.88905">
        <ele>1328</ele>
        <time>2017-03-05T01:31:38Z</time>
      </trkpt>
      <trkpt lat="44.39802" lon="3.88922">
        <ele>1326</ele>
        <time>2017-03-05T01:33:38Z</time>
      </trkpt>
      <trkpt lat="44.3981" lon="3.88948">
        <ele>1323</ele>
        <time>2017-03-05T01:35:38Z</time>
      </trkpt>
      <trkpt lat="44.39811" lon="3.88955">
        <ele>1322</ele>
        <time>2017-03-05T01:37:38Z</time>
      </trkpt>
      <trkpt lat="44.39811" lon="3.88964">
        <ele>1322</ele>
        <time>2017-03-05T01:39:38Z</time>
      </trkpt>
      <trkpt lat="44.39812" lon="3.88976">
        <ele>1321</ele>
        <time>2017-03-05T01:41:38Z</time>
      </trkpt>
      <trkpt lat="44.39812" lon="3.88984">
        <ele>1321</ele>
        <time>2017-03-05T01:43:38Z</time>
      </trkpt>
      <trkpt lat="44.39811" lon="3.88994">
        <ele>1321</ele>
        <time>2017-03-05T01:45:38Z</time>
      </trkpt>
      <trkpt lat="44.3981" lon="3.89001">
        <ele>1321</ele>
        <time>2017-03-05T01:47:38Z</time>
      </trkpt>
      <trkpt lat="44.3981" lon="3.89007">
        <ele>1320</ele>
        <time>2017-03-05T01:49:38Z</time>
      </trkpt>
      <trkpt lat="44.39809" lon="3.89012">
        <ele>1319</ele>
        <time>2017-03-05T01:51:38Z</time>
      </trkpt>
      <trkpt lat="44.39807" lon="3.89017">
        <ele>1319</ele>
        <time>2017-03-05T01:53:38Z</time>
      </trkpt>
      <trkpt lat="44.39798" lon="3.89036">
        <ele>1318</ele>
        <time>2017-03-05T01:55:38Z</time>
      </trkpt>
      <trkpt lat="44.39763" lon="3.89103">
        <ele>1315</ele>
        <time>2017-03-05T01:57:38Z</time>
      </trkpt>
      <trkpt lat="44.39736" lon="3.8915">
        <ele>1315</ele>
        <time>2017-03-05T01:59:38Z</time>
      </trkpt>
      <trkpt lat="44.39732" lon="3.89157">
        <ele>1315</ele>
        <time>2017-03-05T02:01:38Z</time>
      </trkpt>
      <trkpt lat="44.39723" lon="3.89168">
        <ele>1316</ele>
        <time>2017-03-05T02:03:38Z</time>
      </trkpt>
      <trkpt lat="44.39716" lon="3.89175">
        <ele>1316</ele>
        <time>2017-03-05T02:05:38Z</time>
      </trkpt>
      <trkpt lat="44.3971" lon="3.89182">
        <ele>1317</ele>
        <time>2017-03-05T02:07:38Z</time>
      </trkpt>
      <trkpt lat="44.39707" lon="3.89187">
        <ele>1317</ele>
        <time>2017-03-05T02:09:38Z</time>
      </trkpt>
      <trkpt lat="44.39705" lon="3.89193">
        <ele>1316</ele>
        <time>2017-03-05T02:11:38Z</time>
      </trkpt>
      <trkpt lat="44.39704" lon="3.89199">
        <ele>1315</ele>
        <time>2017-03-05T02:13:38Z</time>
      </trkpt>
      <trkpt lat="44.39701" lon="3.89213">
        <ele>1312</ele>
        <time>2017-03-05T02:15:38Z</time>
      </trkpt>
      <trkpt lat="44.39699" lon="3.89224">
        <ele>1310</ele>
        <time>2017-03-05T02:17:38Z</time>
      </trkpt>
      <trkpt lat="44.39693" lon="3.89259">
        <ele>1304</ele>
        <time>2017-03-05T02:19:38Z</time>
      </trkpt>
      <trkpt lat="44.39677" lon="3.89298">
        <ele>1299</ele>
        <time>2017-03-05T02:21:38Z</time>
      </trkpt>
      <trkpt lat="44.39644" lon="3.89347">
        <ele>1298</ele>
        <time>2017-03-05T02:23:38Z</time>
      </trkpt>
      <trkpt lat="44.39619" lon="3.89378">
        <ele>1298</ele>
        <time>2017-03-05T02:25:38Z</time>
      </trkpt>
      <trkpt lat="44.39608" lon="3.89416">
        <ele>1291</ele>
        <time>2017-03-05T02:27:38Z</time>
      </trkpt>
      <trkpt lat="44.39595" lon="3.89449">
        <ele>1285</ele>
        <time>2017-03-05T02:29:38Z</time>
      </trkpt>
      <trkpt lat="44.3958" lon="3.8948">
        <ele>1281</ele>
        <time>2017-03-05T02:31:38Z</time>
      </trkpt>
      <trkpt lat="44.39549" lon="3.89524">
        <ele>1281</ele>
        <time>2017-03-05T02:33:38Z</time>
      </trkpt>
      <trkpt lat="44.39532" lon="3.89546">
        <ele>1282</ele>
        <time>2017-03-05T02:35:38Z</time>
      </trkpt>
      <trkpt lat="44.39525" lon="3.89554">
        <ele>1282</ele>
        <time>2017-03-05T02:37:38Z</time>
      </trkpt>
      <trkpt lat="44.39519" lon="3.89566">
        <ele>1281</ele>
        <time>2017-03-05T02:39:38Z</time>
      </trkpt>
      <trkpt lat="44.39525" lon="3.89573">
        <ele>1277</ele>
        <time>2017-03-05T02:41:38Z</time>
      </trkpt>
      <trkpt lat="44.39503" lon="3.89654">
        <ele>1279</ele>
        <time>2017-03-05T02:43:38Z</time>
      </trkpt>
      <trkpt lat="44.39555" lon="3.89715">
        <ele>1269</ele>
        <time>2017-03-05T02:45:38Z</time>
      </trkpt>
      <trkpt lat="44.39555" lon="3.89714">
        <ele>1269</ele>
        <time>2017-03-05T02:47:38Z</time>
      </trkpt>
      <trkpt lat="44.39573" lon="3.89726">
        <ele>1266</ele>
        <time>2017-03-05T02:49:38Z</time>
      </trkpt>
      <trkpt lat="44.39644" lon="3.89752">
        <ele>1256</ele>
        <time>2017-03-05T02:51:38Z</time>
      </trkpt>
      <trkpt lat="44.39752" lon="3.89782">
        <ele>1248</ele>
        <time>2017-03-05T02:53:38Z</time>
      </trkpt>
      <trkpt lat="44.39787" lon="3.898">
        <ele>1248</ele>
        <time>2017-03-05T02:55:38Z</time>
      </trkpt>
      <trkpt lat="44.39837" lon="3.89826">
        <ele>1247</ele>
        <time>2017-03-05T02:57:38Z</time>
      </trkpt>
      <trkpt lat="44.39884" lon="3.8984">
        <ele>1234</ele>
        <time>2017-03-05T02:59:38Z</time>
      </trkpt>
      <trkpt lat="44.39904" lon="3.89857">
        <ele>1228</ele>
        <time>2017-03-05T03:01:38Z</time>
      </trkpt>
      <trkpt lat="44.39905" lon="3.89859">
        <ele>1228</ele>
        <time>2017-03-05T03:03:38Z</time>
      </trkpt>
      <trkpt lat="44.39907" lon="3.8986">
        <ele>1227</ele>
        <time>2017-03-05T03:05:38Z</time>
      </trkpt>
      <trkpt lat="44.39908" lon="3.89862">
        <ele>1227</ele>
        <time>2017-03-05T03:07:38Z</time>
      </trkpt>
      <trkpt lat="44.39909" lon="3.89864">
        <ele>1226</ele>
        <time>2017-03-05T03:09:38Z</time>
      </trkpt>
      <trkpt lat="44.3991" lon="3.89867">
        <ele>1226</ele>
        <time>2017-03-05T03:11:38Z</time>
      </trkpt>
      <trkpt lat="44.39911" lon="3.89871">
        <ele>1226</ele>
        <time>2017-03-05T03:13:38Z</time>
      </trkpt>
      <trkpt lat="44.39912" lon="3.89874">
        <ele>1226</ele>
        <time>2017-03-05T03:15:38Z</time>
      </trkpt>
      <trkpt lat="44.39912" lon="3.89877">
        <ele>1226</ele>
        <time>2017-03-05T03:17:38Z</time>
      </trkpt>
      <trkpt lat="44.39912" lon="3.89881">
        <ele>1227</ele>
        <time>2017-03-05T03:19:38Z</time>
      </trkpt>
      <trkpt lat="44.39912" lon="3.89885">
        <ele>1227</ele>
        <time>2017-03-05T03:21:38Z</time>
      </trkpt>
      <trkpt lat="44.39911" lon="3.89891">
        <ele>1228</ele>
        <time>2017-03-05T03:23:38Z</time>
      </trkpt>
      <trkpt lat="44.39909" lon="3.89897">
        <ele>1229</ele>
        <time>2017-03-05T03:25:38Z</time>
      </trkpt>
      <trkpt lat="44.39907" lon="3.89904">
        <ele>1231</ele>
        <time>2017-03-05T03:27:38Z</time>
      </trkpt>
      <trkpt lat="44.39906" lon="3.8991">
        <ele>1232</ele>
        <time>2017-03-05T03:29:38Z</time>
      </trkpt>
      <trkpt lat="44.39897" lon="3.89937">
        <ele>1235</ele>
        <time>2017-03-05T03:31:38Z</time>
      </trkpt>
      <trkpt lat="44.39888" lon="3.89967">
        <ele>1236</ele>
        <time>2017-03-05T03:33:38Z</time>
      </trkpt>
      <trkpt lat="44.39878" lon="3.90008">
        <ele>1237</ele>
        <time>2017-03-05T03:35:38Z</time>
      </trkpt>
      <trkpt lat="44.39869" lon="3.90058">
        <ele>1237</ele>
        <time>2017-03-05T03:37:38Z</time>
      </trkpt>
      <trkpt lat="44.39865" lon="3.90078">
        <ele>1237</ele>
        <time>2017-03-05T03:39:38Z</time>
      </trkpt>
      <trkpt lat="44.39864" lon="3.90085">
        <ele>1237</ele>
        <time>2017-03-05T03:41:38Z</time>
      </trkpt>
      <trkpt lat="44.39863" lon="3.90095">
        <ele>1237</ele>
        <time>2017-03-05T03:43:38Z</time>
      </trkpt>
      <trkpt lat="44.39862" lon="3.90103">
        <ele>1238</ele>
        <time>2017-03-05T03:45:38Z</time>
      </trkpt>
      <trkpt lat="44.39863" lon="3.90112">
        <ele>1237</ele>
        <time>2017-03-05T03:47:38Z</time>
      </trkpt>
      <trkpt lat="44.39864" lon="3.90122">
        <ele>1236</ele>
        <time>2017-03-05T03:49:38Z</time>
      </trkpt>
      <trkpt lat="44.39865" lon="3.90136">
        <ele>1234</ele>
        <time>2017-03-05T03:51:38Z</time>
      </trkpt>
      <trkpt lat="44.39872" lon="3.90197">
        <ele>1230</ele>
        <time>2017-03-05T03:53:38Z</time>
      </trkpt>
      <trkpt lat="44.39879" lon="3.90241">
        <ele>1227</ele>
        <time>2017-03-05T03:55:38Z</time>
      </trkpt>
      <trkpt lat="44.39881" lon="3.9027">
        <ele>1226</ele>
        <time>2017-03-05T03:57:38Z</time>
      </trkpt>
      <trkpt lat="44.39882" lon="3.90293">
        <ele>1225</ele>
        <time>2017-03-05T03:59:38Z</time>
      </trkpt>
      <trkpt lat="44.3988" lon="3.90312">
        <ele>1226</ele>
        <time>2017-03-05T04:01:38Z</time>
      </trkpt>
      <trkpt lat="44.39879" lon="3.90322">
        <ele>1226</ele>
        <time>2017-03-05T04:03:38Z</time>
      </trkpt>
      <trkpt lat="44.39878" lon="3.9033">
        <ele>1227</ele>
        <time>2017-03-05T04:05:38Z</time>
      </trkpt>
      <trkpt lat="44.39876" lon="3.90336">
        <ele>1227</ele>
        <time>2017-03-05T04:07:38Z</time>
      </trkpt>
      <trkpt lat="44.39874" lon="3.90344">
        <ele>1227</ele>
        <time>2017-03-05T04:09:38Z</time>
      </trkpt>
      <trkpt lat="44.3987" lon="3.90354">
        <ele>1226</ele>
        <time>2017-03-05T04:11:38Z</time>
      </trkpt>
      <trkpt lat="44.39868" lon="3.9036">
        <ele>1226</ele>
        <time>2017-03-05T04:13:38Z</time>
      </trkpt>
      <trkpt lat="44.39864" lon="3.90366">
        <ele>1227</ele>
        <time>2017-03-05T04:15:38Z</time>
      </trkpt>
      <trkpt lat="44.39856" lon="3.90375">
        <ele>1228</ele>
        <time>2017-03-05T04:17:38Z</time>
      </trkpt>
      <trkpt lat="44.39866" lon="3.90382">
        <ele>1223</ele>
        <time>2017-03-05T04:19:38Z</time>
      </trkpt>
      <trkpt lat="44.39908" lon="3.9038">
        <ele>1207</ele>
        <time>2017-03-05T04:21:38Z</time>
      </trkpt>
      <trkpt lat="44.39924" lon="3.9038">
        <ele>1200</ele>
        <time>2017-03-05T04:23:38Z</time>
      </trkpt>
      <trkpt lat="44.39951" lon="3.904">
        <ele>1185</ele>
        <time>2017-03-05T04:25:38Z</time>
      </trkpt>
      <trkpt lat="44.3997" lon="3.90437">
        <ele>1171</ele>
        <time>2017-03-05T04:27:38Z</time>
      </trkpt>
      <trkpt lat="44.39975" lon="3.90455">
        <ele>1166</ele>
        <time>2017-03-05T04:29:38Z</time>
      </trkpt>
      <trkpt lat="44.39991" lon="3.90521">
        <ele>1148</ele>
        <time>2017-03-05T04:31:38Z</time>
      </trkpt>
      <trkpt lat="44.4" lon="3.90539">
        <ele>1142</ele>
        <time>2017-03-05T04:33:38Z</time>
      </trkpt>
      <trkpt lat="44.4" lon="3.90539">
        <ele>1142</ele>
        <time>2017-03-05T04:35:38Z</time>
      </trkpt>
      <trkpt lat="44.40006" lon="3.90534">
        <ele>1140</ele>
        <time>2017-03-05T04:37:38Z</time>
      </trkpt>
      <trkpt lat="44.40014" lon="3.90518">
        <ele>1140</ele>
        <time>2017-03-05T04:39:38Z</time>
      </trkpt>
      <trkpt lat="44.40024" lon="3.90493">
        <ele>1139</ele>
        <time>2017-03-05T04:41:38Z</time>
      </trkpt>
      <trkpt lat="44.40031" lon="3.90474">
        <ele>1139</ele>
        <time>2017-03-05T04:43:38Z</time>
      </trkpt>
      <trkpt lat="44.40036" lon="3.90458">
        <ele>1139</ele>
        <time>2017-03-05T04:45:38Z</time>
      </trkpt>
      <trkpt lat="44.4004" lon="3.90444">
        <ele>1139</ele>
        <time>2017-03-05T04:47:38Z</time>
      </trkpt>
      <trkpt lat="44.40043" lon="3.90438">
        <ele>1138</ele>
        <time>2017-03-05T04:49:38Z</time>
      </trkpt>
      <trkpt lat="44.40045" lon="3.90431">
        <ele>1138</ele>
        <time>2017-03-05T04:51:38Z</time>
      </trkpt>
      <trkpt lat="44.40047" lon="3.90425">
        <ele>1138</ele>
        <time>2017-03-05T04:53:38Z</time>
      </trkpt>
      <trkpt lat="44.4005" lon="3.90419">
        <ele>1137</ele>
        <time>2017-03-05T04:55:38Z</time>
      </trkpt>
      <trkpt lat="44.40061" lon="3.90404">
        <ele>1134</ele>
        <time>2017-03-05T04:57:38Z</time>
      </trkpt>
      <trkpt lat="44.40069" lon="3.90393">
        <ele>1132</ele>
        <time>2017-03-05T04:59:38Z</time>
      </trkpt>
      <trkpt lat="44.40077" lon="3.9038">
        <ele>1130</ele>
        <time>2017-03-05T05:01:38Z</time>
      </trkpt>
      <trkpt lat="44.40085" lon="3.90368">
        <ele>1128</ele>
        <time>2017-03-05T05:03:38Z</time>
      </trkpt>
      <trkpt lat="44.40093" lon="3.9035">
        <ele>1127</ele>
        <time>2017-03-05T05:05:38Z</time>
      </trkpt>
      <trkpt lat="44.40097" lon="3.90338">
        <ele>1127</ele>
        <time>2017-03-05T05:07:38Z</time>
      </trkpt>
      <trkpt lat="44.401" lon="3.90325">
        <ele>1126</ele>
        <time>2017-03-05T05:09:38Z</time>
      </trkpt>
      <trkpt lat="44.40102" lon="3.90315">
        <ele>1125</ele>
        <time>2017-03-05T05:11:38Z</time>
      </trkpt>
      <trkpt lat="44.40103" lon="3.90307">
        <ele>1124</ele>
        <time>2017-03-05T05:13:38Z</time>
      </trkpt>
      <trkpt lat="44.40104" lon="3.90298">
        <ele>1124</ele>
        <time>2017-03-05T05:15:38Z</time>
      </trkpt>
      <trkpt lat="44.40104" lon="3.90291">
        <ele>1124</ele>
        <time>2017-03-05T05:17:38Z</time>
      </trkpt>
      <trkpt lat="44.40104" lon="3.90283">
        <ele>1123</ele>
        <time>2017-03-05T05:19:38Z</time>
      </trkpt>
      <trkpt lat="44.40104" lon="3.90277">
        <ele>1123</ele>
        <time>2017-03-05T05:21:38Z</time>
      </trkpt>
      <trkpt lat="44.40103" lon="3.90269">
        <ele>1123</ele>
        <time>2017-03-05T05:23:38Z</time>
      </trkpt>
      <trkpt lat="44.40102" lon="3.90264">
        <ele>1123</ele>
        <time>2017-03-05T05:25:38Z</time>
      </trkpt>
      <trkpt lat="44.401" lon="3.9026">
        <ele>1124</ele>
        <time>2017-03-05T05:27:38Z</time>
      </trkpt>
      <trkpt lat="44.40098" lon="3.90254">
        <ele>1124</ele>
        <time>2017-03-05T05:29:38Z</time>
      </trkpt>
      <trkpt lat="44.40096" lon="3.9025">
        <ele>1125</ele>
        <time>2017-03-05T05:31:38Z</time>
      </trkpt>
      <trkpt lat="44.40095" lon="3.90244">
        <ele>1124</ele>
        <time>2017-03-05T05:33:38Z</time>
      </trkpt>
      <trkpt lat="44.40095" lon="3.90241">
        <ele>1124</ele>
        <time>2017-03-05T05:35:38Z</time>
      </trkpt>
      <trkpt lat="44.40096" lon="3.9024">
        <ele>1124</ele>
        <time>2017-03-05T05:37:38Z</time>
      </trkpt>
      <trkpt lat="44.40099" lon="3.90239">
        <ele>1122</ele>
        <time>2017-03-05T05:39:38Z</time>
      </trkpt>
      <trkpt lat="44.40102" lon="3.90239">
        <ele>1121</ele>
        <time>2017-03-05T05:41:38Z</time>
      </trkpt>
      <trkpt lat="44.40103" lon="3.90241">
        <ele>1121</ele>
        <time>2017-03-05T05:43:38Z</time>
      </trkpt>
      <trkpt lat="44.40111" lon="3.90268">
        <ele>1120</ele>
        <time>2017-03-05T05:45:38Z</time>
      </trkpt>
      <trkpt lat="44.40118" lon="3.90292">
        <ele>1119</ele>
        <time>2017-03-05T05:47:38Z</time>
      </trkpt>
      <trkpt lat="44.40122" lon="3.90307">
        <ele>1117</ele>
        <time>2017-03-05T05:49:38Z</time>
      </trkpt>
      <trkpt lat="44.40123" lon="3.90315">
        <ele>1117</ele>
        <time>2017-03-05T05:51:38Z</time>
      </trkpt>
      <trkpt lat="44.40124" lon="3.90324">
        <ele>1117</ele>
        <time>2017-03-05T05:53:38Z</time>
      </trkpt>
      <trkpt lat="44.40124" lon="3.90331">
        <ele>1117</ele>
        <time>2017-03-05T05:55:38Z</time>
      </trkpt>
      <trkpt lat="44.40124" lon="3.9034">
        <ele>1116</ele>
        <time>2017-03-05T05:57:38Z</time>
      </trkpt>
      <trkpt lat="44.40123" lon="3.90348">
        <ele>1115</ele>
        <time>2017-03-05T05:59:38Z</time>
      </trkpt>
      <trkpt lat="44.40121" lon="3.90362">
        <ele>1114</ele>
        <time>2017-03-05T06:01:38Z</time>
      </trkpt>
      <trkpt lat="44.40116" lon="3.90378">
        <ele>1114</ele>
        <time>2017-03-05T06:03:38Z</time>
      </trkpt>
      <trkpt lat="44.40109" lon="3.90394">
        <ele>1115</ele>
        <time>2017-03-05T06:05:38Z</time>
      </trkpt>
      <trkpt lat="44.40105" lon="3.90403">
        <ele>1116</ele>
        <time>2017-03-05T06:07:38Z</time>
      </trkpt>
      <trkpt lat="44.40099" lon="3.90416">
        <ele>1117</ele>
        <time>2017-03-05T06:09:38Z</time>
      </trkpt>
      <trkpt lat="44.40093" lon="3.90435">
        <ele>1117</ele>
        <time>2017-03-05T06:11:38Z</time>
      </trkpt>
      <trkpt lat="44.40087" lon="3.90454">
        <ele>1117</ele>
        <time>2017-03-05T06:13:38Z</time>
      </trkpt>
      <trkpt lat="44.40084" lon="3.90466">
        <ele>1116</ele>
        <time>2017-03-05T06:15:38Z</time>
      </trkpt>
      <trkpt lat="44.40083" lon="3.90473">
        <ele>1116</ele>
        <time>2017-03-05T06:17:38Z</time>
      </trkpt>
      <trkpt lat="44.40083" lon="3.90478">
        <ele>1115</ele>
        <time>2017-03-05T06:19:38Z</time>
      </trkpt>
      <trkpt lat="44.40083" lon="3.90484">
        <ele>1114</ele>
        <time>2017-03-05T06:21:38Z</time>
      </trkpt>
      <trkpt lat="44.40083" lon="3.90489">
        <ele>1114</ele>
        <time>2017-03-05T06:23:38Z</time>
      </trkpt>
      <trkpt lat="44.40086" lon="3.90515">
        <ele>1110</ele>
        <time>2017-03-05T06:25:38Z</time>
      </trkpt>
      <trkpt lat="44.40092" lon="3.90557">
        <ele>1105</ele>
        <time>2017-03-05T06:27:38Z</time>
      </trkpt>
      <trkpt lat="44.40097" lon="3.90595">
        <ele>1102</ele>
        <time>2017-03-05T06:29:38Z</time>
      </trkpt>
      <trkpt lat="44.40101" lon="3.9063">
        <ele>1100</ele>
        <time>2017-03-05T06:31:38Z</time>
      </trkpt>
      <trkpt lat="44.40105" lon="3.90658">
        <ele>1100</ele>
        <time>2017-03-05T06:33:38Z</time>
      </trkpt>
      <trkpt lat="44.40105" lon="3.9067">
        <ele>1100</ele>
        <time>2017-03-05T06:35:38Z</time>
      </trkpt>
      <trkpt lat="44.40104" lon="3.9068">
        <ele>1099</ele>
        <time>2017-03-05T06:37:38Z</time>
      </trkpt>
      <trkpt lat="44.40104" lon="3.90683">
        <ele>1099</ele>
        <time>2017-03-05T06:39:38Z</time>
      </trkpt>
      <trkpt lat="44.40102" lon="3.90689">
        <ele>1099</ele>
        <time>2017-03-05T06:41:38Z</time>
      </trkpt>
      <trkpt lat="44.40102" lon="3.90689">
        <ele>1099</ele>
        <time>2017-03-05T06:43:38Z</time>
      </trkpt>
      <trkpt lat="44.40121" lon="3.90696">
        <ele>1099</ele>
        <time>2017-03-05T06:45:38Z</time>
      </trkpt>
      <trkpt lat="44.4014" lon="3.90706">
        <ele>1100</ele>
        <time>2017-03-05T06:47:38Z</time>
      </trkpt>
      <trkpt lat="44.40154" lon="3.90711">
        <ele>1101</ele>
        <time>2017-03-05T06:49:38Z</time>
      </trkpt>
      <trkpt lat="44.40168" lon="3.90719">
        <ele>1103</ele>
        <time>2017-03-05T06:51:38Z</time>
      </trkpt>
      <trkpt lat="44.40191" lon="3.90733">
        <ele>1104</ele>
        <time>2017-03-05T06:53:38Z</time>
      </trkpt>
      <trkpt lat="44.40208" lon="3.90741">
        <ele>1106</ele>
        <time>2017-03-05T06:55:38Z</time>
      </trkpt>
      <trkpt lat="44.4022" lon="3.90747">
        <ele>1107</ele>
        <time>2017-03-05T06:57:38Z</time>
      </trkpt>
      <trkpt lat="44.40232" lon="3.90754">
        <ele>1107</ele>
        <time>2017-03-05T06:59:38Z</time>
      </trkpt>
      <trkpt lat="44.40248" lon="3.90777">
        <ele>1107</ele>
        <time>2017-03-05T07:01:38Z</time>
      </trkpt>
      <trkpt lat="44.4026" lon="3.90794">
        <ele>1104</ele>
        <time>2017-03-05T07:03:38Z</time>
      </trkpt>
      <trkpt lat="44.40268" lon="3.90814">
        <ele>1102</ele>
        <time>2017-03-05T07:05:38Z</time>
      </trkpt>
      <trkpt lat="44.40277" lon="3.90839">
        <ele>1101</ele>
        <time>2017-03-05T07:07:38Z</time>
      </trkpt>
      <trkpt lat="44.40286" lon="3.90866">
        <ele>1099</ele>
        <time>2017-03-05T07:09:38Z</time>
      </trkpt>
      <trkpt lat="44.40292" lon="3.90891">
        <ele>1099</ele>
        <time>2017-03-05T07:11:38Z</time>
      </trkpt>
      <trkpt lat="44.40294" lon="3.90906">
        <ele>1099</ele>
        <time>2017-03-05T07:13:38Z</time>
      </trkpt>
      <trkpt lat="44.40294" lon="3.90913">
        <ele>1099</ele>
        <time>2017-03-05T07:15:38Z</time>
      </trkpt>
      <trkpt lat="44.40294" lon="3.9092">
        <ele>1099</ele>
        <time>2017-03-05T07:17:38Z</time>
      </trkpt>
      <trkpt lat="44.40293" lon="3.90928">
        <ele>1098</ele>
        <time>2017-03-05T07:19:38Z</time>
      </trkpt>
      <trkpt lat="44.40292" lon="3.90937">
        <ele>1098</ele>
        <time>2017-03-05T07:21:38Z</time>
      </trkpt>
      <trkpt lat="44.40291" lon="3.90944">
        <ele>1098</ele>
        <time>2017-03-05T07:23:38Z</time>
      </trkpt>
      <trkpt lat="44.40292" lon="3.90951">
        <ele>1098</ele>
        <time>2017-03-05T07:25:38Z</time>
      </trkpt>
      <trkpt lat="44.40294" lon="3.90955">
        <ele>1098</ele>
        <time>2017-03-05T07:27:38Z</time>
      </trkpt>
      <trkpt lat="44.40297" lon="3.90958">
        <ele>1098</ele>
        <time>2017-03-05T07:29:38Z</time>
      </trkpt>
      <trkpt lat="44.40302" lon="3.90963">
        <ele>1099</ele>
        <time>2017-03-05T07:31:38Z</time>
      </trkpt>
      <trkpt lat="44.40308" lon="3.90966">
        <ele>1100</ele>
        <time>2017-03-05T07:33:38Z</time>
      </trkpt>
      <trkpt lat="44.40311" lon="3.90972">
        <ele>1100</ele>
        <time>2017-03-05T07:35:38Z</time>
      </trkpt>
      <trkpt lat="44.40314" lon="3.90978">
        <ele>1101</ele>
        <time>2017-03-05T07:37:38Z</time>
      </trkpt>
      <trkpt lat="44.40317" lon="3.90984">
        <ele>1102</ele>
        <time>2017-03-05T07:39:38Z</time>
      </trkpt>
      <trkpt lat="44.4032" lon="3.90991">
        <ele>1102</ele>
        <time>2017-03-05T07:41:38Z</time>
      </trkpt>
      <trkpt lat="44.40323" lon="3.90999">
        <ele>1103</ele>
        <time>2017-03-05T07:43:38Z</time>
      </trkpt>
      <trkpt lat="44.40324" lon="3.91008">
        <ele>1103</ele>
        <time>2017-03-05T07:45:38Z</time>
      </trkpt>
      <trkpt lat="44.40325" lon="3.91015">
        <ele>1104</ele>
        <time>2017-03-05T07:47:38Z</time>
      </trkpt>
      <trkpt lat="44.40328" lon="3.91023">
        <ele>1105</ele>
        <time>2017-03-05T07:49:38Z</time>
      </trkpt>
      <trkpt lat="44.40331" lon="3.91029">
        <ele>1105</ele>
        <time>2017-03-05T07:51:38Z</time>
      </trkpt>
      <trkpt lat="44.40334" lon="3.91038">
        <ele>1106</ele>
        <time>2017-03-05T07:53:38Z</time>
      </trkpt>
      <trkpt lat="44.4034" lon="3.91063">
        <ele>1105</ele>
        <time>2017-03-05T07:55:38Z</time>
      </trkpt>
      <trkpt lat="44.40345" lon="3.91086">
        <ele>1105</ele>
        <time>2017-03-05T07:57:38Z</time>
      </trkpt>
      <trkpt lat="44.40348" lon="3.91102">
        <ele>1105</ele>
        <time>2017-03-05T07:59:38Z</time>
      </trkpt>
      <trkpt lat="44.40349" lon="3.91138">
        <ele>1104</ele>
        <time>2017-03-05T08:01:38Z</time>
      </trkpt>
      <trkpt lat="44.40346" lon="3.91155">
        <ele>1104</ele>
        <time>2017-03-05T08:03:38Z</time>
      </trkpt>
      <trkpt lat="44.40346" lon="3.91176">
        <ele>1104</ele>
        <time>2017-03-05T08:05:38Z</time>
      </trkpt>
      <trkpt lat="44.40344" lon="3.91191">
        <ele>1103</ele>
        <time>2017-03-05T08:07:38Z</time>
      </trkpt>
      <trkpt lat="44.40345" lon="3.91201">
        <ele>1102</ele>
        <time>2017-03-05T08:09:38Z</time>
      </trkpt>
      <trkpt lat="44.40345" lon="3.9121">
        <ele>1101</ele>
        <time>2017-03-05T08:11:38Z</time>
      </trkpt>
      <trkpt lat="44.40383" lon="3.91316">
        <ele>1087</ele>
        <time>2017-03-05T08:13:38Z</time>
      </trkpt>
      <trkpt lat="44.40395" lon="3.91342">
        <ele>1084</ele>
        <time>2017-03-05T08:15:38Z</time>
      </trkpt>
      <trkpt lat="44.40398" lon="3.91357">
        <ele>1084</ele>
        <time>2017-03-05T08:17:38Z</time>
      </trkpt>
      <trkpt lat="44.40402" lon="3.9137">
        <ele>1084</ele>
        <time>2017-03-05T08:19:38Z</time>
      </trkpt>
      <trkpt lat="44.40402" lon="3.91376">
        <ele>1084</ele>
        <time>2017-03-05T08:21:38Z</time>
      </trkpt>
      <trkpt lat="44.40401" lon="3.91384">
        <ele>1084</ele>
        <time>2017-03-05T08:23:38Z</time>
      </trkpt>
      <trkpt lat="44.40402" lon="3.91392">
        <ele>1084</ele>
        <time>2017-03-05T08:25:38Z</time>
      </trkpt>
      <trkpt lat="44.40403" lon="3.91401">
        <ele>1084</ele>
        <time>2017-03-05T08:27:38Z</time>
      </trkpt>
      <trkpt lat="44.40404" lon="3.9141">
        <ele>1084</ele>
        <time>2017-03-05T08:29:38Z</time>
      </trkpt>
      <trkpt lat="44.40407" lon="3.91421">
        <ele>1085</ele>
        <time>2017-03-05T08:31:38Z</time>
      </trkpt>
      <trkpt lat="44.40408" lon="3.91429">
        <ele>1086</ele>
        <time>2017-03-05T08:33:38Z</time>
      </trkpt>
      <trkpt lat="44.4041" lon="3.91435">
        <ele>1088</ele>
        <time>2017-03-05T08:35:38Z</time>
      </trkpt>
      <trkpt lat="44.40413" lon="3.91441">
        <ele>1089</ele>
        <time>2017-03-05T08:37:38Z</time>
      </trkpt>
      <trkpt lat="44.40416" lon="3.91446">
        <ele>1090</ele>
        <time>2017-03-05T08:39:38Z</time>
      </trkpt>
      <trkpt lat="44.40418" lon="3.91451">
        <ele>1091</ele>
        <time>2017-03-05T08:41:38Z</time>
      </trkpt>
      <trkpt lat="44.40419" lon="3.91458">
        <ele>1091</ele>
        <time>2017-03-05T08:43:38Z</time>
      </trkpt>
      <trkpt lat="44.40419" lon="3.91467">
        <ele>1093</ele>
        <time>2017-03-05T08:45:38Z</time>
      </trkpt>
      <trkpt lat="44.40419" lon="3.91475">
        <ele>1094</ele>
        <time>2017-03-05T08:47:38Z</time>
      </trkpt>
      <trkpt lat="44.40419" lon="3.91483">
        <ele>1094</ele>
        <time>2017-03-05T08:49:38Z</time>
      </trkpt>
      <trkpt lat="44.40417" lon="3.91494">
        <ele>1096</ele>
        <time>2017-03-05T08:51:38Z</time>
      </trkpt>
      <trkpt lat="44.40416" lon="3.91502">
        <ele>1097</ele>
        <time>2017-03-05T08:53:38Z</time>
      </trkpt>
      <trkpt lat="44.40419" lon="3.91508">
        <ele>1097</ele>
        <time>2017-03-05T08:55:38Z</time>
      </trkpt>
      <trkpt lat="44.40421" lon="3.91517">
        <ele>1096</ele>
        <time>2017-03-05T08:57:38Z</time>
      </trkpt>
      <trkpt lat="44.40421" lon="3.91525">
        <ele>1096</ele>
        <time>2017-03-05T08:59:38Z</time>
      </trkpt>
      <trkpt lat="44.40423" lon="3.91536">
        <ele>1096</ele>
        <time>2017-03-05T09:01:38Z</time>
      </trkpt>
      <trkpt lat="44.40427" lon="3.91545">
        <ele>1096</ele>
        <time>2017-03-05T09:03:38Z</time>
      </trkpt>
      <trkpt lat="44.40431" lon="3.91552">
        <ele>1096</ele>
        <time>2017-03-05T09:05:38Z</time>
      </trkpt>
      <trkpt lat="44.40435" lon="3.91561">
        <ele>1096</ele>
        <time>2017-03-05T09:07:38Z</time>
      </trkpt>
      <trkpt lat="44.40438" lon="3.91568">
        <ele>1096</ele>
        <time>2017-03-05T09:09:38Z</time>
      </trkpt>
      <trkpt lat="44.40442" lon="3.91575">
        <ele>1097</ele>
        <time>2017-03-05T09:11:38Z</time>
      </trkpt>
      <trkpt lat="44.40447" lon="3.91582">
        <ele>1097</ele>
        <time>2017-03-05T09:13:38Z</time>
      </trkpt>
      <trkpt lat="44.40451" lon="3.91592">
        <ele>1097</ele>
        <time>2017-03-05T09:15:38Z</time>
      </trkpt>
      <trkpt lat="44.40455" lon="3.91601">
        <ele>1098</ele>
        <time>2017-03-05T09:17:38Z</time>
      </trkpt>
      <trkpt lat="44.40459" lon="3.91614">
        <ele>1099</ele>
        <time>2017-03-05T09:19:38Z</time>
      </trkpt>
      <trkpt lat="44.40462" lon="3.91628">
        <ele>1100</ele>
        <time>2017-03-05T09:21:38Z</time>
      </trkpt>
      <trkpt lat="44.40467" lon="3.91639">
        <ele>1101</ele>
        <time>2017-03-05T09:23:38Z</time>
      </trkpt>
      <trkpt lat="44.40473" lon="3.91649">
        <ele>1103</ele>
        <time>2017-03-05T09:25:38Z</time>
      </trkpt>
      <trkpt lat="44.40479" lon="3.91658">
        <ele>1104</ele>
        <time>2017-03-05T09:27:38Z</time>
      </trkpt>
      <trkpt lat="44.40486" lon="3.91666">
        <ele>1106</ele>
        <time>2017-03-05T09:29:38Z</time>
      </trkpt>
      <trkpt lat="44.40499" lon="3.91683">
        <ele>1107</ele>
        <time>2017-03-05T09:31:38Z</time>
      </trkpt>
      <trkpt lat="44.40506" lon="3.91696">
        <ele>1106</ele>
        <time>2017-03-05T09:33:38Z</time>
      </trkpt>
      <trkpt lat="44.4051" lon="3.91699">
        <ele>1105</ele>
        <time>2017-03-05T09:35:38Z</time>
      </trkpt>
      <trkpt lat="44.40513" lon="3.91706">
        <ele>1104</ele>
        <time>2017-03-05T09:37:38Z</time>
      </trkpt>
      <trkpt lat="44.40515" lon="3.91715">
        <ele>1104</ele>
        <time>2017-03-05T09:39:38Z</time>
      </trkpt>
      <trkpt lat="44.40517" lon="3.9172">
        <ele>1104</ele>
        <time>2017-03-05T09:41:38Z</time>
      </trkpt>
      <trkpt lat="44.40518" lon="3.91726">
        <ele>1104</ele>
        <time>2017-03-05T09:43:38Z</time>
      </trkpt>
      <trkpt lat="44.40521" lon="3.91734">
        <ele>1104</ele>
        <time>2017-03-05T09:45:38Z</time>
      </trkpt>
      <trkpt lat="44.40523" lon="3.91739">
        <ele>1104</ele>
        <time>2017-03-05T09:47:38Z</time>
      </trkpt>
      <trkpt lat="44.40526" lon="3.91745">
        <ele>1104</ele>
        <time>2017-03-05T09:49:38Z</time>
      </trkpt>
      <trkpt lat="44.40532" lon="3.91752">
        <ele>1103</ele>
        <time>2017-03-05T09:51:38Z</time>
      </trkpt>
      <trkpt lat="44.40536" lon="3.91756">
        <ele>1102</ele>
        <time>2017-03-05T09:53:38Z</time>
      </trkpt>
      <trkpt lat="44.40538" lon="3.91759">
        <ele>1102</ele>
        <time>2017-03-05T09:55:38Z</time>
      </trkpt>
      <trkpt lat="44.40541" lon="3.91761">
        <ele>1102</ele>
        <time>2017-03-05T09:57:38Z</time>
      </trkpt>
      <trkpt lat="44.40544" lon="3.91763">
        <ele>1101</ele>
        <time>2017-03-05T09:59:38Z</time>
      </trkpt>
      <trkpt lat="44.40547" lon="3.91764">
        <ele>1101</ele>
        <time>2017-03-05T10:01:38Z</time>
      </trkpt>
      <trkpt lat="44.4055" lon="3.91764">
        <ele>1101</ele>
        <time>2017-03-05T10:03:38Z</time>
      </trkpt>
      <trkpt lat="44.40554" lon="3.91765">
        <ele>1101</ele>
        <time>2017-03-05T10:05:38Z</time>
      </trkpt>
      <trkpt lat="44.40557" lon="3.91765">
        <ele>1101</ele>
        <time>2017-03-05T10:07:38Z</time>
      </trkpt>
      <trkpt lat="44.40563" lon="3.91765">
        <ele>1102</ele>
        <time>2017-03-05T10:09:38Z</time>
      </trkpt>
      <trkpt lat="44.40567" lon="3.91765">
        <ele>1102</ele>
        <time>2017-03-05T10:11:38Z</time>
      </trkpt>
      <trkpt lat="44.40572" lon="3.91765">
        <ele>1102</ele>
        <time>2017-03-05T10:13:38Z</time>
      </trkpt>
      <trkpt lat="44.40574" lon="3.91765">
        <ele>1102</ele>
        <time>2017-03-05T10:15:38Z</time>
      </trkpt>
      <trkpt lat="44.40578" lon="3.91767">
        <ele>1102</ele>
        <time>2017-03-05T10:17:38Z</time>
      </trkpt>
      <trkpt lat="44.40581" lon="3.91768">
        <ele>1102</ele>
        <time>2017-03-05T10:19:38Z</time>
      </trkpt>
      <trkpt lat="44.40584" lon="3.91771">
        <ele>1101</ele>
        <time>2017-03-05T10:21:38Z</time>
      </trkpt>
      <trkpt lat="44.40587" lon="3.91773">
        <ele>1100</ele>
        <time>2017-03-05T10:23:38Z</time>
      </trkpt>
      <trkpt lat="44.4059" lon="3.91774">
        <ele>1099</ele>
        <time>2017-03-05T10:25:38Z</time>
      </trkpt>
      <trkpt lat="44.40593" lon="3.91774">
        <ele>1099</ele>
        <time>2017-03-05T10:27:38Z</time>
      </trkpt>
      <trkpt lat="44.40597" lon="3.91778">
        <ele>1098</ele>
        <time>2017-03-05T10:29:38Z</time>
      </trkpt>
      <trkpt lat="44.406" lon="3.91779">
        <ele>1097</ele>
        <time>2017-03-05T10:31:38Z</time>
      </trkpt>
      <trkpt lat="44.40604" lon="3.91779">
        <ele>1096</ele>
        <time>2017-03-05T10:33:38Z</time>
      </trkpt>
      <trkpt lat="44.40609" lon="3.91781">
        <ele>1095</ele>
        <time>2017-03-05T10:35:38Z</time>
      </trkpt>
      <trkpt lat="44.40613" lon="3.91782">
        <ele>1094</ele>
        <time>2017-03-05T10:37:38Z</time>
      </trkpt>
      <trkpt lat="44.40617" lon="3.91782">
        <ele>1094</ele>
        <time>2017-03-05T10:39:38Z</time>
      </trkpt>
      <trkpt lat="44.4062" lon="3.91781">
        <ele>1093</ele>
        <time>2017-03-05T10:41:38Z</time>
      </trkpt>
      <trkpt lat="44.40623" lon="3.91779">
        <ele>1093</ele>
        <time>2017-03-05T10:43:38Z</time>
      </trkpt>
      <trkpt lat="44.40627" lon="3.91778">
        <ele>1092</ele>
        <time>2017-03-05T10:45:38Z</time>
      </trkpt>
      <trkpt lat="44.4063" lon="3.91778">
        <ele>1092</ele>
        <time>2017-03-05T10:47:38Z</time>
      </trkpt>
      <trkpt lat="44.40634" lon="3.91777">
        <ele>1091</ele>
        <time>2017-03-05T10:49:38Z</time>
      </trkpt>
      <trkpt lat="44.40639" lon="3.91777">
        <ele>1090</ele>
        <time>2017-03-05T10:51:38Z</time>
      </trkpt>
      <trkpt lat="44.40643" lon="3.91777">
        <ele>1090</ele>
        <time>2017-03-05T10:53:38Z</time>
      </trkpt>
      <trkpt lat="44.40647" lon="3.91777">
        <ele>1089</ele>
        <time>2017-03-05T10:55:38Z</time>
      </trkpt>
      <trkpt lat="44.40651" lon="3.91779">
        <ele>1088</ele>
        <time>2017-03-05T10:57:38Z</time>
      </trkpt>
      <trkpt lat="44.40656" lon="3.91781">
        <ele>1087</ele>
        <time>2017-03-05T10:59:38Z</time>
      </trkpt>
      <trkpt lat="44.40659" lon="3.91784">
        <ele>1086</ele>
        <time>2017-03-05T11:01:38Z</time>
      </trkpt>
      <trkpt lat="44.40662" lon="3.91786">
        <ele>1086</ele>
        <time>2017-03-05T11:03:38Z</time>
      </trkpt>
      <trkpt lat="44.40665" lon="3.91788">
        <ele>1085</ele>
        <time>2017-03-05T11:05:38Z</time>
      </trkpt>
      <trkpt lat="44.40668" lon="3.91791">
        <ele>1085</ele>
        <time>2017-03-05T11:07:38Z</time>
      </trkpt>
      <trkpt lat="44.40671" lon="3.91793">
        <ele>1084</ele>
        <time>2017-03-05T11:09:38Z</time>
      </trkpt>
      <trkpt lat="44.40674" lon="3.91794">
        <ele>1083</ele>
        <time>2017-03-05T11:11:38Z</time>
      </trkpt>
      <trkpt lat="44.40677" lon="3.91794">
        <ele>1082</ele>
        <time>2017-03-05T11:13:38Z</time>
      </trkpt>
      <trkpt lat="44.40681" lon="3.91794">
        <ele>1081</ele>
        <time>2017-03-05T11:15:38Z</time>
      </trkpt>
      <trkpt lat="44.40684" lon="3.91791">
        <ele>1080</ele>
        <time>2017-03-05T11:17:38Z</time>
      </trkpt>
      <trkpt lat="44.40687" lon="3.91788">
        <ele>1080</ele>
        <time>2017-03-05T11:19:38Z</time>
      </trkpt>
      <trkpt lat="44.4069" lon="3.91786">
        <ele>1079</ele>
        <time>2017-03-05T11:21:38Z</time>
      </trkpt>
      <trkpt lat="44.40693" lon="3.91785">
        <ele>1078</ele>
        <time>2017-03-05T11:23:38Z</time>
      </trkpt>
      <trkpt lat="44.40696" lon="3.91785">
        <ele>1077</ele>
        <time>2017-03-05T11:25:38Z</time>
      </trkpt>
      <trkpt lat="44.40699" lon="3.91787">
        <ele>1077</ele>
        <time>2017-03-05T11:27:38Z</time>
      </trkpt>
      <trkpt lat="44.40703" lon="3.91789">
        <ele>1075</ele>
        <time>2017-03-05T11:29:38Z</time>
      </trkpt>
      <trkpt lat="44.40707" lon="3.91792">
        <ele>1074</ele>
        <time>2017-03-05T11:31:38Z</time>
      </trkpt>
      <trkpt lat="44.40717" lon="3.918">
        <ele>1072</ele>
        <time>2017-03-05T11:33:38Z</time>
      </trkpt>
      <trkpt lat="44.40726" lon="3.91809">
        <ele>1069</ele>
        <time>2017-03-05T11:35:38Z</time>
      </trkpt>
      <trkpt lat="44.40731" lon="3.91815">
        <ele>1068</ele>
        <time>2017-03-05T11:37:38Z</time>
      </trkpt>
      <trkpt lat="44.40734" lon="3.91817">
        <ele>1067</ele>
        <time>2017-03-05T11:39:38Z</time>
      </trkpt>
      <trkpt lat="44.40738" lon="3.91817">
        <ele>1066</ele>
        <time>2017-03-05T11:41:38Z</time>
      </trkpt>
      <trkpt lat="44.40745" lon="3.91818">
        <ele>1064</ele>
        <time>2017-03-05T11:43:38Z</time>
      </trkpt>
      <trkpt lat="44.40751" lon="3.91819">
        <ele>1063</ele>
        <time>2017-03-05T11:45:38Z</time>
      </trkpt>
      <trkpt lat="44.40756" lon="3.9182">
        <ele>1062</ele>
        <time>2017-03-05T11:47:38Z</time>
      </trkpt>
      <trkpt lat="44.4076" lon="3.91823">
        <ele>1061</ele>
        <time>2017-03-05T11:49:38Z</time>
      </trkpt>
      <trkpt lat="44.40765" lon="3.91826">
        <ele>1060</ele>
        <time>2017-03-05T11:51:38Z</time>
      </trkpt>
      <trkpt lat="44.40774" lon="3.91838">
        <ele>1058</ele>
        <time>2017-03-05T11:53:38Z</time>
      </trkpt>
      <trkpt lat="44.40789" lon="3.91856">
        <ele>1054</ele>
        <time>2017-03-05T11:55:38Z</time>
      </trkpt>
      <trkpt lat="44.40797" lon="3.91863">
        <ele>1052</ele>
        <time>2017-03-05T11:57:38Z</time>
      </trkpt>
      <trkpt lat="44.40803" lon="3.9187">
        <ele>1051</ele>
        <time>2017-03-05T11:59:38Z</time>
      </trkpt>
      <trkpt lat="44.40815" lon="3.91879">
        <ele>1050</ele>
        <time>2017-03-05T12:01:38Z</time>
      </trkpt>
      <trkpt lat="44.40827" lon="3.91887">
        <ele>1049</ele>
        <time>2017-03-05T12:03:38Z</time>
      </trkpt>
      <trkpt lat="44.4084" lon="3.91895">
        <ele>1047</ele>
        <time>2017-03-05T12:05:38Z</time>
      </trkpt>
      <trkpt lat="44.4085" lon="3.91902">
        <ele>1045</ele>
        <time>2017-03-05T12:07:38Z</time>
      </trkpt>
      <trkpt lat="44.40859" lon="3.91911">
        <ele>1044</ele>
        <time>2017-03-05T12:09:38Z</time>
      </trkpt>
      <trkpt lat="44.40873" lon="3.91923">
        <ele>1041</ele>
        <time>2017-03-05T12:11:38Z</time>
      </trkpt>
      <trkpt lat="44.40884" lon="3.9193">
        <ele>1039</ele>
        <time>2017-03-05T12:13:38Z</time>
      </trkpt>
      <trkpt lat="44.40895" lon="3.91937">
        <ele>1037</ele>
        <time>2017-03-05T12:15:38Z</time>
      </trkpt>
      <trkpt lat="44.40901" lon="3.91941">
        <ele>1036</ele>
        <time>2017-03-05T12:17:38Z</time>
      </trkpt>
      <trkpt lat="44.40907" lon="3.91944">
        <ele>1035</ele>
        <time>2017-03-05T12:19:38Z</time>
      </trkpt>
      <trkpt lat="44.40912" lon="3.91945">
        <ele>1035</ele>
        <time>2017-03-05T12:21:38Z</time>
      </trkpt>
      <trkpt lat="44.40917" lon="3.91947">
        <ele>1034</ele>
        <time>2017-03-05T12:23:38Z</time>
      </trkpt>
      <trkpt lat="44.40927" lon="3.91947">
        <ele>1034</ele>
        <time>2017-03-05T12:25:38Z</time>
      </trkpt>
      <trkpt lat="44.40938" lon="3.91948">
        <ele>1034</ele>
        <time>2017-03-05T12:27:38Z</time>
      </trkpt>
      <trkpt lat="44.40945" lon="3.91948">
        <ele>1034</ele>
        <time>2017-03-05T12:29:38Z</time>
      </trkpt>
      <trkpt lat="44.40959" lon="3.91945">
        <ele>1034</ele>
        <time>2017-03-05T12:31:38Z</time>
      </trkpt>
      <trkpt lat="44.40975" lon="3.91942">
        <ele>1035</ele>
        <time>2017-03-05T12:33:38Z</time>
      </trkpt>
      <trkpt lat="44.40992" lon="3.91934">
        <ele>1036</ele>
        <time>2017-03-05T12:35:38Z</time>
      </trkpt>
      <trkpt lat="44.41011" lon="3.91928">
        <ele>1036</ele>
        <time>2017-03-05T12:37:38Z</time>
      </trkpt>
      <trkpt lat="44.41027" lon="3.91923">
        <ele>1036</ele>
        <time>2017-03-05T12:39:38Z</time>
      </trkpt>
      <trkpt lat="44.41046" lon="3.91917">
        <ele>1037</ele>
        <time>2017-03-05T12:41:38Z</time>
      </trkpt>
      <trkpt lat="44.41066" lon="3.91906">
        <ele>1035</ele>
        <time>2017-03-05T12:43:38Z</time>
      </trkpt>
      <trkpt lat="44.41092" lon="3.91892">
        <ele>1034</ele>
        <time>2017-03-05T12:45:38Z</time>
      </trkpt>
      <trkpt lat="44.41102" lon="3.91885">
        <ele>1034</ele>
        <time>2017-03-05T12:47:38Z</time>
      </trkpt>
      <trkpt lat="44.41115" lon="3.91878">
        <ele>1034</ele>
        <time>2017-03-05T12:49:38Z</time>
      </trkpt>
      <trkpt lat="44.41132" lon="3.91869">
        <ele>1036</ele>
        <time>2017-03-05T12:51:38Z</time>
      </trkpt>
      <trkpt lat="44.41154" lon="3.91857">
        <ele>1039</ele>
        <time>2017-03-05T12:53:38Z</time>
      </trkpt>
      <trkpt lat="44.41167" lon="3.91849">
        <ele>1041</ele>
        <time>2017-03-05T12:55:38Z</time>
      </trkpt>
      <trkpt lat="44.41186" lon="3.91839">
        <ele>1042</ele>
        <time>2017-03-05T12:57:38Z</time>
      </trkpt>
      <trkpt lat="44.41204" lon="3.91826">
        <ele>1042</ele>
        <time>2017-03-05T12:59:38Z</time>
      </trkpt>
      <trkpt lat="44.41221" lon="3.91817">
        <ele>1041</ele>
        <time>2017-03-05T13:01:38Z</time>
      </trkpt>
      <trkpt lat="44.41235" lon="3.9181">
        <ele>1041</ele>
        <time>2017-03-05T13:03:38Z</time>
      </trkpt>
      <trkpt lat="44.41244" lon="3.91807">
        <ele>1042</ele>
        <time>2017-03-05T13:05:38Z</time>
      </trkpt>
      <trkpt lat="44.41252" lon="3.91806">
        <ele>1041</ele>
        <time>2017-03-05T13:07:38Z</time>
      </trkpt>
      <trkpt lat="44.41264" lon="3.91807">
        <ele>1040</ele>
        <time>2017-03-05T13:09:38Z</time>
      </trkpt>
      <trkpt lat="44.41278" lon="3.91809">
        <ele>1038</ele>
        <time>2017-03-05T13:11:38Z</time>
      </trkpt>
      <trkpt lat="44.41287" lon="3.91809">
        <ele>1037</ele>
        <time>2017-03-05T13:13:38Z</time>
      </trkpt>
      <trkpt lat="44.41306" lon="3.91807">
        <ele>1035</ele>
        <time>2017-03-05T13:15:38Z</time>
      </trkpt>
      <trkpt lat="44.41323" lon="3.91806">
        <ele>1033</ele>
        <time>2017-03-05T13:17:38Z</time>
      </trkpt>
      <trkpt lat="44.41346" lon="3.91803">
        <ele>1029</ele>
        <time>2017-03-05T13:19:38Z</time>
      </trkpt>
      <trkpt lat="44.41363" lon="3.91799">
        <ele>1024</ele>
        <time>2017-03-05T13:21:38Z</time>
      </trkpt>
      <trkpt lat="44.41381" lon="3.91796">
        <ele>1019</ele>
        <time>2017-03-05T13:23:38Z</time>
      </trkpt>
      <trkpt lat="44.41399" lon="3.91792">
        <ele>1015</ele>
        <time>2017-03-05T13:25:38Z</time>
      </trkpt>
      <trkpt lat="44.41411" lon="3.9179">
        <ele>1011</ele>
        <time>2017-03-05T13:27:38Z</time>
      </trkpt>
      <trkpt lat="44.4142" lon="3.91789">
        <ele>1009</ele>
        <time>2017-03-05T13:29:38Z</time>
      </trkpt>
      <trkpt lat="44.41429" lon="3.91789">
        <ele>1007</ele>
        <time>2017-03-05T13:31:38Z</time>
      </trkpt>
      <trkpt lat="44.41441" lon="3.91789">
        <ele>1005</ele>
        <time>2017-03-05T13:33:38Z</time>
      </trkpt>
      <trkpt lat="44.41454" lon="3.9179">
        <ele>1002</ele>
        <time>2017-03-05T13:35:38Z</time>
      </trkpt>
      <trkpt lat="44.41462" lon="3.9179">
        <ele>1000</ele>
        <time>2017-03-05T13:37:38Z</time>
      </trkpt>
      <trkpt lat="44.41469" lon="3.91791">
        <ele>999</ele>
        <time>2017-03-05T13:39:38Z</time>
      </trkpt>
      <trkpt lat="44.41476" lon="3.91792">
        <ele>998</ele>
        <time>2017-03-05T13:41:38Z</time>
      </trkpt>
      <trkpt lat="44.41484" lon="3.91794">
        <ele>996</ele>
        <time>2017-03-05T13:43:38Z</time>
      </trkpt>
      <trkpt lat="44.41495" lon="3.91797">
        <ele>994</ele>
        <time>2017-03-05T13:45:38Z</time>
      </trkpt>
      <trkpt lat="44.41513" lon="3.91801">
        <ele>992</ele>
        <time>2017-03-05T13:47:38Z</time>
      </trkpt>
      <trkpt lat="44.41522" lon="3.91802">
        <ele>991</ele>
        <time>2017-03-05T13:49:38Z</time>
      </trkpt>
      <trkpt lat="44.41535" lon="3.91805">
        <ele>991</ele>
        <time>2017-03-05T13:51:38Z</time>
      </trkpt>
      <trkpt lat="44.4155" lon="3.91806">
        <ele>990</ele>
        <time>2017-03-05T13:53:38Z</time>
      </trkpt>
      <trkpt lat="44.41596" lon="3.91815">
        <ele>988</ele>
        <time>2017-03-05T13:55:38Z</time>
      </trkpt>
      <trkpt lat="44.41613" lon="3.91821">
        <ele>989</ele>
        <time>2017-03-05T13:57:38Z</time>
      </trkpt>
      <trkpt lat="44.4164" lon="3.91827">
        <ele>990</ele>
        <time>2017-03-05T13:59:38Z</time>
      </trkpt>
      <trkpt lat="44.41667" lon="3.91829">
        <ele>991</ele>
        <time>2017-03-05T14:01:38Z</time>
      </trkpt>
      <trkpt lat="44.41686" lon="3.91832">
        <ele>990</ele>
        <time>2017-03-05T14:03:38Z</time>
      </trkpt>
      <trkpt lat="44.41708" lon="3.91835">
        <ele>989</ele>
        <time>2017-03-05T14:05:38Z</time>
      </trkpt>
      <trkpt lat="44.41731" lon="3.91843">
        <ele>988</ele>
        <time>2017-03-05T14:07:38Z</time>
      </trkpt>
      <trkpt lat="44.41746" lon="3.9185">
        <ele>987</ele>
        <time>2017-03-05T14:09:38Z</time>
      </trkpt>
      <trkpt lat="44.41784" lon="3.91869">
        <ele>987</ele>
        <time>2017-03-05T14:11:38Z</time>
      </trkpt>
      <trkpt lat="44.41812" lon="3.91881">
        <ele>988</ele>
        <time>2017-03-05T14:13:38Z</time>
      </trkpt>
      <trkpt lat="44.41849" lon="3.91887">
        <ele>989</ele>
        <time>2017-03-05T14:15:38Z</time>
      </trkpt>
      <trkpt lat="44.41886" lon="3.91887">
        <ele>988</ele>
        <time>2017-03-05T14:17:38Z</time>
      </trkpt>
      <trkpt lat="44.4191" lon="3.91886">
        <ele>988</ele>
        <time>2017-03-05T14:19:38Z</time>
      </trkpt>
      <trkpt lat="44.41926" lon="3.91883">
        <ele>987</ele>
        <time>2017-03-05T14:21:38Z</time>
      </trkpt>
      <trkpt lat="44.41948" lon="3.91885">
        <ele>986</ele>
        <time>2017-03-05T14:23:38Z</time>
      </trkpt>
      <trkpt lat="44.41961" lon="3.9189">
        <ele>986</ele>
        <time>2017-03-05T14:25:38Z</time>
      </trkpt>
      <trkpt lat="44.4197" lon="3.91897">
        <ele>986</ele>
        <time>2017-03-05T14:27:38Z</time>
      </trkpt>
      <trkpt lat="44.41977" lon="3.91902">
        <ele>986</ele>
        <time>2017-03-05T14:29:38Z</time>
      </trkpt>
      <trkpt lat="44.41981" lon="3.91907">
        <ele>986</ele>
        <time>2017-03-05T14:31:38Z</time>
      </trkpt>
      <trkpt lat="44.41986" lon="3.91911">
        <ele>986</ele>
        <time>2017-03-05T14:33:38Z</time>
      </trkpt>
      <trkpt lat="44.41992" lon="3.91917">
        <ele>986</ele>
        <time>2017-03-05T14:35:38Z</time>
      </trkpt>
      <trkpt lat="44.42009" lon="3.91932">
        <ele>982</ele>
        <time>2017-03-05T14:37:38Z</time>
      </trkpt>
      <trkpt lat="44.42027" lon="3.91951">
        <ele>976</ele>
        <time>2017-03-05T14:39:38Z</time>
      </trkpt>
      <trkpt lat="44.42041" lon="3.91964">
        <ele>973</ele>
        <time>2017-03-05T14:41:38Z</time>
      </trkpt>
      <trkpt lat="44.42055" lon="3.91978">
        <ele>972</ele>
        <time>2017-03-05T14:43:38Z</time>
      </trkpt>
      <trkpt lat="44.42074" lon="3.92002">
        <ele>971</ele>
        <time>2017-03-05T14:45:38Z</time>
      </trkpt>
      <trkpt lat="44.42078" lon="3.92007">
        <ele>969</ele>
        <time>2017-03-05T14:47:38Z</time>
      </trkpt>
      <trkpt lat="44.421" lon="3.92022">
        <ele>964</ele>
        <time>2017-03-05T14:49:38Z</time>
      </trkpt>
      <trkpt lat="44.42108" lon="3.92026">
        <ele>962</ele>
        <time>2017-03-05T14:51:38Z</time>
      </trkpt>
      <trkpt lat="44.42122" lon="3.92038">
        <ele>960</ele>
        <time>2017-03-05T14:53:38Z</time>
      </trkpt>
      <trkpt lat="44.42147" lon="3.92062">
        <ele>959</ele>
        <time>2017-03-05T14:55:38Z</time>
      </trkpt>
      <trkpt lat="44.42161" lon="3.92074">
        <ele>960</ele>
        <time>2017-03-05T14:57:38Z</time>
      </trkpt>
      <trkpt lat="44.42186" lon="3.92103">
        <ele>958</ele>
        <time>2017-03-05T14:59:38Z</time>
      </trkpt>
      <trkpt lat="44.42201" lon="3.9212">
        <ele>957</ele>
        <time>2017-03-05T15:01:38Z</time>
      </trkpt>
      <trkpt lat="44.42214" lon="3.92136">
        <ele>958</ele>
        <time>2017-03-05T15:03:38Z</time>
      </trkpt>
      <trkpt lat="44.42221" lon="3.92142">
        <ele>958</ele>
        <time>2017-03-05T15:05:38Z</time>
      </trkpt>
      <trkpt lat="44.42225" lon="3.92143">
        <ele>958</ele>
        <time>2017-03-05T15:07:38Z</time>
      </trkpt>
      <trkpt lat="44.4223" lon="3.9214">
        <ele>958</ele>
        <time>2017-03-05T15:09:38Z</time>
      </trkpt>
      <trkpt lat="44.4223" lon="3.9214">
        <ele>958</ele>
        <time>2017-03-05T15:11:38Z</time>
      </trkpt>
      <trkpt lat="44.42236" lon="3.92152">
        <ele>960</ele>
        <time>2017-03-05T15:13:38Z</time>
      </trkpt>
      <trkpt lat="44.42239" lon="3.92155">
        <ele>960</ele>
        <time>2017-03-05T15:15:38Z</time>
      </trkpt>
      <trkpt lat="44.42242" lon="3.92159">
        <ele>961</ele>
        <time>2017-03-05T15:17:38Z</time>
      </trkpt>
      <trkpt lat="44.42264" lon="3.92175">
        <ele>962</ele>
        <time>2017-03-05T15:19:38Z</time>
      </trkpt>
      <trkpt lat="44.42269" lon="3.92181">
        <ele>962</ele>
        <time>2017-03-05T15:21:38Z</time>
      </trkpt>
      <trkpt lat="44.42296" lon="3.9222">
        <ele>963</ele>
        <time>2017-03-05T15:23:38Z</time>
      </trkpt>
      <trkpt lat="44.423" lon="3.92227">
        <ele>964</ele>
        <time>2017-03-05T15:25:38Z</time>
      </trkpt>
      <trkpt lat="44.42302" lon="3.9223">
        <ele>964</ele>
        <time>2017-03-05T15:27:38Z</time>
      </trkpt>
      <trkpt lat="44.42305" lon="3.92234">
        <ele>964</ele>
        <time>2017-03-05T15:29:38Z</time>
      </trkpt>
      <trkpt lat="44.42308" lon="3.92237">
        <ele>965</ele>
        <time>2017-03-05T15:31:38Z</time>
      </trkpt>
      <trkpt lat="44.4231" lon="3.92238">
        <ele>965</ele>
        <time>2017-03-05T15:33:38Z</time>
      </trkpt>
      <trkpt lat="44.42313" lon="3.9224">
        <ele>966</ele>
        <time>2017-03-05T15:35:38Z</time>
      </trkpt>
      <trkpt lat="44.42315" lon="3.9224">
        <ele>966</ele>
        <time>2017-03-05T15:37:38Z</time>
      </trkpt>
      <trkpt lat="44.4232" lon="3.9224">
        <ele>967</ele>
        <time>2017-03-05T15:39:38Z</time>
      </trkpt>
      <trkpt lat="44.42328" lon="3.92241">
        <ele>968</ele>
        <time>2017-03-05T15:41:38Z</time>
      </trkpt>
      <trkpt lat="44.42354" lon="3.92239">
        <ele>969</ele>
        <time>2017-03-05T15:43:38Z</time>
      </trkpt>
      <trkpt lat="44.42361" lon="3.92241">
        <ele>969</ele>
        <time>2017-03-05T15:45:38Z</time>
      </trkpt>
      <trkpt lat="44.42368" lon="3.92243">
        <ele>969</ele>
        <time>2017-03-05T15:47:38Z</time>
      </trkpt>
      <trkpt lat="44.42374" lon="3.92247">
        <ele>970</ele>
        <time>2017-03-05T15:49:38Z</time>
      </trkpt>
      <trkpt lat="44.42385" lon="3.92256">
        <ele>970</ele>
        <time>2017-03-05T15:51:38Z</time>
      </trkpt>
      <trkpt lat="44.42422" lon="3.92288">
        <ele>969</ele>
        <time>2017-03-05T15:53:38Z</time>
      </trkpt>
      <trkpt lat="44.4243" lon="3.92294">
        <ele>969</ele>
        <time>2017-03-05T15:55:38Z</time>
      </trkpt>
      <trkpt lat="44.42438" lon="3.92298">
        <ele>969</ele>
        <time>2017-03-05T15:57:38Z</time>
      </trkpt>
      <trkpt lat="44.42443" lon="3.923">
        <ele>969</ele>
        <time>2017-03-05T15:59:38Z</time>
      </trkpt>
      <trkpt lat="44.42449" lon="3.92303">
        <ele>969</ele>
        <time>2017-03-05T16:01:38Z</time>
      </trkpt>
      <trkpt lat="44.42488" lon="3.92312">
        <ele>970</ele>
        <time>2017-03-05T16:03:38Z</time>
      </trkpt>
      <trkpt lat="44.4251" lon="3.92316">
        <ele>970</ele>
        <time>2017-03-05T16:05:38Z</time>
      </trkpt>
      <trkpt lat="44.42524" lon="3.92317">
        <ele>969</ele>
        <time>2017-03-05T16:07:38Z</time>
      </trkpt>
      <trkpt lat="44.42539" lon="3.9232">
        <ele>969</ele>
        <time>2017-03-05T16:09:38Z</time>
      </trkpt>
      <trkpt lat="44.42554" lon="3.92325">
        <ele>968</ele>
        <time>2017-03-05T16:11:38Z</time>
      </trkpt>
      <trkpt lat="44.42591" lon="3.92348">
        <ele>965</ele>
        <time>2017-03-05T16:13:38Z</time>
      </trkpt>
      <trkpt lat="44.42611" lon="3.92364">
        <ele>960</ele>
        <time>2017-03-05T16:15:38Z</time>
      </trkpt>
      <trkpt lat="44.42621" lon="3.9237">
        <ele>958</ele>
        <time>2017-03-05T16:17:38Z</time>
      </trkpt>
      <trkpt lat="44.42631" lon="3.92375">
        <ele>957</ele>
        <time>2017-03-05T16:19:38Z</time>
      </trkpt>
      <trkpt lat="44.42671" lon="3.92389">
        <ele>952</ele>
        <time>2017-03-05T16:21:38Z</time>
      </trkpt>
      <trkpt lat="44.4268" lon="3.9239">
        <ele>949</ele>
        <time>2017-03-05T16:23:38Z</time>
      </trkpt>
      <trkpt lat="44.42693" lon="3.9239">
        <ele>946</ele>
        <time>2017-03-05T16:25:38Z</time>
      </trkpt>
      <trkpt lat="44.42782" lon="3.92403">
        <ele>923</ele>
        <time>2017-03-05T16:27:38Z</time>
      </trkpt>
      <trkpt lat="44.42921" lon="3.92414">
        <ele>885</ele>
        <time>2017-03-05T16:29:38Z</time>
      </trkpt>
      <trkpt lat="44.42932" lon="3.92414">
        <ele>883</ele>
        <time>2017-03-05T16:31:38Z</time>
      </trkpt>
      <trkpt lat="44.4296" lon="3.92412">
        <ele>878</ele>
        <time>2017-03-05T16:33:38Z</time>
      </trkpt>
      <trkpt lat="44.42967" lon="3.92412">
        <ele>877</ele>
        <time>2017-03-05T16:35:38Z</time>
      </trkpt>
      <trkpt lat="44.43004" lon="3.92413">
        <ele>870</ele>
        <time>2017-03-05T16:37:38Z</time>
      </trkpt>
      <trkpt lat="44.43067" lon="3.92413">
        <ele>860</ele>
        <time>2017-03-05T16:39:38Z</time>
      </trkpt>
      <trkpt lat="44.43081" lon="3.92413">
        <ele>858</ele>
        <time>2017-03-05T16:41:38Z</time>
      </trkpt>
      <trkpt lat="44.4309" lon="3.92412">
        <ele>857</ele>
        <time>2017-03-05T16:43:38Z</time>
      </trkpt>
      <trkpt lat="44.43118" lon="3.9241">
        <ele>856</ele>
        <time>2017-03-05T16:45:38Z</time>
      </trkpt>
      <trkpt lat="44.43145" lon="3.92406">
        <ele>854</ele>
        <time>2017-03-05T16:47:38Z</time>
      </trkpt>
      <trkpt lat="44.43152" lon="3.92405">
        <ele>853</ele>
        <time>2017-03-05T16:49:38Z</time>
      </trkpt>
      <trkpt lat="44.43162" lon="3.92404">
        <ele>853</ele>
        <time>2017-03-05T16:51:38Z</time>
      </trkpt>
      <trkpt lat="44.43165" lon="3.92404">
        <ele>853</ele>
        <time>2017-03-05T16:53:38Z</time>
      </trkpt>
      <trkpt lat="44.43165" lon="3.92404">
        <ele>853</ele>
        <time>2017-03-05T16:55:38Z</time>
      </trkpt>
      <trkpt lat="44.43153" lon="3.92419">
        <ele>854</ele>
        <time>2017-03-05T16:57:38Z</time>
      </trkpt>
      <trkpt lat="44.43144" lon="3.92429">
        <ele>853</ele>
        <time>2017-03-05T16:59:38Z</time>
      </trkpt>
      <trkpt lat="44.43096" lon="3.92461">
        <ele>849</ele>
        <time>2017-03-05T17:01:38Z</time>
      </trkpt>
      <trkpt lat="44.43023" lon="3.92501">
        <ele>850</ele>
        <time>2017-03-05T17:03:38Z</time>
      </trkpt>
      <trkpt lat="44.42994" lon="3.92515">
        <ele>852</ele>
        <time>2017-03-05T17:05:38Z</time>
      </trkpt>
      <trkpt lat="44.42985" lon="3.92518">
        <ele>853</ele>
        <time>2017-03-05T17:07:38Z</time>
      </trkpt>
      <trkpt lat="44.42974" lon="3.92524">
        <ele>854</ele>
        <time>2017-03-05T17:09:38Z</time>
      </trkpt>
      <trkpt lat="44.42964" lon="3.92535">
        <ele>853</ele>
        <time>2017-03-05T17:11:38Z</time>
      </trkpt>
      <trkpt lat="44.42956" lon="3.92545">
        <ele>852</ele>
        <time>2017-03-05T17:13:38Z</time>
      </trkpt>
      <trkpt lat="44.42946" lon="3.92558">
        <ele>851</ele>
        <time>2017-03-05T17:15:38Z</time>
      </trkpt>
      <trkpt lat="44.42937" lon="3.92571">
        <ele>848</ele>
        <time>2017-03-05T17:17:38Z</time>
      </trkpt>
      <trkpt lat="44.42905" lon="3.92626">
        <ele>841</ele>
        <time>2017-03-05T17:19:38Z</time>
      </trkpt>
      <trkpt lat="44.42888" lon="3.92653">
        <ele>839</ele>
        <time>2017-03-05T17:21:38Z</time>
      </trkpt>
      <trkpt lat="44.42884" lon="3.92663">
        <ele>838</ele>
        <time>2017-03-05T17:23:38Z</time>
      </trkpt>
      <trkpt lat="44.42879" lon="3.92673">
        <ele>837</ele>
        <time>2017-03-05T17:25:38Z</time>
      </trkpt>
      <trkpt lat="44.42876" lon="3.92684">
        <ele>836</ele>
        <time>2017-03-05T17:27:38Z</time>
      </trkpt>
      <trkpt lat="44.4287" lon="3.92699">
        <ele>834</ele>
        <time>2017-03-05T17:29:38Z</time>
      </trkpt>
      <trkpt lat="44.42862" lon="3.92749">
        <ele>825</ele>
        <time>2017-03-05T17:31:38Z</time>
      </trkpt>
      <trkpt lat="44.4286" lon="3.92761">
        <ele>824</ele>
        <time>2017-03-05T17:33:38Z</time>
      </trkpt>
      <trkpt lat="44.42856" lon="3.92776">
        <ele>822</ele>
        <time>2017-03-05T17:35:38Z</time>
      </trkpt>
      <trkpt lat="44.42855" lon="3.9278">
        <ele>822</ele>
        <time>2017-03-05T17:37:38Z</time>
      </trkpt>
      <trkpt lat="44.42854" lon="3.92784">
        <ele>822</ele>
        <time>2017-03-05T17:39:38Z</time>
      </trkpt>
      <trkpt lat="44.42852" lon="3.92788">
        <ele>821</ele>
        <time>2017-03-05T17:41:38Z</time>
      </trkpt>
      <trkpt lat="44.4285" lon="3.92793">
        <ele>821</ele>
        <time>2017-03-05T17:43:38Z</time>
      </trkpt>
      <trkpt lat="44.42849" lon="3.92795">
        <ele>821</ele>
        <time>2017-03-05T17:45:38Z</time>
      </trkpt>
      <trkpt lat="44.42846" lon="3.92799">
        <ele>821</ele>
        <time>2017-03-05T17:47:38Z</time>
      </trkpt>
      <trkpt lat="44.42844" lon="3.92802">
        <ele>821</ele>
        <time>2017-03-05T17:49:38Z</time>
      </trkpt>
      <trkpt lat="44.42843" lon="3.92804">
        <ele>821</ele>
        <time>2017-03-05T17:51:38Z</time>
      </trkpt>
      <trkpt lat="44.42842" lon="3.92807">
        <ele>821</ele>
        <time>2017-03-05T17:53:38Z</time>
      </trkpt>
      <trkpt lat="44.42841" lon="3.92812">
        <ele>820</ele>
        <time>2017-03-05T17:55:38Z</time>
      </trkpt>
      <trkpt lat="44.42841" lon="3.92815">
        <ele>820</ele>
        <time>2017-03-05T17:57:38Z</time>
      </trkpt>
      <trkpt lat="44.42843" lon="3.92816">
        <ele>819</ele>
        <time>2017-03-05T17:59:38Z</time>
      </trkpt>
      <trkpt lat="44.42846" lon="3.92817">
        <ele>818</ele>
        <time>2017-03-05T18:01:38Z</time>
      </trkpt>
      <trkpt lat="44.42849" lon="3.92816">
        <ele>817</ele>
        <time>2017-03-05T18:03:38Z</time>
      </trkpt>
      <trkpt lat="44.42852" lon="3.92814">
        <ele>817</ele>
        <time>2017-03-05T18:05:38Z</time>
      </trkpt>
      <trkpt lat="44.42856" lon="3.9281">
        <ele>817</ele>
        <time>2017-03-05T18:07:38Z</time>
      </trkpt>
      <trkpt lat="44.42862" lon="3.92804">
        <ele>816</ele>
        <time>2017-03-05T18:09:38Z</time>
      </trkpt>
      <trkpt lat="44.42872" lon="3.92793">
        <ele>815</ele>
        <time>2017-03-05T18:11:38Z</time>
      </trkpt>
      <trkpt lat="44.42881" lon="3.92779">
        <ele>815</ele>
        <time>2017-03-05T18:13:38Z</time>
      </trkpt>
      <trkpt lat="44.42889" lon="3.92765">
        <ele>814</ele>
        <time>2017-03-05T18:15:38Z</time>
      </trkpt>
      <trkpt lat="44.4291" lon="3.92733">
        <ele>814</ele>
        <time>2017-03-05T18:17:38Z</time>
      </trkpt>
      <trkpt lat="44.42919" lon="3.92718">
        <ele>815</ele>
        <time>2017-03-05T18:19:38Z</time>
      </trkpt>
      <trkpt lat="44.42923" lon="3.92713">
        <ele>815</ele>
        <time>2017-03-05T18:21:38Z</time>
      </trkpt>
      <trkpt lat="44.4293" lon="3.92707">
        <ele>815</ele>
        <time>2017-03-05T18:23:38Z</time>
      </trkpt>
      <trkpt lat="44.42938" lon="3.92702">
        <ele>815</ele>
        <time>2017-03-05T18:25:38Z</time>
      </trkpt>
      <trkpt lat="44.42962" lon="3.92691">
        <ele>813</ele>
        <time>2017-03-05T18:27:38Z</time>
      </trkpt>
      <trkpt lat="44.42968" lon="3.92688">
        <ele>812</ele>
        <time>2017-03-05T18:29:38Z</time>
      </trkpt>
      <trkpt lat="44.42974" lon="3.92686">
        <ele>812</ele>
        <time>2017-03-05T18:31:38Z</time>
      </trkpt>
      <trkpt lat="44.42979" lon="3.92684">
        <ele>811</ele>
        <time>2017-03-05T18:33:38Z</time>
      </trkpt>
      <trkpt lat="44.42983" lon="3.92684">
        <ele>811</ele>
        <time>2017-03-05T18:35:38Z</time>
      </trkpt>
      <trkpt lat="44.42989" lon="3.92685">
        <ele>809</ele>
        <time>2017-03-05T18:37:38Z</time>
      </trkpt>
      <trkpt lat="44.43001" lon="3.9269">
        <ele>806</ele>
        <time>2017-03-05T18:39:38Z</time>
      </trkpt>
      <trkpt lat="44.43014" lon="3.92697">
        <ele>801</ele>
        <time>2017-03-05T18:41:38Z</time>
      </trkpt>
      <trkpt lat="44.43019" lon="3.92698">
        <ele>800</ele>
        <time>2017-03-05T18:43:38Z</time>
      </trkpt>
      <trkpt lat="44.43024" lon="3.92699">
        <ele>798</ele>
        <time>2017-03-05T18:45:38Z</time>
      </trkpt>
      <trkpt lat="44.43029" lon="3.92699">
        <ele>798</ele>
        <time>2017-03-05T18:47:38Z</time>
      </trkpt>
      <trkpt lat="44.43034" lon="3.92697">
        <ele>797</ele>
        <time>2017-03-05T18:49:38Z</time>
      </trkpt>
      <trkpt lat="44.43039" lon="3.92695">
        <ele>797</ele>
        <time>2017-03-05T18:51:38Z</time>
      </trkpt>
      <trkpt lat="44.43046" lon="3.9269">
        <ele>797</ele>
        <time>2017-03-05T18:53:38Z</time>
      </trkpt>
      <trkpt lat="44.43049" lon="3.92685">
        <ele>798</ele>
        <time>2017-03-05T18:55:38Z</time>
      </trkpt>
      <trkpt lat="44.43052" lon="3.92682">
        <ele>799</ele>
        <time>2017-03-05T18:57:38Z</time>
      </trkpt>
      <trkpt lat="44.43055" lon="3.92679">
        <ele>799</ele>
        <time>2017-03-05T18:59:38Z</time>
      </trkpt>
      <trkpt lat="44.43056" lon="3.92677">
        <ele>800</ele>
        <time>2017-03-05T19:01:38Z</time>
      </trkpt>
      <trkpt lat="44.43059" lon="3.92675">
        <ele>800</ele>
        <time>2017-03-05T19:03:38Z</time>
      </trkpt>
      <trkpt lat="44.43065" lon="3.92673">
        <ele>799</ele>
        <time>2017-03-05T19:05:38Z</time>
      </trkpt>
      <trkpt lat="44.43071" lon="3.92672">
        <ele>799</ele>
        <time>2017-03-05T19:07:38Z</time>
      </trkpt>
      <trkpt lat="44.43077" lon="3.92673">
        <ele>797</ele>
        <time>2017-03-05T19:09:38Z</time>
      </trkpt>
      <trkpt lat="44.43083" lon="3.92674">
        <ele>796</ele>
        <time>2017-03-05T19:11:38Z</time>
      </trkpt>
      <trkpt lat="44.4309" lon="3.92675">
        <ele>795</ele>
        <time>2017-03-05T19:13:38Z</time>
      </trkpt>
      <trkpt lat="44.43096" lon="3.92676">
        <ele>794</ele>
        <time>2017-03-05T19:15:38Z</time>
      </trkpt>
      <trkpt lat="44.43104" lon="3.92676">
        <ele>794</ele>
        <time>2017-03-05T19:17:38Z</time>
      </trkpt>
      <trkpt lat="44.43114" lon="3.92673">
        <ele>795</ele>
        <time>2017-03-05T19:19:38Z</time>
      </trkpt>
      <trkpt lat="44.4312" lon="3.92671">
        <ele>795</ele>
        <time>2017-03-05T19:21:38Z</time>
      </trkpt>
      <trkpt lat="44.43125" lon="3.92668">
        <ele>796</ele>
        <time>2017-03-05T19:23:38Z</time>
      </trkpt>
      <trkpt lat="44.4313" lon="3.92665">
        <ele>797</ele>
        <time>2017-03-05T19:25:38Z</time>
      </trkpt>
      <trkpt lat="44.43134" lon="3.92663">
        <ele>797</ele>
        <time>2017-03-05T19:27:38Z</time>
      </trkpt>
      <trkpt lat="44.43142" lon="3.9266">
        <ele>798</ele>
        <time>2017-03-05T19:29:38Z</time>
      </trkpt>
      <trkpt lat="44.43148" lon="3.92659">
        <ele>798</ele>
        <time>2017-03-05T19:31:38Z</time>
      </trkpt>
      <trkpt lat="44.43153" lon="3.92659">
        <ele>798</ele>
        <time>2017-03-05T19:33:38Z</time>
      </trkpt>
      <trkpt lat="44.43164" lon="3.9266">
        <ele>797</ele>
        <time>2017-03-05T19:35:38Z</time>
      </trkpt>
      <trkpt lat="44.4318" lon="3.92663">
        <ele>796</ele>
        <time>2017-03-05T19:37:38Z</time>
      </trkpt>
      <trkpt lat="44.43192" lon="3.92669">
        <ele>794</ele>
        <time>2017-03-05T19:39:38Z</time>
      </trkpt>
      <trkpt lat="44.43203" lon="3.92678">
        <ele>791</ele>
        <time>2017-03-05T19:41:38Z</time>
      </trkpt>
      <trkpt lat="44.43218" lon="3.92696">
        <ele>785</ele>
        <time>2017-03-05T19:43:38Z</time>
      </trkpt>
      <trkpt lat="44.43229" lon="3.92721">
        <ele>777</ele>
        <time>2017-03-05T19:45:38Z</time>
      </trkpt>
      <trkpt lat="44.43241" lon="3.92748">
        <ele>769</ele>
        <time>2017-03-05T19:47:38Z</time>
      </trkpt>
      <trkpt lat="44.43249" lon="3.92762">
        <ele>766</ele>
        <time>2017-03-05T19:49:38Z</time>
      </trkpt>
      <trkpt lat="44.4326" lon="3.92772">
        <ele>764</ele>
        <time>2017-03-05T19:51:38Z</time>
      </trkpt>
      <trkpt lat="44.43265" lon="3.92776">
        <ele>763</ele>
        <time>2017-03-05T19:53:38Z</time>
      </trkpt>
      <trkpt lat="44.43277" lon="3.92779">
        <ele>762</ele>
        <time>2017-03-05T19:55:38Z</time>
      </trkpt>
      <trkpt lat="44.43287" lon="3.92781">
        <ele>761</ele>
        <time>2017-03-05T19:57:38Z</time>
      </trkpt>
      <trkpt lat="44.4333" lon="3.92786">
        <ele>759</ele>
        <time>2017-03-05T19:59:38Z</time>
      </trkpt>
      <trkpt lat="44.4338" lon="3.92789">
        <ele>756</ele>
        <time>2017-03-05T20:01:38Z</time>
      </trkpt>
      <trkpt lat="44.43417" lon="3.92799">
        <ele>751</ele>
        <time>2017-03-05T20:03:38Z</time>
      </trkpt>
      <trkpt lat="44.43417" lon="3.92799">
        <ele>751</ele>
        <time>2017-03-05T20:05:38Z</time>
      </trkpt>
      <trkpt lat="44.43377" lon="3.92809">
        <ele>748</ele>
        <time>2017-03-05T20:07:38Z</time>
      </trkpt>
      <trkpt lat="44.43373" lon="3.92812">
        <ele>747</ele>
        <time>2017-03-05T20:09:38Z</time>
      </trkpt>
      <trkpt lat="44.4337" lon="3.92815">
        <ele>746</ele>
        <time>2017-03-05T20:11:38Z</time>
      </trkpt>
      <trkpt lat="44.4337" lon="3.92817">
        <ele>746</ele>
        <time>2017-03-05T20:13:38Z</time>
      </trkpt>
      <trkpt lat="44.43371" lon="3.92819">
        <ele>745</ele>
        <time>2017-03-05T20:15:38Z</time>
      </trkpt>
      <trkpt lat="44.43373" lon="3.92821">
        <ele>744</ele>
        <time>2017-03-05T20:17:38Z</time>
      </trkpt>
      <trkpt lat="44.43377" lon="3.92822">
        <ele>744</ele>
        <time>2017-03-05T20:19:38Z</time>
      </trkpt>
      <trkpt lat="44.43388" lon="3.92825">
        <ele>742</ele>
        <time>2017-03-05T20:21:38Z</time>
      </trkpt>
      <trkpt lat="44.43403" lon="3.92828">
        <ele>741</ele>
        <time>2017-03-05T20:23:38Z</time>
      </trkpt>
      <trkpt lat="44.43411" lon="3.92832">
        <ele>740</ele>
        <time>2017-03-05T20:25:38Z</time>
      </trkpt>
      <trkpt lat="44.43415" lon="3.92835">
        <ele>738</ele>
        <time>2017-03-05T20:27:38Z</time>
      </trkpt>
      <trkpt lat="44.43419" lon="3.92837">
        <ele>738</ele>
        <time>2017-03-05T20:29:38Z</time>
      </trkpt>
      <trkpt lat="44.43426" lon="3.9284">
        <ele>737</ele>
        <time>2017-03-05T20:31:38Z</time>
      </trkpt>
      <trkpt lat="44.43433" lon="3.92841">
        <ele>736</ele>
        <time>2017-03-05T20:33:38Z</time>
      </trkpt>
      <trkpt lat="44.43437" lon="3.92841">
        <ele>736</ele>
        <time>2017-03-05T20:35:38Z</time>
      </trkpt>
      <trkpt lat="44.43443" lon="3.92839">
        <ele>736</ele>
        <time>2017-03-05T20:37:38Z</time>
      </trkpt>
      <trkpt lat="44.43448" lon="3.92838">
        <ele>736</ele>
        <time>2017-03-05T20:39:38Z</time>
      </trkpt>
      <trkpt lat="44.43452" lon="3.92836">
        <ele>737</ele>
        <time>2017-03-05T20:41:38Z</time>
      </trkpt>
      <trkpt lat="44.43457" lon="3.92836">
        <ele>737</ele>
        <time>2017-03-05T20:43:38Z</time>
      </trkpt>
      <trkpt lat="44.43461" lon="3.92836">
        <ele>737</ele>
        <time>2017-03-05T20:45:38Z</time>
      </trkpt>
      <trkpt lat="44.43466" lon="3.92836">
        <ele>736</ele>
        <time>2017-03-05T20:47:38Z</time>
      </trkpt>
      <trkpt lat="44.43469" lon="3.92837">
        <ele>736</ele>
        <time>2017-03-05T20:49:38Z</time>
      </trkpt>
      <trkpt lat="44.43472" lon="3.92838">
        <ele>736</ele>
        <time>2017-03-05T20:51:38Z</time>
      </trkpt>
      <trkpt lat="44.43473" lon="3.92839">
        <ele>735</ele>
        <time>2017-03-05T20:53:38Z</time>
      </trkpt>
      <trkpt lat="44.43473" lon="3.9284">
        <ele>735</ele>
        <time>2017-03-05T20:55:38Z</time>
      </trkpt>
      <trkpt lat="44.43473" lon="3.92842">
        <ele>734</ele>
        <time>2017-03-05T20:57:38Z</time>
      </trkpt>
      <trkpt lat="44.43471" lon="3.92846">
        <ele>733</ele>
        <time>2017-03-05T20:59:38Z</time>
      </trkpt>
      <trkpt lat="44.43468" lon="3.9285">
        <ele>732</ele>
        <time>2017-03-05T21:01:38Z</time>
      </trkpt>
      <trkpt lat="44.43441" lon="3.92884">
        <ele>722</ele>
        <time>2017-03-05T21:03:38Z</time>
      </trkpt>
      <trkpt lat="44.43439" lon="3.92888">
        <ele>721</ele>
        <time>2017-03-05T21:05:38Z</time>
      </trkpt>
      <trkpt lat="44.43436" lon="3.92891">
        <ele>720</ele>
        <time>2017-03-05T21:07:38Z</time>
      </trkpt>
      <trkpt lat="44.43432" lon="3.92895">
        <ele>719</ele>
        <time>2017-03-05T21:09:38Z</time>
      </trkpt>
      <trkpt lat="44.4343" lon="3.92897">
        <ele>719</ele>
        <time>2017-03-05T21:11:38Z</time>
      </trkpt>
      <trkpt lat="44.43426" lon="3.92899">
        <ele>718</ele>
        <time>2017-03-05T21:13:38Z</time>
      </trkpt>
      <trkpt lat="44.43422" lon="3.92901">
        <ele>718</ele>
        <time>2017-03-05T21:15:38Z</time>
      </trkpt>
      <trkpt lat="44.43418" lon="3.92902">
        <ele>718</ele>
        <time>2017-03-05T21:17:38Z</time>
      </trkpt>
      <trkpt lat="44.43416" lon="3.92903">
        <ele>717</ele>
        <time>2017-03-05T21:19:38Z</time>
      </trkpt>
      <trkpt lat="44.43415" lon="3.92906">
        <ele>716</ele>
        <time>2017-03-05T21:21:38Z</time>
      </trkpt>
      <trkpt lat="44.43415" lon="3.92909">
        <ele>715</ele>
        <time>2017-03-05T21:23:38Z</time>
      </trkpt>
      <trkpt lat="44.43417" lon="3.92912">
        <ele>714</ele>
        <time>2017-03-05T21:25:38Z</time>
      </trkpt>
      <trkpt lat="44.4342" lon="3.92914">
        <ele>714</ele>
        <time>2017-03-05T21:27:38Z</time>
      </trkpt>
      <trkpt lat="44.43424" lon="3.92914">
        <ele>714</ele>
        <time>2017-03-05T21:29:38Z</time>
      </trkpt>
      <trkpt lat="44.43432" lon="3.92915">
        <ele>713</ele>
        <time>2017-03-05T21:31:38Z</time>
      </trkpt>
      <trkpt lat="44.43443" lon="3.92915">
        <ele>713</ele>
        <time>2017-03-05T21:33:38Z</time>
      </trkpt>
      <trkpt lat="44.43458" lon="3.92917">
        <ele>711</ele>
        <time>2017-03-05T21:35:38Z</time>
      </trkpt>
      <trkpt lat="44.4347" lon="3.92916">
        <ele>711</ele>
        <time>2017-03-05T21:37:38Z</time>
      </trkpt>
      <trkpt lat="44.43475" lon="3.92915">
        <ele>711</ele>
        <time>2017-03-05T21:39:38Z</time>
      </trkpt>
      <trkpt lat="44.4348" lon="3.92912">
        <ele>712</ele>
        <time>2017-03-05T21:41:38Z</time>
      </trkpt>
      <trkpt lat="44.4348" lon="3.92912">
        <ele>712</ele>
        <time>2017-03-05T21:43:38Z</time>
      </trkpt>
      <trkpt lat="44.43462" lon="3.92936">
        <ele>706</ele>
        <time>2017-03-05T21:45:38Z</time>
      </trkpt>
      <trkpt lat="44.43434" lon="3.92955">
        <ele>701</ele>
        <time>2017-03-05T21:47:38Z</time>
      </trkpt>
      <trkpt lat="44.43419" lon="3.92961">
        <ele>700</ele>
        <time>2017-03-05T21:49:38Z</time>
      </trkpt>
      <trkpt lat="44.43408" lon="3.92953">
        <ele>702</ele>
        <time>2017-03-05T21:51:38Z</time>
      </trkpt>
      <trkpt lat="44.43393" lon="3.92937">
        <ele>706</ele>
        <time>2017-03-05T21:53:38Z</time>
      </trkpt>
      <trkpt lat="44.43378" lon="3.92937">
        <ele>706</ele>
        <time>2017-03-05T21:55:38Z</time>
      </trkpt>
      <trkpt lat="44.43365" lon="3.92954">
        <ele>700</ele>
        <time>2017-03-05T21:57:38Z</time>
      </trkpt>
      <trkpt lat="44.43353" lon="3.92979">
        <ele>693</ele>
        <time>2017-03-05T21:59:38Z</time>
      </trkpt>
      <trkpt lat="44.43352" lon="3.93035">
        <ele>679</ele>
        <time>2017-03-05T22:01:38Z</time>
      </trkpt>
      <trkpt lat="44.4335" lon="3.93047">
        <ele>676</ele>
        <time>2017-03-05T22:03:38Z</time>
      </trkpt>
      <trkpt lat="44.43349" lon="3.93053">
        <ele>675</ele>
        <time>2017-03-05T22:05:38Z</time>
      </trkpt>
      <trkpt lat="44.43348" lon="3.93062">
        <ele>672</ele>
        <time>2017-03-05T22:07:38Z</time>
      </trkpt>
      <trkpt lat="44.43348" lon="3.9307">
        <ele>670</ele>
        <time>2017-03-05T22:09:38Z</time>
      </trkpt>
      <trkpt lat="44.43348" lon="3.93081">
        <ele>668</ele>
        <time>2017-03-05T22:11:38Z</time>
      </trkpt>
      <trkpt lat="44.43347" lon="3.93093">
        <ele>666</ele>
        <time>2017-03-05T22:13:38Z</time>
      </trkpt>
      <trkpt lat="44.43348" lon="3.93094">
        <ele>665</ele>
        <time>2017-03-05T22:15:38Z</time>
      </trkpt>
      <trkpt lat="44.43348" lon="3.93096">
        <ele>665</ele>
        <time>2017-03-05T22:17:38Z</time>
      </trkpt>
      <trkpt lat="44.43348" lon="3.93098">
        <ele>665</ele>
        <time>2017-03-05T22:19:38Z</time>
      </trkpt>
      <trkpt lat="44.43348" lon="3.93101">
        <ele>664</ele>
        <time>2017-03-05T22:21:38Z</time>
      </trkpt>
      <trkpt lat="44.43349" lon="3.93103">
        <ele>664</ele>
        <time>2017-03-05T22:23:38Z</time>
      </trkpt>
      <trkpt lat="44.43349" lon="3.93106">
        <ele>663</ele>
        <time>2017-03-05T22:25:38Z</time>
      </trkpt>
      <trkpt lat="44.43349" lon="3.93109">
        <ele>663</ele>
        <time>2017-03-05T22:27:38Z</time>
      </trkpt>
      <trkpt lat="44.43349" lon="3.93113">
        <ele>662</ele>
        <time>2017-03-05T22:29:38Z</time>
      </trkpt>
      <trkpt lat="44.43349" lon="3.93116">
        <ele>661</ele>
        <time>2017-03-05T22:31:38Z</time>
      </trkpt>
      <trkpt lat="44.43349" lon="3.93119">
        <ele>661</ele>
        <time>2017-03-05T22:33:38Z</time>
      </trkpt>
      <trkpt lat="44.4335" lon="3.93121">
        <ele>660</ele>
        <time>2017-03-05T22:35:38Z</time>
      </trkpt>
      <trkpt lat="44.4335" lon="3.93123">
        <ele>660</ele>
        <time>2017-03-05T22:37:38Z</time>
      </trkpt>
      <trkpt lat="44.4335" lon="3.93126">
        <ele>659</ele>
        <time>2017-03-05T22:39:38Z</time>
      </trkpt>
      <trkpt lat="44.4335" lon="3.93129">
        <ele>659</ele>
        <time>2017-03-05T22:41:38Z</time>
      </trkpt>
      <trkpt lat="44.4335" lon="3.93132">
        <ele>658</ele>
        <time>2017-03-05T22:43:38Z</time>
      </trkpt>
      <trkpt lat="44.4335" lon="3.93135">
        <ele>658</ele>
        <time>2017-03-05T22:45:38Z</time>
      </trkpt>
      <trkpt lat="44.4335" lon="3.93138">
        <ele>657</ele>
        <time>2017-03-05T22:47:38Z</time>
      </trkpt>
      <trkpt lat="44.43349" lon="3.93141">
        <ele>657</ele>
        <time>2017-03-05T22:49:38Z</time>
      </trkpt>
      <trkpt lat="44.43349" lon="3.93144">
        <ele>656</ele>
        <time>2017-03-05T22:51:38Z</time>
      </trkpt>
      <trkpt lat="44.43348" lon="3.93147">
        <ele>656</ele>
        <time>2017-03-05T22:53:38Z</time>
      </trkpt>
      <trkpt lat="44.43348" lon="3.9315">
        <ele>655</ele>
        <time>2017-03-05T22:55:38Z</time>
      </trkpt>
      <trkpt lat="44.43347" lon="3.93154">
        <ele>654</ele>
        <time>2017-03-05T22:57:38Z</time>
      </trkpt>
      <trkpt lat="44.43347" lon="3.93157">
        <ele>654</ele>
        <time>2017-03-05T22:59:38Z</time>
      </trkpt>
      <trkpt lat="44.43347" lon="3.93159">
        <ele>654</ele>
        <time>2017-03-05T23:01:38Z</time>
      </trkpt>
      <trkpt lat="44.43346" lon="3.93163">
        <ele>653</ele>
        <time>2017-03-05T23:03:38Z</time>
      </trkpt>
      <trkpt lat="44.43346" lon="3.93168">
        <ele>652</ele>
        <time>2017-03-05T23:05:38Z</time>
      </trkpt>
      <trkpt lat="44.43346" lon="3.93168">
        <ele>652</ele>
        <time>2017-03-05T23:07:38Z</time>
      </trkpt>
      <trkpt lat="44.43344" lon="3.93174">
        <ele>651</ele>
        <time>2017-03-05T23:09:38Z</time>
      </trkpt>
      <trkpt lat="44.43342" lon="3.93179">
        <ele>651</ele>
        <time>2017-03-05T23:11:38Z</time>
      </trkpt>
      <trkpt lat="44.4334" lon="3.93186">
        <ele>650</ele>
        <time>2017-03-05T23:13:38Z</time>
      </trkpt>
      <trkpt lat="44.4334" lon="3.93192">
        <ele>649</ele>
        <time>2017-03-05T23:15:38Z</time>
      </trkpt>
      <trkpt lat="44.43339" lon="3.93197">
        <ele>648</ele>
        <time>2017-03-05T23:17:38Z</time>
      </trkpt>
      <trkpt lat="44.43339" lon="3.93203">
        <ele>647</ele>
        <time>2017-03-05T23:19:38Z</time>
      </trkpt>
      <trkpt lat="44.43338" lon="3.93209">
        <ele>646</ele>
        <time>2017-03-05T23:21:38Z</time>
      </trkpt>
      <trkpt lat="44.43338" lon="3.93214">
        <ele>645</ele>
        <time>2017-03-05T23:23:38Z</time>
      </trkpt>
      <trkpt lat="44.43337" lon="3.9322">
        <ele>645</ele>
        <time>2017-03-05T23:25:38Z</time>
      </trkpt>
      <trkpt lat="44.43335" lon="3.93224">
        <ele>644</ele>
        <time>2017-03-05T23:27:38Z</time>
      </trkpt>
      <trkpt lat="44.43334" lon="3.93228">
        <ele>643</ele>
        <time>2017-03-05T23:29:38Z</time>
      </trkpt>
      <trkpt lat="44.43331" lon="3.93232">
        <ele>643</ele>
        <time>2017-03-05T23:31:38Z</time>
      </trkpt>
      <trkpt lat="44.43329" lon="3.93235">
        <ele>642</ele>
        <time>2017-03-05T23:33:38Z</time>
      </trkpt>
      <trkpt lat="44.43327" lon="3.93238">
        <ele>642</ele>
        <time>2017-03-05T23:35:38Z</time>
      </trkpt>
      <trkpt lat="44.43325" lon="3.9324">
        <ele>642</ele>
        <time>2017-03-05T23:37:38Z</time>
      </trkpt>
      <trkpt lat="44.43323" lon="3.93243">
        <ele>641</ele>
        <time>2017-03-05T23:39:38Z</time>
      </trkpt>
      <trkpt lat="44.43321" lon="3.93245">
        <ele>641</ele>
        <time>2017-03-05T23:41:38Z</time>
      </trkpt>
      <trkpt lat="44.43318" lon="3.93247">
        <ele>640</ele>
        <time>2017-03-05T23:43:38Z</time>
      </trkpt>
      <trkpt lat="44.43315" lon="3.93248">
        <ele>640</ele>
        <time>2017-03-05T23:45:38Z</time>
      </trkpt>
      <trkpt lat="44.43311" lon="3.93249">
        <ele>640</ele>
        <time>2017-03-05T23:47:38Z</time>
      </trkpt>
      <trkpt lat="44.43308" lon="3.93251">
        <ele>640</ele>
        <time>2017-03-05T23:49:38Z</time>
      </trkpt>
      <trkpt lat="44.43304" lon="3.93252">
        <ele>640</ele>
        <time>2017-03-05T23:51:38Z</time>
      </trkpt>
      <trkpt lat="44.433" lon="3.93252">
        <ele>640</ele>
        <time>2017-03-05T23:53:38Z</time>
      </trkpt>
      <trkpt lat="44.43294" lon="3.9325">
        <ele>640</ele>
        <time>2017-03-05T23:55:38Z</time>
      </trkpt>
      <trkpt lat="44.43284" lon="3.93248">
        <ele>640</ele>
        <time>2017-03-05T23:57:38Z</time>
      </trkpt>
      <trkpt lat="44.43281" lon="3.93248">
        <ele>640</ele>
        <time>2017-03-05T23:59:38Z</time>
      </trkpt>
      <trkpt lat="44.43278" lon="3.93248">
        <ele>640</ele>
        <time>2017-03-06T00:01:38Z</time>
      </trkpt>
      <trkpt lat="44.43274" lon="3.93249">
        <ele>640</ele>
        <time>2017-03-06T00:03:38Z</time>
      </trkpt>
      <trkpt lat="44.43274" lon="3.93249">
        <ele>640</ele>
        <time>2017-03-06T00:05:38Z</time>
      </trkpt>
      <trkpt lat="44.43271" lon="3.93251">
        <ele>640</ele>
        <time>2017-03-06T00:07:38Z</time>
      </trkpt>
      <trkpt lat="44.43269" lon="3.93253">
        <ele>640</ele>
        <time>2017-03-06T00:09:38Z</time>
      </trkpt>
      <trkpt lat="44.43268" lon="3.93255">
        <ele>639</ele>
        <time>2017-03-06T00:11:38Z</time>
      </trkpt>
      <trkpt lat="44.43265" lon="3.93258">
        <ele>639</ele>
        <time>2017-03-06T00:13:38Z</time>
      </trkpt>
      <trkpt lat="44.43263" lon="3.93262">
        <ele>639</ele>
        <time>2017-03-06T00:15:38Z</time>
      </trkpt>
      <trkpt lat="44.43262" lon="3.93267">
        <ele>638</ele>
        <time>2017-03-06T00:17:38Z</time>
      </trkpt>
      <trkpt lat="44.43261" lon="3.93271">
        <ele>638</ele>
        <time>2017-03-06T00:19:38Z</time>
      </trkpt>
      <trkpt lat="44.4326" lon="3.93275">
        <ele>637</ele>
        <time>2017-03-06T00:21:38Z</time>
      </trkpt>
      <trkpt lat="44.4326" lon="3.93282">
        <ele>637</ele>
        <time>2017-03-06T00:23:38Z</time>
      </trkpt>
      <trkpt lat="44.43261" lon="3.93287">
        <ele>636</ele>
        <time>2017-03-06T00:25:38Z</time>
      </trkpt>
      <trkpt lat="44.43262" lon="3.9329">
        <ele>636</ele>
        <time>2017-03-06T00:27:38Z</time>
      </trkpt>
      <trkpt lat="44.43264" lon="3.93294">
        <ele>635</ele>
        <time>2017-03-06T00:29:38Z</time>
      </trkpt>
      <trkpt lat="44.43266" lon="3.93299">
        <ele>635</ele>
        <time>2017-03-06T00:31:38Z</time>
      </trkpt>
      <trkpt lat="44.43271" lon="3.93307">
        <ele>634</ele>
        <time>2017-03-06T00:33:38Z</time>
      </trkpt>
      <trkpt lat="44.43271" lon="3.93307">
        <ele>634</ele>
        <time>2017-03-06T00:35:38Z</time>
      </trkpt>
      <trkpt lat="44.43281" lon="3.93309">
        <ele>633</ele>
        <time>2017-03-06T00:37:38Z</time>
      </trkpt>
      <trkpt lat="44.4329" lon="3.93313">
        <ele>633</ele>
        <time>2017-03-06T00:39:38Z</time>
      </trkpt>
      <trkpt lat="44.43316" lon="3.93324">
        <ele>630</ele>
        <time>2017-03-06T00:41:38Z</time>
      </trkpt>
      <trkpt lat="44.43336" lon="3.9333">
        <ele>628</ele>
        <time>2017-03-06T00:43:38Z</time>
      </trkpt>
      <trkpt lat="44.4336" lon="3.93337">
        <ele>626</ele>
        <time>2017-03-06T00:45:38Z</time>
      </trkpt>
      <trkpt lat="44.43375" lon="3.9334">
        <ele>625</ele>
        <time>2017-03-06T00:47:38Z</time>
      </trkpt>
      <trkpt lat="44.43381" lon="3.93342">
        <ele>625</ele>
        <time>2017-03-06T00:49:38Z</time>
      </trkpt>
      <trkpt lat="44.43388" lon="3.93342">
        <ele>624</ele>
        <time>2017-03-06T00:51:38Z</time>
      </trkpt>
      <trkpt lat="44.43393" lon="3.93342">
        <ele>624</ele>
        <time>2017-03-06T00:53:38Z</time>
      </trkpt>
      <trkpt lat="44.43413" lon="3.93339">
        <ele>622</ele>
        <time>2017-03-06T00:55:38Z</time>
      </trkpt>
      <trkpt lat="44.43446" lon="3.93332">
        <ele>619</ele>
        <time>2017-03-06T00:57:38Z</time>
      </trkpt>
      <trkpt lat="44.43482" lon="3.93325">
        <ele>617</ele>
        <time>2017-03-06T00:59:38Z</time>
      </trkpt>
      <trkpt lat="44.43503" lon="3.93322">
        <ele>616</ele>
        <time>2017-03-06T01:01:38Z</time>
      </trkpt>
      <trkpt lat="44.43526" lon="3.9332">
        <ele>614</ele>
        <time>2017-03-06T01:03:38Z</time>
      </trkpt>
      <trkpt lat="44.4354" lon="3.9332">
        <ele>613</ele>
        <time>2017-03-06T01:05:38Z</time>
      </trkpt>
      <trkpt lat="44.43573" lon="3.93321">
        <ele>611</ele>
        <time>2017-03-06T01:07:38Z</time>
      </trkpt>
      <trkpt lat="44.436" lon="3.93321">
        <ele>609</ele>
        <time>2017-03-06T01:09:38Z</time>
      </trkpt>
      <trkpt lat="44.4361" lon="3.93322">
        <ele>609</ele>
        <time>2017-03-06T01:11:38Z</time>
      </trkpt>
      <trkpt lat="44.43612" lon="3.93322">
        <ele>609</ele>
        <time>2017-03-06T01:13:38Z</time>
      </trkpt>
      <trkpt lat="44.43621" lon="3.93322">
        <ele>608</ele>
        <time>2017-03-06T01:15:38Z</time>
      </trkpt>
      <trkpt lat="44.43628" lon="3.93322">
        <ele>608</ele>
        <time>2017-03-06T01:17:38Z</time>
      </trkpt>
      <trkpt lat="44.43644" lon="3.93324">
        <ele>607</ele>
        <time>2017-03-06T01:19:38Z</time>
      </trkpt>
      <trkpt lat="44.43656" lon="3.93324">
        <ele>606</ele>
        <time>2017-03-06T01:21:38Z</time>
      </trkpt>
      <trkpt lat="44.43678" lon="3.93325">
        <ele>605</ele>
        <time>2017-03-06T01:23:38Z</time>
      </trkpt>
      <trkpt lat="44.43707" lon="3.93326">
        <ele>604</ele>
        <time>2017-03-06T01:25:38Z</time>
      </trkpt>
      <trkpt lat="44.43725" lon="3.93327">
        <ele>603</ele>
        <time>2017-03-06T01:27:38Z</time>
      </trkpt>
      <trkpt lat="44.43746" lon="3.93326">
        <ele>602</ele>
        <time>2017-03-06T01:29:38Z</time>
      </trkpt>
      <trkpt lat="44.43755" lon="3.93325">
        <ele>601</ele>
        <time>2017-03-06T01:31:38Z</time>
      </trkpt>
      <trkpt lat="44.43762" lon="3.93323">
        <ele>601</ele>
        <time>2017-03-06T01:33:38Z</time>
      </trkpt>
      <trkpt lat="44.43764" lon="3.93323">
        <ele>601</ele>
        <time>2017-03-06T01:35:38Z</time>
      </trkpt>
      <trkpt lat="44.43769" lon="3.93321">
        <ele>601</ele>
        <time>2017-03-06T01:37:38Z</time>
      </trkpt>
      <trkpt lat="44.43772" lon="3.93319">
        <ele>600</ele>
        <time>2017-03-06T01:39:38Z</time>
      </trkpt>
      <trkpt lat="44.43777" lon="3.93315">
        <ele>600</ele>
        <time>2017-03-06T01:41:38Z</time>
      </trkpt>
      <trkpt lat="44.43782" lon="3.93309">
        <ele>600</ele>
        <time>2017-03-06T01:43:38Z</time>
      </trkpt>
      <trkpt lat="44.43787" lon="3.93298">
        <ele>600</ele>
        <time>2017-03-06T01:45:38Z</time>
      </trkpt>
      <trkpt lat="44.43792" lon="3.93287">
        <ele>600</ele>
        <time>2017-03-06T01:47:38Z</time>
      </trkpt>
      <trkpt lat="44.43801" lon="3.93272">
        <ele>599</ele>
        <time>2017-03-06T01:49:38Z</time>
      </trkpt>
      <trkpt lat="44.43812" lon="3.93258">
        <ele>598</ele>
        <time>2017-03-06T01:51:38Z</time>
      </trkpt>
      <trkpt lat="44.43817" lon="3.93251">
        <ele>597</ele>
        <time>2017-03-06T01:53:38Z</time>
      </trkpt>
      <trkpt lat="44.4383" lon="3.93242">
        <ele>596</ele>
        <time>2017-03-06T01:55:38Z</time>
      </trkpt>
      <trkpt lat="44.4385" lon="3.93233">
        <ele>596</ele>
        <time>2017-03-06T01:57:38Z</time>
      </trkpt>
      <trkpt lat="44.43858" lon="3.93228">
        <ele>596</ele>
        <time>2017-03-06T01:59:38Z</time>
      </trkpt>
      <trkpt lat="44.43867" lon="3.93224">
        <ele>595</ele>
        <time>2017-03-06T02:01:38Z</time>
      </trkpt>
      <trkpt lat="44.43871" lon="3.93223">
        <ele>595</ele>
        <time>2017-03-06T02:03:38Z</time>
      </trkpt>
      <trkpt lat="44.43876" lon="3.93222">
        <ele>595</ele>
        <time>2017-03-06T02:05:38Z</time>
      </trkpt>
      <trkpt lat="44.4388" lon="3.93221">
        <ele>595</ele>
        <time>2017-03-06T02:07:38Z</time>
      </trkpt>
      <trkpt lat="44.4389" lon="3.9322">
        <ele>594</ele>
        <time>2017-03-06T02:09:38Z</time>
      </trkpt>
      <trkpt lat="44.43911" lon="3.93219">
        <ele>592</ele>
        <time>2017-03-06T02:11:38Z</time>
      </trkpt>
      <trkpt lat="44.43913" lon="3.93219">
        <ele>592</ele>
        <time>2017-03-06T02:13:38Z</time>
      </trkpt>
      <trkpt lat="44.43919" lon="3.93218">
        <ele>592</ele>
        <time>2017-03-06T02:15:38Z</time>
      </trkpt>
      <trkpt lat="44.43937" lon="3.93215">
        <ele>592</ele>
        <time>2017-03-06T02:17:38Z</time>
      </trkpt>
      <trkpt lat="44.43963" lon="3.93212">
        <ele>592</ele>
        <time>2017-03-06T02:19:38Z</time>
      </trkpt>
      <trkpt lat="44.44048" lon="3.93198">
        <ele>593</ele>
        <time>2017-03-06T02:21:38Z</time>
      </trkpt>
      <trkpt lat="44.44075" lon="3.93194">
        <ele>593</ele>
        <time>2017-03-06T02:23:38Z</time>
      </trkpt>
      <trkpt lat="44.44128" lon="3.93186">
        <ele>590</ele>
        <time>2017-03-06T02:25:38Z</time>
      </trkpt>
      <trkpt lat="44.44146" lon="3.93183">
        <ele>588</ele>
        <time>2017-03-06T02:27:38Z</time>
      </trkpt>
      <trkpt lat="44.44164" lon="3.93181">
        <ele>587</ele>
        <time>2017-03-06T02:29:38Z</time>
      </trkpt>
    </trkseg>
  </trk>
  <trk>
    <name><![CDATA[causwatts 04-butinerie-...]]></name>
    <trkseg>
      <trkpt lat="44.49803" lon="3.9299">
        <ele>878</ele>
        <time>2017-02-27T14:47:32Z</time>
      </trkpt>
      <trkpt lat="44.49824" lon="3.93004">
        <ele>876</ele>
        <time>2017-02-27T14:49:32Z</time>
      </trkpt>
      <trkpt lat="44.49827" lon="3.93006">
        <ele>876</ele>
        <time>2017-02-27T14:51:32Z</time>
      </trkpt>
      <trkpt lat="44.49829" lon="3.93009">
        <ele>876</ele>
        <time>2017-02-27T14:53:32Z</time>
      </trkpt>
      <trkpt lat="44.49833" lon="3.93018">
        <ele>874</ele>
        <time>2017-02-27T14:55:32Z</time>
      </trkpt>
      <trkpt lat="44.49842" lon="3.93032">
        <ele>873</ele>
        <time>2017-02-27T14:57:32Z</time>
      </trkpt>
      <trkpt lat="44.49851" lon="3.93048">
        <ele>871</ele>
        <time>2017-02-27T14:59:32Z</time>
      </trkpt>
      <trkpt lat="44.49858" lon="3.93058">
        <ele>869</ele>
        <time>2017-02-27T15:01:32Z</time>
      </trkpt>
      <trkpt lat="44.49866" lon="3.93064">
        <ele>868</ele>
        <time>2017-02-27T15:03:32Z</time>
      </trkpt>
      <trkpt lat="44.49871" lon="3.93068">
        <ele>868</ele>
        <time>2017-02-27T15:05:32Z</time>
      </trkpt>
      <trkpt lat="44.49875" lon="3.93074">
        <ele>867</ele>
        <time>2017-02-27T15:07:32Z</time>
      </trkpt>
      <trkpt lat="44.49884" lon="3.93082">
        <ele>866</ele>
        <time>2017-02-27T15:09:32Z</time>
      </trkpt>
      <trkpt lat="44.49895" lon="3.93086">
        <ele>865</ele>
        <time>2017-02-27T15:11:32Z</time>
      </trkpt>
      <trkpt lat="44.4991" lon="3.93087">
        <ele>865</ele>
        <time>2017-02-27T15:13:32Z</time>
      </trkpt>
      <trkpt lat="44.49944" lon="3.93084">
        <ele>863</ele>
        <time>2017-02-27T15:15:32Z</time>
      </trkpt>
      <trkpt lat="44.49966" lon="3.93082">
        <ele>861</ele>
        <time>2017-02-27T15:17:32Z</time>
      </trkpt>
      <trkpt lat="44.49986" lon="3.93079">
        <ele>860</ele>
        <time>2017-02-27T15:19:32Z</time>
      </trkpt>
      <trkpt lat="44.49996" lon="3.93076">
        <ele>860</ele>
        <time>2017-02-27T15:21:32Z</time>
      </trkpt>
      <trkpt lat="44.50009" lon="3.93069">
        <ele>859</ele>
        <time>2017-02-27T15:23:32Z</time>
      </trkpt>
      <trkpt lat="44.5003" lon="3.93056">
        <ele>857</ele>
        <time>2017-02-27T15:25:32Z</time>
      </trkpt>
      <trkpt lat="44.50043" lon="3.93049">
        <ele>856</ele>
        <time>2017-02-27T15:27:32Z</time>
      </trkpt>
      <trkpt lat="44.50048" lon="3.93047">
        <ele>856</ele>
        <time>2017-02-27T15:29:32Z</time>
      </trkpt>
      <trkpt lat="44.50053" lon="3.93048">
        <ele>855</ele>
        <time>2017-02-27T15:31:32Z</time>
      </trkpt>
      <trkpt lat="44.50053" lon="3.93048">
        <ele>855</ele>
        <time>2017-02-27T15:33:32Z</time>
      </trkpt>
      <trkpt lat="44.50046" lon="3.93056">
        <ele>854</ele>
        <time>2017-02-27T15:35:32Z</time>
      </trkpt>
      <trkpt lat="44.50027" lon="3.93076">
        <ele>854</ele>
        <time>2017-02-27T15:37:32Z</time>
      </trkpt>
      <trkpt lat="44.50007" lon="3.93093">
        <ele>854</ele>
        <time>2017-02-27T15:39:32Z</time>
      </trkpt>
      <trkpt lat="44.49982" lon="3.93112">
        <ele>854</ele>
        <time>2017-02-27T15:41:32Z</time>
      </trkpt>
      <trkpt lat="44.49952" lon="3.93134">
        <ele>854</ele>
        <time>2017-02-27T15:43:32Z</time>
      </trkpt>
      <trkpt lat="44.49933" lon="3.93147">
        <ele>854</ele>
        <time>2017-02-27T15:45:32Z</time>
      </trkpt>
      <trkpt lat="44.49921" lon="3.93152">
        <ele>855</ele>
        <time>2017-02-27T15:47:32Z</time>
      </trkpt>
      <trkpt lat="44.4991" lon="3.93155">
        <ele>856</ele>
        <time>2017-02-27T15:49:32Z</time>
      </trkpt>
      <trkpt lat="44.499" lon="3.93156">
        <ele>856</ele>
        <time>2017-02-27T15:51:32Z</time>
      </trkpt>
      <trkpt lat="44.4989" lon="3.93154">
        <ele>856</ele>
        <time>2017-02-27T15:53:32Z</time>
      </trkpt>
      <trkpt lat="44.49881" lon="3.9315">
        <ele>856</ele>
        <time>2017-02-27T15:55:32Z</time>
      </trkpt>
      <trkpt lat="44.49872" lon="3.93143">
        <ele>857</ele>
        <time>2017-02-27T15:57:32Z</time>
      </trkpt>
      <trkpt lat="44.49863" lon="3.93134">
        <ele>858</ele>
        <time>2017-02-27T15:59:32Z</time>
      </trkpt>
      <trkpt lat="44.49853" lon="3.93118">
        <ele>861</ele>
        <time>2017-02-27T16:01:32Z</time>
      </trkpt>
      <trkpt lat="44.49842" lon="3.93105">
        <ele>862</ele>
        <time>2017-02-27T16:03:32Z</time>
      </trkpt>
      <trkpt lat="44.49832" lon="3.93098">
        <ele>863</ele>
        <time>2017-02-27T16:05:32Z</time>
      </trkpt>
      <trkpt lat="44.49819" lon="3.93095">
        <ele>863</ele>
        <time>2017-02-27T16:07:32Z</time>
      </trkpt>
      <trkpt lat="44.498" lon="3.93095">
        <ele>862</ele>
        <time>2017-02-27T16:09:32Z</time>
      </trkpt>
      <trkpt lat="44.49789" lon="3.93098">
        <ele>862</ele>
        <time>2017-02-27T16:11:32Z</time>
      </trkpt>
      <trkpt lat="44.49782" lon="3.93101">
        <ele>861</ele>
        <time>2017-02-27T16:13:32Z</time>
      </trkpt>
      <trkpt lat="44.49775" lon="3.93109">
        <ele>861</ele>
        <time>2017-02-27T16:15:32Z</time>
      </trkpt>
      <trkpt lat="44.49773" lon="3.93116">
        <ele>860</ele>
        <time>2017-02-27T16:17:32Z</time>
      </trkpt>
      <trkpt lat="44.49771" lon="3.93121">
        <ele>860</ele>
        <time>2017-02-27T16:19:32Z</time>
      </trkpt>
      <trkpt lat="44.4977" lon="3.93126">
        <ele>859</ele>
        <time>2017-02-27T16:21:32Z</time>
      </trkpt>
      <trkpt lat="44.4977" lon="3.9313">
        <ele>859</ele>
        <time>2017-02-27T16:23:32Z</time>
      </trkpt>
      <trkpt lat="44.49771" lon="3.93134">
        <ele>859</ele>
        <time>2017-02-27T16:25:32Z</time>
      </trkpt>
      <trkpt lat="44.49772" lon="3.9314">
        <ele>859</ele>
        <time>2017-02-27T16:27:32Z</time>
      </trkpt>
      <trkpt lat="44.49777" lon="3.93152">
        <ele>858</ele>
        <time>2017-02-27T16:29:32Z</time>
      </trkpt>
      <trkpt lat="44.49778" lon="3.93157">
        <ele>857</ele>
        <time>2017-02-27T16:31:32Z</time>
      </trkpt>
      <trkpt lat="44.49779" lon="3.93166">
        <ele>857</ele>
        <time>2017-02-27T16:33:32Z</time>
      </trkpt>
      <trkpt lat="44.49779" lon="3.93179">
        <ele>855</ele>
        <time>2017-02-27T16:35:32Z</time>
      </trkpt>
      <trkpt lat="44.49778" lon="3.93187">
        <ele>854</ele>
        <time>2017-02-27T16:37:32Z</time>
      </trkpt>
      <trkpt lat="44.49774" lon="3.93195">
        <ele>854</ele>
        <time>2017-02-27T16:39:32Z</time>
      </trkpt>
      <trkpt lat="44.49772" lon="3.93201">
        <ele>853</ele>
        <time>2017-02-27T16:41:32Z</time>
      </trkpt>
      <trkpt lat="44.49766" lon="3.93209">
        <ele>852</ele>
        <time>2017-02-27T16:43:32Z</time>
      </trkpt>
      <trkpt lat="44.49766" lon="3.93209">
        <ele>852</ele>
        <time>2017-02-27T16:45:32Z</time>
      </trkpt>
      <trkpt lat="44.49771" lon="3.93223">
        <ele>851</ele>
        <time>2017-02-27T16:47:32Z</time>
      </trkpt>
      <trkpt lat="44.49777" lon="3.93229">
        <ele>850</ele>
        <time>2017-02-27T16:49:32Z</time>
      </trkpt>
      <trkpt lat="44.49789" lon="3.93238">
        <ele>848</ele>
        <time>2017-02-27T16:51:32Z</time>
      </trkpt>
      <trkpt lat="44.49794" lon="3.93242">
        <ele>848</ele>
        <time>2017-02-27T16:53:32Z</time>
      </trkpt>
      <trkpt lat="44.49798" lon="3.93247">
        <ele>847</ele>
        <time>2017-02-27T16:55:32Z</time>
      </trkpt>
      <trkpt lat="44.49802" lon="3.9325">
        <ele>847</ele>
        <time>2017-02-27T16:57:32Z</time>
      </trkpt>
      <trkpt lat="44.49804" lon="3.93256">
        <ele>846</ele>
        <time>2017-02-27T16:59:32Z</time>
      </trkpt>
      <trkpt lat="44.49805" lon="3.93261">
        <ele>844</ele>
        <time>2017-02-27T17:01:32Z</time>
      </trkpt>
      <trkpt lat="44.49805" lon="3.93266">
        <ele>843</ele>
        <time>2017-02-27T17:03:32Z</time>
      </trkpt>
      <trkpt lat="44.49806" lon="3.93272">
        <ele>842</ele>
        <time>2017-02-27T17:05:32Z</time>
      </trkpt>
      <trkpt lat="44.49807" lon="3.93276">
        <ele>841</ele>
        <time>2017-02-27T17:07:32Z</time>
      </trkpt>
      <trkpt lat="44.4981" lon="3.93282">
        <ele>840</ele>
        <time>2017-02-27T17:09:32Z</time>
      </trkpt>
      <trkpt lat="44.49812" lon="3.93284">
        <ele>840</ele>
        <time>2017-02-27T17:11:32Z</time>
      </trkpt>
      <trkpt lat="44.49815" lon="3.93285">
        <ele>839</ele>
        <time>2017-02-27T17:13:32Z</time>
      </trkpt>
      <trkpt lat="44.49818" lon="3.93285">
        <ele>839</ele>
        <time>2017-02-27T17:15:32Z</time>
      </trkpt>
      <trkpt lat="44.4982" lon="3.93284">
        <ele>839</ele>
        <time>2017-02-27T17:17:32Z</time>
      </trkpt>
      <trkpt lat="44.49825" lon="3.9328">
        <ele>840</ele>
        <time>2017-02-27T17:19:32Z</time>
      </trkpt>
      <trkpt lat="44.49827" lon="3.93277">
        <ele>840</ele>
        <time>2017-02-27T17:21:32Z</time>
      </trkpt>
      <trkpt lat="44.49829" lon="3.93272">
        <ele>841</ele>
        <time>2017-02-27T17:23:32Z</time>
      </trkpt>
      <trkpt lat="44.4983" lon="3.93263">
        <ele>843</ele>
        <time>2017-02-27T17:25:32Z</time>
      </trkpt>
      <trkpt lat="44.4983" lon="3.9325">
        <ele>846</ele>
        <time>2017-02-27T17:27:32Z</time>
      </trkpt>
      <trkpt lat="44.49831" lon="3.93241">
        <ele>847</ele>
        <time>2017-02-27T17:29:32Z</time>
      </trkpt>
      <trkpt lat="44.49835" lon="3.93232">
        <ele>848</ele>
        <time>2017-02-27T17:31:32Z</time>
      </trkpt>
      <trkpt lat="44.49841" lon="3.93228">
        <ele>847</ele>
        <time>2017-02-27T17:33:32Z</time>
      </trkpt>
      <trkpt lat="44.49846" lon="3.93228">
        <ele>847</ele>
        <time>2017-02-27T17:35:32Z</time>
      </trkpt>
      <trkpt lat="44.49856" lon="3.93232">
        <ele>846</ele>
        <time>2017-02-27T17:37:32Z</time>
      </trkpt>
      <trkpt lat="44.4987" lon="3.93245">
        <ele>842</ele>
        <time>2017-02-27T17:39:32Z</time>
      </trkpt>
      <trkpt lat="44.49881" lon="3.93259">
        <ele>838</ele>
        <time>2017-02-27T17:41:32Z</time>
      </trkpt>
      <trkpt lat="44.49886" lon="3.93268">
        <ele>835</ele>
        <time>2017-02-27T17:43:32Z</time>
      </trkpt>
      <trkpt lat="44.49891" lon="3.93273">
        <ele>833</ele>
        <time>2017-02-27T17:45:32Z</time>
      </trkpt>
      <trkpt lat="44.49895" lon="3.93274">
        <ele>832</ele>
        <time>2017-02-27T17:47:32Z</time>
      </trkpt>
      <trkpt lat="44.49898" lon="3.93274">
        <ele>831</ele>
        <time>2017-02-27T17:49:32Z</time>
      </trkpt>
      <trkpt lat="44.49901" lon="3.93273">
        <ele>831</ele>
        <time>2017-02-27T17:51:32Z</time>
      </trkpt>
      <trkpt lat="44.49913" lon="3.9327">
        <ele>831</ele>
        <time>2017-02-27T17:53:32Z</time>
      </trkpt>
      <trkpt lat="44.49925" lon="3.93267">
        <ele>830</ele>
        <time>2017-02-27T17:55:32Z</time>
      </trkpt>
      <trkpt lat="44.49934" lon="3.93267">
        <ele>828</ele>
        <time>2017-02-27T17:57:32Z</time>
      </trkpt>
      <trkpt lat="44.49945" lon="3.93267">
        <ele>826</ele>
        <time>2017-02-27T17:59:32Z</time>
      </trkpt>
      <trkpt lat="44.49962" lon="3.93262">
        <ele>825</ele>
        <time>2017-02-27T18:01:32Z</time>
      </trkpt>
      <trkpt lat="44.49976" lon="3.93259">
        <ele>823</ele>
        <time>2017-02-27T18:03:32Z</time>
      </trkpt>
      <trkpt lat="44.49989" lon="3.93258">
        <ele>821</ele>
        <time>2017-02-27T18:05:32Z</time>
      </trkpt>
      <trkpt lat="44.49998" lon="3.9326">
        <ele>819</ele>
        <time>2017-02-27T18:07:32Z</time>
      </trkpt>
      <trkpt lat="44.50005" lon="3.93262">
        <ele>817</ele>
        <time>2017-02-27T18:09:32Z</time>
      </trkpt>
      <trkpt lat="44.50013" lon="3.93259">
        <ele>817</ele>
        <time>2017-02-27T18:11:32Z</time>
      </trkpt>
      <trkpt lat="44.50025" lon="3.93253">
        <ele>815</ele>
        <time>2017-02-27T18:13:32Z</time>
      </trkpt>
      <trkpt lat="44.50042" lon="3.93243">
        <ele>814</ele>
        <time>2017-02-27T18:15:32Z</time>
      </trkpt>
      <trkpt lat="44.50045" lon="3.9324">
        <ele>814</ele>
        <time>2017-02-27T18:17:32Z</time>
      </trkpt>
      <trkpt lat="44.50049" lon="3.93236">
        <ele>814</ele>
        <time>2017-02-27T18:19:32Z</time>
      </trkpt>
      <trkpt lat="44.50051" lon="3.93233">
        <ele>814</ele>
        <time>2017-02-27T18:21:32Z</time>
      </trkpt>
      <trkpt lat="44.50052" lon="3.93227">
        <ele>815</ele>
        <time>2017-02-27T18:23:32Z</time>
      </trkpt>
      <trkpt lat="44.50052" lon="3.93218">
        <ele>817</ele>
        <time>2017-02-27T18:25:32Z</time>
      </trkpt>
      <trkpt lat="44.50053" lon="3.9321">
        <ele>818</ele>
        <time>2017-02-27T18:27:32Z</time>
      </trkpt>
      <trkpt lat="44.50056" lon="3.93205">
        <ele>819</ele>
        <time>2017-02-27T18:29:32Z</time>
      </trkpt>
      <trkpt lat="44.50059" lon="3.93203">
        <ele>818</ele>
        <time>2017-02-27T18:31:32Z</time>
      </trkpt>
      <trkpt lat="44.50068" lon="3.93199">
        <ele>817</ele>
        <time>2017-02-27T18:33:32Z</time>
      </trkpt>
      <trkpt lat="44.50075" lon="3.93197">
        <ele>816</ele>
        <time>2017-02-27T18:35:32Z</time>
      </trkpt>
      <trkpt lat="44.50082" lon="3.93191">
        <ele>816</ele>
        <time>2017-02-27T18:37:32Z</time>
      </trkpt>
      <trkpt lat="44.5009" lon="3.93184">
        <ele>816</ele>
        <time>2017-02-27T18:39:32Z</time>
      </trkpt>
      <trkpt lat="44.50094" lon="3.9318">
        <ele>816</ele>
        <time>2017-02-27T18:41:32Z</time>
      </trkpt>
      <trkpt lat="44.50099" lon="3.93177">
        <ele>815</ele>
        <time>2017-02-27T18:43:32Z</time>
      </trkpt>
      <trkpt lat="44.50103" lon="3.93176">
        <ele>815</ele>
        <time>2017-02-27T18:45:32Z</time>
      </trkpt>
      <trkpt lat="44.50115" lon="3.93168">
        <ele>813</ele>
        <time>2017-02-27T18:47:32Z</time>
      </trkpt>
      <trkpt lat="44.50123" lon="3.9316">
        <ele>813</ele>
        <time>2017-02-27T18:49:32Z</time>
      </trkpt>
      <trkpt lat="44.50126" lon="3.9316">
        <ele>813</ele>
        <time>2017-02-27T18:51:32Z</time>
      </trkpt>
      <trkpt lat="44.50129" lon="3.93161">
        <ele>812</ele>
        <time>2017-02-27T18:53:32Z</time>
      </trkpt>
      <trkpt lat="44.50129" lon="3.93164">
        <ele>811</ele>
        <time>2017-02-27T18:55:32Z</time>
      </trkpt>
      <trkpt lat="44.50121" lon="3.93178">
        <ele>812</ele>
        <time>2017-02-27T18:57:32Z</time>
      </trkpt>
      <trkpt lat="44.50115" lon="3.93187">
        <ele>812</ele>
        <time>2017-02-27T18:59:32Z</time>
      </trkpt>
      <trkpt lat="44.50114" lon="3.93189">
        <ele>812</ele>
        <time>2017-02-27T19:01:32Z</time>
      </trkpt>
      <trkpt lat="44.50113" lon="3.93192">
        <ele>812</ele>
        <time>2017-02-27T19:03:32Z</time>
      </trkpt>
      <trkpt lat="44.50114" lon="3.93194">
        <ele>811</ele>
        <time>2017-02-27T19:05:32Z</time>
      </trkpt>
      <trkpt lat="44.50116" lon="3.93196">
        <ele>811</ele>
        <time>2017-02-27T19:07:32Z</time>
      </trkpt>
      <trkpt lat="44.50119" lon="3.93198">
        <ele>811</ele>
        <time>2017-02-27T19:09:32Z</time>
      </trkpt>
      <trkpt lat="44.50124" lon="3.93201">
        <ele>810</ele>
        <time>2017-02-27T19:11:32Z</time>
      </trkpt>
      <trkpt lat="44.5013" lon="3.93203">
        <ele>809</ele>
        <time>2017-02-27T19:13:32Z</time>
      </trkpt>
      <trkpt lat="44.50132" lon="3.932">
        <ele>809</ele>
        <time>2017-02-27T19:15:32Z</time>
      </trkpt>
      <trkpt lat="44.50136" lon="3.93193">
        <ele>809</ele>
        <time>2017-02-27T19:17:32Z</time>
      </trkpt>
      <trkpt lat="44.50147" lon="3.93171">
        <ele>807</ele>
        <time>2017-02-27T19:19:32Z</time>
      </trkpt>
      <trkpt lat="44.50156" lon="3.93157">
        <ele>807</ele>
        <time>2017-02-27T19:21:32Z</time>
      </trkpt>
      <trkpt lat="44.50159" lon="3.93156">
        <ele>806</ele>
        <time>2017-02-27T19:23:32Z</time>
      </trkpt>
      <trkpt lat="44.50161" lon="3.93157">
        <ele>806</ele>
        <time>2017-02-27T19:25:32Z</time>
      </trkpt>
      <trkpt lat="44.50168" lon="3.93164">
        <ele>804</ele>
        <time>2017-02-27T19:27:32Z</time>
      </trkpt>
      <trkpt lat="44.50175" lon="3.93171">
        <ele>805</ele>
        <time>2017-02-27T19:29:32Z</time>
      </trkpt>
      <trkpt lat="44.50184" lon="3.93181">
        <ele>807</ele>
        <time>2017-02-27T19:31:32Z</time>
      </trkpt>
      <trkpt lat="44.50188" lon="3.93187">
        <ele>808</ele>
        <time>2017-02-27T19:33:32Z</time>
      </trkpt>
      <trkpt lat="44.50188" lon="3.93193">
        <ele>809</ele>
        <time>2017-02-27T19:35:32Z</time>
      </trkpt>
      <trkpt lat="44.50188" lon="3.93202">
        <ele>810</ele>
        <time>2017-02-27T19:37:32Z</time>
      </trkpt>
      <trkpt lat="44.50188" lon="3.9321">
        <ele>811</ele>
        <time>2017-02-27T19:39:32Z</time>
      </trkpt>
      <trkpt lat="44.50188" lon="3.93212">
        <ele>811</ele>
        <time>2017-02-27T19:41:32Z</time>
      </trkpt>
      <trkpt lat="44.50188" lon="3.93212">
        <ele>811</ele>
        <time>2017-02-27T19:43:32Z</time>
      </trkpt>
      <trkpt lat="44.5019" lon="3.93212">
        <ele>811</ele>
        <time>2017-02-27T19:45:32Z</time>
      </trkpt>
      <trkpt lat="44.50193" lon="3.9321">
        <ele>811</ele>
        <time>2017-02-27T19:47:32Z</time>
      </trkpt>
      <trkpt lat="44.50196" lon="3.93207">
        <ele>812</ele>
        <time>2017-02-27T19:49:32Z</time>
      </trkpt>
      <trkpt lat="44.50198" lon="3.93205">
        <ele>812</ele>
        <time>2017-02-27T19:51:32Z</time>
      </trkpt>
      <trkpt lat="44.502" lon="3.93208">
        <ele>812</ele>
        <time>2017-02-27T19:53:32Z</time>
      </trkpt>
      <trkpt lat="44.50201" lon="3.93213">
        <ele>813</ele>
        <time>2017-02-27T19:55:32Z</time>
      </trkpt>
      <trkpt lat="44.50204" lon="3.93216">
        <ele>814</ele>
        <time>2017-02-27T19:57:32Z</time>
      </trkpt>
      <trkpt lat="44.50208" lon="3.93219">
        <ele>815</ele>
        <time>2017-02-27T19:59:32Z</time>
      </trkpt>
      <trkpt lat="44.50211" lon="3.93223">
        <ele>816</ele>
        <time>2017-02-27T20:01:32Z</time>
      </trkpt>
      <trkpt lat="44.50214" lon="3.93224">
        <ele>817</ele>
        <time>2017-02-27T20:03:32Z</time>
      </trkpt>
      <trkpt lat="44.50217" lon="3.93224">
        <ele>817</ele>
        <time>2017-02-27T20:05:32Z</time>
      </trkpt>
      <trkpt lat="44.5022" lon="3.93224">
        <ele>818</ele>
        <time>2017-02-27T20:07:32Z</time>
      </trkpt>
      <trkpt lat="44.50223" lon="3.93224">
        <ele>818</ele>
        <time>2017-02-27T20:09:32Z</time>
      </trkpt>
      <trkpt lat="44.50224" lon="3.93226">
        <ele>819</ele>
        <time>2017-02-27T20:11:32Z</time>
      </trkpt>
      <trkpt lat="44.50226" lon="3.93229">
        <ele>819</ele>
        <time>2017-02-27T20:13:32Z</time>
      </trkpt>
      <trkpt lat="44.50228" lon="3.93232">
        <ele>820</ele>
        <time>2017-02-27T20:15:32Z</time>
      </trkpt>
      <trkpt lat="44.50229" lon="3.93238">
        <ele>821</ele>
        <time>2017-02-27T20:17:32Z</time>
      </trkpt>
      <trkpt lat="44.50231" lon="3.93239">
        <ele>822</ele>
        <time>2017-02-27T20:19:32Z</time>
      </trkpt>
      <trkpt lat="44.50233" lon="3.9324">
        <ele>822</ele>
        <time>2017-02-27T20:21:32Z</time>
      </trkpt>
      <trkpt lat="44.50233" lon="3.93238">
        <ele>822</ele>
        <time>2017-02-27T20:23:32Z</time>
      </trkpt>
      <trkpt lat="44.50234" lon="3.93236">
        <ele>822</ele>
        <time>2017-02-27T20:25:32Z</time>
      </trkpt>
      <trkpt lat="44.50236" lon="3.93236">
        <ele>822</ele>
        <time>2017-02-27T20:27:32Z</time>
      </trkpt>
      <trkpt lat="44.50239" lon="3.93237">
        <ele>823</ele>
        <time>2017-02-27T20:29:32Z</time>
      </trkpt>
      <trkpt lat="44.50241" lon="3.93239">
        <ele>824</ele>
        <time>2017-02-27T20:31:32Z</time>
      </trkpt>
      <trkpt lat="44.50245" lon="3.93239">
        <ele>824</ele>
        <time>2017-02-27T20:33:32Z</time>
      </trkpt>
      <trkpt lat="44.5025" lon="3.93239">
        <ele>825</ele>
        <time>2017-02-27T20:35:32Z</time>
      </trkpt>
      <trkpt lat="44.50256" lon="3.93242">
        <ele>826</ele>
        <time>2017-02-27T20:37:32Z</time>
      </trkpt>
      <trkpt lat="44.50263" lon="3.9324">
        <ele>827</ele>
        <time>2017-02-27T20:39:32Z</time>
      </trkpt>
      <trkpt lat="44.50298" lon="3.9323">
        <ele>829</ele>
        <time>2017-02-27T20:41:32Z</time>
      </trkpt>
      <trkpt lat="44.50358" lon="3.9323">
        <ele>832</ele>
        <time>2017-02-27T20:43:32Z</time>
      </trkpt>
      <trkpt lat="44.50398" lon="3.93247">
        <ele>834</ele>
        <time>2017-02-27T20:45:32Z</time>
      </trkpt>
      <trkpt lat="44.50441" lon="3.93268">
        <ele>841</ele>
        <time>2017-02-27T20:47:32Z</time>
      </trkpt>
      <trkpt lat="44.5047" lon="3.93268">
        <ele>844</ele>
        <time>2017-02-27T20:49:32Z</time>
      </trkpt>
      <trkpt lat="44.50476" lon="3.93269">
        <ele>844</ele>
        <time>2017-02-27T20:51:32Z</time>
      </trkpt>
      <trkpt lat="44.50487" lon="3.93258">
        <ele>844</ele>
        <time>2017-02-27T20:53:32Z</time>
      </trkpt>
      <trkpt lat="44.5049" lon="3.93236">
        <ele>842</ele>
        <time>2017-02-27T20:55:32Z</time>
      </trkpt>
      <trkpt lat="44.50492" lon="3.93219">
        <ele>840</ele>
        <time>2017-02-27T20:57:32Z</time>
      </trkpt>
      <trkpt lat="44.50491" lon="3.9321">
        <ele>839</ele>
        <time>2017-02-27T20:59:32Z</time>
      </trkpt>
      <trkpt lat="44.50492" lon="3.93197">
        <ele>838</ele>
        <time>2017-02-27T21:01:32Z</time>
      </trkpt>
      <trkpt lat="44.50495" lon="3.93186">
        <ele>837</ele>
        <time>2017-02-27T21:03:32Z</time>
      </trkpt>
      <trkpt lat="44.50498" lon="3.93181">
        <ele>837</ele>
        <time>2017-02-27T21:05:32Z</time>
      </trkpt>
      <trkpt lat="44.50503" lon="3.93176">
        <ele>837</ele>
        <time>2017-02-27T21:07:32Z</time>
      </trkpt>
      <trkpt lat="44.50515" lon="3.93168">
        <ele>841</ele>
        <time>2017-02-27T21:09:32Z</time>
      </trkpt>
      <trkpt lat="44.50538" lon="3.93151">
        <ele>848</ele>
        <time>2017-02-27T21:11:32Z</time>
      </trkpt>
      <trkpt lat="44.5056" lon="3.93133">
        <ele>853</ele>
        <time>2017-02-27T21:13:32Z</time>
      </trkpt>
      <trkpt lat="44.50584" lon="3.93114">
        <ele>855</ele>
        <time>2017-02-27T21:15:32Z</time>
      </trkpt>
      <trkpt lat="44.50607" lon="3.93101">
        <ele>858</ele>
        <time>2017-02-27T21:17:32Z</time>
      </trkpt>
      <trkpt lat="44.50617" lon="3.93097">
        <ele>859</ele>
        <time>2017-02-27T21:19:32Z</time>
      </trkpt>
      <trkpt lat="44.50626" lon="3.93094">
        <ele>860</ele>
        <time>2017-02-27T21:21:32Z</time>
      </trkpt>
      <trkpt lat="44.50645" lon="3.93084">
        <ele>862</ele>
        <time>2017-02-27T21:23:32Z</time>
      </trkpt>
      <trkpt lat="44.50673" lon="3.93065">
        <ele>865</ele>
        <time>2017-02-27T21:25:32Z</time>
      </trkpt>
      <trkpt lat="44.50689" lon="3.93052">
        <ele>865</ele>
        <time>2017-02-27T21:27:32Z</time>
      </trkpt>
      <trkpt lat="44.50706" lon="3.93043">
        <ele>866</ele>
        <time>2017-02-27T21:29:32Z</time>
      </trkpt>
      <trkpt lat="44.50723" lon="3.9304">
        <ele>867</ele>
        <time>2017-02-27T21:31:32Z</time>
      </trkpt>
      <trkpt lat="44.50742" lon="3.93041">
        <ele>870</ele>
        <time>2017-02-27T21:33:32Z</time>
      </trkpt>
      <trkpt lat="44.50758" lon="3.9304">
        <ele>870</ele>
        <time>2017-02-27T21:35:32Z</time>
      </trkpt>
      <trkpt lat="44.50773" lon="3.93035">
        <ele>870</ele>
        <time>2017-02-27T21:37:32Z</time>
      </trkpt>
      <trkpt lat="44.50799" lon="3.93021">
        <ele>869</ele>
        <time>2017-02-27T21:39:32Z</time>
      </trkpt>
      <trkpt lat="44.50837" lon="3.93">
        <ele>868</ele>
        <time>2017-02-27T21:41:32Z</time>
      </trkpt>
      <trkpt lat="44.50879" lon="3.9298">
        <ele>864</ele>
        <time>2017-02-27T21:43:32Z</time>
      </trkpt>
      <trkpt lat="44.50903" lon="3.92973">
        <ele>862</ele>
        <time>2017-02-27T21:45:32Z</time>
      </trkpt>
      <trkpt lat="44.50922" lon="3.92969">
        <ele>862</ele>
        <time>2017-02-27T21:47:32Z</time>
      </trkpt>
      <trkpt lat="44.50922" lon="3.92969">
        <ele>862</ele>
        <time>2017-02-27T21:49:32Z</time>
      </trkpt>
      <trkpt lat="44.50923" lon="3.92964">
        <ele>861</ele>
        <time>2017-02-27T21:51:32Z</time>
      </trkpt>
      <trkpt lat="44.50925" lon="3.92955">
        <ele>860</ele>
        <time>2017-02-27T21:53:32Z</time>
      </trkpt>
      <trkpt lat="44.50929" lon="3.92943">
        <ele>860</ele>
        <time>2017-02-27T21:55:32Z</time>
      </trkpt>
      <trkpt lat="44.50931" lon="3.92938">
        <ele>859</ele>
        <time>2017-02-27T21:57:32Z</time>
      </trkpt>
      <trkpt lat="44.50932" lon="3.92937">
        <ele>859</ele>
        <time>2017-02-27T21:59:32Z</time>
      </trkpt>
      <trkpt lat="44.50934" lon="3.92933">
        <ele>859</ele>
        <time>2017-02-27T22:01:32Z</time>
      </trkpt>
      <trkpt lat="44.50935" lon="3.9293">
        <ele>859</ele>
        <time>2017-02-27T22:03:32Z</time>
      </trkpt>
      <trkpt lat="44.50936" lon="3.92926">
        <ele>859</ele>
        <time>2017-02-27T22:05:32Z</time>
      </trkpt>
      <trkpt lat="44.50936" lon="3.92919">
        <ele>858</ele>
        <time>2017-02-27T22:07:32Z</time>
      </trkpt>
      <trkpt lat="44.50935" lon="3.92911">
        <ele>858</ele>
        <time>2017-02-27T22:09:32Z</time>
      </trkpt>
      <trkpt lat="44.50934" lon="3.92899">
        <ele>858</ele>
        <time>2017-02-27T22:11:32Z</time>
      </trkpt>
      <trkpt lat="44.50936" lon="3.92887">
        <ele>858</ele>
        <time>2017-02-27T22:13:32Z</time>
      </trkpt>
      <trkpt lat="44.50941" lon="3.92873">
        <ele>859</ele>
        <time>2017-02-27T22:15:32Z</time>
      </trkpt>
      <trkpt lat="44.50946" lon="3.9286">
        <ele>859</ele>
        <time>2017-02-27T22:17:32Z</time>
      </trkpt>
      <trkpt lat="44.50954" lon="3.92843">
        <ele>860</ele>
        <time>2017-02-27T22:19:32Z</time>
      </trkpt>
      <trkpt lat="44.50958" lon="3.92834">
        <ele>860</ele>
        <time>2017-02-27T22:21:32Z</time>
      </trkpt>
      <trkpt lat="44.5096" lon="3.92826">
        <ele>861</ele>
        <time>2017-02-27T22:23:32Z</time>
      </trkpt>
      <trkpt lat="44.5096" lon="3.92821">
        <ele>861</ele>
        <time>2017-02-27T22:25:32Z</time>
      </trkpt>
      <trkpt lat="44.5096" lon="3.92814">
        <ele>861</ele>
        <time>2017-02-27T22:27:32Z</time>
      </trkpt>
      <trkpt lat="44.5096" lon="3.92807">
        <ele>862</ele>
        <time>2017-02-27T22:29:32Z</time>
      </trkpt>
      <trkpt lat="44.50963" lon="3.92802">
        <ele>862</ele>
        <time>2017-02-27T22:31:32Z</time>
      </trkpt>
      <trkpt lat="44.5097" lon="3.92792">
        <ele>863</ele>
        <time>2017-02-27T22:33:32Z</time>
      </trkpt>
      <trkpt lat="44.50981" lon="3.92779">
        <ele>863</ele>
        <time>2017-02-27T22:35:32Z</time>
      </trkpt>
      <trkpt lat="44.50987" lon="3.9277">
        <ele>863</ele>
        <time>2017-02-27T22:37:32Z</time>
      </trkpt>
      <trkpt lat="44.50995" lon="3.92749">
        <ele>863</ele>
        <time>2017-02-27T22:39:32Z</time>
      </trkpt>
      <trkpt lat="44.51006" lon="3.92723">
        <ele>865</ele>
        <time>2017-02-27T22:41:32Z</time>
      </trkpt>
      <trkpt lat="44.51014" lon="3.92708">
        <ele>867</ele>
        <time>2017-02-27T22:43:32Z</time>
      </trkpt>
      <trkpt lat="44.51022" lon="3.92696">
        <ele>868</ele>
        <time>2017-02-27T22:45:32Z</time>
      </trkpt>
      <trkpt lat="44.51028" lon="3.92686">
        <ele>868</ele>
        <time>2017-02-27T22:47:32Z</time>
      </trkpt>
      <trkpt lat="44.51035" lon="3.92672">
        <ele>869</ele>
        <time>2017-02-27T22:49:32Z</time>
      </trkpt>
      <trkpt lat="44.5104" lon="3.92662">
        <ele>870</ele>
        <time>2017-02-27T22:51:32Z</time>
      </trkpt>
      <trkpt lat="44.51042" lon="3.92653">
        <ele>870</ele>
        <time>2017-02-27T22:53:32Z</time>
      </trkpt>
      <trkpt lat="44.51044" lon="3.92644">
        <ele>871</ele>
        <time>2017-02-27T22:55:32Z</time>
      </trkpt>
      <trkpt lat="44.5105" lon="3.92627">
        <ele>873</ele>
        <time>2017-02-27T22:57:32Z</time>
      </trkpt>
      <trkpt lat="44.51056" lon="3.92599">
        <ele>876</ele>
        <time>2017-02-27T22:59:32Z</time>
      </trkpt>
      <trkpt lat="44.51063" lon="3.92572">
        <ele>878</ele>
        <time>2017-02-27T23:01:32Z</time>
      </trkpt>
      <trkpt lat="44.51067" lon="3.92553">
        <ele>880</ele>
        <time>2017-02-27T23:03:32Z</time>
      </trkpt>
      <trkpt lat="44.51071" lon="3.92539">
        <ele>881</ele>
        <time>2017-02-27T23:05:32Z</time>
      </trkpt>
      <trkpt lat="44.51074" lon="3.92526">
        <ele>882</ele>
        <time>2017-02-27T23:07:32Z</time>
      </trkpt>
      <trkpt lat="44.51077" lon="3.92514">
        <ele>883</ele>
        <time>2017-02-27T23:09:32Z</time>
      </trkpt>
      <trkpt lat="44.51081" lon="3.92505">
        <ele>884</ele>
        <time>2017-02-27T23:11:32Z</time>
      </trkpt>
      <trkpt lat="44.51085" lon="3.92492">
        <ele>886</ele>
        <time>2017-02-27T23:13:32Z</time>
      </trkpt>
      <trkpt lat="44.51089" lon="3.92473">
        <ele>887</ele>
        <time>2017-02-27T23:15:32Z</time>
      </trkpt>
      <trkpt lat="44.51093" lon="3.92453">
        <ele>888</ele>
        <time>2017-02-27T23:17:32Z</time>
      </trkpt>
      <trkpt lat="44.51094" lon="3.92439">
        <ele>889</ele>
        <time>2017-02-27T23:19:32Z</time>
      </trkpt>
      <trkpt lat="44.51096" lon="3.92416">
        <ele>891</ele>
        <time>2017-02-27T23:21:32Z</time>
      </trkpt>
      <trkpt lat="44.51095" lon="3.92393">
        <ele>892</ele>
        <time>2017-02-27T23:23:32Z</time>
      </trkpt>
      <trkpt lat="44.51096" lon="3.92366">
        <ele>893</ele>
        <time>2017-02-27T23:25:32Z</time>
      </trkpt>
      <trkpt lat="44.51099" lon="3.92337">
        <ele>894</ele>
        <time>2017-02-27T23:27:32Z</time>
      </trkpt>
      <trkpt lat="44.51101" lon="3.92311">
        <ele>892</ele>
        <time>2017-02-27T23:29:32Z</time>
      </trkpt>
      <trkpt lat="44.51104" lon="3.92297">
        <ele>891</ele>
        <time>2017-02-27T23:31:32Z</time>
      </trkpt>
      <trkpt lat="44.51105" lon="3.92292">
        <ele>891</ele>
        <time>2017-02-27T23:33:32Z</time>
      </trkpt>
      <trkpt lat="44.51106" lon="3.92286">
        <ele>890</ele>
        <time>2017-02-27T23:35:32Z</time>
      </trkpt>
      <trkpt lat="44.51111" lon="3.92277">
        <ele>890</ele>
        <time>2017-02-27T23:37:32Z</time>
      </trkpt>
      <trkpt lat="44.51118" lon="3.92267">
        <ele>890</ele>
        <time>2017-02-27T23:39:32Z</time>
      </trkpt>
      <trkpt lat="44.51126" lon="3.92256">
        <ele>889</ele>
        <time>2017-02-27T23:41:32Z</time>
      </trkpt>
      <trkpt lat="44.51133" lon="3.9225">
        <ele>889</ele>
        <time>2017-02-27T23:43:32Z</time>
      </trkpt>
      <trkpt lat="44.51145" lon="3.92242">
        <ele>888</ele>
        <time>2017-02-27T23:45:32Z</time>
      </trkpt>
      <trkpt lat="44.51159" lon="3.92237">
        <ele>887</ele>
        <time>2017-02-27T23:47:32Z</time>
      </trkpt>
      <trkpt lat="44.51167" lon="3.92233">
        <ele>887</ele>
        <time>2017-02-27T23:49:32Z</time>
      </trkpt>
      <trkpt lat="44.51173" lon="3.92228">
        <ele>886</ele>
        <time>2017-02-27T23:51:32Z</time>
      </trkpt>
      <trkpt lat="44.51176" lon="3.92224">
        <ele>885</ele>
        <time>2017-02-27T23:53:32Z</time>
      </trkpt>
      <trkpt lat="44.51182" lon="3.92218">
        <ele>883</ele>
        <time>2017-02-27T23:55:32Z</time>
      </trkpt>
      <trkpt lat="44.51189" lon="3.92209">
        <ele>881</ele>
        <time>2017-02-27T23:57:32Z</time>
      </trkpt>
      <trkpt lat="44.51196" lon="3.922">
        <ele>878</ele>
        <time>2017-02-27T23:59:32Z</time>
      </trkpt>
      <trkpt lat="44.51202" lon="3.92196">
        <ele>877</ele>
        <time>2017-02-28T00:01:32Z</time>
      </trkpt>
      <trkpt lat="44.51206" lon="3.92195">
        <ele>877</ele>
        <time>2017-02-28T00:03:32Z</time>
      </trkpt>
      <trkpt lat="44.51211" lon="3.92192">
        <ele>876</ele>
        <time>2017-02-28T00:05:32Z</time>
      </trkpt>
      <trkpt lat="44.51216" lon="3.92191">
        <ele>876</ele>
        <time>2017-02-28T00:07:32Z</time>
      </trkpt>
      <trkpt lat="44.51225" lon="3.92188">
        <ele>875</ele>
        <time>2017-02-28T00:09:32Z</time>
      </trkpt>
      <trkpt lat="44.51228" lon="3.92186">
        <ele>875</ele>
        <time>2017-02-28T00:11:32Z</time>
      </trkpt>
      <trkpt lat="44.51233" lon="3.92186">
        <ele>875</ele>
        <time>2017-02-28T00:13:32Z</time>
      </trkpt>
      <trkpt lat="44.51238" lon="3.92184">
        <ele>874</ele>
        <time>2017-02-28T00:15:32Z</time>
      </trkpt>
      <trkpt lat="44.51242" lon="3.92181">
        <ele>873</ele>
        <time>2017-02-28T00:17:32Z</time>
      </trkpt>
      <trkpt lat="44.51246" lon="3.9218">
        <ele>873</ele>
        <time>2017-02-28T00:19:32Z</time>
      </trkpt>
      <trkpt lat="44.51257" lon="3.92175">
        <ele>872</ele>
        <time>2017-02-28T00:21:32Z</time>
      </trkpt>
      <trkpt lat="44.51267" lon="3.92172">
        <ele>872</ele>
        <time>2017-02-28T00:23:32Z</time>
      </trkpt>
      <trkpt lat="44.51277" lon="3.92167">
        <ele>871</ele>
        <time>2017-02-28T00:25:32Z</time>
      </trkpt>
      <trkpt lat="44.5129" lon="3.92161">
        <ele>870</ele>
        <time>2017-02-28T00:27:32Z</time>
      </trkpt>
      <trkpt lat="44.513" lon="3.92154">
        <ele>869</ele>
        <time>2017-02-28T00:29:32Z</time>
      </trkpt>
      <trkpt lat="44.51308" lon="3.92147">
        <ele>867</ele>
        <time>2017-02-28T00:31:32Z</time>
      </trkpt>
      <trkpt lat="44.51317" lon="3.92138">
        <ele>865</ele>
        <time>2017-02-28T00:33:32Z</time>
      </trkpt>
      <trkpt lat="44.51327" lon="3.92129">
        <ele>863</ele>
        <time>2017-02-28T00:35:32Z</time>
      </trkpt>
      <trkpt lat="44.51338" lon="3.92121">
        <ele>862</ele>
        <time>2017-02-28T00:37:32Z</time>
      </trkpt>
      <trkpt lat="44.51348" lon="3.92113">
        <ele>861</ele>
        <time>2017-02-28T00:39:32Z</time>
      </trkpt>
      <trkpt lat="44.51358" lon="3.92107">
        <ele>860</ele>
        <time>2017-02-28T00:41:32Z</time>
      </trkpt>
      <trkpt lat="44.51366" lon="3.92099">
        <ele>859</ele>
        <time>2017-02-28T00:43:32Z</time>
      </trkpt>
      <trkpt lat="44.51372" lon="3.92094">
        <ele>858</ele>
        <time>2017-02-28T00:45:32Z</time>
      </trkpt>
      <trkpt lat="44.51379" lon="3.92082">
        <ele>856</ele>
        <time>2017-02-28T00:47:32Z</time>
      </trkpt>
      <trkpt lat="44.51387" lon="3.92074">
        <ele>857</ele>
        <time>2017-02-28T00:49:32Z</time>
      </trkpt>
      <trkpt lat="44.51395" lon="3.92064">
        <ele>857</ele>
        <time>2017-02-28T00:51:32Z</time>
      </trkpt>
      <trkpt lat="44.51401" lon="3.92056">
        <ele>856</ele>
        <time>2017-02-28T00:53:32Z</time>
      </trkpt>
      <trkpt lat="44.51406" lon="3.92048">
        <ele>856</ele>
        <time>2017-02-28T00:55:32Z</time>
      </trkpt>
      <trkpt lat="44.51409" lon="3.92043">
        <ele>855</ele>
        <time>2017-02-28T00:57:32Z</time>
      </trkpt>
      <trkpt lat="44.51414" lon="3.92033">
        <ele>854</ele>
        <time>2017-02-28T00:59:32Z</time>
      </trkpt>
      <trkpt lat="44.51421" lon="3.92024">
        <ele>852</ele>
        <time>2017-02-28T01:01:32Z</time>
      </trkpt>
      <trkpt lat="44.51425" lon="3.92015">
        <ele>851</ele>
        <time>2017-02-28T01:03:32Z</time>
      </trkpt>
      <trkpt lat="44.51428" lon="3.92009">
        <ele>850</ele>
        <time>2017-02-28T01:05:32Z</time>
      </trkpt>
      <trkpt lat="44.51431" lon="3.92004">
        <ele>849</ele>
        <time>2017-02-28T01:07:32Z</time>
      </trkpt>
      <trkpt lat="44.51435" lon="3.92">
        <ele>848</ele>
        <time>2017-02-28T01:09:32Z</time>
      </trkpt>
      <trkpt lat="44.51439" lon="3.91995">
        <ele>849</ele>
        <time>2017-02-28T01:11:32Z</time>
      </trkpt>
      <trkpt lat="44.5144" lon="3.91994">
        <ele>850</ele>
        <time>2017-02-28T01:13:32Z</time>
      </trkpt>
      <trkpt lat="44.51442" lon="3.91992">
        <ele>850</ele>
        <time>2017-02-28T01:15:32Z</time>
      </trkpt>
      <trkpt lat="44.51443" lon="3.91983">
        <ele>851</ele>
        <time>2017-02-28T01:17:32Z</time>
      </trkpt>
      <trkpt lat="44.51443" lon="3.91975">
        <ele>853</ele>
        <time>2017-02-28T01:19:32Z</time>
      </trkpt>
      <trkpt lat="44.51444" lon="3.91974">
        <ele>853</ele>
        <time>2017-02-28T01:21:32Z</time>
      </trkpt>
      <trkpt lat="44.51446" lon="3.91973">
        <ele>853</ele>
        <time>2017-02-28T01:23:32Z</time>
      </trkpt>
      <trkpt lat="44.51448" lon="3.91973">
        <ele>853</ele>
        <time>2017-02-28T01:25:32Z</time>
      </trkpt>
      <trkpt lat="44.51452" lon="3.91972">
        <ele>853</ele>
        <time>2017-02-28T01:27:32Z</time>
      </trkpt>
      <trkpt lat="44.51455" lon="3.91971">
        <ele>853</ele>
        <time>2017-02-28T01:29:32Z</time>
      </trkpt>
      <trkpt lat="44.5146" lon="3.91968">
        <ele>853</ele>
        <time>2017-02-28T01:31:32Z</time>
      </trkpt>
      <trkpt lat="44.51466" lon="3.91961">
        <ele>854</ele>
        <time>2017-02-28T01:33:32Z</time>
      </trkpt>
      <trkpt lat="44.51471" lon="3.91954">
        <ele>855</ele>
        <time>2017-02-28T01:35:32Z</time>
      </trkpt>
      <trkpt lat="44.51478" lon="3.91946">
        <ele>855</ele>
        <time>2017-02-28T01:37:32Z</time>
      </trkpt>
      <trkpt lat="44.51482" lon="3.91938">
        <ele>855</ele>
        <time>2017-02-28T01:39:32Z</time>
      </trkpt>
      <trkpt lat="44.51483" lon="3.91934">
        <ele>856</ele>
        <time>2017-02-28T01:41:32Z</time>
      </trkpt>
      <trkpt lat="44.51484" lon="3.91931">
        <ele>856</ele>
        <time>2017-02-28T01:43:32Z</time>
      </trkpt>
      <trkpt lat="44.51487" lon="3.91928">
        <ele>856</ele>
        <time>2017-02-28T01:45:32Z</time>
      </trkpt>
      <trkpt lat="44.51492" lon="3.91924">
        <ele>856</ele>
        <time>2017-02-28T01:47:32Z</time>
      </trkpt>
      <trkpt lat="44.51495" lon="3.9192">
        <ele>855</ele>
        <time>2017-02-28T01:49:32Z</time>
      </trkpt>
      <trkpt lat="44.51497" lon="3.91917">
        <ele>855</ele>
        <time>2017-02-28T01:51:32Z</time>
      </trkpt>
      <trkpt lat="44.51499" lon="3.9191">
        <ele>856</ele>
        <time>2017-02-28T01:53:32Z</time>
      </trkpt>
      <trkpt lat="44.51502" lon="3.91891">
        <ele>859</ele>
        <time>2017-02-28T01:55:32Z</time>
      </trkpt>
      <trkpt lat="44.51502" lon="3.91882">
        <ele>860</ele>
        <time>2017-02-28T01:57:32Z</time>
      </trkpt>
      <trkpt lat="44.515" lon="3.91872">
        <ele>860</ele>
        <time>2017-02-28T01:59:32Z</time>
      </trkpt>
      <trkpt lat="44.51499" lon="3.91867">
        <ele>861</ele>
        <time>2017-02-28T02:01:32Z</time>
      </trkpt>
      <trkpt lat="44.515" lon="3.91864">
        <ele>861</ele>
        <time>2017-02-28T02:03:32Z</time>
      </trkpt>
      <trkpt lat="44.51502" lon="3.91862">
        <ele>862</ele>
        <time>2017-02-28T02:05:32Z</time>
      </trkpt>
      <trkpt lat="44.51504" lon="3.9186">
        <ele>862</ele>
        <time>2017-02-28T02:07:32Z</time>
      </trkpt>
      <trkpt lat="44.51511" lon="3.91856">
        <ele>864</ele>
        <time>2017-02-28T02:09:32Z</time>
      </trkpt>
      <trkpt lat="44.51518" lon="3.9185">
        <ele>866</ele>
        <time>2017-02-28T02:11:32Z</time>
      </trkpt>
      <trkpt lat="44.51522" lon="3.91844">
        <ele>867</ele>
        <time>2017-02-28T02:13:32Z</time>
      </trkpt>
      <trkpt lat="44.51525" lon="3.91838">
        <ele>868</ele>
        <time>2017-02-28T02:15:32Z</time>
      </trkpt>
      <trkpt lat="44.51529" lon="3.91832">
        <ele>869</ele>
        <time>2017-02-28T02:17:32Z</time>
      </trkpt>
      <trkpt lat="44.51532" lon="3.91826">
        <ele>870</ele>
        <time>2017-02-28T02:19:32Z</time>
      </trkpt>
      <trkpt lat="44.51536" lon="3.91816">
        <ele>872</ele>
        <time>2017-02-28T02:21:32Z</time>
      </trkpt>
      <trkpt lat="44.51539" lon="3.91807">
        <ele>873</ele>
        <time>2017-02-28T02:23:32Z</time>
      </trkpt>
      <trkpt lat="44.51541" lon="3.91799">
        <ele>873</ele>
        <time>2017-02-28T02:25:32Z</time>
      </trkpt>
      <trkpt lat="44.51543" lon="3.91794">
        <ele>874</ele>
        <time>2017-02-28T02:27:32Z</time>
      </trkpt>
      <trkpt lat="44.51547" lon="3.91785">
        <ele>874</ele>
        <time>2017-02-28T02:29:32Z</time>
      </trkpt>
      <trkpt lat="44.51551" lon="3.91772">
        <ele>875</ele>
        <time>2017-02-28T02:31:32Z</time>
      </trkpt>
      <trkpt lat="44.51556" lon="3.91761">
        <ele>875</ele>
        <time>2017-02-28T02:33:32Z</time>
      </trkpt>
      <trkpt lat="44.51556" lon="3.91757">
        <ele>875</ele>
        <time>2017-02-28T02:35:32Z</time>
      </trkpt>
      <trkpt lat="44.51557" lon="3.91749">
        <ele>875</ele>
        <time>2017-02-28T02:37:32Z</time>
      </trkpt>
      <trkpt lat="44.5156" lon="3.91743">
        <ele>875</ele>
        <time>2017-02-28T02:39:32Z</time>
      </trkpt>
      <trkpt lat="44.51561" lon="3.91733">
        <ele>877</ele>
        <time>2017-02-28T02:41:32Z</time>
      </trkpt>
      <trkpt lat="44.5156" lon="3.91725">
        <ele>878</ele>
        <time>2017-02-28T02:43:32Z</time>
      </trkpt>
      <trkpt lat="44.51554" lon="3.9171">
        <ele>880</ele>
        <time>2017-02-28T02:45:32Z</time>
      </trkpt>
      <trkpt lat="44.5155" lon="3.91703">
        <ele>882</ele>
        <time>2017-02-28T02:47:32Z</time>
      </trkpt>
      <trkpt lat="44.51545" lon="3.91693">
        <ele>884</ele>
        <time>2017-02-28T02:49:32Z</time>
      </trkpt>
      <trkpt lat="44.51541" lon="3.91683">
        <ele>885</ele>
        <time>2017-02-28T02:51:32Z</time>
      </trkpt>
      <trkpt lat="44.51541" lon="3.91678">
        <ele>886</ele>
        <time>2017-02-28T02:53:32Z</time>
      </trkpt>
      <trkpt lat="44.51543" lon="3.91672">
        <ele>887</ele>
        <time>2017-02-28T02:55:32Z</time>
      </trkpt>
      <trkpt lat="44.51545" lon="3.91663">
        <ele>888</ele>
        <time>2017-02-28T02:57:32Z</time>
      </trkpt>
      <trkpt lat="44.51545" lon="3.9166">
        <ele>888</ele>
        <time>2017-02-28T02:59:32Z</time>
      </trkpt>
      <trkpt lat="44.51542" lon="3.91656">
        <ele>889</ele>
        <time>2017-02-28T03:01:32Z</time>
      </trkpt>
      <trkpt lat="44.51541" lon="3.91652">
        <ele>889</ele>
        <time>2017-02-28T03:03:32Z</time>
      </trkpt>
      <trkpt lat="44.51542" lon="3.9165">
        <ele>890</ele>
        <time>2017-02-28T03:05:32Z</time>
      </trkpt>
      <trkpt lat="44.51545" lon="3.9165">
        <ele>889</ele>
        <time>2017-02-28T03:07:32Z</time>
      </trkpt>
      <trkpt lat="44.51552" lon="3.91653">
        <ele>888</ele>
        <time>2017-02-28T03:09:32Z</time>
      </trkpt>
      <trkpt lat="44.51557" lon="3.91658">
        <ele>887</ele>
        <time>2017-02-28T03:11:32Z</time>
      </trkpt>
      <trkpt lat="44.51559" lon="3.91661">
        <ele>886</ele>
        <time>2017-02-28T03:13:32Z</time>
      </trkpt>
      <trkpt lat="44.51562" lon="3.91662">
        <ele>886</ele>
        <time>2017-02-28T03:15:32Z</time>
      </trkpt>
      <trkpt lat="44.51565" lon="3.9166">
        <ele>886</ele>
        <time>2017-02-28T03:17:32Z</time>
      </trkpt>
      <trkpt lat="44.51568" lon="3.91655">
        <ele>887</ele>
        <time>2017-02-28T03:19:32Z</time>
      </trkpt>
      <trkpt lat="44.51576" lon="3.91637">
        <ele>889</ele>
        <time>2017-02-28T03:21:32Z</time>
      </trkpt>
      <trkpt lat="44.51591" lon="3.91603">
        <ele>894</ele>
        <time>2017-02-28T03:23:32Z</time>
      </trkpt>
      <trkpt lat="44.51594" lon="3.91597">
        <ele>896</ele>
        <time>2017-02-28T03:25:32Z</time>
      </trkpt>
      <trkpt lat="44.51598" lon="3.91594">
        <ele>896</ele>
        <time>2017-02-28T03:27:32Z</time>
      </trkpt>
      <trkpt lat="44.51602" lon="3.91588">
        <ele>897</ele>
        <time>2017-02-28T03:29:32Z</time>
      </trkpt>
      <trkpt lat="44.51612" lon="3.91577">
        <ele>898</ele>
        <time>2017-02-28T03:31:32Z</time>
      </trkpt>
      <trkpt lat="44.51615" lon="3.91575">
        <ele>898</ele>
        <time>2017-02-28T03:33:32Z</time>
      </trkpt>
      <trkpt lat="44.51617" lon="3.91574">
        <ele>898</ele>
        <time>2017-02-28T03:35:32Z</time>
      </trkpt>
      <trkpt lat="44.51618" lon="3.91574">
        <ele>898</ele>
        <time>2017-02-28T03:37:32Z</time>
      </trkpt>
      <trkpt lat="44.51619" lon="3.91573">
        <ele>898</ele>
        <time>2017-02-28T03:39:32Z</time>
      </trkpt>
      <trkpt lat="44.51622" lon="3.91571">
        <ele>898</ele>
        <time>2017-02-28T03:41:32Z</time>
      </trkpt>
      <trkpt lat="44.51624" lon="3.9157">
        <ele>898</ele>
        <time>2017-02-28T03:43:32Z</time>
      </trkpt>
      <trkpt lat="44.51628" lon="3.9157">
        <ele>898</ele>
        <time>2017-02-28T03:45:32Z</time>
      </trkpt>
      <trkpt lat="44.51634" lon="3.91567">
        <ele>899</ele>
        <time>2017-02-28T03:47:32Z</time>
      </trkpt>
      <trkpt lat="44.5164" lon="3.91563">
        <ele>899</ele>
        <time>2017-02-28T03:49:32Z</time>
      </trkpt>
      <trkpt lat="44.51649" lon="3.91557">
        <ele>899</ele>
        <time>2017-02-28T03:51:32Z</time>
      </trkpt>
      <trkpt lat="44.51655" lon="3.91552">
        <ele>900</ele>
        <time>2017-02-28T03:53:32Z</time>
      </trkpt>
      <trkpt lat="44.51659" lon="3.91548">
        <ele>900</ele>
        <time>2017-02-28T03:55:32Z</time>
      </trkpt>
      <trkpt lat="44.51663" lon="3.91543">
        <ele>900</ele>
        <time>2017-02-28T03:57:32Z</time>
      </trkpt>
      <trkpt lat="44.51667" lon="3.91536">
        <ele>901</ele>
        <time>2017-02-28T03:59:32Z</time>
      </trkpt>
      <trkpt lat="44.51672" lon="3.9153">
        <ele>902</ele>
        <time>2017-02-28T04:01:32Z</time>
      </trkpt>
      <trkpt lat="44.51678" lon="3.91521">
        <ele>903</ele>
        <time>2017-02-28T04:03:32Z</time>
      </trkpt>
      <trkpt lat="44.51688" lon="3.91513">
        <ele>905</ele>
        <time>2017-02-28T04:05:32Z</time>
      </trkpt>
      <trkpt lat="44.51695" lon="3.91507">
        <ele>906</ele>
        <time>2017-02-28T04:07:32Z</time>
      </trkpt>
      <trkpt lat="44.51701" lon="3.91504">
        <ele>907</ele>
        <time>2017-02-28T04:09:32Z</time>
      </trkpt>
      <trkpt lat="44.51709" lon="3.91503">
        <ele>907</ele>
        <time>2017-02-28T04:11:32Z</time>
      </trkpt>
      <trkpt lat="44.51712" lon="3.91501">
        <ele>908</ele>
        <time>2017-02-28T04:13:32Z</time>
      </trkpt>
      <trkpt lat="44.51716" lon="3.91497">
        <ele>908</ele>
        <time>2017-02-28T04:15:32Z</time>
      </trkpt>
      <trkpt lat="44.51726" lon="3.91485">
        <ele>908</ele>
        <time>2017-02-28T04:17:32Z</time>
      </trkpt>
      <trkpt lat="44.51729" lon="3.9148">
        <ele>907</ele>
        <time>2017-02-28T04:19:32Z</time>
      </trkpt>
      <trkpt lat="44.51734" lon="3.91474">
        <ele>907</ele>
        <time>2017-02-28T04:21:32Z</time>
      </trkpt>
      <trkpt lat="44.51738" lon="3.91466">
        <ele>906</ele>
        <time>2017-02-28T04:23:32Z</time>
      </trkpt>
      <trkpt lat="44.51747" lon="3.91456">
        <ele>906</ele>
        <time>2017-02-28T04:25:32Z</time>
      </trkpt>
      <trkpt lat="44.51755" lon="3.91443">
        <ele>905</ele>
        <time>2017-02-28T04:27:32Z</time>
      </trkpt>
      <trkpt lat="44.51761" lon="3.91433">
        <ele>904</ele>
        <time>2017-02-28T04:29:32Z</time>
      </trkpt>
      <trkpt lat="44.51766" lon="3.91422">
        <ele>904</ele>
        <time>2017-02-28T04:31:32Z</time>
      </trkpt>
      <trkpt lat="44.51771" lon="3.91409">
        <ele>903</ele>
        <time>2017-02-28T04:33:32Z</time>
      </trkpt>
      <trkpt lat="44.51778" lon="3.91398">
        <ele>903</ele>
        <time>2017-02-28T04:35:32Z</time>
      </trkpt>
      <trkpt lat="44.51788" lon="3.91387">
        <ele>903</ele>
        <time>2017-02-28T04:37:32Z</time>
      </trkpt>
      <trkpt lat="44.51798" lon="3.91376">
        <ele>903</ele>
        <time>2017-02-28T04:39:32Z</time>
      </trkpt>
      <trkpt lat="44.51805" lon="3.91369">
        <ele>903</ele>
        <time>2017-02-28T04:41:32Z</time>
      </trkpt>
      <trkpt lat="44.5181" lon="3.91367">
        <ele>904</ele>
        <time>2017-02-28T04:43:32Z</time>
      </trkpt>
      <trkpt lat="44.51816" lon="3.91368">
        <ele>905</ele>
        <time>2017-02-28T04:45:32Z</time>
      </trkpt>
      <trkpt lat="44.51827" lon="3.91373">
        <ele>906</ele>
        <time>2017-02-28T04:47:32Z</time>
      </trkpt>
      <trkpt lat="44.51838" lon="3.91381">
        <ele>906</ele>
        <time>2017-02-28T04:49:32Z</time>
      </trkpt>
      <trkpt lat="44.51844" lon="3.91386">
        <ele>905</ele>
        <time>2017-02-28T04:51:32Z</time>
      </trkpt>
      <trkpt lat="44.51847" lon="3.91385">
        <ele>905</ele>
        <time>2017-02-28T04:53:32Z</time>
      </trkpt>
      <trkpt lat="44.51849" lon="3.91382">
        <ele>904</ele>
        <time>2017-02-28T04:55:32Z</time>
      </trkpt>
      <trkpt lat="44.51851" lon="3.91376">
        <ele>904</ele>
        <time>2017-02-28T04:57:32Z</time>
      </trkpt>
      <trkpt lat="44.51856" lon="3.91371">
        <ele>903</ele>
        <time>2017-02-28T04:59:32Z</time>
      </trkpt>
      <trkpt lat="44.5186" lon="3.91365">
        <ele>902</ele>
        <time>2017-02-28T05:01:32Z</time>
      </trkpt>
      <trkpt lat="44.51874" lon="3.91342">
        <ele>898</ele>
        <time>2017-02-28T05:03:32Z</time>
      </trkpt>
      <trkpt lat="44.5188" lon="3.91329">
        <ele>897</ele>
        <time>2017-02-28T05:05:32Z</time>
      </trkpt>
      <trkpt lat="44.51884" lon="3.91322">
        <ele>896</ele>
        <time>2017-02-28T05:07:32Z</time>
      </trkpt>
      <trkpt lat="44.51886" lon="3.91319">
        <ele>896</ele>
        <time>2017-02-28T05:09:32Z</time>
      </trkpt>
      <trkpt lat="44.51891" lon="3.91314">
        <ele>895</ele>
        <time>2017-02-28T05:11:32Z</time>
      </trkpt>
      <trkpt lat="44.51899" lon="3.91309">
        <ele>894</ele>
        <time>2017-02-28T05:13:32Z</time>
      </trkpt>
      <trkpt lat="44.51907" lon="3.91301">
        <ele>893</ele>
        <time>2017-02-28T05:15:32Z</time>
      </trkpt>
      <trkpt lat="44.51916" lon="3.9129">
        <ele>891</ele>
        <time>2017-02-28T05:17:32Z</time>
      </trkpt>
      <trkpt lat="44.51922" lon="3.9128">
        <ele>890</ele>
        <time>2017-02-28T05:19:32Z</time>
      </trkpt>
      <trkpt lat="44.51929" lon="3.91268">
        <ele>888</ele>
        <time>2017-02-28T05:21:32Z</time>
      </trkpt>
      <trkpt lat="44.51932" lon="3.91263">
        <ele>888</ele>
        <time>2017-02-28T05:23:32Z</time>
      </trkpt>
      <trkpt lat="44.51933" lon="3.91259">
        <ele>887</ele>
        <time>2017-02-28T05:25:32Z</time>
      </trkpt>
      <trkpt lat="44.51934" lon="3.91254">
        <ele>887</ele>
        <time>2017-02-28T05:27:32Z</time>
      </trkpt>
      <trkpt lat="44.51936" lon="3.91252">
        <ele>887</ele>
        <time>2017-02-28T05:29:32Z</time>
      </trkpt>
      <trkpt lat="44.51938" lon="3.91251">
        <ele>886</ele>
        <time>2017-02-28T05:31:32Z</time>
      </trkpt>
      <trkpt lat="44.51941" lon="3.91251">
        <ele>885</ele>
        <time>2017-02-28T05:33:32Z</time>
      </trkpt>
      <trkpt lat="44.51946" lon="3.91255">
        <ele>884</ele>
        <time>2017-02-28T05:35:32Z</time>
      </trkpt>
      <trkpt lat="44.51949" lon="3.91259">
        <ele>883</ele>
        <time>2017-02-28T05:37:32Z</time>
      </trkpt>
      <trkpt lat="44.51952" lon="3.91265">
        <ele>882</ele>
        <time>2017-02-28T05:39:32Z</time>
      </trkpt>
      <trkpt lat="44.51952" lon="3.91274">
        <ele>882</ele>
        <time>2017-02-28T05:41:32Z</time>
      </trkpt>
      <trkpt lat="44.51952" lon="3.91278">
        <ele>882</ele>
        <time>2017-02-28T05:43:32Z</time>
      </trkpt>
      <trkpt lat="44.51953" lon="3.91281">
        <ele>882</ele>
        <time>2017-02-28T05:45:32Z</time>
      </trkpt>
      <trkpt lat="44.51954" lon="3.91281">
        <ele>882</ele>
        <time>2017-02-28T05:47:32Z</time>
      </trkpt>
      <trkpt lat="44.51955" lon="3.91281">
        <ele>882</ele>
        <time>2017-02-28T05:49:32Z</time>
      </trkpt>
      <trkpt lat="44.51957" lon="3.91281">
        <ele>881</ele>
        <time>2017-02-28T05:51:32Z</time>
      </trkpt>
      <trkpt lat="44.5196" lon="3.91276">
        <ele>880</ele>
        <time>2017-02-28T05:53:32Z</time>
      </trkpt>
      <trkpt lat="44.51965" lon="3.91267">
        <ele>879</ele>
        <time>2017-02-28T05:55:32Z</time>
      </trkpt>
      <trkpt lat="44.51969" lon="3.91255">
        <ele>878</ele>
        <time>2017-02-28T05:57:32Z</time>
      </trkpt>
      <trkpt lat="44.51971" lon="3.91248">
        <ele>877</ele>
        <time>2017-02-28T05:59:32Z</time>
      </trkpt>
      <trkpt lat="44.5197" lon="3.91242">
        <ele>877</ele>
        <time>2017-02-28T06:01:32Z</time>
      </trkpt>
      <trkpt lat="44.51971" lon="3.9124">
        <ele>877</ele>
        <time>2017-02-28T06:03:32Z</time>
      </trkpt>
      <trkpt lat="44.51973" lon="3.91239">
        <ele>876</ele>
        <time>2017-02-28T06:05:32Z</time>
      </trkpt>
      <trkpt lat="44.51975" lon="3.91239">
        <ele>876</ele>
        <time>2017-02-28T06:07:32Z</time>
      </trkpt>
      <trkpt lat="44.51977" lon="3.91241">
        <ele>875</ele>
        <time>2017-02-28T06:09:32Z</time>
      </trkpt>
      <trkpt lat="44.51978" lon="3.91243">
        <ele>875</ele>
        <time>2017-02-28T06:11:32Z</time>
      </trkpt>
      <trkpt lat="44.51983" lon="3.9125">
        <ele>874</ele>
        <time>2017-02-28T06:13:32Z</time>
      </trkpt>
      <trkpt lat="44.51984" lon="3.91253">
        <ele>873</ele>
        <time>2017-02-28T06:15:32Z</time>
      </trkpt>
      <trkpt lat="44.51984" lon="3.91256">
        <ele>874</ele>
        <time>2017-02-28T06:17:32Z</time>
      </trkpt>
      <trkpt lat="44.51984" lon="3.91265">
        <ele>874</ele>
        <time>2017-02-28T06:19:32Z</time>
      </trkpt>
      <trkpt lat="44.51984" lon="3.91269">
        <ele>874</ele>
        <time>2017-02-28T06:21:32Z</time>
      </trkpt>
      <trkpt lat="44.51985" lon="3.91271">
        <ele>874</ele>
        <time>2017-02-28T06:23:32Z</time>
      </trkpt>
      <trkpt lat="44.51986" lon="3.91272">
        <ele>873</ele>
        <time>2017-02-28T06:25:32Z</time>
      </trkpt>
      <trkpt lat="44.51987" lon="3.91272">
        <ele>873</ele>
        <time>2017-02-28T06:27:32Z</time>
      </trkpt>
      <trkpt lat="44.51988" lon="3.91271">
        <ele>873</ele>
        <time>2017-02-28T06:29:32Z</time>
      </trkpt>
      <trkpt lat="44.51992" lon="3.91262">
        <ele>872</ele>
        <time>2017-02-28T06:31:32Z</time>
      </trkpt>
      <trkpt lat="44.51996" lon="3.91256">
        <ele>870</ele>
        <time>2017-02-28T06:33:32Z</time>
      </trkpt>
      <trkpt lat="44.51999" lon="3.9125">
        <ele>869</ele>
        <time>2017-02-28T06:35:32Z</time>
      </trkpt>
      <trkpt lat="44.52004" lon="3.9124">
        <ele>869</ele>
        <time>2017-02-28T06:37:32Z</time>
      </trkpt>
      <trkpt lat="44.52006" lon="3.91231">
        <ele>869</ele>
        <time>2017-02-28T06:39:32Z</time>
      </trkpt>
      <trkpt lat="44.52008" lon="3.91224">
        <ele>869</ele>
        <time>2017-02-28T06:41:32Z</time>
      </trkpt>
      <trkpt lat="44.52009" lon="3.91215">
        <ele>869</ele>
        <time>2017-02-28T06:43:32Z</time>
      </trkpt>
      <trkpt lat="44.52011" lon="3.9121">
        <ele>870</ele>
        <time>2017-02-28T06:45:32Z</time>
      </trkpt>
      <trkpt lat="44.52014" lon="3.91206">
        <ele>869</ele>
        <time>2017-02-28T06:47:32Z</time>
      </trkpt>
      <trkpt lat="44.52019" lon="3.91204">
        <ele>869</ele>
        <time>2017-02-28T06:49:32Z</time>
      </trkpt>
      <trkpt lat="44.52023" lon="3.91202">
        <ele>869</ele>
        <time>2017-02-28T06:51:32Z</time>
      </trkpt>
      <trkpt lat="44.52028" lon="3.91201">
        <ele>869</ele>
        <time>2017-02-28T06:53:32Z</time>
      </trkpt>
      <trkpt lat="44.52034" lon="3.91201">
        <ele>869</ele>
        <time>2017-02-28T06:55:32Z</time>
      </trkpt>
      <trkpt lat="44.52045" lon="3.91207">
        <ele>869</ele>
        <time>2017-02-28T06:57:32Z</time>
      </trkpt>
      <trkpt lat="44.52056" lon="3.91213">
        <ele>870</ele>
        <time>2017-02-28T06:59:32Z</time>
      </trkpt>
      <trkpt lat="44.52061" lon="3.91215">
        <ele>870</ele>
        <time>2017-02-28T07:01:32Z</time>
      </trkpt>
      <trkpt lat="44.52079" lon="3.91222">
        <ele>871</ele>
        <time>2017-02-28T07:03:32Z</time>
      </trkpt>
      <trkpt lat="44.52091" lon="3.91224">
        <ele>872</ele>
        <time>2017-02-28T07:05:32Z</time>
      </trkpt>
      <trkpt lat="44.52099" lon="3.91224">
        <ele>873</ele>
        <time>2017-02-28T07:07:32Z</time>
      </trkpt>
      <trkpt lat="44.52099" lon="3.91224">
        <ele>873</ele>
        <time>2017-02-28T07:09:32Z</time>
      </trkpt>
      <trkpt lat="44.52102" lon="3.91211">
        <ele>872</ele>
        <time>2017-02-28T07:11:32Z</time>
      </trkpt>
      <trkpt lat="44.52103" lon="3.91209">
        <ele>872</ele>
        <time>2017-02-28T07:13:32Z</time>
      </trkpt>
      <trkpt lat="44.52106" lon="3.91196">
        <ele>871</ele>
        <time>2017-02-28T07:15:32Z</time>
      </trkpt>
      <trkpt lat="44.52116" lon="3.91173">
        <ele>868</ele>
        <time>2017-02-28T07:17:32Z</time>
      </trkpt>
      <trkpt lat="44.52118" lon="3.91169">
        <ele>868</ele>
        <time>2017-02-28T07:19:32Z</time>
      </trkpt>
      <trkpt lat="44.5212" lon="3.91164">
        <ele>867</ele>
        <time>2017-02-28T07:21:32Z</time>
      </trkpt>
      <trkpt lat="44.52124" lon="3.91158">
        <ele>866</ele>
        <time>2017-02-28T07:23:32Z</time>
      </trkpt>
      <trkpt lat="44.52129" lon="3.91153">
        <ele>866</ele>
        <time>2017-02-28T07:25:32Z</time>
      </trkpt>
      <trkpt lat="44.52132" lon="3.9115">
        <ele>865</ele>
        <time>2017-02-28T07:27:32Z</time>
      </trkpt>
      <trkpt lat="44.52136" lon="3.91147">
        <ele>865</ele>
        <time>2017-02-28T07:29:32Z</time>
      </trkpt>
      <trkpt lat="44.52141" lon="3.91145">
        <ele>864</ele>
        <time>2017-02-28T07:31:32Z</time>
      </trkpt>
      <trkpt lat="44.52148" lon="3.91141">
        <ele>864</ele>
        <time>2017-02-28T07:33:32Z</time>
      </trkpt>
      <trkpt lat="44.52154" lon="3.9114">
        <ele>864</ele>
        <time>2017-02-28T07:35:32Z</time>
      </trkpt>
      <trkpt lat="44.52161" lon="3.91138">
        <ele>864</ele>
        <time>2017-02-28T07:37:32Z</time>
      </trkpt>
      <trkpt lat="44.52168" lon="3.91136">
        <ele>863</ele>
        <time>2017-02-28T07:39:32Z</time>
      </trkpt>
      <trkpt lat="44.52171" lon="3.91134">
        <ele>863</ele>
        <time>2017-02-28T07:41:32Z</time>
      </trkpt>
      <trkpt lat="44.52173" lon="3.91133">
        <ele>863</ele>
        <time>2017-02-28T07:43:32Z</time>
      </trkpt>
      <trkpt lat="44.52174" lon="3.91132">
        <ele>863</ele>
        <time>2017-02-28T07:45:32Z</time>
      </trkpt>
      <trkpt lat="44.52175" lon="3.91129">
        <ele>862</ele>
        <time>2017-02-28T07:47:32Z</time>
      </trkpt>
      <trkpt lat="44.52175" lon="3.91129">
        <ele>862</ele>
        <time>2017-02-28T07:49:32Z</time>
      </trkpt>
      <trkpt lat="44.52174" lon="3.91128">
        <ele>862</ele>
        <time>2017-02-28T07:51:32Z</time>
      </trkpt>
      <trkpt lat="44.52172" lon="3.91127">
        <ele>862</ele>
        <time>2017-02-28T07:53:32Z</time>
      </trkpt>
      <trkpt lat="44.52169" lon="3.91127">
        <ele>861</ele>
        <time>2017-02-28T07:55:32Z</time>
      </trkpt>
      <trkpt lat="44.52157" lon="3.91126">
        <ele>861</ele>
        <time>2017-02-28T07:57:32Z</time>
      </trkpt>
      <trkpt lat="44.52142" lon="3.91121">
        <ele>860</ele>
        <time>2017-02-28T07:59:32Z</time>
      </trkpt>
      <trkpt lat="44.52129" lon="3.91118">
        <ele>859</ele>
        <time>2017-02-28T08:01:32Z</time>
      </trkpt>
      <trkpt lat="44.52117" lon="3.91118">
        <ele>859</ele>
        <time>2017-02-28T08:03:32Z</time>
      </trkpt>
      <trkpt lat="44.52103" lon="3.9112">
        <ele>859</ele>
        <time>2017-02-28T08:05:32Z</time>
      </trkpt>
      <trkpt lat="44.52096" lon="3.91123">
        <ele>859</ele>
        <time>2017-02-28T08:07:32Z</time>
      </trkpt>
      <trkpt lat="44.5209" lon="3.91127">
        <ele>860</ele>
        <time>2017-02-28T08:09:32Z</time>
      </trkpt>
      <trkpt lat="44.52086" lon="3.91127">
        <ele>860</ele>
        <time>2017-02-28T08:11:32Z</time>
      </trkpt>
      <trkpt lat="44.52085" lon="3.91122">
        <ele>859</ele>
        <time>2017-02-28T08:13:32Z</time>
      </trkpt>
      <trkpt lat="44.52086" lon="3.91117">
        <ele>858</ele>
        <time>2017-02-28T08:15:32Z</time>
      </trkpt>
      <trkpt lat="44.52092" lon="3.91112">
        <ele>858</ele>
        <time>2017-02-28T08:17:32Z</time>
      </trkpt>
      <trkpt lat="44.52104" lon="3.91106">
        <ele>857</ele>
        <time>2017-02-28T08:19:32Z</time>
      </trkpt>
      <trkpt lat="44.52114" lon="3.91105">
        <ele>856</ele>
        <time>2017-02-28T08:21:32Z</time>
      </trkpt>
      <trkpt lat="44.52132" lon="3.91101">
        <ele>856</ele>
        <time>2017-02-28T08:23:32Z</time>
      </trkpt>
      <trkpt lat="44.52148" lon="3.91097">
        <ele>855</ele>
        <time>2017-02-28T08:25:32Z</time>
      </trkpt>
      <trkpt lat="44.52154" lon="3.91094">
        <ele>854</ele>
        <time>2017-02-28T08:27:32Z</time>
      </trkpt>
      <trkpt lat="44.52156" lon="3.91089">
        <ele>853</ele>
        <time>2017-02-28T08:29:32Z</time>
      </trkpt>
      <trkpt lat="44.52157" lon="3.91082">
        <ele>852</ele>
        <time>2017-02-28T08:31:32Z</time>
      </trkpt>
      <trkpt lat="44.52157" lon="3.91071">
        <ele>852</ele>
        <time>2017-02-28T08:33:32Z</time>
      </trkpt>
      <trkpt lat="44.52158" lon="3.91064">
        <ele>852</ele>
        <time>2017-02-28T08:35:32Z</time>
      </trkpt>
      <trkpt lat="44.52158" lon="3.91058">
        <ele>852</ele>
        <time>2017-02-28T08:37:32Z</time>
      </trkpt>
      <trkpt lat="44.52158" lon="3.91058">
        <ele>852</ele>
        <time>2017-02-28T08:39:32Z</time>
      </trkpt>
      <trkpt lat="44.52158" lon="3.91056">
        <ele>852</ele>
        <time>2017-02-28T08:41:32Z</time>
      </trkpt>
      <trkpt lat="44.52158" lon="3.91043">
        <ele>851</ele>
        <time>2017-02-28T08:43:32Z</time>
      </trkpt>
      <trkpt lat="44.52158" lon="3.91022">
        <ele>851</ele>
        <time>2017-02-28T08:45:32Z</time>
      </trkpt>
      <trkpt lat="44.52158" lon="3.91001">
        <ele>851</ele>
        <time>2017-02-28T08:47:32Z</time>
      </trkpt>
      <trkpt lat="44.52157" lon="3.90995">
        <ele>851</ele>
        <time>2017-02-28T08:49:32Z</time>
      </trkpt>
      <trkpt lat="44.52152" lon="3.90987">
        <ele>850</ele>
        <time>2017-02-28T08:51:32Z</time>
      </trkpt>
      <trkpt lat="44.52152" lon="3.90987">
        <ele>850</ele>
        <time>2017-02-28T08:53:32Z</time>
      </trkpt>
      <trkpt lat="44.52156" lon="3.90979">
        <ele>851</ele>
        <time>2017-02-28T08:55:32Z</time>
      </trkpt>
      <trkpt lat="44.52162" lon="3.90965">
        <ele>851</ele>
        <time>2017-02-28T08:57:32Z</time>
      </trkpt>
      <trkpt lat="44.52165" lon="3.90958">
        <ele>851</ele>
        <time>2017-02-28T08:59:32Z</time>
      </trkpt>
      <trkpt lat="44.52165" lon="3.90958">
        <ele>851</ele>
        <time>2017-02-28T09:01:32Z</time>
      </trkpt>
      <trkpt lat="44.5217" lon="3.90948">
        <ele>851</ele>
        <time>2017-02-28T09:03:32Z</time>
      </trkpt>
      <trkpt lat="44.52177" lon="3.90934">
        <ele>852</ele>
        <time>2017-02-28T09:05:32Z</time>
      </trkpt>
      <trkpt lat="44.52188" lon="3.90917">
        <ele>853</ele>
        <time>2017-02-28T09:07:32Z</time>
      </trkpt>
      <trkpt lat="44.52198" lon="3.90902">
        <ele>853</ele>
        <time>2017-02-28T09:09:32Z</time>
      </trkpt>
      <trkpt lat="44.52219" lon="3.90877">
        <ele>853</ele>
        <time>2017-02-28T09:11:32Z</time>
      </trkpt>
      <trkpt lat="44.52222" lon="3.90873">
        <ele>853</ele>
        <time>2017-02-28T09:13:32Z</time>
      </trkpt>
      <trkpt lat="44.52226" lon="3.90868">
        <ele>853</ele>
        <time>2017-02-28T09:15:32Z</time>
      </trkpt>
      <trkpt lat="44.52226" lon="3.90868">
        <ele>853</ele>
        <time>2017-02-28T09:17:32Z</time>
      </trkpt>
      <trkpt lat="44.52234" lon="3.90861">
        <ele>853</ele>
        <time>2017-02-28T09:19:32Z</time>
      </trkpt>
      <trkpt lat="44.52236" lon="3.90858">
        <ele>853</ele>
        <time>2017-02-28T09:21:32Z</time>
      </trkpt>
      <trkpt lat="44.52239" lon="3.90853">
        <ele>852</ele>
        <time>2017-02-28T09:23:32Z</time>
      </trkpt>
      <trkpt lat="44.5224" lon="3.90849">
        <ele>852</ele>
        <time>2017-02-28T09:25:32Z</time>
      </trkpt>
      <trkpt lat="44.52242" lon="3.90842">
        <ele>852</ele>
        <time>2017-02-28T09:27:32Z</time>
      </trkpt>
      <trkpt lat="44.52244" lon="3.90832">
        <ele>851</ele>
        <time>2017-02-28T09:29:32Z</time>
      </trkpt>
      <trkpt lat="44.52246" lon="3.90824">
        <ele>850</ele>
        <time>2017-02-28T09:31:32Z</time>
      </trkpt>
      <trkpt lat="44.52246" lon="3.90814">
        <ele>849</ele>
        <time>2017-02-28T09:33:32Z</time>
      </trkpt>
      <trkpt lat="44.52247" lon="3.90803">
        <ele>848</ele>
        <time>2017-02-28T09:35:32Z</time>
      </trkpt>
      <trkpt lat="44.52246" lon="3.9078">
        <ele>846</ele>
        <time>2017-02-28T09:37:32Z</time>
      </trkpt>
      <trkpt lat="44.52243" lon="3.90745">
        <ele>845</ele>
        <time>2017-02-28T09:39:32Z</time>
      </trkpt>
      <trkpt lat="44.52243" lon="3.90742">
        <ele>845</ele>
        <time>2017-02-28T09:41:32Z</time>
      </trkpt>
      <trkpt lat="44.52242" lon="3.9073">
        <ele>847</ele>
        <time>2017-02-28T09:43:32Z</time>
      </trkpt>
      <trkpt lat="44.52238" lon="3.90716">
        <ele>850</ele>
        <time>2017-02-28T09:45:32Z</time>
      </trkpt>
      <trkpt lat="44.52234" lon="3.90704">
        <ele>852</ele>
        <time>2017-02-28T09:47:32Z</time>
      </trkpt>
      <trkpt lat="44.5223" lon="3.9069">
        <ele>854</ele>
        <time>2017-02-28T09:49:32Z</time>
      </trkpt>
      <trkpt lat="44.52227" lon="3.90682">
        <ele>856</ele>
        <time>2017-02-28T09:51:32Z</time>
      </trkpt>
      <trkpt lat="44.52227" lon="3.90682">
        <ele>856</ele>
        <time>2017-02-28T09:53:32Z</time>
      </trkpt>
      <trkpt lat="44.5223" lon="3.90678">
        <ele>856</ele>
        <time>2017-02-28T09:55:32Z</time>
      </trkpt>
      <trkpt lat="44.52246" lon="3.90665">
        <ele>859</ele>
        <time>2017-02-28T09:57:32Z</time>
      </trkpt>
      <trkpt lat="44.52265" lon="3.90649">
        <ele>863</ele>
        <time>2017-02-28T09:59:32Z</time>
      </trkpt>
      <trkpt lat="44.52278" lon="3.90639">
        <ele>865</ele>
        <time>2017-02-28T10:01:32Z</time>
      </trkpt>
      <trkpt lat="44.52292" lon="3.90633">
        <ele>866</ele>
        <time>2017-02-28T10:03:32Z</time>
      </trkpt>
      <trkpt lat="44.52307" lon="3.90628">
        <ele>867</ele>
        <time>2017-02-28T10:05:32Z</time>
      </trkpt>
      <trkpt lat="44.52313" lon="3.90623">
        <ele>868</ele>
        <time>2017-02-28T10:07:32Z</time>
      </trkpt>
      <trkpt lat="44.52313" lon="3.90623">
        <ele>868</ele>
        <time>2017-02-28T10:09:32Z</time>
      </trkpt>
      <trkpt lat="44.52315" lon="3.90619">
        <ele>869</ele>
        <time>2017-02-28T10:11:32Z</time>
      </trkpt>
      <trkpt lat="44.52319" lon="3.90614">
        <ele>870</ele>
        <time>2017-02-28T10:13:32Z</time>
      </trkpt>
      <trkpt lat="44.52324" lon="3.90604">
        <ele>872</ele>
        <time>2017-02-28T10:15:32Z</time>
      </trkpt>
      <trkpt lat="44.52327" lon="3.90597">
        <ele>873</ele>
        <time>2017-02-28T10:17:32Z</time>
      </trkpt>
      <trkpt lat="44.52332" lon="3.90589">
        <ele>875</ele>
        <time>2017-02-28T10:19:32Z</time>
      </trkpt>
      <trkpt lat="44.5234" lon="3.90582">
        <ele>876</ele>
        <time>2017-02-28T10:21:32Z</time>
      </trkpt>
      <trkpt lat="44.52343" lon="3.90577">
        <ele>877</ele>
        <time>2017-02-28T10:23:32Z</time>
      </trkpt>
      <trkpt lat="44.5235" lon="3.90559">
        <ele>883</ele>
        <time>2017-02-28T10:25:32Z</time>
      </trkpt>
      <trkpt lat="44.52357" lon="3.90544">
        <ele>887</ele>
        <time>2017-02-28T10:27:32Z</time>
      </trkpt>
      <trkpt lat="44.52359" lon="3.9054">
        <ele>888</ele>
        <time>2017-02-28T10:29:32Z</time>
      </trkpt>
      <trkpt lat="44.52365" lon="3.90534">
        <ele>889</ele>
        <time>2017-02-28T10:31:32Z</time>
      </trkpt>
      <trkpt lat="44.52367" lon="3.90532">
        <ele>889</ele>
        <time>2017-02-28T10:33:32Z</time>
      </trkpt>
      <trkpt lat="44.52369" lon="3.90526">
        <ele>891</ele>
        <time>2017-02-28T10:35:32Z</time>
      </trkpt>
      <trkpt lat="44.52371" lon="3.90522">
        <ele>892</ele>
        <time>2017-02-28T10:37:32Z</time>
      </trkpt>
      <trkpt lat="44.52373" lon="3.9052">
        <ele>892</ele>
        <time>2017-02-28T10:39:32Z</time>
      </trkpt>
      <trkpt lat="44.52376" lon="3.90517">
        <ele>893</ele>
        <time>2017-02-28T10:41:32Z</time>
      </trkpt>
      <trkpt lat="44.52378" lon="3.90514">
        <ele>893</ele>
        <time>2017-02-28T10:43:32Z</time>
      </trkpt>
      <trkpt lat="44.5238" lon="3.9051">
        <ele>894</ele>
        <time>2017-02-28T10:45:32Z</time>
      </trkpt>
      <trkpt lat="44.52381" lon="3.90505">
        <ele>895</ele>
        <time>2017-02-28T10:47:32Z</time>
      </trkpt>
      <trkpt lat="44.52381" lon="3.90502">
        <ele>896</ele>
        <time>2017-02-28T10:49:32Z</time>
      </trkpt>
      <trkpt lat="44.52377" lon="3.90494">
        <ele>899</ele>
        <time>2017-02-28T10:51:32Z</time>
      </trkpt>
      <trkpt lat="44.52374" lon="3.90487">
        <ele>900</ele>
        <time>2017-02-28T10:53:32Z</time>
      </trkpt>
      <trkpt lat="44.52371" lon="3.90483">
        <ele>901</ele>
        <time>2017-02-28T10:55:32Z</time>
      </trkpt>
      <trkpt lat="44.52368" lon="3.90479">
        <ele>903</ele>
        <time>2017-02-28T10:57:32Z</time>
      </trkpt>
      <trkpt lat="44.52365" lon="3.90474">
        <ele>904</ele>
        <time>2017-02-28T10:59:32Z</time>
      </trkpt>
      <trkpt lat="44.52361" lon="3.90468">
        <ele>906</ele>
        <time>2017-02-28T11:01:32Z</time>
      </trkpt>
      <trkpt lat="44.5236" lon="3.90466">
        <ele>906</ele>
        <time>2017-02-28T11:03:32Z</time>
      </trkpt>
      <trkpt lat="44.5236" lon="3.90466">
        <ele>906</ele>
        <time>2017-02-28T11:05:32Z</time>
      </trkpt>
      <trkpt lat="44.52369" lon="3.9045">
        <ele>907</ele>
        <time>2017-02-28T11:07:32Z</time>
      </trkpt>
      <trkpt lat="44.52377" lon="3.90431">
        <ele>909</ele>
        <time>2017-02-28T11:09:32Z</time>
      </trkpt>
      <trkpt lat="44.52379" lon="3.90422">
        <ele>910</ele>
        <time>2017-02-28T11:11:32Z</time>
      </trkpt>
      <trkpt lat="44.52378" lon="3.90415">
        <ele>911</ele>
        <time>2017-02-28T11:13:32Z</time>
      </trkpt>
      <trkpt lat="44.52377" lon="3.90414">
        <ele>912</ele>
        <time>2017-02-28T11:15:32Z</time>
      </trkpt>
      <trkpt lat="44.52377" lon="3.90414">
        <ele>912</ele>
        <time>2017-02-28T11:17:32Z</time>
      </trkpt>
      <trkpt lat="44.52379" lon="3.90408">
        <ele>912</ele>
        <time>2017-02-28T11:19:32Z</time>
      </trkpt>
      <trkpt lat="44.52382" lon="3.90402">
        <ele>912</ele>
        <time>2017-02-28T11:21:32Z</time>
      </trkpt>
      <trkpt lat="44.52387" lon="3.90392">
        <ele>913</ele>
        <time>2017-02-28T11:23:32Z</time>
      </trkpt>
      <trkpt lat="44.52387" lon="3.90392">
        <ele>913</ele>
        <time>2017-02-28T11:25:32Z</time>
      </trkpt>
      <trkpt lat="44.5238" lon="3.90394">
        <ele>914</ele>
        <time>2017-02-28T11:27:32Z</time>
      </trkpt>
      <trkpt lat="44.52371" lon="3.90395">
        <ele>915</ele>
        <time>2017-02-28T11:29:32Z</time>
      </trkpt>
      <trkpt lat="44.52362" lon="3.90397">
        <ele>917</ele>
        <time>2017-02-28T11:31:32Z</time>
      </trkpt>
      <trkpt lat="44.52355" lon="3.90396">
        <ele>918</ele>
        <time>2017-02-28T11:33:32Z</time>
      </trkpt>
      <trkpt lat="44.52346" lon="3.90393">
        <ele>920</ele>
        <time>2017-02-28T11:35:32Z</time>
      </trkpt>
      <trkpt lat="44.52343" lon="3.90391">
        <ele>921</ele>
        <time>2017-02-28T11:37:32Z</time>
      </trkpt>
      <trkpt lat="44.5234" lon="3.90385">
        <ele>923</ele>
        <time>2017-02-28T11:39:32Z</time>
      </trkpt>
      <trkpt lat="44.52337" lon="3.90373">
        <ele>925</ele>
        <time>2017-02-28T11:41:32Z</time>
      </trkpt>
      <trkpt lat="44.5233" lon="3.90338">
        <ele>931</ele>
        <time>2017-02-28T11:43:32Z</time>
      </trkpt>
      <trkpt lat="44.52323" lon="3.90305">
        <ele>934</ele>
        <time>2017-02-28T11:45:32Z</time>
      </trkpt>
      <trkpt lat="44.52317" lon="3.9029">
        <ele>936</ele>
        <time>2017-02-28T11:47:32Z</time>
      </trkpt>
      <trkpt lat="44.52312" lon="3.90279">
        <ele>937</ele>
        <time>2017-02-28T11:49:32Z</time>
      </trkpt>
      <trkpt lat="44.52298" lon="3.90257">
        <ele>940</ele>
        <time>2017-02-28T11:51:32Z</time>
      </trkpt>
      <trkpt lat="44.52287" lon="3.90239">
        <ele>943</ele>
        <time>2017-02-28T11:53:32Z</time>
      </trkpt>
      <trkpt lat="44.52283" lon="3.9023">
        <ele>944</ele>
        <time>2017-02-28T11:55:32Z</time>
      </trkpt>
      <trkpt lat="44.52279" lon="3.90223">
        <ele>946</ele>
        <time>2017-02-28T11:57:32Z</time>
      </trkpt>
      <trkpt lat="44.52278" lon="3.90218">
        <ele>947</ele>
        <time>2017-02-28T11:59:32Z</time>
      </trkpt>
      <trkpt lat="44.52277" lon="3.90204">
        <ele>950</ele>
        <time>2017-02-28T12:01:32Z</time>
      </trkpt>
      <trkpt lat="44.52277" lon="3.9019">
        <ele>952</ele>
        <time>2017-02-28T12:03:32Z</time>
      </trkpt>
      <trkpt lat="44.52276" lon="3.90186">
        <ele>953</ele>
        <time>2017-02-28T12:05:32Z</time>
      </trkpt>
      <trkpt lat="44.52275" lon="3.90183">
        <ele>954</ele>
        <time>2017-02-28T12:07:32Z</time>
      </trkpt>
      <trkpt lat="44.52272" lon="3.90177">
        <ele>955</ele>
        <time>2017-02-28T12:09:32Z</time>
      </trkpt>
      <trkpt lat="44.52268" lon="3.9017">
        <ele>957</ele>
        <time>2017-02-28T12:11:32Z</time>
      </trkpt>
      <trkpt lat="44.52264" lon="3.90163">
        <ele>958</ele>
        <time>2017-02-28T12:13:32Z</time>
      </trkpt>
      <trkpt lat="44.52262" lon="3.90156">
        <ele>960</ele>
        <time>2017-02-28T12:15:32Z</time>
      </trkpt>
      <trkpt lat="44.52258" lon="3.9015">
        <ele>961</ele>
        <time>2017-02-28T12:17:32Z</time>
      </trkpt>
      <trkpt lat="44.52253" lon="3.90141">
        <ele>963</ele>
        <time>2017-02-28T12:19:32Z</time>
      </trkpt>
      <trkpt lat="44.52248" lon="3.90128">
        <ele>964</ele>
        <time>2017-02-28T12:21:32Z</time>
      </trkpt>
      <trkpt lat="44.52247" lon="3.90121">
        <ele>965</ele>
        <time>2017-02-28T12:23:32Z</time>
      </trkpt>
      <trkpt lat="44.52248" lon="3.90117">
        <ele>966</ele>
        <time>2017-02-28T12:25:32Z</time>
      </trkpt>
      <trkpt lat="44.5225" lon="3.90114">
        <ele>967</ele>
        <time>2017-02-28T12:27:32Z</time>
      </trkpt>
      <trkpt lat="44.52256" lon="3.90109">
        <ele>968</ele>
        <time>2017-02-28T12:29:32Z</time>
      </trkpt>
      <trkpt lat="44.52263" lon="3.90101">
        <ele>970</ele>
        <time>2017-02-28T12:31:32Z</time>
      </trkpt>
      <trkpt lat="44.52269" lon="3.90086">
        <ele>973</ele>
        <time>2017-02-28T12:33:32Z</time>
      </trkpt>
      <trkpt lat="44.52274" lon="3.90069">
        <ele>976</ele>
        <time>2017-02-28T12:35:32Z</time>
      </trkpt>
      <trkpt lat="44.52276" lon="3.90052">
        <ele>978</ele>
        <time>2017-02-28T12:37:32Z</time>
      </trkpt>
      <trkpt lat="44.52275" lon="3.90024">
        <ele>983</ele>
        <time>2017-02-28T12:39:32Z</time>
      </trkpt>
      <trkpt lat="44.52269" lon="3.89993">
        <ele>987</ele>
        <time>2017-02-28T12:41:32Z</time>
      </trkpt>
      <trkpt lat="44.52267" lon="3.89968">
        <ele>990</ele>
        <time>2017-02-28T12:43:32Z</time>
      </trkpt>
      <trkpt lat="44.52267" lon="3.89959">
        <ele>992</ele>
        <time>2017-02-28T12:45:32Z</time>
      </trkpt>
      <trkpt lat="44.52266" lon="3.89946">
        <ele>993</ele>
        <time>2017-02-28T12:47:32Z</time>
      </trkpt>
      <trkpt lat="44.52264" lon="3.89925">
        <ele>996</ele>
        <time>2017-02-28T12:49:32Z</time>
      </trkpt>
      <trkpt lat="44.52261" lon="3.89907">
        <ele>999</ele>
        <time>2017-02-28T12:51:32Z</time>
      </trkpt>
      <trkpt lat="44.52257" lon="3.89893">
        <ele>1001</ele>
        <time>2017-02-28T12:53:32Z</time>
      </trkpt>
      <trkpt lat="44.52251" lon="3.89877">
        <ele>1004</ele>
        <time>2017-02-28T12:55:32Z</time>
      </trkpt>
      <trkpt lat="44.52241" lon="3.89856">
        <ele>1007</ele>
        <time>2017-02-28T12:57:32Z</time>
      </trkpt>
      <trkpt lat="44.52233" lon="3.89832">
        <ele>1010</ele>
        <time>2017-02-28T12:59:32Z</time>
      </trkpt>
      <trkpt lat="44.52227" lon="3.89805">
        <ele>1012</ele>
        <time>2017-02-28T13:01:32Z</time>
      </trkpt>
      <trkpt lat="44.52222" lon="3.89784">
        <ele>1014</ele>
        <time>2017-02-28T13:03:32Z</time>
      </trkpt>
      <trkpt lat="44.52219" lon="3.89769">
        <ele>1015</ele>
        <time>2017-02-28T13:05:32Z</time>
      </trkpt>
      <trkpt lat="44.52217" lon="3.89751">
        <ele>1016</ele>
        <time>2017-02-28T13:07:32Z</time>
      </trkpt>
      <trkpt lat="44.52216" lon="3.89739">
        <ele>1017</ele>
        <time>2017-02-28T13:09:32Z</time>
      </trkpt>
      <trkpt lat="44.52214" lon="3.89727">
        <ele>1018</ele>
        <time>2017-02-28T13:11:32Z</time>
      </trkpt>
      <trkpt lat="44.52211" lon="3.89727">
        <ele>1018</ele>
        <time>2017-02-28T13:13:32Z</time>
      </trkpt>
      <trkpt lat="44.52209" lon="3.89726">
        <ele>1018</ele>
        <time>2017-02-28T13:15:32Z</time>
      </trkpt>
      <trkpt lat="44.52207" lon="3.89723">
        <ele>1018</ele>
        <time>2017-02-28T13:17:32Z</time>
      </trkpt>
      <trkpt lat="44.522" lon="3.89702">
        <ele>1019</ele>
        <time>2017-02-28T13:19:32Z</time>
      </trkpt>
      <trkpt lat="44.52191" lon="3.89673">
        <ele>1021</ele>
        <time>2017-02-28T13:21:32Z</time>
      </trkpt>
      <trkpt lat="44.5218" lon="3.89637">
        <ele>1023</ele>
        <time>2017-02-28T13:23:32Z</time>
      </trkpt>
      <trkpt lat="44.52173" lon="3.8961">
        <ele>1024</ele>
        <time>2017-02-28T13:25:32Z</time>
      </trkpt>
      <trkpt lat="44.52169" lon="3.89584">
        <ele>1026</ele>
        <time>2017-02-28T13:27:32Z</time>
      </trkpt>
      <trkpt lat="44.52163" lon="3.89544">
        <ele>1029</ele>
        <time>2017-02-28T13:29:32Z</time>
      </trkpt>
      <trkpt lat="44.52155" lon="3.89503">
        <ele>1031</ele>
        <time>2017-02-28T13:31:32Z</time>
      </trkpt>
      <trkpt lat="44.52152" lon="3.89487">
        <ele>1031</ele>
        <time>2017-02-28T13:33:32Z</time>
      </trkpt>
      <trkpt lat="44.52148" lon="3.89474">
        <ele>1030</ele>
        <time>2017-02-28T13:35:32Z</time>
      </trkpt>
      <trkpt lat="44.52146" lon="3.8946">
        <ele>1029</ele>
        <time>2017-02-28T13:37:32Z</time>
      </trkpt>
      <trkpt lat="44.52143" lon="3.89437">
        <ele>1029</ele>
        <time>2017-02-28T13:39:32Z</time>
      </trkpt>
      <trkpt lat="44.52132" lon="3.89387">
        <ele>1027</ele>
        <time>2017-02-28T13:41:32Z</time>
      </trkpt>
      <trkpt lat="44.5212" lon="3.89339">
        <ele>1027</ele>
        <time>2017-02-28T13:43:32Z</time>
      </trkpt>
      <trkpt lat="44.52111" lon="3.89309">
        <ele>1028</ele>
        <time>2017-02-28T13:45:32Z</time>
      </trkpt>
      <trkpt lat="44.52106" lon="3.89294">
        <ele>1029</ele>
        <time>2017-02-28T13:47:32Z</time>
      </trkpt>
      <trkpt lat="44.52102" lon="3.89287">
        <ele>1030</ele>
        <time>2017-02-28T13:49:32Z</time>
      </trkpt>
      <trkpt lat="44.52102" lon="3.89287">
        <ele>1030</ele>
        <time>2017-02-28T13:51:32Z</time>
      </trkpt>
      <trkpt lat="44.52093" lon="3.89291">
        <ele>1030</ele>
        <time>2017-02-28T13:53:32Z</time>
      </trkpt>
      <trkpt lat="44.52081" lon="3.89293">
        <ele>1031</ele>
        <time>2017-02-28T13:55:32Z</time>
      </trkpt>
      <trkpt lat="44.52068" lon="3.89293">
        <ele>1032</ele>
        <time>2017-02-28T13:57:32Z</time>
      </trkpt>
      <trkpt lat="44.5206" lon="3.89293">
        <ele>1033</ele>
        <time>2017-02-28T13:59:32Z</time>
      </trkpt>
      <trkpt lat="44.52055" lon="3.89294">
        <ele>1034</ele>
        <time>2017-02-28T14:01:32Z</time>
      </trkpt>
      <trkpt lat="44.5205" lon="3.89297">
        <ele>1034</ele>
        <time>2017-02-28T14:03:32Z</time>
      </trkpt>
      <trkpt lat="44.52042" lon="3.89302">
        <ele>1035</ele>
        <time>2017-02-28T14:05:32Z</time>
      </trkpt>
      <trkpt lat="44.52023" lon="3.89322">
        <ele>1037</ele>
        <time>2017-02-28T14:07:32Z</time>
      </trkpt>
      <trkpt lat="44.52021" lon="3.89323">
        <ele>1037</ele>
        <time>2017-02-28T14:09:32Z</time>
      </trkpt>
      <trkpt lat="44.5202" lon="3.89325">
        <ele>1037</ele>
        <time>2017-02-28T14:11:32Z</time>
      </trkpt>
      <trkpt lat="44.52019" lon="3.89326">
        <ele>1037</ele>
        <time>2017-02-28T14:13:32Z</time>
      </trkpt>
      <trkpt lat="44.52018" lon="3.89328">
        <ele>1038</ele>
        <time>2017-02-28T14:15:32Z</time>
      </trkpt>
      <trkpt lat="44.52018" lon="3.89331">
        <ele>1038</ele>
        <time>2017-02-28T14:17:32Z</time>
      </trkpt>
      <trkpt lat="44.52017" lon="3.89334">
        <ele>1038</ele>
        <time>2017-02-28T14:19:32Z</time>
      </trkpt>
      <trkpt lat="44.52017" lon="3.89338">
        <ele>1038</ele>
        <time>2017-02-28T14:21:32Z</time>
      </trkpt>
      <trkpt lat="44.52017" lon="3.89356">
        <ele>1037</ele>
        <time>2017-02-28T14:23:32Z</time>
      </trkpt>
      <trkpt lat="44.52017" lon="3.89367">
        <ele>1037</ele>
        <time>2017-02-28T14:25:32Z</time>
      </trkpt>
      <trkpt lat="44.52016" lon="3.89404">
        <ele>1036</ele>
        <time>2017-02-28T14:27:32Z</time>
      </trkpt>
      <trkpt lat="44.52015" lon="3.89416">
        <ele>1036</ele>
        <time>2017-02-28T14:29:32Z</time>
      </trkpt>
      <trkpt lat="44.52014" lon="3.89424">
        <ele>1035</ele>
        <time>2017-02-28T14:31:32Z</time>
      </trkpt>
      <trkpt lat="44.52012" lon="3.8943">
        <ele>1035</ele>
        <time>2017-02-28T14:33:32Z</time>
      </trkpt>
      <trkpt lat="44.5201" lon="3.89435">
        <ele>1035</ele>
        <time>2017-02-28T14:35:32Z</time>
      </trkpt>
      <trkpt lat="44.52007" lon="3.89439">
        <ele>1035</ele>
        <time>2017-02-28T14:37:32Z</time>
      </trkpt>
      <trkpt lat="44.51996" lon="3.89449">
        <ele>1035</ele>
        <time>2017-02-28T14:39:32Z</time>
      </trkpt>
      <trkpt lat="44.51989" lon="3.89453">
        <ele>1034</ele>
        <time>2017-02-28T14:41:32Z</time>
      </trkpt>
      <trkpt lat="44.51989" lon="3.89453">
        <ele>1034</ele>
        <time>2017-02-28T14:43:32Z</time>
      </trkpt>
      <trkpt lat="44.51993" lon="3.89445">
        <ele>1035</ele>
        <time>2017-02-28T14:45:32Z</time>
      </trkpt>
      <trkpt lat="44.51995" lon="3.89439">
        <ele>1035</ele>
        <time>2017-02-28T14:47:32Z</time>
      </trkpt>
      <trkpt lat="44.51994" lon="3.89428">
        <ele>1036</ele>
        <time>2017-02-28T14:49:32Z</time>
      </trkpt>
      <trkpt lat="44.51992" lon="3.89411">
        <ele>1037</ele>
        <time>2017-02-28T14:51:32Z</time>
      </trkpt>
      <trkpt lat="44.51984" lon="3.89365">
        <ele>1039</ele>
        <time>2017-02-28T14:53:32Z</time>
      </trkpt>
      <trkpt lat="44.51979" lon="3.8933">
        <ele>1041</ele>
        <time>2017-02-28T14:55:32Z</time>
      </trkpt>
      <trkpt lat="44.51977" lon="3.8931">
        <ele>1041</ele>
        <time>2017-02-28T14:57:32Z</time>
      </trkpt>
      <trkpt lat="44.51977" lon="3.89297">
        <ele>1041</ele>
        <time>2017-02-28T14:59:32Z</time>
      </trkpt>
      <trkpt lat="44.51975" lon="3.89292">
        <ele>1041</ele>
        <time>2017-02-28T15:01:32Z</time>
      </trkpt>
      <trkpt lat="44.51973" lon="3.89285">
        <ele>1041</ele>
        <time>2017-02-28T15:03:32Z</time>
      </trkpt>
      <trkpt lat="44.5197" lon="3.89261">
        <ele>1042</ele>
        <time>2017-02-28T15:05:32Z</time>
      </trkpt>
      <trkpt lat="44.51968" lon="3.89248">
        <ele>1042</ele>
        <time>2017-02-28T15:07:32Z</time>
      </trkpt>
      <trkpt lat="44.51964" lon="3.89231">
        <ele>1043</ele>
        <time>2017-02-28T15:09:32Z</time>
      </trkpt>
      <trkpt lat="44.51958" lon="3.89206">
        <ele>1044</ele>
        <time>2017-02-28T15:11:32Z</time>
      </trkpt>
      <trkpt lat="44.51948" lon="3.89173">
        <ele>1046</ele>
        <time>2017-02-28T15:13:32Z</time>
      </trkpt>
      <trkpt lat="44.51936" lon="3.89135">
        <ele>1047</ele>
        <time>2017-02-28T15:15:32Z</time>
      </trkpt>
      <trkpt lat="44.51919" lon="3.89089">
        <ele>1047</ele>
        <time>2017-02-28T15:17:32Z</time>
      </trkpt>
      <trkpt lat="44.51908" lon="3.89057">
        <ele>1047</ele>
        <time>2017-02-28T15:19:32Z</time>
      </trkpt>
      <trkpt lat="44.51903" lon="3.89046">
        <ele>1047</ele>
        <time>2017-02-28T15:21:32Z</time>
      </trkpt>
      <trkpt lat="44.51897" lon="3.89035">
        <ele>1047</ele>
        <time>2017-02-28T15:23:32Z</time>
      </trkpt>
      <trkpt lat="44.51889" lon="3.89021">
        <ele>1047</ele>
        <time>2017-02-28T15:25:32Z</time>
      </trkpt>
      <trkpt lat="44.51882" lon="3.89014">
        <ele>1047</ele>
        <time>2017-02-28T15:27:32Z</time>
      </trkpt>
      <trkpt lat="44.5187" lon="3.89003">
        <ele>1048</ele>
        <time>2017-02-28T15:29:32Z</time>
      </trkpt>
      <trkpt lat="44.51851" lon="3.8899">
        <ele>1049</ele>
        <time>2017-02-28T15:31:32Z</time>
      </trkpt>
      <trkpt lat="44.51839" lon="3.88983">
        <ele>1050</ele>
        <time>2017-02-28T15:33:32Z</time>
      </trkpt>
      <trkpt lat="44.5183" lon="3.88977">
        <ele>1050</ele>
        <time>2017-02-28T15:35:32Z</time>
      </trkpt>
      <trkpt lat="44.51823" lon="3.88971">
        <ele>1050</ele>
        <time>2017-02-28T15:37:32Z</time>
      </trkpt>
      <trkpt lat="44.51811" lon="3.88956">
        <ele>1050</ele>
        <time>2017-02-28T15:39:32Z</time>
      </trkpt>
      <trkpt lat="44.51792" lon="3.88931">
        <ele>1049</ele>
        <time>2017-02-28T15:41:32Z</time>
      </trkpt>
      <trkpt lat="44.5178" lon="3.88911">
        <ele>1049</ele>
        <time>2017-02-28T15:43:32Z</time>
      </trkpt>
      <trkpt lat="44.51773" lon="3.88895">
        <ele>1050</ele>
        <time>2017-02-28T15:45:32Z</time>
      </trkpt>
      <trkpt lat="44.51771" lon="3.88891">
        <ele>1050</ele>
        <time>2017-02-28T15:47:32Z</time>
      </trkpt>
      <trkpt lat="44.51762" lon="3.88873">
        <ele>1052</ele>
        <time>2017-02-28T15:49:32Z</time>
      </trkpt>
      <trkpt lat="44.51748" lon="3.88853">
        <ele>1053</ele>
        <time>2017-02-28T15:51:32Z</time>
      </trkpt>
      <trkpt lat="44.51738" lon="3.88842">
        <ele>1054</ele>
        <time>2017-02-28T15:53:32Z</time>
      </trkpt>
      <trkpt lat="44.51731" lon="3.88836">
        <ele>1054</ele>
        <time>2017-02-28T15:55:32Z</time>
      </trkpt>
      <trkpt lat="44.51723" lon="3.88833">
        <ele>1055</ele>
        <time>2017-02-28T15:57:32Z</time>
      </trkpt>
      <trkpt lat="44.51712" lon="3.8883">
        <ele>1055</ele>
        <time>2017-02-28T15:59:32Z</time>
      </trkpt>
      <trkpt lat="44.51701" lon="3.88827">
        <ele>1055</ele>
        <time>2017-02-28T16:01:32Z</time>
      </trkpt>
      <trkpt lat="44.51694" lon="3.88825">
        <ele>1056</ele>
        <time>2017-02-28T16:03:32Z</time>
      </trkpt>
      <trkpt lat="44.51689" lon="3.88822">
        <ele>1056</ele>
        <time>2017-02-28T16:05:32Z</time>
      </trkpt>
      <trkpt lat="44.51684" lon="3.88816">
        <ele>1056</ele>
        <time>2017-02-28T16:07:32Z</time>
      </trkpt>
      <trkpt lat="44.51682" lon="3.88814">
        <ele>1056</ele>
        <time>2017-02-28T16:09:32Z</time>
      </trkpt>
      <trkpt lat="44.5168" lon="3.8881">
        <ele>1056</ele>
        <time>2017-02-28T16:11:32Z</time>
      </trkpt>
      <trkpt lat="44.51672" lon="3.88789">
        <ele>1057</ele>
        <time>2017-02-28T16:13:32Z</time>
      </trkpt>
      <trkpt lat="44.51662" lon="3.88758">
        <ele>1056</ele>
        <time>2017-02-28T16:15:32Z</time>
      </trkpt>
      <trkpt lat="44.51657" lon="3.88743">
        <ele>1056</ele>
        <time>2017-02-28T16:17:32Z</time>
      </trkpt>
      <trkpt lat="44.51655" lon="3.88736">
        <ele>1056</ele>
        <time>2017-02-28T16:19:32Z</time>
      </trkpt>
      <trkpt lat="44.51654" lon="3.88734">
        <ele>1056</ele>
        <time>2017-02-28T16:21:32Z</time>
      </trkpt>
      <trkpt lat="44.5165" lon="3.88728">
        <ele>1056</ele>
        <time>2017-02-28T16:23:32Z</time>
      </trkpt>
      <trkpt lat="44.51641" lon="3.88715">
        <ele>1056</ele>
        <time>2017-02-28T16:25:32Z</time>
      </trkpt>
      <trkpt lat="44.51627" lon="3.88696">
        <ele>1055</ele>
        <time>2017-02-28T16:27:32Z</time>
      </trkpt>
      <trkpt lat="44.51618" lon="3.88684">
        <ele>1054</ele>
        <time>2017-02-28T16:29:32Z</time>
      </trkpt>
      <trkpt lat="44.51612" lon="3.88675">
        <ele>1054</ele>
        <time>2017-02-28T16:31:32Z</time>
      </trkpt>
      <trkpt lat="44.51607" lon="3.88664">
        <ele>1054</ele>
        <time>2017-02-28T16:33:32Z</time>
      </trkpt>
      <trkpt lat="44.51602" lon="3.88653">
        <ele>1054</ele>
        <time>2017-02-28T16:35:32Z</time>
      </trkpt>
      <trkpt lat="44.51599" lon="3.88646">
        <ele>1055</ele>
        <time>2017-02-28T16:37:32Z</time>
      </trkpt>
      <trkpt lat="44.51594" lon="3.8864">
        <ele>1055</ele>
        <time>2017-02-28T16:39:32Z</time>
      </trkpt>
      <trkpt lat="44.51587" lon="3.88629">
        <ele>1055</ele>
        <time>2017-02-28T16:41:32Z</time>
      </trkpt>
      <trkpt lat="44.51578" lon="3.88611">
        <ele>1055</ele>
        <time>2017-02-28T16:43:32Z</time>
      </trkpt>
      <trkpt lat="44.51564" lon="3.88584">
        <ele>1055</ele>
        <time>2017-02-28T16:45:32Z</time>
      </trkpt>
      <trkpt lat="44.51544" lon="3.88553">
        <ele>1055</ele>
        <time>2017-02-28T16:47:32Z</time>
      </trkpt>
      <trkpt lat="44.51535" lon="3.88541">
        <ele>1056</ele>
        <time>2017-02-28T16:49:32Z</time>
      </trkpt>
      <trkpt lat="44.51527" lon="3.88532">
        <ele>1056</ele>
        <time>2017-02-28T16:51:32Z</time>
      </trkpt>
      <trkpt lat="44.5152" lon="3.88525">
        <ele>1056</ele>
        <time>2017-02-28T16:53:32Z</time>
      </trkpt>
      <trkpt lat="44.51514" lon="3.88517">
        <ele>1056</ele>
        <time>2017-02-28T16:55:32Z</time>
      </trkpt>
      <trkpt lat="44.51511" lon="3.88509">
        <ele>1057</ele>
        <time>2017-02-28T16:57:32Z</time>
      </trkpt>
      <trkpt lat="44.51508" lon="3.88501">
        <ele>1058</ele>
        <time>2017-02-28T16:59:32Z</time>
      </trkpt>
      <trkpt lat="44.51507" lon="3.88489">
        <ele>1059</ele>
        <time>2017-02-28T17:01:32Z</time>
      </trkpt>
      <trkpt lat="44.51506" lon="3.8848">
        <ele>1060</ele>
        <time>2017-02-28T17:03:32Z</time>
      </trkpt>
      <trkpt lat="44.51504" lon="3.88474">
        <ele>1061</ele>
        <time>2017-02-28T17:05:32Z</time>
      </trkpt>
      <trkpt lat="44.515" lon="3.88468">
        <ele>1061</ele>
        <time>2017-02-28T17:07:32Z</time>
      </trkpt>
      <trkpt lat="44.51494" lon="3.88461">
        <ele>1060</ele>
        <time>2017-02-28T17:09:32Z</time>
      </trkpt>
      <trkpt lat="44.51483" lon="3.88454">
        <ele>1058</ele>
        <time>2017-02-28T17:11:32Z</time>
      </trkpt>
      <trkpt lat="44.51473" lon="3.88446">
        <ele>1057</ele>
        <time>2017-02-28T17:13:32Z</time>
      </trkpt>
      <trkpt lat="44.51464" lon="3.8844">
        <ele>1056</ele>
        <time>2017-02-28T17:15:32Z</time>
      </trkpt>
      <trkpt lat="44.51456" lon="3.88433">
        <ele>1055</ele>
        <time>2017-02-28T17:17:32Z</time>
      </trkpt>
      <trkpt lat="44.51449" lon="3.88424">
        <ele>1055</ele>
        <time>2017-02-28T17:19:32Z</time>
      </trkpt>
      <trkpt lat="44.51444" lon="3.88416">
        <ele>1055</ele>
        <time>2017-02-28T17:21:32Z</time>
      </trkpt>
      <trkpt lat="44.51437" lon="3.88403">
        <ele>1055</ele>
        <time>2017-02-28T17:23:32Z</time>
      </trkpt>
      <trkpt lat="44.5143" lon="3.88387">
        <ele>1055</ele>
        <time>2017-02-28T17:25:32Z</time>
      </trkpt>
      <trkpt lat="44.51423" lon="3.88371">
        <ele>1056</ele>
        <time>2017-02-28T17:27:32Z</time>
      </trkpt>
      <trkpt lat="44.51417" lon="3.88359">
        <ele>1057</ele>
        <time>2017-02-28T17:29:32Z</time>
      </trkpt>
      <trkpt lat="44.51414" lon="3.88348">
        <ele>1057</ele>
        <time>2017-02-28T17:31:32Z</time>
      </trkpt>
      <trkpt lat="44.51411" lon="3.88337">
        <ele>1058</ele>
        <time>2017-02-28T17:33:32Z</time>
      </trkpt>
      <trkpt lat="44.5141" lon="3.88324">
        <ele>1059</ele>
        <time>2017-02-28T17:35:32Z</time>
      </trkpt>
      <trkpt lat="44.5141" lon="3.88311">
        <ele>1059</ele>
        <time>2017-02-28T17:37:32Z</time>
      </trkpt>
      <trkpt lat="44.51414" lon="3.8829">
        <ele>1059</ele>
        <time>2017-02-28T17:39:32Z</time>
      </trkpt>
      <trkpt lat="44.5142" lon="3.88262">
        <ele>1060</ele>
        <time>2017-02-28T17:41:32Z</time>
      </trkpt>
      <trkpt lat="44.51426" lon="3.88236">
        <ele>1061</ele>
        <time>2017-02-28T17:43:32Z</time>
      </trkpt>
      <trkpt lat="44.51432" lon="3.88212">
        <ele>1061</ele>
        <time>2017-02-28T17:45:32Z</time>
      </trkpt>
      <trkpt lat="44.51434" lon="3.88195">
        <ele>1060</ele>
        <time>2017-02-28T17:47:32Z</time>
      </trkpt>
      <trkpt lat="44.51435" lon="3.88181">
        <ele>1060</ele>
        <time>2017-02-28T17:49:32Z</time>
      </trkpt>
      <trkpt lat="44.51435" lon="3.88167">
        <ele>1060</ele>
        <time>2017-02-28T17:51:32Z</time>
      </trkpt>
      <trkpt lat="44.51433" lon="3.88155">
        <ele>1059</ele>
        <time>2017-02-28T17:53:32Z</time>
      </trkpt>
      <trkpt lat="44.51426" lon="3.88136">
        <ele>1059</ele>
        <time>2017-02-28T17:55:32Z</time>
      </trkpt>
      <trkpt lat="44.51425" lon="3.88134">
        <ele>1059</ele>
        <time>2017-02-28T17:57:32Z</time>
      </trkpt>
      <trkpt lat="44.51417" lon="3.88114">
        <ele>1059</ele>
        <time>2017-02-28T17:59:32Z</time>
      </trkpt>
      <trkpt lat="44.5141" lon="3.88097">
        <ele>1059</ele>
        <time>2017-02-28T18:01:32Z</time>
      </trkpt>
      <trkpt lat="44.51397" lon="3.88074">
        <ele>1057</ele>
        <time>2017-02-28T18:03:32Z</time>
      </trkpt>
      <trkpt lat="44.51383" lon="3.88049">
        <ele>1053</ele>
        <time>2017-02-28T18:05:32Z</time>
      </trkpt>
      <trkpt lat="44.51366" lon="3.88025">
        <ele>1052</ele>
        <time>2017-02-28T18:07:32Z</time>
      </trkpt>
      <trkpt lat="44.51349" lon="3.88002">
        <ele>1053</ele>
        <time>2017-02-28T18:09:32Z</time>
      </trkpt>
      <trkpt lat="44.51335" lon="3.87981">
        <ele>1052</ele>
        <time>2017-02-28T18:11:32Z</time>
      </trkpt>
      <trkpt lat="44.51328" lon="3.8797">
        <ele>1052</ele>
        <time>2017-02-28T18:13:32Z</time>
      </trkpt>
      <trkpt lat="44.51318" lon="3.87953">
        <ele>1052</ele>
        <time>2017-02-28T18:15:32Z</time>
      </trkpt>
      <trkpt lat="44.51303" lon="3.8793">
        <ele>1053</ele>
        <time>2017-02-28T18:17:32Z</time>
      </trkpt>
      <trkpt lat="44.51287" lon="3.87908">
        <ele>1055</ele>
        <time>2017-02-28T18:19:32Z</time>
      </trkpt>
      <trkpt lat="44.5128" lon="3.87901">
        <ele>1056</ele>
        <time>2017-02-28T18:21:32Z</time>
      </trkpt>
      <trkpt lat="44.51273" lon="3.87892">
        <ele>1057</ele>
        <time>2017-02-28T18:23:32Z</time>
      </trkpt>
      <trkpt lat="44.51268" lon="3.87884">
        <ele>1057</ele>
        <time>2017-02-28T18:25:32Z</time>
      </trkpt>
      <trkpt lat="44.51266" lon="3.87877">
        <ele>1058</ele>
        <time>2017-02-28T18:27:32Z</time>
      </trkpt>
      <trkpt lat="44.51265" lon="3.87871">
        <ele>1057</ele>
        <time>2017-02-28T18:29:32Z</time>
      </trkpt>
      <trkpt lat="44.51266" lon="3.87865">
        <ele>1057</ele>
        <time>2017-02-28T18:31:32Z</time>
      </trkpt>
      <trkpt lat="44.51266" lon="3.8784">
        <ele>1055</ele>
        <time>2017-02-28T18:33:32Z</time>
      </trkpt>
      <trkpt lat="44.51265" lon="3.87832">
        <ele>1055</ele>
        <time>2017-02-28T18:35:32Z</time>
      </trkpt>
      <trkpt lat="44.51264" lon="3.87824">
        <ele>1054</ele>
        <time>2017-02-28T18:37:32Z</time>
      </trkpt>
      <trkpt lat="44.5126" lon="3.87815">
        <ele>1054</ele>
        <time>2017-02-28T18:39:32Z</time>
      </trkpt>
      <trkpt lat="44.51246" lon="3.87796">
        <ele>1057</ele>
        <time>2017-02-28T18:41:32Z</time>
      </trkpt>
      <trkpt lat="44.51244" lon="3.87791">
        <ele>1057</ele>
        <time>2017-02-28T18:43:32Z</time>
      </trkpt>
      <trkpt lat="44.5124" lon="3.8778">
        <ele>1058</ele>
        <time>2017-02-28T18:45:32Z</time>
      </trkpt>
      <trkpt lat="44.51233" lon="3.87761">
        <ele>1059</ele>
        <time>2017-02-28T18:47:32Z</time>
      </trkpt>
      <trkpt lat="44.51231" lon="3.87749">
        <ele>1058</ele>
        <time>2017-02-28T18:49:32Z</time>
      </trkpt>
      <trkpt lat="44.51229" lon="3.87736">
        <ele>1060</ele>
        <time>2017-02-28T18:51:32Z</time>
      </trkpt>
      <trkpt lat="44.51228" lon="3.87728">
        <ele>1060</ele>
        <time>2017-02-28T18:53:32Z</time>
      </trkpt>
      <trkpt lat="44.51229" lon="3.87719">
        <ele>1060</ele>
        <time>2017-02-28T18:55:32Z</time>
      </trkpt>
      <trkpt lat="44.51231" lon="3.8771">
        <ele>1059</ele>
        <time>2017-02-28T18:57:32Z</time>
      </trkpt>
      <trkpt lat="44.51238" lon="3.87687">
        <ele>1056</ele>
        <time>2017-02-28T18:59:32Z</time>
      </trkpt>
      <trkpt lat="44.5124" lon="3.87679">
        <ele>1055</ele>
        <time>2017-02-28T19:01:32Z</time>
      </trkpt>
      <trkpt lat="44.5124" lon="3.8767">
        <ele>1055</ele>
        <time>2017-02-28T19:03:32Z</time>
      </trkpt>
      <trkpt lat="44.51238" lon="3.87657">
        <ele>1057</ele>
        <time>2017-02-28T19:05:32Z</time>
      </trkpt>
      <trkpt lat="44.51235" lon="3.87642">
        <ele>1060</ele>
        <time>2017-02-28T19:07:32Z</time>
      </trkpt>
      <trkpt lat="44.51232" lon="3.87629">
        <ele>1062</ele>
        <time>2017-02-28T19:09:32Z</time>
      </trkpt>
      <trkpt lat="44.51231" lon="3.87619">
        <ele>1063</ele>
        <time>2017-02-28T19:11:32Z</time>
      </trkpt>
      <trkpt lat="44.51232" lon="3.8761">
        <ele>1063</ele>
        <time>2017-02-28T19:13:32Z</time>
      </trkpt>
      <trkpt lat="44.51234" lon="3.87604">
        <ele>1062</ele>
        <time>2017-02-28T19:15:32Z</time>
      </trkpt>
      <trkpt lat="44.51237" lon="3.87597">
        <ele>1061</ele>
        <time>2017-02-28T19:17:32Z</time>
      </trkpt>
      <trkpt lat="44.51244" lon="3.87592">
        <ele>1058</ele>
        <time>2017-02-28T19:19:32Z</time>
      </trkpt>
      <trkpt lat="44.51251" lon="3.87585">
        <ele>1054</ele>
        <time>2017-02-28T19:21:32Z</time>
      </trkpt>
      <trkpt lat="44.51258" lon="3.8757">
        <ele>1051</ele>
        <time>2017-02-28T19:23:32Z</time>
      </trkpt>
      <trkpt lat="44.5126" lon="3.87562">
        <ele>1050</ele>
        <time>2017-02-28T19:25:32Z</time>
      </trkpt>
      <trkpt lat="44.5126" lon="3.87552">
        <ele>1050</ele>
        <time>2017-02-28T19:27:32Z</time>
      </trkpt>
      <trkpt lat="44.51255" lon="3.87526">
        <ele>1053</ele>
        <time>2017-02-28T19:29:32Z</time>
      </trkpt>
      <trkpt lat="44.51248" lon="3.87493">
        <ele>1056</ele>
        <time>2017-02-28T19:31:32Z</time>
      </trkpt>
      <trkpt lat="44.51245" lon="3.87477">
        <ele>1059</ele>
        <time>2017-02-28T19:33:32Z</time>
      </trkpt>
      <trkpt lat="44.51245" lon="3.87468">
        <ele>1060</ele>
        <time>2017-02-28T19:35:32Z</time>
      </trkpt>
      <trkpt lat="44.51247" lon="3.87459">
        <ele>1059</ele>
        <time>2017-02-28T19:37:32Z</time>
      </trkpt>
      <trkpt lat="44.51248" lon="3.87457">
        <ele>1059</ele>
        <time>2017-02-28T19:39:32Z</time>
      </trkpt>
      <trkpt lat="44.51255" lon="3.87444">
        <ele>1056</ele>
        <time>2017-02-28T19:41:32Z</time>
      </trkpt>
      <trkpt lat="44.51264" lon="3.8743">
        <ele>1054</ele>
        <time>2017-02-28T19:43:32Z</time>
      </trkpt>
      <trkpt lat="44.51283" lon="3.87408">
        <ele>1049</ele>
        <time>2017-02-28T19:45:32Z</time>
      </trkpt>
      <trkpt lat="44.51298" lon="3.87389">
        <ele>1045</ele>
        <time>2017-02-28T19:47:32Z</time>
      </trkpt>
      <trkpt lat="44.51307" lon="3.87376">
        <ele>1043</ele>
        <time>2017-02-28T19:49:32Z</time>
      </trkpt>
      <trkpt lat="44.51312" lon="3.87364">
        <ele>1043</ele>
        <time>2017-02-28T19:51:32Z</time>
      </trkpt>
      <trkpt lat="44.51314" lon="3.87355">
        <ele>1043</ele>
        <time>2017-02-28T19:53:32Z</time>
      </trkpt>
      <trkpt lat="44.51316" lon="3.87348">
        <ele>1043</ele>
        <time>2017-02-28T19:55:32Z</time>
      </trkpt>
      <trkpt lat="44.51316" lon="3.87331">
        <ele>1044</ele>
        <time>2017-02-28T19:57:32Z</time>
      </trkpt>
      <trkpt lat="44.51314" lon="3.87315">
        <ele>1044</ele>
        <time>2017-02-28T19:59:32Z</time>
      </trkpt>
      <trkpt lat="44.51312" lon="3.87288">
        <ele>1043</ele>
        <time>2017-02-28T20:01:32Z</time>
      </trkpt>
      <trkpt lat="44.51308" lon="3.8726">
        <ele>1043</ele>
        <time>2017-02-28T20:03:32Z</time>
      </trkpt>
      <trkpt lat="44.51306" lon="3.87235">
        <ele>1041</ele>
        <time>2017-02-28T20:05:32Z</time>
      </trkpt>
      <trkpt lat="44.51304" lon="3.87211">
        <ele>1040</ele>
        <time>2017-02-28T20:07:32Z</time>
      </trkpt>
      <trkpt lat="44.51301" lon="3.87189">
        <ele>1039</ele>
        <time>2017-02-28T20:09:32Z</time>
      </trkpt>
      <trkpt lat="44.51294" lon="3.87164">
        <ele>1040</ele>
        <time>2017-02-28T20:11:32Z</time>
      </trkpt>
      <trkpt lat="44.51291" lon="3.87148">
        <ele>1039</ele>
        <time>2017-02-28T20:13:32Z</time>
      </trkpt>
      <trkpt lat="44.5129" lon="3.87131">
        <ele>1037</ele>
        <time>2017-02-28T20:15:32Z</time>
      </trkpt>
      <trkpt lat="44.51291" lon="3.87118">
        <ele>1035</ele>
        <time>2017-02-28T20:17:32Z</time>
      </trkpt>
      <trkpt lat="44.5129" lon="3.87106">
        <ele>1033</ele>
        <time>2017-02-28T20:19:32Z</time>
      </trkpt>
      <trkpt lat="44.51288" lon="3.87095">
        <ele>1032</ele>
        <time>2017-02-28T20:21:32Z</time>
      </trkpt>
      <trkpt lat="44.51283" lon="3.87083">
        <ele>1033</ele>
        <time>2017-02-28T20:23:32Z</time>
      </trkpt>
      <trkpt lat="44.51271" lon="3.87061">
        <ele>1033</ele>
        <time>2017-02-28T20:25:32Z</time>
      </trkpt>
      <trkpt lat="44.51255" lon="3.8703">
        <ele>1033</ele>
        <time>2017-02-28T20:27:32Z</time>
      </trkpt>
      <trkpt lat="44.51242" lon="3.87001">
        <ele>1031</ele>
        <time>2017-02-28T20:29:32Z</time>
      </trkpt>
      <trkpt lat="44.51226" lon="3.86964">
        <ele>1029</ele>
        <time>2017-02-28T20:31:32Z</time>
      </trkpt>
      <trkpt lat="44.51219" lon="3.86949">
        <ele>1028</ele>
        <time>2017-02-28T20:33:32Z</time>
      </trkpt>
      <trkpt lat="44.51212" lon="3.86937">
        <ele>1027</ele>
        <time>2017-02-28T20:35:32Z</time>
      </trkpt>
      <trkpt lat="44.51203" lon="3.86923">
        <ele>1026</ele>
        <time>2017-02-28T20:37:32Z</time>
      </trkpt>
      <trkpt lat="44.51184" lon="3.86897">
        <ele>1026</ele>
        <time>2017-02-28T20:39:32Z</time>
      </trkpt>
      <trkpt lat="44.51168" lon="3.86874">
        <ele>1025</ele>
        <time>2017-02-28T20:41:32Z</time>
      </trkpt>
      <trkpt lat="44.51157" lon="3.86859">
        <ele>1025</ele>
        <time>2017-02-28T20:43:32Z</time>
      </trkpt>
      <trkpt lat="44.51145" lon="3.86846">
        <ele>1026</ele>
        <time>2017-02-28T20:45:32Z</time>
      </trkpt>
      <trkpt lat="44.51141" lon="3.86837">
        <ele>1025</ele>
        <time>2017-02-28T20:47:32Z</time>
      </trkpt>
      <trkpt lat="44.5114" lon="3.86826">
        <ele>1023</ele>
        <time>2017-02-28T20:49:32Z</time>
      </trkpt>
      <trkpt lat="44.51137" lon="3.86815">
        <ele>1022</ele>
        <time>2017-02-28T20:51:32Z</time>
      </trkpt>
      <trkpt lat="44.51131" lon="3.86803">
        <ele>1021</ele>
        <time>2017-02-28T20:53:32Z</time>
      </trkpt>
      <trkpt lat="44.51121" lon="3.86786">
        <ele>1020</ele>
        <time>2017-02-28T20:55:32Z</time>
      </trkpt>
      <trkpt lat="44.51109" lon="3.86759">
        <ele>1017</ele>
        <time>2017-02-28T20:57:32Z</time>
      </trkpt>
      <trkpt lat="44.511" lon="3.86734">
        <ele>1016</ele>
        <time>2017-02-28T20:59:32Z</time>
      </trkpt>
      <trkpt lat="44.51085" lon="3.86706">
        <ele>1014</ele>
        <time>2017-02-28T21:01:32Z</time>
      </trkpt>
      <trkpt lat="44.51071" lon="3.86685">
        <ele>1014</ele>
        <time>2017-02-28T21:03:32Z</time>
      </trkpt>
      <trkpt lat="44.51054" lon="3.86666">
        <ele>1014</ele>
        <time>2017-02-28T21:05:32Z</time>
      </trkpt>
      <trkpt lat="44.5104" lon="3.86652">
        <ele>1019</ele>
        <time>2017-02-28T21:07:32Z</time>
      </trkpt>
      <trkpt lat="44.5103" lon="3.86642">
        <ele>1021</ele>
        <time>2017-02-28T21:09:32Z</time>
      </trkpt>
      <trkpt lat="44.51027" lon="3.86639">
        <ele>1021</ele>
        <time>2017-02-28T21:11:32Z</time>
      </trkpt>
      <trkpt lat="44.51027" lon="3.86635">
        <ele>1022</ele>
        <time>2017-02-28T21:13:32Z</time>
      </trkpt>
      <trkpt lat="44.51027" lon="3.86629">
        <ele>1022</ele>
        <time>2017-02-28T21:15:32Z</time>
      </trkpt>
      <trkpt lat="44.51028" lon="3.86627">
        <ele>1022</ele>
        <time>2017-02-28T21:17:32Z</time>
      </trkpt>
      <trkpt lat="44.51028" lon="3.86624">
        <ele>1022</ele>
        <time>2017-02-28T21:19:32Z</time>
      </trkpt>
      <trkpt lat="44.5103" lon="3.8662">
        <ele>1022</ele>
        <time>2017-02-28T21:21:32Z</time>
      </trkpt>
      <trkpt lat="44.51033" lon="3.86615">
        <ele>1023</ele>
        <time>2017-02-28T21:23:32Z</time>
      </trkpt>
      <trkpt lat="44.51038" lon="3.86612">
        <ele>1023</ele>
        <time>2017-02-28T21:25:32Z</time>
      </trkpt>
      <trkpt lat="44.51042" lon="3.86611">
        <ele>1024</ele>
        <time>2017-02-28T21:27:32Z</time>
      </trkpt>
      <trkpt lat="44.51047" lon="3.86612">
        <ele>1024</ele>
        <time>2017-02-28T21:29:32Z</time>
      </trkpt>
      <trkpt lat="44.51063" lon="3.86618">
        <ele>1023</ele>
        <time>2017-02-28T21:31:32Z</time>
      </trkpt>
      <trkpt lat="44.51086" lon="3.86624">
        <ele>1021</ele>
        <time>2017-02-28T21:33:32Z</time>
      </trkpt>
      <trkpt lat="44.51094" lon="3.86626">
        <ele>1021</ele>
        <time>2017-02-28T21:35:32Z</time>
      </trkpt>
      <trkpt lat="44.51102" lon="3.86626">
        <ele>1022</ele>
        <time>2017-02-28T21:37:32Z</time>
      </trkpt>
      <trkpt lat="44.51109" lon="3.86626">
        <ele>1023</ele>
        <time>2017-02-28T21:39:32Z</time>
      </trkpt>
      <trkpt lat="44.51117" lon="3.86626">
        <ele>1024</ele>
        <time>2017-02-28T21:41:32Z</time>
      </trkpt>
      <trkpt lat="44.51122" lon="3.86628">
        <ele>1024</ele>
        <time>2017-02-28T21:43:32Z</time>
      </trkpt>
      <trkpt lat="44.51133" lon="3.86636">
        <ele>1022</ele>
        <time>2017-02-28T21:45:32Z</time>
      </trkpt>
      <trkpt lat="44.51143" lon="3.86643">
        <ele>1020</ele>
        <time>2017-02-28T21:47:32Z</time>
      </trkpt>
      <trkpt lat="44.51155" lon="3.86648">
        <ele>1019</ele>
        <time>2017-02-28T21:49:32Z</time>
      </trkpt>
      <trkpt lat="44.51165" lon="3.8665">
        <ele>1019</ele>
        <time>2017-02-28T21:51:32Z</time>
      </trkpt>
      <trkpt lat="44.51178" lon="3.86649">
        <ele>1022</ele>
        <time>2017-02-28T21:53:32Z</time>
      </trkpt>
      <trkpt lat="44.5119" lon="3.86648">
        <ele>1025</ele>
        <time>2017-02-28T21:55:32Z</time>
      </trkpt>
      <trkpt lat="44.51203" lon="3.86649">
        <ele>1027</ele>
        <time>2017-02-28T21:57:32Z</time>
      </trkpt>
      <trkpt lat="44.51213" lon="3.86654">
        <ele>1027</ele>
        <time>2017-02-28T21:59:32Z</time>
      </trkpt>
      <trkpt lat="44.5122" lon="3.86658">
        <ele>1026</ele>
        <time>2017-02-28T22:01:32Z</time>
      </trkpt>
      <trkpt lat="44.5123" lon="3.86665">
        <ele>1026</ele>
        <time>2017-02-28T22:03:32Z</time>
      </trkpt>
      <trkpt lat="44.51239" lon="3.86671">
        <ele>1025</ele>
        <time>2017-02-28T22:05:32Z</time>
      </trkpt>
      <trkpt lat="44.5125" lon="3.86677">
        <ele>1026</ele>
        <time>2017-02-28T22:07:32Z</time>
      </trkpt>
      <trkpt lat="44.51262" lon="3.86684">
        <ele>1024</ele>
        <time>2017-02-28T22:09:32Z</time>
      </trkpt>
      <trkpt lat="44.51275" lon="3.86695">
        <ele>1022</ele>
        <time>2017-02-28T22:11:32Z</time>
      </trkpt>
      <trkpt lat="44.51284" lon="3.86704">
        <ele>1020</ele>
        <time>2017-02-28T22:13:32Z</time>
      </trkpt>
      <trkpt lat="44.51291" lon="3.86711">
        <ele>1019</ele>
        <time>2017-02-28T22:15:32Z</time>
      </trkpt>
      <trkpt lat="44.51298" lon="3.86715">
        <ele>1019</ele>
        <time>2017-02-28T22:17:32Z</time>
      </trkpt>
      <trkpt lat="44.51307" lon="3.86716">
        <ele>1019</ele>
        <time>2017-02-28T22:19:32Z</time>
      </trkpt>
      <trkpt lat="44.51316" lon="3.86716">
        <ele>1020</ele>
        <time>2017-02-28T22:21:32Z</time>
      </trkpt>
      <trkpt lat="44.51326" lon="3.86713">
        <ele>1022</ele>
        <time>2017-02-28T22:23:32Z</time>
      </trkpt>
      <trkpt lat="44.51331" lon="3.8671">
        <ele>1024</ele>
        <time>2017-02-28T22:25:32Z</time>
      </trkpt>
      <trkpt lat="44.51335" lon="3.86706">
        <ele>1025</ele>
        <time>2017-02-28T22:27:32Z</time>
      </trkpt>
      <trkpt lat="44.51346" lon="3.8669">
        <ele>1028</ele>
        <time>2017-02-28T22:29:32Z</time>
      </trkpt>
      <trkpt lat="44.51356" lon="3.86673">
        <ele>1031</ele>
        <time>2017-02-28T22:31:32Z</time>
      </trkpt>
      <trkpt lat="44.51368" lon="3.86648">
        <ele>1036</ele>
        <time>2017-02-28T22:33:32Z</time>
      </trkpt>
      <trkpt lat="44.5138" lon="3.86624">
        <ele>1039</ele>
        <time>2017-02-28T22:35:32Z</time>
      </trkpt>
      <trkpt lat="44.51386" lon="3.86611">
        <ele>1041</ele>
        <time>2017-02-28T22:37:32Z</time>
      </trkpt>
      <trkpt lat="44.5139" lon="3.86606">
        <ele>1041</ele>
        <time>2017-02-28T22:39:32Z</time>
      </trkpt>
      <trkpt lat="44.51394" lon="3.86601">
        <ele>1042</ele>
        <time>2017-02-28T22:41:32Z</time>
      </trkpt>
      <trkpt lat="44.51395" lon="3.86601">
        <ele>1042</ele>
        <time>2017-02-28T22:43:32Z</time>
      </trkpt>
      <trkpt lat="44.51396" lon="3.866">
        <ele>1042</ele>
        <time>2017-02-28T22:45:32Z</time>
      </trkpt>
      <trkpt lat="44.51398" lon="3.866">
        <ele>1041</ele>
        <time>2017-02-28T22:47:32Z</time>
      </trkpt>
      <trkpt lat="44.51401" lon="3.86599">
        <ele>1041</ele>
        <time>2017-02-28T22:49:32Z</time>
      </trkpt>
      <trkpt lat="44.51404" lon="3.866">
        <ele>1040</ele>
        <time>2017-02-28T22:51:32Z</time>
      </trkpt>
      <trkpt lat="44.51406" lon="3.866">
        <ele>1040</ele>
        <time>2017-02-28T22:53:32Z</time>
      </trkpt>
      <trkpt lat="44.51411" lon="3.86605">
        <ele>1038</ele>
        <time>2017-02-28T22:55:32Z</time>
      </trkpt>
      <trkpt lat="44.51414" lon="3.86608">
        <ele>1037</ele>
        <time>2017-02-28T22:57:32Z</time>
      </trkpt>
      <trkpt lat="44.51419" lon="3.86613">
        <ele>1036</ele>
        <time>2017-02-28T22:59:32Z</time>
      </trkpt>
      <trkpt lat="44.51423" lon="3.86616">
        <ele>1036</ele>
        <time>2017-02-28T23:01:32Z</time>
      </trkpt>
      <trkpt lat="44.51428" lon="3.86618">
        <ele>1037</ele>
        <time>2017-02-28T23:03:32Z</time>
      </trkpt>
      <trkpt lat="44.51437" lon="3.86623">
        <ele>1037</ele>
        <time>2017-02-28T23:05:32Z</time>
      </trkpt>
      <trkpt lat="44.51445" lon="3.86628">
        <ele>1038</ele>
        <time>2017-02-28T23:07:32Z</time>
      </trkpt>
      <trkpt lat="44.51448" lon="3.86633">
        <ele>1037</ele>
        <time>2017-02-28T23:09:32Z</time>
      </trkpt>
      <trkpt lat="44.5145" lon="3.8664">
        <ele>1037</ele>
        <time>2017-02-28T23:11:32Z</time>
      </trkpt>
      <trkpt lat="44.51453" lon="3.86658">
        <ele>1034</ele>
        <time>2017-02-28T23:13:32Z</time>
      </trkpt>
      <trkpt lat="44.51457" lon="3.86679">
        <ele>1032</ele>
        <time>2017-02-28T23:15:32Z</time>
      </trkpt>
      <trkpt lat="44.51459" lon="3.867">
        <ele>1030</ele>
        <time>2017-02-28T23:17:32Z</time>
      </trkpt>
      <trkpt lat="44.5146" lon="3.86716">
        <ele>1028</ele>
        <time>2017-02-28T23:19:32Z</time>
      </trkpt>
      <trkpt lat="44.51459" lon="3.86722">
        <ele>1027</ele>
        <time>2017-02-28T23:21:32Z</time>
      </trkpt>
      <trkpt lat="44.51457" lon="3.86731">
        <ele>1025</ele>
        <time>2017-02-28T23:23:32Z</time>
      </trkpt>
      <trkpt lat="44.51448" lon="3.86768">
        <ele>1019</ele>
        <time>2017-02-28T23:25:32Z</time>
      </trkpt>
      <trkpt lat="44.5144" lon="3.86805">
        <ele>1014</ele>
        <time>2017-02-28T23:27:32Z</time>
      </trkpt>
      <trkpt lat="44.51438" lon="3.8682">
        <ele>1012</ele>
        <time>2017-02-28T23:29:32Z</time>
      </trkpt>
      <trkpt lat="44.51437" lon="3.86838">
        <ele>1010</ele>
        <time>2017-02-28T23:31:32Z</time>
      </trkpt>
      <trkpt lat="44.51437" lon="3.86856">
        <ele>1008</ele>
        <time>2017-02-28T23:33:32Z</time>
      </trkpt>
      <trkpt lat="44.51441" lon="3.86881">
        <ele>1007</ele>
        <time>2017-02-28T23:35:32Z</time>
      </trkpt>
      <trkpt lat="44.51445" lon="3.86903">
        <ele>1005</ele>
        <time>2017-02-28T23:37:32Z</time>
      </trkpt>
      <trkpt lat="44.51447" lon="3.86926">
        <ele>1003</ele>
        <time>2017-02-28T23:39:32Z</time>
      </trkpt>
      <trkpt lat="44.51449" lon="3.86943">
        <ele>1001</ele>
        <time>2017-02-28T23:41:32Z</time>
      </trkpt>
      <trkpt lat="44.51452" lon="3.86956">
        <ele>999</ele>
        <time>2017-02-28T23:43:32Z</time>
      </trkpt>
      <trkpt lat="44.51455" lon="3.86972">
        <ele>997</ele>
        <time>2017-02-28T23:45:32Z</time>
      </trkpt>
      <trkpt lat="44.51458" lon="3.86984">
        <ele>995</ele>
        <time>2017-02-28T23:47:32Z</time>
      </trkpt>
      <trkpt lat="44.51462" lon="3.86994">
        <ele>994</ele>
        <time>2017-02-28T23:49:32Z</time>
      </trkpt>
      <trkpt lat="44.51465" lon="3.87">
        <ele>993</ele>
        <time>2017-02-28T23:51:32Z</time>
      </trkpt>
      <trkpt lat="44.51469" lon="3.87005">
        <ele>993</ele>
        <time>2017-02-28T23:53:32Z</time>
      </trkpt>
      <trkpt lat="44.5148" lon="3.87012">
        <ele>993</ele>
        <time>2017-02-28T23:55:32Z</time>
      </trkpt>
      <trkpt lat="44.51488" lon="3.87016">
        <ele>993</ele>
        <time>2017-02-28T23:57:32Z</time>
      </trkpt>
      <trkpt lat="44.51496" lon="3.87017">
        <ele>993</ele>
        <time>2017-02-28T23:59:32Z</time>
      </trkpt>
      <trkpt lat="44.515" lon="3.87016">
        <ele>994</ele>
        <time>2017-03-01T00:01:32Z</time>
      </trkpt>
      <trkpt lat="44.51506" lon="3.87012">
        <ele>994</ele>
        <time>2017-03-01T00:03:32Z</time>
      </trkpt>
      <trkpt lat="44.51512" lon="3.87004">
        <ele>994</ele>
        <time>2017-03-01T00:05:32Z</time>
      </trkpt>
      <trkpt lat="44.51523" lon="3.86984">
        <ele>995</ele>
        <time>2017-03-01T00:07:32Z</time>
      </trkpt>
      <trkpt lat="44.51537" lon="3.86956">
        <ele>997</ele>
        <time>2017-03-01T00:09:32Z</time>
      </trkpt>
      <trkpt lat="44.51556" lon="3.8692">
        <ele>998</ele>
        <time>2017-03-01T00:11:32Z</time>
      </trkpt>
      <trkpt lat="44.5157" lon="3.86893">
        <ele>997</ele>
        <time>2017-03-01T00:13:32Z</time>
      </trkpt>
      <trkpt lat="44.51582" lon="3.86874">
        <ele>997</ele>
        <time>2017-03-01T00:15:32Z</time>
      </trkpt>
      <trkpt lat="44.51594" lon="3.86857">
        <ele>996</ele>
        <time>2017-03-01T00:17:32Z</time>
      </trkpt>
      <trkpt lat="44.51605" lon="3.86844">
        <ele>996</ele>
        <time>2017-03-01T00:19:32Z</time>
      </trkpt>
      <trkpt lat="44.51618" lon="3.86831">
        <ele>996</ele>
        <time>2017-03-01T00:21:32Z</time>
      </trkpt>
      <trkpt lat="44.51631" lon="3.86817">
        <ele>996</ele>
        <time>2017-03-01T00:23:32Z</time>
      </trkpt>
      <trkpt lat="44.51646" lon="3.86805">
        <ele>996</ele>
        <time>2017-03-01T00:25:32Z</time>
      </trkpt>
      <trkpt lat="44.51667" lon="3.86791">
        <ele>994</ele>
        <time>2017-03-01T00:27:32Z</time>
      </trkpt>
      <trkpt lat="44.51686" lon="3.8678">
        <ele>992</ele>
        <time>2017-03-01T00:29:32Z</time>
      </trkpt>
      <trkpt lat="44.51708" lon="3.8677">
        <ele>990</ele>
        <time>2017-03-01T00:31:32Z</time>
      </trkpt>
      <trkpt lat="44.51724" lon="3.86765">
        <ele>988</ele>
        <time>2017-03-01T00:33:32Z</time>
      </trkpt>
      <trkpt lat="44.51758" lon="3.86761">
        <ele>982</ele>
        <time>2017-03-01T00:35:32Z</time>
      </trkpt>
      <trkpt lat="44.51774" lon="3.86758">
        <ele>979</ele>
        <time>2017-03-01T00:37:32Z</time>
      </trkpt>
      <trkpt lat="44.51797" lon="3.86753">
        <ele>975</ele>
        <time>2017-03-01T00:39:32Z</time>
      </trkpt>
      <trkpt lat="44.51816" lon="3.86746">
        <ele>973</ele>
        <time>2017-03-01T00:41:32Z</time>
      </trkpt>
      <trkpt lat="44.51834" lon="3.86735">
        <ele>971</ele>
        <time>2017-03-01T00:43:32Z</time>
      </trkpt>
      <trkpt lat="44.51842" lon="3.86727">
        <ele>972</ele>
        <time>2017-03-01T00:45:32Z</time>
      </trkpt>
      <trkpt lat="44.51854" lon="3.86715">
        <ele>972</ele>
        <time>2017-03-01T00:47:32Z</time>
      </trkpt>
      <trkpt lat="44.51864" lon="3.867">
        <ele>972</ele>
        <time>2017-03-01T00:49:32Z</time>
      </trkpt>
      <trkpt lat="44.51877" lon="3.86684">
        <ele>970</ele>
        <time>2017-03-01T00:51:32Z</time>
      </trkpt>
      <trkpt lat="44.51887" lon="3.86673">
        <ele>967</ele>
        <time>2017-03-01T00:53:32Z</time>
      </trkpt>
      <trkpt lat="44.51893" lon="3.86668">
        <ele>965</ele>
        <time>2017-03-01T00:55:32Z</time>
      </trkpt>
      <trkpt lat="44.519" lon="3.86666">
        <ele>963</ele>
        <time>2017-03-01T00:57:32Z</time>
      </trkpt>
      <trkpt lat="44.51907" lon="3.86665">
        <ele>961</ele>
        <time>2017-03-01T00:59:32Z</time>
      </trkpt>
      <trkpt lat="44.51915" lon="3.86667">
        <ele>958</ele>
        <time>2017-03-01T01:01:32Z</time>
      </trkpt>
      <trkpt lat="44.51924" lon="3.86668">
        <ele>958</ele>
        <time>2017-03-01T01:03:32Z</time>
      </trkpt>
      <trkpt lat="44.51938" lon="3.86666">
        <ele>959</ele>
        <time>2017-03-01T01:05:32Z</time>
      </trkpt>
      <trkpt lat="44.51946" lon="3.86665">
        <ele>960</ele>
        <time>2017-03-01T01:07:32Z</time>
      </trkpt>
      <trkpt lat="44.51955" lon="3.86662">
        <ele>960</ele>
        <time>2017-03-01T01:09:32Z</time>
      </trkpt>
      <trkpt lat="44.5196" lon="3.86659">
        <ele>961</ele>
        <time>2017-03-01T01:11:32Z</time>
      </trkpt>
      <trkpt lat="44.51967" lon="3.86656">
        <ele>961</ele>
        <time>2017-03-01T01:13:32Z</time>
      </trkpt>
      <trkpt lat="44.51971" lon="3.86654">
        <ele>961</ele>
        <time>2017-03-01T01:15:32Z</time>
      </trkpt>
      <trkpt lat="44.51995" lon="3.86643">
        <ele>962</ele>
        <time>2017-03-01T01:17:32Z</time>
      </trkpt>
      <trkpt lat="44.52" lon="3.8664">
        <ele>961</ele>
        <time>2017-03-01T01:19:32Z</time>
      </trkpt>
      <trkpt lat="44.52004" lon="3.86638">
        <ele>963</ele>
        <time>2017-03-01T01:21:32Z</time>
      </trkpt>
      <trkpt lat="44.52008" lon="3.86634">
        <ele>964</ele>
        <time>2017-03-01T01:23:32Z</time>
      </trkpt>
      <trkpt lat="44.52014" lon="3.86624">
        <ele>966</ele>
        <time>2017-03-01T01:25:32Z</time>
      </trkpt>
      <trkpt lat="44.52027" lon="3.86596">
        <ele>968</ele>
        <time>2017-03-01T01:27:32Z</time>
      </trkpt>
      <trkpt lat="44.52043" lon="3.8656">
        <ele>970</ele>
        <time>2017-03-01T01:29:32Z</time>
      </trkpt>
      <trkpt lat="44.52056" lon="3.86533">
        <ele>971</ele>
        <time>2017-03-01T01:31:32Z</time>
      </trkpt>
      <trkpt lat="44.52068" lon="3.86511">
        <ele>970</ele>
        <time>2017-03-01T01:33:32Z</time>
      </trkpt>
      <trkpt lat="44.52081" lon="3.86495">
        <ele>970</ele>
        <time>2017-03-01T01:35:32Z</time>
      </trkpt>
      <trkpt lat="44.52094" lon="3.86481">
        <ele>974</ele>
        <time>2017-03-01T01:37:32Z</time>
      </trkpt>
      <trkpt lat="44.52113" lon="3.86467">
        <ele>980</ele>
        <time>2017-03-01T01:39:32Z</time>
      </trkpt>
      <trkpt lat="44.52121" lon="3.86465">
        <ele>982</ele>
        <time>2017-03-01T01:41:32Z</time>
      </trkpt>
      <trkpt lat="44.52124" lon="3.86466">
        <ele>984</ele>
        <time>2017-03-01T01:43:32Z</time>
      </trkpt>
      <trkpt lat="44.52126" lon="3.86468">
        <ele>984</ele>
        <time>2017-03-01T01:45:32Z</time>
      </trkpt>
      <trkpt lat="44.52127" lon="3.8647">
        <ele>985</ele>
        <time>2017-03-01T01:47:32Z</time>
      </trkpt>
      <trkpt lat="44.52126" lon="3.86474">
        <ele>985</ele>
        <time>2017-03-01T01:49:32Z</time>
      </trkpt>
      <trkpt lat="44.52124" lon="3.86478">
        <ele>984</ele>
        <time>2017-03-01T01:51:32Z</time>
      </trkpt>
      <trkpt lat="44.52117" lon="3.86487">
        <ele>982</ele>
        <time>2017-03-01T01:53:32Z</time>
      </trkpt>
      <trkpt lat="44.52099" lon="3.86507">
        <ele>978</ele>
        <time>2017-03-01T01:55:32Z</time>
      </trkpt>
      <trkpt lat="44.52096" lon="3.86512">
        <ele>978</ele>
        <time>2017-03-01T01:57:32Z</time>
      </trkpt>
      <trkpt lat="44.52093" lon="3.86523">
        <ele>979</ele>
        <time>2017-03-01T01:59:32Z</time>
      </trkpt>
      <trkpt lat="44.52088" lon="3.86541">
        <ele>981</ele>
        <time>2017-03-01T02:01:32Z</time>
      </trkpt>
      <trkpt lat="44.52081" lon="3.86572">
        <ele>984</ele>
        <time>2017-03-01T02:03:32Z</time>
      </trkpt>
      <trkpt lat="44.52072" lon="3.86614">
        <ele>989</ele>
        <time>2017-03-01T02:05:32Z</time>
      </trkpt>
      <trkpt lat="44.52064" lon="3.86646">
        <ele>991</ele>
        <time>2017-03-01T02:07:32Z</time>
      </trkpt>
      <trkpt lat="44.52058" lon="3.86671">
        <ele>992</ele>
        <time>2017-03-01T02:09:32Z</time>
      </trkpt>
      <trkpt lat="44.52054" lon="3.86685">
        <ele>992</ele>
        <time>2017-03-01T02:11:32Z</time>
      </trkpt>
      <trkpt lat="44.52047" lon="3.86698">
        <ele>990</ele>
        <time>2017-03-01T02:13:32Z</time>
      </trkpt>
      <trkpt lat="44.52041" lon="3.86713">
        <ele>990</ele>
        <time>2017-03-01T02:15:32Z</time>
      </trkpt>
      <trkpt lat="44.52038" lon="3.86722">
        <ele>990</ele>
        <time>2017-03-01T02:17:32Z</time>
      </trkpt>
      <trkpt lat="44.52036" lon="3.8673">
        <ele>990</ele>
        <time>2017-03-01T02:19:32Z</time>
      </trkpt>
      <trkpt lat="44.52035" lon="3.86738">
        <ele>991</ele>
        <time>2017-03-01T02:21:32Z</time>
      </trkpt>
      <trkpt lat="44.52035" lon="3.86745">
        <ele>992</ele>
        <time>2017-03-01T02:23:32Z</time>
      </trkpt>
      <trkpt lat="44.52038" lon="3.86753">
        <ele>994</ele>
        <time>2017-03-01T02:25:32Z</time>
      </trkpt>
      <trkpt lat="44.52041" lon="3.86759">
        <ele>996</ele>
        <time>2017-03-01T02:27:32Z</time>
      </trkpt>
      <trkpt lat="44.52047" lon="3.86764">
        <ele>999</ele>
        <time>2017-03-01T02:29:32Z</time>
      </trkpt>
      <trkpt lat="44.52053" lon="3.86765">
        <ele>1001</ele>
        <time>2017-03-01T02:31:32Z</time>
      </trkpt>
      <trkpt lat="44.52063" lon="3.86763">
        <ele>1004</ele>
        <time>2017-03-01T02:33:32Z</time>
      </trkpt>
      <trkpt lat="44.52083" lon="3.86758">
        <ele>1009</ele>
        <time>2017-03-01T02:35:32Z</time>
      </trkpt>
      <trkpt lat="44.52095" lon="3.86757">
        <ele>1012</ele>
        <time>2017-03-01T02:37:32Z</time>
      </trkpt>
      <trkpt lat="44.52101" lon="3.86759">
        <ele>1015</ele>
        <time>2017-03-01T02:39:32Z</time>
      </trkpt>
      <trkpt lat="44.52105" lon="3.86762">
        <ele>1016</ele>
        <time>2017-03-01T02:41:32Z</time>
      </trkpt>
      <trkpt lat="44.52106" lon="3.86766">
        <ele>1017</ele>
        <time>2017-03-01T02:43:32Z</time>
      </trkpt>
      <trkpt lat="44.52106" lon="3.86769">
        <ele>1017</ele>
        <time>2017-03-01T02:45:32Z</time>
      </trkpt>
      <trkpt lat="44.52106" lon="3.86773">
        <ele>1018</ele>
        <time>2017-03-01T02:47:32Z</time>
      </trkpt>
      <trkpt lat="44.52105" lon="3.86781">
        <ele>1019</ele>
        <time>2017-03-01T02:49:32Z</time>
      </trkpt>
      <trkpt lat="44.52099" lon="3.86793">
        <ele>1019</ele>
        <time>2017-03-01T02:51:32Z</time>
      </trkpt>
      <trkpt lat="44.52087" lon="3.86814">
        <ele>1018</ele>
        <time>2017-03-01T02:53:32Z</time>
      </trkpt>
      <trkpt lat="44.52085" lon="3.86816">
        <ele>1018</ele>
        <time>2017-03-01T02:55:32Z</time>
      </trkpt>
      <trkpt lat="44.52076" lon="3.8683">
        <ele>1018</ele>
        <time>2017-03-01T02:57:32Z</time>
      </trkpt>
      <trkpt lat="44.52061" lon="3.86845">
        <ele>1019</ele>
        <time>2017-03-01T02:59:32Z</time>
      </trkpt>
      <trkpt lat="44.52044" lon="3.86861">
        <ele>1020</ele>
        <time>2017-03-01T03:01:32Z</time>
      </trkpt>
      <trkpt lat="44.52023" lon="3.86876">
        <ele>1021</ele>
        <time>2017-03-01T03:03:32Z</time>
      </trkpt>
      <trkpt lat="44.52007" lon="3.86887">
        <ele>1022</ele>
        <time>2017-03-01T03:05:32Z</time>
      </trkpt>
      <trkpt lat="44.51997" lon="3.86896">
        <ele>1023</ele>
        <time>2017-03-01T03:07:32Z</time>
      </trkpt>
      <trkpt lat="44.51983" lon="3.8691">
        <ele>1025</ele>
        <time>2017-03-01T03:09:32Z</time>
      </trkpt>
      <trkpt lat="44.51964" lon="3.86934">
        <ele>1027</ele>
        <time>2017-03-01T03:11:32Z</time>
      </trkpt>
      <trkpt lat="44.51951" lon="3.86956">
        <ele>1029</ele>
        <time>2017-03-01T03:13:32Z</time>
      </trkpt>
      <trkpt lat="44.51931" lon="3.86988">
        <ele>1032</ele>
        <time>2017-03-01T03:15:32Z</time>
      </trkpt>
      <trkpt lat="44.51905" lon="3.87032">
        <ele>1034</ele>
        <time>2017-03-01T03:17:32Z</time>
      </trkpt>
      <trkpt lat="44.51897" lon="3.87045">
        <ele>1035</ele>
        <time>2017-03-01T03:19:32Z</time>
      </trkpt>
      <trkpt lat="44.51892" lon="3.87057">
        <ele>1036</ele>
        <time>2017-03-01T03:21:32Z</time>
      </trkpt>
      <trkpt lat="44.5189" lon="3.8707">
        <ele>1038</ele>
        <time>2017-03-01T03:23:32Z</time>
      </trkpt>
      <trkpt lat="44.5189" lon="3.8708">
        <ele>1041</ele>
        <time>2017-03-01T03:25:32Z</time>
      </trkpt>
      <trkpt lat="44.51891" lon="3.87091">
        <ele>1041</ele>
        <time>2017-03-01T03:27:32Z</time>
      </trkpt>
      <trkpt lat="44.51894" lon="3.87101">
        <ele>1041</ele>
        <time>2017-03-01T03:29:32Z</time>
      </trkpt>
      <trkpt lat="44.51898" lon="3.87107">
        <ele>1042</ele>
        <time>2017-03-01T03:31:32Z</time>
      </trkpt>
      <trkpt lat="44.51903" lon="3.87114">
        <ele>1043</ele>
        <time>2017-03-01T03:33:32Z</time>
      </trkpt>
      <trkpt lat="44.51924" lon="3.87134">
        <ele>1049</ele>
        <time>2017-03-01T03:35:32Z</time>
      </trkpt>
      <trkpt lat="44.51945" lon="3.87157">
        <ele>1054</ele>
        <time>2017-03-01T03:37:32Z</time>
      </trkpt>
      <trkpt lat="44.51955" lon="3.87169">
        <ele>1057</ele>
        <time>2017-03-01T03:39:32Z</time>
      </trkpt>
      <trkpt lat="44.51962" lon="3.8718">
        <ele>1060</ele>
        <time>2017-03-01T03:41:32Z</time>
      </trkpt>
      <trkpt lat="44.51967" lon="3.87194">
        <ele>1062</ele>
        <time>2017-03-01T03:43:32Z</time>
      </trkpt>
      <trkpt lat="44.51968" lon="3.87205">
        <ele>1063</ele>
        <time>2017-03-01T03:45:32Z</time>
      </trkpt>
      <trkpt lat="44.51968" lon="3.87214">
        <ele>1063</ele>
        <time>2017-03-01T03:47:32Z</time>
      </trkpt>
      <trkpt lat="44.51966" lon="3.87224">
        <ele>1063</ele>
        <time>2017-03-01T03:49:32Z</time>
      </trkpt>
      <trkpt lat="44.51966" lon="3.87224">
        <ele>1063</ele>
        <time>2017-03-01T03:51:32Z</time>
      </trkpt>
      <trkpt lat="44.51971" lon="3.8722">
        <ele>1064</ele>
        <time>2017-03-01T03:53:32Z</time>
      </trkpt>
      <trkpt lat="44.51974" lon="3.87216">
        <ele>1065</ele>
        <time>2017-03-01T03:55:32Z</time>
      </trkpt>
      <trkpt lat="44.51977" lon="3.87207">
        <ele>1065</ele>
        <time>2017-03-01T03:57:32Z</time>
      </trkpt>
      <trkpt lat="44.51985" lon="3.87185">
        <ele>1067</ele>
        <time>2017-03-01T03:59:32Z</time>
      </trkpt>
      <trkpt lat="44.51991" lon="3.87162">
        <ele>1067</ele>
        <time>2017-03-01T04:01:32Z</time>
      </trkpt>
      <trkpt lat="44.51995" lon="3.87146">
        <ele>1068</ele>
        <time>2017-03-01T04:03:32Z</time>
      </trkpt>
      <trkpt lat="44.52" lon="3.87132">
        <ele>1069</ele>
        <time>2017-03-01T04:05:32Z</time>
      </trkpt>
      <trkpt lat="44.52006" lon="3.87114">
        <ele>1069</ele>
        <time>2017-03-01T04:07:32Z</time>
      </trkpt>
      <trkpt lat="44.52014" lon="3.87095">
        <ele>1070</ele>
        <time>2017-03-01T04:09:32Z</time>
      </trkpt>
      <trkpt lat="44.52021" lon="3.87081">
        <ele>1070</ele>
        <time>2017-03-01T04:11:32Z</time>
      </trkpt>
      <trkpt lat="44.52028" lon="3.87069">
        <ele>1070</ele>
        <time>2017-03-01T04:13:32Z</time>
      </trkpt>
      <trkpt lat="44.52039" lon="3.87053">
        <ele>1070</ele>
        <time>2017-03-01T04:15:32Z</time>
      </trkpt>
      <trkpt lat="44.5205" lon="3.8704">
        <ele>1069</ele>
        <time>2017-03-01T04:17:32Z</time>
      </trkpt>
      <trkpt lat="44.52062" lon="3.87029">
        <ele>1070</ele>
        <time>2017-03-01T04:19:32Z</time>
      </trkpt>
      <trkpt lat="44.52074" lon="3.87018">
        <ele>1070</ele>
        <time>2017-03-01T04:21:32Z</time>
      </trkpt>
      <trkpt lat="44.52093" lon="3.87002">
        <ele>1070</ele>
        <time>2017-03-01T04:23:32Z</time>
      </trkpt>
      <trkpt lat="44.52114" lon="3.86986">
        <ele>1069</ele>
        <time>2017-03-01T04:25:32Z</time>
      </trkpt>
      <trkpt lat="44.52135" lon="3.86968">
        <ele>1069</ele>
        <time>2017-03-01T04:27:32Z</time>
      </trkpt>
      <trkpt lat="44.52159" lon="3.86949">
        <ele>1070</ele>
        <time>2017-03-01T04:29:32Z</time>
      </trkpt>
      <trkpt lat="44.52179" lon="3.86936">
        <ele>1071</ele>
        <time>2017-03-01T04:31:32Z</time>
      </trkpt>
      <trkpt lat="44.52198" lon="3.86924">
        <ele>1073</ele>
        <time>2017-03-01T04:33:32Z</time>
      </trkpt>
      <trkpt lat="44.52217" lon="3.86909">
        <ele>1074</ele>
        <time>2017-03-01T04:35:32Z</time>
      </trkpt>
      <trkpt lat="44.52232" lon="3.86897">
        <ele>1075</ele>
        <time>2017-03-01T04:37:32Z</time>
      </trkpt>
      <trkpt lat="44.52235" lon="3.86893">
        <ele>1075</ele>
        <time>2017-03-01T04:39:32Z</time>
      </trkpt>
      <trkpt lat="44.52253" lon="3.86878">
        <ele>1076</ele>
        <time>2017-03-01T04:41:32Z</time>
      </trkpt>
      <trkpt lat="44.52279" lon="3.86855">
        <ele>1077</ele>
        <time>2017-03-01T04:43:32Z</time>
      </trkpt>
      <trkpt lat="44.52299" lon="3.86836">
        <ele>1079</ele>
        <time>2017-03-01T04:45:32Z</time>
      </trkpt>
      <trkpt lat="44.52317" lon="3.86812">
        <ele>1080</ele>
        <time>2017-03-01T04:47:32Z</time>
      </trkpt>
      <trkpt lat="44.52333" lon="3.86792">
        <ele>1081</ele>
        <time>2017-03-01T04:49:32Z</time>
      </trkpt>
      <trkpt lat="44.52347" lon="3.86772">
        <ele>1082</ele>
        <time>2017-03-01T04:51:32Z</time>
      </trkpt>
      <trkpt lat="44.52363" lon="3.8675">
        <ele>1083</ele>
        <time>2017-03-01T04:53:32Z</time>
      </trkpt>
      <trkpt lat="44.52379" lon="3.86725">
        <ele>1084</ele>
        <time>2017-03-01T04:55:32Z</time>
      </trkpt>
      <trkpt lat="44.52393" lon="3.86703">
        <ele>1086</ele>
        <time>2017-03-01T04:57:32Z</time>
      </trkpt>
      <trkpt lat="44.52395" lon="3.867">
        <ele>1086</ele>
        <time>2017-03-01T04:59:32Z</time>
      </trkpt>
      <trkpt lat="44.52396" lon="3.86697">
        <ele>1086</ele>
        <time>2017-03-01T05:01:32Z</time>
      </trkpt>
      <trkpt lat="44.52396" lon="3.86695">
        <ele>1086</ele>
        <time>2017-03-01T05:03:32Z</time>
      </trkpt>
      <trkpt lat="44.52396" lon="3.86694">
        <ele>1086</ele>
        <time>2017-03-01T05:05:32Z</time>
      </trkpt>
      <trkpt lat="44.52396" lon="3.86691">
        <ele>1086</ele>
        <time>2017-03-01T05:07:32Z</time>
      </trkpt>
      <trkpt lat="44.52396" lon="3.8669">
        <ele>1086</ele>
        <time>2017-03-01T05:09:32Z</time>
      </trkpt>
      <trkpt lat="44.52395" lon="3.86687">
        <ele>1086</ele>
        <time>2017-03-01T05:11:32Z</time>
      </trkpt>
      <trkpt lat="44.52394" lon="3.86683">
        <ele>1086</ele>
        <time>2017-03-01T05:13:32Z</time>
      </trkpt>
      <trkpt lat="44.52394" lon="3.86683">
        <ele>1086</ele>
        <time>2017-03-01T05:15:32Z</time>
      </trkpt>
      <trkpt lat="44.52402" lon="3.86686">
        <ele>1087</ele>
        <time>2017-03-01T05:17:32Z</time>
      </trkpt>
      <trkpt lat="44.52402" lon="3.86686">
        <ele>1087</ele>
        <time>2017-03-01T05:19:32Z</time>
      </trkpt>
      <trkpt lat="44.52409" lon="3.86677">
        <ele>1088</ele>
        <time>2017-03-01T05:21:32Z</time>
      </trkpt>
      <trkpt lat="44.52419" lon="3.86662">
        <ele>1089</ele>
        <time>2017-03-01T05:23:32Z</time>
      </trkpt>
      <trkpt lat="44.52433" lon="3.86638">
        <ele>1089</ele>
        <time>2017-03-01T05:25:32Z</time>
      </trkpt>
      <trkpt lat="44.52449" lon="3.8661">
        <ele>1090</ele>
        <time>2017-03-01T05:27:32Z</time>
      </trkpt>
      <trkpt lat="44.52459" lon="3.86593">
        <ele>1091</ele>
        <time>2017-03-01T05:29:32Z</time>
      </trkpt>
      <trkpt lat="44.52472" lon="3.86571">
        <ele>1092</ele>
        <time>2017-03-01T05:31:32Z</time>
      </trkpt>
      <trkpt lat="44.5248" lon="3.86556">
        <ele>1093</ele>
        <time>2017-03-01T05:33:32Z</time>
      </trkpt>
      <trkpt lat="44.52486" lon="3.86543">
        <ele>1094</ele>
        <time>2017-03-01T05:35:32Z</time>
      </trkpt>
      <trkpt lat="44.52494" lon="3.86519">
        <ele>1096</ele>
        <time>2017-03-01T05:37:32Z</time>
      </trkpt>
      <trkpt lat="44.52501" lon="3.86498">
        <ele>1097</ele>
        <time>2017-03-01T05:39:32Z</time>
      </trkpt>
      <trkpt lat="44.52509" lon="3.86469">
        <ele>1097</ele>
        <time>2017-03-01T05:41:32Z</time>
      </trkpt>
      <trkpt lat="44.52517" lon="3.86442">
        <ele>1097</ele>
        <time>2017-03-01T05:43:32Z</time>
      </trkpt>
      <trkpt lat="44.52528" lon="3.86414">
        <ele>1097</ele>
        <time>2017-03-01T05:45:32Z</time>
      </trkpt>
      <trkpt lat="44.52536" lon="3.86396">
        <ele>1098</ele>
        <time>2017-03-01T05:47:32Z</time>
      </trkpt>
      <trkpt lat="44.52545" lon="3.86378">
        <ele>1099</ele>
        <time>2017-03-01T05:49:32Z</time>
      </trkpt>
      <trkpt lat="44.52559" lon="3.86356">
        <ele>1100</ele>
        <time>2017-03-01T05:51:32Z</time>
      </trkpt>
      <trkpt lat="44.52575" lon="3.86329">
        <ele>1102</ele>
        <time>2017-03-01T05:53:32Z</time>
      </trkpt>
      <trkpt lat="44.52584" lon="3.86315">
        <ele>1102</ele>
        <time>2017-03-01T05:55:32Z</time>
      </trkpt>
      <trkpt lat="44.52584" lon="3.86302">
        <ele>1101</ele>
        <time>2017-03-01T05:57:32Z</time>
      </trkpt>
      <trkpt lat="44.52585" lon="3.86261">
        <ele>1099</ele>
        <time>2017-03-01T05:59:32Z</time>
      </trkpt>
      <trkpt lat="44.52586" lon="3.86218">
        <ele>1096</ele>
        <time>2017-03-01T06:01:32Z</time>
      </trkpt>
      <trkpt lat="44.52588" lon="3.86162">
        <ele>1094</ele>
        <time>2017-03-01T06:03:32Z</time>
      </trkpt>
      <trkpt lat="44.52589" lon="3.86134">
        <ele>1093</ele>
        <time>2017-03-01T06:05:32Z</time>
      </trkpt>
      <trkpt lat="44.52592" lon="3.86112">
        <ele>1092</ele>
        <time>2017-03-01T06:07:32Z</time>
      </trkpt>
      <trkpt lat="44.52596" lon="3.86075">
        <ele>1091</ele>
        <time>2017-03-01T06:09:32Z</time>
      </trkpt>
      <trkpt lat="44.526" lon="3.8604">
        <ele>1089</ele>
        <time>2017-03-01T06:11:32Z</time>
      </trkpt>
      <trkpt lat="44.52603" lon="3.86018">
        <ele>1088</ele>
        <time>2017-03-01T06:13:32Z</time>
      </trkpt>
      <trkpt lat="44.52604" lon="3.85993">
        <ele>1087</ele>
        <time>2017-03-01T06:15:32Z</time>
      </trkpt>
      <trkpt lat="44.52606" lon="3.85966">
        <ele>1085</ele>
        <time>2017-03-01T06:17:32Z</time>
      </trkpt>
      <trkpt lat="44.52607" lon="3.85952">
        <ele>1084</ele>
        <time>2017-03-01T06:19:32Z</time>
      </trkpt>
      <trkpt lat="44.52609" lon="3.85938">
        <ele>1083</ele>
        <time>2017-03-01T06:21:32Z</time>
      </trkpt>
      <trkpt lat="44.52613" lon="3.85925">
        <ele>1082</ele>
        <time>2017-03-01T06:23:32Z</time>
      </trkpt>
      <trkpt lat="44.52617" lon="3.85919">
        <ele>1082</ele>
        <time>2017-03-01T06:25:32Z</time>
      </trkpt>
      <trkpt lat="44.52622" lon="3.85915">
        <ele>1081</ele>
        <time>2017-03-01T06:27:32Z</time>
      </trkpt>
      <trkpt lat="44.52638" lon="3.85908">
        <ele>1080</ele>
        <time>2017-03-01T06:29:32Z</time>
      </trkpt>
      <trkpt lat="44.52656" lon="3.85903">
        <ele>1079</ele>
        <time>2017-03-01T06:31:32Z</time>
      </trkpt>
      <trkpt lat="44.52656" lon="3.85901">
        <ele>1079</ele>
        <time>2017-03-01T06:33:32Z</time>
      </trkpt>
      <trkpt lat="44.52656" lon="3.85901">
        <ele>1079</ele>
        <time>2017-03-01T06:35:32Z</time>
      </trkpt>
      <trkpt lat="44.52658" lon="3.859">
        <ele>1079</ele>
        <time>2017-03-01T06:37:32Z</time>
      </trkpt>
      <trkpt lat="44.52661" lon="3.85893">
        <ele>1078</ele>
        <time>2017-03-01T06:39:32Z</time>
      </trkpt>
      <trkpt lat="44.52661" lon="3.85888">
        <ele>1078</ele>
        <time>2017-03-01T06:41:32Z</time>
      </trkpt>
      <trkpt lat="44.52659" lon="3.85877">
        <ele>1078</ele>
        <time>2017-03-01T06:43:32Z</time>
      </trkpt>
      <trkpt lat="44.52649" lon="3.85855">
        <ele>1077</ele>
        <time>2017-03-01T06:45:32Z</time>
      </trkpt>
      <trkpt lat="44.52641" lon="3.85838">
        <ele>1077</ele>
        <time>2017-03-01T06:47:32Z</time>
      </trkpt>
      <trkpt lat="44.52639" lon="3.85834">
        <ele>1077</ele>
        <time>2017-03-01T06:49:32Z</time>
      </trkpt>
      <trkpt lat="44.52635" lon="3.85824">
        <ele>1077</ele>
        <time>2017-03-01T06:51:32Z</time>
      </trkpt>
      <trkpt lat="44.5263" lon="3.85813">
        <ele>1078</ele>
        <time>2017-03-01T06:53:32Z</time>
      </trkpt>
      <trkpt lat="44.52627" lon="3.85804">
        <ele>1078</ele>
        <time>2017-03-01T06:55:32Z</time>
      </trkpt>
      <trkpt lat="44.52624" lon="3.85794">
        <ele>1079</ele>
        <time>2017-03-01T06:57:32Z</time>
      </trkpt>
      <trkpt lat="44.52624" lon="3.85783">
        <ele>1079</ele>
        <time>2017-03-01T06:59:32Z</time>
      </trkpt>
      <trkpt lat="44.52624" lon="3.85782">
        <ele>1079</ele>
        <time>2017-03-01T07:01:32Z</time>
      </trkpt>
      <trkpt lat="44.52624" lon="3.85761">
        <ele>1080</ele>
        <time>2017-03-01T07:03:32Z</time>
      </trkpt>
      <trkpt lat="44.52624" lon="3.85744">
        <ele>1081</ele>
        <time>2017-03-01T07:05:32Z</time>
      </trkpt>
      <trkpt lat="44.52626" lon="3.85727">
        <ele>1082</ele>
        <time>2017-03-01T07:07:32Z</time>
      </trkpt>
      <trkpt lat="44.52629" lon="3.85709">
        <ele>1083</ele>
        <time>2017-03-01T07:09:32Z</time>
      </trkpt>
      <trkpt lat="44.52634" lon="3.85694">
        <ele>1084</ele>
        <time>2017-03-01T07:11:32Z</time>
      </trkpt>
      <trkpt lat="44.52644" lon="3.85676">
        <ele>1085</ele>
        <time>2017-03-01T07:13:32Z</time>
      </trkpt>
      <trkpt lat="44.52654" lon="3.85657">
        <ele>1086</ele>
        <time>2017-03-01T07:15:32Z</time>
      </trkpt>
      <trkpt lat="44.5266" lon="3.8564">
        <ele>1087</ele>
        <time>2017-03-01T07:17:32Z</time>
      </trkpt>
      <trkpt lat="44.52665" lon="3.8562">
        <ele>1088</ele>
        <time>2017-03-01T07:19:32Z</time>
      </trkpt>
      <trkpt lat="44.52668" lon="3.85599">
        <ele>1089</ele>
        <time>2017-03-01T07:21:32Z</time>
      </trkpt>
      <trkpt lat="44.52673" lon="3.85573">
        <ele>1090</ele>
        <time>2017-03-01T07:23:32Z</time>
      </trkpt>
      <trkpt lat="44.52676" lon="3.85554">
        <ele>1092</ele>
        <time>2017-03-01T07:25:32Z</time>
      </trkpt>
      <trkpt lat="44.52678" lon="3.85532">
        <ele>1094</ele>
        <time>2017-03-01T07:27:32Z</time>
      </trkpt>
      <trkpt lat="44.52679" lon="3.85507">
        <ele>1096</ele>
        <time>2017-03-01T07:29:32Z</time>
      </trkpt>
      <trkpt lat="44.52681" lon="3.85489">
        <ele>1098</ele>
        <time>2017-03-01T07:31:32Z</time>
      </trkpt>
      <trkpt lat="44.52683" lon="3.85472">
        <ele>1100</ele>
        <time>2017-03-01T07:33:32Z</time>
      </trkpt>
      <trkpt lat="44.52687" lon="3.85457">
        <ele>1101</ele>
        <time>2017-03-01T07:35:32Z</time>
      </trkpt>
      <trkpt lat="44.52693" lon="3.85437">
        <ele>1103</ele>
        <time>2017-03-01T07:37:32Z</time>
      </trkpt>
      <trkpt lat="44.52701" lon="3.85415">
        <ele>1104</ele>
        <time>2017-03-01T07:39:32Z</time>
      </trkpt>
      <trkpt lat="44.52711" lon="3.85389">
        <ele>1106</ele>
        <time>2017-03-01T07:41:32Z</time>
      </trkpt>
      <trkpt lat="44.52721" lon="3.85358">
        <ele>1107</ele>
        <time>2017-03-01T07:43:32Z</time>
      </trkpt>
      <trkpt lat="44.52733" lon="3.85325">
        <ele>1108</ele>
        <time>2017-03-01T07:45:32Z</time>
      </trkpt>
      <trkpt lat="44.52745" lon="3.85294">
        <ele>1107</ele>
        <time>2017-03-01T07:47:32Z</time>
      </trkpt>
      <trkpt lat="44.52749" lon="3.85279">
        <ele>1106</ele>
        <time>2017-03-01T07:49:32Z</time>
      </trkpt>
      <trkpt lat="44.52754" lon="3.85264">
        <ele>1106</ele>
        <time>2017-03-01T07:51:32Z</time>
      </trkpt>
      <trkpt lat="44.52755" lon="3.85261">
        <ele>1106</ele>
        <time>2017-03-01T07:53:32Z</time>
      </trkpt>
      <trkpt lat="44.52755" lon="3.85261">
        <ele>1106</ele>
        <time>2017-03-01T07:55:32Z</time>
      </trkpt>
      <trkpt lat="44.5276" lon="3.85239">
        <ele>1107</ele>
        <time>2017-03-01T07:57:32Z</time>
      </trkpt>
      <trkpt lat="44.52762" lon="3.8523">
        <ele>1107</ele>
        <time>2017-03-01T07:59:32Z</time>
      </trkpt>
      <trkpt lat="44.52762" lon="3.8522">
        <ele>1108</ele>
        <time>2017-03-01T08:01:32Z</time>
      </trkpt>
      <trkpt lat="44.52761" lon="3.8521">
        <ele>1109</ele>
        <time>2017-03-01T08:03:32Z</time>
      </trkpt>
      <trkpt lat="44.52759" lon="3.85198">
        <ele>1110</ele>
        <time>2017-03-01T08:05:32Z</time>
      </trkpt>
      <trkpt lat="44.52756" lon="3.85184">
        <ele>1111</ele>
        <time>2017-03-01T08:07:32Z</time>
      </trkpt>
      <trkpt lat="44.52753" lon="3.85171">
        <ele>1112</ele>
        <time>2017-03-01T08:09:32Z</time>
      </trkpt>
      <trkpt lat="44.52754" lon="3.85155">
        <ele>1114</ele>
        <time>2017-03-01T08:11:32Z</time>
      </trkpt>
      <trkpt lat="44.52755" lon="3.8514">
        <ele>1116</ele>
        <time>2017-03-01T08:13:32Z</time>
      </trkpt>
      <trkpt lat="44.52757" lon="3.85129">
        <ele>1118</ele>
        <time>2017-03-01T08:15:32Z</time>
      </trkpt>
      <trkpt lat="44.5276" lon="3.85121">
        <ele>1118</ele>
        <time>2017-03-01T08:17:32Z</time>
      </trkpt>
      <trkpt lat="44.52774" lon="3.85096">
        <ele>1120</ele>
        <time>2017-03-01T08:19:32Z</time>
      </trkpt>
      <trkpt lat="44.5279" lon="3.85076">
        <ele>1120</ele>
        <time>2017-03-01T08:21:32Z</time>
      </trkpt>
      <trkpt lat="44.52792" lon="3.85072">
        <ele>1120</ele>
        <time>2017-03-01T08:23:32Z</time>
      </trkpt>
      <trkpt lat="44.52794" lon="3.85069">
        <ele>1121</ele>
        <time>2017-03-01T08:25:32Z</time>
      </trkpt>
      <trkpt lat="44.52796" lon="3.85063">
        <ele>1121</ele>
        <time>2017-03-01T08:27:32Z</time>
      </trkpt>
      <trkpt lat="44.52798" lon="3.85054">
        <ele>1122</ele>
        <time>2017-03-01T08:29:32Z</time>
      </trkpt>
      <trkpt lat="44.52798" lon="3.85054">
        <ele>1122</ele>
        <time>2017-03-01T08:31:32Z</time>
      </trkpt>
      <trkpt lat="44.52794" lon="3.85052">
        <ele>1123</ele>
        <time>2017-03-01T08:33:32Z</time>
      </trkpt>
      <trkpt lat="44.52788" lon="3.85048">
        <ele>1125</ele>
        <time>2017-03-01T08:35:32Z</time>
      </trkpt>
      <trkpt lat="44.5278" lon="3.85044">
        <ele>1127</ele>
        <time>2017-03-01T08:37:32Z</time>
      </trkpt>
      <trkpt lat="44.52778" lon="3.85044">
        <ele>1127</ele>
        <time>2017-03-01T08:39:32Z</time>
      </trkpt>
      <trkpt lat="44.52771" lon="3.85043">
        <ele>1128</ele>
        <time>2017-03-01T08:41:32Z</time>
      </trkpt>
      <trkpt lat="44.52764" lon="3.85043">
        <ele>1129</ele>
        <time>2017-03-01T08:43:32Z</time>
      </trkpt>
      <trkpt lat="44.52756" lon="3.85048">
        <ele>1130</ele>
        <time>2017-03-01T08:45:32Z</time>
      </trkpt>
      <trkpt lat="44.52748" lon="3.85056">
        <ele>1130</ele>
        <time>2017-03-01T08:47:32Z</time>
      </trkpt>
      <trkpt lat="44.52738" lon="3.85071">
        <ele>1131</ele>
        <time>2017-03-01T08:49:32Z</time>
      </trkpt>
      <trkpt lat="44.52728" lon="3.85093">
        <ele>1131</ele>
        <time>2017-03-01T08:51:32Z</time>
      </trkpt>
      <trkpt lat="44.52717" lon="3.85115">
        <ele>1131</ele>
        <time>2017-03-01T08:53:32Z</time>
      </trkpt>
      <trkpt lat="44.5271" lon="3.85135">
        <ele>1131</ele>
        <time>2017-03-01T08:55:32Z</time>
      </trkpt>
      <trkpt lat="44.5271" lon="3.85135">
        <ele>1131</ele>
        <time>2017-03-01T08:57:32Z</time>
      </trkpt>
      <trkpt lat="44.52707" lon="3.85135">
        <ele>1132</ele>
        <time>2017-03-01T08:59:32Z</time>
      </trkpt>
      <trkpt lat="44.52705" lon="3.85135">
        <ele>1132</ele>
        <time>2017-03-01T09:01:32Z</time>
      </trkpt>
      <trkpt lat="44.52704" lon="3.85136">
        <ele>1132</ele>
        <time>2017-03-01T09:03:32Z</time>
      </trkpt>
      <trkpt lat="44.52703" lon="3.85137">
        <ele>1133</ele>
        <time>2017-03-01T09:05:32Z</time>
      </trkpt>
      <trkpt lat="44.52697" lon="3.85146">
        <ele>1133</ele>
        <time>2017-03-01T09:07:32Z</time>
      </trkpt>
      <trkpt lat="44.52688" lon="3.85161">
        <ele>1133</ele>
        <time>2017-03-01T09:09:32Z</time>
      </trkpt>
      <trkpt lat="44.52677" lon="3.85179">
        <ele>1135</ele>
        <time>2017-03-01T09:11:32Z</time>
      </trkpt>
      <trkpt lat="44.5267" lon="3.85187">
        <ele>1136</ele>
        <time>2017-03-01T09:13:32Z</time>
      </trkpt>
      <trkpt lat="44.52663" lon="3.85192">
        <ele>1137</ele>
        <time>2017-03-01T09:15:32Z</time>
      </trkpt>
      <trkpt lat="44.52657" lon="3.85197">
        <ele>1138</ele>
        <time>2017-03-01T09:17:32Z</time>
      </trkpt>
      <trkpt lat="44.52651" lon="3.85199">
        <ele>1140</ele>
        <time>2017-03-01T09:19:32Z</time>
      </trkpt>
      <trkpt lat="44.52645" lon="3.85203">
        <ele>1140</ele>
        <time>2017-03-01T09:21:32Z</time>
      </trkpt>
      <trkpt lat="44.52641" lon="3.85207">
        <ele>1141</ele>
        <time>2017-03-01T09:23:32Z</time>
      </trkpt>
      <trkpt lat="44.52635" lon="3.85213">
        <ele>1142</ele>
        <time>2017-03-01T09:25:32Z</time>
      </trkpt>
      <trkpt lat="44.52608" lon="3.85238">
        <ele>1145</ele>
        <time>2017-03-01T09:27:32Z</time>
      </trkpt>
      <trkpt lat="44.52555" lon="3.85279">
        <ele>1148</ele>
        <time>2017-03-01T09:29:32Z</time>
      </trkpt>
      <trkpt lat="44.52541" lon="3.85289">
        <ele>1148</ele>
        <time>2017-03-01T09:31:32Z</time>
      </trkpt>
      <trkpt lat="44.52537" lon="3.85291">
        <ele>1148</ele>
        <time>2017-03-01T09:33:32Z</time>
      </trkpt>
      <trkpt lat="44.52533" lon="3.8529">
        <ele>1148</ele>
        <time>2017-03-01T09:35:32Z</time>
      </trkpt>
      <trkpt lat="44.5253" lon="3.8529">
        <ele>1149</ele>
        <time>2017-03-01T09:37:32Z</time>
      </trkpt>
      <trkpt lat="44.52528" lon="3.85288">
        <ele>1149</ele>
        <time>2017-03-01T09:39:32Z</time>
      </trkpt>
      <trkpt lat="44.52525" lon="3.85286">
        <ele>1149</ele>
        <time>2017-03-01T09:41:32Z</time>
      </trkpt>
      <trkpt lat="44.52523" lon="3.85283">
        <ele>1150</ele>
        <time>2017-03-01T09:43:32Z</time>
      </trkpt>
      <trkpt lat="44.52519" lon="3.85276">
        <ele>1150</ele>
        <time>2017-03-01T09:45:32Z</time>
      </trkpt>
      <trkpt lat="44.52519" lon="3.85276">
        <ele>1150</ele>
        <time>2017-03-01T09:47:32Z</time>
      </trkpt>
      <trkpt lat="44.5252" lon="3.85265">
        <ele>1151</ele>
        <time>2017-03-01T09:49:32Z</time>
      </trkpt>
      <trkpt lat="44.5252" lon="3.85265">
        <ele>1151</ele>
        <time>2017-03-01T09:51:32Z</time>
      </trkpt>
      <trkpt lat="44.5251" lon="3.85249">
        <ele>1153</ele>
        <time>2017-03-01T09:53:32Z</time>
      </trkpt>
      <trkpt lat="44.52505" lon="3.85239">
        <ele>1154</ele>
        <time>2017-03-01T09:55:32Z</time>
      </trkpt>
      <trkpt lat="44.52499" lon="3.85225">
        <ele>1155</ele>
        <time>2017-03-01T09:57:32Z</time>
      </trkpt>
      <trkpt lat="44.52495" lon="3.85212">
        <ele>1154</ele>
        <time>2017-03-01T09:59:32Z</time>
      </trkpt>
      <trkpt lat="44.52488" lon="3.85189">
        <ele>1154</ele>
        <time>2017-03-01T10:01:32Z</time>
      </trkpt>
      <trkpt lat="44.5248" lon="3.85167">
        <ele>1153</ele>
        <time>2017-03-01T10:03:32Z</time>
      </trkpt>
      <trkpt lat="44.52478" lon="3.8516">
        <ele>1154</ele>
        <time>2017-03-01T10:05:32Z</time>
      </trkpt>
      <trkpt lat="44.52475" lon="3.85155">
        <ele>1154</ele>
        <time>2017-03-01T10:07:32Z</time>
      </trkpt>
      <trkpt lat="44.52472" lon="3.8515">
        <ele>1154</ele>
        <time>2017-03-01T10:09:32Z</time>
      </trkpt>
      <trkpt lat="44.52472" lon="3.85146">
        <ele>1154</ele>
        <time>2017-03-01T10:11:32Z</time>
      </trkpt>
      <trkpt lat="44.52473" lon="3.8514">
        <ele>1155</ele>
        <time>2017-03-01T10:13:32Z</time>
      </trkpt>
      <trkpt lat="44.52475" lon="3.85135">
        <ele>1157</ele>
        <time>2017-03-01T10:15:32Z</time>
      </trkpt>
      <trkpt lat="44.52479" lon="3.85132">
        <ele>1158</ele>
        <time>2017-03-01T10:17:32Z</time>
      </trkpt>
      <trkpt lat="44.52482" lon="3.85132">
        <ele>1159</ele>
        <time>2017-03-01T10:19:32Z</time>
      </trkpt>
      <trkpt lat="44.52487" lon="3.85134">
        <ele>1160</ele>
        <time>2017-03-01T10:21:32Z</time>
      </trkpt>
      <trkpt lat="44.52489" lon="3.85138">
        <ele>1160</ele>
        <time>2017-03-01T10:23:32Z</time>
      </trkpt>
      <trkpt lat="44.52494" lon="3.85146">
        <ele>1160</ele>
        <time>2017-03-01T10:25:32Z</time>
      </trkpt>
      <trkpt lat="44.525" lon="3.85153">
        <ele>1161</ele>
        <time>2017-03-01T10:27:32Z</time>
      </trkpt>
      <trkpt lat="44.52506" lon="3.85155">
        <ele>1161</ele>
        <time>2017-03-01T10:29:32Z</time>
      </trkpt>
      <trkpt lat="44.52515" lon="3.85156">
        <ele>1161</ele>
        <time>2017-03-01T10:31:32Z</time>
      </trkpt>
      <trkpt lat="44.52528" lon="3.85155">
        <ele>1161</ele>
        <time>2017-03-01T10:33:32Z</time>
      </trkpt>
      <trkpt lat="44.52531" lon="3.85154">
        <ele>1161</ele>
        <time>2017-03-01T10:35:32Z</time>
      </trkpt>
      <trkpt lat="44.52533" lon="3.85153">
        <ele>1161</ele>
        <time>2017-03-01T10:37:32Z</time>
      </trkpt>
      <trkpt lat="44.52535" lon="3.85151">
        <ele>1161</ele>
        <time>2017-03-01T10:39:32Z</time>
      </trkpt>
      <trkpt lat="44.52537" lon="3.85148">
        <ele>1162</ele>
        <time>2017-03-01T10:41:32Z</time>
      </trkpt>
      <trkpt lat="44.52548" lon="3.8513">
        <ele>1165</ele>
        <time>2017-03-01T10:43:32Z</time>
      </trkpt>
      <trkpt lat="44.52562" lon="3.85105">
        <ele>1169</ele>
        <time>2017-03-01T10:45:32Z</time>
      </trkpt>
      <trkpt lat="44.52576" lon="3.85081">
        <ele>1173</ele>
        <time>2017-03-01T10:47:32Z</time>
      </trkpt>
      <trkpt lat="44.52587" lon="3.85061">
        <ele>1176</ele>
        <time>2017-03-01T10:49:32Z</time>
      </trkpt>
      <trkpt lat="44.52596" lon="3.85041">
        <ele>1177</ele>
        <time>2017-03-01T10:51:32Z</time>
      </trkpt>
      <trkpt lat="44.52601" lon="3.8503">
        <ele>1177</ele>
        <time>2017-03-01T10:53:32Z</time>
      </trkpt>
      <trkpt lat="44.52605" lon="3.85021">
        <ele>1177</ele>
        <time>2017-03-01T10:55:32Z</time>
      </trkpt>
      <trkpt lat="44.52608" lon="3.85012">
        <ele>1178</ele>
        <time>2017-03-01T10:57:32Z</time>
      </trkpt>
      <trkpt lat="44.5261" lon="3.84995">
        <ele>1180</ele>
        <time>2017-03-01T10:59:32Z</time>
      </trkpt>
      <trkpt lat="44.52613" lon="3.84985">
        <ele>1180</ele>
        <time>2017-03-01T11:01:32Z</time>
      </trkpt>
      <trkpt lat="44.52616" lon="3.84975">
        <ele>1181</ele>
        <time>2017-03-01T11:03:32Z</time>
      </trkpt>
      <trkpt lat="44.52622" lon="3.84962">
        <ele>1180</ele>
        <time>2017-03-01T11:05:32Z</time>
      </trkpt>
      <trkpt lat="44.52627" lon="3.84947">
        <ele>1181</ele>
        <time>2017-03-01T11:07:32Z</time>
      </trkpt>
      <trkpt lat="44.52632" lon="3.84924">
        <ele>1182</ele>
        <time>2017-03-01T11:09:32Z</time>
      </trkpt>
      <trkpt lat="44.52635" lon="3.84898">
        <ele>1185</ele>
        <time>2017-03-01T11:11:32Z</time>
      </trkpt>
      <trkpt lat="44.52639" lon="3.84874">
        <ele>1188</ele>
        <time>2017-03-01T11:13:32Z</time>
      </trkpt>
      <trkpt lat="44.52643" lon="3.84856">
        <ele>1190</ele>
        <time>2017-03-01T11:15:32Z</time>
      </trkpt>
      <trkpt lat="44.52646" lon="3.84849">
        <ele>1191</ele>
        <time>2017-03-01T11:17:32Z</time>
      </trkpt>
      <trkpt lat="44.52647" lon="3.84846">
        <ele>1191</ele>
        <time>2017-03-01T11:19:32Z</time>
      </trkpt>
      <trkpt lat="44.5265" lon="3.84842">
        <ele>1191</ele>
        <time>2017-03-01T11:21:32Z</time>
      </trkpt>
      <trkpt lat="44.52657" lon="3.84835">
        <ele>1190</ele>
        <time>2017-03-01T11:23:32Z</time>
      </trkpt>
      <trkpt lat="44.52669" lon="3.84825">
        <ele>1189</ele>
        <time>2017-03-01T11:25:32Z</time>
      </trkpt>
      <trkpt lat="44.52684" lon="3.84811">
        <ele>1188</ele>
        <time>2017-03-01T11:27:32Z</time>
      </trkpt>
      <trkpt lat="44.52694" lon="3.84796">
        <ele>1188</ele>
        <time>2017-03-01T11:29:32Z</time>
      </trkpt>
      <trkpt lat="44.52702" lon="3.84782">
        <ele>1189</ele>
        <time>2017-03-01T11:31:32Z</time>
      </trkpt>
      <trkpt lat="44.52708" lon="3.84768">
        <ele>1189</ele>
        <time>2017-03-01T11:33:32Z</time>
      </trkpt>
      <trkpt lat="44.52708" lon="3.84765">
        <ele>1190</ele>
        <time>2017-03-01T11:35:32Z</time>
      </trkpt>
      <trkpt lat="44.52708" lon="3.84762">
        <ele>1191</ele>
        <time>2017-03-01T11:37:32Z</time>
      </trkpt>
      <trkpt lat="44.52707" lon="3.84756">
        <ele>1192</ele>
        <time>2017-03-01T11:39:32Z</time>
      </trkpt>
      <trkpt lat="44.52707" lon="3.84756">
        <ele>1192</ele>
        <time>2017-03-01T11:41:32Z</time>
      </trkpt>
      <trkpt lat="44.52706" lon="3.84754">
        <ele>1192</ele>
        <time>2017-03-01T11:43:32Z</time>
      </trkpt>
      <trkpt lat="44.52704" lon="3.84752">
        <ele>1193</ele>
        <time>2017-03-01T11:45:32Z</time>
      </trkpt>
      <trkpt lat="44.52699" lon="3.84751">
        <ele>1195</ele>
        <time>2017-03-01T11:47:32Z</time>
      </trkpt>
      <trkpt lat="44.52696" lon="3.84754">
        <ele>1195</ele>
        <time>2017-03-01T11:49:32Z</time>
      </trkpt>
      <trkpt lat="44.52693" lon="3.84761">
        <ele>1195</ele>
        <time>2017-03-01T11:51:32Z</time>
      </trkpt>
      <trkpt lat="44.5269" lon="3.84769">
        <ele>1194</ele>
        <time>2017-03-01T11:53:32Z</time>
      </trkpt>
      <trkpt lat="44.52682" lon="3.8478">
        <ele>1195</ele>
        <time>2017-03-01T11:55:32Z</time>
      </trkpt>
      <trkpt lat="44.52667" lon="3.84793">
        <ele>1196</ele>
        <time>2017-03-01T11:57:32Z</time>
      </trkpt>
      <trkpt lat="44.52648" lon="3.84807">
        <ele>1198</ele>
        <time>2017-03-01T11:59:32Z</time>
      </trkpt>
      <trkpt lat="44.52635" lon="3.84815">
        <ele>1200</ele>
        <time>2017-03-01T12:01:32Z</time>
      </trkpt>
      <trkpt lat="44.5263" lon="3.84819">
        <ele>1201</ele>
        <time>2017-03-01T12:03:32Z</time>
      </trkpt>
      <trkpt lat="44.52624" lon="3.84824">
        <ele>1202</ele>
        <time>2017-03-01T12:05:32Z</time>
      </trkpt>
      <trkpt lat="44.52618" lon="3.84829">
        <ele>1202</ele>
        <time>2017-03-01T12:07:32Z</time>
      </trkpt>
      <trkpt lat="44.5261" lon="3.84839">
        <ele>1203</ele>
        <time>2017-03-01T12:09:32Z</time>
      </trkpt>
      <trkpt lat="44.52597" lon="3.84857">
        <ele>1203</ele>
        <time>2017-03-01T12:11:32Z</time>
      </trkpt>
      <trkpt lat="44.52582" lon="3.84878">
        <ele>1204</ele>
        <time>2017-03-01T12:13:32Z</time>
      </trkpt>
      <trkpt lat="44.52566" lon="3.84893">
        <ele>1203</ele>
        <time>2017-03-01T12:15:32Z</time>
      </trkpt>
      <trkpt lat="44.52551" lon="3.84904">
        <ele>1202</ele>
        <time>2017-03-01T12:17:32Z</time>
      </trkpt>
      <trkpt lat="44.5254" lon="3.84909">
        <ele>1202</ele>
        <time>2017-03-01T12:19:32Z</time>
      </trkpt>
      <trkpt lat="44.52529" lon="3.84912">
        <ele>1203</ele>
        <time>2017-03-01T12:21:32Z</time>
      </trkpt>
      <trkpt lat="44.52514" lon="3.84912">
        <ele>1204</ele>
        <time>2017-03-01T12:23:32Z</time>
      </trkpt>
      <trkpt lat="44.525" lon="3.84913">
        <ele>1205</ele>
        <time>2017-03-01T12:25:32Z</time>
      </trkpt>
      <trkpt lat="44.52489" lon="3.84912">
        <ele>1205</ele>
        <time>2017-03-01T12:27:32Z</time>
      </trkpt>
      <trkpt lat="44.52472" lon="3.84907">
        <ele>1206</ele>
        <time>2017-03-01T12:29:32Z</time>
      </trkpt>
      <trkpt lat="44.52454" lon="3.84899">
        <ele>1208</ele>
        <time>2017-03-01T12:31:32Z</time>
      </trkpt>
      <trkpt lat="44.52434" lon="3.84888">
        <ele>1210</ele>
        <time>2017-03-01T12:33:32Z</time>
      </trkpt>
      <trkpt lat="44.52414" lon="3.84879">
        <ele>1211</ele>
        <time>2017-03-01T12:35:32Z</time>
      </trkpt>
      <trkpt lat="44.52397" lon="3.8487">
        <ele>1210</ele>
        <time>2017-03-01T12:37:32Z</time>
      </trkpt>
      <trkpt lat="44.52382" lon="3.8486">
        <ele>1210</ele>
        <time>2017-03-01T12:39:32Z</time>
      </trkpt>
      <trkpt lat="44.52368" lon="3.84849">
        <ele>1210</ele>
        <time>2017-03-01T12:41:32Z</time>
      </trkpt>
      <trkpt lat="44.52361" lon="3.84843">
        <ele>1210</ele>
        <time>2017-03-01T12:43:32Z</time>
      </trkpt>
      <trkpt lat="44.52358" lon="3.84839">
        <ele>1210</ele>
        <time>2017-03-01T12:45:32Z</time>
      </trkpt>
      <trkpt lat="44.52357" lon="3.84837">
        <ele>1211</ele>
        <time>2017-03-01T12:47:32Z</time>
      </trkpt>
      <trkpt lat="44.52355" lon="3.84832">
        <ele>1211</ele>
        <time>2017-03-01T12:49:32Z</time>
      </trkpt>
      <trkpt lat="44.52355" lon="3.84828">
        <ele>1211</ele>
        <time>2017-03-01T12:51:32Z</time>
      </trkpt>
      <trkpt lat="44.52356" lon="3.84822">
        <ele>1212</ele>
        <time>2017-03-01T12:53:32Z</time>
      </trkpt>
      <trkpt lat="44.52356" lon="3.84822">
        <ele>1212</ele>
        <time>2017-03-01T12:55:32Z</time>
      </trkpt>
      <trkpt lat="44.52358" lon="3.84819">
        <ele>1213</ele>
        <time>2017-03-01T12:57:32Z</time>
      </trkpt>
      <trkpt lat="44.5236" lon="3.84818">
        <ele>1213</ele>
        <time>2017-03-01T12:59:32Z</time>
      </trkpt>
      <trkpt lat="44.52363" lon="3.84818">
        <ele>1214</ele>
        <time>2017-03-01T13:01:32Z</time>
      </trkpt>
      <trkpt lat="44.52366" lon="3.8482">
        <ele>1214</ele>
        <time>2017-03-01T13:03:32Z</time>
      </trkpt>
      <trkpt lat="44.52371" lon="3.84824">
        <ele>1215</ele>
        <time>2017-03-01T13:05:32Z</time>
      </trkpt>
      <trkpt lat="44.52379" lon="3.84831">
        <ele>1216</ele>
        <time>2017-03-01T13:07:32Z</time>
      </trkpt>
      <trkpt lat="44.52383" lon="3.84833">
        <ele>1216</ele>
        <time>2017-03-01T13:09:32Z</time>
      </trkpt>
      <trkpt lat="44.52388" lon="3.84834">
        <ele>1217</ele>
        <time>2017-03-01T13:11:32Z</time>
      </trkpt>
      <trkpt lat="44.52399" lon="3.84834">
        <ele>1219</ele>
        <time>2017-03-01T13:13:32Z</time>
      </trkpt>
      <trkpt lat="44.52419" lon="3.84833">
        <ele>1222</ele>
        <time>2017-03-01T13:15:32Z</time>
      </trkpt>
      <trkpt lat="44.52435" lon="3.84831">
        <ele>1223</ele>
        <time>2017-03-01T13:17:32Z</time>
      </trkpt>
      <trkpt lat="44.52447" lon="3.84827">
        <ele>1224</ele>
        <time>2017-03-01T13:19:32Z</time>
      </trkpt>
      <trkpt lat="44.52465" lon="3.84816">
        <ele>1226</ele>
        <time>2017-03-01T13:21:32Z</time>
      </trkpt>
      <trkpt lat="44.52486" lon="3.848">
        <ele>1230</ele>
        <time>2017-03-01T13:23:32Z</time>
      </trkpt>
      <trkpt lat="44.52506" lon="3.84783">
        <ele>1233</ele>
        <time>2017-03-01T13:25:32Z</time>
      </trkpt>
      <trkpt lat="44.52525" lon="3.84762">
        <ele>1233</ele>
        <time>2017-03-01T13:27:32Z</time>
      </trkpt>
      <trkpt lat="44.52543" lon="3.84739">
        <ele>1235</ele>
        <time>2017-03-01T13:29:32Z</time>
      </trkpt>
      <trkpt lat="44.52558" lon="3.84712">
        <ele>1237</ele>
        <time>2017-03-01T13:31:32Z</time>
      </trkpt>
      <trkpt lat="44.52574" lon="3.84683">
        <ele>1240</ele>
        <time>2017-03-01T13:33:32Z</time>
      </trkpt>
      <trkpt lat="44.52584" lon="3.84658">
        <ele>1243</ele>
        <time>2017-03-01T13:35:32Z</time>
      </trkpt>
      <trkpt lat="44.52596" lon="3.84636">
        <ele>1244</ele>
        <time>2017-03-01T13:37:32Z</time>
      </trkpt>
      <trkpt lat="44.52607" lon="3.84612">
        <ele>1244</ele>
        <time>2017-03-01T13:39:32Z</time>
      </trkpt>
      <trkpt lat="44.52616" lon="3.84586">
        <ele>1246</ele>
        <time>2017-03-01T13:41:32Z</time>
      </trkpt>
      <trkpt lat="44.52624" lon="3.84557">
        <ele>1247</ele>
        <time>2017-03-01T13:43:32Z</time>
      </trkpt>
      <trkpt lat="44.52634" lon="3.84517">
        <ele>1249</ele>
        <time>2017-03-01T13:45:32Z</time>
      </trkpt>
      <trkpt lat="44.52639" lon="3.84494">
        <ele>1250</ele>
        <time>2017-03-01T13:47:32Z</time>
      </trkpt>
      <trkpt lat="44.52642" lon="3.8448">
        <ele>1250</ele>
        <time>2017-03-01T13:49:32Z</time>
      </trkpt>
      <trkpt lat="44.52643" lon="3.84474">
        <ele>1250</ele>
        <time>2017-03-01T13:51:32Z</time>
      </trkpt>
      <trkpt lat="44.52644" lon="3.84467">
        <ele>1250</ele>
        <time>2017-03-01T13:53:32Z</time>
      </trkpt>
      <trkpt lat="44.52647" lon="3.8445">
        <ele>1250</ele>
        <time>2017-03-01T13:55:32Z</time>
      </trkpt>
      <trkpt lat="44.52649" lon="3.84438">
        <ele>1250</ele>
        <time>2017-03-01T13:57:32Z</time>
      </trkpt>
      <trkpt lat="44.52649" lon="3.84428">
        <ele>1251</ele>
        <time>2017-03-01T13:59:32Z</time>
      </trkpt>
      <trkpt lat="44.52649" lon="3.84428">
        <ele>1251</ele>
        <time>2017-03-01T14:01:32Z</time>
      </trkpt>
      <trkpt lat="44.52647" lon="3.84428">
        <ele>1252</ele>
        <time>2017-03-01T14:03:32Z</time>
      </trkpt>
      <trkpt lat="44.52645" lon="3.84431">
        <ele>1253</ele>
        <time>2017-03-01T14:05:32Z</time>
      </trkpt>
      <trkpt lat="44.52642" lon="3.84435">
        <ele>1254</ele>
        <time>2017-03-01T14:07:32Z</time>
      </trkpt>
      <trkpt lat="44.52641" lon="3.84439">
        <ele>1254</ele>
        <time>2017-03-01T14:09:32Z</time>
      </trkpt>
      <trkpt lat="44.52637" lon="3.84448">
        <ele>1255</ele>
        <time>2017-03-01T14:11:32Z</time>
      </trkpt>
      <trkpt lat="44.52632" lon="3.84462">
        <ele>1256</ele>
        <time>2017-03-01T14:13:32Z</time>
      </trkpt>
      <trkpt lat="44.52632" lon="3.84463">
        <ele>1256</ele>
        <time>2017-03-01T14:15:32Z</time>
      </trkpt>
      <trkpt lat="44.5263" lon="3.84466">
        <ele>1256</ele>
        <time>2017-03-01T14:17:32Z</time>
      </trkpt>
      <trkpt lat="44.5262" lon="3.84485">
        <ele>1259</ele>
        <time>2017-03-01T14:19:32Z</time>
      </trkpt>
      <trkpt lat="44.52608" lon="3.84507">
        <ele>1261</ele>
        <time>2017-03-01T14:21:32Z</time>
      </trkpt>
      <trkpt lat="44.52592" lon="3.84528">
        <ele>1264</ele>
        <time>2017-03-01T14:23:32Z</time>
      </trkpt>
      <trkpt lat="44.52576" lon="3.84553">
        <ele>1264</ele>
        <time>2017-03-01T14:25:32Z</time>
      </trkpt>
      <trkpt lat="44.52561" lon="3.84569">
        <ele>1264</ele>
        <time>2017-03-01T14:27:32Z</time>
      </trkpt>
      <trkpt lat="44.52542" lon="3.84586">
        <ele>1265</ele>
        <time>2017-03-01T14:29:32Z</time>
      </trkpt>
      <trkpt lat="44.52521" lon="3.846">
        <ele>1267</ele>
        <time>2017-03-01T14:31:32Z</time>
      </trkpt>
      <trkpt lat="44.52494" lon="3.84609">
        <ele>1269</ele>
        <time>2017-03-01T14:33:32Z</time>
      </trkpt>
      <trkpt lat="44.52479" lon="3.84613">
        <ele>1268</ele>
        <time>2017-03-01T14:35:32Z</time>
      </trkpt>
      <trkpt lat="44.52467" lon="3.84613">
        <ele>1267</ele>
        <time>2017-03-01T14:37:32Z</time>
      </trkpt>
      <trkpt lat="44.52458" lon="3.84613">
        <ele>1267</ele>
        <time>2017-03-01T14:39:32Z</time>
      </trkpt>
      <trkpt lat="44.52452" lon="3.84611">
        <ele>1267</ele>
        <time>2017-03-01T14:41:32Z</time>
      </trkpt>
      <trkpt lat="44.5245" lon="3.84611">
        <ele>1267</ele>
        <time>2017-03-01T14:43:32Z</time>
      </trkpt>
      <trkpt lat="44.52443" lon="3.84607">
        <ele>1267</ele>
        <time>2017-03-01T14:45:32Z</time>
      </trkpt>
      <trkpt lat="44.52441" lon="3.84605">
        <ele>1268</ele>
        <time>2017-03-01T14:47:32Z</time>
      </trkpt>
      <trkpt lat="44.52435" lon="3.84601">
        <ele>1268</ele>
        <time>2017-03-01T14:49:32Z</time>
      </trkpt>
      <trkpt lat="44.52427" lon="3.84592">
        <ele>1270</ele>
        <time>2017-03-01T14:51:32Z</time>
      </trkpt>
      <trkpt lat="44.52416" lon="3.84577">
        <ele>1272</ele>
        <time>2017-03-01T14:53:32Z</time>
      </trkpt>
      <trkpt lat="44.52407" lon="3.84564">
        <ele>1273</ele>
        <time>2017-03-01T14:55:32Z</time>
      </trkpt>
      <trkpt lat="44.52396" lon="3.84549">
        <ele>1274</ele>
        <time>2017-03-01T14:57:32Z</time>
      </trkpt>
      <trkpt lat="44.52374" lon="3.84523">
        <ele>1275</ele>
        <time>2017-03-01T14:59:32Z</time>
      </trkpt>
      <trkpt lat="44.52358" lon="3.84504">
        <ele>1276</ele>
        <time>2017-03-01T15:01:32Z</time>
      </trkpt>
      <trkpt lat="44.52346" lon="3.84486">
        <ele>1277</ele>
        <time>2017-03-01T15:03:32Z</time>
      </trkpt>
      <trkpt lat="44.52338" lon="3.84471">
        <ele>1278</ele>
        <time>2017-03-01T15:05:32Z</time>
      </trkpt>
      <trkpt lat="44.52329" lon="3.84451">
        <ele>1278</ele>
        <time>2017-03-01T15:07:32Z</time>
      </trkpt>
      <trkpt lat="44.52323" lon="3.84434">
        <ele>1279</ele>
        <time>2017-03-01T15:09:32Z</time>
      </trkpt>
      <trkpt lat="44.5232" lon="3.8442">
        <ele>1281</ele>
        <time>2017-03-01T15:11:32Z</time>
      </trkpt>
      <trkpt lat="44.52314" lon="3.84383">
        <ele>1281</ele>
        <time>2017-03-01T15:13:32Z</time>
      </trkpt>
      <trkpt lat="44.52314" lon="3.84367">
        <ele>1282</ele>
        <time>2017-03-01T15:15:32Z</time>
      </trkpt>
      <trkpt lat="44.52319" lon="3.84341">
        <ele>1284</ele>
        <time>2017-03-01T15:17:32Z</time>
      </trkpt>
      <trkpt lat="44.52322" lon="3.84332">
        <ele>1284</ele>
        <time>2017-03-01T15:19:32Z</time>
      </trkpt>
      <trkpt lat="44.52326" lon="3.84319">
        <ele>1285</ele>
        <time>2017-03-01T15:21:32Z</time>
      </trkpt>
      <trkpt lat="44.52327" lon="3.84318">
        <ele>1285</ele>
        <time>2017-03-01T15:23:32Z</time>
      </trkpt>
      <trkpt lat="44.52327" lon="3.84318">
        <ele>1285</ele>
        <time>2017-03-01T15:25:32Z</time>
      </trkpt>
      <trkpt lat="44.52339" lon="3.84292">
        <ele>1287</ele>
        <time>2017-03-01T15:27:32Z</time>
      </trkpt>
      <trkpt lat="44.52362" lon="3.84243">
        <ele>1291</ele>
        <time>2017-03-01T15:29:32Z</time>
      </trkpt>
      <trkpt lat="44.52369" lon="3.84223">
        <ele>1293</ele>
        <time>2017-03-01T15:31:32Z</time>
      </trkpt>
      <trkpt lat="44.5238" lon="3.84179">
        <ele>1296</ele>
        <time>2017-03-01T15:33:32Z</time>
      </trkpt>
      <trkpt lat="44.52384" lon="3.84159">
        <ele>1297</ele>
        <time>2017-03-01T15:35:32Z</time>
      </trkpt>
      <trkpt lat="44.52384" lon="3.84144">
        <ele>1298</ele>
        <time>2017-03-01T15:37:32Z</time>
      </trkpt>
      <trkpt lat="44.52382" lon="3.84125">
        <ele>1298</ele>
        <time>2017-03-01T15:39:32Z</time>
      </trkpt>
      <trkpt lat="44.52377" lon="3.84085">
        <ele>1298</ele>
        <time>2017-03-01T15:41:32Z</time>
      </trkpt>
      <trkpt lat="44.52374" lon="3.84044">
        <ele>1300</ele>
        <time>2017-03-01T15:43:32Z</time>
      </trkpt>
      <trkpt lat="44.52374" lon="3.84016">
        <ele>1301</ele>
        <time>2017-03-01T15:45:32Z</time>
      </trkpt>
      <trkpt lat="44.52378" lon="3.83982">
        <ele>1303</ele>
        <time>2017-03-01T15:47:32Z</time>
      </trkpt>
      <trkpt lat="44.52384" lon="3.83958">
        <ele>1304</ele>
        <time>2017-03-01T15:49:32Z</time>
      </trkpt>
      <trkpt lat="44.52392" lon="3.83939">
        <ele>1305</ele>
        <time>2017-03-01T15:51:32Z</time>
      </trkpt>
      <trkpt lat="44.52401" lon="3.83922">
        <ele>1307</ele>
        <time>2017-03-01T15:53:32Z</time>
      </trkpt>
      <trkpt lat="44.52418" lon="3.83894">
        <ele>1309</ele>
        <time>2017-03-01T15:55:32Z</time>
      </trkpt>
      <trkpt lat="44.52436" lon="3.83861">
        <ele>1311</ele>
        <time>2017-03-01T15:57:32Z</time>
      </trkpt>
      <trkpt lat="44.52446" lon="3.8384">
        <ele>1312</ele>
        <time>2017-03-01T15:59:32Z</time>
      </trkpt>
      <trkpt lat="44.52452" lon="3.8382">
        <ele>1313</ele>
        <time>2017-03-01T16:01:32Z</time>
      </trkpt>
      <trkpt lat="44.52457" lon="3.8379">
        <ele>1314</ele>
        <time>2017-03-01T16:03:32Z</time>
      </trkpt>
      <trkpt lat="44.52466" lon="3.83741">
        <ele>1316</ele>
        <time>2017-03-01T16:05:32Z</time>
      </trkpt>
      <trkpt lat="44.52474" lon="3.83702">
        <ele>1319</ele>
        <time>2017-03-01T16:07:32Z</time>
      </trkpt>
      <trkpt lat="44.52485" lon="3.83651">
        <ele>1323</ele>
        <time>2017-03-01T16:09:32Z</time>
      </trkpt>
      <trkpt lat="44.52496" lon="3.83605">
        <ele>1326</ele>
        <time>2017-03-01T16:11:32Z</time>
      </trkpt>
      <trkpt lat="44.52498" lon="3.83588">
        <ele>1327</ele>
        <time>2017-03-01T16:13:32Z</time>
      </trkpt>
      <trkpt lat="44.52499" lon="3.83572">
        <ele>1327</ele>
        <time>2017-03-01T16:15:32Z</time>
      </trkpt>
      <trkpt lat="44.52498" lon="3.83556">
        <ele>1328</ele>
        <time>2017-03-01T16:17:32Z</time>
      </trkpt>
      <trkpt lat="44.52494" lon="3.83523">
        <ele>1329</ele>
        <time>2017-03-01T16:19:32Z</time>
      </trkpt>
      <trkpt lat="44.5249" lon="3.83497">
        <ele>1329</ele>
        <time>2017-03-01T16:21:32Z</time>
      </trkpt>
      <trkpt lat="44.52487" lon="3.83456">
        <ele>1331</ele>
        <time>2017-03-01T16:23:32Z</time>
      </trkpt>
      <trkpt lat="44.52481" lon="3.83398">
        <ele>1332</ele>
        <time>2017-03-01T16:25:32Z</time>
      </trkpt>
      <trkpt lat="44.52475" lon="3.83342">
        <ele>1335</ele>
        <time>2017-03-01T16:27:32Z</time>
      </trkpt>
      <trkpt lat="44.52472" lon="3.833">
        <ele>1337</ele>
        <time>2017-03-01T16:29:32Z</time>
      </trkpt>
      <trkpt lat="44.52474" lon="3.83293">
        <ele>1338</ele>
        <time>2017-03-01T16:31:32Z</time>
      </trkpt>
      <trkpt lat="44.52476" lon="3.83291">
        <ele>1339</ele>
        <time>2017-03-01T16:33:32Z</time>
      </trkpt>
      <trkpt lat="44.5248" lon="3.8329">
        <ele>1340</ele>
        <time>2017-03-01T16:35:32Z</time>
      </trkpt>
      <trkpt lat="44.52482" lon="3.83291">
        <ele>1340</ele>
        <time>2017-03-01T16:37:32Z</time>
      </trkpt>
      <trkpt lat="44.52482" lon="3.83291">
        <ele>1340</ele>
        <time>2017-03-01T16:39:32Z</time>
      </trkpt>
      <trkpt lat="44.52485" lon="3.83295">
        <ele>1341</ele>
        <time>2017-03-01T16:41:32Z</time>
      </trkpt>
      <trkpt lat="44.52491" lon="3.83323">
        <ele>1340</ele>
        <time>2017-03-01T16:43:32Z</time>
      </trkpt>
      <trkpt lat="44.52498" lon="3.83344">
        <ele>1341</ele>
        <time>2017-03-01T16:45:32Z</time>
      </trkpt>
      <trkpt lat="44.52514" lon="3.83376">
        <ele>1341</ele>
        <time>2017-03-01T16:47:32Z</time>
      </trkpt>
      <trkpt lat="44.52535" lon="3.83418">
        <ele>1341</ele>
        <time>2017-03-01T16:49:32Z</time>
      </trkpt>
      <trkpt lat="44.52546" lon="3.83439">
        <ele>1341</ele>
        <time>2017-03-01T16:51:32Z</time>
      </trkpt>
      <trkpt lat="44.52556" lon="3.83468">
        <ele>1341</ele>
        <time>2017-03-01T16:53:32Z</time>
      </trkpt>
      <trkpt lat="44.52564" lon="3.83491">
        <ele>1341</ele>
        <time>2017-03-01T16:55:32Z</time>
      </trkpt>
      <trkpt lat="44.5257" lon="3.83508">
        <ele>1341</ele>
        <time>2017-03-01T16:57:32Z</time>
      </trkpt>
      <trkpt lat="44.52575" lon="3.83526">
        <ele>1342</ele>
        <time>2017-03-01T16:59:32Z</time>
      </trkpt>
      <trkpt lat="44.52579" lon="3.83533">
        <ele>1342</ele>
        <time>2017-03-01T17:01:32Z</time>
      </trkpt>
      <trkpt lat="44.52583" lon="3.83535">
        <ele>1343</ele>
        <time>2017-03-01T17:03:32Z</time>
      </trkpt>
      <trkpt lat="44.52583" lon="3.83535">
        <ele>1343</ele>
        <time>2017-03-01T17:05:32Z</time>
      </trkpt>
      <trkpt lat="44.52588" lon="3.83534">
        <ele>1342</ele>
        <time>2017-03-01T17:07:32Z</time>
      </trkpt>
      <trkpt lat="44.52592" lon="3.83531">
        <ele>1342</ele>
        <time>2017-03-01T17:09:32Z</time>
      </trkpt>
      <trkpt lat="44.52595" lon="3.83522">
        <ele>1341</ele>
        <time>2017-03-01T17:11:32Z</time>
      </trkpt>
      <trkpt lat="44.52604" lon="3.83485">
        <ele>1341</ele>
        <time>2017-03-01T17:13:32Z</time>
      </trkpt>
      <trkpt lat="44.5261" lon="3.83461">
        <ele>1343</ele>
        <time>2017-03-01T17:15:32Z</time>
      </trkpt>
      <trkpt lat="44.52622" lon="3.83437">
        <ele>1343</ele>
        <time>2017-03-01T17:17:32Z</time>
      </trkpt>
      <trkpt lat="44.5264" lon="3.83399">
        <ele>1345</ele>
        <time>2017-03-01T17:19:32Z</time>
      </trkpt>
      <trkpt lat="44.52657" lon="3.83363">
        <ele>1347</ele>
        <time>2017-03-01T17:21:32Z</time>
      </trkpt>
      <trkpt lat="44.52662" lon="3.83348">
        <ele>1349</ele>
        <time>2017-03-01T17:23:32Z</time>
      </trkpt>
      <trkpt lat="44.52669" lon="3.83314">
        <ele>1350</ele>
        <time>2017-03-01T17:25:32Z</time>
      </trkpt>
      <trkpt lat="44.52676" lon="3.83282">
        <ele>1350</ele>
        <time>2017-03-01T17:27:32Z</time>
      </trkpt>
      <trkpt lat="44.52682" lon="3.83241">
        <ele>1351</ele>
        <time>2017-03-01T17:29:32Z</time>
      </trkpt>
      <trkpt lat="44.5269" lon="3.83192">
        <ele>1352</ele>
        <time>2017-03-01T17:31:32Z</time>
      </trkpt>
      <trkpt lat="44.52701" lon="3.83141">
        <ele>1353</ele>
        <time>2017-03-01T17:33:32Z</time>
      </trkpt>
      <trkpt lat="44.5271" lon="3.83095">
        <ele>1355</ele>
        <time>2017-03-01T17:35:32Z</time>
      </trkpt>
      <trkpt lat="44.52718" lon="3.83045">
        <ele>1358</ele>
        <time>2017-03-01T17:37:32Z</time>
      </trkpt>
      <trkpt lat="44.52727" lon="3.82995">
        <ele>1360</ele>
        <time>2017-03-01T17:39:32Z</time>
      </trkpt>
      <trkpt lat="44.52732" lon="3.82969">
        <ele>1361</ele>
        <time>2017-03-01T17:41:32Z</time>
      </trkpt>
      <trkpt lat="44.52734" lon="3.82941">
        <ele>1362</ele>
        <time>2017-03-01T17:43:32Z</time>
      </trkpt>
      <trkpt lat="44.52736" lon="3.82892">
        <ele>1364</ele>
        <time>2017-03-01T17:45:32Z</time>
      </trkpt>
      <trkpt lat="44.52734" lon="3.82866">
        <ele>1364</ele>
        <time>2017-03-01T17:47:32Z</time>
      </trkpt>
      <trkpt lat="44.52732" lon="3.82843">
        <ele>1365</ele>
        <time>2017-03-01T17:49:32Z</time>
      </trkpt>
      <trkpt lat="44.52733" lon="3.82829">
        <ele>1365</ele>
        <time>2017-03-01T17:51:32Z</time>
      </trkpt>
      <trkpt lat="44.52737" lon="3.82819">
        <ele>1364</ele>
        <time>2017-03-01T17:53:32Z</time>
      </trkpt>
      <trkpt lat="44.52738" lon="3.82818">
        <ele>1364</ele>
        <time>2017-03-01T17:55:32Z</time>
      </trkpt>
      <trkpt lat="44.52753" lon="3.82794">
        <ele>1363</ele>
        <time>2017-03-01T17:57:32Z</time>
      </trkpt>
      <trkpt lat="44.52768" lon="3.82768">
        <ele>1362</ele>
        <time>2017-03-01T17:59:32Z</time>
      </trkpt>
      <trkpt lat="44.52787" lon="3.82736">
        <ele>1362</ele>
        <time>2017-03-01T18:01:32Z</time>
      </trkpt>
      <trkpt lat="44.52816" lon="3.82688">
        <ele>1364</ele>
        <time>2017-03-01T18:03:32Z</time>
      </trkpt>
      <trkpt lat="44.52823" lon="3.82675">
        <ele>1365</ele>
        <time>2017-03-01T18:05:32Z</time>
      </trkpt>
      <trkpt lat="44.52833" lon="3.82653">
        <ele>1366</ele>
        <time>2017-03-01T18:07:32Z</time>
      </trkpt>
      <trkpt lat="44.52851" lon="3.8262">
        <ele>1366</ele>
        <time>2017-03-01T18:09:32Z</time>
      </trkpt>
      <trkpt lat="44.52872" lon="3.82575">
        <ele>1368</ele>
        <time>2017-03-01T18:11:32Z</time>
      </trkpt>
      <trkpt lat="44.52891" lon="3.82542">
        <ele>1369</ele>
        <time>2017-03-01T18:13:32Z</time>
      </trkpt>
      <trkpt lat="44.52896" lon="3.82524">
        <ele>1370</ele>
        <time>2017-03-01T18:15:32Z</time>
      </trkpt>
      <trkpt lat="44.52899" lon="3.82497">
        <ele>1372</ele>
        <time>2017-03-01T18:17:32Z</time>
      </trkpt>
      <trkpt lat="44.52903" lon="3.82449">
        <ele>1374</ele>
        <time>2017-03-01T18:19:32Z</time>
      </trkpt>
      <trkpt lat="44.52902" lon="3.8244">
        <ele>1374</ele>
        <time>2017-03-01T18:21:32Z</time>
      </trkpt>
      <trkpt lat="44.529" lon="3.82432">
        <ele>1375</ele>
        <time>2017-03-01T18:23:32Z</time>
      </trkpt>
      <trkpt lat="44.52901" lon="3.82422">
        <ele>1375</ele>
        <time>2017-03-01T18:25:32Z</time>
      </trkpt>
      <trkpt lat="44.52902" lon="3.82412">
        <ele>1376</ele>
        <time>2017-03-01T18:27:32Z</time>
      </trkpt>
      <trkpt lat="44.5291" lon="3.82384">
        <ele>1379</ele>
        <time>2017-03-01T18:29:32Z</time>
      </trkpt>
      <trkpt lat="44.52928" lon="3.82328">
        <ele>1384</ele>
        <time>2017-03-01T18:31:32Z</time>
      </trkpt>
      <trkpt lat="44.52946" lon="3.8227">
        <ele>1388</ele>
        <time>2017-03-01T18:33:32Z</time>
      </trkpt>
      <trkpt lat="44.52962" lon="3.8222">
        <ele>1390</ele>
        <time>2017-03-01T18:35:32Z</time>
      </trkpt>
      <trkpt lat="44.52973" lon="3.82175">
        <ele>1393</ele>
        <time>2017-03-01T18:37:32Z</time>
      </trkpt>
      <trkpt lat="44.52981" lon="3.82133">
        <ele>1394</ele>
        <time>2017-03-01T18:39:32Z</time>
      </trkpt>
      <trkpt lat="44.52988" lon="3.82104">
        <ele>1396</ele>
        <time>2017-03-01T18:41:32Z</time>
      </trkpt>
      <trkpt lat="44.52999" lon="3.82075">
        <ele>1398</ele>
        <time>2017-03-01T18:43:32Z</time>
      </trkpt>
      <trkpt lat="44.53006" lon="3.82044">
        <ele>1399</ele>
        <time>2017-03-01T18:45:32Z</time>
      </trkpt>
      <trkpt lat="44.53015" lon="3.82006">
        <ele>1400</ele>
        <time>2017-03-01T18:47:32Z</time>
      </trkpt>
      <trkpt lat="44.53024" lon="3.81973">
        <ele>1402</ele>
        <time>2017-03-01T18:49:32Z</time>
      </trkpt>
      <trkpt lat="44.53031" lon="3.81944">
        <ele>1403</ele>
        <time>2017-03-01T18:51:32Z</time>
      </trkpt>
      <trkpt lat="44.53033" lon="3.81919">
        <ele>1405</ele>
        <time>2017-03-01T18:53:32Z</time>
      </trkpt>
      <trkpt lat="44.53038" lon="3.8187">
        <ele>1409</ele>
        <time>2017-03-01T18:55:32Z</time>
      </trkpt>
      <trkpt lat="44.53044" lon="3.81823">
        <ele>1413</ele>
        <time>2017-03-01T18:57:32Z</time>
      </trkpt>
      <trkpt lat="44.53053" lon="3.81776">
        <ele>1416</ele>
        <time>2017-03-01T18:59:32Z</time>
      </trkpt>
      <trkpt lat="44.53053" lon="3.8177">
        <ele>1416</ele>
        <time>2017-03-01T19:01:32Z</time>
      </trkpt>
      <trkpt lat="44.53053" lon="3.81762">
        <ele>1417</ele>
        <time>2017-03-01T19:03:32Z</time>
      </trkpt>
      <trkpt lat="44.53053" lon="3.81756">
        <ele>1417</ele>
        <time>2017-03-01T19:05:32Z</time>
      </trkpt>
      <trkpt lat="44.53051" lon="3.81749">
        <ele>1418</ele>
        <time>2017-03-01T19:07:32Z</time>
      </trkpt>
      <trkpt lat="44.53048" lon="3.81743">
        <ele>1418</ele>
        <time>2017-03-01T19:09:32Z</time>
      </trkpt>
      <trkpt lat="44.53045" lon="3.81738">
        <ele>1419</ele>
        <time>2017-03-01T19:11:32Z</time>
      </trkpt>
      <trkpt lat="44.53005" lon="3.81697">
        <ele>1425</ele>
        <time>2017-03-01T19:13:32Z</time>
      </trkpt>
      <trkpt lat="44.52993" lon="3.81684">
        <ele>1427</ele>
        <time>2017-03-01T19:15:32Z</time>
      </trkpt>
      <trkpt lat="44.52988" lon="3.81679">
        <ele>1427</ele>
        <time>2017-03-01T19:17:32Z</time>
      </trkpt>
      <trkpt lat="44.52986" lon="3.81676">
        <ele>1428</ele>
        <time>2017-03-01T19:19:32Z</time>
      </trkpt>
      <trkpt lat="44.52985" lon="3.81674">
        <ele>1428</ele>
        <time>2017-03-01T19:21:32Z</time>
      </trkpt>
      <trkpt lat="44.52985" lon="3.81672">
        <ele>1428</ele>
        <time>2017-03-01T19:23:32Z</time>
      </trkpt>
      <trkpt lat="44.52984" lon="3.81669">
        <ele>1429</ele>
        <time>2017-03-01T19:25:32Z</time>
      </trkpt>
      <trkpt lat="44.52984" lon="3.81666">
        <ele>1429</ele>
        <time>2017-03-01T19:27:32Z</time>
      </trkpt>
      <trkpt lat="44.52984" lon="3.81664">
        <ele>1429</ele>
        <time>2017-03-01T19:29:32Z</time>
      </trkpt>
      <trkpt lat="44.52985" lon="3.81662">
        <ele>1429</ele>
        <time>2017-03-01T19:31:32Z</time>
      </trkpt>
      <trkpt lat="44.52986" lon="3.81659">
        <ele>1430</ele>
        <time>2017-03-01T19:33:32Z</time>
      </trkpt>
      <trkpt lat="44.52988" lon="3.81657">
        <ele>1430</ele>
        <time>2017-03-01T19:35:32Z</time>
      </trkpt>
      <trkpt lat="44.52992" lon="3.81653">
        <ele>1430</ele>
        <time>2017-03-01T19:37:32Z</time>
      </trkpt>
      <trkpt lat="44.53" lon="3.81646">
        <ele>1431</ele>
        <time>2017-03-01T19:39:32Z</time>
      </trkpt>
      <trkpt lat="44.53005" lon="3.8164">
        <ele>1431</ele>
        <time>2017-03-01T19:41:32Z</time>
      </trkpt>
      <trkpt lat="44.53007" lon="3.81636">
        <ele>1431</ele>
        <time>2017-03-01T19:43:32Z</time>
      </trkpt>
      <trkpt lat="44.53011" lon="3.8163">
        <ele>1431</ele>
        <time>2017-03-01T19:45:32Z</time>
      </trkpt>
      <trkpt lat="44.53014" lon="3.81618">
        <ele>1432</ele>
        <time>2017-03-01T19:47:32Z</time>
      </trkpt>
      <trkpt lat="44.53015" lon="3.81604">
        <ele>1433</ele>
        <time>2017-03-01T19:49:32Z</time>
      </trkpt>
      <trkpt lat="44.53011" lon="3.81575">
        <ele>1436</ele>
        <time>2017-03-01T19:51:32Z</time>
      </trkpt>
      <trkpt lat="44.53004" lon="3.81537">
        <ele>1439</ele>
        <time>2017-03-01T19:53:32Z</time>
      </trkpt>
      <trkpt lat="44.53002" lon="3.81513">
        <ele>1440</ele>
        <time>2017-03-01T19:55:32Z</time>
      </trkpt>
      <trkpt lat="44.53002" lon="3.81497">
        <ele>1441</ele>
        <time>2017-03-01T19:57:32Z</time>
      </trkpt>
      <trkpt lat="44.53009" lon="3.8147">
        <ele>1439</ele>
        <time>2017-03-01T19:59:32Z</time>
      </trkpt>
      <trkpt lat="44.5302" lon="3.81429">
        <ele>1436</ele>
        <time>2017-03-01T20:01:32Z</time>
      </trkpt>
      <trkpt lat="44.53029" lon="3.81395">
        <ele>1433</ele>
        <time>2017-03-01T20:03:32Z</time>
      </trkpt>
      <trkpt lat="44.5304" lon="3.81358">
        <ele>1431</ele>
        <time>2017-03-01T20:05:32Z</time>
      </trkpt>
      <trkpt lat="44.53048" lon="3.81321">
        <ele>1430</ele>
        <time>2017-03-01T20:07:32Z</time>
      </trkpt>
      <trkpt lat="44.53052" lon="3.81276">
        <ele>1430</ele>
        <time>2017-03-01T20:09:32Z</time>
      </trkpt>
      <trkpt lat="44.53056" lon="3.81214">
        <ele>1429</ele>
        <time>2017-03-01T20:11:32Z</time>
      </trkpt>
      <trkpt lat="44.53057" lon="3.81175">
        <ele>1428</ele>
        <time>2017-03-01T20:13:32Z</time>
      </trkpt>
      <trkpt lat="44.53056" lon="3.81144">
        <ele>1428</ele>
        <time>2017-03-01T20:15:32Z</time>
      </trkpt>
      <trkpt lat="44.53047" lon="3.81078">
        <ele>1427</ele>
        <time>2017-03-01T20:17:32Z</time>
      </trkpt>
      <trkpt lat="44.53041" lon="3.81045">
        <ele>1428</ele>
        <time>2017-03-01T20:19:32Z</time>
      </trkpt>
      <trkpt lat="44.53033" lon="3.81019">
        <ele>1429</ele>
        <time>2017-03-01T20:21:32Z</time>
      </trkpt>
      <trkpt lat="44.53031" lon="3.81012">
        <ele>1429</ele>
        <time>2017-03-01T20:23:32Z</time>
      </trkpt>
      <trkpt lat="44.5303" lon="3.81008">
        <ele>1429</ele>
        <time>2017-03-01T20:25:32Z</time>
      </trkpt>
      <trkpt lat="44.53029" lon="3.80997">
        <ele>1429</ele>
        <time>2017-03-01T20:27:32Z</time>
      </trkpt>
      <trkpt lat="44.53028" lon="3.80989">
        <ele>1429</ele>
        <time>2017-03-01T20:29:32Z</time>
      </trkpt>
      <trkpt lat="44.53024" lon="3.80979">
        <ele>1429</ele>
        <time>2017-03-01T20:31:32Z</time>
      </trkpt>
      <trkpt lat="44.53015" lon="3.80958">
        <ele>1430</ele>
        <time>2017-03-01T20:33:32Z</time>
      </trkpt>
      <trkpt lat="44.5301" lon="3.80941">
        <ele>1430</ele>
        <time>2017-03-01T20:35:32Z</time>
      </trkpt>
      <trkpt lat="44.53006" lon="3.80927">
        <ele>1430</ele>
        <time>2017-03-01T20:37:32Z</time>
      </trkpt>
      <trkpt lat="44.53004" lon="3.80919">
        <ele>1431</ele>
        <time>2017-03-01T20:39:32Z</time>
      </trkpt>
      <trkpt lat="44.53003" lon="3.80916">
        <ele>1431</ele>
        <time>2017-03-01T20:41:32Z</time>
      </trkpt>
      <trkpt lat="44.53" lon="3.80913">
        <ele>1431</ele>
        <time>2017-03-01T20:43:32Z</time>
      </trkpt>
      <trkpt lat="44.52994" lon="3.80908">
        <ele>1431</ele>
        <time>2017-03-01T20:45:32Z</time>
      </trkpt>
      <trkpt lat="44.52991" lon="3.80907">
        <ele>1431</ele>
        <time>2017-03-01T20:47:32Z</time>
      </trkpt>
      <trkpt lat="44.52979" lon="3.80906">
        <ele>1430</ele>
        <time>2017-03-01T20:49:32Z</time>
      </trkpt>
      <trkpt lat="44.52979" lon="3.80906">
        <ele>1430</ele>
        <time>2017-03-01T20:51:32Z</time>
      </trkpt>
      <trkpt lat="44.52976" lon="3.80898">
        <ele>1430</ele>
        <time>2017-03-01T20:53:32Z</time>
      </trkpt>
      <trkpt lat="44.52964" lon="3.80864">
        <ele>1430</ele>
        <time>2017-03-01T20:55:32Z</time>
      </trkpt>
      <trkpt lat="44.52952" lon="3.80816">
        <ele>1430</ele>
        <time>2017-03-01T20:57:32Z</time>
      </trkpt>
      <trkpt lat="44.52944" lon="3.8078">
        <ele>1431</ele>
        <time>2017-03-01T20:59:32Z</time>
      </trkpt>
      <trkpt lat="44.52938" lon="3.8074">
        <ele>1432</ele>
        <time>2017-03-01T21:01:32Z</time>
      </trkpt>
      <trkpt lat="44.52931" lon="3.80684">
        <ele>1433</ele>
        <time>2017-03-01T21:03:32Z</time>
      </trkpt>
      <trkpt lat="44.52925" lon="3.80632">
        <ele>1437</ele>
        <time>2017-03-01T21:05:32Z</time>
      </trkpt>
      <trkpt lat="44.52914" lon="3.80577">
        <ele>1441</ele>
        <time>2017-03-01T21:07:32Z</time>
      </trkpt>
      <trkpt lat="44.52911" lon="3.80544">
        <ele>1442</ele>
        <time>2017-03-01T21:09:32Z</time>
      </trkpt>
      <trkpt lat="44.5291" lon="3.80501">
        <ele>1443</ele>
        <time>2017-03-01T21:11:32Z</time>
      </trkpt>
      <trkpt lat="44.52912" lon="3.80467">
        <ele>1445</ele>
        <time>2017-03-01T21:13:32Z</time>
      </trkpt>
      <trkpt lat="44.52916" lon="3.80432">
        <ele>1447</ele>
        <time>2017-03-01T21:15:32Z</time>
      </trkpt>
      <trkpt lat="44.52922" lon="3.80407">
        <ele>1448</ele>
        <time>2017-03-01T21:17:32Z</time>
      </trkpt>
      <trkpt lat="44.5293" lon="3.80382">
        <ele>1447</ele>
        <time>2017-03-01T21:19:32Z</time>
      </trkpt>
      <trkpt lat="44.52932" lon="3.80365">
        <ele>1447</ele>
        <time>2017-03-01T21:21:32Z</time>
      </trkpt>
      <trkpt lat="44.52934" lon="3.80327">
        <ele>1447</ele>
        <time>2017-03-01T21:23:32Z</time>
      </trkpt>
      <trkpt lat="44.52937" lon="3.80299">
        <ele>1446</ele>
        <time>2017-03-01T21:25:32Z</time>
      </trkpt>
      <trkpt lat="44.52946" lon="3.80244">
        <ele>1446</ele>
        <time>2017-03-01T21:27:32Z</time>
      </trkpt>
      <trkpt lat="44.52952" lon="3.80181">
        <ele>1445</ele>
        <time>2017-03-01T21:29:32Z</time>
      </trkpt>
      <trkpt lat="44.52957" lon="3.80128">
        <ele>1445</ele>
        <time>2017-03-01T21:31:32Z</time>
      </trkpt>
      <trkpt lat="44.52959" lon="3.80056">
        <ele>1445</ele>
        <time>2017-03-01T21:33:32Z</time>
      </trkpt>
      <trkpt lat="44.52961" lon="3.79985">
        <ele>1444</ele>
        <time>2017-03-01T21:35:32Z</time>
      </trkpt>
      <trkpt lat="44.52961" lon="3.79929">
        <ele>1444</ele>
        <time>2017-03-01T21:37:32Z</time>
      </trkpt>
      <trkpt lat="44.52961" lon="3.79899">
        <ele>1444</ele>
        <time>2017-03-01T21:39:32Z</time>
      </trkpt>
      <trkpt lat="44.52961" lon="3.79889">
        <ele>1444</ele>
        <time>2017-03-01T21:41:32Z</time>
      </trkpt>
      <trkpt lat="44.52958" lon="3.79866">
        <ele>1444</ele>
        <time>2017-03-01T21:43:32Z</time>
      </trkpt>
      <trkpt lat="44.52948" lon="3.7982">
        <ele>1444</ele>
        <time>2017-03-01T21:45:32Z</time>
      </trkpt>
      <trkpt lat="44.52939" lon="3.79783">
        <ele>1444</ele>
        <time>2017-03-01T21:47:32Z</time>
      </trkpt>
      <trkpt lat="44.52936" lon="3.79754">
        <ele>1444</ele>
        <time>2017-03-01T21:49:32Z</time>
      </trkpt>
      <trkpt lat="44.52933" lon="3.79709">
        <ele>1444</ele>
        <time>2017-03-01T21:51:32Z</time>
      </trkpt>
      <trkpt lat="44.52931" lon="3.79671">
        <ele>1445</ele>
        <time>2017-03-01T21:53:32Z</time>
      </trkpt>
      <trkpt lat="44.52929" lon="3.79628">
        <ele>1444</ele>
        <time>2017-03-01T21:55:32Z</time>
      </trkpt>
      <trkpt lat="44.52927" lon="3.79599">
        <ele>1444</ele>
        <time>2017-03-01T21:57:32Z</time>
      </trkpt>
      <trkpt lat="44.5292" lon="3.79568">
        <ele>1445</ele>
        <time>2017-03-01T21:59:32Z</time>
      </trkpt>
      <trkpt lat="44.52914" lon="3.79532">
        <ele>1444</ele>
        <time>2017-03-01T22:01:32Z</time>
      </trkpt>
      <trkpt lat="44.52909" lon="3.79491">
        <ele>1444</ele>
        <time>2017-03-01T22:03:32Z</time>
      </trkpt>
      <trkpt lat="44.52903" lon="3.7946">
        <ele>1445</ele>
        <time>2017-03-01T22:05:32Z</time>
      </trkpt>
      <trkpt lat="44.52891" lon="3.79417">
        <ele>1447</ele>
        <time>2017-03-01T22:07:32Z</time>
      </trkpt>
      <trkpt lat="44.52887" lon="3.79395">
        <ele>1447</ele>
        <time>2017-03-01T22:09:32Z</time>
      </trkpt>
      <trkpt lat="44.52888" lon="3.79376">
        <ele>1447</ele>
        <time>2017-03-01T22:11:32Z</time>
      </trkpt>
      <trkpt lat="44.52892" lon="3.79348">
        <ele>1447</ele>
        <time>2017-03-01T22:13:32Z</time>
      </trkpt>
      <trkpt lat="44.529" lon="3.79306">
        <ele>1446</ele>
        <time>2017-03-01T22:15:32Z</time>
      </trkpt>
      <trkpt lat="44.52906" lon="3.7928">
        <ele>1445</ele>
        <time>2017-03-01T22:17:32Z</time>
      </trkpt>
      <trkpt lat="44.52923" lon="3.79234">
        <ele>1443</ele>
        <time>2017-03-01T22:19:32Z</time>
      </trkpt>
      <trkpt lat="44.5294" lon="3.79184">
        <ele>1440</ele>
        <time>2017-03-01T22:21:32Z</time>
      </trkpt>
      <trkpt lat="44.52955" lon="3.79137">
        <ele>1438</ele>
        <time>2017-03-01T22:23:32Z</time>
      </trkpt>
      <trkpt lat="44.52968" lon="3.79103">
        <ele>1438</ele>
        <time>2017-03-01T22:25:32Z</time>
      </trkpt>
      <trkpt lat="44.5298" lon="3.79064">
        <ele>1437</ele>
        <time>2017-03-01T22:27:32Z</time>
      </trkpt>
      <trkpt lat="44.52983" lon="3.79048">
        <ele>1436</ele>
        <time>2017-03-01T22:29:32Z</time>
      </trkpt>
      <trkpt lat="44.52987" lon="3.79013">
        <ele>1435</ele>
        <time>2017-03-01T22:31:32Z</time>
      </trkpt>
      <trkpt lat="44.52991" lon="3.78961">
        <ele>1432</ele>
        <time>2017-03-01T22:33:32Z</time>
      </trkpt>
      <trkpt lat="44.52996" lon="3.78905">
        <ele>1429</ele>
        <time>2017-03-01T22:35:32Z</time>
      </trkpt>
      <trkpt lat="44.52997" lon="3.78862">
        <ele>1428</ele>
        <time>2017-03-01T22:37:32Z</time>
      </trkpt>
      <trkpt lat="44.52996" lon="3.78823">
        <ele>1426</ele>
        <time>2017-03-01T22:39:32Z</time>
      </trkpt>
      <trkpt lat="44.52997" lon="3.78795">
        <ele>1424</ele>
        <time>2017-03-01T22:41:32Z</time>
      </trkpt>
      <trkpt lat="44.53" lon="3.78768">
        <ele>1423</ele>
        <time>2017-03-01T22:43:32Z</time>
      </trkpt>
      <trkpt lat="44.53003" lon="3.78741">
        <ele>1421</ele>
        <time>2017-03-01T22:45:32Z</time>
      </trkpt>
      <trkpt lat="44.53005" lon="3.78701">
        <ele>1418</ele>
        <time>2017-03-01T22:47:32Z</time>
      </trkpt>
      <trkpt lat="44.53007" lon="3.78658">
        <ele>1415</ele>
        <time>2017-03-01T22:49:32Z</time>
      </trkpt>
      <trkpt lat="44.53007" lon="3.78649">
        <ele>1414</ele>
        <time>2017-03-01T22:51:32Z</time>
      </trkpt>
      <trkpt lat="44.53011" lon="3.78615">
        <ele>1413</ele>
        <time>2017-03-01T22:53:32Z</time>
      </trkpt>
      <trkpt lat="44.53013" lon="3.78593">
        <ele>1412</ele>
        <time>2017-03-01T22:55:32Z</time>
      </trkpt>
      <trkpt lat="44.53014" lon="3.78567">
        <ele>1412</ele>
        <time>2017-03-01T22:57:32Z</time>
      </trkpt>
      <trkpt lat="44.53016" lon="3.78545">
        <ele>1412</ele>
        <time>2017-03-01T22:59:32Z</time>
      </trkpt>
      <trkpt lat="44.53016" lon="3.78534">
        <ele>1412</ele>
        <time>2017-03-01T23:01:32Z</time>
      </trkpt>
      <trkpt lat="44.53019" lon="3.78523">
        <ele>1412</ele>
        <time>2017-03-01T23:03:32Z</time>
      </trkpt>
      <trkpt lat="44.53019" lon="3.78523">
        <ele>1412</ele>
        <time>2017-03-01T23:05:32Z</time>
      </trkpt>
      <trkpt lat="44.53017" lon="3.78519">
        <ele>1412</ele>
        <time>2017-03-01T23:07:32Z</time>
      </trkpt>
      <trkpt lat="44.53015" lon="3.78516">
        <ele>1412</ele>
        <time>2017-03-01T23:09:32Z</time>
      </trkpt>
      <trkpt lat="44.53015" lon="3.78516">
        <ele>1412</ele>
        <time>2017-03-01T23:11:32Z</time>
      </trkpt>
      <trkpt lat="44.53003" lon="3.78525">
        <ele>1413</ele>
        <time>2017-03-01T23:13:32Z</time>
      </trkpt>
      <trkpt lat="44.52993" lon="3.78535">
        <ele>1413</ele>
        <time>2017-03-01T23:15:32Z</time>
      </trkpt>
      <trkpt lat="44.52984" lon="3.78555">
        <ele>1411</ele>
        <time>2017-03-01T23:17:32Z</time>
      </trkpt>
      <trkpt lat="44.5297" lon="3.78579">
        <ele>1410</ele>
        <time>2017-03-01T23:19:32Z</time>
      </trkpt>
      <trkpt lat="44.52952" lon="3.78608">
        <ele>1409</ele>
        <time>2017-03-01T23:21:32Z</time>
      </trkpt>
      <trkpt lat="44.52909" lon="3.78659">
        <ele>1406</ele>
        <time>2017-03-01T23:23:32Z</time>
      </trkpt>
      <trkpt lat="44.52898" lon="3.78672">
        <ele>1405</ele>
        <time>2017-03-01T23:25:32Z</time>
      </trkpt>
      <trkpt lat="44.52882" lon="3.78692">
        <ele>1403</ele>
        <time>2017-03-01T23:27:32Z</time>
      </trkpt>
      <trkpt lat="44.52869" lon="3.78713">
        <ele>1402</ele>
        <time>2017-03-01T23:29:32Z</time>
      </trkpt>
      <trkpt lat="44.52868" lon="3.78715">
        <ele>1402</ele>
        <time>2017-03-01T23:31:32Z</time>
      </trkpt>
      <trkpt lat="44.52859" lon="3.78733">
        <ele>1401</ele>
        <time>2017-03-01T23:33:32Z</time>
      </trkpt>
      <trkpt lat="44.52855" lon="3.78743">
        <ele>1401</ele>
        <time>2017-03-01T23:35:32Z</time>
      </trkpt>
      <trkpt lat="44.52847" lon="3.78766">
        <ele>1401</ele>
        <time>2017-03-01T23:37:32Z</time>
      </trkpt>
      <trkpt lat="44.52839" lon="3.78789">
        <ele>1401</ele>
        <time>2017-03-01T23:39:32Z</time>
      </trkpt>
      <trkpt lat="44.52833" lon="3.78807">
        <ele>1401</ele>
        <time>2017-03-01T23:41:32Z</time>
      </trkpt>
      <trkpt lat="44.52825" lon="3.78841">
        <ele>1400</ele>
        <time>2017-03-01T23:43:32Z</time>
      </trkpt>
      <trkpt lat="44.5281" lon="3.7888">
        <ele>1399</ele>
        <time>2017-03-01T23:45:32Z</time>
      </trkpt>
      <trkpt lat="44.52794" lon="3.78911">
        <ele>1397</ele>
        <time>2017-03-01T23:47:32Z</time>
      </trkpt>
      <trkpt lat="44.52779" lon="3.78938">
        <ele>1396</ele>
        <time>2017-03-01T23:49:32Z</time>
      </trkpt>
      <trkpt lat="44.52766" lon="3.78955">
        <ele>1395</ele>
        <time>2017-03-01T23:51:32Z</time>
      </trkpt>
      <trkpt lat="44.5275" lon="3.7897">
        <ele>1394</ele>
        <time>2017-03-01T23:53:32Z</time>
      </trkpt>
      <trkpt lat="44.52738" lon="3.78978">
        <ele>1394</ele>
        <time>2017-03-01T23:55:32Z</time>
      </trkpt>
      <trkpt lat="44.52738" lon="3.78978">
        <ele>1394</ele>
        <time>2017-03-01T23:57:32Z</time>
      </trkpt>
      <trkpt lat="44.5275" lon="3.78952">
        <ele>1392</ele>
        <time>2017-03-01T23:59:32Z</time>
      </trkpt>
      <trkpt lat="44.52766" lon="3.78916">
        <ele>1391</ele>
        <time>2017-03-02T00:01:32Z</time>
      </trkpt>
      <trkpt lat="44.52774" lon="3.78883">
        <ele>1390</ele>
        <time>2017-03-02T00:03:32Z</time>
      </trkpt>
      <trkpt lat="44.52781" lon="3.78849">
        <ele>1389</ele>
        <time>2017-03-02T00:05:32Z</time>
      </trkpt>
      <trkpt lat="44.52781" lon="3.78821">
        <ele>1387</ele>
        <time>2017-03-02T00:07:32Z</time>
      </trkpt>
      <trkpt lat="44.52779" lon="3.78795">
        <ele>1385</ele>
        <time>2017-03-02T00:09:32Z</time>
      </trkpt>
      <trkpt lat="44.52776" lon="3.78773">
        <ele>1382</ele>
        <time>2017-03-02T00:11:32Z</time>
      </trkpt>
      <trkpt lat="44.52778" lon="3.78748">
        <ele>1381</ele>
        <time>2017-03-02T00:13:32Z</time>
      </trkpt>
      <trkpt lat="44.52784" lon="3.78713">
        <ele>1381</ele>
        <time>2017-03-02T00:15:32Z</time>
      </trkpt>
      <trkpt lat="44.52793" lon="3.78665">
        <ele>1380</ele>
        <time>2017-03-02T00:17:32Z</time>
      </trkpt>
      <trkpt lat="44.52803" lon="3.78625">
        <ele>1380</ele>
        <time>2017-03-02T00:19:32Z</time>
      </trkpt>
      <trkpt lat="44.52815" lon="3.78588">
        <ele>1381</ele>
        <time>2017-03-02T00:21:32Z</time>
      </trkpt>
      <trkpt lat="44.52823" lon="3.78566">
        <ele>1385</ele>
        <time>2017-03-02T00:23:32Z</time>
      </trkpt>
      <trkpt lat="44.52824" lon="3.7856">
        <ele>1386</ele>
        <time>2017-03-02T00:25:32Z</time>
      </trkpt>
      <trkpt lat="44.52824" lon="3.78558">
        <ele>1386</ele>
        <time>2017-03-02T00:27:32Z</time>
      </trkpt>
      <trkpt lat="44.52824" lon="3.78556">
        <ele>1386</ele>
        <time>2017-03-02T00:29:32Z</time>
      </trkpt>
      <trkpt lat="44.52822" lon="3.7855">
        <ele>1387</ele>
        <time>2017-03-02T00:31:32Z</time>
      </trkpt>
      <trkpt lat="44.52814" lon="3.78542">
        <ele>1386</ele>
        <time>2017-03-02T00:33:32Z</time>
      </trkpt>
      <trkpt lat="44.52802" lon="3.78537">
        <ele>1385</ele>
        <time>2017-03-02T00:35:32Z</time>
      </trkpt>
      <trkpt lat="44.52784" lon="3.78536">
        <ele>1381</ele>
        <time>2017-03-02T00:37:32Z</time>
      </trkpt>
      <trkpt lat="44.52738" lon="3.78537">
        <ele>1373</ele>
        <time>2017-03-02T00:39:32Z</time>
      </trkpt>
      <trkpt lat="44.52696" lon="3.7854">
        <ele>1367</ele>
        <time>2017-03-02T00:41:32Z</time>
      </trkpt>
      <trkpt lat="44.52676" lon="3.7854">
        <ele>1364</ele>
        <time>2017-03-02T00:43:32Z</time>
      </trkpt>
      <trkpt lat="44.52654" lon="3.7853">
        <ele>1362</ele>
        <time>2017-03-02T00:45:32Z</time>
      </trkpt>
      <trkpt lat="44.52642" lon="3.78521">
        <ele>1361</ele>
        <time>2017-03-02T00:47:32Z</time>
      </trkpt>
      <trkpt lat="44.52636" lon="3.78516">
        <ele>1361</ele>
        <time>2017-03-02T00:49:32Z</time>
      </trkpt>
      <trkpt lat="44.52627" lon="3.78503">
        <ele>1361</ele>
        <time>2017-03-02T00:51:32Z</time>
      </trkpt>
      <trkpt lat="44.5262" lon="3.78484">
        <ele>1364</ele>
        <time>2017-03-02T00:53:32Z</time>
      </trkpt>
      <trkpt lat="44.52608" lon="3.78446">
        <ele>1369</ele>
        <time>2017-03-02T00:55:32Z</time>
      </trkpt>
      <trkpt lat="44.526" lon="3.78432">
        <ele>1370</ele>
        <time>2017-03-02T00:57:32Z</time>
      </trkpt>
      <trkpt lat="44.5259" lon="3.78424">
        <ele>1369</ele>
        <time>2017-03-02T00:59:32Z</time>
      </trkpt>
      <trkpt lat="44.52583" lon="3.78423">
        <ele>1368</ele>
        <time>2017-03-02T01:01:32Z</time>
      </trkpt>
      <trkpt lat="44.52577" lon="3.78424">
        <ele>1367</ele>
        <time>2017-03-02T01:03:32Z</time>
      </trkpt>
      <trkpt lat="44.5256" lon="3.78437">
        <ele>1364</ele>
        <time>2017-03-02T01:05:32Z</time>
      </trkpt>
      <trkpt lat="44.52545" lon="3.78445">
        <ele>1362</ele>
        <time>2017-03-02T01:07:32Z</time>
      </trkpt>
      <trkpt lat="44.52524" lon="3.78451">
        <ele>1359</ele>
        <time>2017-03-02T01:09:32Z</time>
      </trkpt>
      <trkpt lat="44.5252" lon="3.78453">
        <ele>1359</ele>
        <time>2017-03-02T01:11:32Z</time>
      </trkpt>
      <trkpt lat="44.52492" lon="3.78461">
        <ele>1356</ele>
        <time>2017-03-02T01:13:32Z</time>
      </trkpt>
      <trkpt lat="44.52476" lon="3.78465">
        <ele>1355</ele>
        <time>2017-03-02T01:15:32Z</time>
      </trkpt>
      <trkpt lat="44.52462" lon="3.78466">
        <ele>1354</ele>
        <time>2017-03-02T01:17:32Z</time>
      </trkpt>
      <trkpt lat="44.52448" lon="3.78466">
        <ele>1353</ele>
        <time>2017-03-02T01:19:32Z</time>
      </trkpt>
      <trkpt lat="44.52438" lon="3.78464">
        <ele>1353</ele>
        <time>2017-03-02T01:21:32Z</time>
      </trkpt>
      <trkpt lat="44.52426" lon="3.78458">
        <ele>1353</ele>
        <time>2017-03-02T01:23:32Z</time>
      </trkpt>
      <trkpt lat="44.52415" lon="3.78444">
        <ele>1353</ele>
        <time>2017-03-02T01:25:32Z</time>
      </trkpt>
      <trkpt lat="44.52411" lon="3.78435">
        <ele>1352</ele>
        <time>2017-03-02T01:27:32Z</time>
      </trkpt>
      <trkpt lat="44.52407" lon="3.78414">
        <ele>1352</ele>
        <time>2017-03-02T01:29:32Z</time>
      </trkpt>
      <trkpt lat="44.52406" lon="3.78408">
        <ele>1352</ele>
        <time>2017-03-02T01:31:32Z</time>
      </trkpt>
      <trkpt lat="44.52406" lon="3.78406">
        <ele>1351</ele>
        <time>2017-03-02T01:33:32Z</time>
      </trkpt>
      <trkpt lat="44.52405" lon="3.78396">
        <ele>1351</ele>
        <time>2017-03-02T01:35:32Z</time>
      </trkpt>
      <trkpt lat="44.52406" lon="3.78382">
        <ele>1350</ele>
        <time>2017-03-02T01:37:32Z</time>
      </trkpt>
      <trkpt lat="44.52407" lon="3.78367">
        <ele>1350</ele>
        <time>2017-03-02T01:39:32Z</time>
      </trkpt>
      <trkpt lat="44.5241" lon="3.78344">
        <ele>1350</ele>
        <time>2017-03-02T01:41:32Z</time>
      </trkpt>
      <trkpt lat="44.52416" lon="3.78311">
        <ele>1350</ele>
        <time>2017-03-02T01:43:32Z</time>
      </trkpt>
      <trkpt lat="44.52423" lon="3.78271">
        <ele>1349</ele>
        <time>2017-03-02T01:45:32Z</time>
      </trkpt>
      <trkpt lat="44.5243" lon="3.78202">
        <ele>1347</ele>
        <time>2017-03-02T01:47:32Z</time>
      </trkpt>
      <trkpt lat="44.52434" lon="3.78172">
        <ele>1346</ele>
        <time>2017-03-02T01:49:32Z</time>
      </trkpt>
      <trkpt lat="44.52442" lon="3.78128">
        <ele>1346</ele>
        <time>2017-03-02T01:51:32Z</time>
      </trkpt>
      <trkpt lat="44.52451" lon="3.78086">
        <ele>1345</ele>
        <time>2017-03-02T01:53:32Z</time>
      </trkpt>
      <trkpt lat="44.52452" lon="3.78076">
        <ele>1346</ele>
        <time>2017-03-02T01:55:32Z</time>
      </trkpt>
      <trkpt lat="44.52453" lon="3.7807">
        <ele>1346</ele>
        <time>2017-03-02T01:57:32Z</time>
      </trkpt>
      <trkpt lat="44.52454" lon="3.78065">
        <ele>1346</ele>
        <time>2017-03-02T01:59:32Z</time>
      </trkpt>
      <trkpt lat="44.52456" lon="3.78059">
        <ele>1347</ele>
        <time>2017-03-02T02:01:32Z</time>
      </trkpt>
      <trkpt lat="44.52462" lon="3.78045">
        <ele>1348</ele>
        <time>2017-03-02T02:03:32Z</time>
      </trkpt>
      <trkpt lat="44.52471" lon="3.78031">
        <ele>1349</ele>
        <time>2017-03-02T02:05:32Z</time>
      </trkpt>
      <trkpt lat="44.52473" lon="3.78028">
        <ele>1349</ele>
        <time>2017-03-02T02:07:32Z</time>
      </trkpt>
      <trkpt lat="44.52474" lon="3.78025">
        <ele>1349</ele>
        <time>2017-03-02T02:09:32Z</time>
      </trkpt>
      <trkpt lat="44.52476" lon="3.78021">
        <ele>1349</ele>
        <time>2017-03-02T02:11:32Z</time>
      </trkpt>
      <trkpt lat="44.52478" lon="3.78019">
        <ele>1349</ele>
        <time>2017-03-02T02:13:32Z</time>
      </trkpt>
      <trkpt lat="44.52478" lon="3.78015">
        <ele>1349</ele>
        <time>2017-03-02T02:15:32Z</time>
      </trkpt>
      <trkpt lat="44.52478" lon="3.78009">
        <ele>1349</ele>
        <time>2017-03-02T02:17:32Z</time>
      </trkpt>
      <trkpt lat="44.52477" lon="3.78002">
        <ele>1349</ele>
        <time>2017-03-02T02:19:32Z</time>
      </trkpt>
      <trkpt lat="44.52473" lon="3.77985">
        <ele>1352</ele>
        <time>2017-03-02T02:21:32Z</time>
      </trkpt>
      <trkpt lat="44.52473" lon="3.77985">
        <ele>1352</ele>
        <time>2017-03-02T02:23:32Z</time>
      </trkpt>
      <trkpt lat="44.52469" lon="3.77996">
        <ele>1349</ele>
        <time>2017-03-02T02:25:32Z</time>
      </trkpt>
      <trkpt lat="44.52465" lon="3.78">
        <ele>1348</ele>
        <time>2017-03-02T02:27:32Z</time>
      </trkpt>
      <trkpt lat="44.52458" lon="3.78003">
        <ele>1347</ele>
        <time>2017-03-02T02:29:32Z</time>
      </trkpt>
      <trkpt lat="44.5245" lon="3.78003">
        <ele>1347</ele>
        <time>2017-03-02T02:31:32Z</time>
      </trkpt>
      <trkpt lat="44.52438" lon="3.78006">
        <ele>1346</ele>
        <time>2017-03-02T02:33:32Z</time>
      </trkpt>
      <trkpt lat="44.52422" lon="3.78009">
        <ele>1345</ele>
        <time>2017-03-02T02:35:32Z</time>
      </trkpt>
      <trkpt lat="44.52414" lon="3.78013">
        <ele>1344</ele>
        <time>2017-03-02T02:37:32Z</time>
      </trkpt>
      <trkpt lat="44.52404" lon="3.78022">
        <ele>1345</ele>
        <time>2017-03-02T02:39:32Z</time>
      </trkpt>
      <trkpt lat="44.52396" lon="3.78035">
        <ele>1345</ele>
        <time>2017-03-02T02:41:32Z</time>
      </trkpt>
      <trkpt lat="44.52387" lon="3.78049">
        <ele>1345</ele>
        <time>2017-03-02T02:43:32Z</time>
      </trkpt>
      <trkpt lat="44.52379" lon="3.7806">
        <ele>1344</ele>
        <time>2017-03-02T02:45:32Z</time>
      </trkpt>
      <trkpt lat="44.52372" lon="3.78076">
        <ele>1343</ele>
        <time>2017-03-02T02:47:32Z</time>
      </trkpt>
      <trkpt lat="44.52364" lon="3.78091">
        <ele>1342</ele>
        <time>2017-03-02T02:49:32Z</time>
      </trkpt>
      <trkpt lat="44.52357" lon="3.78104">
        <ele>1341</ele>
        <time>2017-03-02T02:51:32Z</time>
      </trkpt>
      <trkpt lat="44.52349" lon="3.78116">
        <ele>1340</ele>
        <time>2017-03-02T02:53:32Z</time>
      </trkpt>
      <trkpt lat="44.52339" lon="3.78129">
        <ele>1338</ele>
        <time>2017-03-02T02:55:32Z</time>
      </trkpt>
      <trkpt lat="44.52328" lon="3.78145">
        <ele>1337</ele>
        <time>2017-03-02T02:57:32Z</time>
      </trkpt>
      <trkpt lat="44.5231" lon="3.78165">
        <ele>1336</ele>
        <time>2017-03-02T02:59:32Z</time>
      </trkpt>
      <trkpt lat="44.52295" lon="3.78185">
        <ele>1335</ele>
        <time>2017-03-02T03:01:32Z</time>
      </trkpt>
      <trkpt lat="44.52285" lon="3.78197">
        <ele>1335</ele>
        <time>2017-03-02T03:03:32Z</time>
      </trkpt>
      <trkpt lat="44.52272" lon="3.78214">
        <ele>1333</ele>
        <time>2017-03-02T03:05:32Z</time>
      </trkpt>
      <trkpt lat="44.5226" lon="3.78228">
        <ele>1332</ele>
        <time>2017-03-02T03:07:32Z</time>
      </trkpt>
      <trkpt lat="44.52246" lon="3.78246">
        <ele>1329</ele>
        <time>2017-03-02T03:09:32Z</time>
      </trkpt>
      <trkpt lat="44.52234" lon="3.78261">
        <ele>1328</ele>
        <time>2017-03-02T03:11:32Z</time>
      </trkpt>
      <trkpt lat="44.52224" lon="3.78274">
        <ele>1327</ele>
        <time>2017-03-02T03:13:32Z</time>
      </trkpt>
      <trkpt lat="44.52215" lon="3.78287">
        <ele>1326</ele>
        <time>2017-03-02T03:15:32Z</time>
      </trkpt>
      <trkpt lat="44.52208" lon="3.78299">
        <ele>1325</ele>
        <time>2017-03-02T03:17:32Z</time>
      </trkpt>
      <trkpt lat="44.522" lon="3.78314">
        <ele>1324</ele>
        <time>2017-03-02T03:19:32Z</time>
      </trkpt>
      <trkpt lat="44.52192" lon="3.78323">
        <ele>1323</ele>
        <time>2017-03-02T03:21:32Z</time>
      </trkpt>
      <trkpt lat="44.5218" lon="3.78332">
        <ele>1323</ele>
        <time>2017-03-02T03:23:32Z</time>
      </trkpt>
      <trkpt lat="44.52168" lon="3.78337">
        <ele>1324</ele>
        <time>2017-03-02T03:25:32Z</time>
      </trkpt>
      <trkpt lat="44.5216" lon="3.78339">
        <ele>1325</ele>
        <time>2017-03-02T03:27:32Z</time>
      </trkpt>
      <trkpt lat="44.52154" lon="3.78342">
        <ele>1326</ele>
        <time>2017-03-02T03:29:32Z</time>
      </trkpt>
      <trkpt lat="44.52151" lon="3.78344">
        <ele>1326</ele>
        <time>2017-03-02T03:31:32Z</time>
      </trkpt>
      <trkpt lat="44.5215" lon="3.7835">
        <ele>1326</ele>
        <time>2017-03-02T03:33:32Z</time>
      </trkpt>
      <trkpt lat="44.52151" lon="3.78366">
        <ele>1324</ele>
        <time>2017-03-02T03:35:32Z</time>
      </trkpt>
      <trkpt lat="44.5215" lon="3.78383">
        <ele>1323</ele>
        <time>2017-03-02T03:37:32Z</time>
      </trkpt>
      <trkpt lat="44.52147" lon="3.78392">
        <ele>1323</ele>
        <time>2017-03-02T03:39:32Z</time>
      </trkpt>
      <trkpt lat="44.52147" lon="3.78392">
        <ele>1323</ele>
        <time>2017-03-02T03:41:32Z</time>
      </trkpt>
      <trkpt lat="44.52143" lon="3.78394">
        <ele>1323</ele>
        <time>2017-03-02T03:43:32Z</time>
      </trkpt>
      <trkpt lat="44.52139" lon="3.78397">
        <ele>1324</ele>
        <time>2017-03-02T03:45:32Z</time>
      </trkpt>
      <trkpt lat="44.52124" lon="3.78425">
        <ele>1325</ele>
        <time>2017-03-02T03:47:32Z</time>
      </trkpt>
      <trkpt lat="44.521" lon="3.78468">
        <ele>1327</ele>
        <time>2017-03-02T03:49:32Z</time>
      </trkpt>
      <trkpt lat="44.52073" lon="3.78504">
        <ele>1332</ele>
        <time>2017-03-02T03:51:32Z</time>
      </trkpt>
      <trkpt lat="44.52045" lon="3.78538">
        <ele>1336</ele>
        <time>2017-03-02T03:53:32Z</time>
      </trkpt>
      <trkpt lat="44.52018" lon="3.78563">
        <ele>1341</ele>
        <time>2017-03-02T03:55:32Z</time>
      </trkpt>
      <trkpt lat="44.51989" lon="3.78595">
        <ele>1344</ele>
        <time>2017-03-02T03:57:32Z</time>
      </trkpt>
      <trkpt lat="44.51958" lon="3.78625">
        <ele>1347</ele>
        <time>2017-03-02T03:59:32Z</time>
      </trkpt>
      <trkpt lat="44.5192" lon="3.78651">
        <ele>1351</ele>
        <time>2017-03-02T04:01:32Z</time>
      </trkpt>
      <trkpt lat="44.51883" lon="3.78678">
        <ele>1353</ele>
        <time>2017-03-02T04:03:32Z</time>
      </trkpt>
      <trkpt lat="44.51861" lon="3.78688">
        <ele>1354</ele>
        <time>2017-03-02T04:05:32Z</time>
      </trkpt>
      <trkpt lat="44.51836" lon="3.78692">
        <ele>1357</ele>
        <time>2017-03-02T04:07:32Z</time>
      </trkpt>
      <trkpt lat="44.51811" lon="3.78691">
        <ele>1357</ele>
        <time>2017-03-02T04:09:32Z</time>
      </trkpt>
      <trkpt lat="44.51783" lon="3.78684">
        <ele>1359</ele>
        <time>2017-03-02T04:11:32Z</time>
      </trkpt>
      <trkpt lat="44.51756" lon="3.78675">
        <ele>1361</ele>
        <time>2017-03-02T04:13:32Z</time>
      </trkpt>
      <trkpt lat="44.51752" lon="3.78673">
        <ele>1361</ele>
        <time>2017-03-02T04:15:32Z</time>
      </trkpt>
      <trkpt lat="44.51726" lon="3.7866">
        <ele>1363</ele>
        <time>2017-03-02T04:17:32Z</time>
      </trkpt>
      <trkpt lat="44.51697" lon="3.78649">
        <ele>1365</ele>
        <time>2017-03-02T04:19:32Z</time>
      </trkpt>
      <trkpt lat="44.51693" lon="3.78647">
        <ele>1366</ele>
        <time>2017-03-02T04:21:32Z</time>
      </trkpt>
      <trkpt lat="44.51667" lon="3.78644">
        <ele>1366</ele>
        <time>2017-03-02T04:23:32Z</time>
      </trkpt>
      <trkpt lat="44.5162" lon="3.78641">
        <ele>1367</ele>
        <time>2017-03-02T04:25:32Z</time>
      </trkpt>
      <trkpt lat="44.51587" lon="3.78632">
        <ele>1367</ele>
        <time>2017-03-02T04:27:32Z</time>
      </trkpt>
      <trkpt lat="44.51543" lon="3.78616">
        <ele>1366</ele>
        <time>2017-03-02T04:29:32Z</time>
      </trkpt>
      <trkpt lat="44.51518" lon="3.78604">
        <ele>1364</ele>
        <time>2017-03-02T04:31:32Z</time>
      </trkpt>
      <trkpt lat="44.51499" lon="3.78592">
        <ele>1362</ele>
        <time>2017-03-02T04:33:32Z</time>
      </trkpt>
      <trkpt lat="44.51499" lon="3.78592">
        <ele>1362</ele>
        <time>2017-03-02T04:35:32Z</time>
      </trkpt>
      <trkpt lat="44.51515" lon="3.78571">
        <ele>1362</ele>
        <time>2017-03-02T04:37:32Z</time>
      </trkpt>
      <trkpt lat="44.51519" lon="3.78565">
        <ele>1362</ele>
        <time>2017-03-02T04:39:32Z</time>
      </trkpt>
      <trkpt lat="44.51519" lon="3.78565">
        <ele>1362</ele>
        <time>2017-03-02T04:41:32Z</time>
      </trkpt>
      <trkpt lat="44.51507" lon="3.78536">
        <ele>1360</ele>
        <time>2017-03-02T04:43:32Z</time>
      </trkpt>
      <trkpt lat="44.51495" lon="3.78501">
        <ele>1357</ele>
        <time>2017-03-02T04:45:32Z</time>
      </trkpt>
      <trkpt lat="44.51492" lon="3.7848">
        <ele>1355</ele>
        <time>2017-03-02T04:47:32Z</time>
      </trkpt>
      <trkpt lat="44.51489" lon="3.78449">
        <ele>1353</ele>
        <time>2017-03-02T04:49:32Z</time>
      </trkpt>
      <trkpt lat="44.51483" lon="3.78407">
        <ele>1349</ele>
        <time>2017-03-02T04:51:32Z</time>
      </trkpt>
      <trkpt lat="44.51479" lon="3.78387">
        <ele>1347</ele>
        <time>2017-03-02T04:53:32Z</time>
      </trkpt>
      <trkpt lat="44.51473" lon="3.78366">
        <ele>1344</ele>
        <time>2017-03-02T04:55:32Z</time>
      </trkpt>
      <trkpt lat="44.51467" lon="3.78334">
        <ele>1341</ele>
        <time>2017-03-02T04:57:32Z</time>
      </trkpt>
      <trkpt lat="44.51462" lon="3.78313">
        <ele>1338</ele>
        <time>2017-03-02T04:59:32Z</time>
      </trkpt>
      <trkpt lat="44.51455" lon="3.78291">
        <ele>1334</ele>
        <time>2017-03-02T05:01:32Z</time>
      </trkpt>
      <trkpt lat="44.5145" lon="3.78268">
        <ele>1330</ele>
        <time>2017-03-02T05:03:32Z</time>
      </trkpt>
      <trkpt lat="44.51445" lon="3.78252">
        <ele>1327</ele>
        <time>2017-03-02T05:05:32Z</time>
      </trkpt>
      <trkpt lat="44.51439" lon="3.78241">
        <ele>1325</ele>
        <time>2017-03-02T05:07:32Z</time>
      </trkpt>
      <trkpt lat="44.51433" lon="3.78235">
        <ele>1323</ele>
        <time>2017-03-02T05:09:32Z</time>
      </trkpt>
      <trkpt lat="44.51425" lon="3.78231">
        <ele>1321</ele>
        <time>2017-03-02T05:11:32Z</time>
      </trkpt>
      <trkpt lat="44.5142" lon="3.78229">
        <ele>1320</ele>
        <time>2017-03-02T05:13:32Z</time>
      </trkpt>
      <trkpt lat="44.51417" lon="3.78228">
        <ele>1319</ele>
        <time>2017-03-02T05:15:32Z</time>
      </trkpt>
      <trkpt lat="44.51409" lon="3.78225">
        <ele>1319</ele>
        <time>2017-03-02T05:17:32Z</time>
      </trkpt>
      <trkpt lat="44.51391" lon="3.78215">
        <ele>1318</ele>
        <time>2017-03-02T05:19:32Z</time>
      </trkpt>
      <trkpt lat="44.51367" lon="3.78199">
        <ele>1317</ele>
        <time>2017-03-02T05:21:32Z</time>
      </trkpt>
      <trkpt lat="44.51344" lon="3.78185">
        <ele>1316</ele>
        <time>2017-03-02T05:23:32Z</time>
      </trkpt>
      <trkpt lat="44.5132" lon="3.78167">
        <ele>1315</ele>
        <time>2017-03-02T05:25:32Z</time>
      </trkpt>
      <trkpt lat="44.51299" lon="3.78151">
        <ele>1314</ele>
        <time>2017-03-02T05:27:32Z</time>
      </trkpt>
      <trkpt lat="44.51278" lon="3.78138">
        <ele>1314</ele>
        <time>2017-03-02T05:29:32Z</time>
      </trkpt>
      <trkpt lat="44.51265" lon="3.78131">
        <ele>1314</ele>
        <time>2017-03-02T05:31:32Z</time>
      </trkpt>
      <trkpt lat="44.51258" lon="3.78122">
        <ele>1313</ele>
        <time>2017-03-02T05:33:32Z</time>
      </trkpt>
      <trkpt lat="44.51253" lon="3.78112">
        <ele>1312</ele>
        <time>2017-03-02T05:35:32Z</time>
      </trkpt>
      <trkpt lat="44.51237" lon="3.78094">
        <ele>1310</ele>
        <time>2017-03-02T05:37:32Z</time>
      </trkpt>
      <trkpt lat="44.5122" lon="3.78075">
        <ele>1308</ele>
        <time>2017-03-02T05:39:32Z</time>
      </trkpt>
      <trkpt lat="44.51205" lon="3.7806">
        <ele>1308</ele>
        <time>2017-03-02T05:41:32Z</time>
      </trkpt>
      <trkpt lat="44.51192" lon="3.78043">
        <ele>1307</ele>
        <time>2017-03-02T05:43:32Z</time>
      </trkpt>
      <trkpt lat="44.51182" lon="3.7803">
        <ele>1306</ele>
        <time>2017-03-02T05:45:32Z</time>
      </trkpt>
      <trkpt lat="44.51172" lon="3.78017">
        <ele>1306</ele>
        <time>2017-03-02T05:47:32Z</time>
      </trkpt>
      <trkpt lat="44.51163" lon="3.78001">
        <ele>1305</ele>
        <time>2017-03-02T05:49:32Z</time>
      </trkpt>
      <trkpt lat="44.51153" lon="3.77985">
        <ele>1302</ele>
        <time>2017-03-02T05:51:32Z</time>
      </trkpt>
      <trkpt lat="44.51146" lon="3.77977">
        <ele>1301</ele>
        <time>2017-03-02T05:53:32Z</time>
      </trkpt>
      <trkpt lat="44.51134" lon="3.77968">
        <ele>1300</ele>
        <time>2017-03-02T05:55:32Z</time>
      </trkpt>
      <trkpt lat="44.51122" lon="3.77962">
        <ele>1299</ele>
        <time>2017-03-02T05:57:32Z</time>
      </trkpt>
      <trkpt lat="44.51112" lon="3.77959">
        <ele>1299</ele>
        <time>2017-03-02T05:59:32Z</time>
      </trkpt>
      <trkpt lat="44.51098" lon="3.77957">
        <ele>1298</ele>
        <time>2017-03-02T06:01:32Z</time>
      </trkpt>
      <trkpt lat="44.51089" lon="3.77941">
        <ele>1297</ele>
        <time>2017-03-02T06:03:32Z</time>
      </trkpt>
      <trkpt lat="44.51071" lon="3.77912">
        <ele>1294</ele>
        <time>2017-03-02T06:05:32Z</time>
      </trkpt>
      <trkpt lat="44.51052" lon="3.77878">
        <ele>1289</ele>
        <time>2017-03-02T06:07:32Z</time>
      </trkpt>
      <trkpt lat="44.51034" lon="3.77848">
        <ele>1285</ele>
        <time>2017-03-02T06:09:32Z</time>
      </trkpt>
      <trkpt lat="44.51018" lon="3.77819">
        <ele>1282</ele>
        <time>2017-03-02T06:11:32Z</time>
      </trkpt>
      <trkpt lat="44.51003" lon="3.77793">
        <ele>1279</ele>
        <time>2017-03-02T06:13:32Z</time>
      </trkpt>
      <trkpt lat="44.50998" lon="3.77782">
        <ele>1278</ele>
        <time>2017-03-02T06:15:32Z</time>
      </trkpt>
      <trkpt lat="44.50996" lon="3.77774">
        <ele>1277</ele>
        <time>2017-03-02T06:17:32Z</time>
      </trkpt>
      <trkpt lat="44.50996" lon="3.77774">
        <ele>1277</ele>
        <time>2017-03-02T06:19:32Z</time>
      </trkpt>
      <trkpt lat="44.51009" lon="3.77772">
        <ele>1276</ele>
        <time>2017-03-02T06:21:32Z</time>
      </trkpt>
      <trkpt lat="44.51029" lon="3.7777">
        <ele>1275</ele>
        <time>2017-03-02T06:23:32Z</time>
      </trkpt>
      <trkpt lat="44.51048" lon="3.77769">
        <ele>1274</ele>
        <time>2017-03-02T06:25:32Z</time>
      </trkpt>
      <trkpt lat="44.51063" lon="3.77767">
        <ele>1272</ele>
        <time>2017-03-02T06:27:32Z</time>
      </trkpt>
      <trkpt lat="44.51074" lon="3.77764">
        <ele>1271</ele>
        <time>2017-03-02T06:29:32Z</time>
      </trkpt>
      <trkpt lat="44.51086" lon="3.77764">
        <ele>1271</ele>
        <time>2017-03-02T06:31:32Z</time>
      </trkpt>
      <trkpt lat="44.51103" lon="3.77767">
        <ele>1270</ele>
        <time>2017-03-02T06:33:32Z</time>
      </trkpt>
      <trkpt lat="44.51133" lon="3.77771">
        <ele>1269</ele>
        <time>2017-03-02T06:35:32Z</time>
      </trkpt>
      <trkpt lat="44.51168" lon="3.77777">
        <ele>1269</ele>
        <time>2017-03-02T06:37:32Z</time>
      </trkpt>
      <trkpt lat="44.51198" lon="3.77781">
        <ele>1266</ele>
        <time>2017-03-02T06:39:32Z</time>
      </trkpt>
      <trkpt lat="44.51218" lon="3.77784">
        <ele>1264</ele>
        <time>2017-03-02T06:41:32Z</time>
      </trkpt>
      <trkpt lat="44.51218" lon="3.77784">
        <ele>1264</ele>
        <time>2017-03-02T06:43:32Z</time>
      </trkpt>
      <trkpt lat="44.51242" lon="3.77775">
        <ele>1260</ele>
        <time>2017-03-02T06:45:32Z</time>
      </trkpt>
      <trkpt lat="44.5126" lon="3.77772">
        <ele>1260</ele>
        <time>2017-03-02T06:47:32Z</time>
      </trkpt>
      <trkpt lat="44.51264" lon="3.77767">
        <ele>1260</ele>
        <time>2017-03-02T06:49:32Z</time>
      </trkpt>
      <trkpt lat="44.51267" lon="3.77762">
        <ele>1260</ele>
        <time>2017-03-02T06:51:32Z</time>
      </trkpt>
      <trkpt lat="44.51268" lon="3.77756">
        <ele>1259</ele>
        <time>2017-03-02T06:53:32Z</time>
      </trkpt>
      <trkpt lat="44.51269" lon="3.77751">
        <ele>1259</ele>
        <time>2017-03-02T06:55:32Z</time>
      </trkpt>
      <trkpt lat="44.51268" lon="3.77746">
        <ele>1258</ele>
        <time>2017-03-02T06:57:32Z</time>
      </trkpt>
      <trkpt lat="44.51266" lon="3.77741">
        <ele>1257</ele>
        <time>2017-03-02T06:59:32Z</time>
      </trkpt>
      <trkpt lat="44.51264" lon="3.77735">
        <ele>1256</ele>
        <time>2017-03-02T07:01:32Z</time>
      </trkpt>
      <trkpt lat="44.51252" lon="3.77712">
        <ele>1251</ele>
        <time>2017-03-02T07:03:32Z</time>
      </trkpt>
      <trkpt lat="44.5123" lon="3.77668">
        <ele>1246</ele>
        <time>2017-03-02T07:05:32Z</time>
      </trkpt>
      <trkpt lat="44.51194" lon="3.77617">
        <ele>1243</ele>
        <time>2017-03-02T07:07:32Z</time>
      </trkpt>
      <trkpt lat="44.51164" lon="3.77581">
        <ele>1237</ele>
        <time>2017-03-02T07:09:32Z</time>
      </trkpt>
      <trkpt lat="44.51149" lon="3.7756">
        <ele>1237</ele>
        <time>2017-03-02T07:11:32Z</time>
      </trkpt>
      <trkpt lat="44.51132" lon="3.77547">
        <ele>1236</ele>
        <time>2017-03-02T07:13:32Z</time>
      </trkpt>
      <trkpt lat="44.51101" lon="3.77532">
        <ele>1232</ele>
        <time>2017-03-02T07:15:32Z</time>
      </trkpt>
      <trkpt lat="44.51058" lon="3.77516">
        <ele>1230</ele>
        <time>2017-03-02T07:17:32Z</time>
      </trkpt>
      <trkpt lat="44.51032" lon="3.77506">
        <ele>1230</ele>
        <time>2017-03-02T07:19:32Z</time>
      </trkpt>
      <trkpt lat="44.51012" lon="3.77492">
        <ele>1229</ele>
        <time>2017-03-02T07:21:32Z</time>
      </trkpt>
      <trkpt lat="44.50996" lon="3.77472">
        <ele>1228</ele>
        <time>2017-03-02T07:23:32Z</time>
      </trkpt>
      <trkpt lat="44.50985" lon="3.77448">
        <ele>1228</ele>
        <time>2017-03-02T07:25:32Z</time>
      </trkpt>
      <trkpt lat="44.50969" lon="3.77411">
        <ele>1226</ele>
        <time>2017-03-02T07:27:32Z</time>
      </trkpt>
      <trkpt lat="44.5096" lon="3.77381">
        <ele>1225</ele>
        <time>2017-03-02T07:29:32Z</time>
      </trkpt>
      <trkpt lat="44.50953" lon="3.77356">
        <ele>1224</ele>
        <time>2017-03-02T07:31:32Z</time>
      </trkpt>
      <trkpt lat="44.50949" lon="3.77321">
        <ele>1221</ele>
        <time>2017-03-02T07:33:32Z</time>
      </trkpt>
      <trkpt lat="44.50946" lon="3.77284">
        <ele>1220</ele>
        <time>2017-03-02T07:35:32Z</time>
      </trkpt>
      <trkpt lat="44.50942" lon="3.77249">
        <ele>1219</ele>
        <time>2017-03-02T07:37:32Z</time>
      </trkpt>
      <trkpt lat="44.50938" lon="3.7722">
        <ele>1217</ele>
        <time>2017-03-02T07:39:32Z</time>
      </trkpt>
      <trkpt lat="44.50932" lon="3.77194">
        <ele>1215</ele>
        <time>2017-03-02T07:41:32Z</time>
      </trkpt>
      <trkpt lat="44.50923" lon="3.77168">
        <ele>1212</ele>
        <time>2017-03-02T07:43:32Z</time>
      </trkpt>
      <trkpt lat="44.50916" lon="3.77139">
        <ele>1208</ele>
        <time>2017-03-02T07:45:32Z</time>
      </trkpt>
      <trkpt lat="44.50909" lon="3.77129">
        <ele>1207</ele>
        <time>2017-03-02T07:47:32Z</time>
      </trkpt>
      <trkpt lat="44.50905" lon="3.77111">
        <ele>1205</ele>
        <time>2017-03-02T07:49:32Z</time>
      </trkpt>
      <trkpt lat="44.50889" lon="3.77079">
        <ele>1202</ele>
        <time>2017-03-02T07:51:32Z</time>
      </trkpt>
      <trkpt lat="44.50874" lon="3.77055">
        <ele>1203</ele>
        <time>2017-03-02T07:53:32Z</time>
      </trkpt>
      <trkpt lat="44.50858" lon="3.77025">
        <ele>1201</ele>
        <time>2017-03-02T07:55:32Z</time>
      </trkpt>
      <trkpt lat="44.50839" lon="3.77">
        <ele>1197</ele>
        <time>2017-03-02T07:57:32Z</time>
      </trkpt>
      <trkpt lat="44.50815" lon="3.76981">
        <ele>1197</ele>
        <time>2017-03-02T07:59:32Z</time>
      </trkpt>
      <trkpt lat="44.50778" lon="3.7696">
        <ele>1195</ele>
        <time>2017-03-02T08:01:32Z</time>
      </trkpt>
      <trkpt lat="44.50715" lon="3.76925">
        <ele>1188</ele>
        <time>2017-03-02T08:03:32Z</time>
      </trkpt>
      <trkpt lat="44.50665" lon="3.76903">
        <ele>1185</ele>
        <time>2017-03-02T08:05:32Z</time>
      </trkpt>
      <trkpt lat="44.50642" lon="3.76893">
        <ele>1183</ele>
        <time>2017-03-02T08:07:32Z</time>
      </trkpt>
      <trkpt lat="44.50621" lon="3.76886">
        <ele>1182</ele>
        <time>2017-03-02T08:09:32Z</time>
      </trkpt>
      <trkpt lat="44.50592" lon="3.76878">
        <ele>1179</ele>
        <time>2017-03-02T08:11:32Z</time>
      </trkpt>
      <trkpt lat="44.50564" lon="3.76871">
        <ele>1178</ele>
        <time>2017-03-02T08:13:32Z</time>
      </trkpt>
      <trkpt lat="44.50541" lon="3.76865">
        <ele>1177</ele>
        <time>2017-03-02T08:15:32Z</time>
      </trkpt>
      <trkpt lat="44.50541" lon="3.76865">
        <ele>1177</ele>
        <time>2017-03-02T08:17:32Z</time>
      </trkpt>
      <trkpt lat="44.5053" lon="3.76862">
        <ele>1176</ele>
        <time>2017-03-02T08:19:32Z</time>
      </trkpt>
      <trkpt lat="44.50507" lon="3.76857">
        <ele>1175</ele>
        <time>2017-03-02T08:21:32Z</time>
      </trkpt>
      <trkpt lat="44.50491" lon="3.76855">
        <ele>1175</ele>
        <time>2017-03-02T08:23:32Z</time>
      </trkpt>
      <trkpt lat="44.50478" lon="3.76854">
        <ele>1174</ele>
        <time>2017-03-02T08:25:32Z</time>
      </trkpt>
      <trkpt lat="44.50468" lon="3.76852">
        <ele>1174</ele>
        <time>2017-03-02T08:27:32Z</time>
      </trkpt>
      <trkpt lat="44.50455" lon="3.76844">
        <ele>1172</ele>
        <time>2017-03-02T08:29:32Z</time>
      </trkpt>
      <trkpt lat="44.50427" lon="3.76822">
        <ele>1170</ele>
        <time>2017-03-02T08:31:32Z</time>
      </trkpt>
      <trkpt lat="44.50396" lon="3.76798">
        <ele>1170</ele>
        <time>2017-03-02T08:33:32Z</time>
      </trkpt>
      <trkpt lat="44.5037" lon="3.76775">
        <ele>1168</ele>
        <time>2017-03-02T08:35:32Z</time>
      </trkpt>
      <trkpt lat="44.5036" lon="3.76768">
        <ele>1167</ele>
        <time>2017-03-02T08:37:32Z</time>
      </trkpt>
      <trkpt lat="44.50351" lon="3.76764">
        <ele>1166</ele>
        <time>2017-03-02T08:39:32Z</time>
      </trkpt>
      <trkpt lat="44.50336" lon="3.76761">
        <ele>1165</ele>
        <time>2017-03-02T08:41:32Z</time>
      </trkpt>
      <trkpt lat="44.50311" lon="3.76754">
        <ele>1163</ele>
        <time>2017-03-02T08:43:32Z</time>
      </trkpt>
      <trkpt lat="44.50295" lon="3.76751">
        <ele>1162</ele>
        <time>2017-03-02T08:45:32Z</time>
      </trkpt>
      <trkpt lat="44.50265" lon="3.76745">
        <ele>1162</ele>
        <time>2017-03-02T08:47:32Z</time>
      </trkpt>
      <trkpt lat="44.50251" lon="3.76744">
        <ele>1161</ele>
        <time>2017-03-02T08:49:32Z</time>
      </trkpt>
      <trkpt lat="44.50235" lon="3.76742">
        <ele>1160</ele>
        <time>2017-03-02T08:51:32Z</time>
      </trkpt>
      <trkpt lat="44.50227" lon="3.7674">
        <ele>1160</ele>
        <time>2017-03-02T08:53:32Z</time>
      </trkpt>
      <trkpt lat="44.50215" lon="3.76734">
        <ele>1159</ele>
        <time>2017-03-02T08:55:32Z</time>
      </trkpt>
      <trkpt lat="44.502" lon="3.76726">
        <ele>1158</ele>
        <time>2017-03-02T08:57:32Z</time>
      </trkpt>
      <trkpt lat="44.5019" lon="3.76717">
        <ele>1157</ele>
        <time>2017-03-02T08:59:32Z</time>
      </trkpt>
      <trkpt lat="44.50188" lon="3.76715">
        <ele>1157</ele>
        <time>2017-03-02T09:01:32Z</time>
      </trkpt>
      <trkpt lat="44.50177" lon="3.76704">
        <ele>1155</ele>
        <time>2017-03-02T09:03:32Z</time>
      </trkpt>
      <trkpt lat="44.50163" lon="3.76692">
        <ele>1153</ele>
        <time>2017-03-02T09:05:32Z</time>
      </trkpt>
      <trkpt lat="44.50155" lon="3.76682">
        <ele>1152</ele>
        <time>2017-03-02T09:07:32Z</time>
      </trkpt>
      <trkpt lat="44.5015" lon="3.76676">
        <ele>1152</ele>
        <time>2017-03-02T09:09:32Z</time>
      </trkpt>
      <trkpt lat="44.50137" lon="3.76661">
        <ele>1153</ele>
        <time>2017-03-02T09:11:32Z</time>
      </trkpt>
      <trkpt lat="44.50131" lon="3.76657">
        <ele>1154</ele>
        <time>2017-03-02T09:13:32Z</time>
      </trkpt>
      <trkpt lat="44.50131" lon="3.76657">
        <ele>1154</ele>
        <time>2017-03-02T09:15:32Z</time>
      </trkpt>
      <trkpt lat="44.5013" lon="3.76612">
        <ele>1162</ele>
        <time>2017-03-02T09:17:32Z</time>
      </trkpt>
      <trkpt lat="44.50122" lon="3.76597">
        <ele>1165</ele>
        <time>2017-03-02T09:19:32Z</time>
      </trkpt>
      <trkpt lat="44.50112" lon="3.7659">
        <ele>1168</ele>
        <time>2017-03-02T09:21:32Z</time>
      </trkpt>
      <trkpt lat="44.50072" lon="3.76559">
        <ele>1178</ele>
        <time>2017-03-02T09:23:32Z</time>
      </trkpt>
      <trkpt lat="44.50033" lon="3.7653">
        <ele>1185</ele>
        <time>2017-03-02T09:25:32Z</time>
      </trkpt>
      <trkpt lat="44.49999" lon="3.76515">
        <ele>1189</ele>
        <time>2017-03-02T09:27:32Z</time>
      </trkpt>
      <trkpt lat="44.49982" lon="3.76506">
        <ele>1191</ele>
        <time>2017-03-02T09:29:32Z</time>
      </trkpt>
      <trkpt lat="44.49972" lon="3.76496">
        <ele>1193</ele>
        <time>2017-03-02T09:31:32Z</time>
      </trkpt>
      <trkpt lat="44.49969" lon="3.7649">
        <ele>1194</ele>
        <time>2017-03-02T09:33:32Z</time>
      </trkpt>
      <trkpt lat="44.49964" lon="3.76472">
        <ele>1196</ele>
        <time>2017-03-02T09:35:32Z</time>
      </trkpt>
      <trkpt lat="44.49962" lon="3.76453">
        <ele>1198</ele>
        <time>2017-03-02T09:37:32Z</time>
      </trkpt>
      <trkpt lat="44.49961" lon="3.7644">
        <ele>1199</ele>
        <time>2017-03-02T09:39:32Z</time>
      </trkpt>
      <trkpt lat="44.49961" lon="3.76431">
        <ele>1200</ele>
        <time>2017-03-02T09:41:32Z</time>
      </trkpt>
      <trkpt lat="44.49963" lon="3.76418">
        <ele>1202</ele>
        <time>2017-03-02T09:43:32Z</time>
      </trkpt>
      <trkpt lat="44.49964" lon="3.76404">
        <ele>1203</ele>
        <time>2017-03-02T09:45:32Z</time>
      </trkpt>
      <trkpt lat="44.4996" lon="3.7638">
        <ele>1204</ele>
        <time>2017-03-02T09:47:32Z</time>
      </trkpt>
      <trkpt lat="44.49955" lon="3.76358">
        <ele>1205</ele>
        <time>2017-03-02T09:49:32Z</time>
      </trkpt>
      <trkpt lat="44.49952" lon="3.76336">
        <ele>1206</ele>
        <time>2017-03-02T09:51:32Z</time>
      </trkpt>
      <trkpt lat="44.4995" lon="3.76312">
        <ele>1206</ele>
        <time>2017-03-02T09:53:32Z</time>
      </trkpt>
      <trkpt lat="44.49949" lon="3.76287">
        <ele>1206</ele>
        <time>2017-03-02T09:55:32Z</time>
      </trkpt>
      <trkpt lat="44.49947" lon="3.76273">
        <ele>1206</ele>
        <time>2017-03-02T09:57:32Z</time>
      </trkpt>
      <trkpt lat="44.49942" lon="3.76256">
        <ele>1206</ele>
        <time>2017-03-02T09:59:32Z</time>
      </trkpt>
      <trkpt lat="44.49937" lon="3.76239">
        <ele>1206</ele>
        <time>2017-03-02T10:01:32Z</time>
      </trkpt>
      <trkpt lat="44.49935" lon="3.76233">
        <ele>1206</ele>
        <time>2017-03-02T10:03:32Z</time>
      </trkpt>
      <trkpt lat="44.49929" lon="3.76199">
        <ele>1206</ele>
        <time>2017-03-02T10:05:32Z</time>
      </trkpt>
      <trkpt lat="44.49921" lon="3.7616">
        <ele>1205</ele>
        <time>2017-03-02T10:07:32Z</time>
      </trkpt>
      <trkpt lat="44.49913" lon="3.76125">
        <ele>1204</ele>
        <time>2017-03-02T10:09:32Z</time>
      </trkpt>
      <trkpt lat="44.49909" lon="3.76104">
        <ele>1203</ele>
        <time>2017-03-02T10:11:32Z</time>
      </trkpt>
      <trkpt lat="44.49904" lon="3.76083">
        <ele>1202</ele>
        <time>2017-03-02T10:13:32Z</time>
      </trkpt>
      <trkpt lat="44.49895" lon="3.76053">
        <ele>1200</ele>
        <time>2017-03-02T10:15:32Z</time>
      </trkpt>
      <trkpt lat="44.49895" lon="3.76051">
        <ele>1200</ele>
        <time>2017-03-02T10:17:32Z</time>
      </trkpt>
      <trkpt lat="44.49894" lon="3.76032">
        <ele>1199</ele>
        <time>2017-03-02T10:19:32Z</time>
      </trkpt>
      <trkpt lat="44.49896" lon="3.76005">
        <ele>1198</ele>
        <time>2017-03-02T10:21:32Z</time>
      </trkpt>
      <trkpt lat="44.49898" lon="3.75989">
        <ele>1198</ele>
        <time>2017-03-02T10:23:32Z</time>
      </trkpt>
      <trkpt lat="44.49898" lon="3.75989">
        <ele>1198</ele>
        <time>2017-03-02T10:25:32Z</time>
      </trkpt>
      <trkpt lat="44.49899" lon="3.75977">
        <ele>1197</ele>
        <time>2017-03-02T10:27:32Z</time>
      </trkpt>
      <trkpt lat="44.49902" lon="3.7596">
        <ele>1197</ele>
        <time>2017-03-02T10:29:32Z</time>
      </trkpt>
      <trkpt lat="44.49909" lon="3.75944">
        <ele>1197</ele>
        <time>2017-03-02T10:31:32Z</time>
      </trkpt>
      <trkpt lat="44.49921" lon="3.7592">
        <ele>1196</ele>
        <time>2017-03-02T10:33:32Z</time>
      </trkpt>
      <trkpt lat="44.49935" lon="3.75899">
        <ele>1195</ele>
        <time>2017-03-02T10:35:32Z</time>
      </trkpt>
      <trkpt lat="44.49947" lon="3.75885">
        <ele>1193</ele>
        <time>2017-03-02T10:37:32Z</time>
      </trkpt>
      <trkpt lat="44.49959" lon="3.75874">
        <ele>1192</ele>
        <time>2017-03-02T10:39:32Z</time>
      </trkpt>
      <trkpt lat="44.4997" lon="3.75867">
        <ele>1191</ele>
        <time>2017-03-02T10:41:32Z</time>
      </trkpt>
      <trkpt lat="44.49976" lon="3.75865">
        <ele>1190</ele>
        <time>2017-03-02T10:43:32Z</time>
      </trkpt>
      <trkpt lat="44.49986" lon="3.75866">
        <ele>1190</ele>
        <time>2017-03-02T10:45:32Z</time>
      </trkpt>
      <trkpt lat="44.50001" lon="3.7587">
        <ele>1190</ele>
        <time>2017-03-02T10:47:32Z</time>
      </trkpt>
      <trkpt lat="44.50014" lon="3.75869">
        <ele>1191</ele>
        <time>2017-03-02T10:49:32Z</time>
      </trkpt>
      <trkpt lat="44.50025" lon="3.75865">
        <ele>1191</ele>
        <time>2017-03-02T10:51:32Z</time>
      </trkpt>
      <trkpt lat="44.50035" lon="3.75859">
        <ele>1191</ele>
        <time>2017-03-02T10:53:32Z</time>
      </trkpt>
      <trkpt lat="44.50044" lon="3.7585">
        <ele>1190</ele>
        <time>2017-03-02T10:55:32Z</time>
      </trkpt>
      <trkpt lat="44.50052" lon="3.75836">
        <ele>1188</ele>
        <time>2017-03-02T10:57:32Z</time>
      </trkpt>
      <trkpt lat="44.5006" lon="3.7582">
        <ele>1187</ele>
        <time>2017-03-02T10:59:32Z</time>
      </trkpt>
      <trkpt lat="44.50064" lon="3.75808">
        <ele>1186</ele>
        <time>2017-03-02T11:01:32Z</time>
      </trkpt>
      <trkpt lat="44.50067" lon="3.75795">
        <ele>1185</ele>
        <time>2017-03-02T11:03:32Z</time>
      </trkpt>
      <trkpt lat="44.50068" lon="3.7579">
        <ele>1185</ele>
        <time>2017-03-02T11:05:32Z</time>
      </trkpt>
      <trkpt lat="44.50071" lon="3.75774">
        <ele>1184</ele>
        <time>2017-03-02T11:07:32Z</time>
      </trkpt>
      <trkpt lat="44.50073" lon="3.75762">
        <ele>1183</ele>
        <time>2017-03-02T11:09:32Z</time>
      </trkpt>
      <trkpt lat="44.50074" lon="3.75753">
        <ele>1182</ele>
        <time>2017-03-02T11:11:32Z</time>
      </trkpt>
      <trkpt lat="44.50075" lon="3.75746">
        <ele>1182</ele>
        <time>2017-03-02T11:13:32Z</time>
      </trkpt>
      <trkpt lat="44.50077" lon="3.75738">
        <ele>1182</ele>
        <time>2017-03-02T11:15:32Z</time>
      </trkpt>
      <trkpt lat="44.50079" lon="3.75729">
        <ele>1181</ele>
        <time>2017-03-02T11:17:32Z</time>
      </trkpt>
      <trkpt lat="44.50081" lon="3.75722">
        <ele>1181</ele>
        <time>2017-03-02T11:19:32Z</time>
      </trkpt>
      <trkpt lat="44.50083" lon="3.75716">
        <ele>1181</ele>
        <time>2017-03-02T11:21:32Z</time>
      </trkpt>
      <trkpt lat="44.50084" lon="3.75709">
        <ele>1181</ele>
        <time>2017-03-02T11:23:32Z</time>
      </trkpt>
      <trkpt lat="44.50084" lon="3.75703">
        <ele>1180</ele>
        <time>2017-03-02T11:25:32Z</time>
      </trkpt>
      <trkpt lat="44.50085" lon="3.75697">
        <ele>1180</ele>
        <time>2017-03-02T11:27:32Z</time>
      </trkpt>
      <trkpt lat="44.50087" lon="3.75691">
        <ele>1180</ele>
        <time>2017-03-02T11:29:32Z</time>
      </trkpt>
      <trkpt lat="44.50089" lon="3.75684">
        <ele>1180</ele>
        <time>2017-03-02T11:31:32Z</time>
      </trkpt>
      <trkpt lat="44.50091" lon="3.75676">
        <ele>1179</ele>
        <time>2017-03-02T11:33:32Z</time>
      </trkpt>
      <trkpt lat="44.50092" lon="3.75671">
        <ele>1179</ele>
        <time>2017-03-02T11:35:32Z</time>
      </trkpt>
      <trkpt lat="44.50092" lon="3.75671">
        <ele>1179</ele>
        <time>2017-03-02T11:37:32Z</time>
      </trkpt>
      <trkpt lat="44.50091" lon="3.75666">
        <ele>1179</ele>
        <time>2017-03-02T11:39:32Z</time>
      </trkpt>
      <trkpt lat="44.50087" lon="3.75659">
        <ele>1178</ele>
        <time>2017-03-02T11:41:32Z</time>
      </trkpt>
      <trkpt lat="44.50081" lon="3.75654">
        <ele>1177</ele>
        <time>2017-03-02T11:43:32Z</time>
      </trkpt>
      <trkpt lat="44.50076" lon="3.75653">
        <ele>1176</ele>
        <time>2017-03-02T11:45:32Z</time>
      </trkpt>
      <trkpt lat="44.50071" lon="3.75655">
        <ele>1176</ele>
        <time>2017-03-02T11:47:32Z</time>
      </trkpt>
      <trkpt lat="44.50071" lon="3.75655">
        <ele>1176</ele>
        <time>2017-03-02T11:49:32Z</time>
      </trkpt>
      <trkpt lat="44.50069" lon="3.75644">
        <ele>1175</ele>
        <time>2017-03-02T11:51:32Z</time>
      </trkpt>
      <trkpt lat="44.50067" lon="3.75623">
        <ele>1174</ele>
        <time>2017-03-02T11:53:32Z</time>
      </trkpt>
      <trkpt lat="44.50064" lon="3.75608">
        <ele>1173</ele>
        <time>2017-03-02T11:55:32Z</time>
      </trkpt>
      <trkpt lat="44.50062" lon="3.75602">
        <ele>1172</ele>
        <time>2017-03-02T11:57:32Z</time>
      </trkpt>
      <trkpt lat="44.5006" lon="3.75599">
        <ele>1172</ele>
        <time>2017-03-02T11:59:32Z</time>
      </trkpt>
      <trkpt lat="44.50052" lon="3.75594">
        <ele>1171</ele>
        <time>2017-03-02T12:01:32Z</time>
      </trkpt>
      <trkpt lat="44.50036" lon="3.75581">
        <ele>1168</ele>
        <time>2017-03-02T12:03:32Z</time>
      </trkpt>
      <trkpt lat="44.50023" lon="3.75572">
        <ele>1167</ele>
        <time>2017-03-02T12:05:32Z</time>
      </trkpt>
      <trkpt lat="44.50017" lon="3.75567">
        <ele>1167</ele>
        <time>2017-03-02T12:07:32Z</time>
      </trkpt>
      <trkpt lat="44.5001" lon="3.75564">
        <ele>1166</ele>
        <time>2017-03-02T12:09:32Z</time>
      </trkpt>
      <trkpt lat="44.50004" lon="3.7556">
        <ele>1165</ele>
        <time>2017-03-02T12:11:32Z</time>
      </trkpt>
      <trkpt lat="44.50001" lon="3.75558">
        <ele>1165</ele>
        <time>2017-03-02T12:13:32Z</time>
      </trkpt>
      <trkpt lat="44.49994" lon="3.75549">
        <ele>1164</ele>
        <time>2017-03-02T12:15:32Z</time>
      </trkpt>
      <trkpt lat="44.4999" lon="3.75543">
        <ele>1164</ele>
        <time>2017-03-02T12:17:32Z</time>
      </trkpt>
      <trkpt lat="44.49987" lon="3.75537">
        <ele>1164</ele>
        <time>2017-03-02T12:19:32Z</time>
      </trkpt>
      <trkpt lat="44.49983" lon="3.75527">
        <ele>1164</ele>
        <time>2017-03-02T12:21:32Z</time>
      </trkpt>
      <trkpt lat="44.49981" lon="3.7552">
        <ele>1164</ele>
        <time>2017-03-02T12:23:32Z</time>
      </trkpt>
      <trkpt lat="44.4998" lon="3.75511">
        <ele>1164</ele>
        <time>2017-03-02T12:25:32Z</time>
      </trkpt>
      <trkpt lat="44.4998" lon="3.75502">
        <ele>1164</ele>
        <time>2017-03-02T12:27:32Z</time>
      </trkpt>
      <trkpt lat="44.49979" lon="3.75488">
        <ele>1164</ele>
        <time>2017-03-02T12:29:32Z</time>
      </trkpt>
      <trkpt lat="44.4998" lon="3.75475">
        <ele>1164</ele>
        <time>2017-03-02T12:31:32Z</time>
      </trkpt>
      <trkpt lat="44.49981" lon="3.75459">
        <ele>1164</ele>
        <time>2017-03-02T12:33:32Z</time>
      </trkpt>
      <trkpt lat="44.4998" lon="3.75446">
        <ele>1163</ele>
        <time>2017-03-02T12:35:32Z</time>
      </trkpt>
      <trkpt lat="44.49981" lon="3.75438">
        <ele>1163</ele>
        <time>2017-03-02T12:37:32Z</time>
      </trkpt>
      <trkpt lat="44.49981" lon="3.75426">
        <ele>1163</ele>
        <time>2017-03-02T12:39:32Z</time>
      </trkpt>
      <trkpt lat="44.49983" lon="3.75414">
        <ele>1163</ele>
        <time>2017-03-02T12:41:32Z</time>
      </trkpt>
      <trkpt lat="44.49985" lon="3.75405">
        <ele>1163</ele>
        <time>2017-03-02T12:43:32Z</time>
      </trkpt>
      <trkpt lat="44.49986" lon="3.75397">
        <ele>1162</ele>
        <time>2017-03-02T12:45:32Z</time>
      </trkpt>
      <trkpt lat="44.49989" lon="3.75386">
        <ele>1162</ele>
        <time>2017-03-02T12:47:32Z</time>
      </trkpt>
      <trkpt lat="44.49995" lon="3.75369">
        <ele>1162</ele>
        <time>2017-03-02T12:49:32Z</time>
      </trkpt>
      <trkpt lat="44.5" lon="3.75346">
        <ele>1162</ele>
        <time>2017-03-02T12:51:32Z</time>
      </trkpt>
      <trkpt lat="44.5" lon="3.75331">
        <ele>1161</ele>
        <time>2017-03-02T12:53:32Z</time>
      </trkpt>
      <trkpt lat="44.49998" lon="3.75324">
        <ele>1161</ele>
        <time>2017-03-02T12:55:32Z</time>
      </trkpt>
      <trkpt lat="44.49998" lon="3.75321">
        <ele>1162</ele>
        <time>2017-03-02T12:57:32Z</time>
      </trkpt>
      <trkpt lat="44.49991" lon="3.7531">
        <ele>1162</ele>
        <time>2017-03-02T12:59:32Z</time>
      </trkpt>
      <trkpt lat="44.49975" lon="3.7529">
        <ele>1162</ele>
        <time>2017-03-02T13:01:32Z</time>
      </trkpt>
      <trkpt lat="44.49952" lon="3.75261">
        <ele>1163</ele>
        <time>2017-03-02T13:03:32Z</time>
      </trkpt>
      <trkpt lat="44.49932" lon="3.75246">
        <ele>1163</ele>
        <time>2017-03-02T13:05:32Z</time>
      </trkpt>
      <trkpt lat="44.49921" lon="3.7524">
        <ele>1163</ele>
        <time>2017-03-02T13:07:32Z</time>
      </trkpt>
      <trkpt lat="44.49906" lon="3.75237">
        <ele>1163</ele>
        <time>2017-03-02T13:09:32Z</time>
      </trkpt>
      <trkpt lat="44.49893" lon="3.75238">
        <ele>1163</ele>
        <time>2017-03-02T13:11:32Z</time>
      </trkpt>
      <trkpt lat="44.49877" lon="3.75242">
        <ele>1163</ele>
        <time>2017-03-02T13:13:32Z</time>
      </trkpt>
      <trkpt lat="44.49864" lon="3.75244">
        <ele>1164</ele>
        <time>2017-03-02T13:15:32Z</time>
      </trkpt>
      <trkpt lat="44.49852" lon="3.75249">
        <ele>1163</ele>
        <time>2017-03-02T13:17:32Z</time>
      </trkpt>
      <trkpt lat="44.49843" lon="3.7525">
        <ele>1164</ele>
        <time>2017-03-02T13:19:32Z</time>
      </trkpt>
      <trkpt lat="44.49836" lon="3.75249">
        <ele>1164</ele>
        <time>2017-03-02T13:21:32Z</time>
      </trkpt>
      <trkpt lat="44.49827" lon="3.75244">
        <ele>1164</ele>
        <time>2017-03-02T13:23:32Z</time>
      </trkpt>
      <trkpt lat="44.49816" lon="3.75233">
        <ele>1164</ele>
        <time>2017-03-02T13:25:32Z</time>
      </trkpt>
      <trkpt lat="44.49802" lon="3.75215">
        <ele>1165</ele>
        <time>2017-03-02T13:27:32Z</time>
      </trkpt>
      <trkpt lat="44.49788" lon="3.75194">
        <ele>1166</ele>
        <time>2017-03-02T13:29:32Z</time>
      </trkpt>
      <trkpt lat="44.49769" lon="3.7516">
        <ele>1166</ele>
        <time>2017-03-02T13:31:32Z</time>
      </trkpt>
      <trkpt lat="44.49767" lon="3.75155">
        <ele>1166</ele>
        <time>2017-03-02T13:33:32Z</time>
      </trkpt>
      <trkpt lat="44.49767" lon="3.75155">
        <ele>1166</ele>
        <time>2017-03-02T13:35:32Z</time>
      </trkpt>
      <trkpt lat="44.4976" lon="3.75151">
        <ele>1166</ele>
        <time>2017-03-02T13:37:32Z</time>
      </trkpt>
      <trkpt lat="44.49756" lon="3.75148">
        <ele>1166</ele>
        <time>2017-03-02T13:39:32Z</time>
      </trkpt>
      <trkpt lat="44.4975" lon="3.75143">
        <ele>1165</ele>
        <time>2017-03-02T13:41:32Z</time>
      </trkpt>
      <trkpt lat="44.49747" lon="3.7514">
        <ele>1165</ele>
        <time>2017-03-02T13:43:32Z</time>
      </trkpt>
      <trkpt lat="44.49744" lon="3.75137">
        <ele>1165</ele>
        <time>2017-03-02T13:45:32Z</time>
      </trkpt>
      <trkpt lat="44.49741" lon="3.75134">
        <ele>1165</ele>
        <time>2017-03-02T13:47:32Z</time>
      </trkpt>
      <trkpt lat="44.49738" lon="3.75129">
        <ele>1164</ele>
        <time>2017-03-02T13:49:32Z</time>
      </trkpt>
      <trkpt lat="44.49735" lon="3.75122">
        <ele>1164</ele>
        <time>2017-03-02T13:51:32Z</time>
      </trkpt>
      <trkpt lat="44.49731" lon="3.75109">
        <ele>1164</ele>
        <time>2017-03-02T13:53:32Z</time>
      </trkpt>
      <trkpt lat="44.49729" lon="3.75101">
        <ele>1164</ele>
        <time>2017-03-02T13:55:32Z</time>
      </trkpt>
      <trkpt lat="44.49729" lon="3.75097">
        <ele>1164</ele>
        <time>2017-03-02T13:57:32Z</time>
      </trkpt>
      <trkpt lat="44.49727" lon="3.75081">
        <ele>1163</ele>
        <time>2017-03-02T13:59:32Z</time>
      </trkpt>
      <trkpt lat="44.49726" lon="3.75062">
        <ele>1163</ele>
        <time>2017-03-02T14:01:32Z</time>
      </trkpt>
      <trkpt lat="44.49722" lon="3.75047">
        <ele>1162</ele>
        <time>2017-03-02T14:03:32Z</time>
      </trkpt>
      <trkpt lat="44.49711" lon="3.75025">
        <ele>1160</ele>
        <time>2017-03-02T14:05:32Z</time>
      </trkpt>
      <trkpt lat="44.49694" lon="3.74998">
        <ele>1157</ele>
        <time>2017-03-02T14:07:32Z</time>
      </trkpt>
      <trkpt lat="44.49674" lon="3.74976">
        <ele>1155</ele>
        <time>2017-03-02T14:09:32Z</time>
      </trkpt>
      <trkpt lat="44.49642" lon="3.74944">
        <ele>1152</ele>
        <time>2017-03-02T14:11:32Z</time>
      </trkpt>
      <trkpt lat="44.49606" lon="3.74912">
        <ele>1150</ele>
        <time>2017-03-02T14:13:32Z</time>
      </trkpt>
      <trkpt lat="44.49581" lon="3.74886">
        <ele>1148</ele>
        <time>2017-03-02T14:15:32Z</time>
      </trkpt>
      <trkpt lat="44.49572" lon="3.74875">
        <ele>1147</ele>
        <time>2017-03-02T14:17:32Z</time>
      </trkpt>
      <trkpt lat="44.49552" lon="3.74849">
        <ele>1146</ele>
        <time>2017-03-02T14:19:32Z</time>
      </trkpt>
      <trkpt lat="44.49524" lon="3.7481">
        <ele>1144</ele>
        <time>2017-03-02T14:21:32Z</time>
      </trkpt>
      <trkpt lat="44.49514" lon="3.74795">
        <ele>1143</ele>
        <time>2017-03-02T14:23:32Z</time>
      </trkpt>
      <trkpt lat="44.49508" lon="3.74781">
        <ele>1142</ele>
        <time>2017-03-02T14:25:32Z</time>
      </trkpt>
      <trkpt lat="44.49502" lon="3.74769">
        <ele>1142</ele>
        <time>2017-03-02T14:27:32Z</time>
      </trkpt>
      <trkpt lat="44.49481" lon="3.74736">
        <ele>1140</ele>
        <time>2017-03-02T14:29:32Z</time>
      </trkpt>
      <trkpt lat="44.49469" lon="3.7472">
        <ele>1139</ele>
        <time>2017-03-02T14:31:32Z</time>
      </trkpt>
      <trkpt lat="44.49464" lon="3.74715">
        <ele>1139</ele>
        <time>2017-03-02T14:33:32Z</time>
      </trkpt>
      <trkpt lat="44.49448" lon="3.74706">
        <ele>1138</ele>
        <time>2017-03-02T14:35:32Z</time>
      </trkpt>
      <trkpt lat="44.49438" lon="3.74699">
        <ele>1138</ele>
        <time>2017-03-02T14:37:32Z</time>
      </trkpt>
      <trkpt lat="44.49428" lon="3.74688">
        <ele>1137</ele>
        <time>2017-03-02T14:39:32Z</time>
      </trkpt>
      <trkpt lat="44.49417" lon="3.74672">
        <ele>1137</ele>
        <time>2017-03-02T14:41:32Z</time>
      </trkpt>
      <trkpt lat="44.49407" lon="3.74647">
        <ele>1135</ele>
        <time>2017-03-02T14:43:32Z</time>
      </trkpt>
      <trkpt lat="44.49391" lon="3.74594">
        <ele>1132</ele>
        <time>2017-03-02T14:45:32Z</time>
      </trkpt>
      <trkpt lat="44.49369" lon="3.74534">
        <ele>1129</ele>
        <time>2017-03-02T14:47:32Z</time>
      </trkpt>
      <trkpt lat="44.49356" lon="3.74491">
        <ele>1126</ele>
        <time>2017-03-02T14:49:32Z</time>
      </trkpt>
      <trkpt lat="44.49353" lon="3.74481">
        <ele>1126</ele>
        <time>2017-03-02T14:51:32Z</time>
      </trkpt>
      <trkpt lat="44.4934" lon="3.74454">
        <ele>1124</ele>
        <time>2017-03-02T14:53:32Z</time>
      </trkpt>
      <trkpt lat="44.49329" lon="3.74441">
        <ele>1123</ele>
        <time>2017-03-02T14:55:32Z</time>
      </trkpt>
      <trkpt lat="44.49323" lon="3.74426">
        <ele>1121</ele>
        <time>2017-03-02T14:57:32Z</time>
      </trkpt>
      <trkpt lat="44.49316" lon="3.74414">
        <ele>1119</ele>
        <time>2017-03-02T14:59:32Z</time>
      </trkpt>
      <trkpt lat="44.49315" lon="3.74407">
        <ele>1119</ele>
        <time>2017-03-02T15:01:32Z</time>
      </trkpt>
      <trkpt lat="44.49313" lon="3.74401">
        <ele>1118</ele>
        <time>2017-03-02T15:03:32Z</time>
      </trkpt>
      <trkpt lat="44.49309" lon="3.74389">
        <ele>1117</ele>
        <time>2017-03-02T15:05:32Z</time>
      </trkpt>
      <trkpt lat="44.49309" lon="3.74387">
        <ele>1117</ele>
        <time>2017-03-02T15:07:32Z</time>
      </trkpt>
      <trkpt lat="44.49304" lon="3.74379">
        <ele>1116</ele>
        <time>2017-03-02T15:09:32Z</time>
      </trkpt>
      <trkpt lat="44.49297" lon="3.74371">
        <ele>1115</ele>
        <time>2017-03-02T15:11:32Z</time>
      </trkpt>
      <trkpt lat="44.49296" lon="3.74366">
        <ele>1114</ele>
        <time>2017-03-02T15:13:32Z</time>
      </trkpt>
      <trkpt lat="44.49293" lon="3.74361">
        <ele>1114</ele>
        <time>2017-03-02T15:15:32Z</time>
      </trkpt>
      <trkpt lat="44.49286" lon="3.74354">
        <ele>1113</ele>
        <time>2017-03-02T15:17:32Z</time>
      </trkpt>
      <trkpt lat="44.49278" lon="3.74351">
        <ele>1112</ele>
        <time>2017-03-02T15:19:32Z</time>
      </trkpt>
      <trkpt lat="44.49266" lon="3.7434">
        <ele>1110</ele>
        <time>2017-03-02T15:21:32Z</time>
      </trkpt>
      <trkpt lat="44.49258" lon="3.74327">
        <ele>1108</ele>
        <time>2017-03-02T15:23:32Z</time>
      </trkpt>
      <trkpt lat="44.49252" lon="3.74317">
        <ele>1107</ele>
        <time>2017-03-02T15:25:32Z</time>
      </trkpt>
      <trkpt lat="44.49245" lon="3.74309">
        <ele>1106</ele>
        <time>2017-03-02T15:27:32Z</time>
      </trkpt>
      <trkpt lat="44.49241" lon="3.74303">
        <ele>1104</ele>
        <time>2017-03-02T15:29:32Z</time>
      </trkpt>
      <trkpt lat="44.49239" lon="3.743">
        <ele>1104</ele>
        <time>2017-03-02T15:31:32Z</time>
      </trkpt>
      <trkpt lat="44.49238" lon="3.74298">
        <ele>1104</ele>
        <time>2017-03-02T15:33:32Z</time>
      </trkpt>
      <trkpt lat="44.49236" lon="3.74294">
        <ele>1103</ele>
        <time>2017-03-02T15:35:32Z</time>
      </trkpt>
      <trkpt lat="44.49232" lon="3.74283">
        <ele>1102</ele>
        <time>2017-03-02T15:37:32Z</time>
      </trkpt>
      <trkpt lat="44.49227" lon="3.74274">
        <ele>1100</ele>
        <time>2017-03-02T15:39:32Z</time>
      </trkpt>
      <trkpt lat="44.49213" lon="3.74258">
        <ele>1097</ele>
        <time>2017-03-02T15:41:32Z</time>
      </trkpt>
      <trkpt lat="44.49202" lon="3.74242">
        <ele>1095</ele>
        <time>2017-03-02T15:43:32Z</time>
      </trkpt>
      <trkpt lat="44.49189" lon="3.74224">
        <ele>1091</ele>
        <time>2017-03-02T15:45:32Z</time>
      </trkpt>
      <trkpt lat="44.49178" lon="3.74204">
        <ele>1088</ele>
        <time>2017-03-02T15:47:32Z</time>
      </trkpt>
      <trkpt lat="44.49173" lon="3.74197">
        <ele>1087</ele>
        <time>2017-03-02T15:49:32Z</time>
      </trkpt>
      <trkpt lat="44.49172" lon="3.74194">
        <ele>1087</ele>
        <time>2017-03-02T15:51:32Z</time>
      </trkpt>
      <trkpt lat="44.4917" lon="3.7419">
        <ele>1086</ele>
        <time>2017-03-02T15:53:32Z</time>
      </trkpt>
      <trkpt lat="44.49168" lon="3.74184">
        <ele>1085</ele>
        <time>2017-03-02T15:55:32Z</time>
      </trkpt>
      <trkpt lat="44.49165" lon="3.74169">
        <ele>1084</ele>
        <time>2017-03-02T15:57:32Z</time>
      </trkpt>
      <trkpt lat="44.49162" lon="3.74161">
        <ele>1083</ele>
        <time>2017-03-02T15:59:32Z</time>
      </trkpt>
      <trkpt lat="44.4916" lon="3.74154">
        <ele>1082</ele>
        <time>2017-03-02T16:01:32Z</time>
      </trkpt>
      <trkpt lat="44.49159" lon="3.74144">
        <ele>1081</ele>
        <time>2017-03-02T16:03:32Z</time>
      </trkpt>
      <trkpt lat="44.49158" lon="3.74137">
        <ele>1080</ele>
        <time>2017-03-02T16:05:32Z</time>
      </trkpt>
      <trkpt lat="44.49157" lon="3.74134">
        <ele>1080</ele>
        <time>2017-03-02T16:07:32Z</time>
      </trkpt>
      <trkpt lat="44.49156" lon="3.74133">
        <ele>1080</ele>
        <time>2017-03-02T16:09:32Z</time>
      </trkpt>
      <trkpt lat="44.49153" lon="3.74132">
        <ele>1079</ele>
        <time>2017-03-02T16:11:32Z</time>
      </trkpt>
      <trkpt lat="44.4915" lon="3.74133">
        <ele>1079</ele>
        <time>2017-03-02T16:13:32Z</time>
      </trkpt>
      <trkpt lat="44.49148" lon="3.74136">
        <ele>1079</ele>
        <time>2017-03-02T16:15:32Z</time>
      </trkpt>
      <trkpt lat="44.49146" lon="3.74142">
        <ele>1079</ele>
        <time>2017-03-02T16:17:32Z</time>
      </trkpt>
      <trkpt lat="44.49143" lon="3.7415">
        <ele>1079</ele>
        <time>2017-03-02T16:19:32Z</time>
      </trkpt>
      <trkpt lat="44.49142" lon="3.74165">
        <ele>1080</ele>
        <time>2017-03-02T16:21:32Z</time>
      </trkpt>
      <trkpt lat="44.49143" lon="3.74184">
        <ele>1082</ele>
        <time>2017-03-02T16:23:32Z</time>
      </trkpt>
      <trkpt lat="44.49145" lon="3.74213">
        <ele>1084</ele>
        <time>2017-03-02T16:25:32Z</time>
      </trkpt>
      <trkpt lat="44.49145" lon="3.74218">
        <ele>1084</ele>
        <time>2017-03-02T16:27:32Z</time>
      </trkpt>
      <trkpt lat="44.49145" lon="3.74222">
        <ele>1084</ele>
        <time>2017-03-02T16:29:32Z</time>
      </trkpt>
      <trkpt lat="44.49145" lon="3.74225">
        <ele>1085</ele>
        <time>2017-03-02T16:31:32Z</time>
      </trkpt>
      <trkpt lat="44.49144" lon="3.74227">
        <ele>1084</ele>
        <time>2017-03-02T16:33:32Z</time>
      </trkpt>
      <trkpt lat="44.49143" lon="3.74228">
        <ele>1084</ele>
        <time>2017-03-02T16:35:32Z</time>
      </trkpt>
      <trkpt lat="44.49142" lon="3.74229">
        <ele>1084</ele>
        <time>2017-03-02T16:37:32Z</time>
      </trkpt>
      <trkpt lat="44.4914" lon="3.74228">
        <ele>1084</ele>
        <time>2017-03-02T16:39:32Z</time>
      </trkpt>
      <trkpt lat="44.49138" lon="3.74223">
        <ele>1083</ele>
        <time>2017-03-02T16:41:32Z</time>
      </trkpt>
      <trkpt lat="44.49133" lon="3.74211">
        <ele>1082</ele>
        <time>2017-03-02T16:43:32Z</time>
      </trkpt>
      <trkpt lat="44.49132" lon="3.74206">
        <ele>1081</ele>
        <time>2017-03-02T16:45:32Z</time>
      </trkpt>
      <trkpt lat="44.49131" lon="3.74194">
        <ele>1080</ele>
        <time>2017-03-02T16:47:32Z</time>
      </trkpt>
      <trkpt lat="44.49129" lon="3.74188">
        <ele>1080</ele>
        <time>2017-03-02T16:49:32Z</time>
      </trkpt>
      <trkpt lat="44.49128" lon="3.74187">
        <ele>1080</ele>
        <time>2017-03-02T16:51:32Z</time>
      </trkpt>
      <trkpt lat="44.49127" lon="3.74186">
        <ele>1079</ele>
        <time>2017-03-02T16:53:32Z</time>
      </trkpt>
      <trkpt lat="44.49123" lon="3.74184">
        <ele>1079</ele>
        <time>2017-03-02T16:55:32Z</time>
      </trkpt>
      <trkpt lat="44.49123" lon="3.74184">
        <ele>1079</ele>
        <time>2017-03-02T16:57:32Z</time>
      </trkpt>
      <trkpt lat="44.49117" lon="3.74137">
        <ele>1076</ele>
        <time>2017-03-02T16:59:32Z</time>
      </trkpt>
      <trkpt lat="44.49114" lon="3.7412">
        <ele>1075</ele>
        <time>2017-03-02T17:01:32Z</time>
      </trkpt>
      <trkpt lat="44.4911" lon="3.74108">
        <ele>1074</ele>
        <time>2017-03-02T17:03:32Z</time>
      </trkpt>
      <trkpt lat="44.49109" lon="3.74104">
        <ele>1074</ele>
        <time>2017-03-02T17:05:32Z</time>
      </trkpt>
      <trkpt lat="44.49107" lon="3.74099">
        <ele>1074</ele>
        <time>2017-03-02T17:07:32Z</time>
      </trkpt>
      <trkpt lat="44.49105" lon="3.74094">
        <ele>1073</ele>
        <time>2017-03-02T17:09:32Z</time>
      </trkpt>
      <trkpt lat="44.491" lon="3.74086">
        <ele>1073</ele>
        <time>2017-03-02T17:11:32Z</time>
      </trkpt>
      <trkpt lat="44.49099" lon="3.74083">
        <ele>1073</ele>
        <time>2017-03-02T17:13:32Z</time>
      </trkpt>
      <trkpt lat="44.49089" lon="3.74071">
        <ele>1072</ele>
        <time>2017-03-02T17:15:32Z</time>
      </trkpt>
      <trkpt lat="44.49084" lon="3.74064">
        <ele>1072</ele>
        <time>2017-03-02T17:17:32Z</time>
      </trkpt>
      <trkpt lat="44.49068" lon="3.74047">
        <ele>1072</ele>
        <time>2017-03-02T17:19:32Z</time>
      </trkpt>
      <trkpt lat="44.49051" lon="3.74028">
        <ele>1071</ele>
        <time>2017-03-02T17:21:32Z</time>
      </trkpt>
      <trkpt lat="44.49037" lon="3.74011">
        <ele>1070</ele>
        <time>2017-03-02T17:23:32Z</time>
      </trkpt>
      <trkpt lat="44.49032" lon="3.74004">
        <ele>1070</ele>
        <time>2017-03-02T17:25:32Z</time>
      </trkpt>
      <trkpt lat="44.49031" lon="3.74002">
        <ele>1070</ele>
        <time>2017-03-02T17:27:32Z</time>
      </trkpt>
      <trkpt lat="44.4903" lon="3.73998">
        <ele>1070</ele>
        <time>2017-03-02T17:29:32Z</time>
      </trkpt>
      <trkpt lat="44.49025" lon="3.7399">
        <ele>1070</ele>
        <time>2017-03-02T17:31:32Z</time>
      </trkpt>
      <trkpt lat="44.4902" lon="3.73968">
        <ele>1070</ele>
        <time>2017-03-02T17:33:32Z</time>
      </trkpt>
      <trkpt lat="44.49017" lon="3.73958">
        <ele>1070</ele>
        <time>2017-03-02T17:35:32Z</time>
      </trkpt>
      <trkpt lat="44.49016" lon="3.73947">
        <ele>1070</ele>
        <time>2017-03-02T17:37:32Z</time>
      </trkpt>
      <trkpt lat="44.49016" lon="3.73947">
        <ele>1070</ele>
        <time>2017-03-02T17:39:32Z</time>
      </trkpt>
      <trkpt lat="44.49007" lon="3.73946">
        <ele>1069</ele>
        <time>2017-03-02T17:41:32Z</time>
      </trkpt>
      <trkpt lat="44.4899" lon="3.73941">
        <ele>1069</ele>
        <time>2017-03-02T17:43:32Z</time>
      </trkpt>
      <trkpt lat="44.48948" lon="3.73932">
        <ele>1069</ele>
        <time>2017-03-02T17:45:32Z</time>
      </trkpt>
      <trkpt lat="44.48938" lon="3.73929">
        <ele>1069</ele>
        <time>2017-03-02T17:47:32Z</time>
      </trkpt>
      <trkpt lat="44.48934" lon="3.73927">
        <ele>1068</ele>
        <time>2017-03-02T17:49:32Z</time>
      </trkpt>
      <trkpt lat="44.48929" lon="3.73925">
        <ele>1068</ele>
        <time>2017-03-02T17:51:32Z</time>
      </trkpt>
      <trkpt lat="44.48928" lon="3.73923">
        <ele>1068</ele>
        <time>2017-03-02T17:53:32Z</time>
      </trkpt>
      <trkpt lat="44.48925" lon="3.73921">
        <ele>1068</ele>
        <time>2017-03-02T17:55:32Z</time>
      </trkpt>
      <trkpt lat="44.48922" lon="3.73917">
        <ele>1068</ele>
        <time>2017-03-02T17:57:32Z</time>
      </trkpt>
      <trkpt lat="44.48919" lon="3.73911">
        <ele>1068</ele>
        <time>2017-03-02T17:59:32Z</time>
      </trkpt>
      <trkpt lat="44.48915" lon="3.73898">
        <ele>1068</ele>
        <time>2017-03-02T18:01:32Z</time>
      </trkpt>
      <trkpt lat="44.48908" lon="3.73862">
        <ele>1070</ele>
        <time>2017-03-02T18:03:32Z</time>
      </trkpt>
      <trkpt lat="44.48904" lon="3.73846">
        <ele>1071</ele>
        <time>2017-03-02T18:05:32Z</time>
      </trkpt>
      <trkpt lat="44.48902" lon="3.7384">
        <ele>1071</ele>
        <time>2017-03-02T18:07:32Z</time>
      </trkpt>
      <trkpt lat="44.48897" lon="3.73817">
        <ele>1072</ele>
        <time>2017-03-02T18:09:32Z</time>
      </trkpt>
      <trkpt lat="44.48894" lon="3.73796">
        <ele>1072</ele>
        <time>2017-03-02T18:11:32Z</time>
      </trkpt>
      <trkpt lat="44.48889" lon="3.73773">
        <ele>1072</ele>
        <time>2017-03-02T18:13:32Z</time>
      </trkpt>
      <trkpt lat="44.48889" lon="3.73771">
        <ele>1072</ele>
        <time>2017-03-02T18:15:32Z</time>
      </trkpt>
      <trkpt lat="44.48883" lon="3.73752">
        <ele>1073</ele>
        <time>2017-03-02T18:17:32Z</time>
      </trkpt>
      <trkpt lat="44.48874" lon="3.73727">
        <ele>1073</ele>
        <time>2017-03-02T18:19:32Z</time>
      </trkpt>
      <trkpt lat="44.48865" lon="3.73703">
        <ele>1072</ele>
        <time>2017-03-02T18:21:32Z</time>
      </trkpt>
      <trkpt lat="44.48851" lon="3.73679">
        <ele>1072</ele>
        <time>2017-03-02T18:23:32Z</time>
      </trkpt>
      <trkpt lat="44.48834" lon="3.73644">
        <ele>1071</ele>
        <time>2017-03-02T18:25:32Z</time>
      </trkpt>
      <trkpt lat="44.48833" lon="3.73643">
        <ele>1071</ele>
        <time>2017-03-02T18:27:32Z</time>
      </trkpt>
      <trkpt lat="44.48804" lon="3.73593">
        <ele>1071</ele>
        <time>2017-03-02T18:29:32Z</time>
      </trkpt>
      <trkpt lat="44.48786" lon="3.73563">
        <ele>1071</ele>
        <time>2017-03-02T18:31:32Z</time>
      </trkpt>
      <trkpt lat="44.48774" lon="3.73546">
        <ele>1071</ele>
        <time>2017-03-02T18:33:32Z</time>
      </trkpt>
      <trkpt lat="44.48765" lon="3.73537">
        <ele>1071</ele>
        <time>2017-03-02T18:35:32Z</time>
      </trkpt>
      <trkpt lat="44.48742" lon="3.7352">
        <ele>1071</ele>
        <time>2017-03-02T18:37:32Z</time>
      </trkpt>
      <trkpt lat="44.48708" lon="3.73495">
        <ele>1070</ele>
        <time>2017-03-02T18:39:32Z</time>
      </trkpt>
      <trkpt lat="44.4867" lon="3.73469">
        <ele>1070</ele>
        <time>2017-03-02T18:41:32Z</time>
      </trkpt>
      <trkpt lat="44.48655" lon="3.73458">
        <ele>1070</ele>
        <time>2017-03-02T18:43:32Z</time>
      </trkpt>
      <trkpt lat="44.48642" lon="3.7345">
        <ele>1071</ele>
        <time>2017-03-02T18:45:32Z</time>
      </trkpt>
      <trkpt lat="44.48631" lon="3.73447">
        <ele>1071</ele>
        <time>2017-03-02T18:47:32Z</time>
      </trkpt>
      <trkpt lat="44.48615" lon="3.73443">
        <ele>1071</ele>
        <time>2017-03-02T18:49:32Z</time>
      </trkpt>
      <trkpt lat="44.48615" lon="3.73443">
        <ele>1071</ele>
        <time>2017-03-02T18:51:32Z</time>
      </trkpt>
      <trkpt lat="44.48613" lon="3.73433">
        <ele>1071</ele>
        <time>2017-03-02T18:53:32Z</time>
      </trkpt>
      <trkpt lat="44.48612" lon="3.73424">
        <ele>1070</ele>
        <time>2017-03-02T18:55:32Z</time>
      </trkpt>
      <trkpt lat="44.48612" lon="3.73423">
        <ele>1070</ele>
        <time>2017-03-02T18:57:32Z</time>
      </trkpt>
      <trkpt lat="44.4861" lon="3.73406">
        <ele>1071</ele>
        <time>2017-03-02T18:59:32Z</time>
      </trkpt>
      <trkpt lat="44.48608" lon="3.73398">
        <ele>1071</ele>
        <time>2017-03-02T19:01:32Z</time>
      </trkpt>
      <trkpt lat="44.48604" lon="3.7339">
        <ele>1072</ele>
        <time>2017-03-02T19:03:32Z</time>
      </trkpt>
      <trkpt lat="44.48595" lon="3.73377">
        <ele>1073</ele>
        <time>2017-03-02T19:05:32Z</time>
      </trkpt>
      <trkpt lat="44.48579" lon="3.73358">
        <ele>1074</ele>
        <time>2017-03-02T19:07:32Z</time>
      </trkpt>
      <trkpt lat="44.48566" lon="3.73337">
        <ele>1075</ele>
        <time>2017-03-02T19:09:32Z</time>
      </trkpt>
      <trkpt lat="44.48555" lon="3.73326">
        <ele>1076</ele>
        <time>2017-03-02T19:11:32Z</time>
      </trkpt>
      <trkpt lat="44.4854" lon="3.73309">
        <ele>1077</ele>
        <time>2017-03-02T19:13:32Z</time>
      </trkpt>
      <trkpt lat="44.48527" lon="3.73295">
        <ele>1078</ele>
        <time>2017-03-02T19:15:32Z</time>
      </trkpt>
      <trkpt lat="44.48514" lon="3.73282">
        <ele>1079</ele>
        <time>2017-03-02T19:17:32Z</time>
      </trkpt>
      <trkpt lat="44.48504" lon="3.7327">
        <ele>1080</ele>
        <time>2017-03-02T19:19:32Z</time>
      </trkpt>
      <trkpt lat="44.48504" lon="3.7327">
        <ele>1080</ele>
        <time>2017-03-02T19:21:32Z</time>
      </trkpt>
      <trkpt lat="44.48513" lon="3.73255">
        <ele>1082</ele>
        <time>2017-03-02T19:23:32Z</time>
      </trkpt>
      <trkpt lat="44.48516" lon="3.73244">
        <ele>1083</ele>
        <time>2017-03-02T19:25:32Z</time>
      </trkpt>
      <trkpt lat="44.48517" lon="3.73239">
        <ele>1084</ele>
        <time>2017-03-02T19:27:32Z</time>
      </trkpt>
      <trkpt lat="44.48517" lon="3.73239">
        <ele>1084</ele>
        <time>2017-03-02T19:29:32Z</time>
      </trkpt>
      <trkpt lat="44.48516" lon="3.73233">
        <ele>1085</ele>
        <time>2017-03-02T19:31:32Z</time>
      </trkpt>
      <trkpt lat="44.48511" lon="3.73215">
        <ele>1087</ele>
        <time>2017-03-02T19:33:32Z</time>
      </trkpt>
      <trkpt lat="44.48509" lon="3.73206">
        <ele>1089</ele>
        <time>2017-03-02T19:35:32Z</time>
      </trkpt>
      <trkpt lat="44.48509" lon="3.73198">
        <ele>1090</ele>
        <time>2017-03-02T19:37:32Z</time>
      </trkpt>
      <trkpt lat="44.48511" lon="3.73192">
        <ele>1091</ele>
        <time>2017-03-02T19:39:32Z</time>
      </trkpt>
      <trkpt lat="44.48517" lon="3.73176">
        <ele>1094</ele>
        <time>2017-03-02T19:41:32Z</time>
      </trkpt>
      <trkpt lat="44.4852" lon="3.73169">
        <ele>1095</ele>
        <time>2017-03-02T19:43:32Z</time>
      </trkpt>
      <trkpt lat="44.4852" lon="3.73168">
        <ele>1095</ele>
        <time>2017-03-02T19:45:32Z</time>
      </trkpt>
      <trkpt lat="44.4852" lon="3.73164">
        <ele>1096</ele>
        <time>2017-03-02T19:47:32Z</time>
      </trkpt>
      <trkpt lat="44.48526" lon="3.73158">
        <ele>1097</ele>
        <time>2017-03-02T19:49:32Z</time>
      </trkpt>
      <trkpt lat="44.48529" lon="3.73154">
        <ele>1098</ele>
        <time>2017-03-02T19:51:32Z</time>
      </trkpt>
      <trkpt lat="44.4853" lon="3.73148">
        <ele>1099</ele>
        <time>2017-03-02T19:53:32Z</time>
      </trkpt>
      <trkpt lat="44.48531" lon="3.73141">
        <ele>1101</ele>
        <time>2017-03-02T19:55:32Z</time>
      </trkpt>
      <trkpt lat="44.48535" lon="3.7313">
        <ele>1103</ele>
        <time>2017-03-02T19:57:32Z</time>
      </trkpt>
      <trkpt lat="44.48539" lon="3.73119">
        <ele>1105</ele>
        <time>2017-03-02T19:59:32Z</time>
      </trkpt>
      <trkpt lat="44.48543" lon="3.73114">
        <ele>1106</ele>
        <time>2017-03-02T20:01:32Z</time>
      </trkpt>
      <trkpt lat="44.48546" lon="3.73107">
        <ele>1107</ele>
        <time>2017-03-02T20:03:32Z</time>
      </trkpt>
      <trkpt lat="44.48549" lon="3.73099">
        <ele>1109</ele>
        <time>2017-03-02T20:05:32Z</time>
      </trkpt>
      <trkpt lat="44.4855" lon="3.7309">
        <ele>1110</ele>
        <time>2017-03-02T20:07:32Z</time>
      </trkpt>
      <trkpt lat="44.4855" lon="3.7309">
        <ele>1110</ele>
        <time>2017-03-02T20:09:32Z</time>
      </trkpt>
      <trkpt lat="44.48546" lon="3.73093">
        <ele>1110</ele>
        <time>2017-03-02T20:11:32Z</time>
      </trkpt>
      <trkpt lat="44.4854" lon="3.73098">
        <ele>1109</ele>
        <time>2017-03-02T20:13:32Z</time>
      </trkpt>
      <trkpt lat="44.48535" lon="3.73102">
        <ele>1108</ele>
        <time>2017-03-02T20:15:32Z</time>
      </trkpt>
      <trkpt lat="44.48534" lon="3.73103">
        <ele>1108</ele>
        <time>2017-03-02T20:17:32Z</time>
      </trkpt>
      <trkpt lat="44.48532" lon="3.73103">
        <ele>1108</ele>
        <time>2017-03-02T20:19:32Z</time>
      </trkpt>
      <trkpt lat="44.48529" lon="3.73103">
        <ele>1108</ele>
        <time>2017-03-02T20:21:32Z</time>
      </trkpt>
      <trkpt lat="44.48528" lon="3.73102">
        <ele>1108</ele>
        <time>2017-03-02T20:23:32Z</time>
      </trkpt>
      <trkpt lat="44.48526" lon="3.73099">
        <ele>1109</ele>
        <time>2017-03-02T20:25:32Z</time>
      </trkpt>
      <trkpt lat="44.48525" lon="3.73095">
        <ele>1110</ele>
        <time>2017-03-02T20:27:32Z</time>
      </trkpt>
      <trkpt lat="44.48522" lon="3.73089">
        <ele>1111</ele>
        <time>2017-03-02T20:29:32Z</time>
      </trkpt>
      <trkpt lat="44.4852" lon="3.73086">
        <ele>1112</ele>
        <time>2017-03-02T20:31:32Z</time>
      </trkpt>
      <trkpt lat="44.48517" lon="3.73083">
        <ele>1112</ele>
        <time>2017-03-02T20:33:32Z</time>
      </trkpt>
      <trkpt lat="44.48511" lon="3.7308">
        <ele>1113</ele>
        <time>2017-03-02T20:35:32Z</time>
      </trkpt>
      <trkpt lat="44.48501" lon="3.73075">
        <ele>1115</ele>
        <time>2017-03-02T20:37:32Z</time>
      </trkpt>
      <trkpt lat="44.48487" lon="3.73072">
        <ele>1117</ele>
        <time>2017-03-02T20:39:32Z</time>
      </trkpt>
      <trkpt lat="44.48478" lon="3.7307">
        <ele>1117</ele>
        <time>2017-03-02T20:41:32Z</time>
      </trkpt>
      <trkpt lat="44.48474" lon="3.73067">
        <ele>1118</ele>
        <time>2017-03-02T20:43:32Z</time>
      </trkpt>
      <trkpt lat="44.48471" lon="3.73064">
        <ele>1119</ele>
        <time>2017-03-02T20:45:32Z</time>
      </trkpt>
      <trkpt lat="44.48467" lon="3.73059">
        <ele>1121</ele>
        <time>2017-03-02T20:47:32Z</time>
      </trkpt>
      <trkpt lat="44.48466" lon="3.73055">
        <ele>1122</ele>
        <time>2017-03-02T20:49:32Z</time>
      </trkpt>
      <trkpt lat="44.48466" lon="3.7305">
        <ele>1123</ele>
        <time>2017-03-02T20:51:32Z</time>
      </trkpt>
      <trkpt lat="44.48469" lon="3.73039">
        <ele>1126</ele>
        <time>2017-03-02T20:53:32Z</time>
      </trkpt>
      <trkpt lat="44.48469" lon="3.73038">
        <ele>1126</ele>
        <time>2017-03-02T20:55:32Z</time>
      </trkpt>
      <trkpt lat="44.48468" lon="3.73034">
        <ele>1127</ele>
        <time>2017-03-02T20:57:32Z</time>
      </trkpt>
      <trkpt lat="44.48471" lon="3.73023">
        <ele>1130</ele>
        <time>2017-03-02T20:59:32Z</time>
      </trkpt>
      <trkpt lat="44.48473" lon="3.73018">
        <ele>1131</ele>
        <time>2017-03-02T21:01:32Z</time>
      </trkpt>
      <trkpt lat="44.48477" lon="3.7301">
        <ele>1134</ele>
        <time>2017-03-02T21:03:32Z</time>
      </trkpt>
      <trkpt lat="44.48481" lon="3.73">
        <ele>1136</ele>
        <time>2017-03-02T21:05:32Z</time>
      </trkpt>
      <trkpt lat="44.48483" lon="3.72979">
        <ele>1140</ele>
        <time>2017-03-02T21:07:32Z</time>
      </trkpt>
      <trkpt lat="44.48487" lon="3.72956">
        <ele>1144</ele>
        <time>2017-03-02T21:09:32Z</time>
      </trkpt>
      <trkpt lat="44.48486" lon="3.72935">
        <ele>1147</ele>
        <time>2017-03-02T21:11:32Z</time>
      </trkpt>
      <trkpt lat="44.48487" lon="3.72913">
        <ele>1151</ele>
        <time>2017-03-02T21:13:32Z</time>
      </trkpt>
      <trkpt lat="44.48487" lon="3.72891">
        <ele>1154</ele>
        <time>2017-03-02T21:15:32Z</time>
      </trkpt>
      <trkpt lat="44.48485" lon="3.72881">
        <ele>1155</ele>
        <time>2017-03-02T21:17:32Z</time>
      </trkpt>
      <trkpt lat="44.48479" lon="3.72872">
        <ele>1156</ele>
        <time>2017-03-02T21:19:32Z</time>
      </trkpt>
      <trkpt lat="44.48469" lon="3.7286">
        <ele>1156</ele>
        <time>2017-03-02T21:21:32Z</time>
      </trkpt>
      <trkpt lat="44.48467" lon="3.72856">
        <ele>1156</ele>
        <time>2017-03-02T21:23:32Z</time>
      </trkpt>
      <trkpt lat="44.48467" lon="3.72848">
        <ele>1157</ele>
        <time>2017-03-02T21:25:32Z</time>
      </trkpt>
      <trkpt lat="44.48469" lon="3.72831">
        <ele>1159</ele>
        <time>2017-03-02T21:27:32Z</time>
      </trkpt>
      <trkpt lat="44.48465" lon="3.72788">
        <ele>1161</ele>
        <time>2017-03-02T21:29:32Z</time>
      </trkpt>
      <trkpt lat="44.48461" lon="3.72764">
        <ele>1162</ele>
        <time>2017-03-02T21:31:32Z</time>
      </trkpt>
      <trkpt lat="44.4846" lon="3.72741">
        <ele>1163</ele>
        <time>2017-03-02T21:33:32Z</time>
      </trkpt>
      <trkpt lat="44.48462" lon="3.7271">
        <ele>1165</ele>
        <time>2017-03-02T21:35:32Z</time>
      </trkpt>
      <trkpt lat="44.48463" lon="3.72689">
        <ele>1166</ele>
        <time>2017-03-02T21:37:32Z</time>
      </trkpt>
      <trkpt lat="44.4846" lon="3.72653">
        <ele>1167</ele>
        <time>2017-03-02T21:39:32Z</time>
      </trkpt>
      <trkpt lat="44.48461" lon="3.72625">
        <ele>1170</ele>
        <time>2017-03-02T21:41:32Z</time>
      </trkpt>
      <trkpt lat="44.48459" lon="3.72606">
        <ele>1171</ele>
        <time>2017-03-02T21:43:32Z</time>
      </trkpt>
      <trkpt lat="44.4845" lon="3.72561">
        <ele>1173</ele>
        <time>2017-03-02T21:45:32Z</time>
      </trkpt>
      <trkpt lat="44.4844" lon="3.72521">
        <ele>1175</ele>
        <time>2017-03-02T21:47:32Z</time>
      </trkpt>
      <trkpt lat="44.48431" lon="3.72461">
        <ele>1182</ele>
        <time>2017-03-02T21:49:32Z</time>
      </trkpt>
      <trkpt lat="44.48415" lon="3.72429">
        <ele>1183</ele>
        <time>2017-03-02T21:51:32Z</time>
      </trkpt>
      <trkpt lat="44.48413" lon="3.72426">
        <ele>1184</ele>
        <time>2017-03-02T21:53:32Z</time>
      </trkpt>
      <trkpt lat="44.48382" lon="3.72402">
        <ele>1191</ele>
        <time>2017-03-02T21:55:32Z</time>
      </trkpt>
      <trkpt lat="44.48379" lon="3.72401">
        <ele>1191</ele>
        <time>2017-03-02T21:57:32Z</time>
      </trkpt>
      <trkpt lat="44.48339" lon="3.72392">
        <ele>1196</ele>
        <time>2017-03-02T21:59:32Z</time>
      </trkpt>
      <trkpt lat="44.48317" lon="3.72397">
        <ele>1197</ele>
        <time>2017-03-02T22:01:32Z</time>
      </trkpt>
      <trkpt lat="44.48302" lon="3.72396">
        <ele>1199</ele>
        <time>2017-03-02T22:03:32Z</time>
      </trkpt>
      <trkpt lat="44.48289" lon="3.7239">
        <ele>1201</ele>
        <time>2017-03-02T22:05:32Z</time>
      </trkpt>
      <trkpt lat="44.48287" lon="3.72388">
        <ele>1201</ele>
        <time>2017-03-02T22:07:32Z</time>
      </trkpt>
      <trkpt lat="44.4828" lon="3.72379">
        <ele>1203</ele>
        <time>2017-03-02T22:09:32Z</time>
      </trkpt>
      <trkpt lat="44.48272" lon="3.72364">
        <ele>1205</ele>
        <time>2017-03-02T22:11:32Z</time>
      </trkpt>
      <trkpt lat="44.48261" lon="3.72341">
        <ele>1207</ele>
        <time>2017-03-02T22:13:32Z</time>
      </trkpt>
      <trkpt lat="44.48242" lon="3.72293">
        <ele>1206</ele>
        <time>2017-03-02T22:15:32Z</time>
      </trkpt>
      <trkpt lat="44.48233" lon="3.72273">
        <ele>1204</ele>
        <time>2017-03-02T22:17:32Z</time>
      </trkpt>
      <trkpt lat="44.48223" lon="3.72251">
        <ele>1202</ele>
        <time>2017-03-02T22:19:32Z</time>
      </trkpt>
      <trkpt lat="44.48219" lon="3.72241">
        <ele>1201</ele>
        <time>2017-03-02T22:21:32Z</time>
      </trkpt>
      <trkpt lat="44.48213" lon="3.72221">
        <ele>1198</ele>
        <time>2017-03-02T22:23:32Z</time>
      </trkpt>
      <trkpt lat="44.48211" lon="3.72215">
        <ele>1197</ele>
        <time>2017-03-02T22:25:32Z</time>
      </trkpt>
      <trkpt lat="44.48202" lon="3.72183">
        <ele>1192</ele>
        <time>2017-03-02T22:27:32Z</time>
      </trkpt>
      <trkpt lat="44.4819" lon="3.72141">
        <ele>1186</ele>
        <time>2017-03-02T22:29:32Z</time>
      </trkpt>
      <trkpt lat="44.48186" lon="3.72125">
        <ele>1183</ele>
        <time>2017-03-02T22:31:32Z</time>
      </trkpt>
      <trkpt lat="44.48181" lon="3.72104">
        <ele>1181</ele>
        <time>2017-03-02T22:33:32Z</time>
      </trkpt>
      <trkpt lat="44.48177" lon="3.72081">
        <ele>1178</ele>
        <time>2017-03-02T22:35:32Z</time>
      </trkpt>
      <trkpt lat="44.48176" lon="3.72061">
        <ele>1177</ele>
        <time>2017-03-02T22:37:32Z</time>
      </trkpt>
      <trkpt lat="44.48174" lon="3.72044">
        <ele>1177</ele>
        <time>2017-03-02T22:39:32Z</time>
      </trkpt>
      <trkpt lat="44.48174" lon="3.72043">
        <ele>1177</ele>
        <time>2017-03-02T22:41:32Z</time>
      </trkpt>
      <trkpt lat="44.48171" lon="3.72037">
        <ele>1176</ele>
        <time>2017-03-02T22:43:32Z</time>
      </trkpt>
      <trkpt lat="44.48171" lon="3.72036">
        <ele>1176</ele>
        <time>2017-03-02T22:45:32Z</time>
      </trkpt>
      <trkpt lat="44.48162" lon="3.72023">
        <ele>1175</ele>
        <time>2017-03-02T22:47:32Z</time>
      </trkpt>
      <trkpt lat="44.48148" lon="3.72005">
        <ele>1174</ele>
        <time>2017-03-02T22:49:32Z</time>
      </trkpt>
      <trkpt lat="44.48143" lon="3.71997">
        <ele>1173</ele>
        <time>2017-03-02T22:51:32Z</time>
      </trkpt>
      <trkpt lat="44.48138" lon="3.71987">
        <ele>1173</ele>
        <time>2017-03-02T22:53:32Z</time>
      </trkpt>
      <trkpt lat="44.48126" lon="3.71955">
        <ele>1171</ele>
        <time>2017-03-02T22:55:32Z</time>
      </trkpt>
      <trkpt lat="44.48122" lon="3.71949">
        <ele>1170</ele>
        <time>2017-03-02T22:57:32Z</time>
      </trkpt>
      <trkpt lat="44.48112" lon="3.71933">
        <ele>1169</ele>
        <time>2017-03-02T22:59:32Z</time>
      </trkpt>
      <trkpt lat="44.48109" lon="3.71927">
        <ele>1169</ele>
        <time>2017-03-02T23:01:32Z</time>
      </trkpt>
      <trkpt lat="44.48109" lon="3.71927">
        <ele>1169</ele>
        <time>2017-03-02T23:03:32Z</time>
      </trkpt>
      <trkpt lat="44.48137" lon="3.71918">
        <ele>1171</ele>
        <time>2017-03-02T23:05:32Z</time>
      </trkpt>
      <trkpt lat="44.48146" lon="3.71912">
        <ele>1171</ele>
        <time>2017-03-02T23:07:32Z</time>
      </trkpt>
      <trkpt lat="44.48148" lon="3.71911">
        <ele>1171</ele>
        <time>2017-03-02T23:09:32Z</time>
      </trkpt>
      <trkpt lat="44.48155" lon="3.71901">
        <ele>1170</ele>
        <time>2017-03-02T23:11:32Z</time>
      </trkpt>
      <trkpt lat="44.4816" lon="3.7189">
        <ele>1168</ele>
        <time>2017-03-02T23:13:32Z</time>
      </trkpt>
      <trkpt lat="44.48164" lon="3.7188">
        <ele>1167</ele>
        <time>2017-03-02T23:15:32Z</time>
      </trkpt>
      <trkpt lat="44.48171" lon="3.71856">
        <ele>1165</ele>
        <time>2017-03-02T23:17:32Z</time>
      </trkpt>
      <trkpt lat="44.48178" lon="3.71834">
        <ele>1163</ele>
        <time>2017-03-02T23:19:32Z</time>
      </trkpt>
      <trkpt lat="44.48181" lon="3.71736">
        <ele>1157</ele>
        <time>2017-03-02T23:21:32Z</time>
      </trkpt>
      <trkpt lat="44.48181" lon="3.71731">
        <ele>1157</ele>
        <time>2017-03-02T23:23:32Z</time>
      </trkpt>
      <trkpt lat="44.48174" lon="3.71686">
        <ele>1156</ele>
        <time>2017-03-02T23:25:32Z</time>
      </trkpt>
      <trkpt lat="44.48173" lon="3.71684">
        <ele>1155</ele>
        <time>2017-03-02T23:27:32Z</time>
      </trkpt>
      <trkpt lat="44.48172" lon="3.71682">
        <ele>1155</ele>
        <time>2017-03-02T23:29:32Z</time>
      </trkpt>
      <trkpt lat="44.48137" lon="3.71636">
        <ele>1151</ele>
        <time>2017-03-02T23:31:32Z</time>
      </trkpt>
      <trkpt lat="44.48109" lon="3.71609">
        <ele>1148</ele>
        <time>2017-03-02T23:33:32Z</time>
      </trkpt>
      <trkpt lat="44.48109" lon="3.71609">
        <ele>1148</ele>
        <time>2017-03-02T23:35:32Z</time>
      </trkpt>
      <trkpt lat="44.48073" lon="3.71541">
        <ele>1146</ele>
        <time>2017-03-02T23:37:32Z</time>
      </trkpt>
      <trkpt lat="44.4807" lon="3.71534">
        <ele>1145</ele>
        <time>2017-03-02T23:39:32Z</time>
      </trkpt>
      <trkpt lat="44.4803" lon="3.71414">
        <ele>1138</ele>
        <time>2017-03-02T23:41:32Z</time>
      </trkpt>
      <trkpt lat="44.47997" lon="3.71275">
        <ele>1128</ele>
        <time>2017-03-02T23:43:32Z</time>
      </trkpt>
      <trkpt lat="44.47995" lon="3.71267">
        <ele>1128</ele>
        <time>2017-03-02T23:45:32Z</time>
      </trkpt>
      <trkpt lat="44.47994" lon="3.71263">
        <ele>1127</ele>
        <time>2017-03-02T23:47:32Z</time>
      </trkpt>
      <trkpt lat="44.47991" lon="3.71256">
        <ele>1127</ele>
        <time>2017-03-02T23:49:32Z</time>
      </trkpt>
      <trkpt lat="44.47991" lon="3.71256">
        <ele>1127</ele>
        <time>2017-03-02T23:51:32Z</time>
      </trkpt>
      <trkpt lat="44.47989" lon="3.71243">
        <ele>1125</ele>
        <time>2017-03-02T23:53:32Z</time>
      </trkpt>
      <trkpt lat="44.47988" lon="3.71226">
        <ele>1123</ele>
        <time>2017-03-02T23:55:32Z</time>
      </trkpt>
      <trkpt lat="44.47987" lon="3.71213">
        <ele>1122</ele>
        <time>2017-03-02T23:57:32Z</time>
      </trkpt>
      <trkpt lat="44.47989" lon="3.71193">
        <ele>1120</ele>
        <time>2017-03-02T23:59:32Z</time>
      </trkpt>
      <trkpt lat="44.47993" lon="3.71173">
        <ele>1119</ele>
        <time>2017-03-03T00:01:32Z</time>
      </trkpt>
      <trkpt lat="44.47996" lon="3.71164">
        <ele>1119</ele>
        <time>2017-03-03T00:03:32Z</time>
      </trkpt>
      <trkpt lat="44.47997" lon="3.71156">
        <ele>1118</ele>
        <time>2017-03-03T00:05:32Z</time>
      </trkpt>
      <trkpt lat="44.47998" lon="3.71152">
        <ele>1117</ele>
        <time>2017-03-03T00:07:32Z</time>
      </trkpt>
      <trkpt lat="44.47997" lon="3.71148">
        <ele>1116</ele>
        <time>2017-03-03T00:09:32Z</time>
      </trkpt>
      <trkpt lat="44.47997" lon="3.71145">
        <ele>1116</ele>
        <time>2017-03-03T00:11:32Z</time>
      </trkpt>
      <trkpt lat="44.47996" lon="3.71142">
        <ele>1115</ele>
        <time>2017-03-03T00:13:32Z</time>
      </trkpt>
      <trkpt lat="44.47994" lon="3.71138">
        <ele>1114</ele>
        <time>2017-03-03T00:15:32Z</time>
      </trkpt>
      <trkpt lat="44.47991" lon="3.71135">
        <ele>1113</ele>
        <time>2017-03-03T00:17:32Z</time>
      </trkpt>
      <trkpt lat="44.47989" lon="3.71134">
        <ele>1112</ele>
        <time>2017-03-03T00:19:32Z</time>
      </trkpt>
      <trkpt lat="44.47981" lon="3.71131">
        <ele>1110</ele>
        <time>2017-03-03T00:21:32Z</time>
      </trkpt>
      <trkpt lat="44.47959" lon="3.71124">
        <ele>1105</ele>
        <time>2017-03-03T00:23:32Z</time>
      </trkpt>
      <trkpt lat="44.47951" lon="3.71123">
        <ele>1103</ele>
        <time>2017-03-03T00:25:32Z</time>
      </trkpt>
      <trkpt lat="44.47946" lon="3.71124">
        <ele>1102</ele>
        <time>2017-03-03T00:27:32Z</time>
      </trkpt>
      <trkpt lat="44.47939" lon="3.71128">
        <ele>1102</ele>
        <time>2017-03-03T00:29:32Z</time>
      </trkpt>
      <trkpt lat="44.47932" lon="3.71139">
        <ele>1102</ele>
        <time>2017-03-03T00:31:32Z</time>
      </trkpt>
      <trkpt lat="44.47931" lon="3.7114">
        <ele>1102</ele>
        <time>2017-03-03T00:33:32Z</time>
      </trkpt>
      <trkpt lat="44.4793" lon="3.71141">
        <ele>1102</ele>
        <time>2017-03-03T00:35:32Z</time>
      </trkpt>
      <trkpt lat="44.47929" lon="3.71141">
        <ele>1102</ele>
        <time>2017-03-03T00:37:32Z</time>
      </trkpt>
      <trkpt lat="44.47928" lon="3.71141">
        <ele>1102</ele>
        <time>2017-03-03T00:39:32Z</time>
      </trkpt>
      <trkpt lat="44.47927" lon="3.7114">
        <ele>1102</ele>
        <time>2017-03-03T00:41:32Z</time>
      </trkpt>
      <trkpt lat="44.47927" lon="3.71138">
        <ele>1101</ele>
        <time>2017-03-03T00:43:32Z</time>
      </trkpt>
      <trkpt lat="44.47928" lon="3.71132">
        <ele>1100</ele>
        <time>2017-03-03T00:45:32Z</time>
      </trkpt>
      <trkpt lat="44.47931" lon="3.71124">
        <ele>1100</ele>
        <time>2017-03-03T00:47:32Z</time>
      </trkpt>
      <trkpt lat="44.47937" lon="3.7111">
        <ele>1098</ele>
        <time>2017-03-03T00:49:32Z</time>
      </trkpt>
      <trkpt lat="44.47949" lon="3.71087">
        <ele>1097</ele>
        <time>2017-03-03T00:51:32Z</time>
      </trkpt>
      <trkpt lat="44.47972" lon="3.71046">
        <ele>1095</ele>
        <time>2017-03-03T00:53:32Z</time>
      </trkpt>
      <trkpt lat="44.47992" lon="3.71004">
        <ele>1089</ele>
        <time>2017-03-03T00:55:32Z</time>
      </trkpt>
      <trkpt lat="44.48004" lon="3.70976">
        <ele>1086</ele>
        <time>2017-03-03T00:57:32Z</time>
      </trkpt>
      <trkpt lat="44.48011" lon="3.70957">
        <ele>1084</ele>
        <time>2017-03-03T00:59:32Z</time>
      </trkpt>
      <trkpt lat="44.48022" lon="3.70934">
        <ele>1082</ele>
        <time>2017-03-03T01:01:32Z</time>
      </trkpt>
      <trkpt lat="44.48033" lon="3.70915">
        <ele>1080</ele>
        <time>2017-03-03T01:03:32Z</time>
      </trkpt>
      <trkpt lat="44.48034" lon="3.70909">
        <ele>1079</ele>
        <time>2017-03-03T01:05:32Z</time>
      </trkpt>
      <trkpt lat="44.48034" lon="3.70906">
        <ele>1079</ele>
        <time>2017-03-03T01:07:32Z</time>
      </trkpt>
      <trkpt lat="44.48033" lon="3.70904">
        <ele>1079</ele>
        <time>2017-03-03T01:09:32Z</time>
      </trkpt>
      <trkpt lat="44.48033" lon="3.70904">
        <ele>1079</ele>
        <time>2017-03-03T01:11:32Z</time>
      </trkpt>
      <trkpt lat="44.48031" lon="3.70902">
        <ele>1079</ele>
        <time>2017-03-03T01:13:32Z</time>
      </trkpt>
      <trkpt lat="44.48021" lon="3.709">
        <ele>1078</ele>
        <time>2017-03-03T01:15:32Z</time>
      </trkpt>
      <trkpt lat="44.48003" lon="3.70902">
        <ele>1077</ele>
        <time>2017-03-03T01:17:32Z</time>
      </trkpt>
      <trkpt lat="44.47988" lon="3.70905">
        <ele>1077</ele>
        <time>2017-03-03T01:19:32Z</time>
      </trkpt>
      <trkpt lat="44.47983" lon="3.70904">
        <ele>1077</ele>
        <time>2017-03-03T01:21:32Z</time>
      </trkpt>
      <trkpt lat="44.47981" lon="3.70903">
        <ele>1077</ele>
        <time>2017-03-03T01:23:32Z</time>
      </trkpt>
      <trkpt lat="44.4798" lon="3.70902">
        <ele>1077</ele>
        <time>2017-03-03T01:25:32Z</time>
      </trkpt>
      <trkpt lat="44.47979" lon="3.709">
        <ele>1077</ele>
        <time>2017-03-03T01:27:32Z</time>
      </trkpt>
      <trkpt lat="44.47977" lon="3.70897">
        <ele>1077</ele>
        <time>2017-03-03T01:29:32Z</time>
      </trkpt>
      <trkpt lat="44.47976" lon="3.70879">
        <ele>1076</ele>
        <time>2017-03-03T01:31:32Z</time>
      </trkpt>
      <trkpt lat="44.47973" lon="3.70841">
        <ele>1073</ele>
        <time>2017-03-03T01:33:32Z</time>
      </trkpt>
      <trkpt lat="44.47973" lon="3.70841">
        <ele>1073</ele>
        <time>2017-03-03T01:35:32Z</time>
      </trkpt>
      <trkpt lat="44.4796" lon="3.70839">
        <ele>1073</ele>
        <time>2017-03-03T01:37:32Z</time>
      </trkpt>
      <trkpt lat="44.4796" lon="3.70839">
        <ele>1073</ele>
        <time>2017-03-03T01:39:32Z</time>
      </trkpt>
      <trkpt lat="44.47963" lon="3.70818">
        <ele>1074</ele>
        <time>2017-03-03T01:41:32Z</time>
      </trkpt>
      <trkpt lat="44.47964" lon="3.70807">
        <ele>1074</ele>
        <time>2017-03-03T01:43:32Z</time>
      </trkpt>
      <trkpt lat="44.47965" lon="3.70802">
        <ele>1075</ele>
        <time>2017-03-03T01:45:32Z</time>
      </trkpt>
      <trkpt lat="44.47965" lon="3.70801">
        <ele>1075</ele>
        <time>2017-03-03T01:47:32Z</time>
      </trkpt>
      <trkpt lat="44.47967" lon="3.70798">
        <ele>1075</ele>
        <time>2017-03-03T01:49:32Z</time>
      </trkpt>
      <trkpt lat="44.47967" lon="3.70797">
        <ele>1075</ele>
        <time>2017-03-03T01:51:32Z</time>
      </trkpt>
      <trkpt lat="44.47969" lon="3.70795">
        <ele>1075</ele>
        <time>2017-03-03T01:53:32Z</time>
      </trkpt>
      <trkpt lat="44.47976" lon="3.70786">
        <ele>1075</ele>
        <time>2017-03-03T01:55:32Z</time>
      </trkpt>
      <trkpt lat="44.48001" lon="3.70757">
        <ele>1077</ele>
        <time>2017-03-03T01:57:32Z</time>
      </trkpt>
      <trkpt lat="44.48012" lon="3.70744">
        <ele>1077</ele>
        <time>2017-03-03T01:59:32Z</time>
      </trkpt>
      <trkpt lat="44.4803" lon="3.70723">
        <ele>1078</ele>
        <time>2017-03-03T02:01:32Z</time>
      </trkpt>
      <trkpt lat="44.48043" lon="3.70708">
        <ele>1078</ele>
        <time>2017-03-03T02:03:32Z</time>
      </trkpt>
      <trkpt lat="44.48051" lon="3.70699">
        <ele>1079</ele>
        <time>2017-03-03T02:05:32Z</time>
      </trkpt>
      <trkpt lat="44.48057" lon="3.70692">
        <ele>1079</ele>
        <time>2017-03-03T02:07:32Z</time>
      </trkpt>
      <trkpt lat="44.48065" lon="3.70679">
        <ele>1080</ele>
        <time>2017-03-03T02:09:32Z</time>
      </trkpt>
      <trkpt lat="44.48084" lon="3.70647">
        <ele>1082</ele>
        <time>2017-03-03T02:11:32Z</time>
      </trkpt>
      <trkpt lat="44.48095" lon="3.70627">
        <ele>1085</ele>
        <time>2017-03-03T02:13:32Z</time>
      </trkpt>
      <trkpt lat="44.48102" lon="3.70613">
        <ele>1087</ele>
        <time>2017-03-03T02:15:32Z</time>
      </trkpt>
      <trkpt lat="44.48105" lon="3.70608">
        <ele>1087</ele>
        <time>2017-03-03T02:17:32Z</time>
      </trkpt>
      <trkpt lat="44.48106" lon="3.70607">
        <ele>1088</ele>
        <time>2017-03-03T02:19:32Z</time>
      </trkpt>
      <trkpt lat="44.4811" lon="3.70605">
        <ele>1088</ele>
        <time>2017-03-03T02:21:32Z</time>
      </trkpt>
      <trkpt lat="44.4811" lon="3.70605">
        <ele>1088</ele>
        <time>2017-03-03T02:23:32Z</time>
      </trkpt>
      <trkpt lat="44.4811" lon="3.70596">
        <ele>1089</ele>
        <time>2017-03-03T02:25:32Z</time>
      </trkpt>
      <trkpt lat="44.4811" lon="3.70592">
        <ele>1090</ele>
        <time>2017-03-03T02:27:32Z</time>
      </trkpt>
      <trkpt lat="44.4811" lon="3.70584">
        <ele>1091</ele>
        <time>2017-03-03T02:29:32Z</time>
      </trkpt>
      <trkpt lat="44.48108" lon="3.70565">
        <ele>1092</ele>
        <time>2017-03-03T02:31:32Z</time>
      </trkpt>
      <trkpt lat="44.48103" lon="3.70535">
        <ele>1094</ele>
        <time>2017-03-03T02:33:32Z</time>
      </trkpt>
      <trkpt lat="44.48102" lon="3.7052">
        <ele>1095</ele>
        <time>2017-03-03T02:35:32Z</time>
      </trkpt>
      <trkpt lat="44.48103" lon="3.70498">
        <ele>1097</ele>
        <time>2017-03-03T02:37:32Z</time>
      </trkpt>
      <trkpt lat="44.48105" lon="3.70486">
        <ele>1098</ele>
        <time>2017-03-03T02:39:32Z</time>
      </trkpt>
      <trkpt lat="44.48106" lon="3.70483">
        <ele>1098</ele>
        <time>2017-03-03T02:41:32Z</time>
      </trkpt>
      <trkpt lat="44.48109" lon="3.70476">
        <ele>1099</ele>
        <time>2017-03-03T02:43:32Z</time>
      </trkpt>
      <trkpt lat="44.48113" lon="3.70471">
        <ele>1100</ele>
        <time>2017-03-03T02:45:32Z</time>
      </trkpt>
      <trkpt lat="44.48119" lon="3.70463">
        <ele>1102</ele>
        <time>2017-03-03T02:47:32Z</time>
      </trkpt>
      <trkpt lat="44.48119" lon="3.70463">
        <ele>1102</ele>
        <time>2017-03-03T02:49:32Z</time>
      </trkpt>
      <trkpt lat="44.48122" lon="3.70466">
        <ele>1102</ele>
        <time>2017-03-03T02:51:32Z</time>
      </trkpt>
      <trkpt lat="44.48127" lon="3.7047">
        <ele>1103</ele>
        <time>2017-03-03T02:53:32Z</time>
      </trkpt>
      <trkpt lat="44.48127" lon="3.7047">
        <ele>1103</ele>
        <time>2017-03-03T02:55:32Z</time>
      </trkpt>
      <trkpt lat="44.48144" lon="3.70462">
        <ele>1107</ele>
        <time>2017-03-03T02:57:32Z</time>
      </trkpt>
      <trkpt lat="44.48159" lon="3.70451">
        <ele>1110</ele>
        <time>2017-03-03T02:59:32Z</time>
      </trkpt>
      <trkpt lat="44.48169" lon="3.70438">
        <ele>1113</ele>
        <time>2017-03-03T03:01:32Z</time>
      </trkpt>
      <trkpt lat="44.48177" lon="3.70417">
        <ele>1115</ele>
        <time>2017-03-03T03:03:32Z</time>
      </trkpt>
      <trkpt lat="44.48193" lon="3.70388">
        <ele>1120</ele>
        <time>2017-03-03T03:05:32Z</time>
      </trkpt>
      <trkpt lat="44.48212" lon="3.70363">
        <ele>1125</ele>
        <time>2017-03-03T03:07:32Z</time>
      </trkpt>
      <trkpt lat="44.48229" lon="3.70335">
        <ele>1130</ele>
        <time>2017-03-03T03:09:32Z</time>
      </trkpt>
      <trkpt lat="44.48231" lon="3.70329">
        <ele>1131</ele>
        <time>2017-03-03T03:11:32Z</time>
      </trkpt>
      <trkpt lat="44.48235" lon="3.70293">
        <ele>1134</ele>
        <time>2017-03-03T03:13:32Z</time>
      </trkpt>
      <trkpt lat="44.48237" lon="3.70287">
        <ele>1134</ele>
        <time>2017-03-03T03:15:32Z</time>
      </trkpt>
      <trkpt lat="44.4825" lon="3.70267">
        <ele>1138</ele>
        <time>2017-03-03T03:17:32Z</time>
      </trkpt>
      <trkpt lat="44.48265" lon="3.70252">
        <ele>1140</ele>
        <time>2017-03-03T03:19:32Z</time>
      </trkpt>
      <trkpt lat="44.48279" lon="3.70231">
        <ele>1142</ele>
        <time>2017-03-03T03:21:32Z</time>
      </trkpt>
      <trkpt lat="44.48289" lon="3.70215">
        <ele>1143</ele>
        <time>2017-03-03T03:23:32Z</time>
      </trkpt>
      <trkpt lat="44.48291" lon="3.70211">
        <ele>1143</ele>
        <time>2017-03-03T03:25:32Z</time>
      </trkpt>
      <trkpt lat="44.48303" lon="3.70159">
        <ele>1144</ele>
        <time>2017-03-03T03:27:32Z</time>
      </trkpt>
      <trkpt lat="44.48311" lon="3.70086">
        <ele>1147</ele>
        <time>2017-03-03T03:29:32Z</time>
      </trkpt>
      <trkpt lat="44.48324" lon="3.69974">
        <ele>1153</ele>
        <time>2017-03-03T03:31:32Z</time>
      </trkpt>
      <trkpt lat="44.48324" lon="3.69972">
        <ele>1153</ele>
        <time>2017-03-03T03:33:32Z</time>
      </trkpt>
      <trkpt lat="44.4834" lon="3.6995">
        <ele>1153</ele>
        <time>2017-03-03T03:35:32Z</time>
      </trkpt>
      <trkpt lat="44.48343" lon="3.69929">
        <ele>1154</ele>
        <time>2017-03-03T03:37:32Z</time>
      </trkpt>
      <trkpt lat="44.48345" lon="3.69916">
        <ele>1155</ele>
        <time>2017-03-03T03:39:32Z</time>
      </trkpt>
      <trkpt lat="44.48345" lon="3.69907">
        <ele>1156</ele>
        <time>2017-03-03T03:41:32Z</time>
      </trkpt>
      <trkpt lat="44.48348" lon="3.69898">
        <ele>1156</ele>
        <time>2017-03-03T03:43:32Z</time>
      </trkpt>
      <trkpt lat="44.48354" lon="3.69863">
        <ele>1158</ele>
        <time>2017-03-03T03:45:32Z</time>
      </trkpt>
      <trkpt lat="44.48363" lon="3.69809">
        <ele>1160</ele>
        <time>2017-03-03T03:47:32Z</time>
      </trkpt>
      <trkpt lat="44.48368" lon="3.69782">
        <ele>1161</ele>
        <time>2017-03-03T03:49:32Z</time>
      </trkpt>
      <trkpt lat="44.48374" lon="3.69758">
        <ele>1162</ele>
        <time>2017-03-03T03:51:32Z</time>
      </trkpt>
      <trkpt lat="44.48378" lon="3.69743">
        <ele>1163</ele>
        <time>2017-03-03T03:53:32Z</time>
      </trkpt>
      <trkpt lat="44.48384" lon="3.69725">
        <ele>1163</ele>
        <time>2017-03-03T03:55:32Z</time>
      </trkpt>
      <trkpt lat="44.48392" lon="3.69706">
        <ele>1163</ele>
        <time>2017-03-03T03:57:32Z</time>
      </trkpt>
      <trkpt lat="44.48403" lon="3.69677">
        <ele>1164</ele>
        <time>2017-03-03T03:59:32Z</time>
      </trkpt>
      <trkpt lat="44.48412" lon="3.69653">
        <ele>1164</ele>
        <time>2017-03-03T04:01:32Z</time>
      </trkpt>
      <trkpt lat="44.48423" lon="3.69629">
        <ele>1166</ele>
        <time>2017-03-03T04:03:32Z</time>
      </trkpt>
      <trkpt lat="44.48434" lon="3.69604">
        <ele>1167</ele>
        <time>2017-03-03T04:05:32Z</time>
      </trkpt>
      <trkpt lat="44.48439" lon="3.69588">
        <ele>1168</ele>
        <time>2017-03-03T04:07:32Z</time>
      </trkpt>
      <trkpt lat="44.48447" lon="3.69567">
        <ele>1169</ele>
        <time>2017-03-03T04:09:32Z</time>
      </trkpt>
      <trkpt lat="44.48459" lon="3.69534">
        <ele>1169</ele>
        <time>2017-03-03T04:11:32Z</time>
      </trkpt>
      <trkpt lat="44.48467" lon="3.69513">
        <ele>1169</ele>
        <time>2017-03-03T04:13:32Z</time>
      </trkpt>
      <trkpt lat="44.48472" lon="3.69492">
        <ele>1169</ele>
        <time>2017-03-03T04:15:32Z</time>
      </trkpt>
      <trkpt lat="44.48476" lon="3.69464">
        <ele>1170</ele>
        <time>2017-03-03T04:17:32Z</time>
      </trkpt>
      <trkpt lat="44.48479" lon="3.69433">
        <ele>1171</ele>
        <time>2017-03-03T04:19:32Z</time>
      </trkpt>
      <trkpt lat="44.4848" lon="3.69395">
        <ele>1172</ele>
        <time>2017-03-03T04:21:32Z</time>
      </trkpt>
      <trkpt lat="44.48482" lon="3.6936">
        <ele>1171</ele>
        <time>2017-03-03T04:23:32Z</time>
      </trkpt>
      <trkpt lat="44.48482" lon="3.6936">
        <ele>1171</ele>
        <time>2017-03-03T04:25:32Z</time>
      </trkpt>
      <trkpt lat="44.48478" lon="3.69359">
        <ele>1172</ele>
        <time>2017-03-03T04:27:32Z</time>
      </trkpt>
      <trkpt lat="44.48478" lon="3.69359">
        <ele>1172</ele>
        <time>2017-03-03T04:29:32Z</time>
      </trkpt>
      <trkpt lat="44.48479" lon="3.69354">
        <ele>1172</ele>
        <time>2017-03-03T04:31:32Z</time>
      </trkpt>
      <trkpt lat="44.48479" lon="3.69352">
        <ele>1172</ele>
        <time>2017-03-03T04:33:32Z</time>
      </trkpt>
      <trkpt lat="44.48479" lon="3.69342">
        <ele>1172</ele>
        <time>2017-03-03T04:35:32Z</time>
      </trkpt>
      <trkpt lat="44.48476" lon="3.6933">
        <ele>1172</ele>
        <time>2017-03-03T04:37:32Z</time>
      </trkpt>
      <trkpt lat="44.48475" lon="3.69329">
        <ele>1172</ele>
        <time>2017-03-03T04:39:32Z</time>
      </trkpt>
      <trkpt lat="44.4847" lon="3.6932">
        <ele>1171</ele>
        <time>2017-03-03T04:41:32Z</time>
      </trkpt>
      <trkpt lat="44.48461" lon="3.69303">
        <ele>1171</ele>
        <time>2017-03-03T04:43:32Z</time>
      </trkpt>
      <trkpt lat="44.48456" lon="3.69294">
        <ele>1170</ele>
        <time>2017-03-03T04:45:32Z</time>
      </trkpt>
      <trkpt lat="44.48451" lon="3.69283">
        <ele>1169</ele>
        <time>2017-03-03T04:47:32Z</time>
      </trkpt>
      <trkpt lat="44.48448" lon="3.69276">
        <ele>1169</ele>
        <time>2017-03-03T04:49:32Z</time>
      </trkpt>
      <trkpt lat="44.48445" lon="3.69269">
        <ele>1168</ele>
        <time>2017-03-03T04:51:32Z</time>
      </trkpt>
      <trkpt lat="44.48443" lon="3.69256">
        <ele>1167</ele>
        <time>2017-03-03T04:53:32Z</time>
      </trkpt>
      <trkpt lat="44.48441" lon="3.6924">
        <ele>1165</ele>
        <time>2017-03-03T04:55:32Z</time>
      </trkpt>
      <trkpt lat="44.48441" lon="3.6924">
        <ele>1165</ele>
        <time>2017-03-03T04:57:32Z</time>
      </trkpt>
      <trkpt lat="44.4843" lon="3.6924">
        <ele>1165</ele>
        <time>2017-03-03T04:59:32Z</time>
      </trkpt>
      <trkpt lat="44.48422" lon="3.69239">
        <ele>1165</ele>
        <time>2017-03-03T05:01:32Z</time>
      </trkpt>
      <trkpt lat="44.48409" lon="3.69232">
        <ele>1165</ele>
        <time>2017-03-03T05:03:32Z</time>
      </trkpt>
      <trkpt lat="44.48383" lon="3.69216">
        <ele>1167</ele>
        <time>2017-03-03T05:05:32Z</time>
      </trkpt>
      <trkpt lat="44.48357" lon="3.692">
        <ele>1168</ele>
        <time>2017-03-03T05:07:32Z</time>
      </trkpt>
      <trkpt lat="44.48341" lon="3.69188">
        <ele>1168</ele>
        <time>2017-03-03T05:09:32Z</time>
      </trkpt>
      <trkpt lat="44.48335" lon="3.69182">
        <ele>1168</ele>
        <time>2017-03-03T05:11:32Z</time>
      </trkpt>
      <trkpt lat="44.48331" lon="3.69173">
        <ele>1167</ele>
        <time>2017-03-03T05:13:32Z</time>
      </trkpt>
      <trkpt lat="44.48328" lon="3.69162">
        <ele>1167</ele>
        <time>2017-03-03T05:15:32Z</time>
      </trkpt>
      <trkpt lat="44.48325" lon="3.69145">
        <ele>1167</ele>
        <time>2017-03-03T05:17:32Z</time>
      </trkpt>
      <trkpt lat="44.48324" lon="3.69135">
        <ele>1166</ele>
        <time>2017-03-03T05:19:32Z</time>
      </trkpt>
      <trkpt lat="44.48323" lon="3.69119">
        <ele>1166</ele>
        <time>2017-03-03T05:21:32Z</time>
      </trkpt>
      <trkpt lat="44.4832" lon="3.69082">
        <ele>1165</ele>
        <time>2017-03-03T05:23:32Z</time>
      </trkpt>
      <trkpt lat="44.48321" lon="3.69034">
        <ele>1164</ele>
        <time>2017-03-03T05:25:32Z</time>
      </trkpt>
      <trkpt lat="44.4832" lon="3.69019">
        <ele>1165</ele>
        <time>2017-03-03T05:27:32Z</time>
      </trkpt>
      <trkpt lat="44.48319" lon="3.69009">
        <ele>1165</ele>
        <time>2017-03-03T05:29:32Z</time>
      </trkpt>
      <trkpt lat="44.48317" lon="3.68997">
        <ele>1166</ele>
        <time>2017-03-03T05:31:32Z</time>
      </trkpt>
      <trkpt lat="44.48314" lon="3.68972">
        <ele>1169</ele>
        <time>2017-03-03T05:33:32Z</time>
      </trkpt>
      <trkpt lat="44.48313" lon="3.68942">
        <ele>1171</ele>
        <time>2017-03-03T05:35:32Z</time>
      </trkpt>
      <trkpt lat="44.48314" lon="3.68925">
        <ele>1172</ele>
        <time>2017-03-03T05:37:32Z</time>
      </trkpt>
      <trkpt lat="44.48325" lon="3.68903">
        <ele>1169</ele>
        <time>2017-03-03T05:39:32Z</time>
      </trkpt>
      <trkpt lat="44.48336" lon="3.68881">
        <ele>1168</ele>
        <time>2017-03-03T05:41:32Z</time>
      </trkpt>
      <trkpt lat="44.48352" lon="3.68857">
        <ele>1164</ele>
        <time>2017-03-03T05:43:32Z</time>
      </trkpt>
      <trkpt lat="44.48374" lon="3.68824">
        <ele>1159</ele>
        <time>2017-03-03T05:45:32Z</time>
      </trkpt>
      <trkpt lat="44.48375" lon="3.68821">
        <ele>1158</ele>
        <time>2017-03-03T05:47:32Z</time>
      </trkpt>
      <trkpt lat="44.48379" lon="3.68793">
        <ele>1157</ele>
        <time>2017-03-03T05:49:32Z</time>
      </trkpt>
      <trkpt lat="44.48379" lon="3.6879">
        <ele>1157</ele>
        <time>2017-03-03T05:51:32Z</time>
      </trkpt>
      <trkpt lat="44.48379" lon="3.68782">
        <ele>1157</ele>
        <time>2017-03-03T05:53:32Z</time>
      </trkpt>
      <trkpt lat="44.48379" lon="3.68766">
        <ele>1157</ele>
        <time>2017-03-03T05:55:32Z</time>
      </trkpt>
      <trkpt lat="44.48378" lon="3.68763">
        <ele>1157</ele>
        <time>2017-03-03T05:57:32Z</time>
      </trkpt>
      <trkpt lat="44.48373" lon="3.6874">
        <ele>1157</ele>
        <time>2017-03-03T05:59:32Z</time>
      </trkpt>
      <trkpt lat="44.48362" lon="3.68718">
        <ele>1158</ele>
        <time>2017-03-03T06:01:32Z</time>
      </trkpt>
      <trkpt lat="44.48345" lon="3.6869">
        <ele>1159</ele>
        <time>2017-03-03T06:03:32Z</time>
      </trkpt>
      <trkpt lat="44.48327" lon="3.68663">
        <ele>1162</ele>
        <time>2017-03-03T06:05:32Z</time>
      </trkpt>
      <trkpt lat="44.48322" lon="3.68656">
        <ele>1163</ele>
        <time>2017-03-03T06:07:32Z</time>
      </trkpt>
      <trkpt lat="44.48317" lon="3.68649">
        <ele>1165</ele>
        <time>2017-03-03T06:09:32Z</time>
      </trkpt>
      <trkpt lat="44.48313" lon="3.68643">
        <ele>1166</ele>
        <time>2017-03-03T06:11:32Z</time>
      </trkpt>
      <trkpt lat="44.4831" lon="3.68633">
        <ele>1166</ele>
        <time>2017-03-03T06:13:32Z</time>
      </trkpt>
      <trkpt lat="44.48306" lon="3.68611">
        <ele>1167</ele>
        <time>2017-03-03T06:15:32Z</time>
      </trkpt>
      <trkpt lat="44.48303" lon="3.68596">
        <ele>1168</ele>
        <time>2017-03-03T06:17:32Z</time>
      </trkpt>
      <trkpt lat="44.48301" lon="3.68583">
        <ele>1169</ele>
        <time>2017-03-03T06:19:32Z</time>
      </trkpt>
      <trkpt lat="44.483" lon="3.68563">
        <ele>1169</ele>
        <time>2017-03-03T06:21:32Z</time>
      </trkpt>
      <trkpt lat="44.483" lon="3.6856">
        <ele>1169</ele>
        <time>2017-03-03T06:23:32Z</time>
      </trkpt>
      <trkpt lat="44.48301" lon="3.68549">
        <ele>1169</ele>
        <time>2017-03-03T06:25:32Z</time>
      </trkpt>
      <trkpt lat="44.48302" lon="3.68533">
        <ele>1168</ele>
        <time>2017-03-03T06:27:32Z</time>
      </trkpt>
      <trkpt lat="44.48302" lon="3.68527">
        <ele>1168</ele>
        <time>2017-03-03T06:29:32Z</time>
      </trkpt>
      <trkpt lat="44.48302" lon="3.68521">
        <ele>1168</ele>
        <time>2017-03-03T06:31:32Z</time>
      </trkpt>
      <trkpt lat="44.48301" lon="3.68515">
        <ele>1169</ele>
        <time>2017-03-03T06:33:32Z</time>
      </trkpt>
      <trkpt lat="44.48299" lon="3.68509">
        <ele>1169</ele>
        <time>2017-03-03T06:35:32Z</time>
      </trkpt>
      <trkpt lat="44.48281" lon="3.68461">
        <ele>1176</ele>
        <time>2017-03-03T06:37:32Z</time>
      </trkpt>
      <trkpt lat="44.48274" lon="3.68441">
        <ele>1179</ele>
        <time>2017-03-03T06:39:32Z</time>
      </trkpt>
      <trkpt lat="44.48272" lon="3.68433">
        <ele>1180</ele>
        <time>2017-03-03T06:41:32Z</time>
      </trkpt>
      <trkpt lat="44.48272" lon="3.68422">
        <ele>1180</ele>
        <time>2017-03-03T06:43:32Z</time>
      </trkpt>
      <trkpt lat="44.48273" lon="3.68404">
        <ele>1180</ele>
        <time>2017-03-03T06:45:32Z</time>
      </trkpt>
      <trkpt lat="44.48281" lon="3.68356">
        <ele>1177</ele>
        <time>2017-03-03T06:47:32Z</time>
      </trkpt>
      <trkpt lat="44.48288" lon="3.68317">
        <ele>1174</ele>
        <time>2017-03-03T06:49:32Z</time>
      </trkpt>
      <trkpt lat="44.48289" lon="3.68304">
        <ele>1173</ele>
        <time>2017-03-03T06:51:32Z</time>
      </trkpt>
      <trkpt lat="44.48288" lon="3.68293">
        <ele>1173</ele>
        <time>2017-03-03T06:53:32Z</time>
      </trkpt>
      <trkpt lat="44.48285" lon="3.68278">
        <ele>1174</ele>
        <time>2017-03-03T06:55:32Z</time>
      </trkpt>
      <trkpt lat="44.4828" lon="3.68263">
        <ele>1175</ele>
        <time>2017-03-03T06:57:32Z</time>
      </trkpt>
      <trkpt lat="44.48271" lon="3.68247">
        <ele>1178</ele>
        <time>2017-03-03T06:59:32Z</time>
      </trkpt>
      <trkpt lat="44.48248" lon="3.68217">
        <ele>1183</ele>
        <time>2017-03-03T07:01:32Z</time>
      </trkpt>
      <trkpt lat="44.48239" lon="3.68204">
        <ele>1186</ele>
        <time>2017-03-03T07:03:32Z</time>
      </trkpt>
      <trkpt lat="44.48232" lon="3.68189">
        <ele>1188</ele>
        <time>2017-03-03T07:05:32Z</time>
      </trkpt>
      <trkpt lat="44.48228" lon="3.68173">
        <ele>1188</ele>
        <time>2017-03-03T07:07:32Z</time>
      </trkpt>
      <trkpt lat="44.48226" lon="3.68155">
        <ele>1188</ele>
        <time>2017-03-03T07:09:32Z</time>
      </trkpt>
      <trkpt lat="44.48226" lon="3.68142">
        <ele>1188</ele>
        <time>2017-03-03T07:11:32Z</time>
      </trkpt>
      <trkpt lat="44.48226" lon="3.68128">
        <ele>1188</ele>
        <time>2017-03-03T07:13:32Z</time>
      </trkpt>
      <trkpt lat="44.48222" lon="3.68103">
        <ele>1190</ele>
        <time>2017-03-03T07:15:32Z</time>
      </trkpt>
      <trkpt lat="44.48217" lon="3.68078">
        <ele>1193</ele>
        <time>2017-03-03T07:17:32Z</time>
      </trkpt>
      <trkpt lat="44.48216" lon="3.6806">
        <ele>1194</ele>
        <time>2017-03-03T07:19:32Z</time>
      </trkpt>
      <trkpt lat="44.48215" lon="3.68052">
        <ele>1195</ele>
        <time>2017-03-03T07:21:32Z</time>
      </trkpt>
      <trkpt lat="44.48216" lon="3.68044">
        <ele>1195</ele>
        <time>2017-03-03T07:23:32Z</time>
      </trkpt>
      <trkpt lat="44.48217" lon="3.68034">
        <ele>1195</ele>
        <time>2017-03-03T07:25:32Z</time>
      </trkpt>
      <trkpt lat="44.48224" lon="3.68012">
        <ele>1193</ele>
        <time>2017-03-03T07:27:32Z</time>
      </trkpt>
      <trkpt lat="44.48232" lon="3.67979">
        <ele>1192</ele>
        <time>2017-03-03T07:29:32Z</time>
      </trkpt>
      <trkpt lat="44.48235" lon="3.67969">
        <ele>1192</ele>
        <time>2017-03-03T07:31:32Z</time>
      </trkpt>
      <trkpt lat="44.48236" lon="3.67958">
        <ele>1192</ele>
        <time>2017-03-03T07:33:32Z</time>
      </trkpt>
      <trkpt lat="44.48236" lon="3.67948">
        <ele>1193</ele>
        <time>2017-03-03T07:35:32Z</time>
      </trkpt>
      <trkpt lat="44.48234" lon="3.67935">
        <ele>1195</ele>
        <time>2017-03-03T07:37:32Z</time>
      </trkpt>
      <trkpt lat="44.4823" lon="3.67917">
        <ele>1197</ele>
        <time>2017-03-03T07:39:32Z</time>
      </trkpt>
      <trkpt lat="44.48228" lon="3.67897">
        <ele>1197</ele>
        <time>2017-03-03T07:41:32Z</time>
      </trkpt>
      <trkpt lat="44.48228" lon="3.67875">
        <ele>1197</ele>
        <time>2017-03-03T07:43:32Z</time>
      </trkpt>
      <trkpt lat="44.48228" lon="3.67857">
        <ele>1196</ele>
        <time>2017-03-03T07:45:32Z</time>
      </trkpt>
      <trkpt lat="44.48227" lon="3.6785">
        <ele>1196</ele>
        <time>2017-03-03T07:47:32Z</time>
      </trkpt>
      <trkpt lat="44.48226" lon="3.67844">
        <ele>1196</ele>
        <time>2017-03-03T07:49:32Z</time>
      </trkpt>
      <trkpt lat="44.48224" lon="3.67838">
        <ele>1196</ele>
        <time>2017-03-03T07:51:32Z</time>
      </trkpt>
      <trkpt lat="44.48221" lon="3.67833">
        <ele>1196</ele>
        <time>2017-03-03T07:53:32Z</time>
      </trkpt>
      <trkpt lat="44.48215" lon="3.67826">
        <ele>1195</ele>
        <time>2017-03-03T07:55:32Z</time>
      </trkpt>
      <trkpt lat="44.48202" lon="3.67818">
        <ele>1195</ele>
        <time>2017-03-03T07:57:32Z</time>
      </trkpt>
      <trkpt lat="44.48185" lon="3.6781">
        <ele>1195</ele>
        <time>2017-03-03T07:59:32Z</time>
      </trkpt>
      <trkpt lat="44.48169" lon="3.67804">
        <ele>1195</ele>
        <time>2017-03-03T08:01:32Z</time>
      </trkpt>
      <trkpt lat="44.48148" lon="3.67797">
        <ele>1196</ele>
        <time>2017-03-03T08:03:32Z</time>
      </trkpt>
      <trkpt lat="44.48129" lon="3.67791">
        <ele>1198</ele>
        <time>2017-03-03T08:05:32Z</time>
      </trkpt>
      <trkpt lat="44.48111" lon="3.67782">
        <ele>1198</ele>
        <time>2017-03-03T08:07:32Z</time>
      </trkpt>
      <trkpt lat="44.481" lon="3.67776">
        <ele>1198</ele>
        <time>2017-03-03T08:09:32Z</time>
      </trkpt>
      <trkpt lat="44.48087" lon="3.67771">
        <ele>1198</ele>
        <time>2017-03-03T08:11:32Z</time>
      </trkpt>
      <trkpt lat="44.4808" lon="3.67768">
        <ele>1199</ele>
        <time>2017-03-03T08:13:32Z</time>
      </trkpt>
      <trkpt lat="44.48077" lon="3.67766">
        <ele>1199</ele>
        <time>2017-03-03T08:15:32Z</time>
      </trkpt>
      <trkpt lat="44.48074" lon="3.67763">
        <ele>1199</ele>
        <time>2017-03-03T08:17:32Z</time>
      </trkpt>
      <trkpt lat="44.48063" lon="3.6775">
        <ele>1198</ele>
        <time>2017-03-03T08:19:32Z</time>
      </trkpt>
      <trkpt lat="44.48048" lon="3.67729">
        <ele>1199</ele>
        <time>2017-03-03T08:21:32Z</time>
      </trkpt>
      <trkpt lat="44.48027" lon="3.67695">
        <ele>1200</ele>
        <time>2017-03-03T08:23:32Z</time>
      </trkpt>
      <trkpt lat="44.48011" lon="3.67667">
        <ele>1201</ele>
        <time>2017-03-03T08:25:32Z</time>
      </trkpt>
      <trkpt lat="44.47993" lon="3.67645">
        <ele>1202</ele>
        <time>2017-03-03T08:27:32Z</time>
      </trkpt>
      <trkpt lat="44.47981" lon="3.67634">
        <ele>1201</ele>
        <time>2017-03-03T08:29:32Z</time>
      </trkpt>
      <trkpt lat="44.47966" lon="3.67628">
        <ele>1201</ele>
        <time>2017-03-03T08:31:32Z</time>
      </trkpt>
      <trkpt lat="44.47958" lon="3.67627">
        <ele>1201</ele>
        <time>2017-03-03T08:33:32Z</time>
      </trkpt>
      <trkpt lat="44.47945" lon="3.67629">
        <ele>1201</ele>
        <time>2017-03-03T08:35:32Z</time>
      </trkpt>
      <trkpt lat="44.47936" lon="3.67632">
        <ele>1202</ele>
        <time>2017-03-03T08:37:32Z</time>
      </trkpt>
      <trkpt lat="44.47928" lon="3.67635">
        <ele>1203</ele>
        <time>2017-03-03T08:39:32Z</time>
      </trkpt>
      <trkpt lat="44.47918" lon="3.67642">
        <ele>1205</ele>
        <time>2017-03-03T08:41:32Z</time>
      </trkpt>
      <trkpt lat="44.47905" lon="3.67652">
        <ele>1205</ele>
        <time>2017-03-03T08:43:32Z</time>
      </trkpt>
      <trkpt lat="44.47895" lon="3.67664">
        <ele>1206</ele>
        <time>2017-03-03T08:45:32Z</time>
      </trkpt>
      <trkpt lat="44.47862" lon="3.67698">
        <ele>1206</ele>
        <time>2017-03-03T08:47:32Z</time>
      </trkpt>
      <trkpt lat="44.47838" lon="3.67728">
        <ele>1206</ele>
        <time>2017-03-03T08:49:32Z</time>
      </trkpt>
      <trkpt lat="44.47819" lon="3.67756">
        <ele>1207</ele>
        <time>2017-03-03T08:51:32Z</time>
      </trkpt>
      <trkpt lat="44.47813" lon="3.67763">
        <ele>1207</ele>
        <time>2017-03-03T08:53:32Z</time>
      </trkpt>
      <trkpt lat="44.47813" lon="3.67763">
        <ele>1207</ele>
        <time>2017-03-03T08:55:32Z</time>
      </trkpt>
      <trkpt lat="44.47806" lon="3.67773">
        <ele>1207</ele>
        <time>2017-03-03T08:57:32Z</time>
      </trkpt>
      <trkpt lat="44.47792" lon="3.67791">
        <ele>1208</ele>
        <time>2017-03-03T08:59:32Z</time>
      </trkpt>
      <trkpt lat="44.4778" lon="3.67802">
        <ele>1207</ele>
        <time>2017-03-03T09:01:32Z</time>
      </trkpt>
      <trkpt lat="44.47773" lon="3.67808">
        <ele>1207</ele>
        <time>2017-03-03T09:03:32Z</time>
      </trkpt>
      <trkpt lat="44.47767" lon="3.67814">
        <ele>1207</ele>
        <time>2017-03-03T09:05:32Z</time>
      </trkpt>
      <trkpt lat="44.47766" lon="3.67815">
        <ele>1207</ele>
        <time>2017-03-03T09:07:32Z</time>
      </trkpt>
      <trkpt lat="44.47762" lon="3.67824">
        <ele>1208</ele>
        <time>2017-03-03T09:09:32Z</time>
      </trkpt>
      <trkpt lat="44.47754" lon="3.67842">
        <ele>1210</ele>
        <time>2017-03-03T09:11:32Z</time>
      </trkpt>
      <trkpt lat="44.4775" lon="3.6785">
        <ele>1210</ele>
        <time>2017-03-03T09:13:32Z</time>
      </trkpt>
      <trkpt lat="44.47743" lon="3.67858">
        <ele>1210</ele>
        <time>2017-03-03T09:15:32Z</time>
      </trkpt>
      <trkpt lat="44.4773" lon="3.67868">
        <ele>1208</ele>
        <time>2017-03-03T09:17:32Z</time>
      </trkpt>
      <trkpt lat="44.47723" lon="3.67872">
        <ele>1207</ele>
        <time>2017-03-03T09:19:32Z</time>
      </trkpt>
      <trkpt lat="44.47712" lon="3.67879">
        <ele>1206</ele>
        <time>2017-03-03T09:21:32Z</time>
      </trkpt>
      <trkpt lat="44.47706" lon="3.67884">
        <ele>1206</ele>
        <time>2017-03-03T09:23:32Z</time>
      </trkpt>
      <trkpt lat="44.47699" lon="3.67894">
        <ele>1206</ele>
        <time>2017-03-03T09:25:32Z</time>
      </trkpt>
      <trkpt lat="44.47697" lon="3.67897">
        <ele>1206</ele>
        <time>2017-03-03T09:27:32Z</time>
      </trkpt>
      <trkpt lat="44.47697" lon="3.67901">
        <ele>1207</ele>
        <time>2017-03-03T09:29:32Z</time>
      </trkpt>
      <trkpt lat="44.47696" lon="3.67903">
        <ele>1207</ele>
        <time>2017-03-03T09:31:32Z</time>
      </trkpt>
      <trkpt lat="44.47696" lon="3.67904">
        <ele>1207</ele>
        <time>2017-03-03T09:33:32Z</time>
      </trkpt>
      <trkpt lat="44.47687" lon="3.6792">
        <ele>1208</ele>
        <time>2017-03-03T09:35:32Z</time>
      </trkpt>
      <trkpt lat="44.47678" lon="3.67942">
        <ele>1210</ele>
        <time>2017-03-03T09:37:32Z</time>
      </trkpt>
      <trkpt lat="44.47672" lon="3.67958">
        <ele>1211</ele>
        <time>2017-03-03T09:39:32Z</time>
      </trkpt>
      <trkpt lat="44.47668" lon="3.67971">
        <ele>1211</ele>
        <time>2017-03-03T09:41:32Z</time>
      </trkpt>
      <trkpt lat="44.47656" lon="3.67995">
        <ele>1211</ele>
        <time>2017-03-03T09:43:32Z</time>
      </trkpt>
      <trkpt lat="44.47643" lon="3.68019">
        <ele>1210</ele>
        <time>2017-03-03T09:45:32Z</time>
      </trkpt>
      <trkpt lat="44.47634" lon="3.68035">
        <ele>1209</ele>
        <time>2017-03-03T09:47:32Z</time>
      </trkpt>
      <trkpt lat="44.47618" lon="3.68067">
        <ele>1208</ele>
        <time>2017-03-03T09:49:32Z</time>
      </trkpt>
      <trkpt lat="44.47608" lon="3.68084">
        <ele>1208</ele>
        <time>2017-03-03T09:51:32Z</time>
      </trkpt>
      <trkpt lat="44.47598" lon="3.68104">
        <ele>1208</ele>
        <time>2017-03-03T09:53:32Z</time>
      </trkpt>
      <trkpt lat="44.4759" lon="3.6812">
        <ele>1208</ele>
        <time>2017-03-03T09:55:32Z</time>
      </trkpt>
      <trkpt lat="44.47576" lon="3.68144">
        <ele>1207</ele>
        <time>2017-03-03T09:57:32Z</time>
      </trkpt>
      <trkpt lat="44.47564" lon="3.68166">
        <ele>1206</ele>
        <time>2017-03-03T09:59:32Z</time>
      </trkpt>
      <trkpt lat="44.47556" lon="3.6818">
        <ele>1205</ele>
        <time>2017-03-03T10:01:32Z</time>
      </trkpt>
      <trkpt lat="44.4755" lon="3.68194">
        <ele>1205</ele>
        <time>2017-03-03T10:03:32Z</time>
      </trkpt>
      <trkpt lat="44.47545" lon="3.68213">
        <ele>1205</ele>
        <time>2017-03-03T10:05:32Z</time>
      </trkpt>
      <trkpt lat="44.4754" lon="3.68234">
        <ele>1206</ele>
        <time>2017-03-03T10:07:32Z</time>
      </trkpt>
      <trkpt lat="44.47536" lon="3.68246">
        <ele>1207</ele>
        <time>2017-03-03T10:09:32Z</time>
      </trkpt>
      <trkpt lat="44.47525" lon="3.68268">
        <ele>1205</ele>
        <time>2017-03-03T10:11:32Z</time>
      </trkpt>
      <trkpt lat="44.4751" lon="3.68297">
        <ele>1204</ele>
        <time>2017-03-03T10:13:32Z</time>
      </trkpt>
      <trkpt lat="44.47498" lon="3.68316">
        <ele>1202</ele>
        <time>2017-03-03T10:15:32Z</time>
      </trkpt>
      <trkpt lat="44.47488" lon="3.68335">
        <ele>1203</ele>
        <time>2017-03-03T10:17:32Z</time>
      </trkpt>
      <trkpt lat="44.47482" lon="3.68347">
        <ele>1204</ele>
        <time>2017-03-03T10:19:32Z</time>
      </trkpt>
      <trkpt lat="44.47478" lon="3.68355">
        <ele>1205</ele>
        <time>2017-03-03T10:21:32Z</time>
      </trkpt>
      <trkpt lat="44.47474" lon="3.68362">
        <ele>1205</ele>
        <time>2017-03-03T10:23:32Z</time>
      </trkpt>
      <trkpt lat="44.47467" lon="3.68368">
        <ele>1204</ele>
        <time>2017-03-03T10:25:32Z</time>
      </trkpt>
      <trkpt lat="44.47454" lon="3.68377">
        <ele>1203</ele>
        <time>2017-03-03T10:27:32Z</time>
      </trkpt>
      <trkpt lat="44.47436" lon="3.6839">
        <ele>1201</ele>
        <time>2017-03-03T10:29:32Z</time>
      </trkpt>
      <trkpt lat="44.47425" lon="3.68399">
        <ele>1199</ele>
        <time>2017-03-03T10:31:32Z</time>
      </trkpt>
      <trkpt lat="44.4742" lon="3.68404">
        <ele>1198</ele>
        <time>2017-03-03T10:33:32Z</time>
      </trkpt>
      <trkpt lat="44.47413" lon="3.68413">
        <ele>1199</ele>
        <time>2017-03-03T10:35:32Z</time>
      </trkpt>
      <trkpt lat="44.47409" lon="3.68421">
        <ele>1200</ele>
        <time>2017-03-03T10:37:32Z</time>
      </trkpt>
      <trkpt lat="44.47405" lon="3.68424">
        <ele>1202</ele>
        <time>2017-03-03T10:39:32Z</time>
      </trkpt>
      <trkpt lat="44.47404" lon="3.68424">
        <ele>1202</ele>
        <time>2017-03-03T10:41:32Z</time>
      </trkpt>
      <trkpt lat="44.47397" lon="3.68429">
        <ele>1204</ele>
        <time>2017-03-03T10:43:32Z</time>
      </trkpt>
      <trkpt lat="44.47396" lon="3.6843">
        <ele>1204</ele>
        <time>2017-03-03T10:45:32Z</time>
      </trkpt>
      <trkpt lat="44.47396" lon="3.6843">
        <ele>1204</ele>
        <time>2017-03-03T10:47:32Z</time>
      </trkpt>
      <trkpt lat="44.474" lon="3.68415">
        <ele>1202</ele>
        <time>2017-03-03T10:49:32Z</time>
      </trkpt>
      <trkpt lat="44.47402" lon="3.68404">
        <ele>1202</ele>
        <time>2017-03-03T10:51:32Z</time>
      </trkpt>
      <trkpt lat="44.47402" lon="3.68391">
        <ele>1202</ele>
        <time>2017-03-03T10:53:32Z</time>
      </trkpt>
      <trkpt lat="44.47403" lon="3.68382">
        <ele>1201</ele>
        <time>2017-03-03T10:55:32Z</time>
      </trkpt>
      <trkpt lat="44.47405" lon="3.68371">
        <ele>1201</ele>
        <time>2017-03-03T10:57:32Z</time>
      </trkpt>
      <trkpt lat="44.4741" lon="3.68358">
        <ele>1199</ele>
        <time>2017-03-03T10:59:32Z</time>
      </trkpt>
      <trkpt lat="44.4741" lon="3.68356">
        <ele>1199</ele>
        <time>2017-03-03T11:01:32Z</time>
      </trkpt>
      <trkpt lat="44.47415" lon="3.68349">
        <ele>1197</ele>
        <time>2017-03-03T11:03:32Z</time>
      </trkpt>
      <trkpt lat="44.47422" lon="3.68336">
        <ele>1197</ele>
        <time>2017-03-03T11:05:32Z</time>
      </trkpt>
      <trkpt lat="44.47422" lon="3.68335">
        <ele>1197</ele>
        <time>2017-03-03T11:07:32Z</time>
      </trkpt>
      <trkpt lat="44.4743" lon="3.68308">
        <ele>1197</ele>
        <time>2017-03-03T11:09:32Z</time>
      </trkpt>
      <trkpt lat="44.47438" lon="3.68288">
        <ele>1197</ele>
        <time>2017-03-03T11:11:32Z</time>
      </trkpt>
      <trkpt lat="44.47442" lon="3.68271">
        <ele>1197</ele>
        <time>2017-03-03T11:13:32Z</time>
      </trkpt>
      <trkpt lat="44.47444" lon="3.68258">
        <ele>1197</ele>
        <time>2017-03-03T11:15:32Z</time>
      </trkpt>
      <trkpt lat="44.47444" lon="3.68241">
        <ele>1196</ele>
        <time>2017-03-03T11:17:32Z</time>
      </trkpt>
      <trkpt lat="44.47444" lon="3.68209">
        <ele>1196</ele>
        <time>2017-03-03T11:19:32Z</time>
      </trkpt>
      <trkpt lat="44.47442" lon="3.68169">
        <ele>1196</ele>
        <time>2017-03-03T11:21:32Z</time>
      </trkpt>
      <trkpt lat="44.47436" lon="3.68133">
        <ele>1196</ele>
        <time>2017-03-03T11:23:32Z</time>
      </trkpt>
      <trkpt lat="44.47432" lon="3.68099">
        <ele>1196</ele>
        <time>2017-03-03T11:25:32Z</time>
      </trkpt>
      <trkpt lat="44.47431" lon="3.68077">
        <ele>1197</ele>
        <time>2017-03-03T11:27:32Z</time>
      </trkpt>
      <trkpt lat="44.47434" lon="3.68055">
        <ele>1196</ele>
        <time>2017-03-03T11:29:32Z</time>
      </trkpt>
      <trkpt lat="44.47438" lon="3.68026">
        <ele>1195</ele>
        <time>2017-03-03T11:31:32Z</time>
      </trkpt>
      <trkpt lat="44.47442" lon="3.68011">
        <ele>1193</ele>
        <time>2017-03-03T11:33:32Z</time>
      </trkpt>
      <trkpt lat="44.47452" lon="3.6799">
        <ele>1189</ele>
        <time>2017-03-03T11:35:32Z</time>
      </trkpt>
      <trkpt lat="44.4746" lon="3.67972">
        <ele>1186</ele>
        <time>2017-03-03T11:37:32Z</time>
      </trkpt>
      <trkpt lat="44.47466" lon="3.67958">
        <ele>1183</ele>
        <time>2017-03-03T11:39:32Z</time>
      </trkpt>
      <trkpt lat="44.4747" lon="3.67945">
        <ele>1181</ele>
        <time>2017-03-03T11:41:32Z</time>
      </trkpt>
      <trkpt lat="44.47471" lon="3.67933">
        <ele>1181</ele>
        <time>2017-03-03T11:43:32Z</time>
      </trkpt>
      <trkpt lat="44.47472" lon="3.6792">
        <ele>1180</ele>
        <time>2017-03-03T11:45:32Z</time>
      </trkpt>
      <trkpt lat="44.47477" lon="3.67889">
        <ele>1179</ele>
        <time>2017-03-03T11:47:32Z</time>
      </trkpt>
      <trkpt lat="44.47477" lon="3.67884">
        <ele>1179</ele>
        <time>2017-03-03T11:49:32Z</time>
      </trkpt>
      <trkpt lat="44.47468" lon="3.67845">
        <ele>1185</ele>
        <time>2017-03-03T11:51:32Z</time>
      </trkpt>
      <trkpt lat="44.47468" lon="3.67838">
        <ele>1185</ele>
        <time>2017-03-03T11:53:32Z</time>
      </trkpt>
      <trkpt lat="44.47472" lon="3.67787">
        <ele>1186</ele>
        <time>2017-03-03T11:55:32Z</time>
      </trkpt>
      <trkpt lat="44.47476" lon="3.6773">
        <ele>1187</ele>
        <time>2017-03-03T11:57:32Z</time>
      </trkpt>
      <trkpt lat="44.47476" lon="3.67723">
        <ele>1188</ele>
        <time>2017-03-03T11:59:32Z</time>
      </trkpt>
      <trkpt lat="44.47489" lon="3.67687">
        <ele>1185</ele>
        <time>2017-03-03T12:01:32Z</time>
      </trkpt>
      <trkpt lat="44.4749" lon="3.6768">
        <ele>1185</ele>
        <time>2017-03-03T12:03:32Z</time>
      </trkpt>
      <trkpt lat="44.47493" lon="3.67623">
        <ele>1187</ele>
        <time>2017-03-03T12:05:32Z</time>
      </trkpt>
      <trkpt lat="44.47502" lon="3.67539">
        <ele>1182</ele>
        <time>2017-03-03T12:07:32Z</time>
      </trkpt>
      <trkpt lat="44.47501" lon="3.67535">
        <ele>1183</ele>
        <time>2017-03-03T12:09:32Z</time>
      </trkpt>
      <trkpt lat="44.47492" lon="3.67494">
        <ele>1182</ele>
        <time>2017-03-03T12:11:32Z</time>
      </trkpt>
      <trkpt lat="44.47483" lon="3.67478">
        <ele>1184</ele>
        <time>2017-03-03T12:13:32Z</time>
      </trkpt>
      <trkpt lat="44.47469" lon="3.67458">
        <ele>1187</ele>
        <time>2017-03-03T12:15:32Z</time>
      </trkpt>
      <trkpt lat="44.47453" lon="3.67443">
        <ele>1193</ele>
        <time>2017-03-03T12:17:32Z</time>
      </trkpt>
      <trkpt lat="44.47443" lon="3.67433">
        <ele>1196</ele>
        <time>2017-03-03T12:19:32Z</time>
      </trkpt>
      <trkpt lat="44.47438" lon="3.67427">
        <ele>1198</ele>
        <time>2017-03-03T12:21:32Z</time>
      </trkpt>
      <trkpt lat="44.47436" lon="3.67423">
        <ele>1199</ele>
        <time>2017-03-03T12:23:32Z</time>
      </trkpt>
      <trkpt lat="44.47434" lon="3.67417">
        <ele>1199</ele>
        <time>2017-03-03T12:25:32Z</time>
      </trkpt>
      <trkpt lat="44.47434" lon="3.67413">
        <ele>1199</ele>
        <time>2017-03-03T12:27:32Z</time>
      </trkpt>
      <trkpt lat="44.47435" lon="3.6741">
        <ele>1199</ele>
        <time>2017-03-03T12:29:32Z</time>
      </trkpt>
      <trkpt lat="44.47437" lon="3.67401">
        <ele>1199</ele>
        <time>2017-03-03T12:31:32Z</time>
      </trkpt>
      <trkpt lat="44.47446" lon="3.6738">
        <ele>1197</ele>
        <time>2017-03-03T12:33:32Z</time>
      </trkpt>
      <trkpt lat="44.47453" lon="3.67366">
        <ele>1195</ele>
        <time>2017-03-03T12:35:32Z</time>
      </trkpt>
      <trkpt lat="44.47458" lon="3.67355">
        <ele>1194</ele>
        <time>2017-03-03T12:37:32Z</time>
      </trkpt>
      <trkpt lat="44.47462" lon="3.67341">
        <ele>1193</ele>
        <time>2017-03-03T12:39:32Z</time>
      </trkpt>
      <trkpt lat="44.47464" lon="3.67335">
        <ele>1192</ele>
        <time>2017-03-03T12:41:32Z</time>
      </trkpt>
      <trkpt lat="44.47465" lon="3.67331">
        <ele>1192</ele>
        <time>2017-03-03T12:43:32Z</time>
      </trkpt>
      <trkpt lat="44.47466" lon="3.67321">
        <ele>1193</ele>
        <time>2017-03-03T12:45:32Z</time>
      </trkpt>
      <trkpt lat="44.47467" lon="3.67313">
        <ele>1194</ele>
        <time>2017-03-03T12:47:32Z</time>
      </trkpt>
      <trkpt lat="44.47469" lon="3.67306">
        <ele>1194</ele>
        <time>2017-03-03T12:49:32Z</time>
      </trkpt>
      <trkpt lat="44.47471" lon="3.67299">
        <ele>1194</ele>
        <time>2017-03-03T12:51:32Z</time>
      </trkpt>
      <trkpt lat="44.47476" lon="3.67288">
        <ele>1194</ele>
        <time>2017-03-03T12:53:32Z</time>
      </trkpt>
      <trkpt lat="44.47482" lon="3.67274">
        <ele>1193</ele>
        <time>2017-03-03T12:55:32Z</time>
      </trkpt>
      <trkpt lat="44.47487" lon="3.67258">
        <ele>1193</ele>
        <time>2017-03-03T12:57:32Z</time>
      </trkpt>
      <trkpt lat="44.47494" lon="3.67239">
        <ele>1192</ele>
        <time>2017-03-03T12:59:32Z</time>
      </trkpt>
      <trkpt lat="44.47497" lon="3.67228">
        <ele>1191</ele>
        <time>2017-03-03T13:01:32Z</time>
      </trkpt>
      <trkpt lat="44.475" lon="3.67215">
        <ele>1191</ele>
        <time>2017-03-03T13:03:32Z</time>
      </trkpt>
      <trkpt lat="44.47503" lon="3.67192">
        <ele>1192</ele>
        <time>2017-03-03T13:05:32Z</time>
      </trkpt>
      <trkpt lat="44.47506" lon="3.67175">
        <ele>1192</ele>
        <time>2017-03-03T13:07:32Z</time>
      </trkpt>
      <trkpt lat="44.47509" lon="3.67162">
        <ele>1191</ele>
        <time>2017-03-03T13:09:32Z</time>
      </trkpt>
      <trkpt lat="44.4751" lon="3.67151">
        <ele>1189</ele>
        <time>2017-03-03T13:11:32Z</time>
      </trkpt>
      <trkpt lat="44.47512" lon="3.67142">
        <ele>1187</ele>
        <time>2017-03-03T13:13:32Z</time>
      </trkpt>
      <trkpt lat="44.47511" lon="3.67134">
        <ele>1187</ele>
        <time>2017-03-03T13:15:32Z</time>
      </trkpt>
      <trkpt lat="44.47509" lon="3.6712">
        <ele>1186</ele>
        <time>2017-03-03T13:17:32Z</time>
      </trkpt>
      <trkpt lat="44.47505" lon="3.6711">
        <ele>1186</ele>
        <time>2017-03-03T13:19:32Z</time>
      </trkpt>
      <trkpt lat="44.47503" lon="3.67106">
        <ele>1187</ele>
        <time>2017-03-03T13:21:32Z</time>
      </trkpt>
      <trkpt lat="44.47501" lon="3.67102">
        <ele>1187</ele>
        <time>2017-03-03T13:23:32Z</time>
      </trkpt>
      <trkpt lat="44.47499" lon="3.67099">
        <ele>1187</ele>
        <time>2017-03-03T13:25:32Z</time>
      </trkpt>
      <trkpt lat="44.47496" lon="3.67097">
        <ele>1188</ele>
        <time>2017-03-03T13:27:32Z</time>
      </trkpt>
      <trkpt lat="44.47491" lon="3.67094">
        <ele>1188</ele>
        <time>2017-03-03T13:29:32Z</time>
      </trkpt>
      <trkpt lat="44.47465" lon="3.67088">
        <ele>1192</ele>
        <time>2017-03-03T13:31:32Z</time>
      </trkpt>
      <trkpt lat="44.47433" lon="3.67081">
        <ele>1196</ele>
        <time>2017-03-03T13:33:32Z</time>
      </trkpt>
      <trkpt lat="44.47403" lon="3.67073">
        <ele>1199</ele>
        <time>2017-03-03T13:35:32Z</time>
      </trkpt>
      <trkpt lat="44.47386" lon="3.67067">
        <ele>1201</ele>
        <time>2017-03-03T13:37:32Z</time>
      </trkpt>
      <trkpt lat="44.47374" lon="3.67059">
        <ele>1202</ele>
        <time>2017-03-03T13:39:32Z</time>
      </trkpt>
      <trkpt lat="44.4736" lon="3.67044">
        <ele>1201</ele>
        <time>2017-03-03T13:41:32Z</time>
      </trkpt>
      <trkpt lat="44.47346" lon="3.67023">
        <ele>1198</ele>
        <time>2017-03-03T13:43:32Z</time>
      </trkpt>
      <trkpt lat="44.4732" lon="3.66999">
        <ele>1197</ele>
        <time>2017-03-03T13:45:32Z</time>
      </trkpt>
      <trkpt lat="44.47298" lon="3.66984">
        <ele>1196</ele>
        <time>2017-03-03T13:47:32Z</time>
      </trkpt>
      <trkpt lat="44.47277" lon="3.66974">
        <ele>1197</ele>
        <time>2017-03-03T13:49:32Z</time>
      </trkpt>
      <trkpt lat="44.47241" lon="3.66949">
        <ele>1198</ele>
        <time>2017-03-03T13:51:32Z</time>
      </trkpt>
      <trkpt lat="44.47221" lon="3.66922">
        <ele>1198</ele>
        <time>2017-03-03T13:53:32Z</time>
      </trkpt>
      <trkpt lat="44.47202" lon="3.66893">
        <ele>1199</ele>
        <time>2017-03-03T13:55:32Z</time>
      </trkpt>
      <trkpt lat="44.47189" lon="3.66862">
        <ele>1197</ele>
        <time>2017-03-03T13:57:32Z</time>
      </trkpt>
      <trkpt lat="44.47171" lon="3.66826">
        <ele>1197</ele>
        <time>2017-03-03T13:59:32Z</time>
      </trkpt>
      <trkpt lat="44.47163" lon="3.66808">
        <ele>1195</ele>
        <time>2017-03-03T14:01:32Z</time>
      </trkpt>
      <trkpt lat="44.47156" lon="3.66793">
        <ele>1193</ele>
        <time>2017-03-03T14:03:32Z</time>
      </trkpt>
      <trkpt lat="44.47151" lon="3.66785">
        <ele>1192</ele>
        <time>2017-03-03T14:05:32Z</time>
      </trkpt>
      <trkpt lat="44.47149" lon="3.66783">
        <ele>1192</ele>
        <time>2017-03-03T14:07:32Z</time>
      </trkpt>
      <trkpt lat="44.47122" lon="3.66767">
        <ele>1191</ele>
        <time>2017-03-03T14:09:32Z</time>
      </trkpt>
      <trkpt lat="44.47117" lon="3.66764">
        <ele>1190</ele>
        <time>2017-03-03T14:11:32Z</time>
      </trkpt>
      <trkpt lat="44.47114" lon="3.66762">
        <ele>1190</ele>
        <time>2017-03-03T14:13:32Z</time>
      </trkpt>
      <trkpt lat="44.4711" lon="3.66761">
        <ele>1190</ele>
        <time>2017-03-03T14:15:32Z</time>
      </trkpt>
      <trkpt lat="44.47106" lon="3.66761">
        <ele>1191</ele>
        <time>2017-03-03T14:17:32Z</time>
      </trkpt>
      <trkpt lat="44.47104" lon="3.66762">
        <ele>1191</ele>
        <time>2017-03-03T14:19:32Z</time>
      </trkpt>
      <trkpt lat="44.471" lon="3.66765">
        <ele>1192</ele>
        <time>2017-03-03T14:21:32Z</time>
      </trkpt>
      <trkpt lat="44.4709" lon="3.66772">
        <ele>1194</ele>
        <time>2017-03-03T14:23:32Z</time>
      </trkpt>
      <trkpt lat="44.47067" lon="3.66784">
        <ele>1197</ele>
        <time>2017-03-03T14:25:32Z</time>
      </trkpt>
      <trkpt lat="44.47037" lon="3.66795">
        <ele>1199</ele>
        <time>2017-03-03T14:27:32Z</time>
      </trkpt>
      <trkpt lat="44.47002" lon="3.66802">
        <ele>1200</ele>
        <time>2017-03-03T14:29:32Z</time>
      </trkpt>
      <trkpt lat="44.46972" lon="3.66815">
        <ele>1203</ele>
        <time>2017-03-03T14:31:32Z</time>
      </trkpt>
      <trkpt lat="44.46922" lon="3.66853">
        <ele>1208</ele>
        <time>2017-03-03T14:33:32Z</time>
      </trkpt>
      <trkpt lat="44.46891" lon="3.66876">
        <ele>1215</ele>
        <time>2017-03-03T14:35:32Z</time>
      </trkpt>
      <trkpt lat="44.46873" lon="3.66882">
        <ele>1218</ele>
        <time>2017-03-03T14:37:32Z</time>
      </trkpt>
      <trkpt lat="44.46857" lon="3.66881">
        <ele>1219</ele>
        <time>2017-03-03T14:39:32Z</time>
      </trkpt>
      <trkpt lat="44.46843" lon="3.66878">
        <ele>1220</ele>
        <time>2017-03-03T14:41:32Z</time>
      </trkpt>
      <trkpt lat="44.46825" lon="3.66869">
        <ele>1219</ele>
        <time>2017-03-03T14:43:32Z</time>
      </trkpt>
      <trkpt lat="44.46806" lon="3.66861">
        <ele>1220</ele>
        <time>2017-03-03T14:45:32Z</time>
      </trkpt>
      <trkpt lat="44.4679" lon="3.66858">
        <ele>1221</ele>
        <time>2017-03-03T14:47:32Z</time>
      </trkpt>
      <trkpt lat="44.46773" lon="3.6686">
        <ele>1223</ele>
        <time>2017-03-03T14:49:32Z</time>
      </trkpt>
      <trkpt lat="44.46761" lon="3.66865">
        <ele>1225</ele>
        <time>2017-03-03T14:51:32Z</time>
      </trkpt>
      <trkpt lat="44.46742" lon="3.66883">
        <ele>1229</ele>
        <time>2017-03-03T14:53:32Z</time>
      </trkpt>
      <trkpt lat="44.4673" lon="3.66893">
        <ele>1232</ele>
        <time>2017-03-03T14:55:32Z</time>
      </trkpt>
      <trkpt lat="44.46723" lon="3.66903">
        <ele>1233</ele>
        <time>2017-03-03T14:57:32Z</time>
      </trkpt>
      <trkpt lat="44.46717" lon="3.66913">
        <ele>1234</ele>
        <time>2017-03-03T14:59:32Z</time>
      </trkpt>
      <trkpt lat="44.46711" lon="3.66921">
        <ele>1235</ele>
        <time>2017-03-03T15:01:32Z</time>
      </trkpt>
      <trkpt lat="44.46709" lon="3.66922">
        <ele>1235</ele>
        <time>2017-03-03T15:03:32Z</time>
      </trkpt>
      <trkpt lat="44.46708" lon="3.66923">
        <ele>1235</ele>
        <time>2017-03-03T15:05:32Z</time>
      </trkpt>
      <trkpt lat="44.46706" lon="3.66924">
        <ele>1236</ele>
        <time>2017-03-03T15:07:32Z</time>
      </trkpt>
      <trkpt lat="44.46704" lon="3.66924">
        <ele>1236</ele>
        <time>2017-03-03T15:09:32Z</time>
      </trkpt>
      <trkpt lat="44.46702" lon="3.66923">
        <ele>1235</ele>
        <time>2017-03-03T15:11:32Z</time>
      </trkpt>
      <trkpt lat="44.467" lon="3.66922">
        <ele>1235</ele>
        <time>2017-03-03T15:13:32Z</time>
      </trkpt>
      <trkpt lat="44.46699" lon="3.66921">
        <ele>1235</ele>
        <time>2017-03-03T15:15:32Z</time>
      </trkpt>
      <trkpt lat="44.46698" lon="3.66919">
        <ele>1235</ele>
        <time>2017-03-03T15:17:32Z</time>
      </trkpt>
      <trkpt lat="44.46697" lon="3.66916">
        <ele>1235</ele>
        <time>2017-03-03T15:19:32Z</time>
      </trkpt>
      <trkpt lat="44.46695" lon="3.66908">
        <ele>1235</ele>
        <time>2017-03-03T15:21:32Z</time>
      </trkpt>
      <trkpt lat="44.46695" lon="3.66901">
        <ele>1235</ele>
        <time>2017-03-03T15:23:32Z</time>
      </trkpt>
      <trkpt lat="44.46696" lon="3.66893">
        <ele>1235</ele>
        <time>2017-03-03T15:25:32Z</time>
      </trkpt>
      <trkpt lat="44.46696" lon="3.6687">
        <ele>1235</ele>
        <time>2017-03-03T15:27:32Z</time>
      </trkpt>
      <trkpt lat="44.46699" lon="3.66857">
        <ele>1235</ele>
        <time>2017-03-03T15:29:32Z</time>
      </trkpt>
      <trkpt lat="44.46703" lon="3.66844">
        <ele>1234</ele>
        <time>2017-03-03T15:31:32Z</time>
      </trkpt>
      <trkpt lat="44.46709" lon="3.66831">
        <ele>1232</ele>
        <time>2017-03-03T15:33:32Z</time>
      </trkpt>
      <trkpt lat="44.46712" lon="3.66823">
        <ele>1232</ele>
        <time>2017-03-03T15:35:32Z</time>
      </trkpt>
      <trkpt lat="44.46713" lon="3.66819">
        <ele>1232</ele>
        <time>2017-03-03T15:37:32Z</time>
      </trkpt>
      <trkpt lat="44.46713" lon="3.66813">
        <ele>1233</ele>
        <time>2017-03-03T15:39:32Z</time>
      </trkpt>
      <trkpt lat="44.46713" lon="3.6681">
        <ele>1233</ele>
        <time>2017-03-03T15:41:32Z</time>
      </trkpt>
      <trkpt lat="44.46713" lon="3.66807">
        <ele>1234</ele>
        <time>2017-03-03T15:43:32Z</time>
      </trkpt>
      <trkpt lat="44.46713" lon="3.66804">
        <ele>1234</ele>
        <time>2017-03-03T15:45:32Z</time>
      </trkpt>
      <trkpt lat="44.46712" lon="3.66799">
        <ele>1235</ele>
        <time>2017-03-03T15:47:32Z</time>
      </trkpt>
      <trkpt lat="44.46713" lon="3.66795">
        <ele>1235</ele>
        <time>2017-03-03T15:49:32Z</time>
      </trkpt>
      <trkpt lat="44.46714" lon="3.6679">
        <ele>1235</ele>
        <time>2017-03-03T15:51:32Z</time>
      </trkpt>
      <trkpt lat="44.46715" lon="3.66786">
        <ele>1236</ele>
        <time>2017-03-03T15:53:32Z</time>
      </trkpt>
      <trkpt lat="44.46719" lon="3.66782">
        <ele>1235</ele>
        <time>2017-03-03T15:55:32Z</time>
      </trkpt>
      <trkpt lat="44.46725" lon="3.66777">
        <ele>1234</ele>
        <time>2017-03-03T15:57:32Z</time>
      </trkpt>
      <trkpt lat="44.46731" lon="3.66771">
        <ele>1233</ele>
        <time>2017-03-03T15:59:32Z</time>
      </trkpt>
      <trkpt lat="44.46738" lon="3.66765">
        <ele>1232</ele>
        <time>2017-03-03T16:01:32Z</time>
      </trkpt>
      <trkpt lat="44.46747" lon="3.6676">
        <ele>1230</ele>
        <time>2017-03-03T16:03:32Z</time>
      </trkpt>
      <trkpt lat="44.46755" lon="3.66756">
        <ele>1228</ele>
        <time>2017-03-03T16:05:32Z</time>
      </trkpt>
      <trkpt lat="44.46763" lon="3.6675">
        <ele>1228</ele>
        <time>2017-03-03T16:07:32Z</time>
      </trkpt>
      <trkpt lat="44.46774" lon="3.66744">
        <ele>1227</ele>
        <time>2017-03-03T16:09:32Z</time>
      </trkpt>
      <trkpt lat="44.46792" lon="3.66735">
        <ele>1226</ele>
        <time>2017-03-03T16:11:32Z</time>
      </trkpt>
      <trkpt lat="44.46804" lon="3.6673">
        <ele>1225</ele>
        <time>2017-03-03T16:13:32Z</time>
      </trkpt>
      <trkpt lat="44.46816" lon="3.66725">
        <ele>1224</ele>
        <time>2017-03-03T16:15:32Z</time>
      </trkpt>
      <trkpt lat="44.46825" lon="3.66722">
        <ele>1223</ele>
        <time>2017-03-03T16:17:32Z</time>
      </trkpt>
      <trkpt lat="44.46833" lon="3.66717">
        <ele>1222</ele>
        <time>2017-03-03T16:19:32Z</time>
      </trkpt>
      <trkpt lat="44.46839" lon="3.66712">
        <ele>1222</ele>
        <time>2017-03-03T16:21:32Z</time>
      </trkpt>
      <trkpt lat="44.46846" lon="3.66705">
        <ele>1223</ele>
        <time>2017-03-03T16:23:32Z</time>
      </trkpt>
      <trkpt lat="44.46858" lon="3.66694">
        <ele>1223</ele>
        <time>2017-03-03T16:25:32Z</time>
      </trkpt>
      <trkpt lat="44.46877" lon="3.66681">
        <ele>1222</ele>
        <time>2017-03-03T16:27:32Z</time>
      </trkpt>
      <trkpt lat="44.46886" lon="3.66674">
        <ele>1222</ele>
        <time>2017-03-03T16:29:32Z</time>
      </trkpt>
      <trkpt lat="44.46891" lon="3.66668">
        <ele>1222</ele>
        <time>2017-03-03T16:31:32Z</time>
      </trkpt>
      <trkpt lat="44.46897" lon="3.6666">
        <ele>1223</ele>
        <time>2017-03-03T16:33:32Z</time>
      </trkpt>
      <trkpt lat="44.46914" lon="3.66631">
        <ele>1224</ele>
        <time>2017-03-03T16:35:32Z</time>
      </trkpt>
      <trkpt lat="44.4693" lon="3.66607">
        <ele>1225</ele>
        <time>2017-03-03T16:37:32Z</time>
      </trkpt>
      <trkpt lat="44.46939" lon="3.66591">
        <ele>1226</ele>
        <time>2017-03-03T16:39:32Z</time>
      </trkpt>
      <trkpt lat="44.46944" lon="3.66584">
        <ele>1226</ele>
        <time>2017-03-03T16:41:32Z</time>
      </trkpt>
      <trkpt lat="44.46947" lon="3.66581">
        <ele>1226</ele>
        <time>2017-03-03T16:43:32Z</time>
      </trkpt>
      <trkpt lat="44.46949" lon="3.66578">
        <ele>1226</ele>
        <time>2017-03-03T16:45:32Z</time>
      </trkpt>
      <trkpt lat="44.46952" lon="3.66572">
        <ele>1227</ele>
        <time>2017-03-03T16:47:32Z</time>
      </trkpt>
      <trkpt lat="44.46958" lon="3.66564">
        <ele>1227</ele>
        <time>2017-03-03T16:49:32Z</time>
      </trkpt>
      <trkpt lat="44.46964" lon="3.66559">
        <ele>1227</ele>
        <time>2017-03-03T16:51:32Z</time>
      </trkpt>
      <trkpt lat="44.46967" lon="3.66554">
        <ele>1227</ele>
        <time>2017-03-03T16:53:32Z</time>
      </trkpt>
      <trkpt lat="44.46971" lon="3.66545">
        <ele>1228</ele>
        <time>2017-03-03T16:55:32Z</time>
      </trkpt>
      <trkpt lat="44.46976" lon="3.66539">
        <ele>1228</ele>
        <time>2017-03-03T16:57:32Z</time>
      </trkpt>
      <trkpt lat="44.46977" lon="3.66536">
        <ele>1229</ele>
        <time>2017-03-03T16:59:32Z</time>
      </trkpt>
      <trkpt lat="44.4698" lon="3.66534">
        <ele>1229</ele>
        <time>2017-03-03T17:01:32Z</time>
      </trkpt>
      <trkpt lat="44.46986" lon="3.6653">
        <ele>1228</ele>
        <time>2017-03-03T17:03:32Z</time>
      </trkpt>
      <trkpt lat="44.46995" lon="3.66527">
        <ele>1227</ele>
        <time>2017-03-03T17:05:32Z</time>
      </trkpt>
      <trkpt lat="44.47002" lon="3.66525">
        <ele>1226</ele>
        <time>2017-03-03T17:07:32Z</time>
      </trkpt>
      <trkpt lat="44.47007" lon="3.66523">
        <ele>1224</ele>
        <time>2017-03-03T17:09:32Z</time>
      </trkpt>
      <trkpt lat="44.47016" lon="3.66519">
        <ele>1222</ele>
        <time>2017-03-03T17:11:32Z</time>
      </trkpt>
      <trkpt lat="44.47025" lon="3.66513">
        <ele>1221</ele>
        <time>2017-03-03T17:13:32Z</time>
      </trkpt>
      <trkpt lat="44.4703" lon="3.66508">
        <ele>1220</ele>
        <time>2017-03-03T17:15:32Z</time>
      </trkpt>
      <trkpt lat="44.47037" lon="3.66498">
        <ele>1220</ele>
        <time>2017-03-03T17:17:32Z</time>
      </trkpt>
      <trkpt lat="44.47044" lon="3.66491">
        <ele>1219</ele>
        <time>2017-03-03T17:19:32Z</time>
      </trkpt>
      <trkpt lat="44.47051" lon="3.66486">
        <ele>1217</ele>
        <time>2017-03-03T17:21:32Z</time>
      </trkpt>
      <trkpt lat="44.4706" lon="3.66479">
        <ele>1215</ele>
        <time>2017-03-03T17:23:32Z</time>
      </trkpt>
      <trkpt lat="44.47063" lon="3.66474">
        <ele>1215</ele>
        <time>2017-03-03T17:25:32Z</time>
      </trkpt>
      <trkpt lat="44.47065" lon="3.66469">
        <ele>1215</ele>
        <time>2017-03-03T17:27:32Z</time>
      </trkpt>
      <trkpt lat="44.47067" lon="3.66465">
        <ele>1214</ele>
        <time>2017-03-03T17:29:32Z</time>
      </trkpt>
      <trkpt lat="44.47067" lon="3.66461">
        <ele>1215</ele>
        <time>2017-03-03T17:31:32Z</time>
      </trkpt>
      <trkpt lat="44.47067" lon="3.66457">
        <ele>1215</ele>
        <time>2017-03-03T17:33:32Z</time>
      </trkpt>
      <trkpt lat="44.47066" lon="3.66454">
        <ele>1216</ele>
        <time>2017-03-03T17:35:32Z</time>
      </trkpt>
      <trkpt lat="44.4706" lon="3.6644">
        <ele>1219</ele>
        <time>2017-03-03T17:37:32Z</time>
      </trkpt>
      <trkpt lat="44.47056" lon="3.66424">
        <ele>1222</ele>
        <time>2017-03-03T17:39:32Z</time>
      </trkpt>
      <trkpt lat="44.47052" lon="3.66408">
        <ele>1224</ele>
        <time>2017-03-03T17:41:32Z</time>
      </trkpt>
      <trkpt lat="44.47051" lon="3.66384">
        <ele>1225</ele>
        <time>2017-03-03T17:43:32Z</time>
      </trkpt>
      <trkpt lat="44.4705" lon="3.66361">
        <ele>1225</ele>
        <time>2017-03-03T17:45:32Z</time>
      </trkpt>
      <trkpt lat="44.47049" lon="3.66338">
        <ele>1226</ele>
        <time>2017-03-03T17:47:32Z</time>
      </trkpt>
      <trkpt lat="44.47049" lon="3.66322">
        <ele>1227</ele>
        <time>2017-03-03T17:49:32Z</time>
      </trkpt>
      <trkpt lat="44.47047" lon="3.66291">
        <ele>1230</ele>
        <time>2017-03-03T17:51:32Z</time>
      </trkpt>
      <trkpt lat="44.47045" lon="3.66267">
        <ele>1233</ele>
        <time>2017-03-03T17:53:32Z</time>
      </trkpt>
      <trkpt lat="44.47042" lon="3.66242">
        <ele>1236</ele>
        <time>2017-03-03T17:55:32Z</time>
      </trkpt>
      <trkpt lat="44.4704" lon="3.6621">
        <ele>1239</ele>
        <time>2017-03-03T17:57:32Z</time>
      </trkpt>
      <trkpt lat="44.4704" lon="3.6618">
        <ele>1240</ele>
        <time>2017-03-03T17:59:32Z</time>
      </trkpt>
      <trkpt lat="44.47043" lon="3.66154">
        <ele>1241</ele>
        <time>2017-03-03T18:01:32Z</time>
      </trkpt>
      <trkpt lat="44.47047" lon="3.66136">
        <ele>1241</ele>
        <time>2017-03-03T18:03:32Z</time>
      </trkpt>
      <trkpt lat="44.47052" lon="3.6612">
        <ele>1240</ele>
        <time>2017-03-03T18:05:32Z</time>
      </trkpt>
      <trkpt lat="44.4706" lon="3.66103">
        <ele>1239</ele>
        <time>2017-03-03T18:07:32Z</time>
      </trkpt>
      <trkpt lat="44.47068" lon="3.66091">
        <ele>1238</ele>
        <time>2017-03-03T18:09:32Z</time>
      </trkpt>
      <trkpt lat="44.47075" lon="3.66078">
        <ele>1237</ele>
        <time>2017-03-03T18:11:32Z</time>
      </trkpt>
      <trkpt lat="44.47079" lon="3.6607">
        <ele>1236</ele>
        <time>2017-03-03T18:13:32Z</time>
      </trkpt>
      <trkpt lat="44.4708" lon="3.66065">
        <ele>1235</ele>
        <time>2017-03-03T18:15:32Z</time>
      </trkpt>
      <trkpt lat="44.47082" lon="3.66055">
        <ele>1235</ele>
        <time>2017-03-03T18:17:32Z</time>
      </trkpt>
      <trkpt lat="44.47082" lon="3.66052">
        <ele>1235</ele>
        <time>2017-03-03T18:19:32Z</time>
      </trkpt>
      <trkpt lat="44.47084" lon="3.66027">
        <ele>1234</ele>
        <time>2017-03-03T18:21:32Z</time>
      </trkpt>
      <trkpt lat="44.47084" lon="3.66004">
        <ele>1235</ele>
        <time>2017-03-03T18:23:32Z</time>
      </trkpt>
      <trkpt lat="44.47081" lon="3.65977">
        <ele>1234</ele>
        <time>2017-03-03T18:25:32Z</time>
      </trkpt>
      <trkpt lat="44.47076" lon="3.65953">
        <ele>1234</ele>
        <time>2017-03-03T18:27:32Z</time>
      </trkpt>
      <trkpt lat="44.47066" lon="3.65925">
        <ele>1236</ele>
        <time>2017-03-03T18:29:32Z</time>
      </trkpt>
      <trkpt lat="44.47055" lon="3.65906">
        <ele>1239</ele>
        <time>2017-03-03T18:31:32Z</time>
      </trkpt>
      <trkpt lat="44.47044" lon="3.65893">
        <ele>1243</ele>
        <time>2017-03-03T18:33:32Z</time>
      </trkpt>
      <trkpt lat="44.47031" lon="3.65882">
        <ele>1246</ele>
        <time>2017-03-03T18:35:32Z</time>
      </trkpt>
      <trkpt lat="44.47024" lon="3.65877">
        <ele>1248</ele>
        <time>2017-03-03T18:37:32Z</time>
      </trkpt>
      <trkpt lat="44.47023" lon="3.65875">
        <ele>1248</ele>
        <time>2017-03-03T18:39:32Z</time>
      </trkpt>
      <trkpt lat="44.47015" lon="3.65858">
        <ele>1250</ele>
        <time>2017-03-03T18:41:32Z</time>
      </trkpt>
      <trkpt lat="44.47012" lon="3.65851">
        <ele>1250</ele>
        <time>2017-03-03T18:43:32Z</time>
      </trkpt>
      <trkpt lat="44.4701" lon="3.65845">
        <ele>1251</ele>
        <time>2017-03-03T18:45:32Z</time>
      </trkpt>
      <trkpt lat="44.4701" lon="3.65837">
        <ele>1250</ele>
        <time>2017-03-03T18:47:32Z</time>
      </trkpt>
      <trkpt lat="44.4701" lon="3.65827">
        <ele>1251</ele>
        <time>2017-03-03T18:49:32Z</time>
      </trkpt>
      <trkpt lat="44.47014" lon="3.6582">
        <ele>1251</ele>
        <time>2017-03-03T18:51:32Z</time>
      </trkpt>
      <trkpt lat="44.47019" lon="3.65816">
        <ele>1251</ele>
        <time>2017-03-03T18:53:32Z</time>
      </trkpt>
      <trkpt lat="44.47029" lon="3.65817">
        <ele>1249</ele>
        <time>2017-03-03T18:55:32Z</time>
      </trkpt>
      <trkpt lat="44.47045" lon="3.65822">
        <ele>1246</ele>
        <time>2017-03-03T18:57:32Z</time>
      </trkpt>
      <trkpt lat="44.47052" lon="3.65824">
        <ele>1245</ele>
        <time>2017-03-03T18:59:32Z</time>
      </trkpt>
      <trkpt lat="44.47061" lon="3.65823">
        <ele>1243</ele>
        <time>2017-03-03T19:01:32Z</time>
      </trkpt>
      <trkpt lat="44.47071" lon="3.65821">
        <ele>1242</ele>
        <time>2017-03-03T19:03:32Z</time>
      </trkpt>
      <trkpt lat="44.47085" lon="3.65811">
        <ele>1241</ele>
        <time>2017-03-03T19:05:32Z</time>
      </trkpt>
      <trkpt lat="44.47093" lon="3.65805">
        <ele>1241</ele>
        <time>2017-03-03T19:07:32Z</time>
      </trkpt>
      <trkpt lat="44.47103" lon="3.65798">
        <ele>1240</ele>
        <time>2017-03-03T19:09:32Z</time>
      </trkpt>
      <trkpt lat="44.47112" lon="3.65793">
        <ele>1238</ele>
        <time>2017-03-03T19:11:32Z</time>
      </trkpt>
      <trkpt lat="44.47178" lon="3.65739">
        <ele>1233</ele>
        <time>2017-03-03T19:13:32Z</time>
      </trkpt>
      <trkpt lat="44.47184" lon="3.65733">
        <ele>1234</ele>
        <time>2017-03-03T19:15:32Z</time>
      </trkpt>
      <trkpt lat="44.47191" lon="3.65725">
        <ele>1235</ele>
        <time>2017-03-03T19:17:32Z</time>
      </trkpt>
      <trkpt lat="44.47197" lon="3.65717">
        <ele>1236</ele>
        <time>2017-03-03T19:19:32Z</time>
      </trkpt>
      <trkpt lat="44.47206" lon="3.65714">
        <ele>1236</ele>
        <time>2017-03-03T19:21:32Z</time>
      </trkpt>
      <trkpt lat="44.47219" lon="3.65713">
        <ele>1235</ele>
        <time>2017-03-03T19:23:32Z</time>
      </trkpt>
      <trkpt lat="44.4722" lon="3.65713">
        <ele>1235</ele>
        <time>2017-03-03T19:25:32Z</time>
      </trkpt>
      <trkpt lat="44.47229" lon="3.65715">
        <ele>1234</ele>
        <time>2017-03-03T19:27:32Z</time>
      </trkpt>
      <trkpt lat="44.47236" lon="3.65721">
        <ele>1233</ele>
        <time>2017-03-03T19:29:32Z</time>
      </trkpt>
      <trkpt lat="44.47244" lon="3.65732">
        <ele>1232</ele>
        <time>2017-03-03T19:31:32Z</time>
      </trkpt>
      <trkpt lat="44.47248" lon="3.6574">
        <ele>1232</ele>
        <time>2017-03-03T19:33:32Z</time>
      </trkpt>
      <trkpt lat="44.47249" lon="3.6575">
        <ele>1232</ele>
        <time>2017-03-03T19:35:32Z</time>
      </trkpt>
      <trkpt lat="44.47248" lon="3.65772">
        <ele>1232</ele>
        <time>2017-03-03T19:37:32Z</time>
      </trkpt>
      <trkpt lat="44.47245" lon="3.65788">
        <ele>1233</ele>
        <time>2017-03-03T19:39:32Z</time>
      </trkpt>
      <trkpt lat="44.47242" lon="3.65804">
        <ele>1232</ele>
        <time>2017-03-03T19:41:32Z</time>
      </trkpt>
      <trkpt lat="44.47237" lon="3.65817">
        <ele>1232</ele>
        <time>2017-03-03T19:43:32Z</time>
      </trkpt>
      <trkpt lat="44.47236" lon="3.65825">
        <ele>1232</ele>
        <time>2017-03-03T19:45:32Z</time>
      </trkpt>
      <trkpt lat="44.47236" lon="3.65826">
        <ele>1232</ele>
        <time>2017-03-03T19:47:32Z</time>
      </trkpt>
      <trkpt lat="44.47237" lon="3.65832">
        <ele>1232</ele>
        <time>2017-03-03T19:49:32Z</time>
      </trkpt>
      <trkpt lat="44.47239" lon="3.65842">
        <ele>1232</ele>
        <time>2017-03-03T19:51:32Z</time>
      </trkpt>
      <trkpt lat="44.47245" lon="3.65857">
        <ele>1231</ele>
        <time>2017-03-03T19:53:32Z</time>
      </trkpt>
      <trkpt lat="44.47252" lon="3.65866">
        <ele>1231</ele>
        <time>2017-03-03T19:55:32Z</time>
      </trkpt>
      <trkpt lat="44.4726" lon="3.65872">
        <ele>1232</ele>
        <time>2017-03-03T19:57:32Z</time>
      </trkpt>
      <trkpt lat="44.47269" lon="3.65876">
        <ele>1232</ele>
        <time>2017-03-03T19:59:32Z</time>
      </trkpt>
      <trkpt lat="44.47285" lon="3.65883">
        <ele>1233</ele>
        <time>2017-03-03T20:01:32Z</time>
      </trkpt>
      <trkpt lat="44.47296" lon="3.65883">
        <ele>1234</ele>
        <time>2017-03-03T20:03:32Z</time>
      </trkpt>
      <trkpt lat="44.47307" lon="3.65883">
        <ele>1235</ele>
        <time>2017-03-03T20:05:32Z</time>
      </trkpt>
      <trkpt lat="44.47307" lon="3.65883">
        <ele>1235</ele>
        <time>2017-03-03T20:07:32Z</time>
      </trkpt>
      <trkpt lat="44.47317" lon="3.65887">
        <ele>1236</ele>
        <time>2017-03-03T20:09:32Z</time>
      </trkpt>
      <trkpt lat="44.47335" lon="3.65896">
        <ele>1237</ele>
        <time>2017-03-03T20:11:32Z</time>
      </trkpt>
      <trkpt lat="44.47345" lon="3.65904">
        <ele>1238</ele>
        <time>2017-03-03T20:13:32Z</time>
      </trkpt>
      <trkpt lat="44.47351" lon="3.65911">
        <ele>1239</ele>
        <time>2017-03-03T20:15:32Z</time>
      </trkpt>
      <trkpt lat="44.47357" lon="3.65921">
        <ele>1239</ele>
        <time>2017-03-03T20:17:32Z</time>
      </trkpt>
      <trkpt lat="44.47364" lon="3.65937">
        <ele>1240</ele>
        <time>2017-03-03T20:19:32Z</time>
      </trkpt>
      <trkpt lat="44.47369" lon="3.65954">
        <ele>1241</ele>
        <time>2017-03-03T20:21:32Z</time>
      </trkpt>
      <trkpt lat="44.47373" lon="3.65969">
        <ele>1242</ele>
        <time>2017-03-03T20:23:32Z</time>
      </trkpt>
      <trkpt lat="44.47379" lon="3.65985">
        <ele>1243</ele>
        <time>2017-03-03T20:25:32Z</time>
      </trkpt>
      <trkpt lat="44.47385" lon="3.66003">
        <ele>1244</ele>
        <time>2017-03-03T20:27:32Z</time>
      </trkpt>
      <trkpt lat="44.47388" lon="3.66014">
        <ele>1245</ele>
        <time>2017-03-03T20:29:32Z</time>
      </trkpt>
      <trkpt lat="44.47388" lon="3.66026">
        <ele>1245</ele>
        <time>2017-03-03T20:31:32Z</time>
      </trkpt>
      <trkpt lat="44.47388" lon="3.66037">
        <ele>1245</ele>
        <time>2017-03-03T20:33:32Z</time>
      </trkpt>
      <trkpt lat="44.47387" lon="3.66052">
        <ele>1245</ele>
        <time>2017-03-03T20:35:32Z</time>
      </trkpt>
      <trkpt lat="44.47387" lon="3.66062">
        <ele>1245</ele>
        <time>2017-03-03T20:37:32Z</time>
      </trkpt>
      <trkpt lat="44.47387" lon="3.66062">
        <ele>1245</ele>
        <time>2017-03-03T20:39:32Z</time>
      </trkpt>
      <trkpt lat="44.47396" lon="3.66059">
        <ele>1247</ele>
        <time>2017-03-03T20:41:32Z</time>
      </trkpt>
      <trkpt lat="44.47404" lon="3.66058">
        <ele>1248</ele>
        <time>2017-03-03T20:43:32Z</time>
      </trkpt>
      <trkpt lat="44.47414" lon="3.66051">
        <ele>1250</ele>
        <time>2017-03-03T20:45:32Z</time>
      </trkpt>
      <trkpt lat="44.47424" lon="3.66042">
        <ele>1251</ele>
        <time>2017-03-03T20:47:32Z</time>
      </trkpt>
      <trkpt lat="44.47432" lon="3.66029">
        <ele>1253</ele>
        <time>2017-03-03T20:49:32Z</time>
      </trkpt>
      <trkpt lat="44.4744" lon="3.66015">
        <ele>1254</ele>
        <time>2017-03-03T20:51:32Z</time>
      </trkpt>
      <trkpt lat="44.47459" lon="3.65988">
        <ele>1257</ele>
        <time>2017-03-03T20:53:32Z</time>
      </trkpt>
      <trkpt lat="44.47478" lon="3.65964">
        <ele>1260</ele>
        <time>2017-03-03T20:55:32Z</time>
      </trkpt>
      <trkpt lat="44.47496" lon="3.65947">
        <ele>1264</ele>
        <time>2017-03-03T20:57:32Z</time>
      </trkpt>
      <trkpt lat="44.47516" lon="3.65932">
        <ele>1268</ele>
        <time>2017-03-03T20:59:32Z</time>
      </trkpt>
      <trkpt lat="44.47534" lon="3.65919">
        <ele>1271</ele>
        <time>2017-03-03T21:01:32Z</time>
      </trkpt>
      <trkpt lat="44.47542" lon="3.65909">
        <ele>1273</ele>
        <time>2017-03-03T21:03:32Z</time>
      </trkpt>
      <trkpt lat="44.4755" lon="3.65892">
        <ele>1275</ele>
        <time>2017-03-03T21:05:32Z</time>
      </trkpt>
      <trkpt lat="44.47564" lon="3.6586">
        <ele>1279</ele>
        <time>2017-03-03T21:07:32Z</time>
      </trkpt>
      <trkpt lat="44.47573" lon="3.65837">
        <ele>1281</ele>
        <time>2017-03-03T21:09:32Z</time>
      </trkpt>
      <trkpt lat="44.47582" lon="3.65819">
        <ele>1283</ele>
        <time>2017-03-03T21:11:32Z</time>
      </trkpt>
      <trkpt lat="44.47596" lon="3.65793">
        <ele>1286</ele>
        <time>2017-03-03T21:13:32Z</time>
      </trkpt>
      <trkpt lat="44.47609" lon="3.65761">
        <ele>1289</ele>
        <time>2017-03-03T21:15:32Z</time>
      </trkpt>
      <trkpt lat="44.47625" lon="3.6572">
        <ele>1292</ele>
        <time>2017-03-03T21:17:32Z</time>
      </trkpt>
      <trkpt lat="44.47638" lon="3.65698">
        <ele>1294</ele>
        <time>2017-03-03T21:19:32Z</time>
      </trkpt>
      <trkpt lat="44.47648" lon="3.65685">
        <ele>1296</ele>
        <time>2017-03-03T21:21:32Z</time>
      </trkpt>
      <trkpt lat="44.47664" lon="3.6567">
        <ele>1299</ele>
        <time>2017-03-03T21:23:32Z</time>
      </trkpt>
      <trkpt lat="44.47675" lon="3.65657">
        <ele>1301</ele>
        <time>2017-03-03T21:25:32Z</time>
      </trkpt>
      <trkpt lat="44.47686" lon="3.65635">
        <ele>1303</ele>
        <time>2017-03-03T21:27:32Z</time>
      </trkpt>
      <trkpt lat="44.47703" lon="3.65599">
        <ele>1306</ele>
        <time>2017-03-03T21:29:32Z</time>
      </trkpt>
      <trkpt lat="44.47722" lon="3.65556">
        <ele>1309</ele>
        <time>2017-03-03T21:31:32Z</time>
      </trkpt>
      <trkpt lat="44.47727" lon="3.65546">
        <ele>1310</ele>
        <time>2017-03-03T21:33:32Z</time>
      </trkpt>
      <trkpt lat="44.47745" lon="3.65507">
        <ele>1313</ele>
        <time>2017-03-03T21:35:32Z</time>
      </trkpt>
      <trkpt lat="44.47766" lon="3.65465">
        <ele>1316</ele>
        <time>2017-03-03T21:37:32Z</time>
      </trkpt>
      <trkpt lat="44.47792" lon="3.65418">
        <ele>1320</ele>
        <time>2017-03-03T21:39:32Z</time>
      </trkpt>
      <trkpt lat="44.47798" lon="3.65407">
        <ele>1321</ele>
        <time>2017-03-03T21:41:32Z</time>
      </trkpt>
      <trkpt lat="44.47804" lon="3.65394">
        <ele>1323</ele>
        <time>2017-03-03T21:43:32Z</time>
      </trkpt>
      <trkpt lat="44.4781" lon="3.65378">
        <ele>1324</ele>
        <time>2017-03-03T21:45:32Z</time>
      </trkpt>
      <trkpt lat="44.47814" lon="3.65362">
        <ele>1325</ele>
        <time>2017-03-03T21:47:32Z</time>
      </trkpt>
      <trkpt lat="44.47814" lon="3.65335">
        <ele>1326</ele>
        <time>2017-03-03T21:49:32Z</time>
      </trkpt>
      <trkpt lat="44.47816" lon="3.65314">
        <ele>1327</ele>
        <time>2017-03-03T21:51:32Z</time>
      </trkpt>
      <trkpt lat="44.47821" lon="3.65282">
        <ele>1329</ele>
        <time>2017-03-03T21:53:32Z</time>
      </trkpt>
      <trkpt lat="44.47821" lon="3.65257">
        <ele>1329</ele>
        <time>2017-03-03T21:55:32Z</time>
      </trkpt>
      <trkpt lat="44.4782" lon="3.65227">
        <ele>1331</ele>
        <time>2017-03-03T21:57:32Z</time>
      </trkpt>
      <trkpt lat="44.47816" lon="3.65199">
        <ele>1332</ele>
        <time>2017-03-03T21:59:32Z</time>
      </trkpt>
      <trkpt lat="44.4781" lon="3.65164">
        <ele>1334</ele>
        <time>2017-03-03T22:01:32Z</time>
      </trkpt>
      <trkpt lat="44.47801" lon="3.65133">
        <ele>1335</ele>
        <time>2017-03-03T22:03:32Z</time>
      </trkpt>
      <trkpt lat="44.47795" lon="3.65105">
        <ele>1336</ele>
        <time>2017-03-03T22:05:32Z</time>
      </trkpt>
      <trkpt lat="44.47791" lon="3.65075">
        <ele>1338</ele>
        <time>2017-03-03T22:07:32Z</time>
      </trkpt>
      <trkpt lat="44.4779" lon="3.65049">
        <ele>1338</ele>
        <time>2017-03-03T22:09:32Z</time>
      </trkpt>
      <trkpt lat="44.47788" lon="3.65031">
        <ele>1338</ele>
        <time>2017-03-03T22:11:32Z</time>
      </trkpt>
      <trkpt lat="44.47788" lon="3.65028">
        <ele>1339</ele>
        <time>2017-03-03T22:13:32Z</time>
      </trkpt>
      <trkpt lat="44.47786" lon="3.65013">
        <ele>1339</ele>
        <time>2017-03-03T22:15:32Z</time>
      </trkpt>
      <trkpt lat="44.47783" lon="3.65004">
        <ele>1339</ele>
        <time>2017-03-03T22:17:32Z</time>
      </trkpt>
      <trkpt lat="44.47778" lon="3.64994">
        <ele>1339</ele>
        <time>2017-03-03T22:19:32Z</time>
      </trkpt>
      <trkpt lat="44.47772" lon="3.64983">
        <ele>1338</ele>
        <time>2017-03-03T22:21:32Z</time>
      </trkpt>
      <trkpt lat="44.47771" lon="3.64975">
        <ele>1337</ele>
        <time>2017-03-03T22:23:32Z</time>
      </trkpt>
      <trkpt lat="44.47771" lon="3.64975">
        <ele>1337</ele>
        <time>2017-03-03T22:25:32Z</time>
      </trkpt>
      <trkpt lat="44.47766" lon="3.64971">
        <ele>1337</ele>
        <time>2017-03-03T22:27:32Z</time>
      </trkpt>
      <trkpt lat="44.47761" lon="3.64966">
        <ele>1336</ele>
        <time>2017-03-03T22:29:32Z</time>
      </trkpt>
      <trkpt lat="44.47756" lon="3.64962">
        <ele>1336</ele>
        <time>2017-03-03T22:31:32Z</time>
      </trkpt>
      <trkpt lat="44.47737" lon="3.64949">
        <ele>1335</ele>
        <time>2017-03-03T22:33:32Z</time>
      </trkpt>
      <trkpt lat="44.477" lon="3.64926">
        <ele>1335</ele>
        <time>2017-03-03T22:35:32Z</time>
      </trkpt>
      <trkpt lat="44.47676" lon="3.6491">
        <ele>1335</ele>
        <time>2017-03-03T22:37:32Z</time>
      </trkpt>
      <trkpt lat="44.47669" lon="3.64907">
        <ele>1335</ele>
        <time>2017-03-03T22:39:32Z</time>
      </trkpt>
      <trkpt lat="44.4766" lon="3.64907">
        <ele>1335</ele>
        <time>2017-03-03T22:41:32Z</time>
      </trkpt>
      <trkpt lat="44.47643" lon="3.64905">
        <ele>1335</ele>
        <time>2017-03-03T22:43:32Z</time>
      </trkpt>
      <trkpt lat="44.47626" lon="3.64902">
        <ele>1336</ele>
        <time>2017-03-03T22:45:32Z</time>
      </trkpt>
      <trkpt lat="44.47601" lon="3.64891">
        <ele>1335</ele>
        <time>2017-03-03T22:47:32Z</time>
      </trkpt>
      <trkpt lat="44.47583" lon="3.64881">
        <ele>1335</ele>
        <time>2017-03-03T22:49:32Z</time>
      </trkpt>
      <trkpt lat="44.47563" lon="3.6486">
        <ele>1333</ele>
        <time>2017-03-03T22:51:32Z</time>
      </trkpt>
      <trkpt lat="44.47555" lon="3.64852">
        <ele>1333</ele>
        <time>2017-03-03T22:53:32Z</time>
      </trkpt>
      <trkpt lat="44.47544" lon="3.64847">
        <ele>1333</ele>
        <time>2017-03-03T22:55:32Z</time>
      </trkpt>
      <trkpt lat="44.47524" lon="3.6484">
        <ele>1333</ele>
        <time>2017-03-03T22:57:32Z</time>
      </trkpt>
      <trkpt lat="44.47513" lon="3.64837">
        <ele>1333</ele>
        <time>2017-03-03T22:59:32Z</time>
      </trkpt>
      <trkpt lat="44.475" lon="3.64838">
        <ele>1333</ele>
        <time>2017-03-03T23:01:32Z</time>
      </trkpt>
      <trkpt lat="44.4749" lon="3.64835">
        <ele>1334</ele>
        <time>2017-03-03T23:03:32Z</time>
      </trkpt>
      <trkpt lat="44.47468" lon="3.64824">
        <ele>1335</ele>
        <time>2017-03-03T23:05:32Z</time>
      </trkpt>
      <trkpt lat="44.47454" lon="3.64819">
        <ele>1336</ele>
        <time>2017-03-03T23:07:32Z</time>
      </trkpt>
      <trkpt lat="44.47443" lon="3.64815">
        <ele>1336</ele>
        <time>2017-03-03T23:09:32Z</time>
      </trkpt>
      <trkpt lat="44.47436" lon="3.64809">
        <ele>1337</ele>
        <time>2017-03-03T23:11:32Z</time>
      </trkpt>
      <trkpt lat="44.47416" lon="3.64785">
        <ele>1339</ele>
        <time>2017-03-03T23:13:32Z</time>
      </trkpt>
      <trkpt lat="44.4741" lon="3.64778">
        <ele>1339</ele>
        <time>2017-03-03T23:15:32Z</time>
      </trkpt>
      <trkpt lat="44.47402" lon="3.64772">
        <ele>1339</ele>
        <time>2017-03-03T23:17:32Z</time>
      </trkpt>
      <trkpt lat="44.47385" lon="3.64765">
        <ele>1340</ele>
        <time>2017-03-03T23:19:32Z</time>
      </trkpt>
      <trkpt lat="44.47365" lon="3.64752">
        <ele>1341</ele>
        <time>2017-03-03T23:21:32Z</time>
      </trkpt>
      <trkpt lat="44.47353" lon="3.64743">
        <ele>1341</ele>
        <time>2017-03-03T23:23:32Z</time>
      </trkpt>
      <trkpt lat="44.47343" lon="3.6473">
        <ele>1342</ele>
        <time>2017-03-03T23:25:32Z</time>
      </trkpt>
      <trkpt lat="44.4733" lon="3.64707">
        <ele>1343</ele>
        <time>2017-03-03T23:27:32Z</time>
      </trkpt>
      <trkpt lat="44.4732" lon="3.64683">
        <ele>1343</ele>
        <time>2017-03-03T23:29:32Z</time>
      </trkpt>
      <trkpt lat="44.4731" lon="3.64663">
        <ele>1343</ele>
        <time>2017-03-03T23:31:32Z</time>
      </trkpt>
      <trkpt lat="44.47296" lon="3.64643">
        <ele>1343</ele>
        <time>2017-03-03T23:33:32Z</time>
      </trkpt>
      <trkpt lat="44.47278" lon="3.64625">
        <ele>1343</ele>
        <time>2017-03-03T23:35:32Z</time>
      </trkpt>
      <trkpt lat="44.47261" lon="3.64611">
        <ele>1343</ele>
        <time>2017-03-03T23:37:32Z</time>
      </trkpt>
      <trkpt lat="44.4725" lon="3.64604">
        <ele>1343</ele>
        <time>2017-03-03T23:39:32Z</time>
      </trkpt>
      <trkpt lat="44.47238" lon="3.64601">
        <ele>1344</ele>
        <time>2017-03-03T23:41:32Z</time>
      </trkpt>
      <trkpt lat="44.47227" lon="3.64596">
        <ele>1344</ele>
        <time>2017-03-03T23:43:32Z</time>
      </trkpt>
      <trkpt lat="44.47219" lon="3.64588">
        <ele>1345</ele>
        <time>2017-03-03T23:45:32Z</time>
      </trkpt>
      <trkpt lat="44.47211" lon="3.64576">
        <ele>1346</ele>
        <time>2017-03-03T23:47:32Z</time>
      </trkpt>
      <trkpt lat="44.47204" lon="3.64554">
        <ele>1347</ele>
        <time>2017-03-03T23:49:32Z</time>
      </trkpt>
      <trkpt lat="44.47199" lon="3.64542">
        <ele>1347</ele>
        <time>2017-03-03T23:51:32Z</time>
      </trkpt>
      <trkpt lat="44.4719" lon="3.64524">
        <ele>1349</ele>
        <time>2017-03-03T23:53:32Z</time>
      </trkpt>
      <trkpt lat="44.47177" lon="3.64492">
        <ele>1351</ele>
        <time>2017-03-03T23:55:32Z</time>
      </trkpt>
      <trkpt lat="44.47171" lon="3.64476">
        <ele>1353</ele>
        <time>2017-03-03T23:57:32Z</time>
      </trkpt>
      <trkpt lat="44.47166" lon="3.64446">
        <ele>1355</ele>
        <time>2017-03-03T23:59:32Z</time>
      </trkpt>
      <trkpt lat="44.47156" lon="3.64414">
        <ele>1357</ele>
        <time>2017-03-04T00:01:32Z</time>
      </trkpt>
      <trkpt lat="44.47147" lon="3.64376">
        <ele>1360</ele>
        <time>2017-03-04T00:03:32Z</time>
      </trkpt>
      <trkpt lat="44.47138" lon="3.64347">
        <ele>1362</ele>
        <time>2017-03-04T00:05:32Z</time>
      </trkpt>
      <trkpt lat="44.47125" lon="3.64311">
        <ele>1366</ele>
        <time>2017-03-04T00:07:32Z</time>
      </trkpt>
      <trkpt lat="44.47119" lon="3.64298">
        <ele>1367</ele>
        <time>2017-03-04T00:09:32Z</time>
      </trkpt>
      <trkpt lat="44.47113" lon="3.64293">
        <ele>1368</ele>
        <time>2017-03-04T00:11:32Z</time>
      </trkpt>
      <trkpt lat="44.47107" lon="3.64289">
        <ele>1369</ele>
        <time>2017-03-04T00:13:32Z</time>
      </trkpt>
      <trkpt lat="44.4709" lon="3.64284">
        <ele>1371</ele>
        <time>2017-03-04T00:15:32Z</time>
      </trkpt>
      <trkpt lat="44.47066" lon="3.64276">
        <ele>1373</ele>
        <time>2017-03-04T00:17:32Z</time>
      </trkpt>
      <trkpt lat="44.47049" lon="3.64267">
        <ele>1374</ele>
        <time>2017-03-04T00:19:32Z</time>
      </trkpt>
      <trkpt lat="44.47023" lon="3.64252">
        <ele>1376</ele>
        <time>2017-03-04T00:21:32Z</time>
      </trkpt>
      <trkpt lat="44.4701" lon="3.64244">
        <ele>1377</ele>
        <time>2017-03-04T00:23:32Z</time>
      </trkpt>
      <trkpt lat="44.46995" lon="3.64238">
        <ele>1378</ele>
        <time>2017-03-04T00:25:32Z</time>
      </trkpt>
      <trkpt lat="44.46985" lon="3.64238">
        <ele>1378</ele>
        <time>2017-03-04T00:27:32Z</time>
      </trkpt>
      <trkpt lat="44.46978" lon="3.6424">
        <ele>1378</ele>
        <time>2017-03-04T00:29:32Z</time>
      </trkpt>
      <trkpt lat="44.46951" lon="3.64256">
        <ele>1377</ele>
        <time>2017-03-04T00:31:32Z</time>
      </trkpt>
      <trkpt lat="44.46931" lon="3.64266">
        <ele>1378</ele>
        <time>2017-03-04T00:33:32Z</time>
      </trkpt>
      <trkpt lat="44.46905" lon="3.64277">
        <ele>1378</ele>
        <time>2017-03-04T00:35:32Z</time>
      </trkpt>
      <trkpt lat="44.46872" lon="3.6429">
        <ele>1379</ele>
        <time>2017-03-04T00:37:32Z</time>
      </trkpt>
      <trkpt lat="44.46854" lon="3.64296">
        <ele>1380</ele>
        <time>2017-03-04T00:39:32Z</time>
      </trkpt>
      <trkpt lat="44.4684" lon="3.64304">
        <ele>1380</ele>
        <time>2017-03-04T00:41:32Z</time>
      </trkpt>
      <trkpt lat="44.46811" lon="3.64321">
        <ele>1382</ele>
        <time>2017-03-04T00:43:32Z</time>
      </trkpt>
      <trkpt lat="44.46789" lon="3.64334">
        <ele>1383</ele>
        <time>2017-03-04T00:45:32Z</time>
      </trkpt>
      <trkpt lat="44.4677" lon="3.64342">
        <ele>1383</ele>
        <time>2017-03-04T00:47:32Z</time>
      </trkpt>
      <trkpt lat="44.46749" lon="3.64352">
        <ele>1384</ele>
        <time>2017-03-04T00:49:32Z</time>
      </trkpt>
      <trkpt lat="44.46729" lon="3.64362">
        <ele>1382</ele>
        <time>2017-03-04T00:51:32Z</time>
      </trkpt>
      <trkpt lat="44.46713" lon="3.64371">
        <ele>1381</ele>
        <time>2017-03-04T00:53:32Z</time>
      </trkpt>
      <trkpt lat="44.46697" lon="3.64378">
        <ele>1380</ele>
        <time>2017-03-04T00:55:32Z</time>
      </trkpt>
      <trkpt lat="44.46682" lon="3.64383">
        <ele>1378</ele>
        <time>2017-03-04T00:57:32Z</time>
      </trkpt>
      <trkpt lat="44.46671" lon="3.64381">
        <ele>1377</ele>
        <time>2017-03-04T00:59:32Z</time>
      </trkpt>
      <trkpt lat="44.46654" lon="3.64376">
        <ele>1376</ele>
        <time>2017-03-04T01:01:32Z</time>
      </trkpt>
      <trkpt lat="44.46648" lon="3.64376">
        <ele>1375</ele>
        <time>2017-03-04T01:03:32Z</time>
      </trkpt>
      <trkpt lat="44.46636" lon="3.64378">
        <ele>1374</ele>
        <time>2017-03-04T01:05:32Z</time>
      </trkpt>
      <trkpt lat="44.46621" lon="3.64384">
        <ele>1372</ele>
        <time>2017-03-04T01:07:32Z</time>
      </trkpt>
      <trkpt lat="44.46613" lon="3.64385">
        <ele>1372</ele>
        <time>2017-03-04T01:09:32Z</time>
      </trkpt>
      <trkpt lat="44.46596" lon="3.64387">
        <ele>1370</ele>
        <time>2017-03-04T01:11:32Z</time>
      </trkpt>
      <trkpt lat="44.46559" lon="3.64396">
        <ele>1369</ele>
        <time>2017-03-04T01:13:32Z</time>
      </trkpt>
      <trkpt lat="44.46556" lon="3.64398">
        <ele>1370</ele>
        <time>2017-03-04T01:15:32Z</time>
      </trkpt>
      <trkpt lat="44.46539" lon="3.64406">
        <ele>1370</ele>
        <time>2017-03-04T01:17:32Z</time>
      </trkpt>
      <trkpt lat="44.46515" lon="3.6441">
        <ele>1371</ele>
        <time>2017-03-04T01:19:32Z</time>
      </trkpt>
      <trkpt lat="44.46502" lon="3.64407">
        <ele>1372</ele>
        <time>2017-03-04T01:21:32Z</time>
      </trkpt>
      <trkpt lat="44.46461" lon="3.64395">
        <ele>1376</ele>
        <time>2017-03-04T01:23:32Z</time>
      </trkpt>
      <trkpt lat="44.46443" lon="3.64388">
        <ele>1377</ele>
        <time>2017-03-04T01:25:32Z</time>
      </trkpt>
      <trkpt lat="44.46435" lon="3.64383">
        <ele>1377</ele>
        <time>2017-03-04T01:27:32Z</time>
      </trkpt>
      <trkpt lat="44.46426" lon="3.64377">
        <ele>1377</ele>
        <time>2017-03-04T01:29:32Z</time>
      </trkpt>
      <trkpt lat="44.46418" lon="3.64376">
        <ele>1378</ele>
        <time>2017-03-04T01:31:32Z</time>
      </trkpt>
      <trkpt lat="44.4641" lon="3.64373">
        <ele>1378</ele>
        <time>2017-03-04T01:33:32Z</time>
      </trkpt>
      <trkpt lat="44.46384" lon="3.64362">
        <ele>1380</ele>
        <time>2017-03-04T01:35:32Z</time>
      </trkpt>
      <trkpt lat="44.46355" lon="3.64346">
        <ele>1382</ele>
        <time>2017-03-04T01:37:32Z</time>
      </trkpt>
      <trkpt lat="44.46332" lon="3.64334">
        <ele>1384</ele>
        <time>2017-03-04T01:39:32Z</time>
      </trkpt>
      <trkpt lat="44.46322" lon="3.64326">
        <ele>1384</ele>
        <time>2017-03-04T01:41:32Z</time>
      </trkpt>
      <trkpt lat="44.46309" lon="3.64313">
        <ele>1383</ele>
        <time>2017-03-04T01:43:32Z</time>
      </trkpt>
      <trkpt lat="44.46301" lon="3.6431">
        <ele>1383</ele>
        <time>2017-03-04T01:45:32Z</time>
      </trkpt>
      <trkpt lat="44.46287" lon="3.64309">
        <ele>1384</ele>
        <time>2017-03-04T01:47:32Z</time>
      </trkpt>
      <trkpt lat="44.46276" lon="3.64306">
        <ele>1384</ele>
        <time>2017-03-04T01:49:32Z</time>
      </trkpt>
      <trkpt lat="44.46242" lon="3.6429">
        <ele>1384</ele>
        <time>2017-03-04T01:51:32Z</time>
      </trkpt>
      <trkpt lat="44.46216" lon="3.64281">
        <ele>1384</ele>
        <time>2017-03-04T01:53:32Z</time>
      </trkpt>
      <trkpt lat="44.46192" lon="3.64276">
        <ele>1385</ele>
        <time>2017-03-04T01:55:32Z</time>
      </trkpt>
      <trkpt lat="44.46166" lon="3.64269">
        <ele>1386</ele>
        <time>2017-03-04T01:57:32Z</time>
      </trkpt>
      <trkpt lat="44.46128" lon="3.64261">
        <ele>1388</ele>
        <time>2017-03-04T01:59:32Z</time>
      </trkpt>
      <trkpt lat="44.461" lon="3.64254">
        <ele>1390</ele>
        <time>2017-03-04T02:01:32Z</time>
      </trkpt>
      <trkpt lat="44.46065" lon="3.64249">
        <ele>1393</ele>
        <time>2017-03-04T02:03:32Z</time>
      </trkpt>
      <trkpt lat="44.46058" lon="3.64246">
        <ele>1394</ele>
        <time>2017-03-04T02:05:32Z</time>
      </trkpt>
      <trkpt lat="44.46045" lon="3.64235">
        <ele>1397</ele>
        <time>2017-03-04T02:07:32Z</time>
      </trkpt>
      <trkpt lat="44.46016" lon="3.64204">
        <ele>1401</ele>
        <time>2017-03-04T02:09:32Z</time>
      </trkpt>
      <trkpt lat="44.45994" lon="3.64183">
        <ele>1405</ele>
        <time>2017-03-04T02:11:32Z</time>
      </trkpt>
      <trkpt lat="44.45971" lon="3.64164">
        <ele>1408</ele>
        <time>2017-03-04T02:13:32Z</time>
      </trkpt>
      <trkpt lat="44.45956" lon="3.64146">
        <ele>1410</ele>
        <time>2017-03-04T02:15:32Z</time>
      </trkpt>
      <trkpt lat="44.45944" lon="3.64137">
        <ele>1411</ele>
        <time>2017-03-04T02:17:32Z</time>
      </trkpt>
      <trkpt lat="44.45935" lon="3.64126">
        <ele>1412</ele>
        <time>2017-03-04T02:19:32Z</time>
      </trkpt>
      <trkpt lat="44.45927" lon="3.64118">
        <ele>1412</ele>
        <time>2017-03-04T02:21:32Z</time>
      </trkpt>
      <trkpt lat="44.45887" lon="3.64077">
        <ele>1414</ele>
        <time>2017-03-04T02:23:32Z</time>
      </trkpt>
      <trkpt lat="44.4586" lon="3.6405">
        <ele>1413</ele>
        <time>2017-03-04T02:25:32Z</time>
      </trkpt>
      <trkpt lat="44.45849" lon="3.64041">
        <ele>1413</ele>
        <time>2017-03-04T02:27:32Z</time>
      </trkpt>
      <trkpt lat="44.45815" lon="3.64006">
        <ele>1414</ele>
        <time>2017-03-04T02:29:32Z</time>
      </trkpt>
      <trkpt lat="44.45781" lon="3.63971">
        <ele>1417</ele>
        <time>2017-03-04T02:31:32Z</time>
      </trkpt>
      <trkpt lat="44.45769" lon="3.63953">
        <ele>1418</ele>
        <time>2017-03-04T02:33:32Z</time>
      </trkpt>
      <trkpt lat="44.45746" lon="3.63909">
        <ele>1420</ele>
        <time>2017-03-04T02:35:32Z</time>
      </trkpt>
      <trkpt lat="44.45732" lon="3.63892">
        <ele>1422</ele>
        <time>2017-03-04T02:37:32Z</time>
      </trkpt>
      <trkpt lat="44.45728" lon="3.63886">
        <ele>1422</ele>
        <time>2017-03-04T02:39:32Z</time>
      </trkpt>
      <trkpt lat="44.45697" lon="3.63834">
        <ele>1424</ele>
        <time>2017-03-04T02:41:32Z</time>
      </trkpt>
      <trkpt lat="44.45691" lon="3.63824">
        <ele>1425</ele>
        <time>2017-03-04T02:43:32Z</time>
      </trkpt>
      <trkpt lat="44.45661" lon="3.63778">
        <ele>1426</ele>
        <time>2017-03-04T02:45:32Z</time>
      </trkpt>
      <trkpt lat="44.45608" lon="3.63698">
        <ele>1430</ele>
        <time>2017-03-04T02:47:32Z</time>
      </trkpt>
      <trkpt lat="44.45551" lon="3.63608">
        <ele>1433</ele>
        <time>2017-03-04T02:49:32Z</time>
      </trkpt>
      <trkpt lat="44.45512" lon="3.63544">
        <ele>1436</ele>
        <time>2017-03-04T02:51:32Z</time>
      </trkpt>
      <trkpt lat="44.45479" lon="3.63482">
        <ele>1437</ele>
        <time>2017-03-04T02:53:32Z</time>
      </trkpt>
      <trkpt lat="44.45443" lon="3.63407">
        <ele>1439</ele>
        <time>2017-03-04T02:55:32Z</time>
      </trkpt>
      <trkpt lat="44.45435" lon="3.63392">
        <ele>1439</ele>
        <time>2017-03-04T02:57:32Z</time>
      </trkpt>
      <trkpt lat="44.45416" lon="3.63348">
        <ele>1440</ele>
        <time>2017-03-04T02:59:32Z</time>
      </trkpt>
      <trkpt lat="44.45413" lon="3.63341">
        <ele>1440</ele>
        <time>2017-03-04T03:01:32Z</time>
      </trkpt>
      <trkpt lat="44.45413" lon="3.63341">
        <ele>1440</ele>
        <time>2017-03-04T03:03:32Z</time>
      </trkpt>
      <trkpt lat="44.45409" lon="3.63347">
        <ele>1440</ele>
        <time>2017-03-04T03:05:32Z</time>
      </trkpt>
      <trkpt lat="44.45402" lon="3.63357">
        <ele>1440</ele>
        <time>2017-03-04T03:07:32Z</time>
      </trkpt>
      <trkpt lat="44.45402" lon="3.63357">
        <ele>1440</ele>
        <time>2017-03-04T03:09:32Z</time>
      </trkpt>
      <trkpt lat="44.4537" lon="3.63321">
        <ele>1439</ele>
        <time>2017-03-04T03:11:32Z</time>
      </trkpt>
      <trkpt lat="44.45339" lon="3.63281">
        <ele>1439</ele>
        <time>2017-03-04T03:13:32Z</time>
      </trkpt>
      <trkpt lat="44.45298" lon="3.63235">
        <ele>1436</ele>
        <time>2017-03-04T03:15:32Z</time>
      </trkpt>
      <trkpt lat="44.45262" lon="3.63202">
        <ele>1433</ele>
        <time>2017-03-04T03:17:32Z</time>
      </trkpt>
      <trkpt lat="44.45208" lon="3.63151">
        <ele>1425</ele>
        <time>2017-03-04T03:19:32Z</time>
      </trkpt>
      <trkpt lat="44.45155" lon="3.63092">
        <ele>1420</ele>
        <time>2017-03-04T03:21:32Z</time>
      </trkpt>
      <trkpt lat="44.45109" lon="3.63041">
        <ele>1415</ele>
        <time>2017-03-04T03:23:32Z</time>
      </trkpt>
      <trkpt lat="44.45108" lon="3.63039">
        <ele>1415</ele>
        <time>2017-03-04T03:25:32Z</time>
      </trkpt>
      <trkpt lat="44.45058" lon="3.62983">
        <ele>1414</ele>
        <time>2017-03-04T03:27:32Z</time>
      </trkpt>
      <trkpt lat="44.45037" lon="3.62969">
        <ele>1415</ele>
        <time>2017-03-04T03:29:32Z</time>
      </trkpt>
      <trkpt lat="44.45029" lon="3.62963">
        <ele>1415</ele>
        <time>2017-03-04T03:31:32Z</time>
      </trkpt>
      <trkpt lat="44.44982" lon="3.62941">
        <ele>1417</ele>
        <time>2017-03-04T03:33:32Z</time>
      </trkpt>
      <trkpt lat="44.4494" lon="3.62924">
        <ele>1420</ele>
        <time>2017-03-04T03:35:32Z</time>
      </trkpt>
      <trkpt lat="44.44902" lon="3.62914">
        <ele>1421</ele>
        <time>2017-03-04T03:37:32Z</time>
      </trkpt>
      <trkpt lat="44.44871" lon="3.62907">
        <ele>1421</ele>
        <time>2017-03-04T03:39:32Z</time>
      </trkpt>
      <trkpt lat="44.44859" lon="3.62907">
        <ele>1421</ele>
        <time>2017-03-04T03:41:32Z</time>
      </trkpt>
      <trkpt lat="44.44854" lon="3.62908">
        <ele>1420</ele>
        <time>2017-03-04T03:43:32Z</time>
      </trkpt>
      <trkpt lat="44.44826" lon="3.62893">
        <ele>1422</ele>
        <time>2017-03-04T03:45:32Z</time>
      </trkpt>
      <trkpt lat="44.44813" lon="3.62886">
        <ele>1422</ele>
        <time>2017-03-04T03:47:32Z</time>
      </trkpt>
      <trkpt lat="44.44759" lon="3.62848">
        <ele>1424</ele>
        <time>2017-03-04T03:49:32Z</time>
      </trkpt>
      <trkpt lat="44.44757" lon="3.62842">
        <ele>1424</ele>
        <time>2017-03-04T03:51:32Z</time>
      </trkpt>
      <trkpt lat="44.44757" lon="3.62833">
        <ele>1424</ele>
        <time>2017-03-04T03:53:32Z</time>
      </trkpt>
      <trkpt lat="44.4476" lon="3.62825">
        <ele>1424</ele>
        <time>2017-03-04T03:55:32Z</time>
      </trkpt>
      <trkpt lat="44.44761" lon="3.62816">
        <ele>1424</ele>
        <time>2017-03-04T03:57:32Z</time>
      </trkpt>
      <trkpt lat="44.44761" lon="3.62806">
        <ele>1424</ele>
        <time>2017-03-04T03:59:32Z</time>
      </trkpt>
      <trkpt lat="44.44762" lon="3.62779">
        <ele>1423</ele>
        <time>2017-03-04T04:01:32Z</time>
      </trkpt>
      <trkpt lat="44.44762" lon="3.6277">
        <ele>1423</ele>
        <time>2017-03-04T04:03:32Z</time>
      </trkpt>
      <trkpt lat="44.44762" lon="3.62766">
        <ele>1422</ele>
        <time>2017-03-04T04:05:32Z</time>
      </trkpt>
      <trkpt lat="44.44762" lon="3.62766">
        <ele>1422</ele>
        <time>2017-03-04T04:07:32Z</time>
      </trkpt>
      <trkpt lat="44.44756" lon="3.62759">
        <ele>1422</ele>
        <time>2017-03-04T04:09:32Z</time>
      </trkpt>
      <trkpt lat="44.44732" lon="3.6274">
        <ele>1420</ele>
        <time>2017-03-04T04:11:32Z</time>
      </trkpt>
      <trkpt lat="44.4471" lon="3.62715">
        <ele>1417</ele>
        <time>2017-03-04T04:13:32Z</time>
      </trkpt>
      <trkpt lat="44.44692" lon="3.62696">
        <ele>1415</ele>
        <time>2017-03-04T04:15:32Z</time>
      </trkpt>
      <trkpt lat="44.44683" lon="3.62685">
        <ele>1414</ele>
        <time>2017-03-04T04:17:32Z</time>
      </trkpt>
      <trkpt lat="44.4465" lon="3.62636">
        <ele>1409</ele>
        <time>2017-03-04T04:19:32Z</time>
      </trkpt>
      <trkpt lat="44.44623" lon="3.62601">
        <ele>1407</ele>
        <time>2017-03-04T04:21:32Z</time>
      </trkpt>
      <trkpt lat="44.44599" lon="3.62569">
        <ele>1407</ele>
        <time>2017-03-04T04:23:32Z</time>
      </trkpt>
      <trkpt lat="44.44589" lon="3.62552">
        <ele>1408</ele>
        <time>2017-03-04T04:25:32Z</time>
      </trkpt>
      <trkpt lat="44.44569" lon="3.62514">
        <ele>1410</ele>
        <time>2017-03-04T04:27:32Z</time>
      </trkpt>
      <trkpt lat="44.44559" lon="3.62488">
        <ele>1411</ele>
        <time>2017-03-04T04:29:32Z</time>
      </trkpt>
      <trkpt lat="44.44537" lon="3.62422">
        <ele>1415</ele>
        <time>2017-03-04T04:31:32Z</time>
      </trkpt>
      <trkpt lat="44.4453" lon="3.62407">
        <ele>1416</ele>
        <time>2017-03-04T04:33:32Z</time>
      </trkpt>
      <trkpt lat="44.44526" lon="3.62396">
        <ele>1416</ele>
        <time>2017-03-04T04:35:32Z</time>
      </trkpt>
      <trkpt lat="44.44522" lon="3.62377">
        <ele>1416</ele>
        <time>2017-03-04T04:37:32Z</time>
      </trkpt>
      <trkpt lat="44.44518" lon="3.62353">
        <ele>1415</ele>
        <time>2017-03-04T04:39:32Z</time>
      </trkpt>
      <trkpt lat="44.44516" lon="3.6234">
        <ele>1415</ele>
        <time>2017-03-04T04:41:32Z</time>
      </trkpt>
      <trkpt lat="44.44512" lon="3.62331">
        <ele>1415</ele>
        <time>2017-03-04T04:43:32Z</time>
      </trkpt>
      <trkpt lat="44.44497" lon="3.62308">
        <ele>1415</ele>
        <time>2017-03-04T04:45:32Z</time>
      </trkpt>
      <trkpt lat="44.44482" lon="3.62286">
        <ele>1416</ele>
        <time>2017-03-04T04:47:32Z</time>
      </trkpt>
      <trkpt lat="44.44457" lon="3.62241">
        <ele>1417</ele>
        <time>2017-03-04T04:49:32Z</time>
      </trkpt>
      <trkpt lat="44.44437" lon="3.62213">
        <ele>1417</ele>
        <time>2017-03-04T04:51:32Z</time>
      </trkpt>
      <trkpt lat="44.44416" lon="3.62182">
        <ele>1417</ele>
        <time>2017-03-04T04:53:32Z</time>
      </trkpt>
      <trkpt lat="44.44398" lon="3.62154">
        <ele>1416</ele>
        <time>2017-03-04T04:55:32Z</time>
      </trkpt>
      <trkpt lat="44.44366" lon="3.62122">
        <ele>1416</ele>
        <time>2017-03-04T04:57:32Z</time>
      </trkpt>
      <trkpt lat="44.44327" lon="3.6208">
        <ele>1415</ele>
        <time>2017-03-04T04:59:32Z</time>
      </trkpt>
      <trkpt lat="44.44293" lon="3.62045">
        <ele>1414</ele>
        <time>2017-03-04T05:01:32Z</time>
      </trkpt>
      <trkpt lat="44.44288" lon="3.62036">
        <ele>1414</ele>
        <time>2017-03-04T05:03:32Z</time>
      </trkpt>
      <trkpt lat="44.44285" lon="3.62031">
        <ele>1413</ele>
        <time>2017-03-04T05:05:32Z</time>
      </trkpt>
      <trkpt lat="44.44276" lon="3.62016">
        <ele>1413</ele>
        <time>2017-03-04T05:07:32Z</time>
      </trkpt>
      <trkpt lat="44.44269" lon="3.62006">
        <ele>1412</ele>
        <time>2017-03-04T05:09:32Z</time>
      </trkpt>
      <trkpt lat="44.44268" lon="3.62">
        <ele>1412</ele>
        <time>2017-03-04T05:11:32Z</time>
      </trkpt>
      <trkpt lat="44.44269" lon="3.61989">
        <ele>1411</ele>
        <time>2017-03-04T05:13:32Z</time>
      </trkpt>
      <trkpt lat="44.4427" lon="3.61972">
        <ele>1411</ele>
        <time>2017-03-04T05:15:32Z</time>
      </trkpt>
      <trkpt lat="44.4427" lon="3.61965">
        <ele>1411</ele>
        <time>2017-03-04T05:17:32Z</time>
      </trkpt>
      <trkpt lat="44.44268" lon="3.61958">
        <ele>1411</ele>
        <time>2017-03-04T05:19:32Z</time>
      </trkpt>
      <trkpt lat="44.44261" lon="3.61939">
        <ele>1410</ele>
        <time>2017-03-04T05:21:32Z</time>
      </trkpt>
      <trkpt lat="44.44232" lon="3.61898">
        <ele>1407</ele>
        <time>2017-03-04T05:23:32Z</time>
      </trkpt>
      <trkpt lat="44.44226" lon="3.61886">
        <ele>1406</ele>
        <time>2017-03-04T05:25:32Z</time>
      </trkpt>
      <trkpt lat="44.44218" lon="3.61877">
        <ele>1405</ele>
        <time>2017-03-04T05:27:32Z</time>
      </trkpt>
      <trkpt lat="44.44211" lon="3.61866">
        <ele>1403</ele>
        <time>2017-03-04T05:29:32Z</time>
      </trkpt>
      <trkpt lat="44.44198" lon="3.61833">
        <ele>1401</ele>
        <time>2017-03-04T05:31:32Z</time>
      </trkpt>
      <trkpt lat="44.4419" lon="3.61812">
        <ele>1399</ele>
        <time>2017-03-04T05:33:32Z</time>
      </trkpt>
      <trkpt lat="44.44177" lon="3.61792">
        <ele>1397</ele>
        <time>2017-03-04T05:35:32Z</time>
      </trkpt>
      <trkpt lat="44.44172" lon="3.6178">
        <ele>1396</ele>
        <time>2017-03-04T05:37:32Z</time>
      </trkpt>
      <trkpt lat="44.44169" lon="3.61761">
        <ele>1395</ele>
        <time>2017-03-04T05:39:32Z</time>
      </trkpt>
      <trkpt lat="44.44164" lon="3.61749">
        <ele>1394</ele>
        <time>2017-03-04T05:41:32Z</time>
      </trkpt>
      <trkpt lat="44.44156" lon="3.61734">
        <ele>1393</ele>
        <time>2017-03-04T05:43:32Z</time>
      </trkpt>
      <trkpt lat="44.44149" lon="3.61726">
        <ele>1392</ele>
        <time>2017-03-04T05:45:32Z</time>
      </trkpt>
      <trkpt lat="44.44142" lon="3.61712">
        <ele>1392</ele>
        <time>2017-03-04T05:47:32Z</time>
      </trkpt>
      <trkpt lat="44.44137" lon="3.617">
        <ele>1391</ele>
        <time>2017-03-04T05:49:32Z</time>
      </trkpt>
      <trkpt lat="44.44135" lon="3.61691">
        <ele>1391</ele>
        <time>2017-03-04T05:51:32Z</time>
      </trkpt>
      <trkpt lat="44.4413" lon="3.61674">
        <ele>1390</ele>
        <time>2017-03-04T05:53:32Z</time>
      </trkpt>
      <trkpt lat="44.44121" lon="3.61651">
        <ele>1389</ele>
        <time>2017-03-04T05:55:32Z</time>
      </trkpt>
      <trkpt lat="44.44094" lon="3.61599">
        <ele>1388</ele>
        <time>2017-03-04T05:57:32Z</time>
      </trkpt>
      <trkpt lat="44.44092" lon="3.61597">
        <ele>1388</ele>
        <time>2017-03-04T05:59:32Z</time>
      </trkpt>
      <trkpt lat="44.44091" lon="3.61595">
        <ele>1388</ele>
        <time>2017-03-04T06:01:32Z</time>
      </trkpt>
      <trkpt lat="44.44088" lon="3.61589">
        <ele>1388</ele>
        <time>2017-03-04T06:03:32Z</time>
      </trkpt>
      <trkpt lat="44.44084" lon="3.61585">
        <ele>1388</ele>
        <time>2017-03-04T06:05:32Z</time>
      </trkpt>
      <trkpt lat="44.44079" lon="3.61577">
        <ele>1388</ele>
        <time>2017-03-04T06:07:32Z</time>
      </trkpt>
      <trkpt lat="44.44068" lon="3.6156">
        <ele>1388</ele>
        <time>2017-03-04T06:09:32Z</time>
      </trkpt>
      <trkpt lat="44.44065" lon="3.6155">
        <ele>1387</ele>
        <time>2017-03-04T06:11:32Z</time>
      </trkpt>
      <trkpt lat="44.44059" lon="3.61526">
        <ele>1387</ele>
        <time>2017-03-04T06:13:32Z</time>
      </trkpt>
      <trkpt lat="44.44055" lon="3.6152">
        <ele>1387</ele>
        <time>2017-03-04T06:15:32Z</time>
      </trkpt>
      <trkpt lat="44.44042" lon="3.61503">
        <ele>1387</ele>
        <time>2017-03-04T06:17:32Z</time>
      </trkpt>
      <trkpt lat="44.44033" lon="3.61488">
        <ele>1386</ele>
        <time>2017-03-04T06:19:32Z</time>
      </trkpt>
      <trkpt lat="44.44031" lon="3.61482">
        <ele>1386</ele>
        <time>2017-03-04T06:21:32Z</time>
      </trkpt>
      <trkpt lat="44.44024" lon="3.61468">
        <ele>1385</ele>
        <time>2017-03-04T06:23:32Z</time>
      </trkpt>
      <trkpt lat="44.44017" lon="3.61453">
        <ele>1385</ele>
        <time>2017-03-04T06:25:32Z</time>
      </trkpt>
      <trkpt lat="44.44013" lon="3.61444">
        <ele>1385</ele>
        <time>2017-03-04T06:27:32Z</time>
      </trkpt>
      <trkpt lat="44.44002" lon="3.61424">
        <ele>1384</ele>
        <time>2017-03-04T06:29:32Z</time>
      </trkpt>
      <trkpt lat="44.43997" lon="3.61412">
        <ele>1384</ele>
        <time>2017-03-04T06:31:32Z</time>
      </trkpt>
      <trkpt lat="44.43994" lon="3.61401">
        <ele>1383</ele>
        <time>2017-03-04T06:33:32Z</time>
      </trkpt>
      <trkpt lat="44.43989" lon="3.61393">
        <ele>1382</ele>
        <time>2017-03-04T06:35:32Z</time>
      </trkpt>
      <trkpt lat="44.43983" lon="3.61387">
        <ele>1382</ele>
        <time>2017-03-04T06:37:32Z</time>
      </trkpt>
      <trkpt lat="44.43976" lon="3.61381">
        <ele>1381</ele>
        <time>2017-03-04T06:39:32Z</time>
      </trkpt>
      <trkpt lat="44.4397" lon="3.61376">
        <ele>1380</ele>
        <time>2017-03-04T06:41:32Z</time>
      </trkpt>
      <trkpt lat="44.43963" lon="3.61367">
        <ele>1379</ele>
        <time>2017-03-04T06:43:32Z</time>
      </trkpt>
      <trkpt lat="44.43956" lon="3.61363">
        <ele>1379</ele>
        <time>2017-03-04T06:45:32Z</time>
      </trkpt>
      <trkpt lat="44.43951" lon="3.61359">
        <ele>1378</ele>
        <time>2017-03-04T06:47:32Z</time>
      </trkpt>
      <trkpt lat="44.43944" lon="3.6135">
        <ele>1377</ele>
        <time>2017-03-04T06:49:32Z</time>
      </trkpt>
      <trkpt lat="44.43938" lon="3.61344">
        <ele>1377</ele>
        <time>2017-03-04T06:51:32Z</time>
      </trkpt>
      <trkpt lat="44.43929" lon="3.61335">
        <ele>1376</ele>
        <time>2017-03-04T06:53:32Z</time>
      </trkpt>
      <trkpt lat="44.43921" lon="3.61326">
        <ele>1375</ele>
        <time>2017-03-04T06:55:32Z</time>
      </trkpt>
      <trkpt lat="44.43916" lon="3.61315">
        <ele>1374</ele>
        <time>2017-03-04T06:57:32Z</time>
      </trkpt>
      <trkpt lat="44.43907" lon="3.61302">
        <ele>1373</ele>
        <time>2017-03-04T06:59:32Z</time>
      </trkpt>
      <trkpt lat="44.43903" lon="3.61298">
        <ele>1372</ele>
        <time>2017-03-04T07:01:32Z</time>
      </trkpt>
      <trkpt lat="44.43894" lon="3.61295">
        <ele>1372</ele>
        <time>2017-03-04T07:03:32Z</time>
      </trkpt>
      <trkpt lat="44.43883" lon="3.61293">
        <ele>1371</ele>
        <time>2017-03-04T07:05:32Z</time>
      </trkpt>
      <trkpt lat="44.43879" lon="3.61292">
        <ele>1370</ele>
        <time>2017-03-04T07:07:32Z</time>
      </trkpt>
      <trkpt lat="44.43874" lon="3.61286">
        <ele>1370</ele>
        <time>2017-03-04T07:09:32Z</time>
      </trkpt>
      <trkpt lat="44.43874" lon="3.61279">
        <ele>1369</ele>
        <time>2017-03-04T07:11:32Z</time>
      </trkpt>
      <trkpt lat="44.43872" lon="3.61275">
        <ele>1369</ele>
        <time>2017-03-04T07:13:32Z</time>
      </trkpt>
      <trkpt lat="44.43866" lon="3.6127">
        <ele>1368</ele>
        <time>2017-03-04T07:15:32Z</time>
      </trkpt>
      <trkpt lat="44.43855" lon="3.61265">
        <ele>1367</ele>
        <time>2017-03-04T07:17:32Z</time>
      </trkpt>
      <trkpt lat="44.43846" lon="3.61257">
        <ele>1366</ele>
        <time>2017-03-04T07:19:32Z</time>
      </trkpt>
      <trkpt lat="44.43832" lon="3.61248">
        <ele>1365</ele>
        <time>2017-03-04T07:21:32Z</time>
      </trkpt>
      <trkpt lat="44.43824" lon="3.61245">
        <ele>1364</ele>
        <time>2017-03-04T07:23:32Z</time>
      </trkpt>
      <trkpt lat="44.43817" lon="3.61245">
        <ele>1363</ele>
        <time>2017-03-04T07:25:32Z</time>
      </trkpt>
      <trkpt lat="44.43803" lon="3.61238">
        <ele>1361</ele>
        <time>2017-03-04T07:27:32Z</time>
      </trkpt>
      <trkpt lat="44.43789" lon="3.61226">
        <ele>1359</ele>
        <time>2017-03-04T07:29:32Z</time>
      </trkpt>
      <trkpt lat="44.43778" lon="3.61214">
        <ele>1357</ele>
        <time>2017-03-04T07:31:32Z</time>
      </trkpt>
      <trkpt lat="44.43774" lon="3.6121">
        <ele>1357</ele>
        <time>2017-03-04T07:33:32Z</time>
      </trkpt>
      <trkpt lat="44.43768" lon="3.61205">
        <ele>1356</ele>
        <time>2017-03-04T07:35:32Z</time>
      </trkpt>
      <trkpt lat="44.43761" lon="3.61201">
        <ele>1355</ele>
        <time>2017-03-04T07:37:32Z</time>
      </trkpt>
      <trkpt lat="44.43756" lon="3.61193">
        <ele>1354</ele>
        <time>2017-03-04T07:39:32Z</time>
      </trkpt>
      <trkpt lat="44.4375" lon="3.61184">
        <ele>1353</ele>
        <time>2017-03-04T07:41:32Z</time>
      </trkpt>
      <trkpt lat="44.43744" lon="3.61178">
        <ele>1352</ele>
        <time>2017-03-04T07:43:32Z</time>
      </trkpt>
      <trkpt lat="44.43739" lon="3.61165">
        <ele>1351</ele>
        <time>2017-03-04T07:45:32Z</time>
      </trkpt>
      <trkpt lat="44.43732" lon="3.61157">
        <ele>1350</ele>
        <time>2017-03-04T07:47:32Z</time>
      </trkpt>
      <trkpt lat="44.43719" lon="3.61145">
        <ele>1348</ele>
        <time>2017-03-04T07:49:32Z</time>
      </trkpt>
      <trkpt lat="44.43709" lon="3.61133">
        <ele>1346</ele>
        <time>2017-03-04T07:51:32Z</time>
      </trkpt>
      <trkpt lat="44.437" lon="3.61114">
        <ele>1344</ele>
        <time>2017-03-04T07:53:32Z</time>
      </trkpt>
      <trkpt lat="44.43692" lon="3.61101">
        <ele>1342</ele>
        <time>2017-03-04T07:55:32Z</time>
      </trkpt>
      <trkpt lat="44.43677" lon="3.61086">
        <ele>1340</ele>
        <time>2017-03-04T07:57:32Z</time>
      </trkpt>
      <trkpt lat="44.43667" lon="3.61074">
        <ele>1339</ele>
        <time>2017-03-04T07:59:32Z</time>
      </trkpt>
      <trkpt lat="44.4366" lon="3.61065">
        <ele>1337</ele>
        <time>2017-03-04T08:01:32Z</time>
      </trkpt>
      <trkpt lat="44.43654" lon="3.61063">
        <ele>1337</ele>
        <time>2017-03-04T08:03:32Z</time>
      </trkpt>
      <trkpt lat="44.43649" lon="3.6106">
        <ele>1336</ele>
        <time>2017-03-04T08:05:32Z</time>
      </trkpt>
      <trkpt lat="44.43638" lon="3.61055">
        <ele>1335</ele>
        <time>2017-03-04T08:07:32Z</time>
      </trkpt>
      <trkpt lat="44.43636" lon="3.61052">
        <ele>1334</ele>
        <time>2017-03-04T08:09:32Z</time>
      </trkpt>
      <trkpt lat="44.43629" lon="3.61041">
        <ele>1333</ele>
        <time>2017-03-04T08:11:32Z</time>
      </trkpt>
      <trkpt lat="44.43623" lon="3.61033">
        <ele>1333</ele>
        <time>2017-03-04T08:13:32Z</time>
      </trkpt>
      <trkpt lat="44.43611" lon="3.6102">
        <ele>1331</ele>
        <time>2017-03-04T08:15:32Z</time>
      </trkpt>
      <trkpt lat="44.43596" lon="3.61004">
        <ele>1329</ele>
        <time>2017-03-04T08:17:32Z</time>
      </trkpt>
      <trkpt lat="44.43582" lon="3.60988">
        <ele>1327</ele>
        <time>2017-03-04T08:19:32Z</time>
      </trkpt>
      <trkpt lat="44.43573" lon="3.60982">
        <ele>1326</ele>
        <time>2017-03-04T08:21:32Z</time>
      </trkpt>
      <trkpt lat="44.43562" lon="3.60972">
        <ele>1324</ele>
        <time>2017-03-04T08:23:32Z</time>
      </trkpt>
      <trkpt lat="44.43558" lon="3.60966">
        <ele>1323</ele>
        <time>2017-03-04T08:25:32Z</time>
      </trkpt>
      <trkpt lat="44.43554" lon="3.60961">
        <ele>1322</ele>
        <time>2017-03-04T08:27:32Z</time>
      </trkpt>
      <trkpt lat="44.43545" lon="3.60959">
        <ele>1321</ele>
        <time>2017-03-04T08:29:32Z</time>
      </trkpt>
      <trkpt lat="44.43536" lon="3.60952">
        <ele>1320</ele>
        <time>2017-03-04T08:31:32Z</time>
      </trkpt>
      <trkpt lat="44.43526" lon="3.60946">
        <ele>1318</ele>
        <time>2017-03-04T08:33:32Z</time>
      </trkpt>
      <trkpt lat="44.43522" lon="3.60943">
        <ele>1318</ele>
        <time>2017-03-04T08:35:32Z</time>
      </trkpt>
      <trkpt lat="44.43515" lon="3.60932">
        <ele>1316</ele>
        <time>2017-03-04T08:37:32Z</time>
      </trkpt>
      <trkpt lat="44.43506" lon="3.60928">
        <ele>1315</ele>
        <time>2017-03-04T08:39:32Z</time>
      </trkpt>
      <trkpt lat="44.435" lon="3.60922">
        <ele>1314</ele>
        <time>2017-03-04T08:41:32Z</time>
      </trkpt>
      <trkpt lat="44.43495" lon="3.6092">
        <ele>1314</ele>
        <time>2017-03-04T08:43:32Z</time>
      </trkpt>
      <trkpt lat="44.43482" lon="3.60917">
        <ele>1312</ele>
        <time>2017-03-04T08:45:32Z</time>
      </trkpt>
      <trkpt lat="44.43472" lon="3.6091">
        <ele>1311</ele>
        <time>2017-03-04T08:47:32Z</time>
      </trkpt>
      <trkpt lat="44.43459" lon="3.60908">
        <ele>1309</ele>
        <time>2017-03-04T08:49:32Z</time>
      </trkpt>
      <trkpt lat="44.43451" lon="3.6091">
        <ele>1309</ele>
        <time>2017-03-04T08:51:32Z</time>
      </trkpt>
      <trkpt lat="44.43446" lon="3.60909">
        <ele>1308</ele>
        <time>2017-03-04T08:53:32Z</time>
      </trkpt>
      <trkpt lat="44.43441" lon="3.60909">
        <ele>1307</ele>
        <time>2017-03-04T08:55:32Z</time>
      </trkpt>
      <trkpt lat="44.43433" lon="3.60905">
        <ele>1306</ele>
        <time>2017-03-04T08:57:32Z</time>
      </trkpt>
      <trkpt lat="44.43426" lon="3.60906">
        <ele>1306</ele>
        <time>2017-03-04T08:59:32Z</time>
      </trkpt>
      <trkpt lat="44.4342" lon="3.60906">
        <ele>1305</ele>
        <time>2017-03-04T09:01:32Z</time>
      </trkpt>
      <trkpt lat="44.43413" lon="3.60904">
        <ele>1304</ele>
        <time>2017-03-04T09:03:32Z</time>
      </trkpt>
      <trkpt lat="44.4341" lon="3.60904">
        <ele>1304</ele>
        <time>2017-03-04T09:05:32Z</time>
      </trkpt>
      <trkpt lat="44.43405" lon="3.60905">
        <ele>1303</ele>
        <time>2017-03-04T09:07:32Z</time>
      </trkpt>
      <trkpt lat="44.43399" lon="3.60906">
        <ele>1303</ele>
        <time>2017-03-04T09:09:32Z</time>
      </trkpt>
      <trkpt lat="44.43395" lon="3.60907">
        <ele>1302</ele>
        <time>2017-03-04T09:11:32Z</time>
      </trkpt>
      <trkpt lat="44.4339" lon="3.60909">
        <ele>1302</ele>
        <time>2017-03-04T09:13:32Z</time>
      </trkpt>
      <trkpt lat="44.43386" lon="3.60912">
        <ele>1301</ele>
        <time>2017-03-04T09:15:32Z</time>
      </trkpt>
      <trkpt lat="44.43383" lon="3.60912">
        <ele>1301</ele>
        <time>2017-03-04T09:17:32Z</time>
      </trkpt>
      <trkpt lat="44.4338" lon="3.60911">
        <ele>1300</ele>
        <time>2017-03-04T09:19:32Z</time>
      </trkpt>
      <trkpt lat="44.43377" lon="3.60911">
        <ele>1300</ele>
        <time>2017-03-04T09:21:32Z</time>
      </trkpt>
      <trkpt lat="44.43374" lon="3.60911">
        <ele>1300</ele>
        <time>2017-03-04T09:23:32Z</time>
      </trkpt>
      <trkpt lat="44.4337" lon="3.60912">
        <ele>1299</ele>
        <time>2017-03-04T09:25:32Z</time>
      </trkpt>
      <trkpt lat="44.43367" lon="3.60913">
        <ele>1299</ele>
        <time>2017-03-04T09:27:32Z</time>
      </trkpt>
      <trkpt lat="44.43357" lon="3.60908">
        <ele>1298</ele>
        <time>2017-03-04T09:29:32Z</time>
      </trkpt>
      <trkpt lat="44.43352" lon="3.60908">
        <ele>1297</ele>
        <time>2017-03-04T09:31:32Z</time>
      </trkpt>
      <trkpt lat="44.43345" lon="3.60906">
        <ele>1296</ele>
        <time>2017-03-04T09:33:32Z</time>
      </trkpt>
      <trkpt lat="44.43339" lon="3.60906">
        <ele>1295</ele>
        <time>2017-03-04T09:35:32Z</time>
      </trkpt>
      <trkpt lat="44.43326" lon="3.60906">
        <ele>1294</ele>
        <time>2017-03-04T09:37:32Z</time>
      </trkpt>
      <trkpt lat="44.4332" lon="3.60906">
        <ele>1293</ele>
        <time>2017-03-04T09:39:32Z</time>
      </trkpt>
      <trkpt lat="44.43311" lon="3.60907">
        <ele>1292</ele>
        <time>2017-03-04T09:41:32Z</time>
      </trkpt>
      <trkpt lat="44.43297" lon="3.60899">
        <ele>1290</ele>
        <time>2017-03-04T09:43:32Z</time>
      </trkpt>
      <trkpt lat="44.4329" lon="3.609">
        <ele>1290</ele>
        <time>2017-03-04T09:45:32Z</time>
      </trkpt>
      <trkpt lat="44.43283" lon="3.609">
        <ele>1289</ele>
        <time>2017-03-04T09:47:32Z</time>
      </trkpt>
      <trkpt lat="44.43269" lon="3.60894">
        <ele>1287</ele>
        <time>2017-03-04T09:49:32Z</time>
      </trkpt>
      <trkpt lat="44.43261" lon="3.60888">
        <ele>1286</ele>
        <time>2017-03-04T09:51:32Z</time>
      </trkpt>
      <trkpt lat="44.43246" lon="3.60881">
        <ele>1284</ele>
        <time>2017-03-04T09:53:32Z</time>
      </trkpt>
      <trkpt lat="44.43234" lon="3.6087">
        <ele>1282</ele>
        <time>2017-03-04T09:55:32Z</time>
      </trkpt>
      <trkpt lat="44.43219" lon="3.60857">
        <ele>1280</ele>
        <time>2017-03-04T09:57:32Z</time>
      </trkpt>
      <trkpt lat="44.43208" lon="3.60847">
        <ele>1279</ele>
        <time>2017-03-04T09:59:32Z</time>
      </trkpt>
      <trkpt lat="44.43206" lon="3.60846">
        <ele>1279</ele>
        <time>2017-03-04T10:01:32Z</time>
      </trkpt>
      <trkpt lat="44.432" lon="3.60839">
        <ele>1278</ele>
        <time>2017-03-04T10:03:32Z</time>
      </trkpt>
      <trkpt lat="44.43195" lon="3.60835">
        <ele>1277</ele>
        <time>2017-03-04T10:05:32Z</time>
      </trkpt>
      <trkpt lat="44.43187" lon="3.60826">
        <ele>1277</ele>
        <time>2017-03-04T10:07:32Z</time>
      </trkpt>
      <trkpt lat="44.43175" lon="3.60818">
        <ele>1275</ele>
        <time>2017-03-04T10:09:32Z</time>
      </trkpt>
      <trkpt lat="44.43167" lon="3.60809">
        <ele>1275</ele>
        <time>2017-03-04T10:11:32Z</time>
      </trkpt>
      <trkpt lat="44.43146" lon="3.60796">
        <ele>1273</ele>
        <time>2017-03-04T10:13:32Z</time>
      </trkpt>
      <trkpt lat="44.43133" lon="3.60784">
        <ele>1272</ele>
        <time>2017-03-04T10:15:32Z</time>
      </trkpt>
      <trkpt lat="44.43122" lon="3.60775">
        <ele>1270</ele>
        <time>2017-03-04T10:17:32Z</time>
      </trkpt>
      <trkpt lat="44.43108" lon="3.6076">
        <ele>1269</ele>
        <time>2017-03-04T10:19:32Z</time>
      </trkpt>
      <trkpt lat="44.43091" lon="3.60757">
        <ele>1267</ele>
        <time>2017-03-04T10:21:32Z</time>
      </trkpt>
      <trkpt lat="44.43084" lon="3.60753">
        <ele>1266</ele>
        <time>2017-03-04T10:23:32Z</time>
      </trkpt>
      <trkpt lat="44.43077" lon="3.60743">
        <ele>1265</ele>
        <time>2017-03-04T10:25:32Z</time>
      </trkpt>
      <trkpt lat="44.43064" lon="3.60723">
        <ele>1263</ele>
        <time>2017-03-04T10:27:32Z</time>
      </trkpt>
      <trkpt lat="44.43044" lon="3.60705">
        <ele>1261</ele>
        <time>2017-03-04T10:29:32Z</time>
      </trkpt>
      <trkpt lat="44.43028" lon="3.60682">
        <ele>1259</ele>
        <time>2017-03-04T10:31:32Z</time>
      </trkpt>
      <trkpt lat="44.43009" lon="3.60656">
        <ele>1257</ele>
        <time>2017-03-04T10:33:32Z</time>
      </trkpt>
      <trkpt lat="44.43009" lon="3.60656">
        <ele>1257</ele>
        <time>2017-03-04T10:35:32Z</time>
      </trkpt>
      <trkpt lat="44.43011" lon="3.60654">
        <ele>1257</ele>
        <time>2017-03-04T10:37:32Z</time>
      </trkpt>
      <trkpt lat="44.43014" lon="3.60641">
        <ele>1257</ele>
        <time>2017-03-04T10:39:32Z</time>
      </trkpt>
      <trkpt lat="44.43023" lon="3.60609">
        <ele>1257</ele>
        <time>2017-03-04T10:41:32Z</time>
      </trkpt>
      <trkpt lat="44.43033" lon="3.60565">
        <ele>1256</ele>
        <time>2017-03-04T10:43:32Z</time>
      </trkpt>
      <trkpt lat="44.43047" lon="3.605">
        <ele>1254</ele>
        <time>2017-03-04T10:45:32Z</time>
      </trkpt>
      <trkpt lat="44.43063" lon="3.60441">
        <ele>1252</ele>
        <time>2017-03-04T10:47:32Z</time>
      </trkpt>
      <trkpt lat="44.4308" lon="3.60385">
        <ele>1249</ele>
        <time>2017-03-04T10:49:32Z</time>
      </trkpt>
      <trkpt lat="44.43087" lon="3.60354">
        <ele>1248</ele>
        <time>2017-03-04T10:51:32Z</time>
      </trkpt>
      <trkpt lat="44.43096" lon="3.60328">
        <ele>1247</ele>
        <time>2017-03-04T10:53:32Z</time>
      </trkpt>
      <trkpt lat="44.43099" lon="3.6032">
        <ele>1247</ele>
        <time>2017-03-04T10:55:32Z</time>
      </trkpt>
      <trkpt lat="44.43099" lon="3.60312">
        <ele>1247</ele>
        <time>2017-03-04T10:57:32Z</time>
      </trkpt>
      <trkpt lat="44.43099" lon="3.60297">
        <ele>1245</ele>
        <time>2017-03-04T10:59:32Z</time>
      </trkpt>
      <trkpt lat="44.43099" lon="3.60281">
        <ele>1244</ele>
        <time>2017-03-04T11:01:32Z</time>
      </trkpt>
      <trkpt lat="44.43103" lon="3.60264">
        <ele>1244</ele>
        <time>2017-03-04T11:03:32Z</time>
      </trkpt>
      <trkpt lat="44.43114" lon="3.60223">
        <ele>1242</ele>
        <time>2017-03-04T11:05:32Z</time>
      </trkpt>
      <trkpt lat="44.43132" lon="3.60163">
        <ele>1240</ele>
        <time>2017-03-04T11:07:32Z</time>
      </trkpt>
      <trkpt lat="44.43141" lon="3.60138">
        <ele>1239</ele>
        <time>2017-03-04T11:09:32Z</time>
      </trkpt>
      <trkpt lat="44.43157" lon="3.6011">
        <ele>1239</ele>
        <time>2017-03-04T11:11:32Z</time>
      </trkpt>
      <trkpt lat="44.43166" lon="3.60095">
        <ele>1239</ele>
        <time>2017-03-04T11:13:32Z</time>
      </trkpt>
      <trkpt lat="44.43176" lon="3.60087">
        <ele>1239</ele>
        <time>2017-03-04T11:15:32Z</time>
      </trkpt>
      <trkpt lat="44.43215" lon="3.60018">
        <ele>1234</ele>
        <time>2017-03-04T11:17:32Z</time>
      </trkpt>
      <trkpt lat="44.43231" lon="3.59994">
        <ele>1233</ele>
        <time>2017-03-04T11:19:32Z</time>
      </trkpt>
      <trkpt lat="44.43238" lon="3.59986">
        <ele>1232</ele>
        <time>2017-03-04T11:21:32Z</time>
      </trkpt>
      <trkpt lat="44.43248" lon="3.59974">
        <ele>1231</ele>
        <time>2017-03-04T11:23:32Z</time>
      </trkpt>
      <trkpt lat="44.43263" lon="3.5995">
        <ele>1228</ele>
        <time>2017-03-04T11:25:32Z</time>
      </trkpt>
      <trkpt lat="44.43271" lon="3.59942">
        <ele>1227</ele>
        <time>2017-03-04T11:27:32Z</time>
      </trkpt>
      <trkpt lat="44.43295" lon="3.59924">
        <ele>1225</ele>
        <time>2017-03-04T11:29:32Z</time>
      </trkpt>
      <trkpt lat="44.43302" lon="3.5992">
        <ele>1224</ele>
        <time>2017-03-04T11:31:32Z</time>
      </trkpt>
      <trkpt lat="44.43312" lon="3.59919">
        <ele>1224</ele>
        <time>2017-03-04T11:33:32Z</time>
      </trkpt>
      <trkpt lat="44.43338" lon="3.59916">
        <ele>1223</ele>
        <time>2017-03-04T11:35:32Z</time>
      </trkpt>
      <trkpt lat="44.43359" lon="3.59917">
        <ele>1221</ele>
        <time>2017-03-04T11:37:32Z</time>
      </trkpt>
      <trkpt lat="44.43376" lon="3.59922">
        <ele>1221</ele>
        <time>2017-03-04T11:39:32Z</time>
      </trkpt>
      <trkpt lat="44.43392" lon="3.59927">
        <ele>1221</ele>
        <time>2017-03-04T11:41:32Z</time>
      </trkpt>
      <trkpt lat="44.43395" lon="3.59926">
        <ele>1220</ele>
        <time>2017-03-04T11:43:32Z</time>
      </trkpt>
      <trkpt lat="44.43396" lon="3.59923">
        <ele>1220</ele>
        <time>2017-03-04T11:45:32Z</time>
      </trkpt>
      <trkpt lat="44.43396" lon="3.59923">
        <ele>1220</ele>
        <time>2017-03-04T11:47:32Z</time>
      </trkpt>
      <trkpt lat="44.43394" lon="3.59918">
        <ele>1219</ele>
        <time>2017-03-04T11:49:32Z</time>
      </trkpt>
      <trkpt lat="44.43392" lon="3.59914">
        <ele>1218</ele>
        <time>2017-03-04T11:51:32Z</time>
      </trkpt>
      <trkpt lat="44.43387" lon="3.59908">
        <ele>1218</ele>
        <time>2017-03-04T11:53:32Z</time>
      </trkpt>
      <trkpt lat="44.4338" lon="3.59899">
        <ele>1217</ele>
        <time>2017-03-04T11:55:32Z</time>
      </trkpt>
      <trkpt lat="44.43373" lon="3.59887">
        <ele>1216</ele>
        <time>2017-03-04T11:57:32Z</time>
      </trkpt>
      <trkpt lat="44.43357" lon="3.59852">
        <ele>1211</ele>
        <time>2017-03-04T11:59:32Z</time>
      </trkpt>
      <trkpt lat="44.4335" lon="3.59836">
        <ele>1209</ele>
        <time>2017-03-04T12:01:32Z</time>
      </trkpt>
      <trkpt lat="44.43343" lon="3.59827">
        <ele>1208</ele>
        <time>2017-03-04T12:03:32Z</time>
      </trkpt>
      <trkpt lat="44.43333" lon="3.59814">
        <ele>1206</ele>
        <time>2017-03-04T12:05:32Z</time>
      </trkpt>
      <trkpt lat="44.43331" lon="3.5981">
        <ele>1206</ele>
        <time>2017-03-04T12:07:32Z</time>
      </trkpt>
      <trkpt lat="44.43331" lon="3.59807">
        <ele>1205</ele>
        <time>2017-03-04T12:09:32Z</time>
      </trkpt>
      <trkpt lat="44.43334" lon="3.59802">
        <ele>1205</ele>
        <time>2017-03-04T12:11:32Z</time>
      </trkpt>
      <trkpt lat="44.43344" lon="3.59798">
        <ele>1204</ele>
        <time>2017-03-04T12:13:32Z</time>
      </trkpt>
      <trkpt lat="44.43349" lon="3.59795">
        <ele>1204</ele>
        <time>2017-03-04T12:15:32Z</time>
      </trkpt>
      <trkpt lat="44.43353" lon="3.5979">
        <ele>1204</ele>
        <time>2017-03-04T12:17:32Z</time>
      </trkpt>
      <trkpt lat="44.43356" lon="3.59783">
        <ele>1203</ele>
        <time>2017-03-04T12:19:32Z</time>
      </trkpt>
      <trkpt lat="44.43356" lon="3.59783">
        <ele>1203</ele>
        <time>2017-03-04T12:21:32Z</time>
      </trkpt>
      <trkpt lat="44.43377" lon="3.59791">
        <ele>1205</ele>
        <time>2017-03-04T12:23:32Z</time>
      </trkpt>
      <trkpt lat="44.4339" lon="3.59794">
        <ele>1205</ele>
        <time>2017-03-04T12:25:32Z</time>
      </trkpt>
      <trkpt lat="44.43395" lon="3.59794">
        <ele>1205</ele>
        <time>2017-03-04T12:27:32Z</time>
      </trkpt>
      <trkpt lat="44.434" lon="3.59792">
        <ele>1205</ele>
        <time>2017-03-04T12:29:32Z</time>
      </trkpt>
      <trkpt lat="44.43407" lon="3.59784">
        <ele>1205</ele>
        <time>2017-03-04T12:31:32Z</time>
      </trkpt>
      <trkpt lat="44.4341" lon="3.59777">
        <ele>1205</ele>
        <time>2017-03-04T12:33:32Z</time>
      </trkpt>
      <trkpt lat="44.43412" lon="3.59772">
        <ele>1205</ele>
        <time>2017-03-04T12:35:32Z</time>
      </trkpt>
      <trkpt lat="44.43414" lon="3.59768">
        <ele>1205</ele>
        <time>2017-03-04T12:37:32Z</time>
      </trkpt>
      <trkpt lat="44.43416" lon="3.59763">
        <ele>1205</ele>
        <time>2017-03-04T12:39:32Z</time>
      </trkpt>
      <trkpt lat="44.43416" lon="3.59757">
        <ele>1205</ele>
        <time>2017-03-04T12:41:32Z</time>
      </trkpt>
      <trkpt lat="44.43414" lon="3.59749">
        <ele>1205</ele>
        <time>2017-03-04T12:43:32Z</time>
      </trkpt>
      <trkpt lat="44.4341" lon="3.59741">
        <ele>1205</ele>
        <time>2017-03-04T12:45:32Z</time>
      </trkpt>
      <trkpt lat="44.43391" lon="3.59716">
        <ele>1206</ele>
        <time>2017-03-04T12:47:32Z</time>
      </trkpt>
      <trkpt lat="44.43382" lon="3.59704">
        <ele>1206</ele>
        <time>2017-03-04T12:49:32Z</time>
      </trkpt>
      <trkpt lat="44.43373" lon="3.59684">
        <ele>1206</ele>
        <time>2017-03-04T12:51:32Z</time>
      </trkpt>
      <trkpt lat="44.4337" lon="3.59674">
        <ele>1207</ele>
        <time>2017-03-04T12:53:32Z</time>
      </trkpt>
      <trkpt lat="44.4337" lon="3.59674">
        <ele>1207</ele>
        <time>2017-03-04T12:55:32Z</time>
      </trkpt>
      <trkpt lat="44.43363" lon="3.59648">
        <ele>1208</ele>
        <time>2017-03-04T12:57:32Z</time>
      </trkpt>
      <trkpt lat="44.43357" lon="3.59629">
        <ele>1208</ele>
        <time>2017-03-04T12:59:32Z</time>
      </trkpt>
      <trkpt lat="44.43348" lon="3.596">
        <ele>1209</ele>
        <time>2017-03-04T13:01:32Z</time>
      </trkpt>
      <trkpt lat="44.43339" lon="3.59575">
        <ele>1209</ele>
        <time>2017-03-04T13:03:32Z</time>
      </trkpt>
      <trkpt lat="44.43335" lon="3.59558">
        <ele>1210</ele>
        <time>2017-03-04T13:05:32Z</time>
      </trkpt>
      <trkpt lat="44.43334" lon="3.59551">
        <ele>1210</ele>
        <time>2017-03-04T13:07:32Z</time>
      </trkpt>
      <trkpt lat="44.43334" lon="3.59537">
        <ele>1211</ele>
        <time>2017-03-04T13:09:32Z</time>
      </trkpt>
      <trkpt lat="44.43334" lon="3.59533">
        <ele>1211</ele>
        <time>2017-03-04T13:11:32Z</time>
      </trkpt>
      <trkpt lat="44.43334" lon="3.59533">
        <ele>1211</ele>
        <time>2017-03-04T13:13:32Z</time>
      </trkpt>
      <trkpt lat="44.43323" lon="3.59534">
        <ele>1210</ele>
        <time>2017-03-04T13:15:32Z</time>
      </trkpt>
      <trkpt lat="44.43318" lon="3.59532">
        <ele>1209</ele>
        <time>2017-03-04T13:17:32Z</time>
      </trkpt>
      <trkpt lat="44.43314" lon="3.59532">
        <ele>1208</ele>
        <time>2017-03-04T13:19:32Z</time>
      </trkpt>
      <trkpt lat="44.43309" lon="3.59533">
        <ele>1208</ele>
        <time>2017-03-04T13:21:32Z</time>
      </trkpt>
      <trkpt lat="44.433" lon="3.59536">
        <ele>1206</ele>
        <time>2017-03-04T13:23:32Z</time>
      </trkpt>
      <trkpt lat="44.43293" lon="3.59538">
        <ele>1205</ele>
        <time>2017-03-04T13:25:32Z</time>
      </trkpt>
      <trkpt lat="44.43284" lon="3.59536">
        <ele>1204</ele>
        <time>2017-03-04T13:27:32Z</time>
      </trkpt>
      <trkpt lat="44.4328" lon="3.59535">
        <ele>1203</ele>
        <time>2017-03-04T13:29:32Z</time>
      </trkpt>
      <trkpt lat="44.4327" lon="3.5953">
        <ele>1203</ele>
        <time>2017-03-04T13:31:32Z</time>
      </trkpt>
      <trkpt lat="44.43261" lon="3.59526">
        <ele>1202</ele>
        <time>2017-03-04T13:33:32Z</time>
      </trkpt>
      <trkpt lat="44.43258" lon="3.59524">
        <ele>1201</ele>
        <time>2017-03-04T13:35:32Z</time>
      </trkpt>
      <trkpt lat="44.43252" lon="3.59519">
        <ele>1201</ele>
        <time>2017-03-04T13:37:32Z</time>
      </trkpt>
      <trkpt lat="44.4325" lon="3.59514">
        <ele>1201</ele>
        <time>2017-03-04T13:39:32Z</time>
      </trkpt>
      <trkpt lat="44.43248" lon="3.59507">
        <ele>1202</ele>
        <time>2017-03-04T13:41:32Z</time>
      </trkpt>
      <trkpt lat="44.43245" lon="3.59506">
        <ele>1202</ele>
        <time>2017-03-04T13:43:32Z</time>
      </trkpt>
      <trkpt lat="44.43241" lon="3.59505">
        <ele>1201</ele>
        <time>2017-03-04T13:45:32Z</time>
      </trkpt>
      <trkpt lat="44.43236" lon="3.59502">
        <ele>1201</ele>
        <time>2017-03-04T13:47:32Z</time>
      </trkpt>
      <trkpt lat="44.43231" lon="3.59496">
        <ele>1200</ele>
        <time>2017-03-04T13:49:32Z</time>
      </trkpt>
      <trkpt lat="44.4322" lon="3.5948">
        <ele>1199</ele>
        <time>2017-03-04T13:51:32Z</time>
      </trkpt>
      <trkpt lat="44.43216" lon="3.59473">
        <ele>1198</ele>
        <time>2017-03-04T13:53:32Z</time>
      </trkpt>
      <trkpt lat="44.43214" lon="3.59465">
        <ele>1198</ele>
        <time>2017-03-04T13:55:32Z</time>
      </trkpt>
      <trkpt lat="44.4321" lon="3.59452">
        <ele>1198</ele>
        <time>2017-03-04T13:57:32Z</time>
      </trkpt>
      <trkpt lat="44.4321" lon="3.59452">
        <ele>1198</ele>
        <time>2017-03-04T13:59:32Z</time>
      </trkpt>
      <trkpt lat="44.43209" lon="3.59448">
        <ele>1198</ele>
        <time>2017-03-04T14:01:32Z</time>
      </trkpt>
      <trkpt lat="44.43207" lon="3.59442">
        <ele>1198</ele>
        <time>2017-03-04T14:03:32Z</time>
      </trkpt>
      <trkpt lat="44.43204" lon="3.5944">
        <ele>1198</ele>
        <time>2017-03-04T14:05:32Z</time>
      </trkpt>
      <trkpt lat="44.43198" lon="3.59434">
        <ele>1197</ele>
        <time>2017-03-04T14:07:32Z</time>
      </trkpt>
      <trkpt lat="44.43189" lon="3.5943">
        <ele>1197</ele>
        <time>2017-03-04T14:09:32Z</time>
      </trkpt>
      <trkpt lat="44.43187" lon="3.59425">
        <ele>1197</ele>
        <time>2017-03-04T14:11:32Z</time>
      </trkpt>
      <trkpt lat="44.43185" lon="3.59406">
        <ele>1196</ele>
        <time>2017-03-04T14:13:32Z</time>
      </trkpt>
      <trkpt lat="44.43183" lon="3.59392">
        <ele>1195</ele>
        <time>2017-03-04T14:15:32Z</time>
      </trkpt>
      <trkpt lat="44.43181" lon="3.59376">
        <ele>1194</ele>
        <time>2017-03-04T14:17:32Z</time>
      </trkpt>
      <trkpt lat="44.4318" lon="3.59367">
        <ele>1193</ele>
        <time>2017-03-04T14:19:32Z</time>
      </trkpt>
      <trkpt lat="44.43176" lon="3.59353">
        <ele>1192</ele>
        <time>2017-03-04T14:21:32Z</time>
      </trkpt>
      <trkpt lat="44.43175" lon="3.59341">
        <ele>1191</ele>
        <time>2017-03-04T14:23:32Z</time>
      </trkpt>
      <trkpt lat="44.43176" lon="3.59339">
        <ele>1191</ele>
        <time>2017-03-04T14:25:32Z</time>
      </trkpt>
      <trkpt lat="44.43176" lon="3.59339">
        <ele>1191</ele>
        <time>2017-03-04T14:27:32Z</time>
      </trkpt>
      <trkpt lat="44.43172" lon="3.59338">
        <ele>1191</ele>
        <time>2017-03-04T14:29:32Z</time>
      </trkpt>
      <trkpt lat="44.43169" lon="3.59336">
        <ele>1190</ele>
        <time>2017-03-04T14:31:32Z</time>
      </trkpt>
      <trkpt lat="44.43165" lon="3.59333">
        <ele>1190</ele>
        <time>2017-03-04T14:33:32Z</time>
      </trkpt>
      <trkpt lat="44.43159" lon="3.59328">
        <ele>1188</ele>
        <time>2017-03-04T14:35:32Z</time>
      </trkpt>
      <trkpt lat="44.43148" lon="3.59319">
        <ele>1184</ele>
        <time>2017-03-04T14:37:32Z</time>
      </trkpt>
      <trkpt lat="44.43144" lon="3.59313">
        <ele>1182</ele>
        <time>2017-03-04T14:39:32Z</time>
      </trkpt>
      <trkpt lat="44.4314" lon="3.59305">
        <ele>1180</ele>
        <time>2017-03-04T14:41:32Z</time>
      </trkpt>
      <trkpt lat="44.43135" lon="3.59295">
        <ele>1178</ele>
        <time>2017-03-04T14:43:32Z</time>
      </trkpt>
      <trkpt lat="44.43134" lon="3.59291">
        <ele>1177</ele>
        <time>2017-03-04T14:45:32Z</time>
      </trkpt>
      <trkpt lat="44.43134" lon="3.59283">
        <ele>1176</ele>
        <time>2017-03-04T14:47:32Z</time>
      </trkpt>
      <trkpt lat="44.43135" lon="3.59268">
        <ele>1174</ele>
        <time>2017-03-04T14:49:32Z</time>
      </trkpt>
      <trkpt lat="44.43138" lon="3.59255">
        <ele>1173</ele>
        <time>2017-03-04T14:51:32Z</time>
      </trkpt>
      <trkpt lat="44.43143" lon="3.59241">
        <ele>1173</ele>
        <time>2017-03-04T14:53:32Z</time>
      </trkpt>
      <trkpt lat="44.43149" lon="3.59228">
        <ele>1173</ele>
        <time>2017-03-04T14:55:32Z</time>
      </trkpt>
      <trkpt lat="44.43151" lon="3.59221">
        <ele>1172</ele>
        <time>2017-03-04T14:57:32Z</time>
      </trkpt>
      <trkpt lat="44.43153" lon="3.59212">
        <ele>1172</ele>
        <time>2017-03-04T14:59:32Z</time>
      </trkpt>
      <trkpt lat="44.43154" lon="3.592">
        <ele>1170</ele>
        <time>2017-03-04T15:01:32Z</time>
      </trkpt>
      <trkpt lat="44.43156" lon="3.59194">
        <ele>1170</ele>
        <time>2017-03-04T15:03:32Z</time>
      </trkpt>
      <trkpt lat="44.43157" lon="3.59189">
        <ele>1170</ele>
        <time>2017-03-04T15:05:32Z</time>
      </trkpt>
      <trkpt lat="44.43159" lon="3.59184">
        <ele>1170</ele>
        <time>2017-03-04T15:07:32Z</time>
      </trkpt>
      <trkpt lat="44.4316" lon="3.59179">
        <ele>1169</ele>
        <time>2017-03-04T15:09:32Z</time>
      </trkpt>
      <trkpt lat="44.4316" lon="3.59176">
        <ele>1169</ele>
        <time>2017-03-04T15:11:32Z</time>
      </trkpt>
      <trkpt lat="44.4316" lon="3.59171">
        <ele>1168</ele>
        <time>2017-03-04T15:13:32Z</time>
      </trkpt>
      <trkpt lat="44.43159" lon="3.59167">
        <ele>1168</ele>
        <time>2017-03-04T15:15:32Z</time>
      </trkpt>
      <trkpt lat="44.43155" lon="3.59156">
        <ele>1165</ele>
        <time>2017-03-04T15:17:32Z</time>
      </trkpt>
      <trkpt lat="44.43145" lon="3.59134">
        <ele>1160</ele>
        <time>2017-03-04T15:19:32Z</time>
      </trkpt>
      <trkpt lat="44.43136" lon="3.59114">
        <ele>1155</ele>
        <time>2017-03-04T15:21:32Z</time>
      </trkpt>
      <trkpt lat="44.43134" lon="3.59105">
        <ele>1154</ele>
        <time>2017-03-04T15:23:32Z</time>
      </trkpt>
      <trkpt lat="44.43133" lon="3.59094">
        <ele>1152</ele>
        <time>2017-03-04T15:25:32Z</time>
      </trkpt>
      <trkpt lat="44.4313" lon="3.59076">
        <ele>1150</ele>
        <time>2017-03-04T15:27:32Z</time>
      </trkpt>
      <trkpt lat="44.43126" lon="3.59045">
        <ele>1148</ele>
        <time>2017-03-04T15:29:32Z</time>
      </trkpt>
      <trkpt lat="44.43126" lon="3.59029">
        <ele>1148</ele>
        <time>2017-03-04T15:31:32Z</time>
      </trkpt>
      <trkpt lat="44.43125" lon="3.59022">
        <ele>1148</ele>
        <time>2017-03-04T15:33:32Z</time>
      </trkpt>
      <trkpt lat="44.43123" lon="3.59011">
        <ele>1147</ele>
        <time>2017-03-04T15:35:32Z</time>
      </trkpt>
      <trkpt lat="44.43117" lon="3.58986">
        <ele>1144</ele>
        <time>2017-03-04T15:37:32Z</time>
      </trkpt>
      <trkpt lat="44.43113" lon="3.58965">
        <ele>1142</ele>
        <time>2017-03-04T15:39:32Z</time>
      </trkpt>
      <trkpt lat="44.43112" lon="3.58958">
        <ele>1142</ele>
        <time>2017-03-04T15:41:32Z</time>
      </trkpt>
      <trkpt lat="44.43112" lon="3.58951">
        <ele>1142</ele>
        <time>2017-03-04T15:43:32Z</time>
      </trkpt>
      <trkpt lat="44.43113" lon="3.58938">
        <ele>1142</ele>
        <time>2017-03-04T15:45:32Z</time>
      </trkpt>
      <trkpt lat="44.43116" lon="3.58917">
        <ele>1142</ele>
        <time>2017-03-04T15:47:32Z</time>
      </trkpt>
      <trkpt lat="44.43116" lon="3.58902">
        <ele>1141</ele>
        <time>2017-03-04T15:49:32Z</time>
      </trkpt>
      <trkpt lat="44.43114" lon="3.58889">
        <ele>1139</ele>
        <time>2017-03-04T15:51:32Z</time>
      </trkpt>
      <trkpt lat="44.43108" lon="3.58875">
        <ele>1136</ele>
        <time>2017-03-04T15:53:32Z</time>
      </trkpt>
      <trkpt lat="44.43098" lon="3.58858">
        <ele>1132</ele>
        <time>2017-03-04T15:55:32Z</time>
      </trkpt>
      <trkpt lat="44.43091" lon="3.58845">
        <ele>1129</ele>
        <time>2017-03-04T15:57:32Z</time>
      </trkpt>
      <trkpt lat="44.43089" lon="3.58833">
        <ele>1128</ele>
        <time>2017-03-04T15:59:32Z</time>
      </trkpt>
      <trkpt lat="44.43089" lon="3.58828">
        <ele>1127</ele>
        <time>2017-03-04T16:01:32Z</time>
      </trkpt>
      <trkpt lat="44.43088" lon="3.5882">
        <ele>1125</ele>
        <time>2017-03-04T16:03:32Z</time>
      </trkpt>
      <trkpt lat="44.43083" lon="3.58811">
        <ele>1123</ele>
        <time>2017-03-04T16:05:32Z</time>
      </trkpt>
      <trkpt lat="44.43076" lon="3.58804">
        <ele>1121</ele>
        <time>2017-03-04T16:07:32Z</time>
      </trkpt>
      <trkpt lat="44.43068" lon="3.58791">
        <ele>1119</ele>
        <time>2017-03-04T16:09:32Z</time>
      </trkpt>
      <trkpt lat="44.43061" lon="3.58775">
        <ele>1117</ele>
        <time>2017-03-04T16:11:32Z</time>
      </trkpt>
      <trkpt lat="44.43056" lon="3.5876">
        <ele>1115</ele>
        <time>2017-03-04T16:13:32Z</time>
      </trkpt>
      <trkpt lat="44.43052" lon="3.58751">
        <ele>1114</ele>
        <time>2017-03-04T16:15:32Z</time>
      </trkpt>
      <trkpt lat="44.43049" lon="3.58732">
        <ele>1113</ele>
        <time>2017-03-04T16:17:32Z</time>
      </trkpt>
      <trkpt lat="44.43044" lon="3.58712">
        <ele>1112</ele>
        <time>2017-03-04T16:19:32Z</time>
      </trkpt>
      <trkpt lat="44.43043" lon="3.5871">
        <ele>1112</ele>
        <time>2017-03-04T16:21:32Z</time>
      </trkpt>
      <trkpt lat="44.43042" lon="3.58707">
        <ele>1111</ele>
        <time>2017-03-04T16:23:32Z</time>
      </trkpt>
      <trkpt lat="44.4304" lon="3.58706">
        <ele>1111</ele>
        <time>2017-03-04T16:25:32Z</time>
      </trkpt>
      <trkpt lat="44.43038" lon="3.58705">
        <ele>1112</ele>
        <time>2017-03-04T16:27:32Z</time>
      </trkpt>
      <trkpt lat="44.43035" lon="3.58705">
        <ele>1112</ele>
        <time>2017-03-04T16:29:32Z</time>
      </trkpt>
      <trkpt lat="44.4303" lon="3.58704">
        <ele>1112</ele>
        <time>2017-03-04T16:31:32Z</time>
      </trkpt>
      <trkpt lat="44.43023" lon="3.58702">
        <ele>1113</ele>
        <time>2017-03-04T16:33:32Z</time>
      </trkpt>
      <trkpt lat="44.43017" lon="3.587">
        <ele>1113</ele>
        <time>2017-03-04T16:35:32Z</time>
      </trkpt>
      <trkpt lat="44.43008" lon="3.58696">
        <ele>1114</ele>
        <time>2017-03-04T16:37:32Z</time>
      </trkpt>
      <trkpt lat="44.43001" lon="3.58693">
        <ele>1115</ele>
        <time>2017-03-04T16:39:32Z</time>
      </trkpt>
      <trkpt lat="44.42999" lon="3.58692">
        <ele>1115</ele>
        <time>2017-03-04T16:41:32Z</time>
      </trkpt>
      <trkpt lat="44.42999" lon="3.58692">
        <ele>1115</ele>
        <time>2017-03-04T16:43:32Z</time>
      </trkpt>
      <trkpt lat="44.42996" lon="3.58703">
        <ele>1116</ele>
        <time>2017-03-04T16:45:32Z</time>
      </trkpt>
      <trkpt lat="44.42991" lon="3.58729">
        <ele>1117</ele>
        <time>2017-03-04T16:47:32Z</time>
      </trkpt>
      <trkpt lat="44.42988" lon="3.58754">
        <ele>1119</ele>
        <time>2017-03-04T16:49:32Z</time>
      </trkpt>
      <trkpt lat="44.42988" lon="3.58771">
        <ele>1119</ele>
        <time>2017-03-04T16:51:32Z</time>
      </trkpt>
      <trkpt lat="44.42987" lon="3.58773">
        <ele>1119</ele>
        <time>2017-03-04T16:53:32Z</time>
      </trkpt>
      <trkpt lat="44.42987" lon="3.58773">
        <ele>1119</ele>
        <time>2017-03-04T16:55:32Z</time>
      </trkpt>
      <trkpt lat="44.42985" lon="3.58774">
        <ele>1120</ele>
        <time>2017-03-04T16:57:32Z</time>
      </trkpt>
      <trkpt lat="44.42984" lon="3.58773">
        <ele>1120</ele>
        <time>2017-03-04T16:59:32Z</time>
      </trkpt>
      <trkpt lat="44.42983" lon="3.5877">
        <ele>1121</ele>
        <time>2017-03-04T17:01:32Z</time>
      </trkpt>
      <trkpt lat="44.42983" lon="3.58764">
        <ele>1120</ele>
        <time>2017-03-04T17:03:32Z</time>
      </trkpt>
      <trkpt lat="44.42983" lon="3.58746">
        <ele>1120</ele>
        <time>2017-03-04T17:05:32Z</time>
      </trkpt>
      <trkpt lat="44.42983" lon="3.58718">
        <ele>1120</ele>
        <time>2017-03-04T17:07:32Z</time>
      </trkpt>
      <trkpt lat="44.42982" lon="3.58703">
        <ele>1120</ele>
        <time>2017-03-04T17:09:32Z</time>
      </trkpt>
      <trkpt lat="44.42979" lon="3.5869">
        <ele>1120</ele>
        <time>2017-03-04T17:11:32Z</time>
      </trkpt>
      <trkpt lat="44.42973" lon="3.58676">
        <ele>1122</ele>
        <time>2017-03-04T17:13:32Z</time>
      </trkpt>
      <trkpt lat="44.42968" lon="3.5867">
        <ele>1123</ele>
        <time>2017-03-04T17:15:32Z</time>
      </trkpt>
      <trkpt lat="44.42964" lon="3.58666">
        <ele>1124</ele>
        <time>2017-03-04T17:17:32Z</time>
      </trkpt>
      <trkpt lat="44.4295" lon="3.58652">
        <ele>1127</ele>
        <time>2017-03-04T17:19:32Z</time>
      </trkpt>
      <trkpt lat="44.42936" lon="3.58642">
        <ele>1130</ele>
        <time>2017-03-04T17:21:32Z</time>
      </trkpt>
      <trkpt lat="44.4292" lon="3.58634">
        <ele>1132</ele>
        <time>2017-03-04T17:23:32Z</time>
      </trkpt>
      <trkpt lat="44.42913" lon="3.58632">
        <ele>1133</ele>
        <time>2017-03-04T17:25:32Z</time>
      </trkpt>
      <trkpt lat="44.42898" lon="3.58629">
        <ele>1134</ele>
        <time>2017-03-04T17:27:32Z</time>
      </trkpt>
      <trkpt lat="44.42884" lon="3.58627">
        <ele>1135</ele>
        <time>2017-03-04T17:29:32Z</time>
      </trkpt>
      <trkpt lat="44.4287" lon="3.58622">
        <ele>1135</ele>
        <time>2017-03-04T17:31:32Z</time>
      </trkpt>
      <trkpt lat="44.4285" lon="3.58611">
        <ele>1136</ele>
        <time>2017-03-04T17:33:32Z</time>
      </trkpt>
      <trkpt lat="44.42829" lon="3.58601">
        <ele>1136</ele>
        <time>2017-03-04T17:35:32Z</time>
      </trkpt>
      <trkpt lat="44.42808" lon="3.58591">
        <ele>1136</ele>
        <time>2017-03-04T17:37:32Z</time>
      </trkpt>
      <trkpt lat="44.42797" lon="3.58583">
        <ele>1137</ele>
        <time>2017-03-04T17:39:32Z</time>
      </trkpt>
      <trkpt lat="44.42793" lon="3.5858">
        <ele>1137</ele>
        <time>2017-03-04T17:41:32Z</time>
      </trkpt>
      <trkpt lat="44.4279" lon="3.58576">
        <ele>1137</ele>
        <time>2017-03-04T17:43:32Z</time>
      </trkpt>
      <trkpt lat="44.4279" lon="3.58576">
        <ele>1137</ele>
        <time>2017-03-04T17:45:32Z</time>
      </trkpt>
      <trkpt lat="44.42788" lon="3.58579">
        <ele>1137</ele>
        <time>2017-03-04T17:47:32Z</time>
      </trkpt>
      <trkpt lat="44.42786" lon="3.58581">
        <ele>1137</ele>
        <time>2017-03-04T17:49:32Z</time>
      </trkpt>
      <trkpt lat="44.42777" lon="3.58587">
        <ele>1138</ele>
        <time>2017-03-04T17:51:32Z</time>
      </trkpt>
      <trkpt lat="44.42768" lon="3.58593">
        <ele>1139</ele>
        <time>2017-03-04T17:53:32Z</time>
      </trkpt>
      <trkpt lat="44.4276" lon="3.586">
        <ele>1140</ele>
        <time>2017-03-04T17:55:32Z</time>
      </trkpt>
      <trkpt lat="44.42744" lon="3.58615">
        <ele>1141</ele>
        <time>2017-03-04T17:57:32Z</time>
      </trkpt>
      <trkpt lat="44.42728" lon="3.58631">
        <ele>1142</ele>
        <time>2017-03-04T17:59:32Z</time>
      </trkpt>
      <trkpt lat="44.42709" lon="3.58649">
        <ele>1143</ele>
        <time>2017-03-04T18:01:32Z</time>
      </trkpt>
      <trkpt lat="44.42691" lon="3.58663">
        <ele>1144</ele>
        <time>2017-03-04T18:03:32Z</time>
      </trkpt>
      <trkpt lat="44.42682" lon="3.58668">
        <ele>1145</ele>
        <time>2017-03-04T18:05:32Z</time>
      </trkpt>
      <trkpt lat="44.42675" lon="3.58671">
        <ele>1145</ele>
        <time>2017-03-04T18:07:32Z</time>
      </trkpt>
      <trkpt lat="44.42671" lon="3.58672">
        <ele>1145</ele>
        <time>2017-03-04T18:09:32Z</time>
      </trkpt>
      <trkpt lat="44.42669" lon="3.58676">
        <ele>1145</ele>
        <time>2017-03-04T18:11:32Z</time>
      </trkpt>
      <trkpt lat="44.42665" lon="3.5868">
        <ele>1146</ele>
        <time>2017-03-04T18:13:32Z</time>
      </trkpt>
      <trkpt lat="44.42656" lon="3.58684">
        <ele>1146</ele>
        <time>2017-03-04T18:15:32Z</time>
      </trkpt>
      <trkpt lat="44.42615" lon="3.58699">
        <ele>1147</ele>
        <time>2017-03-04T18:17:32Z</time>
      </trkpt>
      <trkpt lat="44.42567" lon="3.58719">
        <ele>1149</ele>
        <time>2017-03-04T18:19:32Z</time>
      </trkpt>
      <trkpt lat="44.42528" lon="3.58739">
        <ele>1151</ele>
        <time>2017-03-04T18:21:32Z</time>
      </trkpt>
      <trkpt lat="44.42502" lon="3.58756">
        <ele>1153</ele>
        <time>2017-03-04T18:23:32Z</time>
      </trkpt>
      <trkpt lat="44.42479" lon="3.58776">
        <ele>1155</ele>
        <time>2017-03-04T18:25:32Z</time>
      </trkpt>
      <trkpt lat="44.42454" lon="3.588">
        <ele>1156</ele>
        <time>2017-03-04T18:27:32Z</time>
      </trkpt>
      <trkpt lat="44.42437" lon="3.58813">
        <ele>1157</ele>
        <time>2017-03-04T18:29:32Z</time>
      </trkpt>
      <trkpt lat="44.4242" lon="3.58824">
        <ele>1158</ele>
        <time>2017-03-04T18:31:32Z</time>
      </trkpt>
      <trkpt lat="44.42413" lon="3.58829">
        <ele>1158</ele>
        <time>2017-03-04T18:33:32Z</time>
      </trkpt>
      <trkpt lat="44.42404" lon="3.58838">
        <ele>1158</ele>
        <time>2017-03-04T18:35:32Z</time>
      </trkpt>
      <trkpt lat="44.42395" lon="3.58844">
        <ele>1157</ele>
        <time>2017-03-04T18:37:32Z</time>
      </trkpt>
      <trkpt lat="44.42378" lon="3.58854">
        <ele>1155</ele>
        <time>2017-03-04T18:39:32Z</time>
      </trkpt>
      <trkpt lat="44.42369" lon="3.58862">
        <ele>1155</ele>
        <time>2017-03-04T18:41:32Z</time>
      </trkpt>
      <trkpt lat="44.42358" lon="3.58876">
        <ele>1154</ele>
        <time>2017-03-04T18:43:32Z</time>
      </trkpt>
      <trkpt lat="44.42336" lon="3.58914">
        <ele>1154</ele>
        <time>2017-03-04T18:45:32Z</time>
      </trkpt>
      <trkpt lat="44.42318" lon="3.58946">
        <ele>1154</ele>
        <time>2017-03-04T18:47:32Z</time>
      </trkpt>
      <trkpt lat="44.42299" lon="3.58981">
        <ele>1155</ele>
        <time>2017-03-04T18:49:32Z</time>
      </trkpt>
      <trkpt lat="44.42286" lon="3.59002">
        <ele>1156</ele>
        <time>2017-03-04T18:51:32Z</time>
      </trkpt>
      <trkpt lat="44.42276" lon="3.59023">
        <ele>1157</ele>
        <time>2017-03-04T18:53:32Z</time>
      </trkpt>
      <trkpt lat="44.4227" lon="3.59043">
        <ele>1158</ele>
        <time>2017-03-04T18:55:32Z</time>
      </trkpt>
      <trkpt lat="44.42264" lon="3.59065">
        <ele>1159</ele>
        <time>2017-03-04T18:57:32Z</time>
      </trkpt>
      <trkpt lat="44.42261" lon="3.59073">
        <ele>1160</ele>
        <time>2017-03-04T18:59:32Z</time>
      </trkpt>
      <trkpt lat="44.42256" lon="3.59082">
        <ele>1160</ele>
        <time>2017-03-04T19:01:32Z</time>
      </trkpt>
      <trkpt lat="44.42248" lon="3.59093">
        <ele>1160</ele>
        <time>2017-03-04T19:03:32Z</time>
      </trkpt>
      <trkpt lat="44.42243" lon="3.59097">
        <ele>1161</ele>
        <time>2017-03-04T19:05:32Z</time>
      </trkpt>
      <trkpt lat="44.42231" lon="3.59103">
        <ele>1161</ele>
        <time>2017-03-04T19:07:32Z</time>
      </trkpt>
      <trkpt lat="44.42212" lon="3.59111">
        <ele>1161</ele>
        <time>2017-03-04T19:09:32Z</time>
      </trkpt>
      <trkpt lat="44.42185" lon="3.59118">
        <ele>1162</ele>
        <time>2017-03-04T19:11:32Z</time>
      </trkpt>
      <trkpt lat="44.42173" lon="3.59119">
        <ele>1162</ele>
        <time>2017-03-04T19:13:32Z</time>
      </trkpt>
      <trkpt lat="44.42161" lon="3.59119">
        <ele>1162</ele>
        <time>2017-03-04T19:15:32Z</time>
      </trkpt>
      <trkpt lat="44.42141" lon="3.59121">
        <ele>1162</ele>
        <time>2017-03-04T19:17:32Z</time>
      </trkpt>
      <trkpt lat="44.42122" lon="3.59126">
        <ele>1162</ele>
        <time>2017-03-04T19:19:32Z</time>
      </trkpt>
      <trkpt lat="44.42101" lon="3.59132">
        <ele>1163</ele>
        <time>2017-03-04T19:21:32Z</time>
      </trkpt>
      <trkpt lat="44.42092" lon="3.59137">
        <ele>1163</ele>
        <time>2017-03-04T19:23:32Z</time>
      </trkpt>
      <trkpt lat="44.42086" lon="3.59143">
        <ele>1163</ele>
        <time>2017-03-04T19:25:32Z</time>
      </trkpt>
      <trkpt lat="44.42077" lon="3.59155">
        <ele>1164</ele>
        <time>2017-03-04T19:27:32Z</time>
      </trkpt>
      <trkpt lat="44.42066" lon="3.59166">
        <ele>1164</ele>
        <time>2017-03-04T19:29:32Z</time>
      </trkpt>
      <trkpt lat="44.42058" lon="3.59172">
        <ele>1165</ele>
        <time>2017-03-04T19:31:32Z</time>
      </trkpt>
      <trkpt lat="44.42054" lon="3.59173">
        <ele>1165</ele>
        <time>2017-03-04T19:33:32Z</time>
      </trkpt>
      <trkpt lat="44.42046" lon="3.59173">
        <ele>1165</ele>
        <time>2017-03-04T19:35:32Z</time>
      </trkpt>
      <trkpt lat="44.4202" lon="3.5917">
        <ele>1166</ele>
        <time>2017-03-04T19:37:32Z</time>
      </trkpt>
      <trkpt lat="44.41982" lon="3.59163">
        <ele>1166</ele>
        <time>2017-03-04T19:39:32Z</time>
      </trkpt>
      <trkpt lat="44.41964" lon="3.59161">
        <ele>1166</ele>
        <time>2017-03-04T19:41:32Z</time>
      </trkpt>
      <trkpt lat="44.41956" lon="3.59158">
        <ele>1166</ele>
        <time>2017-03-04T19:43:32Z</time>
      </trkpt>
      <trkpt lat="44.41949" lon="3.59155">
        <ele>1166</ele>
        <time>2017-03-04T19:45:32Z</time>
      </trkpt>
      <trkpt lat="44.41937" lon="3.59152">
        <ele>1166</ele>
        <time>2017-03-04T19:47:32Z</time>
      </trkpt>
      <trkpt lat="44.41932" lon="3.59151">
        <ele>1166</ele>
        <time>2017-03-04T19:49:32Z</time>
      </trkpt>
      <trkpt lat="44.41928" lon="3.59151">
        <ele>1166</ele>
        <time>2017-03-04T19:51:32Z</time>
      </trkpt>
      <trkpt lat="44.41928" lon="3.59151">
        <ele>1166</ele>
        <time>2017-03-04T19:53:32Z</time>
      </trkpt>
      <trkpt lat="44.41928" lon="3.59147">
        <ele>1165</ele>
        <time>2017-03-04T19:55:32Z</time>
      </trkpt>
      <trkpt lat="44.41931" lon="3.59115">
        <ele>1165</ele>
        <time>2017-03-04T19:57:32Z</time>
      </trkpt>
      <trkpt lat="44.41936" lon="3.59061">
        <ele>1163</ele>
        <time>2017-03-04T19:59:32Z</time>
      </trkpt>
      <trkpt lat="44.4194" lon="3.59015">
        <ele>1161</ele>
        <time>2017-03-04T20:01:32Z</time>
      </trkpt>
      <trkpt lat="44.41944" lon="3.58966">
        <ele>1158</ele>
        <time>2017-03-04T20:03:32Z</time>
      </trkpt>
      <trkpt lat="44.41949" lon="3.58913">
        <ele>1156</ele>
        <time>2017-03-04T20:05:32Z</time>
      </trkpt>
      <trkpt lat="44.41954" lon="3.58851">
        <ele>1151</ele>
        <time>2017-03-04T20:07:32Z</time>
      </trkpt>
      <trkpt lat="44.4196" lon="3.58786">
        <ele>1147</ele>
        <time>2017-03-04T20:09:32Z</time>
      </trkpt>
      <trkpt lat="44.41966" lon="3.58719">
        <ele>1143</ele>
        <time>2017-03-04T20:11:32Z</time>
      </trkpt>
      <trkpt lat="44.4197" lon="3.58666">
        <ele>1140</ele>
        <time>2017-03-04T20:13:32Z</time>
      </trkpt>
      <trkpt lat="44.41973" lon="3.58628">
        <ele>1138</ele>
        <time>2017-03-04T20:15:32Z</time>
      </trkpt>
      <trkpt lat="44.41973" lon="3.58628">
        <ele>1138</ele>
        <time>2017-03-04T20:17:32Z</time>
      </trkpt>
      <trkpt lat="44.4197" lon="3.58627">
        <ele>1138</ele>
        <time>2017-03-04T20:19:32Z</time>
      </trkpt>
      <trkpt lat="44.41959" lon="3.58624">
        <ele>1138</ele>
        <time>2017-03-04T20:21:32Z</time>
      </trkpt>
      <trkpt lat="44.41936" lon="3.58616">
        <ele>1138</ele>
        <time>2017-03-04T20:23:32Z</time>
      </trkpt>
      <trkpt lat="44.41922" lon="3.5861">
        <ele>1138</ele>
        <time>2017-03-04T20:25:32Z</time>
      </trkpt>
      <trkpt lat="44.41911" lon="3.58603">
        <ele>1138</ele>
        <time>2017-03-04T20:27:32Z</time>
      </trkpt>
      <trkpt lat="44.419" lon="3.58597">
        <ele>1137</ele>
        <time>2017-03-04T20:29:32Z</time>
      </trkpt>
      <trkpt lat="44.41884" lon="3.58588">
        <ele>1136</ele>
        <time>2017-03-04T20:31:32Z</time>
      </trkpt>
      <trkpt lat="44.41871" lon="3.58578">
        <ele>1136</ele>
        <time>2017-03-04T20:33:32Z</time>
      </trkpt>
      <trkpt lat="44.41855" lon="3.5857">
        <ele>1135</ele>
        <time>2017-03-04T20:35:32Z</time>
      </trkpt>
      <trkpt lat="44.41841" lon="3.58564">
        <ele>1134</ele>
        <time>2017-03-04T20:37:32Z</time>
      </trkpt>
      <trkpt lat="44.41824" lon="3.58559">
        <ele>1133</ele>
        <time>2017-03-04T20:39:32Z</time>
      </trkpt>
      <trkpt lat="44.41816" lon="3.58556">
        <ele>1133</ele>
        <time>2017-03-04T20:41:32Z</time>
      </trkpt>
      <trkpt lat="44.41812" lon="3.58553">
        <ele>1133</ele>
        <time>2017-03-04T20:43:32Z</time>
      </trkpt>
      <trkpt lat="44.41809" lon="3.58549">
        <ele>1133</ele>
        <time>2017-03-04T20:45:32Z</time>
      </trkpt>
      <trkpt lat="44.41801" lon="3.58542">
        <ele>1132</ele>
        <time>2017-03-04T20:47:32Z</time>
      </trkpt>
      <trkpt lat="44.41792" lon="3.58533">
        <ele>1132</ele>
        <time>2017-03-04T20:49:32Z</time>
      </trkpt>
      <trkpt lat="44.41787" lon="3.58529">
        <ele>1131</ele>
        <time>2017-03-04T20:51:32Z</time>
      </trkpt>
      <trkpt lat="44.41778" lon="3.58523">
        <ele>1131</ele>
        <time>2017-03-04T20:53:32Z</time>
      </trkpt>
      <trkpt lat="44.41767" lon="3.58518">
        <ele>1131</ele>
        <time>2017-03-04T20:55:32Z</time>
      </trkpt>
      <trkpt lat="44.41761" lon="3.58515">
        <ele>1131</ele>
        <time>2017-03-04T20:57:32Z</time>
      </trkpt>
      <trkpt lat="44.41757" lon="3.58512">
        <ele>1130</ele>
        <time>2017-03-04T20:59:32Z</time>
      </trkpt>
      <trkpt lat="44.41745" lon="3.58502">
        <ele>1130</ele>
        <time>2017-03-04T21:01:32Z</time>
      </trkpt>
      <trkpt lat="44.41722" lon="3.58486">
        <ele>1128</ele>
        <time>2017-03-04T21:03:32Z</time>
      </trkpt>
      <trkpt lat="44.41703" lon="3.58471">
        <ele>1127</ele>
        <time>2017-03-04T21:05:32Z</time>
      </trkpt>
      <trkpt lat="44.41694" lon="3.58465">
        <ele>1127</ele>
        <time>2017-03-04T21:07:32Z</time>
      </trkpt>
      <trkpt lat="44.41689" lon="3.58461">
        <ele>1126</ele>
        <time>2017-03-04T21:09:32Z</time>
      </trkpt>
      <trkpt lat="44.41687" lon="3.58458">
        <ele>1126</ele>
        <time>2017-03-04T21:11:32Z</time>
      </trkpt>
      <trkpt lat="44.41685" lon="3.58454">
        <ele>1126</ele>
        <time>2017-03-04T21:13:32Z</time>
      </trkpt>
      <trkpt lat="44.41682" lon="3.58448">
        <ele>1126</ele>
        <time>2017-03-04T21:15:32Z</time>
      </trkpt>
      <trkpt lat="44.4168" lon="3.58441">
        <ele>1126</ele>
        <time>2017-03-04T21:17:32Z</time>
      </trkpt>
      <trkpt lat="44.41676" lon="3.58423">
        <ele>1125</ele>
        <time>2017-03-04T21:19:32Z</time>
      </trkpt>
      <trkpt lat="44.41672" lon="3.58407">
        <ele>1125</ele>
        <time>2017-03-04T21:21:32Z</time>
      </trkpt>
      <trkpt lat="44.41667" lon="3.58393">
        <ele>1124</ele>
        <time>2017-03-04T21:23:32Z</time>
      </trkpt>
      <trkpt lat="44.41658" lon="3.58378">
        <ele>1123</ele>
        <time>2017-03-04T21:25:32Z</time>
      </trkpt>
      <trkpt lat="44.41652" lon="3.58364">
        <ele>1123</ele>
        <time>2017-03-04T21:27:32Z</time>
      </trkpt>
      <trkpt lat="44.41648" lon="3.58353">
        <ele>1123</ele>
        <time>2017-03-04T21:29:32Z</time>
      </trkpt>
      <trkpt lat="44.41643" lon="3.58346">
        <ele>1123</ele>
        <time>2017-03-04T21:31:32Z</time>
      </trkpt>
      <trkpt lat="44.41638" lon="3.58339">
        <ele>1123</ele>
        <time>2017-03-04T21:33:32Z</time>
      </trkpt>
      <trkpt lat="44.41622" lon="3.58325">
        <ele>1124</ele>
        <time>2017-03-04T21:35:32Z</time>
      </trkpt>
      <trkpt lat="44.41607" lon="3.58315">
        <ele>1124</ele>
        <time>2017-03-04T21:37:32Z</time>
      </trkpt>
      <trkpt lat="44.41597" lon="3.58309">
        <ele>1124</ele>
        <time>2017-03-04T21:39:32Z</time>
      </trkpt>
      <trkpt lat="44.41585" lon="3.58297">
        <ele>1123</ele>
        <time>2017-03-04T21:41:32Z</time>
      </trkpt>
      <trkpt lat="44.4157" lon="3.58284">
        <ele>1122</ele>
        <time>2017-03-04T21:43:32Z</time>
      </trkpt>
      <trkpt lat="44.41537" lon="3.58263">
        <ele>1121</ele>
        <time>2017-03-04T21:45:32Z</time>
      </trkpt>
      <trkpt lat="44.4151" lon="3.58245">
        <ele>1121</ele>
        <time>2017-03-04T21:47:32Z</time>
      </trkpt>
      <trkpt lat="44.41499" lon="3.58238">
        <ele>1120</ele>
        <time>2017-03-04T21:49:32Z</time>
      </trkpt>
      <trkpt lat="44.41489" lon="3.58228">
        <ele>1118</ele>
        <time>2017-03-04T21:51:32Z</time>
      </trkpt>
      <trkpt lat="44.41479" lon="3.58216">
        <ele>1116</ele>
        <time>2017-03-04T21:53:32Z</time>
      </trkpt>
      <trkpt lat="44.41472" lon="3.5821">
        <ele>1115</ele>
        <time>2017-03-04T21:55:32Z</time>
      </trkpt>
      <trkpt lat="44.41444" lon="3.58193">
        <ele>1112</ele>
        <time>2017-03-04T21:57:32Z</time>
      </trkpt>
      <trkpt lat="44.41422" lon="3.58179">
        <ele>1110</ele>
        <time>2017-03-04T21:59:32Z</time>
      </trkpt>
      <trkpt lat="44.41399" lon="3.58163">
        <ele>1108</ele>
        <time>2017-03-04T22:01:32Z</time>
      </trkpt>
      <trkpt lat="44.41375" lon="3.5814">
        <ele>1105</ele>
        <time>2017-03-04T22:03:32Z</time>
      </trkpt>
      <trkpt lat="44.41352" lon="3.58115">
        <ele>1102</ele>
        <time>2017-03-04T22:05:32Z</time>
      </trkpt>
      <trkpt lat="44.41327" lon="3.58088">
        <ele>1100</ele>
        <time>2017-03-04T22:07:32Z</time>
      </trkpt>
      <trkpt lat="44.41316" lon="3.58074">
        <ele>1098</ele>
        <time>2017-03-04T22:09:32Z</time>
      </trkpt>
      <trkpt lat="44.41305" lon="3.58058">
        <ele>1096</ele>
        <time>2017-03-04T22:11:32Z</time>
      </trkpt>
      <trkpt lat="44.41297" lon="3.58046">
        <ele>1094</ele>
        <time>2017-03-04T22:13:32Z</time>
      </trkpt>
      <trkpt lat="44.41271" lon="3.58019">
        <ele>1092</ele>
        <time>2017-03-04T22:15:32Z</time>
      </trkpt>
      <trkpt lat="44.4124" lon="3.57985">
        <ele>1088</ele>
        <time>2017-03-04T22:17:32Z</time>
      </trkpt>
      <trkpt lat="44.41219" lon="3.57968">
        <ele>1085</ele>
        <time>2017-03-04T22:19:32Z</time>
      </trkpt>
      <trkpt lat="44.41195" lon="3.57951">
        <ele>1082</ele>
        <time>2017-03-04T22:21:32Z</time>
      </trkpt>
      <trkpt lat="44.41178" lon="3.57942">
        <ele>1081</ele>
        <time>2017-03-04T22:23:32Z</time>
      </trkpt>
      <trkpt lat="44.41166" lon="3.57939">
        <ele>1080</ele>
        <time>2017-03-04T22:25:32Z</time>
      </trkpt>
      <trkpt lat="44.41151" lon="3.5794">
        <ele>1079</ele>
        <time>2017-03-04T22:27:32Z</time>
      </trkpt>
      <trkpt lat="44.41134" lon="3.57947">
        <ele>1077</ele>
        <time>2017-03-04T22:29:32Z</time>
      </trkpt>
      <trkpt lat="44.41121" lon="3.57955">
        <ele>1076</ele>
        <time>2017-03-04T22:31:32Z</time>
      </trkpt>
      <trkpt lat="44.41108" lon="3.57969">
        <ele>1076</ele>
        <time>2017-03-04T22:33:32Z</time>
      </trkpt>
      <trkpt lat="44.411" lon="3.57985">
        <ele>1076</ele>
        <time>2017-03-04T22:35:32Z</time>
      </trkpt>
      <trkpt lat="44.41096" lon="3.57995">
        <ele>1076</ele>
        <time>2017-03-04T22:37:32Z</time>
      </trkpt>
      <trkpt lat="44.41094" lon="3.57998">
        <ele>1075</ele>
        <time>2017-03-04T22:39:32Z</time>
      </trkpt>
      <trkpt lat="44.41091" lon="3.57998">
        <ele>1075</ele>
        <time>2017-03-04T22:41:32Z</time>
      </trkpt>
      <trkpt lat="44.41088" lon="3.57992">
        <ele>1074</ele>
        <time>2017-03-04T22:43:32Z</time>
      </trkpt>
      <trkpt lat="44.41086" lon="3.57977">
        <ele>1073</ele>
        <time>2017-03-04T22:45:32Z</time>
      </trkpt>
      <trkpt lat="44.41083" lon="3.57951">
        <ele>1072</ele>
        <time>2017-03-04T22:47:32Z</time>
      </trkpt>
      <trkpt lat="44.41078" lon="3.57912">
        <ele>1069</ele>
        <time>2017-03-04T22:49:32Z</time>
      </trkpt>
      <trkpt lat="44.41073" lon="3.57878">
        <ele>1065</ele>
        <time>2017-03-04T22:51:32Z</time>
      </trkpt>
      <trkpt lat="44.4107" lon="3.57846">
        <ele>1063</ele>
        <time>2017-03-04T22:53:32Z</time>
      </trkpt>
      <trkpt lat="44.41068" lon="3.57809">
        <ele>1059</ele>
        <time>2017-03-04T22:55:32Z</time>
      </trkpt>
      <trkpt lat="44.41066" lon="3.57785">
        <ele>1057</ele>
        <time>2017-03-04T22:57:32Z</time>
      </trkpt>
      <trkpt lat="44.41063" lon="3.57771">
        <ele>1055</ele>
        <time>2017-03-04T22:59:32Z</time>
      </trkpt>
      <trkpt lat="44.41054" lon="3.57747">
        <ele>1052</ele>
        <time>2017-03-04T23:01:32Z</time>
      </trkpt>
      <trkpt lat="44.41045" lon="3.57723">
        <ele>1050</ele>
        <time>2017-03-04T23:03:32Z</time>
      </trkpt>
      <trkpt lat="44.41037" lon="3.57707">
        <ele>1049</ele>
        <time>2017-03-04T23:05:32Z</time>
      </trkpt>
      <trkpt lat="44.41026" lon="3.57689">
        <ele>1048</ele>
        <time>2017-03-04T23:07:32Z</time>
      </trkpt>
      <trkpt lat="44.41017" lon="3.57675">
        <ele>1048</ele>
        <time>2017-03-04T23:09:32Z</time>
      </trkpt>
      <trkpt lat="44.41008" lon="3.57661">
        <ele>1049</ele>
        <time>2017-03-04T23:11:32Z</time>
      </trkpt>
      <trkpt lat="44.40997" lon="3.57644">
        <ele>1050</ele>
        <time>2017-03-04T23:13:32Z</time>
      </trkpt>
      <trkpt lat="44.40989" lon="3.57625">
        <ele>1051</ele>
        <time>2017-03-04T23:15:32Z</time>
      </trkpt>
      <trkpt lat="44.40987" lon="3.5762">
        <ele>1051</ele>
        <time>2017-03-04T23:17:32Z</time>
      </trkpt>
      <trkpt lat="44.40986" lon="3.57614">
        <ele>1051</ele>
        <time>2017-03-04T23:19:32Z</time>
      </trkpt>
      <trkpt lat="44.40985" lon="3.57609">
        <ele>1052</ele>
        <time>2017-03-04T23:21:32Z</time>
      </trkpt>
      <trkpt lat="44.40986" lon="3.57604">
        <ele>1052</ele>
        <time>2017-03-04T23:23:32Z</time>
      </trkpt>
      <trkpt lat="44.40987" lon="3.57587">
        <ele>1053</ele>
        <time>2017-03-04T23:25:32Z</time>
      </trkpt>
      <trkpt lat="44.40988" lon="3.5758">
        <ele>1053</ele>
        <time>2017-03-04T23:27:32Z</time>
      </trkpt>
      <trkpt lat="44.40988" lon="3.57573">
        <ele>1053</ele>
        <time>2017-03-04T23:29:32Z</time>
      </trkpt>
      <trkpt lat="44.40987" lon="3.57566">
        <ele>1053</ele>
        <time>2017-03-04T23:31:32Z</time>
      </trkpt>
      <trkpt lat="44.40985" lon="3.57551">
        <ele>1054</ele>
        <time>2017-03-04T23:33:32Z</time>
      </trkpt>
      <trkpt lat="44.40984" lon="3.57546">
        <ele>1054</ele>
        <time>2017-03-04T23:35:32Z</time>
      </trkpt>
      <trkpt lat="44.40985" lon="3.5754">
        <ele>1054</ele>
        <time>2017-03-04T23:37:32Z</time>
      </trkpt>
      <trkpt lat="44.40986" lon="3.57531">
        <ele>1054</ele>
        <time>2017-03-04T23:39:32Z</time>
      </trkpt>
      <trkpt lat="44.40987" lon="3.57525">
        <ele>1054</ele>
        <time>2017-03-04T23:41:32Z</time>
      </trkpt>
      <trkpt lat="44.40987" lon="3.5752">
        <ele>1054</ele>
        <time>2017-03-04T23:43:32Z</time>
      </trkpt>
      <trkpt lat="44.40984" lon="3.57495">
        <ele>1055</ele>
        <time>2017-03-04T23:45:32Z</time>
      </trkpt>
      <trkpt lat="44.4098" lon="3.57467">
        <ele>1055</ele>
        <time>2017-03-04T23:47:32Z</time>
      </trkpt>
      <trkpt lat="44.40975" lon="3.57443">
        <ele>1054</ele>
        <time>2017-03-04T23:49:32Z</time>
      </trkpt>
      <trkpt lat="44.40973" lon="3.57433">
        <ele>1054</ele>
        <time>2017-03-04T23:51:32Z</time>
      </trkpt>
      <trkpt lat="44.40972" lon="3.57428">
        <ele>1054</ele>
        <time>2017-03-04T23:53:32Z</time>
      </trkpt>
      <trkpt lat="44.40972" lon="3.57425">
        <ele>1054</ele>
        <time>2017-03-04T23:55:32Z</time>
      </trkpt>
      <trkpt lat="44.40973" lon="3.57422">
        <ele>1054</ele>
        <time>2017-03-04T23:57:32Z</time>
      </trkpt>
      <trkpt lat="44.40973" lon="3.5742">
        <ele>1054</ele>
        <time>2017-03-04T23:59:32Z</time>
      </trkpt>
      <trkpt lat="44.40974" lon="3.57418">
        <ele>1054</ele>
        <time>2017-03-05T00:01:32Z</time>
      </trkpt>
      <trkpt lat="44.40975" lon="3.57416">
        <ele>1054</ele>
        <time>2017-03-05T00:03:32Z</time>
      </trkpt>
      <trkpt lat="44.40976" lon="3.57413">
        <ele>1053</ele>
        <time>2017-03-05T00:05:32Z</time>
      </trkpt>
      <trkpt lat="44.40977" lon="3.57411">
        <ele>1053</ele>
        <time>2017-03-05T00:07:32Z</time>
      </trkpt>
      <trkpt lat="44.4098" lon="3.57408">
        <ele>1053</ele>
        <time>2017-03-05T00:09:32Z</time>
      </trkpt>
      <trkpt lat="44.40982" lon="3.57406">
        <ele>1052</ele>
        <time>2017-03-05T00:11:32Z</time>
      </trkpt>
      <trkpt lat="44.40983" lon="3.57405">
        <ele>1052</ele>
        <time>2017-03-05T00:13:32Z</time>
      </trkpt>
      <trkpt lat="44.40985" lon="3.57403">
        <ele>1052</ele>
        <time>2017-03-05T00:15:32Z</time>
      </trkpt>
      <trkpt lat="44.40987" lon="3.57402">
        <ele>1051</ele>
        <time>2017-03-05T00:17:32Z</time>
      </trkpt>
      <trkpt lat="44.40989" lon="3.57401">
        <ele>1051</ele>
        <time>2017-03-05T00:19:32Z</time>
      </trkpt>
      <trkpt lat="44.41" lon="3.57398">
        <ele>1050</ele>
        <time>2017-03-05T00:21:32Z</time>
      </trkpt>
      <trkpt lat="44.41012" lon="3.57394">
        <ele>1048</ele>
        <time>2017-03-05T00:23:32Z</time>
      </trkpt>
      <trkpt lat="44.41021" lon="3.5739">
        <ele>1046</ele>
        <time>2017-03-05T00:25:32Z</time>
      </trkpt>
      <trkpt lat="44.41024" lon="3.57388">
        <ele>1045</ele>
        <time>2017-03-05T00:27:32Z</time>
      </trkpt>
      <trkpt lat="44.41026" lon="3.57387">
        <ele>1045</ele>
        <time>2017-03-05T00:29:32Z</time>
      </trkpt>
      <trkpt lat="44.41027" lon="3.57386">
        <ele>1044</ele>
        <time>2017-03-05T00:31:32Z</time>
      </trkpt>
      <trkpt lat="44.41028" lon="3.57384">
        <ele>1044</ele>
        <time>2017-03-05T00:33:32Z</time>
      </trkpt>
      <trkpt lat="44.41029" lon="3.57382">
        <ele>1044</ele>
        <time>2017-03-05T00:35:32Z</time>
      </trkpt>
      <trkpt lat="44.41033" lon="3.57341">
        <ele>1039</ele>
        <time>2017-03-05T00:37:32Z</time>
      </trkpt>
      <trkpt lat="44.41033" lon="3.57332">
        <ele>1039</ele>
        <time>2017-03-05T00:39:32Z</time>
      </trkpt>
      <trkpt lat="44.41033" lon="3.57321">
        <ele>1037</ele>
        <time>2017-03-05T00:41:32Z</time>
      </trkpt>
      <trkpt lat="44.41035" lon="3.57311">
        <ele>1036</ele>
        <time>2017-03-05T00:43:32Z</time>
      </trkpt>
      <trkpt lat="44.41036" lon="3.57296">
        <ele>1034</ele>
        <time>2017-03-05T00:45:32Z</time>
      </trkpt>
      <trkpt lat="44.41036" lon="3.57291">
        <ele>1034</ele>
        <time>2017-03-05T00:47:32Z</time>
      </trkpt>
      <trkpt lat="44.41035" lon="3.57286">
        <ele>1033</ele>
        <time>2017-03-05T00:49:32Z</time>
      </trkpt>
      <trkpt lat="44.41032" lon="3.57278">
        <ele>1033</ele>
        <time>2017-03-05T00:51:32Z</time>
      </trkpt>
      <trkpt lat="44.41025" lon="3.57257">
        <ele>1031</ele>
        <time>2017-03-05T00:53:32Z</time>
      </trkpt>
      <trkpt lat="44.41019" lon="3.57236">
        <ele>1029</ele>
        <time>2017-03-05T00:55:32Z</time>
      </trkpt>
      <trkpt lat="44.41016" lon="3.57225">
        <ele>1027</ele>
        <time>2017-03-05T00:57:32Z</time>
      </trkpt>
      <trkpt lat="44.41014" lon="3.57221">
        <ele>1027</ele>
        <time>2017-03-05T00:59:32Z</time>
      </trkpt>
      <trkpt lat="44.41013" lon="3.57218">
        <ele>1026</ele>
        <time>2017-03-05T01:01:32Z</time>
      </trkpt>
      <trkpt lat="44.41005" lon="3.57206">
        <ele>1025</ele>
        <time>2017-03-05T01:03:32Z</time>
      </trkpt>
      <trkpt lat="44.41004" lon="3.57204">
        <ele>1025</ele>
        <time>2017-03-05T01:05:32Z</time>
      </trkpt>
      <trkpt lat="44.41004" lon="3.57204">
        <ele>1025</ele>
        <time>2017-03-05T01:07:32Z</time>
      </trkpt>
      <trkpt lat="44.40993" lon="3.57192">
        <ele>1023</ele>
        <time>2017-03-05T01:09:32Z</time>
      </trkpt>
      <trkpt lat="44.4098" lon="3.57174">
        <ele>1020</ele>
        <time>2017-03-05T01:11:32Z</time>
      </trkpt>
      <trkpt lat="44.40979" lon="3.57172">
        <ele>1020</ele>
        <time>2017-03-05T01:13:32Z</time>
      </trkpt>
      <trkpt lat="44.40979" lon="3.57173">
        <ele>1020</ele>
        <time>2017-03-05T01:15:32Z</time>
      </trkpt>
      <trkpt lat="44.40992" lon="3.57165">
        <ele>1019</ele>
        <time>2017-03-05T01:17:32Z</time>
      </trkpt>
      <trkpt lat="44.40982" lon="3.5714">
        <ele>1016</ele>
        <time>2017-03-05T01:19:32Z</time>
      </trkpt>
      <trkpt lat="44.41021" lon="3.57113">
        <ele>1011</ele>
        <time>2017-03-05T01:21:32Z</time>
      </trkpt>
      <trkpt lat="44.41019" lon="3.57086">
        <ele>1008</ele>
        <time>2017-03-05T01:23:32Z</time>
      </trkpt>
      <trkpt lat="44.41007" lon="3.5707">
        <ele>1007</ele>
        <time>2017-03-05T01:25:32Z</time>
      </trkpt>
      <trkpt lat="44.41001" lon="3.56994">
        <ele>999</ele>
        <time>2017-03-05T01:27:32Z</time>
      </trkpt>
      <trkpt lat="44.41025" lon="3.56995">
        <ele>998</ele>
        <time>2017-03-05T01:29:32Z</time>
      </trkpt>
      <trkpt lat="44.4103" lon="3.56938">
        <ele>996</ele>
        <time>2017-03-05T01:31:32Z</time>
      </trkpt>
      <trkpt lat="44.41017" lon="3.56879">
        <ele>991</ele>
        <time>2017-03-05T01:33:32Z</time>
      </trkpt>
      <trkpt lat="44.40989" lon="3.56844">
        <ele>985</ele>
        <time>2017-03-05T01:35:32Z</time>
      </trkpt>
      <trkpt lat="44.40969" lon="3.56848">
        <ele>985</ele>
        <time>2017-03-05T01:37:32Z</time>
      </trkpt>
      <trkpt lat="44.40923" lon="3.56818">
        <ele>979</ele>
        <time>2017-03-05T01:39:32Z</time>
      </trkpt>
      <trkpt lat="44.40882" lon="3.56826">
        <ele>977</ele>
        <time>2017-03-05T01:41:32Z</time>
      </trkpt>
      <trkpt lat="44.40833" lon="3.5681">
        <ele>969</ele>
        <time>2017-03-05T01:43:32Z</time>
      </trkpt>
      <trkpt lat="44.408" lon="3.56842">
        <ele>968</ele>
        <time>2017-03-05T01:45:32Z</time>
      </trkpt>
      <trkpt lat="44.40767" lon="3.56959">
        <ele>967</ele>
        <time>2017-03-05T01:47:32Z</time>
      </trkpt>
      <trkpt lat="44.40739" lon="3.56876">
        <ele>954</ele>
        <time>2017-03-05T01:49:32Z</time>
      </trkpt>
      <trkpt lat="44.40699" lon="3.56933">
        <ele>949</ele>
        <time>2017-03-05T01:51:32Z</time>
      </trkpt>
      <trkpt lat="44.4063" lon="3.56911">
        <ele>936</ele>
        <time>2017-03-05T01:53:32Z</time>
      </trkpt>
      <trkpt lat="44.40667" lon="3.56863">
        <ele>932</ele>
        <time>2017-03-05T01:55:32Z</time>
      </trkpt>
      <trkpt lat="44.40634" lon="3.56761">
        <ele>912</ele>
        <time>2017-03-05T01:57:32Z</time>
      </trkpt>
      <trkpt lat="44.40618" lon="3.56816">
        <ele>913</ele>
        <time>2017-03-05T01:59:32Z</time>
      </trkpt>
      <trkpt lat="44.40498" lon="3.56764">
        <ele>880</ele>
        <time>2017-03-05T02:01:32Z</time>
      </trkpt>
      <trkpt lat="44.40556" lon="3.56747">
        <ele>882</ele>
        <time>2017-03-05T02:03:32Z</time>
      </trkpt>
      <trkpt lat="44.40497" lon="3.56726">
        <ele>866</ele>
        <time>2017-03-05T02:05:32Z</time>
      </trkpt>
      <trkpt lat="44.40526" lon="3.56723">
        <ele>871</ele>
        <time>2017-03-05T02:07:32Z</time>
      </trkpt>
      <trkpt lat="44.40446" lon="3.56671">
        <ele>846</ele>
        <time>2017-03-05T02:09:32Z</time>
      </trkpt>
      <trkpt lat="44.40502" lon="3.56648">
        <ele>843</ele>
        <time>2017-03-05T02:11:32Z</time>
      </trkpt>
      <trkpt lat="44.40451" lon="3.56602">
        <ele>825</ele>
        <time>2017-03-05T02:13:32Z</time>
      </trkpt>
      <trkpt lat="44.4043" lon="3.56598">
        <ele>821</ele>
        <time>2017-03-05T02:15:32Z</time>
      </trkpt>
      <trkpt lat="44.40439" lon="3.56573">
        <ele>816</ele>
        <time>2017-03-05T02:17:32Z</time>
      </trkpt>
      <trkpt lat="44.40385" lon="3.56531">
        <ele>800</ele>
        <time>2017-03-05T02:19:32Z</time>
      </trkpt>
      <trkpt lat="44.4041" lon="3.56525">
        <ele>803</ele>
        <time>2017-03-05T02:21:32Z</time>
      </trkpt>
      <trkpt lat="44.40392" lon="3.56497">
        <ele>795</ele>
        <time>2017-03-05T02:23:32Z</time>
      </trkpt>
      <trkpt lat="44.40392" lon="3.56496">
        <ele>795</ele>
        <time>2017-03-05T02:25:32Z</time>
      </trkpt>
      <trkpt lat="44.40385" lon="3.56499">
        <ele>793</ele>
        <time>2017-03-05T02:27:32Z</time>
      </trkpt>
      <trkpt lat="44.40358" lon="3.56508">
        <ele>790</ele>
        <time>2017-03-05T02:29:32Z</time>
      </trkpt>
      <trkpt lat="44.40334" lon="3.56512">
        <ele>787</ele>
        <time>2017-03-05T02:31:32Z</time>
      </trkpt>
      <trkpt lat="44.40305" lon="3.5652">
        <ele>786</ele>
        <time>2017-03-05T02:33:32Z</time>
      </trkpt>
      <trkpt lat="44.40275" lon="3.56525">
        <ele>784</ele>
        <time>2017-03-05T02:35:32Z</time>
      </trkpt>
      <trkpt lat="44.40246" lon="3.56531">
        <ele>782</ele>
        <time>2017-03-05T02:37:32Z</time>
      </trkpt>
      <trkpt lat="44.40233" lon="3.56532">
        <ele>781</ele>
        <time>2017-03-05T02:39:32Z</time>
      </trkpt>
      <trkpt lat="44.4022" lon="3.56531">
        <ele>778</ele>
        <time>2017-03-05T02:41:32Z</time>
      </trkpt>
      <trkpt lat="44.40207" lon="3.56528">
        <ele>775</ele>
        <time>2017-03-05T02:43:32Z</time>
      </trkpt>
      <trkpt lat="44.40196" lon="3.56526">
        <ele>773</ele>
        <time>2017-03-05T02:45:32Z</time>
      </trkpt>
      <trkpt lat="44.40194" lon="3.56526">
        <ele>773</ele>
        <time>2017-03-05T02:47:32Z</time>
      </trkpt>
      <trkpt lat="44.40192" lon="3.56526">
        <ele>772</ele>
        <time>2017-03-05T02:49:32Z</time>
      </trkpt>
      <trkpt lat="44.4019" lon="3.56528">
        <ele>772</ele>
        <time>2017-03-05T02:51:32Z</time>
      </trkpt>
      <trkpt lat="44.40188" lon="3.5653">
        <ele>773</ele>
        <time>2017-03-05T02:53:32Z</time>
      </trkpt>
      <trkpt lat="44.40185" lon="3.56533">
        <ele>773</ele>
        <time>2017-03-05T02:55:32Z</time>
      </trkpt>
      <trkpt lat="44.40184" lon="3.56536">
        <ele>774</ele>
        <time>2017-03-05T02:57:32Z</time>
      </trkpt>
      <trkpt lat="44.40182" lon="3.56539">
        <ele>774</ele>
        <time>2017-03-05T02:59:32Z</time>
      </trkpt>
      <trkpt lat="44.40179" lon="3.56544">
        <ele>775</ele>
        <time>2017-03-05T03:01:32Z</time>
      </trkpt>
      <trkpt lat="44.40177" lon="3.5655">
        <ele>777</ele>
        <time>2017-03-05T03:03:32Z</time>
      </trkpt>
      <trkpt lat="44.40175" lon="3.56556">
        <ele>778</ele>
        <time>2017-03-05T03:05:32Z</time>
      </trkpt>
      <trkpt lat="44.40172" lon="3.56562">
        <ele>779</ele>
        <time>2017-03-05T03:07:32Z</time>
      </trkpt>
      <trkpt lat="44.40169" lon="3.56568">
        <ele>780</ele>
        <time>2017-03-05T03:09:32Z</time>
      </trkpt>
      <trkpt lat="44.40164" lon="3.56577">
        <ele>781</ele>
        <time>2017-03-05T03:11:32Z</time>
      </trkpt>
      <trkpt lat="44.40156" lon="3.56587">
        <ele>781</ele>
        <time>2017-03-05T03:13:32Z</time>
      </trkpt>
      <trkpt lat="44.4015" lon="3.56594">
        <ele>780</ele>
        <time>2017-03-05T03:15:32Z</time>
      </trkpt>
      <trkpt lat="44.40144" lon="3.56603">
        <ele>780</ele>
        <time>2017-03-05T03:17:32Z</time>
      </trkpt>
      <trkpt lat="44.40139" lon="3.56609">
        <ele>779</ele>
        <time>2017-03-05T03:19:32Z</time>
      </trkpt>
      <trkpt lat="44.40135" lon="3.56616">
        <ele>779</ele>
        <time>2017-03-05T03:21:32Z</time>
      </trkpt>
      <trkpt lat="44.40131" lon="3.56624">
        <ele>779</ele>
        <time>2017-03-05T03:23:32Z</time>
      </trkpt>
      <trkpt lat="44.40128" lon="3.56634">
        <ele>780</ele>
        <time>2017-03-05T03:25:32Z</time>
      </trkpt>
      <trkpt lat="44.40123" lon="3.56651">
        <ele>781</ele>
        <time>2017-03-05T03:27:32Z</time>
      </trkpt>
      <trkpt lat="44.40117" lon="3.56686">
        <ele>785</ele>
        <time>2017-03-05T03:29:32Z</time>
      </trkpt>
      <trkpt lat="44.40108" lon="3.56734">
        <ele>788</ele>
        <time>2017-03-05T03:31:32Z</time>
      </trkpt>
      <trkpt lat="44.40101" lon="3.56771">
        <ele>790</ele>
        <time>2017-03-05T03:33:32Z</time>
      </trkpt>
      <trkpt lat="44.40095" lon="3.568">
        <ele>790</ele>
        <time>2017-03-05T03:35:32Z</time>
      </trkpt>
      <trkpt lat="44.40089" lon="3.56829">
        <ele>791</ele>
        <time>2017-03-05T03:37:32Z</time>
      </trkpt>
      <trkpt lat="44.40086" lon="3.56841">
        <ele>791</ele>
        <time>2017-03-05T03:39:32Z</time>
      </trkpt>
      <trkpt lat="44.40085" lon="3.56854">
        <ele>792</ele>
        <time>2017-03-05T03:41:32Z</time>
      </trkpt>
      <trkpt lat="44.40083" lon="3.5686">
        <ele>792</ele>
        <time>2017-03-05T03:43:32Z</time>
      </trkpt>
      <trkpt lat="44.40081" lon="3.56865">
        <ele>792</ele>
        <time>2017-03-05T03:45:32Z</time>
      </trkpt>
      <trkpt lat="44.40078" lon="3.56869">
        <ele>793</ele>
        <time>2017-03-05T03:47:32Z</time>
      </trkpt>
      <trkpt lat="44.40076" lon="3.56873">
        <ele>793</ele>
        <time>2017-03-05T03:49:32Z</time>
      </trkpt>
      <trkpt lat="44.40073" lon="3.56876">
        <ele>793</ele>
        <time>2017-03-05T03:51:32Z</time>
      </trkpt>
      <trkpt lat="44.4007" lon="3.56877">
        <ele>792</ele>
        <time>2017-03-05T03:53:32Z</time>
      </trkpt>
      <trkpt lat="44.40064" lon="3.56879">
        <ele>792</ele>
        <time>2017-03-05T03:55:32Z</time>
      </trkpt>
      <trkpt lat="44.40058" lon="3.5688">
        <ele>791</ele>
        <time>2017-03-05T03:57:32Z</time>
      </trkpt>
      <trkpt lat="44.40051" lon="3.56881">
        <ele>790</ele>
        <time>2017-03-05T03:59:32Z</time>
      </trkpt>
      <trkpt lat="44.40049" lon="3.56881">
        <ele>790</ele>
        <time>2017-03-05T04:01:32Z</time>
      </trkpt>
      <trkpt lat="44.40047" lon="3.56881">
        <ele>790</ele>
        <time>2017-03-05T04:03:32Z</time>
      </trkpt>
      <trkpt lat="44.40045" lon="3.56881">
        <ele>790</ele>
        <time>2017-03-05T04:05:32Z</time>
      </trkpt>
      <trkpt lat="44.40038" lon="3.56878">
        <ele>788</ele>
        <time>2017-03-05T04:07:32Z</time>
      </trkpt>
      <trkpt lat="44.40032" lon="3.56875">
        <ele>787</ele>
        <time>2017-03-05T04:09:32Z</time>
      </trkpt>
      <trkpt lat="44.40028" lon="3.56874">
        <ele>787</ele>
        <time>2017-03-05T04:11:32Z</time>
      </trkpt>
      <trkpt lat="44.40025" lon="3.56874">
        <ele>786</ele>
        <time>2017-03-05T04:13:32Z</time>
      </trkpt>
      <trkpt lat="44.40023" lon="3.56874">
        <ele>786</ele>
        <time>2017-03-05T04:15:32Z</time>
      </trkpt>
      <trkpt lat="44.40021" lon="3.56874">
        <ele>786</ele>
        <time>2017-03-05T04:17:32Z</time>
      </trkpt>
      <trkpt lat="44.4002" lon="3.56875">
        <ele>786</ele>
        <time>2017-03-05T04:19:32Z</time>
      </trkpt>
      <trkpt lat="44.40017" lon="3.56877">
        <ele>785</ele>
        <time>2017-03-05T04:21:32Z</time>
      </trkpt>
      <trkpt lat="44.40015" lon="3.5688">
        <ele>785</ele>
        <time>2017-03-05T04:23:32Z</time>
      </trkpt>
      <trkpt lat="44.40005" lon="3.569">
        <ele>786</ele>
        <time>2017-03-05T04:25:32Z</time>
      </trkpt>
      <trkpt lat="44.40005" lon="3.569">
        <ele>786</ele>
        <time>2017-03-05T04:27:32Z</time>
      </trkpt>
      <trkpt lat="44.39993" lon="3.56886">
        <ele>786</ele>
        <time>2017-03-05T04:29:32Z</time>
      </trkpt>
      <trkpt lat="44.39986" lon="3.56879">
        <ele>788</ele>
        <time>2017-03-05T04:31:32Z</time>
      </trkpt>
      <trkpt lat="44.39984" lon="3.56877">
        <ele>789</ele>
        <time>2017-03-05T04:33:32Z</time>
      </trkpt>
      <trkpt lat="44.39982" lon="3.56876">
        <ele>789</ele>
        <time>2017-03-05T04:35:32Z</time>
      </trkpt>
      <trkpt lat="44.39981" lon="3.56876">
        <ele>789</ele>
        <time>2017-03-05T04:37:32Z</time>
      </trkpt>
      <trkpt lat="44.3998" lon="3.56877">
        <ele>790</ele>
        <time>2017-03-05T04:39:32Z</time>
      </trkpt>
      <trkpt lat="44.39979" lon="3.56877">
        <ele>790</ele>
        <time>2017-03-05T04:41:32Z</time>
      </trkpt>
      <trkpt lat="44.39978" lon="3.56878">
        <ele>791</ele>
        <time>2017-03-05T04:43:32Z</time>
      </trkpt>
      <trkpt lat="44.39978" lon="3.56878">
        <ele>791</ele>
        <time>2017-03-05T04:45:32Z</time>
      </trkpt>
      <trkpt lat="44.39973" lon="3.56868">
        <ele>792</ele>
        <time>2017-03-05T04:47:32Z</time>
      </trkpt>
      <trkpt lat="44.39967" lon="3.56857">
        <ele>793</ele>
        <time>2017-03-05T04:49:32Z</time>
      </trkpt>
      <trkpt lat="44.39963" lon="3.56848">
        <ele>794</ele>
        <time>2017-03-05T04:51:32Z</time>
      </trkpt>
      <trkpt lat="44.39959" lon="3.5684">
        <ele>795</ele>
        <time>2017-03-05T04:53:32Z</time>
      </trkpt>
      <trkpt lat="44.39954" lon="3.56828">
        <ele>796</ele>
        <time>2017-03-05T04:55:32Z</time>
      </trkpt>
      <trkpt lat="44.3995" lon="3.56818">
        <ele>796</ele>
        <time>2017-03-05T04:57:32Z</time>
      </trkpt>
      <trkpt lat="44.39948" lon="3.5681">
        <ele>796</ele>
        <time>2017-03-05T04:59:32Z</time>
      </trkpt>
      <trkpt lat="44.39946" lon="3.56802">
        <ele>796</ele>
        <time>2017-03-05T05:01:32Z</time>
      </trkpt>
      <trkpt lat="44.39944" lon="3.56794">
        <ele>796</ele>
        <time>2017-03-05T05:03:32Z</time>
      </trkpt>
      <trkpt lat="44.39942" lon="3.56783">
        <ele>796</ele>
        <time>2017-03-05T05:05:32Z</time>
      </trkpt>
      <trkpt lat="44.3994" lon="3.56772">
        <ele>796</ele>
        <time>2017-03-05T05:07:32Z</time>
      </trkpt>
      <trkpt lat="44.39938" lon="3.56762">
        <ele>796</ele>
        <time>2017-03-05T05:09:32Z</time>
      </trkpt>
      <trkpt lat="44.39937" lon="3.56749">
        <ele>795</ele>
        <time>2017-03-05T05:11:32Z</time>
      </trkpt>
      <trkpt lat="44.39936" lon="3.56727">
        <ele>793</ele>
        <time>2017-03-05T05:13:32Z</time>
      </trkpt>
      <trkpt lat="44.39936" lon="3.56715">
        <ele>791</ele>
        <time>2017-03-05T05:15:32Z</time>
      </trkpt>
      <trkpt lat="44.39934" lon="3.56704">
        <ele>790</ele>
        <time>2017-03-05T05:17:32Z</time>
      </trkpt>
      <trkpt lat="44.39932" lon="3.56691">
        <ele>789</ele>
        <time>2017-03-05T05:19:32Z</time>
      </trkpt>
      <trkpt lat="44.39931" lon="3.56682">
        <ele>788</ele>
        <time>2017-03-05T05:21:32Z</time>
      </trkpt>
      <trkpt lat="44.39929" lon="3.56669">
        <ele>787</ele>
        <time>2017-03-05T05:23:32Z</time>
      </trkpt>
      <trkpt lat="44.39928" lon="3.5666">
        <ele>786</ele>
        <time>2017-03-05T05:25:32Z</time>
      </trkpt>
      <trkpt lat="44.39928" lon="3.56648">
        <ele>784</ele>
        <time>2017-03-05T05:27:32Z</time>
      </trkpt>
      <trkpt lat="44.39927" lon="3.56636">
        <ele>783</ele>
        <time>2017-03-05T05:29:32Z</time>
      </trkpt>
      <trkpt lat="44.39927" lon="3.56633">
        <ele>782</ele>
        <time>2017-03-05T05:31:32Z</time>
      </trkpt>
      <trkpt lat="44.39926" lon="3.5663">
        <ele>782</ele>
        <time>2017-03-05T05:33:32Z</time>
      </trkpt>
      <trkpt lat="44.39926" lon="3.56628">
        <ele>782</ele>
        <time>2017-03-05T05:35:32Z</time>
      </trkpt>
      <trkpt lat="44.39925" lon="3.56626">
        <ele>782</ele>
        <time>2017-03-05T05:37:32Z</time>
      </trkpt>
      <trkpt lat="44.39924" lon="3.56623">
        <ele>782</ele>
        <time>2017-03-05T05:39:32Z</time>
      </trkpt>
      <trkpt lat="44.39921" lon="3.56618">
        <ele>782</ele>
        <time>2017-03-05T05:41:32Z</time>
      </trkpt>
      <trkpt lat="44.39918" lon="3.56614">
        <ele>782</ele>
        <time>2017-03-05T05:43:32Z</time>
      </trkpt>
      <trkpt lat="44.39915" lon="3.56609">
        <ele>782</ele>
        <time>2017-03-05T05:45:32Z</time>
      </trkpt>
      <trkpt lat="44.39913" lon="3.56607">
        <ele>782</ele>
        <time>2017-03-05T05:47:32Z</time>
      </trkpt>
      <trkpt lat="44.39912" lon="3.56606">
        <ele>782</ele>
        <time>2017-03-05T05:49:32Z</time>
      </trkpt>
      <trkpt lat="44.3991" lon="3.56604">
        <ele>782</ele>
        <time>2017-03-05T05:51:32Z</time>
      </trkpt>
      <trkpt lat="44.39908" lon="3.56602">
        <ele>782</ele>
        <time>2017-03-05T05:53:32Z</time>
      </trkpt>
      <trkpt lat="44.39906" lon="3.56601">
        <ele>783</ele>
        <time>2017-03-05T05:55:32Z</time>
      </trkpt>
      <trkpt lat="44.39903" lon="3.566">
        <ele>783</ele>
        <time>2017-03-05T05:57:32Z</time>
      </trkpt>
      <trkpt lat="44.39901" lon="3.566">
        <ele>784</ele>
        <time>2017-03-05T05:59:32Z</time>
      </trkpt>
      <trkpt lat="44.39896" lon="3.56598">
        <ele>784</ele>
        <time>2017-03-05T06:01:32Z</time>
      </trkpt>
      <trkpt lat="44.39893" lon="3.56597">
        <ele>785</ele>
        <time>2017-03-05T06:03:32Z</time>
      </trkpt>
      <trkpt lat="44.39891" lon="3.56594">
        <ele>785</ele>
        <time>2017-03-05T06:05:32Z</time>
      </trkpt>
      <trkpt lat="44.39887" lon="3.56586">
        <ele>784</ele>
        <time>2017-03-05T06:07:32Z</time>
      </trkpt>
      <trkpt lat="44.39884" lon="3.56581">
        <ele>783</ele>
        <time>2017-03-05T06:09:32Z</time>
      </trkpt>
      <trkpt lat="44.39878" lon="3.56576">
        <ele>782</ele>
        <time>2017-03-05T06:11:32Z</time>
      </trkpt>
      <trkpt lat="44.39872" lon="3.5657">
        <ele>782</ele>
        <time>2017-03-05T06:13:32Z</time>
      </trkpt>
      <trkpt lat="44.39863" lon="3.56559">
        <ele>780</ele>
        <time>2017-03-05T06:15:32Z</time>
      </trkpt>
      <trkpt lat="44.39855" lon="3.56547">
        <ele>778</ele>
        <time>2017-03-05T06:17:32Z</time>
      </trkpt>
      <trkpt lat="44.3985" lon="3.56538">
        <ele>776</ele>
        <time>2017-03-05T06:19:32Z</time>
      </trkpt>
      <trkpt lat="44.39844" lon="3.5653">
        <ele>775</ele>
        <time>2017-03-05T06:21:32Z</time>
      </trkpt>
      <trkpt lat="44.3984" lon="3.56526">
        <ele>775</ele>
        <time>2017-03-05T06:23:32Z</time>
      </trkpt>
      <trkpt lat="44.39836" lon="3.56522">
        <ele>774</ele>
        <time>2017-03-05T06:25:32Z</time>
      </trkpt>
      <trkpt lat="44.39813" lon="3.56515">
        <ele>776</ele>
        <time>2017-03-05T06:27:32Z</time>
      </trkpt>
      <trkpt lat="44.39798" lon="3.56511">
        <ele>777</ele>
        <time>2017-03-05T06:29:32Z</time>
      </trkpt>
      <trkpt lat="44.39781" lon="3.56509">
        <ele>779</ele>
        <time>2017-03-05T06:31:32Z</time>
      </trkpt>
      <trkpt lat="44.39771" lon="3.56507">
        <ele>780</ele>
        <time>2017-03-05T06:33:32Z</time>
      </trkpt>
      <trkpt lat="44.39761" lon="3.56504">
        <ele>780</ele>
        <time>2017-03-05T06:35:32Z</time>
      </trkpt>
      <trkpt lat="44.39752" lon="3.56503">
        <ele>781</ele>
        <time>2017-03-05T06:37:32Z</time>
      </trkpt>
      <trkpt lat="44.39746" lon="3.56502">
        <ele>783</ele>
        <time>2017-03-05T06:39:32Z</time>
      </trkpt>
      <trkpt lat="44.39744" lon="3.56501">
        <ele>784</ele>
        <time>2017-03-05T06:41:32Z</time>
      </trkpt>
      <trkpt lat="44.39743" lon="3.56499">
        <ele>784</ele>
        <time>2017-03-05T06:43:32Z</time>
      </trkpt>
      <trkpt lat="44.39742" lon="3.56496">
        <ele>784</ele>
        <time>2017-03-05T06:45:32Z</time>
      </trkpt>
      <trkpt lat="44.39742" lon="3.56492">
        <ele>784</ele>
        <time>2017-03-05T06:47:32Z</time>
      </trkpt>
      <trkpt lat="44.39743" lon="3.56484">
        <ele>782</ele>
        <time>2017-03-05T06:49:32Z</time>
      </trkpt>
      <trkpt lat="44.39745" lon="3.56476">
        <ele>781</ele>
        <time>2017-03-05T06:51:32Z</time>
      </trkpt>
      <trkpt lat="44.3975" lon="3.56466">
        <ele>778</ele>
        <time>2017-03-05T06:53:32Z</time>
      </trkpt>
      <trkpt lat="44.39755" lon="3.56458">
        <ele>776</ele>
        <time>2017-03-05T06:55:32Z</time>
      </trkpt>
      <trkpt lat="44.39759" lon="3.56448">
        <ele>774</ele>
        <time>2017-03-05T06:57:32Z</time>
      </trkpt>
      <trkpt lat="44.3976" lon="3.56444">
        <ele>773</ele>
        <time>2017-03-05T06:59:32Z</time>
      </trkpt>
      <trkpt lat="44.39761" lon="3.5644">
        <ele>772</ele>
        <time>2017-03-05T07:01:32Z</time>
      </trkpt>
      <trkpt lat="44.39762" lon="3.56436">
        <ele>771</ele>
        <time>2017-03-05T07:03:32Z</time>
      </trkpt>
      <trkpt lat="44.39762" lon="3.56432">
        <ele>771</ele>
        <time>2017-03-05T07:05:32Z</time>
      </trkpt>
      <trkpt lat="44.39762" lon="3.56427">
        <ele>770</ele>
        <time>2017-03-05T07:07:32Z</time>
      </trkpt>
      <trkpt lat="44.3976" lon="3.56412">
        <ele>769</ele>
        <time>2017-03-05T07:09:32Z</time>
      </trkpt>
      <trkpt lat="44.39758" lon="3.56399">
        <ele>769</ele>
        <time>2017-03-05T07:11:32Z</time>
      </trkpt>
      <trkpt lat="44.39755" lon="3.56382">
        <ele>768</ele>
        <time>2017-03-05T07:13:32Z</time>
      </trkpt>
      <trkpt lat="44.39752" lon="3.56368">
        <ele>768</ele>
        <time>2017-03-05T07:15:32Z</time>
      </trkpt>
      <trkpt lat="44.39752" lon="3.56361">
        <ele>768</ele>
        <time>2017-03-05T07:17:32Z</time>
      </trkpt>
      <trkpt lat="44.39749" lon="3.56343">
        <ele>767</ele>
        <time>2017-03-05T07:19:32Z</time>
      </trkpt>
      <trkpt lat="44.39748" lon="3.56323">
        <ele>765</ele>
        <time>2017-03-05T07:21:32Z</time>
      </trkpt>
      <trkpt lat="44.39748" lon="3.56308">
        <ele>763</ele>
        <time>2017-03-05T07:23:32Z</time>
      </trkpt>
      <trkpt lat="44.39748" lon="3.56296">
        <ele>761</ele>
        <time>2017-03-05T07:25:32Z</time>
      </trkpt>
      <trkpt lat="44.39749" lon="3.56286">
        <ele>759</ele>
        <time>2017-03-05T07:27:32Z</time>
      </trkpt>
      <trkpt lat="44.39751" lon="3.56278">
        <ele>757</ele>
        <time>2017-03-05T07:29:32Z</time>
      </trkpt>
      <trkpt lat="44.39752" lon="3.56271">
        <ele>755</ele>
        <time>2017-03-05T07:31:32Z</time>
      </trkpt>
      <trkpt lat="44.39752" lon="3.56267">
        <ele>755</ele>
        <time>2017-03-05T07:33:32Z</time>
      </trkpt>
      <trkpt lat="44.39751" lon="3.56261">
        <ele>754</ele>
        <time>2017-03-05T07:35:32Z</time>
      </trkpt>
      <trkpt lat="44.3975" lon="3.5625">
        <ele>753</ele>
        <time>2017-03-05T07:37:32Z</time>
      </trkpt>
      <trkpt lat="44.39748" lon="3.56241">
        <ele>750</ele>
        <time>2017-03-05T07:39:32Z</time>
      </trkpt>
      <trkpt lat="44.39747" lon="3.56234">
        <ele>748</ele>
        <time>2017-03-05T07:41:32Z</time>
      </trkpt>
      <trkpt lat="44.39746" lon="3.56229">
        <ele>746</ele>
        <time>2017-03-05T07:43:32Z</time>
      </trkpt>
      <trkpt lat="44.39746" lon="3.56224">
        <ele>744</ele>
        <time>2017-03-05T07:45:32Z</time>
      </trkpt>
      <trkpt lat="44.39745" lon="3.5622">
        <ele>743</ele>
        <time>2017-03-05T07:47:32Z</time>
      </trkpt>
      <trkpt lat="44.39744" lon="3.56216">
        <ele>742</ele>
        <time>2017-03-05T07:49:32Z</time>
      </trkpt>
      <trkpt lat="44.39743" lon="3.56212">
        <ele>741</ele>
        <time>2017-03-05T07:51:32Z</time>
      </trkpt>
      <trkpt lat="44.39739" lon="3.56207">
        <ele>740</ele>
        <time>2017-03-05T07:53:32Z</time>
      </trkpt>
      <trkpt lat="44.39737" lon="3.56203">
        <ele>739</ele>
        <time>2017-03-05T07:55:32Z</time>
      </trkpt>
      <trkpt lat="44.39734" lon="3.562">
        <ele>738</ele>
        <time>2017-03-05T07:57:32Z</time>
      </trkpt>
      <trkpt lat="44.39732" lon="3.56197">
        <ele>738</ele>
        <time>2017-03-05T07:59:32Z</time>
      </trkpt>
      <trkpt lat="44.39729" lon="3.56195">
        <ele>738</ele>
        <time>2017-03-05T08:01:32Z</time>
      </trkpt>
      <trkpt lat="44.39726" lon="3.56193">
        <ele>738</ele>
        <time>2017-03-05T08:03:32Z</time>
      </trkpt>
      <trkpt lat="44.39723" lon="3.56193">
        <ele>738</ele>
        <time>2017-03-05T08:05:32Z</time>
      </trkpt>
      <trkpt lat="44.39715" lon="3.56193">
        <ele>740</ele>
        <time>2017-03-05T08:07:32Z</time>
      </trkpt>
      <trkpt lat="44.397" lon="3.56194">
        <ele>744</ele>
        <time>2017-03-05T08:09:32Z</time>
      </trkpt>
      <trkpt lat="44.39678" lon="3.56193">
        <ele>749</ele>
        <time>2017-03-05T08:11:32Z</time>
      </trkpt>
      <trkpt lat="44.39658" lon="3.56193">
        <ele>752</ele>
        <time>2017-03-05T08:13:32Z</time>
      </trkpt>
      <trkpt lat="44.39643" lon="3.56193">
        <ele>751</ele>
        <time>2017-03-05T08:15:32Z</time>
      </trkpt>
      <trkpt lat="44.39621" lon="3.56193">
        <ele>750</ele>
        <time>2017-03-05T08:17:32Z</time>
      </trkpt>
      <trkpt lat="44.39618" lon="3.56194">
        <ele>750</ele>
        <time>2017-03-05T08:19:32Z</time>
      </trkpt>
      <trkpt lat="44.39614" lon="3.56195">
        <ele>750</ele>
        <time>2017-03-05T08:21:32Z</time>
      </trkpt>
      <trkpt lat="44.39603" lon="3.56199">
        <ele>751</ele>
        <time>2017-03-05T08:23:32Z</time>
      </trkpt>
      <trkpt lat="44.39598" lon="3.562">
        <ele>751</ele>
        <time>2017-03-05T08:25:32Z</time>
      </trkpt>
      <trkpt lat="44.39594" lon="3.56201">
        <ele>751</ele>
        <time>2017-03-05T08:27:32Z</time>
      </trkpt>
      <trkpt lat="44.3959" lon="3.56201">
        <ele>751</ele>
        <time>2017-03-05T08:29:32Z</time>
      </trkpt>
      <trkpt lat="44.39585" lon="3.562">
        <ele>750</ele>
        <time>2017-03-05T08:31:32Z</time>
      </trkpt>
      <trkpt lat="44.39581" lon="3.56198">
        <ele>749</ele>
        <time>2017-03-05T08:33:32Z</time>
      </trkpt>
      <trkpt lat="44.39573" lon="3.56192">
        <ele>746</ele>
        <time>2017-03-05T08:35:32Z</time>
      </trkpt>
      <trkpt lat="44.39557" lon="3.56183">
        <ele>742</ele>
        <time>2017-03-05T08:37:32Z</time>
      </trkpt>
      <trkpt lat="44.39541" lon="3.56175">
        <ele>738</ele>
        <time>2017-03-05T08:39:32Z</time>
      </trkpt>
      <trkpt lat="44.39522" lon="3.5617">
        <ele>734</ele>
        <time>2017-03-05T08:41:32Z</time>
      </trkpt>
      <trkpt lat="44.39505" lon="3.56165">
        <ele>731</ele>
        <time>2017-03-05T08:43:32Z</time>
      </trkpt>
      <trkpt lat="44.39492" lon="3.56166">
        <ele>730</ele>
        <time>2017-03-05T08:45:32Z</time>
      </trkpt>
      <trkpt lat="44.39479" lon="3.5617">
        <ele>731</ele>
        <time>2017-03-05T08:47:32Z</time>
      </trkpt>
      <trkpt lat="44.39466" lon="3.56178">
        <ele>732</ele>
        <time>2017-03-05T08:49:32Z</time>
      </trkpt>
      <trkpt lat="44.39453" lon="3.56187">
        <ele>734</ele>
        <time>2017-03-05T08:51:32Z</time>
      </trkpt>
      <trkpt lat="44.39443" lon="3.56194">
        <ele>735</ele>
        <time>2017-03-05T08:53:32Z</time>
      </trkpt>
      <trkpt lat="44.39439" lon="3.56196">
        <ele>736</ele>
        <time>2017-03-05T08:55:32Z</time>
      </trkpt>
      <trkpt lat="44.39432" lon="3.56194">
        <ele>734</ele>
        <time>2017-03-05T08:57:32Z</time>
      </trkpt>
      <trkpt lat="44.39429" lon="3.56191">
        <ele>733</ele>
        <time>2017-03-05T08:59:32Z</time>
      </trkpt>
      <trkpt lat="44.39426" lon="3.56186">
        <ele>732</ele>
        <time>2017-03-05T09:01:32Z</time>
      </trkpt>
      <trkpt lat="44.39424" lon="3.56183">
        <ele>730</ele>
        <time>2017-03-05T09:03:32Z</time>
      </trkpt>
      <trkpt lat="44.39416" lon="3.56163">
        <ele>724</ele>
        <time>2017-03-05T09:05:32Z</time>
      </trkpt>
      <trkpt lat="44.39414" lon="3.56156">
        <ele>722</ele>
        <time>2017-03-05T09:07:32Z</time>
      </trkpt>
      <trkpt lat="44.39411" lon="3.56152">
        <ele>721</ele>
        <time>2017-03-05T09:09:32Z</time>
      </trkpt>
      <trkpt lat="44.39404" lon="3.56148">
        <ele>721</ele>
        <time>2017-03-05T09:11:32Z</time>
      </trkpt>
      <trkpt lat="44.39389" lon="3.56142">
        <ele>721</ele>
        <time>2017-03-05T09:13:32Z</time>
      </trkpt>
      <trkpt lat="44.3937" lon="3.56134">
        <ele>721</ele>
        <time>2017-03-05T09:15:32Z</time>
      </trkpt>
      <trkpt lat="44.39353" lon="3.56128">
        <ele>721</ele>
        <time>2017-03-05T09:17:32Z</time>
      </trkpt>
      <trkpt lat="44.39336" lon="3.5612">
        <ele>720</ele>
        <time>2017-03-05T09:19:32Z</time>
      </trkpt>
      <trkpt lat="44.39325" lon="3.56114">
        <ele>719</ele>
        <time>2017-03-05T09:21:32Z</time>
      </trkpt>
      <trkpt lat="44.39301" lon="3.56096">
        <ele>714</ele>
        <time>2017-03-05T09:23:32Z</time>
      </trkpt>
      <trkpt lat="44.39285" lon="3.56087">
        <ele>712</ele>
        <time>2017-03-05T09:25:32Z</time>
      </trkpt>
      <trkpt lat="44.39273" lon="3.56081">
        <ele>712</ele>
        <time>2017-03-05T09:27:32Z</time>
      </trkpt>
      <trkpt lat="44.39266" lon="3.56081">
        <ele>713</ele>
        <time>2017-03-05T09:29:32Z</time>
      </trkpt>
      <trkpt lat="44.39257" lon="3.56083">
        <ele>715</ele>
        <time>2017-03-05T09:31:32Z</time>
      </trkpt>
      <trkpt lat="44.39252" lon="3.56084">
        <ele>716</ele>
        <time>2017-03-05T09:33:32Z</time>
      </trkpt>
      <trkpt lat="44.39238" lon="3.56089">
        <ele>716</ele>
        <time>2017-03-05T09:35:32Z</time>
      </trkpt>
      <trkpt lat="44.3921" lon="3.561">
        <ele>716</ele>
        <time>2017-03-05T09:37:32Z</time>
      </trkpt>
      <trkpt lat="44.39195" lon="3.56109">
        <ele>716</ele>
        <time>2017-03-05T09:39:32Z</time>
      </trkpt>
      <trkpt lat="44.39186" lon="3.56119">
        <ele>718</ele>
        <time>2017-03-05T09:41:32Z</time>
      </trkpt>
      <trkpt lat="44.39179" lon="3.56129">
        <ele>719</ele>
        <time>2017-03-05T09:43:32Z</time>
      </trkpt>
      <trkpt lat="44.39173" lon="3.56139">
        <ele>721</ele>
        <time>2017-03-05T09:45:32Z</time>
      </trkpt>
      <trkpt lat="44.39166" lon="3.56147">
        <ele>721</ele>
        <time>2017-03-05T09:47:32Z</time>
      </trkpt>
      <trkpt lat="44.39159" lon="3.56151">
        <ele>721</ele>
        <time>2017-03-05T09:49:32Z</time>
      </trkpt>
      <trkpt lat="44.39148" lon="3.56153">
        <ele>719</ele>
        <time>2017-03-05T09:51:32Z</time>
      </trkpt>
      <trkpt lat="44.39142" lon="3.56153">
        <ele>717</ele>
        <time>2017-03-05T09:53:32Z</time>
      </trkpt>
      <trkpt lat="44.39138" lon="3.56155">
        <ele>717</ele>
        <time>2017-03-05T09:55:32Z</time>
      </trkpt>
      <trkpt lat="44.39133" lon="3.56156">
        <ele>716</ele>
        <time>2017-03-05T09:57:32Z</time>
      </trkpt>
      <trkpt lat="44.39129" lon="3.56156">
        <ele>715</ele>
        <time>2017-03-05T09:59:32Z</time>
      </trkpt>
      <trkpt lat="44.39123" lon="3.56152">
        <ele>713</ele>
        <time>2017-03-05T10:01:32Z</time>
      </trkpt>
      <trkpt lat="44.39119" lon="3.56148">
        <ele>711</ele>
        <time>2017-03-05T10:03:32Z</time>
      </trkpt>
      <trkpt lat="44.39115" lon="3.56142">
        <ele>709</ele>
        <time>2017-03-05T10:05:32Z</time>
      </trkpt>
      <trkpt lat="44.39111" lon="3.56137">
        <ele>707</ele>
        <time>2017-03-05T10:07:32Z</time>
      </trkpt>
      <trkpt lat="44.39108" lon="3.56134">
        <ele>706</ele>
        <time>2017-03-05T10:09:32Z</time>
      </trkpt>
      <trkpt lat="44.39102" lon="3.5613">
        <ele>704</ele>
        <time>2017-03-05T10:11:32Z</time>
      </trkpt>
      <trkpt lat="44.39076" lon="3.56119">
        <ele>698</ele>
        <time>2017-03-05T10:13:32Z</time>
      </trkpt>
      <trkpt lat="44.39065" lon="3.56114">
        <ele>695</ele>
        <time>2017-03-05T10:15:32Z</time>
      </trkpt>
      <trkpt lat="44.39059" lon="3.5611">
        <ele>694</ele>
        <time>2017-03-05T10:17:32Z</time>
      </trkpt>
      <trkpt lat="44.39053" lon="3.56107">
        <ele>692</ele>
        <time>2017-03-05T10:19:32Z</time>
      </trkpt>
      <trkpt lat="44.39048" lon="3.56106">
        <ele>691</ele>
        <time>2017-03-05T10:21:32Z</time>
      </trkpt>
      <trkpt lat="44.39043" lon="3.56103">
        <ele>690</ele>
        <time>2017-03-05T10:23:32Z</time>
      </trkpt>
      <trkpt lat="44.39039" lon="3.56097">
        <ele>690</ele>
        <time>2017-03-05T10:25:32Z</time>
      </trkpt>
      <trkpt lat="44.39035" lon="3.5609">
        <ele>689</ele>
        <time>2017-03-05T10:27:32Z</time>
      </trkpt>
      <trkpt lat="44.39026" lon="3.56079">
        <ele>687</ele>
        <time>2017-03-05T10:29:32Z</time>
      </trkpt>
      <trkpt lat="44.3902" lon="3.56068">
        <ele>684</ele>
        <time>2017-03-05T10:31:32Z</time>
      </trkpt>
      <trkpt lat="44.39017" lon="3.5606">
        <ele>683</ele>
        <time>2017-03-05T10:33:32Z</time>
      </trkpt>
      <trkpt lat="44.39017" lon="3.56055">
        <ele>682</ele>
        <time>2017-03-05T10:35:32Z</time>
      </trkpt>
      <trkpt lat="44.39017" lon="3.56044">
        <ele>680</ele>
        <time>2017-03-05T10:37:32Z</time>
      </trkpt>
      <trkpt lat="44.39018" lon="3.56021">
        <ele>675</ele>
        <time>2017-03-05T10:39:32Z</time>
      </trkpt>
      <trkpt lat="44.39019" lon="3.56006">
        <ele>673</ele>
        <time>2017-03-05T10:41:32Z</time>
      </trkpt>
      <trkpt lat="44.39019" lon="3.56">
        <ele>672</ele>
        <time>2017-03-05T10:43:32Z</time>
      </trkpt>
      <trkpt lat="44.39017" lon="3.55995">
        <ele>670</ele>
        <time>2017-03-05T10:45:32Z</time>
      </trkpt>
      <trkpt lat="44.39013" lon="3.55987">
        <ele>668</ele>
        <time>2017-03-05T10:47:32Z</time>
      </trkpt>
      <trkpt lat="44.39006" lon="3.5598">
        <ele>666</ele>
        <time>2017-03-05T10:49:32Z</time>
      </trkpt>
      <trkpt lat="44.38997" lon="3.5597">
        <ele>663</ele>
        <time>2017-03-05T10:51:32Z</time>
      </trkpt>
      <trkpt lat="44.38988" lon="3.55954">
        <ele>658</ele>
        <time>2017-03-05T10:53:32Z</time>
      </trkpt>
      <trkpt lat="44.38976" lon="3.55935">
        <ele>653</ele>
        <time>2017-03-05T10:55:32Z</time>
      </trkpt>
      <trkpt lat="44.38964" lon="3.55901">
        <ele>644</ele>
        <time>2017-03-05T10:57:32Z</time>
      </trkpt>
      <trkpt lat="44.38953" lon="3.55867">
        <ele>633</ele>
        <time>2017-03-05T10:59:32Z</time>
      </trkpt>
      <trkpt lat="44.38948" lon="3.5584">
        <ele>624</ele>
        <time>2017-03-05T11:01:32Z</time>
      </trkpt>
      <trkpt lat="44.38945" lon="3.5583">
        <ele>621</ele>
        <time>2017-03-05T11:03:32Z</time>
      </trkpt>
      <trkpt lat="44.38942" lon="3.55824">
        <ele>619</ele>
        <time>2017-03-05T11:05:32Z</time>
      </trkpt>
      <trkpt lat="44.38936" lon="3.55819">
        <ele>618</ele>
        <time>2017-03-05T11:07:32Z</time>
      </trkpt>
      <trkpt lat="44.38924" lon="3.55815">
        <ele>618</ele>
        <time>2017-03-05T11:09:32Z</time>
      </trkpt>
      <trkpt lat="44.38901" lon="3.55806">
        <ele>612</ele>
        <time>2017-03-05T11:11:32Z</time>
      </trkpt>
      <trkpt lat="44.38864" lon="3.55796">
        <ele>603</ele>
        <time>2017-03-05T11:13:32Z</time>
      </trkpt>
      <trkpt lat="44.38839" lon="3.55789">
        <ele>597</ele>
        <time>2017-03-05T11:15:32Z</time>
      </trkpt>
      <trkpt lat="44.38812" lon="3.55784">
        <ele>592</ele>
        <time>2017-03-05T11:17:32Z</time>
      </trkpt>
      <trkpt lat="44.38803" lon="3.55781">
        <ele>591</ele>
        <time>2017-03-05T11:19:32Z</time>
      </trkpt>
      <trkpt lat="44.38796" lon="3.55778">
        <ele>589</ele>
        <time>2017-03-05T11:21:32Z</time>
      </trkpt>
      <trkpt lat="44.38791" lon="3.55772">
        <ele>587</ele>
        <time>2017-03-05T11:23:32Z</time>
      </trkpt>
      <trkpt lat="44.38788" lon="3.55766">
        <ele>586</ele>
        <time>2017-03-05T11:25:32Z</time>
      </trkpt>
      <trkpt lat="44.38786" lon="3.55761">
        <ele>584</ele>
        <time>2017-03-05T11:27:32Z</time>
      </trkpt>
      <trkpt lat="44.38785" lon="3.55758">
        <ele>584</ele>
        <time>2017-03-05T11:29:32Z</time>
      </trkpt>
      <trkpt lat="44.38783" lon="3.55753">
        <ele>582</ele>
        <time>2017-03-05T11:31:32Z</time>
      </trkpt>
      <trkpt lat="44.38783" lon="3.55753">
        <ele>582</ele>
        <time>2017-03-05T11:33:32Z</time>
      </trkpt>
      <trkpt lat="44.38781" lon="3.55753">
        <ele>582</ele>
        <time>2017-03-05T11:35:32Z</time>
      </trkpt>
      <trkpt lat="44.38777" lon="3.55752">
        <ele>581</ele>
        <time>2017-03-05T11:37:32Z</time>
      </trkpt>
      <trkpt lat="44.3877" lon="3.55751">
        <ele>580</ele>
        <time>2017-03-05T11:39:32Z</time>
      </trkpt>
      <trkpt lat="44.38767" lon="3.5575">
        <ele>580</ele>
        <time>2017-03-05T11:41:32Z</time>
      </trkpt>
      <trkpt lat="44.38764" lon="3.55749">
        <ele>580</ele>
        <time>2017-03-05T11:43:32Z</time>
      </trkpt>
      <trkpt lat="44.38761" lon="3.55746">
        <ele>579</ele>
        <time>2017-03-05T11:45:32Z</time>
      </trkpt>
      <trkpt lat="44.38756" lon="3.5574">
        <ele>579</ele>
        <time>2017-03-05T11:47:32Z</time>
      </trkpt>
      <trkpt lat="44.38736" lon="3.55713">
        <ele>581</ele>
        <time>2017-03-05T11:49:32Z</time>
      </trkpt>
      <trkpt lat="44.38718" lon="3.55689">
        <ele>580</ele>
        <time>2017-03-05T11:51:32Z</time>
      </trkpt>
      <trkpt lat="44.38715" lon="3.55685">
        <ele>580</ele>
        <time>2017-03-05T11:53:32Z</time>
      </trkpt>
      <trkpt lat="44.38708" lon="3.55677">
        <ele>579</ele>
        <time>2017-03-05T11:55:32Z</time>
      </trkpt>
      <trkpt lat="44.38689" lon="3.55655">
        <ele>578</ele>
        <time>2017-03-05T11:57:32Z</time>
      </trkpt>
      <trkpt lat="44.38678" lon="3.55639">
        <ele>578</ele>
        <time>2017-03-05T11:59:32Z</time>
      </trkpt>
      <trkpt lat="44.38673" lon="3.5563">
        <ele>578</ele>
        <time>2017-03-05T12:01:32Z</time>
      </trkpt>
      <trkpt lat="44.3867" lon="3.55624">
        <ele>579</ele>
        <time>2017-03-05T12:03:32Z</time>
      </trkpt>
      <trkpt lat="44.38667" lon="3.5562">
        <ele>579</ele>
        <time>2017-03-05T12:05:32Z</time>
      </trkpt>
      <trkpt lat="44.38665" lon="3.55617">
        <ele>579</ele>
        <time>2017-03-05T12:07:32Z</time>
      </trkpt>
      <trkpt lat="44.38662" lon="3.55614">
        <ele>579</ele>
        <time>2017-03-05T12:09:32Z</time>
      </trkpt>
      <trkpt lat="44.38653" lon="3.55605">
        <ele>578</ele>
        <time>2017-03-05T12:11:32Z</time>
      </trkpt>
      <trkpt lat="44.38644" lon="3.55596">
        <ele>578</ele>
        <time>2017-03-05T12:13:32Z</time>
      </trkpt>
      <trkpt lat="44.38631" lon="3.5558">
        <ele>576</ele>
        <time>2017-03-05T12:15:32Z</time>
      </trkpt>
      <trkpt lat="44.38627" lon="3.55573">
        <ele>577</ele>
        <time>2017-03-05T12:17:32Z</time>
      </trkpt>
      <trkpt lat="44.38622" lon="3.55568">
        <ele>577</ele>
        <time>2017-03-05T12:19:32Z</time>
      </trkpt>
      <trkpt lat="44.38611" lon="3.55555">
        <ele>577</ele>
        <time>2017-03-05T12:21:32Z</time>
      </trkpt>
      <trkpt lat="44.386" lon="3.55544">
        <ele>577</ele>
        <time>2017-03-05T12:23:32Z</time>
      </trkpt>
      <trkpt lat="44.38595" lon="3.55539">
        <ele>577</ele>
        <time>2017-03-05T12:25:32Z</time>
      </trkpt>
      <trkpt lat="44.38591" lon="3.55536">
        <ele>576</ele>
        <time>2017-03-05T12:27:32Z</time>
      </trkpt>
      <trkpt lat="44.38577" lon="3.55528">
        <ele>575</ele>
        <time>2017-03-05T12:29:32Z</time>
      </trkpt>
      <trkpt lat="44.38566" lon="3.55523">
        <ele>574</ele>
        <time>2017-03-05T12:31:32Z</time>
      </trkpt>
      <trkpt lat="44.38558" lon="3.55521">
        <ele>573</ele>
        <time>2017-03-05T12:33:32Z</time>
      </trkpt>
      <trkpt lat="44.38537" lon="3.55518">
        <ele>570</ele>
        <time>2017-03-05T12:35:32Z</time>
      </trkpt>
      <trkpt lat="44.38526" lon="3.55516">
        <ele>568</ele>
        <time>2017-03-05T12:37:32Z</time>
      </trkpt>
      <trkpt lat="44.38514" lon="3.55514">
        <ele>566</ele>
        <time>2017-03-05T12:39:32Z</time>
      </trkpt>
      <trkpt lat="44.38505" lon="3.55514">
        <ele>564</ele>
        <time>2017-03-05T12:41:32Z</time>
      </trkpt>
      <trkpt lat="44.38497" lon="3.55512">
        <ele>563</ele>
        <time>2017-03-05T12:43:32Z</time>
      </trkpt>
      <trkpt lat="44.38486" lon="3.55511">
        <ele>564</ele>
        <time>2017-03-05T12:45:32Z</time>
      </trkpt>
      <trkpt lat="44.38474" lon="3.55509">
        <ele>564</ele>
        <time>2017-03-05T12:47:32Z</time>
      </trkpt>
      <trkpt lat="44.38467" lon="3.55506">
        <ele>563</ele>
        <time>2017-03-05T12:49:32Z</time>
      </trkpt>
      <trkpt lat="44.38459" lon="3.555">
        <ele>562</ele>
        <time>2017-03-05T12:51:32Z</time>
      </trkpt>
      <trkpt lat="44.3845" lon="3.55491">
        <ele>563</ele>
        <time>2017-03-05T12:53:32Z</time>
      </trkpt>
      <trkpt lat="44.38441" lon="3.5548">
        <ele>564</ele>
        <time>2017-03-05T12:55:32Z</time>
      </trkpt>
      <trkpt lat="44.38429" lon="3.55463">
        <ele>565</ele>
        <time>2017-03-05T12:57:32Z</time>
      </trkpt>
      <trkpt lat="44.38419" lon="3.55449">
        <ele>564</ele>
        <time>2017-03-05T12:59:32Z</time>
      </trkpt>
      <trkpt lat="44.38412" lon="3.5543">
        <ele>565</ele>
        <time>2017-03-05T13:01:32Z</time>
      </trkpt>
      <trkpt lat="44.38409" lon="3.55426">
        <ele>565</ele>
        <time>2017-03-05T13:03:32Z</time>
      </trkpt>
      <trkpt lat="44.38407" lon="3.55423">
        <ele>564</ele>
        <time>2017-03-05T13:05:32Z</time>
      </trkpt>
      <trkpt lat="44.38402" lon="3.5542">
        <ele>564</ele>
        <time>2017-03-05T13:07:32Z</time>
      </trkpt>
      <trkpt lat="44.38383" lon="3.55414">
        <ele>564</ele>
        <time>2017-03-05T13:09:32Z</time>
      </trkpt>
      <trkpt lat="44.38365" lon="3.55411">
        <ele>564</ele>
        <time>2017-03-05T13:11:32Z</time>
      </trkpt>
      <trkpt lat="44.38344" lon="3.55411">
        <ele>563</ele>
        <time>2017-03-05T13:13:32Z</time>
      </trkpt>
      <trkpt lat="44.38339" lon="3.5541">
        <ele>563</ele>
        <time>2017-03-05T13:15:32Z</time>
      </trkpt>
      <trkpt lat="44.38336" lon="3.55408">
        <ele>563</ele>
        <time>2017-03-05T13:17:32Z</time>
      </trkpt>
      <trkpt lat="44.38333" lon="3.55405">
        <ele>564</ele>
        <time>2017-03-05T13:19:32Z</time>
      </trkpt>
      <trkpt lat="44.38331" lon="3.55403">
        <ele>564</ele>
        <time>2017-03-05T13:21:32Z</time>
      </trkpt>
      <trkpt lat="44.38322" lon="3.55402">
        <ele>564</ele>
        <time>2017-03-05T13:23:32Z</time>
      </trkpt>
      <trkpt lat="44.38311" lon="3.55403">
        <ele>562</ele>
        <time>2017-03-05T13:25:32Z</time>
      </trkpt>
      <trkpt lat="44.38303" lon="3.55404">
        <ele>560</ele>
        <time>2017-03-05T13:27:32Z</time>
      </trkpt>
      <trkpt lat="44.38294" lon="3.55402">
        <ele>560</ele>
        <time>2017-03-05T13:29:32Z</time>
      </trkpt>
      <trkpt lat="44.38287" lon="3.55398">
        <ele>560</ele>
        <time>2017-03-05T13:31:32Z</time>
      </trkpt>
      <trkpt lat="44.38277" lon="3.55391">
        <ele>560</ele>
        <time>2017-03-05T13:33:32Z</time>
      </trkpt>
      <trkpt lat="44.38269" lon="3.55384">
        <ele>561</ele>
        <time>2017-03-05T13:35:32Z</time>
      </trkpt>
      <trkpt lat="44.38263" lon="3.55378">
        <ele>561</ele>
        <time>2017-03-05T13:37:32Z</time>
      </trkpt>
      <trkpt lat="44.38256" lon="3.55372">
        <ele>561</ele>
        <time>2017-03-05T13:39:32Z</time>
      </trkpt>
      <trkpt lat="44.38238" lon="3.55358">
        <ele>562</ele>
        <time>2017-03-05T13:41:32Z</time>
      </trkpt>
      <trkpt lat="44.3823" lon="3.55352">
        <ele>562</ele>
        <time>2017-03-05T13:43:32Z</time>
      </trkpt>
      <trkpt lat="44.38226" lon="3.55346">
        <ele>562</ele>
        <time>2017-03-05T13:45:32Z</time>
      </trkpt>
      <trkpt lat="44.38222" lon="3.55341">
        <ele>561</ele>
        <time>2017-03-05T13:47:32Z</time>
      </trkpt>
      <trkpt lat="44.38215" lon="3.55331">
        <ele>561</ele>
        <time>2017-03-05T13:49:32Z</time>
      </trkpt>
      <trkpt lat="44.38204" lon="3.55316">
        <ele>562</ele>
        <time>2017-03-05T13:51:32Z</time>
      </trkpt>
      <trkpt lat="44.38192" lon="3.553">
        <ele>563</ele>
        <time>2017-03-05T13:53:32Z</time>
      </trkpt>
      <trkpt lat="44.38179" lon="3.55286">
        <ele>561</ele>
        <time>2017-03-05T13:55:32Z</time>
      </trkpt>
      <trkpt lat="44.3817" lon="3.55279">
        <ele>559</ele>
        <time>2017-03-05T13:57:32Z</time>
      </trkpt>
      <trkpt lat="44.3816" lon="3.55271">
        <ele>559</ele>
        <time>2017-03-05T13:59:32Z</time>
      </trkpt>
      <trkpt lat="44.38151" lon="3.55261">
        <ele>558</ele>
        <time>2017-03-05T14:01:32Z</time>
      </trkpt>
      <trkpt lat="44.38144" lon="3.55254">
        <ele>558</ele>
        <time>2017-03-05T14:03:32Z</time>
      </trkpt>
      <trkpt lat="44.38136" lon="3.55247">
        <ele>557</ele>
        <time>2017-03-05T14:05:32Z</time>
      </trkpt>
      <trkpt lat="44.38127" lon="3.55242">
        <ele>556</ele>
        <time>2017-03-05T14:07:32Z</time>
      </trkpt>
      <trkpt lat="44.38116" lon="3.55231">
        <ele>556</ele>
        <time>2017-03-05T14:09:32Z</time>
      </trkpt>
      <trkpt lat="44.38105" lon="3.55222">
        <ele>556</ele>
        <time>2017-03-05T14:11:32Z</time>
      </trkpt>
      <trkpt lat="44.38094" lon="3.55218">
        <ele>553</ele>
        <time>2017-03-05T14:13:32Z</time>
      </trkpt>
      <trkpt lat="44.38066" lon="3.55212">
        <ele>551</ele>
        <time>2017-03-05T14:15:32Z</time>
      </trkpt>
      <trkpt lat="44.38044" lon="3.55211">
        <ele>551</ele>
        <time>2017-03-05T14:17:32Z</time>
      </trkpt>
      <trkpt lat="44.38032" lon="3.55208">
        <ele>551</ele>
        <time>2017-03-05T14:19:32Z</time>
      </trkpt>
      <trkpt lat="44.38023" lon="3.55204">
        <ele>550</ele>
        <time>2017-03-05T14:21:32Z</time>
      </trkpt>
      <trkpt lat="44.38015" lon="3.55199">
        <ele>549</ele>
        <time>2017-03-05T14:23:32Z</time>
      </trkpt>
      <trkpt lat="44.38008" lon="3.5519">
        <ele>547</ele>
        <time>2017-03-05T14:25:32Z</time>
      </trkpt>
      <trkpt lat="44.37997" lon="3.55172">
        <ele>542</ele>
        <time>2017-03-05T14:27:32Z</time>
      </trkpt>
      <trkpt lat="44.37985" lon="3.5515">
        <ele>543</ele>
        <time>2017-03-05T14:29:32Z</time>
      </trkpt>
      <trkpt lat="44.37976" lon="3.55134">
        <ele>544</ele>
        <time>2017-03-05T14:31:32Z</time>
      </trkpt>
      <trkpt lat="44.3797" lon="3.55122">
        <ele>544</ele>
        <time>2017-03-05T14:33:32Z</time>
      </trkpt>
      <trkpt lat="44.37965" lon="3.55111">
        <ele>543</ele>
        <time>2017-03-05T14:35:32Z</time>
      </trkpt>
      <trkpt lat="44.3796" lon="3.55099">
        <ele>542</ele>
        <time>2017-03-05T14:37:32Z</time>
      </trkpt>
      <trkpt lat="44.37951" lon="3.55086">
        <ele>540</ele>
        <time>2017-03-05T14:39:32Z</time>
      </trkpt>
      <trkpt lat="44.37938" lon="3.55071">
        <ele>540</ele>
        <time>2017-03-05T14:41:32Z</time>
      </trkpt>
      <trkpt lat="44.37925" lon="3.55063">
        <ele>540</ele>
        <time>2017-03-05T14:43:32Z</time>
      </trkpt>
      <trkpt lat="44.37909" lon="3.55058">
        <ele>539</ele>
        <time>2017-03-05T14:45:32Z</time>
      </trkpt>
      <trkpt lat="44.37895" lon="3.55055">
        <ele>538</ele>
        <time>2017-03-05T14:47:32Z</time>
      </trkpt>
      <trkpt lat="44.37883" lon="3.55054">
        <ele>537</ele>
        <time>2017-03-05T14:49:32Z</time>
      </trkpt>
      <trkpt lat="44.37869" lon="3.55056">
        <ele>536</ele>
        <time>2017-03-05T14:51:32Z</time>
      </trkpt>
      <trkpt lat="44.37852" lon="3.5506">
        <ele>534</ele>
        <time>2017-03-05T14:53:32Z</time>
      </trkpt>
      <trkpt lat="44.3784" lon="3.55062">
        <ele>532</ele>
        <time>2017-03-05T14:55:32Z</time>
      </trkpt>
      <trkpt lat="44.37837" lon="3.55062">
        <ele>532</ele>
        <time>2017-03-05T14:57:32Z</time>
      </trkpt>
      <trkpt lat="44.3783" lon="3.55059">
        <ele>532</ele>
        <time>2017-03-05T14:59:32Z</time>
      </trkpt>
      <trkpt lat="44.37826" lon="3.55055">
        <ele>532</ele>
        <time>2017-03-05T15:01:32Z</time>
      </trkpt>
      <trkpt lat="44.37815" lon="3.55042">
        <ele>532</ele>
        <time>2017-03-05T15:03:32Z</time>
      </trkpt>
      <trkpt lat="44.37807" lon="3.55035">
        <ele>531</ele>
        <time>2017-03-05T15:05:32Z</time>
      </trkpt>
      <trkpt lat="44.37801" lon="3.55031">
        <ele>530</ele>
        <time>2017-03-05T15:07:32Z</time>
      </trkpt>
      <trkpt lat="44.37797" lon="3.55029">
        <ele>530</ele>
        <time>2017-03-05T15:09:32Z</time>
      </trkpt>
      <trkpt lat="44.37789" lon="3.55027">
        <ele>529</ele>
        <time>2017-03-05T15:11:32Z</time>
      </trkpt>
      <trkpt lat="44.37785" lon="3.55026">
        <ele>528</ele>
        <time>2017-03-05T15:13:32Z</time>
      </trkpt>
      <trkpt lat="44.37779" lon="3.55024">
        <ele>527</ele>
        <time>2017-03-05T15:15:32Z</time>
      </trkpt>
      <trkpt lat="44.37767" lon="3.55018">
        <ele>525</ele>
        <time>2017-03-05T15:17:32Z</time>
      </trkpt>
      <trkpt lat="44.37762" lon="3.55013">
        <ele>523</ele>
        <time>2017-03-05T15:19:32Z</time>
      </trkpt>
      <trkpt lat="44.37757" lon="3.55005">
        <ele>521</ele>
        <time>2017-03-05T15:21:32Z</time>
      </trkpt>
      <trkpt lat="44.37752" lon="3.54994">
        <ele>520</ele>
        <time>2017-03-05T15:23:32Z</time>
      </trkpt>
      <trkpt lat="44.37746" lon="3.54983">
        <ele>520</ele>
        <time>2017-03-05T15:25:32Z</time>
      </trkpt>
      <trkpt lat="44.37741" lon="3.54975">
        <ele>520</ele>
        <time>2017-03-05T15:27:32Z</time>
      </trkpt>
      <trkpt lat="44.37734" lon="3.54963">
        <ele>519</ele>
        <time>2017-03-05T15:29:32Z</time>
      </trkpt>
      <trkpt lat="44.37729" lon="3.54955">
        <ele>519</ele>
        <time>2017-03-05T15:31:32Z</time>
      </trkpt>
      <trkpt lat="44.37729" lon="3.54955">
        <ele>519</ele>
        <time>2017-03-05T15:33:32Z</time>
      </trkpt>
      <trkpt lat="44.3773" lon="3.54952">
        <ele>519</ele>
        <time>2017-03-05T15:35:32Z</time>
      </trkpt>
      <trkpt lat="44.37731" lon="3.54945">
        <ele>520</ele>
        <time>2017-03-05T15:37:32Z</time>
      </trkpt>
      <trkpt lat="44.37731" lon="3.54944">
        <ele>520</ele>
        <time>2017-03-05T15:39:32Z</time>
      </trkpt>
      <trkpt lat="44.37731" lon="3.54944">
        <ele>520</ele>
        <time>2017-03-05T15:41:32Z</time>
      </trkpt>
      <trkpt lat="44.37718" lon="3.54934">
        <ele>518</ele>
        <time>2017-03-05T15:43:32Z</time>
      </trkpt>
      <trkpt lat="44.37715" lon="3.5493">
        <ele>518</ele>
        <time>2017-03-05T15:45:32Z</time>
      </trkpt>
      <trkpt lat="44.37714" lon="3.54928">
        <ele>518</ele>
        <time>2017-03-05T15:47:32Z</time>
      </trkpt>
      <trkpt lat="44.37714" lon="3.54925">
        <ele>518</ele>
        <time>2017-03-05T15:49:32Z</time>
      </trkpt>
      <trkpt lat="44.37714" lon="3.5492">
        <ele>518</ele>
        <time>2017-03-05T15:51:32Z</time>
      </trkpt>
      <trkpt lat="44.37712" lon="3.54909">
        <ele>518</ele>
        <time>2017-03-05T15:53:32Z</time>
      </trkpt>
      <trkpt lat="44.37701" lon="3.54864">
        <ele>517</ele>
        <time>2017-03-05T15:55:32Z</time>
      </trkpt>
      <trkpt lat="44.37693" lon="3.54828">
        <ele>516</ele>
        <time>2017-03-05T15:57:32Z</time>
      </trkpt>
      <trkpt lat="44.37688" lon="3.54811">
        <ele>516</ele>
        <time>2017-03-05T15:59:32Z</time>
      </trkpt>
      <trkpt lat="44.37683" lon="3.5479">
        <ele>515</ele>
        <time>2017-03-05T16:01:32Z</time>
      </trkpt>
      <trkpt lat="44.37675" lon="3.54755">
        <ele>515</ele>
        <time>2017-03-05T16:03:32Z</time>
      </trkpt>
      <trkpt lat="44.37668" lon="3.54722">
        <ele>515</ele>
        <time>2017-03-05T16:05:32Z</time>
      </trkpt>
      <trkpt lat="44.37665" lon="3.54713">
        <ele>515</ele>
        <time>2017-03-05T16:07:32Z</time>
      </trkpt>
      <trkpt lat="44.3766" lon="3.54699">
        <ele>515</ele>
        <time>2017-03-05T16:09:32Z</time>
      </trkpt>
      <trkpt lat="44.37648" lon="3.54668">
        <ele>515</ele>
        <time>2017-03-05T16:11:32Z</time>
      </trkpt>
      <trkpt lat="44.37635" lon="3.54637">
        <ele>514</ele>
        <time>2017-03-05T16:13:32Z</time>
      </trkpt>
      <trkpt lat="44.37621" lon="3.54605">
        <ele>513</ele>
        <time>2017-03-05T16:15:32Z</time>
      </trkpt>
      <trkpt lat="44.37613" lon="3.54589">
        <ele>513</ele>
        <time>2017-03-05T16:17:32Z</time>
      </trkpt>
      <trkpt lat="44.37608" lon="3.54578">
        <ele>513</ele>
        <time>2017-03-05T16:19:32Z</time>
      </trkpt>
      <trkpt lat="44.37598" lon="3.54554">
        <ele>513</ele>
        <time>2017-03-05T16:21:32Z</time>
      </trkpt>
      <trkpt lat="44.37585" lon="3.54526">
        <ele>513</ele>
        <time>2017-03-05T16:23:32Z</time>
      </trkpt>
      <trkpt lat="44.37571" lon="3.5449">
        <ele>514</ele>
        <time>2017-03-05T16:25:32Z</time>
      </trkpt>
      <trkpt lat="44.37557" lon="3.54458">
        <ele>514</ele>
        <time>2017-03-05T16:27:32Z</time>
      </trkpt>
      <trkpt lat="44.3754" lon="3.54416">
        <ele>513</ele>
        <time>2017-03-05T16:29:32Z</time>
      </trkpt>
      <trkpt lat="44.37527" lon="3.54387">
        <ele>513</ele>
        <time>2017-03-05T16:31:32Z</time>
      </trkpt>
      <trkpt lat="44.37514" lon="3.54357">
        <ele>512</ele>
        <time>2017-03-05T16:33:32Z</time>
      </trkpt>
      <trkpt lat="44.37503" lon="3.54332">
        <ele>511</ele>
        <time>2017-03-05T16:35:32Z</time>
      </trkpt>
      <trkpt lat="44.37495" lon="3.54311">
        <ele>514</ele>
        <time>2017-03-05T16:37:32Z</time>
      </trkpt>
      <trkpt lat="44.37485" lon="3.54287">
        <ele>517</ele>
        <time>2017-03-05T16:39:32Z</time>
      </trkpt>
      <trkpt lat="44.37466" lon="3.54251">
        <ele>518</ele>
        <time>2017-03-05T16:41:32Z</time>
      </trkpt>
      <trkpt lat="44.37446" lon="3.54218">
        <ele>522</ele>
        <time>2017-03-05T16:43:32Z</time>
      </trkpt>
      <trkpt lat="44.37429" lon="3.54192">
        <ele>521</ele>
        <time>2017-03-05T16:45:32Z</time>
      </trkpt>
      <trkpt lat="44.37415" lon="3.54173">
        <ele>519</ele>
        <time>2017-03-05T16:47:32Z</time>
      </trkpt>
      <trkpt lat="44.37403" lon="3.54159">
        <ele>521</ele>
        <time>2017-03-05T16:49:32Z</time>
      </trkpt>
      <trkpt lat="44.37394" lon="3.54148">
        <ele>524</ele>
        <time>2017-03-05T16:51:32Z</time>
      </trkpt>
      <trkpt lat="44.37384" lon="3.54136">
        <ele>526</ele>
        <time>2017-03-05T16:53:32Z</time>
      </trkpt>
      <trkpt lat="44.37376" lon="3.54125">
        <ele>527</ele>
        <time>2017-03-05T16:55:32Z</time>
      </trkpt>
      <trkpt lat="44.37367" lon="3.54113">
        <ele>528</ele>
        <time>2017-03-05T16:57:32Z</time>
      </trkpt>
      <trkpt lat="44.3736" lon="3.54104">
        <ele>528</ele>
        <time>2017-03-05T16:59:32Z</time>
      </trkpt>
      <trkpt lat="44.37353" lon="3.54097">
        <ele>528</ele>
        <time>2017-03-05T17:01:32Z</time>
      </trkpt>
      <trkpt lat="44.37348" lon="3.54093">
        <ele>527</ele>
        <time>2017-03-05T17:03:32Z</time>
      </trkpt>
      <trkpt lat="44.37346" lon="3.54091">
        <ele>527</ele>
        <time>2017-03-05T17:05:32Z</time>
      </trkpt>
      <trkpt lat="44.37345" lon="3.54088">
        <ele>527</ele>
        <time>2017-03-05T17:07:32Z</time>
      </trkpt>
      <trkpt lat="44.37344" lon="3.54085">
        <ele>527</ele>
        <time>2017-03-05T17:09:32Z</time>
      </trkpt>
      <trkpt lat="44.37343" lon="3.54079">
        <ele>529</ele>
        <time>2017-03-05T17:11:32Z</time>
      </trkpt>
      <trkpt lat="44.37343" lon="3.54079">
        <ele>529</ele>
        <time>2017-03-05T17:13:32Z</time>
      </trkpt>
      <trkpt lat="44.37324" lon="3.54065">
        <ele>530</ele>
        <time>2017-03-05T17:15:32Z</time>
      </trkpt>
      <trkpt lat="44.37284" lon="3.54034">
        <ele>532</ele>
        <time>2017-03-05T17:17:32Z</time>
      </trkpt>
      <trkpt lat="44.37249" lon="3.54007">
        <ele>528</ele>
        <time>2017-03-05T17:19:32Z</time>
      </trkpt>
      <trkpt lat="44.3722" lon="3.53985">
        <ele>529</ele>
        <time>2017-03-05T17:21:32Z</time>
      </trkpt>
      <trkpt lat="44.37199" lon="3.53971">
        <ele>529</ele>
        <time>2017-03-05T17:23:32Z</time>
      </trkpt>
      <trkpt lat="44.37173" lon="3.53958">
        <ele>527</ele>
        <time>2017-03-05T17:25:32Z</time>
      </trkpt>
      <trkpt lat="44.37163" lon="3.53953">
        <ele>526</ele>
        <time>2017-03-05T17:27:32Z</time>
      </trkpt>
      <trkpt lat="44.37136" lon="3.5394">
        <ele>526</ele>
        <time>2017-03-05T17:29:32Z</time>
      </trkpt>
      <trkpt lat="44.37108" lon="3.53925">
        <ele>525</ele>
        <time>2017-03-05T17:31:32Z</time>
      </trkpt>
      <trkpt lat="44.37098" lon="3.53918">
        <ele>525</ele>
        <time>2017-03-05T17:33:32Z</time>
      </trkpt>
      <trkpt lat="44.37091" lon="3.5391">
        <ele>525</ele>
        <time>2017-03-05T17:35:32Z</time>
      </trkpt>
      <trkpt lat="44.37086" lon="3.53901">
        <ele>525</ele>
        <time>2017-03-05T17:37:32Z</time>
      </trkpt>
      <trkpt lat="44.37082" lon="3.5389">
        <ele>525</ele>
        <time>2017-03-05T17:39:32Z</time>
      </trkpt>
      <trkpt lat="44.37079" lon="3.53882">
        <ele>526</ele>
        <time>2017-03-05T17:41:32Z</time>
      </trkpt>
      <trkpt lat="44.37074" lon="3.53863">
        <ele>527</ele>
        <time>2017-03-05T17:43:32Z</time>
      </trkpt>
      <trkpt lat="44.37073" lon="3.53859">
        <ele>527</ele>
        <time>2017-03-05T17:45:32Z</time>
      </trkpt>
      <trkpt lat="44.37066" lon="3.5384">
        <ele>528</ele>
        <time>2017-03-05T17:47:32Z</time>
      </trkpt>
      <trkpt lat="44.37064" lon="3.53834">
        <ele>529</ele>
        <time>2017-03-05T17:49:32Z</time>
      </trkpt>
      <trkpt lat="44.3706" lon="3.53824">
        <ele>528</ele>
        <time>2017-03-05T17:51:32Z</time>
      </trkpt>
      <trkpt lat="44.37053" lon="3.53811">
        <ele>528</ele>
        <time>2017-03-05T17:53:32Z</time>
      </trkpt>
      <trkpt lat="44.37046" lon="3.53801">
        <ele>527</ele>
        <time>2017-03-05T17:55:32Z</time>
      </trkpt>
      <trkpt lat="44.37036" lon="3.5379">
        <ele>527</ele>
        <time>2017-03-05T17:57:32Z</time>
      </trkpt>
      <trkpt lat="44.3703" lon="3.53779">
        <ele>527</ele>
        <time>2017-03-05T17:59:32Z</time>
      </trkpt>
      <trkpt lat="44.37028" lon="3.53775">
        <ele>527</ele>
        <time>2017-03-05T18:01:32Z</time>
      </trkpt>
      <trkpt lat="44.37027" lon="3.53772">
        <ele>527</ele>
        <time>2017-03-05T18:03:32Z</time>
      </trkpt>
      <trkpt lat="44.37026" lon="3.53764">
        <ele>527</ele>
        <time>2017-03-05T18:05:32Z</time>
      </trkpt>
      <trkpt lat="44.37026" lon="3.5376">
        <ele>527</ele>
        <time>2017-03-05T18:07:32Z</time>
      </trkpt>
      <trkpt lat="44.37026" lon="3.53756">
        <ele>527</ele>
        <time>2017-03-05T18:09:32Z</time>
      </trkpt>
      <trkpt lat="44.37028" lon="3.5375">
        <ele>527</ele>
        <time>2017-03-05T18:11:32Z</time>
      </trkpt>
      <trkpt lat="44.37032" lon="3.53737">
        <ele>527</ele>
        <time>2017-03-05T18:13:32Z</time>
      </trkpt>
      <trkpt lat="44.37036" lon="3.53723">
        <ele>527</ele>
        <time>2017-03-05T18:15:32Z</time>
      </trkpt>
    </trkseg>
  </trk>
  <trk>
    <name><![CDATA[causwatts 05 ispagnac-prades]]></name>
    <trkseg>
      <trkpt lat="44.3705" lon="3.53662">
        <ele>526</ele>
        <time>2017-02-27T18:07:51Z</time>
      </trkpt>
      <trkpt lat="44.37045" lon="3.53685">
        <ele>526</ele>
        <time>2017-02-27T18:09:51Z</time>
      </trkpt>
      <trkpt lat="44.3704" lon="3.5371">
        <ele>527</ele>
        <time>2017-02-27T18:11:51Z</time>
      </trkpt>
      <trkpt lat="44.3704" lon="3.5371">
        <ele>527</ele>
        <time>2017-02-27T18:13:51Z</time>
      </trkpt>
      <trkpt lat="44.37046" lon="3.53713">
        <ele>527</ele>
        <time>2017-02-27T18:15:51Z</time>
      </trkpt>
      <trkpt lat="44.37057" lon="3.53721">
        <ele>527</ele>
        <time>2017-02-27T18:17:51Z</time>
      </trkpt>
      <trkpt lat="44.3706" lon="3.53722">
        <ele>527</ele>
        <time>2017-02-27T18:19:51Z</time>
      </trkpt>
      <trkpt lat="44.37062" lon="3.53721">
        <ele>527</ele>
        <time>2017-02-27T18:21:51Z</time>
      </trkpt>
      <trkpt lat="44.37064" lon="3.53717">
        <ele>527</ele>
        <time>2017-02-27T18:23:51Z</time>
      </trkpt>
      <trkpt lat="44.37069" lon="3.53709">
        <ele>527</ele>
        <time>2017-02-27T18:25:51Z</time>
      </trkpt>
      <trkpt lat="44.37081" lon="3.53692">
        <ele>526</ele>
        <time>2017-02-27T18:27:51Z</time>
      </trkpt>
      <trkpt lat="44.37097" lon="3.53674">
        <ele>526</ele>
        <time>2017-02-27T18:29:51Z</time>
      </trkpt>
      <trkpt lat="44.37113" lon="3.53653">
        <ele>526</ele>
        <time>2017-02-27T18:31:51Z</time>
      </trkpt>
      <trkpt lat="44.37125" lon="3.53637">
        <ele>525</ele>
        <time>2017-02-27T18:33:51Z</time>
      </trkpt>
      <trkpt lat="44.37138" lon="3.53617">
        <ele>525</ele>
        <time>2017-02-27T18:35:51Z</time>
      </trkpt>
      <trkpt lat="44.37145" lon="3.53606">
        <ele>525</ele>
        <time>2017-02-27T18:37:51Z</time>
      </trkpt>
      <trkpt lat="44.37149" lon="3.536">
        <ele>525</ele>
        <time>2017-02-27T18:39:51Z</time>
      </trkpt>
      <trkpt lat="44.37149" lon="3.536">
        <ele>525</ele>
        <time>2017-02-27T18:41:51Z</time>
      </trkpt>
      <trkpt lat="44.37152" lon="3.53594">
        <ele>524</ele>
        <time>2017-02-27T18:43:51Z</time>
      </trkpt>
      <trkpt lat="44.37164" lon="3.5358">
        <ele>524</ele>
        <time>2017-02-27T18:45:51Z</time>
      </trkpt>
      <trkpt lat="44.37177" lon="3.5357">
        <ele>524</ele>
        <time>2017-02-27T18:47:51Z</time>
      </trkpt>
      <trkpt lat="44.3719" lon="3.53561">
        <ele>525</ele>
        <time>2017-02-27T18:49:51Z</time>
      </trkpt>
      <trkpt lat="44.37212" lon="3.53544">
        <ele>525</ele>
        <time>2017-02-27T18:51:51Z</time>
      </trkpt>
      <trkpt lat="44.37228" lon="3.53532">
        <ele>525</ele>
        <time>2017-02-27T18:53:51Z</time>
      </trkpt>
      <trkpt lat="44.37238" lon="3.53525">
        <ele>526</ele>
        <time>2017-02-27T18:55:51Z</time>
      </trkpt>
      <trkpt lat="44.37248" lon="3.53514">
        <ele>525</ele>
        <time>2017-02-27T18:57:51Z</time>
      </trkpt>
      <trkpt lat="44.37259" lon="3.53501">
        <ele>525</ele>
        <time>2017-02-27T18:59:51Z</time>
      </trkpt>
      <trkpt lat="44.37262" lon="3.53496">
        <ele>525</ele>
        <time>2017-02-27T19:01:51Z</time>
      </trkpt>
      <trkpt lat="44.37273" lon="3.53481">
        <ele>526</ele>
        <time>2017-02-27T19:03:51Z</time>
      </trkpt>
      <trkpt lat="44.37278" lon="3.53474">
        <ele>526</ele>
        <time>2017-02-27T19:05:51Z</time>
      </trkpt>
      <trkpt lat="44.37295" lon="3.53455">
        <ele>526</ele>
        <time>2017-02-27T19:07:51Z</time>
      </trkpt>
      <trkpt lat="44.3731" lon="3.53439">
        <ele>526</ele>
        <time>2017-02-27T19:09:51Z</time>
      </trkpt>
      <trkpt lat="44.37321" lon="3.53427">
        <ele>526</ele>
        <time>2017-02-27T19:11:51Z</time>
      </trkpt>
      <trkpt lat="44.37332" lon="3.53414">
        <ele>526</ele>
        <time>2017-02-27T19:13:51Z</time>
      </trkpt>
      <trkpt lat="44.37344" lon="3.53406">
        <ele>527</ele>
        <time>2017-02-27T19:15:51Z</time>
      </trkpt>
      <trkpt lat="44.37351" lon="3.53404">
        <ele>527</ele>
        <time>2017-02-27T19:17:51Z</time>
      </trkpt>
      <trkpt lat="44.37351" lon="3.53404">
        <ele>527</ele>
        <time>2017-02-27T19:19:51Z</time>
      </trkpt>
      <trkpt lat="44.37352" lon="3.53403">
        <ele>527</ele>
        <time>2017-02-27T19:21:51Z</time>
      </trkpt>
      <trkpt lat="44.37375" lon="3.53404">
        <ele>530</ele>
        <time>2017-02-27T19:23:51Z</time>
      </trkpt>
      <trkpt lat="44.37385" lon="3.53405">
        <ele>531</ele>
        <time>2017-02-27T19:25:51Z</time>
      </trkpt>
      <trkpt lat="44.37391" lon="3.53403">
        <ele>531</ele>
        <time>2017-02-27T19:27:51Z</time>
      </trkpt>
      <trkpt lat="44.37399" lon="3.53396">
        <ele>532</ele>
        <time>2017-02-27T19:29:51Z</time>
      </trkpt>
      <trkpt lat="44.37406" lon="3.53388">
        <ele>532</ele>
        <time>2017-02-27T19:31:51Z</time>
      </trkpt>
      <trkpt lat="44.37413" lon="3.53376">
        <ele>532</ele>
        <time>2017-02-27T19:33:51Z</time>
      </trkpt>
      <trkpt lat="44.37424" lon="3.53357">
        <ele>533</ele>
        <time>2017-02-27T19:35:51Z</time>
      </trkpt>
      <trkpt lat="44.37427" lon="3.53352">
        <ele>533</ele>
        <time>2017-02-27T19:37:51Z</time>
      </trkpt>
      <trkpt lat="44.37436" lon="3.53334">
        <ele>534</ele>
        <time>2017-02-27T19:39:51Z</time>
      </trkpt>
      <trkpt lat="44.37442" lon="3.53321">
        <ele>533</ele>
        <time>2017-02-27T19:41:51Z</time>
      </trkpt>
      <trkpt lat="44.37451" lon="3.5331">
        <ele>534</ele>
        <time>2017-02-27T19:43:51Z</time>
      </trkpt>
      <trkpt lat="44.37461" lon="3.533">
        <ele>534</ele>
        <time>2017-02-27T19:45:51Z</time>
      </trkpt>
      <trkpt lat="44.37483" lon="3.53284">
        <ele>536</ele>
        <time>2017-02-27T19:47:51Z</time>
      </trkpt>
      <trkpt lat="44.37502" lon="3.53271">
        <ele>537</ele>
        <time>2017-02-27T19:49:51Z</time>
      </trkpt>
      <trkpt lat="44.37511" lon="3.53264">
        <ele>538</ele>
        <time>2017-02-27T19:51:51Z</time>
      </trkpt>
      <trkpt lat="44.37526" lon="3.53255">
        <ele>540</ele>
        <time>2017-02-27T19:53:51Z</time>
      </trkpt>
      <trkpt lat="44.37538" lon="3.5325">
        <ele>542</ele>
        <time>2017-02-27T19:55:51Z</time>
      </trkpt>
      <trkpt lat="44.37549" lon="3.53248">
        <ele>544</ele>
        <time>2017-02-27T19:57:51Z</time>
      </trkpt>
      <trkpt lat="44.37563" lon="3.53245">
        <ele>547</ele>
        <time>2017-02-27T19:59:51Z</time>
      </trkpt>
      <trkpt lat="44.37579" lon="3.53236">
        <ele>549</ele>
        <time>2017-02-27T20:01:51Z</time>
      </trkpt>
      <trkpt lat="44.37614" lon="3.53211">
        <ele>551</ele>
        <time>2017-02-27T20:03:51Z</time>
      </trkpt>
      <trkpt lat="44.37646" lon="3.53188">
        <ele>553</ele>
        <time>2017-02-27T20:05:51Z</time>
      </trkpt>
      <trkpt lat="44.37677" lon="3.53165">
        <ele>555</ele>
        <time>2017-02-27T20:07:51Z</time>
      </trkpt>
      <trkpt lat="44.37688" lon="3.53158">
        <ele>558</ele>
        <time>2017-02-27T20:09:51Z</time>
      </trkpt>
      <trkpt lat="44.37693" lon="3.53152">
        <ele>560</ele>
        <time>2017-02-27T20:11:51Z</time>
      </trkpt>
      <trkpt lat="44.37699" lon="3.53143">
        <ele>561</ele>
        <time>2017-02-27T20:13:51Z</time>
      </trkpt>
      <trkpt lat="44.37702" lon="3.53132">
        <ele>561</ele>
        <time>2017-02-27T20:15:51Z</time>
      </trkpt>
      <trkpt lat="44.37708" lon="3.53106">
        <ele>561</ele>
        <time>2017-02-27T20:17:51Z</time>
      </trkpt>
      <trkpt lat="44.3771" lon="3.53083">
        <ele>561</ele>
        <time>2017-02-27T20:19:51Z</time>
      </trkpt>
      <trkpt lat="44.3771" lon="3.53065">
        <ele>559</ele>
        <time>2017-02-27T20:21:51Z</time>
      </trkpt>
      <trkpt lat="44.3771" lon="3.53056">
        <ele>559</ele>
        <time>2017-02-27T20:23:51Z</time>
      </trkpt>
      <trkpt lat="44.37714" lon="3.53044">
        <ele>559</ele>
        <time>2017-02-27T20:25:51Z</time>
      </trkpt>
      <trkpt lat="44.37717" lon="3.53035">
        <ele>560</ele>
        <time>2017-02-27T20:27:51Z</time>
      </trkpt>
      <trkpt lat="44.37722" lon="3.53024">
        <ele>561</ele>
        <time>2017-02-27T20:29:51Z</time>
      </trkpt>
      <trkpt lat="44.37724" lon="3.53017">
        <ele>561</ele>
        <time>2017-02-27T20:31:51Z</time>
      </trkpt>
      <trkpt lat="44.37726" lon="3.53007">
        <ele>561</ele>
        <time>2017-02-27T20:33:51Z</time>
      </trkpt>
      <trkpt lat="44.37726" lon="3.53004">
        <ele>560</ele>
        <time>2017-02-27T20:35:51Z</time>
      </trkpt>
      <trkpt lat="44.37728" lon="3.52993">
        <ele>560</ele>
        <time>2017-02-27T20:37:51Z</time>
      </trkpt>
      <trkpt lat="44.37731" lon="3.52983">
        <ele>561</ele>
        <time>2017-02-27T20:39:51Z</time>
      </trkpt>
      <trkpt lat="44.37746" lon="3.52955">
        <ele>563</ele>
        <time>2017-02-27T20:41:51Z</time>
      </trkpt>
      <trkpt lat="44.37765" lon="3.52922">
        <ele>565</ele>
        <time>2017-02-27T20:43:51Z</time>
      </trkpt>
      <trkpt lat="44.37773" lon="3.5291">
        <ele>565</ele>
        <time>2017-02-27T20:45:51Z</time>
      </trkpt>
      <trkpt lat="44.37784" lon="3.52901">
        <ele>567</ele>
        <time>2017-02-27T20:47:51Z</time>
      </trkpt>
      <trkpt lat="44.37795" lon="3.52895">
        <ele>569</ele>
        <time>2017-02-27T20:49:51Z</time>
      </trkpt>
      <trkpt lat="44.37808" lon="3.52892">
        <ele>571</ele>
        <time>2017-02-27T20:51:51Z</time>
      </trkpt>
      <trkpt lat="44.37819" lon="3.52891">
        <ele>574</ele>
        <time>2017-02-27T20:53:51Z</time>
      </trkpt>
      <trkpt lat="44.37828" lon="3.52887">
        <ele>575</ele>
        <time>2017-02-27T20:55:51Z</time>
      </trkpt>
      <trkpt lat="44.37833" lon="3.52881">
        <ele>576</ele>
        <time>2017-02-27T20:57:51Z</time>
      </trkpt>
      <trkpt lat="44.37838" lon="3.52871">
        <ele>577</ele>
        <time>2017-02-27T20:59:51Z</time>
      </trkpt>
      <trkpt lat="44.3785" lon="3.52838">
        <ele>578</ele>
        <time>2017-02-27T21:01:51Z</time>
      </trkpt>
      <trkpt lat="44.37854" lon="3.52826">
        <ele>577</ele>
        <time>2017-02-27T21:03:51Z</time>
      </trkpt>
      <trkpt lat="44.37859" lon="3.52818">
        <ele>577</ele>
        <time>2017-02-27T21:05:51Z</time>
      </trkpt>
      <trkpt lat="44.37869" lon="3.52807">
        <ele>578</ele>
        <time>2017-02-27T21:07:51Z</time>
      </trkpt>
      <trkpt lat="44.37883" lon="3.52795">
        <ele>580</ele>
        <time>2017-02-27T21:09:51Z</time>
      </trkpt>
      <trkpt lat="44.37908" lon="3.52778">
        <ele>583</ele>
        <time>2017-02-27T21:11:51Z</time>
      </trkpt>
      <trkpt lat="44.3793" lon="3.52763">
        <ele>586</ele>
        <time>2017-02-27T21:13:51Z</time>
      </trkpt>
      <trkpt lat="44.37946" lon="3.52759">
        <ele>589</ele>
        <time>2017-02-27T21:15:51Z</time>
      </trkpt>
      <trkpt lat="44.37967" lon="3.52753">
        <ele>592</ele>
        <time>2017-02-27T21:17:51Z</time>
      </trkpt>
      <trkpt lat="44.37977" lon="3.52749">
        <ele>593</ele>
        <time>2017-02-27T21:19:51Z</time>
      </trkpt>
      <trkpt lat="44.37981" lon="3.52746">
        <ele>594</ele>
        <time>2017-02-27T21:21:51Z</time>
      </trkpt>
      <trkpt lat="44.37985" lon="3.52744">
        <ele>594</ele>
        <time>2017-02-27T21:23:51Z</time>
      </trkpt>
      <trkpt lat="44.37992" lon="3.52733">
        <ele>595</ele>
        <time>2017-02-27T21:25:51Z</time>
      </trkpt>
      <trkpt lat="44.37996" lon="3.52723">
        <ele>594</ele>
        <time>2017-02-27T21:27:51Z</time>
      </trkpt>
      <trkpt lat="44.37996" lon="3.52712">
        <ele>593</ele>
        <time>2017-02-27T21:29:51Z</time>
      </trkpt>
      <trkpt lat="44.37996" lon="3.52705">
        <ele>592</ele>
        <time>2017-02-27T21:31:51Z</time>
      </trkpt>
      <trkpt lat="44.37995" lon="3.52692">
        <ele>591</ele>
        <time>2017-02-27T21:33:51Z</time>
      </trkpt>
      <trkpt lat="44.37997" lon="3.52678">
        <ele>590</ele>
        <time>2017-02-27T21:35:51Z</time>
      </trkpt>
      <trkpt lat="44.38003" lon="3.52657">
        <ele>589</ele>
        <time>2017-02-27T21:37:51Z</time>
      </trkpt>
      <trkpt lat="44.38013" lon="3.52626">
        <ele>589</ele>
        <time>2017-02-27T21:39:51Z</time>
      </trkpt>
      <trkpt lat="44.38022" lon="3.52602">
        <ele>589</ele>
        <time>2017-02-27T21:41:51Z</time>
      </trkpt>
      <trkpt lat="44.38031" lon="3.52584">
        <ele>589</ele>
        <time>2017-02-27T21:43:51Z</time>
      </trkpt>
      <trkpt lat="44.38038" lon="3.52567">
        <ele>589</ele>
        <time>2017-02-27T21:45:51Z</time>
      </trkpt>
      <trkpt lat="44.38038" lon="3.52567">
        <ele>589</ele>
        <time>2017-02-27T21:47:51Z</time>
      </trkpt>
      <trkpt lat="44.38042" lon="3.52565">
        <ele>589</ele>
        <time>2017-02-27T21:49:51Z</time>
      </trkpt>
      <trkpt lat="44.38042" lon="3.52564">
        <ele>589</ele>
        <time>2017-02-27T21:51:51Z</time>
      </trkpt>
      <trkpt lat="44.38046" lon="3.52561">
        <ele>590</ele>
        <time>2017-02-27T21:53:51Z</time>
      </trkpt>
      <trkpt lat="44.3805" lon="3.52554">
        <ele>590</ele>
        <time>2017-02-27T21:55:51Z</time>
      </trkpt>
      <trkpt lat="44.38059" lon="3.5254">
        <ele>589</ele>
        <time>2017-02-27T21:57:51Z</time>
      </trkpt>
      <trkpt lat="44.38066" lon="3.5253">
        <ele>589</ele>
        <time>2017-02-27T21:59:51Z</time>
      </trkpt>
      <trkpt lat="44.38073" lon="3.52523">
        <ele>590</ele>
        <time>2017-02-27T22:01:51Z</time>
      </trkpt>
      <trkpt lat="44.38095" lon="3.52506">
        <ele>591</ele>
        <time>2017-02-27T22:03:51Z</time>
      </trkpt>
      <trkpt lat="44.38118" lon="3.5249">
        <ele>592</ele>
        <time>2017-02-27T22:05:51Z</time>
      </trkpt>
      <trkpt lat="44.38133" lon="3.52481">
        <ele>594</ele>
        <time>2017-02-27T22:07:51Z</time>
      </trkpt>
      <trkpt lat="44.38145" lon="3.52474">
        <ele>595</ele>
        <time>2017-02-27T22:09:51Z</time>
      </trkpt>
      <trkpt lat="44.3816" lon="3.52468">
        <ele>596</ele>
        <time>2017-02-27T22:11:51Z</time>
      </trkpt>
      <trkpt lat="44.3817" lon="3.52463">
        <ele>597</ele>
        <time>2017-02-27T22:13:51Z</time>
      </trkpt>
      <trkpt lat="44.38174" lon="3.5246">
        <ele>597</ele>
        <time>2017-02-27T22:15:51Z</time>
      </trkpt>
      <trkpt lat="44.38185" lon="3.52448">
        <ele>597</ele>
        <time>2017-02-27T22:17:51Z</time>
      </trkpt>
      <trkpt lat="44.38201" lon="3.52432">
        <ele>596</ele>
        <time>2017-02-27T22:19:51Z</time>
      </trkpt>
      <trkpt lat="44.38215" lon="3.52419">
        <ele>596</ele>
        <time>2017-02-27T22:21:51Z</time>
      </trkpt>
      <trkpt lat="44.38224" lon="3.52412">
        <ele>597</ele>
        <time>2017-02-27T22:23:51Z</time>
      </trkpt>
      <trkpt lat="44.38228" lon="3.52404">
        <ele>596</ele>
        <time>2017-02-27T22:25:51Z</time>
      </trkpt>
      <trkpt lat="44.38233" lon="3.52393">
        <ele>595</ele>
        <time>2017-02-27T22:27:51Z</time>
      </trkpt>
      <trkpt lat="44.38236" lon="3.52389">
        <ele>594</ele>
        <time>2017-02-27T22:29:51Z</time>
      </trkpt>
      <trkpt lat="44.38242" lon="3.52385">
        <ele>595</ele>
        <time>2017-02-27T22:31:51Z</time>
      </trkpt>
      <trkpt lat="44.38251" lon="3.52383">
        <ele>596</ele>
        <time>2017-02-27T22:33:51Z</time>
      </trkpt>
      <trkpt lat="44.38265" lon="3.52382">
        <ele>598</ele>
        <time>2017-02-27T22:35:51Z</time>
      </trkpt>
      <trkpt lat="44.38272" lon="3.52381">
        <ele>599</ele>
        <time>2017-02-27T22:37:51Z</time>
      </trkpt>
      <trkpt lat="44.3828" lon="3.52376">
        <ele>599</ele>
        <time>2017-02-27T22:39:51Z</time>
      </trkpt>
      <trkpt lat="44.38286" lon="3.52371">
        <ele>599</ele>
        <time>2017-02-27T22:41:51Z</time>
      </trkpt>
      <trkpt lat="44.38295" lon="3.52365">
        <ele>600</ele>
        <time>2017-02-27T22:43:51Z</time>
      </trkpt>
      <trkpt lat="44.38313" lon="3.5235">
        <ele>599</ele>
        <time>2017-02-27T22:45:51Z</time>
      </trkpt>
      <trkpt lat="44.38338" lon="3.52334">
        <ele>600</ele>
        <time>2017-02-27T22:47:51Z</time>
      </trkpt>
      <trkpt lat="44.38352" lon="3.52324">
        <ele>600</ele>
        <time>2017-02-27T22:49:51Z</time>
      </trkpt>
      <trkpt lat="44.38362" lon="3.52314">
        <ele>599</ele>
        <time>2017-02-27T22:51:51Z</time>
      </trkpt>
      <trkpt lat="44.38368" lon="3.52303">
        <ele>598</ele>
        <time>2017-02-27T22:53:51Z</time>
      </trkpt>
      <trkpt lat="44.38375" lon="3.52284">
        <ele>596</ele>
        <time>2017-02-27T22:55:51Z</time>
      </trkpt>
      <trkpt lat="44.3838" lon="3.52271">
        <ele>594</ele>
        <time>2017-02-27T22:57:51Z</time>
      </trkpt>
      <trkpt lat="44.38386" lon="3.52263">
        <ele>594</ele>
        <time>2017-02-27T22:59:51Z</time>
      </trkpt>
      <trkpt lat="44.3839" lon="3.5226">
        <ele>594</ele>
        <time>2017-02-27T23:01:51Z</time>
      </trkpt>
      <trkpt lat="44.38399" lon="3.52257">
        <ele>595</ele>
        <time>2017-02-27T23:03:51Z</time>
      </trkpt>
      <trkpt lat="44.38408" lon="3.52257">
        <ele>596</ele>
        <time>2017-02-27T23:05:51Z</time>
      </trkpt>
      <trkpt lat="44.38415" lon="3.52259">
        <ele>597</ele>
        <time>2017-02-27T23:07:51Z</time>
      </trkpt>
      <trkpt lat="44.38426" lon="3.52265">
        <ele>599</ele>
        <time>2017-02-27T23:09:51Z</time>
      </trkpt>
      <trkpt lat="44.38435" lon="3.52271">
        <ele>601</ele>
        <time>2017-02-27T23:11:51Z</time>
      </trkpt>
      <trkpt lat="44.38446" lon="3.52279">
        <ele>603</ele>
        <time>2017-02-27T23:13:51Z</time>
      </trkpt>
      <trkpt lat="44.38462" lon="3.5229">
        <ele>606</ele>
        <time>2017-02-27T23:15:51Z</time>
      </trkpt>
      <trkpt lat="44.38477" lon="3.52298">
        <ele>608</ele>
        <time>2017-02-27T23:17:51Z</time>
      </trkpt>
      <trkpt lat="44.38491" lon="3.52303">
        <ele>610</ele>
        <time>2017-02-27T23:19:51Z</time>
      </trkpt>
      <trkpt lat="44.38507" lon="3.52307">
        <ele>612</ele>
        <time>2017-02-27T23:21:51Z</time>
      </trkpt>
      <trkpt lat="44.38543" lon="3.52311">
        <ele>616</ele>
        <time>2017-02-27T23:23:51Z</time>
      </trkpt>
      <trkpt lat="44.38571" lon="3.52313">
        <ele>619</ele>
        <time>2017-02-27T23:25:51Z</time>
      </trkpt>
      <trkpt lat="44.38588" lon="3.52314">
        <ele>621</ele>
        <time>2017-02-27T23:27:51Z</time>
      </trkpt>
      <trkpt lat="44.38602" lon="3.52313">
        <ele>620</ele>
        <time>2017-02-27T23:29:51Z</time>
      </trkpt>
      <trkpt lat="44.38623" lon="3.52311">
        <ele>620</ele>
        <time>2017-02-27T23:31:51Z</time>
      </trkpt>
      <trkpt lat="44.38636" lon="3.52308">
        <ele>620</ele>
        <time>2017-02-27T23:33:51Z</time>
      </trkpt>
      <trkpt lat="44.38648" lon="3.52307">
        <ele>620</ele>
        <time>2017-02-27T23:35:51Z</time>
      </trkpt>
      <trkpt lat="44.38654" lon="3.52306">
        <ele>620</ele>
        <time>2017-02-27T23:37:51Z</time>
      </trkpt>
      <trkpt lat="44.3866" lon="3.52304">
        <ele>620</ele>
        <time>2017-02-27T23:39:51Z</time>
      </trkpt>
      <trkpt lat="44.38664" lon="3.52303">
        <ele>620</ele>
        <time>2017-02-27T23:41:51Z</time>
      </trkpt>
      <trkpt lat="44.38667" lon="3.52301">
        <ele>620</ele>
        <time>2017-02-27T23:43:51Z</time>
      </trkpt>
      <trkpt lat="44.38672" lon="3.52297">
        <ele>620</ele>
        <time>2017-02-27T23:45:51Z</time>
      </trkpt>
      <trkpt lat="44.38674" lon="3.52293">
        <ele>621</ele>
        <time>2017-02-27T23:47:51Z</time>
      </trkpt>
      <trkpt lat="44.38676" lon="3.5229">
        <ele>621</ele>
        <time>2017-02-27T23:49:51Z</time>
      </trkpt>
      <trkpt lat="44.38679" lon="3.52287">
        <ele>621</ele>
        <time>2017-02-27T23:51:51Z</time>
      </trkpt>
      <trkpt lat="44.38681" lon="3.52284">
        <ele>621</ele>
        <time>2017-02-27T23:53:51Z</time>
      </trkpt>
      <trkpt lat="44.38684" lon="3.52283">
        <ele>622</ele>
        <time>2017-02-27T23:55:51Z</time>
      </trkpt>
      <trkpt lat="44.38687" lon="3.52282">
        <ele>622</ele>
        <time>2017-02-27T23:57:51Z</time>
      </trkpt>
      <trkpt lat="44.3869" lon="3.52281">
        <ele>623</ele>
        <time>2017-02-27T23:59:51Z</time>
      </trkpt>
      <trkpt lat="44.38692" lon="3.52281">
        <ele>623</ele>
        <time>2017-02-28T00:01:51Z</time>
      </trkpt>
      <trkpt lat="44.38695" lon="3.52281">
        <ele>624</ele>
        <time>2017-02-28T00:03:51Z</time>
      </trkpt>
      <trkpt lat="44.38699" lon="3.52281">
        <ele>624</ele>
        <time>2017-02-28T00:05:51Z</time>
      </trkpt>
      <trkpt lat="44.38705" lon="3.52284">
        <ele>625</ele>
        <time>2017-02-28T00:07:51Z</time>
      </trkpt>
      <trkpt lat="44.38713" lon="3.5229">
        <ele>626</ele>
        <time>2017-02-28T00:09:51Z</time>
      </trkpt>
      <trkpt lat="44.38719" lon="3.52295">
        <ele>627</ele>
        <time>2017-02-28T00:11:51Z</time>
      </trkpt>
      <trkpt lat="44.38722" lon="3.52296">
        <ele>628</ele>
        <time>2017-02-28T00:13:51Z</time>
      </trkpt>
      <trkpt lat="44.38726" lon="3.52298">
        <ele>628</ele>
        <time>2017-02-28T00:15:51Z</time>
      </trkpt>
      <trkpt lat="44.38729" lon="3.52298">
        <ele>629</ele>
        <time>2017-02-28T00:17:51Z</time>
      </trkpt>
      <trkpt lat="44.38732" lon="3.52298">
        <ele>629</ele>
        <time>2017-02-28T00:19:51Z</time>
      </trkpt>
      <trkpt lat="44.38735" lon="3.52296">
        <ele>630</ele>
        <time>2017-02-28T00:21:51Z</time>
      </trkpt>
      <trkpt lat="44.38737" lon="3.52294">
        <ele>630</ele>
        <time>2017-02-28T00:23:51Z</time>
      </trkpt>
      <trkpt lat="44.38737" lon="3.52294">
        <ele>630</ele>
        <time>2017-02-28T00:25:51Z</time>
      </trkpt>
      <trkpt lat="44.38738" lon="3.52292">
        <ele>630</ele>
        <time>2017-02-28T00:27:51Z</time>
      </trkpt>
      <trkpt lat="44.38739" lon="3.52289">
        <ele>630</ele>
        <time>2017-02-28T00:29:51Z</time>
      </trkpt>
      <trkpt lat="44.3874" lon="3.52287">
        <ele>631</ele>
        <time>2017-02-28T00:31:51Z</time>
      </trkpt>
      <trkpt lat="44.3874" lon="3.52284">
        <ele>631</ele>
        <time>2017-02-28T00:33:51Z</time>
      </trkpt>
      <trkpt lat="44.3874" lon="3.5228">
        <ele>631</ele>
        <time>2017-02-28T00:35:51Z</time>
      </trkpt>
      <trkpt lat="44.3874" lon="3.52276">
        <ele>631</ele>
        <time>2017-02-28T00:37:51Z</time>
      </trkpt>
      <trkpt lat="44.38738" lon="3.52255">
        <ele>632</ele>
        <time>2017-02-28T00:39:51Z</time>
      </trkpt>
      <trkpt lat="44.38737" lon="3.52246">
        <ele>632</ele>
        <time>2017-02-28T00:41:51Z</time>
      </trkpt>
      <trkpt lat="44.38735" lon="3.52239">
        <ele>634</ele>
        <time>2017-02-28T00:43:51Z</time>
      </trkpt>
      <trkpt lat="44.38733" lon="3.52234">
        <ele>634</ele>
        <time>2017-02-28T00:45:51Z</time>
      </trkpt>
      <trkpt lat="44.38731" lon="3.52227">
        <ele>636</ele>
        <time>2017-02-28T00:47:51Z</time>
      </trkpt>
      <trkpt lat="44.3873" lon="3.52225">
        <ele>636</ele>
        <time>2017-02-28T00:49:51Z</time>
      </trkpt>
      <trkpt lat="44.3873" lon="3.52223">
        <ele>636</ele>
        <time>2017-02-28T00:51:51Z</time>
      </trkpt>
      <trkpt lat="44.3873" lon="3.5222">
        <ele>637</ele>
        <time>2017-02-28T00:53:51Z</time>
      </trkpt>
      <trkpt lat="44.38731" lon="3.52218">
        <ele>638</ele>
        <time>2017-02-28T00:55:51Z</time>
      </trkpt>
      <trkpt lat="44.38732" lon="3.52214">
        <ele>639</ele>
        <time>2017-02-28T00:57:51Z</time>
      </trkpt>
      <trkpt lat="44.38732" lon="3.52214">
        <ele>639</ele>
        <time>2017-02-28T00:59:51Z</time>
      </trkpt>
      <trkpt lat="44.38745" lon="3.52224">
        <ele>639</ele>
        <time>2017-02-28T01:01:51Z</time>
      </trkpt>
      <trkpt lat="44.38778" lon="3.5225">
        <ele>644</ele>
        <time>2017-02-28T01:03:51Z</time>
      </trkpt>
      <trkpt lat="44.38799" lon="3.52271">
        <ele>649</ele>
        <time>2017-02-28T01:05:51Z</time>
      </trkpt>
      <trkpt lat="44.38816" lon="3.52292">
        <ele>652</ele>
        <time>2017-02-28T01:07:51Z</time>
      </trkpt>
      <trkpt lat="44.38829" lon="3.52315">
        <ele>651</ele>
        <time>2017-02-28T01:09:51Z</time>
      </trkpt>
      <trkpt lat="44.38839" lon="3.52336">
        <ele>651</ele>
        <time>2017-02-28T01:11:51Z</time>
      </trkpt>
      <trkpt lat="44.38849" lon="3.52353">
        <ele>654</ele>
        <time>2017-02-28T01:13:51Z</time>
      </trkpt>
      <trkpt lat="44.38855" lon="3.5236">
        <ele>656</ele>
        <time>2017-02-28T01:15:51Z</time>
      </trkpt>
      <trkpt lat="44.38857" lon="3.52361">
        <ele>656</ele>
        <time>2017-02-28T01:17:51Z</time>
      </trkpt>
      <trkpt lat="44.38858" lon="3.52361">
        <ele>657</ele>
        <time>2017-02-28T01:19:51Z</time>
      </trkpt>
      <trkpt lat="44.3886" lon="3.52361">
        <ele>658</ele>
        <time>2017-02-28T01:21:51Z</time>
      </trkpt>
      <trkpt lat="44.38861" lon="3.52361">
        <ele>658</ele>
        <time>2017-02-28T01:23:51Z</time>
      </trkpt>
      <trkpt lat="44.38863" lon="3.52359">
        <ele>659</ele>
        <time>2017-02-28T01:25:51Z</time>
      </trkpt>
      <trkpt lat="44.38864" lon="3.52358">
        <ele>659</ele>
        <time>2017-02-28T01:27:51Z</time>
      </trkpt>
      <trkpt lat="44.38864" lon="3.52358">
        <ele>659</ele>
        <time>2017-02-28T01:29:51Z</time>
      </trkpt>
      <trkpt lat="44.38864" lon="3.52356">
        <ele>659</ele>
        <time>2017-02-28T01:31:51Z</time>
      </trkpt>
      <trkpt lat="44.38864" lon="3.52354">
        <ele>660</ele>
        <time>2017-02-28T01:33:51Z</time>
      </trkpt>
      <trkpt lat="44.38864" lon="3.52352">
        <ele>660</ele>
        <time>2017-02-28T01:35:51Z</time>
      </trkpt>
      <trkpt lat="44.38863" lon="3.52348">
        <ele>660</ele>
        <time>2017-02-28T01:37:51Z</time>
      </trkpt>
      <trkpt lat="44.38858" lon="3.52336">
        <ele>659</ele>
        <time>2017-02-28T01:39:51Z</time>
      </trkpt>
      <trkpt lat="44.38842" lon="3.52296">
        <ele>660</ele>
        <time>2017-02-28T01:41:51Z</time>
      </trkpt>
      <trkpt lat="44.38825" lon="3.52253">
        <ele>661</ele>
        <time>2017-02-28T01:43:51Z</time>
      </trkpt>
      <trkpt lat="44.388" lon="3.52199">
        <ele>667</ele>
        <time>2017-02-28T01:45:51Z</time>
      </trkpt>
      <trkpt lat="44.38786" lon="3.52176">
        <ele>668</ele>
        <time>2017-02-28T01:47:51Z</time>
      </trkpt>
      <trkpt lat="44.38775" lon="3.52161">
        <ele>668</ele>
        <time>2017-02-28T01:49:51Z</time>
      </trkpt>
      <trkpt lat="44.3876" lon="3.52145">
        <ele>668</ele>
        <time>2017-02-28T01:51:51Z</time>
      </trkpt>
      <trkpt lat="44.38742" lon="3.52132">
        <ele>668</ele>
        <time>2017-02-28T01:53:51Z</time>
      </trkpt>
      <trkpt lat="44.38735" lon="3.52126">
        <ele>669</ele>
        <time>2017-02-28T01:55:51Z</time>
      </trkpt>
      <trkpt lat="44.38734" lon="3.52124">
        <ele>669</ele>
        <time>2017-02-28T01:57:51Z</time>
      </trkpt>
      <trkpt lat="44.38732" lon="3.52123">
        <ele>669</ele>
        <time>2017-02-28T01:59:51Z</time>
      </trkpt>
      <trkpt lat="44.38731" lon="3.52121">
        <ele>670</ele>
        <time>2017-02-28T02:01:51Z</time>
      </trkpt>
      <trkpt lat="44.38731" lon="3.52119">
        <ele>671</ele>
        <time>2017-02-28T02:03:51Z</time>
      </trkpt>
      <trkpt lat="44.3873" lon="3.52117">
        <ele>671</ele>
        <time>2017-02-28T02:05:51Z</time>
      </trkpt>
      <trkpt lat="44.3873" lon="3.52114">
        <ele>673</ele>
        <time>2017-02-28T02:07:51Z</time>
      </trkpt>
      <trkpt lat="44.38731" lon="3.52112">
        <ele>674</ele>
        <time>2017-02-28T02:09:51Z</time>
      </trkpt>
      <trkpt lat="44.38732" lon="3.52109">
        <ele>675</ele>
        <time>2017-02-28T02:11:51Z</time>
      </trkpt>
      <trkpt lat="44.38733" lon="3.52107">
        <ele>676</ele>
        <time>2017-02-28T02:13:51Z</time>
      </trkpt>
      <trkpt lat="44.38735" lon="3.52106">
        <ele>677</ele>
        <time>2017-02-28T02:15:51Z</time>
      </trkpt>
      <trkpt lat="44.38736" lon="3.52106">
        <ele>678</ele>
        <time>2017-02-28T02:17:51Z</time>
      </trkpt>
      <trkpt lat="44.38738" lon="3.52105">
        <ele>679</ele>
        <time>2017-02-28T02:19:51Z</time>
      </trkpt>
      <trkpt lat="44.38739" lon="3.52105">
        <ele>679</ele>
        <time>2017-02-28T02:21:51Z</time>
      </trkpt>
      <trkpt lat="44.38741" lon="3.52106">
        <ele>679</ele>
        <time>2017-02-28T02:23:51Z</time>
      </trkpt>
      <trkpt lat="44.38743" lon="3.52106">
        <ele>679</ele>
        <time>2017-02-28T02:25:51Z</time>
      </trkpt>
      <trkpt lat="44.38746" lon="3.52108">
        <ele>679</ele>
        <time>2017-02-28T02:27:51Z</time>
      </trkpt>
      <trkpt lat="44.38749" lon="3.5211">
        <ele>679</ele>
        <time>2017-02-28T02:29:51Z</time>
      </trkpt>
      <trkpt lat="44.38752" lon="3.52113">
        <ele>679</ele>
        <time>2017-02-28T02:31:51Z</time>
      </trkpt>
      <trkpt lat="44.38768" lon="3.52127">
        <ele>679</ele>
        <time>2017-02-28T02:33:51Z</time>
      </trkpt>
      <trkpt lat="44.38784" lon="3.52144">
        <ele>678</ele>
        <time>2017-02-28T02:35:51Z</time>
      </trkpt>
      <trkpt lat="44.38805" lon="3.52164">
        <ele>679</ele>
        <time>2017-02-28T02:37:51Z</time>
      </trkpt>
      <trkpt lat="44.38831" lon="3.52196">
        <ele>680</ele>
        <time>2017-02-28T02:39:51Z</time>
      </trkpt>
      <trkpt lat="44.38861" lon="3.52235">
        <ele>683</ele>
        <time>2017-02-28T02:41:51Z</time>
      </trkpt>
      <trkpt lat="44.38887" lon="3.52271">
        <ele>686</ele>
        <time>2017-02-28T02:43:51Z</time>
      </trkpt>
      <trkpt lat="44.38909" lon="3.52308">
        <ele>686</ele>
        <time>2017-02-28T02:45:51Z</time>
      </trkpt>
      <trkpt lat="44.3892" lon="3.52326">
        <ele>686</ele>
        <time>2017-02-28T02:47:51Z</time>
      </trkpt>
      <trkpt lat="44.38931" lon="3.52338">
        <ele>685</ele>
        <time>2017-02-28T02:49:51Z</time>
      </trkpt>
      <trkpt lat="44.38944" lon="3.52346">
        <ele>686</ele>
        <time>2017-02-28T02:51:51Z</time>
      </trkpt>
      <trkpt lat="44.38958" lon="3.52352">
        <ele>688</ele>
        <time>2017-02-28T02:53:51Z</time>
      </trkpt>
      <trkpt lat="44.38974" lon="3.52355">
        <ele>691</ele>
        <time>2017-02-28T02:55:51Z</time>
      </trkpt>
      <trkpt lat="44.38985" lon="3.52355">
        <ele>693</ele>
        <time>2017-02-28T02:57:51Z</time>
      </trkpt>
      <trkpt lat="44.38989" lon="3.52354">
        <ele>695</ele>
        <time>2017-02-28T02:59:51Z</time>
      </trkpt>
      <trkpt lat="44.38992" lon="3.52353">
        <ele>696</ele>
        <time>2017-02-28T03:01:51Z</time>
      </trkpt>
      <trkpt lat="44.38993" lon="3.52351">
        <ele>696</ele>
        <time>2017-02-28T03:03:51Z</time>
      </trkpt>
      <trkpt lat="44.38995" lon="3.5235">
        <ele>697</ele>
        <time>2017-02-28T03:05:51Z</time>
      </trkpt>
      <trkpt lat="44.38996" lon="3.52348">
        <ele>698</ele>
        <time>2017-02-28T03:07:51Z</time>
      </trkpt>
      <trkpt lat="44.38997" lon="3.52347">
        <ele>698</ele>
        <time>2017-02-28T03:09:51Z</time>
      </trkpt>
      <trkpt lat="44.38998" lon="3.52345">
        <ele>699</ele>
        <time>2017-02-28T03:11:51Z</time>
      </trkpt>
      <trkpt lat="44.38998" lon="3.52344">
        <ele>699</ele>
        <time>2017-02-28T03:13:51Z</time>
      </trkpt>
      <trkpt lat="44.38999" lon="3.52341">
        <ele>700</ele>
        <time>2017-02-28T03:15:51Z</time>
      </trkpt>
      <trkpt lat="44.38999" lon="3.52339">
        <ele>700</ele>
        <time>2017-02-28T03:17:51Z</time>
      </trkpt>
      <trkpt lat="44.38999" lon="3.52336">
        <ele>701</ele>
        <time>2017-02-28T03:19:51Z</time>
      </trkpt>
      <trkpt lat="44.38999" lon="3.52335">
        <ele>701</ele>
        <time>2017-02-28T03:21:51Z</time>
      </trkpt>
      <trkpt lat="44.38998" lon="3.52333">
        <ele>702</ele>
        <time>2017-02-28T03:23:51Z</time>
      </trkpt>
      <trkpt lat="44.38997" lon="3.52331">
        <ele>702</ele>
        <time>2017-02-28T03:25:51Z</time>
      </trkpt>
      <trkpt lat="44.38996" lon="3.5233">
        <ele>702</ele>
        <time>2017-02-28T03:27:51Z</time>
      </trkpt>
      <trkpt lat="44.38995" lon="3.52328">
        <ele>703</ele>
        <time>2017-02-28T03:29:51Z</time>
      </trkpt>
      <trkpt lat="44.38994" lon="3.52327">
        <ele>703</ele>
        <time>2017-02-28T03:31:51Z</time>
      </trkpt>
      <trkpt lat="44.38992" lon="3.52326">
        <ele>703</ele>
        <time>2017-02-28T03:33:51Z</time>
      </trkpt>
      <trkpt lat="44.38989" lon="3.52326">
        <ele>702</ele>
        <time>2017-02-28T03:35:51Z</time>
      </trkpt>
      <trkpt lat="44.38982" lon="3.52324">
        <ele>701</ele>
        <time>2017-02-28T03:37:51Z</time>
      </trkpt>
      <trkpt lat="44.38974" lon="3.52324">
        <ele>699</ele>
        <time>2017-02-28T03:39:51Z</time>
      </trkpt>
      <trkpt lat="44.38963" lon="3.5232">
        <ele>698</ele>
        <time>2017-02-28T03:41:51Z</time>
      </trkpt>
      <trkpt lat="44.38952" lon="3.52312">
        <ele>698</ele>
        <time>2017-02-28T03:43:51Z</time>
      </trkpt>
      <trkpt lat="44.38944" lon="3.52305">
        <ele>698</ele>
        <time>2017-02-28T03:45:51Z</time>
      </trkpt>
      <trkpt lat="44.38935" lon="3.52292">
        <ele>699</ele>
        <time>2017-02-28T03:47:51Z</time>
      </trkpt>
      <trkpt lat="44.38927" lon="3.52277">
        <ele>701</ele>
        <time>2017-02-28T03:49:51Z</time>
      </trkpt>
      <trkpt lat="44.3891" lon="3.5224">
        <ele>705</ele>
        <time>2017-02-28T03:51:51Z</time>
      </trkpt>
      <trkpt lat="44.38887" lon="3.52192">
        <ele>708</ele>
        <time>2017-02-28T03:53:51Z</time>
      </trkpt>
      <trkpt lat="44.38861" lon="3.52135">
        <ele>713</ele>
        <time>2017-02-28T03:55:51Z</time>
      </trkpt>
      <trkpt lat="44.38838" lon="3.52086">
        <ele>719</ele>
        <time>2017-02-28T03:57:51Z</time>
      </trkpt>
      <trkpt lat="44.38825" lon="3.52062">
        <ele>725</ele>
        <time>2017-02-28T03:59:51Z</time>
      </trkpt>
      <trkpt lat="44.38813" lon="3.52046">
        <ele>729</ele>
        <time>2017-02-28T04:01:51Z</time>
      </trkpt>
      <trkpt lat="44.38803" lon="3.52035">
        <ele>732</ele>
        <time>2017-02-28T04:03:51Z</time>
      </trkpt>
      <trkpt lat="44.38785" lon="3.52021">
        <ele>735</ele>
        <time>2017-02-28T04:05:51Z</time>
      </trkpt>
      <trkpt lat="44.38769" lon="3.52011">
        <ele>736</ele>
        <time>2017-02-28T04:07:51Z</time>
      </trkpt>
      <trkpt lat="44.3874" lon="3.51997">
        <ele>737</ele>
        <time>2017-02-28T04:09:51Z</time>
      </trkpt>
      <trkpt lat="44.38703" lon="3.5198">
        <ele>737</ele>
        <time>2017-02-28T04:11:51Z</time>
      </trkpt>
      <trkpt lat="44.38666" lon="3.51963">
        <ele>739</ele>
        <time>2017-02-28T04:13:51Z</time>
      </trkpt>
      <trkpt lat="44.38641" lon="3.51949">
        <ele>743</ele>
        <time>2017-02-28T04:15:51Z</time>
      </trkpt>
      <trkpt lat="44.38619" lon="3.51935">
        <ele>748</ele>
        <time>2017-02-28T04:17:51Z</time>
      </trkpt>
      <trkpt lat="44.3859" lon="3.51914">
        <ele>753</ele>
        <time>2017-02-28T04:19:51Z</time>
      </trkpt>
      <trkpt lat="44.38564" lon="3.51893">
        <ele>756</ele>
        <time>2017-02-28T04:21:51Z</time>
      </trkpt>
      <trkpt lat="44.38539" lon="3.51876">
        <ele>759</ele>
        <time>2017-02-28T04:23:51Z</time>
      </trkpt>
      <trkpt lat="44.38508" lon="3.51858">
        <ele>762</ele>
        <time>2017-02-28T04:25:51Z</time>
      </trkpt>
      <trkpt lat="44.3847" lon="3.51839">
        <ele>766</ele>
        <time>2017-02-28T04:27:51Z</time>
      </trkpt>
      <trkpt lat="44.38435" lon="3.5182">
        <ele>766</ele>
        <time>2017-02-28T04:29:51Z</time>
      </trkpt>
      <trkpt lat="44.38414" lon="3.51806">
        <ele>765</ele>
        <time>2017-02-28T04:31:51Z</time>
      </trkpt>
      <trkpt lat="44.38407" lon="3.51801">
        <ele>764</ele>
        <time>2017-02-28T04:33:51Z</time>
      </trkpt>
      <trkpt lat="44.384" lon="3.51794">
        <ele>763</ele>
        <time>2017-02-28T04:35:51Z</time>
      </trkpt>
      <trkpt lat="44.38394" lon="3.51788">
        <ele>763</ele>
        <time>2017-02-28T04:37:51Z</time>
      </trkpt>
      <trkpt lat="44.38392" lon="3.51785">
        <ele>762</ele>
        <time>2017-02-28T04:39:51Z</time>
      </trkpt>
      <trkpt lat="44.38388" lon="3.51779">
        <ele>762</ele>
        <time>2017-02-28T04:41:51Z</time>
      </trkpt>
      <trkpt lat="44.38385" lon="3.51772">
        <ele>762</ele>
        <time>2017-02-28T04:43:51Z</time>
      </trkpt>
      <trkpt lat="44.38384" lon="3.51765">
        <ele>763</ele>
        <time>2017-02-28T04:45:51Z</time>
      </trkpt>
      <trkpt lat="44.38384" lon="3.51761">
        <ele>763</ele>
        <time>2017-02-28T04:47:51Z</time>
      </trkpt>
      <trkpt lat="44.38385" lon="3.51758">
        <ele>764</ele>
        <time>2017-02-28T04:49:51Z</time>
      </trkpt>
      <trkpt lat="44.38387" lon="3.51752">
        <ele>765</ele>
        <time>2017-02-28T04:51:51Z</time>
      </trkpt>
      <trkpt lat="44.3839" lon="3.51747">
        <ele>765</ele>
        <time>2017-02-28T04:53:51Z</time>
      </trkpt>
      <trkpt lat="44.38394" lon="3.51743">
        <ele>765</ele>
        <time>2017-02-28T04:55:51Z</time>
      </trkpt>
      <trkpt lat="44.38397" lon="3.51741">
        <ele>766</ele>
        <time>2017-02-28T04:57:51Z</time>
      </trkpt>
      <trkpt lat="44.38399" lon="3.5174">
        <ele>766</ele>
        <time>2017-02-28T04:59:51Z</time>
      </trkpt>
      <trkpt lat="44.38404" lon="3.5174">
        <ele>767</ele>
        <time>2017-02-28T05:01:51Z</time>
      </trkpt>
      <trkpt lat="44.3841" lon="3.51741">
        <ele>769</ele>
        <time>2017-02-28T05:03:51Z</time>
      </trkpt>
      <trkpt lat="44.38417" lon="3.51743">
        <ele>771</ele>
        <time>2017-02-28T05:05:51Z</time>
      </trkpt>
      <trkpt lat="44.38424" lon="3.51746">
        <ele>773</ele>
        <time>2017-02-28T05:07:51Z</time>
      </trkpt>
      <trkpt lat="44.38432" lon="3.51749">
        <ele>776</ele>
        <time>2017-02-28T05:09:51Z</time>
      </trkpt>
      <trkpt lat="44.38439" lon="3.51754">
        <ele>777</ele>
        <time>2017-02-28T05:11:51Z</time>
      </trkpt>
      <trkpt lat="44.38465" lon="3.51765">
        <ele>780</ele>
        <time>2017-02-28T05:13:51Z</time>
      </trkpt>
      <trkpt lat="44.38465" lon="3.51765">
        <ele>780</ele>
        <time>2017-02-28T05:15:51Z</time>
      </trkpt>
      <trkpt lat="44.38466" lon="3.51762">
        <ele>780</ele>
        <time>2017-02-28T05:17:51Z</time>
      </trkpt>
      <trkpt lat="44.38465" lon="3.51761">
        <ele>780</ele>
        <time>2017-02-28T05:19:51Z</time>
      </trkpt>
      <trkpt lat="44.38465" lon="3.5176">
        <ele>781</ele>
        <time>2017-02-28T05:21:51Z</time>
      </trkpt>
      <trkpt lat="44.38464" lon="3.51759">
        <ele>781</ele>
        <time>2017-02-28T05:23:51Z</time>
      </trkpt>
      <trkpt lat="44.38461" lon="3.51757">
        <ele>780</ele>
        <time>2017-02-28T05:25:51Z</time>
      </trkpt>
      <trkpt lat="44.38454" lon="3.51751">
        <ele>780</ele>
        <time>2017-02-28T05:27:51Z</time>
      </trkpt>
      <trkpt lat="44.38451" lon="3.51749">
        <ele>779</ele>
        <time>2017-02-28T05:29:51Z</time>
      </trkpt>
      <trkpt lat="44.38449" lon="3.51745">
        <ele>778</ele>
        <time>2017-02-28T05:31:51Z</time>
      </trkpt>
      <trkpt lat="44.38446" lon="3.51742">
        <ele>777</ele>
        <time>2017-02-28T05:33:51Z</time>
      </trkpt>
      <trkpt lat="44.38445" lon="3.51739">
        <ele>776</ele>
        <time>2017-02-28T05:35:51Z</time>
      </trkpt>
      <trkpt lat="44.38445" lon="3.51737">
        <ele>775</ele>
        <time>2017-02-28T05:37:51Z</time>
      </trkpt>
      <trkpt lat="44.38445" lon="3.51735">
        <ele>775</ele>
        <time>2017-02-28T05:39:51Z</time>
      </trkpt>
      <trkpt lat="44.38445" lon="3.51732">
        <ele>774</ele>
        <time>2017-02-28T05:41:51Z</time>
      </trkpt>
      <trkpt lat="44.38445" lon="3.51729">
        <ele>773</ele>
        <time>2017-02-28T05:43:51Z</time>
      </trkpt>
      <trkpt lat="44.38446" lon="3.51725">
        <ele>773</ele>
        <time>2017-02-28T05:45:51Z</time>
      </trkpt>
      <trkpt lat="44.38447" lon="3.51723">
        <ele>772</ele>
        <time>2017-02-28T05:47:51Z</time>
      </trkpt>
      <trkpt lat="44.38448" lon="3.51721">
        <ele>772</ele>
        <time>2017-02-28T05:49:51Z</time>
      </trkpt>
      <trkpt lat="44.3845" lon="3.51719">
        <ele>772</ele>
        <time>2017-02-28T05:51:51Z</time>
      </trkpt>
      <trkpt lat="44.38451" lon="3.51717">
        <ele>772</ele>
        <time>2017-02-28T05:53:51Z</time>
      </trkpt>
      <trkpt lat="44.38453" lon="3.51716">
        <ele>772</ele>
        <time>2017-02-28T05:55:51Z</time>
      </trkpt>
      <trkpt lat="44.38456" lon="3.51714">
        <ele>772</ele>
        <time>2017-02-28T05:57:51Z</time>
      </trkpt>
      <trkpt lat="44.38468" lon="3.51711">
        <ele>774</ele>
        <time>2017-02-28T05:59:51Z</time>
      </trkpt>
      <trkpt lat="44.38485" lon="3.51706">
        <ele>777</ele>
        <time>2017-02-28T06:01:51Z</time>
      </trkpt>
      <trkpt lat="44.38494" lon="3.51701">
        <ele>778</ele>
        <time>2017-02-28T06:03:51Z</time>
      </trkpt>
      <trkpt lat="44.38508" lon="3.5169">
        <ele>780</ele>
        <time>2017-02-28T06:05:51Z</time>
      </trkpt>
      <trkpt lat="44.38523" lon="3.51676">
        <ele>784</ele>
        <time>2017-02-28T06:07:51Z</time>
      </trkpt>
      <trkpt lat="44.38553" lon="3.51649">
        <ele>790</ele>
        <time>2017-02-28T06:09:51Z</time>
      </trkpt>
      <trkpt lat="44.38575" lon="3.51629">
        <ele>792</ele>
        <time>2017-02-28T06:11:51Z</time>
      </trkpt>
      <trkpt lat="44.38605" lon="3.51608">
        <ele>796</ele>
        <time>2017-02-28T06:13:51Z</time>
      </trkpt>
      <trkpt lat="44.38638" lon="3.51584">
        <ele>801</ele>
        <time>2017-02-28T06:15:51Z</time>
      </trkpt>
      <trkpt lat="44.38666" lon="3.51562">
        <ele>804</ele>
        <time>2017-02-28T06:17:51Z</time>
      </trkpt>
      <trkpt lat="44.38693" lon="3.51539">
        <ele>808</ele>
        <time>2017-02-28T06:19:51Z</time>
      </trkpt>
      <trkpt lat="44.38716" lon="3.51519">
        <ele>812</ele>
        <time>2017-02-28T06:21:51Z</time>
      </trkpt>
      <trkpt lat="44.38737" lon="3.51499">
        <ele>815</ele>
        <time>2017-02-28T06:23:51Z</time>
      </trkpt>
      <trkpt lat="44.38762" lon="3.51469">
        <ele>817</ele>
        <time>2017-02-28T06:25:51Z</time>
      </trkpt>
      <trkpt lat="44.38792" lon="3.51431">
        <ele>819</ele>
        <time>2017-02-28T06:27:51Z</time>
      </trkpt>
      <trkpt lat="44.38819" lon="3.51397">
        <ele>823</ele>
        <time>2017-02-28T06:29:51Z</time>
      </trkpt>
      <trkpt lat="44.3884" lon="3.5137">
        <ele>823</ele>
        <time>2017-02-28T06:31:51Z</time>
      </trkpt>
      <trkpt lat="44.38861" lon="3.5135">
        <ele>825</ele>
        <time>2017-02-28T06:33:51Z</time>
      </trkpt>
      <trkpt lat="44.3888" lon="3.51336">
        <ele>828</ele>
        <time>2017-02-28T06:35:51Z</time>
      </trkpt>
      <trkpt lat="44.38915" lon="3.5131">
        <ele>834</ele>
        <time>2017-02-28T06:37:51Z</time>
      </trkpt>
      <trkpt lat="44.38928" lon="3.51297">
        <ele>835</ele>
        <time>2017-02-28T06:39:51Z</time>
      </trkpt>
      <trkpt lat="44.38942" lon="3.51277">
        <ele>833</ele>
        <time>2017-02-28T06:41:51Z</time>
      </trkpt>
      <trkpt lat="44.38951" lon="3.51267">
        <ele>833</ele>
        <time>2017-02-28T06:43:51Z</time>
      </trkpt>
      <trkpt lat="44.38965" lon="3.51256">
        <ele>834</ele>
        <time>2017-02-28T06:45:51Z</time>
      </trkpt>
      <trkpt lat="44.38989" lon="3.51241">
        <ele>838</ele>
        <time>2017-02-28T06:47:51Z</time>
      </trkpt>
      <trkpt lat="44.39021" lon="3.51219">
        <ele>844</ele>
        <time>2017-02-28T06:49:51Z</time>
      </trkpt>
      <trkpt lat="44.39038" lon="3.51203">
        <ele>846</ele>
        <time>2017-02-28T06:51:51Z</time>
      </trkpt>
      <trkpt lat="44.39065" lon="3.51177">
        <ele>846</ele>
        <time>2017-02-28T06:53:51Z</time>
      </trkpt>
      <trkpt lat="44.39098" lon="3.51144">
        <ele>849</ele>
        <time>2017-02-28T06:55:51Z</time>
      </trkpt>
      <trkpt lat="44.39129" lon="3.51112">
        <ele>852</ele>
        <time>2017-02-28T06:57:51Z</time>
      </trkpt>
      <trkpt lat="44.3915" lon="3.51094">
        <ele>852</ele>
        <time>2017-02-28T06:59:51Z</time>
      </trkpt>
      <trkpt lat="44.39174" lon="3.51076">
        <ele>853</ele>
        <time>2017-02-28T07:01:51Z</time>
      </trkpt>
      <trkpt lat="44.39199" lon="3.51061">
        <ele>856</ele>
        <time>2017-02-28T07:03:51Z</time>
      </trkpt>
      <trkpt lat="44.39213" lon="3.51057">
        <ele>858</ele>
        <time>2017-02-28T07:05:51Z</time>
      </trkpt>
      <trkpt lat="44.39226" lon="3.51057">
        <ele>861</ele>
        <time>2017-02-28T07:07:51Z</time>
      </trkpt>
      <trkpt lat="44.39249" lon="3.5106">
        <ele>866</ele>
        <time>2017-02-28T07:09:51Z</time>
      </trkpt>
      <trkpt lat="44.39258" lon="3.51058">
        <ele>868</ele>
        <time>2017-02-28T07:11:51Z</time>
      </trkpt>
      <trkpt lat="44.39267" lon="3.51053">
        <ele>869</ele>
        <time>2017-02-28T07:13:51Z</time>
      </trkpt>
      <trkpt lat="44.39272" lon="3.51046">
        <ele>868</ele>
        <time>2017-02-28T07:15:51Z</time>
      </trkpt>
      <trkpt lat="44.39284" lon="3.51026">
        <ele>866</ele>
        <time>2017-02-28T07:17:51Z</time>
      </trkpt>
      <trkpt lat="44.39294" lon="3.51017">
        <ele>865</ele>
        <time>2017-02-28T07:19:51Z</time>
      </trkpt>
      <trkpt lat="44.39333" lon="3.50986">
        <ele>868</ele>
        <time>2017-02-28T07:21:51Z</time>
      </trkpt>
      <trkpt lat="44.39365" lon="3.5096">
        <ele>875</ele>
        <time>2017-02-28T07:23:51Z</time>
      </trkpt>
      <trkpt lat="44.39372" lon="3.50953">
        <ele>876</ele>
        <time>2017-02-28T07:25:51Z</time>
      </trkpt>
      <trkpt lat="44.39381" lon="3.50942">
        <ele>876</ele>
        <time>2017-02-28T07:27:51Z</time>
      </trkpt>
      <trkpt lat="44.39392" lon="3.50929">
        <ele>876</ele>
        <time>2017-02-28T07:29:51Z</time>
      </trkpt>
      <trkpt lat="44.39409" lon="3.50908">
        <ele>876</ele>
        <time>2017-02-28T07:31:51Z</time>
      </trkpt>
      <trkpt lat="44.39411" lon="3.50906">
        <ele>876</ele>
        <time>2017-02-28T07:33:51Z</time>
      </trkpt>
      <trkpt lat="44.39423" lon="3.50892">
        <ele>878</ele>
        <time>2017-02-28T07:35:51Z</time>
      </trkpt>
      <trkpt lat="44.39447" lon="3.50873">
        <ele>881</ele>
        <time>2017-02-28T07:37:51Z</time>
      </trkpt>
      <trkpt lat="44.39447" lon="3.50873">
        <ele>881</ele>
        <time>2017-02-28T07:39:51Z</time>
      </trkpt>
      <trkpt lat="44.39447" lon="3.50871">
        <ele>881</ele>
        <time>2017-02-28T07:41:51Z</time>
      </trkpt>
      <trkpt lat="44.39447" lon="3.5087">
        <ele>881</ele>
        <time>2017-02-28T07:43:51Z</time>
      </trkpt>
      <trkpt lat="44.39448" lon="3.50866">
        <ele>880</ele>
        <time>2017-02-28T07:45:51Z</time>
      </trkpt>
      <trkpt lat="44.39449" lon="3.50863">
        <ele>880</ele>
        <time>2017-02-28T07:47:51Z</time>
      </trkpt>
      <trkpt lat="44.39456" lon="3.50847">
        <ele>879</ele>
        <time>2017-02-28T07:49:51Z</time>
      </trkpt>
      <trkpt lat="44.39458" lon="3.50844">
        <ele>879</ele>
        <time>2017-02-28T07:51:51Z</time>
      </trkpt>
      <trkpt lat="44.39458" lon="3.50843">
        <ele>879</ele>
        <time>2017-02-28T07:53:51Z</time>
      </trkpt>
      <trkpt lat="44.39458" lon="3.50841">
        <ele>879</ele>
        <time>2017-02-28T07:55:51Z</time>
      </trkpt>
      <trkpt lat="44.39458" lon="3.50839">
        <ele>878</ele>
        <time>2017-02-28T07:57:51Z</time>
      </trkpt>
      <trkpt lat="44.39458" lon="3.50836">
        <ele>878</ele>
        <time>2017-02-28T07:59:51Z</time>
      </trkpt>
      <trkpt lat="44.39458" lon="3.50835">
        <ele>878</ele>
        <time>2017-02-28T08:01:51Z</time>
      </trkpt>
      <trkpt lat="44.39457" lon="3.50833">
        <ele>877</ele>
        <time>2017-02-28T08:03:51Z</time>
      </trkpt>
      <trkpt lat="44.39455" lon="3.50831">
        <ele>878</ele>
        <time>2017-02-28T08:05:51Z</time>
      </trkpt>
      <trkpt lat="44.39453" lon="3.50829">
        <ele>878</ele>
        <time>2017-02-28T08:07:51Z</time>
      </trkpt>
      <trkpt lat="44.39445" lon="3.50826">
        <ele>879</ele>
        <time>2017-02-28T08:09:51Z</time>
      </trkpt>
      <trkpt lat="44.39437" lon="3.50824">
        <ele>879</ele>
        <time>2017-02-28T08:11:51Z</time>
      </trkpt>
      <trkpt lat="44.3943" lon="3.50824">
        <ele>878</ele>
        <time>2017-02-28T08:13:51Z</time>
      </trkpt>
      <trkpt lat="44.39407" lon="3.50831">
        <ele>877</ele>
        <time>2017-02-28T08:15:51Z</time>
      </trkpt>
      <trkpt lat="44.3937" lon="3.50846">
        <ele>882</ele>
        <time>2017-02-28T08:17:51Z</time>
      </trkpt>
      <trkpt lat="44.39337" lon="3.50862">
        <ele>882</ele>
        <time>2017-02-28T08:19:51Z</time>
      </trkpt>
      <trkpt lat="44.39322" lon="3.50866">
        <ele>881</ele>
        <time>2017-02-28T08:21:51Z</time>
      </trkpt>
      <trkpt lat="44.39308" lon="3.50866">
        <ele>881</ele>
        <time>2017-02-28T08:23:51Z</time>
      </trkpt>
      <trkpt lat="44.39285" lon="3.50866">
        <ele>882</ele>
        <time>2017-02-28T08:25:51Z</time>
      </trkpt>
      <trkpt lat="44.3928" lon="3.50865">
        <ele>882</ele>
        <time>2017-02-28T08:27:51Z</time>
      </trkpt>
      <trkpt lat="44.39276" lon="3.50864">
        <ele>883</ele>
        <time>2017-02-28T08:29:51Z</time>
      </trkpt>
      <trkpt lat="44.3927" lon="3.50861">
        <ele>884</ele>
        <time>2017-02-28T08:31:51Z</time>
      </trkpt>
      <trkpt lat="44.39264" lon="3.50855">
        <ele>886</ele>
        <time>2017-02-28T08:33:51Z</time>
      </trkpt>
      <trkpt lat="44.39262" lon="3.50853">
        <ele>886</ele>
        <time>2017-02-28T08:35:51Z</time>
      </trkpt>
      <trkpt lat="44.3926" lon="3.5085">
        <ele>887</ele>
        <time>2017-02-28T08:37:51Z</time>
      </trkpt>
      <trkpt lat="44.39258" lon="3.50847">
        <ele>888</ele>
        <time>2017-02-28T08:39:51Z</time>
      </trkpt>
      <trkpt lat="44.39257" lon="3.50845">
        <ele>889</ele>
        <time>2017-02-28T08:41:51Z</time>
      </trkpt>
      <trkpt lat="44.39256" lon="3.50842">
        <ele>889</ele>
        <time>2017-02-28T08:43:51Z</time>
      </trkpt>
      <trkpt lat="44.39256" lon="3.50839">
        <ele>890</ele>
        <time>2017-02-28T08:45:51Z</time>
      </trkpt>
      <trkpt lat="44.39255" lon="3.50836">
        <ele>891</ele>
        <time>2017-02-28T08:47:51Z</time>
      </trkpt>
      <trkpt lat="44.39256" lon="3.50833">
        <ele>892</ele>
        <time>2017-02-28T08:49:51Z</time>
      </trkpt>
      <trkpt lat="44.39256" lon="3.50831">
        <ele>892</ele>
        <time>2017-02-28T08:51:51Z</time>
      </trkpt>
      <trkpt lat="44.39258" lon="3.50827">
        <ele>893</ele>
        <time>2017-02-28T08:53:51Z</time>
      </trkpt>
      <trkpt lat="44.39255" lon="3.50822">
        <ele>894</ele>
        <time>2017-02-28T08:55:51Z</time>
      </trkpt>
      <trkpt lat="44.3925" lon="3.50807">
        <ele>897</ele>
        <time>2017-02-28T08:57:51Z</time>
      </trkpt>
      <trkpt lat="44.39245" lon="3.50792">
        <ele>899</ele>
        <time>2017-02-28T08:59:51Z</time>
      </trkpt>
      <trkpt lat="44.39244" lon="3.50791">
        <ele>899</ele>
        <time>2017-02-28T09:01:51Z</time>
      </trkpt>
      <trkpt lat="44.39243" lon="3.50787">
        <ele>900</ele>
        <time>2017-02-28T09:03:51Z</time>
      </trkpt>
      <trkpt lat="44.39241" lon="3.50782">
        <ele>901</ele>
        <time>2017-02-28T09:05:51Z</time>
      </trkpt>
      <trkpt lat="44.39235" lon="3.50771">
        <ele>902</ele>
        <time>2017-02-28T09:07:51Z</time>
      </trkpt>
      <trkpt lat="44.39228" lon="3.50757">
        <ele>904</ele>
        <time>2017-02-28T09:09:51Z</time>
      </trkpt>
      <trkpt lat="44.39227" lon="3.50755">
        <ele>904</ele>
        <time>2017-02-28T09:11:51Z</time>
      </trkpt>
      <trkpt lat="44.39227" lon="3.50754">
        <ele>904</ele>
        <time>2017-02-28T09:13:51Z</time>
      </trkpt>
      <trkpt lat="44.39227" lon="3.50752">
        <ele>905</ele>
        <time>2017-02-28T09:15:51Z</time>
      </trkpt>
      <trkpt lat="44.39227" lon="3.50751">
        <ele>905</ele>
        <time>2017-02-28T09:17:51Z</time>
      </trkpt>
      <trkpt lat="44.39227" lon="3.50751">
        <ele>905</ele>
        <time>2017-02-28T09:19:51Z</time>
      </trkpt>
      <trkpt lat="44.39227" lon="3.50749">
        <ele>905</ele>
        <time>2017-02-28T09:21:51Z</time>
      </trkpt>
      <trkpt lat="44.39227" lon="3.50747">
        <ele>906</ele>
        <time>2017-02-28T09:23:51Z</time>
      </trkpt>
      <trkpt lat="44.39228" lon="3.50746">
        <ele>906</ele>
        <time>2017-02-28T09:25:51Z</time>
      </trkpt>
      <trkpt lat="44.39229" lon="3.50745">
        <ele>907</ele>
        <time>2017-02-28T09:27:51Z</time>
      </trkpt>
      <trkpt lat="44.3923" lon="3.50744">
        <ele>907</ele>
        <time>2017-02-28T09:29:51Z</time>
      </trkpt>
      <trkpt lat="44.39232" lon="3.50744">
        <ele>907</ele>
        <time>2017-02-28T09:31:51Z</time>
      </trkpt>
      <trkpt lat="44.39235" lon="3.50746">
        <ele>907</ele>
        <time>2017-02-28T09:33:51Z</time>
      </trkpt>
      <trkpt lat="44.39238" lon="3.50749">
        <ele>907</ele>
        <time>2017-02-28T09:35:51Z</time>
      </trkpt>
      <trkpt lat="44.39244" lon="3.50753">
        <ele>907</ele>
        <time>2017-02-28T09:37:51Z</time>
      </trkpt>
      <trkpt lat="44.39245" lon="3.50754">
        <ele>907</ele>
        <time>2017-02-28T09:39:51Z</time>
      </trkpt>
      <trkpt lat="44.39246" lon="3.50754">
        <ele>907</ele>
        <time>2017-02-28T09:41:51Z</time>
      </trkpt>
      <trkpt lat="44.39247" lon="3.50753">
        <ele>908</ele>
        <time>2017-02-28T09:43:51Z</time>
      </trkpt>
      <trkpt lat="44.39248" lon="3.50752">
        <ele>908</ele>
        <time>2017-02-28T09:45:51Z</time>
      </trkpt>
      <trkpt lat="44.39248" lon="3.50752">
        <ele>908</ele>
        <time>2017-02-28T09:47:51Z</time>
      </trkpt>
      <trkpt lat="44.39245" lon="3.50745">
        <ele>909</ele>
        <time>2017-02-28T09:49:51Z</time>
      </trkpt>
      <trkpt lat="44.39239" lon="3.50737">
        <ele>910</ele>
        <time>2017-02-28T09:51:51Z</time>
      </trkpt>
      <trkpt lat="44.39229" lon="3.50724">
        <ele>911</ele>
        <time>2017-02-28T09:53:51Z</time>
      </trkpt>
      <trkpt lat="44.39219" lon="3.50712">
        <ele>912</ele>
        <time>2017-02-28T09:55:51Z</time>
      </trkpt>
      <trkpt lat="44.39211" lon="3.50702">
        <ele>913</ele>
        <time>2017-02-28T09:57:51Z</time>
      </trkpt>
      <trkpt lat="44.392" lon="3.50692">
        <ele>913</ele>
        <time>2017-02-28T09:59:51Z</time>
      </trkpt>
      <trkpt lat="44.39194" lon="3.50688">
        <ele>913</ele>
        <time>2017-02-28T10:01:51Z</time>
      </trkpt>
      <trkpt lat="44.39194" lon="3.50688">
        <ele>913</ele>
        <time>2017-02-28T10:03:51Z</time>
      </trkpt>
      <trkpt lat="44.39183" lon="3.50674">
        <ele>915</ele>
        <time>2017-02-28T10:05:51Z</time>
      </trkpt>
      <trkpt lat="44.39178" lon="3.50668">
        <ele>915</ele>
        <time>2017-02-28T10:07:51Z</time>
      </trkpt>
      <trkpt lat="44.39173" lon="3.50658">
        <ele>917</ele>
        <time>2017-02-28T10:09:51Z</time>
      </trkpt>
      <trkpt lat="44.39165" lon="3.5064">
        <ele>921</ele>
        <time>2017-02-28T10:11:51Z</time>
      </trkpt>
      <trkpt lat="44.39163" lon="3.50635">
        <ele>922</ele>
        <time>2017-02-28T10:13:51Z</time>
      </trkpt>
      <trkpt lat="44.39161" lon="3.50628">
        <ele>923</ele>
        <time>2017-02-28T10:15:51Z</time>
      </trkpt>
      <trkpt lat="44.39158" lon="3.50623">
        <ele>924</ele>
        <time>2017-02-28T10:17:51Z</time>
      </trkpt>
      <trkpt lat="44.39149" lon="3.50612">
        <ele>924</ele>
        <time>2017-02-28T10:19:51Z</time>
      </trkpt>
      <trkpt lat="44.39137" lon="3.50595">
        <ele>925</ele>
        <time>2017-02-28T10:21:51Z</time>
      </trkpt>
      <trkpt lat="44.39122" lon="3.50576">
        <ele>925</ele>
        <time>2017-02-28T10:23:51Z</time>
      </trkpt>
      <trkpt lat="44.39109" lon="3.50555">
        <ele>925</ele>
        <time>2017-02-28T10:25:51Z</time>
      </trkpt>
      <trkpt lat="44.39105" lon="3.50546">
        <ele>925</ele>
        <time>2017-02-28T10:27:51Z</time>
      </trkpt>
      <trkpt lat="44.39101" lon="3.50538">
        <ele>925</ele>
        <time>2017-02-28T10:29:51Z</time>
      </trkpt>
      <trkpt lat="44.39098" lon="3.50529">
        <ele>926</ele>
        <time>2017-02-28T10:31:51Z</time>
      </trkpt>
      <trkpt lat="44.39096" lon="3.50519">
        <ele>927</ele>
        <time>2017-02-28T10:33:51Z</time>
      </trkpt>
      <trkpt lat="44.39095" lon="3.50509">
        <ele>929</ele>
        <time>2017-02-28T10:35:51Z</time>
      </trkpt>
      <trkpt lat="44.39095" lon="3.50499">
        <ele>930</ele>
        <time>2017-02-28T10:37:51Z</time>
      </trkpt>
      <trkpt lat="44.39096" lon="3.50476">
        <ele>933</ele>
        <time>2017-02-28T10:39:51Z</time>
      </trkpt>
      <trkpt lat="44.39096" lon="3.50466">
        <ele>934</ele>
        <time>2017-02-28T10:41:51Z</time>
      </trkpt>
      <trkpt lat="44.39096" lon="3.50458">
        <ele>935</ele>
        <time>2017-02-28T10:43:51Z</time>
      </trkpt>
      <trkpt lat="44.39094" lon="3.50448">
        <ele>936</ele>
        <time>2017-02-28T10:45:51Z</time>
      </trkpt>
      <trkpt lat="44.39091" lon="3.50437">
        <ele>937</ele>
        <time>2017-02-28T10:47:51Z</time>
      </trkpt>
      <trkpt lat="44.39087" lon="3.50426">
        <ele>937</ele>
        <time>2017-02-28T10:49:51Z</time>
      </trkpt>
      <trkpt lat="44.3908" lon="3.50407">
        <ele>939</ele>
        <time>2017-02-28T10:51:51Z</time>
      </trkpt>
      <trkpt lat="44.39077" lon="3.50395">
        <ele>940</ele>
        <time>2017-02-28T10:53:51Z</time>
      </trkpt>
      <trkpt lat="44.39075" lon="3.50386">
        <ele>942</ele>
        <time>2017-02-28T10:55:51Z</time>
      </trkpt>
      <trkpt lat="44.39074" lon="3.50376">
        <ele>943</ele>
        <time>2017-02-28T10:57:51Z</time>
      </trkpt>
      <trkpt lat="44.39073" lon="3.50351">
        <ele>947</ele>
        <time>2017-02-28T10:59:51Z</time>
      </trkpt>
      <trkpt lat="44.39071" lon="3.50337">
        <ele>949</ele>
        <time>2017-02-28T11:01:51Z</time>
      </trkpt>
      <trkpt lat="44.39069" lon="3.50324">
        <ele>950</ele>
        <time>2017-02-28T11:03:51Z</time>
      </trkpt>
      <trkpt lat="44.39066" lon="3.50314">
        <ele>951</ele>
        <time>2017-02-28T11:05:51Z</time>
      </trkpt>
      <trkpt lat="44.39061" lon="3.50303">
        <ele>952</ele>
        <time>2017-02-28T11:07:51Z</time>
      </trkpt>
      <trkpt lat="44.39057" lon="3.50295">
        <ele>953</ele>
        <time>2017-02-28T11:09:51Z</time>
      </trkpt>
      <trkpt lat="44.39049" lon="3.50276">
        <ele>955</ele>
        <time>2017-02-28T11:11:51Z</time>
      </trkpt>
      <trkpt lat="44.39046" lon="3.50265">
        <ele>956</ele>
        <time>2017-02-28T11:13:51Z</time>
      </trkpt>
      <trkpt lat="44.39044" lon="3.50255">
        <ele>956</ele>
        <time>2017-02-28T11:15:51Z</time>
      </trkpt>
      <trkpt lat="44.39042" lon="3.50243">
        <ele>957</ele>
        <time>2017-02-28T11:17:51Z</time>
      </trkpt>
      <trkpt lat="44.39042" lon="3.5023">
        <ele>958</ele>
        <time>2017-02-28T11:19:51Z</time>
      </trkpt>
      <trkpt lat="44.39041" lon="3.50222">
        <ele>959</ele>
        <time>2017-02-28T11:21:51Z</time>
      </trkpt>
      <trkpt lat="44.39042" lon="3.50215">
        <ele>959</ele>
        <time>2017-02-28T11:23:51Z</time>
      </trkpt>
      <trkpt lat="44.39044" lon="3.50205">
        <ele>960</ele>
        <time>2017-02-28T11:25:51Z</time>
      </trkpt>
      <trkpt lat="44.39046" lon="3.50199">
        <ele>960</ele>
        <time>2017-02-28T11:27:51Z</time>
      </trkpt>
      <trkpt lat="44.39046" lon="3.50193">
        <ele>961</ele>
        <time>2017-02-28T11:29:51Z</time>
      </trkpt>
      <trkpt lat="44.39046" lon="3.50187">
        <ele>961</ele>
        <time>2017-02-28T11:31:51Z</time>
      </trkpt>
      <trkpt lat="44.39045" lon="3.50181">
        <ele>961</ele>
        <time>2017-02-28T11:33:51Z</time>
      </trkpt>
      <trkpt lat="44.39041" lon="3.50171">
        <ele>962</ele>
        <time>2017-02-28T11:35:51Z</time>
      </trkpt>
      <trkpt lat="44.39039" lon="3.50165">
        <ele>963</ele>
        <time>2017-02-28T11:37:51Z</time>
      </trkpt>
      <trkpt lat="44.39038" lon="3.50154">
        <ele>963</ele>
        <time>2017-02-28T11:39:51Z</time>
      </trkpt>
      <trkpt lat="44.39032" lon="3.50127">
        <ele>964</ele>
        <time>2017-02-28T11:41:51Z</time>
      </trkpt>
      <trkpt lat="44.39028" lon="3.5011">
        <ele>964</ele>
        <time>2017-02-28T11:43:51Z</time>
      </trkpt>
      <trkpt lat="44.3902" lon="3.50086">
        <ele>965</ele>
        <time>2017-02-28T11:45:51Z</time>
      </trkpt>
      <trkpt lat="44.39003" lon="3.50049">
        <ele>968</ele>
        <time>2017-02-28T11:47:51Z</time>
      </trkpt>
      <trkpt lat="44.38997" lon="3.50035">
        <ele>969</ele>
        <time>2017-02-28T11:49:51Z</time>
      </trkpt>
      <trkpt lat="44.38979" lon="3.49995">
        <ele>975</ele>
        <time>2017-02-28T11:51:51Z</time>
      </trkpt>
      <trkpt lat="44.38961" lon="3.49952">
        <ele>979</ele>
        <time>2017-02-28T11:53:51Z</time>
      </trkpt>
      <trkpt lat="44.38943" lon="3.49916">
        <ele>983</ele>
        <time>2017-02-28T11:55:51Z</time>
      </trkpt>
      <trkpt lat="44.38931" lon="3.49893">
        <ele>985</ele>
        <time>2017-02-28T11:57:51Z</time>
      </trkpt>
      <trkpt lat="44.38914" lon="3.49845">
        <ele>989</ele>
        <time>2017-02-28T11:59:51Z</time>
      </trkpt>
      <trkpt lat="44.38907" lon="3.49824">
        <ele>990</ele>
        <time>2017-02-28T12:01:51Z</time>
      </trkpt>
      <trkpt lat="44.38904" lon="3.49802">
        <ele>992</ele>
        <time>2017-02-28T12:03:51Z</time>
      </trkpt>
      <trkpt lat="44.38899" lon="3.4977">
        <ele>995</ele>
        <time>2017-02-28T12:05:51Z</time>
      </trkpt>
      <trkpt lat="44.38899" lon="3.49745">
        <ele>997</ele>
        <time>2017-02-28T12:07:51Z</time>
      </trkpt>
      <trkpt lat="44.38901" lon="3.49714">
        <ele>1000</ele>
        <time>2017-02-28T12:09:51Z</time>
      </trkpt>
      <trkpt lat="44.38903" lon="3.49681">
        <ele>1003</ele>
        <time>2017-02-28T12:11:51Z</time>
      </trkpt>
      <trkpt lat="44.38901" lon="3.49645">
        <ele>1006</ele>
        <time>2017-02-28T12:13:51Z</time>
      </trkpt>
      <trkpt lat="44.38898" lon="3.49607">
        <ele>1009</ele>
        <time>2017-02-28T12:15:51Z</time>
      </trkpt>
      <trkpt lat="44.38893" lon="3.49557">
        <ele>1013</ele>
        <time>2017-02-28T12:17:51Z</time>
      </trkpt>
      <trkpt lat="44.38889" lon="3.49514">
        <ele>1015</ele>
        <time>2017-02-28T12:19:51Z</time>
      </trkpt>
      <trkpt lat="44.38888" lon="3.49489">
        <ele>1016</ele>
        <time>2017-02-28T12:21:51Z</time>
      </trkpt>
      <trkpt lat="44.3889" lon="3.49467">
        <ele>1017</ele>
        <time>2017-02-28T12:23:51Z</time>
      </trkpt>
      <trkpt lat="44.38892" lon="3.49443">
        <ele>1018</ele>
        <time>2017-02-28T12:25:51Z</time>
      </trkpt>
      <trkpt lat="44.3889" lon="3.49416">
        <ele>1020</ele>
        <time>2017-02-28T12:27:51Z</time>
      </trkpt>
      <trkpt lat="44.38885" lon="3.49397">
        <ele>1021</ele>
        <time>2017-02-28T12:29:51Z</time>
      </trkpt>
      <trkpt lat="44.38874" lon="3.49372">
        <ele>1021</ele>
        <time>2017-02-28T12:31:51Z</time>
      </trkpt>
      <trkpt lat="44.38874" lon="3.49372">
        <ele>1021</ele>
        <time>2017-02-28T12:33:51Z</time>
      </trkpt>
      <trkpt lat="44.38864" lon="3.49386">
        <ele>1021</ele>
        <time>2017-02-28T12:35:51Z</time>
      </trkpt>
      <trkpt lat="44.38856" lon="3.49396">
        <ele>1020</ele>
        <time>2017-02-28T12:37:51Z</time>
      </trkpt>
      <trkpt lat="44.38845" lon="3.49412">
        <ele>1021</ele>
        <time>2017-02-28T12:39:51Z</time>
      </trkpt>
      <trkpt lat="44.38827" lon="3.49442">
        <ele>1020</ele>
        <time>2017-02-28T12:41:51Z</time>
      </trkpt>
      <trkpt lat="44.3882" lon="3.49451">
        <ele>1020</ele>
        <time>2017-02-28T12:43:51Z</time>
      </trkpt>
      <trkpt lat="44.38803" lon="3.49467">
        <ele>1019</ele>
        <time>2017-02-28T12:45:51Z</time>
      </trkpt>
      <trkpt lat="44.38798" lon="3.49475">
        <ele>1019</ele>
        <time>2017-02-28T12:47:51Z</time>
      </trkpt>
      <trkpt lat="44.38792" lon="3.49487">
        <ele>1019</ele>
        <time>2017-02-28T12:49:51Z</time>
      </trkpt>
      <trkpt lat="44.38788" lon="3.49501">
        <ele>1019</ele>
        <time>2017-02-28T12:51:51Z</time>
      </trkpt>
      <trkpt lat="44.38781" lon="3.4953">
        <ele>1018</ele>
        <time>2017-02-28T12:53:51Z</time>
      </trkpt>
      <trkpt lat="44.38774" lon="3.49564">
        <ele>1017</ele>
        <time>2017-02-28T12:55:51Z</time>
      </trkpt>
      <trkpt lat="44.38767" lon="3.49594">
        <ele>1016</ele>
        <time>2017-02-28T12:57:51Z</time>
      </trkpt>
      <trkpt lat="44.38765" lon="3.4961">
        <ele>1015</ele>
        <time>2017-02-28T12:59:51Z</time>
      </trkpt>
      <trkpt lat="44.38765" lon="3.49628">
        <ele>1014</ele>
        <time>2017-02-28T13:01:51Z</time>
      </trkpt>
      <trkpt lat="44.38766" lon="3.49661">
        <ele>1013</ele>
        <time>2017-02-28T13:03:51Z</time>
      </trkpt>
      <trkpt lat="44.38765" lon="3.49673">
        <ele>1013</ele>
        <time>2017-02-28T13:05:51Z</time>
      </trkpt>
      <trkpt lat="44.38765" lon="3.49673">
        <ele>1013</ele>
        <time>2017-02-28T13:07:51Z</time>
      </trkpt>
      <trkpt lat="44.38757" lon="3.4966">
        <ele>1013</ele>
        <time>2017-02-28T13:09:51Z</time>
      </trkpt>
      <trkpt lat="44.38752" lon="3.49643">
        <ele>1014</ele>
        <time>2017-02-28T13:11:51Z</time>
      </trkpt>
      <trkpt lat="44.38743" lon="3.49618">
        <ele>1014</ele>
        <time>2017-02-28T13:13:51Z</time>
      </trkpt>
      <trkpt lat="44.38734" lon="3.49595">
        <ele>1015</ele>
        <time>2017-02-28T13:15:51Z</time>
      </trkpt>
      <trkpt lat="44.38727" lon="3.4957">
        <ele>1015</ele>
        <time>2017-02-28T13:17:51Z</time>
      </trkpt>
      <trkpt lat="44.3872" lon="3.49546">
        <ele>1016</ele>
        <time>2017-02-28T13:19:51Z</time>
      </trkpt>
      <trkpt lat="44.38709" lon="3.4952">
        <ele>1016</ele>
        <time>2017-02-28T13:21:51Z</time>
      </trkpt>
      <trkpt lat="44.387" lon="3.49502">
        <ele>1016</ele>
        <time>2017-02-28T13:23:51Z</time>
      </trkpt>
      <trkpt lat="44.3869" lon="3.49488">
        <ele>1015</ele>
        <time>2017-02-28T13:25:51Z</time>
      </trkpt>
      <trkpt lat="44.38681" lon="3.4948">
        <ele>1014</ele>
        <time>2017-02-28T13:27:51Z</time>
      </trkpt>
      <trkpt lat="44.38667" lon="3.49474">
        <ele>1013</ele>
        <time>2017-02-28T13:29:51Z</time>
      </trkpt>
      <trkpt lat="44.38639" lon="3.4947">
        <ele>1013</ele>
        <time>2017-02-28T13:31:51Z</time>
      </trkpt>
      <trkpt lat="44.38616" lon="3.49468">
        <ele>1013</ele>
        <time>2017-02-28T13:33:51Z</time>
      </trkpt>
      <trkpt lat="44.38588" lon="3.49469">
        <ele>1013</ele>
        <time>2017-02-28T13:35:51Z</time>
      </trkpt>
      <trkpt lat="44.38578" lon="3.4947">
        <ele>1013</ele>
        <time>2017-02-28T13:37:51Z</time>
      </trkpt>
      <trkpt lat="44.38548" lon="3.49475">
        <ele>1015</ele>
        <time>2017-02-28T13:39:51Z</time>
      </trkpt>
      <trkpt lat="44.38533" lon="3.49478">
        <ele>1015</ele>
        <time>2017-02-28T13:41:51Z</time>
      </trkpt>
      <trkpt lat="44.38523" lon="3.49484">
        <ele>1016</ele>
        <time>2017-02-28T13:43:51Z</time>
      </trkpt>
      <trkpt lat="44.38506" lon="3.49495">
        <ele>1017</ele>
        <time>2017-02-28T13:45:51Z</time>
      </trkpt>
      <trkpt lat="44.38474" lon="3.49519">
        <ele>1015</ele>
        <time>2017-02-28T13:47:51Z</time>
      </trkpt>
      <trkpt lat="44.38449" lon="3.49532">
        <ele>1014</ele>
        <time>2017-02-28T13:49:51Z</time>
      </trkpt>
      <trkpt lat="44.38424" lon="3.49541">
        <ele>1013</ele>
        <time>2017-02-28T13:51:51Z</time>
      </trkpt>
      <trkpt lat="44.38403" lon="3.49547">
        <ele>1011</ele>
        <time>2017-02-28T13:53:51Z</time>
      </trkpt>
      <trkpt lat="44.38377" lon="3.4955">
        <ele>1009</ele>
        <time>2017-02-28T13:55:51Z</time>
      </trkpt>
      <trkpt lat="44.38362" lon="3.49556">
        <ele>1008</ele>
        <time>2017-02-28T13:57:51Z</time>
      </trkpt>
      <trkpt lat="44.38351" lon="3.49565">
        <ele>1007</ele>
        <time>2017-02-28T13:59:51Z</time>
      </trkpt>
      <trkpt lat="44.38349" lon="3.49566">
        <ele>1007</ele>
        <time>2017-02-28T14:01:51Z</time>
      </trkpt>
      <trkpt lat="44.38343" lon="3.4957">
        <ele>1007</ele>
        <time>2017-02-28T14:03:51Z</time>
      </trkpt>
      <trkpt lat="44.38343" lon="3.4957">
        <ele>1007</ele>
        <time>2017-02-28T14:05:51Z</time>
      </trkpt>
      <trkpt lat="44.38335" lon="3.49572">
        <ele>1006</ele>
        <time>2017-02-28T14:07:51Z</time>
      </trkpt>
      <trkpt lat="44.3833" lon="3.49573">
        <ele>1006</ele>
        <time>2017-02-28T14:09:51Z</time>
      </trkpt>
      <trkpt lat="44.38324" lon="3.49572">
        <ele>1006</ele>
        <time>2017-02-28T14:11:51Z</time>
      </trkpt>
      <trkpt lat="44.3832" lon="3.49572">
        <ele>1006</ele>
        <time>2017-02-28T14:13:51Z</time>
      </trkpt>
      <trkpt lat="44.38315" lon="3.49572">
        <ele>1005</ele>
        <time>2017-02-28T14:15:51Z</time>
      </trkpt>
      <trkpt lat="44.38306" lon="3.4957">
        <ele>1005</ele>
        <time>2017-02-28T14:17:51Z</time>
      </trkpt>
      <trkpt lat="44.3829" lon="3.49566">
        <ele>1004</ele>
        <time>2017-02-28T14:19:51Z</time>
      </trkpt>
      <trkpt lat="44.38268" lon="3.49561">
        <ele>1003</ele>
        <time>2017-02-28T14:21:51Z</time>
      </trkpt>
      <trkpt lat="44.38262" lon="3.4956">
        <ele>1003</ele>
        <time>2017-02-28T14:23:51Z</time>
      </trkpt>
      <trkpt lat="44.38236" lon="3.49557">
        <ele>1001</ele>
        <time>2017-02-28T14:25:51Z</time>
      </trkpt>
      <trkpt lat="44.38219" lon="3.49551">
        <ele>1000</ele>
        <time>2017-02-28T14:27:51Z</time>
      </trkpt>
      <trkpt lat="44.38203" lon="3.49544">
        <ele>998</ele>
        <time>2017-02-28T14:29:51Z</time>
      </trkpt>
      <trkpt lat="44.3817" lon="3.49534">
        <ele>995</ele>
        <time>2017-02-28T14:31:51Z</time>
      </trkpt>
      <trkpt lat="44.38138" lon="3.49526">
        <ele>992</ele>
        <time>2017-02-28T14:33:51Z</time>
      </trkpt>
      <trkpt lat="44.38128" lon="3.4952">
        <ele>991</ele>
        <time>2017-02-28T14:35:51Z</time>
      </trkpt>
      <trkpt lat="44.38118" lon="3.49509">
        <ele>990</ele>
        <time>2017-02-28T14:37:51Z</time>
      </trkpt>
      <trkpt lat="44.38111" lon="3.49499">
        <ele>989</ele>
        <time>2017-02-28T14:39:51Z</time>
      </trkpt>
      <trkpt lat="44.38094" lon="3.49474">
        <ele>986</ele>
        <time>2017-02-28T14:41:51Z</time>
      </trkpt>
      <trkpt lat="44.38074" lon="3.49439">
        <ele>982</ele>
        <time>2017-02-28T14:43:51Z</time>
      </trkpt>
      <trkpt lat="44.38067" lon="3.49429">
        <ele>981</ele>
        <time>2017-02-28T14:45:51Z</time>
      </trkpt>
      <trkpt lat="44.38052" lon="3.49418">
        <ele>979</ele>
        <time>2017-02-28T14:47:51Z</time>
      </trkpt>
      <trkpt lat="44.38037" lon="3.49411">
        <ele>978</ele>
        <time>2017-02-28T14:49:51Z</time>
      </trkpt>
      <trkpt lat="44.38023" lon="3.49408">
        <ele>977</ele>
        <time>2017-02-28T14:51:51Z</time>
      </trkpt>
      <trkpt lat="44.38023" lon="3.49408">
        <ele>977</ele>
        <time>2017-02-28T14:53:51Z</time>
      </trkpt>
      <trkpt lat="44.38001" lon="3.49409">
        <ele>976</ele>
        <time>2017-02-28T14:55:51Z</time>
      </trkpt>
      <trkpt lat="44.37985" lon="3.49409">
        <ele>975</ele>
        <time>2017-02-28T14:57:51Z</time>
      </trkpt>
      <trkpt lat="44.37971" lon="3.49407">
        <ele>974</ele>
        <time>2017-02-28T14:59:51Z</time>
      </trkpt>
      <trkpt lat="44.37953" lon="3.49403">
        <ele>973</ele>
        <time>2017-02-28T15:01:51Z</time>
      </trkpt>
      <trkpt lat="44.3794" lon="3.49404">
        <ele>972</ele>
        <time>2017-02-28T15:03:51Z</time>
      </trkpt>
      <trkpt lat="44.37912" lon="3.49411">
        <ele>970</ele>
        <time>2017-02-28T15:05:51Z</time>
      </trkpt>
      <trkpt lat="44.37888" lon="3.49416">
        <ele>969</ele>
        <time>2017-02-28T15:07:51Z</time>
      </trkpt>
      <trkpt lat="44.37864" lon="3.49416">
        <ele>967</ele>
        <time>2017-02-28T15:09:51Z</time>
      </trkpt>
      <trkpt lat="44.37838" lon="3.49416">
        <ele>964</ele>
        <time>2017-02-28T15:11:51Z</time>
      </trkpt>
      <trkpt lat="44.37813" lon="3.49421">
        <ele>963</ele>
        <time>2017-02-28T15:13:51Z</time>
      </trkpt>
      <trkpt lat="44.37799" lon="3.49423">
        <ele>962</ele>
        <time>2017-02-28T15:15:51Z</time>
      </trkpt>
      <trkpt lat="44.37779" lon="3.49422">
        <ele>961</ele>
        <time>2017-02-28T15:17:51Z</time>
      </trkpt>
      <trkpt lat="44.37765" lon="3.49423">
        <ele>960</ele>
        <time>2017-02-28T15:19:51Z</time>
      </trkpt>
      <trkpt lat="44.37731" lon="3.49436">
        <ele>958</ele>
        <time>2017-02-28T15:21:51Z</time>
      </trkpt>
      <trkpt lat="44.37712" lon="3.49447">
        <ele>958</ele>
        <time>2017-02-28T15:23:51Z</time>
      </trkpt>
      <trkpt lat="44.37702" lon="3.49458">
        <ele>957</ele>
        <time>2017-02-28T15:25:51Z</time>
      </trkpt>
      <trkpt lat="44.37697" lon="3.4947">
        <ele>957</ele>
        <time>2017-02-28T15:27:51Z</time>
      </trkpt>
      <trkpt lat="44.37691" lon="3.4949">
        <ele>957</ele>
        <time>2017-02-28T15:29:51Z</time>
      </trkpt>
      <trkpt lat="44.37685" lon="3.49499">
        <ele>957</ele>
        <time>2017-02-28T15:31:51Z</time>
      </trkpt>
      <trkpt lat="44.37672" lon="3.49509">
        <ele>957</ele>
        <time>2017-02-28T15:33:51Z</time>
      </trkpt>
      <trkpt lat="44.37656" lon="3.49525">
        <ele>957</ele>
        <time>2017-02-28T15:35:51Z</time>
      </trkpt>
      <trkpt lat="44.37646" lon="3.49537">
        <ele>957</ele>
        <time>2017-02-28T15:37:51Z</time>
      </trkpt>
      <trkpt lat="44.37636" lon="3.49555">
        <ele>957</ele>
        <time>2017-02-28T15:39:51Z</time>
      </trkpt>
      <trkpt lat="44.3763" lon="3.49567">
        <ele>958</ele>
        <time>2017-02-28T15:41:51Z</time>
      </trkpt>
      <trkpt lat="44.37624" lon="3.49573">
        <ele>958</ele>
        <time>2017-02-28T15:43:51Z</time>
      </trkpt>
      <trkpt lat="44.376" lon="3.49588">
        <ele>958</ele>
        <time>2017-02-28T15:45:51Z</time>
      </trkpt>
      <trkpt lat="44.3758" lon="3.49601">
        <ele>958</ele>
        <time>2017-02-28T15:47:51Z</time>
      </trkpt>
      <trkpt lat="44.37568" lon="3.49611">
        <ele>957</ele>
        <time>2017-02-28T15:49:51Z</time>
      </trkpt>
      <trkpt lat="44.37552" lon="3.49624">
        <ele>957</ele>
        <time>2017-02-28T15:51:51Z</time>
      </trkpt>
      <trkpt lat="44.37539" lon="3.49633">
        <ele>957</ele>
        <time>2017-02-28T15:53:51Z</time>
      </trkpt>
      <trkpt lat="44.37525" lon="3.4964">
        <ele>956</ele>
        <time>2017-02-28T15:55:51Z</time>
      </trkpt>
      <trkpt lat="44.37515" lon="3.49648">
        <ele>956</ele>
        <time>2017-02-28T15:57:51Z</time>
      </trkpt>
      <trkpt lat="44.37505" lon="3.49656">
        <ele>955</ele>
        <time>2017-02-28T15:59:51Z</time>
      </trkpt>
      <trkpt lat="44.37495" lon="3.4966">
        <ele>955</ele>
        <time>2017-02-28T16:01:51Z</time>
      </trkpt>
      <trkpt lat="44.3748" lon="3.49661">
        <ele>954</ele>
        <time>2017-02-28T16:03:51Z</time>
      </trkpt>
      <trkpt lat="44.37462" lon="3.4966">
        <ele>953</ele>
        <time>2017-02-28T16:05:51Z</time>
      </trkpt>
      <trkpt lat="44.37442" lon="3.49663">
        <ele>952</ele>
        <time>2017-02-28T16:07:51Z</time>
      </trkpt>
      <trkpt lat="44.37423" lon="3.49671">
        <ele>951</ele>
        <time>2017-02-28T16:09:51Z</time>
      </trkpt>
      <trkpt lat="44.37399" lon="3.49686">
        <ele>950</ele>
        <time>2017-02-28T16:11:51Z</time>
      </trkpt>
      <trkpt lat="44.37361" lon="3.49705">
        <ele>949</ele>
        <time>2017-02-28T16:13:51Z</time>
      </trkpt>
      <trkpt lat="44.37324" lon="3.49721">
        <ele>949</ele>
        <time>2017-02-28T16:15:51Z</time>
      </trkpt>
      <trkpt lat="44.37295" lon="3.49733">
        <ele>950</ele>
        <time>2017-02-28T16:17:51Z</time>
      </trkpt>
      <trkpt lat="44.37286" lon="3.49737">
        <ele>950</ele>
        <time>2017-02-28T16:19:51Z</time>
      </trkpt>
      <trkpt lat="44.37257" lon="3.49746">
        <ele>951</ele>
        <time>2017-02-28T16:21:51Z</time>
      </trkpt>
      <trkpt lat="44.37225" lon="3.49754">
        <ele>951</ele>
        <time>2017-02-28T16:23:51Z</time>
      </trkpt>
      <trkpt lat="44.37195" lon="3.49764">
        <ele>951</ele>
        <time>2017-02-28T16:25:51Z</time>
      </trkpt>
      <trkpt lat="44.37177" lon="3.49772">
        <ele>951</ele>
        <time>2017-02-28T16:27:51Z</time>
      </trkpt>
      <trkpt lat="44.37165" lon="3.49781">
        <ele>951</ele>
        <time>2017-02-28T16:29:51Z</time>
      </trkpt>
      <trkpt lat="44.37132" lon="3.49812">
        <ele>953</ele>
        <time>2017-02-28T16:31:51Z</time>
      </trkpt>
      <trkpt lat="44.37104" lon="3.49833">
        <ele>955</ele>
        <time>2017-02-28T16:33:51Z</time>
      </trkpt>
      <trkpt lat="44.37085" lon="3.49848">
        <ele>955</ele>
        <time>2017-02-28T16:35:51Z</time>
      </trkpt>
      <trkpt lat="44.37079" lon="3.4985">
        <ele>956</ele>
        <time>2017-02-28T16:37:51Z</time>
      </trkpt>
      <trkpt lat="44.37066" lon="3.49854">
        <ele>957</ele>
        <time>2017-02-28T16:39:51Z</time>
      </trkpt>
      <trkpt lat="44.37018" lon="3.49855">
        <ele>960</ele>
        <time>2017-02-28T16:41:51Z</time>
      </trkpt>
      <trkpt lat="44.36996" lon="3.49855">
        <ele>961</ele>
        <time>2017-02-28T16:43:51Z</time>
      </trkpt>
      <trkpt lat="44.3697" lon="3.49859">
        <ele>963</ele>
        <time>2017-02-28T16:45:51Z</time>
      </trkpt>
      <trkpt lat="44.36952" lon="3.49859">
        <ele>964</ele>
        <time>2017-02-28T16:47:51Z</time>
      </trkpt>
      <trkpt lat="44.36926" lon="3.49856">
        <ele>965</ele>
        <time>2017-02-28T16:49:51Z</time>
      </trkpt>
      <trkpt lat="44.36893" lon="3.49854">
        <ele>966</ele>
        <time>2017-02-28T16:51:51Z</time>
      </trkpt>
      <trkpt lat="44.36871" lon="3.49856">
        <ele>967</ele>
        <time>2017-02-28T16:53:51Z</time>
      </trkpt>
      <trkpt lat="44.36846" lon="3.4986">
        <ele>967</ele>
        <time>2017-02-28T16:55:51Z</time>
      </trkpt>
      <trkpt lat="44.36824" lon="3.49862">
        <ele>967</ele>
        <time>2017-02-28T16:57:51Z</time>
      </trkpt>
      <trkpt lat="44.3681" lon="3.4986">
        <ele>968</ele>
        <time>2017-02-28T16:59:51Z</time>
      </trkpt>
      <trkpt lat="44.36763" lon="3.49852">
        <ele>972</ele>
        <time>2017-02-28T17:01:51Z</time>
      </trkpt>
      <trkpt lat="44.36721" lon="3.49845">
        <ele>975</ele>
        <time>2017-02-28T17:03:51Z</time>
      </trkpt>
      <trkpt lat="44.36706" lon="3.49842">
        <ele>976</ele>
        <time>2017-02-28T17:05:51Z</time>
      </trkpt>
      <trkpt lat="44.36694" lon="3.49838">
        <ele>977</ele>
        <time>2017-02-28T17:07:51Z</time>
      </trkpt>
      <trkpt lat="44.36669" lon="3.49822">
        <ele>979</ele>
        <time>2017-02-28T17:09:51Z</time>
      </trkpt>
      <trkpt lat="44.36651" lon="3.4981">
        <ele>980</ele>
        <time>2017-02-28T17:11:51Z</time>
      </trkpt>
      <trkpt lat="44.3664" lon="3.49803">
        <ele>980</ele>
        <time>2017-02-28T17:13:51Z</time>
      </trkpt>
      <trkpt lat="44.36625" lon="3.49795">
        <ele>981</ele>
        <time>2017-02-28T17:15:51Z</time>
      </trkpt>
      <trkpt lat="44.36614" lon="3.49794">
        <ele>981</ele>
        <time>2017-02-28T17:17:51Z</time>
      </trkpt>
      <trkpt lat="44.36605" lon="3.49795">
        <ele>981</ele>
        <time>2017-02-28T17:19:51Z</time>
      </trkpt>
      <trkpt lat="44.36594" lon="3.49801">
        <ele>981</ele>
        <time>2017-02-28T17:21:51Z</time>
      </trkpt>
      <trkpt lat="44.36577" lon="3.49816">
        <ele>980</ele>
        <time>2017-02-28T17:23:51Z</time>
      </trkpt>
      <trkpt lat="44.3655" lon="3.49841">
        <ele>978</ele>
        <time>2017-02-28T17:25:51Z</time>
      </trkpt>
      <trkpt lat="44.36523" lon="3.49861">
        <ele>975</ele>
        <time>2017-02-28T17:27:51Z</time>
      </trkpt>
      <trkpt lat="44.36509" lon="3.49868">
        <ele>974</ele>
        <time>2017-02-28T17:29:51Z</time>
      </trkpt>
      <trkpt lat="44.36498" lon="3.49871">
        <ele>974</ele>
        <time>2017-02-28T17:31:51Z</time>
      </trkpt>
      <trkpt lat="44.36485" lon="3.4987">
        <ele>974</ele>
        <time>2017-02-28T17:33:51Z</time>
      </trkpt>
      <trkpt lat="44.36472" lon="3.49866">
        <ele>973</ele>
        <time>2017-02-28T17:35:51Z</time>
      </trkpt>
      <trkpt lat="44.36435" lon="3.49854">
        <ele>973</ele>
        <time>2017-02-28T17:37:51Z</time>
      </trkpt>
      <trkpt lat="44.36414" lon="3.49848">
        <ele>973</ele>
        <time>2017-02-28T17:39:51Z</time>
      </trkpt>
      <trkpt lat="44.36409" lon="3.49847">
        <ele>974</ele>
        <time>2017-02-28T17:41:51Z</time>
      </trkpt>
      <trkpt lat="44.36403" lon="3.49849">
        <ele>974</ele>
        <time>2017-02-28T17:43:51Z</time>
      </trkpt>
      <trkpt lat="44.364" lon="3.49852">
        <ele>974</ele>
        <time>2017-02-28T17:45:51Z</time>
      </trkpt>
      <trkpt lat="44.364" lon="3.49852">
        <ele>974</ele>
        <time>2017-02-28T17:47:51Z</time>
      </trkpt>
      <trkpt lat="44.36399" lon="3.49855">
        <ele>974</ele>
        <time>2017-02-28T17:49:51Z</time>
      </trkpt>
      <trkpt lat="44.36391" lon="3.49874">
        <ele>973</ele>
        <time>2017-02-28T17:51:51Z</time>
      </trkpt>
      <trkpt lat="44.36382" lon="3.49887">
        <ele>972</ele>
        <time>2017-02-28T17:53:51Z</time>
      </trkpt>
      <trkpt lat="44.36367" lon="3.49905">
        <ele>971</ele>
        <time>2017-02-28T17:55:51Z</time>
      </trkpt>
      <trkpt lat="44.36348" lon="3.49927">
        <ele>968</ele>
        <time>2017-02-28T17:57:51Z</time>
      </trkpt>
      <trkpt lat="44.36338" lon="3.49939">
        <ele>967</ele>
        <time>2017-02-28T17:59:51Z</time>
      </trkpt>
      <trkpt lat="44.36328" lon="3.49955">
        <ele>964</ele>
        <time>2017-02-28T18:01:51Z</time>
      </trkpt>
      <trkpt lat="44.36315" lon="3.49975">
        <ele>961</ele>
        <time>2017-02-28T18:03:51Z</time>
      </trkpt>
      <trkpt lat="44.36305" lon="3.49988">
        <ele>959</ele>
        <time>2017-02-28T18:05:51Z</time>
      </trkpt>
      <trkpt lat="44.3629" lon="3.50004">
        <ele>957</ele>
        <time>2017-02-28T18:07:51Z</time>
      </trkpt>
      <trkpt lat="44.36268" lon="3.50029">
        <ele>954</ele>
        <time>2017-02-28T18:09:51Z</time>
      </trkpt>
      <trkpt lat="44.36248" lon="3.50052">
        <ele>952</ele>
        <time>2017-02-28T18:11:51Z</time>
      </trkpt>
      <trkpt lat="44.36239" lon="3.50065">
        <ele>952</ele>
        <time>2017-02-28T18:13:51Z</time>
      </trkpt>
      <trkpt lat="44.36236" lon="3.50076">
        <ele>952</ele>
        <time>2017-02-28T18:15:51Z</time>
      </trkpt>
      <trkpt lat="44.36234" lon="3.5009">
        <ele>951</ele>
        <time>2017-02-28T18:17:51Z</time>
      </trkpt>
      <trkpt lat="44.36233" lon="3.50108">
        <ele>950</ele>
        <time>2017-02-28T18:19:51Z</time>
      </trkpt>
      <trkpt lat="44.36233" lon="3.50137">
        <ele>948</ele>
        <time>2017-02-28T18:21:51Z</time>
      </trkpt>
      <trkpt lat="44.36232" lon="3.5016">
        <ele>947</ele>
        <time>2017-02-28T18:23:51Z</time>
      </trkpt>
      <trkpt lat="44.3623" lon="3.50182">
        <ele>946</ele>
        <time>2017-02-28T18:25:51Z</time>
      </trkpt>
      <trkpt lat="44.36222" lon="3.50221">
        <ele>945</ele>
        <time>2017-02-28T18:27:51Z</time>
      </trkpt>
      <trkpt lat="44.36215" lon="3.50252">
        <ele>945</ele>
        <time>2017-02-28T18:29:51Z</time>
      </trkpt>
      <trkpt lat="44.36207" lon="3.50285">
        <ele>943</ele>
        <time>2017-02-28T18:31:51Z</time>
      </trkpt>
      <trkpt lat="44.36199" lon="3.50326">
        <ele>941</ele>
        <time>2017-02-28T18:33:51Z</time>
      </trkpt>
      <trkpt lat="44.36192" lon="3.50358">
        <ele>940</ele>
        <time>2017-02-28T18:35:51Z</time>
      </trkpt>
      <trkpt lat="44.36184" lon="3.50394">
        <ele>938</ele>
        <time>2017-02-28T18:37:51Z</time>
      </trkpt>
      <trkpt lat="44.36178" lon="3.50427">
        <ele>935</ele>
        <time>2017-02-28T18:39:51Z</time>
      </trkpt>
      <trkpt lat="44.36172" lon="3.50445">
        <ele>933</ele>
        <time>2017-02-28T18:41:51Z</time>
      </trkpt>
      <trkpt lat="44.36168" lon="3.50458">
        <ele>931</ele>
        <time>2017-02-28T18:43:51Z</time>
      </trkpt>
      <trkpt lat="44.36164" lon="3.50469">
        <ele>930</ele>
        <time>2017-02-28T18:45:51Z</time>
      </trkpt>
      <trkpt lat="44.36162" lon="3.50482">
        <ele>928</ele>
        <time>2017-02-28T18:47:51Z</time>
      </trkpt>
      <trkpt lat="44.36159" lon="3.5049">
        <ele>927</ele>
        <time>2017-02-28T18:49:51Z</time>
      </trkpt>
      <trkpt lat="44.36159" lon="3.5049">
        <ele>927</ele>
        <time>2017-02-28T18:51:51Z</time>
      </trkpt>
      <trkpt lat="44.36156" lon="3.50493">
        <ele>927</ele>
        <time>2017-02-28T18:53:51Z</time>
      </trkpt>
      <trkpt lat="44.36143" lon="3.50502">
        <ele>926</ele>
        <time>2017-02-28T18:55:51Z</time>
      </trkpt>
      <trkpt lat="44.36136" lon="3.50507">
        <ele>926</ele>
        <time>2017-02-28T18:57:51Z</time>
      </trkpt>
      <trkpt lat="44.36132" lon="3.50511">
        <ele>926</ele>
        <time>2017-02-28T18:59:51Z</time>
      </trkpt>
      <trkpt lat="44.36132" lon="3.50511">
        <ele>926</ele>
        <time>2017-02-28T19:01:51Z</time>
      </trkpt>
      <trkpt lat="44.36126" lon="3.50504">
        <ele>926</ele>
        <time>2017-02-28T19:03:51Z</time>
      </trkpt>
      <trkpt lat="44.36123" lon="3.50503">
        <ele>926</ele>
        <time>2017-02-28T19:05:51Z</time>
      </trkpt>
      <trkpt lat="44.36112" lon="3.50496">
        <ele>927</ele>
        <time>2017-02-28T19:07:51Z</time>
      </trkpt>
      <trkpt lat="44.3608" lon="3.50481">
        <ele>929</ele>
        <time>2017-02-28T19:09:51Z</time>
      </trkpt>
      <trkpt lat="44.36069" lon="3.50475">
        <ele>929</ele>
        <time>2017-02-28T19:11:51Z</time>
      </trkpt>
      <trkpt lat="44.36069" lon="3.50475">
        <ele>929</ele>
        <time>2017-02-28T19:13:51Z</time>
      </trkpt>
      <trkpt lat="44.36063" lon="3.50479">
        <ele>929</ele>
        <time>2017-02-28T19:15:51Z</time>
      </trkpt>
      <trkpt lat="44.36055" lon="3.50484">
        <ele>928</ele>
        <time>2017-02-28T19:17:51Z</time>
      </trkpt>
      <trkpt lat="44.36049" lon="3.50488">
        <ele>928</ele>
        <time>2017-02-28T19:19:51Z</time>
      </trkpt>
      <trkpt lat="44.36046" lon="3.50492">
        <ele>927</ele>
        <time>2017-02-28T19:21:51Z</time>
      </trkpt>
      <trkpt lat="44.36043" lon="3.50494">
        <ele>927</ele>
        <time>2017-02-28T19:23:51Z</time>
      </trkpt>
      <trkpt lat="44.36036" lon="3.50493">
        <ele>927</ele>
        <time>2017-02-28T19:25:51Z</time>
      </trkpt>
      <trkpt lat="44.36029" lon="3.50494">
        <ele>927</ele>
        <time>2017-02-28T19:27:51Z</time>
      </trkpt>
      <trkpt lat="44.3602" lon="3.50495">
        <ele>927</ele>
        <time>2017-02-28T19:29:51Z</time>
      </trkpt>
      <trkpt lat="44.36008" lon="3.50496">
        <ele>926</ele>
        <time>2017-02-28T19:31:51Z</time>
      </trkpt>
      <trkpt lat="44.36" lon="3.505">
        <ele>926</ele>
        <time>2017-02-28T19:33:51Z</time>
      </trkpt>
      <trkpt lat="44.35986" lon="3.5051">
        <ele>925</ele>
        <time>2017-02-28T19:35:51Z</time>
      </trkpt>
      <trkpt lat="44.35966" lon="3.50523">
        <ele>924</ele>
        <time>2017-02-28T19:37:51Z</time>
      </trkpt>
      <trkpt lat="44.35943" lon="3.50536">
        <ele>923</ele>
        <time>2017-02-28T19:39:51Z</time>
      </trkpt>
      <trkpt lat="44.35934" lon="3.5054">
        <ele>922</ele>
        <time>2017-02-28T19:41:51Z</time>
      </trkpt>
      <trkpt lat="44.35926" lon="3.50541">
        <ele>922</ele>
        <time>2017-02-28T19:43:51Z</time>
      </trkpt>
      <trkpt lat="44.35918" lon="3.5054">
        <ele>922</ele>
        <time>2017-02-28T19:45:51Z</time>
      </trkpt>
      <trkpt lat="44.35912" lon="3.50543">
        <ele>922</ele>
        <time>2017-02-28T19:47:51Z</time>
      </trkpt>
      <trkpt lat="44.35903" lon="3.50553">
        <ele>922</ele>
        <time>2017-02-28T19:49:51Z</time>
      </trkpt>
      <trkpt lat="44.35889" lon="3.50566">
        <ele>921</ele>
        <time>2017-02-28T19:51:51Z</time>
      </trkpt>
      <trkpt lat="44.35878" lon="3.50574">
        <ele>921</ele>
        <time>2017-02-28T19:53:51Z</time>
      </trkpt>
      <trkpt lat="44.3587" lon="3.50584">
        <ele>920</ele>
        <time>2017-02-28T19:55:51Z</time>
      </trkpt>
      <trkpt lat="44.35856" lon="3.50595">
        <ele>920</ele>
        <time>2017-02-28T19:57:51Z</time>
      </trkpt>
      <trkpt lat="44.35846" lon="3.50604">
        <ele>920</ele>
        <time>2017-02-28T19:59:51Z</time>
      </trkpt>
      <trkpt lat="44.3584" lon="3.50613">
        <ele>920</ele>
        <time>2017-02-28T20:01:51Z</time>
      </trkpt>
      <trkpt lat="44.35834" lon="3.50625">
        <ele>919</ele>
        <time>2017-02-28T20:03:51Z</time>
      </trkpt>
      <trkpt lat="44.35825" lon="3.50638">
        <ele>918</ele>
        <time>2017-02-28T20:05:51Z</time>
      </trkpt>
      <trkpt lat="44.35817" lon="3.50652">
        <ele>917</ele>
        <time>2017-02-28T20:07:51Z</time>
      </trkpt>
      <trkpt lat="44.35809" lon="3.50666">
        <ele>916</ele>
        <time>2017-02-28T20:09:51Z</time>
      </trkpt>
      <trkpt lat="44.35791" lon="3.5069">
        <ele>915</ele>
        <time>2017-02-28T20:11:51Z</time>
      </trkpt>
      <trkpt lat="44.35772" lon="3.5072">
        <ele>913</ele>
        <time>2017-02-28T20:13:51Z</time>
      </trkpt>
      <trkpt lat="44.35759" lon="3.50733">
        <ele>912</ele>
        <time>2017-02-28T20:15:51Z</time>
      </trkpt>
      <trkpt lat="44.35747" lon="3.50746">
        <ele>909</ele>
        <time>2017-02-28T20:17:51Z</time>
      </trkpt>
      <trkpt lat="44.35736" lon="3.50755">
        <ele>905</ele>
        <time>2017-02-28T20:19:51Z</time>
      </trkpt>
      <trkpt lat="44.35728" lon="3.50756">
        <ele>903</ele>
        <time>2017-02-28T20:21:51Z</time>
      </trkpt>
      <trkpt lat="44.35725" lon="3.50757">
        <ele>901</ele>
        <time>2017-02-28T20:23:51Z</time>
      </trkpt>
      <trkpt lat="44.35722" lon="3.50757">
        <ele>901</ele>
        <time>2017-02-28T20:25:51Z</time>
      </trkpt>
      <trkpt lat="44.35722" lon="3.5076">
        <ele>900</ele>
        <time>2017-02-28T20:27:51Z</time>
      </trkpt>
      <trkpt lat="44.35724" lon="3.50764">
        <ele>900</ele>
        <time>2017-02-28T20:29:51Z</time>
      </trkpt>
      <trkpt lat="44.35732" lon="3.50779">
        <ele>900</ele>
        <time>2017-02-28T20:31:51Z</time>
      </trkpt>
      <trkpt lat="44.35735" lon="3.50787">
        <ele>899</ele>
        <time>2017-02-28T20:33:51Z</time>
      </trkpt>
      <trkpt lat="44.35738" lon="3.50804">
        <ele>898</ele>
        <time>2017-02-28T20:35:51Z</time>
      </trkpt>
      <trkpt lat="44.35739" lon="3.50809">
        <ele>897</ele>
        <time>2017-02-28T20:37:51Z</time>
      </trkpt>
      <trkpt lat="44.35738" lon="3.50811">
        <ele>897</ele>
        <time>2017-02-28T20:39:51Z</time>
      </trkpt>
      <trkpt lat="44.35736" lon="3.5081">
        <ele>896</ele>
        <time>2017-02-28T20:41:51Z</time>
      </trkpt>
      <trkpt lat="44.35732" lon="3.50803">
        <ele>895</ele>
        <time>2017-02-28T20:43:51Z</time>
      </trkpt>
      <trkpt lat="44.3573" lon="3.50801">
        <ele>895</ele>
        <time>2017-02-28T20:45:51Z</time>
      </trkpt>
      <trkpt lat="44.35726" lon="3.50796">
        <ele>894</ele>
        <time>2017-02-28T20:47:51Z</time>
      </trkpt>
      <trkpt lat="44.35725" lon="3.50795">
        <ele>894</ele>
        <time>2017-02-28T20:49:51Z</time>
      </trkpt>
      <trkpt lat="44.35724" lon="3.50796">
        <ele>893</ele>
        <time>2017-02-28T20:51:51Z</time>
      </trkpt>
      <trkpt lat="44.35724" lon="3.50799">
        <ele>893</ele>
        <time>2017-02-28T20:53:51Z</time>
      </trkpt>
      <trkpt lat="44.35729" lon="3.50824">
        <ele>890</ele>
        <time>2017-02-28T20:55:51Z</time>
      </trkpt>
      <trkpt lat="44.35733" lon="3.50844">
        <ele>888</ele>
        <time>2017-02-28T20:57:51Z</time>
      </trkpt>
      <trkpt lat="44.35734" lon="3.50857">
        <ele>886</ele>
        <time>2017-02-28T20:59:51Z</time>
      </trkpt>
      <trkpt lat="44.35737" lon="3.50882">
        <ele>882</ele>
        <time>2017-02-28T21:01:51Z</time>
      </trkpt>
      <trkpt lat="44.3574" lon="3.509">
        <ele>880</ele>
        <time>2017-02-28T21:03:51Z</time>
      </trkpt>
      <trkpt lat="44.35744" lon="3.50912">
        <ele>880</ele>
        <time>2017-02-28T21:05:51Z</time>
      </trkpt>
      <trkpt lat="44.35746" lon="3.50921">
        <ele>879</ele>
        <time>2017-02-28T21:07:51Z</time>
      </trkpt>
      <trkpt lat="44.35746" lon="3.5094">
        <ele>878</ele>
        <time>2017-02-28T21:09:51Z</time>
      </trkpt>
      <trkpt lat="44.35746" lon="3.50966">
        <ele>875</ele>
        <time>2017-02-28T21:11:51Z</time>
      </trkpt>
      <trkpt lat="44.35744" lon="3.50992">
        <ele>872</ele>
        <time>2017-02-28T21:13:51Z</time>
      </trkpt>
      <trkpt lat="44.35742" lon="3.51003">
        <ele>870</ele>
        <time>2017-02-28T21:15:51Z</time>
      </trkpt>
      <trkpt lat="44.35739" lon="3.51012">
        <ele>867</ele>
        <time>2017-02-28T21:17:51Z</time>
      </trkpt>
      <trkpt lat="44.35736" lon="3.51019">
        <ele>865</ele>
        <time>2017-02-28T21:19:51Z</time>
      </trkpt>
      <trkpt lat="44.35728" lon="3.51028">
        <ele>860</ele>
        <time>2017-02-28T21:21:51Z</time>
      </trkpt>
      <trkpt lat="44.35711" lon="3.51052">
        <ele>849</ele>
        <time>2017-02-28T21:23:51Z</time>
      </trkpt>
      <trkpt lat="44.35696" lon="3.51089">
        <ele>838</ele>
        <time>2017-02-28T21:25:51Z</time>
      </trkpt>
      <trkpt lat="44.35683" lon="3.51125">
        <ele>828</ele>
        <time>2017-02-28T21:27:51Z</time>
      </trkpt>
      <trkpt lat="44.35679" lon="3.51142">
        <ele>825</ele>
        <time>2017-02-28T21:29:51Z</time>
      </trkpt>
      <trkpt lat="44.35677" lon="3.51158">
        <ele>823</ele>
        <time>2017-02-28T21:31:51Z</time>
      </trkpt>
      <trkpt lat="44.35676" lon="3.51162">
        <ele>823</ele>
        <time>2017-02-28T21:33:51Z</time>
      </trkpt>
      <trkpt lat="44.35675" lon="3.51162">
        <ele>822</ele>
        <time>2017-02-28T21:35:51Z</time>
      </trkpt>
      <trkpt lat="44.35673" lon="3.51161">
        <ele>821</ele>
        <time>2017-02-28T21:37:51Z</time>
      </trkpt>
      <trkpt lat="44.3567" lon="3.51154">
        <ele>820</ele>
        <time>2017-02-28T21:39:51Z</time>
      </trkpt>
      <trkpt lat="44.35668" lon="3.5115">
        <ele>819</ele>
        <time>2017-02-28T21:41:51Z</time>
      </trkpt>
      <trkpt lat="44.35667" lon="3.51145">
        <ele>819</ele>
        <time>2017-02-28T21:43:51Z</time>
      </trkpt>
      <trkpt lat="44.35666" lon="3.51144">
        <ele>818</ele>
        <time>2017-02-28T21:45:51Z</time>
      </trkpt>
      <trkpt lat="44.35665" lon="3.51145">
        <ele>818</ele>
        <time>2017-02-28T21:47:51Z</time>
      </trkpt>
      <trkpt lat="44.35664" lon="3.5115">
        <ele>817</ele>
        <time>2017-02-28T21:49:51Z</time>
      </trkpt>
      <trkpt lat="44.35661" lon="3.51171">
        <ele>814</ele>
        <time>2017-02-28T21:51:51Z</time>
      </trkpt>
      <trkpt lat="44.35658" lon="3.51186">
        <ele>808</ele>
        <time>2017-02-28T21:53:51Z</time>
      </trkpt>
      <trkpt lat="44.35658" lon="3.51191">
        <ele>807</ele>
        <time>2017-02-28T21:55:51Z</time>
      </trkpt>
      <trkpt lat="44.35661" lon="3.51198">
        <ele>806</ele>
        <time>2017-02-28T21:57:51Z</time>
      </trkpt>
      <trkpt lat="44.35665" lon="3.51207">
        <ele>806</ele>
        <time>2017-02-28T21:59:51Z</time>
      </trkpt>
      <trkpt lat="44.35668" lon="3.51214">
        <ele>805</ele>
        <time>2017-02-28T22:01:51Z</time>
      </trkpt>
      <trkpt lat="44.35668" lon="3.51218">
        <ele>804</ele>
        <time>2017-02-28T22:03:51Z</time>
      </trkpt>
      <trkpt lat="44.35666" lon="3.51221">
        <ele>802</ele>
        <time>2017-02-28T22:05:51Z</time>
      </trkpt>
      <trkpt lat="44.35661" lon="3.51221">
        <ele>800</ele>
        <time>2017-02-28T22:07:51Z</time>
      </trkpt>
      <trkpt lat="44.35646" lon="3.51215">
        <ele>795</ele>
        <time>2017-02-28T22:09:51Z</time>
      </trkpt>
      <trkpt lat="44.35638" lon="3.51207">
        <ele>793</ele>
        <time>2017-02-28T22:11:51Z</time>
      </trkpt>
      <trkpt lat="44.35632" lon="3.51197">
        <ele>792</ele>
        <time>2017-02-28T22:13:51Z</time>
      </trkpt>
      <trkpt lat="44.35625" lon="3.5118">
        <ele>792</ele>
        <time>2017-02-28T22:15:51Z</time>
      </trkpt>
      <trkpt lat="44.35623" lon="3.51175">
        <ele>791</ele>
        <time>2017-02-28T22:17:51Z</time>
      </trkpt>
      <trkpt lat="44.35621" lon="3.51175">
        <ele>790</ele>
        <time>2017-02-28T22:19:51Z</time>
      </trkpt>
      <trkpt lat="44.3562" lon="3.51178">
        <ele>789</ele>
        <time>2017-02-28T22:21:51Z</time>
      </trkpt>
      <trkpt lat="44.35618" lon="3.51189">
        <ele>787</ele>
        <time>2017-02-28T22:23:51Z</time>
      </trkpt>
      <trkpt lat="44.35616" lon="3.51209">
        <ele>783</ele>
        <time>2017-02-28T22:25:51Z</time>
      </trkpt>
      <trkpt lat="44.35615" lon="3.51222">
        <ele>781</ele>
        <time>2017-02-28T22:27:51Z</time>
      </trkpt>
      <trkpt lat="44.35616" lon="3.51245">
        <ele>779</ele>
        <time>2017-02-28T22:29:51Z</time>
      </trkpt>
      <trkpt lat="44.35618" lon="3.51262">
        <ele>775</ele>
        <time>2017-02-28T22:31:51Z</time>
      </trkpt>
      <trkpt lat="44.35617" lon="3.51267">
        <ele>773</ele>
        <time>2017-02-28T22:33:51Z</time>
      </trkpt>
      <trkpt lat="44.35616" lon="3.51269">
        <ele>772</ele>
        <time>2017-02-28T22:35:51Z</time>
      </trkpt>
      <trkpt lat="44.35613" lon="3.51268">
        <ele>772</ele>
        <time>2017-02-28T22:37:51Z</time>
      </trkpt>
      <trkpt lat="44.35605" lon="3.51262">
        <ele>771</ele>
        <time>2017-02-28T22:39:51Z</time>
      </trkpt>
      <trkpt lat="44.356" lon="3.51255">
        <ele>772</ele>
        <time>2017-02-28T22:41:51Z</time>
      </trkpt>
      <trkpt lat="44.35595" lon="3.51248">
        <ele>772</ele>
        <time>2017-02-28T22:43:51Z</time>
      </trkpt>
      <trkpt lat="44.35591" lon="3.51238">
        <ele>771</ele>
        <time>2017-02-28T22:45:51Z</time>
      </trkpt>
      <trkpt lat="44.35589" lon="3.51236">
        <ele>770</ele>
        <time>2017-02-28T22:47:51Z</time>
      </trkpt>
      <trkpt lat="44.35586" lon="3.51238">
        <ele>769</ele>
        <time>2017-02-28T22:49:51Z</time>
      </trkpt>
      <trkpt lat="44.35586" lon="3.51245">
        <ele>769</ele>
        <time>2017-02-28T22:51:51Z</time>
      </trkpt>
      <trkpt lat="44.35582" lon="3.51259">
        <ele>765</ele>
        <time>2017-02-28T22:53:51Z</time>
      </trkpt>
      <trkpt lat="44.35579" lon="3.51275">
        <ele>759</ele>
        <time>2017-02-28T22:55:51Z</time>
      </trkpt>
      <trkpt lat="44.35577" lon="3.51299">
        <ele>753</ele>
        <time>2017-02-28T22:57:51Z</time>
      </trkpt>
      <trkpt lat="44.35574" lon="3.5132">
        <ele>747</ele>
        <time>2017-02-28T22:59:51Z</time>
      </trkpt>
      <trkpt lat="44.35571" lon="3.51326">
        <ele>744</ele>
        <time>2017-02-28T23:01:51Z</time>
      </trkpt>
      <trkpt lat="44.35567" lon="3.51328">
        <ele>742</ele>
        <time>2017-02-28T23:03:51Z</time>
      </trkpt>
      <trkpt lat="44.35561" lon="3.51325">
        <ele>741</ele>
        <time>2017-02-28T23:05:51Z</time>
      </trkpt>
      <trkpt lat="44.35556" lon="3.51318">
        <ele>740</ele>
        <time>2017-02-28T23:07:51Z</time>
      </trkpt>
      <trkpt lat="44.3555" lon="3.51301">
        <ele>740</ele>
        <time>2017-02-28T23:09:51Z</time>
      </trkpt>
      <trkpt lat="44.35547" lon="3.51288">
        <ele>741</ele>
        <time>2017-02-28T23:11:51Z</time>
      </trkpt>
      <trkpt lat="44.35544" lon="3.51286">
        <ele>739</ele>
        <time>2017-02-28T23:13:51Z</time>
      </trkpt>
      <trkpt lat="44.35542" lon="3.51288">
        <ele>738</ele>
        <time>2017-02-28T23:15:51Z</time>
      </trkpt>
      <trkpt lat="44.35538" lon="3.51306">
        <ele>734</ele>
        <time>2017-02-28T23:17:51Z</time>
      </trkpt>
      <trkpt lat="44.35536" lon="3.51321">
        <ele>731</ele>
        <time>2017-02-28T23:19:51Z</time>
      </trkpt>
      <trkpt lat="44.35535" lon="3.51333">
        <ele>730</ele>
        <time>2017-02-28T23:21:51Z</time>
      </trkpt>
      <trkpt lat="44.35537" lon="3.51343">
        <ele>728</ele>
        <time>2017-02-28T23:23:51Z</time>
      </trkpt>
      <trkpt lat="44.35544" lon="3.51365">
        <ele>724</ele>
        <time>2017-02-28T23:25:51Z</time>
      </trkpt>
      <trkpt lat="44.3555" lon="3.51378">
        <ele>722</ele>
        <time>2017-02-28T23:27:51Z</time>
      </trkpt>
      <trkpt lat="44.35558" lon="3.51384">
        <ele>721</ele>
        <time>2017-02-28T23:29:51Z</time>
      </trkpt>
      <trkpt lat="44.35574" lon="3.51392">
        <ele>722</ele>
        <time>2017-02-28T23:31:51Z</time>
      </trkpt>
      <trkpt lat="44.35595" lon="3.51403">
        <ele>720</ele>
        <time>2017-02-28T23:33:51Z</time>
      </trkpt>
      <trkpt lat="44.35611" lon="3.5141">
        <ele>718</ele>
        <time>2017-02-28T23:35:51Z</time>
      </trkpt>
      <trkpt lat="44.35632" lon="3.51418">
        <ele>716</ele>
        <time>2017-02-28T23:37:51Z</time>
      </trkpt>
      <trkpt lat="44.35642" lon="3.51422">
        <ele>715</ele>
        <time>2017-02-28T23:39:51Z</time>
      </trkpt>
      <trkpt lat="44.35648" lon="3.51426">
        <ele>713</ele>
        <time>2017-02-28T23:41:51Z</time>
      </trkpt>
      <trkpt lat="44.35658" lon="3.5143">
        <ele>712</ele>
        <time>2017-02-28T23:43:51Z</time>
      </trkpt>
      <trkpt lat="44.35668" lon="3.51435">
        <ele>711</ele>
        <time>2017-02-28T23:45:51Z</time>
      </trkpt>
      <trkpt lat="44.35677" lon="3.51444">
        <ele>709</ele>
        <time>2017-02-28T23:47:51Z</time>
      </trkpt>
      <trkpt lat="44.35684" lon="3.51452">
        <ele>708</ele>
        <time>2017-02-28T23:49:51Z</time>
      </trkpt>
      <trkpt lat="44.35691" lon="3.51462">
        <ele>705</ele>
        <time>2017-02-28T23:51:51Z</time>
      </trkpt>
      <trkpt lat="44.35699" lon="3.51473">
        <ele>702</ele>
        <time>2017-02-28T23:53:51Z</time>
      </trkpt>
      <trkpt lat="44.35708" lon="3.51486">
        <ele>699</ele>
        <time>2017-02-28T23:55:51Z</time>
      </trkpt>
      <trkpt lat="44.3572" lon="3.51501">
        <ele>695</ele>
        <time>2017-02-28T23:57:51Z</time>
      </trkpt>
      <trkpt lat="44.3573" lon="3.51513">
        <ele>692</ele>
        <time>2017-02-28T23:59:51Z</time>
      </trkpt>
      <trkpt lat="44.35739" lon="3.51525">
        <ele>690</ele>
        <time>2017-03-01T00:01:51Z</time>
      </trkpt>
      <trkpt lat="44.35746" lon="3.51533">
        <ele>688</ele>
        <time>2017-03-01T00:03:51Z</time>
      </trkpt>
      <trkpt lat="44.3575" lon="3.51537">
        <ele>687</ele>
        <time>2017-03-01T00:05:51Z</time>
      </trkpt>
      <trkpt lat="44.35755" lon="3.51545">
        <ele>686</ele>
        <time>2017-03-01T00:07:51Z</time>
      </trkpt>
      <trkpt lat="44.35759" lon="3.51551">
        <ele>685</ele>
        <time>2017-03-01T00:09:51Z</time>
      </trkpt>
      <trkpt lat="44.35763" lon="3.51559">
        <ele>683</ele>
        <time>2017-03-01T00:11:51Z</time>
      </trkpt>
      <trkpt lat="44.35768" lon="3.51567">
        <ele>681</ele>
        <time>2017-03-01T00:13:51Z</time>
      </trkpt>
      <trkpt lat="44.35773" lon="3.51573">
        <ele>680</ele>
        <time>2017-03-01T00:15:51Z</time>
      </trkpt>
      <trkpt lat="44.35777" lon="3.51577">
        <ele>680</ele>
        <time>2017-03-01T00:17:51Z</time>
      </trkpt>
      <trkpt lat="44.35781" lon="3.51583">
        <ele>679</ele>
        <time>2017-03-01T00:19:51Z</time>
      </trkpt>
      <trkpt lat="44.35785" lon="3.51588">
        <ele>678</ele>
        <time>2017-03-01T00:21:51Z</time>
      </trkpt>
      <trkpt lat="44.35789" lon="3.51593">
        <ele>678</ele>
        <time>2017-03-01T00:23:51Z</time>
      </trkpt>
      <trkpt lat="44.35794" lon="3.51598">
        <ele>678</ele>
        <time>2017-03-01T00:25:51Z</time>
      </trkpt>
      <trkpt lat="44.35807" lon="3.51615">
        <ele>676</ele>
        <time>2017-03-01T00:27:51Z</time>
      </trkpt>
      <trkpt lat="44.35814" lon="3.51625">
        <ele>675</ele>
        <time>2017-03-01T00:29:51Z</time>
      </trkpt>
      <trkpt lat="44.35824" lon="3.51638">
        <ele>673</ele>
        <time>2017-03-01T00:31:51Z</time>
      </trkpt>
      <trkpt lat="44.3583" lon="3.51645">
        <ele>672</ele>
        <time>2017-03-01T00:33:51Z</time>
      </trkpt>
      <trkpt lat="44.35835" lon="3.51652">
        <ele>671</ele>
        <time>2017-03-01T00:35:51Z</time>
      </trkpt>
      <trkpt lat="44.35841" lon="3.51658">
        <ele>672</ele>
        <time>2017-03-01T00:37:51Z</time>
      </trkpt>
      <trkpt lat="44.35846" lon="3.51664">
        <ele>672</ele>
        <time>2017-03-01T00:39:51Z</time>
      </trkpt>
      <trkpt lat="44.3585" lon="3.51672">
        <ele>672</ele>
        <time>2017-03-01T00:41:51Z</time>
      </trkpt>
      <trkpt lat="44.35855" lon="3.51681">
        <ele>671</ele>
        <time>2017-03-01T00:43:51Z</time>
      </trkpt>
      <trkpt lat="44.35857" lon="3.51686">
        <ele>671</ele>
        <time>2017-03-01T00:45:51Z</time>
      </trkpt>
      <trkpt lat="44.35857" lon="3.51687">
        <ele>670</ele>
        <time>2017-03-01T00:47:51Z</time>
      </trkpt>
      <trkpt lat="44.35856" lon="3.51688">
        <ele>670</ele>
        <time>2017-03-01T00:49:51Z</time>
      </trkpt>
      <trkpt lat="44.35854" lon="3.51687">
        <ele>669</ele>
        <time>2017-03-01T00:51:51Z</time>
      </trkpt>
      <trkpt lat="44.35853" lon="3.51686">
        <ele>669</ele>
        <time>2017-03-01T00:53:51Z</time>
      </trkpt>
      <trkpt lat="44.35851" lon="3.51685">
        <ele>668</ele>
        <time>2017-03-01T00:55:51Z</time>
      </trkpt>
      <trkpt lat="44.35847" lon="3.51684">
        <ele>666</ele>
        <time>2017-03-01T00:57:51Z</time>
      </trkpt>
      <trkpt lat="44.35843" lon="3.51683">
        <ele>665</ele>
        <time>2017-03-01T00:59:51Z</time>
      </trkpt>
      <trkpt lat="44.35841" lon="3.51681">
        <ele>664</ele>
        <time>2017-03-01T01:01:51Z</time>
      </trkpt>
      <trkpt lat="44.35839" lon="3.5168">
        <ele>664</ele>
        <time>2017-03-01T01:03:51Z</time>
      </trkpt>
      <trkpt lat="44.35833" lon="3.5168">
        <ele>661</ele>
        <time>2017-03-01T01:05:51Z</time>
      </trkpt>
      <trkpt lat="44.35831" lon="3.51681">
        <ele>660</ele>
        <time>2017-03-01T01:07:51Z</time>
      </trkpt>
      <trkpt lat="44.35831" lon="3.51682">
        <ele>660</ele>
        <time>2017-03-01T01:09:51Z</time>
      </trkpt>
      <trkpt lat="44.35832" lon="3.51684">
        <ele>659</ele>
        <time>2017-03-01T01:11:51Z</time>
      </trkpt>
      <trkpt lat="44.35834" lon="3.51688">
        <ele>659</ele>
        <time>2017-03-01T01:13:51Z</time>
      </trkpt>
      <trkpt lat="44.35839" lon="3.517">
        <ele>658</ele>
        <time>2017-03-01T01:15:51Z</time>
      </trkpt>
      <trkpt lat="44.35845" lon="3.51713">
        <ele>657</ele>
        <time>2017-03-01T01:17:51Z</time>
      </trkpt>
      <trkpt lat="44.35847" lon="3.51718">
        <ele>656</ele>
        <time>2017-03-01T01:19:51Z</time>
      </trkpt>
      <trkpt lat="44.35848" lon="3.51719">
        <ele>656</ele>
        <time>2017-03-01T01:21:51Z</time>
      </trkpt>
      <trkpt lat="44.35847" lon="3.51723">
        <ele>654</ele>
        <time>2017-03-01T01:23:51Z</time>
      </trkpt>
      <trkpt lat="44.35847" lon="3.51727">
        <ele>653</ele>
        <time>2017-03-01T01:25:51Z</time>
      </trkpt>
      <trkpt lat="44.35848" lon="3.5173">
        <ele>653</ele>
        <time>2017-03-01T01:27:51Z</time>
      </trkpt>
      <trkpt lat="44.35849" lon="3.51732">
        <ele>653</ele>
        <time>2017-03-01T01:29:51Z</time>
      </trkpt>
      <trkpt lat="44.35851" lon="3.51734">
        <ele>653</ele>
        <time>2017-03-01T01:31:51Z</time>
      </trkpt>
      <trkpt lat="44.35851" lon="3.51736">
        <ele>652</ele>
        <time>2017-03-01T01:33:51Z</time>
      </trkpt>
      <trkpt lat="44.35852" lon="3.51743">
        <ele>651</ele>
        <time>2017-03-01T01:35:51Z</time>
      </trkpt>
      <trkpt lat="44.35852" lon="3.51749">
        <ele>649</ele>
        <time>2017-03-01T01:37:51Z</time>
      </trkpt>
      <trkpt lat="44.35853" lon="3.51752">
        <ele>648</ele>
        <time>2017-03-01T01:39:51Z</time>
      </trkpt>
      <trkpt lat="44.35853" lon="3.51757">
        <ele>647</ele>
        <time>2017-03-01T01:41:51Z</time>
      </trkpt>
      <trkpt lat="44.35854" lon="3.51762">
        <ele>646</ele>
        <time>2017-03-01T01:43:51Z</time>
      </trkpt>
      <trkpt lat="44.35855" lon="3.51766">
        <ele>645</ele>
        <time>2017-03-01T01:45:51Z</time>
      </trkpt>
      <trkpt lat="44.35856" lon="3.51768">
        <ele>645</ele>
        <time>2017-03-01T01:47:51Z</time>
      </trkpt>
      <trkpt lat="44.35855" lon="3.51769">
        <ele>644</ele>
        <time>2017-03-01T01:49:51Z</time>
      </trkpt>
      <trkpt lat="44.35854" lon="3.51768">
        <ele>644</ele>
        <time>2017-03-01T01:51:51Z</time>
      </trkpt>
      <trkpt lat="44.35849" lon="3.51761">
        <ele>644</ele>
        <time>2017-03-01T01:53:51Z</time>
      </trkpt>
      <trkpt lat="44.35845" lon="3.51755">
        <ele>644</ele>
        <time>2017-03-01T01:55:51Z</time>
      </trkpt>
      <trkpt lat="44.35839" lon="3.51749">
        <ele>643</ele>
        <time>2017-03-01T01:57:51Z</time>
      </trkpt>
      <trkpt lat="44.35838" lon="3.51748">
        <ele>643</ele>
        <time>2017-03-01T01:59:51Z</time>
      </trkpt>
      <trkpt lat="44.35837" lon="3.51749">
        <ele>642</ele>
        <time>2017-03-01T02:01:51Z</time>
      </trkpt>
      <trkpt lat="44.35837" lon="3.51752">
        <ele>641</ele>
        <time>2017-03-01T02:03:51Z</time>
      </trkpt>
      <trkpt lat="44.35838" lon="3.51758">
        <ele>640</ele>
        <time>2017-03-01T02:05:51Z</time>
      </trkpt>
      <trkpt lat="44.35845" lon="3.51803">
        <ele>630</ele>
        <time>2017-03-01T02:07:51Z</time>
      </trkpt>
      <trkpt lat="44.35847" lon="3.51811">
        <ele>628</ele>
        <time>2017-03-01T02:09:51Z</time>
      </trkpt>
      <trkpt lat="44.35847" lon="3.51814">
        <ele>627</ele>
        <time>2017-03-01T02:11:51Z</time>
      </trkpt>
      <trkpt lat="44.35846" lon="3.51815">
        <ele>626</ele>
        <time>2017-03-01T02:13:51Z</time>
      </trkpt>
      <trkpt lat="44.35844" lon="3.51815">
        <ele>626</ele>
        <time>2017-03-01T02:15:51Z</time>
      </trkpt>
      <trkpt lat="44.35842" lon="3.51813">
        <ele>625</ele>
        <time>2017-03-01T02:17:51Z</time>
      </trkpt>
      <trkpt lat="44.35841" lon="3.51811">
        <ele>626</ele>
        <time>2017-03-01T02:19:51Z</time>
      </trkpt>
      <trkpt lat="44.35839" lon="3.51805">
        <ele>627</ele>
        <time>2017-03-01T02:21:51Z</time>
      </trkpt>
      <trkpt lat="44.35836" lon="3.518">
        <ele>627</ele>
        <time>2017-03-01T02:23:51Z</time>
      </trkpt>
      <trkpt lat="44.35833" lon="3.51793">
        <ele>628</ele>
        <time>2017-03-01T02:25:51Z</time>
      </trkpt>
      <trkpt lat="44.35831" lon="3.5179">
        <ele>628</ele>
        <time>2017-03-01T02:27:51Z</time>
      </trkpt>
      <trkpt lat="44.35828" lon="3.51788">
        <ele>627</ele>
        <time>2017-03-01T02:29:51Z</time>
      </trkpt>
      <trkpt lat="44.35819" lon="3.51784">
        <ele>625</ele>
        <time>2017-03-01T02:31:51Z</time>
      </trkpt>
      <trkpt lat="44.35808" lon="3.5178">
        <ele>623</ele>
        <time>2017-03-01T02:33:51Z</time>
      </trkpt>
      <trkpt lat="44.35802" lon="3.51778">
        <ele>622</ele>
        <time>2017-03-01T02:35:51Z</time>
      </trkpt>
      <trkpt lat="44.35795" lon="3.51778">
        <ele>619</ele>
        <time>2017-03-01T02:37:51Z</time>
      </trkpt>
      <trkpt lat="44.35788" lon="3.5178">
        <ele>616</ele>
        <time>2017-03-01T02:39:51Z</time>
      </trkpt>
      <trkpt lat="44.35777" lon="3.51786">
        <ele>611</ele>
        <time>2017-03-01T02:41:51Z</time>
      </trkpt>
      <trkpt lat="44.35769" lon="3.51792">
        <ele>607</ele>
        <time>2017-03-01T02:43:51Z</time>
      </trkpt>
      <trkpt lat="44.35762" lon="3.51796">
        <ele>603</ele>
        <time>2017-03-01T02:45:51Z</time>
      </trkpt>
      <trkpt lat="44.35756" lon="3.51799">
        <ele>600</ele>
        <time>2017-03-01T02:47:51Z</time>
      </trkpt>
      <trkpt lat="44.35747" lon="3.51805">
        <ele>596</ele>
        <time>2017-03-01T02:49:51Z</time>
      </trkpt>
      <trkpt lat="44.3574" lon="3.51807">
        <ele>593</ele>
        <time>2017-03-01T02:51:51Z</time>
      </trkpt>
      <trkpt lat="44.3573" lon="3.51809">
        <ele>589</ele>
        <time>2017-03-01T02:53:51Z</time>
      </trkpt>
      <trkpt lat="44.35715" lon="3.5181">
        <ele>584</ele>
        <time>2017-03-01T02:55:51Z</time>
      </trkpt>
      <trkpt lat="44.35711" lon="3.5181">
        <ele>583</ele>
        <time>2017-03-01T02:57:51Z</time>
      </trkpt>
      <trkpt lat="44.35706" lon="3.51808">
        <ele>582</ele>
        <time>2017-03-01T02:59:51Z</time>
      </trkpt>
      <trkpt lat="44.35703" lon="3.51807">
        <ele>581</ele>
        <time>2017-03-01T03:01:51Z</time>
      </trkpt>
      <trkpt lat="44.357" lon="3.51805">
        <ele>581</ele>
        <time>2017-03-01T03:03:51Z</time>
      </trkpt>
      <trkpt lat="44.35697" lon="3.51805">
        <ele>580</ele>
        <time>2017-03-01T03:05:51Z</time>
      </trkpt>
      <trkpt lat="44.35696" lon="3.51808">
        <ele>579</ele>
        <time>2017-03-01T03:07:51Z</time>
      </trkpt>
      <trkpt lat="44.35696" lon="3.51814">
        <ele>577</ele>
        <time>2017-03-01T03:09:51Z</time>
      </trkpt>
      <trkpt lat="44.35697" lon="3.51818">
        <ele>576</ele>
        <time>2017-03-01T03:11:51Z</time>
      </trkpt>
      <trkpt lat="44.35697" lon="3.51821">
        <ele>575</ele>
        <time>2017-03-01T03:13:51Z</time>
      </trkpt>
      <trkpt lat="44.35696" lon="3.51823">
        <ele>574</ele>
        <time>2017-03-01T03:15:51Z</time>
      </trkpt>
      <trkpt lat="44.35694" lon="3.51824">
        <ele>574</ele>
        <time>2017-03-01T03:17:51Z</time>
      </trkpt>
      <trkpt lat="44.35685" lon="3.51824">
        <ele>571</ele>
        <time>2017-03-01T03:19:51Z</time>
      </trkpt>
      <trkpt lat="44.35678" lon="3.51823">
        <ele>569</ele>
        <time>2017-03-01T03:21:51Z</time>
      </trkpt>
      <trkpt lat="44.35674" lon="3.51821">
        <ele>568</ele>
        <time>2017-03-01T03:23:51Z</time>
      </trkpt>
      <trkpt lat="44.3567" lon="3.51818">
        <ele>567</ele>
        <time>2017-03-01T03:25:51Z</time>
      </trkpt>
      <trkpt lat="44.35667" lon="3.51814">
        <ele>568</ele>
        <time>2017-03-01T03:27:51Z</time>
      </trkpt>
      <trkpt lat="44.35664" lon="3.51812">
        <ele>567</ele>
        <time>2017-03-01T03:29:51Z</time>
      </trkpt>
      <trkpt lat="44.3566" lon="3.51811">
        <ele>566</ele>
        <time>2017-03-01T03:31:51Z</time>
      </trkpt>
      <trkpt lat="44.35651" lon="3.51809">
        <ele>563</ele>
        <time>2017-03-01T03:33:51Z</time>
      </trkpt>
      <trkpt lat="44.35643" lon="3.51808">
        <ele>561</ele>
        <time>2017-03-01T03:35:51Z</time>
      </trkpt>
      <trkpt lat="44.35638" lon="3.5181">
        <ele>558</ele>
        <time>2017-03-01T03:37:51Z</time>
      </trkpt>
      <trkpt lat="44.35634" lon="3.5181">
        <ele>557</ele>
        <time>2017-03-01T03:39:51Z</time>
      </trkpt>
      <trkpt lat="44.35631" lon="3.5181">
        <ele>556</ele>
        <time>2017-03-01T03:41:51Z</time>
      </trkpt>
      <trkpt lat="44.35628" lon="3.5181">
        <ele>555</ele>
        <time>2017-03-01T03:43:51Z</time>
      </trkpt>
      <trkpt lat="44.35623" lon="3.5181">
        <ele>553</ele>
        <time>2017-03-01T03:45:51Z</time>
      </trkpt>
      <trkpt lat="44.3562" lon="3.5181">
        <ele>552</ele>
        <time>2017-03-01T03:47:51Z</time>
      </trkpt>
      <trkpt lat="44.35618" lon="3.51808">
        <ele>552</ele>
        <time>2017-03-01T03:49:51Z</time>
      </trkpt>
      <trkpt lat="44.35615" lon="3.51809">
        <ele>550</ele>
        <time>2017-03-01T03:51:51Z</time>
      </trkpt>
      <trkpt lat="44.35614" lon="3.51811">
        <ele>549</ele>
        <time>2017-03-01T03:53:51Z</time>
      </trkpt>
      <trkpt lat="44.35615" lon="3.51814">
        <ele>549</ele>
        <time>2017-03-01T03:55:51Z</time>
      </trkpt>
      <trkpt lat="44.35616" lon="3.51818">
        <ele>548</ele>
        <time>2017-03-01T03:57:51Z</time>
      </trkpt>
      <trkpt lat="44.35619" lon="3.51823">
        <ele>547</ele>
        <time>2017-03-01T03:59:51Z</time>
      </trkpt>
      <trkpt lat="44.35622" lon="3.51827">
        <ele>547</ele>
        <time>2017-03-01T04:01:51Z</time>
      </trkpt>
      <trkpt lat="44.35624" lon="3.51831">
        <ele>546</ele>
        <time>2017-03-01T04:03:51Z</time>
      </trkpt>
      <trkpt lat="44.35624" lon="3.51833">
        <ele>546</ele>
        <time>2017-03-01T04:05:51Z</time>
      </trkpt>
      <trkpt lat="44.35623" lon="3.51836">
        <ele>545</ele>
        <time>2017-03-01T04:07:51Z</time>
      </trkpt>
      <trkpt lat="44.3562" lon="3.51836">
        <ele>543</ele>
        <time>2017-03-01T04:09:51Z</time>
      </trkpt>
      <trkpt lat="44.35615" lon="3.51837">
        <ele>541</ele>
        <time>2017-03-01T04:11:51Z</time>
      </trkpt>
      <trkpt lat="44.35604" lon="3.51836">
        <ele>537</ele>
        <time>2017-03-01T04:13:51Z</time>
      </trkpt>
      <trkpt lat="44.35594" lon="3.51836">
        <ele>533</ele>
        <time>2017-03-01T04:15:51Z</time>
      </trkpt>
      <trkpt lat="44.35588" lon="3.51834">
        <ele>532</ele>
        <time>2017-03-01T04:17:51Z</time>
      </trkpt>
      <trkpt lat="44.35582" lon="3.51832">
        <ele>530</ele>
        <time>2017-03-01T04:19:51Z</time>
      </trkpt>
      <trkpt lat="44.35574" lon="3.51831">
        <ele>529</ele>
        <time>2017-03-01T04:21:51Z</time>
      </trkpt>
      <trkpt lat="44.35566" lon="3.51831">
        <ele>526</ele>
        <time>2017-03-01T04:23:51Z</time>
      </trkpt>
      <trkpt lat="44.35561" lon="3.51831">
        <ele>525</ele>
        <time>2017-03-01T04:25:51Z</time>
      </trkpt>
      <trkpt lat="44.35559" lon="3.51834">
        <ele>524</ele>
        <time>2017-03-01T04:27:51Z</time>
      </trkpt>
      <trkpt lat="44.35557" lon="3.51837">
        <ele>523</ele>
        <time>2017-03-01T04:29:51Z</time>
      </trkpt>
      <trkpt lat="44.35554" lon="3.51846">
        <ele>520</ele>
        <time>2017-03-01T04:31:51Z</time>
      </trkpt>
      <trkpt lat="44.35551" lon="3.51853">
        <ele>518</ele>
        <time>2017-03-01T04:33:51Z</time>
      </trkpt>
      <trkpt lat="44.3555" lon="3.51853">
        <ele>518</ele>
        <time>2017-03-01T04:35:51Z</time>
      </trkpt>
      <trkpt lat="44.35545" lon="3.51849">
        <ele>518</ele>
        <time>2017-03-01T04:37:51Z</time>
      </trkpt>
      <trkpt lat="44.35542" lon="3.51846">
        <ele>517</ele>
        <time>2017-03-01T04:39:51Z</time>
      </trkpt>
      <trkpt lat="44.35536" lon="3.51842">
        <ele>517</ele>
        <time>2017-03-01T04:41:51Z</time>
      </trkpt>
      <trkpt lat="44.35535" lon="3.51841">
        <ele>517</ele>
        <time>2017-03-01T04:43:51Z</time>
      </trkpt>
      <trkpt lat="44.35533" lon="3.51841">
        <ele>516</ele>
        <time>2017-03-01T04:45:51Z</time>
      </trkpt>
      <trkpt lat="44.35532" lon="3.51842">
        <ele>516</ele>
        <time>2017-03-01T04:47:51Z</time>
      </trkpt>
      <trkpt lat="44.35528" lon="3.51846">
        <ele>514</ele>
        <time>2017-03-01T04:49:51Z</time>
      </trkpt>
      <trkpt lat="44.35528" lon="3.51846">
        <ele>514</ele>
        <time>2017-03-01T04:51:51Z</time>
      </trkpt>
      <trkpt lat="44.35557" lon="3.51876">
        <ele>515</ele>
        <time>2017-03-01T04:53:51Z</time>
      </trkpt>
      <trkpt lat="44.3557" lon="3.51889">
        <ele>515</ele>
        <time>2017-03-01T04:55:51Z</time>
      </trkpt>
      <trkpt lat="44.35581" lon="3.51902">
        <ele>515</ele>
        <time>2017-03-01T04:57:51Z</time>
      </trkpt>
      <trkpt lat="44.3559" lon="3.5191">
        <ele>516</ele>
        <time>2017-03-01T04:59:51Z</time>
      </trkpt>
      <trkpt lat="44.35608" lon="3.51929">
        <ele>517</ele>
        <time>2017-03-01T05:01:51Z</time>
      </trkpt>
      <trkpt lat="44.35625" lon="3.51948">
        <ele>518</ele>
        <time>2017-03-01T05:03:51Z</time>
      </trkpt>
      <trkpt lat="44.35638" lon="3.5196">
        <ele>519</ele>
        <time>2017-03-01T05:05:51Z</time>
      </trkpt>
      <trkpt lat="44.35653" lon="3.51972">
        <ele>519</ele>
        <time>2017-03-01T05:07:51Z</time>
      </trkpt>
      <trkpt lat="44.35677" lon="3.51988">
        <ele>520</ele>
        <time>2017-03-01T05:09:51Z</time>
      </trkpt>
      <trkpt lat="44.35694" lon="3.52002">
        <ele>521</ele>
        <time>2017-03-01T05:11:51Z</time>
      </trkpt>
      <trkpt lat="44.3571" lon="3.52021">
        <ele>522</ele>
        <time>2017-03-01T05:13:51Z</time>
      </trkpt>
      <trkpt lat="44.35726" lon="3.52043">
        <ele>520</ele>
        <time>2017-03-01T05:15:51Z</time>
      </trkpt>
      <trkpt lat="44.35734" lon="3.52055">
        <ele>518</ele>
        <time>2017-03-01T05:17:51Z</time>
      </trkpt>
      <trkpt lat="44.35738" lon="3.52059">
        <ele>517</ele>
        <time>2017-03-01T05:19:51Z</time>
      </trkpt>
      <trkpt lat="44.35744" lon="3.52064">
        <ele>517</ele>
        <time>2017-03-01T05:21:51Z</time>
      </trkpt>
      <trkpt lat="44.35753" lon="3.52071">
        <ele>516</ele>
        <time>2017-03-01T05:23:51Z</time>
      </trkpt>
      <trkpt lat="44.35776" lon="3.52083">
        <ele>516</ele>
        <time>2017-03-01T05:25:51Z</time>
      </trkpt>
      <trkpt lat="44.35796" lon="3.52094">
        <ele>517</ele>
        <time>2017-03-01T05:27:51Z</time>
      </trkpt>
      <trkpt lat="44.35826" lon="3.52113">
        <ele>517</ele>
        <time>2017-03-01T05:29:51Z</time>
      </trkpt>
      <trkpt lat="44.35842" lon="3.52124">
        <ele>516</ele>
        <time>2017-03-01T05:31:51Z</time>
      </trkpt>
      <trkpt lat="44.35861" lon="3.52134">
        <ele>515</ele>
        <time>2017-03-01T05:33:51Z</time>
      </trkpt>
      <trkpt lat="44.35889" lon="3.52147">
        <ele>514</ele>
        <time>2017-03-01T05:35:51Z</time>
      </trkpt>
      <trkpt lat="44.3591" lon="3.52154">
        <ele>513</ele>
        <time>2017-03-01T05:37:51Z</time>
      </trkpt>
      <trkpt lat="44.35939" lon="3.5216">
        <ele>511</ele>
        <time>2017-03-01T05:39:51Z</time>
      </trkpt>
      <trkpt lat="44.35984" lon="3.52167">
        <ele>509</ele>
        <time>2017-03-01T05:41:51Z</time>
      </trkpt>
      <trkpt lat="44.36013" lon="3.52171">
        <ele>509</ele>
        <time>2017-03-01T05:43:51Z</time>
      </trkpt>
      <trkpt lat="44.36043" lon="3.52173">
        <ele>511</ele>
        <time>2017-03-01T05:45:51Z</time>
      </trkpt>
      <trkpt lat="44.36057" lon="3.52176">
        <ele>511</ele>
        <time>2017-03-01T05:47:51Z</time>
      </trkpt>
      <trkpt lat="44.36076" lon="3.52184">
        <ele>511</ele>
        <time>2017-03-01T05:49:51Z</time>
      </trkpt>
      <trkpt lat="44.36096" lon="3.52195">
        <ele>510</ele>
        <time>2017-03-01T05:51:51Z</time>
      </trkpt>
      <trkpt lat="44.36121" lon="3.52209">
        <ele>510</ele>
        <time>2017-03-01T05:53:51Z</time>
      </trkpt>
      <trkpt lat="44.36125" lon="3.52211">
        <ele>510</ele>
        <time>2017-03-01T05:55:51Z</time>
      </trkpt>
      <trkpt lat="44.36132" lon="3.52214">
        <ele>510</ele>
        <time>2017-03-01T05:57:51Z</time>
      </trkpt>
      <trkpt lat="44.36137" lon="3.52215">
        <ele>510</ele>
        <time>2017-03-01T05:59:51Z</time>
      </trkpt>
      <trkpt lat="44.36143" lon="3.52215">
        <ele>510</ele>
        <time>2017-03-01T06:01:51Z</time>
      </trkpt>
      <trkpt lat="44.36151" lon="3.52215">
        <ele>511</ele>
        <time>2017-03-01T06:03:51Z</time>
      </trkpt>
      <trkpt lat="44.36163" lon="3.52215">
        <ele>511</ele>
        <time>2017-03-01T06:05:51Z</time>
      </trkpt>
      <trkpt lat="44.36178" lon="3.52213">
        <ele>512</ele>
        <time>2017-03-01T06:07:51Z</time>
      </trkpt>
      <trkpt lat="44.36192" lon="3.52212">
        <ele>513</ele>
        <time>2017-03-01T06:09:51Z</time>
      </trkpt>
      <trkpt lat="44.36201" lon="3.52213">
        <ele>513</ele>
        <time>2017-03-01T06:11:51Z</time>
      </trkpt>
      <trkpt lat="44.36208" lon="3.52215">
        <ele>513</ele>
        <time>2017-03-01T06:13:51Z</time>
      </trkpt>
      <trkpt lat="44.36221" lon="3.5222">
        <ele>512</ele>
        <time>2017-03-01T06:15:51Z</time>
      </trkpt>
      <trkpt lat="44.36243" lon="3.52231">
        <ele>510</ele>
        <time>2017-03-01T06:17:51Z</time>
      </trkpt>
      <trkpt lat="44.36261" lon="3.5224">
        <ele>508</ele>
        <time>2017-03-01T06:19:51Z</time>
      </trkpt>
      <trkpt lat="44.36268" lon="3.52242">
        <ele>507</ele>
        <time>2017-03-01T06:21:51Z</time>
      </trkpt>
      <trkpt lat="44.36276" lon="3.52244">
        <ele>506</ele>
        <time>2017-03-01T06:23:51Z</time>
      </trkpt>
      <trkpt lat="44.36288" lon="3.52246">
        <ele>506</ele>
        <time>2017-03-01T06:25:51Z</time>
      </trkpt>
      <trkpt lat="44.36301" lon="3.52246">
        <ele>506</ele>
        <time>2017-03-01T06:27:51Z</time>
      </trkpt>
      <trkpt lat="44.36311" lon="3.52246">
        <ele>505</ele>
        <time>2017-03-01T06:29:51Z</time>
      </trkpt>
      <trkpt lat="44.36338" lon="3.52241">
        <ele>506</ele>
        <time>2017-03-01T06:31:51Z</time>
      </trkpt>
      <trkpt lat="44.36358" lon="3.52236">
        <ele>507</ele>
        <time>2017-03-01T06:33:51Z</time>
      </trkpt>
      <trkpt lat="44.3638" lon="3.52229">
        <ele>508</ele>
        <time>2017-03-01T06:35:51Z</time>
      </trkpt>
      <trkpt lat="44.36407" lon="3.52219">
        <ele>510</ele>
        <time>2017-03-01T06:37:51Z</time>
      </trkpt>
      <trkpt lat="44.36431" lon="3.5221">
        <ele>511</ele>
        <time>2017-03-01T06:39:51Z</time>
      </trkpt>
      <trkpt lat="44.36446" lon="3.52206">
        <ele>511</ele>
        <time>2017-03-01T06:41:51Z</time>
      </trkpt>
      <trkpt lat="44.36455" lon="3.52202">
        <ele>511</ele>
        <time>2017-03-01T06:43:51Z</time>
      </trkpt>
      <trkpt lat="44.36466" lon="3.52202">
        <ele>510</ele>
        <time>2017-03-01T06:45:51Z</time>
      </trkpt>
      <trkpt lat="44.36499" lon="3.52201">
        <ele>509</ele>
        <time>2017-03-01T06:47:51Z</time>
      </trkpt>
      <trkpt lat="44.36501" lon="3.52201">
        <ele>508</ele>
        <time>2017-03-01T06:49:51Z</time>
      </trkpt>
      <trkpt lat="44.36559" lon="3.522">
        <ele>508</ele>
        <time>2017-03-01T06:51:51Z</time>
      </trkpt>
      <trkpt lat="44.36571" lon="3.52199">
        <ele>507</ele>
        <time>2017-03-01T06:53:51Z</time>
      </trkpt>
      <trkpt lat="44.36586" lon="3.52194">
        <ele>508</ele>
        <time>2017-03-01T06:55:51Z</time>
      </trkpt>
      <trkpt lat="44.36609" lon="3.52182">
        <ele>508</ele>
        <time>2017-03-01T06:57:51Z</time>
      </trkpt>
      <trkpt lat="44.36642" lon="3.52163">
        <ele>509</ele>
        <time>2017-03-01T06:59:51Z</time>
      </trkpt>
      <trkpt lat="44.36671" lon="3.52144">
        <ele>513</ele>
        <time>2017-03-01T07:01:51Z</time>
      </trkpt>
      <trkpt lat="44.36733" lon="3.52112">
        <ele>512</ele>
        <time>2017-03-01T07:03:51Z</time>
      </trkpt>
      <trkpt lat="44.36765" lon="3.52099">
        <ele>511</ele>
        <time>2017-03-01T07:05:51Z</time>
      </trkpt>
      <trkpt lat="44.36782" lon="3.52092">
        <ele>511</ele>
        <time>2017-03-01T07:07:51Z</time>
      </trkpt>
      <trkpt lat="44.368" lon="3.52086">
        <ele>510</ele>
        <time>2017-03-01T07:09:51Z</time>
      </trkpt>
      <trkpt lat="44.36815" lon="3.52081">
        <ele>511</ele>
        <time>2017-03-01T07:11:51Z</time>
      </trkpt>
      <trkpt lat="44.3683" lon="3.52075">
        <ele>512</ele>
        <time>2017-03-01T07:13:51Z</time>
      </trkpt>
      <trkpt lat="44.36849" lon="3.52062">
        <ele>515</ele>
        <time>2017-03-01T07:15:51Z</time>
      </trkpt>
      <trkpt lat="44.36876" lon="3.52042">
        <ele>516</ele>
        <time>2017-03-01T07:17:51Z</time>
      </trkpt>
      <trkpt lat="44.36904" lon="3.52022">
        <ele>514</ele>
        <time>2017-03-01T07:19:51Z</time>
      </trkpt>
      <trkpt lat="44.36927" lon="3.52007">
        <ele>512</ele>
        <time>2017-03-01T07:21:51Z</time>
      </trkpt>
      <trkpt lat="44.37005" lon="3.51966">
        <ele>522</ele>
        <time>2017-03-01T07:23:51Z</time>
      </trkpt>
      <trkpt lat="44.37043" lon="3.5195">
        <ele>523</ele>
        <time>2017-03-01T07:25:51Z</time>
      </trkpt>
      <trkpt lat="44.37074" lon="3.51937">
        <ele>522</ele>
        <time>2017-03-01T07:27:51Z</time>
      </trkpt>
      <trkpt lat="44.37098" lon="3.51927">
        <ele>521</ele>
        <time>2017-03-01T07:29:51Z</time>
      </trkpt>
      <trkpt lat="44.37115" lon="3.51918">
        <ele>521</ele>
        <time>2017-03-01T07:31:51Z</time>
      </trkpt>
      <trkpt lat="44.37133" lon="3.5191">
        <ele>523</ele>
        <time>2017-03-01T07:33:51Z</time>
      </trkpt>
      <trkpt lat="44.37146" lon="3.51907">
        <ele>523</ele>
        <time>2017-03-01T07:35:51Z</time>
      </trkpt>
      <trkpt lat="44.37155" lon="3.51907">
        <ele>522</ele>
        <time>2017-03-01T07:37:51Z</time>
      </trkpt>
      <trkpt lat="44.37166" lon="3.51908">
        <ele>519</ele>
        <time>2017-03-01T07:39:51Z</time>
      </trkpt>
      <trkpt lat="44.37189" lon="3.51909">
        <ele>519</ele>
        <time>2017-03-01T07:41:51Z</time>
      </trkpt>
      <trkpt lat="44.37216" lon="3.51909">
        <ele>519</ele>
        <time>2017-03-01T07:43:51Z</time>
      </trkpt>
      <trkpt lat="44.3724" lon="3.51909">
        <ele>518</ele>
        <time>2017-03-01T07:45:51Z</time>
      </trkpt>
      <trkpt lat="44.37244" lon="3.5191">
        <ele>518</ele>
        <time>2017-03-01T07:47:51Z</time>
      </trkpt>
      <trkpt lat="44.37252" lon="3.51912">
        <ele>518</ele>
        <time>2017-03-01T07:49:51Z</time>
      </trkpt>
      <trkpt lat="44.37259" lon="3.51914">
        <ele>518</ele>
        <time>2017-03-01T07:51:51Z</time>
      </trkpt>
      <trkpt lat="44.37275" lon="3.5192">
        <ele>520</ele>
        <time>2017-03-01T07:53:51Z</time>
      </trkpt>
      <trkpt lat="44.37306" lon="3.51937">
        <ele>523</ele>
        <time>2017-03-01T07:55:51Z</time>
      </trkpt>
      <trkpt lat="44.37335" lon="3.51957">
        <ele>522</ele>
        <time>2017-03-01T07:57:51Z</time>
      </trkpt>
      <trkpt lat="44.37378" lon="3.51981">
        <ele>521</ele>
        <time>2017-03-01T07:59:51Z</time>
      </trkpt>
      <trkpt lat="44.37399" lon="3.5199">
        <ele>520</ele>
        <time>2017-03-01T08:01:51Z</time>
      </trkpt>
      <trkpt lat="44.37416" lon="3.51995">
        <ele>520</ele>
        <time>2017-03-01T08:03:51Z</time>
      </trkpt>
      <trkpt lat="44.37436" lon="3.51998">
        <ele>522</ele>
        <time>2017-03-01T08:05:51Z</time>
      </trkpt>
      <trkpt lat="44.37457" lon="3.52003">
        <ele>525</ele>
        <time>2017-03-01T08:07:51Z</time>
      </trkpt>
      <trkpt lat="44.37475" lon="3.52011">
        <ele>526</ele>
        <time>2017-03-01T08:09:51Z</time>
      </trkpt>
      <trkpt lat="44.37485" lon="3.52016">
        <ele>526</ele>
        <time>2017-03-01T08:11:51Z</time>
      </trkpt>
      <trkpt lat="44.37501" lon="3.52028">
        <ele>525</ele>
        <time>2017-03-01T08:13:51Z</time>
      </trkpt>
      <trkpt lat="44.37525" lon="3.52049">
        <ele>521</ele>
        <time>2017-03-01T08:15:51Z</time>
      </trkpt>
      <trkpt lat="44.37553" lon="3.52078">
        <ele>515</ele>
        <time>2017-03-01T08:17:51Z</time>
      </trkpt>
      <trkpt lat="44.37571" lon="3.52098">
        <ele>514</ele>
        <time>2017-03-01T08:19:51Z</time>
      </trkpt>
      <trkpt lat="44.37587" lon="3.52115">
        <ele>513</ele>
        <time>2017-03-01T08:21:51Z</time>
      </trkpt>
      <trkpt lat="44.37597" lon="3.52125">
        <ele>513</ele>
        <time>2017-03-01T08:23:51Z</time>
      </trkpt>
      <trkpt lat="44.37604" lon="3.52129">
        <ele>513</ele>
        <time>2017-03-01T08:25:51Z</time>
      </trkpt>
      <trkpt lat="44.37612" lon="3.52131">
        <ele>513</ele>
        <time>2017-03-01T08:27:51Z</time>
      </trkpt>
      <trkpt lat="44.3762" lon="3.5213">
        <ele>514</ele>
        <time>2017-03-01T08:29:51Z</time>
      </trkpt>
      <trkpt lat="44.37631" lon="3.52127">
        <ele>515</ele>
        <time>2017-03-01T08:31:51Z</time>
      </trkpt>
      <trkpt lat="44.37641" lon="3.52125">
        <ele>515</ele>
        <time>2017-03-01T08:33:51Z</time>
      </trkpt>
      <trkpt lat="44.37649" lon="3.52122">
        <ele>516</ele>
        <time>2017-03-01T08:35:51Z</time>
      </trkpt>
      <trkpt lat="44.37654" lon="3.52122">
        <ele>517</ele>
        <time>2017-03-01T08:37:51Z</time>
      </trkpt>
      <trkpt lat="44.37658" lon="3.52123">
        <ele>517</ele>
        <time>2017-03-01T08:39:51Z</time>
      </trkpt>
      <trkpt lat="44.37665" lon="3.52128">
        <ele>517</ele>
        <time>2017-03-01T08:41:51Z</time>
      </trkpt>
      <trkpt lat="44.3767" lon="3.52133">
        <ele>516</ele>
        <time>2017-03-01T08:43:51Z</time>
      </trkpt>
      <trkpt lat="44.37676" lon="3.5214">
        <ele>515</ele>
        <time>2017-03-01T08:45:51Z</time>
      </trkpt>
      <trkpt lat="44.37681" lon="3.52149">
        <ele>515</ele>
        <time>2017-03-01T08:47:51Z</time>
      </trkpt>
      <trkpt lat="44.37684" lon="3.52159">
        <ele>514</ele>
        <time>2017-03-01T08:49:51Z</time>
      </trkpt>
      <trkpt lat="44.37685" lon="3.52168">
        <ele>513</ele>
        <time>2017-03-01T08:51:51Z</time>
      </trkpt>
      <trkpt lat="44.37685" lon="3.52181">
        <ele>513</ele>
        <time>2017-03-01T08:53:51Z</time>
      </trkpt>
      <trkpt lat="44.37685" lon="3.52184">
        <ele>513</ele>
        <time>2017-03-01T08:55:51Z</time>
      </trkpt>
      <trkpt lat="44.37687" lon="3.5222">
        <ele>513</ele>
        <time>2017-03-01T08:57:51Z</time>
      </trkpt>
      <trkpt lat="44.37687" lon="3.52247">
        <ele>513</ele>
        <time>2017-03-01T08:59:51Z</time>
      </trkpt>
      <trkpt lat="44.37686" lon="3.52274">
        <ele>513</ele>
        <time>2017-03-01T09:01:51Z</time>
      </trkpt>
      <trkpt lat="44.3768" lon="3.52336">
        <ele>512</ele>
        <time>2017-03-01T09:03:51Z</time>
      </trkpt>
      <trkpt lat="44.37677" lon="3.52384">
        <ele>513</ele>
        <time>2017-03-01T09:05:51Z</time>
      </trkpt>
      <trkpt lat="44.37676" lon="3.52408">
        <ele>514</ele>
        <time>2017-03-01T09:07:51Z</time>
      </trkpt>
      <trkpt lat="44.37674" lon="3.52435">
        <ele>514</ele>
        <time>2017-03-01T09:09:51Z</time>
      </trkpt>
      <trkpt lat="44.37671" lon="3.52471">
        <ele>515</ele>
        <time>2017-03-01T09:11:51Z</time>
      </trkpt>
      <trkpt lat="44.37669" lon="3.52484">
        <ele>516</ele>
        <time>2017-03-01T09:13:51Z</time>
      </trkpt>
      <trkpt lat="44.37666" lon="3.52496">
        <ele>516</ele>
        <time>2017-03-01T09:15:51Z</time>
      </trkpt>
      <trkpt lat="44.37662" lon="3.52508">
        <ele>516</ele>
        <time>2017-03-01T09:17:51Z</time>
      </trkpt>
      <trkpt lat="44.37654" lon="3.52524">
        <ele>515</ele>
        <time>2017-03-01T09:19:51Z</time>
      </trkpt>
      <trkpt lat="44.37648" lon="3.52535">
        <ele>515</ele>
        <time>2017-03-01T09:21:51Z</time>
      </trkpt>
      <trkpt lat="44.37627" lon="3.52573">
        <ele>514</ele>
        <time>2017-03-01T09:23:51Z</time>
      </trkpt>
      <trkpt lat="44.37611" lon="3.52604">
        <ele>514</ele>
        <time>2017-03-01T09:25:51Z</time>
      </trkpt>
      <trkpt lat="44.37601" lon="3.52623">
        <ele>513</ele>
        <time>2017-03-01T09:27:51Z</time>
      </trkpt>
      <trkpt lat="44.37594" lon="3.52646">
        <ele>514</ele>
        <time>2017-03-01T09:29:51Z</time>
      </trkpt>
      <trkpt lat="44.37584" lon="3.5269">
        <ele>514</ele>
        <time>2017-03-01T09:31:51Z</time>
      </trkpt>
      <trkpt lat="44.37576" lon="3.52735">
        <ele>515</ele>
        <time>2017-03-01T09:33:51Z</time>
      </trkpt>
      <trkpt lat="44.37569" lon="3.52771">
        <ele>515</ele>
        <time>2017-03-01T09:35:51Z</time>
      </trkpt>
      <trkpt lat="44.37569" lon="3.52771">
        <ele>515</ele>
        <time>2017-03-01T09:37:51Z</time>
      </trkpt>
      <trkpt lat="44.37514" lon="3.5275">
        <ele>511</ele>
        <time>2017-03-01T09:39:51Z</time>
      </trkpt>
      <trkpt lat="44.37486" lon="3.52737">
        <ele>509</ele>
        <time>2017-03-01T09:41:51Z</time>
      </trkpt>
      <trkpt lat="44.37475" lon="3.52731">
        <ele>508</ele>
        <time>2017-03-01T09:43:51Z</time>
      </trkpt>
      <trkpt lat="44.37469" lon="3.52725">
        <ele>508</ele>
        <time>2017-03-01T09:45:51Z</time>
      </trkpt>
      <trkpt lat="44.37463" lon="3.52715">
        <ele>508</ele>
        <time>2017-03-01T09:47:51Z</time>
      </trkpt>
      <trkpt lat="44.37455" lon="3.52699">
        <ele>507</ele>
        <time>2017-03-01T09:49:51Z</time>
      </trkpt>
      <trkpt lat="44.37446" lon="3.52674">
        <ele>506</ele>
        <time>2017-03-01T09:51:51Z</time>
      </trkpt>
      <trkpt lat="44.37435" lon="3.52647">
        <ele>505</ele>
        <time>2017-03-01T09:53:51Z</time>
      </trkpt>
      <trkpt lat="44.3742" lon="3.52607">
        <ele>504</ele>
        <time>2017-03-01T09:55:51Z</time>
      </trkpt>
      <trkpt lat="44.37417" lon="3.52599">
        <ele>503</ele>
        <time>2017-03-01T09:57:51Z</time>
      </trkpt>
      <trkpt lat="44.37415" lon="3.52593">
        <ele>503</ele>
        <time>2017-03-01T09:59:51Z</time>
      </trkpt>
      <trkpt lat="44.37413" lon="3.52588">
        <ele>503</ele>
        <time>2017-03-01T10:01:51Z</time>
      </trkpt>
      <trkpt lat="44.37411" lon="3.52583">
        <ele>503</ele>
        <time>2017-03-01T10:03:51Z</time>
      </trkpt>
      <trkpt lat="44.37407" lon="3.52572">
        <ele>503</ele>
        <time>2017-03-01T10:05:51Z</time>
      </trkpt>
      <trkpt lat="44.37405" lon="3.52569">
        <ele>503</ele>
        <time>2017-03-01T10:07:51Z</time>
      </trkpt>
      <trkpt lat="44.37397" lon="3.52548">
        <ele>504</ele>
        <time>2017-03-01T10:09:51Z</time>
      </trkpt>
      <trkpt lat="44.37396" lon="3.52547">
        <ele>504</ele>
        <time>2017-03-01T10:11:51Z</time>
      </trkpt>
      <trkpt lat="44.37395" lon="3.52545">
        <ele>504</ele>
        <time>2017-03-01T10:13:51Z</time>
      </trkpt>
      <trkpt lat="44.37388" lon="3.52527">
        <ele>504</ele>
        <time>2017-03-01T10:15:51Z</time>
      </trkpt>
      <trkpt lat="44.37384" lon="3.52517">
        <ele>505</ele>
        <time>2017-03-01T10:17:51Z</time>
      </trkpt>
      <trkpt lat="44.37374" lon="3.5249">
        <ele>506</ele>
        <time>2017-03-01T10:19:51Z</time>
      </trkpt>
      <trkpt lat="44.37368" lon="3.52477">
        <ele>506</ele>
        <time>2017-03-01T10:21:51Z</time>
      </trkpt>
      <trkpt lat="44.37363" lon="3.52465">
        <ele>506</ele>
        <time>2017-03-01T10:23:51Z</time>
      </trkpt>
      <trkpt lat="44.37356" lon="3.52456">
        <ele>507</ele>
        <time>2017-03-01T10:25:51Z</time>
      </trkpt>
      <trkpt lat="44.37339" lon="3.52434">
        <ele>508</ele>
        <time>2017-03-01T10:27:51Z</time>
      </trkpt>
      <trkpt lat="44.3733" lon="3.52424">
        <ele>508</ele>
        <time>2017-03-01T10:29:51Z</time>
      </trkpt>
      <trkpt lat="44.3733" lon="3.52424">
        <ele>508</ele>
        <time>2017-03-01T10:31:51Z</time>
      </trkpt>
      <trkpt lat="44.37323" lon="3.52416">
        <ele>508</ele>
        <time>2017-03-01T10:33:51Z</time>
      </trkpt>
      <trkpt lat="44.37323" lon="3.52416">
        <ele>508</ele>
        <time>2017-03-01T10:35:51Z</time>
      </trkpt>
      <trkpt lat="44.37321" lon="3.52426">
        <ele>509</ele>
        <time>2017-03-01T10:37:51Z</time>
      </trkpt>
      <trkpt lat="44.3732" lon="3.52435">
        <ele>509</ele>
        <time>2017-03-01T10:39:51Z</time>
      </trkpt>
      <trkpt lat="44.37317" lon="3.52444">
        <ele>509</ele>
        <time>2017-03-01T10:41:51Z</time>
      </trkpt>
      <trkpt lat="44.37306" lon="3.52463">
        <ele>510</ele>
        <time>2017-03-01T10:43:51Z</time>
      </trkpt>
      <trkpt lat="44.37294" lon="3.52484">
        <ele>511</ele>
        <time>2017-03-01T10:45:51Z</time>
      </trkpt>
      <trkpt lat="44.3728" lon="3.52509">
        <ele>512</ele>
        <time>2017-03-01T10:47:51Z</time>
      </trkpt>
      <trkpt lat="44.37269" lon="3.52522">
        <ele>513</ele>
        <time>2017-03-01T10:49:51Z</time>
      </trkpt>
      <trkpt lat="44.37237" lon="3.52557">
        <ele>515</ele>
        <time>2017-03-01T10:51:51Z</time>
      </trkpt>
      <trkpt lat="44.37209" lon="3.52591">
        <ele>519</ele>
        <time>2017-03-01T10:53:51Z</time>
      </trkpt>
      <trkpt lat="44.372" lon="3.52604">
        <ele>520</ele>
        <time>2017-03-01T10:55:51Z</time>
      </trkpt>
      <trkpt lat="44.37192" lon="3.52611">
        <ele>521</ele>
        <time>2017-03-01T10:57:51Z</time>
      </trkpt>
      <trkpt lat="44.37188" lon="3.52613">
        <ele>522</ele>
        <time>2017-03-01T10:59:51Z</time>
      </trkpt>
      <trkpt lat="44.37188" lon="3.52613">
        <ele>522</ele>
        <time>2017-03-01T11:01:51Z</time>
      </trkpt>
      <trkpt lat="44.37186" lon="3.52618">
        <ele>522</ele>
        <time>2017-03-01T11:03:51Z</time>
      </trkpt>
      <trkpt lat="44.37179" lon="3.52624">
        <ele>523</ele>
        <time>2017-03-01T11:05:51Z</time>
      </trkpt>
      <trkpt lat="44.37165" lon="3.52633">
        <ele>525</ele>
        <time>2017-03-01T11:07:51Z</time>
      </trkpt>
      <trkpt lat="44.3715" lon="3.52641">
        <ele>527</ele>
        <time>2017-03-01T11:09:51Z</time>
      </trkpt>
      <trkpt lat="44.37127" lon="3.52657">
        <ele>531</ele>
        <time>2017-03-01T11:11:51Z</time>
      </trkpt>
      <trkpt lat="44.37115" lon="3.52666">
        <ele>535</ele>
        <time>2017-03-01T11:13:51Z</time>
      </trkpt>
      <trkpt lat="44.3711" lon="3.52671">
        <ele>535</ele>
        <time>2017-03-01T11:15:51Z</time>
      </trkpt>
      <trkpt lat="44.37104" lon="3.52674">
        <ele>536</ele>
        <time>2017-03-01T11:17:51Z</time>
      </trkpt>
      <trkpt lat="44.37083" lon="3.52684">
        <ele>539</ele>
        <time>2017-03-01T11:19:51Z</time>
      </trkpt>
      <trkpt lat="44.3707" lon="3.52691">
        <ele>541</ele>
        <time>2017-03-01T11:21:51Z</time>
      </trkpt>
      <trkpt lat="44.37065" lon="3.52695">
        <ele>542</ele>
        <time>2017-03-01T11:23:51Z</time>
      </trkpt>
      <trkpt lat="44.37061" lon="3.52699">
        <ele>542</ele>
        <time>2017-03-01T11:25:51Z</time>
      </trkpt>
      <trkpt lat="44.37053" lon="3.52702">
        <ele>544</ele>
        <time>2017-03-01T11:27:51Z</time>
      </trkpt>
      <trkpt lat="44.37033" lon="3.52713">
        <ele>548</ele>
        <time>2017-03-01T11:29:51Z</time>
      </trkpt>
      <trkpt lat="44.3701" lon="3.52725">
        <ele>556</ele>
        <time>2017-03-01T11:31:51Z</time>
      </trkpt>
      <trkpt lat="44.36999" lon="3.52729">
        <ele>559</ele>
        <time>2017-03-01T11:33:51Z</time>
      </trkpt>
      <trkpt lat="44.36986" lon="3.52733">
        <ele>561</ele>
        <time>2017-03-01T11:35:51Z</time>
      </trkpt>
      <trkpt lat="44.36963" lon="3.52745">
        <ele>565</ele>
        <time>2017-03-01T11:37:51Z</time>
      </trkpt>
      <trkpt lat="44.36939" lon="3.52759">
        <ele>568</ele>
        <time>2017-03-01T11:39:51Z</time>
      </trkpt>
      <trkpt lat="44.36924" lon="3.52771">
        <ele>570</ele>
        <time>2017-03-01T11:41:51Z</time>
      </trkpt>
      <trkpt lat="44.36909" lon="3.52788">
        <ele>571</ele>
        <time>2017-03-01T11:43:51Z</time>
      </trkpt>
      <trkpt lat="44.36898" lon="3.52805">
        <ele>571</ele>
        <time>2017-03-01T11:45:51Z</time>
      </trkpt>
      <trkpt lat="44.36887" lon="3.52826">
        <ele>572</ele>
        <time>2017-03-01T11:47:51Z</time>
      </trkpt>
      <trkpt lat="44.36876" lon="3.52848">
        <ele>569</ele>
        <time>2017-03-01T11:49:51Z</time>
      </trkpt>
      <trkpt lat="44.36865" lon="3.52865">
        <ele>567</ele>
        <time>2017-03-01T11:51:51Z</time>
      </trkpt>
      <trkpt lat="44.36852" lon="3.52887">
        <ele>567</ele>
        <time>2017-03-01T11:53:51Z</time>
      </trkpt>
      <trkpt lat="44.36842" lon="3.52903">
        <ele>569</ele>
        <time>2017-03-01T11:55:51Z</time>
      </trkpt>
      <trkpt lat="44.36831" lon="3.52918">
        <ele>572</ele>
        <time>2017-03-01T11:57:51Z</time>
      </trkpt>
      <trkpt lat="44.36821" lon="3.52932">
        <ele>570</ele>
        <time>2017-03-01T11:59:51Z</time>
      </trkpt>
      <trkpt lat="44.36812" lon="3.52943">
        <ele>569</ele>
        <time>2017-03-01T12:01:51Z</time>
      </trkpt>
      <trkpt lat="44.36797" lon="3.52953">
        <ele>570</ele>
        <time>2017-03-01T12:03:51Z</time>
      </trkpt>
      <trkpt lat="44.3678" lon="3.52964">
        <ele>573</ele>
        <time>2017-03-01T12:05:51Z</time>
      </trkpt>
      <trkpt lat="44.36764" lon="3.52977">
        <ele>577</ele>
        <time>2017-03-01T12:07:51Z</time>
      </trkpt>
      <trkpt lat="44.3674" lon="3.52999">
        <ele>584</ele>
        <time>2017-03-01T12:09:51Z</time>
      </trkpt>
      <trkpt lat="44.36721" lon="3.53017">
        <ele>584</ele>
        <time>2017-03-01T12:11:51Z</time>
      </trkpt>
      <trkpt lat="44.36704" lon="3.53036">
        <ele>586</ele>
        <time>2017-03-01T12:13:51Z</time>
      </trkpt>
      <trkpt lat="44.36696" lon="3.53043">
        <ele>587</ele>
        <time>2017-03-01T12:15:51Z</time>
      </trkpt>
      <trkpt lat="44.36695" lon="3.53044">
        <ele>587</ele>
        <time>2017-03-01T12:17:51Z</time>
      </trkpt>
      <trkpt lat="44.36685" lon="3.5305">
        <ele>589</ele>
        <time>2017-03-01T12:19:51Z</time>
      </trkpt>
      <trkpt lat="44.36673" lon="3.53057">
        <ele>592</ele>
        <time>2017-03-01T12:21:51Z</time>
      </trkpt>
      <trkpt lat="44.36666" lon="3.53064">
        <ele>594</ele>
        <time>2017-03-01T12:23:51Z</time>
      </trkpt>
      <trkpt lat="44.36662" lon="3.53068">
        <ele>595</ele>
        <time>2017-03-01T12:25:51Z</time>
      </trkpt>
      <trkpt lat="44.3666" lon="3.53069">
        <ele>595</ele>
        <time>2017-03-01T12:27:51Z</time>
      </trkpt>
      <trkpt lat="44.36658" lon="3.5307">
        <ele>596</ele>
        <time>2017-03-01T12:29:51Z</time>
      </trkpt>
      <trkpt lat="44.36653" lon="3.53082">
        <ele>597</ele>
        <time>2017-03-01T12:31:51Z</time>
      </trkpt>
      <trkpt lat="44.36638" lon="3.53112">
        <ele>600</ele>
        <time>2017-03-01T12:33:51Z</time>
      </trkpt>
      <trkpt lat="44.36625" lon="3.5314">
        <ele>603</ele>
        <time>2017-03-01T12:35:51Z</time>
      </trkpt>
      <trkpt lat="44.3661" lon="3.53168">
        <ele>607</ele>
        <time>2017-03-01T12:37:51Z</time>
      </trkpt>
      <trkpt lat="44.36609" lon="3.53169">
        <ele>607</ele>
        <time>2017-03-01T12:39:51Z</time>
      </trkpt>
      <trkpt lat="44.36592" lon="3.53198">
        <ele>610</ele>
        <time>2017-03-01T12:41:51Z</time>
      </trkpt>
      <trkpt lat="44.36574" lon="3.53225">
        <ele>614</ele>
        <time>2017-03-01T12:43:51Z</time>
      </trkpt>
      <trkpt lat="44.3656" lon="3.53242">
        <ele>617</ele>
        <time>2017-03-01T12:45:51Z</time>
      </trkpt>
      <trkpt lat="44.36548" lon="3.53252">
        <ele>618</ele>
        <time>2017-03-01T12:47:51Z</time>
      </trkpt>
      <trkpt lat="44.36537" lon="3.53256">
        <ele>620</ele>
        <time>2017-03-01T12:49:51Z</time>
      </trkpt>
      <trkpt lat="44.36533" lon="3.53257">
        <ele>620</ele>
        <time>2017-03-01T12:51:51Z</time>
      </trkpt>
      <trkpt lat="44.36514" lon="3.53261">
        <ele>623</ele>
        <time>2017-03-01T12:53:51Z</time>
      </trkpt>
      <trkpt lat="44.36502" lon="3.53265">
        <ele>625</ele>
        <time>2017-03-01T12:55:51Z</time>
      </trkpt>
      <trkpt lat="44.36477" lon="3.53281">
        <ele>630</ele>
        <time>2017-03-01T12:57:51Z</time>
      </trkpt>
      <trkpt lat="44.36458" lon="3.53295">
        <ele>633</ele>
        <time>2017-03-01T12:59:51Z</time>
      </trkpt>
      <trkpt lat="44.36442" lon="3.53305">
        <ele>636</ele>
        <time>2017-03-01T13:01:51Z</time>
      </trkpt>
      <trkpt lat="44.36427" lon="3.53312">
        <ele>639</ele>
        <time>2017-03-01T13:03:51Z</time>
      </trkpt>
      <trkpt lat="44.36416" lon="3.53315">
        <ele>641</ele>
        <time>2017-03-01T13:05:51Z</time>
      </trkpt>
      <trkpt lat="44.36406" lon="3.53316">
        <ele>645</ele>
        <time>2017-03-01T13:07:51Z</time>
      </trkpt>
      <trkpt lat="44.36402" lon="3.53318">
        <ele>646</ele>
        <time>2017-03-01T13:09:51Z</time>
      </trkpt>
      <trkpt lat="44.36393" lon="3.53324">
        <ele>650</ele>
        <time>2017-03-01T13:11:51Z</time>
      </trkpt>
      <trkpt lat="44.36385" lon="3.53332">
        <ele>653</ele>
        <time>2017-03-01T13:13:51Z</time>
      </trkpt>
      <trkpt lat="44.36382" lon="3.53334">
        <ele>654</ele>
        <time>2017-03-01T13:15:51Z</time>
      </trkpt>
      <trkpt lat="44.3638" lon="3.53332">
        <ele>655</ele>
        <time>2017-03-01T13:17:51Z</time>
      </trkpt>
      <trkpt lat="44.36378" lon="3.5333">
        <ele>656</ele>
        <time>2017-03-01T13:19:51Z</time>
      </trkpt>
      <trkpt lat="44.36378" lon="3.53324">
        <ele>656</ele>
        <time>2017-03-01T13:21:51Z</time>
      </trkpt>
      <trkpt lat="44.36383" lon="3.53313">
        <ele>654</ele>
        <time>2017-03-01T13:23:51Z</time>
      </trkpt>
      <trkpt lat="44.36387" lon="3.53305">
        <ele>652</ele>
        <time>2017-03-01T13:25:51Z</time>
      </trkpt>
      <trkpt lat="44.36387" lon="3.53296">
        <ele>652</ele>
        <time>2017-03-01T13:27:51Z</time>
      </trkpt>
      <trkpt lat="44.36384" lon="3.53285">
        <ele>653</ele>
        <time>2017-03-01T13:29:51Z</time>
      </trkpt>
      <trkpt lat="44.36378" lon="3.53273">
        <ele>655</ele>
        <time>2017-03-01T13:31:51Z</time>
      </trkpt>
      <trkpt lat="44.3637" lon="3.53263">
        <ele>657</ele>
        <time>2017-03-01T13:33:51Z</time>
      </trkpt>
      <trkpt lat="44.36363" lon="3.53256">
        <ele>659</ele>
        <time>2017-03-01T13:35:51Z</time>
      </trkpt>
      <trkpt lat="44.36359" lon="3.53254">
        <ele>660</ele>
        <time>2017-03-01T13:37:51Z</time>
      </trkpt>
      <trkpt lat="44.36352" lon="3.53252">
        <ele>661</ele>
        <time>2017-03-01T13:39:51Z</time>
      </trkpt>
      <trkpt lat="44.36332" lon="3.53252">
        <ele>666</ele>
        <time>2017-03-01T13:41:51Z</time>
      </trkpt>
      <trkpt lat="44.36313" lon="3.53253">
        <ele>668</ele>
        <time>2017-03-01T13:43:51Z</time>
      </trkpt>
      <trkpt lat="44.36299" lon="3.53255">
        <ele>670</ele>
        <time>2017-03-01T13:45:51Z</time>
      </trkpt>
      <trkpt lat="44.36284" lon="3.53261">
        <ele>672</ele>
        <time>2017-03-01T13:47:51Z</time>
      </trkpt>
      <trkpt lat="44.36263" lon="3.53271">
        <ele>676</ele>
        <time>2017-03-01T13:49:51Z</time>
      </trkpt>
      <trkpt lat="44.36241" lon="3.53281">
        <ele>681</ele>
        <time>2017-03-01T13:51:51Z</time>
      </trkpt>
      <trkpt lat="44.36222" lon="3.53287">
        <ele>683</ele>
        <time>2017-03-01T13:53:51Z</time>
      </trkpt>
      <trkpt lat="44.36208" lon="3.53291">
        <ele>684</ele>
        <time>2017-03-01T13:55:51Z</time>
      </trkpt>
      <trkpt lat="44.36202" lon="3.53293">
        <ele>685</ele>
        <time>2017-03-01T13:57:51Z</time>
      </trkpt>
      <trkpt lat="44.36197" lon="3.53299">
        <ele>686</ele>
        <time>2017-03-01T13:59:51Z</time>
      </trkpt>
      <trkpt lat="44.36191" lon="3.53303">
        <ele>687</ele>
        <time>2017-03-01T14:01:51Z</time>
      </trkpt>
      <trkpt lat="44.36184" lon="3.53306">
        <ele>688</ele>
        <time>2017-03-01T14:03:51Z</time>
      </trkpt>
      <trkpt lat="44.36139" lon="3.53319">
        <ele>693</ele>
        <time>2017-03-01T14:05:51Z</time>
      </trkpt>
      <trkpt lat="44.36108" lon="3.53331">
        <ele>698</ele>
        <time>2017-03-01T14:07:51Z</time>
      </trkpt>
      <trkpt lat="44.36068" lon="3.53352">
        <ele>706</ele>
        <time>2017-03-01T14:09:51Z</time>
      </trkpt>
      <trkpt lat="44.36055" lon="3.53363">
        <ele>710</ele>
        <time>2017-03-01T14:11:51Z</time>
      </trkpt>
      <trkpt lat="44.36048" lon="3.53368">
        <ele>712</ele>
        <time>2017-03-01T14:13:51Z</time>
      </trkpt>
      <trkpt lat="44.36047" lon="3.53369">
        <ele>712</ele>
        <time>2017-03-01T14:15:51Z</time>
      </trkpt>
      <trkpt lat="44.36045" lon="3.53369">
        <ele>713</ele>
        <time>2017-03-01T14:17:51Z</time>
      </trkpt>
      <trkpt lat="44.36043" lon="3.53369">
        <ele>713</ele>
        <time>2017-03-01T14:19:51Z</time>
      </trkpt>
      <trkpt lat="44.36041" lon="3.53368">
        <ele>713</ele>
        <time>2017-03-01T14:21:51Z</time>
      </trkpt>
      <trkpt lat="44.36032" lon="3.5336">
        <ele>712</ele>
        <time>2017-03-01T14:23:51Z</time>
      </trkpt>
      <trkpt lat="44.36021" lon="3.53352">
        <ele>711</ele>
        <time>2017-03-01T14:25:51Z</time>
      </trkpt>
      <trkpt lat="44.36012" lon="3.53346">
        <ele>710</ele>
        <time>2017-03-01T14:27:51Z</time>
      </trkpt>
      <trkpt lat="44.35997" lon="3.53342">
        <ele>711</ele>
        <time>2017-03-01T14:29:51Z</time>
      </trkpt>
      <trkpt lat="44.35979" lon="3.53338">
        <ele>713</ele>
        <time>2017-03-01T14:31:51Z</time>
      </trkpt>
      <trkpt lat="44.35972" lon="3.53336">
        <ele>713</ele>
        <time>2017-03-01T14:33:51Z</time>
      </trkpt>
      <trkpt lat="44.35962" lon="3.53333">
        <ele>714</ele>
        <time>2017-03-01T14:35:51Z</time>
      </trkpt>
      <trkpt lat="44.3596" lon="3.53332">
        <ele>714</ele>
        <time>2017-03-01T14:37:51Z</time>
      </trkpt>
      <trkpt lat="44.35956" lon="3.53329">
        <ele>714</ele>
        <time>2017-03-01T14:39:51Z</time>
      </trkpt>
      <trkpt lat="44.35952" lon="3.53325">
        <ele>714</ele>
        <time>2017-03-01T14:41:51Z</time>
      </trkpt>
      <trkpt lat="44.3595" lon="3.53324">
        <ele>714</ele>
        <time>2017-03-01T14:43:51Z</time>
      </trkpt>
      <trkpt lat="44.35949" lon="3.53324">
        <ele>715</ele>
        <time>2017-03-01T14:45:51Z</time>
      </trkpt>
      <trkpt lat="44.35946" lon="3.53325">
        <ele>715</ele>
        <time>2017-03-01T14:47:51Z</time>
      </trkpt>
      <trkpt lat="44.35946" lon="3.53325">
        <ele>715</ele>
        <time>2017-03-01T14:49:51Z</time>
      </trkpt>
      <trkpt lat="44.35946" lon="3.5333">
        <ele>716</ele>
        <time>2017-03-01T14:51:51Z</time>
      </trkpt>
      <trkpt lat="44.35946" lon="3.53332">
        <ele>717</ele>
        <time>2017-03-01T14:53:51Z</time>
      </trkpt>
      <trkpt lat="44.35948" lon="3.53334">
        <ele>717</ele>
        <time>2017-03-01T14:55:51Z</time>
      </trkpt>
      <trkpt lat="44.35949" lon="3.53336">
        <ele>717</ele>
        <time>2017-03-01T14:57:51Z</time>
      </trkpt>
      <trkpt lat="44.35962" lon="3.53347">
        <ele>718</ele>
        <time>2017-03-01T14:59:51Z</time>
      </trkpt>
      <trkpt lat="44.35979" lon="3.53359">
        <ele>719</ele>
        <time>2017-03-01T15:01:51Z</time>
      </trkpt>
      <trkpt lat="44.35995" lon="3.5337">
        <ele>719</ele>
        <time>2017-03-01T15:03:51Z</time>
      </trkpt>
      <trkpt lat="44.36012" lon="3.53383">
        <ele>721</ele>
        <time>2017-03-01T15:05:51Z</time>
      </trkpt>
      <trkpt lat="44.36024" lon="3.53399">
        <ele>723</ele>
        <time>2017-03-01T15:07:51Z</time>
      </trkpt>
      <trkpt lat="44.36038" lon="3.53418">
        <ele>725</ele>
        <time>2017-03-01T15:09:51Z</time>
      </trkpt>
      <trkpt lat="44.36052" lon="3.5344">
        <ele>727</ele>
        <time>2017-03-01T15:11:51Z</time>
      </trkpt>
      <trkpt lat="44.36066" lon="3.53461">
        <ele>728</ele>
        <time>2017-03-01T15:13:51Z</time>
      </trkpt>
      <trkpt lat="44.36071" lon="3.53469">
        <ele>728</ele>
        <time>2017-03-01T15:15:51Z</time>
      </trkpt>
      <trkpt lat="44.36074" lon="3.53481">
        <ele>730</ele>
        <time>2017-03-01T15:17:51Z</time>
      </trkpt>
      <trkpt lat="44.36076" lon="3.53489">
        <ele>730</ele>
        <time>2017-03-01T15:19:51Z</time>
      </trkpt>
      <trkpt lat="44.36076" lon="3.535">
        <ele>732</ele>
        <time>2017-03-01T15:21:51Z</time>
      </trkpt>
      <trkpt lat="44.36075" lon="3.53513">
        <ele>734</ele>
        <time>2017-03-01T15:23:51Z</time>
      </trkpt>
      <trkpt lat="44.36071" lon="3.53539">
        <ele>737</ele>
        <time>2017-03-01T15:25:51Z</time>
      </trkpt>
      <trkpt lat="44.3607" lon="3.53549">
        <ele>739</ele>
        <time>2017-03-01T15:27:51Z</time>
      </trkpt>
      <trkpt lat="44.36069" lon="3.5356">
        <ele>740</ele>
        <time>2017-03-01T15:29:51Z</time>
      </trkpt>
      <trkpt lat="44.3607" lon="3.53579">
        <ele>741</ele>
        <time>2017-03-01T15:31:51Z</time>
      </trkpt>
      <trkpt lat="44.36072" lon="3.53595">
        <ele>744</ele>
        <time>2017-03-01T15:33:51Z</time>
      </trkpt>
      <trkpt lat="44.36076" lon="3.53608">
        <ele>745</ele>
        <time>2017-03-01T15:35:51Z</time>
      </trkpt>
      <trkpt lat="44.36082" lon="3.53618">
        <ele>745</ele>
        <time>2017-03-01T15:37:51Z</time>
      </trkpt>
      <trkpt lat="44.36084" lon="3.53622">
        <ele>745</ele>
        <time>2017-03-01T15:39:51Z</time>
      </trkpt>
      <trkpt lat="44.36085" lon="3.53626">
        <ele>745</ele>
        <time>2017-03-01T15:41:51Z</time>
      </trkpt>
      <trkpt lat="44.36084" lon="3.5363">
        <ele>746</ele>
        <time>2017-03-01T15:43:51Z</time>
      </trkpt>
      <trkpt lat="44.36081" lon="3.53632">
        <ele>748</ele>
        <time>2017-03-01T15:45:51Z</time>
      </trkpt>
      <trkpt lat="44.36076" lon="3.53633">
        <ele>750</ele>
        <time>2017-03-01T15:47:51Z</time>
      </trkpt>
      <trkpt lat="44.36072" lon="3.5363">
        <ele>751</ele>
        <time>2017-03-01T15:49:51Z</time>
      </trkpt>
      <trkpt lat="44.36069" lon="3.53627">
        <ele>751</ele>
        <time>2017-03-01T15:51:51Z</time>
      </trkpt>
      <trkpt lat="44.36066" lon="3.5362">
        <ele>751</ele>
        <time>2017-03-01T15:53:51Z</time>
      </trkpt>
      <trkpt lat="44.3606" lon="3.53607">
        <ele>751</ele>
        <time>2017-03-01T15:55:51Z</time>
      </trkpt>
      <trkpt lat="44.36051" lon="3.53581">
        <ele>748</ele>
        <time>2017-03-01T15:57:51Z</time>
      </trkpt>
      <trkpt lat="44.36046" lon="3.53568">
        <ele>749</ele>
        <time>2017-03-01T15:59:51Z</time>
      </trkpt>
      <trkpt lat="44.36041" lon="3.53557">
        <ele>749</ele>
        <time>2017-03-01T16:01:51Z</time>
      </trkpt>
      <trkpt lat="44.36035" lon="3.53546">
        <ele>750</ele>
        <time>2017-03-01T16:03:51Z</time>
      </trkpt>
      <trkpt lat="44.36026" lon="3.53535">
        <ele>752</ele>
        <time>2017-03-01T16:05:51Z</time>
      </trkpt>
      <trkpt lat="44.36001" lon="3.53515">
        <ele>757</ele>
        <time>2017-03-01T16:07:51Z</time>
      </trkpt>
      <trkpt lat="44.35992" lon="3.53507">
        <ele>757</ele>
        <time>2017-03-01T16:09:51Z</time>
      </trkpt>
      <trkpt lat="44.35986" lon="3.53505">
        <ele>757</ele>
        <time>2017-03-01T16:11:51Z</time>
      </trkpt>
      <trkpt lat="44.3598" lon="3.53506">
        <ele>757</ele>
        <time>2017-03-01T16:13:51Z</time>
      </trkpt>
      <trkpt lat="44.35969" lon="3.53511">
        <ele>759</ele>
        <time>2017-03-01T16:15:51Z</time>
      </trkpt>
      <trkpt lat="44.35958" lon="3.53517">
        <ele>761</ele>
        <time>2017-03-01T16:17:51Z</time>
      </trkpt>
      <trkpt lat="44.35948" lon="3.53522">
        <ele>763</ele>
        <time>2017-03-01T16:19:51Z</time>
      </trkpt>
      <trkpt lat="44.35939" lon="3.53528">
        <ele>766</ele>
        <time>2017-03-01T16:21:51Z</time>
      </trkpt>
      <trkpt lat="44.35926" lon="3.53537">
        <ele>769</ele>
        <time>2017-03-01T16:23:51Z</time>
      </trkpt>
      <trkpt lat="44.35915" lon="3.53541">
        <ele>772</ele>
        <time>2017-03-01T16:25:51Z</time>
      </trkpt>
      <trkpt lat="44.35905" lon="3.53542">
        <ele>774</ele>
        <time>2017-03-01T16:27:51Z</time>
      </trkpt>
      <trkpt lat="44.35891" lon="3.53542">
        <ele>777</ele>
        <time>2017-03-01T16:29:51Z</time>
      </trkpt>
      <trkpt lat="44.35882" lon="3.53537">
        <ele>777</ele>
        <time>2017-03-01T16:31:51Z</time>
      </trkpt>
      <trkpt lat="44.35873" lon="3.53529">
        <ele>776</ele>
        <time>2017-03-01T16:33:51Z</time>
      </trkpt>
      <trkpt lat="44.35865" lon="3.53518">
        <ele>773</ele>
        <time>2017-03-01T16:35:51Z</time>
      </trkpt>
      <trkpt lat="44.35858" lon="3.53511">
        <ele>772</ele>
        <time>2017-03-01T16:37:51Z</time>
      </trkpt>
      <trkpt lat="44.35851" lon="3.53507">
        <ele>772</ele>
        <time>2017-03-01T16:39:51Z</time>
      </trkpt>
      <trkpt lat="44.35841" lon="3.53508">
        <ele>773</ele>
        <time>2017-03-01T16:41:51Z</time>
      </trkpt>
      <trkpt lat="44.35822" lon="3.53511">
        <ele>778</ele>
        <time>2017-03-01T16:43:51Z</time>
      </trkpt>
      <trkpt lat="44.35807" lon="3.5351">
        <ele>781</ele>
        <time>2017-03-01T16:45:51Z</time>
      </trkpt>
      <trkpt lat="44.35784" lon="3.53507">
        <ele>784</ele>
        <time>2017-03-01T16:47:51Z</time>
      </trkpt>
      <trkpt lat="44.35758" lon="3.53501">
        <ele>787</ele>
        <time>2017-03-01T16:49:51Z</time>
      </trkpt>
      <trkpt lat="44.35734" lon="3.53494">
        <ele>793</ele>
        <time>2017-03-01T16:51:51Z</time>
      </trkpt>
      <trkpt lat="44.3572" lon="3.53488">
        <ele>796</ele>
        <time>2017-03-01T16:53:51Z</time>
      </trkpt>
      <trkpt lat="44.35708" lon="3.53478">
        <ele>798</ele>
        <time>2017-03-01T16:55:51Z</time>
      </trkpt>
      <trkpt lat="44.35698" lon="3.53465">
        <ele>798</ele>
        <time>2017-03-01T16:57:51Z</time>
      </trkpt>
      <trkpt lat="44.35691" lon="3.53452">
        <ele>798</ele>
        <time>2017-03-01T16:59:51Z</time>
      </trkpt>
      <trkpt lat="44.35678" lon="3.53426">
        <ele>795</ele>
        <time>2017-03-01T17:01:51Z</time>
      </trkpt>
      <trkpt lat="44.35665" lon="3.53401">
        <ele>794</ele>
        <time>2017-03-01T17:03:51Z</time>
      </trkpt>
      <trkpt lat="44.35655" lon="3.53386">
        <ele>792</ele>
        <time>2017-03-01T17:05:51Z</time>
      </trkpt>
      <trkpt lat="44.35636" lon="3.53362">
        <ele>787</ele>
        <time>2017-03-01T17:07:51Z</time>
      </trkpt>
      <trkpt lat="44.35632" lon="3.53358">
        <ele>787</ele>
        <time>2017-03-01T17:09:51Z</time>
      </trkpt>
      <trkpt lat="44.35628" lon="3.53357">
        <ele>786</ele>
        <time>2017-03-01T17:11:51Z</time>
      </trkpt>
      <trkpt lat="44.35624" lon="3.53357">
        <ele>787</ele>
        <time>2017-03-01T17:13:51Z</time>
      </trkpt>
      <trkpt lat="44.35622" lon="3.53358">
        <ele>787</ele>
        <time>2017-03-01T17:15:51Z</time>
      </trkpt>
      <trkpt lat="44.35619" lon="3.53364">
        <ele>789</ele>
        <time>2017-03-01T17:17:51Z</time>
      </trkpt>
      <trkpt lat="44.35618" lon="3.53378">
        <ele>793</ele>
        <time>2017-03-01T17:19:51Z</time>
      </trkpt>
      <trkpt lat="44.35616" lon="3.53391">
        <ele>796</ele>
        <time>2017-03-01T17:21:51Z</time>
      </trkpt>
      <trkpt lat="44.3561" lon="3.53406">
        <ele>801</ele>
        <time>2017-03-01T17:23:51Z</time>
      </trkpt>
      <trkpt lat="44.35605" lon="3.53415">
        <ele>804</ele>
        <time>2017-03-01T17:25:51Z</time>
      </trkpt>
      <trkpt lat="44.35594" lon="3.53426">
        <ele>809</ele>
        <time>2017-03-01T17:27:51Z</time>
      </trkpt>
      <trkpt lat="44.35578" lon="3.53433">
        <ele>812</ele>
        <time>2017-03-01T17:29:51Z</time>
      </trkpt>
      <trkpt lat="44.35561" lon="3.53436">
        <ele>810</ele>
        <time>2017-03-01T17:31:51Z</time>
      </trkpt>
      <trkpt lat="44.35542" lon="3.5344">
        <ele>807</ele>
        <time>2017-03-01T17:33:51Z</time>
      </trkpt>
      <trkpt lat="44.35528" lon="3.53448">
        <ele>808</ele>
        <time>2017-03-01T17:35:51Z</time>
      </trkpt>
      <trkpt lat="44.3552" lon="3.53452">
        <ele>808</ele>
        <time>2017-03-01T17:37:51Z</time>
      </trkpt>
      <trkpt lat="44.35503" lon="3.53461">
        <ele>809</ele>
        <time>2017-03-01T17:39:51Z</time>
      </trkpt>
      <trkpt lat="44.35497" lon="3.53466">
        <ele>810</ele>
        <time>2017-03-01T17:41:51Z</time>
      </trkpt>
      <trkpt lat="44.35492" lon="3.5347">
        <ele>809</ele>
        <time>2017-03-01T17:43:51Z</time>
      </trkpt>
      <trkpt lat="44.35489" lon="3.53475">
        <ele>810</ele>
        <time>2017-03-01T17:45:51Z</time>
      </trkpt>
      <trkpt lat="44.35484" lon="3.53483">
        <ele>812</ele>
        <time>2017-03-01T17:47:51Z</time>
      </trkpt>
      <trkpt lat="44.3548" lon="3.53491">
        <ele>814</ele>
        <time>2017-03-01T17:49:51Z</time>
      </trkpt>
      <trkpt lat="44.35476" lon="3.535">
        <ele>816</ele>
        <time>2017-03-01T17:51:51Z</time>
      </trkpt>
      <trkpt lat="44.35466" lon="3.53515">
        <ele>816</ele>
        <time>2017-03-01T17:53:51Z</time>
      </trkpt>
      <trkpt lat="44.35464" lon="3.53519">
        <ele>816</ele>
        <time>2017-03-01T17:55:51Z</time>
      </trkpt>
      <trkpt lat="44.35464" lon="3.53523">
        <ele>817</ele>
        <time>2017-03-01T17:57:51Z</time>
      </trkpt>
      <trkpt lat="44.35463" lon="3.5354">
        <ele>823</ele>
        <time>2017-03-01T17:59:51Z</time>
      </trkpt>
      <trkpt lat="44.35461" lon="3.53552">
        <ele>826</ele>
        <time>2017-03-01T18:01:51Z</time>
      </trkpt>
      <trkpt lat="44.35458" lon="3.53562">
        <ele>828</ele>
        <time>2017-03-01T18:03:51Z</time>
      </trkpt>
      <trkpt lat="44.35454" lon="3.5357">
        <ele>828</ele>
        <time>2017-03-01T18:05:51Z</time>
      </trkpt>
      <trkpt lat="44.35451" lon="3.53578">
        <ele>829</ele>
        <time>2017-03-01T18:07:51Z</time>
      </trkpt>
      <trkpt lat="44.35448" lon="3.53586">
        <ele>830</ele>
        <time>2017-03-01T18:09:51Z</time>
      </trkpt>
      <trkpt lat="44.35446" lon="3.53598">
        <ele>832</ele>
        <time>2017-03-01T18:11:51Z</time>
      </trkpt>
      <trkpt lat="44.35445" lon="3.53608">
        <ele>834</ele>
        <time>2017-03-01T18:13:51Z</time>
      </trkpt>
      <trkpt lat="44.35442" lon="3.53616">
        <ele>835</ele>
        <time>2017-03-01T18:15:51Z</time>
      </trkpt>
      <trkpt lat="44.35439" lon="3.53621">
        <ele>834</ele>
        <time>2017-03-01T18:17:51Z</time>
      </trkpt>
      <trkpt lat="44.3543" lon="3.53627">
        <ele>831</ele>
        <time>2017-03-01T18:19:51Z</time>
      </trkpt>
      <trkpt lat="44.35414" lon="3.53638">
        <ele>826</ele>
        <time>2017-03-01T18:21:51Z</time>
      </trkpt>
      <trkpt lat="44.35404" lon="3.53646">
        <ele>826</ele>
        <time>2017-03-01T18:23:51Z</time>
      </trkpt>
      <trkpt lat="44.35394" lon="3.53659">
        <ele>827</ele>
        <time>2017-03-01T18:25:51Z</time>
      </trkpt>
      <trkpt lat="44.35392" lon="3.53664">
        <ele>828</ele>
        <time>2017-03-01T18:27:51Z</time>
      </trkpt>
      <trkpt lat="44.3539" lon="3.5367">
        <ele>828</ele>
        <time>2017-03-01T18:29:51Z</time>
      </trkpt>
      <trkpt lat="44.3539" lon="3.53677">
        <ele>830</ele>
        <time>2017-03-01T18:31:51Z</time>
      </trkpt>
      <trkpt lat="44.35391" lon="3.53684">
        <ele>832</ele>
        <time>2017-03-01T18:33:51Z</time>
      </trkpt>
      <trkpt lat="44.35398" lon="3.53707">
        <ele>838</ele>
        <time>2017-03-01T18:35:51Z</time>
      </trkpt>
      <trkpt lat="44.35403" lon="3.53724">
        <ele>843</ele>
        <time>2017-03-01T18:37:51Z</time>
      </trkpt>
      <trkpt lat="44.35404" lon="3.53733">
        <ele>846</ele>
        <time>2017-03-01T18:39:51Z</time>
      </trkpt>
      <trkpt lat="44.35404" lon="3.5374">
        <ele>847</ele>
        <time>2017-03-01T18:41:51Z</time>
      </trkpt>
      <trkpt lat="44.35402" lon="3.53746">
        <ele>848</ele>
        <time>2017-03-01T18:43:51Z</time>
      </trkpt>
      <trkpt lat="44.35401" lon="3.53746">
        <ele>847</ele>
        <time>2017-03-01T18:45:51Z</time>
      </trkpt>
      <trkpt lat="44.35396" lon="3.5375">
        <ele>847</ele>
        <time>2017-03-01T18:47:51Z</time>
      </trkpt>
      <trkpt lat="44.35386" lon="3.53752">
        <ele>844</ele>
        <time>2017-03-01T18:49:51Z</time>
      </trkpt>
      <trkpt lat="44.35372" lon="3.53752">
        <ele>840</ele>
        <time>2017-03-01T18:51:51Z</time>
      </trkpt>
      <trkpt lat="44.35365" lon="3.53755">
        <ele>838</ele>
        <time>2017-03-01T18:53:51Z</time>
      </trkpt>
      <trkpt lat="44.35361" lon="3.5376">
        <ele>838</ele>
        <time>2017-03-01T18:55:51Z</time>
      </trkpt>
      <trkpt lat="44.35357" lon="3.53764">
        <ele>838</ele>
        <time>2017-03-01T18:57:51Z</time>
      </trkpt>
      <trkpt lat="44.35352" lon="3.53776">
        <ele>839</ele>
        <time>2017-03-01T18:59:51Z</time>
      </trkpt>
      <trkpt lat="44.35345" lon="3.53801">
        <ele>843</ele>
        <time>2017-03-01T19:01:51Z</time>
      </trkpt>
      <trkpt lat="44.35338" lon="3.53828">
        <ele>846</ele>
        <time>2017-03-01T19:03:51Z</time>
      </trkpt>
      <trkpt lat="44.35335" lon="3.53843">
        <ele>849</ele>
        <time>2017-03-01T19:05:51Z</time>
      </trkpt>
      <trkpt lat="44.35334" lon="3.53855">
        <ele>852</ele>
        <time>2017-03-01T19:07:51Z</time>
      </trkpt>
      <trkpt lat="44.35335" lon="3.53865">
        <ele>855</ele>
        <time>2017-03-01T19:09:51Z</time>
      </trkpt>
      <trkpt lat="44.35337" lon="3.53873">
        <ele>858</ele>
        <time>2017-03-01T19:11:51Z</time>
      </trkpt>
      <trkpt lat="44.35344" lon="3.53894">
        <ele>865</ele>
        <time>2017-03-01T19:13:51Z</time>
      </trkpt>
      <trkpt lat="44.35346" lon="3.53903">
        <ele>868</ele>
        <time>2017-03-01T19:15:51Z</time>
      </trkpt>
      <trkpt lat="44.35346" lon="3.53905">
        <ele>869</ele>
        <time>2017-03-01T19:17:51Z</time>
      </trkpt>
      <trkpt lat="44.35347" lon="3.53906">
        <ele>870</ele>
        <time>2017-03-01T19:19:51Z</time>
      </trkpt>
      <trkpt lat="44.35348" lon="3.53909">
        <ele>871</ele>
        <time>2017-03-01T19:21:51Z</time>
      </trkpt>
      <trkpt lat="44.35347" lon="3.53913">
        <ele>871</ele>
        <time>2017-03-01T19:23:51Z</time>
      </trkpt>
      <trkpt lat="44.35344" lon="3.53918">
        <ele>872</ele>
        <time>2017-03-01T19:25:51Z</time>
      </trkpt>
      <trkpt lat="44.3534" lon="3.53918">
        <ele>871</ele>
        <time>2017-03-01T19:27:51Z</time>
      </trkpt>
      <trkpt lat="44.35334" lon="3.53919">
        <ele>869</ele>
        <time>2017-03-01T19:29:51Z</time>
      </trkpt>
      <trkpt lat="44.35327" lon="3.53922">
        <ele>870</ele>
        <time>2017-03-01T19:31:51Z</time>
      </trkpt>
      <trkpt lat="44.3532" lon="3.53928">
        <ele>872</ele>
        <time>2017-03-01T19:33:51Z</time>
      </trkpt>
      <trkpt lat="44.35316" lon="3.5393">
        <ele>873</ele>
        <time>2017-03-01T19:35:51Z</time>
      </trkpt>
      <trkpt lat="44.35312" lon="3.5393">
        <ele>873</ele>
        <time>2017-03-01T19:37:51Z</time>
      </trkpt>
      <trkpt lat="44.35309" lon="3.53928">
        <ele>872</ele>
        <time>2017-03-01T19:39:51Z</time>
      </trkpt>
      <trkpt lat="44.35307" lon="3.53924">
        <ele>871</ele>
        <time>2017-03-01T19:41:51Z</time>
      </trkpt>
      <trkpt lat="44.35306" lon="3.53922">
        <ele>870</ele>
        <time>2017-03-01T19:43:51Z</time>
      </trkpt>
      <trkpt lat="44.35303" lon="3.53919">
        <ele>869</ele>
        <time>2017-03-01T19:45:51Z</time>
      </trkpt>
      <trkpt lat="44.35296" lon="3.53914">
        <ele>867</ele>
        <time>2017-03-01T19:47:51Z</time>
      </trkpt>
      <trkpt lat="44.35292" lon="3.53913">
        <ele>867</ele>
        <time>2017-03-01T19:49:51Z</time>
      </trkpt>
      <trkpt lat="44.35285" lon="3.53913">
        <ele>867</ele>
        <time>2017-03-01T19:51:51Z</time>
      </trkpt>
      <trkpt lat="44.35268" lon="3.53915">
        <ele>868</ele>
        <time>2017-03-01T19:53:51Z</time>
      </trkpt>
      <trkpt lat="44.3525" lon="3.53916">
        <ele>868</ele>
        <time>2017-03-01T19:55:51Z</time>
      </trkpt>
      <trkpt lat="44.35238" lon="3.53917">
        <ele>871</ele>
        <time>2017-03-01T19:57:51Z</time>
      </trkpt>
      <trkpt lat="44.35223" lon="3.53916">
        <ele>875</ele>
        <time>2017-03-01T19:59:51Z</time>
      </trkpt>
      <trkpt lat="44.35208" lon="3.5391">
        <ele>880</ele>
        <time>2017-03-01T20:01:51Z</time>
      </trkpt>
      <trkpt lat="44.35187" lon="3.53905">
        <ele>886</ele>
        <time>2017-03-01T20:03:51Z</time>
      </trkpt>
      <trkpt lat="44.35175" lon="3.53899">
        <ele>890</ele>
        <time>2017-03-01T20:05:51Z</time>
      </trkpt>
      <trkpt lat="44.35169" lon="3.53894">
        <ele>893</ele>
        <time>2017-03-01T20:07:51Z</time>
      </trkpt>
      <trkpt lat="44.35168" lon="3.53891">
        <ele>894</ele>
        <time>2017-03-01T20:09:51Z</time>
      </trkpt>
      <trkpt lat="44.3517" lon="3.53881">
        <ele>894</ele>
        <time>2017-03-01T20:11:51Z</time>
      </trkpt>
      <trkpt lat="44.35177" lon="3.53871">
        <ele>892</ele>
        <time>2017-03-01T20:13:51Z</time>
      </trkpt>
      <trkpt lat="44.35193" lon="3.53851">
        <ele>886</ele>
        <time>2017-03-01T20:15:51Z</time>
      </trkpt>
      <trkpt lat="44.35203" lon="3.53837">
        <ele>881</ele>
        <time>2017-03-01T20:17:51Z</time>
      </trkpt>
      <trkpt lat="44.35208" lon="3.53826">
        <ele>879</ele>
        <time>2017-03-01T20:19:51Z</time>
      </trkpt>
      <trkpt lat="44.35209" lon="3.53819">
        <ele>879</ele>
        <time>2017-03-01T20:21:51Z</time>
      </trkpt>
      <trkpt lat="44.35208" lon="3.53805">
        <ele>881</ele>
        <time>2017-03-01T20:23:51Z</time>
      </trkpt>
      <trkpt lat="44.35205" lon="3.53784">
        <ele>885</ele>
        <time>2017-03-01T20:25:51Z</time>
      </trkpt>
      <trkpt lat="44.35202" lon="3.53761">
        <ele>889</ele>
        <time>2017-03-01T20:27:51Z</time>
      </trkpt>
      <trkpt lat="44.35199" lon="3.53744">
        <ele>891</ele>
        <time>2017-03-01T20:29:51Z</time>
      </trkpt>
      <trkpt lat="44.35196" lon="3.53724">
        <ele>892</ele>
        <time>2017-03-01T20:31:51Z</time>
      </trkpt>
      <trkpt lat="44.35191" lon="3.53707">
        <ele>893</ele>
        <time>2017-03-01T20:33:51Z</time>
      </trkpt>
      <trkpt lat="44.35182" lon="3.53685">
        <ele>898</ele>
        <time>2017-03-01T20:35:51Z</time>
      </trkpt>
      <trkpt lat="44.35181" lon="3.53682">
        <ele>898</ele>
        <time>2017-03-01T20:37:51Z</time>
      </trkpt>
      <trkpt lat="44.35178" lon="3.53668">
        <ele>899</ele>
        <time>2017-03-01T20:39:51Z</time>
      </trkpt>
      <trkpt lat="44.35176" lon="3.53644">
        <ele>897</ele>
        <time>2017-03-01T20:41:51Z</time>
      </trkpt>
      <trkpt lat="44.35175" lon="3.53623">
        <ele>896</ele>
        <time>2017-03-01T20:43:51Z</time>
      </trkpt>
      <trkpt lat="44.35176" lon="3.53596">
        <ele>892</ele>
        <time>2017-03-01T20:45:51Z</time>
      </trkpt>
      <trkpt lat="44.35175" lon="3.53578">
        <ele>890</ele>
        <time>2017-03-01T20:47:51Z</time>
      </trkpt>
      <trkpt lat="44.35173" lon="3.53571">
        <ele>889</ele>
        <time>2017-03-01T20:49:51Z</time>
      </trkpt>
      <trkpt lat="44.35172" lon="3.53568">
        <ele>889</ele>
        <time>2017-03-01T20:51:51Z</time>
      </trkpt>
      <trkpt lat="44.35165" lon="3.53563">
        <ele>892</ele>
        <time>2017-03-01T20:53:51Z</time>
      </trkpt>
      <trkpt lat="44.35156" lon="3.53558">
        <ele>894</ele>
        <time>2017-03-01T20:55:51Z</time>
      </trkpt>
      <trkpt lat="44.35146" lon="3.53549">
        <ele>895</ele>
        <time>2017-03-01T20:57:51Z</time>
      </trkpt>
      <trkpt lat="44.35137" lon="3.53536">
        <ele>895</ele>
        <time>2017-03-01T20:59:51Z</time>
      </trkpt>
      <trkpt lat="44.35131" lon="3.53523">
        <ele>893</ele>
        <time>2017-03-01T21:01:51Z</time>
      </trkpt>
      <trkpt lat="44.35122" lon="3.53514">
        <ele>893</ele>
        <time>2017-03-01T21:03:51Z</time>
      </trkpt>
      <trkpt lat="44.35113" lon="3.5351">
        <ele>895</ele>
        <time>2017-03-01T21:05:51Z</time>
      </trkpt>
      <trkpt lat="44.35107" lon="3.53509">
        <ele>896</ele>
        <time>2017-03-01T21:07:51Z</time>
      </trkpt>
      <trkpt lat="44.35099" lon="3.53506">
        <ele>898</ele>
        <time>2017-03-01T21:09:51Z</time>
      </trkpt>
      <trkpt lat="44.35088" lon="3.53499">
        <ele>898</ele>
        <time>2017-03-01T21:11:51Z</time>
      </trkpt>
      <trkpt lat="44.35073" lon="3.53481">
        <ele>900</ele>
        <time>2017-03-01T21:13:51Z</time>
      </trkpt>
      <trkpt lat="44.35065" lon="3.53473">
        <ele>901</ele>
        <time>2017-03-01T21:15:51Z</time>
      </trkpt>
      <trkpt lat="44.35054" lon="3.53461">
        <ele>903</ele>
        <time>2017-03-01T21:17:51Z</time>
      </trkpt>
      <trkpt lat="44.35044" lon="3.53445">
        <ele>903</ele>
        <time>2017-03-01T21:19:51Z</time>
      </trkpt>
      <trkpt lat="44.35035" lon="3.53422">
        <ele>901</ele>
        <time>2017-03-01T21:21:51Z</time>
      </trkpt>
      <trkpt lat="44.3503" lon="3.53411">
        <ele>902</ele>
        <time>2017-03-01T21:23:51Z</time>
      </trkpt>
      <trkpt lat="44.35025" lon="3.53401">
        <ele>904</ele>
        <time>2017-03-01T21:25:51Z</time>
      </trkpt>
      <trkpt lat="44.35016" lon="3.53393">
        <ele>907</ele>
        <time>2017-03-01T21:27:51Z</time>
      </trkpt>
      <trkpt lat="44.35004" lon="3.53386">
        <ele>910</ele>
        <time>2017-03-01T21:29:51Z</time>
      </trkpt>
      <trkpt lat="44.34989" lon="3.53383">
        <ele>912</ele>
        <time>2017-03-01T21:31:51Z</time>
      </trkpt>
      <trkpt lat="44.34978" lon="3.5338">
        <ele>913</ele>
        <time>2017-03-01T21:33:51Z</time>
      </trkpt>
      <trkpt lat="44.34969" lon="3.53372">
        <ele>914</ele>
        <time>2017-03-01T21:35:51Z</time>
      </trkpt>
      <trkpt lat="44.34964" lon="3.53364">
        <ele>914</ele>
        <time>2017-03-01T21:37:51Z</time>
      </trkpt>
      <trkpt lat="44.34961" lon="3.53356">
        <ele>914</ele>
        <time>2017-03-01T21:39:51Z</time>
      </trkpt>
      <trkpt lat="44.34962" lon="3.5335">
        <ele>914</ele>
        <time>2017-03-01T21:41:51Z</time>
      </trkpt>
      <trkpt lat="44.34967" lon="3.53342">
        <ele>914</ele>
        <time>2017-03-01T21:43:51Z</time>
      </trkpt>
      <trkpt lat="44.34977" lon="3.53336">
        <ele>913</ele>
        <time>2017-03-01T21:45:51Z</time>
      </trkpt>
      <trkpt lat="44.3499" lon="3.53332">
        <ele>913</ele>
        <time>2017-03-01T21:47:51Z</time>
      </trkpt>
      <trkpt lat="44.35003" lon="3.53329">
        <ele>912</ele>
        <time>2017-03-01T21:49:51Z</time>
      </trkpt>
      <trkpt lat="44.35007" lon="3.53326">
        <ele>912</ele>
        <time>2017-03-01T21:51:51Z</time>
      </trkpt>
      <trkpt lat="44.3501" lon="3.53323">
        <ele>912</ele>
        <time>2017-03-01T21:53:51Z</time>
      </trkpt>
      <trkpt lat="44.3501" lon="3.53318">
        <ele>913</ele>
        <time>2017-03-01T21:55:51Z</time>
      </trkpt>
      <trkpt lat="44.35007" lon="3.53315">
        <ele>914</ele>
        <time>2017-03-01T21:57:51Z</time>
      </trkpt>
      <trkpt lat="44.34997" lon="3.53314">
        <ele>916</ele>
        <time>2017-03-01T21:59:51Z</time>
      </trkpt>
      <trkpt lat="44.34984" lon="3.53317">
        <ele>916</ele>
        <time>2017-03-01T22:01:51Z</time>
      </trkpt>
      <trkpt lat="44.3497" lon="3.53325">
        <ele>915</ele>
        <time>2017-03-01T22:03:51Z</time>
      </trkpt>
      <trkpt lat="44.34951" lon="3.53338">
        <ele>915</ele>
        <time>2017-03-01T22:05:51Z</time>
      </trkpt>
      <trkpt lat="44.34934" lon="3.53352">
        <ele>916</ele>
        <time>2017-03-01T22:07:51Z</time>
      </trkpt>
      <trkpt lat="44.34927" lon="3.53363">
        <ele>916</ele>
        <time>2017-03-01T22:09:51Z</time>
      </trkpt>
      <trkpt lat="44.34917" lon="3.53377">
        <ele>917</ele>
        <time>2017-03-01T22:11:51Z</time>
      </trkpt>
      <trkpt lat="44.34908" lon="3.53389">
        <ele>917</ele>
        <time>2017-03-01T22:13:51Z</time>
      </trkpt>
      <trkpt lat="44.34902" lon="3.53396">
        <ele>917</ele>
        <time>2017-03-01T22:15:51Z</time>
      </trkpt>
      <trkpt lat="44.34881" lon="3.53413">
        <ele>917</ele>
        <time>2017-03-01T22:17:51Z</time>
      </trkpt>
      <trkpt lat="44.34859" lon="3.53434">
        <ele>921</ele>
        <time>2017-03-01T22:19:51Z</time>
      </trkpt>
      <trkpt lat="44.34841" lon="3.53452">
        <ele>923</ele>
        <time>2017-03-01T22:21:51Z</time>
      </trkpt>
      <trkpt lat="44.34823" lon="3.53467">
        <ele>925</ele>
        <time>2017-03-01T22:23:51Z</time>
      </trkpt>
      <trkpt lat="44.34804" lon="3.53483">
        <ele>927</ele>
        <time>2017-03-01T22:25:51Z</time>
      </trkpt>
      <trkpt lat="44.34795" lon="3.53491">
        <ele>928</ele>
        <time>2017-03-01T22:27:51Z</time>
      </trkpt>
      <trkpt lat="44.34788" lon="3.53501">
        <ele>929</ele>
        <time>2017-03-01T22:29:51Z</time>
      </trkpt>
      <trkpt lat="44.34774" lon="3.5352">
        <ele>931</ele>
        <time>2017-03-01T22:31:51Z</time>
      </trkpt>
      <trkpt lat="44.34751" lon="3.53552">
        <ele>934</ele>
        <time>2017-03-01T22:33:51Z</time>
      </trkpt>
      <trkpt lat="44.34722" lon="3.53595">
        <ele>939</ele>
        <time>2017-03-01T22:35:51Z</time>
      </trkpt>
      <trkpt lat="44.34706" lon="3.53621">
        <ele>942</ele>
        <time>2017-03-01T22:37:51Z</time>
      </trkpt>
      <trkpt lat="44.34698" lon="3.53634">
        <ele>944</ele>
        <time>2017-03-01T22:39:51Z</time>
      </trkpt>
      <trkpt lat="44.34686" lon="3.53647">
        <ele>945</ele>
        <time>2017-03-01T22:41:51Z</time>
      </trkpt>
      <trkpt lat="44.34664" lon="3.53666">
        <ele>946</ele>
        <time>2017-03-01T22:43:51Z</time>
      </trkpt>
      <trkpt lat="44.34658" lon="3.53672">
        <ele>947</ele>
        <time>2017-03-01T22:45:51Z</time>
      </trkpt>
      <trkpt lat="44.34655" lon="3.53675">
        <ele>948</ele>
        <time>2017-03-01T22:47:51Z</time>
      </trkpt>
      <trkpt lat="44.34649" lon="3.53676">
        <ele>949</ele>
        <time>2017-03-01T22:49:51Z</time>
      </trkpt>
      <trkpt lat="44.34644" lon="3.53676">
        <ele>949</ele>
        <time>2017-03-01T22:51:51Z</time>
      </trkpt>
      <trkpt lat="44.34639" lon="3.53675">
        <ele>949</ele>
        <time>2017-03-01T22:53:51Z</time>
      </trkpt>
      <trkpt lat="44.34621" lon="3.5367">
        <ele>950</ele>
        <time>2017-03-01T22:55:51Z</time>
      </trkpt>
      <trkpt lat="44.34606" lon="3.53665">
        <ele>950</ele>
        <time>2017-03-01T22:57:51Z</time>
      </trkpt>
      <trkpt lat="44.34591" lon="3.53663">
        <ele>951</ele>
        <time>2017-03-01T22:59:51Z</time>
      </trkpt>
      <trkpt lat="44.34582" lon="3.53662">
        <ele>951</ele>
        <time>2017-03-01T23:01:51Z</time>
      </trkpt>
      <trkpt lat="44.34574" lon="3.53663">
        <ele>951</ele>
        <time>2017-03-01T23:03:51Z</time>
      </trkpt>
      <trkpt lat="44.34564" lon="3.53667">
        <ele>952</ele>
        <time>2017-03-01T23:05:51Z</time>
      </trkpt>
      <trkpt lat="44.34545" lon="3.53677">
        <ele>953</ele>
        <time>2017-03-01T23:07:51Z</time>
      </trkpt>
      <trkpt lat="44.34534" lon="3.53685">
        <ele>954</ele>
        <time>2017-03-01T23:09:51Z</time>
      </trkpt>
      <trkpt lat="44.34529" lon="3.53694">
        <ele>955</ele>
        <time>2017-03-01T23:11:51Z</time>
      </trkpt>
      <trkpt lat="44.34527" lon="3.53703">
        <ele>956</ele>
        <time>2017-03-01T23:13:51Z</time>
      </trkpt>
      <trkpt lat="44.34526" lon="3.53711">
        <ele>957</ele>
        <time>2017-03-01T23:15:51Z</time>
      </trkpt>
      <trkpt lat="44.34527" lon="3.5372">
        <ele>958</ele>
        <time>2017-03-01T23:17:51Z</time>
      </trkpt>
      <trkpt lat="44.3453" lon="3.53734">
        <ele>960</ele>
        <time>2017-03-01T23:19:51Z</time>
      </trkpt>
      <trkpt lat="44.34537" lon="3.53765">
        <ele>963</ele>
        <time>2017-03-01T23:21:51Z</time>
      </trkpt>
      <trkpt lat="44.34541" lon="3.53791">
        <ele>965</ele>
        <time>2017-03-01T23:23:51Z</time>
      </trkpt>
      <trkpt lat="44.34542" lon="3.53819">
        <ele>968</ele>
        <time>2017-03-01T23:25:51Z</time>
      </trkpt>
      <trkpt lat="44.3454" lon="3.53848">
        <ele>970</ele>
        <time>2017-03-01T23:27:51Z</time>
      </trkpt>
      <trkpt lat="44.34537" lon="3.53875">
        <ele>970</ele>
        <time>2017-03-01T23:29:51Z</time>
      </trkpt>
      <trkpt lat="44.34528" lon="3.53921">
        <ele>972</ele>
        <time>2017-03-01T23:31:51Z</time>
      </trkpt>
      <trkpt lat="44.34518" lon="3.53979">
        <ele>974</ele>
        <time>2017-03-01T23:33:51Z</time>
      </trkpt>
      <trkpt lat="44.34508" lon="3.54041">
        <ele>976</ele>
        <time>2017-03-01T23:35:51Z</time>
      </trkpt>
      <trkpt lat="44.34493" lon="3.54101">
        <ele>979</ele>
        <time>2017-03-01T23:37:51Z</time>
      </trkpt>
      <trkpt lat="44.34493" lon="3.54101">
        <ele>979</ele>
        <time>2017-03-01T23:39:51Z</time>
      </trkpt>
      <trkpt lat="44.34488" lon="3.54098">
        <ele>979</ele>
        <time>2017-03-01T23:41:51Z</time>
      </trkpt>
      <trkpt lat="44.34484" lon="3.54094">
        <ele>979</ele>
        <time>2017-03-01T23:43:51Z</time>
      </trkpt>
      <trkpt lat="44.34478" lon="3.54087">
        <ele>979</ele>
        <time>2017-03-01T23:45:51Z</time>
      </trkpt>
      <trkpt lat="44.34473" lon="3.54077">
        <ele>979</ele>
        <time>2017-03-01T23:47:51Z</time>
      </trkpt>
      <trkpt lat="44.34468" lon="3.5407">
        <ele>979</ele>
        <time>2017-03-01T23:49:51Z</time>
      </trkpt>
      <trkpt lat="44.3446" lon="3.5406">
        <ele>979</ele>
        <time>2017-03-01T23:51:51Z</time>
      </trkpt>
      <trkpt lat="44.34455" lon="3.54055">
        <ele>979</ele>
        <time>2017-03-01T23:53:51Z</time>
      </trkpt>
      <trkpt lat="44.34452" lon="3.54051">
        <ele>979</ele>
        <time>2017-03-01T23:55:51Z</time>
      </trkpt>
      <trkpt lat="44.3445" lon="3.54048">
        <ele>979</ele>
        <time>2017-03-01T23:57:51Z</time>
      </trkpt>
      <trkpt lat="44.3445" lon="3.54038">
        <ele>979</ele>
        <time>2017-03-01T23:59:51Z</time>
      </trkpt>
      <trkpt lat="44.34449" lon="3.54022">
        <ele>978</ele>
        <time>2017-03-02T00:01:51Z</time>
      </trkpt>
      <trkpt lat="44.34447" lon="3.54008">
        <ele>978</ele>
        <time>2017-03-02T00:03:51Z</time>
      </trkpt>
      <trkpt lat="44.34446" lon="3.53997">
        <ele>977</ele>
        <time>2017-03-02T00:05:51Z</time>
      </trkpt>
      <trkpt lat="44.34445" lon="3.53983">
        <ele>977</ele>
        <time>2017-03-02T00:07:51Z</time>
      </trkpt>
      <trkpt lat="44.34445" lon="3.53968">
        <ele>976</ele>
        <time>2017-03-02T00:09:51Z</time>
      </trkpt>
      <trkpt lat="44.34444" lon="3.53955">
        <ele>976</ele>
        <time>2017-03-02T00:11:51Z</time>
      </trkpt>
      <trkpt lat="44.34444" lon="3.53943">
        <ele>976</ele>
        <time>2017-03-02T00:13:51Z</time>
      </trkpt>
      <trkpt lat="44.34444" lon="3.53932">
        <ele>975</ele>
        <time>2017-03-02T00:15:51Z</time>
      </trkpt>
      <trkpt lat="44.34442" lon="3.53914">
        <ele>975</ele>
        <time>2017-03-02T00:17:51Z</time>
      </trkpt>
      <trkpt lat="44.34442" lon="3.53907">
        <ele>975</ele>
        <time>2017-03-02T00:19:51Z</time>
      </trkpt>
      <trkpt lat="44.34441" lon="3.53893">
        <ele>975</ele>
        <time>2017-03-02T00:21:51Z</time>
      </trkpt>
      <trkpt lat="44.3444" lon="3.53879">
        <ele>975</ele>
        <time>2017-03-02T00:23:51Z</time>
      </trkpt>
      <trkpt lat="44.34435" lon="3.53866">
        <ele>976</ele>
        <time>2017-03-02T00:25:51Z</time>
      </trkpt>
      <trkpt lat="44.34431" lon="3.53852">
        <ele>976</ele>
        <time>2017-03-02T00:27:51Z</time>
      </trkpt>
      <trkpt lat="44.34426" lon="3.53837">
        <ele>976</ele>
        <time>2017-03-02T00:29:51Z</time>
      </trkpt>
      <trkpt lat="44.34423" lon="3.5383">
        <ele>976</ele>
        <time>2017-03-02T00:31:51Z</time>
      </trkpt>
      <trkpt lat="44.34421" lon="3.53827">
        <ele>976</ele>
        <time>2017-03-02T00:33:51Z</time>
      </trkpt>
      <trkpt lat="44.34418" lon="3.53825">
        <ele>976</ele>
        <time>2017-03-02T00:35:51Z</time>
      </trkpt>
      <trkpt lat="44.34407" lon="3.5382">
        <ele>976</ele>
        <time>2017-03-02T00:37:51Z</time>
      </trkpt>
      <trkpt lat="44.34399" lon="3.53814">
        <ele>976</ele>
        <time>2017-03-02T00:39:51Z</time>
      </trkpt>
      <trkpt lat="44.34395" lon="3.53808">
        <ele>975</ele>
        <time>2017-03-02T00:41:51Z</time>
      </trkpt>
      <trkpt lat="44.34388" lon="3.538">
        <ele>975</ele>
        <time>2017-03-02T00:43:51Z</time>
      </trkpt>
      <trkpt lat="44.34381" lon="3.53794">
        <ele>975</ele>
        <time>2017-03-02T00:45:51Z</time>
      </trkpt>
      <trkpt lat="44.34371" lon="3.53789">
        <ele>975</ele>
        <time>2017-03-02T00:47:51Z</time>
      </trkpt>
      <trkpt lat="44.34371" lon="3.53789">
        <ele>975</ele>
        <time>2017-03-02T00:49:51Z</time>
      </trkpt>
      <trkpt lat="44.34359" lon="3.53782">
        <ele>975</ele>
        <time>2017-03-02T00:51:51Z</time>
      </trkpt>
      <trkpt lat="44.34342" lon="3.53774">
        <ele>975</ele>
        <time>2017-03-02T00:53:51Z</time>
      </trkpt>
      <trkpt lat="44.3433" lon="3.53768">
        <ele>976</ele>
        <time>2017-03-02T00:55:51Z</time>
      </trkpt>
      <trkpt lat="44.34322" lon="3.53763">
        <ele>976</ele>
        <time>2017-03-02T00:57:51Z</time>
      </trkpt>
      <trkpt lat="44.34318" lon="3.53758">
        <ele>976</ele>
        <time>2017-03-02T00:59:51Z</time>
      </trkpt>
      <trkpt lat="44.34312" lon="3.53751">
        <ele>976</ele>
        <time>2017-03-02T01:01:51Z</time>
      </trkpt>
      <trkpt lat="44.34306" lon="3.53741">
        <ele>975</ele>
        <time>2017-03-02T01:03:51Z</time>
      </trkpt>
      <trkpt lat="44.34302" lon="3.53737">
        <ele>974</ele>
        <time>2017-03-02T01:05:51Z</time>
      </trkpt>
      <trkpt lat="44.34296" lon="3.53732">
        <ele>974</ele>
        <time>2017-03-02T01:07:51Z</time>
      </trkpt>
      <trkpt lat="44.34291" lon="3.53729">
        <ele>973</ele>
        <time>2017-03-02T01:09:51Z</time>
      </trkpt>
      <trkpt lat="44.34287" lon="3.53724">
        <ele>973</ele>
        <time>2017-03-02T01:11:51Z</time>
      </trkpt>
      <trkpt lat="44.34276" lon="3.53712">
        <ele>971</ele>
        <time>2017-03-02T01:13:51Z</time>
      </trkpt>
      <trkpt lat="44.34261" lon="3.537">
        <ele>970</ele>
        <time>2017-03-02T01:15:51Z</time>
      </trkpt>
      <trkpt lat="44.34246" lon="3.53688">
        <ele>969</ele>
        <time>2017-03-02T01:17:51Z</time>
      </trkpt>
      <trkpt lat="44.34228" lon="3.53676">
        <ele>968</ele>
        <time>2017-03-02T01:19:51Z</time>
      </trkpt>
      <trkpt lat="44.34208" lon="3.53665">
        <ele>967</ele>
        <time>2017-03-02T01:21:51Z</time>
      </trkpt>
      <trkpt lat="44.34192" lon="3.53655">
        <ele>966</ele>
        <time>2017-03-02T01:23:51Z</time>
      </trkpt>
      <trkpt lat="44.34174" lon="3.53644">
        <ele>965</ele>
        <time>2017-03-02T01:25:51Z</time>
      </trkpt>
      <trkpt lat="44.34154" lon="3.53632">
        <ele>964</ele>
        <time>2017-03-02T01:27:51Z</time>
      </trkpt>
      <trkpt lat="44.34142" lon="3.53622">
        <ele>963</ele>
        <time>2017-03-02T01:29:51Z</time>
      </trkpt>
      <trkpt lat="44.3413" lon="3.53611">
        <ele>961</ele>
        <time>2017-03-02T01:31:51Z</time>
      </trkpt>
      <trkpt lat="44.34119" lon="3.53601">
        <ele>960</ele>
        <time>2017-03-02T01:33:51Z</time>
      </trkpt>
      <trkpt lat="44.3411" lon="3.53594">
        <ele>959</ele>
        <time>2017-03-02T01:35:51Z</time>
      </trkpt>
      <trkpt lat="44.34101" lon="3.53587">
        <ele>958</ele>
        <time>2017-03-02T01:37:51Z</time>
      </trkpt>
      <trkpt lat="44.34092" lon="3.53578">
        <ele>957</ele>
        <time>2017-03-02T01:39:51Z</time>
      </trkpt>
      <trkpt lat="44.34083" lon="3.53569">
        <ele>956</ele>
        <time>2017-03-02T01:41:51Z</time>
      </trkpt>
      <trkpt lat="44.34077" lon="3.53563">
        <ele>955</ele>
        <time>2017-03-02T01:43:51Z</time>
      </trkpt>
      <trkpt lat="44.34067" lon="3.53556">
        <ele>954</ele>
        <time>2017-03-02T01:45:51Z</time>
      </trkpt>
      <trkpt lat="44.34052" lon="3.53549">
        <ele>952</ele>
        <time>2017-03-02T01:47:51Z</time>
      </trkpt>
      <trkpt lat="44.34028" lon="3.53541">
        <ele>951</ele>
        <time>2017-03-02T01:49:51Z</time>
      </trkpt>
      <trkpt lat="44.34008" lon="3.53536">
        <ele>950</ele>
        <time>2017-03-02T01:51:51Z</time>
      </trkpt>
      <trkpt lat="44.33999" lon="3.53536">
        <ele>951</ele>
        <time>2017-03-02T01:53:51Z</time>
      </trkpt>
      <trkpt lat="44.33988" lon="3.53537">
        <ele>951</ele>
        <time>2017-03-02T01:55:51Z</time>
      </trkpt>
      <trkpt lat="44.33963" lon="3.53541">
        <ele>954</ele>
        <time>2017-03-02T01:57:51Z</time>
      </trkpt>
      <trkpt lat="44.33956" lon="3.5354">
        <ele>954</ele>
        <time>2017-03-02T01:59:51Z</time>
      </trkpt>
      <trkpt lat="44.3395" lon="3.53536">
        <ele>954</ele>
        <time>2017-03-02T02:01:51Z</time>
      </trkpt>
      <trkpt lat="44.33946" lon="3.53532">
        <ele>953</ele>
        <time>2017-03-02T02:03:51Z</time>
      </trkpt>
      <trkpt lat="44.33941" lon="3.53525">
        <ele>952</ele>
        <time>2017-03-02T02:05:51Z</time>
      </trkpt>
      <trkpt lat="44.33927" lon="3.53504">
        <ele>950</ele>
        <time>2017-03-02T02:07:51Z</time>
      </trkpt>
      <trkpt lat="44.33917" lon="3.53489">
        <ele>949</ele>
        <time>2017-03-02T02:09:51Z</time>
      </trkpt>
      <trkpt lat="44.33911" lon="3.53477">
        <ele>948</ele>
        <time>2017-03-02T02:11:51Z</time>
      </trkpt>
      <trkpt lat="44.33909" lon="3.53472">
        <ele>947</ele>
        <time>2017-03-02T02:13:51Z</time>
      </trkpt>
      <trkpt lat="44.33909" lon="3.53465">
        <ele>946</ele>
        <time>2017-03-02T02:15:51Z</time>
      </trkpt>
      <trkpt lat="44.33909" lon="3.5346">
        <ele>946</ele>
        <time>2017-03-02T02:17:51Z</time>
      </trkpt>
      <trkpt lat="44.33911" lon="3.53435">
        <ele>943</ele>
        <time>2017-03-02T02:19:51Z</time>
      </trkpt>
      <trkpt lat="44.33914" lon="3.53417">
        <ele>941</ele>
        <time>2017-03-02T02:21:51Z</time>
      </trkpt>
      <trkpt lat="44.33917" lon="3.53408">
        <ele>942</ele>
        <time>2017-03-02T02:23:51Z</time>
      </trkpt>
      <trkpt lat="44.33917" lon="3.534">
        <ele>942</ele>
        <time>2017-03-02T02:25:51Z</time>
      </trkpt>
      <trkpt lat="44.33916" lon="3.53394">
        <ele>942</ele>
        <time>2017-03-02T02:27:51Z</time>
      </trkpt>
      <trkpt lat="44.33914" lon="3.53389">
        <ele>942</ele>
        <time>2017-03-02T02:29:51Z</time>
      </trkpt>
      <trkpt lat="44.3391" lon="3.53386">
        <ele>942</ele>
        <time>2017-03-02T02:31:51Z</time>
      </trkpt>
      <trkpt lat="44.33909" lon="3.53386">
        <ele>942</ele>
        <time>2017-03-02T02:33:51Z</time>
      </trkpt>
      <trkpt lat="44.33909" lon="3.53386">
        <ele>942</ele>
        <time>2017-03-02T02:35:51Z</time>
      </trkpt>
      <trkpt lat="44.33903" lon="3.53383">
        <ele>942</ele>
        <time>2017-03-02T02:37:51Z</time>
      </trkpt>
      <trkpt lat="44.33894" lon="3.53377">
        <ele>942</ele>
        <time>2017-03-02T02:39:51Z</time>
      </trkpt>
      <trkpt lat="44.33887" lon="3.53371">
        <ele>941</ele>
        <time>2017-03-02T02:41:51Z</time>
      </trkpt>
      <trkpt lat="44.33882" lon="3.53363">
        <ele>941</ele>
        <time>2017-03-02T02:43:51Z</time>
      </trkpt>
      <trkpt lat="44.33877" lon="3.53354">
        <ele>941</ele>
        <time>2017-03-02T02:45:51Z</time>
      </trkpt>
      <trkpt lat="44.33874" lon="3.53348">
        <ele>941</ele>
        <time>2017-03-02T02:47:51Z</time>
      </trkpt>
      <trkpt lat="44.33869" lon="3.53342">
        <ele>940</ele>
        <time>2017-03-02T02:49:51Z</time>
      </trkpt>
      <trkpt lat="44.33865" lon="3.53337">
        <ele>940</ele>
        <time>2017-03-02T02:51:51Z</time>
      </trkpt>
      <trkpt lat="44.33849" lon="3.53322">
        <ele>939</ele>
        <time>2017-03-02T02:53:51Z</time>
      </trkpt>
      <trkpt lat="44.33842" lon="3.53312">
        <ele>939</ele>
        <time>2017-03-02T02:55:51Z</time>
      </trkpt>
      <trkpt lat="44.33836" lon="3.53304">
        <ele>939</ele>
        <time>2017-03-02T02:57:51Z</time>
      </trkpt>
      <trkpt lat="44.33832" lon="3.53297">
        <ele>939</ele>
        <time>2017-03-02T02:59:51Z</time>
      </trkpt>
      <trkpt lat="44.33828" lon="3.53292">
        <ele>939</ele>
        <time>2017-03-02T03:01:51Z</time>
      </trkpt>
      <trkpt lat="44.33824" lon="3.53289">
        <ele>939</ele>
        <time>2017-03-02T03:03:51Z</time>
      </trkpt>
      <trkpt lat="44.33811" lon="3.53282">
        <ele>937</ele>
        <time>2017-03-02T03:05:51Z</time>
      </trkpt>
      <trkpt lat="44.33806" lon="3.53277">
        <ele>937</ele>
        <time>2017-03-02T03:07:51Z</time>
      </trkpt>
      <trkpt lat="44.33799" lon="3.53266">
        <ele>936</ele>
        <time>2017-03-02T03:09:51Z</time>
      </trkpt>
      <trkpt lat="44.33792" lon="3.53255">
        <ele>936</ele>
        <time>2017-03-02T03:11:51Z</time>
      </trkpt>
      <trkpt lat="44.33787" lon="3.5325">
        <ele>935</ele>
        <time>2017-03-02T03:13:51Z</time>
      </trkpt>
      <trkpt lat="44.33781" lon="3.53245">
        <ele>934</ele>
        <time>2017-03-02T03:15:51Z</time>
      </trkpt>
      <trkpt lat="44.33763" lon="3.53236">
        <ele>932</ele>
        <time>2017-03-02T03:17:51Z</time>
      </trkpt>
      <trkpt lat="44.33742" lon="3.53226">
        <ele>929</ele>
        <time>2017-03-02T03:19:51Z</time>
      </trkpt>
      <trkpt lat="44.33735" lon="3.5322">
        <ele>929</ele>
        <time>2017-03-02T03:21:51Z</time>
      </trkpt>
      <trkpt lat="44.33726" lon="3.5321">
        <ele>929</ele>
        <time>2017-03-02T03:23:51Z</time>
      </trkpt>
      <trkpt lat="44.33713" lon="3.53197">
        <ele>928</ele>
        <time>2017-03-02T03:25:51Z</time>
      </trkpt>
      <trkpt lat="44.337" lon="3.53185">
        <ele>927</ele>
        <time>2017-03-02T03:27:51Z</time>
      </trkpt>
      <trkpt lat="44.33694" lon="3.53178">
        <ele>927</ele>
        <time>2017-03-02T03:29:51Z</time>
      </trkpt>
      <trkpt lat="44.33688" lon="3.53169">
        <ele>927</ele>
        <time>2017-03-02T03:31:51Z</time>
      </trkpt>
      <trkpt lat="44.3368" lon="3.53159">
        <ele>926</ele>
        <time>2017-03-02T03:33:51Z</time>
      </trkpt>
      <trkpt lat="44.33672" lon="3.53151">
        <ele>926</ele>
        <time>2017-03-02T03:35:51Z</time>
      </trkpt>
      <trkpt lat="44.33662" lon="3.53142">
        <ele>925</ele>
        <time>2017-03-02T03:37:51Z</time>
      </trkpt>
      <trkpt lat="44.33654" lon="3.53134">
        <ele>924</ele>
        <time>2017-03-02T03:39:51Z</time>
      </trkpt>
      <trkpt lat="44.3365" lon="3.53125">
        <ele>924</ele>
        <time>2017-03-02T03:41:51Z</time>
      </trkpt>
      <trkpt lat="44.33646" lon="3.53113">
        <ele>923</ele>
        <time>2017-03-02T03:43:51Z</time>
      </trkpt>
      <trkpt lat="44.33645" lon="3.53102">
        <ele>924</ele>
        <time>2017-03-02T03:45:51Z</time>
      </trkpt>
      <trkpt lat="44.33644" lon="3.53087">
        <ele>924</ele>
        <time>2017-03-02T03:47:51Z</time>
      </trkpt>
      <trkpt lat="44.33643" lon="3.53078">
        <ele>925</ele>
        <time>2017-03-02T03:49:51Z</time>
      </trkpt>
      <trkpt lat="44.3364" lon="3.53068">
        <ele>926</ele>
        <time>2017-03-02T03:51:51Z</time>
      </trkpt>
      <trkpt lat="44.33636" lon="3.53061">
        <ele>926</ele>
        <time>2017-03-02T03:53:51Z</time>
      </trkpt>
      <trkpt lat="44.33629" lon="3.53054">
        <ele>925</ele>
        <time>2017-03-02T03:55:51Z</time>
      </trkpt>
      <trkpt lat="44.33619" lon="3.53046">
        <ele>924</ele>
        <time>2017-03-02T03:57:51Z</time>
      </trkpt>
      <trkpt lat="44.33611" lon="3.53037">
        <ele>924</ele>
        <time>2017-03-02T03:59:51Z</time>
      </trkpt>
      <trkpt lat="44.33602" lon="3.53027">
        <ele>924</ele>
        <time>2017-03-02T04:01:51Z</time>
      </trkpt>
      <trkpt lat="44.33595" lon="3.53021">
        <ele>923</ele>
        <time>2017-03-02T04:03:51Z</time>
      </trkpt>
      <trkpt lat="44.33585" lon="3.53017">
        <ele>922</ele>
        <time>2017-03-02T04:05:51Z</time>
      </trkpt>
      <trkpt lat="44.33559" lon="3.53014">
        <ele>919</ele>
        <time>2017-03-02T04:07:51Z</time>
      </trkpt>
      <trkpt lat="44.33522" lon="3.53012">
        <ele>914</ele>
        <time>2017-03-02T04:09:51Z</time>
      </trkpt>
      <trkpt lat="44.3351" lon="3.53011">
        <ele>912</ele>
        <time>2017-03-02T04:11:51Z</time>
      </trkpt>
      <trkpt lat="44.33497" lon="3.53008">
        <ele>911</ele>
        <time>2017-03-02T04:13:51Z</time>
      </trkpt>
      <trkpt lat="44.33479" lon="3.53002">
        <ele>910</ele>
        <time>2017-03-02T04:15:51Z</time>
      </trkpt>
      <trkpt lat="44.33468" lon="3.53">
        <ele>909</ele>
        <time>2017-03-02T04:17:51Z</time>
      </trkpt>
      <trkpt lat="44.33463" lon="3.52997">
        <ele>908</ele>
        <time>2017-03-02T04:19:51Z</time>
      </trkpt>
      <trkpt lat="44.33459" lon="3.52993">
        <ele>908</ele>
        <time>2017-03-02T04:21:51Z</time>
      </trkpt>
      <trkpt lat="44.33453" lon="3.52988">
        <ele>907</ele>
        <time>2017-03-02T04:23:51Z</time>
      </trkpt>
      <trkpt lat="44.33446" lon="3.52985">
        <ele>907</ele>
        <time>2017-03-02T04:25:51Z</time>
      </trkpt>
      <trkpt lat="44.3344" lon="3.52982">
        <ele>906</ele>
        <time>2017-03-02T04:27:51Z</time>
      </trkpt>
      <trkpt lat="44.33434" lon="3.52981">
        <ele>905</ele>
        <time>2017-03-02T04:29:51Z</time>
      </trkpt>
      <trkpt lat="44.33429" lon="3.5298">
        <ele>905</ele>
        <time>2017-03-02T04:31:51Z</time>
      </trkpt>
      <trkpt lat="44.33425" lon="3.52976">
        <ele>905</ele>
        <time>2017-03-02T04:33:51Z</time>
      </trkpt>
      <trkpt lat="44.33421" lon="3.52971">
        <ele>904</ele>
        <time>2017-03-02T04:35:51Z</time>
      </trkpt>
      <trkpt lat="44.33412" lon="3.52956">
        <ele>904</ele>
        <time>2017-03-02T04:37:51Z</time>
      </trkpt>
      <trkpt lat="44.334" lon="3.52938">
        <ele>903</ele>
        <time>2017-03-02T04:39:51Z</time>
      </trkpt>
      <trkpt lat="44.33387" lon="3.52916">
        <ele>903</ele>
        <time>2017-03-02T04:41:51Z</time>
      </trkpt>
      <trkpt lat="44.33378" lon="3.52899">
        <ele>902</ele>
        <time>2017-03-02T04:43:51Z</time>
      </trkpt>
      <trkpt lat="44.33376" lon="3.52895">
        <ele>902</ele>
        <time>2017-03-02T04:45:51Z</time>
      </trkpt>
      <trkpt lat="44.33371" lon="3.52889">
        <ele>902</ele>
        <time>2017-03-02T04:47:51Z</time>
      </trkpt>
      <trkpt lat="44.33362" lon="3.52877">
        <ele>902</ele>
        <time>2017-03-02T04:49:51Z</time>
      </trkpt>
      <trkpt lat="44.33354" lon="3.52864">
        <ele>901</ele>
        <time>2017-03-02T04:51:51Z</time>
      </trkpt>
      <trkpt lat="44.33343" lon="3.5285">
        <ele>900</ele>
        <time>2017-03-02T04:53:51Z</time>
      </trkpt>
      <trkpt lat="44.33327" lon="3.52833">
        <ele>898</ele>
        <time>2017-03-02T04:55:51Z</time>
      </trkpt>
      <trkpt lat="44.33314" lon="3.52819">
        <ele>899</ele>
        <time>2017-03-02T04:57:51Z</time>
      </trkpt>
      <trkpt lat="44.3329" lon="3.52796">
        <ele>898</ele>
        <time>2017-03-02T04:59:51Z</time>
      </trkpt>
      <trkpt lat="44.3327" lon="3.52775">
        <ele>898</ele>
        <time>2017-03-02T05:01:51Z</time>
      </trkpt>
      <trkpt lat="44.33252" lon="3.52754">
        <ele>898</ele>
        <time>2017-03-02T05:03:51Z</time>
      </trkpt>
      <trkpt lat="44.33238" lon="3.52738">
        <ele>899</ele>
        <time>2017-03-02T05:05:51Z</time>
      </trkpt>
      <trkpt lat="44.33222" lon="3.52724">
        <ele>899</ele>
        <time>2017-03-02T05:07:51Z</time>
      </trkpt>
      <trkpt lat="44.33213" lon="3.52718">
        <ele>899</ele>
        <time>2017-03-02T05:09:51Z</time>
      </trkpt>
      <trkpt lat="44.33203" lon="3.52714">
        <ele>898</ele>
        <time>2017-03-02T05:11:51Z</time>
      </trkpt>
      <trkpt lat="44.33174" lon="3.52704">
        <ele>896</ele>
        <time>2017-03-02T05:13:51Z</time>
      </trkpt>
      <trkpt lat="44.33165" lon="3.52699">
        <ele>896</ele>
        <time>2017-03-02T05:15:51Z</time>
      </trkpt>
      <trkpt lat="44.33153" lon="3.52693">
        <ele>895</ele>
        <time>2017-03-02T05:17:51Z</time>
      </trkpt>
      <trkpt lat="44.3314" lon="3.52684">
        <ele>895</ele>
        <time>2017-03-02T05:19:51Z</time>
      </trkpt>
      <trkpt lat="44.33131" lon="3.52676">
        <ele>895</ele>
        <time>2017-03-02T05:21:51Z</time>
      </trkpt>
      <trkpt lat="44.3312" lon="3.52669">
        <ele>894</ele>
        <time>2017-03-02T05:23:51Z</time>
      </trkpt>
      <trkpt lat="44.33112" lon="3.52664">
        <ele>894</ele>
        <time>2017-03-02T05:25:51Z</time>
      </trkpt>
      <trkpt lat="44.33108" lon="3.52662">
        <ele>894</ele>
        <time>2017-03-02T05:27:51Z</time>
      </trkpt>
      <trkpt lat="44.33099" lon="3.52657">
        <ele>894</ele>
        <time>2017-03-02T05:29:51Z</time>
      </trkpt>
      <trkpt lat="44.33084" lon="3.52649">
        <ele>893</ele>
        <time>2017-03-02T05:31:51Z</time>
      </trkpt>
      <trkpt lat="44.33072" lon="3.5264">
        <ele>893</ele>
        <time>2017-03-02T05:33:51Z</time>
      </trkpt>
      <trkpt lat="44.33063" lon="3.5263">
        <ele>893</ele>
        <time>2017-03-02T05:35:51Z</time>
      </trkpt>
      <trkpt lat="44.33053" lon="3.52618">
        <ele>893</ele>
        <time>2017-03-02T05:37:51Z</time>
      </trkpt>
      <trkpt lat="44.33041" lon="3.52605">
        <ele>893</ele>
        <time>2017-03-02T05:39:51Z</time>
      </trkpt>
      <trkpt lat="44.33028" lon="3.52593">
        <ele>892</ele>
        <time>2017-03-02T05:41:51Z</time>
      </trkpt>
      <trkpt lat="44.33014" lon="3.52582">
        <ele>891</ele>
        <time>2017-03-02T05:43:51Z</time>
      </trkpt>
      <trkpt lat="44.32994" lon="3.52569">
        <ele>890</ele>
        <time>2017-03-02T05:45:51Z</time>
      </trkpt>
      <trkpt lat="44.32977" lon="3.52561">
        <ele>890</ele>
        <time>2017-03-02T05:47:51Z</time>
      </trkpt>
      <trkpt lat="44.32953" lon="3.52544">
        <ele>890</ele>
        <time>2017-03-02T05:49:51Z</time>
      </trkpt>
      <trkpt lat="44.32932" lon="3.5253">
        <ele>889</ele>
        <time>2017-03-02T05:51:51Z</time>
      </trkpt>
      <trkpt lat="44.32913" lon="3.52517">
        <ele>889</ele>
        <time>2017-03-02T05:53:51Z</time>
      </trkpt>
      <trkpt lat="44.32895" lon="3.52504">
        <ele>890</ele>
        <time>2017-03-02T05:55:51Z</time>
      </trkpt>
      <trkpt lat="44.32882" lon="3.52496">
        <ele>890</ele>
        <time>2017-03-02T05:57:51Z</time>
      </trkpt>
      <trkpt lat="44.32869" lon="3.52492">
        <ele>890</ele>
        <time>2017-03-02T05:59:51Z</time>
      </trkpt>
      <trkpt lat="44.32863" lon="3.5249">
        <ele>890</ele>
        <time>2017-03-02T06:01:51Z</time>
      </trkpt>
      <trkpt lat="44.32856" lon="3.5249">
        <ele>890</ele>
        <time>2017-03-02T06:03:51Z</time>
      </trkpt>
      <trkpt lat="44.32845" lon="3.52493">
        <ele>890</ele>
        <time>2017-03-02T06:05:51Z</time>
      </trkpt>
      <trkpt lat="44.32832" lon="3.525">
        <ele>890</ele>
        <time>2017-03-02T06:07:51Z</time>
      </trkpt>
      <trkpt lat="44.32817" lon="3.52507">
        <ele>890</ele>
        <time>2017-03-02T06:09:51Z</time>
      </trkpt>
      <trkpt lat="44.32817" lon="3.52507">
        <ele>890</ele>
        <time>2017-03-02T06:11:51Z</time>
      </trkpt>
      <trkpt lat="44.3281" lon="3.52502">
        <ele>891</ele>
        <time>2017-03-02T06:13:51Z</time>
      </trkpt>
      <trkpt lat="44.32801" lon="3.52494">
        <ele>891</ele>
        <time>2017-03-02T06:15:51Z</time>
      </trkpt>
      <trkpt lat="44.32792" lon="3.52485">
        <ele>891</ele>
        <time>2017-03-02T06:17:51Z</time>
      </trkpt>
      <trkpt lat="44.32777" lon="3.52467">
        <ele>891</ele>
        <time>2017-03-02T06:19:51Z</time>
      </trkpt>
      <trkpt lat="44.32765" lon="3.52456">
        <ele>891</ele>
        <time>2017-03-02T06:21:51Z</time>
      </trkpt>
      <trkpt lat="44.32758" lon="3.52445">
        <ele>891</ele>
        <time>2017-03-02T06:23:51Z</time>
      </trkpt>
      <trkpt lat="44.32754" lon="3.52438">
        <ele>891</ele>
        <time>2017-03-02T06:25:51Z</time>
      </trkpt>
      <trkpt lat="44.32749" lon="3.5243">
        <ele>891</ele>
        <time>2017-03-02T06:27:51Z</time>
      </trkpt>
      <trkpt lat="44.32739" lon="3.5242">
        <ele>890</ele>
        <time>2017-03-02T06:29:51Z</time>
      </trkpt>
      <trkpt lat="44.32729" lon="3.52412">
        <ele>890</ele>
        <time>2017-03-02T06:31:51Z</time>
      </trkpt>
      <trkpt lat="44.3272" lon="3.52407">
        <ele>890</ele>
        <time>2017-03-02T06:33:51Z</time>
      </trkpt>
      <trkpt lat="44.32711" lon="3.52403">
        <ele>890</ele>
        <time>2017-03-02T06:35:51Z</time>
      </trkpt>
      <trkpt lat="44.32704" lon="3.524">
        <ele>890</ele>
        <time>2017-03-02T06:37:51Z</time>
      </trkpt>
      <trkpt lat="44.32697" lon="3.52396">
        <ele>890</ele>
        <time>2017-03-02T06:39:51Z</time>
      </trkpt>
      <trkpt lat="44.32692" lon="3.52395">
        <ele>890</ele>
        <time>2017-03-02T06:41:51Z</time>
      </trkpt>
      <trkpt lat="44.32682" lon="3.52396">
        <ele>891</ele>
        <time>2017-03-02T06:43:51Z</time>
      </trkpt>
      <trkpt lat="44.32671" lon="3.52394">
        <ele>891</ele>
        <time>2017-03-02T06:45:51Z</time>
      </trkpt>
      <trkpt lat="44.32661" lon="3.5239">
        <ele>892</ele>
        <time>2017-03-02T06:47:51Z</time>
      </trkpt>
      <trkpt lat="44.32642" lon="3.52379">
        <ele>893</ele>
        <time>2017-03-02T06:49:51Z</time>
      </trkpt>
      <trkpt lat="44.32629" lon="3.52371">
        <ele>895</ele>
        <time>2017-03-02T06:51:51Z</time>
      </trkpt>
      <trkpt lat="44.32625" lon="3.52367">
        <ele>895</ele>
        <time>2017-03-02T06:53:51Z</time>
      </trkpt>
      <trkpt lat="44.3262" lon="3.52363">
        <ele>895</ele>
        <time>2017-03-02T06:55:51Z</time>
      </trkpt>
      <trkpt lat="44.32619" lon="3.5236">
        <ele>895</ele>
        <time>2017-03-02T06:57:51Z</time>
      </trkpt>
      <trkpt lat="44.32614" lon="3.52352">
        <ele>896</ele>
        <time>2017-03-02T06:59:51Z</time>
      </trkpt>
      <trkpt lat="44.3261" lon="3.52347">
        <ele>896</ele>
        <time>2017-03-02T07:01:51Z</time>
      </trkpt>
      <trkpt lat="44.32606" lon="3.52343">
        <ele>897</ele>
        <time>2017-03-02T07:03:51Z</time>
      </trkpt>
      <trkpt lat="44.32603" lon="3.52339">
        <ele>897</ele>
        <time>2017-03-02T07:05:51Z</time>
      </trkpt>
      <trkpt lat="44.32601" lon="3.52334">
        <ele>897</ele>
        <time>2017-03-02T07:07:51Z</time>
      </trkpt>
      <trkpt lat="44.32598" lon="3.52325">
        <ele>897</ele>
        <time>2017-03-02T07:09:51Z</time>
      </trkpt>
      <trkpt lat="44.3259" lon="3.52312">
        <ele>898</ele>
        <time>2017-03-02T07:11:51Z</time>
      </trkpt>
      <trkpt lat="44.32583" lon="3.52295">
        <ele>899</ele>
        <time>2017-03-02T07:13:51Z</time>
      </trkpt>
      <trkpt lat="44.32576" lon="3.5228">
        <ele>899</ele>
        <time>2017-03-02T07:15:51Z</time>
      </trkpt>
      <trkpt lat="44.32565" lon="3.52255">
        <ele>900</ele>
        <time>2017-03-02T07:17:51Z</time>
      </trkpt>
      <trkpt lat="44.32555" lon="3.52232">
        <ele>900</ele>
        <time>2017-03-02T07:19:51Z</time>
      </trkpt>
      <trkpt lat="44.32549" lon="3.5222">
        <ele>900</ele>
        <time>2017-03-02T07:21:51Z</time>
      </trkpt>
      <trkpt lat="44.32545" lon="3.52215">
        <ele>900</ele>
        <time>2017-03-02T07:23:51Z</time>
      </trkpt>
      <trkpt lat="44.32538" lon="3.52208">
        <ele>900</ele>
        <time>2017-03-02T07:25:51Z</time>
      </trkpt>
      <trkpt lat="44.32529" lon="3.52202">
        <ele>900</ele>
        <time>2017-03-02T07:27:51Z</time>
      </trkpt>
      <trkpt lat="44.3252" lon="3.52199">
        <ele>901</ele>
        <time>2017-03-02T07:29:51Z</time>
      </trkpt>
      <trkpt lat="44.32513" lon="3.52198">
        <ele>901</ele>
        <time>2017-03-02T07:31:51Z</time>
      </trkpt>
      <trkpt lat="44.32506" lon="3.52197">
        <ele>902</ele>
        <time>2017-03-02T07:33:51Z</time>
      </trkpt>
      <trkpt lat="44.32502" lon="3.52196">
        <ele>902</ele>
        <time>2017-03-02T07:35:51Z</time>
      </trkpt>
      <trkpt lat="44.325" lon="3.52195">
        <ele>902</ele>
        <time>2017-03-02T07:37:51Z</time>
      </trkpt>
      <trkpt lat="44.32494" lon="3.52191">
        <ele>902</ele>
        <time>2017-03-02T07:39:51Z</time>
      </trkpt>
      <trkpt lat="44.32489" lon="3.52191">
        <ele>902</ele>
        <time>2017-03-02T07:41:51Z</time>
      </trkpt>
      <trkpt lat="44.32477" lon="3.52193">
        <ele>903</ele>
        <time>2017-03-02T07:43:51Z</time>
      </trkpt>
      <trkpt lat="44.3246" lon="3.52193">
        <ele>903</ele>
        <time>2017-03-02T07:45:51Z</time>
      </trkpt>
      <trkpt lat="44.32438" lon="3.52192">
        <ele>904</ele>
        <time>2017-03-02T07:47:51Z</time>
      </trkpt>
      <trkpt lat="44.3243" lon="3.52188">
        <ele>904</ele>
        <time>2017-03-02T07:49:51Z</time>
      </trkpt>
      <trkpt lat="44.32421" lon="3.52181">
        <ele>903</ele>
        <time>2017-03-02T07:51:51Z</time>
      </trkpt>
      <trkpt lat="44.32413" lon="3.52172">
        <ele>901</ele>
        <time>2017-03-02T07:53:51Z</time>
      </trkpt>
      <trkpt lat="44.32407" lon="3.52162">
        <ele>900</ele>
        <time>2017-03-02T07:55:51Z</time>
      </trkpt>
      <trkpt lat="44.324" lon="3.52155">
        <ele>900</ele>
        <time>2017-03-02T07:57:51Z</time>
      </trkpt>
      <trkpt lat="44.32384" lon="3.5214">
        <ele>898</ele>
        <time>2017-03-02T07:59:51Z</time>
      </trkpt>
      <trkpt lat="44.32379" lon="3.52137">
        <ele>898</ele>
        <time>2017-03-02T08:01:51Z</time>
      </trkpt>
      <trkpt lat="44.32374" lon="3.52136">
        <ele>898</ele>
        <time>2017-03-02T08:03:51Z</time>
      </trkpt>
      <trkpt lat="44.32362" lon="3.52134">
        <ele>898</ele>
        <time>2017-03-02T08:05:51Z</time>
      </trkpt>
      <trkpt lat="44.32347" lon="3.52132">
        <ele>898</ele>
        <time>2017-03-02T08:07:51Z</time>
      </trkpt>
      <trkpt lat="44.3234" lon="3.5213">
        <ele>897</ele>
        <time>2017-03-02T08:09:51Z</time>
      </trkpt>
      <trkpt lat="44.32337" lon="3.52128">
        <ele>897</ele>
        <time>2017-03-02T08:11:51Z</time>
      </trkpt>
      <trkpt lat="44.32335" lon="3.52126">
        <ele>897</ele>
        <time>2017-03-02T08:13:51Z</time>
      </trkpt>
      <trkpt lat="44.32332" lon="3.52122">
        <ele>896</ele>
        <time>2017-03-02T08:15:51Z</time>
      </trkpt>
      <trkpt lat="44.3233" lon="3.52116">
        <ele>895</ele>
        <time>2017-03-02T08:17:51Z</time>
      </trkpt>
      <trkpt lat="44.32328" lon="3.52108">
        <ele>894</ele>
        <time>2017-03-02T08:19:51Z</time>
      </trkpt>
      <trkpt lat="44.32325" lon="3.52101">
        <ele>894</ele>
        <time>2017-03-02T08:21:51Z</time>
      </trkpt>
      <trkpt lat="44.32318" lon="3.5209">
        <ele>892</ele>
        <time>2017-03-02T08:23:51Z</time>
      </trkpt>
      <trkpt lat="44.32307" lon="3.52074">
        <ele>891</ele>
        <time>2017-03-02T08:25:51Z</time>
      </trkpt>
      <trkpt lat="44.32298" lon="3.52062">
        <ele>890</ele>
        <time>2017-03-02T08:27:51Z</time>
      </trkpt>
      <trkpt lat="44.32291" lon="3.52053">
        <ele>890</ele>
        <time>2017-03-02T08:29:51Z</time>
      </trkpt>
      <trkpt lat="44.32286" lon="3.52047">
        <ele>890</ele>
        <time>2017-03-02T08:31:51Z</time>
      </trkpt>
      <trkpt lat="44.3228" lon="3.52043">
        <ele>890</ele>
        <time>2017-03-02T08:33:51Z</time>
      </trkpt>
      <trkpt lat="44.32271" lon="3.52041">
        <ele>890</ele>
        <time>2017-03-02T08:35:51Z</time>
      </trkpt>
      <trkpt lat="44.3226" lon="3.5204">
        <ele>890</ele>
        <time>2017-03-02T08:37:51Z</time>
      </trkpt>
      <trkpt lat="44.32249" lon="3.5204">
        <ele>890</ele>
        <time>2017-03-02T08:39:51Z</time>
      </trkpt>
      <trkpt lat="44.32242" lon="3.52041">
        <ele>890</ele>
        <time>2017-03-02T08:41:51Z</time>
      </trkpt>
      <trkpt lat="44.32236" lon="3.5204">
        <ele>890</ele>
        <time>2017-03-02T08:43:51Z</time>
      </trkpt>
      <trkpt lat="44.32233" lon="3.52038">
        <ele>889</ele>
        <time>2017-03-02T08:45:51Z</time>
      </trkpt>
      <trkpt lat="44.32231" lon="3.52032">
        <ele>889</ele>
        <time>2017-03-02T08:47:51Z</time>
      </trkpt>
      <trkpt lat="44.3223" lon="3.52026">
        <ele>888</ele>
        <time>2017-03-02T08:49:51Z</time>
      </trkpt>
      <trkpt lat="44.32229" lon="3.52017">
        <ele>888</ele>
        <time>2017-03-02T08:51:51Z</time>
      </trkpt>
      <trkpt lat="44.32228" lon="3.52">
        <ele>886</ele>
        <time>2017-03-02T08:53:51Z</time>
      </trkpt>
      <trkpt lat="44.32228" lon="3.51994">
        <ele>886</ele>
        <time>2017-03-02T08:55:51Z</time>
      </trkpt>
      <trkpt lat="44.32226" lon="3.51988">
        <ele>885</ele>
        <time>2017-03-02T08:57:51Z</time>
      </trkpt>
      <trkpt lat="44.3222" lon="3.51966">
        <ele>884</ele>
        <time>2017-03-02T08:59:51Z</time>
      </trkpt>
      <trkpt lat="44.32218" lon="3.5196">
        <ele>884</ele>
        <time>2017-03-02T09:01:51Z</time>
      </trkpt>
      <trkpt lat="44.32216" lon="3.51958">
        <ele>883</ele>
        <time>2017-03-02T09:03:51Z</time>
      </trkpt>
      <trkpt lat="44.32213" lon="3.51957">
        <ele>883</ele>
        <time>2017-03-02T09:05:51Z</time>
      </trkpt>
      <trkpt lat="44.32209" lon="3.51955">
        <ele>883</ele>
        <time>2017-03-02T09:07:51Z</time>
      </trkpt>
      <trkpt lat="44.322" lon="3.51947">
        <ele>883</ele>
        <time>2017-03-02T09:09:51Z</time>
      </trkpt>
      <trkpt lat="44.32196" lon="3.51943">
        <ele>882</ele>
        <time>2017-03-02T09:11:51Z</time>
      </trkpt>
      <trkpt lat="44.32193" lon="3.51938">
        <ele>882</ele>
        <time>2017-03-02T09:13:51Z</time>
      </trkpt>
      <trkpt lat="44.32192" lon="3.51936">
        <ele>882</ele>
        <time>2017-03-02T09:15:51Z</time>
      </trkpt>
      <trkpt lat="44.32189" lon="3.51933">
        <ele>882</ele>
        <time>2017-03-02T09:17:51Z</time>
      </trkpt>
      <trkpt lat="44.32187" lon="3.5193">
        <ele>882</ele>
        <time>2017-03-02T09:19:51Z</time>
      </trkpt>
      <trkpt lat="44.32186" lon="3.51928">
        <ele>882</ele>
        <time>2017-03-02T09:21:51Z</time>
      </trkpt>
      <trkpt lat="44.32186" lon="3.5192">
        <ele>881</ele>
        <time>2017-03-02T09:23:51Z</time>
      </trkpt>
      <trkpt lat="44.32188" lon="3.51914">
        <ele>881</ele>
        <time>2017-03-02T09:25:51Z</time>
      </trkpt>
      <trkpt lat="44.32191" lon="3.5191">
        <ele>881</ele>
        <time>2017-03-02T09:27:51Z</time>
      </trkpt>
      <trkpt lat="44.32192" lon="3.51905">
        <ele>881</ele>
        <time>2017-03-02T09:29:51Z</time>
      </trkpt>
      <trkpt lat="44.32196" lon="3.5189">
        <ele>880</ele>
        <time>2017-03-02T09:31:51Z</time>
      </trkpt>
      <trkpt lat="44.32202" lon="3.51872">
        <ele>880</ele>
        <time>2017-03-02T09:33:51Z</time>
      </trkpt>
      <trkpt lat="44.32207" lon="3.51861">
        <ele>879</ele>
        <time>2017-03-02T09:35:51Z</time>
      </trkpt>
      <trkpt lat="44.32212" lon="3.5185">
        <ele>879</ele>
        <time>2017-03-02T09:37:51Z</time>
      </trkpt>
      <trkpt lat="44.32216" lon="3.51838">
        <ele>878</ele>
        <time>2017-03-02T09:39:51Z</time>
      </trkpt>
      <trkpt lat="44.32217" lon="3.5183">
        <ele>878</ele>
        <time>2017-03-02T09:41:51Z</time>
      </trkpt>
      <trkpt lat="44.3222" lon="3.5182">
        <ele>878</ele>
        <time>2017-03-02T09:43:51Z</time>
      </trkpt>
      <trkpt lat="44.32221" lon="3.51818">
        <ele>878</ele>
        <time>2017-03-02T09:45:51Z</time>
      </trkpt>
      <trkpt lat="44.32223" lon="3.51817">
        <ele>878</ele>
        <time>2017-03-02T09:47:51Z</time>
      </trkpt>
      <trkpt lat="44.32228" lon="3.51819">
        <ele>877</ele>
        <time>2017-03-02T09:49:51Z</time>
      </trkpt>
      <trkpt lat="44.32231" lon="3.51821">
        <ele>877</ele>
        <time>2017-03-02T09:51:51Z</time>
      </trkpt>
      <trkpt lat="44.32234" lon="3.51824">
        <ele>877</ele>
        <time>2017-03-02T09:53:51Z</time>
      </trkpt>
      <trkpt lat="44.32237" lon="3.51824">
        <ele>877</ele>
        <time>2017-03-02T09:55:51Z</time>
      </trkpt>
      <trkpt lat="44.3224" lon="3.51821">
        <ele>877</ele>
        <time>2017-03-02T09:57:51Z</time>
      </trkpt>
      <trkpt lat="44.32242" lon="3.51818">
        <ele>877</ele>
        <time>2017-03-02T09:59:51Z</time>
      </trkpt>
      <trkpt lat="44.32249" lon="3.51814">
        <ele>876</ele>
        <time>2017-03-02T10:01:51Z</time>
      </trkpt>
      <trkpt lat="44.32258" lon="3.51815">
        <ele>877</ele>
        <time>2017-03-02T10:03:51Z</time>
      </trkpt>
      <trkpt lat="44.32266" lon="3.51819">
        <ele>878</ele>
        <time>2017-03-02T10:05:51Z</time>
      </trkpt>
      <trkpt lat="44.32271" lon="3.51822">
        <ele>879</ele>
        <time>2017-03-02T10:07:51Z</time>
      </trkpt>
      <trkpt lat="44.32275" lon="3.5182">
        <ele>879</ele>
        <time>2017-03-02T10:09:51Z</time>
      </trkpt>
      <trkpt lat="44.32279" lon="3.51817">
        <ele>879</ele>
        <time>2017-03-02T10:11:51Z</time>
      </trkpt>
      <trkpt lat="44.32279" lon="3.51817">
        <ele>879</ele>
        <time>2017-03-02T10:13:51Z</time>
      </trkpt>
      <trkpt lat="44.32278" lon="3.51804">
        <ele>879</ele>
        <time>2017-03-02T10:15:51Z</time>
      </trkpt>
      <trkpt lat="44.32278" lon="3.51792">
        <ele>878</ele>
        <time>2017-03-02T10:17:51Z</time>
      </trkpt>
      <trkpt lat="44.32283" lon="3.51779">
        <ele>878</ele>
        <time>2017-03-02T10:19:51Z</time>
      </trkpt>
      <trkpt lat="44.3229" lon="3.51758">
        <ele>877</ele>
        <time>2017-03-02T10:21:51Z</time>
      </trkpt>
      <trkpt lat="44.32294" lon="3.51748">
        <ele>877</ele>
        <time>2017-03-02T10:23:51Z</time>
      </trkpt>
      <trkpt lat="44.32294" lon="3.51744">
        <ele>877</ele>
        <time>2017-03-02T10:25:51Z</time>
      </trkpt>
      <trkpt lat="44.32293" lon="3.51741">
        <ele>877</ele>
        <time>2017-03-02T10:27:51Z</time>
      </trkpt>
      <trkpt lat="44.3229" lon="3.51741">
        <ele>876</ele>
        <time>2017-03-02T10:29:51Z</time>
      </trkpt>
      <trkpt lat="44.32288" lon="3.51742">
        <ele>876</ele>
        <time>2017-03-02T10:31:51Z</time>
      </trkpt>
      <trkpt lat="44.32285" lon="3.51746">
        <ele>876</ele>
        <time>2017-03-02T10:33:51Z</time>
      </trkpt>
      <trkpt lat="44.32278" lon="3.51757">
        <ele>876</ele>
        <time>2017-03-02T10:35:51Z</time>
      </trkpt>
      <trkpt lat="44.32266" lon="3.5177">
        <ele>876</ele>
        <time>2017-03-02T10:37:51Z</time>
      </trkpt>
      <trkpt lat="44.32257" lon="3.51779">
        <ele>876</ele>
        <time>2017-03-02T10:39:51Z</time>
      </trkpt>
      <trkpt lat="44.3225" lon="3.51785">
        <ele>875</ele>
        <time>2017-03-02T10:41:51Z</time>
      </trkpt>
      <trkpt lat="44.32243" lon="3.5179">
        <ele>876</ele>
        <time>2017-03-02T10:43:51Z</time>
      </trkpt>
      <trkpt lat="44.32237" lon="3.51793">
        <ele>876</ele>
        <time>2017-03-02T10:45:51Z</time>
      </trkpt>
      <trkpt lat="44.32233" lon="3.51792">
        <ele>876</ele>
        <time>2017-03-02T10:47:51Z</time>
      </trkpt>
      <trkpt lat="44.32232" lon="3.51792">
        <ele>876</ele>
        <time>2017-03-02T10:49:51Z</time>
      </trkpt>
      <trkpt lat="44.32228" lon="3.5179">
        <ele>877</ele>
        <time>2017-03-02T10:51:51Z</time>
      </trkpt>
      <trkpt lat="44.32225" lon="3.51785">
        <ele>877</ele>
        <time>2017-03-02T10:53:51Z</time>
      </trkpt>
      <trkpt lat="44.32224" lon="3.5178">
        <ele>877</ele>
        <time>2017-03-02T10:55:51Z</time>
      </trkpt>
      <trkpt lat="44.32224" lon="3.51768">
        <ele>876</ele>
        <time>2017-03-02T10:57:51Z</time>
      </trkpt>
      <trkpt lat="44.32226" lon="3.51756">
        <ele>876</ele>
        <time>2017-03-02T10:59:51Z</time>
      </trkpt>
      <trkpt lat="44.32228" lon="3.51746">
        <ele>875</ele>
        <time>2017-03-02T11:01:51Z</time>
      </trkpt>
      <trkpt lat="44.32229" lon="3.51743">
        <ele>875</ele>
        <time>2017-03-02T11:03:51Z</time>
      </trkpt>
      <trkpt lat="44.32231" lon="3.51734">
        <ele>874</ele>
        <time>2017-03-02T11:05:51Z</time>
      </trkpt>
      <trkpt lat="44.32231" lon="3.51724">
        <ele>874</ele>
        <time>2017-03-02T11:07:51Z</time>
      </trkpt>
      <trkpt lat="44.32227" lon="3.51711">
        <ele>873</ele>
        <time>2017-03-02T11:09:51Z</time>
      </trkpt>
      <trkpt lat="44.32218" lon="3.51692">
        <ele>873</ele>
        <time>2017-03-02T11:11:51Z</time>
      </trkpt>
      <trkpt lat="44.32211" lon="3.51681">
        <ele>873</ele>
        <time>2017-03-02T11:13:51Z</time>
      </trkpt>
      <trkpt lat="44.32204" lon="3.51675">
        <ele>873</ele>
        <time>2017-03-02T11:15:51Z</time>
      </trkpt>
      <trkpt lat="44.32187" lon="3.51667">
        <ele>874</ele>
        <time>2017-03-02T11:17:51Z</time>
      </trkpt>
      <trkpt lat="44.32171" lon="3.51664">
        <ele>875</ele>
        <time>2017-03-02T11:19:51Z</time>
      </trkpt>
      <trkpt lat="44.32155" lon="3.51665">
        <ele>876</ele>
        <time>2017-03-02T11:21:51Z</time>
      </trkpt>
      <trkpt lat="44.32148" lon="3.51664">
        <ele>877</ele>
        <time>2017-03-02T11:23:51Z</time>
      </trkpt>
      <trkpt lat="44.32142" lon="3.51661">
        <ele>877</ele>
        <time>2017-03-02T11:25:51Z</time>
      </trkpt>
      <trkpt lat="44.32134" lon="3.51652">
        <ele>878</ele>
        <time>2017-03-02T11:27:51Z</time>
      </trkpt>
      <trkpt lat="44.32129" lon="3.51645">
        <ele>878</ele>
        <time>2017-03-02T11:29:51Z</time>
      </trkpt>
      <trkpt lat="44.32122" lon="3.51637">
        <ele>879</ele>
        <time>2017-03-02T11:31:51Z</time>
      </trkpt>
      <trkpt lat="44.32118" lon="3.51631">
        <ele>879</ele>
        <time>2017-03-02T11:33:51Z</time>
      </trkpt>
      <trkpt lat="44.32112" lon="3.51628">
        <ele>880</ele>
        <time>2017-03-02T11:35:51Z</time>
      </trkpt>
      <trkpt lat="44.32109" lon="3.51624">
        <ele>880</ele>
        <time>2017-03-02T11:37:51Z</time>
      </trkpt>
      <trkpt lat="44.32108" lon="3.51623">
        <ele>880</ele>
        <time>2017-03-02T11:39:51Z</time>
      </trkpt>
      <trkpt lat="44.32108" lon="3.51621">
        <ele>880</ele>
        <time>2017-03-02T11:41:51Z</time>
      </trkpt>
      <trkpt lat="44.32108" lon="3.51615">
        <ele>880</ele>
        <time>2017-03-02T11:43:51Z</time>
      </trkpt>
      <trkpt lat="44.32109" lon="3.5161">
        <ele>880</ele>
        <time>2017-03-02T11:45:51Z</time>
      </trkpt>
      <trkpt lat="44.32113" lon="3.51606">
        <ele>880</ele>
        <time>2017-03-02T11:47:51Z</time>
      </trkpt>
      <trkpt lat="44.3212" lon="3.51602">
        <ele>880</ele>
        <time>2017-03-02T11:49:51Z</time>
      </trkpt>
      <trkpt lat="44.32142" lon="3.51592">
        <ele>878</ele>
        <time>2017-03-02T11:51:51Z</time>
      </trkpt>
      <trkpt lat="44.32169" lon="3.5158">
        <ele>877</ele>
        <time>2017-03-02T11:53:51Z</time>
      </trkpt>
      <trkpt lat="44.32187" lon="3.51569">
        <ele>876</ele>
        <time>2017-03-02T11:55:51Z</time>
      </trkpt>
      <trkpt lat="44.32197" lon="3.51564">
        <ele>875</ele>
        <time>2017-03-02T11:57:51Z</time>
      </trkpt>
      <trkpt lat="44.32203" lon="3.51557">
        <ele>874</ele>
        <time>2017-03-02T11:59:51Z</time>
      </trkpt>
      <trkpt lat="44.3221" lon="3.51544">
        <ele>874</ele>
        <time>2017-03-02T12:01:51Z</time>
      </trkpt>
      <trkpt lat="44.32218" lon="3.51527">
        <ele>874</ele>
        <time>2017-03-02T12:03:51Z</time>
      </trkpt>
      <trkpt lat="44.32224" lon="3.51505">
        <ele>874</ele>
        <time>2017-03-02T12:05:51Z</time>
      </trkpt>
      <trkpt lat="44.3223" lon="3.51481">
        <ele>875</ele>
        <time>2017-03-02T12:07:51Z</time>
      </trkpt>
      <trkpt lat="44.32239" lon="3.51444">
        <ele>878</ele>
        <time>2017-03-02T12:09:51Z</time>
      </trkpt>
      <trkpt lat="44.32248" lon="3.51408">
        <ele>880</ele>
        <time>2017-03-02T12:11:51Z</time>
      </trkpt>
      <trkpt lat="44.32256" lon="3.51373">
        <ele>880</ele>
        <time>2017-03-02T12:13:51Z</time>
      </trkpt>
      <trkpt lat="44.32262" lon="3.51343">
        <ele>881</ele>
        <time>2017-03-02T12:15:51Z</time>
      </trkpt>
      <trkpt lat="44.32263" lon="3.51327">
        <ele>882</ele>
        <time>2017-03-02T12:17:51Z</time>
      </trkpt>
      <trkpt lat="44.32263" lon="3.51303">
        <ele>882</ele>
        <time>2017-03-02T12:19:51Z</time>
      </trkpt>
      <trkpt lat="44.32259" lon="3.51276">
        <ele>884</ele>
        <time>2017-03-02T12:21:51Z</time>
      </trkpt>
      <trkpt lat="44.32257" lon="3.5125">
        <ele>885</ele>
        <time>2017-03-02T12:23:51Z</time>
      </trkpt>
      <trkpt lat="44.32256" lon="3.51234">
        <ele>885</ele>
        <time>2017-03-02T12:25:51Z</time>
      </trkpt>
      <trkpt lat="44.32255" lon="3.51222">
        <ele>884</ele>
        <time>2017-03-02T12:27:51Z</time>
      </trkpt>
      <trkpt lat="44.32251" lon="3.51208">
        <ele>885</ele>
        <time>2017-03-02T12:29:51Z</time>
      </trkpt>
      <trkpt lat="44.32244" lon="3.51191">
        <ele>886</ele>
        <time>2017-03-02T12:31:51Z</time>
      </trkpt>
      <trkpt lat="44.3224" lon="3.51178">
        <ele>886</ele>
        <time>2017-03-02T12:33:51Z</time>
      </trkpt>
      <trkpt lat="44.32238" lon="3.51165">
        <ele>886</ele>
        <time>2017-03-02T12:35:51Z</time>
      </trkpt>
      <trkpt lat="44.32235" lon="3.51148">
        <ele>884</ele>
        <time>2017-03-02T12:37:51Z</time>
      </trkpt>
      <trkpt lat="44.32234" lon="3.51129">
        <ele>882</ele>
        <time>2017-03-02T12:39:51Z</time>
      </trkpt>
      <trkpt lat="44.32232" lon="3.51114">
        <ele>881</ele>
        <time>2017-03-02T12:41:51Z</time>
      </trkpt>
      <trkpt lat="44.32226" lon="3.5109">
        <ele>880</ele>
        <time>2017-03-02T12:43:51Z</time>
      </trkpt>
      <trkpt lat="44.3222" lon="3.51075">
        <ele>879</ele>
        <time>2017-03-02T12:45:51Z</time>
      </trkpt>
      <trkpt lat="44.3221" lon="3.51054">
        <ele>880</ele>
        <time>2017-03-02T12:47:51Z</time>
      </trkpt>
      <trkpt lat="44.32206" lon="3.51044">
        <ele>879</ele>
        <time>2017-03-02T12:49:51Z</time>
      </trkpt>
      <trkpt lat="44.32204" lon="3.5103">
        <ele>878</ele>
        <time>2017-03-02T12:51:51Z</time>
      </trkpt>
      <trkpt lat="44.32202" lon="3.51004">
        <ele>876</ele>
        <time>2017-03-02T12:53:51Z</time>
      </trkpt>
      <trkpt lat="44.32202" lon="3.50984">
        <ele>874</ele>
        <time>2017-03-02T12:55:51Z</time>
      </trkpt>
      <trkpt lat="44.32203" lon="3.50962">
        <ele>872</ele>
        <time>2017-03-02T12:57:51Z</time>
      </trkpt>
      <trkpt lat="44.32204" lon="3.50939">
        <ele>870</ele>
        <time>2017-03-02T12:59:51Z</time>
      </trkpt>
      <trkpt lat="44.32203" lon="3.50926">
        <ele>870</ele>
        <time>2017-03-02T13:01:51Z</time>
      </trkpt>
      <trkpt lat="44.32201" lon="3.50919">
        <ele>869</ele>
        <time>2017-03-02T13:03:51Z</time>
      </trkpt>
      <trkpt lat="44.32198" lon="3.50907">
        <ele>870</ele>
        <time>2017-03-02T13:05:51Z</time>
      </trkpt>
      <trkpt lat="44.32194" lon="3.50892">
        <ele>871</ele>
        <time>2017-03-02T13:07:51Z</time>
      </trkpt>
      <trkpt lat="44.32189" lon="3.50884">
        <ele>872</ele>
        <time>2017-03-02T13:09:51Z</time>
      </trkpt>
      <trkpt lat="44.32188" lon="3.50881">
        <ele>872</ele>
        <time>2017-03-02T13:11:51Z</time>
      </trkpt>
      <trkpt lat="44.32188" lon="3.5088">
        <ele>872</ele>
        <time>2017-03-02T13:13:51Z</time>
      </trkpt>
      <trkpt lat="44.32188" lon="3.50876">
        <ele>872</ele>
        <time>2017-03-02T13:15:51Z</time>
      </trkpt>
      <trkpt lat="44.3219" lon="3.50868">
        <ele>872</ele>
        <time>2017-03-02T13:17:51Z</time>
      </trkpt>
      <trkpt lat="44.32191" lon="3.5086">
        <ele>873</ele>
        <time>2017-03-02T13:19:51Z</time>
      </trkpt>
      <trkpt lat="44.3219" lon="3.50849">
        <ele>873</ele>
        <time>2017-03-02T13:21:51Z</time>
      </trkpt>
      <trkpt lat="44.32191" lon="3.5084">
        <ele>874</ele>
        <time>2017-03-02T13:23:51Z</time>
      </trkpt>
      <trkpt lat="44.32193" lon="3.50832">
        <ele>874</ele>
        <time>2017-03-02T13:25:51Z</time>
      </trkpt>
      <trkpt lat="44.32198" lon="3.50817">
        <ele>876</ele>
        <time>2017-03-02T13:27:51Z</time>
      </trkpt>
      <trkpt lat="44.32202" lon="3.50797">
        <ele>877</ele>
        <time>2017-03-02T13:29:51Z</time>
      </trkpt>
      <trkpt lat="44.32205" lon="3.50778">
        <ele>879</ele>
        <time>2017-03-02T13:31:51Z</time>
      </trkpt>
      <trkpt lat="44.32208" lon="3.50765">
        <ele>881</ele>
        <time>2017-03-02T13:33:51Z</time>
      </trkpt>
      <trkpt lat="44.32209" lon="3.50757">
        <ele>882</ele>
        <time>2017-03-02T13:35:51Z</time>
      </trkpt>
      <trkpt lat="44.32209" lon="3.50739">
        <ele>884</ele>
        <time>2017-03-02T13:37:51Z</time>
      </trkpt>
      <trkpt lat="44.32211" lon="3.50713">
        <ele>886</ele>
        <time>2017-03-02T13:39:51Z</time>
      </trkpt>
      <trkpt lat="44.32213" lon="3.50685">
        <ele>889</ele>
        <time>2017-03-02T13:41:51Z</time>
      </trkpt>
      <trkpt lat="44.32213" lon="3.50663">
        <ele>891</ele>
        <time>2017-03-02T13:43:51Z</time>
      </trkpt>
      <trkpt lat="44.32215" lon="3.50636">
        <ele>895</ele>
        <time>2017-03-02T13:45:51Z</time>
      </trkpt>
      <trkpt lat="44.32217" lon="3.5061">
        <ele>899</ele>
        <time>2017-03-02T13:47:51Z</time>
      </trkpt>
      <trkpt lat="44.32219" lon="3.50584">
        <ele>902</ele>
        <time>2017-03-02T13:49:51Z</time>
      </trkpt>
      <trkpt lat="44.3222" lon="3.50564">
        <ele>905</ele>
        <time>2017-03-02T13:51:51Z</time>
      </trkpt>
      <trkpt lat="44.32222" lon="3.50547">
        <ele>908</ele>
        <time>2017-03-02T13:53:51Z</time>
      </trkpt>
      <trkpt lat="44.32225" lon="3.50522">
        <ele>912</ele>
        <time>2017-03-02T13:55:51Z</time>
      </trkpt>
      <trkpt lat="44.32225" lon="3.50516">
        <ele>913</ele>
        <time>2017-03-02T13:57:51Z</time>
      </trkpt>
      <trkpt lat="44.32226" lon="3.50498">
        <ele>915</ele>
        <time>2017-03-02T13:59:51Z</time>
      </trkpt>
      <trkpt lat="44.32226" lon="3.50476">
        <ele>918</ele>
        <time>2017-03-02T14:01:51Z</time>
      </trkpt>
      <trkpt lat="44.32227" lon="3.50453">
        <ele>922</ele>
        <time>2017-03-02T14:03:51Z</time>
      </trkpt>
      <trkpt lat="44.32228" lon="3.50434">
        <ele>924</ele>
        <time>2017-03-02T14:05:51Z</time>
      </trkpt>
      <trkpt lat="44.32227" lon="3.50417">
        <ele>927</ele>
        <time>2017-03-02T14:07:51Z</time>
      </trkpt>
      <trkpt lat="44.32226" lon="3.50396">
        <ele>929</ele>
        <time>2017-03-02T14:09:51Z</time>
      </trkpt>
      <trkpt lat="44.32224" lon="3.50382">
        <ele>931</ele>
        <time>2017-03-02T14:11:51Z</time>
      </trkpt>
      <trkpt lat="44.32221" lon="3.50368">
        <ele>933</ele>
        <time>2017-03-02T14:13:51Z</time>
      </trkpt>
      <trkpt lat="44.32216" lon="3.50354">
        <ele>935</ele>
        <time>2017-03-02T14:15:51Z</time>
      </trkpt>
      <trkpt lat="44.3221" lon="3.50341">
        <ele>937</ele>
        <time>2017-03-02T14:17:51Z</time>
      </trkpt>
      <trkpt lat="44.32203" lon="3.50333">
        <ele>939</ele>
        <time>2017-03-02T14:19:51Z</time>
      </trkpt>
      <trkpt lat="44.32198" lon="3.50324">
        <ele>941</ele>
        <time>2017-03-02T14:21:51Z</time>
      </trkpt>
      <trkpt lat="44.32193" lon="3.50308">
        <ele>944</ele>
        <time>2017-03-02T14:23:51Z</time>
      </trkpt>
      <trkpt lat="44.32187" lon="3.50287">
        <ele>947</ele>
        <time>2017-03-02T14:25:51Z</time>
      </trkpt>
      <trkpt lat="44.3218" lon="3.50265">
        <ele>950</ele>
        <time>2017-03-02T14:27:51Z</time>
      </trkpt>
      <trkpt lat="44.32176" lon="3.50254">
        <ele>951</ele>
        <time>2017-03-02T14:29:51Z</time>
      </trkpt>
      <trkpt lat="44.32175" lon="3.50245">
        <ele>953</ele>
        <time>2017-03-02T14:31:51Z</time>
      </trkpt>
      <trkpt lat="44.32175" lon="3.5024">
        <ele>953</ele>
        <time>2017-03-02T14:33:51Z</time>
      </trkpt>
      <trkpt lat="44.32177" lon="3.50236">
        <ele>954</ele>
        <time>2017-03-02T14:35:51Z</time>
      </trkpt>
      <trkpt lat="44.32179" lon="3.50231">
        <ele>954</ele>
        <time>2017-03-02T14:37:51Z</time>
      </trkpt>
      <trkpt lat="44.32181" lon="3.50224">
        <ele>955</ele>
        <time>2017-03-02T14:39:51Z</time>
      </trkpt>
      <trkpt lat="44.32186" lon="3.502">
        <ele>958</ele>
        <time>2017-03-02T14:41:51Z</time>
      </trkpt>
      <trkpt lat="44.32192" lon="3.50169">
        <ele>962</ele>
        <time>2017-03-02T14:43:51Z</time>
      </trkpt>
      <trkpt lat="44.32195" lon="3.50151">
        <ele>963</ele>
        <time>2017-03-02T14:45:51Z</time>
      </trkpt>
      <trkpt lat="44.32199" lon="3.50135">
        <ele>963</ele>
        <time>2017-03-02T14:47:51Z</time>
      </trkpt>
      <trkpt lat="44.32202" lon="3.50126">
        <ele>964</ele>
        <time>2017-03-02T14:49:51Z</time>
      </trkpt>
      <trkpt lat="44.32202" lon="3.50117">
        <ele>964</ele>
        <time>2017-03-02T14:51:51Z</time>
      </trkpt>
      <trkpt lat="44.32203" lon="3.501">
        <ele>965</ele>
        <time>2017-03-02T14:53:51Z</time>
      </trkpt>
      <trkpt lat="44.32204" lon="3.50073">
        <ele>966</ele>
        <time>2017-03-02T14:55:51Z</time>
      </trkpt>
      <trkpt lat="44.32204" lon="3.5005">
        <ele>965</ele>
        <time>2017-03-02T14:57:51Z</time>
      </trkpt>
      <trkpt lat="44.32204" lon="3.50028">
        <ele>965</ele>
        <time>2017-03-02T14:59:51Z</time>
      </trkpt>
      <trkpt lat="44.32204" lon="3.49997">
        <ele>964</ele>
        <time>2017-03-02T15:01:51Z</time>
      </trkpt>
      <trkpt lat="44.32205" lon="3.49982">
        <ele>963</ele>
        <time>2017-03-02T15:03:51Z</time>
      </trkpt>
      <trkpt lat="44.32206" lon="3.49968">
        <ele>963</ele>
        <time>2017-03-02T15:05:51Z</time>
      </trkpt>
      <trkpt lat="44.32206" lon="3.49955">
        <ele>962</ele>
        <time>2017-03-02T15:07:51Z</time>
      </trkpt>
      <trkpt lat="44.32205" lon="3.49944">
        <ele>962</ele>
        <time>2017-03-02T15:09:51Z</time>
      </trkpt>
      <trkpt lat="44.32202" lon="3.49922">
        <ele>961</ele>
        <time>2017-03-02T15:11:51Z</time>
      </trkpt>
      <trkpt lat="44.32197" lon="3.49898">
        <ele>960</ele>
        <time>2017-03-02T15:13:51Z</time>
      </trkpt>
      <trkpt lat="44.32195" lon="3.49885">
        <ele>960</ele>
        <time>2017-03-02T15:15:51Z</time>
      </trkpt>
      <trkpt lat="44.32194" lon="3.49871">
        <ele>960</ele>
        <time>2017-03-02T15:17:51Z</time>
      </trkpt>
      <trkpt lat="44.32194" lon="3.49852">
        <ele>959</ele>
        <time>2017-03-02T15:19:51Z</time>
      </trkpt>
      <trkpt lat="44.32194" lon="3.49833">
        <ele>958</ele>
        <time>2017-03-02T15:21:51Z</time>
      </trkpt>
      <trkpt lat="44.32193" lon="3.49798">
        <ele>958</ele>
        <time>2017-03-02T15:23:51Z</time>
      </trkpt>
      <trkpt lat="44.32191" lon="3.49776">
        <ele>957</ele>
        <time>2017-03-02T15:25:51Z</time>
      </trkpt>
      <trkpt lat="44.32191" lon="3.49766">
        <ele>957</ele>
        <time>2017-03-02T15:27:51Z</time>
      </trkpt>
      <trkpt lat="44.32192" lon="3.49757">
        <ele>957</ele>
        <time>2017-03-02T15:29:51Z</time>
      </trkpt>
      <trkpt lat="44.32196" lon="3.49741">
        <ele>956</ele>
        <time>2017-03-02T15:31:51Z</time>
      </trkpt>
      <trkpt lat="44.32198" lon="3.49729">
        <ele>956</ele>
        <time>2017-03-02T15:33:51Z</time>
      </trkpt>
      <trkpt lat="44.322" lon="3.49712">
        <ele>955</ele>
        <time>2017-03-02T15:35:51Z</time>
      </trkpt>
      <trkpt lat="44.32201" lon="3.49691">
        <ele>955</ele>
        <time>2017-03-02T15:37:51Z</time>
      </trkpt>
      <trkpt lat="44.32203" lon="3.49677">
        <ele>954</ele>
        <time>2017-03-02T15:39:51Z</time>
      </trkpt>
      <trkpt lat="44.32205" lon="3.49668">
        <ele>954</ele>
        <time>2017-03-02T15:41:51Z</time>
      </trkpt>
      <trkpt lat="44.32208" lon="3.49658">
        <ele>953</ele>
        <time>2017-03-02T15:43:51Z</time>
      </trkpt>
      <trkpt lat="44.32215" lon="3.49644">
        <ele>953</ele>
        <time>2017-03-02T15:45:51Z</time>
      </trkpt>
      <trkpt lat="44.3222" lon="3.49629">
        <ele>952</ele>
        <time>2017-03-02T15:47:51Z</time>
      </trkpt>
      <trkpt lat="44.32223" lon="3.49618">
        <ele>951</ele>
        <time>2017-03-02T15:49:51Z</time>
      </trkpt>
      <trkpt lat="44.32224" lon="3.4961">
        <ele>950</ele>
        <time>2017-03-02T15:51:51Z</time>
      </trkpt>
      <trkpt lat="44.32226" lon="3.49597">
        <ele>949</ele>
        <time>2017-03-02T15:53:51Z</time>
      </trkpt>
      <trkpt lat="44.32228" lon="3.49587">
        <ele>949</ele>
        <time>2017-03-02T15:55:51Z</time>
      </trkpt>
      <trkpt lat="44.3223" lon="3.49582">
        <ele>948</ele>
        <time>2017-03-02T15:57:51Z</time>
      </trkpt>
      <trkpt lat="44.32238" lon="3.49568">
        <ele>948</ele>
        <time>2017-03-02T15:59:51Z</time>
      </trkpt>
      <trkpt lat="44.32249" lon="3.49552">
        <ele>947</ele>
        <time>2017-03-02T16:01:51Z</time>
      </trkpt>
      <trkpt lat="44.32257" lon="3.49538">
        <ele>947</ele>
        <time>2017-03-02T16:03:51Z</time>
      </trkpt>
      <trkpt lat="44.32264" lon="3.49524">
        <ele>946</ele>
        <time>2017-03-02T16:05:51Z</time>
      </trkpt>
      <trkpt lat="44.32266" lon="3.49515">
        <ele>945</ele>
        <time>2017-03-02T16:07:51Z</time>
      </trkpt>
      <trkpt lat="44.32266" lon="3.49505">
        <ele>945</ele>
        <time>2017-03-02T16:09:51Z</time>
      </trkpt>
      <trkpt lat="44.32265" lon="3.4949">
        <ele>944</ele>
        <time>2017-03-02T16:11:51Z</time>
      </trkpt>
      <trkpt lat="44.32266" lon="3.49472">
        <ele>943</ele>
        <time>2017-03-02T16:13:51Z</time>
      </trkpt>
      <trkpt lat="44.32266" lon="3.49454">
        <ele>942</ele>
        <time>2017-03-02T16:15:51Z</time>
      </trkpt>
      <trkpt lat="44.32267" lon="3.49445">
        <ele>942</ele>
        <time>2017-03-02T16:17:51Z</time>
      </trkpt>
      <trkpt lat="44.32267" lon="3.49443">
        <ele>942</ele>
        <time>2017-03-02T16:19:51Z</time>
      </trkpt>
      <trkpt lat="44.32268" lon="3.49427">
        <ele>941</ele>
        <time>2017-03-02T16:21:51Z</time>
      </trkpt>
      <trkpt lat="44.32271" lon="3.49415">
        <ele>941</ele>
        <time>2017-03-02T16:23:51Z</time>
      </trkpt>
      <trkpt lat="44.32275" lon="3.49399">
        <ele>940</ele>
        <time>2017-03-02T16:25:51Z</time>
      </trkpt>
      <trkpt lat="44.32281" lon="3.49374">
        <ele>938</ele>
        <time>2017-03-02T16:27:51Z</time>
      </trkpt>
      <trkpt lat="44.32289" lon="3.49348">
        <ele>936</ele>
        <time>2017-03-02T16:29:51Z</time>
      </trkpt>
      <trkpt lat="44.32295" lon="3.49331">
        <ele>935</ele>
        <time>2017-03-02T16:31:51Z</time>
      </trkpt>
      <trkpt lat="44.32298" lon="3.4932">
        <ele>934</ele>
        <time>2017-03-02T16:33:51Z</time>
      </trkpt>
      <trkpt lat="44.323" lon="3.4931">
        <ele>934</ele>
        <time>2017-03-02T16:35:51Z</time>
      </trkpt>
      <trkpt lat="44.32302" lon="3.49293">
        <ele>933</ele>
        <time>2017-03-02T16:37:51Z</time>
      </trkpt>
      <trkpt lat="44.32302" lon="3.49292">
        <ele>933</ele>
        <time>2017-03-02T16:39:51Z</time>
      </trkpt>
      <trkpt lat="44.32304" lon="3.49277">
        <ele>933</ele>
        <time>2017-03-02T16:41:51Z</time>
      </trkpt>
      <trkpt lat="44.32308" lon="3.49257">
        <ele>932</ele>
        <time>2017-03-02T16:43:51Z</time>
      </trkpt>
      <trkpt lat="44.32311" lon="3.49237">
        <ele>932</ele>
        <time>2017-03-02T16:45:51Z</time>
      </trkpt>
      <trkpt lat="44.32314" lon="3.49228">
        <ele>931</ele>
        <time>2017-03-02T16:47:51Z</time>
      </trkpt>
      <trkpt lat="44.32317" lon="3.49221">
        <ele>931</ele>
        <time>2017-03-02T16:49:51Z</time>
      </trkpt>
      <trkpt lat="44.32324" lon="3.4921">
        <ele>931</ele>
        <time>2017-03-02T16:51:51Z</time>
      </trkpt>
      <trkpt lat="44.32333" lon="3.49199">
        <ele>930</ele>
        <time>2017-03-02T16:53:51Z</time>
      </trkpt>
      <trkpt lat="44.32338" lon="3.49191">
        <ele>930</ele>
        <time>2017-03-02T16:55:51Z</time>
      </trkpt>
      <trkpt lat="44.32344" lon="3.49182">
        <ele>929</ele>
        <time>2017-03-02T16:57:51Z</time>
      </trkpt>
      <trkpt lat="44.32352" lon="3.49166">
        <ele>929</ele>
        <time>2017-03-02T16:59:51Z</time>
      </trkpt>
      <trkpt lat="44.32359" lon="3.49155">
        <ele>928</ele>
        <time>2017-03-02T17:01:51Z</time>
      </trkpt>
      <trkpt lat="44.32367" lon="3.49146">
        <ele>927</ele>
        <time>2017-03-02T17:03:51Z</time>
      </trkpt>
      <trkpt lat="44.3238" lon="3.49131">
        <ele>926</ele>
        <time>2017-03-02T17:05:51Z</time>
      </trkpt>
      <trkpt lat="44.32387" lon="3.49123">
        <ele>926</ele>
        <time>2017-03-02T17:07:51Z</time>
      </trkpt>
      <trkpt lat="44.32398" lon="3.49116">
        <ele>925</ele>
        <time>2017-03-02T17:09:51Z</time>
      </trkpt>
      <trkpt lat="44.32406" lon="3.49109">
        <ele>925</ele>
        <time>2017-03-02T17:11:51Z</time>
      </trkpt>
      <trkpt lat="44.32412" lon="3.49102">
        <ele>925</ele>
        <time>2017-03-02T17:13:51Z</time>
      </trkpt>
      <trkpt lat="44.32417" lon="3.49097">
        <ele>925</ele>
        <time>2017-03-02T17:15:51Z</time>
      </trkpt>
      <trkpt lat="44.32426" lon="3.49087">
        <ele>924</ele>
        <time>2017-03-02T17:17:51Z</time>
      </trkpt>
      <trkpt lat="44.32437" lon="3.49079">
        <ele>924</ele>
        <time>2017-03-02T17:19:51Z</time>
      </trkpt>
      <trkpt lat="44.32452" lon="3.49066">
        <ele>923</ele>
        <time>2017-03-02T17:21:51Z</time>
      </trkpt>
      <trkpt lat="44.32457" lon="3.49062">
        <ele>923</ele>
        <time>2017-03-02T17:23:51Z</time>
      </trkpt>
      <trkpt lat="44.32457" lon="3.49062">
        <ele>923</ele>
        <time>2017-03-02T17:25:51Z</time>
      </trkpt>
      <trkpt lat="44.32462" lon="3.49097">
        <ele>922</ele>
        <time>2017-03-02T17:27:51Z</time>
      </trkpt>
      <trkpt lat="44.32466" lon="3.49124">
        <ele>922</ele>
        <time>2017-03-02T17:29:51Z</time>
      </trkpt>
      <trkpt lat="44.32468" lon="3.49141">
        <ele>922</ele>
        <time>2017-03-02T17:31:51Z</time>
      </trkpt>
      <trkpt lat="44.3247" lon="3.4916">
        <ele>921</ele>
        <time>2017-03-02T17:33:51Z</time>
      </trkpt>
      <trkpt lat="44.32473" lon="3.49175">
        <ele>922</ele>
        <time>2017-03-02T17:35:51Z</time>
      </trkpt>
      <trkpt lat="44.32478" lon="3.49192">
        <ele>922</ele>
        <time>2017-03-02T17:37:51Z</time>
      </trkpt>
      <trkpt lat="44.32485" lon="3.49211">
        <ele>922</ele>
        <time>2017-03-02T17:39:51Z</time>
      </trkpt>
      <trkpt lat="44.32491" lon="3.49224">
        <ele>922</ele>
        <time>2017-03-02T17:41:51Z</time>
      </trkpt>
      <trkpt lat="44.32494" lon="3.49231">
        <ele>923</ele>
        <time>2017-03-02T17:43:51Z</time>
      </trkpt>
      <trkpt lat="44.32498" lon="3.49236">
        <ele>923</ele>
        <time>2017-03-02T17:45:51Z</time>
      </trkpt>
      <trkpt lat="44.32503" lon="3.49237">
        <ele>922</ele>
        <time>2017-03-02T17:47:51Z</time>
      </trkpt>
      <trkpt lat="44.32509" lon="3.49236">
        <ele>922</ele>
        <time>2017-03-02T17:49:51Z</time>
      </trkpt>
      <trkpt lat="44.32517" lon="3.4923">
        <ele>922</ele>
        <time>2017-03-02T17:51:51Z</time>
      </trkpt>
      <trkpt lat="44.32532" lon="3.49215">
        <ele>921</ele>
        <time>2017-03-02T17:53:51Z</time>
      </trkpt>
      <trkpt lat="44.32544" lon="3.49203">
        <ele>920</ele>
        <time>2017-03-02T17:55:51Z</time>
      </trkpt>
      <trkpt lat="44.32555" lon="3.49192">
        <ele>919</ele>
        <time>2017-03-02T17:57:51Z</time>
      </trkpt>
      <trkpt lat="44.32556" lon="3.49187">
        <ele>919</ele>
        <time>2017-03-02T17:59:51Z</time>
      </trkpt>
      <trkpt lat="44.32558" lon="3.49181">
        <ele>919</ele>
        <time>2017-03-02T18:01:51Z</time>
      </trkpt>
      <trkpt lat="44.32562" lon="3.49175">
        <ele>918</ele>
        <time>2017-03-02T18:03:51Z</time>
      </trkpt>
      <trkpt lat="44.32568" lon="3.49171">
        <ele>918</ele>
        <time>2017-03-02T18:05:51Z</time>
      </trkpt>
      <trkpt lat="44.32572" lon="3.49167">
        <ele>917</ele>
        <time>2017-03-02T18:07:51Z</time>
      </trkpt>
      <trkpt lat="44.32575" lon="3.49163">
        <ele>917</ele>
        <time>2017-03-02T18:09:51Z</time>
      </trkpt>
      <trkpt lat="44.32583" lon="3.49155">
        <ele>917</ele>
        <time>2017-03-02T18:11:51Z</time>
      </trkpt>
      <trkpt lat="44.32586" lon="3.49153">
        <ele>917</ele>
        <time>2017-03-02T18:13:51Z</time>
      </trkpt>
      <trkpt lat="44.32593" lon="3.49152">
        <ele>916</ele>
        <time>2017-03-02T18:15:51Z</time>
      </trkpt>
      <trkpt lat="44.32599" lon="3.49151">
        <ele>916</ele>
        <time>2017-03-02T18:17:51Z</time>
      </trkpt>
      <trkpt lat="44.32603" lon="3.4915">
        <ele>915</ele>
        <time>2017-03-02T18:19:51Z</time>
      </trkpt>
      <trkpt lat="44.32609" lon="3.49148">
        <ele>915</ele>
        <time>2017-03-02T18:21:51Z</time>
      </trkpt>
      <trkpt lat="44.32614" lon="3.49148">
        <ele>914</ele>
        <time>2017-03-02T18:23:51Z</time>
      </trkpt>
      <trkpt lat="44.32618" lon="3.49149">
        <ele>914</ele>
        <time>2017-03-02T18:25:51Z</time>
      </trkpt>
      <trkpt lat="44.32629" lon="3.49155">
        <ele>912</ele>
        <time>2017-03-02T18:27:51Z</time>
      </trkpt>
      <trkpt lat="44.32638" lon="3.4916">
        <ele>911</ele>
        <time>2017-03-02T18:29:51Z</time>
      </trkpt>
      <trkpt lat="44.32646" lon="3.49165">
        <ele>910</ele>
        <time>2017-03-02T18:31:51Z</time>
      </trkpt>
      <trkpt lat="44.32653" lon="3.49168">
        <ele>909</ele>
        <time>2017-03-02T18:33:51Z</time>
      </trkpt>
      <trkpt lat="44.32656" lon="3.49172">
        <ele>908</ele>
        <time>2017-03-02T18:35:51Z</time>
      </trkpt>
      <trkpt lat="44.32659" lon="3.4918">
        <ele>908</ele>
        <time>2017-03-02T18:37:51Z</time>
      </trkpt>
      <trkpt lat="44.32662" lon="3.49187">
        <ele>908</ele>
        <time>2017-03-02T18:39:51Z</time>
      </trkpt>
      <trkpt lat="44.32666" lon="3.49194">
        <ele>908</ele>
        <time>2017-03-02T18:41:51Z</time>
      </trkpt>
      <trkpt lat="44.32672" lon="3.49202">
        <ele>907</ele>
        <time>2017-03-02T18:43:51Z</time>
      </trkpt>
      <trkpt lat="44.32679" lon="3.49207">
        <ele>906</ele>
        <time>2017-03-02T18:45:51Z</time>
      </trkpt>
      <trkpt lat="44.32689" lon="3.49213">
        <ele>904</ele>
        <time>2017-03-02T18:47:51Z</time>
      </trkpt>
      <trkpt lat="44.32695" lon="3.49218">
        <ele>903</ele>
        <time>2017-03-02T18:49:51Z</time>
      </trkpt>
      <trkpt lat="44.32698" lon="3.49219">
        <ele>902</ele>
        <time>2017-03-02T18:51:51Z</time>
      </trkpt>
      <trkpt lat="44.32704" lon="3.49221">
        <ele>901</ele>
        <time>2017-03-02T18:53:51Z</time>
      </trkpt>
      <trkpt lat="44.32713" lon="3.49224">
        <ele>899</ele>
        <time>2017-03-02T18:55:51Z</time>
      </trkpt>
      <trkpt lat="44.32727" lon="3.49228">
        <ele>896</ele>
        <time>2017-03-02T18:57:51Z</time>
      </trkpt>
      <trkpt lat="44.3274" lon="3.49233">
        <ele>893</ele>
        <time>2017-03-02T18:59:51Z</time>
      </trkpt>
      <trkpt lat="44.32747" lon="3.49233">
        <ele>891</ele>
        <time>2017-03-02T19:01:51Z</time>
      </trkpt>
      <trkpt lat="44.32759" lon="3.49232">
        <ele>889</ele>
        <time>2017-03-02T19:03:51Z</time>
      </trkpt>
      <trkpt lat="44.32774" lon="3.49228">
        <ele>885</ele>
        <time>2017-03-02T19:05:51Z</time>
      </trkpt>
      <trkpt lat="44.32784" lon="3.49228">
        <ele>883</ele>
        <time>2017-03-02T19:07:51Z</time>
      </trkpt>
      <trkpt lat="44.32791" lon="3.49225">
        <ele>882</ele>
        <time>2017-03-02T19:09:51Z</time>
      </trkpt>
      <trkpt lat="44.32798" lon="3.49222">
        <ele>880</ele>
        <time>2017-03-02T19:11:51Z</time>
      </trkpt>
      <trkpt lat="44.32804" lon="3.4922">
        <ele>878</ele>
        <time>2017-03-02T19:13:51Z</time>
      </trkpt>
      <trkpt lat="44.3281" lon="3.49216">
        <ele>877</ele>
        <time>2017-03-02T19:15:51Z</time>
      </trkpt>
      <trkpt lat="44.32814" lon="3.49214">
        <ele>876</ele>
        <time>2017-03-02T19:17:51Z</time>
      </trkpt>
      <trkpt lat="44.32824" lon="3.49213">
        <ele>873</ele>
        <time>2017-03-02T19:19:51Z</time>
      </trkpt>
      <trkpt lat="44.32836" lon="3.49213">
        <ele>870</ele>
        <time>2017-03-02T19:21:51Z</time>
      </trkpt>
      <trkpt lat="44.32847" lon="3.49215">
        <ele>866</ele>
        <time>2017-03-02T19:23:51Z</time>
      </trkpt>
      <trkpt lat="44.32853" lon="3.49217">
        <ele>864</ele>
        <time>2017-03-02T19:25:51Z</time>
      </trkpt>
      <trkpt lat="44.32858" lon="3.49217">
        <ele>862</ele>
        <time>2017-03-02T19:27:51Z</time>
      </trkpt>
      <trkpt lat="44.32863" lon="3.49217">
        <ele>860</ele>
        <time>2017-03-02T19:29:51Z</time>
      </trkpt>
      <trkpt lat="44.32871" lon="3.49218">
        <ele>856</ele>
        <time>2017-03-02T19:31:51Z</time>
      </trkpt>
      <trkpt lat="44.32874" lon="3.4922">
        <ele>855</ele>
        <time>2017-03-02T19:33:51Z</time>
      </trkpt>
      <trkpt lat="44.32875" lon="3.49223">
        <ele>855</ele>
        <time>2017-03-02T19:35:51Z</time>
      </trkpt>
      <trkpt lat="44.32875" lon="3.49226">
        <ele>855</ele>
        <time>2017-03-02T19:37:51Z</time>
      </trkpt>
      <trkpt lat="44.32875" lon="3.49226">
        <ele>855</ele>
        <time>2017-03-02T19:39:51Z</time>
      </trkpt>
      <trkpt lat="44.32877" lon="3.49226">
        <ele>854</ele>
        <time>2017-03-02T19:41:51Z</time>
      </trkpt>
      <trkpt lat="44.32889" lon="3.49346">
        <ele>826</ele>
        <time>2017-03-02T19:43:51Z</time>
      </trkpt>
      <trkpt lat="44.32834" lon="3.4943">
        <ele>846</ele>
        <time>2017-03-02T19:45:51Z</time>
      </trkpt>
      <trkpt lat="44.32845" lon="3.49481">
        <ele>824</ele>
        <time>2017-03-02T19:47:51Z</time>
      </trkpt>
      <trkpt lat="44.32813" lon="3.49533">
        <ele>836</ele>
        <time>2017-03-02T19:49:51Z</time>
      </trkpt>
      <trkpt lat="44.32827" lon="3.49593">
        <ele>811</ele>
        <time>2017-03-02T19:51:51Z</time>
      </trkpt>
      <trkpt lat="44.32821" lon="3.4964">
        <ele>799</ele>
        <time>2017-03-02T19:53:51Z</time>
      </trkpt>
      <trkpt lat="44.32865" lon="3.49599">
        <ele>783</ele>
        <time>2017-03-02T19:55:51Z</time>
      </trkpt>
      <trkpt lat="44.32857" lon="3.4966">
        <ele>771</ele>
        <time>2017-03-02T19:57:51Z</time>
      </trkpt>
      <trkpt lat="44.32796" lon="3.49765">
        <ele>767</ele>
        <time>2017-03-02T19:59:51Z</time>
      </trkpt>
      <trkpt lat="44.3279" lon="3.49814">
        <ele>765</ele>
        <time>2017-03-02T20:01:51Z</time>
      </trkpt>
      <trkpt lat="44.32808" lon="3.49846">
        <ele>753</ele>
        <time>2017-03-02T20:03:51Z</time>
      </trkpt>
      <trkpt lat="44.32876" lon="3.49906">
        <ele>730</ele>
        <time>2017-03-02T20:05:51Z</time>
      </trkpt>
      <trkpt lat="44.32948" lon="3.49956">
        <ele>701</ele>
        <time>2017-03-02T20:07:51Z</time>
      </trkpt>
      <trkpt lat="44.32985" lon="3.50003">
        <ele>691</ele>
        <time>2017-03-02T20:09:51Z</time>
      </trkpt>
      <trkpt lat="44.3302" lon="3.50029">
        <ele>674</ele>
        <time>2017-03-02T20:11:51Z</time>
      </trkpt>
      <trkpt lat="44.32996" lon="3.50071">
        <ele>683</ele>
        <time>2017-03-02T20:13:51Z</time>
      </trkpt>
      <trkpt lat="44.33002" lon="3.50106">
        <ele>686</ele>
        <time>2017-03-02T20:15:51Z</time>
      </trkpt>
      <trkpt lat="44.33051" lon="3.50138">
        <ele>673</ele>
        <time>2017-03-02T20:17:51Z</time>
      </trkpt>
      <trkpt lat="44.3316" lon="3.50198">
        <ele>644</ele>
        <time>2017-03-02T20:19:51Z</time>
      </trkpt>
      <trkpt lat="44.3325" lon="3.50228">
        <ele>621</ele>
        <time>2017-03-02T20:21:51Z</time>
      </trkpt>
      <trkpt lat="44.33284" lon="3.50267">
        <ele>613</ele>
        <time>2017-03-02T20:23:51Z</time>
      </trkpt>
      <trkpt lat="44.3331" lon="3.50391">
        <ele>579</ele>
        <time>2017-03-02T20:25:51Z</time>
      </trkpt>
      <trkpt lat="44.33263" lon="3.50445">
        <ele>578</ele>
        <time>2017-03-02T20:27:51Z</time>
      </trkpt>
      <trkpt lat="44.3324" lon="3.50488">
        <ele>577</ele>
        <time>2017-03-02T20:29:51Z</time>
      </trkpt>
      <trkpt lat="44.33281" lon="3.50501">
        <ele>571</ele>
        <time>2017-03-02T20:31:51Z</time>
      </trkpt>
      <trkpt lat="44.33306" lon="3.50483">
        <ele>571</ele>
        <time>2017-03-02T20:33:51Z</time>
      </trkpt>
      <trkpt lat="44.33336" lon="3.50479">
        <ele>570</ele>
        <time>2017-03-02T20:35:51Z</time>
      </trkpt>
      <trkpt lat="44.33395" lon="3.50563">
        <ele>581</ele>
        <time>2017-03-02T20:37:51Z</time>
      </trkpt>
      <trkpt lat="44.33416" lon="3.50593">
        <ele>585</ele>
        <time>2017-03-02T20:39:51Z</time>
      </trkpt>
      <trkpt lat="44.33416" lon="3.50589">
        <ele>583</ele>
        <time>2017-03-02T20:41:51Z</time>
      </trkpt>
      <trkpt lat="44.33417" lon="3.50588">
        <ele>583</ele>
        <time>2017-03-02T20:43:51Z</time>
      </trkpt>
      <trkpt lat="44.33419" lon="3.50587">
        <ele>583</ele>
        <time>2017-03-02T20:45:51Z</time>
      </trkpt>
      <trkpt lat="44.3342" lon="3.50584">
        <ele>582</ele>
        <time>2017-03-02T20:47:51Z</time>
      </trkpt>
      <trkpt lat="44.33423" lon="3.5058">
        <ele>582</ele>
        <time>2017-03-02T20:49:51Z</time>
      </trkpt>
      <trkpt lat="44.33426" lon="3.50576">
        <ele>581</ele>
        <time>2017-03-02T20:51:51Z</time>
      </trkpt>
      <trkpt lat="44.33429" lon="3.50573">
        <ele>581</ele>
        <time>2017-03-02T20:53:51Z</time>
      </trkpt>
      <trkpt lat="44.33435" lon="3.50567">
        <ele>580</ele>
        <time>2017-03-02T20:55:51Z</time>
      </trkpt>
      <trkpt lat="44.33439" lon="3.50563">
        <ele>579</ele>
        <time>2017-03-02T20:57:51Z</time>
      </trkpt>
      <trkpt lat="44.33444" lon="3.50558">
        <ele>579</ele>
        <time>2017-03-02T20:59:51Z</time>
      </trkpt>
      <trkpt lat="44.33449" lon="3.50554">
        <ele>578</ele>
        <time>2017-03-02T21:01:51Z</time>
      </trkpt>
      <trkpt lat="44.33454" lon="3.50552">
        <ele>579</ele>
        <time>2017-03-02T21:03:51Z</time>
      </trkpt>
      <trkpt lat="44.33457" lon="3.5055">
        <ele>579</ele>
        <time>2017-03-02T21:05:51Z</time>
      </trkpt>
      <trkpt lat="44.33461" lon="3.50549">
        <ele>579</ele>
        <time>2017-03-02T21:07:51Z</time>
      </trkpt>
      <trkpt lat="44.33467" lon="3.50546">
        <ele>579</ele>
        <time>2017-03-02T21:09:51Z</time>
      </trkpt>
      <trkpt lat="44.33471" lon="3.50545">
        <ele>580</ele>
        <time>2017-03-02T21:11:51Z</time>
      </trkpt>
      <trkpt lat="44.33476" lon="3.50543">
        <ele>580</ele>
        <time>2017-03-02T21:13:51Z</time>
      </trkpt>
      <trkpt lat="44.3348" lon="3.50541">
        <ele>580</ele>
        <time>2017-03-02T21:15:51Z</time>
      </trkpt>
      <trkpt lat="44.33491" lon="3.50533">
        <ele>579</ele>
        <time>2017-03-02T21:17:51Z</time>
      </trkpt>
      <trkpt lat="44.33503" lon="3.50524">
        <ele>577</ele>
        <time>2017-03-02T21:19:51Z</time>
      </trkpt>
      <trkpt lat="44.33506" lon="3.50521">
        <ele>576</ele>
        <time>2017-03-02T21:21:51Z</time>
      </trkpt>
      <trkpt lat="44.33509" lon="3.50518">
        <ele>575</ele>
        <time>2017-03-02T21:23:51Z</time>
      </trkpt>
      <trkpt lat="44.33516" lon="3.5051">
        <ele>573</ele>
        <time>2017-03-02T21:25:51Z</time>
      </trkpt>
      <trkpt lat="44.33518" lon="3.50506">
        <ele>572</ele>
        <time>2017-03-02T21:27:51Z</time>
      </trkpt>
      <trkpt lat="44.33521" lon="3.50503">
        <ele>572</ele>
        <time>2017-03-02T21:29:51Z</time>
      </trkpt>
      <trkpt lat="44.33527" lon="3.50491">
        <ele>570</ele>
        <time>2017-03-02T21:31:51Z</time>
      </trkpt>
      <trkpt lat="44.33529" lon="3.50488">
        <ele>569</ele>
        <time>2017-03-02T21:33:51Z</time>
      </trkpt>
      <trkpt lat="44.3353" lon="3.50486">
        <ele>569</ele>
        <time>2017-03-02T21:35:51Z</time>
      </trkpt>
      <trkpt lat="44.33532" lon="3.50482">
        <ele>569</ele>
        <time>2017-03-02T21:37:51Z</time>
      </trkpt>
      <trkpt lat="44.33535" lon="3.5048">
        <ele>569</ele>
        <time>2017-03-02T21:39:51Z</time>
      </trkpt>
      <trkpt lat="44.33537" lon="3.50479">
        <ele>569</ele>
        <time>2017-03-02T21:41:51Z</time>
      </trkpt>
      <trkpt lat="44.33553" lon="3.50473">
        <ele>573</ele>
        <time>2017-03-02T21:43:51Z</time>
      </trkpt>
      <trkpt lat="44.33566" lon="3.50468">
        <ele>577</ele>
        <time>2017-03-02T21:45:51Z</time>
      </trkpt>
      <trkpt lat="44.33583" lon="3.5046">
        <ele>580</ele>
        <time>2017-03-02T21:47:51Z</time>
      </trkpt>
      <trkpt lat="44.33593" lon="3.50455">
        <ele>578</ele>
        <time>2017-03-02T21:49:51Z</time>
      </trkpt>
      <trkpt lat="44.33604" lon="3.50449">
        <ele>577</ele>
        <time>2017-03-02T21:51:51Z</time>
      </trkpt>
      <trkpt lat="44.33604" lon="3.50449">
        <ele>577</ele>
        <time>2017-03-02T21:53:51Z</time>
      </trkpt>
      <trkpt lat="44.33605" lon="3.50446">
        <ele>576</ele>
        <time>2017-03-02T21:55:51Z</time>
      </trkpt>
      <trkpt lat="44.33606" lon="3.50444">
        <ele>576</ele>
        <time>2017-03-02T21:57:51Z</time>
      </trkpt>
      <trkpt lat="44.33607" lon="3.50441">
        <ele>575</ele>
        <time>2017-03-02T21:59:51Z</time>
      </trkpt>
      <trkpt lat="44.33608" lon="3.50439">
        <ele>575</ele>
        <time>2017-03-02T22:01:51Z</time>
      </trkpt>
      <trkpt lat="44.33611" lon="3.50436">
        <ele>574</ele>
        <time>2017-03-02T22:03:51Z</time>
      </trkpt>
      <trkpt lat="44.33615" lon="3.50432">
        <ele>574</ele>
        <time>2017-03-02T22:05:51Z</time>
      </trkpt>
      <trkpt lat="44.33618" lon="3.5043">
        <ele>574</ele>
        <time>2017-03-02T22:07:51Z</time>
      </trkpt>
      <trkpt lat="44.33621" lon="3.50428">
        <ele>573</ele>
        <time>2017-03-02T22:09:51Z</time>
      </trkpt>
      <trkpt lat="44.33624" lon="3.50426">
        <ele>573</ele>
        <time>2017-03-02T22:11:51Z</time>
      </trkpt>
      <trkpt lat="44.33628" lon="3.50423">
        <ele>573</ele>
        <time>2017-03-02T22:13:51Z</time>
      </trkpt>
      <trkpt lat="44.33632" lon="3.5042">
        <ele>574</ele>
        <time>2017-03-02T22:15:51Z</time>
      </trkpt>
      <trkpt lat="44.33634" lon="3.50418">
        <ele>574</ele>
        <time>2017-03-02T22:17:51Z</time>
      </trkpt>
      <trkpt lat="44.33637" lon="3.50415">
        <ele>573</ele>
        <time>2017-03-02T22:19:51Z</time>
      </trkpt>
      <trkpt lat="44.3364" lon="3.50412">
        <ele>573</ele>
        <time>2017-03-02T22:21:51Z</time>
      </trkpt>
      <trkpt lat="44.33643" lon="3.5041">
        <ele>572</ele>
        <time>2017-03-02T22:23:51Z</time>
      </trkpt>
      <trkpt lat="44.33644" lon="3.50408">
        <ele>572</ele>
        <time>2017-03-02T22:25:51Z</time>
      </trkpt>
      <trkpt lat="44.33647" lon="3.50405">
        <ele>571</ele>
        <time>2017-03-02T22:27:51Z</time>
      </trkpt>
      <trkpt lat="44.33649" lon="3.50402">
        <ele>570</ele>
        <time>2017-03-02T22:29:51Z</time>
      </trkpt>
      <trkpt lat="44.33651" lon="3.50401">
        <ele>570</ele>
        <time>2017-03-02T22:31:51Z</time>
      </trkpt>
      <trkpt lat="44.33653" lon="3.504">
        <ele>570</ele>
        <time>2017-03-02T22:33:51Z</time>
      </trkpt>
      <trkpt lat="44.33656" lon="3.50399">
        <ele>570</ele>
        <time>2017-03-02T22:35:51Z</time>
      </trkpt>
      <trkpt lat="44.33662" lon="3.50398">
        <ele>571</ele>
        <time>2017-03-02T22:37:51Z</time>
      </trkpt>
      <trkpt lat="44.33668" lon="3.50398">
        <ele>571</ele>
        <time>2017-03-02T22:39:51Z</time>
      </trkpt>
      <trkpt lat="44.33668" lon="3.50398">
        <ele>571</ele>
        <time>2017-03-02T22:41:51Z</time>
      </trkpt>
      <trkpt lat="44.33667" lon="3.50391">
        <ele>569</ele>
        <time>2017-03-02T22:43:51Z</time>
      </trkpt>
      <trkpt lat="44.33666" lon="3.50389">
        <ele>569</ele>
        <time>2017-03-02T22:45:51Z</time>
      </trkpt>
      <trkpt lat="44.33666" lon="3.50387">
        <ele>568</ele>
        <time>2017-03-02T22:47:51Z</time>
      </trkpt>
      <trkpt lat="44.33667" lon="3.50384">
        <ele>567</ele>
        <time>2017-03-02T22:49:51Z</time>
      </trkpt>
      <trkpt lat="44.33668" lon="3.50382">
        <ele>567</ele>
        <time>2017-03-02T22:51:51Z</time>
      </trkpt>
      <trkpt lat="44.33668" lon="3.5038">
        <ele>566</ele>
        <time>2017-03-02T22:53:51Z</time>
      </trkpt>
      <trkpt lat="44.33673" lon="3.50374">
        <ele>564</ele>
        <time>2017-03-02T22:55:51Z</time>
      </trkpt>
      <trkpt lat="44.33677" lon="3.50369">
        <ele>562</ele>
        <time>2017-03-02T22:57:51Z</time>
      </trkpt>
      <trkpt lat="44.33681" lon="3.50364">
        <ele>561</ele>
        <time>2017-03-02T22:59:51Z</time>
      </trkpt>
      <trkpt lat="44.33684" lon="3.50361">
        <ele>560</ele>
        <time>2017-03-02T23:01:51Z</time>
      </trkpt>
      <trkpt lat="44.33689" lon="3.50356">
        <ele>559</ele>
        <time>2017-03-02T23:03:51Z</time>
      </trkpt>
      <trkpt lat="44.33693" lon="3.50351">
        <ele>558</ele>
        <time>2017-03-02T23:05:51Z</time>
      </trkpt>
      <trkpt lat="44.33699" lon="3.50343">
        <ele>556</ele>
        <time>2017-03-02T23:07:51Z</time>
      </trkpt>
      <trkpt lat="44.33701" lon="3.5034">
        <ele>555</ele>
        <time>2017-03-02T23:09:51Z</time>
      </trkpt>
      <trkpt lat="44.33703" lon="3.50337">
        <ele>555</ele>
        <time>2017-03-02T23:11:51Z</time>
      </trkpt>
      <trkpt lat="44.33706" lon="3.50332">
        <ele>554</ele>
        <time>2017-03-02T23:13:51Z</time>
      </trkpt>
      <trkpt lat="44.33708" lon="3.50328">
        <ele>553</ele>
        <time>2017-03-02T23:15:51Z</time>
      </trkpt>
      <trkpt lat="44.3371" lon="3.50325">
        <ele>552</ele>
        <time>2017-03-02T23:17:51Z</time>
      </trkpt>
      <trkpt lat="44.33715" lon="3.50318">
        <ele>551</ele>
        <time>2017-03-02T23:19:51Z</time>
      </trkpt>
      <trkpt lat="44.33721" lon="3.50307">
        <ele>548</ele>
        <time>2017-03-02T23:21:51Z</time>
      </trkpt>
      <trkpt lat="44.33721" lon="3.50307">
        <ele>548</ele>
        <time>2017-03-02T23:23:51Z</time>
      </trkpt>
      <trkpt lat="44.33725" lon="3.503">
        <ele>547</ele>
        <time>2017-03-02T23:25:51Z</time>
      </trkpt>
      <trkpt lat="44.33731" lon="3.50289">
        <ele>545</ele>
        <time>2017-03-02T23:27:51Z</time>
      </trkpt>
      <trkpt lat="44.33739" lon="3.50274">
        <ele>542</ele>
        <time>2017-03-02T23:29:51Z</time>
      </trkpt>
      <trkpt lat="44.3374" lon="3.50269">
        <ele>541</ele>
        <time>2017-03-02T23:31:51Z</time>
      </trkpt>
      <trkpt lat="44.33742" lon="3.50264">
        <ele>541</ele>
        <time>2017-03-02T23:33:51Z</time>
      </trkpt>
      <trkpt lat="44.33743" lon="3.50259">
        <ele>540</ele>
        <time>2017-03-02T23:35:51Z</time>
      </trkpt>
      <trkpt lat="44.33745" lon="3.50253">
        <ele>539</ele>
        <time>2017-03-02T23:37:51Z</time>
      </trkpt>
      <trkpt lat="44.33746" lon="3.50245">
        <ele>537</ele>
        <time>2017-03-02T23:39:51Z</time>
      </trkpt>
      <trkpt lat="44.33747" lon="3.50239">
        <ele>536</ele>
        <time>2017-03-02T23:41:51Z</time>
      </trkpt>
      <trkpt lat="44.33747" lon="3.50234">
        <ele>536</ele>
        <time>2017-03-02T23:43:51Z</time>
      </trkpt>
      <trkpt lat="44.33748" lon="3.50229">
        <ele>535</ele>
        <time>2017-03-02T23:45:51Z</time>
      </trkpt>
      <trkpt lat="44.33748" lon="3.50223">
        <ele>534</ele>
        <time>2017-03-02T23:47:51Z</time>
      </trkpt>
      <trkpt lat="44.33748" lon="3.50218">
        <ele>533</ele>
        <time>2017-03-02T23:49:51Z</time>
      </trkpt>
      <trkpt lat="44.33748" lon="3.50213">
        <ele>532</ele>
        <time>2017-03-02T23:51:51Z</time>
      </trkpt>
      <trkpt lat="44.33748" lon="3.50205">
        <ele>531</ele>
        <time>2017-03-02T23:53:51Z</time>
      </trkpt>
      <trkpt lat="44.33749" lon="3.50195">
        <ele>529</ele>
        <time>2017-03-02T23:55:51Z</time>
      </trkpt>
      <trkpt lat="44.33749" lon="3.50186">
        <ele>527</ele>
        <time>2017-03-02T23:57:51Z</time>
      </trkpt>
      <trkpt lat="44.33749" lon="3.50182">
        <ele>527</ele>
        <time>2017-03-02T23:59:51Z</time>
      </trkpt>
      <trkpt lat="44.33749" lon="3.5018">
        <ele>526</ele>
        <time>2017-03-03T00:01:51Z</time>
      </trkpt>
      <trkpt lat="44.33749" lon="3.50175">
        <ele>525</ele>
        <time>2017-03-03T00:03:51Z</time>
      </trkpt>
      <trkpt lat="44.33748" lon="3.50171">
        <ele>525</ele>
        <time>2017-03-03T00:05:51Z</time>
      </trkpt>
      <trkpt lat="44.33747" lon="3.50167">
        <ele>524</ele>
        <time>2017-03-03T00:07:51Z</time>
      </trkpt>
      <trkpt lat="44.33745" lon="3.50163">
        <ele>523</ele>
        <time>2017-03-03T00:09:51Z</time>
      </trkpt>
      <trkpt lat="44.33744" lon="3.50157">
        <ele>522</ele>
        <time>2017-03-03T00:11:51Z</time>
      </trkpt>
      <trkpt lat="44.33742" lon="3.50149">
        <ele>521</ele>
        <time>2017-03-03T00:13:51Z</time>
      </trkpt>
      <trkpt lat="44.33741" lon="3.50139">
        <ele>520</ele>
        <time>2017-03-03T00:15:51Z</time>
      </trkpt>
      <trkpt lat="44.33739" lon="3.5013">
        <ele>518</ele>
        <time>2017-03-03T00:17:51Z</time>
      </trkpt>
      <trkpt lat="44.33739" lon="3.50126">
        <ele>518</ele>
        <time>2017-03-03T00:19:51Z</time>
      </trkpt>
      <trkpt lat="44.33739" lon="3.50124">
        <ele>518</ele>
        <time>2017-03-03T00:21:51Z</time>
      </trkpt>
      <trkpt lat="44.33739" lon="3.50118">
        <ele>517</ele>
        <time>2017-03-03T00:23:51Z</time>
      </trkpt>
      <trkpt lat="44.33739" lon="3.50113">
        <ele>516</ele>
        <time>2017-03-03T00:25:51Z</time>
      </trkpt>
      <trkpt lat="44.33739" lon="3.50109">
        <ele>516</ele>
        <time>2017-03-03T00:27:51Z</time>
      </trkpt>
      <trkpt lat="44.33738" lon="3.50105">
        <ele>515</ele>
        <time>2017-03-03T00:29:51Z</time>
      </trkpt>
      <trkpt lat="44.33738" lon="3.50102">
        <ele>515</ele>
        <time>2017-03-03T00:31:51Z</time>
      </trkpt>
      <trkpt lat="44.33738" lon="3.50099">
        <ele>515</ele>
        <time>2017-03-03T00:33:51Z</time>
      </trkpt>
      <trkpt lat="44.33738" lon="3.50096">
        <ele>514</ele>
        <time>2017-03-03T00:35:51Z</time>
      </trkpt>
      <trkpt lat="44.33737" lon="3.50093">
        <ele>514</ele>
        <time>2017-03-03T00:37:51Z</time>
      </trkpt>
      <trkpt lat="44.33736" lon="3.50091">
        <ele>514</ele>
        <time>2017-03-03T00:39:51Z</time>
      </trkpt>
      <trkpt lat="44.33736" lon="3.50089">
        <ele>513</ele>
        <time>2017-03-03T00:41:51Z</time>
      </trkpt>
      <trkpt lat="44.33733" lon="3.50082">
        <ele>512</ele>
        <time>2017-03-03T00:43:51Z</time>
      </trkpt>
      <trkpt lat="44.33732" lon="3.5008">
        <ele>512</ele>
        <time>2017-03-03T00:45:51Z</time>
      </trkpt>
      <trkpt lat="44.33731" lon="3.50077">
        <ele>512</ele>
        <time>2017-03-03T00:47:51Z</time>
      </trkpt>
      <trkpt lat="44.3373" lon="3.50074">
        <ele>512</ele>
        <time>2017-03-03T00:49:51Z</time>
      </trkpt>
      <trkpt lat="44.3373" lon="3.50072">
        <ele>511</ele>
        <time>2017-03-03T00:51:51Z</time>
      </trkpt>
      <trkpt lat="44.33729" lon="3.5007">
        <ele>511</ele>
        <time>2017-03-03T00:53:51Z</time>
      </trkpt>
      <trkpt lat="44.33729" lon="3.50065">
        <ele>511</ele>
        <time>2017-03-03T00:55:51Z</time>
      </trkpt>
      <trkpt lat="44.3373" lon="3.50048">
        <ele>509</ele>
        <time>2017-03-03T00:57:51Z</time>
      </trkpt>
      <trkpt lat="44.33727" lon="3.50044">
        <ele>509</ele>
        <time>2017-03-03T00:59:51Z</time>
      </trkpt>
      <trkpt lat="44.33727" lon="3.50042">
        <ele>508</ele>
        <time>2017-03-03T01:01:51Z</time>
      </trkpt>
      <trkpt lat="44.33726" lon="3.5004">
        <ele>508</ele>
        <time>2017-03-03T01:03:51Z</time>
      </trkpt>
      <trkpt lat="44.33724" lon="3.50032">
        <ele>508</ele>
        <time>2017-03-03T01:05:51Z</time>
      </trkpt>
      <trkpt lat="44.33724" lon="3.50026">
        <ele>507</ele>
        <time>2017-03-03T01:07:51Z</time>
      </trkpt>
      <trkpt lat="44.33728" lon="3.50016">
        <ele>506</ele>
        <time>2017-03-03T01:09:51Z</time>
      </trkpt>
      <trkpt lat="44.33734" lon="3.5001">
        <ele>505</ele>
        <time>2017-03-03T01:11:51Z</time>
      </trkpt>
      <trkpt lat="44.33738" lon="3.50008">
        <ele>505</ele>
        <time>2017-03-03T01:13:51Z</time>
      </trkpt>
      <trkpt lat="44.33753" lon="3.50008">
        <ele>504</ele>
        <time>2017-03-03T01:15:51Z</time>
      </trkpt>
      <trkpt lat="44.33762" lon="3.5001">
        <ele>503</ele>
        <time>2017-03-03T01:17:51Z</time>
      </trkpt>
      <trkpt lat="44.33769" lon="3.50015">
        <ele>504</ele>
        <time>2017-03-03T01:19:51Z</time>
      </trkpt>
      <trkpt lat="44.33777" lon="3.5002">
        <ele>504</ele>
        <time>2017-03-03T01:21:51Z</time>
      </trkpt>
      <trkpt lat="44.33783" lon="3.50021">
        <ele>503</ele>
        <time>2017-03-03T01:23:51Z</time>
      </trkpt>
      <trkpt lat="44.338" lon="3.50021">
        <ele>502</ele>
        <time>2017-03-03T01:25:51Z</time>
      </trkpt>
      <trkpt lat="44.33809" lon="3.50019">
        <ele>502</ele>
        <time>2017-03-03T01:27:51Z</time>
      </trkpt>
      <trkpt lat="44.33816" lon="3.50013">
        <ele>500</ele>
        <time>2017-03-03T01:29:51Z</time>
      </trkpt>
      <trkpt lat="44.33828" lon="3.49997">
        <ele>498</ele>
        <time>2017-03-03T01:31:51Z</time>
      </trkpt>
      <trkpt lat="44.33834" lon="3.49986">
        <ele>497</ele>
        <time>2017-03-03T01:33:51Z</time>
      </trkpt>
      <trkpt lat="44.33838" lon="3.49974">
        <ele>496</ele>
        <time>2017-03-03T01:35:51Z</time>
      </trkpt>
      <trkpt lat="44.33844" lon="3.49961">
        <ele>495</ele>
        <time>2017-03-03T01:37:51Z</time>
      </trkpt>
      <trkpt lat="44.33857" lon="3.49939">
        <ele>494</ele>
        <time>2017-03-03T01:39:51Z</time>
      </trkpt>
      <trkpt lat="44.3387" lon="3.49917">
        <ele>493</ele>
        <time>2017-03-03T01:41:51Z</time>
      </trkpt>
      <trkpt lat="44.33873" lon="3.49909">
        <ele>493</ele>
        <time>2017-03-03T01:43:51Z</time>
      </trkpt>
      <trkpt lat="44.33872" lon="3.499">
        <ele>493</ele>
        <time>2017-03-03T01:45:51Z</time>
      </trkpt>
      <trkpt lat="44.33872" lon="3.499">
        <ele>493</ele>
        <time>2017-03-03T01:47:51Z</time>
      </trkpt>
      <trkpt lat="44.33863" lon="3.49886">
        <ele>493</ele>
        <time>2017-03-03T01:49:51Z</time>
      </trkpt>
      <trkpt lat="44.33853" lon="3.49873">
        <ele>492</ele>
        <time>2017-03-03T01:51:51Z</time>
      </trkpt>
      <trkpt lat="44.33844" lon="3.49866">
        <ele>491</ele>
        <time>2017-03-03T01:53:51Z</time>
      </trkpt>
      <trkpt lat="44.33833" lon="3.49861">
        <ele>490</ele>
        <time>2017-03-03T01:55:51Z</time>
      </trkpt>
      <trkpt lat="44.33823" lon="3.49856">
        <ele>490</ele>
        <time>2017-03-03T01:57:51Z</time>
      </trkpt>
      <trkpt lat="44.33818" lon="3.49852">
        <ele>490</ele>
        <time>2017-03-03T01:59:51Z</time>
      </trkpt>
      <trkpt lat="44.33817" lon="3.49852">
        <ele>490</ele>
        <time>2017-03-03T02:01:51Z</time>
      </trkpt>
      <trkpt lat="44.33811" lon="3.49847">
        <ele>490</ele>
        <time>2017-03-03T02:03:51Z</time>
      </trkpt>
      <trkpt lat="44.33798" lon="3.49831">
        <ele>489</ele>
        <time>2017-03-03T02:05:51Z</time>
      </trkpt>
      <trkpt lat="44.33787" lon="3.49819">
        <ele>490</ele>
        <time>2017-03-03T02:07:51Z</time>
      </trkpt>
      <trkpt lat="44.33775" lon="3.49809">
        <ele>490</ele>
        <time>2017-03-03T02:09:51Z</time>
      </trkpt>
      <trkpt lat="44.33761" lon="3.49801">
        <ele>489</ele>
        <time>2017-03-03T02:11:51Z</time>
      </trkpt>
      <trkpt lat="44.33744" lon="3.49792">
        <ele>488</ele>
        <time>2017-03-03T02:13:51Z</time>
      </trkpt>
      <trkpt lat="44.33731" lon="3.49785">
        <ele>488</ele>
        <time>2017-03-03T02:15:51Z</time>
      </trkpt>
      <trkpt lat="44.33715" lon="3.49775">
        <ele>488</ele>
        <time>2017-03-03T02:17:51Z</time>
      </trkpt>
      <trkpt lat="44.337" lon="3.49766">
        <ele>488</ele>
        <time>2017-03-03T02:19:51Z</time>
      </trkpt>
      <trkpt lat="44.33692" lon="3.49762">
        <ele>488</ele>
        <time>2017-03-03T02:21:51Z</time>
      </trkpt>
      <trkpt lat="44.33683" lon="3.49757">
        <ele>488</ele>
        <time>2017-03-03T02:23:51Z</time>
      </trkpt>
      <trkpt lat="44.3367" lon="3.49749">
        <ele>488</ele>
        <time>2017-03-03T02:25:51Z</time>
      </trkpt>
      <trkpt lat="44.3366" lon="3.49741">
        <ele>489</ele>
        <time>2017-03-03T02:27:51Z</time>
      </trkpt>
      <trkpt lat="44.33647" lon="3.49737">
        <ele>490</ele>
        <time>2017-03-03T02:29:51Z</time>
      </trkpt>
      <trkpt lat="44.33634" lon="3.49738">
        <ele>491</ele>
        <time>2017-03-03T02:31:51Z</time>
      </trkpt>
      <trkpt lat="44.33619" lon="3.49741">
        <ele>491</ele>
        <time>2017-03-03T02:33:51Z</time>
      </trkpt>
      <trkpt lat="44.33611" lon="3.49744">
        <ele>491</ele>
        <time>2017-03-03T02:35:51Z</time>
      </trkpt>
      <trkpt lat="44.33598" lon="3.49744">
        <ele>492</ele>
        <time>2017-03-03T02:37:51Z</time>
      </trkpt>
      <trkpt lat="44.33592" lon="3.49743">
        <ele>492</ele>
        <time>2017-03-03T02:39:51Z</time>
      </trkpt>
      <trkpt lat="44.33585" lon="3.49742">
        <ele>492</ele>
        <time>2017-03-03T02:41:51Z</time>
      </trkpt>
      <trkpt lat="44.3356" lon="3.49739">
        <ele>493</ele>
        <time>2017-03-03T02:43:51Z</time>
      </trkpt>
      <trkpt lat="44.33542" lon="3.49737">
        <ele>493</ele>
        <time>2017-03-03T02:45:51Z</time>
      </trkpt>
      <trkpt lat="44.33524" lon="3.49736">
        <ele>494</ele>
        <time>2017-03-03T02:47:51Z</time>
      </trkpt>
      <trkpt lat="44.33505" lon="3.49733">
        <ele>494</ele>
        <time>2017-03-03T02:49:51Z</time>
      </trkpt>
      <trkpt lat="44.33485" lon="3.49729">
        <ele>495</ele>
        <time>2017-03-03T02:51:51Z</time>
      </trkpt>
      <trkpt lat="44.3346" lon="3.49721">
        <ele>495</ele>
        <time>2017-03-03T02:53:51Z</time>
      </trkpt>
      <trkpt lat="44.33446" lon="3.49716">
        <ele>495</ele>
        <time>2017-03-03T02:55:51Z</time>
      </trkpt>
      <trkpt lat="44.33437" lon="3.49713">
        <ele>495</ele>
        <time>2017-03-03T02:57:51Z</time>
      </trkpt>
      <trkpt lat="44.33423" lon="3.49713">
        <ele>495</ele>
        <time>2017-03-03T02:59:51Z</time>
      </trkpt>
      <trkpt lat="44.33412" lon="3.49716">
        <ele>495</ele>
        <time>2017-03-03T03:01:51Z</time>
      </trkpt>
      <trkpt lat="44.33398" lon="3.49722">
        <ele>496</ele>
        <time>2017-03-03T03:03:51Z</time>
      </trkpt>
      <trkpt lat="44.33383" lon="3.4973">
        <ele>498</ele>
        <time>2017-03-03T03:05:51Z</time>
      </trkpt>
      <trkpt lat="44.3337" lon="3.49736">
        <ele>499</ele>
        <time>2017-03-03T03:07:51Z</time>
      </trkpt>
      <trkpt lat="44.33357" lon="3.4974">
        <ele>500</ele>
        <time>2017-03-03T03:09:51Z</time>
      </trkpt>
      <trkpt lat="44.33348" lon="3.49741">
        <ele>501</ele>
        <time>2017-03-03T03:11:51Z</time>
      </trkpt>
      <trkpt lat="44.3334" lon="3.49739">
        <ele>501</ele>
        <time>2017-03-03T03:13:51Z</time>
      </trkpt>
      <trkpt lat="44.3333" lon="3.49735">
        <ele>502</ele>
        <time>2017-03-03T03:15:51Z</time>
      </trkpt>
      <trkpt lat="44.33318" lon="3.49728">
        <ele>503</ele>
        <time>2017-03-03T03:17:51Z</time>
      </trkpt>
      <trkpt lat="44.33304" lon="3.4972">
        <ele>504</ele>
        <time>2017-03-03T03:19:51Z</time>
      </trkpt>
      <trkpt lat="44.33293" lon="3.49711">
        <ele>504</ele>
        <time>2017-03-03T03:21:51Z</time>
      </trkpt>
      <trkpt lat="44.33283" lon="3.49703">
        <ele>504</ele>
        <time>2017-03-03T03:23:51Z</time>
      </trkpt>
      <trkpt lat="44.33279" lon="3.49701">
        <ele>504</ele>
        <time>2017-03-03T03:25:51Z</time>
      </trkpt>
      <trkpt lat="44.33262" lon="3.49693">
        <ele>505</ele>
        <time>2017-03-03T03:27:51Z</time>
      </trkpt>
      <trkpt lat="44.33236" lon="3.49678">
        <ele>509</ele>
        <time>2017-03-03T03:29:51Z</time>
      </trkpt>
      <trkpt lat="44.33219" lon="3.49667">
        <ele>515</ele>
        <time>2017-03-03T03:31:51Z</time>
      </trkpt>
      <trkpt lat="44.33207" lon="3.49657">
        <ele>519</ele>
        <time>2017-03-03T03:33:51Z</time>
      </trkpt>
      <trkpt lat="44.33199" lon="3.49647">
        <ele>521</ele>
        <time>2017-03-03T03:35:51Z</time>
      </trkpt>
      <trkpt lat="44.33194" lon="3.49637">
        <ele>522</ele>
        <time>2017-03-03T03:37:51Z</time>
      </trkpt>
      <trkpt lat="44.33189" lon="3.49624">
        <ele>522</ele>
        <time>2017-03-03T03:39:51Z</time>
      </trkpt>
      <trkpt lat="44.3318" lon="3.49607">
        <ele>522</ele>
        <time>2017-03-03T03:41:51Z</time>
      </trkpt>
      <trkpt lat="44.33169" lon="3.49586">
        <ele>523</ele>
        <time>2017-03-03T03:43:51Z</time>
      </trkpt>
      <trkpt lat="44.33164" lon="3.49574">
        <ele>526</ele>
        <time>2017-03-03T03:45:51Z</time>
      </trkpt>
      <trkpt lat="44.33162" lon="3.49565">
        <ele>528</ele>
        <time>2017-03-03T03:47:51Z</time>
      </trkpt>
      <trkpt lat="44.33162" lon="3.49557">
        <ele>528</ele>
        <time>2017-03-03T03:49:51Z</time>
      </trkpt>
      <trkpt lat="44.33163" lon="3.4955">
        <ele>527</ele>
        <time>2017-03-03T03:51:51Z</time>
      </trkpt>
      <trkpt lat="44.33168" lon="3.49539">
        <ele>524</ele>
        <time>2017-03-03T03:53:51Z</time>
      </trkpt>
      <trkpt lat="44.33175" lon="3.49526">
        <ele>521</ele>
        <time>2017-03-03T03:55:51Z</time>
      </trkpt>
      <trkpt lat="44.33181" lon="3.49515">
        <ele>518</ele>
        <time>2017-03-03T03:57:51Z</time>
      </trkpt>
      <trkpt lat="44.33183" lon="3.49507">
        <ele>518</ele>
        <time>2017-03-03T03:59:51Z</time>
      </trkpt>
      <trkpt lat="44.33183" lon="3.49494">
        <ele>518</ele>
        <time>2017-03-03T04:01:51Z</time>
      </trkpt>
      <trkpt lat="44.33182" lon="3.49478">
        <ele>520</ele>
        <time>2017-03-03T04:03:51Z</time>
      </trkpt>
      <trkpt lat="44.33183" lon="3.49468">
        <ele>521</ele>
        <time>2017-03-03T04:05:51Z</time>
      </trkpt>
      <trkpt lat="44.33185" lon="3.49457">
        <ele>521</ele>
        <time>2017-03-03T04:07:51Z</time>
      </trkpt>
      <trkpt lat="44.33187" lon="3.49444">
        <ele>522</ele>
        <time>2017-03-03T04:09:51Z</time>
      </trkpt>
      <trkpt lat="44.3319" lon="3.49435">
        <ele>521</ele>
        <time>2017-03-03T04:11:51Z</time>
      </trkpt>
      <trkpt lat="44.33195" lon="3.49423">
        <ele>519</ele>
        <time>2017-03-03T04:13:51Z</time>
      </trkpt>
      <trkpt lat="44.33201" lon="3.49409">
        <ele>519</ele>
        <time>2017-03-03T04:15:51Z</time>
      </trkpt>
      <trkpt lat="44.33204" lon="3.49398">
        <ele>521</ele>
        <time>2017-03-03T04:17:51Z</time>
      </trkpt>
      <trkpt lat="44.3321" lon="3.49383">
        <ele>523</ele>
        <time>2017-03-03T04:19:51Z</time>
      </trkpt>
      <trkpt lat="44.33215" lon="3.49374">
        <ele>522</ele>
        <time>2017-03-03T04:21:51Z</time>
      </trkpt>
      <trkpt lat="44.3323" lon="3.49352">
        <ele>519</ele>
        <time>2017-03-03T04:23:51Z</time>
      </trkpt>
      <trkpt lat="44.33247" lon="3.49328">
        <ele>516</ele>
        <time>2017-03-03T04:25:51Z</time>
      </trkpt>
      <trkpt lat="44.33268" lon="3.493">
        <ele>522</ele>
        <time>2017-03-03T04:27:51Z</time>
      </trkpt>
      <trkpt lat="44.3328" lon="3.49287">
        <ele>523</ele>
        <time>2017-03-03T04:29:51Z</time>
      </trkpt>
      <trkpt lat="44.33299" lon="3.49271">
        <ele>522</ele>
        <time>2017-03-03T04:31:51Z</time>
      </trkpt>
      <trkpt lat="44.33315" lon="3.49259">
        <ele>519</ele>
        <time>2017-03-03T04:33:51Z</time>
      </trkpt>
      <trkpt lat="44.33332" lon="3.49246">
        <ele>516</ele>
        <time>2017-03-03T04:35:51Z</time>
      </trkpt>
      <trkpt lat="44.33357" lon="3.49226">
        <ele>516</ele>
        <time>2017-03-03T04:37:51Z</time>
      </trkpt>
      <trkpt lat="44.33372" lon="3.49213">
        <ele>516</ele>
        <time>2017-03-03T04:39:51Z</time>
      </trkpt>
      <trkpt lat="44.3338" lon="3.49204">
        <ele>517</ele>
        <time>2017-03-03T04:41:51Z</time>
      </trkpt>
      <trkpt lat="44.33392" lon="3.49192">
        <ele>516</ele>
        <time>2017-03-03T04:43:51Z</time>
      </trkpt>
      <trkpt lat="44.33408" lon="3.49177">
        <ele>515</ele>
        <time>2017-03-03T04:45:51Z</time>
      </trkpt>
      <trkpt lat="44.33426" lon="3.49158">
        <ele>513</ele>
        <time>2017-03-03T04:47:51Z</time>
      </trkpt>
      <trkpt lat="44.33443" lon="3.4914">
        <ele>512</ele>
        <time>2017-03-03T04:49:51Z</time>
      </trkpt>
      <trkpt lat="44.33451" lon="3.49127">
        <ele>512</ele>
        <time>2017-03-03T04:51:51Z</time>
      </trkpt>
      <trkpt lat="44.33454" lon="3.4912">
        <ele>512</ele>
        <time>2017-03-03T04:53:51Z</time>
      </trkpt>
      <trkpt lat="44.33455" lon="3.49112">
        <ele>513</ele>
        <time>2017-03-03T04:55:51Z</time>
      </trkpt>
      <trkpt lat="44.33453" lon="3.49107">
        <ele>514</ele>
        <time>2017-03-03T04:57:51Z</time>
      </trkpt>
      <trkpt lat="44.33449" lon="3.49097">
        <ele>517</ele>
        <time>2017-03-03T04:59:51Z</time>
      </trkpt>
      <trkpt lat="44.33439" lon="3.4908">
        <ele>521</ele>
        <time>2017-03-03T05:01:51Z</time>
      </trkpt>
      <trkpt lat="44.33428" lon="3.49065">
        <ele>521</ele>
        <time>2017-03-03T05:03:51Z</time>
      </trkpt>
      <trkpt lat="44.33402" lon="3.49036">
        <ele>525</ele>
        <time>2017-03-03T05:05:51Z</time>
      </trkpt>
      <trkpt lat="44.33378" lon="3.4901">
        <ele>528</ele>
        <time>2017-03-03T05:07:51Z</time>
      </trkpt>
      <trkpt lat="44.33369" lon="3.49001">
        <ele>530</ele>
        <time>2017-03-03T05:09:51Z</time>
      </trkpt>
      <trkpt lat="44.33359" lon="3.48988">
        <ele>530</ele>
        <time>2017-03-03T05:11:51Z</time>
      </trkpt>
      <trkpt lat="44.33352" lon="3.48974">
        <ele>529</ele>
        <time>2017-03-03T05:13:51Z</time>
      </trkpt>
      <trkpt lat="44.33345" lon="3.48957">
        <ele>526</ele>
        <time>2017-03-03T05:15:51Z</time>
      </trkpt>
      <trkpt lat="44.33337" lon="3.48938">
        <ele>523</ele>
        <time>2017-03-03T05:17:51Z</time>
      </trkpt>
      <trkpt lat="44.33333" lon="3.48931">
        <ele>522</ele>
        <time>2017-03-03T05:19:51Z</time>
      </trkpt>
      <trkpt lat="44.33327" lon="3.48925">
        <ele>523</ele>
        <time>2017-03-03T05:21:51Z</time>
      </trkpt>
      <trkpt lat="44.33316" lon="3.4892">
        <ele>527</ele>
        <time>2017-03-03T05:23:51Z</time>
      </trkpt>
      <trkpt lat="44.33306" lon="3.48913">
        <ele>530</ele>
        <time>2017-03-03T05:25:51Z</time>
      </trkpt>
      <trkpt lat="44.33301" lon="3.48908">
        <ele>531</ele>
        <time>2017-03-03T05:27:51Z</time>
      </trkpt>
      <trkpt lat="44.33292" lon="3.48899">
        <ele>533</ele>
        <time>2017-03-03T05:29:51Z</time>
      </trkpt>
      <trkpt lat="44.33282" lon="3.48893">
        <ele>537</ele>
        <time>2017-03-03T05:31:51Z</time>
      </trkpt>
      <trkpt lat="44.33278" lon="3.4889">
        <ele>538</ele>
        <time>2017-03-03T05:33:51Z</time>
      </trkpt>
      <trkpt lat="44.33274" lon="3.48886">
        <ele>539</ele>
        <time>2017-03-03T05:35:51Z</time>
      </trkpt>
      <trkpt lat="44.3327" lon="3.48879">
        <ele>539</ele>
        <time>2017-03-03T05:37:51Z</time>
      </trkpt>
      <trkpt lat="44.33269" lon="3.48871">
        <ele>538</ele>
        <time>2017-03-03T05:39:51Z</time>
      </trkpt>
      <trkpt lat="44.3327" lon="3.48861">
        <ele>536</ele>
        <time>2017-03-03T05:41:51Z</time>
      </trkpt>
      <trkpt lat="44.33274" lon="3.48855">
        <ele>533</ele>
        <time>2017-03-03T05:43:51Z</time>
      </trkpt>
      <trkpt lat="44.33277" lon="3.48851">
        <ele>531</ele>
        <time>2017-03-03T05:45:51Z</time>
      </trkpt>
      <trkpt lat="44.33277" lon="3.48851">
        <ele>531</ele>
        <time>2017-03-03T05:47:51Z</time>
      </trkpt>
      <trkpt lat="44.3328" lon="3.48848">
        <ele>529</ele>
        <time>2017-03-03T05:49:51Z</time>
      </trkpt>
      <trkpt lat="44.33285" lon="3.48838">
        <ele>526</ele>
        <time>2017-03-03T05:51:51Z</time>
      </trkpt>
      <trkpt lat="44.33293" lon="3.48819">
        <ele>521</ele>
        <time>2017-03-03T05:53:51Z</time>
      </trkpt>
      <trkpt lat="44.33298" lon="3.48799">
        <ele>518</ele>
        <time>2017-03-03T05:55:51Z</time>
      </trkpt>
      <trkpt lat="44.33298" lon="3.48785">
        <ele>517</ele>
        <time>2017-03-03T05:57:51Z</time>
      </trkpt>
      <trkpt lat="44.33295" lon="3.4877">
        <ele>518</ele>
        <time>2017-03-03T05:59:51Z</time>
      </trkpt>
      <trkpt lat="44.33288" lon="3.48751">
        <ele>520</ele>
        <time>2017-03-03T06:01:51Z</time>
      </trkpt>
      <trkpt lat="44.3328" lon="3.48735">
        <ele>523</ele>
        <time>2017-03-03T06:03:51Z</time>
      </trkpt>
      <trkpt lat="44.33277" lon="3.48726">
        <ele>525</ele>
        <time>2017-03-03T06:05:51Z</time>
      </trkpt>
      <trkpt lat="44.33274" lon="3.48714">
        <ele>526</ele>
        <time>2017-03-03T06:07:51Z</time>
      </trkpt>
      <trkpt lat="44.33274" lon="3.48706">
        <ele>526</ele>
        <time>2017-03-03T06:09:51Z</time>
      </trkpt>
      <trkpt lat="44.33276" lon="3.48694">
        <ele>525</ele>
        <time>2017-03-03T06:11:51Z</time>
      </trkpt>
      <trkpt lat="44.33278" lon="3.48676">
        <ele>524</ele>
        <time>2017-03-03T06:13:51Z</time>
      </trkpt>
      <trkpt lat="44.33279" lon="3.48661">
        <ele>523</ele>
        <time>2017-03-03T06:15:51Z</time>
      </trkpt>
      <trkpt lat="44.33278" lon="3.48649">
        <ele>524</ele>
        <time>2017-03-03T06:17:51Z</time>
      </trkpt>
      <trkpt lat="44.33275" lon="3.4862">
        <ele>526</ele>
        <time>2017-03-03T06:19:51Z</time>
      </trkpt>
      <trkpt lat="44.33273" lon="3.48588">
        <ele>528</ele>
        <time>2017-03-03T06:21:51Z</time>
      </trkpt>
      <trkpt lat="44.33272" lon="3.48565">
        <ele>528</ele>
        <time>2017-03-03T06:23:51Z</time>
      </trkpt>
      <trkpt lat="44.33274" lon="3.48549">
        <ele>526</ele>
        <time>2017-03-03T06:25:51Z</time>
      </trkpt>
      <trkpt lat="44.33277" lon="3.48537">
        <ele>524</ele>
        <time>2017-03-03T06:27:51Z</time>
      </trkpt>
      <trkpt lat="44.33284" lon="3.48517">
        <ele>519</ele>
        <time>2017-03-03T06:29:51Z</time>
      </trkpt>
      <trkpt lat="44.33289" lon="3.48503">
        <ele>515</ele>
        <time>2017-03-03T06:31:51Z</time>
      </trkpt>
      <trkpt lat="44.33292" lon="3.48489">
        <ele>514</ele>
        <time>2017-03-03T06:33:51Z</time>
      </trkpt>
      <trkpt lat="44.33294" lon="3.48468">
        <ele>515</ele>
        <time>2017-03-03T06:35:51Z</time>
      </trkpt>
      <trkpt lat="44.33296" lon="3.48447">
        <ele>515</ele>
        <time>2017-03-03T06:37:51Z</time>
      </trkpt>
      <trkpt lat="44.33298" lon="3.48428">
        <ele>516</ele>
        <time>2017-03-03T06:39:51Z</time>
      </trkpt>
      <trkpt lat="44.33301" lon="3.4841">
        <ele>516</ele>
        <time>2017-03-03T06:41:51Z</time>
      </trkpt>
      <trkpt lat="44.33306" lon="3.48387">
        <ele>517</ele>
        <time>2017-03-03T06:43:51Z</time>
      </trkpt>
      <trkpt lat="44.33312" lon="3.48366">
        <ele>516</ele>
        <time>2017-03-03T06:45:51Z</time>
      </trkpt>
      <trkpt lat="44.33322" lon="3.48339">
        <ele>513</ele>
        <time>2017-03-03T06:47:51Z</time>
      </trkpt>
      <trkpt lat="44.3333" lon="3.48321">
        <ele>510</ele>
        <time>2017-03-03T06:49:51Z</time>
      </trkpt>
      <trkpt lat="44.3334" lon="3.48303">
        <ele>510</ele>
        <time>2017-03-03T06:51:51Z</time>
      </trkpt>
      <trkpt lat="44.33345" lon="3.48294">
        <ele>510</ele>
        <time>2017-03-03T06:53:51Z</time>
      </trkpt>
      <trkpt lat="44.33365" lon="3.48265">
        <ele>509</ele>
        <time>2017-03-03T06:55:51Z</time>
      </trkpt>
      <trkpt lat="44.33377" lon="3.48248">
        <ele>507</ele>
        <time>2017-03-03T06:57:51Z</time>
      </trkpt>
      <trkpt lat="44.33385" lon="3.48233">
        <ele>506</ele>
        <time>2017-03-03T06:59:51Z</time>
      </trkpt>
      <trkpt lat="44.33391" lon="3.4822">
        <ele>504</ele>
        <time>2017-03-03T07:01:51Z</time>
      </trkpt>
      <trkpt lat="44.33397" lon="3.48203">
        <ele>504</ele>
        <time>2017-03-03T07:03:51Z</time>
      </trkpt>
      <trkpt lat="44.33405" lon="3.48186">
        <ele>503</ele>
        <time>2017-03-03T07:05:51Z</time>
      </trkpt>
      <trkpt lat="44.33412" lon="3.4817">
        <ele>503</ele>
        <time>2017-03-03T07:07:51Z</time>
      </trkpt>
      <trkpt lat="44.33418" lon="3.48155">
        <ele>502</ele>
        <time>2017-03-03T07:09:51Z</time>
      </trkpt>
      <trkpt lat="44.33423" lon="3.48138">
        <ele>502</ele>
        <time>2017-03-03T07:11:51Z</time>
      </trkpt>
      <trkpt lat="44.33427" lon="3.4812">
        <ele>502</ele>
        <time>2017-03-03T07:13:51Z</time>
      </trkpt>
      <trkpt lat="44.3343" lon="3.48103">
        <ele>502</ele>
        <time>2017-03-03T07:15:51Z</time>
      </trkpt>
      <trkpt lat="44.33431" lon="3.48084">
        <ele>503</ele>
        <time>2017-03-03T07:17:51Z</time>
      </trkpt>
      <trkpt lat="44.33434" lon="3.48065">
        <ele>502</ele>
        <time>2017-03-03T07:19:51Z</time>
      </trkpt>
      <trkpt lat="44.33435" lon="3.48052">
        <ele>501</ele>
        <time>2017-03-03T07:21:51Z</time>
      </trkpt>
      <trkpt lat="44.33436" lon="3.48044">
        <ele>501</ele>
        <time>2017-03-03T07:23:51Z</time>
      </trkpt>
      <trkpt lat="44.33439" lon="3.48023">
        <ele>500</ele>
        <time>2017-03-03T07:25:51Z</time>
      </trkpt>
      <trkpt lat="44.3344" lon="3.48013">
        <ele>500</ele>
        <time>2017-03-03T07:27:51Z</time>
      </trkpt>
      <trkpt lat="44.3344" lon="3.48002">
        <ele>500</ele>
        <time>2017-03-03T07:29:51Z</time>
      </trkpt>
      <trkpt lat="44.3344" lon="3.47966">
        <ele>499</ele>
        <time>2017-03-03T07:31:51Z</time>
      </trkpt>
      <trkpt lat="44.33441" lon="3.4791">
        <ele>498</ele>
        <time>2017-03-03T07:33:51Z</time>
      </trkpt>
      <trkpt lat="44.3344" lon="3.4787">
        <ele>501</ele>
        <time>2017-03-03T07:35:51Z</time>
      </trkpt>
      <trkpt lat="44.3344" lon="3.47842">
        <ele>502</ele>
        <time>2017-03-03T07:37:51Z</time>
      </trkpt>
      <trkpt lat="44.3344" lon="3.47832">
        <ele>503</ele>
        <time>2017-03-03T07:39:51Z</time>
      </trkpt>
      <trkpt lat="44.3344" lon="3.47828">
        <ele>503</ele>
        <time>2017-03-03T07:41:51Z</time>
      </trkpt>
      <trkpt lat="44.3344" lon="3.47797">
        <ele>504</ele>
        <time>2017-03-03T07:43:51Z</time>
      </trkpt>
      <trkpt lat="44.3344" lon="3.47766">
        <ele>506</ele>
        <time>2017-03-03T07:45:51Z</time>
      </trkpt>
      <trkpt lat="44.3344" lon="3.47746">
        <ele>507</ele>
        <time>2017-03-03T07:47:51Z</time>
      </trkpt>
      <trkpt lat="44.33441" lon="3.47735">
        <ele>509</ele>
        <time>2017-03-03T07:49:51Z</time>
      </trkpt>
      <trkpt lat="44.33444" lon="3.47725">
        <ele>511</ele>
        <time>2017-03-03T07:51:51Z</time>
      </trkpt>
      <trkpt lat="44.33448" lon="3.47715">
        <ele>512</ele>
        <time>2017-03-03T07:53:51Z</time>
      </trkpt>
      <trkpt lat="44.3346" lon="3.47693">
        <ele>512</ele>
        <time>2017-03-03T07:55:51Z</time>
      </trkpt>
      <trkpt lat="44.33474" lon="3.47671">
        <ele>511</ele>
        <time>2017-03-03T07:57:51Z</time>
      </trkpt>
      <trkpt lat="44.33487" lon="3.47647">
        <ele>511</ele>
        <time>2017-03-03T07:59:51Z</time>
      </trkpt>
      <trkpt lat="44.33497" lon="3.47625">
        <ele>512</ele>
        <time>2017-03-03T08:01:51Z</time>
      </trkpt>
      <trkpt lat="44.33508" lon="3.47598">
        <ele>514</ele>
        <time>2017-03-03T08:03:51Z</time>
      </trkpt>
      <trkpt lat="44.33522" lon="3.47564">
        <ele>512</ele>
        <time>2017-03-03T08:05:51Z</time>
      </trkpt>
      <trkpt lat="44.33527" lon="3.47551">
        <ele>510</ele>
        <time>2017-03-03T08:07:51Z</time>
      </trkpt>
      <trkpt lat="44.33529" lon="3.47541">
        <ele>510</ele>
        <time>2017-03-03T08:09:51Z</time>
      </trkpt>
      <trkpt lat="44.33529" lon="3.47533">
        <ele>511</ele>
        <time>2017-03-03T08:11:51Z</time>
      </trkpt>
      <trkpt lat="44.33528" lon="3.47525">
        <ele>512</ele>
        <time>2017-03-03T08:13:51Z</time>
      </trkpt>
      <trkpt lat="44.3352" lon="3.47509">
        <ele>516</ele>
        <time>2017-03-03T08:15:51Z</time>
      </trkpt>
      <trkpt lat="44.33508" lon="3.47485">
        <ele>521</ele>
        <time>2017-03-03T08:17:51Z</time>
      </trkpt>
      <trkpt lat="44.33497" lon="3.47464">
        <ele>526</ele>
        <time>2017-03-03T08:19:51Z</time>
      </trkpt>
      <trkpt lat="44.33487" lon="3.47449">
        <ele>530</ele>
        <time>2017-03-03T08:21:51Z</time>
      </trkpt>
      <trkpt lat="44.33482" lon="3.4744">
        <ele>532</ele>
        <time>2017-03-03T08:23:51Z</time>
      </trkpt>
      <trkpt lat="44.3348" lon="3.47433">
        <ele>532</ele>
        <time>2017-03-03T08:25:51Z</time>
      </trkpt>
      <trkpt lat="44.3348" lon="3.47426">
        <ele>532</ele>
        <time>2017-03-03T08:27:51Z</time>
      </trkpt>
      <trkpt lat="44.33481" lon="3.47422">
        <ele>532</ele>
        <time>2017-03-03T08:29:51Z</time>
      </trkpt>
      <trkpt lat="44.33482" lon="3.4742">
        <ele>531</ele>
        <time>2017-03-03T08:31:51Z</time>
      </trkpt>
      <trkpt lat="44.33483" lon="3.47418">
        <ele>531</ele>
        <time>2017-03-03T08:33:51Z</time>
      </trkpt>
      <trkpt lat="44.33485" lon="3.47415">
        <ele>531</ele>
        <time>2017-03-03T08:35:51Z</time>
      </trkpt>
      <trkpt lat="44.33489" lon="3.47414">
        <ele>530</ele>
        <time>2017-03-03T08:37:51Z</time>
      </trkpt>
      <trkpt lat="44.33497" lon="3.47414">
        <ele>527</ele>
        <time>2017-03-03T08:39:51Z</time>
      </trkpt>
      <trkpt lat="44.33504" lon="3.47414">
        <ele>525</ele>
        <time>2017-03-03T08:41:51Z</time>
      </trkpt>
      <trkpt lat="44.33526" lon="3.47418">
        <ele>521</ele>
        <time>2017-03-03T08:43:51Z</time>
      </trkpt>
      <trkpt lat="44.33543" lon="3.47421">
        <ele>518</ele>
        <time>2017-03-03T08:45:51Z</time>
      </trkpt>
      <trkpt lat="44.33557" lon="3.47421">
        <ele>515</ele>
        <time>2017-03-03T08:47:51Z</time>
      </trkpt>
      <trkpt lat="44.33564" lon="3.47419">
        <ele>515</ele>
        <time>2017-03-03T08:49:51Z</time>
      </trkpt>
      <trkpt lat="44.33572" lon="3.47413">
        <ele>515</ele>
        <time>2017-03-03T08:51:51Z</time>
      </trkpt>
      <trkpt lat="44.33579" lon="3.47403">
        <ele>516</ele>
        <time>2017-03-03T08:53:51Z</time>
      </trkpt>
      <trkpt lat="44.33586" lon="3.47388">
        <ele>517</ele>
        <time>2017-03-03T08:55:51Z</time>
      </trkpt>
      <trkpt lat="44.33595" lon="3.47358">
        <ele>521</ele>
        <time>2017-03-03T08:57:51Z</time>
      </trkpt>
      <trkpt lat="44.33606" lon="3.47321">
        <ele>522</ele>
        <time>2017-03-03T08:59:51Z</time>
      </trkpt>
      <trkpt lat="44.33616" lon="3.47288">
        <ele>522</ele>
        <time>2017-03-03T09:01:51Z</time>
      </trkpt>
      <trkpt lat="44.33625" lon="3.47258">
        <ele>521</ele>
        <time>2017-03-03T09:03:51Z</time>
      </trkpt>
      <trkpt lat="44.33634" lon="3.4723">
        <ele>519</ele>
        <time>2017-03-03T09:05:51Z</time>
      </trkpt>
      <trkpt lat="44.33639" lon="3.47209">
        <ele>518</ele>
        <time>2017-03-03T09:07:51Z</time>
      </trkpt>
      <trkpt lat="44.33642" lon="3.47181">
        <ele>519</ele>
        <time>2017-03-03T09:09:51Z</time>
      </trkpt>
      <trkpt lat="44.33648" lon="3.47135">
        <ele>520</ele>
        <time>2017-03-03T09:11:51Z</time>
      </trkpt>
      <trkpt lat="44.33652" lon="3.47095">
        <ele>521</ele>
        <time>2017-03-03T09:13:51Z</time>
      </trkpt>
      <trkpt lat="44.33657" lon="3.47064">
        <ele>522</ele>
        <time>2017-03-03T09:15:51Z</time>
      </trkpt>
      <trkpt lat="44.3366" lon="3.47049">
        <ele>522</ele>
        <time>2017-03-03T09:17:51Z</time>
      </trkpt>
      <trkpt lat="44.33667" lon="3.47028">
        <ele>521</ele>
        <time>2017-03-03T09:19:51Z</time>
      </trkpt>
      <trkpt lat="44.33674" lon="3.47008">
        <ele>520</ele>
        <time>2017-03-03T09:21:51Z</time>
      </trkpt>
      <trkpt lat="44.33679" lon="3.46987">
        <ele>522</ele>
        <time>2017-03-03T09:23:51Z</time>
      </trkpt>
      <trkpt lat="44.33689" lon="3.46946">
        <ele>528</ele>
        <time>2017-03-03T09:25:51Z</time>
      </trkpt>
      <trkpt lat="44.33695" lon="3.46929">
        <ele>528</ele>
        <time>2017-03-03T09:27:51Z</time>
      </trkpt>
      <trkpt lat="44.33702" lon="3.46916">
        <ele>527</ele>
        <time>2017-03-03T09:29:51Z</time>
      </trkpt>
      <trkpt lat="44.33708" lon="3.46906">
        <ele>528</ele>
        <time>2017-03-03T09:31:51Z</time>
      </trkpt>
      <trkpt lat="44.33717" lon="3.46895">
        <ele>527</ele>
        <time>2017-03-03T09:33:51Z</time>
      </trkpt>
      <trkpt lat="44.33724" lon="3.46888">
        <ele>526</ele>
        <time>2017-03-03T09:35:51Z</time>
      </trkpt>
      <trkpt lat="44.33734" lon="3.46884">
        <ele>522</ele>
        <time>2017-03-03T09:37:51Z</time>
      </trkpt>
      <trkpt lat="44.33748" lon="3.4688">
        <ele>516</ele>
        <time>2017-03-03T09:39:51Z</time>
      </trkpt>
      <trkpt lat="44.33753" lon="3.46879">
        <ele>514</ele>
        <time>2017-03-03T09:41:51Z</time>
      </trkpt>
      <trkpt lat="44.33757" lon="3.46877">
        <ele>514</ele>
        <time>2017-03-03T09:43:51Z</time>
      </trkpt>
      <trkpt lat="44.33759" lon="3.46875">
        <ele>514</ele>
        <time>2017-03-03T09:45:51Z</time>
      </trkpt>
      <trkpt lat="44.33761" lon="3.46874">
        <ele>514</ele>
        <time>2017-03-03T09:47:51Z</time>
      </trkpt>
      <trkpt lat="44.33762" lon="3.46871">
        <ele>515</ele>
        <time>2017-03-03T09:49:51Z</time>
      </trkpt>
      <trkpt lat="44.33764" lon="3.46869">
        <ele>515</ele>
        <time>2017-03-03T09:51:51Z</time>
      </trkpt>
      <trkpt lat="44.33766" lon="3.46864">
        <ele>516</ele>
        <time>2017-03-03T09:53:51Z</time>
      </trkpt>
      <trkpt lat="44.33769" lon="3.46855">
        <ele>518</ele>
        <time>2017-03-03T09:55:51Z</time>
      </trkpt>
      <trkpt lat="44.33775" lon="3.46845">
        <ele>519</ele>
        <time>2017-03-03T09:57:51Z</time>
      </trkpt>
      <trkpt lat="44.33782" lon="3.46836">
        <ele>518</ele>
        <time>2017-03-03T09:59:51Z</time>
      </trkpt>
      <trkpt lat="44.33788" lon="3.46829">
        <ele>517</ele>
        <time>2017-03-03T10:01:51Z</time>
      </trkpt>
      <trkpt lat="44.33796" lon="3.46818">
        <ele>517</ele>
        <time>2017-03-03T10:03:51Z</time>
      </trkpt>
      <trkpt lat="44.33802" lon="3.46807">
        <ele>518</ele>
        <time>2017-03-03T10:05:51Z</time>
      </trkpt>
      <trkpt lat="44.33809" lon="3.46798">
        <ele>517</ele>
        <time>2017-03-03T10:07:51Z</time>
      </trkpt>
      <trkpt lat="44.33816" lon="3.46793">
        <ele>514</ele>
        <time>2017-03-03T10:09:51Z</time>
      </trkpt>
      <trkpt lat="44.33837" lon="3.46783">
        <ele>506</ele>
        <time>2017-03-03T10:11:51Z</time>
      </trkpt>
      <trkpt lat="44.33851" lon="3.46775">
        <ele>503</ele>
        <time>2017-03-03T10:13:51Z</time>
      </trkpt>
      <trkpt lat="44.33858" lon="3.46767">
        <ele>503</ele>
        <time>2017-03-03T10:15:51Z</time>
      </trkpt>
      <trkpt lat="44.33864" lon="3.46759">
        <ele>502</ele>
        <time>2017-03-03T10:17:51Z</time>
      </trkpt>
      <trkpt lat="44.33869" lon="3.46742">
        <ele>503</ele>
        <time>2017-03-03T10:19:51Z</time>
      </trkpt>
      <trkpt lat="44.33873" lon="3.46729">
        <ele>503</ele>
        <time>2017-03-03T10:21:51Z</time>
      </trkpt>
      <trkpt lat="44.33873" lon="3.46719">
        <ele>504</ele>
        <time>2017-03-03T10:23:51Z</time>
      </trkpt>
      <trkpt lat="44.3387" lon="3.467">
        <ele>508</ele>
        <time>2017-03-03T10:25:51Z</time>
      </trkpt>
      <trkpt lat="44.33868" lon="3.46687">
        <ele>510</ele>
        <time>2017-03-03T10:27:51Z</time>
      </trkpt>
      <trkpt lat="44.33865" lon="3.46677">
        <ele>513</ele>
        <time>2017-03-03T10:29:51Z</time>
      </trkpt>
      <trkpt lat="44.33865" lon="3.46672">
        <ele>514</ele>
        <time>2017-03-03T10:31:51Z</time>
      </trkpt>
      <trkpt lat="44.33865" lon="3.46666">
        <ele>514</ele>
        <time>2017-03-03T10:33:51Z</time>
      </trkpt>
      <trkpt lat="44.33866" lon="3.4666">
        <ele>514</ele>
        <time>2017-03-03T10:35:51Z</time>
      </trkpt>
      <trkpt lat="44.33868" lon="3.46654">
        <ele>514</ele>
        <time>2017-03-03T10:37:51Z</time>
      </trkpt>
      <trkpt lat="44.3387" lon="3.46648">
        <ele>514</ele>
        <time>2017-03-03T10:39:51Z</time>
      </trkpt>
      <trkpt lat="44.33874" lon="3.46638">
        <ele>513</ele>
        <time>2017-03-03T10:41:51Z</time>
      </trkpt>
      <trkpt lat="44.33879" lon="3.46627">
        <ele>511</ele>
        <time>2017-03-03T10:43:51Z</time>
      </trkpt>
      <trkpt lat="44.33889" lon="3.46612">
        <ele>508</ele>
        <time>2017-03-03T10:45:51Z</time>
      </trkpt>
      <trkpt lat="44.33896" lon="3.46604">
        <ele>505</ele>
        <time>2017-03-03T10:47:51Z</time>
      </trkpt>
      <trkpt lat="44.33906" lon="3.46597">
        <ele>500</ele>
        <time>2017-03-03T10:49:51Z</time>
      </trkpt>
      <trkpt lat="44.33917" lon="3.4659">
        <ele>495</ele>
        <time>2017-03-03T10:51:51Z</time>
      </trkpt>
      <trkpt lat="44.33925" lon="3.46584">
        <ele>495</ele>
        <time>2017-03-03T10:53:51Z</time>
      </trkpt>
      <trkpt lat="44.3393" lon="3.4658">
        <ele>495</ele>
        <time>2017-03-03T10:55:51Z</time>
      </trkpt>
      <trkpt lat="44.33934" lon="3.46573">
        <ele>496</ele>
        <time>2017-03-03T10:57:51Z</time>
      </trkpt>
      <trkpt lat="44.33938" lon="3.46565">
        <ele>497</ele>
        <time>2017-03-03T10:59:51Z</time>
      </trkpt>
      <trkpt lat="44.33951" lon="3.4653">
        <ele>501</ele>
        <time>2017-03-03T11:01:51Z</time>
      </trkpt>
      <trkpt lat="44.33957" lon="3.46511">
        <ele>502</ele>
        <time>2017-03-03T11:03:51Z</time>
      </trkpt>
      <trkpt lat="44.33959" lon="3.465">
        <ele>504</ele>
        <time>2017-03-03T11:05:51Z</time>
      </trkpt>
      <trkpt lat="44.3396" lon="3.46501">
        <ele>503</ele>
        <time>2017-03-03T11:07:51Z</time>
      </trkpt>
      <trkpt lat="44.33981" lon="3.46459">
        <ele>506</ele>
        <time>2017-03-03T11:09:51Z</time>
      </trkpt>
      <trkpt lat="44.3407" lon="3.46433">
        <ele>490</ele>
        <time>2017-03-03T11:11:51Z</time>
      </trkpt>
      <trkpt lat="44.34093" lon="3.4641">
        <ele>488</ele>
        <time>2017-03-03T11:13:51Z</time>
      </trkpt>
      <trkpt lat="44.34074" lon="3.46383">
        <ele>493</ele>
        <time>2017-03-03T11:15:51Z</time>
      </trkpt>
      <trkpt lat="44.34084" lon="3.46331">
        <ele>496</ele>
        <time>2017-03-03T11:17:51Z</time>
      </trkpt>
      <trkpt lat="44.34111" lon="3.46322">
        <ele>505</ele>
        <time>2017-03-03T11:19:51Z</time>
      </trkpt>
      <trkpt lat="44.34111" lon="3.4632">
        <ele>506</ele>
        <time>2017-03-03T11:21:51Z</time>
      </trkpt>
      <trkpt lat="44.34117" lon="3.46318">
        <ele>508</ele>
        <time>2017-03-03T11:23:51Z</time>
      </trkpt>
      <trkpt lat="44.34122" lon="3.46317">
        <ele>509</ele>
        <time>2017-03-03T11:25:51Z</time>
      </trkpt>
      <trkpt lat="44.34135" lon="3.46319">
        <ele>511</ele>
        <time>2017-03-03T11:27:51Z</time>
      </trkpt>
      <trkpt lat="44.34145" lon="3.46323">
        <ele>511</ele>
        <time>2017-03-03T11:29:51Z</time>
      </trkpt>
      <trkpt lat="44.34147" lon="3.46326">
        <ele>510</ele>
        <time>2017-03-03T11:31:51Z</time>
      </trkpt>
      <trkpt lat="44.34149" lon="3.46329">
        <ele>509</ele>
        <time>2017-03-03T11:33:51Z</time>
      </trkpt>
      <trkpt lat="44.34149" lon="3.46331">
        <ele>508</ele>
        <time>2017-03-03T11:35:51Z</time>
      </trkpt>
      <trkpt lat="44.34149" lon="3.46333">
        <ele>507</ele>
        <time>2017-03-03T11:37:51Z</time>
      </trkpt>
      <trkpt lat="44.3415" lon="3.46334">
        <ele>507</ele>
        <time>2017-03-03T11:39:51Z</time>
      </trkpt>
      <trkpt lat="44.34152" lon="3.46334">
        <ele>507</ele>
        <time>2017-03-03T11:41:51Z</time>
      </trkpt>
      <trkpt lat="44.34155" lon="3.46334">
        <ele>508</ele>
        <time>2017-03-03T11:43:51Z</time>
      </trkpt>
      <trkpt lat="44.3416" lon="3.46335">
        <ele>508</ele>
        <time>2017-03-03T11:45:51Z</time>
      </trkpt>
      <trkpt lat="44.34166" lon="3.46338">
        <ele>508</ele>
        <time>2017-03-03T11:47:51Z</time>
      </trkpt>
      <trkpt lat="44.34168" lon="3.46341">
        <ele>508</ele>
        <time>2017-03-03T11:49:51Z</time>
      </trkpt>
      <trkpt lat="44.34171" lon="3.46346">
        <ele>507</ele>
        <time>2017-03-03T11:51:51Z</time>
      </trkpt>
      <trkpt lat="44.34172" lon="3.46352">
        <ele>505</ele>
        <time>2017-03-03T11:53:51Z</time>
      </trkpt>
      <trkpt lat="44.34177" lon="3.46359">
        <ele>503</ele>
        <time>2017-03-03T11:55:51Z</time>
      </trkpt>
      <trkpt lat="44.34178" lon="3.4636">
        <ele>503</ele>
        <time>2017-03-03T11:57:51Z</time>
      </trkpt>
      <trkpt lat="44.34179" lon="3.4636">
        <ele>503</ele>
        <time>2017-03-03T11:59:51Z</time>
      </trkpt>
      <trkpt lat="44.3418" lon="3.4636">
        <ele>503</ele>
        <time>2017-03-03T12:01:51Z</time>
      </trkpt>
      <trkpt lat="44.3418" lon="3.46358">
        <ele>504</ele>
        <time>2017-03-03T12:03:51Z</time>
      </trkpt>
      <trkpt lat="44.3418" lon="3.46357">
        <ele>504</ele>
        <time>2017-03-03T12:05:51Z</time>
      </trkpt>
      <trkpt lat="44.3418" lon="3.46335">
        <ele>512</ele>
        <time>2017-03-03T12:07:51Z</time>
      </trkpt>
      <trkpt lat="44.3418" lon="3.46334">
        <ele>512</ele>
        <time>2017-03-03T12:09:51Z</time>
      </trkpt>
      <trkpt lat="44.34181" lon="3.46333">
        <ele>513</ele>
        <time>2017-03-03T12:11:51Z</time>
      </trkpt>
      <trkpt lat="44.34183" lon="3.46333">
        <ele>513</ele>
        <time>2017-03-03T12:13:51Z</time>
      </trkpt>
      <trkpt lat="44.34183" lon="3.46334">
        <ele>513</ele>
        <time>2017-03-03T12:15:51Z</time>
      </trkpt>
      <trkpt lat="44.34185" lon="3.46336">
        <ele>512</ele>
        <time>2017-03-03T12:17:51Z</time>
      </trkpt>
      <trkpt lat="44.34187" lon="3.46339">
        <ele>511</ele>
        <time>2017-03-03T12:19:51Z</time>
      </trkpt>
      <trkpt lat="44.34192" lon="3.46344">
        <ele>510</ele>
        <time>2017-03-03T12:21:51Z</time>
      </trkpt>
      <trkpt lat="44.34201" lon="3.46347">
        <ele>511</ele>
        <time>2017-03-03T12:23:51Z</time>
      </trkpt>
      <trkpt lat="44.34222" lon="3.46342">
        <ele>516</ele>
        <time>2017-03-03T12:25:51Z</time>
      </trkpt>
      <trkpt lat="44.34223" lon="3.46341">
        <ele>516</ele>
        <time>2017-03-03T12:27:51Z</time>
      </trkpt>
      <trkpt lat="44.34223" lon="3.46339">
        <ele>517</ele>
        <time>2017-03-03T12:29:51Z</time>
      </trkpt>
      <trkpt lat="44.34221" lon="3.46336">
        <ele>518</ele>
        <time>2017-03-03T12:31:51Z</time>
      </trkpt>
      <trkpt lat="44.34212" lon="3.4633">
        <ele>519</ele>
        <time>2017-03-03T12:33:51Z</time>
      </trkpt>
      <trkpt lat="44.34201" lon="3.4632">
        <ele>522</ele>
        <time>2017-03-03T12:35:51Z</time>
      </trkpt>
      <trkpt lat="44.342" lon="3.46319">
        <ele>522</ele>
        <time>2017-03-03T12:37:51Z</time>
      </trkpt>
      <trkpt lat="44.34201" lon="3.46317">
        <ele>523</ele>
        <time>2017-03-03T12:39:51Z</time>
      </trkpt>
      <trkpt lat="44.34201" lon="3.46316">
        <ele>524</ele>
        <time>2017-03-03T12:41:51Z</time>
      </trkpt>
      <trkpt lat="44.34203" lon="3.46315">
        <ele>525</ele>
        <time>2017-03-03T12:43:51Z</time>
      </trkpt>
      <trkpt lat="44.34204" lon="3.46315">
        <ele>525</ele>
        <time>2017-03-03T12:45:51Z</time>
      </trkpt>
      <trkpt lat="44.34206" lon="3.46316">
        <ele>525</ele>
        <time>2017-03-03T12:47:51Z</time>
      </trkpt>
      <trkpt lat="44.34212" lon="3.46318">
        <ele>525</ele>
        <time>2017-03-03T12:49:51Z</time>
      </trkpt>
      <trkpt lat="44.34234" lon="3.46312">
        <ele>531</ele>
        <time>2017-03-03T12:51:51Z</time>
      </trkpt>
      <trkpt lat="44.34261" lon="3.46296">
        <ele>541</ele>
        <time>2017-03-03T12:53:51Z</time>
      </trkpt>
      <trkpt lat="44.34288" lon="3.46274">
        <ele>550</ele>
        <time>2017-03-03T12:55:51Z</time>
      </trkpt>
      <trkpt lat="44.34308" lon="3.46254">
        <ele>559</ele>
        <time>2017-03-03T12:57:51Z</time>
      </trkpt>
      <trkpt lat="44.34324" lon="3.46244">
        <ele>563</ele>
        <time>2017-03-03T12:59:51Z</time>
      </trkpt>
      <trkpt lat="44.34324" lon="3.46243">
        <ele>563</ele>
        <time>2017-03-03T13:01:51Z</time>
      </trkpt>
      <trkpt lat="44.34324" lon="3.46242">
        <ele>564</ele>
        <time>2017-03-03T13:03:51Z</time>
      </trkpt>
      <trkpt lat="44.34323" lon="3.46241">
        <ele>564</ele>
        <time>2017-03-03T13:05:51Z</time>
      </trkpt>
      <trkpt lat="44.34318" lon="3.46241">
        <ele>565</ele>
        <time>2017-03-03T13:07:51Z</time>
      </trkpt>
      <trkpt lat="44.34311" lon="3.46241">
        <ele>565</ele>
        <time>2017-03-03T13:09:51Z</time>
      </trkpt>
      <trkpt lat="44.34287" lon="3.46252">
        <ele>561</ele>
        <time>2017-03-03T13:11:51Z</time>
      </trkpt>
      <trkpt lat="44.34259" lon="3.46256">
        <ele>561</ele>
        <time>2017-03-03T13:13:51Z</time>
      </trkpt>
      <trkpt lat="44.34234" lon="3.46258">
        <ele>557</ele>
        <time>2017-03-03T13:15:51Z</time>
      </trkpt>
      <trkpt lat="44.34232" lon="3.46258">
        <ele>557</ele>
        <time>2017-03-03T13:17:51Z</time>
      </trkpt>
      <trkpt lat="44.3423" lon="3.46257">
        <ele>557</ele>
        <time>2017-03-03T13:19:51Z</time>
      </trkpt>
      <trkpt lat="44.34228" lon="3.46255">
        <ele>557</ele>
        <time>2017-03-03T13:21:51Z</time>
      </trkpt>
      <trkpt lat="44.34229" lon="3.46253">
        <ele>558</ele>
        <time>2017-03-03T13:23:51Z</time>
      </trkpt>
      <trkpt lat="44.34231" lon="3.46252">
        <ele>559</ele>
        <time>2017-03-03T13:25:51Z</time>
      </trkpt>
      <trkpt lat="44.34233" lon="3.46251">
        <ele>560</ele>
        <time>2017-03-03T13:27:51Z</time>
      </trkpt>
      <trkpt lat="44.34248" lon="3.46248">
        <ele>565</ele>
        <time>2017-03-03T13:29:51Z</time>
      </trkpt>
      <trkpt lat="44.34265" lon="3.46241">
        <ele>567</ele>
        <time>2017-03-03T13:31:51Z</time>
      </trkpt>
      <trkpt lat="44.34292" lon="3.46227">
        <ele>573</ele>
        <time>2017-03-03T13:33:51Z</time>
      </trkpt>
      <trkpt lat="44.34315" lon="3.4621">
        <ele>581</ele>
        <time>2017-03-03T13:35:51Z</time>
      </trkpt>
      <trkpt lat="44.3432" lon="3.46209">
        <ele>581</ele>
        <time>2017-03-03T13:37:51Z</time>
      </trkpt>
      <trkpt lat="44.34327" lon="3.46209">
        <ele>581</ele>
        <time>2017-03-03T13:39:51Z</time>
      </trkpt>
      <trkpt lat="44.34355" lon="3.46215">
        <ele>573</ele>
        <time>2017-03-03T13:41:51Z</time>
      </trkpt>
      <trkpt lat="44.34358" lon="3.46214">
        <ele>573</ele>
        <time>2017-03-03T13:43:51Z</time>
      </trkpt>
      <trkpt lat="44.34363" lon="3.4621">
        <ele>574</ele>
        <time>2017-03-03T13:45:51Z</time>
      </trkpt>
      <trkpt lat="44.34392" lon="3.46183">
        <ele>583</ele>
        <time>2017-03-03T13:47:51Z</time>
      </trkpt>
      <trkpt lat="44.34455" lon="3.46118">
        <ele>596</ele>
        <time>2017-03-03T13:49:51Z</time>
      </trkpt>
      <trkpt lat="44.34499" lon="3.46064">
        <ele>602</ele>
        <time>2017-03-03T13:51:51Z</time>
      </trkpt>
      <trkpt lat="44.34536" lon="3.46023">
        <ele>605</ele>
        <time>2017-03-03T13:53:51Z</time>
      </trkpt>
      <trkpt lat="44.34567" lon="3.45979">
        <ele>611</ele>
        <time>2017-03-03T13:55:51Z</time>
      </trkpt>
      <trkpt lat="44.34601" lon="3.45924">
        <ele>618</ele>
        <time>2017-03-03T13:57:51Z</time>
      </trkpt>
      <trkpt lat="44.34613" lon="3.45896">
        <ele>620</ele>
        <time>2017-03-03T13:59:51Z</time>
      </trkpt>
      <trkpt lat="44.34621" lon="3.45874">
        <ele>621</ele>
        <time>2017-03-03T14:01:51Z</time>
      </trkpt>
      <trkpt lat="44.34625" lon="3.45846">
        <ele>627</ele>
        <time>2017-03-03T14:03:51Z</time>
      </trkpt>
      <trkpt lat="44.34626" lon="3.45809">
        <ele>629</ele>
        <time>2017-03-03T14:05:51Z</time>
      </trkpt>
      <trkpt lat="44.34621" lon="3.45775">
        <ele>631</ele>
        <time>2017-03-03T14:07:51Z</time>
      </trkpt>
      <trkpt lat="44.34611" lon="3.45739">
        <ele>635</ele>
        <time>2017-03-03T14:09:51Z</time>
      </trkpt>
      <trkpt lat="44.34598" lon="3.45709">
        <ele>639</ele>
        <time>2017-03-03T14:11:51Z</time>
      </trkpt>
      <trkpt lat="44.34579" lon="3.45679">
        <ele>647</ele>
        <time>2017-03-03T14:13:51Z</time>
      </trkpt>
      <trkpt lat="44.34569" lon="3.45662">
        <ele>652</ele>
        <time>2017-03-03T14:15:51Z</time>
      </trkpt>
      <trkpt lat="44.3456" lon="3.45627">
        <ele>657</ele>
        <time>2017-03-03T14:17:51Z</time>
      </trkpt>
      <trkpt lat="44.34556" lon="3.45603">
        <ele>658</ele>
        <time>2017-03-03T14:19:51Z</time>
      </trkpt>
      <trkpt lat="44.34558" lon="3.45578">
        <ele>656</ele>
        <time>2017-03-03T14:21:51Z</time>
      </trkpt>
      <trkpt lat="44.34564" lon="3.45539">
        <ele>654</ele>
        <time>2017-03-03T14:23:51Z</time>
      </trkpt>
      <trkpt lat="44.34571" lon="3.45501">
        <ele>653</ele>
        <time>2017-03-03T14:25:51Z</time>
      </trkpt>
      <trkpt lat="44.34573" lon="3.45453">
        <ele>661</ele>
        <time>2017-03-03T14:27:51Z</time>
      </trkpt>
      <trkpt lat="44.34574" lon="3.45422">
        <ele>667</ele>
        <time>2017-03-03T14:29:51Z</time>
      </trkpt>
      <trkpt lat="44.34574" lon="3.45409">
        <ele>670</ele>
        <time>2017-03-03T14:31:51Z</time>
      </trkpt>
      <trkpt lat="44.34576" lon="3.45401">
        <ele>671</ele>
        <time>2017-03-03T14:33:51Z</time>
      </trkpt>
      <trkpt lat="44.34578" lon="3.45394">
        <ele>672</ele>
        <time>2017-03-03T14:35:51Z</time>
      </trkpt>
      <trkpt lat="44.34579" lon="3.45387">
        <ele>673</ele>
        <time>2017-03-03T14:37:51Z</time>
      </trkpt>
      <trkpt lat="44.3458" lon="3.45383">
        <ele>674</ele>
        <time>2017-03-03T14:39:51Z</time>
      </trkpt>
      <trkpt lat="44.3458" lon="3.4538">
        <ele>674</ele>
        <time>2017-03-03T14:41:51Z</time>
      </trkpt>
      <trkpt lat="44.34578" lon="3.45377">
        <ele>676</ele>
        <time>2017-03-03T14:43:51Z</time>
      </trkpt>
      <trkpt lat="44.34576" lon="3.45376">
        <ele>677</ele>
        <time>2017-03-03T14:45:51Z</time>
      </trkpt>
      <trkpt lat="44.34574" lon="3.45377">
        <ele>678</ele>
        <time>2017-03-03T14:47:51Z</time>
      </trkpt>
      <trkpt lat="44.34573" lon="3.45378">
        <ele>678</ele>
        <time>2017-03-03T14:49:51Z</time>
      </trkpt>
      <trkpt lat="44.34572" lon="3.4538">
        <ele>678</ele>
        <time>2017-03-03T14:51:51Z</time>
      </trkpt>
      <trkpt lat="44.34571" lon="3.45381">
        <ele>678</ele>
        <time>2017-03-03T14:53:51Z</time>
      </trkpt>
      <trkpt lat="44.34562" lon="3.45402">
        <ele>677</ele>
        <time>2017-03-03T14:55:51Z</time>
      </trkpt>
      <trkpt lat="44.34549" lon="3.45456">
        <ele>675</ele>
        <time>2017-03-03T14:57:51Z</time>
      </trkpt>
      <trkpt lat="44.34531" lon="3.45522">
        <ele>680</ele>
        <time>2017-03-03T14:59:51Z</time>
      </trkpt>
      <trkpt lat="44.3452" lon="3.45574">
        <ele>686</ele>
        <time>2017-03-03T15:01:51Z</time>
      </trkpt>
      <trkpt lat="44.34516" lon="3.45611">
        <ele>690</ele>
        <time>2017-03-03T15:03:51Z</time>
      </trkpt>
      <trkpt lat="44.34516" lon="3.45654">
        <ele>692</ele>
        <time>2017-03-03T15:05:51Z</time>
      </trkpt>
      <trkpt lat="44.34519" lon="3.45705">
        <ele>695</ele>
        <time>2017-03-03T15:07:51Z</time>
      </trkpt>
      <trkpt lat="44.3452" lon="3.4571">
        <ele>695</ele>
        <time>2017-03-03T15:09:51Z</time>
      </trkpt>
      <trkpt lat="44.34524" lon="3.45724">
        <ele>694</ele>
        <time>2017-03-03T15:11:51Z</time>
      </trkpt>
      <trkpt lat="44.34528" lon="3.45737">
        <ele>692</ele>
        <time>2017-03-03T15:13:51Z</time>
      </trkpt>
      <trkpt lat="44.34528" lon="3.45764">
        <ele>693</ele>
        <time>2017-03-03T15:15:51Z</time>
      </trkpt>
      <trkpt lat="44.34528" lon="3.45793">
        <ele>691</ele>
        <time>2017-03-03T15:17:51Z</time>
      </trkpt>
      <trkpt lat="44.34526" lon="3.45807">
        <ele>691</ele>
        <time>2017-03-03T15:19:51Z</time>
      </trkpt>
      <trkpt lat="44.34521" lon="3.45819">
        <ele>694</ele>
        <time>2017-03-03T15:21:51Z</time>
      </trkpt>
      <trkpt lat="44.34517" lon="3.45826">
        <ele>696</ele>
        <time>2017-03-03T15:23:51Z</time>
      </trkpt>
      <trkpt lat="44.34503" lon="3.45836">
        <ele>702</ele>
        <time>2017-03-03T15:25:51Z</time>
      </trkpt>
      <trkpt lat="44.34475" lon="3.4585">
        <ele>710</ele>
        <time>2017-03-03T15:27:51Z</time>
      </trkpt>
      <trkpt lat="44.34454" lon="3.45867">
        <ele>713</ele>
        <time>2017-03-03T15:29:51Z</time>
      </trkpt>
      <trkpt lat="44.34427" lon="3.45884">
        <ele>718</ele>
        <time>2017-03-03T15:31:51Z</time>
      </trkpt>
      <trkpt lat="44.344" lon="3.45896">
        <ele>721</ele>
        <time>2017-03-03T15:33:51Z</time>
      </trkpt>
      <trkpt lat="44.34366" lon="3.45905">
        <ele>726</ele>
        <time>2017-03-03T15:35:51Z</time>
      </trkpt>
      <trkpt lat="44.34336" lon="3.45912">
        <ele>730</ele>
        <time>2017-03-03T15:37:51Z</time>
      </trkpt>
      <trkpt lat="44.34305" lon="3.45915">
        <ele>730</ele>
        <time>2017-03-03T15:39:51Z</time>
      </trkpt>
      <trkpt lat="44.343" lon="3.45914">
        <ele>731</ele>
        <time>2017-03-03T15:41:51Z</time>
      </trkpt>
      <trkpt lat="44.34292" lon="3.45912">
        <ele>732</ele>
        <time>2017-03-03T15:43:51Z</time>
      </trkpt>
      <trkpt lat="44.34287" lon="3.45912">
        <ele>732</ele>
        <time>2017-03-03T15:45:51Z</time>
      </trkpt>
      <trkpt lat="44.34274" lon="3.45913">
        <ele>732</ele>
        <time>2017-03-03T15:47:51Z</time>
      </trkpt>
      <trkpt lat="44.34241" lon="3.45911">
        <ele>732</ele>
        <time>2017-03-03T15:49:51Z</time>
      </trkpt>
      <trkpt lat="44.34206" lon="3.45906">
        <ele>730</ele>
        <time>2017-03-03T15:51:51Z</time>
      </trkpt>
      <trkpt lat="44.34175" lon="3.45897">
        <ele>730</ele>
        <time>2017-03-03T15:53:51Z</time>
      </trkpt>
      <trkpt lat="44.3415" lon="3.45881">
        <ele>731</ele>
        <time>2017-03-03T15:55:51Z</time>
      </trkpt>
      <trkpt lat="44.34129" lon="3.45864">
        <ele>731</ele>
        <time>2017-03-03T15:57:51Z</time>
      </trkpt>
      <trkpt lat="44.34119" lon="3.4585">
        <ele>733</ele>
        <time>2017-03-03T15:59:51Z</time>
      </trkpt>
      <trkpt lat="44.34104" lon="3.45815">
        <ele>742</ele>
        <time>2017-03-03T16:01:51Z</time>
      </trkpt>
      <trkpt lat="44.34087" lon="3.45773">
        <ele>751</ele>
        <time>2017-03-03T16:03:51Z</time>
      </trkpt>
      <trkpt lat="44.34071" lon="3.45747">
        <ele>756</ele>
        <time>2017-03-03T16:05:51Z</time>
      </trkpt>
      <trkpt lat="44.3405" lon="3.45723">
        <ele>759</ele>
        <time>2017-03-03T16:07:51Z</time>
      </trkpt>
      <trkpt lat="44.34018" lon="3.45692">
        <ele>762</ele>
        <time>2017-03-03T16:09:51Z</time>
      </trkpt>
      <trkpt lat="44.34004" lon="3.45677">
        <ele>765</ele>
        <time>2017-03-03T16:11:51Z</time>
      </trkpt>
      <trkpt lat="44.33997" lon="3.45655">
        <ele>773</ele>
        <time>2017-03-03T16:13:51Z</time>
      </trkpt>
      <trkpt lat="44.33989" lon="3.45636">
        <ele>781</ele>
        <time>2017-03-03T16:15:51Z</time>
      </trkpt>
      <trkpt lat="44.33986" lon="3.45633">
        <ele>782</ele>
        <time>2017-03-03T16:17:51Z</time>
      </trkpt>
      <trkpt lat="44.33986" lon="3.45632">
        <ele>783</ele>
        <time>2017-03-03T16:19:51Z</time>
      </trkpt>
      <trkpt lat="44.33983" lon="3.45631">
        <ele>784</ele>
        <time>2017-03-03T16:21:51Z</time>
      </trkpt>
      <trkpt lat="44.33975" lon="3.45633">
        <ele>784</ele>
        <time>2017-03-03T16:23:51Z</time>
      </trkpt>
      <trkpt lat="44.33941" lon="3.45657">
        <ele>780</ele>
        <time>2017-03-03T16:25:51Z</time>
      </trkpt>
      <trkpt lat="44.33932" lon="3.45662">
        <ele>780</ele>
        <time>2017-03-03T16:27:51Z</time>
      </trkpt>
      <trkpt lat="44.33921" lon="3.45662">
        <ele>781</ele>
        <time>2017-03-03T16:29:51Z</time>
      </trkpt>
      <trkpt lat="44.33904" lon="3.45654">
        <ele>790</ele>
        <time>2017-03-03T16:31:51Z</time>
      </trkpt>
      <trkpt lat="44.33898" lon="3.45653">
        <ele>793</ele>
        <time>2017-03-03T16:33:51Z</time>
      </trkpt>
      <trkpt lat="44.33896" lon="3.45653">
        <ele>793</ele>
        <time>2017-03-03T16:35:51Z</time>
      </trkpt>
      <trkpt lat="44.3389" lon="3.45656">
        <ele>795</ele>
        <time>2017-03-03T16:37:51Z</time>
      </trkpt>
      <trkpt lat="44.33888" lon="3.4566">
        <ele>794</ele>
        <time>2017-03-03T16:39:51Z</time>
      </trkpt>
      <trkpt lat="44.33881" lon="3.45684">
        <ele>789</ele>
        <time>2017-03-03T16:41:51Z</time>
      </trkpt>
      <trkpt lat="44.33874" lon="3.45694">
        <ele>788</ele>
        <time>2017-03-03T16:43:51Z</time>
      </trkpt>
      <trkpt lat="44.33867" lon="3.45699">
        <ele>790</ele>
        <time>2017-03-03T16:45:51Z</time>
      </trkpt>
      <trkpt lat="44.33842" lon="3.45705">
        <ele>799</ele>
        <time>2017-03-03T16:47:51Z</time>
      </trkpt>
      <trkpt lat="44.33833" lon="3.45707">
        <ele>803</ele>
        <time>2017-03-03T16:49:51Z</time>
      </trkpt>
      <trkpt lat="44.33831" lon="3.4571">
        <ele>803</ele>
        <time>2017-03-03T16:51:51Z</time>
      </trkpt>
      <trkpt lat="44.33828" lon="3.45716">
        <ele>803</ele>
        <time>2017-03-03T16:53:51Z</time>
      </trkpt>
      <trkpt lat="44.33827" lon="3.4575">
        <ele>794</ele>
        <time>2017-03-03T16:55:51Z</time>
      </trkpt>
      <trkpt lat="44.33828" lon="3.45773">
        <ele>789</ele>
        <time>2017-03-03T16:57:51Z</time>
      </trkpt>
      <trkpt lat="44.33826" lon="3.45785">
        <ele>787</ele>
        <time>2017-03-03T16:59:51Z</time>
      </trkpt>
      <trkpt lat="44.33817" lon="3.45801">
        <ele>787</ele>
        <time>2017-03-03T17:01:51Z</time>
      </trkpt>
      <trkpt lat="44.33791" lon="3.45826">
        <ele>789</ele>
        <time>2017-03-03T17:03:51Z</time>
      </trkpt>
      <trkpt lat="44.33771" lon="3.45838">
        <ele>790</ele>
        <time>2017-03-03T17:05:51Z</time>
      </trkpt>
      <trkpt lat="44.33741" lon="3.45847">
        <ele>793</ele>
        <time>2017-03-03T17:07:51Z</time>
      </trkpt>
      <trkpt lat="44.33723" lon="3.45844">
        <ele>796</ele>
        <time>2017-03-03T17:09:51Z</time>
      </trkpt>
      <trkpt lat="44.33707" lon="3.45832">
        <ele>803</ele>
        <time>2017-03-03T17:11:51Z</time>
      </trkpt>
      <trkpt lat="44.33687" lon="3.45811">
        <ele>814</ele>
        <time>2017-03-03T17:13:51Z</time>
      </trkpt>
      <trkpt lat="44.3367" lon="3.45799">
        <ele>821</ele>
        <time>2017-03-03T17:15:51Z</time>
      </trkpt>
      <trkpt lat="44.33665" lon="3.458">
        <ele>822</ele>
        <time>2017-03-03T17:17:51Z</time>
      </trkpt>
      <trkpt lat="44.3364" lon="3.45811">
        <ele>825</ele>
        <time>2017-03-03T17:19:51Z</time>
      </trkpt>
      <trkpt lat="44.33607" lon="3.45826">
        <ele>832</ele>
        <time>2017-03-03T17:21:51Z</time>
      </trkpt>
      <trkpt lat="44.33605" lon="3.45828">
        <ele>832</ele>
        <time>2017-03-03T17:23:51Z</time>
      </trkpt>
      <trkpt lat="44.33604" lon="3.45832">
        <ele>830</ele>
        <time>2017-03-03T17:25:51Z</time>
      </trkpt>
      <trkpt lat="44.336" lon="3.45856">
        <ele>828</ele>
        <time>2017-03-03T17:27:51Z</time>
      </trkpt>
      <trkpt lat="44.33596" lon="3.45872">
        <ele>827</ele>
        <time>2017-03-03T17:29:51Z</time>
      </trkpt>
      <trkpt lat="44.33587" lon="3.45892">
        <ele>829</ele>
        <time>2017-03-03T17:31:51Z</time>
      </trkpt>
      <trkpt lat="44.33583" lon="3.45899">
        <ele>830</ele>
        <time>2017-03-03T17:33:51Z</time>
      </trkpt>
      <trkpt lat="44.33582" lon="3.45904">
        <ele>830</ele>
        <time>2017-03-03T17:35:51Z</time>
      </trkpt>
      <trkpt lat="44.33583" lon="3.45908">
        <ele>829</ele>
        <time>2017-03-03T17:37:51Z</time>
      </trkpt>
      <trkpt lat="44.33586" lon="3.45928">
        <ele>826</ele>
        <time>2017-03-03T17:39:51Z</time>
      </trkpt>
      <trkpt lat="44.33588" lon="3.45948">
        <ele>825</ele>
        <time>2017-03-03T17:41:51Z</time>
      </trkpt>
      <trkpt lat="44.33587" lon="3.45969">
        <ele>825</ele>
        <time>2017-03-03T17:43:51Z</time>
      </trkpt>
      <trkpt lat="44.33583" lon="3.45996">
        <ele>827</ele>
        <time>2017-03-03T17:45:51Z</time>
      </trkpt>
      <trkpt lat="44.33573" lon="3.46025">
        <ele>830</ele>
        <time>2017-03-03T17:47:51Z</time>
      </trkpt>
      <trkpt lat="44.33559" lon="3.46055">
        <ele>834</ele>
        <time>2017-03-03T17:49:51Z</time>
      </trkpt>
      <trkpt lat="44.33537" lon="3.46082">
        <ele>842</ele>
        <time>2017-03-03T17:51:51Z</time>
      </trkpt>
      <trkpt lat="44.33517" lon="3.46112">
        <ele>841</ele>
        <time>2017-03-03T17:53:51Z</time>
      </trkpt>
      <trkpt lat="44.33497" lon="3.4614">
        <ele>840</ele>
        <time>2017-03-03T17:55:51Z</time>
      </trkpt>
      <trkpt lat="44.33474" lon="3.46162">
        <ele>844</ele>
        <time>2017-03-03T17:57:51Z</time>
      </trkpt>
      <trkpt lat="44.3345" lon="3.46184">
        <ele>852</ele>
        <time>2017-03-03T17:59:51Z</time>
      </trkpt>
      <trkpt lat="44.3343" lon="3.46209">
        <ele>857</ele>
        <time>2017-03-03T18:01:51Z</time>
      </trkpt>
      <trkpt lat="44.33406" lon="3.46243">
        <ele>859</ele>
        <time>2017-03-03T18:03:51Z</time>
      </trkpt>
      <trkpt lat="44.33397" lon="3.46261">
        <ele>860</ele>
        <time>2017-03-03T18:05:51Z</time>
      </trkpt>
      <trkpt lat="44.33396" lon="3.46276">
        <ele>860</ele>
        <time>2017-03-03T18:07:51Z</time>
      </trkpt>
      <trkpt lat="44.33397" lon="3.46281">
        <ele>859</ele>
        <time>2017-03-03T18:09:51Z</time>
      </trkpt>
      <trkpt lat="44.334" lon="3.46284">
        <ele>858</ele>
        <time>2017-03-03T18:11:51Z</time>
      </trkpt>
      <trkpt lat="44.33413" lon="3.46289">
        <ele>853</ele>
        <time>2017-03-03T18:13:51Z</time>
      </trkpt>
      <trkpt lat="44.33422" lon="3.46294">
        <ele>848</ele>
        <time>2017-03-03T18:15:51Z</time>
      </trkpt>
      <trkpt lat="44.33427" lon="3.46302">
        <ele>845</ele>
        <time>2017-03-03T18:17:51Z</time>
      </trkpt>
      <trkpt lat="44.33429" lon="3.46316">
        <ele>843</ele>
        <time>2017-03-03T18:19:51Z</time>
      </trkpt>
      <trkpt lat="44.33427" lon="3.46347">
        <ele>843</ele>
        <time>2017-03-03T18:21:51Z</time>
      </trkpt>
      <trkpt lat="44.33422" lon="3.46371">
        <ele>844</ele>
        <time>2017-03-03T18:23:51Z</time>
      </trkpt>
      <trkpt lat="44.33407" lon="3.46414">
        <ele>849</ele>
        <time>2017-03-03T18:25:51Z</time>
      </trkpt>
      <trkpt lat="44.33394" lon="3.4644">
        <ele>851</ele>
        <time>2017-03-03T18:27:51Z</time>
      </trkpt>
      <trkpt lat="44.33384" lon="3.4645">
        <ele>854</ele>
        <time>2017-03-03T18:29:51Z</time>
      </trkpt>
      <trkpt lat="44.33378" lon="3.46451">
        <ele>857</ele>
        <time>2017-03-03T18:31:51Z</time>
      </trkpt>
      <trkpt lat="44.33376" lon="3.46449">
        <ele>858</ele>
        <time>2017-03-03T18:33:51Z</time>
      </trkpt>
      <trkpt lat="44.33376" lon="3.46449">
        <ele>858</ele>
        <time>2017-03-03T18:35:51Z</time>
      </trkpt>
      <trkpt lat="44.33375" lon="3.46444">
        <ele>860</ele>
        <time>2017-03-03T18:37:51Z</time>
      </trkpt>
      <trkpt lat="44.33377" lon="3.46438">
        <ele>860</ele>
        <time>2017-03-03T18:39:51Z</time>
      </trkpt>
      <trkpt lat="44.33385" lon="3.46425">
        <ele>859</ele>
        <time>2017-03-03T18:41:51Z</time>
      </trkpt>
      <trkpt lat="44.33395" lon="3.46406">
        <ele>856</ele>
        <time>2017-03-03T18:43:51Z</time>
      </trkpt>
      <trkpt lat="44.33399" lon="3.46385">
        <ele>855</ele>
        <time>2017-03-03T18:45:51Z</time>
      </trkpt>
      <trkpt lat="44.33403" lon="3.46355">
        <ele>854</ele>
        <time>2017-03-03T18:47:51Z</time>
      </trkpt>
      <trkpt lat="44.33402" lon="3.4634">
        <ele>856</ele>
        <time>2017-03-03T18:49:51Z</time>
      </trkpt>
      <trkpt lat="44.33398" lon="3.46332">
        <ele>858</ele>
        <time>2017-03-03T18:51:51Z</time>
      </trkpt>
      <trkpt lat="44.33391" lon="3.46328">
        <ele>861</ele>
        <time>2017-03-03T18:53:51Z</time>
      </trkpt>
      <trkpt lat="44.33379" lon="3.46328">
        <ele>865</ele>
        <time>2017-03-03T18:55:51Z</time>
      </trkpt>
      <trkpt lat="44.3337" lon="3.46323">
        <ele>869</ele>
        <time>2017-03-03T18:57:51Z</time>
      </trkpt>
      <trkpt lat="44.3336" lon="3.46308">
        <ele>873</ele>
        <time>2017-03-03T18:59:51Z</time>
      </trkpt>
      <trkpt lat="44.33352" lon="3.46296">
        <ele>875</ele>
        <time>2017-03-03T19:01:51Z</time>
      </trkpt>
      <trkpt lat="44.3334" lon="3.46286">
        <ele>879</ele>
        <time>2017-03-03T19:03:51Z</time>
      </trkpt>
      <trkpt lat="44.33307" lon="3.46258">
        <ele>888</ele>
        <time>2017-03-03T19:05:51Z</time>
      </trkpt>
      <trkpt lat="44.333" lon="3.46248">
        <ele>890</ele>
        <time>2017-03-03T19:07:51Z</time>
      </trkpt>
      <trkpt lat="44.33297" lon="3.46238">
        <ele>893</ele>
        <time>2017-03-03T19:09:51Z</time>
      </trkpt>
      <trkpt lat="44.33299" lon="3.46228">
        <ele>895</ele>
        <time>2017-03-03T19:11:51Z</time>
      </trkpt>
      <trkpt lat="44.33303" lon="3.4622">
        <ele>895</ele>
        <time>2017-03-03T19:13:51Z</time>
      </trkpt>
      <trkpt lat="44.3331" lon="3.46215">
        <ele>894</ele>
        <time>2017-03-03T19:15:51Z</time>
      </trkpt>
      <trkpt lat="44.33327" lon="3.46209">
        <ele>892</ele>
        <time>2017-03-03T19:17:51Z</time>
      </trkpt>
      <trkpt lat="44.33345" lon="3.46199">
        <ele>889</ele>
        <time>2017-03-03T19:19:51Z</time>
      </trkpt>
      <trkpt lat="44.33355" lon="3.46189">
        <ele>889</ele>
        <time>2017-03-03T19:21:51Z</time>
      </trkpt>
      <trkpt lat="44.33366" lon="3.46164">
        <ele>892</ele>
        <time>2017-03-03T19:23:51Z</time>
      </trkpt>
      <trkpt lat="44.33385" lon="3.46122">
        <ele>897</ele>
        <time>2017-03-03T19:25:51Z</time>
      </trkpt>
      <trkpt lat="44.33399" lon="3.46079">
        <ele>905</ele>
        <time>2017-03-03T19:27:51Z</time>
      </trkpt>
      <trkpt lat="44.33417" lon="3.46025">
        <ele>910</ele>
        <time>2017-03-03T19:29:51Z</time>
      </trkpt>
      <trkpt lat="44.33433" lon="3.45985">
        <ele>909</ele>
        <time>2017-03-03T19:31:51Z</time>
      </trkpt>
      <trkpt lat="44.33448" lon="3.45938">
        <ele>909</ele>
        <time>2017-03-03T19:33:51Z</time>
      </trkpt>
      <trkpt lat="44.33449" lon="3.45929">
        <ele>910</ele>
        <time>2017-03-03T19:35:51Z</time>
      </trkpt>
      <trkpt lat="44.33447" lon="3.45922">
        <ele>912</ele>
        <time>2017-03-03T19:37:51Z</time>
      </trkpt>
      <trkpt lat="44.33446" lon="3.45919">
        <ele>913</ele>
        <time>2017-03-03T19:39:51Z</time>
      </trkpt>
      <trkpt lat="44.33444" lon="3.45917">
        <ele>914</ele>
        <time>2017-03-03T19:41:51Z</time>
      </trkpt>
      <trkpt lat="44.33444" lon="3.45917">
        <ele>914</ele>
        <time>2017-03-03T19:43:51Z</time>
      </trkpt>
      <trkpt lat="44.33442" lon="3.45918">
        <ele>915</ele>
        <time>2017-03-03T19:45:51Z</time>
      </trkpt>
      <trkpt lat="44.3344" lon="3.4592">
        <ele>916</ele>
        <time>2017-03-03T19:47:51Z</time>
      </trkpt>
      <trkpt lat="44.33436" lon="3.45925">
        <ele>917</ele>
        <time>2017-03-03T19:49:51Z</time>
      </trkpt>
      <trkpt lat="44.33431" lon="3.45943">
        <ele>917</ele>
        <time>2017-03-03T19:51:51Z</time>
      </trkpt>
      <trkpt lat="44.33426" lon="3.45951">
        <ele>918</ele>
        <time>2017-03-03T19:53:51Z</time>
      </trkpt>
      <trkpt lat="44.33414" lon="3.45963">
        <ele>921</ele>
        <time>2017-03-03T19:55:51Z</time>
      </trkpt>
      <trkpt lat="44.33398" lon="3.45975">
        <ele>922</ele>
        <time>2017-03-03T19:57:51Z</time>
      </trkpt>
      <trkpt lat="44.33375" lon="3.45987">
        <ele>925</ele>
        <time>2017-03-03T19:59:51Z</time>
      </trkpt>
      <trkpt lat="44.33354" lon="3.45994">
        <ele>928</ele>
        <time>2017-03-03T20:01:51Z</time>
      </trkpt>
      <trkpt lat="44.33324" lon="3.46001">
        <ele>931</ele>
        <time>2017-03-03T20:03:51Z</time>
      </trkpt>
      <trkpt lat="44.33292" lon="3.46007">
        <ele>931</ele>
        <time>2017-03-03T20:05:51Z</time>
      </trkpt>
      <trkpt lat="44.33285" lon="3.46006">
        <ele>932</ele>
        <time>2017-03-03T20:07:51Z</time>
      </trkpt>
      <trkpt lat="44.3328" lon="3.46">
        <ele>933</ele>
        <time>2017-03-03T20:09:51Z</time>
      </trkpt>
      <trkpt lat="44.33278" lon="3.45992">
        <ele>935</ele>
        <time>2017-03-03T20:11:51Z</time>
      </trkpt>
      <trkpt lat="44.33279" lon="3.45985">
        <ele>936</ele>
        <time>2017-03-03T20:13:51Z</time>
      </trkpt>
      <trkpt lat="44.33289" lon="3.45958">
        <ele>941</ele>
        <time>2017-03-03T20:15:51Z</time>
      </trkpt>
      <trkpt lat="44.33299" lon="3.45934">
        <ele>945</ele>
        <time>2017-03-03T20:17:51Z</time>
      </trkpt>
      <trkpt lat="44.33308" lon="3.45916">
        <ele>948</ele>
        <time>2017-03-03T20:19:51Z</time>
      </trkpt>
      <trkpt lat="44.33319" lon="3.45902">
        <ele>950</ele>
        <time>2017-03-03T20:21:51Z</time>
      </trkpt>
      <trkpt lat="44.33328" lon="3.45884">
        <ele>952</ele>
        <time>2017-03-03T20:23:51Z</time>
      </trkpt>
      <trkpt lat="44.33334" lon="3.4587">
        <ele>954</ele>
        <time>2017-03-03T20:25:51Z</time>
      </trkpt>
      <trkpt lat="44.33347" lon="3.45856">
        <ele>954</ele>
        <time>2017-03-03T20:27:51Z</time>
      </trkpt>
      <trkpt lat="44.33368" lon="3.45834">
        <ele>953</ele>
        <time>2017-03-03T20:29:51Z</time>
      </trkpt>
      <trkpt lat="44.33386" lon="3.45804">
        <ele>954</ele>
        <time>2017-03-03T20:31:51Z</time>
      </trkpt>
      <trkpt lat="44.33398" lon="3.45776">
        <ele>956</ele>
        <time>2017-03-03T20:33:51Z</time>
      </trkpt>
      <trkpt lat="44.33408" lon="3.45741">
        <ele>959</ele>
        <time>2017-03-03T20:35:51Z</time>
      </trkpt>
      <trkpt lat="44.33417" lon="3.45705">
        <ele>962</ele>
        <time>2017-03-03T20:37:51Z</time>
      </trkpt>
      <trkpt lat="44.33428" lon="3.45667">
        <ele>964</ele>
        <time>2017-03-03T20:39:51Z</time>
      </trkpt>
      <trkpt lat="44.33431" lon="3.45646">
        <ele>964</ele>
        <time>2017-03-03T20:41:51Z</time>
      </trkpt>
      <trkpt lat="44.33431" lon="3.45631">
        <ele>965</ele>
        <time>2017-03-03T20:43:51Z</time>
      </trkpt>
      <trkpt lat="44.33426" lon="3.45611">
        <ele>966</ele>
        <time>2017-03-03T20:45:51Z</time>
      </trkpt>
      <trkpt lat="44.33422" lon="3.45595">
        <ele>967</ele>
        <time>2017-03-03T20:47:51Z</time>
      </trkpt>
      <trkpt lat="44.33421" lon="3.45593">
        <ele>968</ele>
        <time>2017-03-03T20:49:51Z</time>
      </trkpt>
      <trkpt lat="44.3342" lon="3.45588">
        <ele>968</ele>
        <time>2017-03-03T20:51:51Z</time>
      </trkpt>
      <trkpt lat="44.3342" lon="3.45581">
        <ele>968</ele>
        <time>2017-03-03T20:53:51Z</time>
      </trkpt>
      <trkpt lat="44.33423" lon="3.45566">
        <ele>967</ele>
        <time>2017-03-03T20:55:51Z</time>
      </trkpt>
      <trkpt lat="44.33429" lon="3.45539">
        <ele>966</ele>
        <time>2017-03-03T20:57:51Z</time>
      </trkpt>
      <trkpt lat="44.33434" lon="3.45522">
        <ele>966</ele>
        <time>2017-03-03T20:59:51Z</time>
      </trkpt>
      <trkpt lat="44.33441" lon="3.45504">
        <ele>966</ele>
        <time>2017-03-03T21:01:51Z</time>
      </trkpt>
      <trkpt lat="44.33458" lon="3.4547">
        <ele>967</ele>
        <time>2017-03-03T21:03:51Z</time>
      </trkpt>
      <trkpt lat="44.33479" lon="3.45421">
        <ele>968</ele>
        <time>2017-03-03T21:05:51Z</time>
      </trkpt>
      <trkpt lat="44.33495" lon="3.45386">
        <ele>969</ele>
        <time>2017-03-03T21:07:51Z</time>
      </trkpt>
      <trkpt lat="44.33511" lon="3.45356">
        <ele>970</ele>
        <time>2017-03-03T21:09:51Z</time>
      </trkpt>
      <trkpt lat="44.33531" lon="3.45318">
        <ele>972</ele>
        <time>2017-03-03T21:11:51Z</time>
      </trkpt>
      <trkpt lat="44.3355" lon="3.45275">
        <ele>973</ele>
        <time>2017-03-03T21:13:51Z</time>
      </trkpt>
      <trkpt lat="44.3356" lon="3.45248">
        <ele>974</ele>
        <time>2017-03-03T21:15:51Z</time>
      </trkpt>
      <trkpt lat="44.33572" lon="3.45214">
        <ele>973</ele>
        <time>2017-03-03T21:17:51Z</time>
      </trkpt>
      <trkpt lat="44.33579" lon="3.45195">
        <ele>973</ele>
        <time>2017-03-03T21:19:51Z</time>
      </trkpt>
      <trkpt lat="44.33593" lon="3.45168">
        <ele>974</ele>
        <time>2017-03-03T21:21:51Z</time>
      </trkpt>
      <trkpt lat="44.33607" lon="3.45135">
        <ele>976</ele>
        <time>2017-03-03T21:23:51Z</time>
      </trkpt>
      <trkpt lat="44.33616" lon="3.45106">
        <ele>977</ele>
        <time>2017-03-03T21:25:51Z</time>
      </trkpt>
      <trkpt lat="44.33624" lon="3.4507">
        <ele>978</ele>
        <time>2017-03-03T21:27:51Z</time>
      </trkpt>
      <trkpt lat="44.33634" lon="3.45031">
        <ele>981</ele>
        <time>2017-03-03T21:29:51Z</time>
      </trkpt>
      <trkpt lat="44.3364" lon="3.44996">
        <ele>984</ele>
        <time>2017-03-03T21:31:51Z</time>
      </trkpt>
      <trkpt lat="44.33647" lon="3.44957">
        <ele>987</ele>
        <time>2017-03-03T21:33:51Z</time>
      </trkpt>
      <trkpt lat="44.33652" lon="3.44932">
        <ele>988</ele>
        <time>2017-03-03T21:35:51Z</time>
      </trkpt>
      <trkpt lat="44.33657" lon="3.44909">
        <ele>990</ele>
        <time>2017-03-03T21:37:51Z</time>
      </trkpt>
      <trkpt lat="44.33661" lon="3.4489">
        <ele>991</ele>
        <time>2017-03-03T21:39:51Z</time>
      </trkpt>
      <trkpt lat="44.33662" lon="3.44882">
        <ele>991</ele>
        <time>2017-03-03T21:41:51Z</time>
      </trkpt>
      <trkpt lat="44.33663" lon="3.44872">
        <ele>991</ele>
        <time>2017-03-03T21:43:51Z</time>
      </trkpt>
      <trkpt lat="44.33663" lon="3.44872">
        <ele>991</ele>
        <time>2017-03-03T21:45:51Z</time>
      </trkpt>
      <trkpt lat="44.33668" lon="3.44844">
        <ele>993</ele>
        <time>2017-03-03T21:47:51Z</time>
      </trkpt>
      <trkpt lat="44.3367" lon="3.4483">
        <ele>993</ele>
        <time>2017-03-03T21:49:51Z</time>
      </trkpt>
      <trkpt lat="44.33669" lon="3.44826">
        <ele>994</ele>
        <time>2017-03-03T21:51:51Z</time>
      </trkpt>
      <trkpt lat="44.33668" lon="3.44815">
        <ele>994</ele>
        <time>2017-03-03T21:53:51Z</time>
      </trkpt>
      <trkpt lat="44.33668" lon="3.44815">
        <ele>994</ele>
        <time>2017-03-03T21:55:51Z</time>
      </trkpt>
      <trkpt lat="44.33666" lon="3.44786">
        <ele>996</ele>
        <time>2017-03-03T21:57:51Z</time>
      </trkpt>
      <trkpt lat="44.33665" lon="3.4474">
        <ele>999</ele>
        <time>2017-03-03T21:59:51Z</time>
      </trkpt>
      <trkpt lat="44.33665" lon="3.44715">
        <ele>1001</ele>
        <time>2017-03-03T22:01:51Z</time>
      </trkpt>
      <trkpt lat="44.33667" lon="3.44701">
        <ele>1002</ele>
        <time>2017-03-03T22:03:51Z</time>
      </trkpt>
      <trkpt lat="44.33671" lon="3.4469">
        <ele>1003</ele>
        <time>2017-03-03T22:05:51Z</time>
      </trkpt>
      <trkpt lat="44.3368" lon="3.44681">
        <ele>1003</ele>
        <time>2017-03-03T22:07:51Z</time>
      </trkpt>
      <trkpt lat="44.3369" lon="3.44675">
        <ele>1004</ele>
        <time>2017-03-03T22:09:51Z</time>
      </trkpt>
      <trkpt lat="44.33706" lon="3.44668">
        <ele>1005</ele>
        <time>2017-03-03T22:11:51Z</time>
      </trkpt>
      <trkpt lat="44.33717" lon="3.4466">
        <ele>1005</ele>
        <time>2017-03-03T22:13:51Z</time>
      </trkpt>
      <trkpt lat="44.33725" lon="3.44652">
        <ele>1006</ele>
        <time>2017-03-03T22:15:51Z</time>
      </trkpt>
      <trkpt lat="44.33735" lon="3.44634">
        <ele>1007</ele>
        <time>2017-03-03T22:17:51Z</time>
      </trkpt>
      <trkpt lat="44.33743" lon="3.44612">
        <ele>1008</ele>
        <time>2017-03-03T22:19:51Z</time>
      </trkpt>
      <trkpt lat="44.33751" lon="3.44583">
        <ele>1010</ele>
        <time>2017-03-03T22:21:51Z</time>
      </trkpt>
      <trkpt lat="44.33758" lon="3.44545">
        <ele>1010</ele>
        <time>2017-03-03T22:23:51Z</time>
      </trkpt>
      <trkpt lat="44.33766" lon="3.44519">
        <ele>1011</ele>
        <time>2017-03-03T22:25:51Z</time>
      </trkpt>
      <trkpt lat="44.33775" lon="3.44495">
        <ele>1012</ele>
        <time>2017-03-03T22:27:51Z</time>
      </trkpt>
      <trkpt lat="44.33785" lon="3.44474">
        <ele>1012</ele>
        <time>2017-03-03T22:29:51Z</time>
      </trkpt>
      <trkpt lat="44.33797" lon="3.44456">
        <ele>1013</ele>
        <time>2017-03-03T22:31:51Z</time>
      </trkpt>
      <trkpt lat="44.33806" lon="3.4444">
        <ele>1013</ele>
        <time>2017-03-03T22:33:51Z</time>
      </trkpt>
      <trkpt lat="44.33812" lon="3.44423">
        <ele>1013</ele>
        <time>2017-03-03T22:35:51Z</time>
      </trkpt>
      <trkpt lat="44.33813" lon="3.44408">
        <ele>1013</ele>
        <time>2017-03-03T22:37:51Z</time>
      </trkpt>
      <trkpt lat="44.33813" lon="3.44408">
        <ele>1013</ele>
        <time>2017-03-03T22:39:51Z</time>
      </trkpt>
      <trkpt lat="44.33824" lon="3.44424">
        <ele>1014</ele>
        <time>2017-03-03T22:41:51Z</time>
      </trkpt>
      <trkpt lat="44.33824" lon="3.44424">
        <ele>1014</ele>
        <time>2017-03-03T22:43:51Z</time>
      </trkpt>
      <trkpt lat="44.33837" lon="3.44409">
        <ele>1015</ele>
        <time>2017-03-03T22:45:51Z</time>
      </trkpt>
      <trkpt lat="44.33845" lon="3.44396">
        <ele>1013</ele>
        <time>2017-03-03T22:47:51Z</time>
      </trkpt>
      <trkpt lat="44.3385" lon="3.44387">
        <ele>1012</ele>
        <time>2017-03-03T22:49:51Z</time>
      </trkpt>
      <trkpt lat="44.33855" lon="3.44369">
        <ele>1011</ele>
        <time>2017-03-03T22:51:51Z</time>
      </trkpt>
      <trkpt lat="44.33863" lon="3.44318">
        <ele>1008</ele>
        <time>2017-03-03T22:53:51Z</time>
      </trkpt>
      <trkpt lat="44.33869" lon="3.44276">
        <ele>1006</ele>
        <time>2017-03-03T22:55:51Z</time>
      </trkpt>
      <trkpt lat="44.33871" lon="3.44242">
        <ele>1006</ele>
        <time>2017-03-03T22:57:51Z</time>
      </trkpt>
      <trkpt lat="44.33874" lon="3.44223">
        <ele>1006</ele>
        <time>2017-03-03T22:59:51Z</time>
      </trkpt>
      <trkpt lat="44.33878" lon="3.4421">
        <ele>1006</ele>
        <time>2017-03-03T23:01:51Z</time>
      </trkpt>
      <trkpt lat="44.33884" lon="3.44198">
        <ele>1005</ele>
        <time>2017-03-03T23:03:51Z</time>
      </trkpt>
      <trkpt lat="44.33915" lon="3.44155">
        <ele>1000</ele>
        <time>2017-03-03T23:05:51Z</time>
      </trkpt>
      <trkpt lat="44.33941" lon="3.44119">
        <ele>997</ele>
        <time>2017-03-03T23:07:51Z</time>
      </trkpt>
      <trkpt lat="44.33963" lon="3.44093">
        <ele>995</ele>
        <time>2017-03-03T23:09:51Z</time>
      </trkpt>
      <trkpt lat="44.33977" lon="3.44075">
        <ele>994</ele>
        <time>2017-03-03T23:11:51Z</time>
      </trkpt>
      <trkpt lat="44.3399" lon="3.44061">
        <ele>993</ele>
        <time>2017-03-03T23:13:51Z</time>
      </trkpt>
      <trkpt lat="44.34001" lon="3.44045">
        <ele>992</ele>
        <time>2017-03-03T23:15:51Z</time>
      </trkpt>
      <trkpt lat="44.34017" lon="3.44023">
        <ele>992</ele>
        <time>2017-03-03T23:17:51Z</time>
      </trkpt>
      <trkpt lat="44.34043" lon="3.43992">
        <ele>991</ele>
        <time>2017-03-03T23:19:51Z</time>
      </trkpt>
      <trkpt lat="44.34075" lon="3.4396">
        <ele>989</ele>
        <time>2017-03-03T23:21:51Z</time>
      </trkpt>
      <trkpt lat="44.34099" lon="3.43932">
        <ele>989</ele>
        <time>2017-03-03T23:23:51Z</time>
      </trkpt>
      <trkpt lat="44.34118" lon="3.43911">
        <ele>988</ele>
        <time>2017-03-03T23:25:51Z</time>
      </trkpt>
      <trkpt lat="44.34133" lon="3.439">
        <ele>987</ele>
        <time>2017-03-03T23:27:51Z</time>
      </trkpt>
      <trkpt lat="44.34141" lon="3.43892">
        <ele>985</ele>
        <time>2017-03-03T23:29:51Z</time>
      </trkpt>
      <trkpt lat="44.34163" lon="3.43863">
        <ele>982</ele>
        <time>2017-03-03T23:31:51Z</time>
      </trkpt>
      <trkpt lat="44.3419" lon="3.43822">
        <ele>977</ele>
        <time>2017-03-03T23:33:51Z</time>
      </trkpt>
      <trkpt lat="44.34213" lon="3.43789">
        <ele>973</ele>
        <time>2017-03-03T23:35:51Z</time>
      </trkpt>
      <trkpt lat="44.3423" lon="3.4377">
        <ele>972</ele>
        <time>2017-03-03T23:37:51Z</time>
      </trkpt>
      <trkpt lat="44.34246" lon="3.43747">
        <ele>971</ele>
        <time>2017-03-03T23:39:51Z</time>
      </trkpt>
      <trkpt lat="44.3426" lon="3.43738">
        <ele>969</ele>
        <time>2017-03-03T23:41:51Z</time>
      </trkpt>
      <trkpt lat="44.34274" lon="3.4373">
        <ele>967</ele>
        <time>2017-03-03T23:43:51Z</time>
      </trkpt>
      <trkpt lat="44.34285" lon="3.43729">
        <ele>966</ele>
        <time>2017-03-03T23:45:51Z</time>
      </trkpt>
      <trkpt lat="44.34291" lon="3.4373">
        <ele>966</ele>
        <time>2017-03-03T23:47:51Z</time>
      </trkpt>
      <trkpt lat="44.34304" lon="3.43722">
        <ele>964</ele>
        <time>2017-03-03T23:49:51Z</time>
      </trkpt>
      <trkpt lat="44.34322" lon="3.43705">
        <ele>962</ele>
        <time>2017-03-03T23:51:51Z</time>
      </trkpt>
      <trkpt lat="44.34324" lon="3.43702">
        <ele>962</ele>
        <time>2017-03-03T23:53:51Z</time>
      </trkpt>
      <trkpt lat="44.34338" lon="3.43701">
        <ele>961</ele>
        <time>2017-03-03T23:55:51Z</time>
      </trkpt>
      <trkpt lat="44.34365" lon="3.43703">
        <ele>958</ele>
        <time>2017-03-03T23:57:51Z</time>
      </trkpt>
      <trkpt lat="44.34381" lon="3.43701">
        <ele>957</ele>
        <time>2017-03-03T23:59:51Z</time>
      </trkpt>
      <trkpt lat="44.34404" lon="3.43696">
        <ele>955</ele>
        <time>2017-03-04T00:01:51Z</time>
      </trkpt>
      <trkpt lat="44.34423" lon="3.43687">
        <ele>954</ele>
        <time>2017-03-04T00:03:51Z</time>
      </trkpt>
      <trkpt lat="44.34436" lon="3.43678">
        <ele>954</ele>
        <time>2017-03-04T00:05:51Z</time>
      </trkpt>
      <trkpt lat="44.34459" lon="3.43653">
        <ele>952</ele>
        <time>2017-03-04T00:07:51Z</time>
      </trkpt>
      <trkpt lat="44.34473" lon="3.43637">
        <ele>951</ele>
        <time>2017-03-04T00:09:51Z</time>
      </trkpt>
      <trkpt lat="44.34489" lon="3.43611">
        <ele>949</ele>
        <time>2017-03-04T00:11:51Z</time>
      </trkpt>
      <trkpt lat="44.34502" lon="3.43592">
        <ele>948</ele>
        <time>2017-03-04T00:13:51Z</time>
      </trkpt>
      <trkpt lat="44.34511" lon="3.43571">
        <ele>947</ele>
        <time>2017-03-04T00:15:51Z</time>
      </trkpt>
      <trkpt lat="44.34518" lon="3.43543">
        <ele>945</ele>
        <time>2017-03-04T00:17:51Z</time>
      </trkpt>
      <trkpt lat="44.34529" lon="3.43499">
        <ele>942</ele>
        <time>2017-03-04T00:19:51Z</time>
      </trkpt>
      <trkpt lat="44.34539" lon="3.43463">
        <ele>940</ele>
        <time>2017-03-04T00:21:51Z</time>
      </trkpt>
      <trkpt lat="44.34546" lon="3.43431">
        <ele>939</ele>
        <time>2017-03-04T00:23:51Z</time>
      </trkpt>
      <trkpt lat="44.34552" lon="3.43407">
        <ele>939</ele>
        <time>2017-03-04T00:25:51Z</time>
      </trkpt>
      <trkpt lat="44.34563" lon="3.43376">
        <ele>941</ele>
        <time>2017-03-04T00:27:51Z</time>
      </trkpt>
      <trkpt lat="44.34569" lon="3.43358">
        <ele>942</ele>
        <time>2017-03-04T00:29:51Z</time>
      </trkpt>
      <trkpt lat="44.34571" lon="3.43348">
        <ele>942</ele>
        <time>2017-03-04T00:31:51Z</time>
      </trkpt>
      <trkpt lat="44.34573" lon="3.43322">
        <ele>944</ele>
        <time>2017-03-04T00:33:51Z</time>
      </trkpt>
      <trkpt lat="44.34575" lon="3.43316">
        <ele>945</ele>
        <time>2017-03-04T00:35:51Z</time>
      </trkpt>
      <trkpt lat="44.34578" lon="3.43312">
        <ele>946</ele>
        <time>2017-03-04T00:37:51Z</time>
      </trkpt>
      <trkpt lat="44.34582" lon="3.43311">
        <ele>946</ele>
        <time>2017-03-04T00:39:51Z</time>
      </trkpt>
      <trkpt lat="44.34646" lon="3.43308">
        <ele>950</ele>
        <time>2017-03-04T00:41:51Z</time>
      </trkpt>
      <trkpt lat="44.34686" lon="3.43305">
        <ele>952</ele>
        <time>2017-03-04T00:43:51Z</time>
      </trkpt>
      <trkpt lat="44.34706" lon="3.433">
        <ele>953</ele>
        <time>2017-03-04T00:45:51Z</time>
      </trkpt>
      <trkpt lat="44.34726" lon="3.43291">
        <ele>954</ele>
        <time>2017-03-04T00:47:51Z</time>
      </trkpt>
      <trkpt lat="44.34741" lon="3.43286">
        <ele>955</ele>
        <time>2017-03-04T00:49:51Z</time>
      </trkpt>
      <trkpt lat="44.34747" lon="3.43285">
        <ele>955</ele>
        <time>2017-03-04T00:51:51Z</time>
      </trkpt>
      <trkpt lat="44.34752" lon="3.43283">
        <ele>956</ele>
        <time>2017-03-04T00:53:51Z</time>
      </trkpt>
      <trkpt lat="44.34757" lon="3.43278">
        <ele>956</ele>
        <time>2017-03-04T00:55:51Z</time>
      </trkpt>
      <trkpt lat="44.34781" lon="3.43248">
        <ele>960</ele>
        <time>2017-03-04T00:57:51Z</time>
      </trkpt>
      <trkpt lat="44.34792" lon="3.43236">
        <ele>962</ele>
        <time>2017-03-04T00:59:51Z</time>
      </trkpt>
      <trkpt lat="44.34804" lon="3.43221">
        <ele>965</ele>
        <time>2017-03-04T01:01:51Z</time>
      </trkpt>
      <trkpt lat="44.34819" lon="3.43211">
        <ele>968</ele>
        <time>2017-03-04T01:03:51Z</time>
      </trkpt>
      <trkpt lat="44.34819" lon="3.43211">
        <ele>968</ele>
        <time>2017-03-04T01:05:51Z</time>
      </trkpt>
      <trkpt lat="44.34819" lon="3.43188">
        <ele>970</ele>
        <time>2017-03-04T01:07:51Z</time>
      </trkpt>
      <trkpt lat="44.34818" lon="3.43149">
        <ele>974</ele>
        <time>2017-03-04T01:09:51Z</time>
      </trkpt>
      <trkpt lat="44.34814" lon="3.43122">
        <ele>976</ele>
        <time>2017-03-04T01:11:51Z</time>
      </trkpt>
      <trkpt lat="44.34806" lon="3.43092">
        <ele>979</ele>
        <time>2017-03-04T01:13:51Z</time>
      </trkpt>
      <trkpt lat="44.34803" lon="3.43071">
        <ele>981</ele>
        <time>2017-03-04T01:15:51Z</time>
      </trkpt>
      <trkpt lat="44.348" lon="3.43047">
        <ele>984</ele>
        <time>2017-03-04T01:17:51Z</time>
      </trkpt>
      <trkpt lat="44.34794" lon="3.43022">
        <ele>987</ele>
        <time>2017-03-04T01:19:51Z</time>
      </trkpt>
      <trkpt lat="44.34786" lon="3.43006">
        <ele>989</ele>
        <time>2017-03-04T01:21:51Z</time>
      </trkpt>
      <trkpt lat="44.3477" lon="3.42984">
        <ele>989</ele>
        <time>2017-03-04T01:23:51Z</time>
      </trkpt>
      <trkpt lat="44.34755" lon="3.4296">
        <ele>990</ele>
        <time>2017-03-04T01:25:51Z</time>
      </trkpt>
      <trkpt lat="44.34748" lon="3.42941">
        <ele>992</ele>
        <time>2017-03-04T01:27:51Z</time>
      </trkpt>
      <trkpt lat="44.34742" lon="3.42912">
        <ele>996</ele>
        <time>2017-03-04T01:29:51Z</time>
      </trkpt>
      <trkpt lat="44.34742" lon="3.42901">
        <ele>996</ele>
        <time>2017-03-04T01:31:51Z</time>
      </trkpt>
      <trkpt lat="44.34746" lon="3.42891">
        <ele>995</ele>
        <time>2017-03-04T01:33:51Z</time>
      </trkpt>
      <trkpt lat="44.34752" lon="3.42886">
        <ele>995</ele>
        <time>2017-03-04T01:35:51Z</time>
      </trkpt>
      <trkpt lat="44.34756" lon="3.42885">
        <ele>995</ele>
        <time>2017-03-04T01:37:51Z</time>
      </trkpt>
      <trkpt lat="44.34757" lon="3.42885">
        <ele>995</ele>
        <time>2017-03-04T01:39:51Z</time>
      </trkpt>
      <trkpt lat="44.34779" lon="3.42892">
        <ele>995</ele>
        <time>2017-03-04T01:41:51Z</time>
      </trkpt>
      <trkpt lat="44.34786" lon="3.42891">
        <ele>995</ele>
        <time>2017-03-04T01:43:51Z</time>
      </trkpt>
      <trkpt lat="44.34792" lon="3.42887">
        <ele>995</ele>
        <time>2017-03-04T01:45:51Z</time>
      </trkpt>
      <trkpt lat="44.34796" lon="3.4288">
        <ele>994</ele>
        <time>2017-03-04T01:47:51Z</time>
      </trkpt>
      <trkpt lat="44.34798" lon="3.42872">
        <ele>994</ele>
        <time>2017-03-04T01:49:51Z</time>
      </trkpt>
      <trkpt lat="44.34796" lon="3.42861">
        <ele>993</ele>
        <time>2017-03-04T01:51:51Z</time>
      </trkpt>
      <trkpt lat="44.34789" lon="3.42849">
        <ele>993</ele>
        <time>2017-03-04T01:53:51Z</time>
      </trkpt>
      <trkpt lat="44.34764" lon="3.42819">
        <ele>992</ele>
        <time>2017-03-04T01:55:51Z</time>
      </trkpt>
      <trkpt lat="44.34742" lon="3.42793">
        <ele>991</ele>
        <time>2017-03-04T01:57:51Z</time>
      </trkpt>
      <trkpt lat="44.34724" lon="3.42761">
        <ele>989</ele>
        <time>2017-03-04T01:59:51Z</time>
      </trkpt>
      <trkpt lat="44.34709" lon="3.42732">
        <ele>987</ele>
        <time>2017-03-04T02:01:51Z</time>
      </trkpt>
      <trkpt lat="44.34702" lon="3.4272">
        <ele>987</ele>
        <time>2017-03-04T02:03:51Z</time>
      </trkpt>
      <trkpt lat="44.34696" lon="3.42709">
        <ele>986</ele>
        <time>2017-03-04T02:05:51Z</time>
      </trkpt>
      <trkpt lat="44.34693" lon="3.42693">
        <ele>984</ele>
        <time>2017-03-04T02:07:51Z</time>
      </trkpt>
      <trkpt lat="44.34691" lon="3.42668">
        <ele>981</ele>
        <time>2017-03-04T02:09:51Z</time>
      </trkpt>
      <trkpt lat="44.34693" lon="3.42638">
        <ele>981</ele>
        <time>2017-03-04T02:11:51Z</time>
      </trkpt>
      <trkpt lat="44.34693" lon="3.42638">
        <ele>981</ele>
        <time>2017-03-04T02:13:51Z</time>
      </trkpt>
      <trkpt lat="44.34697" lon="3.42651">
        <ele>980</ele>
        <time>2017-03-04T02:15:51Z</time>
      </trkpt>
      <trkpt lat="44.34703" lon="3.4267">
        <ele>980</ele>
        <time>2017-03-04T02:17:51Z</time>
      </trkpt>
      <trkpt lat="44.34712" lon="3.42681">
        <ele>980</ele>
        <time>2017-03-04T02:19:51Z</time>
      </trkpt>
      <trkpt lat="44.34721" lon="3.42686">
        <ele>980</ele>
        <time>2017-03-04T02:21:51Z</time>
      </trkpt>
      <trkpt lat="44.34737" lon="3.42688">
        <ele>978</ele>
        <time>2017-03-04T02:23:51Z</time>
      </trkpt>
      <trkpt lat="44.34757" lon="3.42689">
        <ele>977</ele>
        <time>2017-03-04T02:25:51Z</time>
      </trkpt>
      <trkpt lat="44.34776" lon="3.42692">
        <ele>977</ele>
        <time>2017-03-04T02:27:51Z</time>
      </trkpt>
      <trkpt lat="44.3479" lon="3.42693">
        <ele>977</ele>
        <time>2017-03-04T02:29:51Z</time>
      </trkpt>
      <trkpt lat="44.34796" lon="3.42692">
        <ele>977</ele>
        <time>2017-03-04T02:31:51Z</time>
      </trkpt>
      <trkpt lat="44.34803" lon="3.42687">
        <ele>976</ele>
        <time>2017-03-04T02:33:51Z</time>
      </trkpt>
      <trkpt lat="44.34813" lon="3.42672">
        <ele>975</ele>
        <time>2017-03-04T02:35:51Z</time>
      </trkpt>
      <trkpt lat="44.34819" lon="3.42662">
        <ele>975</ele>
        <time>2017-03-04T02:37:51Z</time>
      </trkpt>
      <trkpt lat="44.34824" lon="3.42657">
        <ele>975</ele>
        <time>2017-03-04T02:39:51Z</time>
      </trkpt>
      <trkpt lat="44.34834" lon="3.42651">
        <ele>976</ele>
        <time>2017-03-04T02:41:51Z</time>
      </trkpt>
      <trkpt lat="44.34853" lon="3.42641">
        <ele>976</ele>
        <time>2017-03-04T02:43:51Z</time>
      </trkpt>
      <trkpt lat="44.34873" lon="3.4263">
        <ele>977</ele>
        <time>2017-03-04T02:45:51Z</time>
      </trkpt>
      <trkpt lat="44.34886" lon="3.42626">
        <ele>978</ele>
        <time>2017-03-04T02:47:51Z</time>
      </trkpt>
      <trkpt lat="44.34905" lon="3.42625">
        <ele>978</ele>
        <time>2017-03-04T02:49:51Z</time>
      </trkpt>
      <trkpt lat="44.34926" lon="3.42621">
        <ele>978</ele>
        <time>2017-03-04T02:51:51Z</time>
      </trkpt>
      <trkpt lat="44.34943" lon="3.42617">
        <ele>978</ele>
        <time>2017-03-04T02:53:51Z</time>
      </trkpt>
      <trkpt lat="44.34945" lon="3.42617">
        <ele>978</ele>
        <time>2017-03-04T02:55:51Z</time>
      </trkpt>
      <trkpt lat="44.34955" lon="3.42617">
        <ele>978</ele>
        <time>2017-03-04T02:57:51Z</time>
      </trkpt>
      <trkpt lat="44.34965" lon="3.4262">
        <ele>978</ele>
        <time>2017-03-04T02:59:51Z</time>
      </trkpt>
      <trkpt lat="44.34977" lon="3.42627">
        <ele>977</ele>
        <time>2017-03-04T03:01:51Z</time>
      </trkpt>
      <trkpt lat="44.34993" lon="3.42635">
        <ele>976</ele>
        <time>2017-03-04T03:03:51Z</time>
      </trkpt>
      <trkpt lat="44.35004" lon="3.4264">
        <ele>974</ele>
        <time>2017-03-04T03:05:51Z</time>
      </trkpt>
      <trkpt lat="44.35028" lon="3.42644">
        <ele>971</ele>
        <time>2017-03-04T03:07:51Z</time>
      </trkpt>
      <trkpt lat="44.35058" lon="3.42651">
        <ele>967</ele>
        <time>2017-03-04T03:09:51Z</time>
      </trkpt>
      <trkpt lat="44.35073" lon="3.42654">
        <ele>965</ele>
        <time>2017-03-04T03:11:51Z</time>
      </trkpt>
      <trkpt lat="44.35104" lon="3.42651">
        <ele>962</ele>
        <time>2017-03-04T03:13:51Z</time>
      </trkpt>
      <trkpt lat="44.35133" lon="3.42644">
        <ele>958</ele>
        <time>2017-03-04T03:15:51Z</time>
      </trkpt>
      <trkpt lat="44.3515" lon="3.42642">
        <ele>956</ele>
        <time>2017-03-04T03:17:51Z</time>
      </trkpt>
      <trkpt lat="44.35165" lon="3.42643">
        <ele>954</ele>
        <time>2017-03-04T03:19:51Z</time>
      </trkpt>
      <trkpt lat="44.35193" lon="3.42652">
        <ele>950</ele>
        <time>2017-03-04T03:21:51Z</time>
      </trkpt>
      <trkpt lat="44.3521" lon="3.42656">
        <ele>948</ele>
        <time>2017-03-04T03:23:51Z</time>
      </trkpt>
      <trkpt lat="44.35239" lon="3.4267">
        <ele>944</ele>
        <time>2017-03-04T03:25:51Z</time>
      </trkpt>
      <trkpt lat="44.35248" lon="3.42673">
        <ele>943</ele>
        <time>2017-03-04T03:27:51Z</time>
      </trkpt>
      <trkpt lat="44.35258" lon="3.42678">
        <ele>942</ele>
        <time>2017-03-04T03:29:51Z</time>
      </trkpt>
      <trkpt lat="44.35276" lon="3.42681">
        <ele>941</ele>
        <time>2017-03-04T03:31:51Z</time>
      </trkpt>
      <trkpt lat="44.35293" lon="3.42679">
        <ele>940</ele>
        <time>2017-03-04T03:33:51Z</time>
      </trkpt>
      <trkpt lat="44.35311" lon="3.42674">
        <ele>939</ele>
        <time>2017-03-04T03:35:51Z</time>
      </trkpt>
      <trkpt lat="44.35315" lon="3.42672">
        <ele>938</ele>
        <time>2017-03-04T03:37:51Z</time>
      </trkpt>
      <trkpt lat="44.35323" lon="3.42667">
        <ele>938</ele>
        <time>2017-03-04T03:39:51Z</time>
      </trkpt>
      <trkpt lat="44.35344" lon="3.42648">
        <ele>937</ele>
        <time>2017-03-04T03:41:51Z</time>
      </trkpt>
      <trkpt lat="44.35357" lon="3.42641">
        <ele>937</ele>
        <time>2017-03-04T03:43:51Z</time>
      </trkpt>
      <trkpt lat="44.35368" lon="3.42639">
        <ele>937</ele>
        <time>2017-03-04T03:45:51Z</time>
      </trkpt>
      <trkpt lat="44.35392" lon="3.4264">
        <ele>936</ele>
        <time>2017-03-04T03:47:51Z</time>
      </trkpt>
      <trkpt lat="44.3543" lon="3.42638">
        <ele>935</ele>
        <time>2017-03-04T03:49:51Z</time>
      </trkpt>
      <trkpt lat="44.35457" lon="3.42636">
        <ele>935</ele>
        <time>2017-03-04T03:51:51Z</time>
      </trkpt>
      <trkpt lat="44.35474" lon="3.42639">
        <ele>934</ele>
        <time>2017-03-04T03:53:51Z</time>
      </trkpt>
      <trkpt lat="44.3549" lon="3.4265">
        <ele>933</ele>
        <time>2017-03-04T03:55:51Z</time>
      </trkpt>
      <trkpt lat="44.35499" lon="3.42653">
        <ele>932</ele>
        <time>2017-03-04T03:57:51Z</time>
      </trkpt>
      <trkpt lat="44.35525" lon="3.42651">
        <ele>931</ele>
        <time>2017-03-04T03:59:51Z</time>
      </trkpt>
      <trkpt lat="44.35539" lon="3.42651">
        <ele>930</ele>
        <time>2017-03-04T04:01:51Z</time>
      </trkpt>
      <trkpt lat="44.35546" lon="3.42652">
        <ele>930</ele>
        <time>2017-03-04T04:03:51Z</time>
      </trkpt>
      <trkpt lat="44.3556" lon="3.42655">
        <ele>928</ele>
        <time>2017-03-04T04:05:51Z</time>
      </trkpt>
      <trkpt lat="44.35575" lon="3.42662">
        <ele>926</ele>
        <time>2017-03-04T04:07:51Z</time>
      </trkpt>
      <trkpt lat="44.35587" lon="3.42663">
        <ele>924</ele>
        <time>2017-03-04T04:09:51Z</time>
      </trkpt>
      <trkpt lat="44.35604" lon="3.42659">
        <ele>923</ele>
        <time>2017-03-04T04:11:51Z</time>
      </trkpt>
      <trkpt lat="44.35612" lon="3.42658">
        <ele>922</ele>
        <time>2017-03-04T04:13:51Z</time>
      </trkpt>
      <trkpt lat="44.35624" lon="3.42655">
        <ele>922</ele>
        <time>2017-03-04T04:15:51Z</time>
      </trkpt>
      <trkpt lat="44.35632" lon="3.42655">
        <ele>921</ele>
        <time>2017-03-04T04:17:51Z</time>
      </trkpt>
      <trkpt lat="44.35643" lon="3.42659">
        <ele>918</ele>
        <time>2017-03-04T04:19:51Z</time>
      </trkpt>
      <trkpt lat="44.35663" lon="3.42648">
        <ele>920</ele>
        <time>2017-03-04T04:21:51Z</time>
      </trkpt>
      <trkpt lat="44.3567" lon="3.42644">
        <ele>920</ele>
        <time>2017-03-04T04:23:51Z</time>
      </trkpt>
      <trkpt lat="44.3567" lon="3.42644">
        <ele>920</ele>
        <time>2017-03-04T04:25:51Z</time>
      </trkpt>
      <trkpt lat="44.35703" lon="3.4265">
        <ele>911</ele>
        <time>2017-03-04T04:27:51Z</time>
      </trkpt>
      <trkpt lat="44.35724" lon="3.4265">
        <ele>906</ele>
        <time>2017-03-04T04:29:51Z</time>
      </trkpt>
      <trkpt lat="44.35751" lon="3.42643">
        <ele>904</ele>
        <time>2017-03-04T04:31:51Z</time>
      </trkpt>
      <trkpt lat="44.35767" lon="3.42633">
        <ele>903</ele>
        <time>2017-03-04T04:33:51Z</time>
      </trkpt>
      <trkpt lat="44.35798" lon="3.42619">
        <ele>900</ele>
        <time>2017-03-04T04:35:51Z</time>
      </trkpt>
      <trkpt lat="44.35817" lon="3.42613">
        <ele>896</ele>
        <time>2017-03-04T04:37:51Z</time>
      </trkpt>
      <trkpt lat="44.35845" lon="3.42612">
        <ele>884</ele>
        <time>2017-03-04T04:39:51Z</time>
      </trkpt>
      <trkpt lat="44.35865" lon="3.42615">
        <ele>871</ele>
        <time>2017-03-04T04:41:51Z</time>
      </trkpt>
      <trkpt lat="44.35869" lon="3.42617">
        <ele>868</ele>
        <time>2017-03-04T04:43:51Z</time>
      </trkpt>
      <trkpt lat="44.3587" lon="3.4262">
        <ele>866</ele>
        <time>2017-03-04T04:45:51Z</time>
      </trkpt>
      <trkpt lat="44.3587" lon="3.42621">
        <ele>866</ele>
        <time>2017-03-04T04:47:51Z</time>
      </trkpt>
      <trkpt lat="44.35867" lon="3.42625">
        <ele>866</ele>
        <time>2017-03-04T04:49:51Z</time>
      </trkpt>
      <trkpt lat="44.35863" lon="3.42626">
        <ele>867</ele>
        <time>2017-03-04T04:51:51Z</time>
      </trkpt>
      <trkpt lat="44.3584" lon="3.42638">
        <ele>873</ele>
        <time>2017-03-04T04:53:51Z</time>
      </trkpt>
      <trkpt lat="44.35834" lon="3.4264">
        <ele>875</ele>
        <time>2017-03-04T04:55:51Z</time>
      </trkpt>
      <trkpt lat="44.35832" lon="3.42643">
        <ele>874</ele>
        <time>2017-03-04T04:57:51Z</time>
      </trkpt>
      <trkpt lat="44.35831" lon="3.42645">
        <ele>873</ele>
        <time>2017-03-04T04:59:51Z</time>
      </trkpt>
      <trkpt lat="44.35832" lon="3.42647">
        <ele>872</ele>
        <time>2017-03-04T05:01:51Z</time>
      </trkpt>
      <trkpt lat="44.35833" lon="3.42649">
        <ele>870</ele>
        <time>2017-03-04T05:03:51Z</time>
      </trkpt>
      <trkpt lat="44.35835" lon="3.42649">
        <ele>869</ele>
        <time>2017-03-04T05:05:51Z</time>
      </trkpt>
      <trkpt lat="44.35837" lon="3.42649">
        <ele>868</ele>
        <time>2017-03-04T05:07:51Z</time>
      </trkpt>
      <trkpt lat="44.35856" lon="3.4265">
        <ele>860</ele>
        <time>2017-03-04T05:09:51Z</time>
      </trkpt>
      <trkpt lat="44.35866" lon="3.42655">
        <ele>854</ele>
        <time>2017-03-04T05:11:51Z</time>
      </trkpt>
      <trkpt lat="44.35873" lon="3.42663">
        <ele>848</ele>
        <time>2017-03-04T05:13:51Z</time>
      </trkpt>
      <trkpt lat="44.3588" lon="3.42667">
        <ele>844</ele>
        <time>2017-03-04T05:15:51Z</time>
      </trkpt>
      <trkpt lat="44.35889" lon="3.4266">
        <ele>843</ele>
        <time>2017-03-04T05:17:51Z</time>
      </trkpt>
      <trkpt lat="44.35896" lon="3.42646">
        <ele>844</ele>
        <time>2017-03-04T05:19:51Z</time>
      </trkpt>
      <trkpt lat="44.35899" lon="3.42623">
        <ele>849</ele>
        <time>2017-03-04T05:21:51Z</time>
      </trkpt>
      <trkpt lat="44.35904" lon="3.4258">
        <ele>858</ele>
        <time>2017-03-04T05:23:51Z</time>
      </trkpt>
      <trkpt lat="44.35915" lon="3.4254">
        <ele>858</ele>
        <time>2017-03-04T05:25:51Z</time>
      </trkpt>
      <trkpt lat="44.35939" lon="3.42482">
        <ele>852</ele>
        <time>2017-03-04T05:27:51Z</time>
      </trkpt>
      <trkpt lat="44.35976" lon="3.42412">
        <ele>841</ele>
        <time>2017-03-04T05:29:51Z</time>
      </trkpt>
      <trkpt lat="44.35996" lon="3.42382">
        <ele>834</ele>
        <time>2017-03-04T05:31:51Z</time>
      </trkpt>
      <trkpt lat="44.36017" lon="3.42365">
        <ele>827</ele>
        <time>2017-03-04T05:33:51Z</time>
      </trkpt>
      <trkpt lat="44.36034" lon="3.42351">
        <ele>820</ele>
        <time>2017-03-04T05:35:51Z</time>
      </trkpt>
      <trkpt lat="44.36042" lon="3.42338">
        <ele>818</ele>
        <time>2017-03-04T05:37:51Z</time>
      </trkpt>
      <trkpt lat="44.36045" lon="3.42327">
        <ele>818</ele>
        <time>2017-03-04T05:39:51Z</time>
      </trkpt>
      <trkpt lat="44.36046" lon="3.42273">
        <ele>826</ele>
        <time>2017-03-04T05:41:51Z</time>
      </trkpt>
      <trkpt lat="44.3605" lon="3.42247">
        <ele>827</ele>
        <time>2017-03-04T05:43:51Z</time>
      </trkpt>
      <trkpt lat="44.36071" lon="3.42206">
        <ele>813</ele>
        <time>2017-03-04T05:45:51Z</time>
      </trkpt>
      <trkpt lat="44.36095" lon="3.4217">
        <ele>798</ele>
        <time>2017-03-04T05:47:51Z</time>
      </trkpt>
      <trkpt lat="44.36109" lon="3.42155">
        <ele>788</ele>
        <time>2017-03-04T05:49:51Z</time>
      </trkpt>
      <trkpt lat="44.36113" lon="3.42147">
        <ele>785</ele>
        <time>2017-03-04T05:51:51Z</time>
      </trkpt>
      <trkpt lat="44.36114" lon="3.42133">
        <ele>783</ele>
        <time>2017-03-04T05:53:51Z</time>
      </trkpt>
      <trkpt lat="44.36111" lon="3.42121">
        <ele>783</ele>
        <time>2017-03-04T05:55:51Z</time>
      </trkpt>
      <trkpt lat="44.36109" lon="3.42108">
        <ele>783</ele>
        <time>2017-03-04T05:57:51Z</time>
      </trkpt>
      <trkpt lat="44.36102" lon="3.42096">
        <ele>786</ele>
        <time>2017-03-04T05:59:51Z</time>
      </trkpt>
      <trkpt lat="44.36085" lon="3.42066">
        <ele>794</ele>
        <time>2017-03-04T06:01:51Z</time>
      </trkpt>
      <trkpt lat="44.36081" lon="3.42053">
        <ele>796</ele>
        <time>2017-03-04T06:03:51Z</time>
      </trkpt>
      <trkpt lat="44.3608" lon="3.42035">
        <ele>795</ele>
        <time>2017-03-04T06:05:51Z</time>
      </trkpt>
      <trkpt lat="44.36056" lon="3.41902">
        <ele>787</ele>
        <time>2017-03-04T06:07:51Z</time>
      </trkpt>
      <trkpt lat="44.36056" lon="3.41896">
        <ele>785</ele>
        <time>2017-03-04T06:09:51Z</time>
      </trkpt>
      <trkpt lat="44.36057" lon="3.41888">
        <ele>782</ele>
        <time>2017-03-04T06:11:51Z</time>
      </trkpt>
      <trkpt lat="44.3606" lon="3.41882">
        <ele>778</ele>
        <time>2017-03-04T06:13:51Z</time>
      </trkpt>
      <trkpt lat="44.36064" lon="3.41878">
        <ele>775</ele>
        <time>2017-03-04T06:15:51Z</time>
      </trkpt>
      <trkpt lat="44.36079" lon="3.41874">
        <ele>765</ele>
        <time>2017-03-04T06:17:51Z</time>
      </trkpt>
      <trkpt lat="44.36084" lon="3.41871">
        <ele>761</ele>
        <time>2017-03-04T06:19:51Z</time>
      </trkpt>
      <trkpt lat="44.36087" lon="3.41867">
        <ele>759</ele>
        <time>2017-03-04T06:21:51Z</time>
      </trkpt>
      <trkpt lat="44.36088" lon="3.41864">
        <ele>757</ele>
        <time>2017-03-04T06:23:51Z</time>
      </trkpt>
      <trkpt lat="44.36087" lon="3.41862">
        <ele>757</ele>
        <time>2017-03-04T06:25:51Z</time>
      </trkpt>
      <trkpt lat="44.36083" lon="3.41858">
        <ele>757</ele>
        <time>2017-03-04T06:27:51Z</time>
      </trkpt>
      <trkpt lat="44.36062" lon="3.41838">
        <ele>764</ele>
        <time>2017-03-04T06:29:51Z</time>
      </trkpt>
      <trkpt lat="44.36059" lon="3.41835">
        <ele>765</ele>
        <time>2017-03-04T06:31:51Z</time>
      </trkpt>
      <trkpt lat="44.36059" lon="3.41829">
        <ele>762</ele>
        <time>2017-03-04T06:33:51Z</time>
      </trkpt>
      <trkpt lat="44.36059" lon="3.41821">
        <ele>759</ele>
        <time>2017-03-04T06:35:51Z</time>
      </trkpt>
      <trkpt lat="44.3606" lon="3.41815">
        <ele>755</ele>
        <time>2017-03-04T06:37:51Z</time>
      </trkpt>
      <trkpt lat="44.36062" lon="3.41813">
        <ele>753</ele>
        <time>2017-03-04T06:39:51Z</time>
      </trkpt>
      <trkpt lat="44.36066" lon="3.41813">
        <ele>750</ele>
        <time>2017-03-04T06:41:51Z</time>
      </trkpt>
      <trkpt lat="44.36084" lon="3.41818">
        <ele>741</ele>
        <time>2017-03-04T06:43:51Z</time>
      </trkpt>
      <trkpt lat="44.36096" lon="3.41818">
        <ele>735</ele>
        <time>2017-03-04T06:45:51Z</time>
      </trkpt>
      <trkpt lat="44.36103" lon="3.41814">
        <ele>730</ele>
        <time>2017-03-04T06:47:51Z</time>
      </trkpt>
      <trkpt lat="44.36106" lon="3.41812">
        <ele>728</ele>
        <time>2017-03-04T06:49:51Z</time>
      </trkpt>
      <trkpt lat="44.36109" lon="3.41811">
        <ele>726</ele>
        <time>2017-03-04T06:51:51Z</time>
      </trkpt>
      <trkpt lat="44.36112" lon="3.41812">
        <ele>725</ele>
        <time>2017-03-04T06:53:51Z</time>
      </trkpt>
      <trkpt lat="44.36115" lon="3.41816">
        <ele>726</ele>
        <time>2017-03-04T06:55:51Z</time>
      </trkpt>
      <trkpt lat="44.36123" lon="3.41821">
        <ele>725</ele>
        <time>2017-03-04T06:57:51Z</time>
      </trkpt>
      <trkpt lat="44.36152" lon="3.41826">
        <ele>715</ele>
        <time>2017-03-04T06:59:51Z</time>
      </trkpt>
      <trkpt lat="44.36172" lon="3.41824">
        <ele>704</ele>
        <time>2017-03-04T07:01:51Z</time>
      </trkpt>
      <trkpt lat="44.36198" lon="3.41819">
        <ele>688</ele>
        <time>2017-03-04T07:03:51Z</time>
      </trkpt>
      <trkpt lat="44.36199" lon="3.41819">
        <ele>687</ele>
        <time>2017-03-04T07:05:51Z</time>
      </trkpt>
      <trkpt lat="44.362" lon="3.41818">
        <ele>686</ele>
        <time>2017-03-04T07:07:51Z</time>
      </trkpt>
      <trkpt lat="44.36201" lon="3.41816">
        <ele>685</ele>
        <time>2017-03-04T07:09:51Z</time>
      </trkpt>
      <trkpt lat="44.36201" lon="3.41815">
        <ele>685</ele>
        <time>2017-03-04T07:11:51Z</time>
      </trkpt>
      <trkpt lat="44.362" lon="3.41813">
        <ele>684</ele>
        <time>2017-03-04T07:13:51Z</time>
      </trkpt>
      <trkpt lat="44.36199" lon="3.41812">
        <ele>685</ele>
        <time>2017-03-04T07:15:51Z</time>
      </trkpt>
      <trkpt lat="44.36193" lon="3.41812">
        <ele>688</ele>
        <time>2017-03-04T07:17:51Z</time>
      </trkpt>
      <trkpt lat="44.36169" lon="3.41805">
        <ele>696</ele>
        <time>2017-03-04T07:19:51Z</time>
      </trkpt>
      <trkpt lat="44.3614" lon="3.41796">
        <ele>704</ele>
        <time>2017-03-04T07:21:51Z</time>
      </trkpt>
      <trkpt lat="44.3613" lon="3.41792">
        <ele>706</ele>
        <time>2017-03-04T07:23:51Z</time>
      </trkpt>
      <trkpt lat="44.3613" lon="3.41791">
        <ele>706</ele>
        <time>2017-03-04T07:25:51Z</time>
      </trkpt>
      <trkpt lat="44.36131" lon="3.41788">
        <ele>704</ele>
        <time>2017-03-04T07:27:51Z</time>
      </trkpt>
      <trkpt lat="44.3614" lon="3.41782">
        <ele>697</ele>
        <time>2017-03-04T07:29:51Z</time>
      </trkpt>
      <trkpt lat="44.36155" lon="3.41775">
        <ele>686</ele>
        <time>2017-03-04T07:31:51Z</time>
      </trkpt>
      <trkpt lat="44.36176" lon="3.41766">
        <ele>674</ele>
        <time>2017-03-04T07:33:51Z</time>
      </trkpt>
      <trkpt lat="44.36203" lon="3.41757">
        <ele>662</ele>
        <time>2017-03-04T07:35:51Z</time>
      </trkpt>
      <trkpt lat="44.36232" lon="3.4175">
        <ele>652</ele>
        <time>2017-03-04T07:37:51Z</time>
      </trkpt>
      <trkpt lat="44.36253" lon="3.41747">
        <ele>645</ele>
        <time>2017-03-04T07:39:51Z</time>
      </trkpt>
      <trkpt lat="44.36261" lon="3.41749">
        <ele>643</ele>
        <time>2017-03-04T07:41:51Z</time>
      </trkpt>
      <trkpt lat="44.36269" lon="3.41761">
        <ele>641</ele>
        <time>2017-03-04T07:43:51Z</time>
      </trkpt>
      <trkpt lat="44.36278" lon="3.41781">
        <ele>639</ele>
        <time>2017-03-04T07:45:51Z</time>
      </trkpt>
      <trkpt lat="44.36279" lon="3.41783">
        <ele>639</ele>
        <time>2017-03-04T07:47:51Z</time>
      </trkpt>
      <trkpt lat="44.3628" lon="3.41783">
        <ele>639</ele>
        <time>2017-03-04T07:49:51Z</time>
      </trkpt>
      <trkpt lat="44.36284" lon="3.41768">
        <ele>635</ele>
        <time>2017-03-04T07:51:51Z</time>
      </trkpt>
      <trkpt lat="44.36282" lon="3.41736">
        <ele>630</ele>
        <time>2017-03-04T07:53:51Z</time>
      </trkpt>
      <trkpt lat="44.3628" lon="3.41716">
        <ele>624</ele>
        <time>2017-03-04T07:55:51Z</time>
      </trkpt>
      <trkpt lat="44.36276" lon="3.41706">
        <ele>622</ele>
        <time>2017-03-04T07:57:51Z</time>
      </trkpt>
      <trkpt lat="44.36275" lon="3.41704">
        <ele>622</ele>
        <time>2017-03-04T07:59:51Z</time>
      </trkpt>
      <trkpt lat="44.36276" lon="3.41703">
        <ele>622</ele>
        <time>2017-03-04T08:01:51Z</time>
      </trkpt>
      <trkpt lat="44.36282" lon="3.41704">
        <ele>620</ele>
        <time>2017-03-04T08:03:51Z</time>
      </trkpt>
      <trkpt lat="44.36291" lon="3.41711">
        <ele>619</ele>
        <time>2017-03-04T08:05:51Z</time>
      </trkpt>
      <trkpt lat="44.36294" lon="3.41712">
        <ele>619</ele>
        <time>2017-03-04T08:07:51Z</time>
      </trkpt>
      <trkpt lat="44.36296" lon="3.41712">
        <ele>618</ele>
        <time>2017-03-04T08:09:51Z</time>
      </trkpt>
      <trkpt lat="44.36297" lon="3.4171">
        <ele>617</ele>
        <time>2017-03-04T08:11:51Z</time>
      </trkpt>
      <trkpt lat="44.36297" lon="3.41709">
        <ele>617</ele>
        <time>2017-03-04T08:13:51Z</time>
      </trkpt>
      <trkpt lat="44.36296" lon="3.41702">
        <ele>616</ele>
        <time>2017-03-04T08:15:51Z</time>
      </trkpt>
      <trkpt lat="44.36296" lon="3.41701">
        <ele>615</ele>
        <time>2017-03-04T08:17:51Z</time>
      </trkpt>
      <trkpt lat="44.36296" lon="3.417">
        <ele>615</ele>
        <time>2017-03-04T08:19:51Z</time>
      </trkpt>
      <trkpt lat="44.36297" lon="3.417">
        <ele>615</ele>
        <time>2017-03-04T08:21:51Z</time>
      </trkpt>
      <trkpt lat="44.36301" lon="3.41702">
        <ele>614</ele>
        <time>2017-03-04T08:23:51Z</time>
      </trkpt>
      <trkpt lat="44.36304" lon="3.41708">
        <ele>615</ele>
        <time>2017-03-04T08:25:51Z</time>
      </trkpt>
      <trkpt lat="44.36305" lon="3.41709">
        <ele>615</ele>
        <time>2017-03-04T08:27:51Z</time>
      </trkpt>
      <trkpt lat="44.36306" lon="3.4171">
        <ele>615</ele>
        <time>2017-03-04T08:29:51Z</time>
      </trkpt>
      <trkpt lat="44.36307" lon="3.41709">
        <ele>614</ele>
        <time>2017-03-04T08:31:51Z</time>
      </trkpt>
      <trkpt lat="44.36307" lon="3.41708">
        <ele>614</ele>
        <time>2017-03-04T08:33:51Z</time>
      </trkpt>
      <trkpt lat="44.36308" lon="3.41707">
        <ele>613</ele>
        <time>2017-03-04T08:35:51Z</time>
      </trkpt>
      <trkpt lat="44.36307" lon="3.41706">
        <ele>613</ele>
        <time>2017-03-04T08:37:51Z</time>
      </trkpt>
      <trkpt lat="44.36306" lon="3.417">
        <ele>612</ele>
        <time>2017-03-04T08:39:51Z</time>
      </trkpt>
      <trkpt lat="44.36306" lon="3.41696">
        <ele>612</ele>
        <time>2017-03-04T08:41:51Z</time>
      </trkpt>
      <trkpt lat="44.36306" lon="3.41693">
        <ele>611</ele>
        <time>2017-03-04T08:43:51Z</time>
      </trkpt>
      <trkpt lat="44.36307" lon="3.41692">
        <ele>610</ele>
        <time>2017-03-04T08:45:51Z</time>
      </trkpt>
      <trkpt lat="44.36307" lon="3.41691">
        <ele>610</ele>
        <time>2017-03-04T08:47:51Z</time>
      </trkpt>
      <trkpt lat="44.36308" lon="3.41691">
        <ele>610</ele>
        <time>2017-03-04T08:49:51Z</time>
      </trkpt>
      <trkpt lat="44.36309" lon="3.41692">
        <ele>610</ele>
        <time>2017-03-04T08:51:51Z</time>
      </trkpt>
      <trkpt lat="44.3631" lon="3.41693">
        <ele>610</ele>
        <time>2017-03-04T08:53:51Z</time>
      </trkpt>
      <trkpt lat="44.36313" lon="3.41701">
        <ele>611</ele>
        <time>2017-03-04T08:55:51Z</time>
      </trkpt>
      <trkpt lat="44.36316" lon="3.41708">
        <ele>611</ele>
        <time>2017-03-04T08:57:51Z</time>
      </trkpt>
      <trkpt lat="44.3632" lon="3.41736">
        <ele>615</ele>
        <time>2017-03-04T08:59:51Z</time>
      </trkpt>
      <trkpt lat="44.36321" lon="3.41738">
        <ele>615</ele>
        <time>2017-03-04T09:01:51Z</time>
      </trkpt>
      <trkpt lat="44.36322" lon="3.41739">
        <ele>614</ele>
        <time>2017-03-04T09:03:51Z</time>
      </trkpt>
      <trkpt lat="44.36324" lon="3.41738">
        <ele>613</ele>
        <time>2017-03-04T09:05:51Z</time>
      </trkpt>
      <trkpt lat="44.36324" lon="3.41736">
        <ele>613</ele>
        <time>2017-03-04T09:07:51Z</time>
      </trkpt>
      <trkpt lat="44.36326" lon="3.4172">
        <ele>610</ele>
        <time>2017-03-04T09:09:51Z</time>
      </trkpt>
      <trkpt lat="44.36333" lon="3.41693">
        <ele>604</ele>
        <time>2017-03-04T09:11:51Z</time>
      </trkpt>
      <trkpt lat="44.3634" lon="3.4167">
        <ele>598</ele>
        <time>2017-03-04T09:13:51Z</time>
      </trkpt>
      <trkpt lat="44.3634" lon="3.41666">
        <ele>597</ele>
        <time>2017-03-04T09:15:51Z</time>
      </trkpt>
      <trkpt lat="44.36339" lon="3.41662">
        <ele>597</ele>
        <time>2017-03-04T09:17:51Z</time>
      </trkpt>
      <trkpt lat="44.36339" lon="3.4166">
        <ele>596</ele>
        <time>2017-03-04T09:19:51Z</time>
      </trkpt>
      <trkpt lat="44.36341" lon="3.41658">
        <ele>594</ele>
        <time>2017-03-04T09:21:51Z</time>
      </trkpt>
      <trkpt lat="44.36342" lon="3.41658">
        <ele>594</ele>
        <time>2017-03-04T09:23:51Z</time>
      </trkpt>
      <trkpt lat="44.36345" lon="3.41663">
        <ele>594</ele>
        <time>2017-03-04T09:25:51Z</time>
      </trkpt>
      <trkpt lat="44.36345" lon="3.41669">
        <ele>595</ele>
        <time>2017-03-04T09:27:51Z</time>
      </trkpt>
      <trkpt lat="44.36347" lon="3.41669">
        <ele>594</ele>
        <time>2017-03-04T09:29:51Z</time>
      </trkpt>
      <trkpt lat="44.36348" lon="3.41668">
        <ele>594</ele>
        <time>2017-03-04T09:31:51Z</time>
      </trkpt>
      <trkpt lat="44.36349" lon="3.41659">
        <ele>591</ele>
        <time>2017-03-04T09:33:51Z</time>
      </trkpt>
      <trkpt lat="44.3635" lon="3.41656">
        <ele>590</ele>
        <time>2017-03-04T09:35:51Z</time>
      </trkpt>
      <trkpt lat="44.36352" lon="3.41656">
        <ele>589</ele>
        <time>2017-03-04T09:37:51Z</time>
      </trkpt>
      <trkpt lat="44.36354" lon="3.41659">
        <ele>589</ele>
        <time>2017-03-04T09:39:51Z</time>
      </trkpt>
      <trkpt lat="44.36353" lon="3.4167">
        <ele>591</ele>
        <time>2017-03-04T09:41:51Z</time>
      </trkpt>
      <trkpt lat="44.36353" lon="3.41671">
        <ele>591</ele>
        <time>2017-03-04T09:43:51Z</time>
      </trkpt>
      <trkpt lat="44.36356" lon="3.41672">
        <ele>590</ele>
        <time>2017-03-04T09:45:51Z</time>
      </trkpt>
      <trkpt lat="44.36357" lon="3.41671">
        <ele>589</ele>
        <time>2017-03-04T09:47:51Z</time>
      </trkpt>
      <trkpt lat="44.3636" lon="3.41661">
        <ele>586</ele>
        <time>2017-03-04T09:49:51Z</time>
      </trkpt>
      <trkpt lat="44.36362" lon="3.41641">
        <ele>580</ele>
        <time>2017-03-04T09:51:51Z</time>
      </trkpt>
      <trkpt lat="44.36362" lon="3.4164">
        <ele>580</ele>
        <time>2017-03-04T09:53:51Z</time>
      </trkpt>
      <trkpt lat="44.36364" lon="3.41639">
        <ele>579</ele>
        <time>2017-03-04T09:55:51Z</time>
      </trkpt>
      <trkpt lat="44.36367" lon="3.41639">
        <ele>578</ele>
        <time>2017-03-04T09:57:51Z</time>
      </trkpt>
      <trkpt lat="44.36368" lon="3.41638">
        <ele>577</ele>
        <time>2017-03-04T09:59:51Z</time>
      </trkpt>
      <trkpt lat="44.36368" lon="3.41636">
        <ele>577</ele>
        <time>2017-03-04T10:01:51Z</time>
      </trkpt>
      <trkpt lat="44.36369" lon="3.4163">
        <ele>575</ele>
        <time>2017-03-04T10:03:51Z</time>
      </trkpt>
      <trkpt lat="44.36372" lon="3.41623">
        <ele>573</ele>
        <time>2017-03-04T10:05:51Z</time>
      </trkpt>
      <trkpt lat="44.36377" lon="3.41614">
        <ele>569</ele>
        <time>2017-03-04T10:07:51Z</time>
      </trkpt>
      <trkpt lat="44.36378" lon="3.41613">
        <ele>569</ele>
        <time>2017-03-04T10:09:51Z</time>
      </trkpt>
      <trkpt lat="44.36377" lon="3.41612">
        <ele>569</ele>
        <time>2017-03-04T10:11:51Z</time>
      </trkpt>
      <trkpt lat="44.36375" lon="3.41612">
        <ele>570</ele>
        <time>2017-03-04T10:13:51Z</time>
      </trkpt>
      <trkpt lat="44.36369" lon="3.41615">
        <ele>572</ele>
        <time>2017-03-04T10:15:51Z</time>
      </trkpt>
      <trkpt lat="44.36361" lon="3.41617">
        <ele>575</ele>
        <time>2017-03-04T10:17:51Z</time>
      </trkpt>
      <trkpt lat="44.36351" lon="3.41615">
        <ele>578</ele>
        <time>2017-03-04T10:19:51Z</time>
      </trkpt>
      <trkpt lat="44.3634" lon="3.41613">
        <ele>580</ele>
        <time>2017-03-04T10:21:51Z</time>
      </trkpt>
      <trkpt lat="44.3634" lon="3.41612">
        <ele>580</ele>
        <time>2017-03-04T10:23:51Z</time>
      </trkpt>
      <trkpt lat="44.36341" lon="3.4161">
        <ele>579</ele>
        <time>2017-03-04T10:25:51Z</time>
      </trkpt>
      <trkpt lat="44.36359" lon="3.41603">
        <ele>572</ele>
        <time>2017-03-04T10:27:51Z</time>
      </trkpt>
      <trkpt lat="44.36359" lon="3.41601">
        <ele>572</ele>
        <time>2017-03-04T10:29:51Z</time>
      </trkpt>
      <trkpt lat="44.36359" lon="3.416">
        <ele>571</ele>
        <time>2017-03-04T10:31:51Z</time>
      </trkpt>
      <trkpt lat="44.36355" lon="3.416">
        <ele>572</ele>
        <time>2017-03-04T10:33:51Z</time>
      </trkpt>
      <trkpt lat="44.36349" lon="3.41601">
        <ele>574</ele>
        <time>2017-03-04T10:35:51Z</time>
      </trkpt>
      <trkpt lat="44.3634" lon="3.41597">
        <ele>575</ele>
        <time>2017-03-04T10:37:51Z</time>
      </trkpt>
      <trkpt lat="44.36329" lon="3.41594">
        <ele>576</ele>
        <time>2017-03-04T10:39:51Z</time>
      </trkpt>
      <trkpt lat="44.36308" lon="3.41591">
        <ele>577</ele>
        <time>2017-03-04T10:41:51Z</time>
      </trkpt>
      <trkpt lat="44.36293" lon="3.41587">
        <ele>576</ele>
        <time>2017-03-04T10:43:51Z</time>
      </trkpt>
      <trkpt lat="44.36274" lon="3.41578">
        <ele>574</ele>
        <time>2017-03-04T10:45:51Z</time>
      </trkpt>
      <trkpt lat="44.36257" lon="3.41572">
        <ele>572</ele>
        <time>2017-03-04T10:47:51Z</time>
      </trkpt>
      <trkpt lat="44.36236" lon="3.41567">
        <ele>574</ele>
        <time>2017-03-04T10:49:51Z</time>
      </trkpt>
      <trkpt lat="44.36225" lon="3.41566">
        <ele>577</ele>
        <time>2017-03-04T10:51:51Z</time>
      </trkpt>
      <trkpt lat="44.36225" lon="3.41565">
        <ele>576</ele>
        <time>2017-03-04T10:53:51Z</time>
      </trkpt>
      <trkpt lat="44.36224" lon="3.41564">
        <ele>576</ele>
        <time>2017-03-04T10:55:51Z</time>
      </trkpt>
      <trkpt lat="44.36224" lon="3.41563">
        <ele>575</ele>
        <time>2017-03-04T10:57:51Z</time>
      </trkpt>
      <trkpt lat="44.36226" lon="3.41561">
        <ele>574</ele>
        <time>2017-03-04T10:59:51Z</time>
      </trkpt>
      <trkpt lat="44.36228" lon="3.41559">
        <ele>573</ele>
        <time>2017-03-04T11:01:51Z</time>
      </trkpt>
      <trkpt lat="44.3623" lon="3.41558">
        <ele>572</ele>
        <time>2017-03-04T11:03:51Z</time>
      </trkpt>
      <trkpt lat="44.36234" lon="3.41558">
        <ele>570</ele>
        <time>2017-03-04T11:05:51Z</time>
      </trkpt>
      <trkpt lat="44.36235" lon="3.41558">
        <ele>570</ele>
        <time>2017-03-04T11:07:51Z</time>
      </trkpt>
      <trkpt lat="44.36236" lon="3.41557">
        <ele>569</ele>
        <time>2017-03-04T11:09:51Z</time>
      </trkpt>
      <trkpt lat="44.36237" lon="3.41556">
        <ele>569</ele>
        <time>2017-03-04T11:11:51Z</time>
      </trkpt>
      <trkpt lat="44.36237" lon="3.41554">
        <ele>568</ele>
        <time>2017-03-04T11:13:51Z</time>
      </trkpt>
      <trkpt lat="44.36236" lon="3.41554">
        <ele>568</ele>
        <time>2017-03-04T11:15:51Z</time>
      </trkpt>
      <trkpt lat="44.36235" lon="3.41553">
        <ele>568</ele>
        <time>2017-03-04T11:17:51Z</time>
      </trkpt>
      <trkpt lat="44.36234" lon="3.41552">
        <ele>568</ele>
        <time>2017-03-04T11:19:51Z</time>
      </trkpt>
      <trkpt lat="44.36233" lon="3.41551">
        <ele>567</ele>
        <time>2017-03-04T11:21:51Z</time>
      </trkpt>
      <trkpt lat="44.36227" lon="3.41544">
        <ele>566</ele>
        <time>2017-03-04T11:23:51Z</time>
      </trkpt>
      <trkpt lat="44.36225" lon="3.41534">
        <ele>562</ele>
        <time>2017-03-04T11:25:51Z</time>
      </trkpt>
      <trkpt lat="44.36224" lon="3.41531">
        <ele>561</ele>
        <time>2017-03-04T11:27:51Z</time>
      </trkpt>
      <trkpt lat="44.36224" lon="3.4153">
        <ele>561</ele>
        <time>2017-03-04T11:29:51Z</time>
      </trkpt>
      <trkpt lat="44.36224" lon="3.41529">
        <ele>560</ele>
        <time>2017-03-04T11:31:51Z</time>
      </trkpt>
      <trkpt lat="44.36229" lon="3.41526">
        <ele>557</ele>
        <time>2017-03-04T11:33:51Z</time>
      </trkpt>
      <trkpt lat="44.36241" lon="3.41525">
        <ele>553</ele>
        <time>2017-03-04T11:35:51Z</time>
      </trkpt>
      <trkpt lat="44.3625" lon="3.41527">
        <ele>551</ele>
        <time>2017-03-04T11:37:51Z</time>
      </trkpt>
      <trkpt lat="44.36253" lon="3.41527">
        <ele>551</ele>
        <time>2017-03-04T11:39:51Z</time>
      </trkpt>
      <trkpt lat="44.36268" lon="3.41515">
        <ele>545</ele>
        <time>2017-03-04T11:41:51Z</time>
      </trkpt>
      <trkpt lat="44.36281" lon="3.41509">
        <ele>542</ele>
        <time>2017-03-04T11:43:51Z</time>
      </trkpt>
      <trkpt lat="44.36299" lon="3.41504">
        <ele>540</ele>
        <time>2017-03-04T11:45:51Z</time>
      </trkpt>
      <trkpt lat="44.36315" lon="3.41494">
        <ele>536</ele>
        <time>2017-03-04T11:47:51Z</time>
      </trkpt>
      <trkpt lat="44.36334" lon="3.41477">
        <ele>529</ele>
        <time>2017-03-04T11:49:51Z</time>
      </trkpt>
      <trkpt lat="44.36342" lon="3.41463">
        <ele>523</ele>
        <time>2017-03-04T11:51:51Z</time>
      </trkpt>
      <trkpt lat="44.36348" lon="3.41457">
        <ele>521</ele>
        <time>2017-03-04T11:53:51Z</time>
      </trkpt>
      <trkpt lat="44.3636" lon="3.41448">
        <ele>517</ele>
        <time>2017-03-04T11:55:51Z</time>
      </trkpt>
      <trkpt lat="44.36374" lon="3.41436">
        <ele>513</ele>
        <time>2017-03-04T11:57:51Z</time>
      </trkpt>
      <trkpt lat="44.36378" lon="3.41433">
        <ele>512</ele>
        <time>2017-03-04T11:59:51Z</time>
      </trkpt>
      <trkpt lat="44.36381" lon="3.41429">
        <ele>511</ele>
        <time>2017-03-04T12:01:51Z</time>
      </trkpt>
      <trkpt lat="44.36386" lon="3.41415">
        <ele>506</ele>
        <time>2017-03-04T12:03:51Z</time>
      </trkpt>
      <trkpt lat="44.36386" lon="3.41415">
        <ele>506</ele>
        <time>2017-03-04T12:05:51Z</time>
      </trkpt>
      <trkpt lat="44.36392" lon="3.41412">
        <ele>506</ele>
        <time>2017-03-04T12:07:51Z</time>
      </trkpt>
      <trkpt lat="44.36412" lon="3.41392">
        <ele>502</ele>
        <time>2017-03-04T12:09:51Z</time>
      </trkpt>
      <trkpt lat="44.36422" lon="3.41382">
        <ele>498</ele>
        <time>2017-03-04T12:11:51Z</time>
      </trkpt>
      <trkpt lat="44.36427" lon="3.41371">
        <ele>495</ele>
        <time>2017-03-04T12:13:51Z</time>
      </trkpt>
      <trkpt lat="44.36431" lon="3.41361">
        <ele>492</ele>
        <time>2017-03-04T12:15:51Z</time>
      </trkpt>
      <trkpt lat="44.36435" lon="3.41356">
        <ele>490</ele>
        <time>2017-03-04T12:17:51Z</time>
      </trkpt>
      <trkpt lat="44.36442" lon="3.4135">
        <ele>488</ele>
        <time>2017-03-04T12:19:51Z</time>
      </trkpt>
      <trkpt lat="44.36448" lon="3.41334">
        <ele>484</ele>
        <time>2017-03-04T12:21:51Z</time>
      </trkpt>
      <trkpt lat="44.36451" lon="3.41325">
        <ele>483</ele>
        <time>2017-03-04T12:23:51Z</time>
      </trkpt>
      <trkpt lat="44.36453" lon="3.41315">
        <ele>482</ele>
        <time>2017-03-04T12:25:51Z</time>
      </trkpt>
      <trkpt lat="44.36454" lon="3.41305">
        <ele>481</ele>
        <time>2017-03-04T12:27:51Z</time>
      </trkpt>
      <trkpt lat="44.36455" lon="3.41293">
        <ele>480</ele>
        <time>2017-03-04T12:29:51Z</time>
      </trkpt>
      <trkpt lat="44.36456" lon="3.41286">
        <ele>479</ele>
        <time>2017-03-04T12:31:51Z</time>
      </trkpt>
      <trkpt lat="44.36456" lon="3.4128">
        <ele>479</ele>
        <time>2017-03-04T12:33:51Z</time>
      </trkpt>
      <trkpt lat="44.36455" lon="3.41274">
        <ele>478</ele>
        <time>2017-03-04T12:35:51Z</time>
      </trkpt>
      <trkpt lat="44.36455" lon="3.4127">
        <ele>478</ele>
        <time>2017-03-04T12:37:51Z</time>
      </trkpt>
      <trkpt lat="44.36455" lon="3.41266">
        <ele>477</ele>
        <time>2017-03-04T12:39:51Z</time>
      </trkpt>
      <trkpt lat="44.36458" lon="3.41256">
        <ele>476</ele>
        <time>2017-03-04T12:41:51Z</time>
      </trkpt>
      <trkpt lat="44.36462" lon="3.41246">
        <ele>476</ele>
        <time>2017-03-04T12:43:51Z</time>
      </trkpt>
      <trkpt lat="44.36465" lon="3.41238">
        <ele>475</ele>
        <time>2017-03-04T12:45:51Z</time>
      </trkpt>
      <trkpt lat="44.36468" lon="3.41233">
        <ele>475</ele>
        <time>2017-03-04T12:47:51Z</time>
      </trkpt>
      <trkpt lat="44.3647" lon="3.41229">
        <ele>474</ele>
        <time>2017-03-04T12:49:51Z</time>
      </trkpt>
      <trkpt lat="44.3647" lon="3.41227">
        <ele>474</ele>
        <time>2017-03-04T12:51:51Z</time>
      </trkpt>
      <trkpt lat="44.3647" lon="3.41225">
        <ele>474</ele>
        <time>2017-03-04T12:53:51Z</time>
      </trkpt>
      <trkpt lat="44.36469" lon="3.41222">
        <ele>474</ele>
        <time>2017-03-04T12:55:51Z</time>
      </trkpt>
      <trkpt lat="44.36467" lon="3.4122">
        <ele>474</ele>
        <time>2017-03-04T12:57:51Z</time>
      </trkpt>
      <trkpt lat="44.36463" lon="3.41216">
        <ele>474</ele>
        <time>2017-03-04T12:59:51Z</time>
      </trkpt>
      <trkpt lat="44.3646" lon="3.41212">
        <ele>474</ele>
        <time>2017-03-04T13:01:51Z</time>
      </trkpt>
      <trkpt lat="44.3645" lon="3.41197">
        <ele>473</ele>
        <time>2017-03-04T13:03:51Z</time>
      </trkpt>
      <trkpt lat="44.36449" lon="3.41197">
        <ele>473</ele>
        <time>2017-03-04T13:05:51Z</time>
      </trkpt>
      <trkpt lat="44.36446" lon="3.41192">
        <ele>473</ele>
        <time>2017-03-04T13:07:51Z</time>
      </trkpt>
      <trkpt lat="44.36444" lon="3.41189">
        <ele>473</ele>
        <time>2017-03-04T13:09:51Z</time>
      </trkpt>
      <trkpt lat="44.36443" lon="3.41186">
        <ele>473</ele>
        <time>2017-03-04T13:11:51Z</time>
      </trkpt>
      <trkpt lat="44.36442" lon="3.41185">
        <ele>473</ele>
        <time>2017-03-04T13:13:51Z</time>
      </trkpt>
      <trkpt lat="44.36441" lon="3.41184">
        <ele>473</ele>
        <time>2017-03-04T13:15:51Z</time>
      </trkpt>
      <trkpt lat="44.3644" lon="3.41184">
        <ele>473</ele>
        <time>2017-03-04T13:17:51Z</time>
      </trkpt>
      <trkpt lat="44.36438" lon="3.41183">
        <ele>473</ele>
        <time>2017-03-04T13:19:51Z</time>
      </trkpt>
      <trkpt lat="44.36438" lon="3.41183">
        <ele>473</ele>
        <time>2017-03-04T13:21:51Z</time>
      </trkpt>
      <trkpt lat="44.36438" lon="3.4118">
        <ele>473</ele>
        <time>2017-03-04T13:23:51Z</time>
      </trkpt>
      <trkpt lat="44.36439" lon="3.41163">
        <ele>472</ele>
        <time>2017-03-04T13:25:51Z</time>
      </trkpt>
      <trkpt lat="44.36439" lon="3.41155">
        <ele>472</ele>
        <time>2017-03-04T13:27:51Z</time>
      </trkpt>
      <trkpt lat="44.36438" lon="3.41152">
        <ele>472</ele>
        <time>2017-03-04T13:29:51Z</time>
      </trkpt>
      <trkpt lat="44.36437" lon="3.41141">
        <ele>471</ele>
        <time>2017-03-04T13:31:51Z</time>
      </trkpt>
      <trkpt lat="44.36436" lon="3.41128">
        <ele>471</ele>
        <time>2017-03-04T13:33:51Z</time>
      </trkpt>
      <trkpt lat="44.36434" lon="3.41114">
        <ele>471</ele>
        <time>2017-03-04T13:35:51Z</time>
      </trkpt>
      <trkpt lat="44.3643" lon="3.4108">
        <ele>471</ele>
        <time>2017-03-04T13:37:51Z</time>
      </trkpt>
      <trkpt lat="44.3643" lon="3.41074">
        <ele>471</ele>
        <time>2017-03-04T13:39:51Z</time>
      </trkpt>
      <trkpt lat="44.3643" lon="3.41071">
        <ele>471</ele>
        <time>2017-03-04T13:41:51Z</time>
      </trkpt>
      <trkpt lat="44.3643" lon="3.41068">
        <ele>471</ele>
        <time>2017-03-04T13:43:51Z</time>
      </trkpt>
      <trkpt lat="44.36431" lon="3.41063">
        <ele>471</ele>
        <time>2017-03-04T13:45:51Z</time>
      </trkpt>
      <trkpt lat="44.36433" lon="3.41059">
        <ele>471</ele>
        <time>2017-03-04T13:47:51Z</time>
      </trkpt>
      <trkpt lat="44.36436" lon="3.41055">
        <ele>471</ele>
        <time>2017-03-04T13:49:51Z</time>
      </trkpt>
      <trkpt lat="44.36439" lon="3.41053">
        <ele>471</ele>
        <time>2017-03-04T13:51:51Z</time>
      </trkpt>
      <trkpt lat="44.36445" lon="3.41051">
        <ele>471</ele>
        <time>2017-03-04T13:53:51Z</time>
      </trkpt>
      <trkpt lat="44.36453" lon="3.41049">
        <ele>470</ele>
        <time>2017-03-04T13:55:51Z</time>
      </trkpt>
      <trkpt lat="44.36456" lon="3.41048">
        <ele>470</ele>
        <time>2017-03-04T13:57:51Z</time>
      </trkpt>
      <trkpt lat="44.36472" lon="3.41044">
        <ele>470</ele>
        <time>2017-03-04T13:59:51Z</time>
      </trkpt>
      <trkpt lat="44.36486" lon="3.41041">
        <ele>469</ele>
        <time>2017-03-04T14:01:51Z</time>
      </trkpt>
      <trkpt lat="44.36493" lon="3.41039">
        <ele>469</ele>
        <time>2017-03-04T14:03:51Z</time>
      </trkpt>
      <trkpt lat="44.36514" lon="3.41034">
        <ele>470</ele>
        <time>2017-03-04T14:05:51Z</time>
      </trkpt>
      <trkpt lat="44.36522" lon="3.41032">
        <ele>470</ele>
        <time>2017-03-04T14:07:51Z</time>
      </trkpt>
      <trkpt lat="44.36556" lon="3.41024">
        <ele>474</ele>
        <time>2017-03-04T14:09:51Z</time>
      </trkpt>
      <trkpt lat="44.36556" lon="3.41024">
        <ele>474</ele>
        <time>2017-03-04T14:11:51Z</time>
      </trkpt>
      <trkpt lat="44.36559" lon="3.41035">
        <ele>474</ele>
        <time>2017-03-04T14:13:51Z</time>
      </trkpt>
      <trkpt lat="44.3656" lon="3.41039">
        <ele>474</ele>
        <time>2017-03-04T14:15:51Z</time>
      </trkpt>
      <trkpt lat="44.36561" lon="3.41043">
        <ele>474</ele>
        <time>2017-03-04T14:17:51Z</time>
      </trkpt>
      <trkpt lat="44.3656" lon="3.41053">
        <ele>474</ele>
        <time>2017-03-04T14:19:51Z</time>
      </trkpt>
      <trkpt lat="44.36552" lon="3.41077">
        <ele>473</ele>
        <time>2017-03-04T14:21:51Z</time>
      </trkpt>
      <trkpt lat="44.36546" lon="3.41104">
        <ele>473</ele>
        <time>2017-03-04T14:23:51Z</time>
      </trkpt>
      <trkpt lat="44.36544" lon="3.41118">
        <ele>473</ele>
        <time>2017-03-04T14:25:51Z</time>
      </trkpt>
      <trkpt lat="44.36544" lon="3.41118">
        <ele>473</ele>
        <time>2017-03-04T14:27:51Z</time>
      </trkpt>
      <trkpt lat="44.36571" lon="3.41121">
        <ele>475</ele>
        <time>2017-03-04T14:29:51Z</time>
      </trkpt>
      <trkpt lat="44.36571" lon="3.41121">
        <ele>475</ele>
        <time>2017-03-04T14:31:51Z</time>
      </trkpt>
      <trkpt lat="44.36571" lon="3.41117">
        <ele>475</ele>
        <time>2017-03-04T14:33:51Z</time>
      </trkpt>
      <trkpt lat="44.36572" lon="3.41104">
        <ele>475</ele>
        <time>2017-03-04T14:35:51Z</time>
      </trkpt>
      <trkpt lat="44.36573" lon="3.4109">
        <ele>475</ele>
        <time>2017-03-04T14:37:51Z</time>
      </trkpt>
      <trkpt lat="44.36574" lon="3.41082">
        <ele>474</ele>
        <time>2017-03-04T14:39:51Z</time>
      </trkpt>
      <trkpt lat="44.36575" lon="3.41075">
        <ele>475</ele>
        <time>2017-03-04T14:41:51Z</time>
      </trkpt>
      <trkpt lat="44.36578" lon="3.41056">
        <ele>475</ele>
        <time>2017-03-04T14:43:51Z</time>
      </trkpt>
      <trkpt lat="44.36578" lon="3.41056">
        <ele>475</ele>
        <time>2017-03-04T14:45:51Z</time>
      </trkpt>
      <trkpt lat="44.3656" lon="3.41053">
        <ele>474</ele>
        <time>2017-03-04T14:47:51Z</time>
      </trkpt>
      <trkpt lat="44.3656" lon="3.41053">
        <ele>474</ele>
        <time>2017-03-04T14:49:51Z</time>
      </trkpt>
      <trkpt lat="44.36561" lon="3.41043">
        <ele>474</ele>
        <time>2017-03-04T14:51:51Z</time>
      </trkpt>
      <trkpt lat="44.3656" lon="3.41039">
        <ele>474</ele>
        <time>2017-03-04T14:53:51Z</time>
      </trkpt>
      <trkpt lat="44.36559" lon="3.41035">
        <ele>474</ele>
        <time>2017-03-04T14:55:51Z</time>
      </trkpt>
      <trkpt lat="44.36556" lon="3.41024">
        <ele>474</ele>
        <time>2017-03-04T14:57:51Z</time>
      </trkpt>
      <trkpt lat="44.36556" lon="3.41024">
        <ele>474</ele>
        <time>2017-03-04T14:59:51Z</time>
      </trkpt>
      <trkpt lat="44.36522" lon="3.41032">
        <ele>470</ele>
        <time>2017-03-04T15:01:51Z</time>
      </trkpt>
      <trkpt lat="44.36514" lon="3.41034">
        <ele>470</ele>
        <time>2017-03-04T15:03:51Z</time>
      </trkpt>
      <trkpt lat="44.36493" lon="3.41039">
        <ele>469</ele>
        <time>2017-03-04T15:05:51Z</time>
      </trkpt>
      <trkpt lat="44.36486" lon="3.41041">
        <ele>469</ele>
        <time>2017-03-04T15:07:51Z</time>
      </trkpt>
      <trkpt lat="44.36472" lon="3.41044">
        <ele>470</ele>
        <time>2017-03-04T15:09:51Z</time>
      </trkpt>
      <trkpt lat="44.36456" lon="3.41048">
        <ele>470</ele>
        <time>2017-03-04T15:11:51Z</time>
      </trkpt>
      <trkpt lat="44.36453" lon="3.41049">
        <ele>470</ele>
        <time>2017-03-04T15:13:51Z</time>
      </trkpt>
      <trkpt lat="44.36445" lon="3.41051">
        <ele>471</ele>
        <time>2017-03-04T15:15:51Z</time>
      </trkpt>
      <trkpt lat="44.36439" lon="3.41053">
        <ele>471</ele>
        <time>2017-03-04T15:17:51Z</time>
      </trkpt>
      <trkpt lat="44.36436" lon="3.41055">
        <ele>471</ele>
        <time>2017-03-04T15:19:51Z</time>
      </trkpt>
      <trkpt lat="44.36433" lon="3.41059">
        <ele>471</ele>
        <time>2017-03-04T15:21:51Z</time>
      </trkpt>
      <trkpt lat="44.36431" lon="3.41063">
        <ele>471</ele>
        <time>2017-03-04T15:23:51Z</time>
      </trkpt>
      <trkpt lat="44.3643" lon="3.41068">
        <ele>471</ele>
        <time>2017-03-04T15:25:51Z</time>
      </trkpt>
      <trkpt lat="44.3643" lon="3.41071">
        <ele>471</ele>
        <time>2017-03-04T15:27:51Z</time>
      </trkpt>
      <trkpt lat="44.3643" lon="3.41074">
        <ele>471</ele>
        <time>2017-03-04T15:29:51Z</time>
      </trkpt>
      <trkpt lat="44.3643" lon="3.4108">
        <ele>471</ele>
        <time>2017-03-04T15:31:51Z</time>
      </trkpt>
      <trkpt lat="44.36434" lon="3.41114">
        <ele>471</ele>
        <time>2017-03-04T15:33:51Z</time>
      </trkpt>
      <trkpt lat="44.36436" lon="3.41128">
        <ele>471</ele>
        <time>2017-03-04T15:35:51Z</time>
      </trkpt>
      <trkpt lat="44.36437" lon="3.41141">
        <ele>471</ele>
        <time>2017-03-04T15:37:51Z</time>
      </trkpt>
      <trkpt lat="44.36438" lon="3.41152">
        <ele>472</ele>
        <time>2017-03-04T15:39:51Z</time>
      </trkpt>
      <trkpt lat="44.36439" lon="3.41155">
        <ele>472</ele>
        <time>2017-03-04T15:41:51Z</time>
      </trkpt>
      <trkpt lat="44.36439" lon="3.41163">
        <ele>472</ele>
        <time>2017-03-04T15:43:51Z</time>
      </trkpt>
      <trkpt lat="44.36438" lon="3.4118">
        <ele>473</ele>
        <time>2017-03-04T15:45:51Z</time>
      </trkpt>
      <trkpt lat="44.36438" lon="3.41183">
        <ele>473</ele>
        <time>2017-03-04T15:47:51Z</time>
      </trkpt>
      <trkpt lat="44.36438" lon="3.41183">
        <ele>473</ele>
        <time>2017-03-04T15:49:51Z</time>
      </trkpt>
      <trkpt lat="44.3644" lon="3.41184">
        <ele>473</ele>
        <time>2017-03-04T15:51:51Z</time>
      </trkpt>
      <trkpt lat="44.36441" lon="3.41184">
        <ele>473</ele>
        <time>2017-03-04T15:53:51Z</time>
      </trkpt>
      <trkpt lat="44.36442" lon="3.41185">
        <ele>473</ele>
        <time>2017-03-04T15:55:51Z</time>
      </trkpt>
      <trkpt lat="44.36443" lon="3.41186">
        <ele>473</ele>
        <time>2017-03-04T15:57:51Z</time>
      </trkpt>
      <trkpt lat="44.36444" lon="3.41189">
        <ele>473</ele>
        <time>2017-03-04T15:59:51Z</time>
      </trkpt>
      <trkpt lat="44.36446" lon="3.41192">
        <ele>473</ele>
        <time>2017-03-04T16:01:51Z</time>
      </trkpt>
      <trkpt lat="44.36449" lon="3.41197">
        <ele>473</ele>
        <time>2017-03-04T16:03:51Z</time>
      </trkpt>
      <trkpt lat="44.3645" lon="3.41197">
        <ele>473</ele>
        <time>2017-03-04T16:05:51Z</time>
      </trkpt>
      <trkpt lat="44.3646" lon="3.41212">
        <ele>474</ele>
        <time>2017-03-04T16:07:51Z</time>
      </trkpt>
      <trkpt lat="44.36463" lon="3.41216">
        <ele>474</ele>
        <time>2017-03-04T16:09:51Z</time>
      </trkpt>
      <trkpt lat="44.36467" lon="3.4122">
        <ele>474</ele>
        <time>2017-03-04T16:11:51Z</time>
      </trkpt>
      <trkpt lat="44.36469" lon="3.41222">
        <ele>474</ele>
        <time>2017-03-04T16:13:51Z</time>
      </trkpt>
      <trkpt lat="44.3647" lon="3.41225">
        <ele>474</ele>
        <time>2017-03-04T16:15:51Z</time>
      </trkpt>
      <trkpt lat="44.3647" lon="3.41227">
        <ele>474</ele>
        <time>2017-03-04T16:17:51Z</time>
      </trkpt>
      <trkpt lat="44.3647" lon="3.41229">
        <ele>474</ele>
        <time>2017-03-04T16:19:51Z</time>
      </trkpt>
      <trkpt lat="44.36468" lon="3.41233">
        <ele>475</ele>
        <time>2017-03-04T16:21:51Z</time>
      </trkpt>
      <trkpt lat="44.36465" lon="3.41238">
        <ele>475</ele>
        <time>2017-03-04T16:23:51Z</time>
      </trkpt>
      <trkpt lat="44.36462" lon="3.41246">
        <ele>476</ele>
        <time>2017-03-04T16:25:51Z</time>
      </trkpt>
      <trkpt lat="44.36458" lon="3.41256">
        <ele>476</ele>
        <time>2017-03-04T16:27:51Z</time>
      </trkpt>
      <trkpt lat="44.36455" lon="3.41266">
        <ele>477</ele>
        <time>2017-03-04T16:29:51Z</time>
      </trkpt>
      <trkpt lat="44.36455" lon="3.4127">
        <ele>478</ele>
        <time>2017-03-04T16:31:51Z</time>
      </trkpt>
      <trkpt lat="44.36455" lon="3.41274">
        <ele>478</ele>
        <time>2017-03-04T16:33:51Z</time>
      </trkpt>
      <trkpt lat="44.36456" lon="3.4128">
        <ele>479</ele>
        <time>2017-03-04T16:35:51Z</time>
      </trkpt>
      <trkpt lat="44.36456" lon="3.41286">
        <ele>479</ele>
        <time>2017-03-04T16:37:51Z</time>
      </trkpt>
      <trkpt lat="44.36455" lon="3.41293">
        <ele>480</ele>
        <time>2017-03-04T16:39:51Z</time>
      </trkpt>
      <trkpt lat="44.36454" lon="3.41305">
        <ele>481</ele>
        <time>2017-03-04T16:41:51Z</time>
      </trkpt>
      <trkpt lat="44.36453" lon="3.41315">
        <ele>482</ele>
        <time>2017-03-04T16:43:51Z</time>
      </trkpt>
      <trkpt lat="44.36451" lon="3.41325">
        <ele>483</ele>
        <time>2017-03-04T16:45:51Z</time>
      </trkpt>
      <trkpt lat="44.36448" lon="3.41334">
        <ele>484</ele>
        <time>2017-03-04T16:47:51Z</time>
      </trkpt>
      <trkpt lat="44.36442" lon="3.4135">
        <ele>488</ele>
        <time>2017-03-04T16:49:51Z</time>
      </trkpt>
      <trkpt lat="44.36435" lon="3.41356">
        <ele>490</ele>
        <time>2017-03-04T16:51:51Z</time>
      </trkpt>
      <trkpt lat="44.36431" lon="3.41361">
        <ele>492</ele>
        <time>2017-03-04T16:53:51Z</time>
      </trkpt>
      <trkpt lat="44.36427" lon="3.41371">
        <ele>495</ele>
        <time>2017-03-04T16:55:51Z</time>
      </trkpt>
      <trkpt lat="44.36422" lon="3.41382">
        <ele>498</ele>
        <time>2017-03-04T16:57:51Z</time>
      </trkpt>
      <trkpt lat="44.36412" lon="3.41392">
        <ele>502</ele>
        <time>2017-03-04T16:59:51Z</time>
      </trkpt>
      <trkpt lat="44.36392" lon="3.41412">
        <ele>506</ele>
        <time>2017-03-04T17:01:51Z</time>
      </trkpt>
      <trkpt lat="44.36386" lon="3.41415">
        <ele>506</ele>
        <time>2017-03-04T17:03:51Z</time>
      </trkpt>
      <trkpt lat="44.36386" lon="3.41415">
        <ele>506</ele>
        <time>2017-03-04T17:05:51Z</time>
      </trkpt>
      <trkpt lat="44.36371" lon="3.41424">
        <ele>509</ele>
        <time>2017-03-04T17:07:51Z</time>
      </trkpt>
      <trkpt lat="44.36357" lon="3.41427">
        <ele>509</ele>
        <time>2017-03-04T17:09:51Z</time>
      </trkpt>
      <trkpt lat="44.3634" lon="3.41423">
        <ele>507</ele>
        <time>2017-03-04T17:11:51Z</time>
      </trkpt>
      <trkpt lat="44.3634" lon="3.41423">
        <ele>507</ele>
        <time>2017-03-04T17:13:51Z</time>
      </trkpt>
      <trkpt lat="44.36357" lon="3.41427">
        <ele>509</ele>
        <time>2017-03-04T17:15:51Z</time>
      </trkpt>
      <trkpt lat="44.36371" lon="3.41424">
        <ele>509</ele>
        <time>2017-03-04T17:17:51Z</time>
      </trkpt>
      <trkpt lat="44.36386" lon="3.41415">
        <ele>506</ele>
        <time>2017-03-04T17:19:51Z</time>
      </trkpt>
      <trkpt lat="44.36386" lon="3.41415">
        <ele>506</ele>
        <time>2017-03-04T17:21:51Z</time>
      </trkpt>
      <trkpt lat="44.36392" lon="3.41412">
        <ele>506</ele>
        <time>2017-03-04T17:23:51Z</time>
      </trkpt>
      <trkpt lat="44.36412" lon="3.41392">
        <ele>502</ele>
        <time>2017-03-04T17:25:51Z</time>
      </trkpt>
      <trkpt lat="44.36422" lon="3.41382">
        <ele>498</ele>
        <time>2017-03-04T17:27:51Z</time>
      </trkpt>
      <trkpt lat="44.36427" lon="3.41371">
        <ele>495</ele>
        <time>2017-03-04T17:29:51Z</time>
      </trkpt>
      <trkpt lat="44.36431" lon="3.41361">
        <ele>492</ele>
        <time>2017-03-04T17:31:51Z</time>
      </trkpt>
      <trkpt lat="44.36435" lon="3.41356">
        <ele>490</ele>
        <time>2017-03-04T17:33:51Z</time>
      </trkpt>
      <trkpt lat="44.36442" lon="3.4135">
        <ele>488</ele>
        <time>2017-03-04T17:35:51Z</time>
      </trkpt>
      <trkpt lat="44.36459" lon="3.41355">
        <ele>486</ele>
        <time>2017-03-04T17:37:51Z</time>
      </trkpt>
      <trkpt lat="44.36496" lon="3.41398">
        <ele>483</ele>
        <time>2017-03-04T17:39:51Z</time>
      </trkpt>
      <trkpt lat="44.36482" lon="3.41411">
        <ele>489</ele>
        <time>2017-03-04T17:41:51Z</time>
      </trkpt>
      <trkpt lat="44.36486" lon="3.41419">
        <ele>488</ele>
        <time>2017-03-04T17:43:51Z</time>
      </trkpt>
      <trkpt lat="44.3649" lon="3.41433">
        <ele>489</ele>
        <time>2017-03-04T17:45:51Z</time>
      </trkpt>
      <trkpt lat="44.36495" lon="3.41442">
        <ele>489</ele>
        <time>2017-03-04T17:47:51Z</time>
      </trkpt>
      <trkpt lat="44.36503" lon="3.41453">
        <ele>488</ele>
        <time>2017-03-04T17:49:51Z</time>
      </trkpt>
      <trkpt lat="44.36507" lon="3.41463">
        <ele>489</ele>
        <time>2017-03-04T17:51:51Z</time>
      </trkpt>
      <trkpt lat="44.36508" lon="3.41498">
        <ele>493</ele>
        <time>2017-03-04T17:53:51Z</time>
      </trkpt>
      <trkpt lat="44.36504" lon="3.41534">
        <ele>493</ele>
        <time>2017-03-04T17:55:51Z</time>
      </trkpt>
      <trkpt lat="44.36513" lon="3.41567">
        <ele>490</ele>
        <time>2017-03-04T17:57:51Z</time>
      </trkpt>
      <trkpt lat="44.36542" lon="3.41629">
        <ele>483</ele>
        <time>2017-03-04T17:59:51Z</time>
      </trkpt>
      <trkpt lat="44.36556" lon="3.41696">
        <ele>480</ele>
        <time>2017-03-04T18:01:51Z</time>
      </trkpt>
      <trkpt lat="44.3656" lon="3.41775">
        <ele>481</ele>
        <time>2017-03-04T18:03:51Z</time>
      </trkpt>
      <trkpt lat="44.36558" lon="3.41835">
        <ele>481</ele>
        <time>2017-03-04T18:05:51Z</time>
      </trkpt>
      <trkpt lat="44.36554" lon="3.41901">
        <ele>483</ele>
        <time>2017-03-04T18:07:51Z</time>
      </trkpt>
      <trkpt lat="44.36545" lon="3.41987">
        <ele>484</ele>
        <time>2017-03-04T18:09:51Z</time>
      </trkpt>
      <trkpt lat="44.36535" lon="3.42035">
        <ele>485</ele>
        <time>2017-03-04T18:11:51Z</time>
      </trkpt>
      <trkpt lat="44.36498" lon="3.4214">
        <ele>486</ele>
        <time>2017-03-04T18:13:51Z</time>
      </trkpt>
      <trkpt lat="44.36468" lon="3.4225">
        <ele>499</ele>
        <time>2017-03-04T18:15:51Z</time>
      </trkpt>
      <trkpt lat="44.36445" lon="3.42313">
        <ele>514</ele>
        <time>2017-03-04T18:17:51Z</time>
      </trkpt>
      <trkpt lat="44.36434" lon="3.42358">
        <ele>517</ele>
        <time>2017-03-04T18:19:51Z</time>
      </trkpt>
      <trkpt lat="44.36435" lon="3.42431">
        <ele>507</ele>
        <time>2017-03-04T18:21:51Z</time>
      </trkpt>
      <trkpt lat="44.36441" lon="3.4251">
        <ele>501</ele>
        <time>2017-03-04T18:23:51Z</time>
      </trkpt>
      <trkpt lat="44.36452" lon="3.42564">
        <ele>493</ele>
        <time>2017-03-04T18:25:51Z</time>
      </trkpt>
      <trkpt lat="44.36461" lon="3.42632">
        <ele>489</ele>
        <time>2017-03-04T18:27:51Z</time>
      </trkpt>
      <trkpt lat="44.36469" lon="3.42657">
        <ele>486</ele>
        <time>2017-03-04T18:29:51Z</time>
      </trkpt>
      <trkpt lat="44.36474" lon="3.42696">
        <ele>485</ele>
        <time>2017-03-04T18:31:51Z</time>
      </trkpt>
      <trkpt lat="44.36482" lon="3.42729">
        <ele>484</ele>
        <time>2017-03-04T18:33:51Z</time>
      </trkpt>
      <trkpt lat="44.36492" lon="3.4277">
        <ele>483</ele>
        <time>2017-03-04T18:35:51Z</time>
      </trkpt>
      <trkpt lat="44.36508" lon="3.42821">
        <ele>484</ele>
        <time>2017-03-04T18:37:51Z</time>
      </trkpt>
      <trkpt lat="44.36516" lon="3.42854">
        <ele>485</ele>
        <time>2017-03-04T18:39:51Z</time>
      </trkpt>
      <trkpt lat="44.36531" lon="3.42908">
        <ele>485</ele>
        <time>2017-03-04T18:41:51Z</time>
      </trkpt>
      <trkpt lat="44.3655" lon="3.42975">
        <ele>485</ele>
        <time>2017-03-04T18:43:51Z</time>
      </trkpt>
      <trkpt lat="44.36564" lon="3.4302">
        <ele>483</ele>
        <time>2017-03-04T18:45:51Z</time>
      </trkpt>
      <trkpt lat="44.36564" lon="3.4302">
        <ele>483</ele>
        <time>2017-03-04T18:47:51Z</time>
      </trkpt>
      <trkpt lat="44.36568" lon="3.43028">
        <ele>482</ele>
        <time>2017-03-04T18:49:51Z</time>
      </trkpt>
      <trkpt lat="44.3657" lon="3.43031">
        <ele>481</ele>
        <time>2017-03-04T18:51:51Z</time>
      </trkpt>
      <trkpt lat="44.36571" lon="3.43035">
        <ele>481</ele>
        <time>2017-03-04T18:53:51Z</time>
      </trkpt>
      <trkpt lat="44.36572" lon="3.43039">
        <ele>481</ele>
        <time>2017-03-04T18:55:51Z</time>
      </trkpt>
      <trkpt lat="44.36573" lon="3.4305">
        <ele>481</ele>
        <time>2017-03-04T18:57:51Z</time>
      </trkpt>
      <trkpt lat="44.36572" lon="3.43068">
        <ele>482</ele>
        <time>2017-03-04T18:59:51Z</time>
      </trkpt>
      <trkpt lat="44.36572" lon="3.43073">
        <ele>483</ele>
        <time>2017-03-04T19:01:51Z</time>
      </trkpt>
      <trkpt lat="44.36573" lon="3.43079">
        <ele>483</ele>
        <time>2017-03-04T19:03:51Z</time>
      </trkpt>
      <trkpt lat="44.36574" lon="3.43084">
        <ele>482</ele>
        <time>2017-03-04T19:05:51Z</time>
      </trkpt>
      <trkpt lat="44.36577" lon="3.4309">
        <ele>481</ele>
        <time>2017-03-04T19:07:51Z</time>
      </trkpt>
      <trkpt lat="44.36582" lon="3.431">
        <ele>479</ele>
        <time>2017-03-04T19:09:51Z</time>
      </trkpt>
      <trkpt lat="44.36586" lon="3.43109">
        <ele>479</ele>
        <time>2017-03-04T19:11:51Z</time>
      </trkpt>
      <trkpt lat="44.3659" lon="3.4312">
        <ele>479</ele>
        <time>2017-03-04T19:13:51Z</time>
      </trkpt>
      <trkpt lat="44.36592" lon="3.43131">
        <ele>479</ele>
        <time>2017-03-04T19:15:51Z</time>
      </trkpt>
      <trkpt lat="44.36593" lon="3.43142">
        <ele>479</ele>
        <time>2017-03-04T19:17:51Z</time>
      </trkpt>
      <trkpt lat="44.36592" lon="3.43158">
        <ele>479</ele>
        <time>2017-03-04T19:19:51Z</time>
      </trkpt>
      <trkpt lat="44.3659" lon="3.43175">
        <ele>479</ele>
        <time>2017-03-04T19:21:51Z</time>
      </trkpt>
      <trkpt lat="44.36581" lon="3.43219">
        <ele>477</ele>
        <time>2017-03-04T19:23:51Z</time>
      </trkpt>
      <trkpt lat="44.36558" lon="3.43284">
        <ele>480</ele>
        <time>2017-03-04T19:25:51Z</time>
      </trkpt>
      <trkpt lat="44.3655" lon="3.43301">
        <ele>481</ele>
        <time>2017-03-04T19:27:51Z</time>
      </trkpt>
      <trkpt lat="44.36548" lon="3.43303">
        <ele>481</ele>
        <time>2017-03-04T19:29:51Z</time>
      </trkpt>
      <trkpt lat="44.3652" lon="3.43335">
        <ele>482</ele>
        <time>2017-03-04T19:31:51Z</time>
      </trkpt>
      <trkpt lat="44.3649" lon="3.43362">
        <ele>481</ele>
        <time>2017-03-04T19:33:51Z</time>
      </trkpt>
      <trkpt lat="44.36462" lon="3.43386">
        <ele>482</ele>
        <time>2017-03-04T19:35:51Z</time>
      </trkpt>
      <trkpt lat="44.36417" lon="3.43416">
        <ele>478</ele>
        <time>2017-03-04T19:37:51Z</time>
      </trkpt>
      <trkpt lat="44.36389" lon="3.43432">
        <ele>480</ele>
        <time>2017-03-04T19:39:51Z</time>
      </trkpt>
      <trkpt lat="44.3638" lon="3.43434">
        <ele>481</ele>
        <time>2017-03-04T19:41:51Z</time>
      </trkpt>
      <trkpt lat="44.36344" lon="3.43434">
        <ele>483</ele>
        <time>2017-03-04T19:43:51Z</time>
      </trkpt>
      <trkpt lat="44.36305" lon="3.43431">
        <ele>481</ele>
        <time>2017-03-04T19:45:51Z</time>
      </trkpt>
      <trkpt lat="44.3627" lon="3.43422">
        <ele>479</ele>
        <time>2017-03-04T19:47:51Z</time>
      </trkpt>
      <trkpt lat="44.36239" lon="3.43416">
        <ele>478</ele>
        <time>2017-03-04T19:49:51Z</time>
      </trkpt>
      <trkpt lat="44.36192" lon="3.43412">
        <ele>479</ele>
        <time>2017-03-04T19:51:51Z</time>
      </trkpt>
      <trkpt lat="44.3617" lon="3.43411">
        <ele>479</ele>
        <time>2017-03-04T19:53:51Z</time>
      </trkpt>
      <trkpt lat="44.36146" lon="3.43404">
        <ele>480</ele>
        <time>2017-03-04T19:55:51Z</time>
      </trkpt>
      <trkpt lat="44.36132" lon="3.43402">
        <ele>480</ele>
        <time>2017-03-04T19:57:51Z</time>
      </trkpt>
      <trkpt lat="44.36116" lon="3.43406">
        <ele>479</ele>
        <time>2017-03-04T19:59:51Z</time>
      </trkpt>
      <trkpt lat="44.36102" lon="3.43411">
        <ele>478</ele>
        <time>2017-03-04T20:01:51Z</time>
      </trkpt>
      <trkpt lat="44.36062" lon="3.43413">
        <ele>477</ele>
        <time>2017-03-04T20:03:51Z</time>
      </trkpt>
      <trkpt lat="44.35988" lon="3.43419">
        <ele>476</ele>
        <time>2017-03-04T20:05:51Z</time>
      </trkpt>
      <trkpt lat="44.35924" lon="3.43423">
        <ele>478</ele>
        <time>2017-03-04T20:07:51Z</time>
      </trkpt>
      <trkpt lat="44.35871" lon="3.43444">
        <ele>485</ele>
        <time>2017-03-04T20:09:51Z</time>
      </trkpt>
      <trkpt lat="44.35814" lon="3.43472">
        <ele>491</ele>
        <time>2017-03-04T20:11:51Z</time>
      </trkpt>
      <trkpt lat="44.35779" lon="3.43494">
        <ele>493</ele>
        <time>2017-03-04T20:13:51Z</time>
      </trkpt>
      <trkpt lat="44.35733" lon="3.4354">
        <ele>494</ele>
        <time>2017-03-04T20:15:51Z</time>
      </trkpt>
      <trkpt lat="44.35694" lon="3.43577">
        <ele>495</ele>
        <time>2017-03-04T20:17:51Z</time>
      </trkpt>
      <trkpt lat="44.35667" lon="3.43618">
        <ele>493</ele>
        <time>2017-03-04T20:19:51Z</time>
      </trkpt>
      <trkpt lat="44.35658" lon="3.43662">
        <ele>491</ele>
        <time>2017-03-04T20:21:51Z</time>
      </trkpt>
      <trkpt lat="44.35653" lon="3.43716">
        <ele>493</ele>
        <time>2017-03-04T20:23:51Z</time>
      </trkpt>
      <trkpt lat="44.35659" lon="3.43782">
        <ele>489</ele>
        <time>2017-03-04T20:25:51Z</time>
      </trkpt>
      <trkpt lat="44.35661" lon="3.43799">
        <ele>487</ele>
        <time>2017-03-04T20:27:51Z</time>
      </trkpt>
      <trkpt lat="44.35666" lon="3.43841">
        <ele>485</ele>
        <time>2017-03-04T20:29:51Z</time>
      </trkpt>
      <trkpt lat="44.35669" lon="3.43865">
        <ele>487</ele>
        <time>2017-03-04T20:31:51Z</time>
      </trkpt>
      <trkpt lat="44.35674" lon="3.43883">
        <ele>489</ele>
        <time>2017-03-04T20:33:51Z</time>
      </trkpt>
      <trkpt lat="44.35678" lon="3.439">
        <ele>490</ele>
        <time>2017-03-04T20:35:51Z</time>
      </trkpt>
      <trkpt lat="44.3568" lon="3.43917">
        <ele>491</ele>
        <time>2017-03-04T20:37:51Z</time>
      </trkpt>
      <trkpt lat="44.35687" lon="3.43934">
        <ele>492</ele>
        <time>2017-03-04T20:39:51Z</time>
      </trkpt>
      <trkpt lat="44.35695" lon="3.4397">
        <ele>494</ele>
        <time>2017-03-04T20:41:51Z</time>
      </trkpt>
      <trkpt lat="44.35704" lon="3.44003">
        <ele>494</ele>
        <time>2017-03-04T20:43:51Z</time>
      </trkpt>
      <trkpt lat="44.35715" lon="3.44063">
        <ele>496</ele>
        <time>2017-03-04T20:45:51Z</time>
      </trkpt>
      <trkpt lat="44.35725" lon="3.44102">
        <ele>496</ele>
        <time>2017-03-04T20:47:51Z</time>
      </trkpt>
      <trkpt lat="44.35747" lon="3.44157">
        <ele>491</ele>
        <time>2017-03-04T20:49:51Z</time>
      </trkpt>
      <trkpt lat="44.35772" lon="3.44222">
        <ele>492</ele>
        <time>2017-03-04T20:51:51Z</time>
      </trkpt>
      <trkpt lat="44.35787" lon="3.44306">
        <ele>497</ele>
        <time>2017-03-04T20:53:51Z</time>
      </trkpt>
      <trkpt lat="44.35796" lon="3.44365">
        <ele>498</ele>
        <time>2017-03-04T20:55:51Z</time>
      </trkpt>
      <trkpt lat="44.35795" lon="3.44399">
        <ele>500</ele>
        <time>2017-03-04T20:57:51Z</time>
      </trkpt>
      <trkpt lat="44.35789" lon="3.44443">
        <ele>499</ele>
        <time>2017-03-04T20:59:51Z</time>
      </trkpt>
      <trkpt lat="44.35778" lon="3.44466">
        <ele>498</ele>
        <time>2017-03-04T21:01:51Z</time>
      </trkpt>
      <trkpt lat="44.35775" lon="3.44469">
        <ele>498</ele>
        <time>2017-03-04T21:03:51Z</time>
      </trkpt>
      <trkpt lat="44.35757" lon="3.44479">
        <ele>499</ele>
        <time>2017-03-04T21:05:51Z</time>
      </trkpt>
      <trkpt lat="44.35742" lon="3.44486">
        <ele>500</ele>
        <time>2017-03-04T21:07:51Z</time>
      </trkpt>
      <trkpt lat="44.35727" lon="3.44488">
        <ele>501</ele>
        <time>2017-03-04T21:09:51Z</time>
      </trkpt>
      <trkpt lat="44.35714" lon="3.4449">
        <ele>502</ele>
        <time>2017-03-04T21:11:51Z</time>
      </trkpt>
      <trkpt lat="44.35698" lon="3.44499">
        <ele>500</ele>
        <time>2017-03-04T21:13:51Z</time>
      </trkpt>
      <trkpt lat="44.35677" lon="3.44505">
        <ele>501</ele>
        <time>2017-03-04T21:15:51Z</time>
      </trkpt>
      <trkpt lat="44.35655" lon="3.44511">
        <ele>501</ele>
        <time>2017-03-04T21:17:51Z</time>
      </trkpt>
      <trkpt lat="44.35633" lon="3.44518">
        <ele>500</ele>
        <time>2017-03-04T21:19:51Z</time>
      </trkpt>
      <trkpt lat="44.35598" lon="3.44526">
        <ele>500</ele>
        <time>2017-03-04T21:21:51Z</time>
      </trkpt>
      <trkpt lat="44.35564" lon="3.44534">
        <ele>499</ele>
        <time>2017-03-04T21:23:51Z</time>
      </trkpt>
      <trkpt lat="44.35542" lon="3.44538">
        <ele>499</ele>
        <time>2017-03-04T21:25:51Z</time>
      </trkpt>
      <trkpt lat="44.35528" lon="3.44537">
        <ele>501</ele>
        <time>2017-03-04T21:27:51Z</time>
      </trkpt>
      <trkpt lat="44.35504" lon="3.44538">
        <ele>502</ele>
        <time>2017-03-04T21:29:51Z</time>
      </trkpt>
      <trkpt lat="44.35487" lon="3.4454">
        <ele>503</ele>
        <time>2017-03-04T21:31:51Z</time>
      </trkpt>
      <trkpt lat="44.35478" lon="3.4454">
        <ele>504</ele>
        <time>2017-03-04T21:33:51Z</time>
      </trkpt>
      <trkpt lat="44.35469" lon="3.44538">
        <ele>506</ele>
        <time>2017-03-04T21:35:51Z</time>
      </trkpt>
      <trkpt lat="44.35463" lon="3.4454">
        <ele>506</ele>
        <time>2017-03-04T21:37:51Z</time>
      </trkpt>
      <trkpt lat="44.35443" lon="3.44553">
        <ele>503</ele>
        <time>2017-03-04T21:39:51Z</time>
      </trkpt>
      <trkpt lat="44.35426" lon="3.4456">
        <ele>502</ele>
        <time>2017-03-04T21:41:51Z</time>
      </trkpt>
      <trkpt lat="44.3542" lon="3.44561">
        <ele>502</ele>
        <time>2017-03-04T21:43:51Z</time>
      </trkpt>
      <trkpt lat="44.35413" lon="3.44562">
        <ele>503</ele>
        <time>2017-03-04T21:45:51Z</time>
      </trkpt>
      <trkpt lat="44.35398" lon="3.44569">
        <ele>503</ele>
        <time>2017-03-04T21:47:51Z</time>
      </trkpt>
      <trkpt lat="44.3538" lon="3.44573">
        <ele>506</ele>
        <time>2017-03-04T21:49:51Z</time>
      </trkpt>
      <trkpt lat="44.35362" lon="3.44578">
        <ele>507</ele>
        <time>2017-03-04T21:51:51Z</time>
      </trkpt>
      <trkpt lat="44.35338" lon="3.44591">
        <ele>507</ele>
        <time>2017-03-04T21:53:51Z</time>
      </trkpt>
      <trkpt lat="44.3531" lon="3.44603">
        <ele>515</ele>
        <time>2017-03-04T21:55:51Z</time>
      </trkpt>
      <trkpt lat="44.35302" lon="3.44611">
        <ele>516</ele>
        <time>2017-03-04T21:57:51Z</time>
      </trkpt>
      <trkpt lat="44.35287" lon="3.44627">
        <ele>516</ele>
        <time>2017-03-04T21:59:51Z</time>
      </trkpt>
      <trkpt lat="44.35278" lon="3.44635">
        <ele>517</ele>
        <time>2017-03-04T22:01:51Z</time>
      </trkpt>
      <trkpt lat="44.35263" lon="3.44642">
        <ele>520</ele>
        <time>2017-03-04T22:03:51Z</time>
      </trkpt>
      <trkpt lat="44.35256" lon="3.44649">
        <ele>520</ele>
        <time>2017-03-04T22:05:51Z</time>
      </trkpt>
      <trkpt lat="44.35241" lon="3.44665">
        <ele>520</ele>
        <time>2017-03-04T22:07:51Z</time>
      </trkpt>
      <trkpt lat="44.3523" lon="3.44675">
        <ele>523</ele>
        <time>2017-03-04T22:09:51Z</time>
      </trkpt>
      <trkpt lat="44.35221" lon="3.44683">
        <ele>526</ele>
        <time>2017-03-04T22:11:51Z</time>
      </trkpt>
      <trkpt lat="44.35216" lon="3.44686">
        <ele>528</ele>
        <time>2017-03-04T22:13:51Z</time>
      </trkpt>
      <trkpt lat="44.35212" lon="3.44689">
        <ele>529</ele>
        <time>2017-03-04T22:15:51Z</time>
      </trkpt>
      <trkpt lat="44.35202" lon="3.4471">
        <ele>528</ele>
        <time>2017-03-04T22:17:51Z</time>
      </trkpt>
      <trkpt lat="44.35191" lon="3.44744">
        <ele>521</ele>
        <time>2017-03-04T22:19:51Z</time>
      </trkpt>
      <trkpt lat="44.35186" lon="3.44761">
        <ele>520</ele>
        <time>2017-03-04T22:21:51Z</time>
      </trkpt>
      <trkpt lat="44.35181" lon="3.44796">
        <ele>518</ele>
        <time>2017-03-04T22:23:51Z</time>
      </trkpt>
      <trkpt lat="44.35175" lon="3.44841">
        <ele>516</ele>
        <time>2017-03-04T22:25:51Z</time>
      </trkpt>
      <trkpt lat="44.35172" lon="3.44861">
        <ele>518</ele>
        <time>2017-03-04T22:27:51Z</time>
      </trkpt>
      <trkpt lat="44.35168" lon="3.44875">
        <ele>520</ele>
        <time>2017-03-04T22:29:51Z</time>
      </trkpt>
      <trkpt lat="44.35167" lon="3.4488">
        <ele>520</ele>
        <time>2017-03-04T22:31:51Z</time>
      </trkpt>
      <trkpt lat="44.35166" lon="3.44904">
        <ele>521</ele>
        <time>2017-03-04T22:33:51Z</time>
      </trkpt>
      <trkpt lat="44.35165" lon="3.44909">
        <ele>522</ele>
        <time>2017-03-04T22:35:51Z</time>
      </trkpt>
      <trkpt lat="44.35165" lon="3.44912">
        <ele>522</ele>
        <time>2017-03-04T22:37:51Z</time>
      </trkpt>
      <trkpt lat="44.35163" lon="3.4492">
        <ele>523</ele>
        <time>2017-03-04T22:39:51Z</time>
      </trkpt>
      <trkpt lat="44.35164" lon="3.44925">
        <ele>523</ele>
        <time>2017-03-04T22:41:51Z</time>
      </trkpt>
      <trkpt lat="44.35167" lon="3.44929">
        <ele>522</ele>
        <time>2017-03-04T22:43:51Z</time>
      </trkpt>
      <trkpt lat="44.35179" lon="3.44945">
        <ele>519</ele>
        <time>2017-03-04T22:45:51Z</time>
      </trkpt>
      <trkpt lat="44.35181" lon="3.44955">
        <ele>519</ele>
        <time>2017-03-04T22:47:51Z</time>
      </trkpt>
      <trkpt lat="44.35181" lon="3.44964">
        <ele>519</ele>
        <time>2017-03-04T22:49:51Z</time>
      </trkpt>
      <trkpt lat="44.35183" lon="3.44971">
        <ele>519</ele>
        <time>2017-03-04T22:51:51Z</time>
      </trkpt>
      <trkpt lat="44.35185" lon="3.44981">
        <ele>519</ele>
        <time>2017-03-04T22:53:51Z</time>
      </trkpt>
      <trkpt lat="44.35189" lon="3.45001">
        <ele>519</ele>
        <time>2017-03-04T22:55:51Z</time>
      </trkpt>
      <trkpt lat="44.35191" lon="3.45018">
        <ele>520</ele>
        <time>2017-03-04T22:57:51Z</time>
      </trkpt>
      <trkpt lat="44.35194" lon="3.45041">
        <ele>521</ele>
        <time>2017-03-04T22:59:51Z</time>
      </trkpt>
      <trkpt lat="44.352" lon="3.45065">
        <ele>520</ele>
        <time>2017-03-04T23:01:51Z</time>
      </trkpt>
      <trkpt lat="44.35209" lon="3.45085">
        <ele>518</ele>
        <time>2017-03-04T23:03:51Z</time>
      </trkpt>
      <trkpt lat="44.35214" lon="3.45106">
        <ele>516</ele>
        <time>2017-03-04T23:05:51Z</time>
      </trkpt>
      <trkpt lat="44.35219" lon="3.45144">
        <ele>515</ele>
        <time>2017-03-04T23:07:51Z</time>
      </trkpt>
      <trkpt lat="44.3522" lon="3.45174">
        <ele>515</ele>
        <time>2017-03-04T23:09:51Z</time>
      </trkpt>
      <trkpt lat="44.35219" lon="3.45188">
        <ele>514</ele>
        <time>2017-03-04T23:11:51Z</time>
      </trkpt>
      <trkpt lat="44.35216" lon="3.45194">
        <ele>514</ele>
        <time>2017-03-04T23:13:51Z</time>
      </trkpt>
      <trkpt lat="44.35214" lon="3.45208">
        <ele>514</ele>
        <time>2017-03-04T23:15:51Z</time>
      </trkpt>
      <trkpt lat="44.35213" lon="3.45216">
        <ele>514</ele>
        <time>2017-03-04T23:17:51Z</time>
      </trkpt>
      <trkpt lat="44.35207" lon="3.45239">
        <ele>514</ele>
        <time>2017-03-04T23:19:51Z</time>
      </trkpt>
      <trkpt lat="44.352" lon="3.4527">
        <ele>512</ele>
        <time>2017-03-04T23:21:51Z</time>
      </trkpt>
      <trkpt lat="44.35193" lon="3.45313">
        <ele>505</ele>
        <time>2017-03-04T23:23:51Z</time>
      </trkpt>
      <trkpt lat="44.3519" lon="3.45325">
        <ele>503</ele>
        <time>2017-03-04T23:25:51Z</time>
      </trkpt>
      <trkpt lat="44.35185" lon="3.45332">
        <ele>503</ele>
        <time>2017-03-04T23:27:51Z</time>
      </trkpt>
      <trkpt lat="44.35169" lon="3.4535">
        <ele>503</ele>
        <time>2017-03-04T23:29:51Z</time>
      </trkpt>
      <trkpt lat="44.35146" lon="3.45371">
        <ele>507</ele>
        <time>2017-03-04T23:31:51Z</time>
      </trkpt>
      <trkpt lat="44.35118" lon="3.45398">
        <ele>509</ele>
        <time>2017-03-04T23:33:51Z</time>
      </trkpt>
      <trkpt lat="44.35098" lon="3.45426">
        <ele>505</ele>
        <time>2017-03-04T23:35:51Z</time>
      </trkpt>
      <trkpt lat="44.35087" lon="3.45448">
        <ele>502</ele>
        <time>2017-03-04T23:37:51Z</time>
      </trkpt>
      <trkpt lat="44.35072" lon="3.45466">
        <ele>502</ele>
        <time>2017-03-04T23:39:51Z</time>
      </trkpt>
      <trkpt lat="44.35061" lon="3.45482">
        <ele>501</ele>
        <time>2017-03-04T23:41:51Z</time>
      </trkpt>
      <trkpt lat="44.35049" lon="3.45509">
        <ele>499</ele>
        <time>2017-03-04T23:43:51Z</time>
      </trkpt>
      <trkpt lat="44.35036" lon="3.45546">
        <ele>499</ele>
        <time>2017-03-04T23:45:51Z</time>
      </trkpt>
      <trkpt lat="44.35033" lon="3.45554">
        <ele>499</ele>
        <time>2017-03-04T23:47:51Z</time>
      </trkpt>
      <trkpt lat="44.35033" lon="3.45554">
        <ele>499</ele>
        <time>2017-03-04T23:49:51Z</time>
      </trkpt>
      <trkpt lat="44.35138" lon="3.45546">
        <ele>485</ele>
        <time>2017-03-04T23:51:51Z</time>
      </trkpt>
    </trkseg>
  </trk>
  <trk>
    <name><![CDATA[causwatts 06-champerboux...]]></name>
    <trkseg>
      <trkpt lat="44.40878" lon="3.41314">
        <ele>938</ele>
        <time>2017-02-27T14:52:59Z</time>
      </trkpt>
      <trkpt lat="44.4087" lon="3.4132">
        <ele>937</ele>
        <time>2017-02-27T14:54:59Z</time>
      </trkpt>
      <trkpt lat="44.40881" lon="3.41349">
        <ele>937</ele>
        <time>2017-02-27T14:56:59Z</time>
      </trkpt>
      <trkpt lat="44.40876" lon="3.41363">
        <ele>937</ele>
        <time>2017-02-27T14:58:59Z</time>
      </trkpt>
      <trkpt lat="44.40872" lon="3.41385">
        <ele>936</ele>
        <time>2017-02-27T15:00:59Z</time>
      </trkpt>
      <trkpt lat="44.40868" lon="3.41404">
        <ele>936</ele>
        <time>2017-02-27T15:02:59Z</time>
      </trkpt>
      <trkpt lat="44.40846" lon="3.41448">
        <ele>936</ele>
        <time>2017-02-27T15:04:59Z</time>
      </trkpt>
      <trkpt lat="44.40841" lon="3.41462">
        <ele>936</ele>
        <time>2017-02-27T15:06:59Z</time>
      </trkpt>
      <trkpt lat="44.4084" lon="3.41466">
        <ele>936</ele>
        <time>2017-02-27T15:08:59Z</time>
      </trkpt>
      <trkpt lat="44.40829" lon="3.41507">
        <ele>937</ele>
        <time>2017-02-27T15:10:59Z</time>
      </trkpt>
      <trkpt lat="44.40823" lon="3.41528">
        <ele>938</ele>
        <time>2017-02-27T15:12:59Z</time>
      </trkpt>
      <trkpt lat="44.40814" lon="3.41556">
        <ele>940</ele>
        <time>2017-02-27T15:14:59Z</time>
      </trkpt>
      <trkpt lat="44.40806" lon="3.4157">
        <ele>941</ele>
        <time>2017-02-27T15:16:59Z</time>
      </trkpt>
      <trkpt lat="44.40798" lon="3.41577">
        <ele>941</ele>
        <time>2017-02-27T15:18:59Z</time>
      </trkpt>
      <trkpt lat="44.40768" lon="3.41592">
        <ele>941</ele>
        <time>2017-02-27T15:20:59Z</time>
      </trkpt>
      <trkpt lat="44.40748" lon="3.41603">
        <ele>942</ele>
        <time>2017-02-27T15:22:59Z</time>
      </trkpt>
      <trkpt lat="44.40732" lon="3.41616">
        <ele>942</ele>
        <time>2017-02-27T15:24:59Z</time>
      </trkpt>
      <trkpt lat="44.40713" lon="3.41635">
        <ele>943</ele>
        <time>2017-02-27T15:26:59Z</time>
      </trkpt>
      <trkpt lat="44.40701" lon="3.41653">
        <ele>944</ele>
        <time>2017-02-27T15:28:59Z</time>
      </trkpt>
      <trkpt lat="44.40692" lon="3.41672">
        <ele>946</ele>
        <time>2017-02-27T15:30:59Z</time>
      </trkpt>
      <trkpt lat="44.40694" lon="3.41681">
        <ele>947</ele>
        <time>2017-02-27T15:32:59Z</time>
      </trkpt>
      <trkpt lat="44.40698" lon="3.4169">
        <ele>949</ele>
        <time>2017-02-27T15:34:59Z</time>
      </trkpt>
      <trkpt lat="44.40703" lon="3.41696">
        <ele>950</ele>
        <time>2017-02-27T15:36:59Z</time>
      </trkpt>
      <trkpt lat="44.40723" lon="3.41695">
        <ele>952</ele>
        <time>2017-02-27T15:38:59Z</time>
      </trkpt>
      <trkpt lat="44.4074" lon="3.41693">
        <ele>954</ele>
        <time>2017-02-27T15:40:59Z</time>
      </trkpt>
      <trkpt lat="44.4076" lon="3.41689">
        <ele>955</ele>
        <time>2017-02-27T15:42:59Z</time>
      </trkpt>
      <trkpt lat="44.40777" lon="3.41686">
        <ele>956</ele>
        <time>2017-02-27T15:44:59Z</time>
      </trkpt>
      <trkpt lat="44.40781" lon="3.41686">
        <ele>956</ele>
        <time>2017-02-27T15:46:59Z</time>
      </trkpt>
      <trkpt lat="44.40784" lon="3.41689">
        <ele>957</ele>
        <time>2017-02-27T15:48:59Z</time>
      </trkpt>
      <trkpt lat="44.40783" lon="3.41697">
        <ele>958</ele>
        <time>2017-02-27T15:50:59Z</time>
      </trkpt>
      <trkpt lat="44.4078" lon="3.41699">
        <ele>958</ele>
        <time>2017-02-27T15:52:59Z</time>
      </trkpt>
      <trkpt lat="44.4077" lon="3.41702">
        <ele>958</ele>
        <time>2017-02-27T15:54:59Z</time>
      </trkpt>
      <trkpt lat="44.4076" lon="3.41709">
        <ele>958</ele>
        <time>2017-02-27T15:56:59Z</time>
      </trkpt>
      <trkpt lat="44.40741" lon="3.41732">
        <ele>960</ele>
        <time>2017-02-27T15:58:59Z</time>
      </trkpt>
      <trkpt lat="44.40717" lon="3.41774">
        <ele>963</ele>
        <time>2017-02-27T16:00:59Z</time>
      </trkpt>
      <trkpt lat="44.407" lon="3.41817">
        <ele>967</ele>
        <time>2017-02-27T16:02:59Z</time>
      </trkpt>
      <trkpt lat="44.40688" lon="3.41844">
        <ele>969</ele>
        <time>2017-02-27T16:04:59Z</time>
      </trkpt>
      <trkpt lat="44.40672" lon="3.41877">
        <ele>970</ele>
        <time>2017-02-27T16:06:59Z</time>
      </trkpt>
      <trkpt lat="44.40661" lon="3.41905">
        <ele>973</ele>
        <time>2017-02-27T16:08:59Z</time>
      </trkpt>
      <trkpt lat="44.40652" lon="3.41937">
        <ele>976</ele>
        <time>2017-02-27T16:10:59Z</time>
      </trkpt>
      <trkpt lat="44.40641" lon="3.41956">
        <ele>978</ele>
        <time>2017-02-27T16:12:59Z</time>
      </trkpt>
      <trkpt lat="44.40633" lon="3.41964">
        <ele>979</ele>
        <time>2017-02-27T16:14:59Z</time>
      </trkpt>
      <trkpt lat="44.40621" lon="3.41971">
        <ele>979</ele>
        <time>2017-02-27T16:16:59Z</time>
      </trkpt>
      <trkpt lat="44.40615" lon="3.41976">
        <ele>980</ele>
        <time>2017-02-27T16:18:59Z</time>
      </trkpt>
      <trkpt lat="44.40609" lon="3.41984">
        <ele>980</ele>
        <time>2017-02-27T16:20:59Z</time>
      </trkpt>
      <trkpt lat="44.40599" lon="3.42008">
        <ele>982</ele>
        <time>2017-02-27T16:22:59Z</time>
      </trkpt>
      <trkpt lat="44.40594" lon="3.42029">
        <ele>983</ele>
        <time>2017-02-27T16:24:59Z</time>
      </trkpt>
      <trkpt lat="44.4059" lon="3.42059">
        <ele>984</ele>
        <time>2017-02-27T16:26:59Z</time>
      </trkpt>
      <trkpt lat="44.40576" lon="3.42143">
        <ele>985</ele>
        <time>2017-02-27T16:28:59Z</time>
      </trkpt>
      <trkpt lat="44.40565" lon="3.42171">
        <ele>985</ele>
        <time>2017-02-27T16:30:59Z</time>
      </trkpt>
      <trkpt lat="44.40553" lon="3.42201">
        <ele>985</ele>
        <time>2017-02-27T16:32:59Z</time>
      </trkpt>
      <trkpt lat="44.4055" lon="3.42214">
        <ele>985</ele>
        <time>2017-02-27T16:34:59Z</time>
      </trkpt>
      <trkpt lat="44.40543" lon="3.42253">
        <ele>985</ele>
        <time>2017-02-27T16:36:59Z</time>
      </trkpt>
      <trkpt lat="44.40536" lon="3.42276">
        <ele>985</ele>
        <time>2017-02-27T16:38:59Z</time>
      </trkpt>
      <trkpt lat="44.40525" lon="3.42301">
        <ele>984</ele>
        <time>2017-02-27T16:40:59Z</time>
      </trkpt>
      <trkpt lat="44.40508" lon="3.42342">
        <ele>982</ele>
        <time>2017-02-27T16:42:59Z</time>
      </trkpt>
      <trkpt lat="44.40498" lon="3.42363">
        <ele>982</ele>
        <time>2017-02-27T16:44:59Z</time>
      </trkpt>
      <trkpt lat="44.40494" lon="3.4238">
        <ele>981</ele>
        <time>2017-02-27T16:46:59Z</time>
      </trkpt>
      <trkpt lat="44.40487" lon="3.42415">
        <ele>981</ele>
        <time>2017-02-27T16:48:59Z</time>
      </trkpt>
      <trkpt lat="44.40487" lon="3.42423">
        <ele>981</ele>
        <time>2017-02-27T16:50:59Z</time>
      </trkpt>
      <trkpt lat="44.40489" lon="3.42492">
        <ele>981</ele>
        <time>2017-02-27T16:52:59Z</time>
      </trkpt>
      <trkpt lat="44.40492" lon="3.42612">
        <ele>979</ele>
        <time>2017-02-27T16:54:59Z</time>
      </trkpt>
      <trkpt lat="44.40495" lon="3.42655">
        <ele>980</ele>
        <time>2017-02-27T16:56:59Z</time>
      </trkpt>
      <trkpt lat="44.40498" lon="3.42686">
        <ele>979</ele>
        <time>2017-02-27T16:58:59Z</time>
      </trkpt>
      <trkpt lat="44.40503" lon="3.42706">
        <ele>978</ele>
        <time>2017-02-27T17:00:59Z</time>
      </trkpt>
      <trkpt lat="44.40511" lon="3.42725">
        <ele>978</ele>
        <time>2017-02-27T17:02:59Z</time>
      </trkpt>
      <trkpt lat="44.40532" lon="3.42762">
        <ele>978</ele>
        <time>2017-02-27T17:04:59Z</time>
      </trkpt>
      <trkpt lat="44.40557" lon="3.42807">
        <ele>979</ele>
        <time>2017-02-27T17:06:59Z</time>
      </trkpt>
      <trkpt lat="44.40567" lon="3.4283">
        <ele>978</ele>
        <time>2017-02-27T17:08:59Z</time>
      </trkpt>
      <trkpt lat="44.40571" lon="3.42844">
        <ele>979</ele>
        <time>2017-02-27T17:10:59Z</time>
      </trkpt>
      <trkpt lat="44.40571" lon="3.42859">
        <ele>979</ele>
        <time>2017-02-27T17:12:59Z</time>
      </trkpt>
      <trkpt lat="44.40568" lon="3.42875">
        <ele>978</ele>
        <time>2017-02-27T17:14:59Z</time>
      </trkpt>
      <trkpt lat="44.40562" lon="3.42889">
        <ele>978</ele>
        <time>2017-02-27T17:16:59Z</time>
      </trkpt>
      <trkpt lat="44.40549" lon="3.42903">
        <ele>977</ele>
        <time>2017-02-27T17:18:59Z</time>
      </trkpt>
      <trkpt lat="44.40558" lon="3.42956">
        <ele>978</ele>
        <time>2017-02-27T17:20:59Z</time>
      </trkpt>
      <trkpt lat="44.40569" lon="3.4301">
        <ele>979</ele>
        <time>2017-02-27T17:22:59Z</time>
      </trkpt>
      <trkpt lat="44.40572" lon="3.43043">
        <ele>977</ele>
        <time>2017-02-27T17:24:59Z</time>
      </trkpt>
      <trkpt lat="44.40606" lon="3.43082">
        <ele>977</ele>
        <time>2017-02-27T17:26:59Z</time>
      </trkpt>
      <trkpt lat="44.40645" lon="3.43111">
        <ele>977</ele>
        <time>2017-02-27T17:28:59Z</time>
      </trkpt>
      <trkpt lat="44.4069" lon="3.43137">
        <ele>980</ele>
        <time>2017-02-27T17:30:59Z</time>
      </trkpt>
      <trkpt lat="44.40718" lon="3.43137">
        <ele>984</ele>
        <time>2017-02-27T17:32:59Z</time>
      </trkpt>
      <trkpt lat="44.40758" lon="3.43149">
        <ele>989</ele>
        <time>2017-02-27T17:34:59Z</time>
      </trkpt>
      <trkpt lat="44.40853" lon="3.4319">
        <ele>1003</ele>
        <time>2017-02-27T17:36:59Z</time>
      </trkpt>
      <trkpt lat="44.40874" lon="3.43232">
        <ele>1007</ele>
        <time>2017-02-27T17:38:59Z</time>
      </trkpt>
      <trkpt lat="44.40916" lon="3.43289">
        <ele>1012</ele>
        <time>2017-02-27T17:40:59Z</time>
      </trkpt>
      <trkpt lat="44.40935" lon="3.43309">
        <ele>1014</ele>
        <time>2017-02-27T17:42:59Z</time>
      </trkpt>
      <trkpt lat="44.40942" lon="3.43336">
        <ele>1013</ele>
        <time>2017-02-27T17:44:59Z</time>
      </trkpt>
      <trkpt lat="44.40943" lon="3.43357">
        <ele>1012</ele>
        <time>2017-02-27T17:46:59Z</time>
      </trkpt>
      <trkpt lat="44.40945" lon="3.43365">
        <ele>1011</ele>
        <time>2017-02-27T17:48:59Z</time>
      </trkpt>
      <trkpt lat="44.40957" lon="3.43394">
        <ele>1010</ele>
        <time>2017-02-27T17:50:59Z</time>
      </trkpt>
      <trkpt lat="44.40966" lon="3.43425">
        <ele>1009</ele>
        <time>2017-02-27T17:52:59Z</time>
      </trkpt>
      <trkpt lat="44.4097" lon="3.43467">
        <ele>1009</ele>
        <time>2017-02-27T17:54:59Z</time>
      </trkpt>
      <trkpt lat="44.40968" lon="3.43484">
        <ele>1008</ele>
        <time>2017-02-27T17:56:59Z</time>
      </trkpt>
      <trkpt lat="44.40962" lon="3.4352">
        <ele>1007</ele>
        <time>2017-02-27T17:58:59Z</time>
      </trkpt>
      <trkpt lat="44.40961" lon="3.43541">
        <ele>1008</ele>
        <time>2017-02-27T18:00:59Z</time>
      </trkpt>
      <trkpt lat="44.40962" lon="3.43557">
        <ele>1008</ele>
        <time>2017-02-27T18:02:59Z</time>
      </trkpt>
      <trkpt lat="44.40974" lon="3.43589">
        <ele>1009</ele>
        <time>2017-02-27T18:04:59Z</time>
      </trkpt>
      <trkpt lat="44.40976" lon="3.436">
        <ele>1009</ele>
        <time>2017-02-27T18:06:59Z</time>
      </trkpt>
      <trkpt lat="44.40976" lon="3.43607">
        <ele>1009</ele>
        <time>2017-02-27T18:08:59Z</time>
      </trkpt>
      <trkpt lat="44.40974" lon="3.43618">
        <ele>1009</ele>
        <time>2017-02-27T18:10:59Z</time>
      </trkpt>
      <trkpt lat="44.40972" lon="3.43627">
        <ele>1009</ele>
        <time>2017-02-27T18:12:59Z</time>
      </trkpt>
      <trkpt lat="44.40971" lon="3.43635">
        <ele>1009</ele>
        <time>2017-02-27T18:14:59Z</time>
      </trkpt>
      <trkpt lat="44.40969" lon="3.43644">
        <ele>1009</ele>
        <time>2017-02-27T18:16:59Z</time>
      </trkpt>
      <trkpt lat="44.40956" lon="3.43671">
        <ele>1010</ele>
        <time>2017-02-27T18:18:59Z</time>
      </trkpt>
      <trkpt lat="44.40948" lon="3.43693">
        <ele>1010</ele>
        <time>2017-02-27T18:20:59Z</time>
      </trkpt>
      <trkpt lat="44.40944" lon="3.43725">
        <ele>1010</ele>
        <time>2017-02-27T18:22:59Z</time>
      </trkpt>
      <trkpt lat="44.40941" lon="3.43757">
        <ele>1011</ele>
        <time>2017-02-27T18:24:59Z</time>
      </trkpt>
      <trkpt lat="44.40929" lon="3.43805">
        <ele>1012</ele>
        <time>2017-02-27T18:26:59Z</time>
      </trkpt>
      <trkpt lat="44.40918" lon="3.4382">
        <ele>1013</ele>
        <time>2017-02-27T18:28:59Z</time>
      </trkpt>
      <trkpt lat="44.40904" lon="3.43845">
        <ele>1013</ele>
        <time>2017-02-27T18:30:59Z</time>
      </trkpt>
      <trkpt lat="44.40896" lon="3.4385">
        <ele>1013</ele>
        <time>2017-02-27T18:32:59Z</time>
      </trkpt>
      <trkpt lat="44.4088" lon="3.43858">
        <ele>1014</ele>
        <time>2017-02-27T18:34:59Z</time>
      </trkpt>
      <trkpt lat="44.40862" lon="3.4387">
        <ele>1014</ele>
        <time>2017-02-27T18:36:59Z</time>
      </trkpt>
      <trkpt lat="44.40851" lon="3.43883">
        <ele>1015</ele>
        <time>2017-02-27T18:38:59Z</time>
      </trkpt>
      <trkpt lat="44.40851" lon="3.43896">
        <ele>1015</ele>
        <time>2017-02-27T18:40:59Z</time>
      </trkpt>
      <trkpt lat="44.40853" lon="3.43919">
        <ele>1015</ele>
        <time>2017-02-27T18:42:59Z</time>
      </trkpt>
      <trkpt lat="44.40858" lon="3.43942">
        <ele>1014</ele>
        <time>2017-02-27T18:44:59Z</time>
      </trkpt>
      <trkpt lat="44.40859" lon="3.43946">
        <ele>1014</ele>
        <time>2017-02-27T18:46:59Z</time>
      </trkpt>
      <trkpt lat="44.40867" lon="3.43968">
        <ele>1012</ele>
        <time>2017-02-27T18:48:59Z</time>
      </trkpt>
      <trkpt lat="44.40874" lon="3.43979">
        <ele>1011</ele>
        <time>2017-02-27T18:50:59Z</time>
      </trkpt>
      <trkpt lat="44.40878" lon="3.43982">
        <ele>1011</ele>
        <time>2017-02-27T18:52:59Z</time>
      </trkpt>
      <trkpt lat="44.40878" lon="3.44014">
        <ele>1010</ele>
        <time>2017-02-27T18:54:59Z</time>
      </trkpt>
      <trkpt lat="44.40875" lon="3.44042">
        <ele>1010</ele>
        <time>2017-02-27T18:56:59Z</time>
      </trkpt>
      <trkpt lat="44.40873" lon="3.44058">
        <ele>1010</ele>
        <time>2017-02-27T18:58:59Z</time>
      </trkpt>
      <trkpt lat="44.40871" lon="3.44062">
        <ele>1010</ele>
        <time>2017-02-27T19:00:59Z</time>
      </trkpt>
      <trkpt lat="44.40891" lon="3.44078">
        <ele>1009</ele>
        <time>2017-02-27T19:02:59Z</time>
      </trkpt>
      <trkpt lat="44.40905" lon="3.44099">
        <ele>1008</ele>
        <time>2017-02-27T19:04:59Z</time>
      </trkpt>
      <trkpt lat="44.40908" lon="3.4411">
        <ele>1008</ele>
        <time>2017-02-27T19:06:59Z</time>
      </trkpt>
      <trkpt lat="44.40908" lon="3.44123">
        <ele>1008</ele>
        <time>2017-02-27T19:08:59Z</time>
      </trkpt>
      <trkpt lat="44.40908" lon="3.44131">
        <ele>1008</ele>
        <time>2017-02-27T19:10:59Z</time>
      </trkpt>
      <trkpt lat="44.40879" lon="3.44126">
        <ele>1008</ele>
        <time>2017-02-27T19:12:59Z</time>
      </trkpt>
      <trkpt lat="44.40908" lon="3.44131">
        <ele>1008</ele>
        <time>2017-02-27T19:14:59Z</time>
      </trkpt>
      <trkpt lat="44.40908" lon="3.44123">
        <ele>1008</ele>
        <time>2017-02-27T19:16:59Z</time>
      </trkpt>
      <trkpt lat="44.40908" lon="3.4411">
        <ele>1008</ele>
        <time>2017-02-27T19:18:59Z</time>
      </trkpt>
      <trkpt lat="44.40905" lon="3.44099">
        <ele>1008</ele>
        <time>2017-02-27T19:20:59Z</time>
      </trkpt>
      <trkpt lat="44.40891" lon="3.44078">
        <ele>1009</ele>
        <time>2017-02-27T19:22:59Z</time>
      </trkpt>
      <trkpt lat="44.40871" lon="3.44062">
        <ele>1010</ele>
        <time>2017-02-27T19:24:59Z</time>
      </trkpt>
      <trkpt lat="44.40869" lon="3.44067">
        <ele>1010</ele>
        <time>2017-02-27T19:26:59Z</time>
      </trkpt>
      <trkpt lat="44.40864" lon="3.44072">
        <ele>1011</ele>
        <time>2017-02-27T19:28:59Z</time>
      </trkpt>
      <trkpt lat="44.40854" lon="3.44075">
        <ele>1011</ele>
        <time>2017-02-27T19:30:59Z</time>
      </trkpt>
      <trkpt lat="44.40841" lon="3.44075">
        <ele>1012</ele>
        <time>2017-02-27T19:32:59Z</time>
      </trkpt>
      <trkpt lat="44.40828" lon="3.44071">
        <ele>1012</ele>
        <time>2017-02-27T19:34:59Z</time>
      </trkpt>
      <trkpt lat="44.40822" lon="3.4407">
        <ele>1012</ele>
        <time>2017-02-27T19:36:59Z</time>
      </trkpt>
      <trkpt lat="44.4081" lon="3.44074">
        <ele>1012</ele>
        <time>2017-02-27T19:38:59Z</time>
      </trkpt>
      <trkpt lat="44.40788" lon="3.44078">
        <ele>1011</ele>
        <time>2017-02-27T19:40:59Z</time>
      </trkpt>
      <trkpt lat="44.40761" lon="3.44079">
        <ele>1010</ele>
        <time>2017-02-27T19:42:59Z</time>
      </trkpt>
      <trkpt lat="44.40739" lon="3.44081">
        <ele>1010</ele>
        <time>2017-02-27T19:44:59Z</time>
      </trkpt>
      <trkpt lat="44.4072" lon="3.44088">
        <ele>1010</ele>
        <time>2017-02-27T19:46:59Z</time>
      </trkpt>
      <trkpt lat="44.40716" lon="3.44092">
        <ele>1010</ele>
        <time>2017-02-27T19:48:59Z</time>
      </trkpt>
      <trkpt lat="44.40699" lon="3.44089">
        <ele>1012</ele>
        <time>2017-02-27T19:50:59Z</time>
      </trkpt>
      <trkpt lat="44.4068" lon="3.44081">
        <ele>1013</ele>
        <time>2017-02-27T19:52:59Z</time>
      </trkpt>
      <trkpt lat="44.40666" lon="3.44073">
        <ele>1014</ele>
        <time>2017-02-27T19:54:59Z</time>
      </trkpt>
      <trkpt lat="44.40658" lon="3.4406">
        <ele>1015</ele>
        <time>2017-02-27T19:56:59Z</time>
      </trkpt>
      <trkpt lat="44.40643" lon="3.44028">
        <ele>1017</ele>
        <time>2017-02-27T19:58:59Z</time>
      </trkpt>
      <trkpt lat="44.40633" lon="3.4402">
        <ele>1018</ele>
        <time>2017-02-27T20:00:59Z</time>
      </trkpt>
      <trkpt lat="44.40622" lon="3.44018">
        <ele>1019</ele>
        <time>2017-02-27T20:02:59Z</time>
      </trkpt>
      <trkpt lat="44.40609" lon="3.44021">
        <ele>1021</ele>
        <time>2017-02-27T20:04:59Z</time>
      </trkpt>
      <trkpt lat="44.40594" lon="3.4403">
        <ele>1022</ele>
        <time>2017-02-27T20:06:59Z</time>
      </trkpt>
      <trkpt lat="44.40577" lon="3.44038">
        <ele>1024</ele>
        <time>2017-02-27T20:08:59Z</time>
      </trkpt>
      <trkpt lat="44.40563" lon="3.44042">
        <ele>1025</ele>
        <time>2017-02-27T20:10:59Z</time>
      </trkpt>
      <trkpt lat="44.40535" lon="3.44047">
        <ele>1026</ele>
        <time>2017-02-27T20:12:59Z</time>
      </trkpt>
      <trkpt lat="44.4052" lon="3.44043">
        <ele>1027</ele>
        <time>2017-02-27T20:14:59Z</time>
      </trkpt>
      <trkpt lat="44.40507" lon="3.44038">
        <ele>1028</ele>
        <time>2017-02-27T20:16:59Z</time>
      </trkpt>
      <trkpt lat="44.40486" lon="3.44038">
        <ele>1029</ele>
        <time>2017-02-27T20:18:59Z</time>
      </trkpt>
      <trkpt lat="44.40445" lon="3.44027">
        <ele>1030</ele>
        <time>2017-02-27T20:20:59Z</time>
      </trkpt>
      <trkpt lat="44.40431" lon="3.44019">
        <ele>1030</ele>
        <time>2017-02-27T20:22:59Z</time>
      </trkpt>
      <trkpt lat="44.40413" lon="3.44007">
        <ele>1030</ele>
        <time>2017-02-27T20:24:59Z</time>
      </trkpt>
      <trkpt lat="44.40396" lon="3.43993">
        <ele>1029</ele>
        <time>2017-02-27T20:26:59Z</time>
      </trkpt>
      <trkpt lat="44.40384" lon="3.43985">
        <ele>1028</ele>
        <time>2017-02-27T20:28:59Z</time>
      </trkpt>
      <trkpt lat="44.40372" lon="3.43983">
        <ele>1029</ele>
        <time>2017-02-27T20:30:59Z</time>
      </trkpt>
      <trkpt lat="44.40352" lon="3.43987">
        <ele>1030</ele>
        <time>2017-02-27T20:32:59Z</time>
      </trkpt>
      <trkpt lat="44.4033" lon="3.43996">
        <ele>1031</ele>
        <time>2017-02-27T20:34:59Z</time>
      </trkpt>
      <trkpt lat="44.40301" lon="3.44012">
        <ele>1031</ele>
        <time>2017-02-27T20:36:59Z</time>
      </trkpt>
      <trkpt lat="44.40288" lon="3.44017">
        <ele>1031</ele>
        <time>2017-02-27T20:38:59Z</time>
      </trkpt>
      <trkpt lat="44.40265" lon="3.44023">
        <ele>1030</ele>
        <time>2017-02-27T20:40:59Z</time>
      </trkpt>
      <trkpt lat="44.40242" lon="3.44035">
        <ele>1030</ele>
        <time>2017-02-27T20:42:59Z</time>
      </trkpt>
      <trkpt lat="44.40197" lon="3.44067">
        <ele>1031</ele>
        <time>2017-02-27T20:44:59Z</time>
      </trkpt>
      <trkpt lat="44.40186" lon="3.44071">
        <ele>1031</ele>
        <time>2017-02-27T20:46:59Z</time>
      </trkpt>
      <trkpt lat="44.40178" lon="3.4407">
        <ele>1030</ele>
        <time>2017-02-27T20:48:59Z</time>
      </trkpt>
      <trkpt lat="44.40157" lon="3.44062">
        <ele>1028</ele>
        <time>2017-02-27T20:50:59Z</time>
      </trkpt>
      <trkpt lat="44.40138" lon="3.44057">
        <ele>1027</ele>
        <time>2017-02-27T20:52:59Z</time>
      </trkpt>
      <trkpt lat="44.40127" lon="3.44057">
        <ele>1027</ele>
        <time>2017-02-27T20:54:59Z</time>
      </trkpt>
      <trkpt lat="44.40109" lon="3.44062">
        <ele>1027</ele>
        <time>2017-02-27T20:56:59Z</time>
      </trkpt>
      <trkpt lat="44.40091" lon="3.44069">
        <ele>1028</ele>
        <time>2017-02-27T20:58:59Z</time>
      </trkpt>
      <trkpt lat="44.40074" lon="3.44072">
        <ele>1027</ele>
        <time>2017-02-27T21:00:59Z</time>
      </trkpt>
      <trkpt lat="44.40056" lon="3.44073">
        <ele>1026</ele>
        <time>2017-02-27T21:02:59Z</time>
      </trkpt>
      <trkpt lat="44.40034" lon="3.4408">
        <ele>1026</ele>
        <time>2017-02-27T21:04:59Z</time>
      </trkpt>
      <trkpt lat="44.40013" lon="3.44087">
        <ele>1025</ele>
        <time>2017-02-27T21:06:59Z</time>
      </trkpt>
      <trkpt lat="44.39986" lon="3.44094">
        <ele>1023</ele>
        <time>2017-02-27T21:08:59Z</time>
      </trkpt>
      <trkpt lat="44.39959" lon="3.44103">
        <ele>1021</ele>
        <time>2017-02-27T21:10:59Z</time>
      </trkpt>
      <trkpt lat="44.3995" lon="3.44104">
        <ele>1020</ele>
        <time>2017-02-27T21:12:59Z</time>
      </trkpt>
      <trkpt lat="44.39937" lon="3.44098">
        <ele>1018</ele>
        <time>2017-02-27T21:14:59Z</time>
      </trkpt>
      <trkpt lat="44.39912" lon="3.44094">
        <ele>1015</ele>
        <time>2017-02-27T21:16:59Z</time>
      </trkpt>
      <trkpt lat="44.39879" lon="3.44094">
        <ele>1012</ele>
        <time>2017-02-27T21:18:59Z</time>
      </trkpt>
      <trkpt lat="44.39857" lon="3.44096">
        <ele>1010</ele>
        <time>2017-02-27T21:20:59Z</time>
      </trkpt>
      <trkpt lat="44.39807" lon="3.44111">
        <ele>1008</ele>
        <time>2017-02-27T21:22:59Z</time>
      </trkpt>
      <trkpt lat="44.39796" lon="3.44111">
        <ele>1007</ele>
        <time>2017-02-27T21:24:59Z</time>
      </trkpt>
      <trkpt lat="44.39789" lon="3.44112">
        <ele>1007</ele>
        <time>2017-02-27T21:26:59Z</time>
      </trkpt>
      <trkpt lat="44.39763" lon="3.44105">
        <ele>1006</ele>
        <time>2017-02-27T21:28:59Z</time>
      </trkpt>
      <trkpt lat="44.39728" lon="3.44095">
        <ele>1006</ele>
        <time>2017-02-27T21:30:59Z</time>
      </trkpt>
      <trkpt lat="44.39684" lon="3.44076">
        <ele>1007</ele>
        <time>2017-02-27T21:32:59Z</time>
      </trkpt>
      <trkpt lat="44.39669" lon="3.44068">
        <ele>1008</ele>
        <time>2017-02-27T21:34:59Z</time>
      </trkpt>
      <trkpt lat="44.39653" lon="3.44053">
        <ele>1008</ele>
        <time>2017-02-27T21:36:59Z</time>
      </trkpt>
      <trkpt lat="44.39636" lon="3.44037">
        <ele>1008</ele>
        <time>2017-02-27T21:38:59Z</time>
      </trkpt>
      <trkpt lat="44.39617" lon="3.44026">
        <ele>1009</ele>
        <time>2017-02-27T21:40:59Z</time>
      </trkpt>
      <trkpt lat="44.396" lon="3.44021">
        <ele>1009</ele>
        <time>2017-02-27T21:42:59Z</time>
      </trkpt>
      <trkpt lat="44.39566" lon="3.44015">
        <ele>1011</ele>
        <time>2017-02-27T21:44:59Z</time>
      </trkpt>
      <trkpt lat="44.39524" lon="3.44003">
        <ele>1013</ele>
        <time>2017-02-27T21:46:59Z</time>
      </trkpt>
      <trkpt lat="44.39504" lon="3.43995">
        <ele>1014</ele>
        <time>2017-02-27T21:48:59Z</time>
      </trkpt>
      <trkpt lat="44.39464" lon="3.43988">
        <ele>1019</ele>
        <time>2017-02-27T21:50:59Z</time>
      </trkpt>
      <trkpt lat="44.39452" lon="3.43984">
        <ele>1021</ele>
        <time>2017-02-27T21:52:59Z</time>
      </trkpt>
      <trkpt lat="44.3944" lon="3.43986">
        <ele>1022</ele>
        <time>2017-02-27T21:54:59Z</time>
      </trkpt>
      <trkpt lat="44.39376" lon="3.43983">
        <ele>1025</ele>
        <time>2017-02-27T21:56:59Z</time>
      </trkpt>
      <trkpt lat="44.39359" lon="3.43978">
        <ele>1026</ele>
        <time>2017-02-27T21:58:59Z</time>
      </trkpt>
      <trkpt lat="44.39332" lon="3.43969">
        <ele>1028</ele>
        <time>2017-02-27T22:00:59Z</time>
      </trkpt>
      <trkpt lat="44.39306" lon="3.43965">
        <ele>1029</ele>
        <time>2017-02-27T22:02:59Z</time>
      </trkpt>
      <trkpt lat="44.39284" lon="3.43966">
        <ele>1030</ele>
        <time>2017-02-27T22:04:59Z</time>
      </trkpt>
      <trkpt lat="44.39255" lon="3.43972">
        <ele>1030</ele>
        <time>2017-02-27T22:06:59Z</time>
      </trkpt>
      <trkpt lat="44.39214" lon="3.43977">
        <ele>1031</ele>
        <time>2017-02-27T22:08:59Z</time>
      </trkpt>
      <trkpt lat="44.39195" lon="3.43974">
        <ele>1032</ele>
        <time>2017-02-27T22:10:59Z</time>
      </trkpt>
      <trkpt lat="44.39176" lon="3.43968">
        <ele>1033</ele>
        <time>2017-02-27T22:12:59Z</time>
      </trkpt>
      <trkpt lat="44.39156" lon="3.43957">
        <ele>1035</ele>
        <time>2017-02-27T22:14:59Z</time>
      </trkpt>
      <trkpt lat="44.39138" lon="3.43952">
        <ele>1036</ele>
        <time>2017-02-27T22:16:59Z</time>
      </trkpt>
      <trkpt lat="44.39127" lon="3.43953">
        <ele>1036</ele>
        <time>2017-02-27T22:18:59Z</time>
      </trkpt>
      <trkpt lat="44.39124" lon="3.43955">
        <ele>1036</ele>
        <time>2017-02-27T22:20:59Z</time>
      </trkpt>
      <trkpt lat="44.39106" lon="3.43954">
        <ele>1037</ele>
        <time>2017-02-27T22:22:59Z</time>
      </trkpt>
      <trkpt lat="44.39084" lon="3.43951">
        <ele>1038</ele>
        <time>2017-02-27T22:24:59Z</time>
      </trkpt>
      <trkpt lat="44.39059" lon="3.43945">
        <ele>1041</ele>
        <time>2017-02-27T22:26:59Z</time>
      </trkpt>
      <trkpt lat="44.39037" lon="3.43936">
        <ele>1044</ele>
        <time>2017-02-27T22:28:59Z</time>
      </trkpt>
      <trkpt lat="44.39022" lon="3.43927">
        <ele>1046</ele>
        <time>2017-02-27T22:30:59Z</time>
      </trkpt>
      <trkpt lat="44.39011" lon="3.43913">
        <ele>1047</ele>
        <time>2017-02-27T22:32:59Z</time>
      </trkpt>
      <trkpt lat="44.38998" lon="3.43881">
        <ele>1047</ele>
        <time>2017-02-27T22:34:59Z</time>
      </trkpt>
      <trkpt lat="44.38993" lon="3.43863">
        <ele>1047</ele>
        <time>2017-02-27T22:36:59Z</time>
      </trkpt>
      <trkpt lat="44.38981" lon="3.43777">
        <ele>1047</ele>
        <time>2017-02-27T22:38:59Z</time>
      </trkpt>
      <trkpt lat="44.38979" lon="3.43767">
        <ele>1048</ele>
        <time>2017-02-27T22:40:59Z</time>
      </trkpt>
      <trkpt lat="44.38974" lon="3.43763">
        <ele>1048</ele>
        <time>2017-02-27T22:42:59Z</time>
      </trkpt>
      <trkpt lat="44.38956" lon="3.43755">
        <ele>1049</ele>
        <time>2017-02-27T22:44:59Z</time>
      </trkpt>
      <trkpt lat="44.38934" lon="3.43742">
        <ele>1051</ele>
        <time>2017-02-27T22:46:59Z</time>
      </trkpt>
      <trkpt lat="44.38911" lon="3.43727">
        <ele>1051</ele>
        <time>2017-02-27T22:48:59Z</time>
      </trkpt>
      <trkpt lat="44.38892" lon="3.43711">
        <ele>1051</ele>
        <time>2017-02-27T22:50:59Z</time>
      </trkpt>
      <trkpt lat="44.38882" lon="3.437">
        <ele>1050</ele>
        <time>2017-02-27T22:52:59Z</time>
      </trkpt>
      <trkpt lat="44.38866" lon="3.43675">
        <ele>1049</ele>
        <time>2017-02-27T22:54:59Z</time>
      </trkpt>
      <trkpt lat="44.38855" lon="3.43667">
        <ele>1048</ele>
        <time>2017-02-27T22:56:59Z</time>
      </trkpt>
      <trkpt lat="44.38826" lon="3.43651">
        <ele>1046</ele>
        <time>2017-02-27T22:58:59Z</time>
      </trkpt>
      <trkpt lat="44.38812" lon="3.43649">
        <ele>1044</ele>
        <time>2017-02-27T23:00:59Z</time>
      </trkpt>
      <trkpt lat="44.38785" lon="3.43656">
        <ele>1041</ele>
        <time>2017-02-27T23:02:59Z</time>
      </trkpt>
      <trkpt lat="44.38782" lon="3.43658">
        <ele>1040</ele>
        <time>2017-02-27T23:04:59Z</time>
      </trkpt>
      <trkpt lat="44.38776" lon="3.43657">
        <ele>1040</ele>
        <time>2017-02-27T23:06:59Z</time>
      </trkpt>
      <trkpt lat="44.38771" lon="3.43657">
        <ele>1039</ele>
        <time>2017-02-27T23:08:59Z</time>
      </trkpt>
      <trkpt lat="44.38763" lon="3.43659">
        <ele>1038</ele>
        <time>2017-02-27T23:10:59Z</time>
      </trkpt>
      <trkpt lat="44.38735" lon="3.43668">
        <ele>1035</ele>
        <time>2017-02-27T23:12:59Z</time>
      </trkpt>
      <trkpt lat="44.38727" lon="3.43673">
        <ele>1034</ele>
        <time>2017-02-27T23:14:59Z</time>
      </trkpt>
      <trkpt lat="44.38717" lon="3.43678">
        <ele>1033</ele>
        <time>2017-02-27T23:16:59Z</time>
      </trkpt>
      <trkpt lat="44.3871" lon="3.43681">
        <ele>1032</ele>
        <time>2017-02-27T23:18:59Z</time>
      </trkpt>
      <trkpt lat="44.38694" lon="3.43685">
        <ele>1030</ele>
        <time>2017-02-27T23:20:59Z</time>
      </trkpt>
      <trkpt lat="44.38683" lon="3.43692">
        <ele>1029</ele>
        <time>2017-02-27T23:22:59Z</time>
      </trkpt>
      <trkpt lat="44.38667" lon="3.437">
        <ele>1027</ele>
        <time>2017-02-27T23:24:59Z</time>
      </trkpt>
      <trkpt lat="44.38653" lon="3.43705">
        <ele>1026</ele>
        <time>2017-02-27T23:26:59Z</time>
      </trkpt>
      <trkpt lat="44.38648" lon="3.43708">
        <ele>1025</ele>
        <time>2017-02-27T23:28:59Z</time>
      </trkpt>
      <trkpt lat="44.38637" lon="3.43717">
        <ele>1024</ele>
        <time>2017-02-27T23:30:59Z</time>
      </trkpt>
      <trkpt lat="44.38633" lon="3.4372">
        <ele>1023</ele>
        <time>2017-02-27T23:32:59Z</time>
      </trkpt>
      <trkpt lat="44.3863" lon="3.43721">
        <ele>1023</ele>
        <time>2017-02-27T23:34:59Z</time>
      </trkpt>
      <trkpt lat="44.38615" lon="3.43719">
        <ele>1020</ele>
        <time>2017-02-27T23:36:59Z</time>
      </trkpt>
      <trkpt lat="44.38608" lon="3.43717">
        <ele>1019</ele>
        <time>2017-02-27T23:38:59Z</time>
      </trkpt>
      <trkpt lat="44.38604" lon="3.43717">
        <ele>1018</ele>
        <time>2017-02-27T23:40:59Z</time>
      </trkpt>
      <trkpt lat="44.386" lon="3.43717">
        <ele>1018</ele>
        <time>2017-02-27T23:42:59Z</time>
      </trkpt>
      <trkpt lat="44.38597" lon="3.43719">
        <ele>1017</ele>
        <time>2017-02-27T23:44:59Z</time>
      </trkpt>
      <trkpt lat="44.38589" lon="3.43723">
        <ele>1016</ele>
        <time>2017-02-27T23:46:59Z</time>
      </trkpt>
      <trkpt lat="44.38585" lon="3.43725">
        <ele>1016</ele>
        <time>2017-02-27T23:48:59Z</time>
      </trkpt>
      <trkpt lat="44.38567" lon="3.43723">
        <ele>1013</ele>
        <time>2017-02-27T23:50:59Z</time>
      </trkpt>
      <trkpt lat="44.38552" lon="3.43721">
        <ele>1010</ele>
        <time>2017-02-27T23:52:59Z</time>
      </trkpt>
      <trkpt lat="44.38523" lon="3.43712">
        <ele>1005</ele>
        <time>2017-02-27T23:54:59Z</time>
      </trkpt>
      <trkpt lat="44.38509" lon="3.43707">
        <ele>1002</ele>
        <time>2017-02-27T23:56:59Z</time>
      </trkpt>
      <trkpt lat="44.38494" lon="3.43701">
        <ele>1000</ele>
        <time>2017-02-27T23:58:59Z</time>
      </trkpt>
      <trkpt lat="44.38468" lon="3.43689">
        <ele>996</ele>
        <time>2017-02-28T00:00:59Z</time>
      </trkpt>
      <trkpt lat="44.38451" lon="3.43679">
        <ele>993</ele>
        <time>2017-02-28T00:02:59Z</time>
      </trkpt>
      <trkpt lat="44.38439" lon="3.43671">
        <ele>991</ele>
        <time>2017-02-28T00:04:59Z</time>
      </trkpt>
      <trkpt lat="44.38433" lon="3.43664">
        <ele>990</ele>
        <time>2017-02-28T00:06:59Z</time>
      </trkpt>
      <trkpt lat="44.38427" lon="3.4366">
        <ele>989</ele>
        <time>2017-02-28T00:08:59Z</time>
      </trkpt>
      <trkpt lat="44.38419" lon="3.43656">
        <ele>987</ele>
        <time>2017-02-28T00:10:59Z</time>
      </trkpt>
      <trkpt lat="44.38411" lon="3.43651">
        <ele>986</ele>
        <time>2017-02-28T00:12:59Z</time>
      </trkpt>
      <trkpt lat="44.38405" lon="3.43645">
        <ele>986</ele>
        <time>2017-02-28T00:14:59Z</time>
      </trkpt>
      <trkpt lat="44.38399" lon="3.43639">
        <ele>985</ele>
        <time>2017-02-28T00:16:59Z</time>
      </trkpt>
      <trkpt lat="44.38389" lon="3.43626">
        <ele>984</ele>
        <time>2017-02-28T00:18:59Z</time>
      </trkpt>
      <trkpt lat="44.38391" lon="3.4362">
        <ele>985</ele>
        <time>2017-02-28T00:20:59Z</time>
      </trkpt>
      <trkpt lat="44.38391" lon="3.43613">
        <ele>985</ele>
        <time>2017-02-28T00:22:59Z</time>
      </trkpt>
      <trkpt lat="44.3839" lon="3.43609">
        <ele>985</ele>
        <time>2017-02-28T00:24:59Z</time>
      </trkpt>
      <trkpt lat="44.38381" lon="3.43601">
        <ele>985</ele>
        <time>2017-02-28T00:26:59Z</time>
      </trkpt>
      <trkpt lat="44.38373" lon="3.43602">
        <ele>985</ele>
        <time>2017-02-28T00:28:59Z</time>
      </trkpt>
      <trkpt lat="44.38326" lon="3.43617">
        <ele>981</ele>
        <time>2017-02-28T00:30:59Z</time>
      </trkpt>
      <trkpt lat="44.3829" lon="3.43627">
        <ele>979</ele>
        <time>2017-02-28T00:32:59Z</time>
      </trkpt>
      <trkpt lat="44.38253" lon="3.43633">
        <ele>978</ele>
        <time>2017-02-28T00:34:59Z</time>
      </trkpt>
      <trkpt lat="44.38221" lon="3.43634">
        <ele>977</ele>
        <time>2017-02-28T00:36:59Z</time>
      </trkpt>
      <trkpt lat="44.38183" lon="3.43632">
        <ele>976</ele>
        <time>2017-02-28T00:38:59Z</time>
      </trkpt>
      <trkpt lat="44.38138" lon="3.43629">
        <ele>975</ele>
        <time>2017-02-28T00:40:59Z</time>
      </trkpt>
      <trkpt lat="44.38091" lon="3.43623">
        <ele>973</ele>
        <time>2017-02-28T00:42:59Z</time>
      </trkpt>
      <trkpt lat="44.38073" lon="3.43619">
        <ele>971</ele>
        <time>2017-02-28T00:44:59Z</time>
      </trkpt>
      <trkpt lat="44.38062" lon="3.43612">
        <ele>971</ele>
        <time>2017-02-28T00:46:59Z</time>
      </trkpt>
      <trkpt lat="44.38043" lon="3.43596">
        <ele>970</ele>
        <time>2017-02-28T00:48:59Z</time>
      </trkpt>
      <trkpt lat="44.38025" lon="3.43575">
        <ele>970</ele>
        <time>2017-02-28T00:50:59Z</time>
      </trkpt>
      <trkpt lat="44.37999" lon="3.43537">
        <ele>970</ele>
        <time>2017-02-28T00:52:59Z</time>
      </trkpt>
      <trkpt lat="44.37982" lon="3.43517">
        <ele>969</ele>
        <time>2017-02-28T00:54:59Z</time>
      </trkpt>
      <trkpt lat="44.37963" lon="3.43502">
        <ele>967</ele>
        <time>2017-02-28T00:56:59Z</time>
      </trkpt>
      <trkpt lat="44.37944" lon="3.43493">
        <ele>965</ele>
        <time>2017-02-28T00:58:59Z</time>
      </trkpt>
      <trkpt lat="44.37913" lon="3.43474">
        <ele>962</ele>
        <time>2017-02-28T01:00:59Z</time>
      </trkpt>
      <trkpt lat="44.37886" lon="3.43455">
        <ele>958</ele>
        <time>2017-02-28T01:02:59Z</time>
      </trkpt>
      <trkpt lat="44.37867" lon="3.43438">
        <ele>955</ele>
        <time>2017-02-28T01:04:59Z</time>
      </trkpt>
      <trkpt lat="44.37852" lon="3.43418">
        <ele>954</ele>
        <time>2017-02-28T01:06:59Z</time>
      </trkpt>
      <trkpt lat="44.37836" lon="3.43387">
        <ele>951</ele>
        <time>2017-02-28T01:08:59Z</time>
      </trkpt>
      <trkpt lat="44.37826" lon="3.4336">
        <ele>949</ele>
        <time>2017-02-28T01:10:59Z</time>
      </trkpt>
      <trkpt lat="44.3782" lon="3.43327">
        <ele>948</ele>
        <time>2017-02-28T01:12:59Z</time>
      </trkpt>
      <trkpt lat="44.37818" lon="3.43297">
        <ele>946</ele>
        <time>2017-02-28T01:14:59Z</time>
      </trkpt>
      <trkpt lat="44.37818" lon="3.43259">
        <ele>945</ele>
        <time>2017-02-28T01:16:59Z</time>
      </trkpt>
      <trkpt lat="44.37817" lon="3.43217">
        <ele>942</ele>
        <time>2017-02-28T01:18:59Z</time>
      </trkpt>
      <trkpt lat="44.3782" lon="3.43176">
        <ele>940</ele>
        <time>2017-02-28T01:20:59Z</time>
      </trkpt>
      <trkpt lat="44.37822" lon="3.43126">
        <ele>937</ele>
        <time>2017-02-28T01:22:59Z</time>
      </trkpt>
      <trkpt lat="44.37824" lon="3.43097">
        <ele>936</ele>
        <time>2017-02-28T01:24:59Z</time>
      </trkpt>
      <trkpt lat="44.37828" lon="3.4308">
        <ele>935</ele>
        <time>2017-02-28T01:26:59Z</time>
      </trkpt>
      <trkpt lat="44.37839" lon="3.43048">
        <ele>933</ele>
        <time>2017-02-28T01:28:59Z</time>
      </trkpt>
      <trkpt lat="44.37853" lon="3.43021">
        <ele>930</ele>
        <time>2017-02-28T01:30:59Z</time>
      </trkpt>
      <trkpt lat="44.3787" lon="3.42996">
        <ele>928</ele>
        <time>2017-02-28T01:32:59Z</time>
      </trkpt>
      <trkpt lat="44.3789" lon="3.42972">
        <ele>926</ele>
        <time>2017-02-28T01:34:59Z</time>
      </trkpt>
      <trkpt lat="44.37907" lon="3.42949">
        <ele>923</ele>
        <time>2017-02-28T01:36:59Z</time>
      </trkpt>
      <trkpt lat="44.37925" lon="3.42921">
        <ele>920</ele>
        <time>2017-02-28T01:38:59Z</time>
      </trkpt>
      <trkpt lat="44.37943" lon="3.42893">
        <ele>920</ele>
        <time>2017-02-28T01:40:59Z</time>
      </trkpt>
      <trkpt lat="44.37947" lon="3.42874">
        <ele>919</ele>
        <time>2017-02-28T01:42:59Z</time>
      </trkpt>
      <trkpt lat="44.37943" lon="3.4288">
        <ele>919</ele>
        <time>2017-02-28T01:44:59Z</time>
      </trkpt>
      <trkpt lat="44.37934" lon="3.42886">
        <ele>918</ele>
        <time>2017-02-28T01:46:59Z</time>
      </trkpt>
      <trkpt lat="44.37906" lon="3.42886">
        <ele>916</ele>
        <time>2017-02-28T01:48:59Z</time>
      </trkpt>
      <trkpt lat="44.37877" lon="3.42895">
        <ele>917</ele>
        <time>2017-02-28T01:50:59Z</time>
      </trkpt>
      <trkpt lat="44.37852" lon="3.42903">
        <ele>917</ele>
        <time>2017-02-28T01:52:59Z</time>
      </trkpt>
      <trkpt lat="44.37833" lon="3.42905">
        <ele>917</ele>
        <time>2017-02-28T01:54:59Z</time>
      </trkpt>
      <trkpt lat="44.37818" lon="3.42903">
        <ele>918</ele>
        <time>2017-02-28T01:56:59Z</time>
      </trkpt>
      <trkpt lat="44.37812" lon="3.42898">
        <ele>918</ele>
        <time>2017-02-28T01:58:59Z</time>
      </trkpt>
      <trkpt lat="44.37809" lon="3.42893">
        <ele>918</ele>
        <time>2017-02-28T02:00:59Z</time>
      </trkpt>
      <trkpt lat="44.3781" lon="3.42886">
        <ele>918</ele>
        <time>2017-02-28T02:02:59Z</time>
      </trkpt>
      <trkpt lat="44.37814" lon="3.42878">
        <ele>917</ele>
        <time>2017-02-28T02:04:59Z</time>
      </trkpt>
      <trkpt lat="44.37824" lon="3.42856">
        <ele>915</ele>
        <time>2017-02-28T02:06:59Z</time>
      </trkpt>
      <trkpt lat="44.37826" lon="3.42849">
        <ele>915</ele>
        <time>2017-02-28T02:08:59Z</time>
      </trkpt>
      <trkpt lat="44.37831" lon="3.42826">
        <ele>914</ele>
        <time>2017-02-28T02:10:59Z</time>
      </trkpt>
      <trkpt lat="44.37836" lon="3.42815">
        <ele>914</ele>
        <time>2017-02-28T02:12:59Z</time>
      </trkpt>
      <trkpt lat="44.37837" lon="3.42815">
        <ele>914</ele>
        <time>2017-02-28T02:14:59Z</time>
      </trkpt>
      <trkpt lat="44.37853" lon="3.42902">
        <ele>917</ele>
        <time>2017-02-28T02:16:59Z</time>
      </trkpt>
      <trkpt lat="44.37833" lon="3.42905">
        <ele>917</ele>
        <time>2017-02-28T02:18:59Z</time>
      </trkpt>
      <trkpt lat="44.37818" lon="3.42903">
        <ele>918</ele>
        <time>2017-02-28T02:20:59Z</time>
      </trkpt>
      <trkpt lat="44.37812" lon="3.42898">
        <ele>918</ele>
        <time>2017-02-28T02:22:59Z</time>
      </trkpt>
      <trkpt lat="44.3781" lon="3.42893">
        <ele>918</ele>
        <time>2017-02-28T02:24:59Z</time>
      </trkpt>
      <trkpt lat="44.3781" lon="3.42886">
        <ele>918</ele>
        <time>2017-02-28T02:26:59Z</time>
      </trkpt>
      <trkpt lat="44.37814" lon="3.42877">
        <ele>917</ele>
        <time>2017-02-28T02:28:59Z</time>
      </trkpt>
      <trkpt lat="44.37824" lon="3.42856">
        <ele>915</ele>
        <time>2017-02-28T02:30:59Z</time>
      </trkpt>
      <trkpt lat="44.37827" lon="3.42848">
        <ele>915</ele>
        <time>2017-02-28T02:32:59Z</time>
      </trkpt>
      <trkpt lat="44.37832" lon="3.42826">
        <ele>914</ele>
        <time>2017-02-28T02:34:59Z</time>
      </trkpt>
      <trkpt lat="44.37837" lon="3.42815">
        <ele>914</ele>
        <time>2017-02-28T02:36:59Z</time>
      </trkpt>
      <trkpt lat="44.37848" lon="3.42787">
        <ele>914</ele>
        <time>2017-02-28T02:38:59Z</time>
      </trkpt>
      <trkpt lat="44.37861" lon="3.42758">
        <ele>913</ele>
        <time>2017-02-28T02:40:59Z</time>
      </trkpt>
      <trkpt lat="44.37882" lon="3.42705">
        <ele>908</ele>
        <time>2017-02-28T02:42:59Z</time>
      </trkpt>
      <trkpt lat="44.37885" lon="3.42686">
        <ele>906</ele>
        <time>2017-02-28T02:44:59Z</time>
      </trkpt>
      <trkpt lat="44.37883" lon="3.42663">
        <ele>905</ele>
        <time>2017-02-28T02:46:59Z</time>
      </trkpt>
      <trkpt lat="44.37884" lon="3.4263">
        <ele>901</ele>
        <time>2017-02-28T02:48:59Z</time>
      </trkpt>
      <trkpt lat="44.37883" lon="3.42593">
        <ele>897</ele>
        <time>2017-02-28T02:50:59Z</time>
      </trkpt>
      <trkpt lat="44.37877" lon="3.42563">
        <ele>893</ele>
        <time>2017-02-28T02:52:59Z</time>
      </trkpt>
      <trkpt lat="44.37863" lon="3.42514">
        <ele>888</ele>
        <time>2017-02-28T02:54:59Z</time>
      </trkpt>
      <trkpt lat="44.37849" lon="3.42472">
        <ele>885</ele>
        <time>2017-02-28T02:56:59Z</time>
      </trkpt>
      <trkpt lat="44.37827" lon="3.42418">
        <ele>881</ele>
        <time>2017-02-28T02:58:59Z</time>
      </trkpt>
      <trkpt lat="44.37811" lon="3.42378">
        <ele>877</ele>
        <time>2017-02-28T03:00:59Z</time>
      </trkpt>
      <trkpt lat="44.37797" lon="3.42355">
        <ele>875</ele>
        <time>2017-02-28T03:02:59Z</time>
      </trkpt>
      <trkpt lat="44.3778" lon="3.42333">
        <ele>874</ele>
        <time>2017-02-28T03:04:59Z</time>
      </trkpt>
      <trkpt lat="44.37746" lon="3.42298">
        <ele>873</ele>
        <time>2017-02-28T03:06:59Z</time>
      </trkpt>
      <trkpt lat="44.37711" lon="3.42268">
        <ele>871</ele>
        <time>2017-02-28T03:08:59Z</time>
      </trkpt>
      <trkpt lat="44.37684" lon="3.42247">
        <ele>869</ele>
        <time>2017-02-28T03:10:59Z</time>
      </trkpt>
      <trkpt lat="44.37668" lon="3.42235">
        <ele>867</ele>
        <time>2017-02-28T03:12:59Z</time>
      </trkpt>
      <trkpt lat="44.37638" lon="3.42205">
        <ele>863</ele>
        <time>2017-02-28T03:14:59Z</time>
      </trkpt>
      <trkpt lat="44.37622" lon="3.42191">
        <ele>862</ele>
        <time>2017-02-28T03:16:59Z</time>
      </trkpt>
      <trkpt lat="44.37608" lon="3.42186">
        <ele>863</ele>
        <time>2017-02-28T03:18:59Z</time>
      </trkpt>
      <trkpt lat="44.37565" lon="3.42184">
        <ele>868</ele>
        <time>2017-02-28T03:20:59Z</time>
      </trkpt>
      <trkpt lat="44.37565" lon="3.4219">
        <ele>870</ele>
        <time>2017-02-28T03:22:59Z</time>
      </trkpt>
      <trkpt lat="44.37546" lon="3.41993">
        <ele>795</ele>
        <time>2017-02-28T03:24:59Z</time>
      </trkpt>
      <trkpt lat="44.37105" lon="3.42061">
        <ele>830</ele>
        <time>2017-02-28T03:26:59Z</time>
      </trkpt>
      <trkpt lat="44.37049" lon="3.42688">
        <ele>789</ele>
        <time>2017-02-28T03:28:59Z</time>
      </trkpt>
      <trkpt lat="44.37047" lon="3.42692">
        <ele>787</ele>
        <time>2017-02-28T03:30:59Z</time>
      </trkpt>
      <trkpt lat="44.37031" lon="3.42683">
        <ele>780</ele>
        <time>2017-02-28T03:32:59Z</time>
      </trkpt>
      <trkpt lat="44.37014" lon="3.42674">
        <ele>772</ele>
        <time>2017-02-28T03:34:59Z</time>
      </trkpt>
      <trkpt lat="44.36999" lon="3.42664">
        <ele>766</ele>
        <time>2017-02-28T03:36:59Z</time>
      </trkpt>
      <trkpt lat="44.3698" lon="3.42653">
        <ele>763</ele>
        <time>2017-02-28T03:38:59Z</time>
      </trkpt>
      <trkpt lat="44.36971" lon="3.42647">
        <ele>762</ele>
        <time>2017-02-28T03:40:59Z</time>
      </trkpt>
      <trkpt lat="44.3697" lon="3.42645">
        <ele>763</ele>
        <time>2017-02-28T03:42:59Z</time>
      </trkpt>
      <trkpt lat="44.36968" lon="3.42627">
        <ele>770</ele>
        <time>2017-02-28T03:44:59Z</time>
      </trkpt>
      <trkpt lat="44.36965" lon="3.42612">
        <ele>776</ele>
        <time>2017-02-28T03:46:59Z</time>
      </trkpt>
      <trkpt lat="44.36962" lon="3.42607">
        <ele>777</ele>
        <time>2017-02-28T03:48:59Z</time>
      </trkpt>
      <trkpt lat="44.36943" lon="3.42592">
        <ele>776</ele>
        <time>2017-02-28T03:50:59Z</time>
      </trkpt>
      <trkpt lat="44.36937" lon="3.42585">
        <ele>777</ele>
        <time>2017-02-28T03:52:59Z</time>
      </trkpt>
      <trkpt lat="44.36923" lon="3.42572">
        <ele>773</ele>
        <time>2017-02-28T03:54:59Z</time>
      </trkpt>
      <trkpt lat="44.36909" lon="3.4256">
        <ele>765</ele>
        <time>2017-02-28T03:56:59Z</time>
      </trkpt>
      <trkpt lat="44.36904" lon="3.4255">
        <ele>762</ele>
        <time>2017-02-28T03:58:59Z</time>
      </trkpt>
      <trkpt lat="44.36902" lon="3.4253">
        <ele>761</ele>
        <time>2017-02-28T04:00:59Z</time>
      </trkpt>
      <trkpt lat="44.36902" lon="3.4251">
        <ele>761</ele>
        <time>2017-02-28T04:02:59Z</time>
      </trkpt>
      <trkpt lat="44.36904" lon="3.42494">
        <ele>760</ele>
        <time>2017-02-28T04:04:59Z</time>
      </trkpt>
      <trkpt lat="44.36905" lon="3.42489">
        <ele>759</ele>
        <time>2017-02-28T04:06:59Z</time>
      </trkpt>
      <trkpt lat="44.36917" lon="3.42478">
        <ele>764</ele>
        <time>2017-02-28T04:08:59Z</time>
      </trkpt>
      <trkpt lat="44.36919" lon="3.42462">
        <ele>759</ele>
        <time>2017-02-28T04:10:59Z</time>
      </trkpt>
      <trkpt lat="44.36918" lon="3.42454">
        <ele>756</ele>
        <time>2017-02-28T04:12:59Z</time>
      </trkpt>
      <trkpt lat="44.36914" lon="3.42439">
        <ele>748</ele>
        <time>2017-02-28T04:14:59Z</time>
      </trkpt>
      <trkpt lat="44.36914" lon="3.42436">
        <ele>747</ele>
        <time>2017-02-28T04:16:59Z</time>
      </trkpt>
      <trkpt lat="44.36922" lon="3.42416">
        <ele>745</ele>
        <time>2017-02-28T04:18:59Z</time>
      </trkpt>
      <trkpt lat="44.36928" lon="3.42403">
        <ele>745</ele>
        <time>2017-02-28T04:20:59Z</time>
      </trkpt>
      <trkpt lat="44.36931" lon="3.42398">
        <ele>746</ele>
        <time>2017-02-28T04:22:59Z</time>
      </trkpt>
      <trkpt lat="44.36939" lon="3.42395">
        <ele>750</ele>
        <time>2017-02-28T04:24:59Z</time>
      </trkpt>
      <trkpt lat="44.36955" lon="3.42388">
        <ele>759</ele>
        <time>2017-02-28T04:26:59Z</time>
      </trkpt>
      <trkpt lat="44.36955" lon="3.42386">
        <ele>758</ele>
        <time>2017-02-28T04:28:59Z</time>
      </trkpt>
      <trkpt lat="44.36954" lon="3.4238">
        <ele>756</ele>
        <time>2017-02-28T04:30:59Z</time>
      </trkpt>
      <trkpt lat="44.36948" lon="3.42358">
        <ele>746</ele>
        <time>2017-02-28T04:32:59Z</time>
      </trkpt>
      <trkpt lat="44.36946" lon="3.42356">
        <ele>744</ele>
        <time>2017-02-28T04:34:59Z</time>
      </trkpt>
      <trkpt lat="44.36941" lon="3.42354">
        <ele>740</ele>
        <time>2017-02-28T04:36:59Z</time>
      </trkpt>
      <trkpt lat="44.3694" lon="3.42352">
        <ele>739</ele>
        <time>2017-02-28T04:38:59Z</time>
      </trkpt>
      <trkpt lat="44.36939" lon="3.4234">
        <ele>735</ele>
        <time>2017-02-28T04:40:59Z</time>
      </trkpt>
      <trkpt lat="44.36939" lon="3.42315">
        <ele>732</ele>
        <time>2017-02-28T04:42:59Z</time>
      </trkpt>
      <trkpt lat="44.36937" lon="3.42292">
        <ele>730</ele>
        <time>2017-02-28T04:44:59Z</time>
      </trkpt>
      <trkpt lat="44.3693" lon="3.42269">
        <ele>724</ele>
        <time>2017-02-28T04:46:59Z</time>
      </trkpt>
      <trkpt lat="44.36927" lon="3.42256">
        <ele>722</ele>
        <time>2017-02-28T04:48:59Z</time>
      </trkpt>
      <trkpt lat="44.36917" lon="3.42243">
        <ele>715</ele>
        <time>2017-02-28T04:50:59Z</time>
      </trkpt>
      <trkpt lat="44.36903" lon="3.42224">
        <ele>707</ele>
        <time>2017-02-28T04:52:59Z</time>
      </trkpt>
      <trkpt lat="44.36899" lon="3.42216">
        <ele>705</ele>
        <time>2017-02-28T04:54:59Z</time>
      </trkpt>
      <trkpt lat="44.36898" lon="3.42199">
        <ele>705</ele>
        <time>2017-02-28T04:56:59Z</time>
      </trkpt>
      <trkpt lat="44.36901" lon="3.42186">
        <ele>708</ele>
        <time>2017-02-28T04:58:59Z</time>
      </trkpt>
      <trkpt lat="44.36903" lon="3.42169">
        <ele>710</ele>
        <time>2017-02-28T05:00:59Z</time>
      </trkpt>
      <trkpt lat="44.36901" lon="3.42156">
        <ele>708</ele>
        <time>2017-02-28T05:02:59Z</time>
      </trkpt>
      <trkpt lat="44.3689" lon="3.42123">
        <ele>699</ele>
        <time>2017-02-28T05:04:59Z</time>
      </trkpt>
      <trkpt lat="44.36887" lon="3.42073">
        <ele>696</ele>
        <time>2017-02-28T05:06:59Z</time>
      </trkpt>
      <trkpt lat="44.36879" lon="3.42052">
        <ele>692</ele>
        <time>2017-02-28T05:08:59Z</time>
      </trkpt>
      <trkpt lat="44.36868" lon="3.4203">
        <ele>687</ele>
        <time>2017-02-28T05:10:59Z</time>
      </trkpt>
      <trkpt lat="44.36863" lon="3.42019">
        <ele>684</ele>
        <time>2017-02-28T05:12:59Z</time>
      </trkpt>
      <trkpt lat="44.36862" lon="3.42008">
        <ele>684</ele>
        <time>2017-02-28T05:14:59Z</time>
      </trkpt>
      <trkpt lat="44.36864" lon="3.41992">
        <ele>685</ele>
        <time>2017-02-28T05:16:59Z</time>
      </trkpt>
      <trkpt lat="44.3687" lon="3.41969">
        <ele>687</ele>
        <time>2017-02-28T05:18:59Z</time>
      </trkpt>
      <trkpt lat="44.36875" lon="3.41953">
        <ele>688</ele>
        <time>2017-02-28T05:20:59Z</time>
      </trkpt>
      <trkpt lat="44.36875" lon="3.41907">
        <ele>683</ele>
        <time>2017-02-28T05:22:59Z</time>
      </trkpt>
      <trkpt lat="44.36873" lon="3.41885">
        <ele>679</ele>
        <time>2017-02-28T05:24:59Z</time>
      </trkpt>
      <trkpt lat="44.36871" lon="3.41872">
        <ele>675</ele>
        <time>2017-02-28T05:26:59Z</time>
      </trkpt>
      <trkpt lat="44.36867" lon="3.41853">
        <ele>670</ele>
        <time>2017-02-28T05:28:59Z</time>
      </trkpt>
      <trkpt lat="44.36864" lon="3.41842">
        <ele>666</ele>
        <time>2017-02-28T05:30:59Z</time>
      </trkpt>
      <trkpt lat="44.36862" lon="3.41828">
        <ele>663</ele>
        <time>2017-02-28T05:32:59Z</time>
      </trkpt>
      <trkpt lat="44.36858" lon="3.41809">
        <ele>658</ele>
        <time>2017-02-28T05:34:59Z</time>
      </trkpt>
      <trkpt lat="44.36853" lon="3.41797">
        <ele>653</ele>
        <time>2017-02-28T05:36:59Z</time>
      </trkpt>
      <trkpt lat="44.36847" lon="3.41786">
        <ele>648</ele>
        <time>2017-02-28T05:38:59Z</time>
      </trkpt>
      <trkpt lat="44.36846" lon="3.41785">
        <ele>647</ele>
        <time>2017-02-28T05:40:59Z</time>
      </trkpt>
      <trkpt lat="44.36841" lon="3.41778">
        <ele>643</ele>
        <time>2017-02-28T05:42:59Z</time>
      </trkpt>
      <trkpt lat="44.36839" lon="3.41776">
        <ele>641</ele>
        <time>2017-02-28T05:44:59Z</time>
      </trkpt>
      <trkpt lat="44.36836" lon="3.4177">
        <ele>638</ele>
        <time>2017-02-28T05:46:59Z</time>
      </trkpt>
      <trkpt lat="44.36835" lon="3.41769">
        <ele>637</ele>
        <time>2017-02-28T05:48:59Z</time>
      </trkpt>
      <trkpt lat="44.36835" lon="3.41767">
        <ele>637</ele>
        <time>2017-02-28T05:50:59Z</time>
      </trkpt>
      <trkpt lat="44.36834" lon="3.41767">
        <ele>637</ele>
        <time>2017-02-28T05:52:59Z</time>
      </trkpt>
      <trkpt lat="44.36832" lon="3.41765">
        <ele>635</ele>
        <time>2017-02-28T05:54:59Z</time>
      </trkpt>
      <trkpt lat="44.36832" lon="3.41764">
        <ele>635</ele>
        <time>2017-02-28T05:56:59Z</time>
      </trkpt>
      <trkpt lat="44.36831" lon="3.41762">
        <ele>634</ele>
        <time>2017-02-28T05:58:59Z</time>
      </trkpt>
      <trkpt lat="44.36831" lon="3.41761">
        <ele>634</ele>
        <time>2017-02-28T06:00:59Z</time>
      </trkpt>
      <trkpt lat="44.3683" lon="3.41759">
        <ele>633</ele>
        <time>2017-02-28T06:02:59Z</time>
      </trkpt>
      <trkpt lat="44.3683" lon="3.41749">
        <ele>632</ele>
        <time>2017-02-28T06:04:59Z</time>
      </trkpt>
      <trkpt lat="44.36831" lon="3.41746">
        <ele>633</ele>
        <time>2017-02-28T06:06:59Z</time>
      </trkpt>
      <trkpt lat="44.36831" lon="3.4174">
        <ele>633</ele>
        <time>2017-02-28T06:08:59Z</time>
      </trkpt>
      <trkpt lat="44.36834" lon="3.41734">
        <ele>634</ele>
        <time>2017-02-28T06:10:59Z</time>
      </trkpt>
      <trkpt lat="44.36835" lon="3.41731">
        <ele>635</ele>
        <time>2017-02-28T06:12:59Z</time>
      </trkpt>
      <trkpt lat="44.36837" lon="3.41729">
        <ele>636</ele>
        <time>2017-02-28T06:14:59Z</time>
      </trkpt>
      <trkpt lat="44.36839" lon="3.41725">
        <ele>637</ele>
        <time>2017-02-28T06:16:59Z</time>
      </trkpt>
      <trkpt lat="44.3684" lon="3.41722">
        <ele>638</ele>
        <time>2017-02-28T06:18:59Z</time>
      </trkpt>
      <trkpt lat="44.36842" lon="3.41719">
        <ele>639</ele>
        <time>2017-02-28T06:20:59Z</time>
      </trkpt>
      <trkpt lat="44.36843" lon="3.41714">
        <ele>640</ele>
        <time>2017-02-28T06:22:59Z</time>
      </trkpt>
      <trkpt lat="44.36845" lon="3.41711">
        <ele>641</ele>
        <time>2017-02-28T06:24:59Z</time>
      </trkpt>
      <trkpt lat="44.36845" lon="3.41707">
        <ele>641</ele>
        <time>2017-02-28T06:26:59Z</time>
      </trkpt>
      <trkpt lat="44.36846" lon="3.41703">
        <ele>641</ele>
        <time>2017-02-28T06:28:59Z</time>
      </trkpt>
      <trkpt lat="44.36846" lon="3.41701">
        <ele>641</ele>
        <time>2017-02-28T06:30:59Z</time>
      </trkpt>
      <trkpt lat="44.36845" lon="3.41698">
        <ele>640</ele>
        <time>2017-02-28T06:32:59Z</time>
      </trkpt>
      <trkpt lat="44.36846" lon="3.41694">
        <ele>640</ele>
        <time>2017-02-28T06:34:59Z</time>
      </trkpt>
      <trkpt lat="44.36845" lon="3.41685">
        <ele>639</ele>
        <time>2017-02-28T06:36:59Z</time>
      </trkpt>
      <trkpt lat="44.36845" lon="3.41672">
        <ele>638</ele>
        <time>2017-02-28T06:38:59Z</time>
      </trkpt>
      <trkpt lat="44.36844" lon="3.41668">
        <ele>637</ele>
        <time>2017-02-28T06:40:59Z</time>
      </trkpt>
      <trkpt lat="44.36842" lon="3.41662">
        <ele>635</ele>
        <time>2017-02-28T06:42:59Z</time>
      </trkpt>
      <trkpt lat="44.36842" lon="3.41658">
        <ele>635</ele>
        <time>2017-02-28T06:44:59Z</time>
      </trkpt>
      <trkpt lat="44.3684" lon="3.41656">
        <ele>633</ele>
        <time>2017-02-28T06:46:59Z</time>
      </trkpt>
      <trkpt lat="44.36839" lon="3.41654">
        <ele>632</ele>
        <time>2017-02-28T06:48:59Z</time>
      </trkpt>
      <trkpt lat="44.36838" lon="3.41651">
        <ele>632</ele>
        <time>2017-02-28T06:50:59Z</time>
      </trkpt>
      <trkpt lat="44.36837" lon="3.4165">
        <ele>631</ele>
        <time>2017-02-28T06:52:59Z</time>
      </trkpt>
      <trkpt lat="44.36836" lon="3.41647">
        <ele>630</ele>
        <time>2017-02-28T06:54:59Z</time>
      </trkpt>
      <trkpt lat="44.36827" lon="3.41638">
        <ele>624</ele>
        <time>2017-02-28T06:56:59Z</time>
      </trkpt>
      <trkpt lat="44.36825" lon="3.41638">
        <ele>623</ele>
        <time>2017-02-28T06:58:59Z</time>
      </trkpt>
      <trkpt lat="44.36823" lon="3.41636">
        <ele>622</ele>
        <time>2017-02-28T07:00:59Z</time>
      </trkpt>
      <trkpt lat="44.36822" lon="3.41634">
        <ele>621</ele>
        <time>2017-02-28T07:02:59Z</time>
      </trkpt>
      <trkpt lat="44.36821" lon="3.41631">
        <ele>620</ele>
        <time>2017-02-28T07:04:59Z</time>
      </trkpt>
      <trkpt lat="44.3682" lon="3.4163">
        <ele>620</ele>
        <time>2017-02-28T07:06:59Z</time>
      </trkpt>
      <trkpt lat="44.36817" lon="3.4163">
        <ele>618</ele>
        <time>2017-02-28T07:08:59Z</time>
      </trkpt>
      <trkpt lat="44.36817" lon="3.41633">
        <ele>618</ele>
        <time>2017-02-28T07:10:59Z</time>
      </trkpt>
      <trkpt lat="44.36816" lon="3.41635">
        <ele>617</ele>
        <time>2017-02-28T07:12:59Z</time>
      </trkpt>
      <trkpt lat="44.36815" lon="3.41636">
        <ele>617</ele>
        <time>2017-02-28T07:14:59Z</time>
      </trkpt>
      <trkpt lat="44.36814" lon="3.41636">
        <ele>616</ele>
        <time>2017-02-28T07:16:59Z</time>
      </trkpt>
      <trkpt lat="44.36812" lon="3.41634">
        <ele>615</ele>
        <time>2017-02-28T07:18:59Z</time>
      </trkpt>
      <trkpt lat="44.36811" lon="3.41632">
        <ele>614</ele>
        <time>2017-02-28T07:20:59Z</time>
      </trkpt>
      <trkpt lat="44.36809" lon="3.41631">
        <ele>613</ele>
        <time>2017-02-28T07:22:59Z</time>
      </trkpt>
      <trkpt lat="44.368" lon="3.41628">
        <ele>607</ele>
        <time>2017-02-28T07:24:59Z</time>
      </trkpt>
      <trkpt lat="44.36798" lon="3.41627">
        <ele>606</ele>
        <time>2017-02-28T07:26:59Z</time>
      </trkpt>
      <trkpt lat="44.36797" lon="3.41626">
        <ele>605</ele>
        <time>2017-02-28T07:28:59Z</time>
      </trkpt>
      <trkpt lat="44.36791" lon="3.41622">
        <ele>601</ele>
        <time>2017-02-28T07:30:59Z</time>
      </trkpt>
      <trkpt lat="44.3679" lon="3.41622">
        <ele>601</ele>
        <time>2017-02-28T07:32:59Z</time>
      </trkpt>
      <trkpt lat="44.36788" lon="3.4162">
        <ele>599</ele>
        <time>2017-02-28T07:34:59Z</time>
      </trkpt>
      <trkpt lat="44.36785" lon="3.41612">
        <ele>598</ele>
        <time>2017-02-28T07:36:59Z</time>
      </trkpt>
      <trkpt lat="44.36784" lon="3.41606">
        <ele>597</ele>
        <time>2017-02-28T07:38:59Z</time>
      </trkpt>
      <trkpt lat="44.36783" lon="3.41603">
        <ele>597</ele>
        <time>2017-02-28T07:40:59Z</time>
      </trkpt>
      <trkpt lat="44.36783" lon="3.41596">
        <ele>597</ele>
        <time>2017-02-28T07:42:59Z</time>
      </trkpt>
      <trkpt lat="44.36786" lon="3.4158">
        <ele>598</ele>
        <time>2017-02-28T07:44:59Z</time>
      </trkpt>
      <trkpt lat="44.36786" lon="3.41573">
        <ele>597</ele>
        <time>2017-02-28T07:46:59Z</time>
      </trkpt>
      <trkpt lat="44.36782" lon="3.41558">
        <ele>592</ele>
        <time>2017-02-28T07:48:59Z</time>
      </trkpt>
      <trkpt lat="44.36774" lon="3.41505">
        <ele>580</ele>
        <time>2017-02-28T07:50:59Z</time>
      </trkpt>
      <trkpt lat="44.36771" lon="3.41494">
        <ele>576</ele>
        <time>2017-02-28T07:52:59Z</time>
      </trkpt>
      <trkpt lat="44.36771" lon="3.41493">
        <ele>576</ele>
        <time>2017-02-28T07:54:59Z</time>
      </trkpt>
      <trkpt lat="44.3677" lon="3.41492">
        <ele>575</ele>
        <time>2017-02-28T07:56:59Z</time>
      </trkpt>
      <trkpt lat="44.36768" lon="3.41493">
        <ele>574</ele>
        <time>2017-02-28T07:58:59Z</time>
      </trkpt>
      <trkpt lat="44.36767" lon="3.41492">
        <ele>573</ele>
        <time>2017-02-28T08:00:59Z</time>
      </trkpt>
      <trkpt lat="44.36767" lon="3.41491">
        <ele>573</ele>
        <time>2017-02-28T08:02:59Z</time>
      </trkpt>
      <trkpt lat="44.36763" lon="3.41471">
        <ele>566</ele>
        <time>2017-02-28T08:04:59Z</time>
      </trkpt>
      <trkpt lat="44.36759" lon="3.41461">
        <ele>562</ele>
        <time>2017-02-28T08:06:59Z</time>
      </trkpt>
      <trkpt lat="44.36757" lon="3.41454">
        <ele>559</ele>
        <time>2017-02-28T08:08:59Z</time>
      </trkpt>
      <trkpt lat="44.36756" lon="3.41447">
        <ele>557</ele>
        <time>2017-02-28T08:10:59Z</time>
      </trkpt>
      <trkpt lat="44.36754" lon="3.41436">
        <ele>554</ele>
        <time>2017-02-28T08:12:59Z</time>
      </trkpt>
      <trkpt lat="44.36754" lon="3.41411">
        <ele>547</ele>
        <time>2017-02-28T08:14:59Z</time>
      </trkpt>
      <trkpt lat="44.36753" lon="3.41408">
        <ele>546</ele>
        <time>2017-02-28T08:16:59Z</time>
      </trkpt>
      <trkpt lat="44.36753" lon="3.41405">
        <ele>545</ele>
        <time>2017-02-28T08:18:59Z</time>
      </trkpt>
      <trkpt lat="44.36752" lon="3.41403">
        <ele>544</ele>
        <time>2017-02-28T08:20:59Z</time>
      </trkpt>
      <trkpt lat="44.36751" lon="3.41402">
        <ele>543</ele>
        <time>2017-02-28T08:22:59Z</time>
      </trkpt>
      <trkpt lat="44.36749" lon="3.41398">
        <ele>541</ele>
        <time>2017-02-28T08:24:59Z</time>
      </trkpt>
      <trkpt lat="44.36749" lon="3.41395">
        <ele>540</ele>
        <time>2017-02-28T08:26:59Z</time>
      </trkpt>
      <trkpt lat="44.36748" lon="3.41392">
        <ele>539</ele>
        <time>2017-02-28T08:28:59Z</time>
      </trkpt>
      <trkpt lat="44.36747" lon="3.41391">
        <ele>538</ele>
        <time>2017-02-28T08:30:59Z</time>
      </trkpt>
      <trkpt lat="44.36745" lon="3.41387">
        <ele>536</ele>
        <time>2017-02-28T08:32:59Z</time>
      </trkpt>
      <trkpt lat="44.36746" lon="3.41382">
        <ele>534</ele>
        <time>2017-02-28T08:34:59Z</time>
      </trkpt>
      <trkpt lat="44.36746" lon="3.41378">
        <ele>533</ele>
        <time>2017-02-28T08:36:59Z</time>
      </trkpt>
      <trkpt lat="44.36744" lon="3.41368">
        <ele>529</ele>
        <time>2017-02-28T08:38:59Z</time>
      </trkpt>
      <trkpt lat="44.36742" lon="3.41364">
        <ele>527</ele>
        <time>2017-02-28T08:40:59Z</time>
      </trkpt>
      <trkpt lat="44.36741" lon="3.41358">
        <ele>525</ele>
        <time>2017-02-28T08:42:59Z</time>
      </trkpt>
      <trkpt lat="44.36736" lon="3.41348">
        <ele>520</ele>
        <time>2017-02-28T08:44:59Z</time>
      </trkpt>
      <trkpt lat="44.36735" lon="3.41345">
        <ele>519</ele>
        <time>2017-02-28T08:46:59Z</time>
      </trkpt>
      <trkpt lat="44.36734" lon="3.41343">
        <ele>518</ele>
        <time>2017-02-28T08:48:59Z</time>
      </trkpt>
      <trkpt lat="44.36732" lon="3.4134">
        <ele>517</ele>
        <time>2017-02-28T08:50:59Z</time>
      </trkpt>
      <trkpt lat="44.36731" lon="3.41336">
        <ele>515</ele>
        <time>2017-02-28T08:52:59Z</time>
      </trkpt>
      <trkpt lat="44.36729" lon="3.41332">
        <ele>514</ele>
        <time>2017-02-28T08:54:59Z</time>
      </trkpt>
      <trkpt lat="44.36717" lon="3.4132">
        <ele>509</ele>
        <time>2017-02-28T08:56:59Z</time>
      </trkpt>
      <trkpt lat="44.36715" lon="3.41319">
        <ele>509</ele>
        <time>2017-02-28T08:58:59Z</time>
      </trkpt>
      <trkpt lat="44.36712" lon="3.41319">
        <ele>508</ele>
        <time>2017-02-28T09:00:59Z</time>
      </trkpt>
      <trkpt lat="44.3671" lon="3.4132">
        <ele>508</ele>
        <time>2017-02-28T09:02:59Z</time>
      </trkpt>
      <trkpt lat="44.36708" lon="3.41323">
        <ele>508</ele>
        <time>2017-02-28T09:04:59Z</time>
      </trkpt>
      <trkpt lat="44.36706" lon="3.4133">
        <ele>508</ele>
        <time>2017-02-28T09:06:59Z</time>
      </trkpt>
      <trkpt lat="44.36703" lon="3.41337">
        <ele>509</ele>
        <time>2017-02-28T09:08:59Z</time>
      </trkpt>
      <trkpt lat="44.36702" lon="3.41341">
        <ele>509</ele>
        <time>2017-02-28T09:10:59Z</time>
      </trkpt>
      <trkpt lat="44.367" lon="3.41343">
        <ele>509</ele>
        <time>2017-02-28T09:12:59Z</time>
      </trkpt>
      <trkpt lat="44.36698" lon="3.41344">
        <ele>509</ele>
        <time>2017-02-28T09:14:59Z</time>
      </trkpt>
      <trkpt lat="44.36694" lon="3.41343">
        <ele>508</ele>
        <time>2017-02-28T09:16:59Z</time>
      </trkpt>
      <trkpt lat="44.36694" lon="3.41326">
        <ele>505</ele>
        <time>2017-02-28T09:18:59Z</time>
      </trkpt>
      <trkpt lat="44.36693" lon="3.41323">
        <ele>504</ele>
        <time>2017-02-28T09:20:59Z</time>
      </trkpt>
      <trkpt lat="44.36693" lon="3.41318">
        <ele>504</ele>
        <time>2017-02-28T09:22:59Z</time>
      </trkpt>
      <trkpt lat="44.36692" lon="3.41316">
        <ele>503</ele>
        <time>2017-02-28T09:24:59Z</time>
      </trkpt>
      <trkpt lat="44.3669" lon="3.41315">
        <ele>503</ele>
        <time>2017-02-28T09:26:59Z</time>
      </trkpt>
      <trkpt lat="44.36689" lon="3.41314">
        <ele>502</ele>
        <time>2017-02-28T09:28:59Z</time>
      </trkpt>
      <trkpt lat="44.36689" lon="3.41313">
        <ele>502</ele>
        <time>2017-02-28T09:30:59Z</time>
      </trkpt>
      <trkpt lat="44.36688" lon="3.41311">
        <ele>502</ele>
        <time>2017-02-28T09:32:59Z</time>
      </trkpt>
      <trkpt lat="44.36688" lon="3.41309">
        <ele>501</ele>
        <time>2017-02-28T09:34:59Z</time>
      </trkpt>
      <trkpt lat="44.36689" lon="3.41306">
        <ele>501</ele>
        <time>2017-02-28T09:36:59Z</time>
      </trkpt>
      <trkpt lat="44.36689" lon="3.41304">
        <ele>501</ele>
        <time>2017-02-28T09:38:59Z</time>
      </trkpt>
      <trkpt lat="44.36687" lon="3.413">
        <ele>500</ele>
        <time>2017-02-28T09:40:59Z</time>
      </trkpt>
      <trkpt lat="44.36686" lon="3.41297">
        <ele>499</ele>
        <time>2017-02-28T09:42:59Z</time>
      </trkpt>
      <trkpt lat="44.36685" lon="3.41296">
        <ele>499</ele>
        <time>2017-02-28T09:44:59Z</time>
      </trkpt>
      <trkpt lat="44.36683" lon="3.41295">
        <ele>498</ele>
        <time>2017-02-28T09:46:59Z</time>
      </trkpt>
      <trkpt lat="44.36679" lon="3.41295">
        <ele>498</ele>
        <time>2017-02-28T09:48:59Z</time>
      </trkpt>
      <trkpt lat="44.36676" lon="3.41292">
        <ele>497</ele>
        <time>2017-02-28T09:50:59Z</time>
      </trkpt>
      <trkpt lat="44.36676" lon="3.4129">
        <ele>496</ele>
        <time>2017-02-28T09:52:59Z</time>
      </trkpt>
      <trkpt lat="44.36675" lon="3.41288">
        <ele>496</ele>
        <time>2017-02-28T09:54:59Z</time>
      </trkpt>
      <trkpt lat="44.36675" lon="3.41286">
        <ele>496</ele>
        <time>2017-02-28T09:56:59Z</time>
      </trkpt>
      <trkpt lat="44.36676" lon="3.41282">
        <ele>495</ele>
        <time>2017-02-28T09:58:59Z</time>
      </trkpt>
      <trkpt lat="44.36681" lon="3.41279">
        <ele>496</ele>
        <time>2017-02-28T10:00:59Z</time>
      </trkpt>
      <trkpt lat="44.36684" lon="3.41276">
        <ele>496</ele>
        <time>2017-02-28T10:02:59Z</time>
      </trkpt>
      <trkpt lat="44.36691" lon="3.41265">
        <ele>495</ele>
        <time>2017-02-28T10:04:59Z</time>
      </trkpt>
      <trkpt lat="44.36693" lon="3.41265">
        <ele>496</ele>
        <time>2017-02-28T10:06:59Z</time>
      </trkpt>
      <trkpt lat="44.36698" lon="3.41262">
        <ele>496</ele>
        <time>2017-02-28T10:08:59Z</time>
      </trkpt>
      <trkpt lat="44.36701" lon="3.41259">
        <ele>496</ele>
        <time>2017-02-28T10:10:59Z</time>
      </trkpt>
      <trkpt lat="44.36704" lon="3.41258">
        <ele>496</ele>
        <time>2017-02-28T10:12:59Z</time>
      </trkpt>
      <trkpt lat="44.36708" lon="3.41256">
        <ele>496</ele>
        <time>2017-02-28T10:14:59Z</time>
      </trkpt>
      <trkpt lat="44.3671" lon="3.41254">
        <ele>496</ele>
        <time>2017-02-28T10:16:59Z</time>
      </trkpt>
      <trkpt lat="44.36711" lon="3.41251">
        <ele>496</ele>
        <time>2017-02-28T10:18:59Z</time>
      </trkpt>
      <trkpt lat="44.36715" lon="3.41245">
        <ele>497</ele>
        <time>2017-02-28T10:20:59Z</time>
      </trkpt>
      <trkpt lat="44.36717" lon="3.41243">
        <ele>497</ele>
        <time>2017-02-28T10:22:59Z</time>
      </trkpt>
      <trkpt lat="44.3672" lon="3.41241">
        <ele>498</ele>
        <time>2017-02-28T10:24:59Z</time>
      </trkpt>
      <trkpt lat="44.36723" lon="3.41241">
        <ele>498</ele>
        <time>2017-02-28T10:26:59Z</time>
      </trkpt>
      <trkpt lat="44.36725" lon="3.41242">
        <ele>498</ele>
        <time>2017-02-28T10:28:59Z</time>
      </trkpt>
      <trkpt lat="44.36732" lon="3.41242">
        <ele>499</ele>
        <time>2017-02-28T10:30:59Z</time>
      </trkpt>
      <trkpt lat="44.36735" lon="3.41241">
        <ele>500</ele>
        <time>2017-02-28T10:32:59Z</time>
      </trkpt>
      <trkpt lat="44.36741" lon="3.41235">
        <ele>501</ele>
        <time>2017-02-28T10:34:59Z</time>
      </trkpt>
      <trkpt lat="44.36753" lon="3.41256">
        <ele>503</ele>
        <time>2017-02-28T10:36:59Z</time>
      </trkpt>
      <trkpt lat="44.36755" lon="3.41262">
        <ele>504</ele>
        <time>2017-02-28T10:38:59Z</time>
      </trkpt>
      <trkpt lat="44.36758" lon="3.41267">
        <ele>506</ele>
        <time>2017-02-28T10:40:59Z</time>
      </trkpt>
      <trkpt lat="44.36762" lon="3.41272">
        <ele>508</ele>
        <time>2017-02-28T10:42:59Z</time>
      </trkpt>
      <trkpt lat="44.36766" lon="3.41274">
        <ele>509</ele>
        <time>2017-02-28T10:44:59Z</time>
      </trkpt>
      <trkpt lat="44.36771" lon="3.41276">
        <ele>510</ele>
        <time>2017-02-28T10:46:59Z</time>
      </trkpt>
      <trkpt lat="44.36778" lon="3.41278">
        <ele>511</ele>
        <time>2017-02-28T10:48:59Z</time>
      </trkpt>
      <trkpt lat="44.36794" lon="3.41281">
        <ele>514</ele>
        <time>2017-02-28T10:50:59Z</time>
      </trkpt>
      <trkpt lat="44.36819" lon="3.41284">
        <ele>518</ele>
        <time>2017-02-28T10:52:59Z</time>
      </trkpt>
      <trkpt lat="44.36821" lon="3.41284">
        <ele>518</ele>
        <time>2017-02-28T10:54:59Z</time>
      </trkpt>
      <trkpt lat="44.36823" lon="3.41282">
        <ele>518</ele>
        <time>2017-02-28T10:56:59Z</time>
      </trkpt>
      <trkpt lat="44.36823" lon="3.4128">
        <ele>518</ele>
        <time>2017-02-28T10:58:59Z</time>
      </trkpt>
      <trkpt lat="44.36822" lon="3.41276">
        <ele>517</ele>
        <time>2017-02-28T11:00:59Z</time>
      </trkpt>
      <trkpt lat="44.36821" lon="3.41274">
        <ele>517</ele>
        <time>2017-02-28T11:02:59Z</time>
      </trkpt>
      <trkpt lat="44.368" lon="3.41269">
        <ele>512</ele>
        <time>2017-02-28T11:04:59Z</time>
      </trkpt>
      <trkpt lat="44.36794" lon="3.41265">
        <ele>511</ele>
        <time>2017-02-28T11:06:59Z</time>
      </trkpt>
      <trkpt lat="44.36785" lon="3.41256">
        <ele>508</ele>
        <time>2017-02-28T11:08:59Z</time>
      </trkpt>
      <trkpt lat="44.36781" lon="3.4125">
        <ele>506</ele>
        <time>2017-02-28T11:10:59Z</time>
      </trkpt>
      <trkpt lat="44.36778" lon="3.41246">
        <ele>506</ele>
        <time>2017-02-28T11:12:59Z</time>
      </trkpt>
      <trkpt lat="44.36776" lon="3.4124">
        <ele>507</ele>
        <time>2017-02-28T11:14:59Z</time>
      </trkpt>
      <trkpt lat="44.36768" lon="3.4122">
        <ele>508</ele>
        <time>2017-02-28T11:16:59Z</time>
      </trkpt>
      <trkpt lat="44.36765" lon="3.41209">
        <ele>509</ele>
        <time>2017-02-28T11:18:59Z</time>
      </trkpt>
      <trkpt lat="44.36764" lon="3.41206">
        <ele>509</ele>
        <time>2017-02-28T11:20:59Z</time>
      </trkpt>
      <trkpt lat="44.36758" lon="3.41195">
        <ele>508</ele>
        <time>2017-02-28T11:22:59Z</time>
      </trkpt>
      <trkpt lat="44.36749" lon="3.41183">
        <ele>507</ele>
        <time>2017-02-28T11:24:59Z</time>
      </trkpt>
      <trkpt lat="44.36743" lon="3.41176">
        <ele>507</ele>
        <time>2017-02-28T11:26:59Z</time>
      </trkpt>
      <trkpt lat="44.36738" lon="3.41171">
        <ele>507</ele>
        <time>2017-02-28T11:28:59Z</time>
      </trkpt>
      <trkpt lat="44.3673" lon="3.41165">
        <ele>506</ele>
        <time>2017-02-28T11:30:59Z</time>
      </trkpt>
      <trkpt lat="44.36727" lon="3.41161">
        <ele>505</ele>
        <time>2017-02-28T11:32:59Z</time>
      </trkpt>
      <trkpt lat="44.36726" lon="3.41157">
        <ele>505</ele>
        <time>2017-02-28T11:34:59Z</time>
      </trkpt>
      <trkpt lat="44.36725" lon="3.41151">
        <ele>505</ele>
        <time>2017-02-28T11:36:59Z</time>
      </trkpt>
      <trkpt lat="44.36725" lon="3.41121">
        <ele>504</ele>
        <time>2017-02-28T11:38:59Z</time>
      </trkpt>
      <trkpt lat="44.36727" lon="3.41111">
        <ele>504</ele>
        <time>2017-02-28T11:40:59Z</time>
      </trkpt>
      <trkpt lat="44.36728" lon="3.41109">
        <ele>504</ele>
        <time>2017-02-28T11:42:59Z</time>
      </trkpt>
      <trkpt lat="44.36732" lon="3.41105">
        <ele>504</ele>
        <time>2017-02-28T11:44:59Z</time>
      </trkpt>
      <trkpt lat="44.36742" lon="3.41091">
        <ele>506</ele>
        <time>2017-02-28T11:46:59Z</time>
      </trkpt>
      <trkpt lat="44.3675" lon="3.41081">
        <ele>508</ele>
        <time>2017-02-28T11:48:59Z</time>
      </trkpt>
      <trkpt lat="44.36752" lon="3.41088">
        <ele>509</ele>
        <time>2017-02-28T11:50:59Z</time>
      </trkpt>
      <trkpt lat="44.36752" lon="3.4111">
        <ele>509</ele>
        <time>2017-02-28T11:52:59Z</time>
      </trkpt>
      <trkpt lat="44.36751" lon="3.41133">
        <ele>509</ele>
        <time>2017-02-28T11:54:59Z</time>
      </trkpt>
      <trkpt lat="44.36751" lon="3.41138">
        <ele>509</ele>
        <time>2017-02-28T11:56:59Z</time>
      </trkpt>
      <trkpt lat="44.36752" lon="3.41143">
        <ele>509</ele>
        <time>2017-02-28T11:58:59Z</time>
      </trkpt>
      <trkpt lat="44.36758" lon="3.41153">
        <ele>512</ele>
        <time>2017-02-28T12:00:59Z</time>
      </trkpt>
      <trkpt lat="44.36801" lon="3.41218">
        <ele>515</ele>
        <time>2017-02-28T12:02:59Z</time>
      </trkpt>
      <trkpt lat="44.36806" lon="3.41226">
        <ele>515</ele>
        <time>2017-02-28T12:04:59Z</time>
      </trkpt>
      <trkpt lat="44.36812" lon="3.41232">
        <ele>515</ele>
        <time>2017-02-28T12:06:59Z</time>
      </trkpt>
      <trkpt lat="44.36815" lon="3.41234">
        <ele>515</ele>
        <time>2017-02-28T12:08:59Z</time>
      </trkpt>
      <trkpt lat="44.36818" lon="3.41234">
        <ele>515</ele>
        <time>2017-02-28T12:10:59Z</time>
      </trkpt>
      <trkpt lat="44.36823" lon="3.41233">
        <ele>517</ele>
        <time>2017-02-28T12:12:59Z</time>
      </trkpt>
      <trkpt lat="44.36826" lon="3.4123">
        <ele>518</ele>
        <time>2017-02-28T12:14:59Z</time>
      </trkpt>
      <trkpt lat="44.36829" lon="3.41226">
        <ele>519</ele>
        <time>2017-02-28T12:16:59Z</time>
      </trkpt>
      <trkpt lat="44.36832" lon="3.41218">
        <ele>522</ele>
        <time>2017-02-28T12:18:59Z</time>
      </trkpt>
      <trkpt lat="44.36841" lon="3.41209">
        <ele>527</ele>
        <time>2017-02-28T12:20:59Z</time>
      </trkpt>
      <trkpt lat="44.36846" lon="3.41207">
        <ele>530</ele>
        <time>2017-02-28T12:22:59Z</time>
      </trkpt>
      <trkpt lat="44.36852" lon="3.41203">
        <ele>533</ele>
        <time>2017-02-28T12:24:59Z</time>
      </trkpt>
      <trkpt lat="44.36859" lon="3.41201">
        <ele>536</ele>
        <time>2017-02-28T12:26:59Z</time>
      </trkpt>
      <trkpt lat="44.36865" lon="3.412">
        <ele>538</ele>
        <time>2017-02-28T12:28:59Z</time>
      </trkpt>
      <trkpt lat="44.36877" lon="3.41202">
        <ele>542</ele>
        <time>2017-02-28T12:30:59Z</time>
      </trkpt>
      <trkpt lat="44.3688" lon="3.41203">
        <ele>542</ele>
        <time>2017-02-28T12:32:59Z</time>
      </trkpt>
      <trkpt lat="44.36884" lon="3.41206">
        <ele>543</ele>
        <time>2017-02-28T12:34:59Z</time>
      </trkpt>
      <trkpt lat="44.36892" lon="3.41211">
        <ele>544</ele>
        <time>2017-02-28T12:36:59Z</time>
      </trkpt>
      <trkpt lat="44.36914" lon="3.41227">
        <ele>545</ele>
        <time>2017-02-28T12:38:59Z</time>
      </trkpt>
      <trkpt lat="44.36925" lon="3.41239">
        <ele>545</ele>
        <time>2017-02-28T12:40:59Z</time>
      </trkpt>
      <trkpt lat="44.36931" lon="3.41247">
        <ele>545</ele>
        <time>2017-02-28T12:42:59Z</time>
      </trkpt>
      <trkpt lat="44.36934" lon="3.41253">
        <ele>545</ele>
        <time>2017-02-28T12:44:59Z</time>
      </trkpt>
      <trkpt lat="44.36939" lon="3.41262">
        <ele>546</ele>
        <time>2017-02-28T12:46:59Z</time>
      </trkpt>
      <trkpt lat="44.36946" lon="3.41282">
        <ele>548</ele>
        <time>2017-02-28T12:48:59Z</time>
      </trkpt>
      <trkpt lat="44.36952" lon="3.41309">
        <ele>548</ele>
        <time>2017-02-28T12:50:59Z</time>
      </trkpt>
      <trkpt lat="44.36955" lon="3.41325">
        <ele>548</ele>
        <time>2017-02-28T12:52:59Z</time>
      </trkpt>
      <trkpt lat="44.36957" lon="3.41334">
        <ele>548</ele>
        <time>2017-02-28T12:54:59Z</time>
      </trkpt>
      <trkpt lat="44.36959" lon="3.4134">
        <ele>551</ele>
        <time>2017-02-28T12:56:59Z</time>
      </trkpt>
      <trkpt lat="44.36961" lon="3.41345">
        <ele>553</ele>
        <time>2017-02-28T12:58:59Z</time>
      </trkpt>
      <trkpt lat="44.36967" lon="3.41349">
        <ele>555</ele>
        <time>2017-02-28T13:00:59Z</time>
      </trkpt>
      <trkpt lat="44.3697" lon="3.41349">
        <ele>556</ele>
        <time>2017-02-28T13:02:59Z</time>
      </trkpt>
      <trkpt lat="44.36975" lon="3.41348">
        <ele>557</ele>
        <time>2017-02-28T13:04:59Z</time>
      </trkpt>
      <trkpt lat="44.36978" lon="3.41347">
        <ele>557</ele>
        <time>2017-02-28T13:06:59Z</time>
      </trkpt>
      <trkpt lat="44.36993" lon="3.41347">
        <ele>560</ele>
        <time>2017-02-28T13:08:59Z</time>
      </trkpt>
      <trkpt lat="44.37017" lon="3.41345">
        <ele>564</ele>
        <time>2017-02-28T13:10:59Z</time>
      </trkpt>
      <trkpt lat="44.37026" lon="3.41345">
        <ele>566</ele>
        <time>2017-02-28T13:12:59Z</time>
      </trkpt>
      <trkpt lat="44.37034" lon="3.41343">
        <ele>567</ele>
        <time>2017-02-28T13:14:59Z</time>
      </trkpt>
      <trkpt lat="44.37058" lon="3.41338">
        <ele>571</ele>
        <time>2017-02-28T13:16:59Z</time>
      </trkpt>
      <trkpt lat="44.37065" lon="3.41336">
        <ele>572</ele>
        <time>2017-02-28T13:18:59Z</time>
      </trkpt>
      <trkpt lat="44.37068" lon="3.41334">
        <ele>573</ele>
        <time>2017-02-28T13:20:59Z</time>
      </trkpt>
      <trkpt lat="44.37069" lon="3.41333">
        <ele>573</ele>
        <time>2017-02-28T13:22:59Z</time>
      </trkpt>
      <trkpt lat="44.37069" lon="3.41331">
        <ele>574</ele>
        <time>2017-02-28T13:24:59Z</time>
      </trkpt>
      <trkpt lat="44.3707" lon="3.41329">
        <ele>574</ele>
        <time>2017-02-28T13:26:59Z</time>
      </trkpt>
      <trkpt lat="44.37069" lon="3.41328">
        <ele>574</ele>
        <time>2017-02-28T13:28:59Z</time>
      </trkpt>
      <trkpt lat="44.37069" lon="3.41325">
        <ele>575</ele>
        <time>2017-02-28T13:30:59Z</time>
      </trkpt>
      <trkpt lat="44.37067" lon="3.41323">
        <ele>575</ele>
        <time>2017-02-28T13:32:59Z</time>
      </trkpt>
      <trkpt lat="44.37053" lon="3.41315">
        <ele>574</ele>
        <time>2017-02-28T13:34:59Z</time>
      </trkpt>
      <trkpt lat="44.37035" lon="3.41306">
        <ele>572</ele>
        <time>2017-02-28T13:36:59Z</time>
      </trkpt>
      <trkpt lat="44.37033" lon="3.41304">
        <ele>572</ele>
        <time>2017-02-28T13:38:59Z</time>
      </trkpt>
      <trkpt lat="44.3703" lon="3.41303">
        <ele>571</ele>
        <time>2017-02-28T13:40:59Z</time>
      </trkpt>
      <trkpt lat="44.3702" lon="3.41303">
        <ele>569</ele>
        <time>2017-02-28T13:42:59Z</time>
      </trkpt>
      <trkpt lat="44.3701" lon="3.413">
        <ele>567</ele>
        <time>2017-02-28T13:44:59Z</time>
      </trkpt>
      <trkpt lat="44.37006" lon="3.41298">
        <ele>566</ele>
        <time>2017-02-28T13:46:59Z</time>
      </trkpt>
      <trkpt lat="44.37002" lon="3.41293">
        <ele>566</ele>
        <time>2017-02-28T13:48:59Z</time>
      </trkpt>
      <trkpt lat="44.3698" lon="3.41269">
        <ele>562</ele>
        <time>2017-02-28T13:50:59Z</time>
      </trkpt>
      <trkpt lat="44.36978" lon="3.41263">
        <ele>562</ele>
        <time>2017-02-28T13:52:59Z</time>
      </trkpt>
      <trkpt lat="44.36977" lon="3.41258">
        <ele>563</ele>
        <time>2017-02-28T13:54:59Z</time>
      </trkpt>
      <trkpt lat="44.36978" lon="3.41253">
        <ele>564</ele>
        <time>2017-02-28T13:56:59Z</time>
      </trkpt>
      <trkpt lat="44.36979" lon="3.41251">
        <ele>565</ele>
        <time>2017-02-28T13:58:59Z</time>
      </trkpt>
      <trkpt lat="44.36981" lon="3.41248">
        <ele>566</ele>
        <time>2017-02-28T14:00:59Z</time>
      </trkpt>
      <trkpt lat="44.36983" lon="3.41247">
        <ele>568</ele>
        <time>2017-02-28T14:02:59Z</time>
      </trkpt>
      <trkpt lat="44.36986" lon="3.41247">
        <ele>569</ele>
        <time>2017-02-28T14:04:59Z</time>
      </trkpt>
      <trkpt lat="44.36991" lon="3.41249">
        <ele>570</ele>
        <time>2017-02-28T14:06:59Z</time>
      </trkpt>
      <trkpt lat="44.37002" lon="3.41258">
        <ele>573</ele>
        <time>2017-02-28T14:08:59Z</time>
      </trkpt>
      <trkpt lat="44.37008" lon="3.4126">
        <ele>574</ele>
        <time>2017-02-28T14:10:59Z</time>
      </trkpt>
      <trkpt lat="44.37015" lon="3.41261">
        <ele>576</ele>
        <time>2017-02-28T14:12:59Z</time>
      </trkpt>
      <trkpt lat="44.37023" lon="3.4126">
        <ele>579</ele>
        <time>2017-02-28T14:14:59Z</time>
      </trkpt>
      <trkpt lat="44.3704" lon="3.41255">
        <ele>585</ele>
        <time>2017-02-28T14:16:59Z</time>
      </trkpt>
      <trkpt lat="44.37045" lon="3.41255">
        <ele>586</ele>
        <time>2017-02-28T14:18:59Z</time>
      </trkpt>
      <trkpt lat="44.37049" lon="3.41256">
        <ele>587</ele>
        <time>2017-02-28T14:20:59Z</time>
      </trkpt>
      <trkpt lat="44.37056" lon="3.41261">
        <ele>588</ele>
        <time>2017-02-28T14:22:59Z</time>
      </trkpt>
      <trkpt lat="44.37071" lon="3.4127">
        <ele>590</ele>
        <time>2017-02-28T14:24:59Z</time>
      </trkpt>
      <trkpt lat="44.37087" lon="3.41279">
        <ele>593</ele>
        <time>2017-02-28T14:26:59Z</time>
      </trkpt>
      <trkpt lat="44.37109" lon="3.41293">
        <ele>600</ele>
        <time>2017-02-28T14:28:59Z</time>
      </trkpt>
      <trkpt lat="44.37119" lon="3.41302">
        <ele>602</ele>
        <time>2017-02-28T14:30:59Z</time>
      </trkpt>
      <trkpt lat="44.37128" lon="3.41311">
        <ele>604</ele>
        <time>2017-02-28T14:32:59Z</time>
      </trkpt>
      <trkpt lat="44.37139" lon="3.41325">
        <ele>605</ele>
        <time>2017-02-28T14:34:59Z</time>
      </trkpt>
      <trkpt lat="44.3715" lon="3.41338">
        <ele>607</ele>
        <time>2017-02-28T14:36:59Z</time>
      </trkpt>
      <trkpt lat="44.3716" lon="3.41355">
        <ele>609</ele>
        <time>2017-02-28T14:38:59Z</time>
      </trkpt>
      <trkpt lat="44.37167" lon="3.4137">
        <ele>610</ele>
        <time>2017-02-28T14:40:59Z</time>
      </trkpt>
      <trkpt lat="44.37188" lon="3.41423">
        <ele>614</ele>
        <time>2017-02-28T14:42:59Z</time>
      </trkpt>
      <trkpt lat="44.3719" lon="3.41433">
        <ele>615</ele>
        <time>2017-02-28T14:44:59Z</time>
      </trkpt>
      <trkpt lat="44.37193" lon="3.41446">
        <ele>617</ele>
        <time>2017-02-28T14:46:59Z</time>
      </trkpt>
      <trkpt lat="44.37195" lon="3.41459">
        <ele>618</ele>
        <time>2017-02-28T14:48:59Z</time>
      </trkpt>
      <trkpt lat="44.37197" lon="3.41464">
        <ele>619</ele>
        <time>2017-02-28T14:50:59Z</time>
      </trkpt>
      <trkpt lat="44.37201" lon="3.4147">
        <ele>621</ele>
        <time>2017-02-28T14:52:59Z</time>
      </trkpt>
      <trkpt lat="44.37203" lon="3.4147">
        <ele>622</ele>
        <time>2017-02-28T14:54:59Z</time>
      </trkpt>
      <trkpt lat="44.37206" lon="3.41469">
        <ele>623</ele>
        <time>2017-02-28T14:56:59Z</time>
      </trkpt>
      <trkpt lat="44.37209" lon="3.41466">
        <ele>624</ele>
        <time>2017-02-28T14:58:59Z</time>
      </trkpt>
      <trkpt lat="44.37209" lon="3.41454">
        <ele>625</ele>
        <time>2017-02-28T15:00:59Z</time>
      </trkpt>
      <trkpt lat="44.37202" lon="3.41412">
        <ele>623</ele>
        <time>2017-02-28T15:02:59Z</time>
      </trkpt>
      <trkpt lat="44.37192" lon="3.41363">
        <ele>626</ele>
        <time>2017-02-28T15:04:59Z</time>
      </trkpt>
      <trkpt lat="44.37182" lon="3.41329">
        <ele>627</ele>
        <time>2017-02-28T15:06:59Z</time>
      </trkpt>
      <trkpt lat="44.37162" lon="3.41266">
        <ele>634</ele>
        <time>2017-02-28T15:08:59Z</time>
      </trkpt>
      <trkpt lat="44.37157" lon="3.41256">
        <ele>634</ele>
        <time>2017-02-28T15:10:59Z</time>
      </trkpt>
      <trkpt lat="44.37152" lon="3.41247">
        <ele>634</ele>
        <time>2017-02-28T15:12:59Z</time>
      </trkpt>
      <trkpt lat="44.37143" lon="3.41233">
        <ele>634</ele>
        <time>2017-02-28T15:14:59Z</time>
      </trkpt>
      <trkpt lat="44.37137" lon="3.41221">
        <ele>634</ele>
        <time>2017-02-28T15:16:59Z</time>
      </trkpt>
      <trkpt lat="44.37135" lon="3.4121">
        <ele>636</ele>
        <time>2017-02-28T15:18:59Z</time>
      </trkpt>
      <trkpt lat="44.37135" lon="3.41202">
        <ele>638</ele>
        <time>2017-02-28T15:20:59Z</time>
      </trkpt>
      <trkpt lat="44.37136" lon="3.41193">
        <ele>641</ele>
        <time>2017-02-28T15:22:59Z</time>
      </trkpt>
      <trkpt lat="44.37139" lon="3.41177">
        <ele>647</ele>
        <time>2017-02-28T15:24:59Z</time>
      </trkpt>
      <trkpt lat="44.3714" lon="3.41163">
        <ele>651</ele>
        <time>2017-02-28T15:26:59Z</time>
      </trkpt>
      <trkpt lat="44.3714" lon="3.41157">
        <ele>653</ele>
        <time>2017-02-28T15:28:59Z</time>
      </trkpt>
      <trkpt lat="44.37139" lon="3.41152">
        <ele>654</ele>
        <time>2017-02-28T15:30:59Z</time>
      </trkpt>
      <trkpt lat="44.37139" lon="3.41149">
        <ele>655</ele>
        <time>2017-02-28T15:32:59Z</time>
      </trkpt>
      <trkpt lat="44.37138" lon="3.41145">
        <ele>656</ele>
        <time>2017-02-28T15:34:59Z</time>
      </trkpt>
      <trkpt lat="44.37136" lon="3.41142">
        <ele>657</ele>
        <time>2017-02-28T15:36:59Z</time>
      </trkpt>
      <trkpt lat="44.37135" lon="3.41138">
        <ele>658</ele>
        <time>2017-02-28T15:38:59Z</time>
      </trkpt>
      <trkpt lat="44.37132" lon="3.41135">
        <ele>658</ele>
        <time>2017-02-28T15:40:59Z</time>
      </trkpt>
      <trkpt lat="44.37128" lon="3.41132">
        <ele>657</ele>
        <time>2017-02-28T15:42:59Z</time>
      </trkpt>
      <trkpt lat="44.37123" lon="3.41131">
        <ele>656</ele>
        <time>2017-02-28T15:44:59Z</time>
      </trkpt>
      <trkpt lat="44.37112" lon="3.4113">
        <ele>653</ele>
        <time>2017-02-28T15:46:59Z</time>
      </trkpt>
      <trkpt lat="44.37093" lon="3.41131">
        <ele>646</ele>
        <time>2017-02-28T15:48:59Z</time>
      </trkpt>
      <trkpt lat="44.37089" lon="3.4113">
        <ele>645</ele>
        <time>2017-02-28T15:50:59Z</time>
      </trkpt>
      <trkpt lat="44.37087" lon="3.41129">
        <ele>645</ele>
        <time>2017-02-28T15:52:59Z</time>
      </trkpt>
      <trkpt lat="44.37085" lon="3.41125">
        <ele>646</ele>
        <time>2017-02-28T15:54:59Z</time>
      </trkpt>
      <trkpt lat="44.37084" lon="3.4112">
        <ele>648</ele>
        <time>2017-02-28T15:56:59Z</time>
      </trkpt>
      <trkpt lat="44.37084" lon="3.41118">
        <ele>648</ele>
        <time>2017-02-28T15:58:59Z</time>
      </trkpt>
      <trkpt lat="44.37085" lon="3.41114">
        <ele>650</ele>
        <time>2017-02-28T16:00:59Z</time>
      </trkpt>
      <trkpt lat="44.37087" lon="3.41112">
        <ele>652</ele>
        <time>2017-02-28T16:02:59Z</time>
      </trkpt>
      <trkpt lat="44.37089" lon="3.41111">
        <ele>653</ele>
        <time>2017-02-28T16:04:59Z</time>
      </trkpt>
      <trkpt lat="44.37096" lon="3.4111">
        <ele>655</ele>
        <time>2017-02-28T16:06:59Z</time>
      </trkpt>
      <trkpt lat="44.37147" lon="3.41111">
        <ele>670</ele>
        <time>2017-02-28T16:08:59Z</time>
      </trkpt>
      <trkpt lat="44.37162" lon="3.41112">
        <ele>674</ele>
        <time>2017-02-28T16:10:59Z</time>
      </trkpt>
      <trkpt lat="44.37168" lon="3.41117">
        <ele>675</ele>
        <time>2017-02-28T16:12:59Z</time>
      </trkpt>
      <trkpt lat="44.37171" lon="3.41122">
        <ele>675</ele>
        <time>2017-02-28T16:14:59Z</time>
      </trkpt>
      <trkpt lat="44.37173" lon="3.41129">
        <ele>674</ele>
        <time>2017-02-28T16:16:59Z</time>
      </trkpt>
      <trkpt lat="44.37174" lon="3.41136">
        <ele>673</ele>
        <time>2017-02-28T16:18:59Z</time>
      </trkpt>
      <trkpt lat="44.37172" lon="3.4115">
        <ele>668</ele>
        <time>2017-02-28T16:20:59Z</time>
      </trkpt>
      <trkpt lat="44.37169" lon="3.41166">
        <ele>662</ele>
        <time>2017-02-28T16:22:59Z</time>
      </trkpt>
      <trkpt lat="44.37169" lon="3.41173">
        <ele>660</ele>
        <time>2017-02-28T16:24:59Z</time>
      </trkpt>
      <trkpt lat="44.3717" lon="3.4118">
        <ele>659</ele>
        <time>2017-02-28T16:26:59Z</time>
      </trkpt>
      <trkpt lat="44.37172" lon="3.41191">
        <ele>658</ele>
        <time>2017-02-28T16:28:59Z</time>
      </trkpt>
      <trkpt lat="44.37182" lon="3.41206">
        <ele>660</ele>
        <time>2017-02-28T16:30:59Z</time>
      </trkpt>
      <trkpt lat="44.37214" lon="3.41247">
        <ele>670</ele>
        <time>2017-02-28T16:32:59Z</time>
      </trkpt>
      <trkpt lat="44.37244" lon="3.41292">
        <ele>675</ele>
        <time>2017-02-28T16:34:59Z</time>
      </trkpt>
      <trkpt lat="44.37269" lon="3.41328">
        <ele>681</ele>
        <time>2017-02-28T16:36:59Z</time>
      </trkpt>
      <trkpt lat="44.3728" lon="3.41348">
        <ele>685</ele>
        <time>2017-02-28T16:38:59Z</time>
      </trkpt>
      <trkpt lat="44.37285" lon="3.41367">
        <ele>685</ele>
        <time>2017-02-28T16:40:59Z</time>
      </trkpt>
      <trkpt lat="44.37291" lon="3.41399">
        <ele>684</ele>
        <time>2017-02-28T16:42:59Z</time>
      </trkpt>
      <trkpt lat="44.37299" lon="3.41446">
        <ele>681</ele>
        <time>2017-02-28T16:44:59Z</time>
      </trkpt>
      <trkpt lat="44.37303" lon="3.41462">
        <ele>680</ele>
        <time>2017-02-28T16:46:59Z</time>
      </trkpt>
      <trkpt lat="44.37306" lon="3.4147">
        <ele>681</ele>
        <time>2017-02-28T16:48:59Z</time>
      </trkpt>
      <trkpt lat="44.37328" lon="3.41498">
        <ele>691</ele>
        <time>2017-02-28T16:50:59Z</time>
      </trkpt>
      <trkpt lat="44.37347" lon="3.41521">
        <ele>696</ele>
        <time>2017-02-28T16:52:59Z</time>
      </trkpt>
      <trkpt lat="44.37375" lon="3.41554">
        <ele>703</ele>
        <time>2017-02-28T16:54:59Z</time>
      </trkpt>
      <trkpt lat="44.37383" lon="3.41566">
        <ele>704</ele>
        <time>2017-02-28T16:56:59Z</time>
      </trkpt>
      <trkpt lat="44.3739" lon="3.41578">
        <ele>704</ele>
        <time>2017-02-28T16:58:59Z</time>
      </trkpt>
      <trkpt lat="44.37399" lon="3.416">
        <ele>705</ele>
        <time>2017-02-28T17:00:59Z</time>
      </trkpt>
      <trkpt lat="44.3741" lon="3.41628">
        <ele>706</ele>
        <time>2017-02-28T17:02:59Z</time>
      </trkpt>
      <trkpt lat="44.37413" lon="3.41635">
        <ele>706</ele>
        <time>2017-02-28T17:04:59Z</time>
      </trkpt>
      <trkpt lat="44.37418" lon="3.4164">
        <ele>707</ele>
        <time>2017-02-28T17:06:59Z</time>
      </trkpt>
      <trkpt lat="44.37439" lon="3.41664">
        <ele>709</ele>
        <time>2017-02-28T17:08:59Z</time>
      </trkpt>
      <trkpt lat="44.37457" lon="3.41686">
        <ele>710</ele>
        <time>2017-02-28T17:10:59Z</time>
      </trkpt>
      <trkpt lat="44.37466" lon="3.41692">
        <ele>711</ele>
        <time>2017-02-28T17:12:59Z</time>
      </trkpt>
      <trkpt lat="44.37495" lon="3.41707">
        <ele>716</ele>
        <time>2017-02-28T17:14:59Z</time>
      </trkpt>
      <trkpt lat="44.37552" lon="3.41734">
        <ele>724</ele>
        <time>2017-02-28T17:16:59Z</time>
      </trkpt>
      <trkpt lat="44.37583" lon="3.41736">
        <ele>732</ele>
        <time>2017-02-28T17:18:59Z</time>
      </trkpt>
      <trkpt lat="44.37595" lon="3.41738">
        <ele>736</ele>
        <time>2017-02-28T17:20:59Z</time>
      </trkpt>
      <trkpt lat="44.37615" lon="3.41749">
        <ele>740</ele>
        <time>2017-02-28T17:22:59Z</time>
      </trkpt>
      <trkpt lat="44.37656" lon="3.41779">
        <ele>746</ele>
        <time>2017-02-28T17:24:59Z</time>
      </trkpt>
      <trkpt lat="44.37686" lon="3.41803">
        <ele>748</ele>
        <time>2017-02-28T17:26:59Z</time>
      </trkpt>
      <trkpt lat="44.37698" lon="3.41819">
        <ele>747</ele>
        <time>2017-02-28T17:28:59Z</time>
      </trkpt>
      <trkpt lat="44.37705" lon="3.41841">
        <ele>744</ele>
        <time>2017-02-28T17:30:59Z</time>
      </trkpt>
      <trkpt lat="44.37711" lon="3.41858">
        <ele>744</ele>
        <time>2017-02-28T17:32:59Z</time>
      </trkpt>
      <trkpt lat="44.37722" lon="3.4187">
        <ele>746</ele>
        <time>2017-02-28T17:34:59Z</time>
      </trkpt>
      <trkpt lat="44.37741" lon="3.41881">
        <ele>749</ele>
        <time>2017-02-28T17:36:59Z</time>
      </trkpt>
      <trkpt lat="44.37764" lon="3.41895">
        <ele>752</ele>
        <time>2017-02-28T17:38:59Z</time>
      </trkpt>
      <trkpt lat="44.37787" lon="3.41916">
        <ele>755</ele>
        <time>2017-02-28T17:40:59Z</time>
      </trkpt>
      <trkpt lat="44.37808" lon="3.4194">
        <ele>761</ele>
        <time>2017-02-28T17:42:59Z</time>
      </trkpt>
      <trkpt lat="44.37826" lon="3.41969">
        <ele>762</ele>
        <time>2017-02-28T17:44:59Z</time>
      </trkpt>
      <trkpt lat="44.37847" lon="3.41997">
        <ele>764</ele>
        <time>2017-02-28T17:46:59Z</time>
      </trkpt>
      <trkpt lat="44.37874" lon="3.42041">
        <ele>774</ele>
        <time>2017-02-28T17:48:59Z</time>
      </trkpt>
      <trkpt lat="44.37875" lon="3.42042">
        <ele>774</ele>
        <time>2017-02-28T17:50:59Z</time>
      </trkpt>
      <trkpt lat="44.37878" lon="3.42044">
        <ele>775</ele>
        <time>2017-02-28T17:52:59Z</time>
      </trkpt>
      <trkpt lat="44.3788" lon="3.42064">
        <ele>775</ele>
        <time>2017-02-28T17:54:59Z</time>
      </trkpt>
      <trkpt lat="44.37885" lon="3.42086">
        <ele>775</ele>
        <time>2017-02-28T17:56:59Z</time>
      </trkpt>
      <trkpt lat="44.37896" lon="3.42115">
        <ele>778</ele>
        <time>2017-02-28T17:58:59Z</time>
      </trkpt>
      <trkpt lat="44.37899" lon="3.42124">
        <ele>778</ele>
        <time>2017-02-28T18:00:59Z</time>
      </trkpt>
      <trkpt lat="44.37899" lon="3.4213">
        <ele>778</ele>
        <time>2017-02-28T18:02:59Z</time>
      </trkpt>
      <trkpt lat="44.37898" lon="3.42142">
        <ele>779</ele>
        <time>2017-02-28T18:04:59Z</time>
      </trkpt>
      <trkpt lat="44.37892" lon="3.42138">
        <ele>780</ele>
        <time>2017-02-28T18:06:59Z</time>
      </trkpt>
      <trkpt lat="44.3789" lon="3.42137">
        <ele>780</ele>
        <time>2017-02-28T18:08:59Z</time>
      </trkpt>
      <trkpt lat="44.37882" lon="3.42128">
        <ele>781</ele>
        <time>2017-02-28T18:10:59Z</time>
      </trkpt>
      <trkpt lat="44.37859" lon="3.4211">
        <ele>780</ele>
        <time>2017-02-28T18:12:59Z</time>
      </trkpt>
      <trkpt lat="44.3784" lon="3.42085">
        <ele>774</ele>
        <time>2017-02-28T18:14:59Z</time>
      </trkpt>
      <trkpt lat="44.37825" lon="3.42072">
        <ele>773</ele>
        <time>2017-02-28T18:16:59Z</time>
      </trkpt>
      <trkpt lat="44.3782" lon="3.42069">
        <ele>774</ele>
        <time>2017-02-28T18:18:59Z</time>
      </trkpt>
      <trkpt lat="44.37817" lon="3.42068">
        <ele>775</ele>
        <time>2017-02-28T18:20:59Z</time>
      </trkpt>
      <trkpt lat="44.37812" lon="3.42067">
        <ele>776</ele>
        <time>2017-02-28T18:22:59Z</time>
      </trkpt>
      <trkpt lat="44.37835" lon="3.42099">
        <ele>779</ele>
        <time>2017-02-28T18:24:59Z</time>
      </trkpt>
      <trkpt lat="44.37847" lon="3.42123">
        <ele>785</ele>
        <time>2017-02-28T18:26:59Z</time>
      </trkpt>
      <trkpt lat="44.37862" lon="3.42154">
        <ele>790</ele>
        <time>2017-02-28T18:28:59Z</time>
      </trkpt>
      <trkpt lat="44.37873" lon="3.4218">
        <ele>794</ele>
        <time>2017-02-28T18:30:59Z</time>
      </trkpt>
      <trkpt lat="44.37886" lon="3.42198">
        <ele>795</ele>
        <time>2017-02-28T18:32:59Z</time>
      </trkpt>
      <trkpt lat="44.37908" lon="3.42225">
        <ele>795</ele>
        <time>2017-02-28T18:34:59Z</time>
      </trkpt>
      <trkpt lat="44.37912" lon="3.42234">
        <ele>796</ele>
        <time>2017-02-28T18:36:59Z</time>
      </trkpt>
      <trkpt lat="44.37919" lon="3.42261">
        <ele>803</ele>
        <time>2017-02-28T18:38:59Z</time>
      </trkpt>
      <trkpt lat="44.37927" lon="3.42287">
        <ele>813</ele>
        <time>2017-02-28T18:40:59Z</time>
      </trkpt>
      <trkpt lat="44.37933" lon="3.42293">
        <ele>816</ele>
        <time>2017-02-28T18:42:59Z</time>
      </trkpt>
      <trkpt lat="44.37934" lon="3.42293">
        <ele>816</ele>
        <time>2017-02-28T18:44:59Z</time>
      </trkpt>
      <trkpt lat="44.37937" lon="3.42295">
        <ele>817</ele>
        <time>2017-02-28T18:46:59Z</time>
      </trkpt>
      <trkpt lat="44.3794" lon="3.42293">
        <ele>816</ele>
        <time>2017-02-28T18:48:59Z</time>
      </trkpt>
      <trkpt lat="44.37961" lon="3.42268">
        <ele>807</ele>
        <time>2017-02-28T18:50:59Z</time>
      </trkpt>
      <trkpt lat="44.37971" lon="3.42261">
        <ele>805</ele>
        <time>2017-02-28T18:52:59Z</time>
      </trkpt>
      <trkpt lat="44.3798" lon="3.4226">
        <ele>805</ele>
        <time>2017-02-28T18:54:59Z</time>
      </trkpt>
      <trkpt lat="44.37995" lon="3.42264">
        <ele>807</ele>
        <time>2017-02-28T18:56:59Z</time>
      </trkpt>
      <trkpt lat="44.38008" lon="3.42266">
        <ele>809</ele>
        <time>2017-02-28T18:58:59Z</time>
      </trkpt>
      <trkpt lat="44.38028" lon="3.42265">
        <ele>813</ele>
        <time>2017-02-28T19:00:59Z</time>
      </trkpt>
      <trkpt lat="44.38042" lon="3.42262">
        <ele>814</ele>
        <time>2017-02-28T19:02:59Z</time>
      </trkpt>
      <trkpt lat="44.38065" lon="3.42252">
        <ele>814</ele>
        <time>2017-02-28T19:04:59Z</time>
      </trkpt>
      <trkpt lat="44.38088" lon="3.42244">
        <ele>816</ele>
        <time>2017-02-28T19:06:59Z</time>
      </trkpt>
      <trkpt lat="44.38112" lon="3.42239">
        <ele>818</ele>
        <time>2017-02-28T19:08:59Z</time>
      </trkpt>
      <trkpt lat="44.38124" lon="3.42235">
        <ele>819</ele>
        <time>2017-02-28T19:10:59Z</time>
      </trkpt>
      <trkpt lat="44.38148" lon="3.42225">
        <ele>821</ele>
        <time>2017-02-28T19:12:59Z</time>
      </trkpt>
      <trkpt lat="44.3816" lon="3.42223">
        <ele>822</ele>
        <time>2017-02-28T19:14:59Z</time>
      </trkpt>
      <trkpt lat="44.38173" lon="3.42226">
        <ele>824</ele>
        <time>2017-02-28T19:16:59Z</time>
      </trkpt>
      <trkpt lat="44.38186" lon="3.42234">
        <ele>827</ele>
        <time>2017-02-28T19:18:59Z</time>
      </trkpt>
      <trkpt lat="44.38201" lon="3.42239">
        <ele>830</ele>
        <time>2017-02-28T19:20:59Z</time>
      </trkpt>
      <trkpt lat="44.3823" lon="3.42244">
        <ele>833</ele>
        <time>2017-02-28T19:22:59Z</time>
      </trkpt>
      <trkpt lat="44.3827" lon="3.42256">
        <ele>839</ele>
        <time>2017-02-28T19:24:59Z</time>
      </trkpt>
      <trkpt lat="44.38281" lon="3.42257">
        <ele>840</ele>
        <time>2017-02-28T19:26:59Z</time>
      </trkpt>
      <trkpt lat="44.38309" lon="3.42255">
        <ele>841</ele>
        <time>2017-02-28T19:28:59Z</time>
      </trkpt>
      <trkpt lat="44.38344" lon="3.42253">
        <ele>842</ele>
        <time>2017-02-28T19:30:59Z</time>
      </trkpt>
      <trkpt lat="44.38371" lon="3.42254">
        <ele>844</ele>
        <time>2017-02-28T19:32:59Z</time>
      </trkpt>
      <trkpt lat="44.38396" lon="3.42257">
        <ele>847</ele>
        <time>2017-02-28T19:34:59Z</time>
      </trkpt>
      <trkpt lat="44.38427" lon="3.42265">
        <ele>851</ele>
        <time>2017-02-28T19:36:59Z</time>
      </trkpt>
      <trkpt lat="44.38457" lon="3.42276">
        <ele>852</ele>
        <time>2017-02-28T19:38:59Z</time>
      </trkpt>
      <trkpt lat="44.38478" lon="3.42287">
        <ele>854</ele>
        <time>2017-02-28T19:40:59Z</time>
      </trkpt>
      <trkpt lat="44.38496" lon="3.42302">
        <ele>856</ele>
        <time>2017-02-28T19:42:59Z</time>
      </trkpt>
      <trkpt lat="44.38523" lon="3.42331">
        <ele>859</ele>
        <time>2017-02-28T19:44:59Z</time>
      </trkpt>
      <trkpt lat="44.38565" lon="3.42373">
        <ele>858</ele>
        <time>2017-02-28T19:46:59Z</time>
      </trkpt>
      <trkpt lat="44.38586" lon="3.42395">
        <ele>858</ele>
        <time>2017-02-28T19:48:59Z</time>
      </trkpt>
      <trkpt lat="44.38597" lon="3.4241">
        <ele>861</ele>
        <time>2017-02-28T19:50:59Z</time>
      </trkpt>
      <trkpt lat="44.38604" lon="3.42428">
        <ele>865</ele>
        <time>2017-02-28T19:52:59Z</time>
      </trkpt>
      <trkpt lat="44.38616" lon="3.42466">
        <ele>872</ele>
        <time>2017-02-28T19:54:59Z</time>
      </trkpt>
      <trkpt lat="44.38629" lon="3.42502">
        <ele>878</ele>
        <time>2017-02-28T19:56:59Z</time>
      </trkpt>
      <trkpt lat="44.38634" lon="3.42512">
        <ele>879</ele>
        <time>2017-02-28T19:58:59Z</time>
      </trkpt>
      <trkpt lat="44.38639" lon="3.42516">
        <ele>879</ele>
        <time>2017-02-28T20:00:59Z</time>
      </trkpt>
      <trkpt lat="44.38643" lon="3.42516">
        <ele>879</ele>
        <time>2017-02-28T20:02:59Z</time>
      </trkpt>
      <trkpt lat="44.38648" lon="3.42513">
        <ele>878</ele>
        <time>2017-02-28T20:04:59Z</time>
      </trkpt>
      <trkpt lat="44.38651" lon="3.42509">
        <ele>877</ele>
        <time>2017-02-28T20:06:59Z</time>
      </trkpt>
      <trkpt lat="44.38665" lon="3.42469">
        <ele>871</ele>
        <time>2017-02-28T20:08:59Z</time>
      </trkpt>
      <trkpt lat="44.38678" lon="3.42439">
        <ele>870</ele>
        <time>2017-02-28T20:10:59Z</time>
      </trkpt>
      <trkpt lat="44.38684" lon="3.42427">
        <ele>869</ele>
        <time>2017-02-28T20:12:59Z</time>
      </trkpt>
      <trkpt lat="44.38691" lon="3.42416">
        <ele>869</ele>
        <time>2017-02-28T20:14:59Z</time>
      </trkpt>
      <trkpt lat="44.38703" lon="3.42398">
        <ele>868</ele>
        <time>2017-02-28T20:16:59Z</time>
      </trkpt>
      <trkpt lat="44.38712" lon="3.42387">
        <ele>868</ele>
        <time>2017-02-28T20:18:59Z</time>
      </trkpt>
      <trkpt lat="44.3872" lon="3.42378">
        <ele>868</ele>
        <time>2017-02-28T20:20:59Z</time>
      </trkpt>
      <trkpt lat="44.38723" lon="3.42375">
        <ele>868</ele>
        <time>2017-02-28T20:22:59Z</time>
      </trkpt>
      <trkpt lat="44.38726" lon="3.42374">
        <ele>868</ele>
        <time>2017-02-28T20:24:59Z</time>
      </trkpt>
      <trkpt lat="44.38734" lon="3.4237">
        <ele>869</ele>
        <time>2017-02-28T20:26:59Z</time>
      </trkpt>
      <trkpt lat="44.38756" lon="3.42351">
        <ele>869</ele>
        <time>2017-02-28T20:28:59Z</time>
      </trkpt>
      <trkpt lat="44.38789" lon="3.42329">
        <ele>867</ele>
        <time>2017-02-28T20:30:59Z</time>
      </trkpt>
      <trkpt lat="44.38828" lon="3.42308">
        <ele>866</ele>
        <time>2017-02-28T20:32:59Z</time>
      </trkpt>
      <trkpt lat="44.38844" lon="3.42306">
        <ele>866</ele>
        <time>2017-02-28T20:34:59Z</time>
      </trkpt>
      <trkpt lat="44.38857" lon="3.42307">
        <ele>866</ele>
        <time>2017-02-28T20:36:59Z</time>
      </trkpt>
      <trkpt lat="44.38894" lon="3.42314">
        <ele>867</ele>
        <time>2017-02-28T20:38:59Z</time>
      </trkpt>
      <trkpt lat="44.38906" lon="3.42319">
        <ele>867</ele>
        <time>2017-02-28T20:40:59Z</time>
      </trkpt>
      <trkpt lat="44.38921" lon="3.42327">
        <ele>868</ele>
        <time>2017-02-28T20:42:59Z</time>
      </trkpt>
      <trkpt lat="44.38929" lon="3.42327">
        <ele>868</ele>
        <time>2017-02-28T20:44:59Z</time>
      </trkpt>
      <trkpt lat="44.38937" lon="3.42322">
        <ele>868</ele>
        <time>2017-02-28T20:46:59Z</time>
      </trkpt>
      <trkpt lat="44.38949" lon="3.42306">
        <ele>866</ele>
        <time>2017-02-28T20:48:59Z</time>
      </trkpt>
      <trkpt lat="44.38959" lon="3.42299">
        <ele>866</ele>
        <time>2017-02-28T20:50:59Z</time>
      </trkpt>
      <trkpt lat="44.38966" lon="3.42298">
        <ele>866</ele>
        <time>2017-02-28T20:52:59Z</time>
      </trkpt>
      <trkpt lat="44.3898" lon="3.42292">
        <ele>865</ele>
        <time>2017-02-28T20:54:59Z</time>
      </trkpt>
      <trkpt lat="44.38985" lon="3.42288">
        <ele>865</ele>
        <time>2017-02-28T20:56:59Z</time>
      </trkpt>
      <trkpt lat="44.38988" lon="3.42285">
        <ele>865</ele>
        <time>2017-02-28T20:58:59Z</time>
      </trkpt>
      <trkpt lat="44.38995" lon="3.42281">
        <ele>865</ele>
        <time>2017-02-28T21:00:59Z</time>
      </trkpt>
      <trkpt lat="44.38979" lon="3.4225">
        <ele>861</ele>
        <time>2017-02-28T21:02:59Z</time>
      </trkpt>
      <trkpt lat="44.38976" lon="3.42243">
        <ele>862</ele>
        <time>2017-02-28T21:04:59Z</time>
      </trkpt>
      <trkpt lat="44.38971" lon="3.42235">
        <ele>862</ele>
        <time>2017-02-28T21:06:59Z</time>
      </trkpt>
      <trkpt lat="44.3899" lon="3.42225">
        <ele>864</ele>
        <time>2017-02-28T21:08:59Z</time>
      </trkpt>
      <trkpt lat="44.39003" lon="3.42215">
        <ele>865</ele>
        <time>2017-02-28T21:10:59Z</time>
      </trkpt>
      <trkpt lat="44.39009" lon="3.42206">
        <ele>867</ele>
        <time>2017-02-28T21:12:59Z</time>
      </trkpt>
      <trkpt lat="44.3901" lon="3.42197">
        <ele>868</ele>
        <time>2017-02-28T21:14:59Z</time>
      </trkpt>
      <trkpt lat="44.39014" lon="3.42191">
        <ele>868</ele>
        <time>2017-02-28T21:16:59Z</time>
      </trkpt>
      <trkpt lat="44.39019" lon="3.42181">
        <ele>870</ele>
        <time>2017-02-28T21:18:59Z</time>
      </trkpt>
      <trkpt lat="44.39025" lon="3.42174">
        <ele>871</ele>
        <time>2017-02-28T21:20:59Z</time>
      </trkpt>
      <trkpt lat="44.39027" lon="3.42174">
        <ele>872</ele>
        <time>2017-02-28T21:22:59Z</time>
      </trkpt>
      <trkpt lat="44.3903" lon="3.42177">
        <ele>872</ele>
        <time>2017-02-28T21:24:59Z</time>
      </trkpt>
      <trkpt lat="44.39039" lon="3.4219">
        <ele>871</ele>
        <time>2017-02-28T21:26:59Z</time>
      </trkpt>
      <trkpt lat="44.39047" lon="3.42197">
        <ele>871</ele>
        <time>2017-02-28T21:28:59Z</time>
      </trkpt>
      <trkpt lat="44.39049" lon="3.42197">
        <ele>872</ele>
        <time>2017-02-28T21:30:59Z</time>
      </trkpt>
      <trkpt lat="44.3905" lon="3.42195">
        <ele>872</ele>
        <time>2017-02-28T21:32:59Z</time>
      </trkpt>
      <trkpt lat="44.39056" lon="3.42146">
        <ele>878</ele>
        <time>2017-02-28T21:34:59Z</time>
      </trkpt>
      <trkpt lat="44.39064" lon="3.42134">
        <ele>880</ele>
        <time>2017-02-28T21:36:59Z</time>
      </trkpt>
      <trkpt lat="44.39071" lon="3.42119">
        <ele>882</ele>
        <time>2017-02-28T21:38:59Z</time>
      </trkpt>
      <trkpt lat="44.39088" lon="3.42072">
        <ele>887</ele>
        <time>2017-02-28T21:40:59Z</time>
      </trkpt>
      <trkpt lat="44.39096" lon="3.42049">
        <ele>890</ele>
        <time>2017-02-28T21:42:59Z</time>
      </trkpt>
      <trkpt lat="44.39104" lon="3.42036">
        <ele>892</ele>
        <time>2017-02-28T21:44:59Z</time>
      </trkpt>
      <trkpt lat="44.39123" lon="3.42016">
        <ele>896</ele>
        <time>2017-02-28T21:46:59Z</time>
      </trkpt>
      <trkpt lat="44.3915" lon="3.4199">
        <ele>901</ele>
        <time>2017-02-28T21:48:59Z</time>
      </trkpt>
      <trkpt lat="44.39177" lon="3.4196">
        <ele>905</ele>
        <time>2017-02-28T21:50:59Z</time>
      </trkpt>
      <trkpt lat="44.39198" lon="3.41934">
        <ele>909</ele>
        <time>2017-02-28T21:52:59Z</time>
      </trkpt>
      <trkpt lat="44.3922" lon="3.41905">
        <ele>912</ele>
        <time>2017-02-28T21:54:59Z</time>
      </trkpt>
      <trkpt lat="44.39234" lon="3.41885">
        <ele>915</ele>
        <time>2017-02-28T21:56:59Z</time>
      </trkpt>
      <trkpt lat="44.39252" lon="3.41851">
        <ele>918</ele>
        <time>2017-02-28T21:58:59Z</time>
      </trkpt>
      <trkpt lat="44.39266" lon="3.41812">
        <ele>921</ele>
        <time>2017-02-28T22:00:59Z</time>
      </trkpt>
      <trkpt lat="44.39252" lon="3.41797">
        <ele>921</ele>
        <time>2017-02-28T22:02:59Z</time>
      </trkpt>
      <trkpt lat="44.39242" lon="3.41789">
        <ele>921</ele>
        <time>2017-02-28T22:04:59Z</time>
      </trkpt>
      <trkpt lat="44.39254" lon="3.41775">
        <ele>922</ele>
        <time>2017-02-28T22:06:59Z</time>
      </trkpt>
      <trkpt lat="44.3896" lon="3.41476">
        <ele>973</ele>
        <time>2017-02-28T22:08:59Z</time>
      </trkpt>
      <trkpt lat="44.38853" lon="3.41327">
        <ele>984</ele>
        <time>2017-02-28T22:10:59Z</time>
      </trkpt>
      <trkpt lat="44.38794" lon="3.41223">
        <ele>971</ele>
        <time>2017-02-28T22:12:59Z</time>
      </trkpt>
      <trkpt lat="44.38718" lon="3.41119">
        <ele>959</ele>
        <time>2017-02-28T22:14:59Z</time>
      </trkpt>
      <trkpt lat="44.38484" lon="3.40781">
        <ele>931</ele>
        <time>2017-02-28T22:16:59Z</time>
      </trkpt>
      <trkpt lat="44.38417" lon="3.40703">
        <ele>919</ele>
        <time>2017-02-28T22:18:59Z</time>
      </trkpt>
      <trkpt lat="44.3839" lon="3.40657">
        <ele>918</ele>
        <time>2017-02-28T22:20:59Z</time>
      </trkpt>
      <trkpt lat="44.38372" lon="3.40612">
        <ele>917</ele>
        <time>2017-02-28T22:22:59Z</time>
      </trkpt>
      <trkpt lat="44.38354" lon="3.40491">
        <ele>915</ele>
        <time>2017-02-28T22:24:59Z</time>
      </trkpt>
      <trkpt lat="44.38347" lon="3.40498">
        <ele>916</ele>
        <time>2017-02-28T22:26:59Z</time>
      </trkpt>
      <trkpt lat="44.38322" lon="3.40534">
        <ele>916</ele>
        <time>2017-02-28T22:28:59Z</time>
      </trkpt>
      <trkpt lat="44.383" lon="3.40565">
        <ele>915</ele>
        <time>2017-02-28T22:30:59Z</time>
      </trkpt>
      <trkpt lat="44.3828" lon="3.40586">
        <ele>913</ele>
        <time>2017-02-28T22:32:59Z</time>
      </trkpt>
      <trkpt lat="44.38263" lon="3.40601">
        <ele>911</ele>
        <time>2017-02-28T22:34:59Z</time>
      </trkpt>
      <trkpt lat="44.3825" lon="3.40614">
        <ele>909</ele>
        <time>2017-02-28T22:36:59Z</time>
      </trkpt>
      <trkpt lat="44.38234" lon="3.40624">
        <ele>907</ele>
        <time>2017-02-28T22:38:59Z</time>
      </trkpt>
      <trkpt lat="44.38223" lon="3.40624">
        <ele>906</ele>
        <time>2017-02-28T22:40:59Z</time>
      </trkpt>
      <trkpt lat="44.3821" lon="3.40621">
        <ele>905</ele>
        <time>2017-02-28T22:42:59Z</time>
      </trkpt>
      <trkpt lat="44.38202" lon="3.40622">
        <ele>904</ele>
        <time>2017-02-28T22:44:59Z</time>
      </trkpt>
      <trkpt lat="44.3819" lon="3.4063">
        <ele>903</ele>
        <time>2017-02-28T22:46:59Z</time>
      </trkpt>
      <trkpt lat="44.38172" lon="3.40637">
        <ele>901</ele>
        <time>2017-02-28T22:48:59Z</time>
      </trkpt>
      <trkpt lat="44.3814" lon="3.40653">
        <ele>899</ele>
        <time>2017-02-28T22:50:59Z</time>
      </trkpt>
      <trkpt lat="44.38116" lon="3.4066">
        <ele>897</ele>
        <time>2017-02-28T22:52:59Z</time>
      </trkpt>
      <trkpt lat="44.38089" lon="3.40665">
        <ele>896</ele>
        <time>2017-02-28T22:54:59Z</time>
      </trkpt>
      <trkpt lat="44.38068" lon="3.40674">
        <ele>896</ele>
        <time>2017-02-28T22:56:59Z</time>
      </trkpt>
      <trkpt lat="44.38046" lon="3.40679">
        <ele>897</ele>
        <time>2017-02-28T22:58:59Z</time>
      </trkpt>
      <trkpt lat="44.38027" lon="3.40689">
        <ele>897</ele>
        <time>2017-02-28T23:00:59Z</time>
      </trkpt>
      <trkpt lat="44.38003" lon="3.40706">
        <ele>897</ele>
        <time>2017-02-28T23:02:59Z</time>
      </trkpt>
      <trkpt lat="44.37979" lon="3.40721">
        <ele>897</ele>
        <time>2017-02-28T23:04:59Z</time>
      </trkpt>
      <trkpt lat="44.37966" lon="3.40727">
        <ele>898</ele>
        <time>2017-02-28T23:06:59Z</time>
      </trkpt>
      <trkpt lat="44.37947" lon="3.40728">
        <ele>898</ele>
        <time>2017-02-28T23:08:59Z</time>
      </trkpt>
      <trkpt lat="44.37932" lon="3.40726">
        <ele>899</ele>
        <time>2017-02-28T23:10:59Z</time>
      </trkpt>
      <trkpt lat="44.37923" lon="3.40721">
        <ele>899</ele>
        <time>2017-02-28T23:12:59Z</time>
      </trkpt>
      <trkpt lat="44.37914" lon="3.40709">
        <ele>900</ele>
        <time>2017-02-28T23:14:59Z</time>
      </trkpt>
      <trkpt lat="44.37856" lon="3.40674">
        <ele>898</ele>
        <time>2017-02-28T23:16:59Z</time>
      </trkpt>
      <trkpt lat="44.37838" lon="3.40659">
        <ele>897</ele>
        <time>2017-02-28T23:18:59Z</time>
      </trkpt>
      <trkpt lat="44.37825" lon="3.40647">
        <ele>897</ele>
        <time>2017-02-28T23:20:59Z</time>
      </trkpt>
      <trkpt lat="44.37819" lon="3.40641">
        <ele>896</ele>
        <time>2017-02-28T23:22:59Z</time>
      </trkpt>
      <trkpt lat="44.37805" lon="3.40637">
        <ele>896</ele>
        <time>2017-02-28T23:24:59Z</time>
      </trkpt>
      <trkpt lat="44.37778" lon="3.40632">
        <ele>895</ele>
        <time>2017-02-28T23:26:59Z</time>
      </trkpt>
      <trkpt lat="44.37763" lon="3.40632">
        <ele>894</ele>
        <time>2017-02-28T23:28:59Z</time>
      </trkpt>
      <trkpt lat="44.37751" lon="3.4064">
        <ele>894</ele>
        <time>2017-02-28T23:30:59Z</time>
      </trkpt>
      <trkpt lat="44.3774" lon="3.40653">
        <ele>893</ele>
        <time>2017-02-28T23:32:59Z</time>
      </trkpt>
      <trkpt lat="44.37732" lon="3.40657">
        <ele>893</ele>
        <time>2017-02-28T23:34:59Z</time>
      </trkpt>
      <trkpt lat="44.37733" lon="3.40646">
        <ele>893</ele>
        <time>2017-02-28T23:36:59Z</time>
      </trkpt>
      <trkpt lat="44.37734" lon="3.4063">
        <ele>892</ele>
        <time>2017-02-28T23:38:59Z</time>
      </trkpt>
      <trkpt lat="44.37733" lon="3.40617">
        <ele>892</ele>
        <time>2017-02-28T23:40:59Z</time>
      </trkpt>
      <trkpt lat="44.37733" lon="3.40609">
        <ele>892</ele>
        <time>2017-02-28T23:42:59Z</time>
      </trkpt>
      <trkpt lat="44.37731" lon="3.40596">
        <ele>892</ele>
        <time>2017-02-28T23:44:59Z</time>
      </trkpt>
      <trkpt lat="44.37727" lon="3.40588">
        <ele>891</ele>
        <time>2017-02-28T23:46:59Z</time>
      </trkpt>
      <trkpt lat="44.37718" lon="3.40579">
        <ele>891</ele>
        <time>2017-02-28T23:48:59Z</time>
      </trkpt>
      <trkpt lat="44.37715" lon="3.40544">
        <ele>890</ele>
        <time>2017-02-28T23:50:59Z</time>
      </trkpt>
      <trkpt lat="44.37713" lon="3.40501">
        <ele>890</ele>
        <time>2017-02-28T23:52:59Z</time>
      </trkpt>
      <trkpt lat="44.37711" lon="3.40475">
        <ele>891</ele>
        <time>2017-02-28T23:54:59Z</time>
      </trkpt>
      <trkpt lat="44.37707" lon="3.40459">
        <ele>892</ele>
        <time>2017-02-28T23:56:59Z</time>
      </trkpt>
      <trkpt lat="44.37698" lon="3.40441">
        <ele>893</ele>
        <time>2017-02-28T23:58:59Z</time>
      </trkpt>
      <trkpt lat="44.37682" lon="3.4042">
        <ele>893</ele>
        <time>2017-03-01T00:00:59Z</time>
      </trkpt>
      <trkpt lat="44.37657" lon="3.40401">
        <ele>895</ele>
        <time>2017-03-01T00:02:59Z</time>
      </trkpt>
      <trkpt lat="44.3762" lon="3.40374">
        <ele>899</ele>
        <time>2017-03-01T00:04:59Z</time>
      </trkpt>
      <trkpt lat="44.37587" lon="3.40353">
        <ele>903</ele>
        <time>2017-03-01T00:06:59Z</time>
      </trkpt>
      <trkpt lat="44.37514" lon="3.40304">
        <ele>914</ele>
        <time>2017-03-01T00:08:59Z</time>
      </trkpt>
      <trkpt lat="44.37504" lon="3.40293">
        <ele>915</ele>
        <time>2017-03-01T00:10:59Z</time>
      </trkpt>
      <trkpt lat="44.37493" lon="3.40277">
        <ele>917</ele>
        <time>2017-03-01T00:12:59Z</time>
      </trkpt>
      <trkpt lat="44.3748" lon="3.40253">
        <ele>918</ele>
        <time>2017-03-01T00:14:59Z</time>
      </trkpt>
      <trkpt lat="44.37458" lon="3.40211">
        <ele>921</ele>
        <time>2017-03-01T00:16:59Z</time>
      </trkpt>
      <trkpt lat="44.37452" lon="3.40203">
        <ele>921</ele>
        <time>2017-03-01T00:18:59Z</time>
      </trkpt>
      <trkpt lat="44.37436" lon="3.40189">
        <ele>922</ele>
        <time>2017-03-01T00:20:59Z</time>
      </trkpt>
      <trkpt lat="44.37421" lon="3.40177">
        <ele>922</ele>
        <time>2017-03-01T00:22:59Z</time>
      </trkpt>
      <trkpt lat="44.37396" lon="3.40154">
        <ele>924</ele>
        <time>2017-03-01T00:24:59Z</time>
      </trkpt>
      <trkpt lat="44.37382" lon="3.40144">
        <ele>925</ele>
        <time>2017-03-01T00:26:59Z</time>
      </trkpt>
      <trkpt lat="44.37361" lon="3.40128">
        <ele>927</ele>
        <time>2017-03-01T00:28:59Z</time>
      </trkpt>
      <trkpt lat="44.3735" lon="3.40117">
        <ele>928</ele>
        <time>2017-03-01T00:30:59Z</time>
      </trkpt>
      <trkpt lat="44.37341" lon="3.40107">
        <ele>930</ele>
        <time>2017-03-01T00:32:59Z</time>
      </trkpt>
      <trkpt lat="44.37328" lon="3.40094">
        <ele>931</ele>
        <time>2017-03-01T00:34:59Z</time>
      </trkpt>
      <trkpt lat="44.3732" lon="3.40083">
        <ele>933</ele>
        <time>2017-03-01T00:36:59Z</time>
      </trkpt>
      <trkpt lat="44.37311" lon="3.40073">
        <ele>933</ele>
        <time>2017-03-01T00:38:59Z</time>
      </trkpt>
      <trkpt lat="44.37301" lon="3.40066">
        <ele>934</ele>
        <time>2017-03-01T00:40:59Z</time>
      </trkpt>
      <trkpt lat="44.3729" lon="3.40057">
        <ele>934</ele>
        <time>2017-03-01T00:42:59Z</time>
      </trkpt>
      <trkpt lat="44.37275" lon="3.4005">
        <ele>935</ele>
        <time>2017-03-01T00:44:59Z</time>
      </trkpt>
      <trkpt lat="44.37256" lon="3.40043">
        <ele>935</ele>
        <time>2017-03-01T00:46:59Z</time>
      </trkpt>
      <trkpt lat="44.37243" lon="3.4004">
        <ele>936</ele>
        <time>2017-03-01T00:48:59Z</time>
      </trkpt>
      <trkpt lat="44.37212" lon="3.40036">
        <ele>936</ele>
        <time>2017-03-01T00:50:59Z</time>
      </trkpt>
      <trkpt lat="44.372" lon="3.40033">
        <ele>936</ele>
        <time>2017-03-01T00:52:59Z</time>
      </trkpt>
      <trkpt lat="44.37189" lon="3.40031">
        <ele>936</ele>
        <time>2017-03-01T00:54:59Z</time>
      </trkpt>
      <trkpt lat="44.37183" lon="3.40029">
        <ele>936</ele>
        <time>2017-03-01T00:56:59Z</time>
      </trkpt>
      <trkpt lat="44.37178" lon="3.40025">
        <ele>935</ele>
        <time>2017-03-01T00:58:59Z</time>
      </trkpt>
      <trkpt lat="44.37174" lon="3.40019">
        <ele>935</ele>
        <time>2017-03-01T01:00:59Z</time>
      </trkpt>
      <trkpt lat="44.37167" lon="3.40001">
        <ele>935</ele>
        <time>2017-03-01T01:02:59Z</time>
      </trkpt>
      <trkpt lat="44.37161" lon="3.39987">
        <ele>934</ele>
        <time>2017-03-01T01:04:59Z</time>
      </trkpt>
      <trkpt lat="44.37155" lon="3.39982">
        <ele>934</ele>
        <time>2017-03-01T01:06:59Z</time>
      </trkpt>
      <trkpt lat="44.37149" lon="3.3998">
        <ele>934</ele>
        <time>2017-03-01T01:08:59Z</time>
      </trkpt>
      <trkpt lat="44.37138" lon="3.39983">
        <ele>933</ele>
        <time>2017-03-01T01:10:59Z</time>
      </trkpt>
      <trkpt lat="44.37126" lon="3.39985">
        <ele>933</ele>
        <time>2017-03-01T01:12:59Z</time>
      </trkpt>
      <trkpt lat="44.37112" lon="3.39985">
        <ele>933</ele>
        <time>2017-03-01T01:14:59Z</time>
      </trkpt>
      <trkpt lat="44.37096" lon="3.39984">
        <ele>932</ele>
        <time>2017-03-01T01:16:59Z</time>
      </trkpt>
      <trkpt lat="44.37083" lon="3.39981">
        <ele>932</ele>
        <time>2017-03-01T01:18:59Z</time>
      </trkpt>
      <trkpt lat="44.37071" lon="3.39976">
        <ele>931</ele>
        <time>2017-03-01T01:20:59Z</time>
      </trkpt>
      <trkpt lat="44.37058" lon="3.39972">
        <ele>931</ele>
        <time>2017-03-01T01:22:59Z</time>
      </trkpt>
      <trkpt lat="44.37042" lon="3.3997">
        <ele>931</ele>
        <time>2017-03-01T01:24:59Z</time>
      </trkpt>
      <trkpt lat="44.37026" lon="3.39966">
        <ele>930</ele>
        <time>2017-03-01T01:26:59Z</time>
      </trkpt>
      <trkpt lat="44.37005" lon="3.39958">
        <ele>930</ele>
        <time>2017-03-01T01:28:59Z</time>
      </trkpt>
      <trkpt lat="44.36989" lon="3.3995">
        <ele>929</ele>
        <time>2017-03-01T01:30:59Z</time>
      </trkpt>
      <trkpt lat="44.3698" lon="3.39945">
        <ele>929</ele>
        <time>2017-03-01T01:32:59Z</time>
      </trkpt>
      <trkpt lat="44.36972" lon="3.39937">
        <ele>929</ele>
        <time>2017-03-01T01:34:59Z</time>
      </trkpt>
      <trkpt lat="44.36965" lon="3.39933">
        <ele>929</ele>
        <time>2017-03-01T01:36:59Z</time>
      </trkpt>
      <trkpt lat="44.36957" lon="3.3993">
        <ele>929</ele>
        <time>2017-03-01T01:38:59Z</time>
      </trkpt>
      <trkpt lat="44.36948" lon="3.39925">
        <ele>929</ele>
        <time>2017-03-01T01:40:59Z</time>
      </trkpt>
      <trkpt lat="44.36925" lon="3.3991">
        <ele>928</ele>
        <time>2017-03-01T01:42:59Z</time>
      </trkpt>
      <trkpt lat="44.3691" lon="3.39903">
        <ele>928</ele>
        <time>2017-03-01T01:44:59Z</time>
      </trkpt>
      <trkpt lat="44.36895" lon="3.39894">
        <ele>928</ele>
        <time>2017-03-01T01:46:59Z</time>
      </trkpt>
      <trkpt lat="44.36878" lon="3.39882">
        <ele>929</ele>
        <time>2017-03-01T01:48:59Z</time>
      </trkpt>
      <trkpt lat="44.36863" lon="3.39869">
        <ele>929</ele>
        <time>2017-03-01T01:50:59Z</time>
      </trkpt>
      <trkpt lat="44.36849" lon="3.39854">
        <ele>930</ele>
        <time>2017-03-01T01:52:59Z</time>
      </trkpt>
      <trkpt lat="44.36821" lon="3.39826">
        <ele>933</ele>
        <time>2017-03-01T01:54:59Z</time>
      </trkpt>
      <trkpt lat="44.36812" lon="3.39818">
        <ele>933</ele>
        <time>2017-03-01T01:56:59Z</time>
      </trkpt>
      <trkpt lat="44.36801" lon="3.39812">
        <ele>934</ele>
        <time>2017-03-01T01:58:59Z</time>
      </trkpt>
      <trkpt lat="44.36788" lon="3.39806">
        <ele>935</ele>
        <time>2017-03-01T02:00:59Z</time>
      </trkpt>
      <trkpt lat="44.36781" lon="3.398">
        <ele>936</ele>
        <time>2017-03-01T02:02:59Z</time>
      </trkpt>
      <trkpt lat="44.36776" lon="3.39794">
        <ele>936</ele>
        <time>2017-03-01T02:04:59Z</time>
      </trkpt>
      <trkpt lat="44.36773" lon="3.39787">
        <ele>937</ele>
        <time>2017-03-01T02:06:59Z</time>
      </trkpt>
      <trkpt lat="44.3677" lon="3.39776">
        <ele>937</ele>
        <time>2017-03-01T02:08:59Z</time>
      </trkpt>
      <trkpt lat="44.36768" lon="3.39763">
        <ele>938</ele>
        <time>2017-03-01T02:10:59Z</time>
      </trkpt>
      <trkpt lat="44.36765" lon="3.39754">
        <ele>939</ele>
        <time>2017-03-01T02:12:59Z</time>
      </trkpt>
      <trkpt lat="44.36754" lon="3.39736">
        <ele>939</ele>
        <time>2017-03-01T02:14:59Z</time>
      </trkpt>
      <trkpt lat="44.36747" lon="3.39728">
        <ele>939</ele>
        <time>2017-03-01T02:16:59Z</time>
      </trkpt>
      <trkpt lat="44.36738" lon="3.3972">
        <ele>938</ele>
        <time>2017-03-01T02:18:59Z</time>
      </trkpt>
      <trkpt lat="44.36727" lon="3.39715">
        <ele>938</ele>
        <time>2017-03-01T02:20:59Z</time>
      </trkpt>
      <trkpt lat="44.3672" lon="3.39714">
        <ele>938</ele>
        <time>2017-03-01T02:22:59Z</time>
      </trkpt>
      <trkpt lat="44.36706" lon="3.39715">
        <ele>937</ele>
        <time>2017-03-01T02:24:59Z</time>
      </trkpt>
      <trkpt lat="44.36688" lon="3.39719">
        <ele>937</ele>
        <time>2017-03-01T02:26:59Z</time>
      </trkpt>
      <trkpt lat="44.36658" lon="3.39732">
        <ele>936</ele>
        <time>2017-03-01T02:28:59Z</time>
      </trkpt>
      <trkpt lat="44.36624" lon="3.39752">
        <ele>932</ele>
        <time>2017-03-01T02:30:59Z</time>
      </trkpt>
      <trkpt lat="44.36601" lon="3.39767">
        <ele>930</ele>
        <time>2017-03-01T02:32:59Z</time>
      </trkpt>
      <trkpt lat="44.36577" lon="3.39784">
        <ele>928</ele>
        <time>2017-03-01T02:34:59Z</time>
      </trkpt>
      <trkpt lat="44.36554" lon="3.39797">
        <ele>926</ele>
        <time>2017-03-01T02:36:59Z</time>
      </trkpt>
      <trkpt lat="44.36511" lon="3.39823">
        <ele>922</ele>
        <time>2017-03-01T02:38:59Z</time>
      </trkpt>
      <trkpt lat="44.3649" lon="3.39837">
        <ele>920</ele>
        <time>2017-03-01T02:40:59Z</time>
      </trkpt>
      <trkpt lat="44.36448" lon="3.39867">
        <ele>915</ele>
        <time>2017-03-01T02:42:59Z</time>
      </trkpt>
      <trkpt lat="44.36428" lon="3.39879">
        <ele>913</ele>
        <time>2017-03-01T02:44:59Z</time>
      </trkpt>
      <trkpt lat="44.36404" lon="3.39889">
        <ele>911</ele>
        <time>2017-03-01T02:46:59Z</time>
      </trkpt>
      <trkpt lat="44.36383" lon="3.39893">
        <ele>910</ele>
        <time>2017-03-01T02:48:59Z</time>
      </trkpt>
      <trkpt lat="44.3636" lon="3.39893">
        <ele>908</ele>
        <time>2017-03-01T02:50:59Z</time>
      </trkpt>
      <trkpt lat="44.36332" lon="3.3989">
        <ele>905</ele>
        <time>2017-03-01T02:52:59Z</time>
      </trkpt>
      <trkpt lat="44.36316" lon="3.39886">
        <ele>904</ele>
        <time>2017-03-01T02:54:59Z</time>
      </trkpt>
      <trkpt lat="44.363" lon="3.39881">
        <ele>902</ele>
        <time>2017-03-01T02:56:59Z</time>
      </trkpt>
      <trkpt lat="44.36297" lon="3.39879">
        <ele>902</ele>
        <time>2017-03-01T02:58:59Z</time>
      </trkpt>
      <trkpt lat="44.3628" lon="3.39871">
        <ele>900</ele>
        <time>2017-03-01T03:00:59Z</time>
      </trkpt>
      <trkpt lat="44.36266" lon="3.39865">
        <ele>898</ele>
        <time>2017-03-01T03:02:59Z</time>
      </trkpt>
      <trkpt lat="44.36256" lon="3.39862">
        <ele>897</ele>
        <time>2017-03-01T03:04:59Z</time>
      </trkpt>
      <trkpt lat="44.36236" lon="3.39861">
        <ele>896</ele>
        <time>2017-03-01T03:06:59Z</time>
      </trkpt>
      <trkpt lat="44.36217" lon="3.39861">
        <ele>894</ele>
        <time>2017-03-01T03:08:59Z</time>
      </trkpt>
      <trkpt lat="44.36195" lon="3.39858">
        <ele>892</ele>
        <time>2017-03-01T03:10:59Z</time>
      </trkpt>
      <trkpt lat="44.36173" lon="3.39853">
        <ele>889</ele>
        <time>2017-03-01T03:12:59Z</time>
      </trkpt>
      <trkpt lat="44.36157" lon="3.39851">
        <ele>888</ele>
        <time>2017-03-01T03:14:59Z</time>
      </trkpt>
      <trkpt lat="44.36142" lon="3.39851">
        <ele>887</ele>
        <time>2017-03-01T03:16:59Z</time>
      </trkpt>
      <trkpt lat="44.36129" lon="3.39853">
        <ele>886</ele>
        <time>2017-03-01T03:18:59Z</time>
      </trkpt>
      <trkpt lat="44.36115" lon="3.39857">
        <ele>884</ele>
        <time>2017-03-01T03:20:59Z</time>
      </trkpt>
      <trkpt lat="44.36103" lon="3.39862">
        <ele>883</ele>
        <time>2017-03-01T03:22:59Z</time>
      </trkpt>
      <trkpt lat="44.36095" lon="3.39867">
        <ele>883</ele>
        <time>2017-03-01T03:24:59Z</time>
      </trkpt>
      <trkpt lat="44.36086" lon="3.39869">
        <ele>882</ele>
        <time>2017-03-01T03:26:59Z</time>
      </trkpt>
      <trkpt lat="44.36079" lon="3.39869">
        <ele>881</ele>
        <time>2017-03-01T03:28:59Z</time>
      </trkpt>
      <trkpt lat="44.36073" lon="3.39867">
        <ele>880</ele>
        <time>2017-03-01T03:30:59Z</time>
      </trkpt>
      <trkpt lat="44.36067" lon="3.39861">
        <ele>879</ele>
        <time>2017-03-01T03:32:59Z</time>
      </trkpt>
      <trkpt lat="44.36061" lon="3.39853">
        <ele>878</ele>
        <time>2017-03-01T03:34:59Z</time>
      </trkpt>
      <trkpt lat="44.36032" lon="3.398">
        <ele>875</ele>
        <time>2017-03-01T03:36:59Z</time>
      </trkpt>
      <trkpt lat="44.36018" lon="3.39773">
        <ele>873</ele>
        <time>2017-03-01T03:38:59Z</time>
      </trkpt>
      <trkpt lat="44.36011" lon="3.39759">
        <ele>873</ele>
        <time>2017-03-01T03:40:59Z</time>
      </trkpt>
      <trkpt lat="44.36009" lon="3.39751">
        <ele>873</ele>
        <time>2017-03-01T03:42:59Z</time>
      </trkpt>
      <trkpt lat="44.36008" lon="3.39743">
        <ele>872</ele>
        <time>2017-03-01T03:44:59Z</time>
      </trkpt>
      <trkpt lat="44.3601" lon="3.39728">
        <ele>871</ele>
        <time>2017-03-01T03:46:59Z</time>
      </trkpt>
      <trkpt lat="44.36014" lon="3.39721">
        <ele>871</ele>
        <time>2017-03-01T03:48:59Z</time>
      </trkpt>
      <trkpt lat="44.36018" lon="3.39716">
        <ele>870</ele>
        <time>2017-03-01T03:50:59Z</time>
      </trkpt>
      <trkpt lat="44.36023" lon="3.39712">
        <ele>870</ele>
        <time>2017-03-01T03:52:59Z</time>
      </trkpt>
      <trkpt lat="44.36048" lon="3.39696">
        <ele>869</ele>
        <time>2017-03-01T03:54:59Z</time>
      </trkpt>
      <trkpt lat="44.36061" lon="3.39687">
        <ele>869</ele>
        <time>2017-03-01T03:56:59Z</time>
      </trkpt>
      <trkpt lat="44.36075" lon="3.39676">
        <ele>868</ele>
        <time>2017-03-01T03:58:59Z</time>
      </trkpt>
      <trkpt lat="44.36087" lon="3.39665">
        <ele>867</ele>
        <time>2017-03-01T04:00:59Z</time>
      </trkpt>
      <trkpt lat="44.36103" lon="3.39651">
        <ele>865</ele>
        <time>2017-03-01T04:02:59Z</time>
      </trkpt>
      <trkpt lat="44.36119" lon="3.39638">
        <ele>863</ele>
        <time>2017-03-01T04:04:59Z</time>
      </trkpt>
      <trkpt lat="44.36138" lon="3.39624">
        <ele>861</ele>
        <time>2017-03-01T04:06:59Z</time>
      </trkpt>
      <trkpt lat="44.36156" lon="3.39613">
        <ele>859</ele>
        <time>2017-03-01T04:08:59Z</time>
      </trkpt>
      <trkpt lat="44.36171" lon="3.39605">
        <ele>858</ele>
        <time>2017-03-01T04:10:59Z</time>
      </trkpt>
      <trkpt lat="44.36188" lon="3.39598">
        <ele>857</ele>
        <time>2017-03-01T04:12:59Z</time>
      </trkpt>
      <trkpt lat="44.36205" lon="3.39592">
        <ele>856</ele>
        <time>2017-03-01T04:14:59Z</time>
      </trkpt>
      <trkpt lat="44.36226" lon="3.39587">
        <ele>856</ele>
        <time>2017-03-01T04:16:59Z</time>
      </trkpt>
      <trkpt lat="44.36242" lon="3.39581">
        <ele>854</ele>
        <time>2017-03-01T04:18:59Z</time>
      </trkpt>
      <trkpt lat="44.36255" lon="3.39577">
        <ele>854</ele>
        <time>2017-03-01T04:20:59Z</time>
      </trkpt>
      <trkpt lat="44.36272" lon="3.39574">
        <ele>855</ele>
        <time>2017-03-01T04:22:59Z</time>
      </trkpt>
      <trkpt lat="44.36285" lon="3.3957">
        <ele>856</ele>
        <time>2017-03-01T04:24:59Z</time>
      </trkpt>
      <trkpt lat="44.36294" lon="3.39566">
        <ele>856</ele>
        <time>2017-03-01T04:26:59Z</time>
      </trkpt>
      <trkpt lat="44.36306" lon="3.39559">
        <ele>856</ele>
        <time>2017-03-01T04:28:59Z</time>
      </trkpt>
      <trkpt lat="44.36319" lon="3.3955">
        <ele>856</ele>
        <time>2017-03-01T04:30:59Z</time>
      </trkpt>
      <trkpt lat="44.36327" lon="3.39542">
        <ele>856</ele>
        <time>2017-03-01T04:32:59Z</time>
      </trkpt>
      <trkpt lat="44.36332" lon="3.39535">
        <ele>855</ele>
        <time>2017-03-01T04:34:59Z</time>
      </trkpt>
      <trkpt lat="44.36336" lon="3.39525">
        <ele>854</ele>
        <time>2017-03-01T04:36:59Z</time>
      </trkpt>
      <trkpt lat="44.36336" lon="3.39522">
        <ele>854</ele>
        <time>2017-03-01T04:38:59Z</time>
      </trkpt>
      <trkpt lat="44.36337" lon="3.39514">
        <ele>853</ele>
        <time>2017-03-01T04:40:59Z</time>
      </trkpt>
      <trkpt lat="44.36337" lon="3.39504">
        <ele>851</ele>
        <time>2017-03-01T04:42:59Z</time>
      </trkpt>
      <trkpt lat="44.36338" lon="3.39497">
        <ele>851</ele>
        <time>2017-03-01T04:44:59Z</time>
      </trkpt>
      <trkpt lat="44.36344" lon="3.39479">
        <ele>850</ele>
        <time>2017-03-01T04:46:59Z</time>
      </trkpt>
      <trkpt lat="44.3635" lon="3.39457">
        <ele>849</ele>
        <time>2017-03-01T04:48:59Z</time>
      </trkpt>
      <trkpt lat="44.36356" lon="3.39438">
        <ele>849</ele>
        <time>2017-03-01T04:50:59Z</time>
      </trkpt>
      <trkpt lat="44.36361" lon="3.39417">
        <ele>848</ele>
        <time>2017-03-01T04:52:59Z</time>
      </trkpt>
      <trkpt lat="44.3637" lon="3.39398">
        <ele>848</ele>
        <time>2017-03-01T04:54:59Z</time>
      </trkpt>
      <trkpt lat="44.3637" lon="3.39397">
        <ele>848</ele>
        <time>2017-03-01T04:56:59Z</time>
      </trkpt>
      <trkpt lat="44.36381" lon="3.39374">
        <ele>847</ele>
        <time>2017-03-01T04:58:59Z</time>
      </trkpt>
      <trkpt lat="44.36404" lon="3.39328">
        <ele>847</ele>
        <time>2017-03-01T05:00:59Z</time>
      </trkpt>
      <trkpt lat="44.36421" lon="3.393">
        <ele>845</ele>
        <time>2017-03-01T05:02:59Z</time>
      </trkpt>
      <trkpt lat="44.3643" lon="3.39287">
        <ele>844</ele>
        <time>2017-03-01T05:04:59Z</time>
      </trkpt>
      <trkpt lat="44.36443" lon="3.39269">
        <ele>843</ele>
        <time>2017-03-01T05:06:59Z</time>
      </trkpt>
      <trkpt lat="44.36458" lon="3.39245">
        <ele>841</ele>
        <time>2017-03-01T05:08:59Z</time>
      </trkpt>
      <trkpt lat="44.36474" lon="3.39221">
        <ele>839</ele>
        <time>2017-03-01T05:10:59Z</time>
      </trkpt>
      <trkpt lat="44.36486" lon="3.39201">
        <ele>837</ele>
        <time>2017-03-01T05:12:59Z</time>
      </trkpt>
      <trkpt lat="44.36498" lon="3.39177">
        <ele>835</ele>
        <time>2017-03-01T05:14:59Z</time>
      </trkpt>
      <trkpt lat="44.3651" lon="3.39152">
        <ele>832</ele>
        <time>2017-03-01T05:16:59Z</time>
      </trkpt>
      <trkpt lat="44.36521" lon="3.39126">
        <ele>828</ele>
        <time>2017-03-01T05:18:59Z</time>
      </trkpt>
      <trkpt lat="44.36527" lon="3.39113">
        <ele>826</ele>
        <time>2017-03-01T05:20:59Z</time>
      </trkpt>
      <trkpt lat="44.36531" lon="3.39105">
        <ele>825</ele>
        <time>2017-03-01T05:22:59Z</time>
      </trkpt>
      <trkpt lat="44.36545" lon="3.39086">
        <ele>823</ele>
        <time>2017-03-01T05:24:59Z</time>
      </trkpt>
      <trkpt lat="44.36566" lon="3.39063">
        <ele>821</ele>
        <time>2017-03-01T05:26:59Z</time>
      </trkpt>
      <trkpt lat="44.36604" lon="3.39027">
        <ele>815</ele>
        <time>2017-03-01T05:28:59Z</time>
      </trkpt>
      <trkpt lat="44.36614" lon="3.39019">
        <ele>814</ele>
        <time>2017-03-01T05:30:59Z</time>
      </trkpt>
      <trkpt lat="44.36625" lon="3.39009">
        <ele>811</ele>
        <time>2017-03-01T05:32:59Z</time>
      </trkpt>
      <trkpt lat="44.36635" lon="3.38999">
        <ele>810</ele>
        <time>2017-03-01T05:34:59Z</time>
      </trkpt>
      <trkpt lat="44.36647" lon="3.38986">
        <ele>808</ele>
        <time>2017-03-01T05:36:59Z</time>
      </trkpt>
      <trkpt lat="44.36684" lon="3.38958">
        <ele>803</ele>
        <time>2017-03-01T05:38:59Z</time>
      </trkpt>
      <trkpt lat="44.36697" lon="3.38947">
        <ele>801</ele>
        <time>2017-03-01T05:40:59Z</time>
      </trkpt>
      <trkpt lat="44.36742" lon="3.3891">
        <ele>796</ele>
        <time>2017-03-01T05:42:59Z</time>
      </trkpt>
      <trkpt lat="44.36754" lon="3.38903">
        <ele>797</ele>
        <time>2017-03-01T05:44:59Z</time>
      </trkpt>
      <trkpt lat="44.3676" lon="3.389">
        <ele>798</ele>
        <time>2017-03-01T05:46:59Z</time>
      </trkpt>
      <trkpt lat="44.36762" lon="3.38894">
        <ele>798</ele>
        <time>2017-03-01T05:48:59Z</time>
      </trkpt>
      <trkpt lat="44.36762" lon="3.3889">
        <ele>798</ele>
        <time>2017-03-01T05:50:59Z</time>
      </trkpt>
      <trkpt lat="44.3676" lon="3.38885">
        <ele>798</ele>
        <time>2017-03-01T05:52:59Z</time>
      </trkpt>
      <trkpt lat="44.36742" lon="3.3887">
        <ele>799</ele>
        <time>2017-03-01T05:54:59Z</time>
      </trkpt>
      <trkpt lat="44.3675" lon="3.38869">
        <ele>799</ele>
        <time>2017-03-01T05:56:59Z</time>
      </trkpt>
      <trkpt lat="44.36746" lon="3.38864">
        <ele>799</ele>
        <time>2017-03-01T05:58:59Z</time>
      </trkpt>
      <trkpt lat="44.36739" lon="3.3886">
        <ele>799</ele>
        <time>2017-03-01T06:00:59Z</time>
      </trkpt>
      <trkpt lat="44.36725" lon="3.38853">
        <ele>800</ele>
        <time>2017-03-01T06:02:59Z</time>
      </trkpt>
      <trkpt lat="44.3671" lon="3.38848">
        <ele>801</ele>
        <time>2017-03-01T06:04:59Z</time>
      </trkpt>
      <trkpt lat="44.36696" lon="3.38846">
        <ele>801</ele>
        <time>2017-03-01T06:06:59Z</time>
      </trkpt>
      <trkpt lat="44.36669" lon="3.38841">
        <ele>802</ele>
        <time>2017-03-01T06:08:59Z</time>
      </trkpt>
      <trkpt lat="44.36653" lon="3.38835">
        <ele>802</ele>
        <time>2017-03-01T06:10:59Z</time>
      </trkpt>
      <trkpt lat="44.36647" lon="3.38834">
        <ele>802</ele>
        <time>2017-03-01T06:12:59Z</time>
      </trkpt>
      <trkpt lat="44.36637" lon="3.38831">
        <ele>803</ele>
        <time>2017-03-01T06:14:59Z</time>
      </trkpt>
      <trkpt lat="44.36609" lon="3.38826">
        <ele>804</ele>
        <time>2017-03-01T06:16:59Z</time>
      </trkpt>
      <trkpt lat="44.36567" lon="3.3882">
        <ele>805</ele>
        <time>2017-03-01T06:18:59Z</time>
      </trkpt>
      <trkpt lat="44.36539" lon="3.38815">
        <ele>805</ele>
        <time>2017-03-01T06:20:59Z</time>
      </trkpt>
      <trkpt lat="44.36512" lon="3.38815">
        <ele>804</ele>
        <time>2017-03-01T06:22:59Z</time>
      </trkpt>
      <trkpt lat="44.36478" lon="3.38816">
        <ele>804</ele>
        <time>2017-03-01T06:24:59Z</time>
      </trkpt>
      <trkpt lat="44.36452" lon="3.38813">
        <ele>806</ele>
        <time>2017-03-01T06:26:59Z</time>
      </trkpt>
      <trkpt lat="44.36436" lon="3.38812">
        <ele>806</ele>
        <time>2017-03-01T06:28:59Z</time>
      </trkpt>
      <trkpt lat="44.36414" lon="3.38813">
        <ele>807</ele>
        <time>2017-03-01T06:30:59Z</time>
      </trkpt>
      <trkpt lat="44.36379" lon="3.38812">
        <ele>806</ele>
        <time>2017-03-01T06:32:59Z</time>
      </trkpt>
      <trkpt lat="44.36363" lon="3.38811">
        <ele>806</ele>
        <time>2017-03-01T06:34:59Z</time>
      </trkpt>
      <trkpt lat="44.36352" lon="3.3881">
        <ele>806</ele>
        <time>2017-03-01T06:36:59Z</time>
      </trkpt>
      <trkpt lat="44.36338" lon="3.38812">
        <ele>806</ele>
        <time>2017-03-01T06:38:59Z</time>
      </trkpt>
      <trkpt lat="44.36331" lon="3.38811">
        <ele>806</ele>
        <time>2017-03-01T06:40:59Z</time>
      </trkpt>
      <trkpt lat="44.36321" lon="3.38806">
        <ele>805</ele>
        <time>2017-03-01T06:42:59Z</time>
      </trkpt>
      <trkpt lat="44.36314" lon="3.38797">
        <ele>806</ele>
        <time>2017-03-01T06:44:59Z</time>
      </trkpt>
      <trkpt lat="44.36286" lon="3.38785">
        <ele>804</ele>
        <time>2017-03-01T06:46:59Z</time>
      </trkpt>
      <trkpt lat="44.36278" lon="3.38776">
        <ele>804</ele>
        <time>2017-03-01T06:48:59Z</time>
      </trkpt>
      <trkpt lat="44.36259" lon="3.38757">
        <ele>802</ele>
        <time>2017-03-01T06:50:59Z</time>
      </trkpt>
      <trkpt lat="44.36247" lon="3.38744">
        <ele>801</ele>
        <time>2017-03-01T06:52:59Z</time>
      </trkpt>
      <trkpt lat="44.36236" lon="3.3873">
        <ele>802</ele>
        <time>2017-03-01T06:54:59Z</time>
      </trkpt>
      <trkpt lat="44.36226" lon="3.38714">
        <ele>803</ele>
        <time>2017-03-01T06:56:59Z</time>
      </trkpt>
      <trkpt lat="44.36209" lon="3.38704">
        <ele>804</ele>
        <time>2017-03-01T06:58:59Z</time>
      </trkpt>
      <trkpt lat="44.36181" lon="3.387">
        <ele>806</ele>
        <time>2017-03-01T07:00:59Z</time>
      </trkpt>
      <trkpt lat="44.36164" lon="3.38692">
        <ele>807</ele>
        <time>2017-03-01T07:02:59Z</time>
      </trkpt>
      <trkpt lat="44.36146" lon="3.38673">
        <ele>810</ele>
        <time>2017-03-01T07:04:59Z</time>
      </trkpt>
      <trkpt lat="44.36124" lon="3.38648">
        <ele>812</ele>
        <time>2017-03-01T07:06:59Z</time>
      </trkpt>
      <trkpt lat="44.361" lon="3.38623">
        <ele>814</ele>
        <time>2017-03-01T07:08:59Z</time>
      </trkpt>
      <trkpt lat="44.36083" lon="3.38608">
        <ele>816</ele>
        <time>2017-03-01T07:10:59Z</time>
      </trkpt>
      <trkpt lat="44.36063" lon="3.38585">
        <ele>816</ele>
        <time>2017-03-01T07:12:59Z</time>
      </trkpt>
      <trkpt lat="44.36049" lon="3.38568">
        <ele>816</ele>
        <time>2017-03-01T07:14:59Z</time>
      </trkpt>
      <trkpt lat="44.36038" lon="3.3856">
        <ele>816</ele>
        <time>2017-03-01T07:16:59Z</time>
      </trkpt>
      <trkpt lat="44.36004" lon="3.38537">
        <ele>817</ele>
        <time>2017-03-01T07:18:59Z</time>
      </trkpt>
      <trkpt lat="44.35989" lon="3.38525">
        <ele>817</ele>
        <time>2017-03-01T07:20:59Z</time>
      </trkpt>
      <trkpt lat="44.35968" lon="3.38522">
        <ele>818</ele>
        <time>2017-03-01T07:22:59Z</time>
      </trkpt>
      <trkpt lat="44.35955" lon="3.38518">
        <ele>819</ele>
        <time>2017-03-01T07:24:59Z</time>
      </trkpt>
      <trkpt lat="44.35945" lon="3.38514">
        <ele>819</ele>
        <time>2017-03-01T07:26:59Z</time>
      </trkpt>
      <trkpt lat="44.35915" lon="3.38499">
        <ele>821</ele>
        <time>2017-03-01T07:28:59Z</time>
      </trkpt>
      <trkpt lat="44.35902" lon="3.38493">
        <ele>823</ele>
        <time>2017-03-01T07:30:59Z</time>
      </trkpt>
      <trkpt lat="44.35892" lon="3.38492">
        <ele>825</ele>
        <time>2017-03-01T07:32:59Z</time>
      </trkpt>
      <trkpt lat="44.35883" lon="3.3849">
        <ele>826</ele>
        <time>2017-03-01T07:34:59Z</time>
      </trkpt>
      <trkpt lat="44.35869" lon="3.38485">
        <ele>829</ele>
        <time>2017-03-01T07:36:59Z</time>
      </trkpt>
      <trkpt lat="44.35862" lon="3.38479">
        <ele>829</ele>
        <time>2017-03-01T07:38:59Z</time>
      </trkpt>
      <trkpt lat="44.35858" lon="3.38473">
        <ele>829</ele>
        <time>2017-03-01T07:40:59Z</time>
      </trkpt>
      <trkpt lat="44.35855" lon="3.38465">
        <ele>829</ele>
        <time>2017-03-01T07:42:59Z</time>
      </trkpt>
      <trkpt lat="44.35854" lon="3.38454">
        <ele>828</ele>
        <time>2017-03-01T07:44:59Z</time>
      </trkpt>
      <trkpt lat="44.35854" lon="3.3844">
        <ele>827</ele>
        <time>2017-03-01T07:46:59Z</time>
      </trkpt>
      <trkpt lat="44.35855" lon="3.38429">
        <ele>826</ele>
        <time>2017-03-01T07:48:59Z</time>
      </trkpt>
      <trkpt lat="44.35857" lon="3.38416">
        <ele>824</ele>
        <time>2017-03-01T07:50:59Z</time>
      </trkpt>
      <trkpt lat="44.35861" lon="3.38398">
        <ele>821</ele>
        <time>2017-03-01T07:52:59Z</time>
      </trkpt>
      <trkpt lat="44.35863" lon="3.38386">
        <ele>820</ele>
        <time>2017-03-01T07:54:59Z</time>
      </trkpt>
      <trkpt lat="44.35862" lon="3.38373">
        <ele>819</ele>
        <time>2017-03-01T07:56:59Z</time>
      </trkpt>
      <trkpt lat="44.35858" lon="3.38358">
        <ele>818</ele>
        <time>2017-03-01T07:58:59Z</time>
      </trkpt>
      <trkpt lat="44.35853" lon="3.38347">
        <ele>818</ele>
        <time>2017-03-01T08:00:59Z</time>
      </trkpt>
      <trkpt lat="44.35844" lon="3.38334">
        <ele>818</ele>
        <time>2017-03-01T08:02:59Z</time>
      </trkpt>
      <trkpt lat="44.35836" lon="3.38325">
        <ele>818</ele>
        <time>2017-03-01T08:04:59Z</time>
      </trkpt>
      <trkpt lat="44.35824" lon="3.38315">
        <ele>818</ele>
        <time>2017-03-01T08:06:59Z</time>
      </trkpt>
      <trkpt lat="44.35814" lon="3.38309">
        <ele>819</ele>
        <time>2017-03-01T08:08:59Z</time>
      </trkpt>
      <trkpt lat="44.35806" lon="3.38303">
        <ele>819</ele>
        <time>2017-03-01T08:10:59Z</time>
      </trkpt>
      <trkpt lat="44.35801" lon="3.38298">
        <ele>819</ele>
        <time>2017-03-01T08:12:59Z</time>
      </trkpt>
      <trkpt lat="44.35794" lon="3.3828">
        <ele>819</ele>
        <time>2017-03-01T08:14:59Z</time>
      </trkpt>
      <trkpt lat="44.35792" lon="3.3827">
        <ele>819</ele>
        <time>2017-03-01T08:16:59Z</time>
      </trkpt>
      <trkpt lat="44.35789" lon="3.38264">
        <ele>819</ele>
        <time>2017-03-01T08:18:59Z</time>
      </trkpt>
      <trkpt lat="44.35784" lon="3.38256">
        <ele>819</ele>
        <time>2017-03-01T08:20:59Z</time>
      </trkpt>
      <trkpt lat="44.35777" lon="3.38249">
        <ele>820</ele>
        <time>2017-03-01T08:22:59Z</time>
      </trkpt>
      <trkpt lat="44.35768" lon="3.38242">
        <ele>821</ele>
        <time>2017-03-01T08:24:59Z</time>
      </trkpt>
      <trkpt lat="44.35749" lon="3.3823">
        <ele>822</ele>
        <time>2017-03-01T08:26:59Z</time>
      </trkpt>
      <trkpt lat="44.35734" lon="3.38221">
        <ele>824</ele>
        <time>2017-03-01T08:28:59Z</time>
      </trkpt>
      <trkpt lat="44.35723" lon="3.38211">
        <ele>825</ele>
        <time>2017-03-01T08:30:59Z</time>
      </trkpt>
      <trkpt lat="44.35715" lon="3.38202">
        <ele>826</ele>
        <time>2017-03-01T08:32:59Z</time>
      </trkpt>
      <trkpt lat="44.35699" lon="3.38186">
        <ele>828</ele>
        <time>2017-03-01T08:34:59Z</time>
      </trkpt>
      <trkpt lat="44.3569" lon="3.38181">
        <ele>830</ele>
        <time>2017-03-01T08:36:59Z</time>
      </trkpt>
      <trkpt lat="44.35681" lon="3.38175">
        <ele>831</ele>
        <time>2017-03-01T08:38:59Z</time>
      </trkpt>
      <trkpt lat="44.35669" lon="3.38166">
        <ele>834</ele>
        <time>2017-03-01T08:40:59Z</time>
      </trkpt>
      <trkpt lat="44.35651" lon="3.38149">
        <ele>837</ele>
        <time>2017-03-01T08:42:59Z</time>
      </trkpt>
      <trkpt lat="44.35605" lon="3.38098">
        <ele>846</ele>
        <time>2017-03-01T08:44:59Z</time>
      </trkpt>
      <trkpt lat="44.3559" lon="3.38082">
        <ele>849</ele>
        <time>2017-03-01T08:46:59Z</time>
      </trkpt>
      <trkpt lat="44.35583" lon="3.38073">
        <ele>851</ele>
        <time>2017-03-01T08:48:59Z</time>
      </trkpt>
      <trkpt lat="44.35579" lon="3.38063">
        <ele>852</ele>
        <time>2017-03-01T08:50:59Z</time>
      </trkpt>
      <trkpt lat="44.35574" lon="3.38048">
        <ele>852</ele>
        <time>2017-03-01T08:52:59Z</time>
      </trkpt>
      <trkpt lat="44.35568" lon="3.38022">
        <ele>853</ele>
        <time>2017-03-01T08:54:59Z</time>
      </trkpt>
      <trkpt lat="44.35563" lon="3.37995">
        <ele>854</ele>
        <time>2017-03-01T08:56:59Z</time>
      </trkpt>
      <trkpt lat="44.3556" lon="3.37974">
        <ele>856</ele>
        <time>2017-03-01T08:58:59Z</time>
      </trkpt>
      <trkpt lat="44.3556" lon="3.37956">
        <ele>857</ele>
        <time>2017-03-01T09:00:59Z</time>
      </trkpt>
      <trkpt lat="44.35559" lon="3.37934">
        <ele>858</ele>
        <time>2017-03-01T09:02:59Z</time>
      </trkpt>
      <trkpt lat="44.35559" lon="3.37912">
        <ele>859</ele>
        <time>2017-03-01T09:04:59Z</time>
      </trkpt>
      <trkpt lat="44.35557" lon="3.37903">
        <ele>859</ele>
        <time>2017-03-01T09:06:59Z</time>
      </trkpt>
      <trkpt lat="44.35553" lon="3.37889">
        <ele>860</ele>
        <time>2017-03-01T09:08:59Z</time>
      </trkpt>
      <trkpt lat="44.35546" lon="3.37871">
        <ele>861</ele>
        <time>2017-03-01T09:10:59Z</time>
      </trkpt>
      <trkpt lat="44.35542" lon="3.37858">
        <ele>861</ele>
        <time>2017-03-01T09:12:59Z</time>
      </trkpt>
      <trkpt lat="44.35542" lon="3.37836">
        <ele>861</ele>
        <time>2017-03-01T09:14:59Z</time>
      </trkpt>
      <trkpt lat="44.35544" lon="3.37826">
        <ele>860</ele>
        <time>2017-03-01T09:16:59Z</time>
      </trkpt>
      <trkpt lat="44.35567" lon="3.37773">
        <ele>856</ele>
        <time>2017-03-01T09:18:59Z</time>
      </trkpt>
      <trkpt lat="44.35571" lon="3.3776">
        <ele>855</ele>
        <time>2017-03-01T09:20:59Z</time>
      </trkpt>
      <trkpt lat="44.35574" lon="3.37748">
        <ele>854</ele>
        <time>2017-03-01T09:22:59Z</time>
      </trkpt>
      <trkpt lat="44.35582" lon="3.37713">
        <ele>852</ele>
        <time>2017-03-01T09:24:59Z</time>
      </trkpt>
      <trkpt lat="44.35587" lon="3.37675">
        <ele>848</ele>
        <time>2017-03-01T09:26:59Z</time>
      </trkpt>
      <trkpt lat="44.35591" lon="3.37656">
        <ele>847</ele>
        <time>2017-03-01T09:28:59Z</time>
      </trkpt>
      <trkpt lat="44.35599" lon="3.37631">
        <ele>847</ele>
        <time>2017-03-01T09:30:59Z</time>
      </trkpt>
      <trkpt lat="44.35612" lon="3.37602">
        <ele>846</ele>
        <time>2017-03-01T09:32:59Z</time>
      </trkpt>
      <trkpt lat="44.35614" lon="3.37587">
        <ele>845</ele>
        <time>2017-03-01T09:34:59Z</time>
      </trkpt>
      <trkpt lat="44.35614" lon="3.3757">
        <ele>844</ele>
        <time>2017-03-01T09:36:59Z</time>
      </trkpt>
      <trkpt lat="44.35617" lon="3.37543">
        <ele>843</ele>
        <time>2017-03-01T09:38:59Z</time>
      </trkpt>
      <trkpt lat="44.35621" lon="3.37494">
        <ele>841</ele>
        <time>2017-03-01T09:40:59Z</time>
      </trkpt>
      <trkpt lat="44.35624" lon="3.37465">
        <ele>841</ele>
        <time>2017-03-01T09:42:59Z</time>
      </trkpt>
      <trkpt lat="44.35623" lon="3.37454">
        <ele>840</ele>
        <time>2017-03-01T09:44:59Z</time>
      </trkpt>
      <trkpt lat="44.35622" lon="3.37447">
        <ele>840</ele>
        <time>2017-03-01T09:46:59Z</time>
      </trkpt>
      <trkpt lat="44.35617" lon="3.37437">
        <ele>840</ele>
        <time>2017-03-01T09:48:59Z</time>
      </trkpt>
      <trkpt lat="44.35609" lon="3.37423">
        <ele>840</ele>
        <time>2017-03-01T09:50:59Z</time>
      </trkpt>
      <trkpt lat="44.35594" lon="3.37402">
        <ele>840</ele>
        <time>2017-03-01T09:52:59Z</time>
      </trkpt>
      <trkpt lat="44.35587" lon="3.37394">
        <ele>840</ele>
        <time>2017-03-01T09:54:59Z</time>
      </trkpt>
      <trkpt lat="44.3558" lon="3.37391">
        <ele>840</ele>
        <time>2017-03-01T09:56:59Z</time>
      </trkpt>
      <trkpt lat="44.35566" lon="3.37388">
        <ele>841</ele>
        <time>2017-03-01T09:58:59Z</time>
      </trkpt>
      <trkpt lat="44.35547" lon="3.37386">
        <ele>841</ele>
        <time>2017-03-01T10:00:59Z</time>
      </trkpt>
      <trkpt lat="44.35553" lon="3.37378">
        <ele>841</ele>
        <time>2017-03-01T10:02:59Z</time>
      </trkpt>
      <trkpt lat="44.35536" lon="3.37377">
        <ele>841</ele>
        <time>2017-03-01T10:04:59Z</time>
      </trkpt>
      <trkpt lat="44.35529" lon="3.37376">
        <ele>841</ele>
        <time>2017-03-01T10:06:59Z</time>
      </trkpt>
      <trkpt lat="44.35524" lon="3.37374">
        <ele>842</ele>
        <time>2017-03-01T10:08:59Z</time>
      </trkpt>
      <trkpt lat="44.35518" lon="3.37367">
        <ele>842</ele>
        <time>2017-03-01T10:10:59Z</time>
      </trkpt>
      <trkpt lat="44.3551" lon="3.3736">
        <ele>842</ele>
        <time>2017-03-01T10:12:59Z</time>
      </trkpt>
      <trkpt lat="44.35502" lon="3.37357">
        <ele>843</ele>
        <time>2017-03-01T10:14:59Z</time>
      </trkpt>
      <trkpt lat="44.35492" lon="3.37352">
        <ele>843</ele>
        <time>2017-03-01T10:16:59Z</time>
      </trkpt>
      <trkpt lat="44.35486" lon="3.37347">
        <ele>843</ele>
        <time>2017-03-01T10:18:59Z</time>
      </trkpt>
      <trkpt lat="44.35476" lon="3.37334">
        <ele>843</ele>
        <time>2017-03-01T10:20:59Z</time>
      </trkpt>
      <trkpt lat="44.35471" lon="3.37329">
        <ele>843</ele>
        <time>2017-03-01T10:22:59Z</time>
      </trkpt>
      <trkpt lat="44.35463" lon="3.37322">
        <ele>843</ele>
        <time>2017-03-01T10:24:59Z</time>
      </trkpt>
      <trkpt lat="44.35459" lon="3.37316">
        <ele>843</ele>
        <time>2017-03-01T10:26:59Z</time>
      </trkpt>
      <trkpt lat="44.35453" lon="3.37305">
        <ele>844</ele>
        <time>2017-03-01T10:28:59Z</time>
      </trkpt>
      <trkpt lat="44.35446" lon="3.37288">
        <ele>845</ele>
        <time>2017-03-01T10:30:59Z</time>
      </trkpt>
      <trkpt lat="44.35426" lon="3.37256">
        <ele>849</ele>
        <time>2017-03-01T10:32:59Z</time>
      </trkpt>
      <trkpt lat="44.35418" lon="3.37245">
        <ele>851</ele>
        <time>2017-03-01T10:34:59Z</time>
      </trkpt>
      <trkpt lat="44.35413" lon="3.37222">
        <ele>851</ele>
        <time>2017-03-01T10:36:59Z</time>
      </trkpt>
      <trkpt lat="44.3541" lon="3.37206">
        <ele>850</ele>
        <time>2017-03-01T10:38:59Z</time>
      </trkpt>
      <trkpt lat="44.35408" lon="3.37185">
        <ele>850</ele>
        <time>2017-03-01T10:40:59Z</time>
      </trkpt>
      <trkpt lat="44.35408" lon="3.37172">
        <ele>850</ele>
        <time>2017-03-01T10:42:59Z</time>
      </trkpt>
      <trkpt lat="44.3541" lon="3.37157">
        <ele>849</ele>
        <time>2017-03-01T10:44:59Z</time>
      </trkpt>
      <trkpt lat="44.35418" lon="3.37129">
        <ele>847</ele>
        <time>2017-03-01T10:46:59Z</time>
      </trkpt>
      <trkpt lat="44.3543" lon="3.37095">
        <ele>845</ele>
        <time>2017-03-01T10:48:59Z</time>
      </trkpt>
      <trkpt lat="44.35439" lon="3.37075">
        <ele>844</ele>
        <time>2017-03-01T10:50:59Z</time>
      </trkpt>
      <trkpt lat="44.35445" lon="3.37065">
        <ele>843</ele>
        <time>2017-03-01T10:52:59Z</time>
      </trkpt>
      <trkpt lat="44.35457" lon="3.37048">
        <ele>844</ele>
        <time>2017-03-01T10:54:59Z</time>
      </trkpt>
      <trkpt lat="44.35459" lon="3.37043">
        <ele>844</ele>
        <time>2017-03-01T10:56:59Z</time>
      </trkpt>
      <trkpt lat="44.35467" lon="3.37028">
        <ele>845</ele>
        <time>2017-03-01T10:58:59Z</time>
      </trkpt>
      <trkpt lat="44.3548" lon="3.37006">
        <ele>847</ele>
        <time>2017-03-01T11:00:59Z</time>
      </trkpt>
      <trkpt lat="44.35496" lon="3.36974">
        <ele>850</ele>
        <time>2017-03-01T11:02:59Z</time>
      </trkpt>
      <trkpt lat="44.35512" lon="3.36944">
        <ele>854</ele>
        <time>2017-03-01T11:04:59Z</time>
      </trkpt>
      <trkpt lat="44.35533" lon="3.36906">
        <ele>860</ele>
        <time>2017-03-01T11:06:59Z</time>
      </trkpt>
      <trkpt lat="44.35542" lon="3.36888">
        <ele>864</ele>
        <time>2017-03-01T11:08:59Z</time>
      </trkpt>
      <trkpt lat="44.35548" lon="3.36877">
        <ele>866</ele>
        <time>2017-03-01T11:10:59Z</time>
      </trkpt>
      <trkpt lat="44.3555" lon="3.36871">
        <ele>866</ele>
        <time>2017-03-01T11:12:59Z</time>
      </trkpt>
      <trkpt lat="44.3555" lon="3.36864">
        <ele>867</ele>
        <time>2017-03-01T11:14:59Z</time>
      </trkpt>
      <trkpt lat="44.35549" lon="3.36858">
        <ele>867</ele>
        <time>2017-03-01T11:16:59Z</time>
      </trkpt>
      <trkpt lat="44.35548" lon="3.36855">
        <ele>866</ele>
        <time>2017-03-01T11:18:59Z</time>
      </trkpt>
      <trkpt lat="44.35539" lon="3.36837">
        <ele>865</ele>
        <time>2017-03-01T11:20:59Z</time>
      </trkpt>
      <trkpt lat="44.35534" lon="3.36825">
        <ele>864</ele>
        <time>2017-03-01T11:22:59Z</time>
      </trkpt>
      <trkpt lat="44.35531" lon="3.36816">
        <ele>863</ele>
        <time>2017-03-01T11:24:59Z</time>
      </trkpt>
      <trkpt lat="44.35529" lon="3.36804">
        <ele>863</ele>
        <time>2017-03-01T11:26:59Z</time>
      </trkpt>
      <trkpt lat="44.35528" lon="3.36794">
        <ele>863</ele>
        <time>2017-03-01T11:28:59Z</time>
      </trkpt>
      <trkpt lat="44.35526" lon="3.36789">
        <ele>862</ele>
        <time>2017-03-01T11:30:59Z</time>
      </trkpt>
      <trkpt lat="44.35523" lon="3.36785">
        <ele>862</ele>
        <time>2017-03-01T11:32:59Z</time>
      </trkpt>
      <trkpt lat="44.35516" lon="3.36782">
        <ele>860</ele>
        <time>2017-03-01T11:34:59Z</time>
      </trkpt>
      <trkpt lat="44.35506" lon="3.36782">
        <ele>857</ele>
        <time>2017-03-01T11:36:59Z</time>
      </trkpt>
      <trkpt lat="44.35479" lon="3.36789">
        <ele>856</ele>
        <time>2017-03-01T11:38:59Z</time>
      </trkpt>
      <trkpt lat="44.35472" lon="3.36789">
        <ele>856</ele>
        <time>2017-03-01T11:40:59Z</time>
      </trkpt>
      <trkpt lat="44.35466" lon="3.36788">
        <ele>856</ele>
        <time>2017-03-01T11:42:59Z</time>
      </trkpt>
      <trkpt lat="44.35461" lon="3.36786">
        <ele>856</ele>
        <time>2017-03-01T11:44:59Z</time>
      </trkpt>
      <trkpt lat="44.35453" lon="3.36781">
        <ele>857</ele>
        <time>2017-03-01T11:46:59Z</time>
      </trkpt>
      <trkpt lat="44.35437" lon="3.36769">
        <ele>858</ele>
        <time>2017-03-01T11:48:59Z</time>
      </trkpt>
      <trkpt lat="44.35432" lon="3.36763">
        <ele>859</ele>
        <time>2017-03-01T11:50:59Z</time>
      </trkpt>
      <trkpt lat="44.35428" lon="3.36755">
        <ele>860</ele>
        <time>2017-03-01T11:52:59Z</time>
      </trkpt>
      <trkpt lat="44.35424" lon="3.36745">
        <ele>860</ele>
        <time>2017-03-01T11:54:59Z</time>
      </trkpt>
      <trkpt lat="44.35416" lon="3.36728">
        <ele>861</ele>
        <time>2017-03-01T11:56:59Z</time>
      </trkpt>
      <trkpt lat="44.35409" lon="3.36716">
        <ele>861</ele>
        <time>2017-03-01T11:58:59Z</time>
      </trkpt>
      <trkpt lat="44.35397" lon="3.3669">
        <ele>862</ele>
        <time>2017-03-01T12:00:59Z</time>
      </trkpt>
      <trkpt lat="44.35392" lon="3.36675">
        <ele>863</ele>
        <time>2017-03-01T12:02:59Z</time>
      </trkpt>
      <trkpt lat="44.3539" lon="3.36662">
        <ele>863</ele>
        <time>2017-03-01T12:04:59Z</time>
      </trkpt>
      <trkpt lat="44.35389" lon="3.36651">
        <ele>863</ele>
        <time>2017-03-01T12:06:59Z</time>
      </trkpt>
      <trkpt lat="44.3539" lon="3.3664">
        <ele>862</ele>
        <time>2017-03-01T12:08:59Z</time>
      </trkpt>
      <trkpt lat="44.35392" lon="3.36629">
        <ele>861</ele>
        <time>2017-03-01T12:10:59Z</time>
      </trkpt>
      <trkpt lat="44.35396" lon="3.36612">
        <ele>860</ele>
        <time>2017-03-01T12:12:59Z</time>
      </trkpt>
      <trkpt lat="44.35401" lon="3.36584">
        <ele>858</ele>
        <time>2017-03-01T12:14:59Z</time>
      </trkpt>
      <trkpt lat="44.35409" lon="3.36549">
        <ele>858</ele>
        <time>2017-03-01T12:16:59Z</time>
      </trkpt>
      <trkpt lat="44.3541" lon="3.36539">
        <ele>858</ele>
        <time>2017-03-01T12:18:59Z</time>
      </trkpt>
      <trkpt lat="44.3541" lon="3.36528">
        <ele>858</ele>
        <time>2017-03-01T12:20:59Z</time>
      </trkpt>
      <trkpt lat="44.35409" lon="3.36512">
        <ele>858</ele>
        <time>2017-03-01T12:22:59Z</time>
      </trkpt>
      <trkpt lat="44.35406" lon="3.36477">
        <ele>858</ele>
        <time>2017-03-01T12:24:59Z</time>
      </trkpt>
      <trkpt lat="44.35403" lon="3.36469">
        <ele>857</ele>
        <time>2017-03-01T12:26:59Z</time>
      </trkpt>
      <trkpt lat="44.35399" lon="3.36464">
        <ele>857</ele>
        <time>2017-03-01T12:28:59Z</time>
      </trkpt>
      <trkpt lat="44.35392" lon="3.36458">
        <ele>857</ele>
        <time>2017-03-01T12:30:59Z</time>
      </trkpt>
      <trkpt lat="44.35383" lon="3.36454">
        <ele>857</ele>
        <time>2017-03-01T12:32:59Z</time>
      </trkpt>
      <trkpt lat="44.35373" lon="3.36445">
        <ele>856</ele>
        <time>2017-03-01T12:34:59Z</time>
      </trkpt>
      <trkpt lat="44.35362" lon="3.36432">
        <ele>855</ele>
        <time>2017-03-01T12:36:59Z</time>
      </trkpt>
      <trkpt lat="44.3535" lon="3.36412">
        <ele>853</ele>
        <time>2017-03-01T12:38:59Z</time>
      </trkpt>
      <trkpt lat="44.35337" lon="3.36391">
        <ele>851</ele>
        <time>2017-03-01T12:40:59Z</time>
      </trkpt>
      <trkpt lat="44.35325" lon="3.36374">
        <ele>849</ele>
        <time>2017-03-01T12:42:59Z</time>
      </trkpt>
      <trkpt lat="44.35308" lon="3.36355">
        <ele>846</ele>
        <time>2017-03-01T12:44:59Z</time>
      </trkpt>
      <trkpt lat="44.35299" lon="3.36342">
        <ele>844</ele>
        <time>2017-03-01T12:46:59Z</time>
      </trkpt>
      <trkpt lat="44.35285" lon="3.36331">
        <ele>842</ele>
        <time>2017-03-01T12:48:59Z</time>
      </trkpt>
      <trkpt lat="44.35277" lon="3.36324">
        <ele>841</ele>
        <time>2017-03-01T12:50:59Z</time>
      </trkpt>
      <trkpt lat="44.35263" lon="3.36315">
        <ele>839</ele>
        <time>2017-03-01T12:52:59Z</time>
      </trkpt>
      <trkpt lat="44.35256" lon="3.36306">
        <ele>838</ele>
        <time>2017-03-01T12:54:59Z</time>
      </trkpt>
      <trkpt lat="44.35249" lon="3.36296">
        <ele>836</ele>
        <time>2017-03-01T12:56:59Z</time>
      </trkpt>
      <trkpt lat="44.3524" lon="3.36288">
        <ele>835</ele>
        <time>2017-03-01T12:58:59Z</time>
      </trkpt>
      <trkpt lat="44.35221" lon="3.36274">
        <ele>834</ele>
        <time>2017-03-01T13:00:59Z</time>
      </trkpt>
      <trkpt lat="44.35205" lon="3.36258">
        <ele>832</ele>
        <time>2017-03-01T13:02:59Z</time>
      </trkpt>
      <trkpt lat="44.35192" lon="3.36241">
        <ele>831</ele>
        <time>2017-03-01T13:04:59Z</time>
      </trkpt>
      <trkpt lat="44.35184" lon="3.36234">
        <ele>830</ele>
        <time>2017-03-01T13:06:59Z</time>
      </trkpt>
      <trkpt lat="44.35177" lon="3.36229">
        <ele>829</ele>
        <time>2017-03-01T13:08:59Z</time>
      </trkpt>
      <trkpt lat="44.35166" lon="3.36225">
        <ele>828</ele>
        <time>2017-03-01T13:10:59Z</time>
      </trkpt>
      <trkpt lat="44.35157" lon="3.36223">
        <ele>828</ele>
        <time>2017-03-01T13:12:59Z</time>
      </trkpt>
      <trkpt lat="44.35147" lon="3.36225">
        <ele>827</ele>
        <time>2017-03-01T13:14:59Z</time>
      </trkpt>
      <trkpt lat="44.35134" lon="3.36231">
        <ele>827</ele>
        <time>2017-03-01T13:16:59Z</time>
      </trkpt>
      <trkpt lat="44.35122" lon="3.36241">
        <ele>827</ele>
        <time>2017-03-01T13:18:59Z</time>
      </trkpt>
      <trkpt lat="44.35113" lon="3.36251">
        <ele>827</ele>
        <time>2017-03-01T13:20:59Z</time>
      </trkpt>
      <trkpt lat="44.35086" lon="3.36288">
        <ele>828</ele>
        <time>2017-03-01T13:22:59Z</time>
      </trkpt>
      <trkpt lat="44.35081" lon="3.36293">
        <ele>829</ele>
        <time>2017-03-01T13:24:59Z</time>
      </trkpt>
      <trkpt lat="44.3507" lon="3.36299">
        <ele>829</ele>
        <time>2017-03-01T13:26:59Z</time>
      </trkpt>
      <trkpt lat="44.35048" lon="3.36306">
        <ele>828</ele>
        <time>2017-03-01T13:28:59Z</time>
      </trkpt>
      <trkpt lat="44.35031" lon="3.36309">
        <ele>828</ele>
        <time>2017-03-01T13:30:59Z</time>
      </trkpt>
      <trkpt lat="44.35023" lon="3.36309">
        <ele>828</ele>
        <time>2017-03-01T13:32:59Z</time>
      </trkpt>
      <trkpt lat="44.35019" lon="3.36306">
        <ele>827</ele>
        <time>2017-03-01T13:34:59Z</time>
      </trkpt>
      <trkpt lat="44.35014" lon="3.363">
        <ele>826</ele>
        <time>2017-03-01T13:36:59Z</time>
      </trkpt>
      <trkpt lat="44.35012" lon="3.36292">
        <ele>826</ele>
        <time>2017-03-01T13:38:59Z</time>
      </trkpt>
      <trkpt lat="44.3501" lon="3.36278">
        <ele>824</ele>
        <time>2017-03-01T13:40:59Z</time>
      </trkpt>
      <trkpt lat="44.35009" lon="3.36274">
        <ele>824</ele>
        <time>2017-03-01T13:42:59Z</time>
      </trkpt>
      <trkpt lat="44.35012" lon="3.36209">
        <ele>818</ele>
        <time>2017-03-01T13:44:59Z</time>
      </trkpt>
      <trkpt lat="44.35012" lon="3.36184">
        <ele>816</ele>
        <time>2017-03-01T13:46:59Z</time>
      </trkpt>
      <trkpt lat="44.35011" lon="3.3618">
        <ele>815</ele>
        <time>2017-03-01T13:48:59Z</time>
      </trkpt>
      <trkpt lat="44.35013" lon="3.36176">
        <ele>815</ele>
        <time>2017-03-01T13:50:59Z</time>
      </trkpt>
      <trkpt lat="44.3502" lon="3.36159">
        <ele>814</ele>
        <time>2017-03-01T13:52:59Z</time>
      </trkpt>
      <trkpt lat="44.35028" lon="3.3613">
        <ele>814</ele>
        <time>2017-03-01T13:54:59Z</time>
      </trkpt>
      <trkpt lat="44.35037" lon="3.36092">
        <ele>813</ele>
        <time>2017-03-01T13:56:59Z</time>
      </trkpt>
      <trkpt lat="44.35044" lon="3.36066">
        <ele>813</ele>
        <time>2017-03-01T13:58:59Z</time>
      </trkpt>
      <trkpt lat="44.3505" lon="3.36042">
        <ele>814</ele>
        <time>2017-03-01T14:00:59Z</time>
      </trkpt>
      <trkpt lat="44.35056" lon="3.36021">
        <ele>815</ele>
        <time>2017-03-01T14:02:59Z</time>
      </trkpt>
      <trkpt lat="44.35063" lon="3.36002">
        <ele>815</ele>
        <time>2017-03-01T14:04:59Z</time>
      </trkpt>
      <trkpt lat="44.3507" lon="3.35988">
        <ele>816</ele>
        <time>2017-03-01T14:06:59Z</time>
      </trkpt>
      <trkpt lat="44.35092" lon="3.3595">
        <ele>818</ele>
        <time>2017-03-01T14:08:59Z</time>
      </trkpt>
      <trkpt lat="44.35057" lon="3.35939">
        <ele>818</ele>
        <time>2017-03-01T14:10:59Z</time>
      </trkpt>
      <trkpt lat="44.35027" lon="3.35932">
        <ele>819</ele>
        <time>2017-03-01T14:12:59Z</time>
      </trkpt>
      <trkpt lat="44.35017" lon="3.35926">
        <ele>820</ele>
        <time>2017-03-01T14:14:59Z</time>
      </trkpt>
      <trkpt lat="44.35012" lon="3.35921">
        <ele>821</ele>
        <time>2017-03-01T14:16:59Z</time>
      </trkpt>
      <trkpt lat="44.35003" lon="3.35909">
        <ele>822</ele>
        <time>2017-03-01T14:18:59Z</time>
      </trkpt>
      <trkpt lat="44.34994" lon="3.35894">
        <ele>823</ele>
        <time>2017-03-01T14:20:59Z</time>
      </trkpt>
      <trkpt lat="44.34985" lon="3.35882">
        <ele>822</ele>
        <time>2017-03-01T14:22:59Z</time>
      </trkpt>
      <trkpt lat="44.34974" lon="3.3587">
        <ele>822</ele>
        <time>2017-03-01T14:24:59Z</time>
      </trkpt>
      <trkpt lat="44.34962" lon="3.35858">
        <ele>821</ele>
        <time>2017-03-01T14:26:59Z</time>
      </trkpt>
      <trkpt lat="44.34952" lon="3.35842">
        <ele>822</ele>
        <time>2017-03-01T14:28:59Z</time>
      </trkpt>
      <trkpt lat="44.3494" lon="3.35827">
        <ele>821</ele>
        <time>2017-03-01T14:30:59Z</time>
      </trkpt>
      <trkpt lat="44.3493" lon="3.35818">
        <ele>820</ele>
        <time>2017-03-01T14:32:59Z</time>
      </trkpt>
      <trkpt lat="44.34912" lon="3.35803">
        <ele>818</ele>
        <time>2017-03-01T14:34:59Z</time>
      </trkpt>
      <trkpt lat="44.3491" lon="3.35803">
        <ele>818</ele>
        <time>2017-03-01T14:36:59Z</time>
      </trkpt>
      <trkpt lat="44.34901" lon="3.358">
        <ele>818</ele>
        <time>2017-03-01T14:38:59Z</time>
      </trkpt>
      <trkpt lat="44.34891" lon="3.358">
        <ele>817</ele>
        <time>2017-03-01T14:40:59Z</time>
      </trkpt>
      <trkpt lat="44.34883" lon="3.35803">
        <ele>816</ele>
        <time>2017-03-01T14:42:59Z</time>
      </trkpt>
      <trkpt lat="44.34876" lon="3.35807">
        <ele>816</ele>
        <time>2017-03-01T14:44:59Z</time>
      </trkpt>
      <trkpt lat="44.34846" lon="3.35831">
        <ele>815</ele>
        <time>2017-03-01T14:46:59Z</time>
      </trkpt>
      <trkpt lat="44.34837" lon="3.3584">
        <ele>814</ele>
        <time>2017-03-01T14:48:59Z</time>
      </trkpt>
      <trkpt lat="44.34828" lon="3.35844">
        <ele>812</ele>
        <time>2017-03-01T14:50:59Z</time>
      </trkpt>
      <trkpt lat="44.34813" lon="3.35848">
        <ele>810</ele>
        <time>2017-03-01T14:52:59Z</time>
      </trkpt>
      <trkpt lat="44.34797" lon="3.35851">
        <ele>809</ele>
        <time>2017-03-01T14:54:59Z</time>
      </trkpt>
      <trkpt lat="44.34785" lon="3.35851">
        <ele>807</ele>
        <time>2017-03-01T14:56:59Z</time>
      </trkpt>
      <trkpt lat="44.34773" lon="3.35846">
        <ele>807</ele>
        <time>2017-03-01T14:58:59Z</time>
      </trkpt>
      <trkpt lat="44.34731" lon="3.3582">
        <ele>804</ele>
        <time>2017-03-01T15:00:59Z</time>
      </trkpt>
      <trkpt lat="44.34686" lon="3.35794">
        <ele>798</ele>
        <time>2017-03-01T15:02:59Z</time>
      </trkpt>
      <trkpt lat="44.34672" lon="3.35789">
        <ele>796</ele>
        <time>2017-03-01T15:04:59Z</time>
      </trkpt>
      <trkpt lat="44.34661" lon="3.35784">
        <ele>795</ele>
        <time>2017-03-01T15:06:59Z</time>
      </trkpt>
      <trkpt lat="44.34654" lon="3.35779">
        <ele>795</ele>
        <time>2017-03-01T15:08:59Z</time>
      </trkpt>
      <trkpt lat="44.34647" lon="3.35772">
        <ele>794</ele>
        <time>2017-03-01T15:10:59Z</time>
      </trkpt>
      <trkpt lat="44.34644" lon="3.35768">
        <ele>794</ele>
        <time>2017-03-01T15:12:59Z</time>
      </trkpt>
      <trkpt lat="44.34641" lon="3.3576">
        <ele>794</ele>
        <time>2017-03-01T15:14:59Z</time>
      </trkpt>
      <trkpt lat="44.34638" lon="3.3575">
        <ele>794</ele>
        <time>2017-03-01T15:16:59Z</time>
      </trkpt>
      <trkpt lat="44.34638" lon="3.35741">
        <ele>794</ele>
        <time>2017-03-01T15:18:59Z</time>
      </trkpt>
      <trkpt lat="44.34639" lon="3.3573">
        <ele>795</ele>
        <time>2017-03-01T15:20:59Z</time>
      </trkpt>
      <trkpt lat="44.34642" lon="3.35721">
        <ele>795</ele>
        <time>2017-03-01T15:22:59Z</time>
      </trkpt>
      <trkpt lat="44.34644" lon="3.35712">
        <ele>796</ele>
        <time>2017-03-01T15:24:59Z</time>
      </trkpt>
      <trkpt lat="44.34644" lon="3.35698">
        <ele>796</ele>
        <time>2017-03-01T15:26:59Z</time>
      </trkpt>
      <trkpt lat="44.34641" lon="3.35691">
        <ele>796</ele>
        <time>2017-03-01T15:28:59Z</time>
      </trkpt>
      <trkpt lat="44.34638" lon="3.35685">
        <ele>796</ele>
        <time>2017-03-01T15:30:59Z</time>
      </trkpt>
      <trkpt lat="44.3463" lon="3.35677">
        <ele>796</ele>
        <time>2017-03-01T15:32:59Z</time>
      </trkpt>
      <trkpt lat="44.34626" lon="3.35671">
        <ele>795</ele>
        <time>2017-03-01T15:34:59Z</time>
      </trkpt>
      <trkpt lat="44.34625" lon="3.35664">
        <ele>795</ele>
        <time>2017-03-01T15:36:59Z</time>
      </trkpt>
      <trkpt lat="44.34625" lon="3.35654">
        <ele>794</ele>
        <time>2017-03-01T15:38:59Z</time>
      </trkpt>
      <trkpt lat="44.34628" lon="3.35635">
        <ele>793</ele>
        <time>2017-03-01T15:40:59Z</time>
      </trkpt>
      <trkpt lat="44.34633" lon="3.35614">
        <ele>791</ele>
        <time>2017-03-01T15:42:59Z</time>
      </trkpt>
      <trkpt lat="44.34637" lon="3.356">
        <ele>790</ele>
        <time>2017-03-01T15:44:59Z</time>
      </trkpt>
      <trkpt lat="44.34642" lon="3.35587">
        <ele>790</ele>
        <time>2017-03-01T15:46:59Z</time>
      </trkpt>
      <trkpt lat="44.3465" lon="3.3557">
        <ele>789</ele>
        <time>2017-03-01T15:48:59Z</time>
      </trkpt>
      <trkpt lat="44.34656" lon="3.35558">
        <ele>789</ele>
        <time>2017-03-01T15:50:59Z</time>
      </trkpt>
      <trkpt lat="44.3466" lon="3.35552">
        <ele>789</ele>
        <time>2017-03-01T15:52:59Z</time>
      </trkpt>
      <trkpt lat="44.34662" lon="3.35546">
        <ele>789</ele>
        <time>2017-03-01T15:54:59Z</time>
      </trkpt>
      <trkpt lat="44.34664" lon="3.35538">
        <ele>788</ele>
        <time>2017-03-01T15:56:59Z</time>
      </trkpt>
      <trkpt lat="44.34664" lon="3.35524">
        <ele>787</ele>
        <time>2017-03-01T15:58:59Z</time>
      </trkpt>
      <trkpt lat="44.34663" lon="3.35514">
        <ele>786</ele>
        <time>2017-03-01T16:00:59Z</time>
      </trkpt>
      <trkpt lat="44.34663" lon="3.35481">
        <ele>787</ele>
        <time>2017-03-01T16:02:59Z</time>
      </trkpt>
      <trkpt lat="44.34662" lon="3.35466">
        <ele>788</ele>
        <time>2017-03-01T16:04:59Z</time>
      </trkpt>
      <trkpt lat="44.34646" lon="3.35475">
        <ele>785</ele>
        <time>2017-03-01T16:06:59Z</time>
      </trkpt>
      <trkpt lat="44.34624" lon="3.35492">
        <ele>779</ele>
        <time>2017-03-01T16:08:59Z</time>
      </trkpt>
      <trkpt lat="44.34617" lon="3.35493">
        <ele>777</ele>
        <time>2017-03-01T16:10:59Z</time>
      </trkpt>
      <trkpt lat="44.34614" lon="3.35492">
        <ele>777</ele>
        <time>2017-03-01T16:12:59Z</time>
      </trkpt>
      <trkpt lat="44.34611" lon="3.35492">
        <ele>776</ele>
        <time>2017-03-01T16:14:59Z</time>
      </trkpt>
      <trkpt lat="44.34608" lon="3.35497">
        <ele>775</ele>
        <time>2017-03-01T16:16:59Z</time>
      </trkpt>
      <trkpt lat="44.34603" lon="3.35502">
        <ele>774</ele>
        <time>2017-03-01T16:18:59Z</time>
      </trkpt>
      <trkpt lat="44.34599" lon="3.35508">
        <ele>774</ele>
        <time>2017-03-01T16:20:59Z</time>
      </trkpt>
      <trkpt lat="44.34596" lon="3.35518">
        <ele>775</ele>
        <time>2017-03-01T16:22:59Z</time>
      </trkpt>
      <trkpt lat="44.34592" lon="3.35525">
        <ele>775</ele>
        <time>2017-03-01T16:24:59Z</time>
      </trkpt>
      <trkpt lat="44.34586" lon="3.35531">
        <ele>775</ele>
        <time>2017-03-01T16:26:59Z</time>
      </trkpt>
      <trkpt lat="44.34579" lon="3.35537">
        <ele>775</ele>
        <time>2017-03-01T16:28:59Z</time>
      </trkpt>
      <trkpt lat="44.34572" lon="3.35544">
        <ele>774</ele>
        <time>2017-03-01T16:30:59Z</time>
      </trkpt>
      <trkpt lat="44.34562" lon="3.3555">
        <ele>773</ele>
        <time>2017-03-01T16:32:59Z</time>
      </trkpt>
      <trkpt lat="44.34552" lon="3.35555">
        <ele>771</ele>
        <time>2017-03-01T16:34:59Z</time>
      </trkpt>
      <trkpt lat="44.34547" lon="3.35556">
        <ele>770</ele>
        <time>2017-03-01T16:36:59Z</time>
      </trkpt>
      <trkpt lat="44.34545" lon="3.35554">
        <ele>769</ele>
        <time>2017-03-01T16:38:59Z</time>
      </trkpt>
      <trkpt lat="44.34545" lon="3.35551">
        <ele>769</ele>
        <time>2017-03-01T16:40:59Z</time>
      </trkpt>
      <trkpt lat="44.34546" lon="3.35548">
        <ele>769</ele>
        <time>2017-03-01T16:42:59Z</time>
      </trkpt>
      <trkpt lat="44.34549" lon="3.35544">
        <ele>769</ele>
        <time>2017-03-01T16:44:59Z</time>
      </trkpt>
      <trkpt lat="44.34553" lon="3.35538">
        <ele>769</ele>
        <time>2017-03-01T16:46:59Z</time>
      </trkpt>
      <trkpt lat="44.34554" lon="3.35537">
        <ele>769</ele>
        <time>2017-03-01T16:48:59Z</time>
      </trkpt>
      <trkpt lat="44.34551" lon="3.35537">
        <ele>768</ele>
        <time>2017-03-01T16:50:59Z</time>
      </trkpt>
      <trkpt lat="44.34539" lon="3.35541">
        <ele>766</ele>
        <time>2017-03-01T16:52:59Z</time>
      </trkpt>
      <trkpt lat="44.3453" lon="3.35546">
        <ele>765</ele>
        <time>2017-03-01T16:54:59Z</time>
      </trkpt>
      <trkpt lat="44.34522" lon="3.3555">
        <ele>763</ele>
        <time>2017-03-01T16:56:59Z</time>
      </trkpt>
      <trkpt lat="44.34512" lon="3.35557">
        <ele>762</ele>
        <time>2017-03-01T16:58:59Z</time>
      </trkpt>
      <trkpt lat="44.34494" lon="3.35566">
        <ele>759</ele>
        <time>2017-03-01T17:00:59Z</time>
      </trkpt>
      <trkpt lat="44.34471" lon="3.35578">
        <ele>754</ele>
        <time>2017-03-01T17:02:59Z</time>
      </trkpt>
      <trkpt lat="44.34446" lon="3.3559">
        <ele>749</ele>
        <time>2017-03-01T17:04:59Z</time>
      </trkpt>
      <trkpt lat="44.34415" lon="3.35611">
        <ele>745</ele>
        <time>2017-03-01T17:06:59Z</time>
      </trkpt>
      <trkpt lat="44.34391" lon="3.35625">
        <ele>741</ele>
        <time>2017-03-01T17:08:59Z</time>
      </trkpt>
      <trkpt lat="44.34371" lon="3.35636">
        <ele>737</ele>
        <time>2017-03-01T17:10:59Z</time>
      </trkpt>
      <trkpt lat="44.34357" lon="3.35642">
        <ele>733</ele>
        <time>2017-03-01T17:12:59Z</time>
      </trkpt>
      <trkpt lat="44.34344" lon="3.35647">
        <ele>729</ele>
        <time>2017-03-01T17:14:59Z</time>
      </trkpt>
      <trkpt lat="44.34324" lon="3.35656">
        <ele>723</ele>
        <time>2017-03-01T17:16:59Z</time>
      </trkpt>
      <trkpt lat="44.34315" lon="3.35662">
        <ele>719</ele>
        <time>2017-03-01T17:18:59Z</time>
      </trkpt>
      <trkpt lat="44.3431" lon="3.35666">
        <ele>717</ele>
        <time>2017-03-01T17:20:59Z</time>
      </trkpt>
      <trkpt lat="44.34309" lon="3.35666">
        <ele>717</ele>
        <time>2017-03-01T17:22:59Z</time>
      </trkpt>
      <trkpt lat="44.34308" lon="3.35664">
        <ele>716</ele>
        <time>2017-03-01T17:24:59Z</time>
      </trkpt>
      <trkpt lat="44.34309" lon="3.35661">
        <ele>717</ele>
        <time>2017-03-01T17:26:59Z</time>
      </trkpt>
      <trkpt lat="44.34309" lon="3.35651">
        <ele>716</ele>
        <time>2017-03-01T17:28:59Z</time>
      </trkpt>
      <trkpt lat="44.34308" lon="3.35651">
        <ele>716</ele>
        <time>2017-03-01T17:30:59Z</time>
      </trkpt>
      <trkpt lat="44.34305" lon="3.35652">
        <ele>714</ele>
        <time>2017-03-01T17:32:59Z</time>
      </trkpt>
      <trkpt lat="44.34301" lon="3.35658">
        <ele>713</ele>
        <time>2017-03-01T17:34:59Z</time>
      </trkpt>
      <trkpt lat="44.34293" lon="3.35668">
        <ele>710</ele>
        <time>2017-03-01T17:36:59Z</time>
      </trkpt>
      <trkpt lat="44.34289" lon="3.35674">
        <ele>709</ele>
        <time>2017-03-01T17:38:59Z</time>
      </trkpt>
      <trkpt lat="44.34284" lon="3.3569">
        <ele>709</ele>
        <time>2017-03-01T17:40:59Z</time>
      </trkpt>
      <trkpt lat="44.34281" lon="3.35691">
        <ele>708</ele>
        <time>2017-03-01T17:42:59Z</time>
      </trkpt>
      <trkpt lat="44.34279" lon="3.35689">
        <ele>707</ele>
        <time>2017-03-01T17:44:59Z</time>
      </trkpt>
      <trkpt lat="44.34279" lon="3.3568">
        <ele>705</ele>
        <time>2017-03-01T17:46:59Z</time>
      </trkpt>
      <trkpt lat="44.34282" lon="3.35652">
        <ele>705</ele>
        <time>2017-03-01T17:48:59Z</time>
      </trkpt>
      <trkpt lat="44.34282" lon="3.35638">
        <ele>705</ele>
        <time>2017-03-01T17:50:59Z</time>
      </trkpt>
      <trkpt lat="44.34284" lon="3.35624">
        <ele>706</ele>
        <time>2017-03-01T17:52:59Z</time>
      </trkpt>
      <trkpt lat="44.34287" lon="3.35613">
        <ele>707</ele>
        <time>2017-03-01T17:54:59Z</time>
      </trkpt>
      <trkpt lat="44.34291" lon="3.35607">
        <ele>708</ele>
        <time>2017-03-01T17:56:59Z</time>
      </trkpt>
      <trkpt lat="44.34294" lon="3.356">
        <ele>709</ele>
        <time>2017-03-01T17:58:59Z</time>
      </trkpt>
      <trkpt lat="44.34296" lon="3.35596">
        <ele>710</ele>
        <time>2017-03-01T18:00:59Z</time>
      </trkpt>
      <trkpt lat="44.34294" lon="3.35592">
        <ele>709</ele>
        <time>2017-03-01T18:02:59Z</time>
      </trkpt>
      <trkpt lat="44.34294" lon="3.3559">
        <ele>709</ele>
        <time>2017-03-01T18:04:59Z</time>
      </trkpt>
      <trkpt lat="44.3429" lon="3.35587">
        <ele>708</ele>
        <time>2017-03-01T18:06:59Z</time>
      </trkpt>
      <trkpt lat="44.3428" lon="3.35583">
        <ele>707</ele>
        <time>2017-03-01T18:08:59Z</time>
      </trkpt>
      <trkpt lat="44.3427" lon="3.35581">
        <ele>706</ele>
        <time>2017-03-01T18:10:59Z</time>
      </trkpt>
      <trkpt lat="44.34256" lon="3.3558">
        <ele>704</ele>
        <time>2017-03-01T18:12:59Z</time>
      </trkpt>
      <trkpt lat="44.34237" lon="3.35585">
        <ele>703</ele>
        <time>2017-03-01T18:14:59Z</time>
      </trkpt>
      <trkpt lat="44.34227" lon="3.35591">
        <ele>703</ele>
        <time>2017-03-01T18:16:59Z</time>
      </trkpt>
      <trkpt lat="44.34215" lon="3.35597">
        <ele>702</ele>
        <time>2017-03-01T18:18:59Z</time>
      </trkpt>
      <trkpt lat="44.34204" lon="3.35605">
        <ele>701</ele>
        <time>2017-03-01T18:20:59Z</time>
      </trkpt>
      <trkpt lat="44.34195" lon="3.35611">
        <ele>700</ele>
        <time>2017-03-01T18:22:59Z</time>
      </trkpt>
      <trkpt lat="44.34185" lon="3.35617">
        <ele>698</ele>
        <time>2017-03-01T18:24:59Z</time>
      </trkpt>
      <trkpt lat="44.34175" lon="3.35622">
        <ele>696</ele>
        <time>2017-03-01T18:26:59Z</time>
      </trkpt>
      <trkpt lat="44.34166" lon="3.35626">
        <ele>694</ele>
        <time>2017-03-01T18:28:59Z</time>
      </trkpt>
      <trkpt lat="44.34158" lon="3.3563">
        <ele>695</ele>
        <time>2017-03-01T18:30:59Z</time>
      </trkpt>
      <trkpt lat="44.34145" lon="3.35638">
        <ele>696</ele>
        <time>2017-03-01T18:32:59Z</time>
      </trkpt>
      <trkpt lat="44.34136" lon="3.35645">
        <ele>696</ele>
        <time>2017-03-01T18:34:59Z</time>
      </trkpt>
      <trkpt lat="44.34128" lon="3.35653">
        <ele>695</ele>
        <time>2017-03-01T18:36:59Z</time>
      </trkpt>
      <trkpt lat="44.34124" lon="3.35655">
        <ele>696</ele>
        <time>2017-03-01T18:38:59Z</time>
      </trkpt>
      <trkpt lat="44.34117" lon="3.35657">
        <ele>698</ele>
        <time>2017-03-01T18:40:59Z</time>
      </trkpt>
      <trkpt lat="44.34109" lon="3.35669">
        <ele>696</ele>
        <time>2017-03-01T18:42:59Z</time>
      </trkpt>
      <trkpt lat="44.3409" lon="3.3572">
        <ele>683</ele>
        <time>2017-03-01T18:44:59Z</time>
      </trkpt>
      <trkpt lat="44.34063" lon="3.35759">
        <ele>676</ele>
        <time>2017-03-01T18:46:59Z</time>
      </trkpt>
      <trkpt lat="44.34026" lon="3.35791">
        <ele>674</ele>
        <time>2017-03-01T18:48:59Z</time>
      </trkpt>
      <trkpt lat="44.34001" lon="3.35812">
        <ele>673</ele>
        <time>2017-03-01T18:50:59Z</time>
      </trkpt>
      <trkpt lat="44.33993" lon="3.35821">
        <ele>670</ele>
        <time>2017-03-01T18:52:59Z</time>
      </trkpt>
      <trkpt lat="44.33975" lon="3.35837">
        <ele>664</ele>
        <time>2017-03-01T18:54:59Z</time>
      </trkpt>
      <trkpt lat="44.33962" lon="3.35849">
        <ele>658</ele>
        <time>2017-03-01T18:56:59Z</time>
      </trkpt>
      <trkpt lat="44.33951" lon="3.3586">
        <ele>652</ele>
        <time>2017-03-01T18:58:59Z</time>
      </trkpt>
      <trkpt lat="44.3394" lon="3.35868">
        <ele>648</ele>
        <time>2017-03-01T19:00:59Z</time>
      </trkpt>
      <trkpt lat="44.33934" lon="3.35871">
        <ele>647</ele>
        <time>2017-03-01T19:02:59Z</time>
      </trkpt>
      <trkpt lat="44.3392" lon="3.35873">
        <ele>648</ele>
        <time>2017-03-01T19:04:59Z</time>
      </trkpt>
      <trkpt lat="44.33914" lon="3.35872">
        <ele>648</ele>
        <time>2017-03-01T19:06:59Z</time>
      </trkpt>
      <trkpt lat="44.33908" lon="3.35869">
        <ele>649</ele>
        <time>2017-03-01T19:08:59Z</time>
      </trkpt>
      <trkpt lat="44.33903" lon="3.35869">
        <ele>648</ele>
        <time>2017-03-01T19:10:59Z</time>
      </trkpt>
      <trkpt lat="44.33892" lon="3.35868">
        <ele>647</ele>
        <time>2017-03-01T19:12:59Z</time>
      </trkpt>
      <trkpt lat="44.33874" lon="3.35867">
        <ele>644</ele>
        <time>2017-03-01T19:14:59Z</time>
      </trkpt>
      <trkpt lat="44.33861" lon="3.35869">
        <ele>641</ele>
        <time>2017-03-01T19:16:59Z</time>
      </trkpt>
      <trkpt lat="44.33855" lon="3.35872">
        <ele>638</ele>
        <time>2017-03-01T19:18:59Z</time>
      </trkpt>
      <trkpt lat="44.33848" lon="3.35874">
        <ele>636</ele>
        <time>2017-03-01T19:20:59Z</time>
      </trkpt>
      <trkpt lat="44.33831" lon="3.35881">
        <ele>630</ele>
        <time>2017-03-01T19:22:59Z</time>
      </trkpt>
      <trkpt lat="44.33825" lon="3.35882">
        <ele>628</ele>
        <time>2017-03-01T19:24:59Z</time>
      </trkpt>
      <trkpt lat="44.3382" lon="3.35882">
        <ele>626</ele>
        <time>2017-03-01T19:26:59Z</time>
      </trkpt>
      <trkpt lat="44.3381" lon="3.35881">
        <ele>623</ele>
        <time>2017-03-01T19:28:59Z</time>
      </trkpt>
      <trkpt lat="44.33806" lon="3.35882">
        <ele>621</ele>
        <time>2017-03-01T19:30:59Z</time>
      </trkpt>
      <trkpt lat="44.338" lon="3.35884">
        <ele>618</ele>
        <time>2017-03-01T19:32:59Z</time>
      </trkpt>
      <trkpt lat="44.33796" lon="3.35885">
        <ele>616</ele>
        <time>2017-03-01T19:34:59Z</time>
      </trkpt>
      <trkpt lat="44.33795" lon="3.35887">
        <ele>615</ele>
        <time>2017-03-01T19:36:59Z</time>
      </trkpt>
      <trkpt lat="44.33796" lon="3.3589">
        <ele>615</ele>
        <time>2017-03-01T19:38:59Z</time>
      </trkpt>
      <trkpt lat="44.33798" lon="3.35891">
        <ele>615</ele>
        <time>2017-03-01T19:40:59Z</time>
      </trkpt>
      <trkpt lat="44.33806" lon="3.35891">
        <ele>618</ele>
        <time>2017-03-01T19:42:59Z</time>
      </trkpt>
      <trkpt lat="44.33808" lon="3.3589">
        <ele>619</ele>
        <time>2017-03-01T19:44:59Z</time>
      </trkpt>
      <trkpt lat="44.3381" lon="3.35892">
        <ele>619</ele>
        <time>2017-03-01T19:46:59Z</time>
      </trkpt>
      <trkpt lat="44.33809" lon="3.35895">
        <ele>617</ele>
        <time>2017-03-01T19:48:59Z</time>
      </trkpt>
      <trkpt lat="44.33806" lon="3.35897">
        <ele>616</ele>
        <time>2017-03-01T19:50:59Z</time>
      </trkpt>
      <trkpt lat="44.33799" lon="3.359">
        <ele>613</ele>
        <time>2017-03-01T19:52:59Z</time>
      </trkpt>
      <trkpt lat="44.33793" lon="3.35902">
        <ele>610</ele>
        <time>2017-03-01T19:54:59Z</time>
      </trkpt>
      <trkpt lat="44.33786" lon="3.35903">
        <ele>608</ele>
        <time>2017-03-01T19:56:59Z</time>
      </trkpt>
      <trkpt lat="44.33781" lon="3.35903">
        <ele>606</ele>
        <time>2017-03-01T19:58:59Z</time>
      </trkpt>
      <trkpt lat="44.33778" lon="3.35902">
        <ele>606</ele>
        <time>2017-03-01T20:00:59Z</time>
      </trkpt>
      <trkpt lat="44.33776" lon="3.35904">
        <ele>605</ele>
        <time>2017-03-01T20:02:59Z</time>
      </trkpt>
      <trkpt lat="44.33774" lon="3.35908">
        <ele>603</ele>
        <time>2017-03-01T20:04:59Z</time>
      </trkpt>
      <trkpt lat="44.33773" lon="3.35911">
        <ele>602</ele>
        <time>2017-03-01T20:06:59Z</time>
      </trkpt>
      <trkpt lat="44.33771" lon="3.35909">
        <ele>602</ele>
        <time>2017-03-01T20:08:59Z</time>
      </trkpt>
      <trkpt lat="44.3377" lon="3.35907">
        <ele>602</ele>
        <time>2017-03-01T20:10:59Z</time>
      </trkpt>
      <trkpt lat="44.33769" lon="3.35908">
        <ele>602</ele>
        <time>2017-03-01T20:12:59Z</time>
      </trkpt>
      <trkpt lat="44.33769" lon="3.35912">
        <ele>601</ele>
        <time>2017-03-01T20:14:59Z</time>
      </trkpt>
      <trkpt lat="44.3377" lon="3.35916">
        <ele>600</ele>
        <time>2017-03-01T20:16:59Z</time>
      </trkpt>
      <trkpt lat="44.33773" lon="3.35921">
        <ele>599</ele>
        <time>2017-03-01T20:18:59Z</time>
      </trkpt>
      <trkpt lat="44.3378" lon="3.35923">
        <ele>600</ele>
        <time>2017-03-01T20:20:59Z</time>
      </trkpt>
      <trkpt lat="44.33781" lon="3.35924">
        <ele>600</ele>
        <time>2017-03-01T20:22:59Z</time>
      </trkpt>
      <trkpt lat="44.3378" lon="3.35926">
        <ele>599</ele>
        <time>2017-03-01T20:24:59Z</time>
      </trkpt>
      <trkpt lat="44.33777" lon="3.35928">
        <ele>598</ele>
        <time>2017-03-01T20:26:59Z</time>
      </trkpt>
      <trkpt lat="44.33773" lon="3.3593">
        <ele>597</ele>
        <time>2017-03-01T20:28:59Z</time>
      </trkpt>
      <trkpt lat="44.33768" lon="3.3593">
        <ele>596</ele>
        <time>2017-03-01T20:30:59Z</time>
      </trkpt>
      <trkpt lat="44.33767" lon="3.35932">
        <ele>595</ele>
        <time>2017-03-01T20:32:59Z</time>
      </trkpt>
      <trkpt lat="44.33768" lon="3.35936">
        <ele>594</ele>
        <time>2017-03-01T20:34:59Z</time>
      </trkpt>
      <trkpt lat="44.3377" lon="3.35937">
        <ele>594</ele>
        <time>2017-03-01T20:36:59Z</time>
      </trkpt>
      <trkpt lat="44.3377" lon="3.35939">
        <ele>594</ele>
        <time>2017-03-01T20:38:59Z</time>
      </trkpt>
      <trkpt lat="44.33769" lon="3.35942">
        <ele>593</ele>
        <time>2017-03-01T20:40:59Z</time>
      </trkpt>
      <trkpt lat="44.33764" lon="3.35944">
        <ele>591</ele>
        <time>2017-03-01T20:42:59Z</time>
      </trkpt>
      <trkpt lat="44.33755" lon="3.35946">
        <ele>590</ele>
        <time>2017-03-01T20:44:59Z</time>
      </trkpt>
      <trkpt lat="44.33749" lon="3.35945">
        <ele>589</ele>
        <time>2017-03-01T20:46:59Z</time>
      </trkpt>
      <trkpt lat="44.33747" lon="3.35939">
        <ele>589</ele>
        <time>2017-03-01T20:48:59Z</time>
      </trkpt>
      <trkpt lat="44.3374" lon="3.35915">
        <ele>590</ele>
        <time>2017-03-01T20:50:59Z</time>
      </trkpt>
      <trkpt lat="44.33735" lon="3.35912">
        <ele>587</ele>
        <time>2017-03-01T20:52:59Z</time>
      </trkpt>
      <trkpt lat="44.33729" lon="3.35909">
        <ele>584</ele>
        <time>2017-03-01T20:54:59Z</time>
      </trkpt>
      <trkpt lat="44.33727" lon="3.35904">
        <ele>584</ele>
        <time>2017-03-01T20:56:59Z</time>
      </trkpt>
      <trkpt lat="44.33726" lon="3.35897">
        <ele>584</ele>
        <time>2017-03-01T20:58:59Z</time>
      </trkpt>
      <trkpt lat="44.33727" lon="3.35888">
        <ele>585</ele>
        <time>2017-03-01T21:00:59Z</time>
      </trkpt>
      <trkpt lat="44.33729" lon="3.35878">
        <ele>588</ele>
        <time>2017-03-01T21:02:59Z</time>
      </trkpt>
      <trkpt lat="44.33733" lon="3.35868">
        <ele>591</ele>
        <time>2017-03-01T21:04:59Z</time>
      </trkpt>
      <trkpt lat="44.33734" lon="3.35861">
        <ele>593</ele>
        <time>2017-03-01T21:06:59Z</time>
      </trkpt>
      <trkpt lat="44.33741" lon="3.35834">
        <ele>602</ele>
        <time>2017-03-01T21:08:59Z</time>
      </trkpt>
      <trkpt lat="44.33745" lon="3.358">
        <ele>612</ele>
        <time>2017-03-01T21:10:59Z</time>
      </trkpt>
      <trkpt lat="44.3356" lon="3.35796">
        <ele>490</ele>
        <time>2017-03-01T21:12:59Z</time>
      </trkpt>
      <trkpt lat="44.33558" lon="3.35799">
        <ele>489</ele>
        <time>2017-03-01T21:14:59Z</time>
      </trkpt>
      <trkpt lat="44.33539" lon="3.35774">
        <ele>487</ele>
        <time>2017-03-01T21:16:59Z</time>
      </trkpt>
      <trkpt lat="44.33521" lon="3.35747">
        <ele>485</ele>
        <time>2017-03-01T21:18:59Z</time>
      </trkpt>
      <trkpt lat="44.3352" lon="3.35746">
        <ele>485</ele>
        <time>2017-03-01T21:20:59Z</time>
      </trkpt>
      <trkpt lat="44.33508" lon="3.35727">
        <ele>484</ele>
        <time>2017-03-01T21:22:59Z</time>
      </trkpt>
      <trkpt lat="44.33504" lon="3.3572">
        <ele>483</ele>
        <time>2017-03-01T21:24:59Z</time>
      </trkpt>
      <trkpt lat="44.33486" lon="3.35684">
        <ele>484</ele>
        <time>2017-03-01T21:26:59Z</time>
      </trkpt>
      <trkpt lat="44.33465" lon="3.35648">
        <ele>485</ele>
        <time>2017-03-01T21:28:59Z</time>
      </trkpt>
      <trkpt lat="44.33451" lon="3.35634">
        <ele>484</ele>
        <time>2017-03-01T21:30:59Z</time>
      </trkpt>
      <trkpt lat="44.33428" lon="3.35615">
        <ele>480</ele>
        <time>2017-03-01T21:32:59Z</time>
      </trkpt>
      <trkpt lat="44.3342" lon="3.35607">
        <ele>479</ele>
        <time>2017-03-01T21:34:59Z</time>
      </trkpt>
      <trkpt lat="44.33393" lon="3.35578">
        <ele>483</ele>
        <time>2017-03-01T21:36:59Z</time>
      </trkpt>
      <trkpt lat="44.33386" lon="3.35571">
        <ele>485</ele>
        <time>2017-03-01T21:38:59Z</time>
      </trkpt>
      <trkpt lat="44.33379" lon="3.35565">
        <ele>487</ele>
        <time>2017-03-01T21:40:59Z</time>
      </trkpt>
      <trkpt lat="44.33354" lon="3.35549">
        <ele>487</ele>
        <time>2017-03-01T21:42:59Z</time>
      </trkpt>
      <trkpt lat="44.33281" lon="3.35504">
        <ele>481</ele>
        <time>2017-03-01T21:44:59Z</time>
      </trkpt>
      <trkpt lat="44.33264" lon="3.35494">
        <ele>479</ele>
        <time>2017-03-01T21:46:59Z</time>
      </trkpt>
      <trkpt lat="44.33254" lon="3.3549">
        <ele>478</ele>
        <time>2017-03-01T21:48:59Z</time>
      </trkpt>
      <trkpt lat="44.33244" lon="3.35488">
        <ele>477</ele>
        <time>2017-03-01T21:50:59Z</time>
      </trkpt>
      <trkpt lat="44.33227" lon="3.35483">
        <ele>477</ele>
        <time>2017-03-01T21:52:59Z</time>
      </trkpt>
      <trkpt lat="44.33216" lon="3.35477">
        <ele>478</ele>
        <time>2017-03-01T21:54:59Z</time>
      </trkpt>
      <trkpt lat="44.33199" lon="3.35467">
        <ele>479</ele>
        <time>2017-03-01T21:56:59Z</time>
      </trkpt>
      <trkpt lat="44.33181" lon="3.35454">
        <ele>479</ele>
        <time>2017-03-01T21:58:59Z</time>
      </trkpt>
      <trkpt lat="44.33162" lon="3.35447">
        <ele>476</ele>
        <time>2017-03-01T22:00:59Z</time>
      </trkpt>
      <trkpt lat="44.33144" lon="3.35443">
        <ele>475</ele>
        <time>2017-03-01T22:02:59Z</time>
      </trkpt>
      <trkpt lat="44.33114" lon="3.35438">
        <ele>474</ele>
        <time>2017-03-01T22:04:59Z</time>
      </trkpt>
      <trkpt lat="44.33094" lon="3.35433">
        <ele>474</ele>
        <time>2017-03-01T22:06:59Z</time>
      </trkpt>
      <trkpt lat="44.33046" lon="3.35412">
        <ele>472</ele>
        <time>2017-03-01T22:08:59Z</time>
      </trkpt>
      <trkpt lat="44.33018" lon="3.35396">
        <ele>472</ele>
        <time>2017-03-01T22:10:59Z</time>
      </trkpt>
      <trkpt lat="44.33007" lon="3.35387">
        <ele>473</ele>
        <time>2017-03-01T22:12:59Z</time>
      </trkpt>
      <trkpt lat="44.32999" lon="3.35378">
        <ele>474</ele>
        <time>2017-03-01T22:14:59Z</time>
      </trkpt>
      <trkpt lat="44.32996" lon="3.35376">
        <ele>474</ele>
        <time>2017-03-01T22:16:59Z</time>
      </trkpt>
      <trkpt lat="44.32986" lon="3.35363">
        <ele>474</ele>
        <time>2017-03-01T22:18:59Z</time>
      </trkpt>
      <trkpt lat="44.32975" lon="3.35344">
        <ele>476</ele>
        <time>2017-03-01T22:20:59Z</time>
      </trkpt>
      <trkpt lat="44.32958" lon="3.35312">
        <ele>475</ele>
        <time>2017-03-01T22:22:59Z</time>
      </trkpt>
      <trkpt lat="44.32951" lon="3.35298">
        <ele>475</ele>
        <time>2017-03-01T22:24:59Z</time>
      </trkpt>
      <trkpt lat="44.32945" lon="3.35283">
        <ele>475</ele>
        <time>2017-03-01T22:26:59Z</time>
      </trkpt>
      <trkpt lat="44.3294" lon="3.35265">
        <ele>475</ele>
        <time>2017-03-01T22:28:59Z</time>
      </trkpt>
      <trkpt lat="44.32936" lon="3.35243">
        <ele>477</ele>
        <time>2017-03-01T22:30:59Z</time>
      </trkpt>
      <trkpt lat="44.32927" lon="3.35198">
        <ele>478</ele>
        <time>2017-03-01T22:32:59Z</time>
      </trkpt>
      <trkpt lat="44.32918" lon="3.35159">
        <ele>477</ele>
        <time>2017-03-01T22:34:59Z</time>
      </trkpt>
      <trkpt lat="44.32909" lon="3.3513">
        <ele>480</ele>
        <time>2017-03-01T22:36:59Z</time>
      </trkpt>
      <trkpt lat="44.32899" lon="3.35104">
        <ele>480</ele>
        <time>2017-03-01T22:38:59Z</time>
      </trkpt>
      <trkpt lat="44.32887" lon="3.35077">
        <ele>479</ele>
        <time>2017-03-01T22:40:59Z</time>
      </trkpt>
      <trkpt lat="44.32878" lon="3.35056">
        <ele>477</ele>
        <time>2017-03-01T22:42:59Z</time>
      </trkpt>
      <trkpt lat="44.32872" lon="3.35035">
        <ele>476</ele>
        <time>2017-03-01T22:44:59Z</time>
      </trkpt>
      <trkpt lat="44.32871" lon="3.35028">
        <ele>476</ele>
        <time>2017-03-01T22:46:59Z</time>
      </trkpt>
      <trkpt lat="44.32869" lon="3.35018">
        <ele>476</ele>
        <time>2017-03-01T22:48:59Z</time>
      </trkpt>
      <trkpt lat="44.32867" lon="3.35">
        <ele>477</ele>
        <time>2017-03-01T22:50:59Z</time>
      </trkpt>
      <trkpt lat="44.32864" lon="3.34969">
        <ele>479</ele>
        <time>2017-03-01T22:52:59Z</time>
      </trkpt>
      <trkpt lat="44.32859" lon="3.3495">
        <ele>479</ele>
        <time>2017-03-01T22:54:59Z</time>
      </trkpt>
      <trkpt lat="44.32854" lon="3.34937">
        <ele>478</ele>
        <time>2017-03-01T22:56:59Z</time>
      </trkpt>
      <trkpt lat="44.32824" lon="3.34864">
        <ele>482</ele>
        <time>2017-03-01T22:58:59Z</time>
      </trkpt>
      <trkpt lat="44.32822" lon="3.34861">
        <ele>482</ele>
        <time>2017-03-01T23:00:59Z</time>
      </trkpt>
      <trkpt lat="44.32813" lon="3.34849">
        <ele>482</ele>
        <time>2017-03-01T23:02:59Z</time>
      </trkpt>
      <trkpt lat="44.32788" lon="3.3482">
        <ele>481</ele>
        <time>2017-03-01T23:04:59Z</time>
      </trkpt>
      <trkpt lat="44.3277" lon="3.34796">
        <ele>481</ele>
        <time>2017-03-01T23:06:59Z</time>
      </trkpt>
      <trkpt lat="44.32754" lon="3.34774">
        <ele>480</ele>
        <time>2017-03-01T23:08:59Z</time>
      </trkpt>
      <trkpt lat="44.32738" lon="3.34754">
        <ele>479</ele>
        <time>2017-03-01T23:10:59Z</time>
      </trkpt>
      <trkpt lat="44.3273" lon="3.34746">
        <ele>478</ele>
        <time>2017-03-01T23:12:59Z</time>
      </trkpt>
      <trkpt lat="44.32723" lon="3.34741">
        <ele>477</ele>
        <time>2017-03-01T23:14:59Z</time>
      </trkpt>
      <trkpt lat="44.32704" lon="3.34729">
        <ele>474</ele>
        <time>2017-03-01T23:16:59Z</time>
      </trkpt>
      <trkpt lat="44.32696" lon="3.3472">
        <ele>473</ele>
        <time>2017-03-01T23:18:59Z</time>
      </trkpt>
      <trkpt lat="44.3269" lon="3.34709">
        <ele>473</ele>
        <time>2017-03-01T23:20:59Z</time>
      </trkpt>
      <trkpt lat="44.32684" lon="3.34697">
        <ele>474</ele>
        <time>2017-03-01T23:22:59Z</time>
      </trkpt>
      <trkpt lat="44.32679" lon="3.34682">
        <ele>475</ele>
        <time>2017-03-01T23:24:59Z</time>
      </trkpt>
      <trkpt lat="44.32679" lon="3.34679">
        <ele>475</ele>
        <time>2017-03-01T23:26:59Z</time>
      </trkpt>
      <trkpt lat="44.32674" lon="3.34668">
        <ele>475</ele>
        <time>2017-03-01T23:28:59Z</time>
      </trkpt>
      <trkpt lat="44.32673" lon="3.34668">
        <ele>475</ele>
        <time>2017-03-01T23:30:59Z</time>
      </trkpt>
      <trkpt lat="44.32666" lon="3.34658">
        <ele>476</ele>
        <time>2017-03-01T23:32:59Z</time>
      </trkpt>
      <trkpt lat="44.32655" lon="3.3465">
        <ele>477</ele>
        <time>2017-03-01T23:34:59Z</time>
      </trkpt>
      <trkpt lat="44.32641" lon="3.34644">
        <ele>477</ele>
        <time>2017-03-01T23:36:59Z</time>
      </trkpt>
      <trkpt lat="44.3262" lon="3.34638">
        <ele>476</ele>
        <time>2017-03-01T23:38:59Z</time>
      </trkpt>
      <trkpt lat="44.32602" lon="3.3463">
        <ele>476</ele>
        <time>2017-03-01T23:40:59Z</time>
      </trkpt>
      <trkpt lat="44.32581" lon="3.34616">
        <ele>477</ele>
        <time>2017-03-01T23:42:59Z</time>
      </trkpt>
      <trkpt lat="44.32566" lon="3.34607">
        <ele>478</ele>
        <time>2017-03-01T23:44:59Z</time>
      </trkpt>
      <trkpt lat="44.32555" lon="3.34604">
        <ele>477</ele>
        <time>2017-03-01T23:46:59Z</time>
      </trkpt>
      <trkpt lat="44.32542" lon="3.34604">
        <ele>475</ele>
        <time>2017-03-01T23:48:59Z</time>
      </trkpt>
      <trkpt lat="44.32526" lon="3.34602">
        <ele>473</ele>
        <time>2017-03-01T23:50:59Z</time>
      </trkpt>
      <trkpt lat="44.3251" lon="3.34595">
        <ele>472</ele>
        <time>2017-03-01T23:52:59Z</time>
      </trkpt>
      <trkpt lat="44.32495" lon="3.34585">
        <ele>473</ele>
        <time>2017-03-01T23:54:59Z</time>
      </trkpt>
      <trkpt lat="44.32492" lon="3.34584">
        <ele>473</ele>
        <time>2017-03-01T23:56:59Z</time>
      </trkpt>
      <trkpt lat="44.3248" lon="3.34579">
        <ele>473</ele>
        <time>2017-03-01T23:58:59Z</time>
      </trkpt>
      <trkpt lat="44.32464" lon="3.34577">
        <ele>472</ele>
        <time>2017-03-02T00:00:59Z</time>
      </trkpt>
      <trkpt lat="44.32434" lon="3.34572">
        <ele>470</ele>
        <time>2017-03-02T00:02:59Z</time>
      </trkpt>
      <trkpt lat="44.32405" lon="3.34566">
        <ele>470</ele>
        <time>2017-03-02T00:04:59Z</time>
      </trkpt>
      <trkpt lat="44.32394" lon="3.34561">
        <ele>471</ele>
        <time>2017-03-02T00:06:59Z</time>
      </trkpt>
      <trkpt lat="44.32386" lon="3.34555">
        <ele>473</ele>
        <time>2017-03-02T00:08:59Z</time>
      </trkpt>
      <trkpt lat="44.32376" lon="3.34543">
        <ele>476</ele>
        <time>2017-03-02T00:10:59Z</time>
      </trkpt>
      <trkpt lat="44.32366" lon="3.34529">
        <ele>481</ele>
        <time>2017-03-02T00:12:59Z</time>
      </trkpt>
      <trkpt lat="44.32357" lon="3.34519">
        <ele>483</ele>
        <time>2017-03-02T00:14:59Z</time>
      </trkpt>
      <trkpt lat="44.32351" lon="3.34516">
        <ele>484</ele>
        <time>2017-03-02T00:16:59Z</time>
      </trkpt>
      <trkpt lat="44.32345" lon="3.34515">
        <ele>484</ele>
        <time>2017-03-02T00:18:59Z</time>
      </trkpt>
      <trkpt lat="44.32338" lon="3.34516">
        <ele>483</ele>
        <time>2017-03-02T00:20:59Z</time>
      </trkpt>
      <trkpt lat="44.32336" lon="3.34517">
        <ele>482</ele>
        <time>2017-03-02T00:22:59Z</time>
      </trkpt>
      <trkpt lat="44.3233" lon="3.34519">
        <ele>482</ele>
        <time>2017-03-02T00:24:59Z</time>
      </trkpt>
      <trkpt lat="44.3232" lon="3.34528">
        <ele>481</ele>
        <time>2017-03-02T00:26:59Z</time>
      </trkpt>
      <trkpt lat="44.32304" lon="3.34541">
        <ele>478</ele>
        <time>2017-03-02T00:28:59Z</time>
      </trkpt>
      <trkpt lat="44.32291" lon="3.34548">
        <ele>476</ele>
        <time>2017-03-02T00:30:59Z</time>
      </trkpt>
      <trkpt lat="44.32278" lon="3.34552">
        <ele>476</ele>
        <time>2017-03-02T00:32:59Z</time>
      </trkpt>
      <trkpt lat="44.32264" lon="3.34553">
        <ele>477</ele>
        <time>2017-03-02T00:34:59Z</time>
      </trkpt>
      <trkpt lat="44.32235" lon="3.34553">
        <ele>479</ele>
        <time>2017-03-02T00:36:59Z</time>
      </trkpt>
      <trkpt lat="44.32203" lon="3.34555">
        <ele>481</ele>
        <time>2017-03-02T00:38:59Z</time>
      </trkpt>
      <trkpt lat="44.32176" lon="3.34558">
        <ele>481</ele>
        <time>2017-03-02T00:40:59Z</time>
      </trkpt>
      <trkpt lat="44.32158" lon="3.34563">
        <ele>480</ele>
        <time>2017-03-02T00:42:59Z</time>
      </trkpt>
      <trkpt lat="44.32145" lon="3.34568">
        <ele>478</ele>
        <time>2017-03-02T00:44:59Z</time>
      </trkpt>
      <trkpt lat="44.32113" lon="3.34573">
        <ele>478</ele>
        <time>2017-03-02T00:46:59Z</time>
      </trkpt>
      <trkpt lat="44.32098" lon="3.34576">
        <ele>477</ele>
        <time>2017-03-02T00:48:59Z</time>
      </trkpt>
      <trkpt lat="44.32096" lon="3.34576">
        <ele>477</ele>
        <time>2017-03-02T00:50:59Z</time>
      </trkpt>
      <trkpt lat="44.32079" lon="3.34585">
        <ele>475</ele>
        <time>2017-03-02T00:52:59Z</time>
      </trkpt>
      <trkpt lat="44.32054" lon="3.34595">
        <ele>475</ele>
        <time>2017-03-02T00:54:59Z</time>
      </trkpt>
      <trkpt lat="44.32032" lon="3.34602">
        <ele>475</ele>
        <time>2017-03-02T00:56:59Z</time>
      </trkpt>
      <trkpt lat="44.31999" lon="3.34609">
        <ele>476</ele>
        <time>2017-03-02T00:58:59Z</time>
      </trkpt>
      <trkpt lat="44.31973" lon="3.34612">
        <ele>474</ele>
        <time>2017-03-02T01:00:59Z</time>
      </trkpt>
      <trkpt lat="44.31952" lon="3.34611">
        <ele>474</ele>
        <time>2017-03-02T01:02:59Z</time>
      </trkpt>
      <trkpt lat="44.31926" lon="3.34608">
        <ele>474</ele>
        <time>2017-03-02T01:04:59Z</time>
      </trkpt>
      <trkpt lat="44.31895" lon="3.34604">
        <ele>473</ele>
        <time>2017-03-02T01:06:59Z</time>
      </trkpt>
      <trkpt lat="44.31853" lon="3.34597">
        <ele>471</ele>
        <time>2017-03-02T01:08:59Z</time>
      </trkpt>
      <trkpt lat="44.31823" lon="3.3459">
        <ele>468</ele>
        <time>2017-03-02T01:10:59Z</time>
      </trkpt>
      <trkpt lat="44.31808" lon="3.34582">
        <ele>467</ele>
        <time>2017-03-02T01:12:59Z</time>
      </trkpt>
      <trkpt lat="44.31792" lon="3.3457">
        <ele>467</ele>
        <time>2017-03-02T01:14:59Z</time>
      </trkpt>
      <trkpt lat="44.31766" lon="3.34544">
        <ele>468</ele>
        <time>2017-03-02T01:16:59Z</time>
      </trkpt>
      <trkpt lat="44.31757" lon="3.34532">
        <ele>468</ele>
        <time>2017-03-02T01:18:59Z</time>
      </trkpt>
      <trkpt lat="44.31744" lon="3.34504">
        <ele>471</ele>
        <time>2017-03-02T01:20:59Z</time>
      </trkpt>
      <trkpt lat="44.31737" lon="3.34488">
        <ele>471</ele>
        <time>2017-03-02T01:22:59Z</time>
      </trkpt>
      <trkpt lat="44.31728" lon="3.34466">
        <ele>472</ele>
        <time>2017-03-02T01:24:59Z</time>
      </trkpt>
      <trkpt lat="44.31719" lon="3.34435">
        <ele>473</ele>
        <time>2017-03-02T01:26:59Z</time>
      </trkpt>
      <trkpt lat="44.31707" lon="3.34392">
        <ele>473</ele>
        <time>2017-03-02T01:28:59Z</time>
      </trkpt>
      <trkpt lat="44.31696" lon="3.34355">
        <ele>471</ele>
        <time>2017-03-02T01:30:59Z</time>
      </trkpt>
      <trkpt lat="44.31686" lon="3.34311">
        <ele>469</ele>
        <time>2017-03-02T01:32:59Z</time>
      </trkpt>
      <trkpt lat="44.31683" lon="3.34294">
        <ele>469</ele>
        <time>2017-03-02T01:34:59Z</time>
      </trkpt>
      <trkpt lat="44.31669" lon="3.34203">
        <ele>469</ele>
        <time>2017-03-02T01:36:59Z</time>
      </trkpt>
      <trkpt lat="44.31663" lon="3.34176">
        <ele>469</ele>
        <time>2017-03-02T01:38:59Z</time>
      </trkpt>
      <trkpt lat="44.31648" lon="3.34118">
        <ele>472</ele>
        <time>2017-03-02T01:40:59Z</time>
      </trkpt>
      <trkpt lat="44.3163" lon="3.34082">
        <ele>469</ele>
        <time>2017-03-02T01:42:59Z</time>
      </trkpt>
      <trkpt lat="44.31622" lon="3.34063">
        <ele>467</ele>
        <time>2017-03-02T01:44:59Z</time>
      </trkpt>
      <trkpt lat="44.31622" lon="3.34062">
        <ele>467</ele>
        <time>2017-03-02T01:46:59Z</time>
      </trkpt>
      <trkpt lat="44.31613" lon="3.34039">
        <ele>466</ele>
        <time>2017-03-02T01:48:59Z</time>
      </trkpt>
      <trkpt lat="44.31602" lon="3.34">
        <ele>464</ele>
        <time>2017-03-02T01:50:59Z</time>
      </trkpt>
      <trkpt lat="44.31595" lon="3.33977">
        <ele>468</ele>
        <time>2017-03-02T01:52:59Z</time>
      </trkpt>
      <trkpt lat="44.31582" lon="3.33947">
        <ele>471</ele>
        <time>2017-03-02T01:54:59Z</time>
      </trkpt>
      <trkpt lat="44.31574" lon="3.33927">
        <ele>474</ele>
        <time>2017-03-02T01:56:59Z</time>
      </trkpt>
      <trkpt lat="44.31567" lon="3.33915">
        <ele>476</ele>
        <time>2017-03-02T01:58:59Z</time>
      </trkpt>
      <trkpt lat="44.31555" lon="3.33897">
        <ele>484</ele>
        <time>2017-03-02T02:00:59Z</time>
      </trkpt>
      <trkpt lat="44.31542" lon="3.33881">
        <ele>489</ele>
        <time>2017-03-02T02:02:59Z</time>
      </trkpt>
      <trkpt lat="44.31528" lon="3.33865">
        <ele>493</ele>
        <time>2017-03-02T02:04:59Z</time>
      </trkpt>
      <trkpt lat="44.31522" lon="3.3386">
        <ele>493</ele>
        <time>2017-03-02T02:06:59Z</time>
      </trkpt>
      <trkpt lat="44.31503" lon="3.33851">
        <ele>489</ele>
        <time>2017-03-02T02:08:59Z</time>
      </trkpt>
      <trkpt lat="44.3149" lon="3.33846">
        <ele>487</ele>
        <time>2017-03-02T02:10:59Z</time>
      </trkpt>
      <trkpt lat="44.31466" lon="3.33835">
        <ele>480</ele>
        <time>2017-03-02T02:12:59Z</time>
      </trkpt>
      <trkpt lat="44.31455" lon="3.33829">
        <ele>478</ele>
        <time>2017-03-02T02:14:59Z</time>
      </trkpt>
      <trkpt lat="44.31442" lon="3.33821">
        <ele>476</ele>
        <time>2017-03-02T02:16:59Z</time>
      </trkpt>
      <trkpt lat="44.31414" lon="3.33795">
        <ele>475</ele>
        <time>2017-03-02T02:18:59Z</time>
      </trkpt>
      <trkpt lat="44.31402" lon="3.33785">
        <ele>476</ele>
        <time>2017-03-02T02:20:59Z</time>
      </trkpt>
      <trkpt lat="44.31358" lon="3.33752">
        <ele>471</ele>
        <time>2017-03-02T02:22:59Z</time>
      </trkpt>
      <trkpt lat="44.31343" lon="3.33736">
        <ele>467</ele>
        <time>2017-03-02T02:24:59Z</time>
      </trkpt>
      <trkpt lat="44.31337" lon="3.33728">
        <ele>465</ele>
        <time>2017-03-02T02:26:59Z</time>
      </trkpt>
      <trkpt lat="44.31304" lon="3.33689">
        <ele>463</ele>
        <time>2017-03-02T02:28:59Z</time>
      </trkpt>
      <trkpt lat="44.31286" lon="3.33671">
        <ele>460</ele>
        <time>2017-03-02T02:30:59Z</time>
      </trkpt>
      <trkpt lat="44.31259" lon="3.33645">
        <ele>459</ele>
        <time>2017-03-02T02:32:59Z</time>
      </trkpt>
      <trkpt lat="44.31236" lon="3.33619">
        <ele>461</ele>
        <time>2017-03-02T02:34:59Z</time>
      </trkpt>
      <trkpt lat="44.31207" lon="3.33582">
        <ele>459</ele>
        <time>2017-03-02T02:36:59Z</time>
      </trkpt>
      <trkpt lat="44.31185" lon="3.33544">
        <ele>461</ele>
        <time>2017-03-02T02:38:59Z</time>
      </trkpt>
      <trkpt lat="44.31175" lon="3.33528">
        <ele>461</ele>
        <time>2017-03-02T02:40:59Z</time>
      </trkpt>
      <trkpt lat="44.31166" lon="3.33511">
        <ele>460</ele>
        <time>2017-03-02T02:42:59Z</time>
      </trkpt>
      <trkpt lat="44.31156" lon="3.33491">
        <ele>463</ele>
        <time>2017-03-02T02:44:59Z</time>
      </trkpt>
      <trkpt lat="44.31152" lon="3.3348">
        <ele>465</ele>
        <time>2017-03-02T02:46:59Z</time>
      </trkpt>
      <trkpt lat="44.31147" lon="3.33471">
        <ele>466</ele>
        <time>2017-03-02T02:48:59Z</time>
      </trkpt>
      <trkpt lat="44.31141" lon="3.33461">
        <ele>467</ele>
        <time>2017-03-02T02:50:59Z</time>
      </trkpt>
      <trkpt lat="44.31122" lon="3.33431">
        <ele>465</ele>
        <time>2017-03-02T02:52:59Z</time>
      </trkpt>
      <trkpt lat="44.31113" lon="3.33415">
        <ele>463</ele>
        <time>2017-03-02T02:54:59Z</time>
      </trkpt>
      <trkpt lat="44.31098" lon="3.33384">
        <ele>463</ele>
        <time>2017-03-02T02:56:59Z</time>
      </trkpt>
      <trkpt lat="44.31079" lon="3.33346">
        <ele>462</ele>
        <time>2017-03-02T02:58:59Z</time>
      </trkpt>
      <trkpt lat="44.31048" lon="3.33282">
        <ele>475</ele>
        <time>2017-03-02T03:00:59Z</time>
      </trkpt>
      <trkpt lat="44.31036" lon="3.3326">
        <ele>476</ele>
        <time>2017-03-02T03:02:59Z</time>
      </trkpt>
      <trkpt lat="44.31029" lon="3.33248">
        <ele>475</ele>
        <time>2017-03-02T03:04:59Z</time>
      </trkpt>
      <trkpt lat="44.3102" lon="3.33235">
        <ele>477</ele>
        <time>2017-03-02T03:06:59Z</time>
      </trkpt>
      <trkpt lat="44.30993" lon="3.33204">
        <ele>480</ele>
        <time>2017-03-02T03:08:59Z</time>
      </trkpt>
      <trkpt lat="44.30977" lon="3.33185">
        <ele>482</ele>
        <time>2017-03-02T03:10:59Z</time>
      </trkpt>
      <trkpt lat="44.30961" lon="3.33162">
        <ele>483</ele>
        <time>2017-03-02T03:12:59Z</time>
      </trkpt>
      <trkpt lat="44.30944" lon="3.33141">
        <ele>484</ele>
        <time>2017-03-02T03:14:59Z</time>
      </trkpt>
      <trkpt lat="44.30918" lon="3.33115">
        <ele>483</ele>
        <time>2017-03-02T03:16:59Z</time>
      </trkpt>
      <trkpt lat="44.30884" lon="3.33087">
        <ele>481</ele>
        <time>2017-03-02T03:18:59Z</time>
      </trkpt>
      <trkpt lat="44.30811" lon="3.33035">
        <ele>479</ele>
        <time>2017-03-02T03:20:59Z</time>
      </trkpt>
      <trkpt lat="44.3078" lon="3.33011">
        <ele>477</ele>
        <time>2017-03-02T03:22:59Z</time>
      </trkpt>
      <trkpt lat="44.30747" lon="3.3299">
        <ele>469</ele>
        <time>2017-03-02T03:24:59Z</time>
      </trkpt>
      <trkpt lat="44.30726" lon="3.32966">
        <ele>471</ele>
        <time>2017-03-02T03:26:59Z</time>
      </trkpt>
      <trkpt lat="44.30694" lon="3.32932">
        <ele>467</ele>
        <time>2017-03-02T03:28:59Z</time>
      </trkpt>
      <trkpt lat="44.30677" lon="3.32913">
        <ele>463</ele>
        <time>2017-03-02T03:30:59Z</time>
      </trkpt>
      <trkpt lat="44.30664" lon="3.32895">
        <ele>464</ele>
        <time>2017-03-02T03:32:59Z</time>
      </trkpt>
      <trkpt lat="44.30634" lon="3.32851">
        <ele>469</ele>
        <time>2017-03-02T03:34:59Z</time>
      </trkpt>
      <trkpt lat="44.30614" lon="3.32821">
        <ele>467</ele>
        <time>2017-03-02T03:36:59Z</time>
      </trkpt>
      <trkpt lat="44.30597" lon="3.32794">
        <ele>466</ele>
        <time>2017-03-02T03:38:59Z</time>
      </trkpt>
      <trkpt lat="44.30573" lon="3.32752">
        <ele>465</ele>
        <time>2017-03-02T03:40:59Z</time>
      </trkpt>
      <trkpt lat="44.30551" lon="3.32718">
        <ele>469</ele>
        <time>2017-03-02T03:42:59Z</time>
      </trkpt>
      <trkpt lat="44.30484" lon="3.32618">
        <ele>462</ele>
        <time>2017-03-02T03:44:59Z</time>
      </trkpt>
      <trkpt lat="44.30431" lon="3.32541">
        <ele>462</ele>
        <time>2017-03-02T03:46:59Z</time>
      </trkpt>
      <trkpt lat="44.30403" lon="3.32504">
        <ele>462</ele>
        <time>2017-03-02T03:48:59Z</time>
      </trkpt>
      <trkpt lat="44.3039" lon="3.32485">
        <ele>465</ele>
        <time>2017-03-02T03:50:59Z</time>
      </trkpt>
      <trkpt lat="44.30372" lon="3.3246">
        <ele>467</ele>
        <time>2017-03-02T03:52:59Z</time>
      </trkpt>
      <trkpt lat="44.3034" lon="3.32419">
        <ele>462</ele>
        <time>2017-03-02T03:54:59Z</time>
      </trkpt>
      <trkpt lat="44.30329" lon="3.32406">
        <ele>463</ele>
        <time>2017-03-02T03:56:59Z</time>
      </trkpt>
      <trkpt lat="44.30321" lon="3.32394">
        <ele>466</ele>
        <time>2017-03-02T03:58:59Z</time>
      </trkpt>
      <trkpt lat="44.30313" lon="3.32379">
        <ele>469</ele>
        <time>2017-03-02T04:00:59Z</time>
      </trkpt>
      <trkpt lat="44.30306" lon="3.32368">
        <ele>470</ele>
        <time>2017-03-02T04:02:59Z</time>
      </trkpt>
      <trkpt lat="44.30291" lon="3.32347">
        <ele>470</ele>
        <time>2017-03-02T04:04:59Z</time>
      </trkpt>
      <trkpt lat="44.30283" lon="3.32338">
        <ele>468</ele>
        <time>2017-03-02T04:06:59Z</time>
      </trkpt>
      <trkpt lat="44.30247" lon="3.32307">
        <ele>465</ele>
        <time>2017-03-02T04:08:59Z</time>
      </trkpt>
      <trkpt lat="44.30234" lon="3.32294">
        <ele>468</ele>
        <time>2017-03-02T04:10:59Z</time>
      </trkpt>
      <trkpt lat="44.30222" lon="3.32279">
        <ele>469</ele>
        <time>2017-03-02T04:12:59Z</time>
      </trkpt>
      <trkpt lat="44.30213" lon="3.32266">
        <ele>470</ele>
        <time>2017-03-02T04:14:59Z</time>
      </trkpt>
      <trkpt lat="44.30208" lon="3.32255">
        <ele>471</ele>
        <time>2017-03-02T04:16:59Z</time>
      </trkpt>
      <trkpt lat="44.30146" lon="3.3214">
        <ele>458</ele>
        <time>2017-03-02T04:18:59Z</time>
      </trkpt>
      <trkpt lat="44.30143" lon="3.32134">
        <ele>458</ele>
        <time>2017-03-02T04:20:59Z</time>
      </trkpt>
      <trkpt lat="44.3014" lon="3.32127">
        <ele>457</ele>
        <time>2017-03-02T04:22:59Z</time>
      </trkpt>
      <trkpt lat="44.30137" lon="3.32118">
        <ele>457</ele>
        <time>2017-03-02T04:24:59Z</time>
      </trkpt>
      <trkpt lat="44.30134" lon="3.32108">
        <ele>456</ele>
        <time>2017-03-02T04:26:59Z</time>
      </trkpt>
      <trkpt lat="44.30132" lon="3.32095">
        <ele>456</ele>
        <time>2017-03-02T04:28:59Z</time>
      </trkpt>
      <trkpt lat="44.30129" lon="3.32083">
        <ele>455</ele>
        <time>2017-03-02T04:30:59Z</time>
      </trkpt>
      <trkpt lat="44.30127" lon="3.32071">
        <ele>454</ele>
        <time>2017-03-02T04:32:59Z</time>
      </trkpt>
      <trkpt lat="44.30127" lon="3.32066">
        <ele>454</ele>
        <time>2017-03-02T04:34:59Z</time>
      </trkpt>
      <trkpt lat="44.30126" lon="3.3206">
        <ele>454</ele>
        <time>2017-03-02T04:36:59Z</time>
      </trkpt>
      <trkpt lat="44.30126" lon="3.32045">
        <ele>453</ele>
        <time>2017-03-02T04:38:59Z</time>
      </trkpt>
      <trkpt lat="44.30128" lon="3.32034">
        <ele>453</ele>
        <time>2017-03-02T04:40:59Z</time>
      </trkpt>
      <trkpt lat="44.30129" lon="3.3203">
        <ele>453</ele>
        <time>2017-03-02T04:42:59Z</time>
      </trkpt>
      <trkpt lat="44.30131" lon="3.32024">
        <ele>453</ele>
        <time>2017-03-02T04:44:59Z</time>
      </trkpt>
      <trkpt lat="44.30154" lon="3.32024">
        <ele>457</ele>
        <time>2017-03-02T04:46:59Z</time>
      </trkpt>
      <trkpt lat="44.3017" lon="3.32022">
        <ele>460</ele>
        <time>2017-03-02T04:48:59Z</time>
      </trkpt>
      <trkpt lat="44.30193" lon="3.32021">
        <ele>464</ele>
        <time>2017-03-02T04:50:59Z</time>
      </trkpt>
      <trkpt lat="44.3021" lon="3.32018">
        <ele>467</ele>
        <time>2017-03-02T04:52:59Z</time>
      </trkpt>
      <trkpt lat="44.30228" lon="3.32011">
        <ele>468</ele>
        <time>2017-03-02T04:54:59Z</time>
      </trkpt>
      <trkpt lat="44.30243" lon="3.32003">
        <ele>469</ele>
        <time>2017-03-02T04:56:59Z</time>
      </trkpt>
      <trkpt lat="44.30259" lon="3.31993">
        <ele>472</ele>
        <time>2017-03-02T04:58:59Z</time>
      </trkpt>
      <trkpt lat="44.3027" lon="3.31988">
        <ele>475</ele>
        <time>2017-03-02T05:00:59Z</time>
      </trkpt>
      <trkpt lat="44.30282" lon="3.31983">
        <ele>478</ele>
        <time>2017-03-02T05:02:59Z</time>
      </trkpt>
      <trkpt lat="44.30292" lon="3.3198">
        <ele>479</ele>
        <time>2017-03-02T05:04:59Z</time>
      </trkpt>
      <trkpt lat="44.3031" lon="3.31978">
        <ele>482</ele>
        <time>2017-03-02T05:06:59Z</time>
      </trkpt>
      <trkpt lat="44.30321" lon="3.3198">
        <ele>482</ele>
        <time>2017-03-02T05:08:59Z</time>
      </trkpt>
      <trkpt lat="44.30334" lon="3.31984">
        <ele>482</ele>
        <time>2017-03-02T05:10:59Z</time>
      </trkpt>
      <trkpt lat="44.30348" lon="3.31992">
        <ele>480</ele>
        <time>2017-03-02T05:12:59Z</time>
      </trkpt>
      <trkpt lat="44.30363" lon="3.32002">
        <ele>479</ele>
        <time>2017-03-02T05:14:59Z</time>
      </trkpt>
      <trkpt lat="44.3037" lon="3.32009">
        <ele>482</ele>
        <time>2017-03-02T05:16:59Z</time>
      </trkpt>
      <trkpt lat="44.30385" lon="3.32022">
        <ele>486</ele>
        <time>2017-03-02T05:18:59Z</time>
      </trkpt>
      <trkpt lat="44.30392" lon="3.32031">
        <ele>488</ele>
        <time>2017-03-02T05:20:59Z</time>
      </trkpt>
      <trkpt lat="44.30396" lon="3.32034">
        <ele>489</ele>
        <time>2017-03-02T05:22:59Z</time>
      </trkpt>
      <trkpt lat="44.30401" lon="3.32037">
        <ele>489</ele>
        <time>2017-03-02T05:24:59Z</time>
      </trkpt>
      <trkpt lat="44.30407" lon="3.3204">
        <ele>490</ele>
        <time>2017-03-02T05:26:59Z</time>
      </trkpt>
      <trkpt lat="44.30412" lon="3.32042">
        <ele>490</ele>
        <time>2017-03-02T05:28:59Z</time>
      </trkpt>
      <trkpt lat="44.30421" lon="3.32042">
        <ele>491</ele>
        <time>2017-03-02T05:30:59Z</time>
      </trkpt>
      <trkpt lat="44.30432" lon="3.32041">
        <ele>492</ele>
        <time>2017-03-02T05:32:59Z</time>
      </trkpt>
      <trkpt lat="44.30438" lon="3.32041">
        <ele>492</ele>
        <time>2017-03-02T05:34:59Z</time>
      </trkpt>
      <trkpt lat="44.30448" lon="3.32038">
        <ele>493</ele>
        <time>2017-03-02T05:36:59Z</time>
      </trkpt>
      <trkpt lat="44.30488" lon="3.32022">
        <ele>495</ele>
        <time>2017-03-02T05:38:59Z</time>
      </trkpt>
      <trkpt lat="44.30494" lon="3.3202">
        <ele>495</ele>
        <time>2017-03-02T05:40:59Z</time>
      </trkpt>
      <trkpt lat="44.30499" lon="3.32019">
        <ele>496</ele>
        <time>2017-03-02T05:42:59Z</time>
      </trkpt>
      <trkpt lat="44.30519" lon="3.32019">
        <ele>500</ele>
        <time>2017-03-02T05:44:59Z</time>
      </trkpt>
      <trkpt lat="44.30527" lon="3.32021">
        <ele>502</ele>
        <time>2017-03-02T05:46:59Z</time>
      </trkpt>
      <trkpt lat="44.30549" lon="3.32021">
        <ele>507</ele>
        <time>2017-03-02T05:48:59Z</time>
      </trkpt>
      <trkpt lat="44.3057" lon="3.32016">
        <ele>510</ele>
        <time>2017-03-02T05:50:59Z</time>
      </trkpt>
      <trkpt lat="44.30583" lon="3.32011">
        <ele>512</ele>
        <time>2017-03-02T05:52:59Z</time>
      </trkpt>
      <trkpt lat="44.30589" lon="3.32007">
        <ele>513</ele>
        <time>2017-03-02T05:54:59Z</time>
      </trkpt>
      <trkpt lat="44.3061" lon="3.31983">
        <ele>519</ele>
        <time>2017-03-02T05:56:59Z</time>
      </trkpt>
      <trkpt lat="44.30619" lon="3.31977">
        <ele>522</ele>
        <time>2017-03-02T05:58:59Z</time>
      </trkpt>
      <trkpt lat="44.30622" lon="3.31973">
        <ele>523</ele>
        <time>2017-03-02T06:00:59Z</time>
      </trkpt>
      <trkpt lat="44.30624" lon="3.31972">
        <ele>524</ele>
        <time>2017-03-02T06:02:59Z</time>
      </trkpt>
      <trkpt lat="44.30626" lon="3.31968">
        <ele>524</ele>
        <time>2017-03-02T06:04:59Z</time>
      </trkpt>
      <trkpt lat="44.30627" lon="3.31965">
        <ele>524</ele>
        <time>2017-03-02T06:06:59Z</time>
      </trkpt>
      <trkpt lat="44.30627" lon="3.31957">
        <ele>525</ele>
        <time>2017-03-02T06:08:59Z</time>
      </trkpt>
      <trkpt lat="44.30625" lon="3.31939">
        <ele>525</ele>
        <time>2017-03-02T06:10:59Z</time>
      </trkpt>
      <trkpt lat="44.30624" lon="3.31932">
        <ele>525</ele>
        <time>2017-03-02T06:12:59Z</time>
      </trkpt>
      <trkpt lat="44.30625" lon="3.31927">
        <ele>525</ele>
        <time>2017-03-02T06:14:59Z</time>
      </trkpt>
      <trkpt lat="44.30625" lon="3.31923">
        <ele>525</ele>
        <time>2017-03-02T06:16:59Z</time>
      </trkpt>
      <trkpt lat="44.30627" lon="3.31918">
        <ele>526</ele>
        <time>2017-03-02T06:18:59Z</time>
      </trkpt>
      <trkpt lat="44.30631" lon="3.31912">
        <ele>527</ele>
        <time>2017-03-02T06:20:59Z</time>
      </trkpt>
      <trkpt lat="44.30637" lon="3.31908">
        <ele>529</ele>
        <time>2017-03-02T06:22:59Z</time>
      </trkpt>
      <trkpt lat="44.30644" lon="3.31908">
        <ele>529</ele>
        <time>2017-03-02T06:24:59Z</time>
      </trkpt>
      <trkpt lat="44.30648" lon="3.3191">
        <ele>529</ele>
        <time>2017-03-02T06:26:59Z</time>
      </trkpt>
      <trkpt lat="44.30656" lon="3.31913">
        <ele>528</ele>
        <time>2017-03-02T06:28:59Z</time>
      </trkpt>
      <trkpt lat="44.30663" lon="3.31914">
        <ele>528</ele>
        <time>2017-03-02T06:30:59Z</time>
      </trkpt>
      <trkpt lat="44.30672" lon="3.31914">
        <ele>529</ele>
        <time>2017-03-02T06:32:59Z</time>
      </trkpt>
      <trkpt lat="44.30682" lon="3.31911">
        <ele>532</ele>
        <time>2017-03-02T06:34:59Z</time>
      </trkpt>
      <trkpt lat="44.30694" lon="3.31906">
        <ele>535</ele>
        <time>2017-03-02T06:36:59Z</time>
      </trkpt>
      <trkpt lat="44.30721" lon="3.31897">
        <ele>542</ele>
        <time>2017-03-02T06:38:59Z</time>
      </trkpt>
      <trkpt lat="44.30728" lon="3.31895">
        <ele>544</ele>
        <time>2017-03-02T06:40:59Z</time>
      </trkpt>
      <trkpt lat="44.30736" lon="3.31892">
        <ele>546</ele>
        <time>2017-03-02T06:42:59Z</time>
      </trkpt>
      <trkpt lat="44.30743" lon="3.31889">
        <ele>548</ele>
        <time>2017-03-02T06:44:59Z</time>
      </trkpt>
      <trkpt lat="44.30754" lon="3.31888">
        <ele>549</ele>
        <time>2017-03-02T06:46:59Z</time>
      </trkpt>
      <trkpt lat="44.30775" lon="3.31888">
        <ele>552</ele>
        <time>2017-03-02T06:48:59Z</time>
      </trkpt>
      <trkpt lat="44.30793" lon="3.31891">
        <ele>554</ele>
        <time>2017-03-02T06:50:59Z</time>
      </trkpt>
      <trkpt lat="44.30797" lon="3.31893">
        <ele>554</ele>
        <time>2017-03-02T06:52:59Z</time>
      </trkpt>
      <trkpt lat="44.30802" lon="3.31896">
        <ele>554</ele>
        <time>2017-03-02T06:54:59Z</time>
      </trkpt>
      <trkpt lat="44.30808" lon="3.31901">
        <ele>554</ele>
        <time>2017-03-02T06:56:59Z</time>
      </trkpt>
      <trkpt lat="44.30813" lon="3.31907">
        <ele>553</ele>
        <time>2017-03-02T06:58:59Z</time>
      </trkpt>
      <trkpt lat="44.3082" lon="3.31917">
        <ele>552</ele>
        <time>2017-03-02T07:00:59Z</time>
      </trkpt>
      <trkpt lat="44.30826" lon="3.31925">
        <ele>555</ele>
        <time>2017-03-02T07:02:59Z</time>
      </trkpt>
      <trkpt lat="44.30832" lon="3.31931">
        <ele>558</ele>
        <time>2017-03-02T07:04:59Z</time>
      </trkpt>
      <trkpt lat="44.30837" lon="3.31933">
        <ele>559</ele>
        <time>2017-03-02T07:06:59Z</time>
      </trkpt>
      <trkpt lat="44.30845" lon="3.31935">
        <ele>562</ele>
        <time>2017-03-02T07:08:59Z</time>
      </trkpt>
      <trkpt lat="44.30871" lon="3.31939">
        <ele>568</ele>
        <time>2017-03-02T07:10:59Z</time>
      </trkpt>
      <trkpt lat="44.30882" lon="3.3194">
        <ele>570</ele>
        <time>2017-03-02T07:12:59Z</time>
      </trkpt>
      <trkpt lat="44.30896" lon="3.31938">
        <ele>572</ele>
        <time>2017-03-02T07:14:59Z</time>
      </trkpt>
      <trkpt lat="44.30904" lon="3.31934">
        <ele>572</ele>
        <time>2017-03-02T07:16:59Z</time>
      </trkpt>
      <trkpt lat="44.30909" lon="3.31931">
        <ele>572</ele>
        <time>2017-03-02T07:18:59Z</time>
      </trkpt>
      <trkpt lat="44.30911" lon="3.31929">
        <ele>572</ele>
        <time>2017-03-02T07:20:59Z</time>
      </trkpt>
      <trkpt lat="44.30916" lon="3.31925">
        <ele>572</ele>
        <time>2017-03-02T07:22:59Z</time>
      </trkpt>
      <trkpt lat="44.3092" lon="3.31921">
        <ele>572</ele>
        <time>2017-03-02T07:24:59Z</time>
      </trkpt>
      <trkpt lat="44.30923" lon="3.31916">
        <ele>572</ele>
        <time>2017-03-02T07:26:59Z</time>
      </trkpt>
      <trkpt lat="44.30931" lon="3.319">
        <ele>578</ele>
        <time>2017-03-02T07:28:59Z</time>
      </trkpt>
      <trkpt lat="44.30939" lon="3.31874">
        <ele>583</ele>
        <time>2017-03-02T07:30:59Z</time>
      </trkpt>
      <trkpt lat="44.30943" lon="3.31863">
        <ele>585</ele>
        <time>2017-03-02T07:32:59Z</time>
      </trkpt>
      <trkpt lat="44.30945" lon="3.31851">
        <ele>586</ele>
        <time>2017-03-02T07:34:59Z</time>
      </trkpt>
      <trkpt lat="44.30947" lon="3.31834">
        <ele>587</ele>
        <time>2017-03-02T07:36:59Z</time>
      </trkpt>
      <trkpt lat="44.30947" lon="3.31827">
        <ele>588</ele>
        <time>2017-03-02T07:38:59Z</time>
      </trkpt>
      <trkpt lat="44.30944" lon="3.31807">
        <ele>589</ele>
        <time>2017-03-02T07:40:59Z</time>
      </trkpt>
      <trkpt lat="44.30943" lon="3.31794">
        <ele>590</ele>
        <time>2017-03-02T07:42:59Z</time>
      </trkpt>
      <trkpt lat="44.30945" lon="3.31785">
        <ele>591</ele>
        <time>2017-03-02T07:44:59Z</time>
      </trkpt>
      <trkpt lat="44.30948" lon="3.31778">
        <ele>592</ele>
        <time>2017-03-02T07:46:59Z</time>
      </trkpt>
      <trkpt lat="44.30959" lon="3.31757">
        <ele>593</ele>
        <time>2017-03-02T07:48:59Z</time>
      </trkpt>
      <trkpt lat="44.30972" lon="3.31735">
        <ele>593</ele>
        <time>2017-03-02T07:50:59Z</time>
      </trkpt>
      <trkpt lat="44.30976" lon="3.31726">
        <ele>593</ele>
        <time>2017-03-02T07:52:59Z</time>
      </trkpt>
      <trkpt lat="44.30978" lon="3.3172">
        <ele>593</ele>
        <time>2017-03-02T07:54:59Z</time>
      </trkpt>
      <trkpt lat="44.30979" lon="3.31714">
        <ele>593</ele>
        <time>2017-03-02T07:56:59Z</time>
      </trkpt>
      <trkpt lat="44.30979" lon="3.31681">
        <ele>594</ele>
        <time>2017-03-02T07:58:59Z</time>
      </trkpt>
      <trkpt lat="44.3098" lon="3.31673">
        <ele>593</ele>
        <time>2017-03-02T08:00:59Z</time>
      </trkpt>
      <trkpt lat="44.30981" lon="3.31668">
        <ele>593</ele>
        <time>2017-03-02T08:02:59Z</time>
      </trkpt>
      <trkpt lat="44.30984" lon="3.3166">
        <ele>594</ele>
        <time>2017-03-02T08:04:59Z</time>
      </trkpt>
      <trkpt lat="44.30988" lon="3.31655">
        <ele>595</ele>
        <time>2017-03-02T08:06:59Z</time>
      </trkpt>
      <trkpt lat="44.30993" lon="3.3165">
        <ele>595</ele>
        <time>2017-03-02T08:08:59Z</time>
      </trkpt>
      <trkpt lat="44.31001" lon="3.31647">
        <ele>594</ele>
        <time>2017-03-02T08:10:59Z</time>
      </trkpt>
      <trkpt lat="44.31008" lon="3.31646">
        <ele>595</ele>
        <time>2017-03-02T08:12:59Z</time>
      </trkpt>
      <trkpt lat="44.31019" lon="3.31645">
        <ele>596</ele>
        <time>2017-03-02T08:14:59Z</time>
      </trkpt>
      <trkpt lat="44.31046" lon="3.31645">
        <ele>600</ele>
        <time>2017-03-02T08:16:59Z</time>
      </trkpt>
      <trkpt lat="44.31096" lon="3.31649">
        <ele>605</ele>
        <time>2017-03-02T08:18:59Z</time>
      </trkpt>
      <trkpt lat="44.31103" lon="3.3165">
        <ele>606</ele>
        <time>2017-03-02T08:20:59Z</time>
      </trkpt>
      <trkpt lat="44.31105" lon="3.31651">
        <ele>606</ele>
        <time>2017-03-02T08:22:59Z</time>
      </trkpt>
      <trkpt lat="44.31107" lon="3.31653">
        <ele>606</ele>
        <time>2017-03-02T08:24:59Z</time>
      </trkpt>
      <trkpt lat="44.31108" lon="3.31655">
        <ele>606</ele>
        <time>2017-03-02T08:26:59Z</time>
      </trkpt>
      <trkpt lat="44.31109" lon="3.31658">
        <ele>606</ele>
        <time>2017-03-02T08:28:59Z</time>
      </trkpt>
      <trkpt lat="44.31108" lon="3.31662">
        <ele>605</ele>
        <time>2017-03-02T08:30:59Z</time>
      </trkpt>
      <trkpt lat="44.31107" lon="3.31664">
        <ele>605</ele>
        <time>2017-03-02T08:32:59Z</time>
      </trkpt>
      <trkpt lat="44.31105" lon="3.31666">
        <ele>604</ele>
        <time>2017-03-02T08:34:59Z</time>
      </trkpt>
      <trkpt lat="44.31103" lon="3.31667">
        <ele>604</ele>
        <time>2017-03-02T08:36:59Z</time>
      </trkpt>
      <trkpt lat="44.31099" lon="3.31667">
        <ele>604</ele>
        <time>2017-03-02T08:38:59Z</time>
      </trkpt>
      <trkpt lat="44.31083" lon="3.31665">
        <ele>601</ele>
        <time>2017-03-02T08:40:59Z</time>
      </trkpt>
      <trkpt lat="44.31073" lon="3.31666">
        <ele>600</ele>
        <time>2017-03-02T08:42:59Z</time>
      </trkpt>
      <trkpt lat="44.31065" lon="3.31666">
        <ele>598</ele>
        <time>2017-03-02T08:44:59Z</time>
      </trkpt>
      <trkpt lat="44.31044" lon="3.31672">
        <ele>596</ele>
        <time>2017-03-02T08:46:59Z</time>
      </trkpt>
      <trkpt lat="44.31039" lon="3.31673">
        <ele>595</ele>
        <time>2017-03-02T08:48:59Z</time>
      </trkpt>
      <trkpt lat="44.31036" lon="3.31675">
        <ele>595</ele>
        <time>2017-03-02T08:50:59Z</time>
      </trkpt>
      <trkpt lat="44.31033" lon="3.31678">
        <ele>595</ele>
        <time>2017-03-02T08:52:59Z</time>
      </trkpt>
      <trkpt lat="44.31033" lon="3.31685">
        <ele>596</ele>
        <time>2017-03-02T08:54:59Z</time>
      </trkpt>
      <trkpt lat="44.31035" lon="3.31691">
        <ele>597</ele>
        <time>2017-03-02T08:56:59Z</time>
      </trkpt>
      <trkpt lat="44.31037" lon="3.31692">
        <ele>598</ele>
        <time>2017-03-02T08:58:59Z</time>
      </trkpt>
      <trkpt lat="44.3104" lon="3.31692">
        <ele>598</ele>
        <time>2017-03-02T09:00:59Z</time>
      </trkpt>
      <trkpt lat="44.31045" lon="3.3169">
        <ele>599</ele>
        <time>2017-03-02T09:02:59Z</time>
      </trkpt>
      <trkpt lat="44.31051" lon="3.31687">
        <ele>600</ele>
        <time>2017-03-02T09:04:59Z</time>
      </trkpt>
      <trkpt lat="44.31054" lon="3.31686">
        <ele>600</ele>
        <time>2017-03-02T09:06:59Z</time>
      </trkpt>
      <trkpt lat="44.31056" lon="3.31685">
        <ele>600</ele>
        <time>2017-03-02T09:08:59Z</time>
      </trkpt>
      <trkpt lat="44.31074" lon="3.31688">
        <ele>605</ele>
        <time>2017-03-02T09:10:59Z</time>
      </trkpt>
      <trkpt lat="44.31112" lon="3.31699">
        <ele>615</ele>
        <time>2017-03-02T09:12:59Z</time>
      </trkpt>
      <trkpt lat="44.31122" lon="3.31701">
        <ele>617</ele>
        <time>2017-03-02T09:14:59Z</time>
      </trkpt>
      <trkpt lat="44.3114" lon="3.31701">
        <ele>620</ele>
        <time>2017-03-02T09:16:59Z</time>
      </trkpt>
      <trkpt lat="44.31151" lon="3.31699">
        <ele>622</ele>
        <time>2017-03-02T09:18:59Z</time>
      </trkpt>
      <trkpt lat="44.31159" lon="3.31696">
        <ele>622</ele>
        <time>2017-03-02T09:20:59Z</time>
      </trkpt>
      <trkpt lat="44.31165" lon="3.31691">
        <ele>622</ele>
        <time>2017-03-02T09:22:59Z</time>
      </trkpt>
      <trkpt lat="44.31171" lon="3.31684">
        <ele>621</ele>
        <time>2017-03-02T09:24:59Z</time>
      </trkpt>
      <trkpt lat="44.31177" lon="3.31675">
        <ele>620</ele>
        <time>2017-03-02T09:26:59Z</time>
      </trkpt>
      <trkpt lat="44.3118" lon="3.31668">
        <ele>619</ele>
        <time>2017-03-02T09:28:59Z</time>
      </trkpt>
      <trkpt lat="44.31183" lon="3.31659">
        <ele>620</ele>
        <time>2017-03-02T09:30:59Z</time>
      </trkpt>
      <trkpt lat="44.31188" lon="3.31641">
        <ele>620</ele>
        <time>2017-03-02T09:32:59Z</time>
      </trkpt>
      <trkpt lat="44.31193" lon="3.31615">
        <ele>620</ele>
        <time>2017-03-02T09:34:59Z</time>
      </trkpt>
      <trkpt lat="44.31204" lon="3.31582">
        <ele>621</ele>
        <time>2017-03-02T09:36:59Z</time>
      </trkpt>
      <trkpt lat="44.3121" lon="3.31572">
        <ele>624</ele>
        <time>2017-03-02T09:38:59Z</time>
      </trkpt>
      <trkpt lat="44.31216" lon="3.31564">
        <ele>626</ele>
        <time>2017-03-02T09:40:59Z</time>
      </trkpt>
      <trkpt lat="44.31223" lon="3.3156">
        <ele>628</ele>
        <time>2017-03-02T09:42:59Z</time>
      </trkpt>
      <trkpt lat="44.3123" lon="3.31557">
        <ele>629</ele>
        <time>2017-03-02T09:44:59Z</time>
      </trkpt>
      <trkpt lat="44.31238" lon="3.31556">
        <ele>630</ele>
        <time>2017-03-02T09:46:59Z</time>
      </trkpt>
      <trkpt lat="44.31244" lon="3.31557">
        <ele>631</ele>
        <time>2017-03-02T09:48:59Z</time>
      </trkpt>
      <trkpt lat="44.3128" lon="3.31573">
        <ele>637</ele>
        <time>2017-03-02T09:50:59Z</time>
      </trkpt>
      <trkpt lat="44.31288" lon="3.31576">
        <ele>639</ele>
        <time>2017-03-02T09:52:59Z</time>
      </trkpt>
      <trkpt lat="44.31293" lon="3.31577">
        <ele>640</ele>
        <time>2017-03-02T09:54:59Z</time>
      </trkpt>
      <trkpt lat="44.31309" lon="3.31578">
        <ele>643</ele>
        <time>2017-03-02T09:56:59Z</time>
      </trkpt>
      <trkpt lat="44.31321" lon="3.31574">
        <ele>645</ele>
        <time>2017-03-02T09:58:59Z</time>
      </trkpt>
      <trkpt lat="44.31333" lon="3.31567">
        <ele>647</ele>
        <time>2017-03-02T10:00:59Z</time>
      </trkpt>
      <trkpt lat="44.3134" lon="3.31558">
        <ele>647</ele>
        <time>2017-03-02T10:02:59Z</time>
      </trkpt>
      <trkpt lat="44.31348" lon="3.31544">
        <ele>647</ele>
        <time>2017-03-02T10:04:59Z</time>
      </trkpt>
      <trkpt lat="44.31358" lon="3.3152">
        <ele>645</ele>
        <time>2017-03-02T10:06:59Z</time>
      </trkpt>
      <trkpt lat="44.31362" lon="3.31509">
        <ele>644</ele>
        <time>2017-03-02T10:08:59Z</time>
      </trkpt>
      <trkpt lat="44.31372" lon="3.31495">
        <ele>645</ele>
        <time>2017-03-02T10:10:59Z</time>
      </trkpt>
      <trkpt lat="44.31379" lon="3.31489">
        <ele>647</ele>
        <time>2017-03-02T10:12:59Z</time>
      </trkpt>
      <trkpt lat="44.3139" lon="3.31485">
        <ele>649</ele>
        <time>2017-03-02T10:14:59Z</time>
      </trkpt>
      <trkpt lat="44.31396" lon="3.31485">
        <ele>650</ele>
        <time>2017-03-02T10:16:59Z</time>
      </trkpt>
      <trkpt lat="44.31402" lon="3.31488">
        <ele>650</ele>
        <time>2017-03-02T10:18:59Z</time>
      </trkpt>
      <trkpt lat="44.31408" lon="3.31495">
        <ele>650</ele>
        <time>2017-03-02T10:20:59Z</time>
      </trkpt>
      <trkpt lat="44.31413" lon="3.31502">
        <ele>650</ele>
        <time>2017-03-02T10:22:59Z</time>
      </trkpt>
      <trkpt lat="44.31416" lon="3.31512">
        <ele>651</ele>
        <time>2017-03-02T10:24:59Z</time>
      </trkpt>
      <trkpt lat="44.3142" lon="3.31523">
        <ele>653</ele>
        <time>2017-03-02T10:26:59Z</time>
      </trkpt>
      <trkpt lat="44.31427" lon="3.31552">
        <ele>657</ele>
        <time>2017-03-02T10:28:59Z</time>
      </trkpt>
      <trkpt lat="44.3143" lon="3.31561">
        <ele>658</ele>
        <time>2017-03-02T10:30:59Z</time>
      </trkpt>
      <trkpt lat="44.31435" lon="3.3157">
        <ele>659</ele>
        <time>2017-03-02T10:32:59Z</time>
      </trkpt>
      <trkpt lat="44.3144" lon="3.31577">
        <ele>660</ele>
        <time>2017-03-02T10:34:59Z</time>
      </trkpt>
      <trkpt lat="44.31445" lon="3.31583">
        <ele>660</ele>
        <time>2017-03-02T10:36:59Z</time>
      </trkpt>
      <trkpt lat="44.31452" lon="3.31588">
        <ele>662</ele>
        <time>2017-03-02T10:38:59Z</time>
      </trkpt>
      <trkpt lat="44.31458" lon="3.3159">
        <ele>662</ele>
        <time>2017-03-02T10:40:59Z</time>
      </trkpt>
      <trkpt lat="44.31468" lon="3.31592">
        <ele>663</ele>
        <time>2017-03-02T10:42:59Z</time>
      </trkpt>
      <trkpt lat="44.31496" lon="3.31594">
        <ele>664</ele>
        <time>2017-03-02T10:44:59Z</time>
      </trkpt>
      <trkpt lat="44.31513" lon="3.31593">
        <ele>666</ele>
        <time>2017-03-02T10:46:59Z</time>
      </trkpt>
      <trkpt lat="44.3152" lon="3.31592">
        <ele>667</ele>
        <time>2017-03-02T10:48:59Z</time>
      </trkpt>
      <trkpt lat="44.31527" lon="3.31589">
        <ele>668</ele>
        <time>2017-03-02T10:50:59Z</time>
      </trkpt>
      <trkpt lat="44.31535" lon="3.31585">
        <ele>668</ele>
        <time>2017-03-02T10:52:59Z</time>
      </trkpt>
      <trkpt lat="44.31542" lon="3.3158">
        <ele>669</ele>
        <time>2017-03-02T10:54:59Z</time>
      </trkpt>
      <trkpt lat="44.31566" lon="3.31561">
        <ele>675</ele>
        <time>2017-03-02T10:56:59Z</time>
      </trkpt>
      <trkpt lat="44.31577" lon="3.31555">
        <ele>678</ele>
        <time>2017-03-02T10:58:59Z</time>
      </trkpt>
      <trkpt lat="44.31584" lon="3.31552">
        <ele>679</ele>
        <time>2017-03-02T11:00:59Z</time>
      </trkpt>
      <trkpt lat="44.31595" lon="3.31549">
        <ele>679</ele>
        <time>2017-03-02T11:02:59Z</time>
      </trkpt>
      <trkpt lat="44.31606" lon="3.31547">
        <ele>679</ele>
        <time>2017-03-02T11:04:59Z</time>
      </trkpt>
      <trkpt lat="44.31619" lon="3.31544">
        <ele>679</ele>
        <time>2017-03-02T11:06:59Z</time>
      </trkpt>
      <trkpt lat="44.31631" lon="3.3154">
        <ele>679</ele>
        <time>2017-03-02T11:08:59Z</time>
      </trkpt>
      <trkpt lat="44.31653" lon="3.31531">
        <ele>679</ele>
        <time>2017-03-02T11:10:59Z</time>
      </trkpt>
      <trkpt lat="44.31683" lon="3.3152">
        <ele>678</ele>
        <time>2017-03-02T11:12:59Z</time>
      </trkpt>
      <trkpt lat="44.31736" lon="3.315">
        <ele>678</ele>
        <time>2017-03-02T11:14:59Z</time>
      </trkpt>
      <trkpt lat="44.31765" lon="3.31494">
        <ele>680</ele>
        <time>2017-03-02T11:16:59Z</time>
      </trkpt>
      <trkpt lat="44.31801" lon="3.31491">
        <ele>683</ele>
        <time>2017-03-02T11:18:59Z</time>
      </trkpt>
      <trkpt lat="44.31836" lon="3.31489">
        <ele>686</ele>
        <time>2017-03-02T11:20:59Z</time>
      </trkpt>
      <trkpt lat="44.31864" lon="3.31485">
        <ele>689</ele>
        <time>2017-03-02T11:22:59Z</time>
      </trkpt>
      <trkpt lat="44.31878" lon="3.31485">
        <ele>691</ele>
        <time>2017-03-02T11:24:59Z</time>
      </trkpt>
      <trkpt lat="44.31891" lon="3.31484">
        <ele>692</ele>
        <time>2017-03-02T11:26:59Z</time>
      </trkpt>
      <trkpt lat="44.319" lon="3.31484">
        <ele>693</ele>
        <time>2017-03-02T11:28:59Z</time>
      </trkpt>
      <trkpt lat="44.3191" lon="3.31482">
        <ele>694</ele>
        <time>2017-03-02T11:30:59Z</time>
      </trkpt>
      <trkpt lat="44.31921" lon="3.31477">
        <ele>695</ele>
        <time>2017-03-02T11:32:59Z</time>
      </trkpt>
      <trkpt lat="44.31939" lon="3.31471">
        <ele>697</ele>
        <time>2017-03-02T11:34:59Z</time>
      </trkpt>
      <trkpt lat="44.32016" lon="3.31435">
        <ele>699</ele>
        <time>2017-03-02T11:36:59Z</time>
      </trkpt>
      <trkpt lat="44.32047" lon="3.31422">
        <ele>698</ele>
        <time>2017-03-02T11:38:59Z</time>
      </trkpt>
      <trkpt lat="44.32059" lon="3.31415">
        <ele>698</ele>
        <time>2017-03-02T11:40:59Z</time>
      </trkpt>
      <trkpt lat="44.32093" lon="3.31394">
        <ele>702</ele>
        <time>2017-03-02T11:42:59Z</time>
      </trkpt>
      <trkpt lat="44.32105" lon="3.3139">
        <ele>704</ele>
        <time>2017-03-02T11:44:59Z</time>
      </trkpt>
      <trkpt lat="44.32109" lon="3.3139">
        <ele>705</ele>
        <time>2017-03-02T11:46:59Z</time>
      </trkpt>
      <trkpt lat="44.32115" lon="3.31391">
        <ele>705</ele>
        <time>2017-03-02T11:48:59Z</time>
      </trkpt>
      <trkpt lat="44.3212" lon="3.31393">
        <ele>705</ele>
        <time>2017-03-02T11:50:59Z</time>
      </trkpt>
      <trkpt lat="44.32125" lon="3.31396">
        <ele>705</ele>
        <time>2017-03-02T11:52:59Z</time>
      </trkpt>
      <trkpt lat="44.3213" lon="3.314">
        <ele>705</ele>
        <time>2017-03-02T11:54:59Z</time>
      </trkpt>
      <trkpt lat="44.32138" lon="3.3141">
        <ele>704</ele>
        <time>2017-03-02T11:56:59Z</time>
      </trkpt>
      <trkpt lat="44.32156" lon="3.31436">
        <ele>708</ele>
        <time>2017-03-02T11:58:59Z</time>
      </trkpt>
      <trkpt lat="44.3216" lon="3.31439">
        <ele>708</ele>
        <time>2017-03-02T12:00:59Z</time>
      </trkpt>
      <trkpt lat="44.32164" lon="3.31441">
        <ele>709</ele>
        <time>2017-03-02T12:02:59Z</time>
      </trkpt>
      <trkpt lat="44.32169" lon="3.31443">
        <ele>709</ele>
        <time>2017-03-02T12:04:59Z</time>
      </trkpt>
      <trkpt lat="44.32173" lon="3.31444">
        <ele>710</ele>
        <time>2017-03-02T12:06:59Z</time>
      </trkpt>
      <trkpt lat="44.32177" lon="3.31444">
        <ele>710</ele>
        <time>2017-03-02T12:08:59Z</time>
      </trkpt>
      <trkpt lat="44.32182" lon="3.31443">
        <ele>711</ele>
        <time>2017-03-02T12:10:59Z</time>
      </trkpt>
      <trkpt lat="44.32193" lon="3.31439">
        <ele>712</ele>
        <time>2017-03-02T12:12:59Z</time>
      </trkpt>
      <trkpt lat="44.32203" lon="3.31434">
        <ele>712</ele>
        <time>2017-03-02T12:14:59Z</time>
      </trkpt>
      <trkpt lat="44.32218" lon="3.31424">
        <ele>712</ele>
        <time>2017-03-02T12:16:59Z</time>
      </trkpt>
      <trkpt lat="44.32244" lon="3.31415">
        <ele>714</ele>
        <time>2017-03-02T12:18:59Z</time>
      </trkpt>
      <trkpt lat="44.32258" lon="3.31411">
        <ele>716</ele>
        <time>2017-03-02T12:20:59Z</time>
      </trkpt>
      <trkpt lat="44.32267" lon="3.31408">
        <ele>716</ele>
        <time>2017-03-02T12:22:59Z</time>
      </trkpt>
      <trkpt lat="44.32278" lon="3.31405">
        <ele>718</ele>
        <time>2017-03-02T12:24:59Z</time>
      </trkpt>
      <trkpt lat="44.32296" lon="3.31401">
        <ele>719</ele>
        <time>2017-03-02T12:26:59Z</time>
      </trkpt>
      <trkpt lat="44.32362" lon="3.31389">
        <ele>724</ele>
        <time>2017-03-02T12:28:59Z</time>
      </trkpt>
      <trkpt lat="44.32385" lon="3.31386">
        <ele>726</ele>
        <time>2017-03-02T12:30:59Z</time>
      </trkpt>
      <trkpt lat="44.32412" lon="3.31384">
        <ele>728</ele>
        <time>2017-03-02T12:32:59Z</time>
      </trkpt>
      <trkpt lat="44.32438" lon="3.31381">
        <ele>729</ele>
        <time>2017-03-02T12:34:59Z</time>
      </trkpt>
      <trkpt lat="44.32451" lon="3.31378">
        <ele>730</ele>
        <time>2017-03-02T12:36:59Z</time>
      </trkpt>
      <trkpt lat="44.32462" lon="3.31375">
        <ele>731</ele>
        <time>2017-03-02T12:38:59Z</time>
      </trkpt>
      <trkpt lat="44.32491" lon="3.31365">
        <ele>732</ele>
        <time>2017-03-02T12:40:59Z</time>
      </trkpt>
      <trkpt lat="44.32515" lon="3.31358">
        <ele>734</ele>
        <time>2017-03-02T12:42:59Z</time>
      </trkpt>
      <trkpt lat="44.32527" lon="3.31355">
        <ele>735</ele>
        <time>2017-03-02T12:44:59Z</time>
      </trkpt>
      <trkpt lat="44.32536" lon="3.31354">
        <ele>736</ele>
        <time>2017-03-02T12:46:59Z</time>
      </trkpt>
      <trkpt lat="44.32553" lon="3.31354">
        <ele>737</ele>
        <time>2017-03-02T12:48:59Z</time>
      </trkpt>
      <trkpt lat="44.32563" lon="3.31355">
        <ele>738</ele>
        <time>2017-03-02T12:50:59Z</time>
      </trkpt>
      <trkpt lat="44.32585" lon="3.31358">
        <ele>740</ele>
        <time>2017-03-02T12:52:59Z</time>
      </trkpt>
      <trkpt lat="44.32626" lon="3.31366">
        <ele>742</ele>
        <time>2017-03-02T12:54:59Z</time>
      </trkpt>
      <trkpt lat="44.32643" lon="3.3137">
        <ele>743</ele>
        <time>2017-03-02T12:56:59Z</time>
      </trkpt>
      <trkpt lat="44.32659" lon="3.31375">
        <ele>744</ele>
        <time>2017-03-02T12:58:59Z</time>
      </trkpt>
      <trkpt lat="44.32666" lon="3.31376">
        <ele>744</ele>
        <time>2017-03-02T13:00:59Z</time>
      </trkpt>
      <trkpt lat="44.32673" lon="3.31378">
        <ele>744</ele>
        <time>2017-03-02T13:02:59Z</time>
      </trkpt>
      <trkpt lat="44.327" lon="3.31388">
        <ele>746</ele>
        <time>2017-03-02T13:04:59Z</time>
      </trkpt>
      <trkpt lat="44.32712" lon="3.31387">
        <ele>747</ele>
        <time>2017-03-02T13:06:59Z</time>
      </trkpt>
      <trkpt lat="44.32779" lon="3.31383">
        <ele>750</ele>
        <time>2017-03-02T13:08:59Z</time>
      </trkpt>
      <trkpt lat="44.32806" lon="3.3138">
        <ele>752</ele>
        <time>2017-03-02T13:10:59Z</time>
      </trkpt>
      <trkpt lat="44.32831" lon="3.31376">
        <ele>754</ele>
        <time>2017-03-02T13:12:59Z</time>
      </trkpt>
      <trkpt lat="44.32846" lon="3.3137">
        <ele>755</ele>
        <time>2017-03-02T13:14:59Z</time>
      </trkpt>
      <trkpt lat="44.32862" lon="3.31363">
        <ele>757</ele>
        <time>2017-03-02T13:16:59Z</time>
      </trkpt>
      <trkpt lat="44.32876" lon="3.31352">
        <ele>758</ele>
        <time>2017-03-02T13:18:59Z</time>
      </trkpt>
      <trkpt lat="44.32888" lon="3.3134">
        <ele>757</ele>
        <time>2017-03-02T13:20:59Z</time>
      </trkpt>
      <trkpt lat="44.32895" lon="3.31329">
        <ele>757</ele>
        <time>2017-03-02T13:22:59Z</time>
      </trkpt>
      <trkpt lat="44.32914" lon="3.31287">
        <ele>759</ele>
        <time>2017-03-02T13:24:59Z</time>
      </trkpt>
      <trkpt lat="44.32924" lon="3.31264">
        <ele>759</ele>
        <time>2017-03-02T13:26:59Z</time>
      </trkpt>
      <trkpt lat="44.32934" lon="3.31264">
        <ele>760</ele>
        <time>2017-03-02T13:28:59Z</time>
      </trkpt>
      <trkpt lat="44.32944" lon="3.31266">
        <ele>760</ele>
        <time>2017-03-02T13:30:59Z</time>
      </trkpt>
      <trkpt lat="44.32964" lon="3.31268">
        <ele>761</ele>
        <time>2017-03-02T13:32:59Z</time>
      </trkpt>
      <trkpt lat="44.33" lon="3.31275">
        <ele>763</ele>
        <time>2017-03-02T13:34:59Z</time>
      </trkpt>
      <trkpt lat="44.33011" lon="3.31275">
        <ele>765</ele>
        <time>2017-03-02T13:36:59Z</time>
      </trkpt>
      <trkpt lat="44.3303" lon="3.31274">
        <ele>767</ele>
        <time>2017-03-02T13:38:59Z</time>
      </trkpt>
      <trkpt lat="44.33051" lon="3.31275">
        <ele>770</ele>
        <time>2017-03-02T13:40:59Z</time>
      </trkpt>
      <trkpt lat="44.33069" lon="3.31277">
        <ele>772</ele>
        <time>2017-03-02T13:42:59Z</time>
      </trkpt>
      <trkpt lat="44.33081" lon="3.31277">
        <ele>774</ele>
        <time>2017-03-02T13:44:59Z</time>
      </trkpt>
      <trkpt lat="44.33096" lon="3.31272">
        <ele>775</ele>
        <time>2017-03-02T13:46:59Z</time>
      </trkpt>
      <trkpt lat="44.33114" lon="3.31264">
        <ele>776</ele>
        <time>2017-03-02T13:48:59Z</time>
      </trkpt>
      <trkpt lat="44.33142" lon="3.3125">
        <ele>778</ele>
        <time>2017-03-02T13:50:59Z</time>
      </trkpt>
      <trkpt lat="44.33167" lon="3.3124">
        <ele>782</ele>
        <time>2017-03-02T13:52:59Z</time>
      </trkpt>
      <trkpt lat="44.33185" lon="3.31235">
        <ele>784</ele>
        <time>2017-03-02T13:54:59Z</time>
      </trkpt>
      <trkpt lat="44.332" lon="3.31232">
        <ele>785</ele>
        <time>2017-03-02T13:56:59Z</time>
      </trkpt>
      <trkpt lat="44.33214" lon="3.31233">
        <ele>786</ele>
        <time>2017-03-02T13:58:59Z</time>
      </trkpt>
      <trkpt lat="44.33224" lon="3.31236">
        <ele>785</ele>
        <time>2017-03-02T14:00:59Z</time>
      </trkpt>
      <trkpt lat="44.33245" lon="3.31252">
        <ele>784</ele>
        <time>2017-03-02T14:02:59Z</time>
      </trkpt>
      <trkpt lat="44.3327" lon="3.31269">
        <ele>788</ele>
        <time>2017-03-02T14:04:59Z</time>
      </trkpt>
      <trkpt lat="44.33278" lon="3.31275">
        <ele>790</ele>
        <time>2017-03-02T14:06:59Z</time>
      </trkpt>
      <trkpt lat="44.3329" lon="3.3128">
        <ele>791</ele>
        <time>2017-03-02T14:08:59Z</time>
      </trkpt>
      <trkpt lat="44.33301" lon="3.3128">
        <ele>792</ele>
        <time>2017-03-02T14:10:59Z</time>
      </trkpt>
      <trkpt lat="44.33329" lon="3.31275">
        <ele>795</ele>
        <time>2017-03-02T14:12:59Z</time>
      </trkpt>
      <trkpt lat="44.3334" lon="3.31274">
        <ele>795</ele>
        <time>2017-03-02T14:14:59Z</time>
      </trkpt>
      <trkpt lat="44.33349" lon="3.31274">
        <ele>795</ele>
        <time>2017-03-02T14:16:59Z</time>
      </trkpt>
      <trkpt lat="44.33357" lon="3.31279">
        <ele>796</ele>
        <time>2017-03-02T14:18:59Z</time>
      </trkpt>
      <trkpt lat="44.33363" lon="3.31282">
        <ele>796</ele>
        <time>2017-03-02T14:20:59Z</time>
      </trkpt>
      <trkpt lat="44.3337" lon="3.31293">
        <ele>796</ele>
        <time>2017-03-02T14:22:59Z</time>
      </trkpt>
      <trkpt lat="44.33379" lon="3.31302">
        <ele>796</ele>
        <time>2017-03-02T14:24:59Z</time>
      </trkpt>
      <trkpt lat="44.33389" lon="3.31308">
        <ele>796</ele>
        <time>2017-03-02T14:26:59Z</time>
      </trkpt>
      <trkpt lat="44.33399" lon="3.31311">
        <ele>796</ele>
        <time>2017-03-02T14:28:59Z</time>
      </trkpt>
      <trkpt lat="44.33403" lon="3.31314">
        <ele>796</ele>
        <time>2017-03-02T14:30:59Z</time>
      </trkpt>
      <trkpt lat="44.33404" lon="3.31319">
        <ele>796</ele>
        <time>2017-03-02T14:32:59Z</time>
      </trkpt>
      <trkpt lat="44.33404" lon="3.31331">
        <ele>796</ele>
        <time>2017-03-02T14:34:59Z</time>
      </trkpt>
      <trkpt lat="44.33406" lon="3.31342">
        <ele>797</ele>
        <time>2017-03-02T14:36:59Z</time>
      </trkpt>
      <trkpt lat="44.33406" lon="3.31352">
        <ele>799</ele>
        <time>2017-03-02T14:38:59Z</time>
      </trkpt>
      <trkpt lat="44.33405" lon="3.31361">
        <ele>800</ele>
        <time>2017-03-02T14:40:59Z</time>
      </trkpt>
      <trkpt lat="44.33403" lon="3.31367">
        <ele>800</ele>
        <time>2017-03-02T14:42:59Z</time>
      </trkpt>
      <trkpt lat="44.334" lon="3.31371">
        <ele>801</ele>
        <time>2017-03-02T14:44:59Z</time>
      </trkpt>
      <trkpt lat="44.33399" lon="3.31381">
        <ele>803</ele>
        <time>2017-03-02T14:46:59Z</time>
      </trkpt>
      <trkpt lat="44.33397" lon="3.31394">
        <ele>804</ele>
        <time>2017-03-02T14:48:59Z</time>
      </trkpt>
      <trkpt lat="44.33396" lon="3.31404">
        <ele>806</ele>
        <time>2017-03-02T14:50:59Z</time>
      </trkpt>
      <trkpt lat="44.33396" lon="3.31412">
        <ele>807</ele>
        <time>2017-03-02T14:52:59Z</time>
      </trkpt>
      <trkpt lat="44.33404" lon="3.31434">
        <ele>809</ele>
        <time>2017-03-02T14:54:59Z</time>
      </trkpt>
      <trkpt lat="44.33409" lon="3.31446">
        <ele>810</ele>
        <time>2017-03-02T14:56:59Z</time>
      </trkpt>
      <trkpt lat="44.33411" lon="3.31453">
        <ele>811</ele>
        <time>2017-03-02T14:58:59Z</time>
      </trkpt>
      <trkpt lat="44.33412" lon="3.31458">
        <ele>812</ele>
        <time>2017-03-02T15:00:59Z</time>
      </trkpt>
      <trkpt lat="44.3341" lon="3.31465">
        <ele>813</ele>
        <time>2017-03-02T15:02:59Z</time>
      </trkpt>
      <trkpt lat="44.33409" lon="3.31476">
        <ele>815</ele>
        <time>2017-03-02T15:04:59Z</time>
      </trkpt>
      <trkpt lat="44.33409" lon="3.31488">
        <ele>817</ele>
        <time>2017-03-02T15:06:59Z</time>
      </trkpt>
      <trkpt lat="44.33411" lon="3.3151">
        <ele>820</ele>
        <time>2017-03-02T15:08:59Z</time>
      </trkpt>
      <trkpt lat="44.33412" lon="3.31516">
        <ele>820</ele>
        <time>2017-03-02T15:10:59Z</time>
      </trkpt>
      <trkpt lat="44.33416" lon="3.31521">
        <ele>820</ele>
        <time>2017-03-02T15:12:59Z</time>
      </trkpt>
      <trkpt lat="44.33423" lon="3.31529">
        <ele>821</ele>
        <time>2017-03-02T15:14:59Z</time>
      </trkpt>
      <trkpt lat="44.33431" lon="3.31537">
        <ele>823</ele>
        <time>2017-03-02T15:16:59Z</time>
      </trkpt>
      <trkpt lat="44.33435" lon="3.31538">
        <ele>823</ele>
        <time>2017-03-02T15:18:59Z</time>
      </trkpt>
      <trkpt lat="44.33442" lon="3.31539">
        <ele>824</ele>
        <time>2017-03-02T15:20:59Z</time>
      </trkpt>
      <trkpt lat="44.33449" lon="3.31539">
        <ele>824</ele>
        <time>2017-03-02T15:22:59Z</time>
      </trkpt>
      <trkpt lat="44.33442" lon="3.3156">
        <ele>826</ele>
        <time>2017-03-02T15:24:59Z</time>
      </trkpt>
      <trkpt lat="44.33432" lon="3.31581">
        <ele>827</ele>
        <time>2017-03-02T15:26:59Z</time>
      </trkpt>
      <trkpt lat="44.33418" lon="3.31605">
        <ele>828</ele>
        <time>2017-03-02T15:28:59Z</time>
      </trkpt>
      <trkpt lat="44.33405" lon="3.31632">
        <ele>830</ele>
        <time>2017-03-02T15:30:59Z</time>
      </trkpt>
      <trkpt lat="44.33396" lon="3.31657">
        <ele>832</ele>
        <time>2017-03-02T15:32:59Z</time>
      </trkpt>
      <trkpt lat="44.33389" lon="3.3168">
        <ele>834</ele>
        <time>2017-03-02T15:34:59Z</time>
      </trkpt>
      <trkpt lat="44.33382" lon="3.31704">
        <ele>836</ele>
        <time>2017-03-02T15:36:59Z</time>
      </trkpt>
      <trkpt lat="44.33372" lon="3.31734">
        <ele>839</ele>
        <time>2017-03-02T15:38:59Z</time>
      </trkpt>
      <trkpt lat="44.33364" lon="3.31745">
        <ele>840</ele>
        <time>2017-03-02T15:40:59Z</time>
      </trkpt>
      <trkpt lat="44.33352" lon="3.31758">
        <ele>840</ele>
        <time>2017-03-02T15:42:59Z</time>
      </trkpt>
      <trkpt lat="44.33344" lon="3.31772">
        <ele>842</ele>
        <time>2017-03-02T15:44:59Z</time>
      </trkpt>
      <trkpt lat="44.3333" lon="3.31795">
        <ele>845</ele>
        <time>2017-03-02T15:46:59Z</time>
      </trkpt>
      <trkpt lat="44.33315" lon="3.31817">
        <ele>848</ele>
        <time>2017-03-02T15:48:59Z</time>
      </trkpt>
      <trkpt lat="44.33302" lon="3.31839">
        <ele>850</ele>
        <time>2017-03-02T15:50:59Z</time>
      </trkpt>
      <trkpt lat="44.33293" lon="3.31842">
        <ele>850</ele>
        <time>2017-03-02T15:52:59Z</time>
      </trkpt>
      <trkpt lat="44.33277" lon="3.31849">
        <ele>850</ele>
        <time>2017-03-02T15:54:59Z</time>
      </trkpt>
      <trkpt lat="44.33267" lon="3.31856">
        <ele>850</ele>
        <time>2017-03-02T15:56:59Z</time>
      </trkpt>
      <trkpt lat="44.33257" lon="3.31865">
        <ele>850</ele>
        <time>2017-03-02T15:58:59Z</time>
      </trkpt>
      <trkpt lat="44.33245" lon="3.31875">
        <ele>850</ele>
        <time>2017-03-02T16:00:59Z</time>
      </trkpt>
      <trkpt lat="44.33235" lon="3.31884">
        <ele>850</ele>
        <time>2017-03-02T16:02:59Z</time>
      </trkpt>
      <trkpt lat="44.3323" lon="3.3189">
        <ele>850</ele>
        <time>2017-03-02T16:04:59Z</time>
      </trkpt>
      <trkpt lat="44.33229" lon="3.31898">
        <ele>850</ele>
        <time>2017-03-02T16:06:59Z</time>
      </trkpt>
      <trkpt lat="44.33229" lon="3.31909">
        <ele>850</ele>
        <time>2017-03-02T16:08:59Z</time>
      </trkpt>
      <trkpt lat="44.33231" lon="3.3192">
        <ele>850</ele>
        <time>2017-03-02T16:10:59Z</time>
      </trkpt>
      <trkpt lat="44.33233" lon="3.31943">
        <ele>849</ele>
        <time>2017-03-02T16:12:59Z</time>
      </trkpt>
      <trkpt lat="44.33236" lon="3.31955">
        <ele>848</ele>
        <time>2017-03-02T16:14:59Z</time>
      </trkpt>
      <trkpt lat="44.33251" lon="3.31995">
        <ele>848</ele>
        <time>2017-03-02T16:16:59Z</time>
      </trkpt>
      <trkpt lat="44.3326" lon="3.32021">
        <ele>848</ele>
        <time>2017-03-02T16:18:59Z</time>
      </trkpt>
      <trkpt lat="44.33266" lon="3.32028">
        <ele>848</ele>
        <time>2017-03-02T16:20:59Z</time>
      </trkpt>
      <trkpt lat="44.33275" lon="3.3204">
        <ele>848</ele>
        <time>2017-03-02T16:22:59Z</time>
      </trkpt>
      <trkpt lat="44.33283" lon="3.32054">
        <ele>848</ele>
        <time>2017-03-02T16:24:59Z</time>
      </trkpt>
      <trkpt lat="44.33309" lon="3.3212">
        <ele>845</ele>
        <time>2017-03-02T16:26:59Z</time>
      </trkpt>
      <trkpt lat="44.33316" lon="3.3215">
        <ele>844</ele>
        <time>2017-03-02T16:28:59Z</time>
      </trkpt>
      <trkpt lat="44.33317" lon="3.32152">
        <ele>844</ele>
        <time>2017-03-02T16:30:59Z</time>
      </trkpt>
      <trkpt lat="44.33322" lon="3.32165">
        <ele>844</ele>
        <time>2017-03-02T16:32:59Z</time>
      </trkpt>
      <trkpt lat="44.33332" lon="3.32184">
        <ele>844</ele>
        <time>2017-03-02T16:34:59Z</time>
      </trkpt>
      <trkpt lat="44.3334" lon="3.32198">
        <ele>844</ele>
        <time>2017-03-02T16:36:59Z</time>
      </trkpt>
      <trkpt lat="44.33353" lon="3.32219">
        <ele>845</ele>
        <time>2017-03-02T16:38:59Z</time>
      </trkpt>
      <trkpt lat="44.33366" lon="3.32242">
        <ele>845</ele>
        <time>2017-03-02T16:40:59Z</time>
      </trkpt>
      <trkpt lat="44.33382" lon="3.32271">
        <ele>845</ele>
        <time>2017-03-02T16:42:59Z</time>
      </trkpt>
      <trkpt lat="44.33392" lon="3.32292">
        <ele>845</ele>
        <time>2017-03-02T16:44:59Z</time>
      </trkpt>
      <trkpt lat="44.33401" lon="3.32306">
        <ele>845</ele>
        <time>2017-03-02T16:46:59Z</time>
      </trkpt>
      <trkpt lat="44.33408" lon="3.3232">
        <ele>844</ele>
        <time>2017-03-02T16:48:59Z</time>
      </trkpt>
      <trkpt lat="44.33413" lon="3.32334">
        <ele>844</ele>
        <time>2017-03-02T16:50:59Z</time>
      </trkpt>
      <trkpt lat="44.3342" lon="3.32359">
        <ele>844</ele>
        <time>2017-03-02T16:52:59Z</time>
      </trkpt>
      <trkpt lat="44.33424" lon="3.32369">
        <ele>844</ele>
        <time>2017-03-02T16:54:59Z</time>
      </trkpt>
      <trkpt lat="44.33426" lon="3.32378">
        <ele>844</ele>
        <time>2017-03-02T16:56:59Z</time>
      </trkpt>
      <trkpt lat="44.33426" lon="3.32392">
        <ele>844</ele>
        <time>2017-03-02T16:58:59Z</time>
      </trkpt>
      <trkpt lat="44.33425" lon="3.32407">
        <ele>843</ele>
        <time>2017-03-02T17:00:59Z</time>
      </trkpt>
      <trkpt lat="44.3342" lon="3.32422">
        <ele>842</ele>
        <time>2017-03-02T17:02:59Z</time>
      </trkpt>
      <trkpt lat="44.33417" lon="3.32435">
        <ele>842</ele>
        <time>2017-03-02T17:04:59Z</time>
      </trkpt>
      <trkpt lat="44.33416" lon="3.32445">
        <ele>842</ele>
        <time>2017-03-02T17:06:59Z</time>
      </trkpt>
      <trkpt lat="44.33418" lon="3.32455">
        <ele>843</ele>
        <time>2017-03-02T17:08:59Z</time>
      </trkpt>
      <trkpt lat="44.33423" lon="3.32472">
        <ele>843</ele>
        <time>2017-03-02T17:10:59Z</time>
      </trkpt>
      <trkpt lat="44.33429" lon="3.32491">
        <ele>844</ele>
        <time>2017-03-02T17:12:59Z</time>
      </trkpt>
      <trkpt lat="44.33433" lon="3.32505">
        <ele>845</ele>
        <time>2017-03-02T17:14:59Z</time>
      </trkpt>
      <trkpt lat="44.33438" lon="3.32526">
        <ele>845</ele>
        <time>2017-03-02T17:16:59Z</time>
      </trkpt>
      <trkpt lat="44.33448" lon="3.32564">
        <ele>846</ele>
        <time>2017-03-02T17:18:59Z</time>
      </trkpt>
      <trkpt lat="44.33461" lon="3.32608">
        <ele>845</ele>
        <time>2017-03-02T17:20:59Z</time>
      </trkpt>
      <trkpt lat="44.33465" lon="3.32617">
        <ele>845</ele>
        <time>2017-03-02T17:22:59Z</time>
      </trkpt>
      <trkpt lat="44.3347" lon="3.32627">
        <ele>844</ele>
        <time>2017-03-02T17:24:59Z</time>
      </trkpt>
      <trkpt lat="44.33483" lon="3.32645">
        <ele>843</ele>
        <time>2017-03-02T17:26:59Z</time>
      </trkpt>
      <trkpt lat="44.33494" lon="3.32663">
        <ele>842</ele>
        <time>2017-03-02T17:28:59Z</time>
      </trkpt>
      <trkpt lat="44.33501" lon="3.32673">
        <ele>842</ele>
        <time>2017-03-02T17:30:59Z</time>
      </trkpt>
      <trkpt lat="44.33517" lon="3.32693">
        <ele>842</ele>
        <time>2017-03-02T17:32:59Z</time>
      </trkpt>
      <trkpt lat="44.33525" lon="3.32707">
        <ele>842</ele>
        <time>2017-03-02T17:34:59Z</time>
      </trkpt>
      <trkpt lat="44.33528" lon="3.32715">
        <ele>842</ele>
        <time>2017-03-02T17:36:59Z</time>
      </trkpt>
      <trkpt lat="44.3353" lon="3.32724">
        <ele>842</ele>
        <time>2017-03-02T17:38:59Z</time>
      </trkpt>
      <trkpt lat="44.33532" lon="3.32742">
        <ele>841</ele>
        <time>2017-03-02T17:40:59Z</time>
      </trkpt>
      <trkpt lat="44.33532" lon="3.3278">
        <ele>842</ele>
        <time>2017-03-02T17:42:59Z</time>
      </trkpt>
      <trkpt lat="44.33533" lon="3.32796">
        <ele>842</ele>
        <time>2017-03-02T17:44:59Z</time>
      </trkpt>
      <trkpt lat="44.33535" lon="3.32816">
        <ele>843</ele>
        <time>2017-03-02T17:46:59Z</time>
      </trkpt>
      <trkpt lat="44.3354" lon="3.32847">
        <ele>845</ele>
        <time>2017-03-02T17:48:59Z</time>
      </trkpt>
      <trkpt lat="44.33545" lon="3.32866">
        <ele>846</ele>
        <time>2017-03-02T17:50:59Z</time>
      </trkpt>
      <trkpt lat="44.3355" lon="3.32882">
        <ele>848</ele>
        <time>2017-03-02T17:52:59Z</time>
      </trkpt>
      <trkpt lat="44.33567" lon="3.32922">
        <ele>851</ele>
        <time>2017-03-02T17:54:59Z</time>
      </trkpt>
      <trkpt lat="44.33572" lon="3.32926">
        <ele>852</ele>
        <time>2017-03-02T17:56:59Z</time>
      </trkpt>
      <trkpt lat="44.33576" lon="3.32928">
        <ele>852</ele>
        <time>2017-03-02T17:58:59Z</time>
      </trkpt>
      <trkpt lat="44.3358" lon="3.32935">
        <ele>853</ele>
        <time>2017-03-02T18:00:59Z</time>
      </trkpt>
      <trkpt lat="44.33583" lon="3.32942">
        <ele>853</ele>
        <time>2017-03-02T18:02:59Z</time>
      </trkpt>
      <trkpt lat="44.33584" lon="3.32951">
        <ele>854</ele>
        <time>2017-03-02T18:04:59Z</time>
      </trkpt>
      <trkpt lat="44.33587" lon="3.32958">
        <ele>854</ele>
        <time>2017-03-02T18:06:59Z</time>
      </trkpt>
      <trkpt lat="44.3359" lon="3.32967">
        <ele>855</ele>
        <time>2017-03-02T18:08:59Z</time>
      </trkpt>
      <trkpt lat="44.33594" lon="3.32977">
        <ele>855</ele>
        <time>2017-03-02T18:10:59Z</time>
      </trkpt>
      <trkpt lat="44.336" lon="3.32994">
        <ele>856</ele>
        <time>2017-03-02T18:12:59Z</time>
      </trkpt>
      <trkpt lat="44.33606" lon="3.33004">
        <ele>857</ele>
        <time>2017-03-02T18:14:59Z</time>
      </trkpt>
      <trkpt lat="44.33613" lon="3.33014">
        <ele>857</ele>
        <time>2017-03-02T18:16:59Z</time>
      </trkpt>
      <trkpt lat="44.33617" lon="3.33021">
        <ele>858</ele>
        <time>2017-03-02T18:18:59Z</time>
      </trkpt>
      <trkpt lat="44.33622" lon="3.33037">
        <ele>858</ele>
        <time>2017-03-02T18:20:59Z</time>
      </trkpt>
      <trkpt lat="44.33628" lon="3.33051">
        <ele>859</ele>
        <time>2017-03-02T18:22:59Z</time>
      </trkpt>
      <trkpt lat="44.33632" lon="3.33061">
        <ele>860</ele>
        <time>2017-03-02T18:24:59Z</time>
      </trkpt>
      <trkpt lat="44.33634" lon="3.33084">
        <ele>862</ele>
        <time>2017-03-02T18:26:59Z</time>
      </trkpt>
      <trkpt lat="44.33632" lon="3.33118">
        <ele>863</ele>
        <time>2017-03-02T18:28:59Z</time>
      </trkpt>
      <trkpt lat="44.3363" lon="3.33129">
        <ele>864</ele>
        <time>2017-03-02T18:30:59Z</time>
      </trkpt>
      <trkpt lat="44.33626" lon="3.33146">
        <ele>864</ele>
        <time>2017-03-02T18:32:59Z</time>
      </trkpt>
      <trkpt lat="44.3362" lon="3.33169">
        <ele>865</ele>
        <time>2017-03-02T18:34:59Z</time>
      </trkpt>
      <trkpt lat="44.3361" lon="3.33197">
        <ele>867</ele>
        <time>2017-03-02T18:36:59Z</time>
      </trkpt>
      <trkpt lat="44.33606" lon="3.33211">
        <ele>868</ele>
        <time>2017-03-02T18:38:59Z</time>
      </trkpt>
      <trkpt lat="44.33604" lon="3.33222">
        <ele>869</ele>
        <time>2017-03-02T18:40:59Z</time>
      </trkpt>
      <trkpt lat="44.33603" lon="3.3323">
        <ele>870</ele>
        <time>2017-03-02T18:42:59Z</time>
      </trkpt>
      <trkpt lat="44.33604" lon="3.33243">
        <ele>872</ele>
        <time>2017-03-02T18:44:59Z</time>
      </trkpt>
      <trkpt lat="44.33604" lon="3.33258">
        <ele>873</ele>
        <time>2017-03-02T18:46:59Z</time>
      </trkpt>
      <trkpt lat="44.33603" lon="3.33274">
        <ele>875</ele>
        <time>2017-03-02T18:48:59Z</time>
      </trkpt>
      <trkpt lat="44.33601" lon="3.33284">
        <ele>875</ele>
        <time>2017-03-02T18:50:59Z</time>
      </trkpt>
      <trkpt lat="44.33591" lon="3.33313">
        <ele>877</ele>
        <time>2017-03-02T18:52:59Z</time>
      </trkpt>
      <trkpt lat="44.33588" lon="3.33326">
        <ele>878</ele>
        <time>2017-03-02T18:54:59Z</time>
      </trkpt>
      <trkpt lat="44.33583" lon="3.33346">
        <ele>879</ele>
        <time>2017-03-02T18:56:59Z</time>
      </trkpt>
      <trkpt lat="44.33582" lon="3.33357">
        <ele>880</ele>
        <time>2017-03-02T18:58:59Z</time>
      </trkpt>
      <trkpt lat="44.33582" lon="3.33376">
        <ele>881</ele>
        <time>2017-03-02T19:00:59Z</time>
      </trkpt>
      <trkpt lat="44.33584" lon="3.33374">
        <ele>881</ele>
        <time>2017-03-02T19:02:59Z</time>
      </trkpt>
      <trkpt lat="44.33587" lon="3.33374">
        <ele>881</ele>
        <time>2017-03-02T19:04:59Z</time>
      </trkpt>
      <trkpt lat="44.33589" lon="3.33377">
        <ele>881</ele>
        <time>2017-03-02T19:06:59Z</time>
      </trkpt>
      <trkpt lat="44.33592" lon="3.33386">
        <ele>882</ele>
        <time>2017-03-02T19:08:59Z</time>
      </trkpt>
      <trkpt lat="44.33595" lon="3.33398">
        <ele>882</ele>
        <time>2017-03-02T19:10:59Z</time>
      </trkpt>
      <trkpt lat="44.33597" lon="3.33413">
        <ele>883</ele>
        <time>2017-03-02T19:12:59Z</time>
      </trkpt>
      <trkpt lat="44.33601" lon="3.33426">
        <ele>883</ele>
        <time>2017-03-02T19:14:59Z</time>
      </trkpt>
      <trkpt lat="44.33606" lon="3.33436">
        <ele>883</ele>
        <time>2017-03-02T19:16:59Z</time>
      </trkpt>
      <trkpt lat="44.33614" lon="3.33449">
        <ele>883</ele>
        <time>2017-03-02T19:18:59Z</time>
      </trkpt>
      <trkpt lat="44.33625" lon="3.33464">
        <ele>882</ele>
        <time>2017-03-02T19:20:59Z</time>
      </trkpt>
      <trkpt lat="44.33636" lon="3.33478">
        <ele>880</ele>
        <time>2017-03-02T19:22:59Z</time>
      </trkpt>
      <trkpt lat="44.33644" lon="3.33494">
        <ele>878</ele>
        <time>2017-03-02T19:24:59Z</time>
      </trkpt>
      <trkpt lat="44.33655" lon="3.33528">
        <ele>877</ele>
        <time>2017-03-02T19:26:59Z</time>
      </trkpt>
      <trkpt lat="44.33662" lon="3.33541">
        <ele>876</ele>
        <time>2017-03-02T19:28:59Z</time>
      </trkpt>
      <trkpt lat="44.33672" lon="3.33555">
        <ele>874</ele>
        <time>2017-03-02T19:30:59Z</time>
      </trkpt>
      <trkpt lat="44.33681" lon="3.33565">
        <ele>873</ele>
        <time>2017-03-02T19:32:59Z</time>
      </trkpt>
      <trkpt lat="44.33688" lon="3.33569">
        <ele>871</ele>
        <time>2017-03-02T19:34:59Z</time>
      </trkpt>
      <trkpt lat="44.33696" lon="3.33571">
        <ele>869</ele>
        <time>2017-03-02T19:36:59Z</time>
      </trkpt>
      <trkpt lat="44.33705" lon="3.33569">
        <ele>867</ele>
        <time>2017-03-02T19:38:59Z</time>
      </trkpt>
      <trkpt lat="44.33712" lon="3.33566">
        <ele>866</ele>
        <time>2017-03-02T19:40:59Z</time>
      </trkpt>
      <trkpt lat="44.33717" lon="3.3356">
        <ele>865</ele>
        <time>2017-03-02T19:42:59Z</time>
      </trkpt>
      <trkpt lat="44.33724" lon="3.33553">
        <ele>865</ele>
        <time>2017-03-02T19:44:59Z</time>
      </trkpt>
      <trkpt lat="44.3373" lon="3.33549">
        <ele>864</ele>
        <time>2017-03-02T19:46:59Z</time>
      </trkpt>
      <trkpt lat="44.33735" lon="3.33548">
        <ele>863</ele>
        <time>2017-03-02T19:48:59Z</time>
      </trkpt>
      <trkpt lat="44.33762" lon="3.33554">
        <ele>858</ele>
        <time>2017-03-02T19:50:59Z</time>
      </trkpt>
      <trkpt lat="44.33775" lon="3.33558">
        <ele>856</ele>
        <time>2017-03-02T19:52:59Z</time>
      </trkpt>
      <trkpt lat="44.33785" lon="3.33562">
        <ele>854</ele>
        <time>2017-03-02T19:54:59Z</time>
      </trkpt>
      <trkpt lat="44.33802" lon="3.33573">
        <ele>850</ele>
        <time>2017-03-02T19:56:59Z</time>
      </trkpt>
      <trkpt lat="44.33812" lon="3.33582">
        <ele>846</ele>
        <time>2017-03-02T19:58:59Z</time>
      </trkpt>
      <trkpt lat="44.33821" lon="3.33589">
        <ele>844</ele>
        <time>2017-03-02T20:00:59Z</time>
      </trkpt>
      <trkpt lat="44.33835" lon="3.33597">
        <ele>840</ele>
        <time>2017-03-02T20:02:59Z</time>
      </trkpt>
      <trkpt lat="44.33835" lon="3.33598">
        <ele>840</ele>
        <time>2017-03-02T20:04:59Z</time>
      </trkpt>
      <trkpt lat="44.33844" lon="3.33604">
        <ele>839</ele>
        <time>2017-03-02T20:06:59Z</time>
      </trkpt>
      <trkpt lat="44.33865" lon="3.33616">
        <ele>837</ele>
        <time>2017-03-02T20:08:59Z</time>
      </trkpt>
      <trkpt lat="44.33885" lon="3.33629">
        <ele>834</ele>
        <time>2017-03-02T20:10:59Z</time>
      </trkpt>
      <trkpt lat="44.33896" lon="3.33638">
        <ele>832</ele>
        <time>2017-03-02T20:12:59Z</time>
      </trkpt>
      <trkpt lat="44.3391" lon="3.33652">
        <ele>829</ele>
        <time>2017-03-02T20:14:59Z</time>
      </trkpt>
      <trkpt lat="44.33919" lon="3.3366">
        <ele>827</ele>
        <time>2017-03-02T20:16:59Z</time>
      </trkpt>
      <trkpt lat="44.33932" lon="3.33669">
        <ele>825</ele>
        <time>2017-03-02T20:18:59Z</time>
      </trkpt>
      <trkpt lat="44.3395" lon="3.33682">
        <ele>824</ele>
        <time>2017-03-02T20:20:59Z</time>
      </trkpt>
      <trkpt lat="44.33983" lon="3.33707">
        <ele>822</ele>
        <time>2017-03-02T20:22:59Z</time>
      </trkpt>
      <trkpt lat="44.33996" lon="3.33722">
        <ele>820</ele>
        <time>2017-03-02T20:24:59Z</time>
      </trkpt>
      <trkpt lat="44.34006" lon="3.33732">
        <ele>818</ele>
        <time>2017-03-02T20:26:59Z</time>
      </trkpt>
      <trkpt lat="44.34016" lon="3.3374">
        <ele>817</ele>
        <time>2017-03-02T20:28:59Z</time>
      </trkpt>
      <trkpt lat="44.34026" lon="3.33746">
        <ele>816</ele>
        <time>2017-03-02T20:30:59Z</time>
      </trkpt>
      <trkpt lat="44.34033" lon="3.33751">
        <ele>816</ele>
        <time>2017-03-02T20:32:59Z</time>
      </trkpt>
      <trkpt lat="44.34041" lon="3.3376">
        <ele>815</ele>
        <time>2017-03-02T20:34:59Z</time>
      </trkpt>
      <trkpt lat="44.34049" lon="3.33772">
        <ele>815</ele>
        <time>2017-03-02T20:36:59Z</time>
      </trkpt>
      <trkpt lat="44.34057" lon="3.33788">
        <ele>813</ele>
        <time>2017-03-02T20:38:59Z</time>
      </trkpt>
      <trkpt lat="44.34065" lon="3.33806">
        <ele>812</ele>
        <time>2017-03-02T20:40:59Z</time>
      </trkpt>
      <trkpt lat="44.34071" lon="3.33822">
        <ele>811</ele>
        <time>2017-03-02T20:42:59Z</time>
      </trkpt>
      <trkpt lat="44.34078" lon="3.33837">
        <ele>810</ele>
        <time>2017-03-02T20:44:59Z</time>
      </trkpt>
      <trkpt lat="44.34082" lon="3.33843">
        <ele>811</ele>
        <time>2017-03-02T20:46:59Z</time>
      </trkpt>
      <trkpt lat="44.34088" lon="3.33851">
        <ele>812</ele>
        <time>2017-03-02T20:48:59Z</time>
      </trkpt>
      <trkpt lat="44.34103" lon="3.3387">
        <ele>813</ele>
        <time>2017-03-02T20:50:59Z</time>
      </trkpt>
      <trkpt lat="44.3411" lon="3.3388">
        <ele>814</ele>
        <time>2017-03-02T20:52:59Z</time>
      </trkpt>
      <trkpt lat="44.34115" lon="3.3389">
        <ele>814</ele>
        <time>2017-03-02T20:54:59Z</time>
      </trkpt>
      <trkpt lat="44.3412" lon="3.33906">
        <ele>814</ele>
        <time>2017-03-02T20:56:59Z</time>
      </trkpt>
      <trkpt lat="44.34128" lon="3.33934">
        <ele>816</ele>
        <time>2017-03-02T20:58:59Z</time>
      </trkpt>
      <trkpt lat="44.34133" lon="3.33954">
        <ele>817</ele>
        <time>2017-03-02T21:00:59Z</time>
      </trkpt>
      <trkpt lat="44.34137" lon="3.33986">
        <ele>819</ele>
        <time>2017-03-02T21:02:59Z</time>
      </trkpt>
      <trkpt lat="44.34139" lon="3.34012">
        <ele>820</ele>
        <time>2017-03-02T21:04:59Z</time>
      </trkpt>
      <trkpt lat="44.34141" lon="3.34061">
        <ele>820</ele>
        <time>2017-03-02T21:06:59Z</time>
      </trkpt>
      <trkpt lat="44.34142" lon="3.34079">
        <ele>821</ele>
        <time>2017-03-02T21:08:59Z</time>
      </trkpt>
      <trkpt lat="44.34142" lon="3.34094">
        <ele>821</ele>
        <time>2017-03-02T21:10:59Z</time>
      </trkpt>
      <trkpt lat="44.34141" lon="3.34109">
        <ele>821</ele>
        <time>2017-03-02T21:12:59Z</time>
      </trkpt>
      <trkpt lat="44.34141" lon="3.34197">
        <ele>823</ele>
        <time>2017-03-02T21:14:59Z</time>
      </trkpt>
      <trkpt lat="44.34142" lon="3.3421">
        <ele>823</ele>
        <time>2017-03-02T21:16:59Z</time>
      </trkpt>
      <trkpt lat="44.34145" lon="3.34228">
        <ele>824</ele>
        <time>2017-03-02T21:18:59Z</time>
      </trkpt>
      <trkpt lat="44.34149" lon="3.3425">
        <ele>825</ele>
        <time>2017-03-02T21:20:59Z</time>
      </trkpt>
      <trkpt lat="44.34154" lon="3.3428">
        <ele>827</ele>
        <time>2017-03-02T21:22:59Z</time>
      </trkpt>
      <trkpt lat="44.34155" lon="3.34297">
        <ele>828</ele>
        <time>2017-03-02T21:24:59Z</time>
      </trkpt>
      <trkpt lat="44.34154" lon="3.34313">
        <ele>829</ele>
        <time>2017-03-02T21:26:59Z</time>
      </trkpt>
      <trkpt lat="44.34151" lon="3.34338">
        <ele>829</ele>
        <time>2017-03-02T21:28:59Z</time>
      </trkpt>
      <trkpt lat="44.34148" lon="3.3437">
        <ele>831</ele>
        <time>2017-03-02T21:30:59Z</time>
      </trkpt>
      <trkpt lat="44.34146" lon="3.34407">
        <ele>832</ele>
        <time>2017-03-02T21:32:59Z</time>
      </trkpt>
      <trkpt lat="44.34143" lon="3.34436">
        <ele>834</ele>
        <time>2017-03-02T21:34:59Z</time>
      </trkpt>
      <trkpt lat="44.34141" lon="3.34468">
        <ele>835</ele>
        <time>2017-03-02T21:36:59Z</time>
      </trkpt>
      <trkpt lat="44.34139" lon="3.34494">
        <ele>837</ele>
        <time>2017-03-02T21:38:59Z</time>
      </trkpt>
      <trkpt lat="44.34139" lon="3.34542">
        <ele>839</ele>
        <time>2017-03-02T21:40:59Z</time>
      </trkpt>
      <trkpt lat="44.34142" lon="3.34566">
        <ele>841</ele>
        <time>2017-03-02T21:42:59Z</time>
      </trkpt>
      <trkpt lat="44.34148" lon="3.34608">
        <ele>843</ele>
        <time>2017-03-02T21:44:59Z</time>
      </trkpt>
      <trkpt lat="44.34154" lon="3.34647">
        <ele>844</ele>
        <time>2017-03-02T21:46:59Z</time>
      </trkpt>
      <trkpt lat="44.34157" lon="3.34664">
        <ele>845</ele>
        <time>2017-03-02T21:48:59Z</time>
      </trkpt>
      <trkpt lat="44.34163" lon="3.3468">
        <ele>846</ele>
        <time>2017-03-02T21:50:59Z</time>
      </trkpt>
      <trkpt lat="44.3417" lon="3.34697">
        <ele>846</ele>
        <time>2017-03-02T21:52:59Z</time>
      </trkpt>
      <trkpt lat="44.34173" lon="3.34709">
        <ele>846</ele>
        <time>2017-03-02T21:54:59Z</time>
      </trkpt>
      <trkpt lat="44.34177" lon="3.34723">
        <ele>846</ele>
        <time>2017-03-02T21:56:59Z</time>
      </trkpt>
      <trkpt lat="44.34181" lon="3.34746">
        <ele>845</ele>
        <time>2017-03-02T21:58:59Z</time>
      </trkpt>
      <trkpt lat="44.34187" lon="3.34787">
        <ele>843</ele>
        <time>2017-03-02T22:00:59Z</time>
      </trkpt>
      <trkpt lat="44.34191" lon="3.34804">
        <ele>842</ele>
        <time>2017-03-02T22:02:59Z</time>
      </trkpt>
      <trkpt lat="44.34191" lon="3.34819">
        <ele>841</ele>
        <time>2017-03-02T22:04:59Z</time>
      </trkpt>
      <trkpt lat="44.34192" lon="3.34827">
        <ele>840</ele>
        <time>2017-03-02T22:06:59Z</time>
      </trkpt>
      <trkpt lat="44.34196" lon="3.34834">
        <ele>840</ele>
        <time>2017-03-02T22:08:59Z</time>
      </trkpt>
      <trkpt lat="44.34199" lon="3.34841">
        <ele>840</ele>
        <time>2017-03-02T22:10:59Z</time>
      </trkpt>
      <trkpt lat="44.34214" lon="3.34856">
        <ele>840</ele>
        <time>2017-03-02T22:12:59Z</time>
      </trkpt>
      <trkpt lat="44.34221" lon="3.34864">
        <ele>840</ele>
        <time>2017-03-02T22:14:59Z</time>
      </trkpt>
      <trkpt lat="44.34229" lon="3.34876">
        <ele>841</ele>
        <time>2017-03-02T22:16:59Z</time>
      </trkpt>
      <trkpt lat="44.34235" lon="3.34889">
        <ele>841</ele>
        <time>2017-03-02T22:18:59Z</time>
      </trkpt>
      <trkpt lat="44.34238" lon="3.34893">
        <ele>842</ele>
        <time>2017-03-02T22:20:59Z</time>
      </trkpt>
      <trkpt lat="44.34242" lon="3.34896">
        <ele>842</ele>
        <time>2017-03-02T22:22:59Z</time>
      </trkpt>
      <trkpt lat="44.34247" lon="3.34898">
        <ele>842</ele>
        <time>2017-03-02T22:24:59Z</time>
      </trkpt>
      <trkpt lat="44.34271" lon="3.34891">
        <ele>840</ele>
        <time>2017-03-02T22:26:59Z</time>
      </trkpt>
      <trkpt lat="44.34294" lon="3.34888">
        <ele>838</ele>
        <time>2017-03-02T22:28:59Z</time>
      </trkpt>
      <trkpt lat="44.3431" lon="3.34889">
        <ele>837</ele>
        <time>2017-03-02T22:30:59Z</time>
      </trkpt>
      <trkpt lat="44.34335" lon="3.34892">
        <ele>835</ele>
        <time>2017-03-02T22:32:59Z</time>
      </trkpt>
      <trkpt lat="44.34357" lon="3.34897">
        <ele>834</ele>
        <time>2017-03-02T22:34:59Z</time>
      </trkpt>
      <trkpt lat="44.3437" lon="3.34897">
        <ele>834</ele>
        <time>2017-03-02T22:36:59Z</time>
      </trkpt>
      <trkpt lat="44.3438" lon="3.34898">
        <ele>833</ele>
        <time>2017-03-02T22:38:59Z</time>
      </trkpt>
      <trkpt lat="44.3439" lon="3.349">
        <ele>832</ele>
        <time>2017-03-02T22:40:59Z</time>
      </trkpt>
      <trkpt lat="44.34407" lon="3.34908">
        <ele>831</ele>
        <time>2017-03-02T22:42:59Z</time>
      </trkpt>
      <trkpt lat="44.34416" lon="3.34916">
        <ele>830</ele>
        <time>2017-03-02T22:44:59Z</time>
      </trkpt>
      <trkpt lat="44.34425" lon="3.34925">
        <ele>830</ele>
        <time>2017-03-02T22:46:59Z</time>
      </trkpt>
      <trkpt lat="44.3444" lon="3.34948">
        <ele>830</ele>
        <time>2017-03-02T22:48:59Z</time>
      </trkpt>
      <trkpt lat="44.34446" lon="3.34955">
        <ele>830</ele>
        <time>2017-03-02T22:50:59Z</time>
      </trkpt>
      <trkpt lat="44.34454" lon="3.34963">
        <ele>830</ele>
        <time>2017-03-02T22:52:59Z</time>
      </trkpt>
      <trkpt lat="44.34464" lon="3.34969">
        <ele>829</ele>
        <time>2017-03-02T22:54:59Z</time>
      </trkpt>
      <trkpt lat="44.34485" lon="3.34987">
        <ele>827</ele>
        <time>2017-03-02T22:56:59Z</time>
      </trkpt>
      <trkpt lat="44.34502" lon="3.35005">
        <ele>824</ele>
        <time>2017-03-02T22:58:59Z</time>
      </trkpt>
      <trkpt lat="44.34512" lon="3.35016">
        <ele>823</ele>
        <time>2017-03-02T23:00:59Z</time>
      </trkpt>
      <trkpt lat="44.34527" lon="3.35029">
        <ele>822</ele>
        <time>2017-03-02T23:02:59Z</time>
      </trkpt>
      <trkpt lat="44.3454" lon="3.35037">
        <ele>822</ele>
        <time>2017-03-02T23:04:59Z</time>
      </trkpt>
      <trkpt lat="44.34551" lon="3.35048">
        <ele>821</ele>
        <time>2017-03-02T23:06:59Z</time>
      </trkpt>
      <trkpt lat="44.34563" lon="3.35059">
        <ele>820</ele>
        <time>2017-03-02T23:08:59Z</time>
      </trkpt>
      <trkpt lat="44.34578" lon="3.35068">
        <ele>819</ele>
        <time>2017-03-02T23:10:59Z</time>
      </trkpt>
      <trkpt lat="44.34591" lon="3.35073">
        <ele>819</ele>
        <time>2017-03-02T23:12:59Z</time>
      </trkpt>
      <trkpt lat="44.34603" lon="3.35078">
        <ele>819</ele>
        <time>2017-03-02T23:14:59Z</time>
      </trkpt>
      <trkpt lat="44.34618" lon="3.35087">
        <ele>818</ele>
        <time>2017-03-02T23:16:59Z</time>
      </trkpt>
      <trkpt lat="44.3462" lon="3.35092">
        <ele>818</ele>
        <time>2017-03-02T23:18:59Z</time>
      </trkpt>
      <trkpt lat="44.34624" lon="3.351">
        <ele>818</ele>
        <time>2017-03-02T23:20:59Z</time>
      </trkpt>
      <trkpt lat="44.34627" lon="3.35112">
        <ele>817</ele>
        <time>2017-03-02T23:22:59Z</time>
      </trkpt>
      <trkpt lat="44.34628" lon="3.35118">
        <ele>817</ele>
        <time>2017-03-02T23:24:59Z</time>
      </trkpt>
      <trkpt lat="44.3463" lon="3.35126">
        <ele>817</ele>
        <time>2017-03-02T23:26:59Z</time>
      </trkpt>
      <trkpt lat="44.34631" lon="3.35138">
        <ele>816</ele>
        <time>2017-03-02T23:28:59Z</time>
      </trkpt>
      <trkpt lat="44.3463" lon="3.35148">
        <ele>815</ele>
        <time>2017-03-02T23:30:59Z</time>
      </trkpt>
      <trkpt lat="44.34628" lon="3.35158">
        <ele>815</ele>
        <time>2017-03-02T23:32:59Z</time>
      </trkpt>
      <trkpt lat="44.34618" lon="3.35173">
        <ele>812</ele>
        <time>2017-03-02T23:34:59Z</time>
      </trkpt>
      <trkpt lat="44.34611" lon="3.35183">
        <ele>811</ele>
        <time>2017-03-02T23:36:59Z</time>
      </trkpt>
      <trkpt lat="44.34606" lon="3.35197">
        <ele>809</ele>
        <time>2017-03-02T23:38:59Z</time>
      </trkpt>
      <trkpt lat="44.34603" lon="3.35211">
        <ele>808</ele>
        <time>2017-03-02T23:40:59Z</time>
      </trkpt>
      <trkpt lat="44.34602" lon="3.35227">
        <ele>807</ele>
        <time>2017-03-02T23:42:59Z</time>
      </trkpt>
      <trkpt lat="44.34602" lon="3.35256">
        <ele>806</ele>
        <time>2017-03-02T23:44:59Z</time>
      </trkpt>
      <trkpt lat="44.34601" lon="3.35287">
        <ele>803</ele>
        <time>2017-03-02T23:46:59Z</time>
      </trkpt>
      <trkpt lat="44.34599" lon="3.35313">
        <ele>800</ele>
        <time>2017-03-02T23:48:59Z</time>
      </trkpt>
      <trkpt lat="44.34598" lon="3.35334">
        <ele>798</ele>
        <time>2017-03-02T23:50:59Z</time>
      </trkpt>
      <trkpt lat="44.34598" lon="3.35346">
        <ele>796</ele>
        <time>2017-03-02T23:52:59Z</time>
      </trkpt>
      <trkpt lat="44.34604" lon="3.35379">
        <ele>791</ele>
        <time>2017-03-02T23:54:59Z</time>
      </trkpt>
      <trkpt lat="44.34606" lon="3.35384">
        <ele>790</ele>
        <time>2017-03-02T23:56:59Z</time>
      </trkpt>
      <trkpt lat="44.34609" lon="3.35388">
        <ele>790</ele>
        <time>2017-03-02T23:58:59Z</time>
      </trkpt>
      <trkpt lat="44.34615" lon="3.35395">
        <ele>789</ele>
        <time>2017-03-03T00:00:59Z</time>
      </trkpt>
      <trkpt lat="44.34619" lon="3.35402">
        <ele>789</ele>
        <time>2017-03-03T00:02:59Z</time>
      </trkpt>
      <trkpt lat="44.34624" lon="3.3541">
        <ele>788</ele>
        <time>2017-03-03T00:04:59Z</time>
      </trkpt>
      <trkpt lat="44.34629" lon="3.35421">
        <ele>787</ele>
        <time>2017-03-03T00:06:59Z</time>
      </trkpt>
      <trkpt lat="44.34636" lon="3.35433">
        <ele>787</ele>
        <time>2017-03-03T00:08:59Z</time>
      </trkpt>
      <trkpt lat="44.34642" lon="3.35441">
        <ele>787</ele>
        <time>2017-03-03T00:10:59Z</time>
      </trkpt>
      <trkpt lat="44.3465" lon="3.35448">
        <ele>788</ele>
        <time>2017-03-03T00:12:59Z</time>
      </trkpt>
      <trkpt lat="44.34658" lon="3.35454">
        <ele>789</ele>
        <time>2017-03-03T00:14:59Z</time>
      </trkpt>
      <trkpt lat="44.34663" lon="3.35456">
        <ele>790</ele>
        <time>2017-03-03T00:16:59Z</time>
      </trkpt>
      <trkpt lat="44.34662" lon="3.35466">
        <ele>788</ele>
        <time>2017-03-03T00:18:59Z</time>
      </trkpt>
      <trkpt lat="44.34663" lon="3.35481">
        <ele>787</ele>
        <time>2017-03-03T00:20:59Z</time>
      </trkpt>
      <trkpt lat="44.34663" lon="3.35514">
        <ele>786</ele>
        <time>2017-03-03T00:22:59Z</time>
      </trkpt>
      <trkpt lat="44.34664" lon="3.35524">
        <ele>787</ele>
        <time>2017-03-03T00:24:59Z</time>
      </trkpt>
      <trkpt lat="44.34664" lon="3.35538">
        <ele>788</ele>
        <time>2017-03-03T00:26:59Z</time>
      </trkpt>
      <trkpt lat="44.34662" lon="3.35546">
        <ele>789</ele>
        <time>2017-03-03T00:28:59Z</time>
      </trkpt>
      <trkpt lat="44.3466" lon="3.35552">
        <ele>789</ele>
        <time>2017-03-03T00:30:59Z</time>
      </trkpt>
      <trkpt lat="44.34656" lon="3.35558">
        <ele>789</ele>
        <time>2017-03-03T00:32:59Z</time>
      </trkpt>
      <trkpt lat="44.3465" lon="3.3557">
        <ele>789</ele>
        <time>2017-03-03T00:34:59Z</time>
      </trkpt>
      <trkpt lat="44.34642" lon="3.35587">
        <ele>790</ele>
        <time>2017-03-03T00:36:59Z</time>
      </trkpt>
      <trkpt lat="44.34637" lon="3.356">
        <ele>790</ele>
        <time>2017-03-03T00:38:59Z</time>
      </trkpt>
      <trkpt lat="44.34633" lon="3.35614">
        <ele>791</ele>
        <time>2017-03-03T00:40:59Z</time>
      </trkpt>
      <trkpt lat="44.34628" lon="3.35635">
        <ele>793</ele>
        <time>2017-03-03T00:42:59Z</time>
      </trkpt>
      <trkpt lat="44.34625" lon="3.35654">
        <ele>794</ele>
        <time>2017-03-03T00:44:59Z</time>
      </trkpt>
      <trkpt lat="44.34625" lon="3.35664">
        <ele>795</ele>
        <time>2017-03-03T00:46:59Z</time>
      </trkpt>
      <trkpt lat="44.34626" lon="3.35671">
        <ele>795</ele>
        <time>2017-03-03T00:48:59Z</time>
      </trkpt>
      <trkpt lat="44.3463" lon="3.35677">
        <ele>796</ele>
        <time>2017-03-03T00:50:59Z</time>
      </trkpt>
      <trkpt lat="44.34638" lon="3.35685">
        <ele>796</ele>
        <time>2017-03-03T00:52:59Z</time>
      </trkpt>
      <trkpt lat="44.34641" lon="3.35691">
        <ele>796</ele>
        <time>2017-03-03T00:54:59Z</time>
      </trkpt>
      <trkpt lat="44.34644" lon="3.35698">
        <ele>796</ele>
        <time>2017-03-03T00:56:59Z</time>
      </trkpt>
      <trkpt lat="44.34644" lon="3.35712">
        <ele>796</ele>
        <time>2017-03-03T00:58:59Z</time>
      </trkpt>
      <trkpt lat="44.34642" lon="3.35721">
        <ele>795</ele>
        <time>2017-03-03T01:00:59Z</time>
      </trkpt>
      <trkpt lat="44.34639" lon="3.3573">
        <ele>795</ele>
        <time>2017-03-03T01:02:59Z</time>
      </trkpt>
      <trkpt lat="44.34638" lon="3.35741">
        <ele>794</ele>
        <time>2017-03-03T01:04:59Z</time>
      </trkpt>
      <trkpt lat="44.34638" lon="3.3575">
        <ele>794</ele>
        <time>2017-03-03T01:06:59Z</time>
      </trkpt>
      <trkpt lat="44.34641" lon="3.3576">
        <ele>794</ele>
        <time>2017-03-03T01:08:59Z</time>
      </trkpt>
      <trkpt lat="44.34644" lon="3.35768">
        <ele>794</ele>
        <time>2017-03-03T01:10:59Z</time>
      </trkpt>
      <trkpt lat="44.34647" lon="3.35772">
        <ele>794</ele>
        <time>2017-03-03T01:12:59Z</time>
      </trkpt>
      <trkpt lat="44.34648" lon="3.35777">
        <ele>794</ele>
        <time>2017-03-03T01:14:59Z</time>
      </trkpt>
      <trkpt lat="44.34654" lon="3.35793">
        <ele>794</ele>
        <time>2017-03-03T01:16:59Z</time>
      </trkpt>
      <trkpt lat="44.34661" lon="3.35806">
        <ele>794</ele>
        <time>2017-03-03T01:18:59Z</time>
      </trkpt>
      <trkpt lat="44.34668" lon="3.35817">
        <ele>795</ele>
        <time>2017-03-03T01:20:59Z</time>
      </trkpt>
      <trkpt lat="44.34676" lon="3.35831">
        <ele>795</ele>
        <time>2017-03-03T01:22:59Z</time>
      </trkpt>
      <trkpt lat="44.3468" lon="3.35833">
        <ele>796</ele>
        <time>2017-03-03T01:24:59Z</time>
      </trkpt>
      <trkpt lat="44.34688" lon="3.35839">
        <ele>797</ele>
        <time>2017-03-03T01:26:59Z</time>
      </trkpt>
      <trkpt lat="44.34693" lon="3.35846">
        <ele>797</ele>
        <time>2017-03-03T01:28:59Z</time>
      </trkpt>
      <trkpt lat="44.34698" lon="3.35854">
        <ele>797</ele>
        <time>2017-03-03T01:30:59Z</time>
      </trkpt>
      <trkpt lat="44.34703" lon="3.3586">
        <ele>797</ele>
        <time>2017-03-03T01:32:59Z</time>
      </trkpt>
      <trkpt lat="44.34708" lon="3.35867">
        <ele>797</ele>
        <time>2017-03-03T01:34:59Z</time>
      </trkpt>
      <trkpt lat="44.3471" lon="3.35874">
        <ele>797</ele>
        <time>2017-03-03T01:36:59Z</time>
      </trkpt>
      <trkpt lat="44.34716" lon="3.35874">
        <ele>797</ele>
        <time>2017-03-03T01:38:59Z</time>
      </trkpt>
      <trkpt lat="44.3472" lon="3.35875">
        <ele>798</ele>
        <time>2017-03-03T01:40:59Z</time>
      </trkpt>
      <trkpt lat="44.3472" lon="3.3588">
        <ele>797</ele>
        <time>2017-03-03T01:42:59Z</time>
      </trkpt>
      <trkpt lat="44.34718" lon="3.35885">
        <ele>796</ele>
        <time>2017-03-03T01:44:59Z</time>
      </trkpt>
      <trkpt lat="44.34712" lon="3.35891">
        <ele>795</ele>
        <time>2017-03-03T01:46:59Z</time>
      </trkpt>
      <trkpt lat="44.34711" lon="3.35898">
        <ele>794</ele>
        <time>2017-03-03T01:48:59Z</time>
      </trkpt>
      <trkpt lat="44.34711" lon="3.35909">
        <ele>793</ele>
        <time>2017-03-03T01:50:59Z</time>
      </trkpt>
      <trkpt lat="44.34713" lon="3.35926">
        <ele>793</ele>
        <time>2017-03-03T01:52:59Z</time>
      </trkpt>
      <trkpt lat="44.34723" lon="3.35963">
        <ele>792</ele>
        <time>2017-03-03T01:54:59Z</time>
      </trkpt>
      <trkpt lat="44.34721" lon="3.35965">
        <ele>792</ele>
        <time>2017-03-03T01:56:59Z</time>
      </trkpt>
      <trkpt lat="44.34713" lon="3.35971">
        <ele>791</ele>
        <time>2017-03-03T01:58:59Z</time>
      </trkpt>
      <trkpt lat="44.34709" lon="3.35976">
        <ele>791</ele>
        <time>2017-03-03T02:00:59Z</time>
      </trkpt>
      <trkpt lat="44.34702" lon="3.36033">
        <ele>791</ele>
        <time>2017-03-03T02:02:59Z</time>
      </trkpt>
      <trkpt lat="44.34698" lon="3.36042">
        <ele>791</ele>
        <time>2017-03-03T02:04:59Z</time>
      </trkpt>
      <trkpt lat="44.34694" lon="3.36048">
        <ele>790</ele>
        <time>2017-03-03T02:06:59Z</time>
      </trkpt>
      <trkpt lat="44.34687" lon="3.3606">
        <ele>790</ele>
        <time>2017-03-03T02:08:59Z</time>
      </trkpt>
      <trkpt lat="44.34684" lon="3.36069">
        <ele>790</ele>
        <time>2017-03-03T02:10:59Z</time>
      </trkpt>
      <trkpt lat="44.34683" lon="3.36077">
        <ele>790</ele>
        <time>2017-03-03T02:12:59Z</time>
      </trkpt>
      <trkpt lat="44.34682" lon="3.36098">
        <ele>791</ele>
        <time>2017-03-03T02:14:59Z</time>
      </trkpt>
      <trkpt lat="44.34681" lon="3.36105">
        <ele>792</ele>
        <time>2017-03-03T02:16:59Z</time>
      </trkpt>
      <trkpt lat="44.3468" lon="3.36109">
        <ele>792</ele>
        <time>2017-03-03T02:18:59Z</time>
      </trkpt>
      <trkpt lat="44.34674" lon="3.36115">
        <ele>792</ele>
        <time>2017-03-03T02:20:59Z</time>
      </trkpt>
      <trkpt lat="44.34665" lon="3.36123">
        <ele>791</ele>
        <time>2017-03-03T02:22:59Z</time>
      </trkpt>
      <trkpt lat="44.3465" lon="3.36131">
        <ele>791</ele>
        <time>2017-03-03T02:24:59Z</time>
      </trkpt>
      <trkpt lat="44.34645" lon="3.36133">
        <ele>790</ele>
        <time>2017-03-03T02:26:59Z</time>
      </trkpt>
      <trkpt lat="44.34643" lon="3.36135">
        <ele>790</ele>
        <time>2017-03-03T02:28:59Z</time>
      </trkpt>
      <trkpt lat="44.3464" lon="3.36143">
        <ele>790</ele>
        <time>2017-03-03T02:30:59Z</time>
      </trkpt>
      <trkpt lat="44.34638" lon="3.36154">
        <ele>791</ele>
        <time>2017-03-03T02:32:59Z</time>
      </trkpt>
      <trkpt lat="44.34638" lon="3.3616">
        <ele>791</ele>
        <time>2017-03-03T02:34:59Z</time>
      </trkpt>
      <trkpt lat="44.3464" lon="3.3617">
        <ele>791</ele>
        <time>2017-03-03T02:36:59Z</time>
      </trkpt>
      <trkpt lat="44.34646" lon="3.36181">
        <ele>792</ele>
        <time>2017-03-03T02:38:59Z</time>
      </trkpt>
      <trkpt lat="44.34651" lon="3.36189">
        <ele>793</ele>
        <time>2017-03-03T02:40:59Z</time>
      </trkpt>
      <trkpt lat="44.34657" lon="3.36192">
        <ele>794</ele>
        <time>2017-03-03T02:42:59Z</time>
      </trkpt>
      <trkpt lat="44.34662" lon="3.36195">
        <ele>794</ele>
        <time>2017-03-03T02:44:59Z</time>
      </trkpt>
      <trkpt lat="44.34665" lon="3.36198">
        <ele>795</ele>
        <time>2017-03-03T02:46:59Z</time>
      </trkpt>
      <trkpt lat="44.34676" lon="3.36212">
        <ele>796</ele>
        <time>2017-03-03T02:48:59Z</time>
      </trkpt>
      <trkpt lat="44.34677" lon="3.36215">
        <ele>797</ele>
        <time>2017-03-03T02:50:59Z</time>
      </trkpt>
      <trkpt lat="44.34681" lon="3.36214">
        <ele>797</ele>
        <time>2017-03-03T02:52:59Z</time>
      </trkpt>
      <trkpt lat="44.34686" lon="3.36212">
        <ele>798</ele>
        <time>2017-03-03T02:54:59Z</time>
      </trkpt>
      <trkpt lat="44.34692" lon="3.36209">
        <ele>798</ele>
        <time>2017-03-03T02:56:59Z</time>
      </trkpt>
      <trkpt lat="44.34699" lon="3.36201">
        <ele>799</ele>
        <time>2017-03-03T02:58:59Z</time>
      </trkpt>
      <trkpt lat="44.34714" lon="3.36188">
        <ele>800</ele>
        <time>2017-03-03T03:00:59Z</time>
      </trkpt>
      <trkpt lat="44.34725" lon="3.36179">
        <ele>801</ele>
        <time>2017-03-03T03:02:59Z</time>
      </trkpt>
      <trkpt lat="44.34738" lon="3.36173">
        <ele>801</ele>
        <time>2017-03-03T03:04:59Z</time>
      </trkpt>
      <trkpt lat="44.34757" lon="3.36168">
        <ele>803</ele>
        <time>2017-03-03T03:06:59Z</time>
      </trkpt>
      <trkpt lat="44.34766" lon="3.36168">
        <ele>804</ele>
        <time>2017-03-03T03:08:59Z</time>
      </trkpt>
      <trkpt lat="44.34774" lon="3.36169">
        <ele>805</ele>
        <time>2017-03-03T03:10:59Z</time>
      </trkpt>
      <trkpt lat="44.34783" lon="3.36176">
        <ele>807</ele>
        <time>2017-03-03T03:12:59Z</time>
      </trkpt>
      <trkpt lat="44.34787" lon="3.36181">
        <ele>808</ele>
        <time>2017-03-03T03:14:59Z</time>
      </trkpt>
      <trkpt lat="44.34796" lon="3.36209">
        <ele>811</ele>
        <time>2017-03-03T03:16:59Z</time>
      </trkpt>
      <trkpt lat="44.34796" lon="3.36213">
        <ele>812</ele>
        <time>2017-03-03T03:18:59Z</time>
      </trkpt>
      <trkpt lat="44.34804" lon="3.36254">
        <ele>816</ele>
        <time>2017-03-03T03:20:59Z</time>
      </trkpt>
      <trkpt lat="44.34807" lon="3.36264">
        <ele>816</ele>
        <time>2017-03-03T03:22:59Z</time>
      </trkpt>
      <trkpt lat="44.3481" lon="3.36268">
        <ele>817</ele>
        <time>2017-03-03T03:24:59Z</time>
      </trkpt>
      <trkpt lat="44.34815" lon="3.3627">
        <ele>817</ele>
        <time>2017-03-03T03:26:59Z</time>
      </trkpt>
      <trkpt lat="44.34823" lon="3.36271">
        <ele>818</ele>
        <time>2017-03-03T03:28:59Z</time>
      </trkpt>
      <trkpt lat="44.34831" lon="3.36271">
        <ele>819</ele>
        <time>2017-03-03T03:30:59Z</time>
      </trkpt>
      <trkpt lat="44.34839" lon="3.36276">
        <ele>819</ele>
        <time>2017-03-03T03:32:59Z</time>
      </trkpt>
      <trkpt lat="44.34852" lon="3.36282">
        <ele>820</ele>
        <time>2017-03-03T03:34:59Z</time>
      </trkpt>
      <trkpt lat="44.34862" lon="3.36288">
        <ele>821</ele>
        <time>2017-03-03T03:36:59Z</time>
      </trkpt>
      <trkpt lat="44.34866" lon="3.36294">
        <ele>821</ele>
        <time>2017-03-03T03:38:59Z</time>
      </trkpt>
      <trkpt lat="44.34868" lon="3.36293">
        <ele>821</ele>
        <time>2017-03-03T03:40:59Z</time>
      </trkpt>
      <trkpt lat="44.34874" lon="3.36291">
        <ele>821</ele>
        <time>2017-03-03T03:42:59Z</time>
      </trkpt>
      <trkpt lat="44.34873" lon="3.36292">
        <ele>821</ele>
        <time>2017-03-03T03:44:59Z</time>
      </trkpt>
      <trkpt lat="44.34871" lon="3.36297">
        <ele>821</ele>
        <time>2017-03-03T03:46:59Z</time>
      </trkpt>
      <trkpt lat="44.34868" lon="3.36302">
        <ele>821</ele>
        <time>2017-03-03T03:48:59Z</time>
      </trkpt>
      <trkpt lat="44.34866" lon="3.36313">
        <ele>822</ele>
        <time>2017-03-03T03:50:59Z</time>
      </trkpt>
      <trkpt lat="44.34865" lon="3.36323">
        <ele>822</ele>
        <time>2017-03-03T03:52:59Z</time>
      </trkpt>
      <trkpt lat="44.34866" lon="3.36331">
        <ele>822</ele>
        <time>2017-03-03T03:54:59Z</time>
      </trkpt>
      <trkpt lat="44.34868" lon="3.36342">
        <ele>822</ele>
        <time>2017-03-03T03:56:59Z</time>
      </trkpt>
      <trkpt lat="44.34872" lon="3.36352">
        <ele>821</ele>
        <time>2017-03-03T03:58:59Z</time>
      </trkpt>
      <trkpt lat="44.34883" lon="3.36363">
        <ele>822</ele>
        <time>2017-03-03T04:00:59Z</time>
      </trkpt>
      <trkpt lat="44.34902" lon="3.3638">
        <ele>823</ele>
        <time>2017-03-03T04:02:59Z</time>
      </trkpt>
      <trkpt lat="44.34911" lon="3.36389">
        <ele>824</ele>
        <time>2017-03-03T04:04:59Z</time>
      </trkpt>
      <trkpt lat="44.34918" lon="3.36399">
        <ele>825</ele>
        <time>2017-03-03T04:06:59Z</time>
      </trkpt>
      <trkpt lat="44.34922" lon="3.3641">
        <ele>825</ele>
        <time>2017-03-03T04:08:59Z</time>
      </trkpt>
      <trkpt lat="44.34926" lon="3.3642">
        <ele>825</ele>
        <time>2017-03-03T04:10:59Z</time>
      </trkpt>
      <trkpt lat="44.34927" lon="3.36422">
        <ele>825</ele>
        <time>2017-03-03T04:12:59Z</time>
      </trkpt>
      <trkpt lat="44.34932" lon="3.36446">
        <ele>826</ele>
        <time>2017-03-03T04:14:59Z</time>
      </trkpt>
      <trkpt lat="44.3494" lon="3.36493">
        <ele>827</ele>
        <time>2017-03-03T04:16:59Z</time>
      </trkpt>
      <trkpt lat="44.34947" lon="3.36531">
        <ele>828</ele>
        <time>2017-03-03T04:18:59Z</time>
      </trkpt>
      <trkpt lat="44.34949" lon="3.3655">
        <ele>828</ele>
        <time>2017-03-03T04:20:59Z</time>
      </trkpt>
      <trkpt lat="44.3495" lon="3.36565">
        <ele>828</ele>
        <time>2017-03-03T04:22:59Z</time>
      </trkpt>
      <trkpt lat="44.3495" lon="3.36578">
        <ele>828</ele>
        <time>2017-03-03T04:24:59Z</time>
      </trkpt>
      <trkpt lat="44.34948" lon="3.36595">
        <ele>828</ele>
        <time>2017-03-03T04:26:59Z</time>
      </trkpt>
      <trkpt lat="44.34944" lon="3.3661">
        <ele>829</ele>
        <time>2017-03-03T04:28:59Z</time>
      </trkpt>
      <trkpt lat="44.34941" lon="3.36618">
        <ele>829</ele>
        <time>2017-03-03T04:30:59Z</time>
      </trkpt>
      <trkpt lat="44.34932" lon="3.36638">
        <ele>830</ele>
        <time>2017-03-03T04:32:59Z</time>
      </trkpt>
      <trkpt lat="44.34922" lon="3.36654">
        <ele>830</ele>
        <time>2017-03-03T04:34:59Z</time>
      </trkpt>
      <trkpt lat="44.34913" lon="3.36664">
        <ele>831</ele>
        <time>2017-03-03T04:36:59Z</time>
      </trkpt>
      <trkpt lat="44.34898" lon="3.36678">
        <ele>830</ele>
        <time>2017-03-03T04:38:59Z</time>
      </trkpt>
      <trkpt lat="44.34881" lon="3.36695">
        <ele>830</ele>
        <time>2017-03-03T04:40:59Z</time>
      </trkpt>
      <trkpt lat="44.34859" lon="3.36715">
        <ele>830</ele>
        <time>2017-03-03T04:42:59Z</time>
      </trkpt>
      <trkpt lat="44.34843" lon="3.36731">
        <ele>830</ele>
        <time>2017-03-03T04:44:59Z</time>
      </trkpt>
      <trkpt lat="44.34833" lon="3.36742">
        <ele>831</ele>
        <time>2017-03-03T04:46:59Z</time>
      </trkpt>
      <trkpt lat="44.34826" lon="3.36755">
        <ele>829</ele>
        <time>2017-03-03T04:48:59Z</time>
      </trkpt>
      <trkpt lat="44.3482" lon="3.3677">
        <ele>827</ele>
        <time>2017-03-03T04:50:59Z</time>
      </trkpt>
      <trkpt lat="44.34817" lon="3.36788">
        <ele>825</ele>
        <time>2017-03-03T04:52:59Z</time>
      </trkpt>
      <trkpt lat="44.34815" lon="3.36806">
        <ele>823</ele>
        <time>2017-03-03T04:54:59Z</time>
      </trkpt>
      <trkpt lat="44.34815" lon="3.36821">
        <ele>821</ele>
        <time>2017-03-03T04:56:59Z</time>
      </trkpt>
      <trkpt lat="44.34814" lon="3.36833">
        <ele>820</ele>
        <time>2017-03-03T04:58:59Z</time>
      </trkpt>
      <trkpt lat="44.34816" lon="3.36849">
        <ele>820</ele>
        <time>2017-03-03T05:00:59Z</time>
      </trkpt>
      <trkpt lat="44.34823" lon="3.36878">
        <ele>822</ele>
        <time>2017-03-03T05:02:59Z</time>
      </trkpt>
      <trkpt lat="44.34828" lon="3.36892">
        <ele>823</ele>
        <time>2017-03-03T05:04:59Z</time>
      </trkpt>
      <trkpt lat="44.34831" lon="3.36905">
        <ele>824</ele>
        <time>2017-03-03T05:06:59Z</time>
      </trkpt>
      <trkpt lat="44.34831" lon="3.36917">
        <ele>823</ele>
        <time>2017-03-03T05:08:59Z</time>
      </trkpt>
      <trkpt lat="44.34828" lon="3.36946">
        <ele>822</ele>
        <time>2017-03-03T05:10:59Z</time>
      </trkpt>
      <trkpt lat="44.34822" lon="3.36986">
        <ele>819</ele>
        <time>2017-03-03T05:12:59Z</time>
      </trkpt>
      <trkpt lat="44.34814" lon="3.37034">
        <ele>814</ele>
        <time>2017-03-03T05:14:59Z</time>
      </trkpt>
      <trkpt lat="44.3481" lon="3.3706">
        <ele>811</ele>
        <time>2017-03-03T05:16:59Z</time>
      </trkpt>
      <trkpt lat="44.3481" lon="3.37097">
        <ele>809</ele>
        <time>2017-03-03T05:18:59Z</time>
      </trkpt>
      <trkpt lat="44.34814" lon="3.37114">
        <ele>811</ele>
        <time>2017-03-03T05:20:59Z</time>
      </trkpt>
      <trkpt lat="44.3482" lon="3.37136">
        <ele>814</ele>
        <time>2017-03-03T05:22:59Z</time>
      </trkpt>
      <trkpt lat="44.34824" lon="3.37157">
        <ele>817</ele>
        <time>2017-03-03T05:24:59Z</time>
      </trkpt>
      <trkpt lat="44.34826" lon="3.37166">
        <ele>818</ele>
        <time>2017-03-03T05:26:59Z</time>
      </trkpt>
      <trkpt lat="44.34827" lon="3.37178">
        <ele>819</ele>
        <time>2017-03-03T05:28:59Z</time>
      </trkpt>
      <trkpt lat="44.34826" lon="3.37202">
        <ele>819</ele>
        <time>2017-03-03T05:30:59Z</time>
      </trkpt>
      <trkpt lat="44.34826" lon="3.37221">
        <ele>820</ele>
        <time>2017-03-03T05:32:59Z</time>
      </trkpt>
      <trkpt lat="44.34825" lon="3.37232">
        <ele>820</ele>
        <time>2017-03-03T05:34:59Z</time>
      </trkpt>
      <trkpt lat="44.34823" lon="3.37242">
        <ele>820</ele>
        <time>2017-03-03T05:36:59Z</time>
      </trkpt>
      <trkpt lat="44.34819" lon="3.37251">
        <ele>820</ele>
        <time>2017-03-03T05:38:59Z</time>
      </trkpt>
      <trkpt lat="44.34814" lon="3.37259">
        <ele>820</ele>
        <time>2017-03-03T05:40:59Z</time>
      </trkpt>
      <trkpt lat="44.3481" lon="3.37262">
        <ele>819</ele>
        <time>2017-03-03T05:42:59Z</time>
      </trkpt>
      <trkpt lat="44.34808" lon="3.37256">
        <ele>818</ele>
        <time>2017-03-03T05:44:59Z</time>
      </trkpt>
      <trkpt lat="44.3481" lon="3.37249">
        <ele>818</ele>
        <time>2017-03-03T05:46:59Z</time>
      </trkpt>
      <trkpt lat="44.34815" lon="3.37234">
        <ele>818</ele>
        <time>2017-03-03T05:48:59Z</time>
      </trkpt>
      <trkpt lat="44.34813" lon="3.37226">
        <ele>816</ele>
        <time>2017-03-03T05:50:59Z</time>
      </trkpt>
      <trkpt lat="44.34809" lon="3.37218">
        <ele>815</ele>
        <time>2017-03-03T05:52:59Z</time>
      </trkpt>
      <trkpt lat="44.34803" lon="3.37212">
        <ele>812</ele>
        <time>2017-03-03T05:54:59Z</time>
      </trkpt>
      <trkpt lat="44.348" lon="3.37208">
        <ele>811</ele>
        <time>2017-03-03T05:56:59Z</time>
      </trkpt>
      <trkpt lat="44.34797" lon="3.37205">
        <ele>809</ele>
        <time>2017-03-03T05:58:59Z</time>
      </trkpt>
      <trkpt lat="44.34792" lon="3.37201">
        <ele>807</ele>
        <time>2017-03-03T06:00:59Z</time>
      </trkpt>
      <trkpt lat="44.3479" lon="3.37198">
        <ele>806</ele>
        <time>2017-03-03T06:02:59Z</time>
      </trkpt>
      <trkpt lat="44.3479" lon="3.37187">
        <ele>804</ele>
        <time>2017-03-03T06:04:59Z</time>
      </trkpt>
      <trkpt lat="44.34791" lon="3.37176">
        <ele>803</ele>
        <time>2017-03-03T06:06:59Z</time>
      </trkpt>
      <trkpt lat="44.3479" lon="3.37168">
        <ele>801</ele>
        <time>2017-03-03T06:08:59Z</time>
      </trkpt>
      <trkpt lat="44.34787" lon="3.37156">
        <ele>800</ele>
        <time>2017-03-03T06:10:59Z</time>
      </trkpt>
      <trkpt lat="44.34786" lon="3.37148">
        <ele>799</ele>
        <time>2017-03-03T06:12:59Z</time>
      </trkpt>
      <trkpt lat="44.34787" lon="3.37134">
        <ele>800</ele>
        <time>2017-03-03T06:14:59Z</time>
      </trkpt>
      <trkpt lat="44.34786" lon="3.37116">
        <ele>799</ele>
        <time>2017-03-03T06:16:59Z</time>
      </trkpt>
      <trkpt lat="44.34784" lon="3.37106">
        <ele>798</ele>
        <time>2017-03-03T06:18:59Z</time>
      </trkpt>
      <trkpt lat="44.3478" lon="3.37098">
        <ele>797</ele>
        <time>2017-03-03T06:20:59Z</time>
      </trkpt>
      <trkpt lat="44.34778" lon="3.37095">
        <ele>796</ele>
        <time>2017-03-03T06:22:59Z</time>
      </trkpt>
      <trkpt lat="44.34774" lon="3.37087">
        <ele>794</ele>
        <time>2017-03-03T06:24:59Z</time>
      </trkpt>
      <trkpt lat="44.34773" lon="3.37082">
        <ele>794</ele>
        <time>2017-03-03T06:26:59Z</time>
      </trkpt>
      <trkpt lat="44.34769" lon="3.37073">
        <ele>793</ele>
        <time>2017-03-03T06:28:59Z</time>
      </trkpt>
      <trkpt lat="44.34768" lon="3.37072">
        <ele>793</ele>
        <time>2017-03-03T06:30:59Z</time>
      </trkpt>
      <trkpt lat="44.34767" lon="3.37076">
        <ele>792</ele>
        <time>2017-03-03T06:32:59Z</time>
      </trkpt>
      <trkpt lat="44.34767" lon="3.37081">
        <ele>791</ele>
        <time>2017-03-03T06:34:59Z</time>
      </trkpt>
      <trkpt lat="44.34768" lon="3.37089">
        <ele>792</ele>
        <time>2017-03-03T06:36:59Z</time>
      </trkpt>
      <trkpt lat="44.34767" lon="3.3709">
        <ele>791</ele>
        <time>2017-03-03T06:38:59Z</time>
      </trkpt>
      <trkpt lat="44.34765" lon="3.37089">
        <ele>790</ele>
        <time>2017-03-03T06:40:59Z</time>
      </trkpt>
      <trkpt lat="44.34765" lon="3.37088">
        <ele>790</ele>
        <time>2017-03-03T06:42:59Z</time>
      </trkpt>
      <trkpt lat="44.34764" lon="3.37086">
        <ele>790</ele>
        <time>2017-03-03T06:44:59Z</time>
      </trkpt>
      <trkpt lat="44.34761" lon="3.37076">
        <ele>790</ele>
        <time>2017-03-03T06:46:59Z</time>
      </trkpt>
      <trkpt lat="44.34759" lon="3.37075">
        <ele>789</ele>
        <time>2017-03-03T06:48:59Z</time>
      </trkpt>
      <trkpt lat="44.34757" lon="3.37075">
        <ele>788</ele>
        <time>2017-03-03T06:50:59Z</time>
      </trkpt>
      <trkpt lat="44.34756" lon="3.37078">
        <ele>787</ele>
        <time>2017-03-03T06:52:59Z</time>
      </trkpt>
      <trkpt lat="44.34757" lon="3.37081">
        <ele>787</ele>
        <time>2017-03-03T06:54:59Z</time>
      </trkpt>
      <trkpt lat="44.34758" lon="3.37088">
        <ele>787</ele>
        <time>2017-03-03T06:56:59Z</time>
      </trkpt>
      <trkpt lat="44.34757" lon="3.37099">
        <ele>787</ele>
        <time>2017-03-03T06:58:59Z</time>
      </trkpt>
      <trkpt lat="44.34756" lon="3.37117">
        <ele>786</ele>
        <time>2017-03-03T07:00:59Z</time>
      </trkpt>
      <trkpt lat="44.34744" lon="3.37155">
        <ele>779</ele>
        <time>2017-03-03T07:02:59Z</time>
      </trkpt>
      <trkpt lat="44.34737" lon="3.37171">
        <ele>776</ele>
        <time>2017-03-03T07:04:59Z</time>
      </trkpt>
      <trkpt lat="44.3473" lon="3.3718">
        <ele>774</ele>
        <time>2017-03-03T07:06:59Z</time>
      </trkpt>
      <trkpt lat="44.347" lon="3.37212">
        <ele>764</ele>
        <time>2017-03-03T07:08:59Z</time>
      </trkpt>
      <trkpt lat="44.3469" lon="3.37223">
        <ele>761</ele>
        <time>2017-03-03T07:10:59Z</time>
      </trkpt>
      <trkpt lat="44.34684" lon="3.37231">
        <ele>760</ele>
        <time>2017-03-03T07:12:59Z</time>
      </trkpt>
      <trkpt lat="44.34678" lon="3.37236">
        <ele>758</ele>
        <time>2017-03-03T07:14:59Z</time>
      </trkpt>
      <trkpt lat="44.34672" lon="3.37246">
        <ele>757</ele>
        <time>2017-03-03T07:16:59Z</time>
      </trkpt>
      <trkpt lat="44.34664" lon="3.37255">
        <ele>755</ele>
        <time>2017-03-03T07:18:59Z</time>
      </trkpt>
      <trkpt lat="44.34654" lon="3.37267">
        <ele>753</ele>
        <time>2017-03-03T07:20:59Z</time>
      </trkpt>
      <trkpt lat="44.34646" lon="3.37283">
        <ele>754</ele>
        <time>2017-03-03T07:22:59Z</time>
      </trkpt>
      <trkpt lat="44.34639" lon="3.37292">
        <ele>752</ele>
        <time>2017-03-03T07:24:59Z</time>
      </trkpt>
      <trkpt lat="44.34631" lon="3.37306">
        <ele>752</ele>
        <time>2017-03-03T07:26:59Z</time>
      </trkpt>
      <trkpt lat="44.34618" lon="3.37326">
        <ele>751</ele>
        <time>2017-03-03T07:28:59Z</time>
      </trkpt>
      <trkpt lat="44.34608" lon="3.37345">
        <ele>749</ele>
        <time>2017-03-03T07:30:59Z</time>
      </trkpt>
      <trkpt lat="44.34596" lon="3.37366">
        <ele>745</ele>
        <time>2017-03-03T07:32:59Z</time>
      </trkpt>
      <trkpt lat="44.34592" lon="3.37381">
        <ele>745</ele>
        <time>2017-03-03T07:34:59Z</time>
      </trkpt>
      <trkpt lat="44.34587" lon="3.37405">
        <ele>746</ele>
        <time>2017-03-03T07:36:59Z</time>
      </trkpt>
      <trkpt lat="44.34586" lon="3.37426">
        <ele>749</ele>
        <time>2017-03-03T07:38:59Z</time>
      </trkpt>
      <trkpt lat="44.34586" lon="3.37448">
        <ele>751</ele>
        <time>2017-03-03T07:40:59Z</time>
      </trkpt>
      <trkpt lat="44.34588" lon="3.37463">
        <ele>754</ele>
        <time>2017-03-03T07:42:59Z</time>
      </trkpt>
      <trkpt lat="44.3459" lon="3.37471">
        <ele>757</ele>
        <time>2017-03-03T07:44:59Z</time>
      </trkpt>
      <trkpt lat="44.34587" lon="3.37484">
        <ele>756</ele>
        <time>2017-03-03T07:46:59Z</time>
      </trkpt>
      <trkpt lat="44.34583" lon="3.37496">
        <ele>754</ele>
        <time>2017-03-03T07:48:59Z</time>
      </trkpt>
      <trkpt lat="44.34575" lon="3.37509">
        <ele>752</ele>
        <time>2017-03-03T07:50:59Z</time>
      </trkpt>
      <trkpt lat="44.34569" lon="3.37524">
        <ele>752</ele>
        <time>2017-03-03T07:52:59Z</time>
      </trkpt>
      <trkpt lat="44.34564" lon="3.37544">
        <ele>755</ele>
        <time>2017-03-03T07:54:59Z</time>
      </trkpt>
      <trkpt lat="44.34556" lon="3.37557">
        <ele>754</ele>
        <time>2017-03-03T07:56:59Z</time>
      </trkpt>
      <trkpt lat="44.34548" lon="3.37564">
        <ele>751</ele>
        <time>2017-03-03T07:58:59Z</time>
      </trkpt>
      <trkpt lat="44.3453" lon="3.37579">
        <ele>744</ele>
        <time>2017-03-03T08:00:59Z</time>
      </trkpt>
      <trkpt lat="44.34514" lon="3.37591">
        <ele>739</ele>
        <time>2017-03-03T08:02:59Z</time>
      </trkpt>
      <trkpt lat="44.34493" lon="3.37608">
        <ele>732</ele>
        <time>2017-03-03T08:04:59Z</time>
      </trkpt>
      <trkpt lat="44.34477" lon="3.37622">
        <ele>728</ele>
        <time>2017-03-03T08:06:59Z</time>
      </trkpt>
      <trkpt lat="44.34453" lon="3.37641">
        <ele>721</ele>
        <time>2017-03-03T08:08:59Z</time>
      </trkpt>
      <trkpt lat="44.34437" lon="3.37659">
        <ele>718</ele>
        <time>2017-03-03T08:10:59Z</time>
      </trkpt>
      <trkpt lat="44.34418" lon="3.37682">
        <ele>716</ele>
        <time>2017-03-03T08:12:59Z</time>
      </trkpt>
      <trkpt lat="44.34396" lon="3.37702">
        <ele>711</ele>
        <time>2017-03-03T08:14:59Z</time>
      </trkpt>
      <trkpt lat="44.34381" lon="3.37715">
        <ele>709</ele>
        <time>2017-03-03T08:16:59Z</time>
      </trkpt>
      <trkpt lat="44.34353" lon="3.37732">
        <ele>701</ele>
        <time>2017-03-03T08:18:59Z</time>
      </trkpt>
      <trkpt lat="44.34339" lon="3.37737">
        <ele>696</ele>
        <time>2017-03-03T08:20:59Z</time>
      </trkpt>
      <trkpt lat="44.34323" lon="3.37741">
        <ele>691</ele>
        <time>2017-03-03T08:22:59Z</time>
      </trkpt>
      <trkpt lat="44.34302" lon="3.37742">
        <ele>683</ele>
        <time>2017-03-03T08:24:59Z</time>
      </trkpt>
      <trkpt lat="44.34291" lon="3.37742">
        <ele>678</ele>
        <time>2017-03-03T08:26:59Z</time>
      </trkpt>
      <trkpt lat="44.3429" lon="3.37741">
        <ele>677</ele>
        <time>2017-03-03T08:28:59Z</time>
      </trkpt>
      <trkpt lat="44.3429" lon="3.3774">
        <ele>677</ele>
        <time>2017-03-03T08:30:59Z</time>
      </trkpt>
      <trkpt lat="44.34292" lon="3.37737">
        <ele>676</ele>
        <time>2017-03-03T08:32:59Z</time>
      </trkpt>
      <trkpt lat="44.34298" lon="3.37733">
        <ele>677</ele>
        <time>2017-03-03T08:34:59Z</time>
      </trkpt>
      <trkpt lat="44.343" lon="3.37729">
        <ele>676</ele>
        <time>2017-03-03T08:36:59Z</time>
      </trkpt>
      <trkpt lat="44.34298" lon="3.37728">
        <ele>674</ele>
        <time>2017-03-03T08:38:59Z</time>
      </trkpt>
      <trkpt lat="44.34293" lon="3.37728">
        <ele>672</ele>
        <time>2017-03-03T08:40:59Z</time>
      </trkpt>
      <trkpt lat="44.34278" lon="3.37732">
        <ele>668</ele>
        <time>2017-03-03T08:42:59Z</time>
      </trkpt>
      <trkpt lat="44.34265" lon="3.37732">
        <ele>663</ele>
        <time>2017-03-03T08:44:59Z</time>
      </trkpt>
      <trkpt lat="44.34246" lon="3.37735">
        <ele>657</ele>
        <time>2017-03-03T08:46:59Z</time>
      </trkpt>
      <trkpt lat="44.34242" lon="3.37735">
        <ele>655</ele>
        <time>2017-03-03T08:48:59Z</time>
      </trkpt>
      <trkpt lat="44.34241" lon="3.37733">
        <ele>654</ele>
        <time>2017-03-03T08:50:59Z</time>
      </trkpt>
      <trkpt lat="44.34241" lon="3.37731">
        <ele>652</ele>
        <time>2017-03-03T08:52:59Z</time>
      </trkpt>
      <trkpt lat="44.34253" lon="3.37716">
        <ele>650</ele>
        <time>2017-03-03T08:54:59Z</time>
      </trkpt>
      <trkpt lat="44.34265" lon="3.37709">
        <ele>651</ele>
        <time>2017-03-03T08:56:59Z</time>
      </trkpt>
      <trkpt lat="44.34278" lon="3.37696">
        <ele>650</ele>
        <time>2017-03-03T08:58:59Z</time>
      </trkpt>
      <trkpt lat="44.34284" lon="3.37688">
        <ele>649</ele>
        <time>2017-03-03T09:00:59Z</time>
      </trkpt>
      <trkpt lat="44.34293" lon="3.37678">
        <ele>648</ele>
        <time>2017-03-03T09:02:59Z</time>
      </trkpt>
      <trkpt lat="44.34299" lon="3.37672">
        <ele>648</ele>
        <time>2017-03-03T09:04:59Z</time>
      </trkpt>
      <trkpt lat="44.34304" lon="3.37668">
        <ele>648</ele>
        <time>2017-03-03T09:06:59Z</time>
      </trkpt>
      <trkpt lat="44.3431" lon="3.37659">
        <ele>647</ele>
        <time>2017-03-03T09:08:59Z</time>
      </trkpt>
      <trkpt lat="44.34317" lon="3.37641">
        <ele>644</ele>
        <time>2017-03-03T09:10:59Z</time>
      </trkpt>
      <trkpt lat="44.34318" lon="3.37625">
        <ele>638</ele>
        <time>2017-03-03T09:12:59Z</time>
      </trkpt>
      <trkpt lat="44.34325" lon="3.37606">
        <ele>634</ele>
        <time>2017-03-03T09:14:59Z</time>
      </trkpt>
      <trkpt lat="44.34329" lon="3.37578">
        <ele>625</ele>
        <time>2017-03-03T09:16:59Z</time>
      </trkpt>
      <trkpt lat="44.34331" lon="3.37567">
        <ele>622</ele>
        <time>2017-03-03T09:18:59Z</time>
      </trkpt>
      <trkpt lat="44.34331" lon="3.37563">
        <ele>621</ele>
        <time>2017-03-03T09:20:59Z</time>
      </trkpt>
      <trkpt lat="44.3433" lon="3.37559">
        <ele>619</ele>
        <time>2017-03-03T09:22:59Z</time>
      </trkpt>
      <trkpt lat="44.34329" lon="3.3755">
        <ele>615</ele>
        <time>2017-03-03T09:24:59Z</time>
      </trkpt>
      <trkpt lat="44.34329" lon="3.37546">
        <ele>614</ele>
        <time>2017-03-03T09:26:59Z</time>
      </trkpt>
      <trkpt lat="44.34331" lon="3.37535">
        <ele>611</ele>
        <time>2017-03-03T09:28:59Z</time>
      </trkpt>
      <trkpt lat="44.34329" lon="3.37533">
        <ele>609</ele>
        <time>2017-03-03T09:30:59Z</time>
      </trkpt>
      <trkpt lat="44.34329" lon="3.37534">
        <ele>610</ele>
        <time>2017-03-03T09:32:59Z</time>
      </trkpt>
      <trkpt lat="44.34327" lon="3.37535">
        <ele>609</ele>
        <time>2017-03-03T09:34:59Z</time>
      </trkpt>
      <trkpt lat="44.34322" lon="3.37542">
        <ele>609</ele>
        <time>2017-03-03T09:36:59Z</time>
      </trkpt>
      <trkpt lat="44.3432" lon="3.37544">
        <ele>609</ele>
        <time>2017-03-03T09:38:59Z</time>
      </trkpt>
      <trkpt lat="44.34319" lon="3.37544">
        <ele>609</ele>
        <time>2017-03-03T09:40:59Z</time>
      </trkpt>
      <trkpt lat="44.34318" lon="3.37543">
        <ele>608</ele>
        <time>2017-03-03T09:42:59Z</time>
      </trkpt>
      <trkpt lat="44.34318" lon="3.3754">
        <ele>607</ele>
        <time>2017-03-03T09:44:59Z</time>
      </trkpt>
      <trkpt lat="44.3432" lon="3.37535">
        <ele>606</ele>
        <time>2017-03-03T09:46:59Z</time>
      </trkpt>
      <trkpt lat="44.3432" lon="3.3753">
        <ele>604</ele>
        <time>2017-03-03T09:48:59Z</time>
      </trkpt>
      <trkpt lat="44.34319" lon="3.37526">
        <ele>602</ele>
        <time>2017-03-03T09:50:59Z</time>
      </trkpt>
      <trkpt lat="44.3432" lon="3.37522">
        <ele>601</ele>
        <time>2017-03-03T09:52:59Z</time>
      </trkpt>
      <trkpt lat="44.34321" lon="3.37515">
        <ele>599</ele>
        <time>2017-03-03T09:54:59Z</time>
      </trkpt>
      <trkpt lat="44.34322" lon="3.37513">
        <ele>599</ele>
        <time>2017-03-03T09:56:59Z</time>
      </trkpt>
      <trkpt lat="44.34322" lon="3.3751">
        <ele>598</ele>
        <time>2017-03-03T09:58:59Z</time>
      </trkpt>
      <trkpt lat="44.34321" lon="3.3751">
        <ele>598</ele>
        <time>2017-03-03T10:00:59Z</time>
      </trkpt>
      <trkpt lat="44.34318" lon="3.37514">
        <ele>598</ele>
        <time>2017-03-03T10:02:59Z</time>
      </trkpt>
      <trkpt lat="44.34317" lon="3.37516">
        <ele>598</ele>
        <time>2017-03-03T10:04:59Z</time>
      </trkpt>
      <trkpt lat="44.34315" lon="3.37517">
        <ele>597</ele>
        <time>2017-03-03T10:06:59Z</time>
      </trkpt>
      <trkpt lat="44.34313" lon="3.37515">
        <ele>596</ele>
        <time>2017-03-03T10:08:59Z</time>
      </trkpt>
      <trkpt lat="44.34312" lon="3.37512">
        <ele>594</ele>
        <time>2017-03-03T10:10:59Z</time>
      </trkpt>
      <trkpt lat="44.34313" lon="3.37509">
        <ele>594</ele>
        <time>2017-03-03T10:12:59Z</time>
      </trkpt>
      <trkpt lat="44.34315" lon="3.37507">
        <ele>594</ele>
        <time>2017-03-03T10:14:59Z</time>
      </trkpt>
      <trkpt lat="44.34316" lon="3.37503">
        <ele>593</ele>
        <time>2017-03-03T10:16:59Z</time>
      </trkpt>
      <trkpt lat="44.34314" lon="3.37503">
        <ele>592</ele>
        <time>2017-03-03T10:18:59Z</time>
      </trkpt>
      <trkpt lat="44.34312" lon="3.37505">
        <ele>592</ele>
        <time>2017-03-03T10:20:59Z</time>
      </trkpt>
      <trkpt lat="44.3431" lon="3.37508">
        <ele>592</ele>
        <time>2017-03-03T10:22:59Z</time>
      </trkpt>
      <trkpt lat="44.34295" lon="3.37523">
        <ele>590</ele>
        <time>2017-03-03T10:24:59Z</time>
      </trkpt>
      <trkpt lat="44.34287" lon="3.37533">
        <ele>590</ele>
        <time>2017-03-03T10:26:59Z</time>
      </trkpt>
      <trkpt lat="44.34281" lon="3.37543">
        <ele>590</ele>
        <time>2017-03-03T10:28:59Z</time>
      </trkpt>
      <trkpt lat="44.3428" lon="3.37546">
        <ele>591</ele>
        <time>2017-03-03T10:30:59Z</time>
      </trkpt>
      <trkpt lat="44.34279" lon="3.37553">
        <ele>593</ele>
        <time>2017-03-03T10:32:59Z</time>
      </trkpt>
      <trkpt lat="44.34278" lon="3.37555">
        <ele>593</ele>
        <time>2017-03-03T10:34:59Z</time>
      </trkpt>
      <trkpt lat="44.34276" lon="3.37557">
        <ele>593</ele>
        <time>2017-03-03T10:36:59Z</time>
      </trkpt>
      <trkpt lat="44.34274" lon="3.37556">
        <ele>592</ele>
        <time>2017-03-03T10:38:59Z</time>
      </trkpt>
      <trkpt lat="44.34274" lon="3.37552">
        <ele>590</ele>
        <time>2017-03-03T10:40:59Z</time>
      </trkpt>
      <trkpt lat="44.34273" lon="3.37545">
        <ele>587</ele>
        <time>2017-03-03T10:42:59Z</time>
      </trkpt>
      <trkpt lat="44.34273" lon="3.37542">
        <ele>586</ele>
        <time>2017-03-03T10:44:59Z</time>
      </trkpt>
      <trkpt lat="44.34271" lon="3.3754">
        <ele>585</ele>
        <time>2017-03-03T10:46:59Z</time>
      </trkpt>
      <trkpt lat="44.34269" lon="3.37539">
        <ele>583</ele>
        <time>2017-03-03T10:48:59Z</time>
      </trkpt>
      <trkpt lat="44.34266" lon="3.37546">
        <ele>584</ele>
        <time>2017-03-03T10:50:59Z</time>
      </trkpt>
      <trkpt lat="44.34263" lon="3.37552">
        <ele>585</ele>
        <time>2017-03-03T10:52:59Z</time>
      </trkpt>
      <trkpt lat="44.34256" lon="3.37559">
        <ele>584</ele>
        <time>2017-03-03T10:54:59Z</time>
      </trkpt>
      <trkpt lat="44.34246" lon="3.37568">
        <ele>583</ele>
        <time>2017-03-03T10:56:59Z</time>
      </trkpt>
      <trkpt lat="44.34241" lon="3.37572">
        <ele>582</ele>
        <time>2017-03-03T10:58:59Z</time>
      </trkpt>
      <trkpt lat="44.34232" lon="3.37574">
        <ele>579</ele>
        <time>2017-03-03T11:00:59Z</time>
      </trkpt>
      <trkpt lat="44.34219" lon="3.37574">
        <ele>574</ele>
        <time>2017-03-03T11:02:59Z</time>
      </trkpt>
      <trkpt lat="44.34203" lon="3.3757">
        <ele>565</ele>
        <time>2017-03-03T11:04:59Z</time>
      </trkpt>
      <trkpt lat="44.34197" lon="3.37569">
        <ele>562</ele>
        <time>2017-03-03T11:06:59Z</time>
      </trkpt>
      <trkpt lat="44.34193" lon="3.37568">
        <ele>560</ele>
        <time>2017-03-03T11:08:59Z</time>
      </trkpt>
      <trkpt lat="44.34186" lon="3.37568">
        <ele>557</ele>
        <time>2017-03-03T11:10:59Z</time>
      </trkpt>
      <trkpt lat="44.34175" lon="3.37567">
        <ele>552</ele>
        <time>2017-03-03T11:12:59Z</time>
      </trkpt>
      <trkpt lat="44.34167" lon="3.37568">
        <ele>549</ele>
        <time>2017-03-03T11:14:59Z</time>
      </trkpt>
      <trkpt lat="44.34159" lon="3.37565">
        <ele>543</ele>
        <time>2017-03-03T11:16:59Z</time>
      </trkpt>
      <trkpt lat="44.34154" lon="3.37566">
        <ele>541</ele>
        <time>2017-03-03T11:18:59Z</time>
      </trkpt>
      <trkpt lat="44.3415" lon="3.37568">
        <ele>540</ele>
        <time>2017-03-03T11:20:59Z</time>
      </trkpt>
      <trkpt lat="44.34147" lon="3.37572">
        <ele>541</ele>
        <time>2017-03-03T11:22:59Z</time>
      </trkpt>
      <trkpt lat="44.34145" lon="3.37576">
        <ele>541</ele>
        <time>2017-03-03T11:24:59Z</time>
      </trkpt>
      <trkpt lat="44.34141" lon="3.37594">
        <ele>547</ele>
        <time>2017-03-03T11:26:59Z</time>
      </trkpt>
      <trkpt lat="44.34141" lon="3.37596">
        <ele>548</ele>
        <time>2017-03-03T11:28:59Z</time>
      </trkpt>
      <trkpt lat="44.34143" lon="3.37597">
        <ele>549</ele>
        <time>2017-03-03T11:30:59Z</time>
      </trkpt>
      <trkpt lat="44.34147" lon="3.37601">
        <ele>553</ele>
        <time>2017-03-03T11:32:59Z</time>
      </trkpt>
      <trkpt lat="44.34148" lon="3.37604">
        <ele>555</ele>
        <time>2017-03-03T11:34:59Z</time>
      </trkpt>
      <trkpt lat="44.34146" lon="3.37611">
        <ele>557</ele>
        <time>2017-03-03T11:36:59Z</time>
      </trkpt>
      <trkpt lat="44.34144" lon="3.37615">
        <ele>558</ele>
        <time>2017-03-03T11:38:59Z</time>
      </trkpt>
      <trkpt lat="44.34142" lon="3.37617">
        <ele>557</ele>
        <time>2017-03-03T11:40:59Z</time>
      </trkpt>
      <trkpt lat="44.34139" lon="3.37619">
        <ele>557</ele>
        <time>2017-03-03T11:42:59Z</time>
      </trkpt>
      <trkpt lat="44.34138" lon="3.37618">
        <ele>556</ele>
        <time>2017-03-03T11:44:59Z</time>
      </trkpt>
      <trkpt lat="44.34137" lon="3.37616">
        <ele>554</ele>
        <time>2017-03-03T11:46:59Z</time>
      </trkpt>
      <trkpt lat="44.34138" lon="3.37614">
        <ele>554</ele>
        <time>2017-03-03T11:48:59Z</time>
      </trkpt>
      <trkpt lat="44.34139" lon="3.37613">
        <ele>554</ele>
        <time>2017-03-03T11:50:59Z</time>
      </trkpt>
      <trkpt lat="44.34139" lon="3.37611">
        <ele>553</ele>
        <time>2017-03-03T11:52:59Z</time>
      </trkpt>
      <trkpt lat="44.34137" lon="3.37611">
        <ele>552</ele>
        <time>2017-03-03T11:54:59Z</time>
      </trkpt>
      <trkpt lat="44.34134" lon="3.37612">
        <ele>551</ele>
        <time>2017-03-03T11:56:59Z</time>
      </trkpt>
      <trkpt lat="44.34129" lon="3.37618">
        <ele>551</ele>
        <time>2017-03-03T11:58:59Z</time>
      </trkpt>
      <trkpt lat="44.34125" lon="3.37619">
        <ele>549</ele>
        <time>2017-03-03T12:00:59Z</time>
      </trkpt>
      <trkpt lat="44.34118" lon="3.37628">
        <ele>549</ele>
        <time>2017-03-03T12:02:59Z</time>
      </trkpt>
      <trkpt lat="44.34116" lon="3.37631">
        <ele>550</ele>
        <time>2017-03-03T12:04:59Z</time>
      </trkpt>
      <trkpt lat="44.34114" lon="3.37631">
        <ele>548</ele>
        <time>2017-03-03T12:06:59Z</time>
      </trkpt>
      <trkpt lat="44.34113" lon="3.37629">
        <ele>547</ele>
        <time>2017-03-03T12:08:59Z</time>
      </trkpt>
      <trkpt lat="44.34114" lon="3.37627">
        <ele>547</ele>
        <time>2017-03-03T12:10:59Z</time>
      </trkpt>
      <trkpt lat="44.34116" lon="3.37624">
        <ele>547</ele>
        <time>2017-03-03T12:12:59Z</time>
      </trkpt>
      <trkpt lat="44.34119" lon="3.37617">
        <ele>545</ele>
        <time>2017-03-03T12:14:59Z</time>
      </trkpt>
      <trkpt lat="44.34119" lon="3.37613">
        <ele>544</ele>
        <time>2017-03-03T12:16:59Z</time>
      </trkpt>
      <trkpt lat="44.34117" lon="3.37613">
        <ele>543</ele>
        <time>2017-03-03T12:18:59Z</time>
      </trkpt>
      <trkpt lat="44.34116" lon="3.37614">
        <ele>543</ele>
        <time>2017-03-03T12:20:59Z</time>
      </trkpt>
      <trkpt lat="44.34113" lon="3.37619">
        <ele>543</ele>
        <time>2017-03-03T12:22:59Z</time>
      </trkpt>
      <trkpt lat="44.3411" lon="3.37623">
        <ele>543</ele>
        <time>2017-03-03T12:24:59Z</time>
      </trkpt>
      <trkpt lat="44.34099" lon="3.37632">
        <ele>541</ele>
        <time>2017-03-03T12:26:59Z</time>
      </trkpt>
      <trkpt lat="44.34066" lon="3.37646">
        <ele>527</ele>
        <time>2017-03-03T12:28:59Z</time>
      </trkpt>
      <trkpt lat="44.3406" lon="3.37648">
        <ele>524</ele>
        <time>2017-03-03T12:30:59Z</time>
      </trkpt>
      <trkpt lat="44.34058" lon="3.37648">
        <ele>523</ele>
        <time>2017-03-03T12:32:59Z</time>
      </trkpt>
      <trkpt lat="44.34056" lon="3.3765">
        <ele>522</ele>
        <time>2017-03-03T12:34:59Z</time>
      </trkpt>
      <trkpt lat="44.34053" lon="3.37659">
        <ele>524</ele>
        <time>2017-03-03T12:36:59Z</time>
      </trkpt>
      <trkpt lat="44.3405" lon="3.37665">
        <ele>524</ele>
        <time>2017-03-03T12:38:59Z</time>
      </trkpt>
      <trkpt lat="44.34046" lon="3.37671">
        <ele>524</ele>
        <time>2017-03-03T12:40:59Z</time>
      </trkpt>
      <trkpt lat="44.34042" lon="3.37678">
        <ele>525</ele>
        <time>2017-03-03T12:42:59Z</time>
      </trkpt>
      <trkpt lat="44.34038" lon="3.37686">
        <ele>526</ele>
        <time>2017-03-03T12:44:59Z</time>
      </trkpt>
      <trkpt lat="44.34034" lon="3.37688">
        <ele>524</ele>
        <time>2017-03-03T12:46:59Z</time>
      </trkpt>
      <trkpt lat="44.34031" lon="3.3769">
        <ele>523</ele>
        <time>2017-03-03T12:48:59Z</time>
      </trkpt>
      <trkpt lat="44.34025" lon="3.37691">
        <ele>520</ele>
        <time>2017-03-03T12:50:59Z</time>
      </trkpt>
      <trkpt lat="44.34021" lon="3.37693">
        <ele>518</ele>
        <time>2017-03-03T12:52:59Z</time>
      </trkpt>
      <trkpt lat="44.34017" lon="3.37692">
        <ele>515</ele>
        <time>2017-03-03T12:54:59Z</time>
      </trkpt>
      <trkpt lat="44.34015" lon="3.37692">
        <ele>513</ele>
        <time>2017-03-03T12:56:59Z</time>
      </trkpt>
      <trkpt lat="44.34015" lon="3.3769">
        <ele>512</ele>
        <time>2017-03-03T12:58:59Z</time>
      </trkpt>
      <trkpt lat="44.34016" lon="3.37689">
        <ele>512</ele>
        <time>2017-03-03T13:00:59Z</time>
      </trkpt>
      <trkpt lat="44.34019" lon="3.37688">
        <ele>514</ele>
        <time>2017-03-03T13:02:59Z</time>
      </trkpt>
      <trkpt lat="44.3402" lon="3.37686">
        <ele>514</ele>
        <time>2017-03-03T13:04:59Z</time>
      </trkpt>
      <trkpt lat="44.34025" lon="3.37682">
        <ele>515</ele>
        <time>2017-03-03T13:06:59Z</time>
      </trkpt>
      <trkpt lat="44.34026" lon="3.3768">
        <ele>515</ele>
        <time>2017-03-03T13:08:59Z</time>
      </trkpt>
      <trkpt lat="44.34026" lon="3.37677">
        <ele>513</ele>
        <time>2017-03-03T13:10:59Z</time>
      </trkpt>
      <trkpt lat="44.34025" lon="3.37677">
        <ele>513</ele>
        <time>2017-03-03T13:12:59Z</time>
      </trkpt>
      <trkpt lat="44.34023" lon="3.37679">
        <ele>512</ele>
        <time>2017-03-03T13:14:59Z</time>
      </trkpt>
      <trkpt lat="44.34021" lon="3.37679">
        <ele>511</ele>
        <time>2017-03-03T13:16:59Z</time>
      </trkpt>
      <trkpt lat="44.34022" lon="3.37673">
        <ele>509</ele>
        <time>2017-03-03T13:18:59Z</time>
      </trkpt>
      <trkpt lat="44.34024" lon="3.37669">
        <ele>508</ele>
        <time>2017-03-03T13:20:59Z</time>
      </trkpt>
      <trkpt lat="44.34024" lon="3.37663">
        <ele>506</ele>
        <time>2017-03-03T13:22:59Z</time>
      </trkpt>
      <trkpt lat="44.34025" lon="3.37658">
        <ele>505</ele>
        <time>2017-03-03T13:24:59Z</time>
      </trkpt>
      <trkpt lat="44.34025" lon="3.37656">
        <ele>504</ele>
        <time>2017-03-03T13:26:59Z</time>
      </trkpt>
      <trkpt lat="44.34024" lon="3.37655">
        <ele>503</ele>
        <time>2017-03-03T13:28:59Z</time>
      </trkpt>
      <trkpt lat="44.34022" lon="3.37656">
        <ele>502</ele>
        <time>2017-03-03T13:30:59Z</time>
      </trkpt>
      <trkpt lat="44.34021" lon="3.37657">
        <ele>502</ele>
        <time>2017-03-03T13:32:59Z</time>
      </trkpt>
      <trkpt lat="44.34021" lon="3.37658">
        <ele>502</ele>
        <time>2017-03-03T13:34:59Z</time>
      </trkpt>
      <trkpt lat="44.3395" lon="3.37731">
        <ele>491</ele>
        <time>2017-03-03T13:36:59Z</time>
      </trkpt>
      <trkpt lat="44.33947" lon="3.37728">
        <ele>488</ele>
        <time>2017-03-03T13:38:59Z</time>
      </trkpt>
      <trkpt lat="44.33924" lon="3.37779">
        <ele>489</ele>
        <time>2017-03-03T13:40:59Z</time>
      </trkpt>
      <trkpt lat="44.3391" lon="3.37808">
        <ele>492</ele>
        <time>2017-03-03T13:42:59Z</time>
      </trkpt>
      <trkpt lat="44.33904" lon="3.37817">
        <ele>492</ele>
        <time>2017-03-03T13:44:59Z</time>
      </trkpt>
      <trkpt lat="44.33877" lon="3.3785">
        <ele>494</ele>
        <time>2017-03-03T13:46:59Z</time>
      </trkpt>
      <trkpt lat="44.3386" lon="3.37869">
        <ele>494</ele>
        <time>2017-03-03T13:48:59Z</time>
      </trkpt>
      <trkpt lat="44.3381" lon="3.37927">
        <ele>495</ele>
        <time>2017-03-03T13:50:59Z</time>
      </trkpt>
      <trkpt lat="44.33789" lon="3.3795">
        <ele>498</ele>
        <time>2017-03-03T13:52:59Z</time>
      </trkpt>
      <trkpt lat="44.33784" lon="3.37955">
        <ele>498</ele>
        <time>2017-03-03T13:54:59Z</time>
      </trkpt>
      <trkpt lat="44.33776" lon="3.37964">
        <ele>497</ele>
        <time>2017-03-03T13:56:59Z</time>
      </trkpt>
      <trkpt lat="44.33767" lon="3.37973">
        <ele>496</ele>
        <time>2017-03-03T13:58:59Z</time>
      </trkpt>
      <trkpt lat="44.33747" lon="3.37995">
        <ele>491</ele>
        <time>2017-03-03T14:00:59Z</time>
      </trkpt>
      <trkpt lat="44.33735" lon="3.38012">
        <ele>496</ele>
        <time>2017-03-03T14:02:59Z</time>
      </trkpt>
      <trkpt lat="44.33725" lon="3.38021">
        <ele>498</ele>
        <time>2017-03-03T14:04:59Z</time>
      </trkpt>
      <trkpt lat="44.33711" lon="3.38036">
        <ele>501</ele>
        <time>2017-03-03T14:06:59Z</time>
      </trkpt>
      <trkpt lat="44.33701" lon="3.38046">
        <ele>502</ele>
        <time>2017-03-03T14:08:59Z</time>
      </trkpt>
      <trkpt lat="44.33691" lon="3.38055">
        <ele>503</ele>
        <time>2017-03-03T14:10:59Z</time>
      </trkpt>
      <trkpt lat="44.33668" lon="3.38073">
        <ele>502</ele>
        <time>2017-03-03T14:12:59Z</time>
      </trkpt>
      <trkpt lat="44.33656" lon="3.3808">
        <ele>500</ele>
        <time>2017-03-03T14:14:59Z</time>
      </trkpt>
      <trkpt lat="44.33642" lon="3.3809">
        <ele>497</ele>
        <time>2017-03-03T14:16:59Z</time>
      </trkpt>
      <trkpt lat="44.33632" lon="3.38098">
        <ele>495</ele>
        <time>2017-03-03T14:18:59Z</time>
      </trkpt>
      <trkpt lat="44.33598" lon="3.38124">
        <ele>486</ele>
        <time>2017-03-03T14:20:59Z</time>
      </trkpt>
      <trkpt lat="44.33578" lon="3.38141">
        <ele>483</ele>
        <time>2017-03-03T14:22:59Z</time>
      </trkpt>
      <trkpt lat="44.33569" lon="3.38154">
        <ele>484</ele>
        <time>2017-03-03T14:24:59Z</time>
      </trkpt>
      <trkpt lat="44.33564" lon="3.38166">
        <ele>486</ele>
        <time>2017-03-03T14:26:59Z</time>
      </trkpt>
      <trkpt lat="44.33561" lon="3.38174">
        <ele>484</ele>
        <time>2017-03-03T14:28:59Z</time>
      </trkpt>
      <trkpt lat="44.3356" lon="3.38185">
        <ele>483</ele>
        <time>2017-03-03T14:30:59Z</time>
      </trkpt>
      <trkpt lat="44.33559" lon="3.38206">
        <ele>482</ele>
        <time>2017-03-03T14:32:59Z</time>
      </trkpt>
      <trkpt lat="44.33559" lon="3.38226">
        <ele>481</ele>
        <time>2017-03-03T14:34:59Z</time>
      </trkpt>
      <trkpt lat="44.3356" lon="3.38237">
        <ele>481</ele>
        <time>2017-03-03T14:36:59Z</time>
      </trkpt>
      <trkpt lat="44.33563" lon="3.38252">
        <ele>480</ele>
        <time>2017-03-03T14:38:59Z</time>
      </trkpt>
      <trkpt lat="44.33566" lon="3.38261">
        <ele>480</ele>
        <time>2017-03-03T14:40:59Z</time>
      </trkpt>
      <trkpt lat="44.33569" lon="3.38269">
        <ele>479</ele>
        <time>2017-03-03T14:42:59Z</time>
      </trkpt>
      <trkpt lat="44.3357" lon="3.38271">
        <ele>479</ele>
        <time>2017-03-03T14:44:59Z</time>
      </trkpt>
      <trkpt lat="44.33572" lon="3.38269">
        <ele>480</ele>
        <time>2017-03-03T14:46:59Z</time>
      </trkpt>
      <trkpt lat="44.33598" lon="3.38284">
        <ele>478</ele>
        <time>2017-03-03T14:48:59Z</time>
      </trkpt>
      <trkpt lat="44.3362" lon="3.38256">
        <ele>483</ele>
        <time>2017-03-03T14:50:59Z</time>
      </trkpt>
      <trkpt lat="44.33634" lon="3.38219">
        <ele>495</ele>
        <time>2017-03-03T14:52:59Z</time>
      </trkpt>
      <trkpt lat="44.33665" lon="3.38218">
        <ele>500</ele>
        <time>2017-03-03T14:54:59Z</time>
      </trkpt>
      <trkpt lat="44.33622" lon="3.38279">
        <ele>478</ele>
        <time>2017-03-03T14:56:59Z</time>
      </trkpt>
      <trkpt lat="44.33642" lon="3.38357">
        <ele>467</ele>
        <time>2017-03-03T14:58:59Z</time>
      </trkpt>
      <trkpt lat="44.33626" lon="3.38392">
        <ele>470</ele>
        <time>2017-03-03T15:00:59Z</time>
      </trkpt>
      <trkpt lat="44.33628" lon="3.38394">
        <ele>470</ele>
        <time>2017-03-03T15:02:59Z</time>
      </trkpt>
      <trkpt lat="44.33621" lon="3.38406">
        <ele>471</ele>
        <time>2017-03-03T15:04:59Z</time>
      </trkpt>
      <trkpt lat="44.3362" lon="3.38409">
        <ele>471</ele>
        <time>2017-03-03T15:06:59Z</time>
      </trkpt>
      <trkpt lat="44.33602" lon="3.38447">
        <ele>479</ele>
        <time>2017-03-03T15:08:59Z</time>
      </trkpt>
      <trkpt lat="44.33587" lon="3.38492">
        <ele>489</ele>
        <time>2017-03-03T15:10:59Z</time>
      </trkpt>
      <trkpt lat="44.33584" lon="3.385">
        <ele>491</ele>
        <time>2017-03-03T15:12:59Z</time>
      </trkpt>
      <trkpt lat="44.33581" lon="3.3851">
        <ele>497</ele>
        <time>2017-03-03T15:14:59Z</time>
      </trkpt>
      <trkpt lat="44.3358" lon="3.3851">
        <ele>498</ele>
        <time>2017-03-03T15:16:59Z</time>
      </trkpt>
      <trkpt lat="44.33578" lon="3.38514">
        <ele>500</ele>
        <time>2017-03-03T15:18:59Z</time>
      </trkpt>
      <trkpt lat="44.33575" lon="3.38516">
        <ele>503</ele>
        <time>2017-03-03T15:20:59Z</time>
      </trkpt>
      <trkpt lat="44.33569" lon="3.38517">
        <ele>506</ele>
        <time>2017-03-03T15:22:59Z</time>
      </trkpt>
      <trkpt lat="44.33563" lon="3.3852">
        <ele>510</ele>
        <time>2017-03-03T15:24:59Z</time>
      </trkpt>
      <trkpt lat="44.33559" lon="3.38523">
        <ele>513</ele>
        <time>2017-03-03T15:26:59Z</time>
      </trkpt>
      <trkpt lat="44.33555" lon="3.38525">
        <ele>515</ele>
        <time>2017-03-03T15:28:59Z</time>
      </trkpt>
      <trkpt lat="44.33552" lon="3.38525">
        <ele>516</ele>
        <time>2017-03-03T15:30:59Z</time>
      </trkpt>
      <trkpt lat="44.33548" lon="3.38524">
        <ele>518</ele>
        <time>2017-03-03T15:32:59Z</time>
      </trkpt>
      <trkpt lat="44.33542" lon="3.38521">
        <ele>518</ele>
        <time>2017-03-03T15:34:59Z</time>
      </trkpt>
      <trkpt lat="44.3354" lon="3.38516">
        <ele>517</ele>
        <time>2017-03-03T15:36:59Z</time>
      </trkpt>
      <trkpt lat="44.33539" lon="3.38508">
        <ele>513</ele>
        <time>2017-03-03T15:38:59Z</time>
      </trkpt>
      <trkpt lat="44.33539" lon="3.38491">
        <ele>506</ele>
        <time>2017-03-03T15:40:59Z</time>
      </trkpt>
      <trkpt lat="44.3354" lon="3.38482">
        <ele>503</ele>
        <time>2017-03-03T15:42:59Z</time>
      </trkpt>
      <trkpt lat="44.33539" lon="3.38471">
        <ele>500</ele>
        <time>2017-03-03T15:44:59Z</time>
      </trkpt>
      <trkpt lat="44.33536" lon="3.3846">
        <ele>497</ele>
        <time>2017-03-03T15:46:59Z</time>
      </trkpt>
      <trkpt lat="44.33529" lon="3.38444">
        <ele>494</ele>
        <time>2017-03-03T15:48:59Z</time>
      </trkpt>
      <trkpt lat="44.33522" lon="3.38434">
        <ele>493</ele>
        <time>2017-03-03T15:50:59Z</time>
      </trkpt>
      <trkpt lat="44.33518" lon="3.38429">
        <ele>492</ele>
        <time>2017-03-03T15:52:59Z</time>
      </trkpt>
      <trkpt lat="44.33507" lon="3.38424">
        <ele>494</ele>
        <time>2017-03-03T15:54:59Z</time>
      </trkpt>
      <trkpt lat="44.33496" lon="3.38421">
        <ele>497</ele>
        <time>2017-03-03T15:56:59Z</time>
      </trkpt>
      <trkpt lat="44.33488" lon="3.38418">
        <ele>500</ele>
        <time>2017-03-03T15:58:59Z</time>
      </trkpt>
      <trkpt lat="44.33483" lon="3.38413">
        <ele>502</ele>
        <time>2017-03-03T16:00:59Z</time>
      </trkpt>
      <trkpt lat="44.3348" lon="3.38404">
        <ele>501</ele>
        <time>2017-03-03T16:02:59Z</time>
      </trkpt>
      <trkpt lat="44.33476" lon="3.38388">
        <ele>498</ele>
        <time>2017-03-03T16:04:59Z</time>
      </trkpt>
      <trkpt lat="44.3347" lon="3.38379">
        <ele>499</ele>
        <time>2017-03-03T16:06:59Z</time>
      </trkpt>
      <trkpt lat="44.33449" lon="3.38362">
        <ele>504</ele>
        <time>2017-03-03T16:08:59Z</time>
      </trkpt>
      <trkpt lat="44.33438" lon="3.38354">
        <ele>506</ele>
        <time>2017-03-03T16:10:59Z</time>
      </trkpt>
      <trkpt lat="44.33434" lon="3.38352">
        <ele>507</ele>
        <time>2017-03-03T16:12:59Z</time>
      </trkpt>
      <trkpt lat="44.33432" lon="3.38353">
        <ele>509</ele>
        <time>2017-03-03T16:14:59Z</time>
      </trkpt>
      <trkpt lat="44.33431" lon="3.38355">
        <ele>510</ele>
        <time>2017-03-03T16:16:59Z</time>
      </trkpt>
      <trkpt lat="44.33432" lon="3.38358">
        <ele>510</ele>
        <time>2017-03-03T16:18:59Z</time>
      </trkpt>
      <trkpt lat="44.33438" lon="3.38364">
        <ele>510</ele>
        <time>2017-03-03T16:20:59Z</time>
      </trkpt>
      <trkpt lat="44.33445" lon="3.38373">
        <ele>509</ele>
        <time>2017-03-03T16:22:59Z</time>
      </trkpt>
      <trkpt lat="44.33452" lon="3.38384">
        <ele>510</ele>
        <time>2017-03-03T16:24:59Z</time>
      </trkpt>
      <trkpt lat="44.33452" lon="3.38385">
        <ele>510</ele>
        <time>2017-03-03T16:26:59Z</time>
      </trkpt>
      <trkpt lat="44.33458" lon="3.38396">
        <ele>510</ele>
        <time>2017-03-03T16:28:59Z</time>
      </trkpt>
      <trkpt lat="44.33468" lon="3.38411">
        <ele>509</ele>
        <time>2017-03-03T16:30:59Z</time>
      </trkpt>
      <trkpt lat="44.33474" lon="3.38422">
        <ele>510</ele>
        <time>2017-03-03T16:32:59Z</time>
      </trkpt>
      <trkpt lat="44.33478" lon="3.38434">
        <ele>512</ele>
        <time>2017-03-03T16:34:59Z</time>
      </trkpt>
      <trkpt lat="44.33484" lon="3.38458">
        <ele>518</ele>
        <time>2017-03-03T16:36:59Z</time>
      </trkpt>
      <trkpt lat="44.33489" lon="3.3847">
        <ele>519</ele>
        <time>2017-03-03T16:38:59Z</time>
      </trkpt>
      <trkpt lat="44.33494" lon="3.38478">
        <ele>519</ele>
        <time>2017-03-03T16:40:59Z</time>
      </trkpt>
      <trkpt lat="44.33505" lon="3.38489">
        <ele>518</ele>
        <time>2017-03-03T16:42:59Z</time>
      </trkpt>
      <trkpt lat="44.33506" lon="3.38493">
        <ele>519</ele>
        <time>2017-03-03T16:44:59Z</time>
      </trkpt>
      <trkpt lat="44.33505" lon="3.38498">
        <ele>521</ele>
        <time>2017-03-03T16:46:59Z</time>
      </trkpt>
      <trkpt lat="44.33503" lon="3.385">
        <ele>523</ele>
        <time>2017-03-03T16:48:59Z</time>
      </trkpt>
      <trkpt lat="44.335" lon="3.38498">
        <ele>523</ele>
        <time>2017-03-03T16:50:59Z</time>
      </trkpt>
      <trkpt lat="44.33496" lon="3.38492">
        <ele>523</ele>
        <time>2017-03-03T16:52:59Z</time>
      </trkpt>
      <trkpt lat="44.33492" lon="3.38489">
        <ele>525</ele>
        <time>2017-03-03T16:54:59Z</time>
      </trkpt>
      <trkpt lat="44.33482" lon="3.3848">
        <ele>527</ele>
        <time>2017-03-03T16:56:59Z</time>
      </trkpt>
      <trkpt lat="44.33476" lon="3.38476">
        <ele>529</ele>
        <time>2017-03-03T16:58:59Z</time>
      </trkpt>
      <trkpt lat="44.33462" lon="3.38461">
        <ele>531</ele>
        <time>2017-03-03T17:00:59Z</time>
      </trkpt>
      <trkpt lat="44.33441" lon="3.3844">
        <ele>535</ele>
        <time>2017-03-03T17:02:59Z</time>
      </trkpt>
      <trkpt lat="44.33417" lon="3.38414">
        <ele>539</ele>
        <time>2017-03-03T17:04:59Z</time>
      </trkpt>
      <trkpt lat="44.33395" lon="3.38391">
        <ele>535</ele>
        <time>2017-03-03T17:06:59Z</time>
      </trkpt>
      <trkpt lat="44.33381" lon="3.38379">
        <ele>534</ele>
        <time>2017-03-03T17:08:59Z</time>
      </trkpt>
      <trkpt lat="44.33372" lon="3.38373">
        <ele>533</ele>
        <time>2017-03-03T17:10:59Z</time>
      </trkpt>
      <trkpt lat="44.33364" lon="3.38371">
        <ele>534</ele>
        <time>2017-03-03T17:12:59Z</time>
      </trkpt>
      <trkpt lat="44.33359" lon="3.38371">
        <ele>535</ele>
        <time>2017-03-03T17:14:59Z</time>
      </trkpt>
      <trkpt lat="44.33352" lon="3.38374">
        <ele>538</ele>
        <time>2017-03-03T17:16:59Z</time>
      </trkpt>
      <trkpt lat="44.3334" lon="3.38378">
        <ele>542</ele>
        <time>2017-03-03T17:18:59Z</time>
      </trkpt>
      <trkpt lat="44.33328" lon="3.38384">
        <ele>547</ele>
        <time>2017-03-03T17:20:59Z</time>
      </trkpt>
      <trkpt lat="44.33314" lon="3.38394">
        <ele>551</ele>
        <time>2017-03-03T17:22:59Z</time>
      </trkpt>
      <trkpt lat="44.33291" lon="3.38414">
        <ele>559</ele>
        <time>2017-03-03T17:24:59Z</time>
      </trkpt>
      <trkpt lat="44.3327" lon="3.38428">
        <ele>564</ele>
        <time>2017-03-03T17:26:59Z</time>
      </trkpt>
      <trkpt lat="44.3326" lon="3.38436">
        <ele>567</ele>
        <time>2017-03-03T17:28:59Z</time>
      </trkpt>
      <trkpt lat="44.33253" lon="3.38438">
        <ele>568</ele>
        <time>2017-03-03T17:30:59Z</time>
      </trkpt>
      <trkpt lat="44.33246" lon="3.38437">
        <ele>569</ele>
        <time>2017-03-03T17:32:59Z</time>
      </trkpt>
      <trkpt lat="44.33241" lon="3.38432">
        <ele>570</ele>
        <time>2017-03-03T17:34:59Z</time>
      </trkpt>
      <trkpt lat="44.33234" lon="3.38423">
        <ele>571</ele>
        <time>2017-03-03T17:36:59Z</time>
      </trkpt>
      <trkpt lat="44.33226" lon="3.38412">
        <ele>572</ele>
        <time>2017-03-03T17:38:59Z</time>
      </trkpt>
      <trkpt lat="44.33221" lon="3.38403">
        <ele>573</ele>
        <time>2017-03-03T17:40:59Z</time>
      </trkpt>
      <trkpt lat="44.33215" lon="3.38389">
        <ele>574</ele>
        <time>2017-03-03T17:42:59Z</time>
      </trkpt>
      <trkpt lat="44.33211" lon="3.38376">
        <ele>575</ele>
        <time>2017-03-03T17:44:59Z</time>
      </trkpt>
      <trkpt lat="44.33205" lon="3.38364">
        <ele>577</ele>
        <time>2017-03-03T17:46:59Z</time>
      </trkpt>
      <trkpt lat="44.33203" lon="3.38354">
        <ele>577</ele>
        <time>2017-03-03T17:48:59Z</time>
      </trkpt>
      <trkpt lat="44.33201" lon="3.38342">
        <ele>576</ele>
        <time>2017-03-03T17:50:59Z</time>
      </trkpt>
      <trkpt lat="44.33199" lon="3.38312">
        <ele>573</ele>
        <time>2017-03-03T17:52:59Z</time>
      </trkpt>
      <trkpt lat="44.33196" lon="3.38301">
        <ele>574</ele>
        <time>2017-03-03T17:54:59Z</time>
      </trkpt>
      <trkpt lat="44.33193" lon="3.38293">
        <ele>575</ele>
        <time>2017-03-03T17:56:59Z</time>
      </trkpt>
      <trkpt lat="44.33189" lon="3.38281">
        <ele>576</ele>
        <time>2017-03-03T17:58:59Z</time>
      </trkpt>
      <trkpt lat="44.33176" lon="3.38257">
        <ele>582</ele>
        <time>2017-03-03T18:00:59Z</time>
      </trkpt>
      <trkpt lat="44.33163" lon="3.38238">
        <ele>587</ele>
        <time>2017-03-03T18:02:59Z</time>
      </trkpt>
      <trkpt lat="44.33156" lon="3.3823">
        <ele>590</ele>
        <time>2017-03-03T18:04:59Z</time>
      </trkpt>
      <trkpt lat="44.33148" lon="3.38222">
        <ele>592</ele>
        <time>2017-03-03T18:06:59Z</time>
      </trkpt>
      <trkpt lat="44.33141" lon="3.38211">
        <ele>593</ele>
        <time>2017-03-03T18:08:59Z</time>
      </trkpt>
      <trkpt lat="44.3312" lon="3.38173">
        <ele>593</ele>
        <time>2017-03-03T18:10:59Z</time>
      </trkpt>
      <trkpt lat="44.33108" lon="3.38157">
        <ele>599</ele>
        <time>2017-03-03T18:12:59Z</time>
      </trkpt>
      <trkpt lat="44.33101" lon="3.38149">
        <ele>604</ele>
        <time>2017-03-03T18:14:59Z</time>
      </trkpt>
      <trkpt lat="44.33098" lon="3.38144">
        <ele>606</ele>
        <time>2017-03-03T18:16:59Z</time>
      </trkpt>
      <trkpt lat="44.33098" lon="3.38138">
        <ele>607</ele>
        <time>2017-03-03T18:18:59Z</time>
      </trkpt>
      <trkpt lat="44.331" lon="3.38132">
        <ele>607</ele>
        <time>2017-03-03T18:20:59Z</time>
      </trkpt>
      <trkpt lat="44.33104" lon="3.38125">
        <ele>606</ele>
        <time>2017-03-03T18:22:59Z</time>
      </trkpt>
      <trkpt lat="44.33114" lon="3.3811">
        <ele>604</ele>
        <time>2017-03-03T18:24:59Z</time>
      </trkpt>
      <trkpt lat="44.33123" lon="3.38099">
        <ele>603</ele>
        <time>2017-03-03T18:26:59Z</time>
      </trkpt>
      <trkpt lat="44.33139" lon="3.38078">
        <ele>602</ele>
        <time>2017-03-03T18:28:59Z</time>
      </trkpt>
      <trkpt lat="44.33157" lon="3.38059">
        <ele>604</ele>
        <time>2017-03-03T18:30:59Z</time>
      </trkpt>
      <trkpt lat="44.33173" lon="3.38047">
        <ele>603</ele>
        <time>2017-03-03T18:32:59Z</time>
      </trkpt>
      <trkpt lat="44.33187" lon="3.38037">
        <ele>602</ele>
        <time>2017-03-03T18:34:59Z</time>
      </trkpt>
      <trkpt lat="44.3321" lon="3.3802">
        <ele>601</ele>
        <time>2017-03-03T18:36:59Z</time>
      </trkpt>
      <trkpt lat="44.33214" lon="3.38012">
        <ele>603</ele>
        <time>2017-03-03T18:38:59Z</time>
      </trkpt>
      <trkpt lat="44.33223" lon="3.37997">
        <ele>606</ele>
        <time>2017-03-03T18:40:59Z</time>
      </trkpt>
      <trkpt lat="44.33231" lon="3.37979">
        <ele>611</ele>
        <time>2017-03-03T18:42:59Z</time>
      </trkpt>
      <trkpt lat="44.33235" lon="3.37967">
        <ele>616</ele>
        <time>2017-03-03T18:44:59Z</time>
      </trkpt>
      <trkpt lat="44.33238" lon="3.37962">
        <ele>617</ele>
        <time>2017-03-03T18:46:59Z</time>
      </trkpt>
      <trkpt lat="44.33242" lon="3.37961">
        <ele>616</ele>
        <time>2017-03-03T18:48:59Z</time>
      </trkpt>
      <trkpt lat="44.33274" lon="3.3795">
        <ele>608</ele>
        <time>2017-03-03T18:50:59Z</time>
      </trkpt>
      <trkpt lat="44.33284" lon="3.37947">
        <ele>605</ele>
        <time>2017-03-03T18:52:59Z</time>
      </trkpt>
      <trkpt lat="44.33292" lon="3.37942">
        <ele>605</ele>
        <time>2017-03-03T18:54:59Z</time>
      </trkpt>
      <trkpt lat="44.33297" lon="3.37937">
        <ele>605</ele>
        <time>2017-03-03T18:56:59Z</time>
      </trkpt>
      <trkpt lat="44.33301" lon="3.37927">
        <ele>609</ele>
        <time>2017-03-03T18:58:59Z</time>
      </trkpt>
      <trkpt lat="44.33304" lon="3.37915">
        <ele>615</ele>
        <time>2017-03-03T19:00:59Z</time>
      </trkpt>
      <trkpt lat="44.33308" lon="3.37904">
        <ele>618</ele>
        <time>2017-03-03T19:02:59Z</time>
      </trkpt>
      <trkpt lat="44.3331" lon="3.37896">
        <ele>621</ele>
        <time>2017-03-03T19:04:59Z</time>
      </trkpt>
      <trkpt lat="44.33316" lon="3.3789">
        <ele>622</ele>
        <time>2017-03-03T19:06:59Z</time>
      </trkpt>
      <trkpt lat="44.33324" lon="3.37886">
        <ele>621</ele>
        <time>2017-03-03T19:08:59Z</time>
      </trkpt>
      <trkpt lat="44.33332" lon="3.37884">
        <ele>618</ele>
        <time>2017-03-03T19:10:59Z</time>
      </trkpt>
      <trkpt lat="44.33343" lon="3.37884">
        <ele>613</ele>
        <time>2017-03-03T19:12:59Z</time>
      </trkpt>
      <trkpt lat="44.33352" lon="3.37883">
        <ele>609</ele>
        <time>2017-03-03T19:14:59Z</time>
      </trkpt>
      <trkpt lat="44.33358" lon="3.3788">
        <ele>607</ele>
        <time>2017-03-03T19:16:59Z</time>
      </trkpt>
      <trkpt lat="44.33364" lon="3.37874">
        <ele>607</ele>
        <time>2017-03-03T19:18:59Z</time>
      </trkpt>
      <trkpt lat="44.33381" lon="3.37847">
        <ele>614</ele>
        <time>2017-03-03T19:20:59Z</time>
      </trkpt>
      <trkpt lat="44.33404" lon="3.37815">
        <ele>623</ele>
        <time>2017-03-03T19:22:59Z</time>
      </trkpt>
      <trkpt lat="44.33431" lon="3.37774">
        <ele>632</ele>
        <time>2017-03-03T19:24:59Z</time>
      </trkpt>
      <trkpt lat="44.3347" lon="3.37731">
        <ele>638</ele>
        <time>2017-03-03T19:26:59Z</time>
      </trkpt>
      <trkpt lat="44.33496" lon="3.37707">
        <ele>641</ele>
        <time>2017-03-03T19:28:59Z</time>
      </trkpt>
      <trkpt lat="44.3354" lon="3.37675">
        <ele>642</ele>
        <time>2017-03-03T19:30:59Z</time>
      </trkpt>
      <trkpt lat="44.33565" lon="3.3765">
        <ele>644</ele>
        <time>2017-03-03T19:32:59Z</time>
      </trkpt>
      <trkpt lat="44.33584" lon="3.37626">
        <ele>647</ele>
        <time>2017-03-03T19:34:59Z</time>
      </trkpt>
      <trkpt lat="44.33602" lon="3.376">
        <ele>649</ele>
        <time>2017-03-03T19:36:59Z</time>
      </trkpt>
      <trkpt lat="44.33621" lon="3.37566">
        <ele>654</ele>
        <time>2017-03-03T19:38:59Z</time>
      </trkpt>
      <trkpt lat="44.33645" lon="3.37521">
        <ele>659</ele>
        <time>2017-03-03T19:40:59Z</time>
      </trkpt>
      <trkpt lat="44.33663" lon="3.37489">
        <ele>660</ele>
        <time>2017-03-03T19:42:59Z</time>
      </trkpt>
      <trkpt lat="44.33678" lon="3.37461">
        <ele>659</ele>
        <time>2017-03-03T19:44:59Z</time>
      </trkpt>
      <trkpt lat="44.33683" lon="3.37446">
        <ele>660</ele>
        <time>2017-03-03T19:46:59Z</time>
      </trkpt>
      <trkpt lat="44.33687" lon="3.37436">
        <ele>661</ele>
        <time>2017-03-03T19:48:59Z</time>
      </trkpt>
      <trkpt lat="44.33687" lon="3.37418">
        <ele>666</ele>
        <time>2017-03-03T19:50:59Z</time>
      </trkpt>
      <trkpt lat="44.33684" lon="3.37388">
        <ele>677</ele>
        <time>2017-03-03T19:52:59Z</time>
      </trkpt>
      <trkpt lat="44.33684" lon="3.3738">
        <ele>679</ele>
        <time>2017-03-03T19:54:59Z</time>
      </trkpt>
      <trkpt lat="44.33687" lon="3.37365">
        <ele>681</ele>
        <time>2017-03-03T19:56:59Z</time>
      </trkpt>
      <trkpt lat="44.33699" lon="3.37333">
        <ele>681</ele>
        <time>2017-03-03T19:58:59Z</time>
      </trkpt>
      <trkpt lat="44.33717" lon="3.37295">
        <ele>683</ele>
        <time>2017-03-03T20:00:59Z</time>
      </trkpt>
      <trkpt lat="44.33727" lon="3.37275">
        <ele>684</ele>
        <time>2017-03-03T20:02:59Z</time>
      </trkpt>
      <trkpt lat="44.33739" lon="3.37259">
        <ele>682</ele>
        <time>2017-03-03T20:04:59Z</time>
      </trkpt>
      <trkpt lat="44.33748" lon="3.37248">
        <ele>681</ele>
        <time>2017-03-03T20:06:59Z</time>
      </trkpt>
      <trkpt lat="44.33749" lon="3.37245">
        <ele>682</ele>
        <time>2017-03-03T20:08:59Z</time>
      </trkpt>
      <trkpt lat="44.33749" lon="3.37242">
        <ele>684</ele>
        <time>2017-03-03T20:10:59Z</time>
      </trkpt>
      <trkpt lat="44.33746" lon="3.37243">
        <ele>685</ele>
        <time>2017-03-03T20:12:59Z</time>
      </trkpt>
      <trkpt lat="44.33732" lon="3.37254">
        <ele>689</ele>
        <time>2017-03-03T20:14:59Z</time>
      </trkpt>
      <trkpt lat="44.33699" lon="3.37294">
        <ele>695</ele>
        <time>2017-03-03T20:16:59Z</time>
      </trkpt>
      <trkpt lat="44.33661" lon="3.37356">
        <ele>701</ele>
        <time>2017-03-03T20:18:59Z</time>
      </trkpt>
      <trkpt lat="44.33658" lon="3.37364">
        <ele>701</ele>
        <time>2017-03-03T20:20:59Z</time>
      </trkpt>
      <trkpt lat="44.33655" lon="3.37377">
        <ele>699</ele>
        <time>2017-03-03T20:22:59Z</time>
      </trkpt>
      <trkpt lat="44.33653" lon="3.37391">
        <ele>697</ele>
        <time>2017-03-03T20:24:59Z</time>
      </trkpt>
      <trkpt lat="44.33651" lon="3.37403">
        <ele>694</ele>
        <time>2017-03-03T20:26:59Z</time>
      </trkpt>
      <trkpt lat="44.33647" lon="3.37414">
        <ele>694</ele>
        <time>2017-03-03T20:28:59Z</time>
      </trkpt>
      <trkpt lat="44.33643" lon="3.37421">
        <ele>694</ele>
        <time>2017-03-03T20:30:59Z</time>
      </trkpt>
      <trkpt lat="44.33633" lon="3.37432">
        <ele>696</ele>
        <time>2017-03-03T20:32:59Z</time>
      </trkpt>
      <trkpt lat="44.33626" lon="3.37441">
        <ele>697</ele>
        <time>2017-03-03T20:34:59Z</time>
      </trkpt>
      <trkpt lat="44.33591" lon="3.37474">
        <ele>706</ele>
        <time>2017-03-03T20:36:59Z</time>
      </trkpt>
      <trkpt lat="44.33571" lon="3.37492">
        <ele>710</ele>
        <time>2017-03-03T20:38:59Z</time>
      </trkpt>
      <trkpt lat="44.33556" lon="3.37505">
        <ele>711</ele>
        <time>2017-03-03T20:40:59Z</time>
      </trkpt>
      <trkpt lat="44.33511" lon="3.37542">
        <ele>718</ele>
        <time>2017-03-03T20:42:59Z</time>
      </trkpt>
      <trkpt lat="44.33484" lon="3.37565">
        <ele>722</ele>
        <time>2017-03-03T20:44:59Z</time>
      </trkpt>
      <trkpt lat="44.33444" lon="3.376">
        <ele>722</ele>
        <time>2017-03-03T20:46:59Z</time>
      </trkpt>
      <trkpt lat="44.33429" lon="3.3761">
        <ele>722</ele>
        <time>2017-03-03T20:48:59Z</time>
      </trkpt>
      <trkpt lat="44.33419" lon="3.37614">
        <ele>724</ele>
        <time>2017-03-03T20:50:59Z</time>
      </trkpt>
      <trkpt lat="44.33407" lon="3.37615">
        <ele>729</ele>
        <time>2017-03-03T20:52:59Z</time>
      </trkpt>
      <trkpt lat="44.33396" lon="3.37614">
        <ele>735</ele>
        <time>2017-03-03T20:54:59Z</time>
      </trkpt>
      <trkpt lat="44.33385" lon="3.37615">
        <ele>740</ele>
        <time>2017-03-03T20:56:59Z</time>
      </trkpt>
      <trkpt lat="44.3338" lon="3.37618">
        <ele>740</ele>
        <time>2017-03-03T20:58:59Z</time>
      </trkpt>
      <trkpt lat="44.33358" lon="3.37638">
        <ele>741</ele>
        <time>2017-03-03T21:00:59Z</time>
      </trkpt>
      <trkpt lat="44.33344" lon="3.37656">
        <ele>739</ele>
        <time>2017-03-03T21:02:59Z</time>
      </trkpt>
      <trkpt lat="44.33326" lon="3.37676">
        <ele>737</ele>
        <time>2017-03-03T21:04:59Z</time>
      </trkpt>
      <trkpt lat="44.33313" lon="3.37686">
        <ele>735</ele>
        <time>2017-03-03T21:06:59Z</time>
      </trkpt>
      <trkpt lat="44.33303" lon="3.37691">
        <ele>735</ele>
        <time>2017-03-03T21:08:59Z</time>
      </trkpt>
      <trkpt lat="44.33296" lon="3.37692">
        <ele>736</ele>
        <time>2017-03-03T21:10:59Z</time>
      </trkpt>
      <trkpt lat="44.33288" lon="3.37691">
        <ele>739</ele>
        <time>2017-03-03T21:12:59Z</time>
      </trkpt>
      <trkpt lat="44.33274" lon="3.37686">
        <ele>746</ele>
        <time>2017-03-03T21:14:59Z</time>
      </trkpt>
      <trkpt lat="44.33263" lon="3.37683">
        <ele>750</ele>
        <time>2017-03-03T21:16:59Z</time>
      </trkpt>
      <trkpt lat="44.33255" lon="3.37682">
        <ele>753</ele>
        <time>2017-03-03T21:18:59Z</time>
      </trkpt>
      <trkpt lat="44.33243" lon="3.37684">
        <ele>756</ele>
        <time>2017-03-03T21:20:59Z</time>
      </trkpt>
      <trkpt lat="44.33224" lon="3.37686">
        <ele>762</ele>
        <time>2017-03-03T21:22:59Z</time>
      </trkpt>
      <trkpt lat="44.332" lon="3.37694">
        <ele>768</ele>
        <time>2017-03-03T21:24:59Z</time>
      </trkpt>
      <trkpt lat="44.33188" lon="3.37699">
        <ele>771</ele>
        <time>2017-03-03T21:26:59Z</time>
      </trkpt>
      <trkpt lat="44.33183" lon="3.37704">
        <ele>771</ele>
        <time>2017-03-03T21:28:59Z</time>
      </trkpt>
      <trkpt lat="44.33176" lon="3.37713">
        <ele>770</ele>
        <time>2017-03-03T21:30:59Z</time>
      </trkpt>
      <trkpt lat="44.3317" lon="3.37726">
        <ele>768</ele>
        <time>2017-03-03T21:32:59Z</time>
      </trkpt>
      <trkpt lat="44.33166" lon="3.37736">
        <ele>766</ele>
        <time>2017-03-03T21:34:59Z</time>
      </trkpt>
      <trkpt lat="44.33162" lon="3.37745">
        <ele>764</ele>
        <time>2017-03-03T21:36:59Z</time>
      </trkpt>
      <trkpt lat="44.33159" lon="3.37749">
        <ele>765</ele>
        <time>2017-03-03T21:38:59Z</time>
      </trkpt>
      <trkpt lat="44.33151" lon="3.37757">
        <ele>765</ele>
        <time>2017-03-03T21:40:59Z</time>
      </trkpt>
      <trkpt lat="44.33128" lon="3.37773">
        <ele>769</ele>
        <time>2017-03-03T21:42:59Z</time>
      </trkpt>
      <trkpt lat="44.33099" lon="3.37795">
        <ele>773</ele>
        <time>2017-03-03T21:44:59Z</time>
      </trkpt>
      <trkpt lat="44.33051" lon="3.37814">
        <ele>783</ele>
        <time>2017-03-03T21:46:59Z</time>
      </trkpt>
      <trkpt lat="44.33037" lon="3.3782">
        <ele>784</ele>
        <time>2017-03-03T21:48:59Z</time>
      </trkpt>
      <trkpt lat="44.33015" lon="3.37824">
        <ele>790</ele>
        <time>2017-03-03T21:50:59Z</time>
      </trkpt>
      <trkpt lat="44.32996" lon="3.37828">
        <ele>795</ele>
        <time>2017-03-03T21:52:59Z</time>
      </trkpt>
      <trkpt lat="44.32983" lon="3.37833">
        <ele>798</ele>
        <time>2017-03-03T21:54:59Z</time>
      </trkpt>
      <trkpt lat="44.32976" lon="3.37837">
        <ele>799</ele>
        <time>2017-03-03T21:56:59Z</time>
      </trkpt>
      <trkpt lat="44.32966" lon="3.37844">
        <ele>800</ele>
        <time>2017-03-03T21:58:59Z</time>
      </trkpt>
      <trkpt lat="44.32947" lon="3.37854">
        <ele>804</ele>
        <time>2017-03-03T22:00:59Z</time>
      </trkpt>
      <trkpt lat="44.32931" lon="3.37861">
        <ele>809</ele>
        <time>2017-03-03T22:02:59Z</time>
      </trkpt>
      <trkpt lat="44.32924" lon="3.37867">
        <ele>809</ele>
        <time>2017-03-03T22:04:59Z</time>
      </trkpt>
      <trkpt lat="44.32917" lon="3.37875">
        <ele>809</ele>
        <time>2017-03-03T22:06:59Z</time>
      </trkpt>
      <trkpt lat="44.32908" lon="3.37891">
        <ele>806</ele>
        <time>2017-03-03T22:08:59Z</time>
      </trkpt>
      <trkpt lat="44.32902" lon="3.37903">
        <ele>803</ele>
        <time>2017-03-03T22:10:59Z</time>
      </trkpt>
      <trkpt lat="44.32887" lon="3.37925">
        <ele>802</ele>
        <time>2017-03-03T22:12:59Z</time>
      </trkpt>
      <trkpt lat="44.3288" lon="3.37938">
        <ele>801</ele>
        <time>2017-03-03T22:14:59Z</time>
      </trkpt>
      <trkpt lat="44.32874" lon="3.37948">
        <ele>801</ele>
        <time>2017-03-03T22:16:59Z</time>
      </trkpt>
      <trkpt lat="44.32868" lon="3.37956">
        <ele>801</ele>
        <time>2017-03-03T22:18:59Z</time>
      </trkpt>
      <trkpt lat="44.32861" lon="3.37962">
        <ele>803</ele>
        <time>2017-03-03T22:20:59Z</time>
      </trkpt>
      <trkpt lat="44.32851" lon="3.3797">
        <ele>805</ele>
        <time>2017-03-03T22:22:59Z</time>
      </trkpt>
      <trkpt lat="44.32839" lon="3.37976">
        <ele>810</ele>
        <time>2017-03-03T22:24:59Z</time>
      </trkpt>
      <trkpt lat="44.32826" lon="3.37982">
        <ele>813</ele>
        <time>2017-03-03T22:26:59Z</time>
      </trkpt>
      <trkpt lat="44.32815" lon="3.37985">
        <ele>816</ele>
        <time>2017-03-03T22:28:59Z</time>
      </trkpt>
      <trkpt lat="44.32807" lon="3.37989">
        <ele>818</ele>
        <time>2017-03-03T22:30:59Z</time>
      </trkpt>
      <trkpt lat="44.32801" lon="3.37994">
        <ele>818</ele>
        <time>2017-03-03T22:32:59Z</time>
      </trkpt>
      <trkpt lat="44.32796" lon="3.38007">
        <ele>816</ele>
        <time>2017-03-03T22:34:59Z</time>
      </trkpt>
      <trkpt lat="44.32797" lon="3.38016">
        <ele>814</ele>
        <time>2017-03-03T22:36:59Z</time>
      </trkpt>
      <trkpt lat="44.328" lon="3.38024">
        <ele>810</ele>
        <time>2017-03-03T22:38:59Z</time>
      </trkpt>
      <trkpt lat="44.32801" lon="3.38032">
        <ele>808</ele>
        <time>2017-03-03T22:40:59Z</time>
      </trkpt>
      <trkpt lat="44.32801" lon="3.38037">
        <ele>806</ele>
        <time>2017-03-03T22:42:59Z</time>
      </trkpt>
      <trkpt lat="44.32798" lon="3.38042">
        <ele>807</ele>
        <time>2017-03-03T22:44:59Z</time>
      </trkpt>
      <trkpt lat="44.32794" lon="3.38046">
        <ele>807</ele>
        <time>2017-03-03T22:46:59Z</time>
      </trkpt>
      <trkpt lat="44.3278" lon="3.38052">
        <ele>812</ele>
        <time>2017-03-03T22:48:59Z</time>
      </trkpt>
      <trkpt lat="44.32746" lon="3.3806">
        <ele>826</ele>
        <time>2017-03-03T22:50:59Z</time>
      </trkpt>
      <trkpt lat="44.32732" lon="3.38061">
        <ele>830</ele>
        <time>2017-03-03T22:52:59Z</time>
      </trkpt>
      <trkpt lat="44.32711" lon="3.38061">
        <ele>835</ele>
        <time>2017-03-03T22:54:59Z</time>
      </trkpt>
      <trkpt lat="44.32709" lon="3.38062">
        <ele>836</ele>
        <time>2017-03-03T22:56:59Z</time>
      </trkpt>
      <trkpt lat="44.32708" lon="3.38065">
        <ele>836</ele>
        <time>2017-03-03T22:58:59Z</time>
      </trkpt>
      <trkpt lat="44.32709" lon="3.38071">
        <ele>835</ele>
        <time>2017-03-03T23:00:59Z</time>
      </trkpt>
      <trkpt lat="44.32712" lon="3.38082">
        <ele>832</ele>
        <time>2017-03-03T23:02:59Z</time>
      </trkpt>
      <trkpt lat="44.32716" lon="3.38103">
        <ele>830</ele>
        <time>2017-03-03T23:04:59Z</time>
      </trkpt>
      <trkpt lat="44.32718" lon="3.38121">
        <ele>828</ele>
        <time>2017-03-03T23:06:59Z</time>
      </trkpt>
      <trkpt lat="44.32717" lon="3.38132">
        <ele>828</ele>
        <time>2017-03-03T23:08:59Z</time>
      </trkpt>
      <trkpt lat="44.32715" lon="3.38141">
        <ele>828</ele>
        <time>2017-03-03T23:10:59Z</time>
      </trkpt>
      <trkpt lat="44.3271" lon="3.38152">
        <ele>829</ele>
        <time>2017-03-03T23:12:59Z</time>
      </trkpt>
      <trkpt lat="44.32702" lon="3.38163">
        <ele>831</ele>
        <time>2017-03-03T23:14:59Z</time>
      </trkpt>
      <trkpt lat="44.3269" lon="3.38175">
        <ele>833</ele>
        <time>2017-03-03T23:16:59Z</time>
      </trkpt>
      <trkpt lat="44.32676" lon="3.38185">
        <ele>836</ele>
        <time>2017-03-03T23:18:59Z</time>
      </trkpt>
      <trkpt lat="44.32659" lon="3.38193">
        <ele>838</ele>
        <time>2017-03-03T23:20:59Z</time>
      </trkpt>
      <trkpt lat="44.32644" lon="3.38196">
        <ele>839</ele>
        <time>2017-03-03T23:22:59Z</time>
      </trkpt>
      <trkpt lat="44.32624" lon="3.38197">
        <ele>842</ele>
        <time>2017-03-03T23:24:59Z</time>
      </trkpt>
      <trkpt lat="44.32602" lon="3.38196">
        <ele>845</ele>
        <time>2017-03-03T23:26:59Z</time>
      </trkpt>
      <trkpt lat="44.32575" lon="3.38193">
        <ele>848</ele>
        <time>2017-03-03T23:28:59Z</time>
      </trkpt>
      <trkpt lat="44.32546" lon="3.38186">
        <ele>850</ele>
        <time>2017-03-03T23:30:59Z</time>
      </trkpt>
      <trkpt lat="44.32525" lon="3.38176">
        <ele>853</ele>
        <time>2017-03-03T23:32:59Z</time>
      </trkpt>
      <trkpt lat="44.32495" lon="3.38161">
        <ele>856</ele>
        <time>2017-03-03T23:34:59Z</time>
      </trkpt>
      <trkpt lat="44.32467" lon="3.38145">
        <ele>860</ele>
        <time>2017-03-03T23:36:59Z</time>
      </trkpt>
      <trkpt lat="44.32443" lon="3.3813">
        <ele>864</ele>
        <time>2017-03-03T23:38:59Z</time>
      </trkpt>
      <trkpt lat="44.32423" lon="3.38116">
        <ele>868</ele>
        <time>2017-03-03T23:40:59Z</time>
      </trkpt>
      <trkpt lat="44.32411" lon="3.38112">
        <ele>870</ele>
        <time>2017-03-03T23:42:59Z</time>
      </trkpt>
      <trkpt lat="44.32399" lon="3.3811">
        <ele>872</ele>
        <time>2017-03-03T23:44:59Z</time>
      </trkpt>
      <trkpt lat="44.32373" lon="3.38108">
        <ele>875</ele>
        <time>2017-03-03T23:46:59Z</time>
      </trkpt>
      <trkpt lat="44.32346" lon="3.38107">
        <ele>878</ele>
        <time>2017-03-03T23:48:59Z</time>
      </trkpt>
      <trkpt lat="44.32318" lon="3.38109">
        <ele>881</ele>
        <time>2017-03-03T23:50:59Z</time>
      </trkpt>
      <trkpt lat="44.32272" lon="3.38115">
        <ele>885</ele>
        <time>2017-03-03T23:52:59Z</time>
      </trkpt>
      <trkpt lat="44.32245" lon="3.38119">
        <ele>887</ele>
        <time>2017-03-03T23:54:59Z</time>
      </trkpt>
      <trkpt lat="44.32229" lon="3.3812">
        <ele>888</ele>
        <time>2017-03-03T23:56:59Z</time>
      </trkpt>
      <trkpt lat="44.32216" lon="3.38116">
        <ele>889</ele>
        <time>2017-03-03T23:58:59Z</time>
      </trkpt>
      <trkpt lat="44.32203" lon="3.38111">
        <ele>891</ele>
        <time>2017-03-04T00:00:59Z</time>
      </trkpt>
      <trkpt lat="44.32184" lon="3.38106">
        <ele>892</ele>
        <time>2017-03-04T00:02:59Z</time>
      </trkpt>
      <trkpt lat="44.32158" lon="3.38101">
        <ele>895</ele>
        <time>2017-03-04T00:04:59Z</time>
      </trkpt>
      <trkpt lat="44.32133" lon="3.38097">
        <ele>897</ele>
        <time>2017-03-04T00:06:59Z</time>
      </trkpt>
      <trkpt lat="44.32122" lon="3.38096">
        <ele>897</ele>
        <time>2017-03-04T00:08:59Z</time>
      </trkpt>
      <trkpt lat="44.32117" lon="3.38096">
        <ele>898</ele>
        <time>2017-03-04T00:10:59Z</time>
      </trkpt>
      <trkpt lat="44.32098" lon="3.38094">
        <ele>899</ele>
        <time>2017-03-04T00:12:59Z</time>
      </trkpt>
      <trkpt lat="44.32085" lon="3.38096">
        <ele>900</ele>
        <time>2017-03-04T00:14:59Z</time>
      </trkpt>
      <trkpt lat="44.32068" lon="3.381">
        <ele>900</ele>
        <time>2017-03-04T00:16:59Z</time>
      </trkpt>
      <trkpt lat="44.32067" lon="3.38099">
        <ele>900</ele>
        <time>2017-03-04T00:18:59Z</time>
      </trkpt>
      <trkpt lat="44.32065" lon="3.38098">
        <ele>900</ele>
        <time>2017-03-04T00:20:59Z</time>
      </trkpt>
      <trkpt lat="44.32062" lon="3.38097">
        <ele>900</ele>
        <time>2017-03-04T00:22:59Z</time>
      </trkpt>
      <trkpt lat="44.3205" lon="3.38089">
        <ele>900</ele>
        <time>2017-03-04T00:24:59Z</time>
      </trkpt>
      <trkpt lat="44.32032" lon="3.38081">
        <ele>899</ele>
        <time>2017-03-04T00:26:59Z</time>
      </trkpt>
      <trkpt lat="44.3198" lon="3.38059">
        <ele>897</ele>
        <time>2017-03-04T00:28:59Z</time>
      </trkpt>
      <trkpt lat="44.31953" lon="3.38046">
        <ele>895</ele>
        <time>2017-03-04T00:30:59Z</time>
      </trkpt>
      <trkpt lat="44.3192" lon="3.38031">
        <ele>892</ele>
        <time>2017-03-04T00:32:59Z</time>
      </trkpt>
      <trkpt lat="44.31897" lon="3.3802">
        <ele>890</ele>
        <time>2017-03-04T00:34:59Z</time>
      </trkpt>
      <trkpt lat="44.31879" lon="3.38013">
        <ele>889</ele>
        <time>2017-03-04T00:36:59Z</time>
      </trkpt>
      <trkpt lat="44.31863" lon="3.38009">
        <ele>889</ele>
        <time>2017-03-04T00:38:59Z</time>
      </trkpt>
      <trkpt lat="44.31842" lon="3.38005">
        <ele>888</ele>
        <time>2017-03-04T00:40:59Z</time>
      </trkpt>
      <trkpt lat="44.31796" lon="3.38">
        <ele>886</ele>
        <time>2017-03-04T00:42:59Z</time>
      </trkpt>
      <trkpt lat="44.31786" lon="3.37998">
        <ele>886</ele>
        <time>2017-03-04T00:44:59Z</time>
      </trkpt>
      <trkpt lat="44.31772" lon="3.37993">
        <ele>885</ele>
        <time>2017-03-04T00:46:59Z</time>
      </trkpt>
      <trkpt lat="44.31749" lon="3.37982">
        <ele>883</ele>
        <time>2017-03-04T00:48:59Z</time>
      </trkpt>
      <trkpt lat="44.31724" lon="3.37969">
        <ele>882</ele>
        <time>2017-03-04T00:50:59Z</time>
      </trkpt>
      <trkpt lat="44.31699" lon="3.37957">
        <ele>880</ele>
        <time>2017-03-04T00:52:59Z</time>
      </trkpt>
      <trkpt lat="44.31681" lon="3.3795">
        <ele>878</ele>
        <time>2017-03-04T00:54:59Z</time>
      </trkpt>
      <trkpt lat="44.31668" lon="3.37949">
        <ele>878</ele>
        <time>2017-03-04T00:56:59Z</time>
      </trkpt>
      <trkpt lat="44.31654" lon="3.37949">
        <ele>876</ele>
        <time>2017-03-04T00:58:59Z</time>
      </trkpt>
      <trkpt lat="44.31643" lon="3.37952">
        <ele>876</ele>
        <time>2017-03-04T01:00:59Z</time>
      </trkpt>
      <trkpt lat="44.31627" lon="3.37958">
        <ele>875</ele>
        <time>2017-03-04T01:02:59Z</time>
      </trkpt>
      <trkpt lat="44.31607" lon="3.37969">
        <ele>875</ele>
        <time>2017-03-04T01:04:59Z</time>
      </trkpt>
      <trkpt lat="44.31589" lon="3.37978">
        <ele>874</ele>
        <time>2017-03-04T01:06:59Z</time>
      </trkpt>
      <trkpt lat="44.31579" lon="3.3798">
        <ele>874</ele>
        <time>2017-03-04T01:08:59Z</time>
      </trkpt>
      <trkpt lat="44.3157" lon="3.37979">
        <ele>874</ele>
        <time>2017-03-04T01:10:59Z</time>
      </trkpt>
      <trkpt lat="44.31561" lon="3.37974">
        <ele>873</ele>
        <time>2017-03-04T01:12:59Z</time>
      </trkpt>
      <trkpt lat="44.31551" lon="3.37964">
        <ele>872</ele>
        <time>2017-03-04T01:14:59Z</time>
      </trkpt>
      <trkpt lat="44.31542" lon="3.37951">
        <ele>871</ele>
        <time>2017-03-04T01:16:59Z</time>
      </trkpt>
      <trkpt lat="44.31533" lon="3.37935">
        <ele>869</ele>
        <time>2017-03-04T01:18:59Z</time>
      </trkpt>
      <trkpt lat="44.31523" lon="3.3792">
        <ele>867</ele>
        <time>2017-03-04T01:20:59Z</time>
      </trkpt>
      <trkpt lat="44.3151" lon="3.37902">
        <ele>866</ele>
        <time>2017-03-04T01:22:59Z</time>
      </trkpt>
      <trkpt lat="44.31504" lon="3.379">
        <ele>865</ele>
        <time>2017-03-04T01:24:59Z</time>
      </trkpt>
      <trkpt lat="44.315" lon="3.37897">
        <ele>865</ele>
        <time>2017-03-04T01:26:59Z</time>
      </trkpt>
      <trkpt lat="44.31489" lon="3.37894">
        <ele>864</ele>
        <time>2017-03-04T01:28:59Z</time>
      </trkpt>
      <trkpt lat="44.31479" lon="3.37894">
        <ele>864</ele>
        <time>2017-03-04T01:30:59Z</time>
      </trkpt>
      <trkpt lat="44.31463" lon="3.37895">
        <ele>864</ele>
        <time>2017-03-04T01:32:59Z</time>
      </trkpt>
      <trkpt lat="44.31438" lon="3.37898">
        <ele>863</ele>
        <time>2017-03-04T01:34:59Z</time>
      </trkpt>
      <trkpt lat="44.31424" lon="3.37894">
        <ele>862</ele>
        <time>2017-03-04T01:36:59Z</time>
      </trkpt>
      <trkpt lat="44.31417" lon="3.37888">
        <ele>862</ele>
        <time>2017-03-04T01:38:59Z</time>
      </trkpt>
      <trkpt lat="44.31409" lon="3.37879">
        <ele>862</ele>
        <time>2017-03-04T01:40:59Z</time>
      </trkpt>
      <trkpt lat="44.31401" lon="3.37865">
        <ele>861</ele>
        <time>2017-03-04T01:42:59Z</time>
      </trkpt>
      <trkpt lat="44.31389" lon="3.37845">
        <ele>860</ele>
        <time>2017-03-04T01:44:59Z</time>
      </trkpt>
      <trkpt lat="44.31388" lon="3.37842">
        <ele>860</ele>
        <time>2017-03-04T01:46:59Z</time>
      </trkpt>
      <trkpt lat="44.31376" lon="3.37862">
        <ele>862</ele>
        <time>2017-03-04T01:48:59Z</time>
      </trkpt>
      <trkpt lat="44.31372" lon="3.37867">
        <ele>862</ele>
        <time>2017-03-04T01:50:59Z</time>
      </trkpt>
      <trkpt lat="44.31369" lon="3.37869">
        <ele>863</ele>
        <time>2017-03-04T01:52:59Z</time>
      </trkpt>
      <trkpt lat="44.31365" lon="3.37869">
        <ele>863</ele>
        <time>2017-03-04T01:54:59Z</time>
      </trkpt>
      <trkpt lat="44.3136" lon="3.37868">
        <ele>863</ele>
        <time>2017-03-04T01:56:59Z</time>
      </trkpt>
      <trkpt lat="44.31351" lon="3.37865">
        <ele>863</ele>
        <time>2017-03-04T01:58:59Z</time>
      </trkpt>
      <trkpt lat="44.3135" lon="3.37863">
        <ele>863</ele>
        <time>2017-03-04T02:00:59Z</time>
      </trkpt>
      <trkpt lat="44.31334" lon="3.37855">
        <ele>863</ele>
        <time>2017-03-04T02:02:59Z</time>
      </trkpt>
      <trkpt lat="44.31329" lon="3.37853">
        <ele>863</ele>
        <time>2017-03-04T02:04:59Z</time>
      </trkpt>
      <trkpt lat="44.3132" lon="3.37848">
        <ele>863</ele>
        <time>2017-03-04T02:06:59Z</time>
      </trkpt>
      <trkpt lat="44.31309" lon="3.37847">
        <ele>863</ele>
        <time>2017-03-04T02:08:59Z</time>
      </trkpt>
      <trkpt lat="44.313" lon="3.37848">
        <ele>863</ele>
        <time>2017-03-04T02:10:59Z</time>
      </trkpt>
      <trkpt lat="44.3128" lon="3.37852">
        <ele>864</ele>
        <time>2017-03-04T02:12:59Z</time>
      </trkpt>
      <trkpt lat="44.31256" lon="3.3786">
        <ele>867</ele>
        <time>2017-03-04T02:14:59Z</time>
      </trkpt>
      <trkpt lat="44.31235" lon="3.37868">
        <ele>868</ele>
        <time>2017-03-04T02:16:59Z</time>
      </trkpt>
      <trkpt lat="44.31218" lon="3.37875">
        <ele>870</ele>
        <time>2017-03-04T02:18:59Z</time>
      </trkpt>
      <trkpt lat="44.31214" lon="3.37876">
        <ele>870</ele>
        <time>2017-03-04T02:20:59Z</time>
      </trkpt>
      <trkpt lat="44.31211" lon="3.37875">
        <ele>870</ele>
        <time>2017-03-04T02:22:59Z</time>
      </trkpt>
      <trkpt lat="44.31209" lon="3.37875">
        <ele>870</ele>
        <time>2017-03-04T02:24:59Z</time>
      </trkpt>
      <trkpt lat="44.31188" lon="3.3787">
        <ele>869</ele>
        <time>2017-03-04T02:26:59Z</time>
      </trkpt>
      <trkpt lat="44.31185" lon="3.37868">
        <ele>868</ele>
        <time>2017-03-04T02:28:59Z</time>
      </trkpt>
      <trkpt lat="44.31182" lon="3.37865">
        <ele>868</ele>
        <time>2017-03-04T02:30:59Z</time>
      </trkpt>
      <trkpt lat="44.31178" lon="3.37863">
        <ele>867</ele>
        <time>2017-03-04T02:32:59Z</time>
      </trkpt>
      <trkpt lat="44.31165" lon="3.37861">
        <ele>867</ele>
        <time>2017-03-04T02:34:59Z</time>
      </trkpt>
      <trkpt lat="44.31154" lon="3.37861">
        <ele>868</ele>
        <time>2017-03-04T02:36:59Z</time>
      </trkpt>
      <trkpt lat="44.31145" lon="3.3786">
        <ele>869</ele>
        <time>2017-03-04T02:38:59Z</time>
      </trkpt>
      <trkpt lat="44.31132" lon="3.37857">
        <ele>869</ele>
        <time>2017-03-04T02:40:59Z</time>
      </trkpt>
      <trkpt lat="44.31122" lon="3.37853">
        <ele>870</ele>
        <time>2017-03-04T02:42:59Z</time>
      </trkpt>
      <trkpt lat="44.31116" lon="3.37847">
        <ele>869</ele>
        <time>2017-03-04T02:44:59Z</time>
      </trkpt>
      <trkpt lat="44.31093" lon="3.37821">
        <ele>865</ele>
        <time>2017-03-04T02:46:59Z</time>
      </trkpt>
      <trkpt lat="44.31066" lon="3.37792">
        <ele>863</ele>
        <time>2017-03-04T02:48:59Z</time>
      </trkpt>
      <trkpt lat="44.31045" lon="3.3777">
        <ele>862</ele>
        <time>2017-03-04T02:50:59Z</time>
      </trkpt>
      <trkpt lat="44.31022" lon="3.37737">
        <ele>857</ele>
        <time>2017-03-04T02:52:59Z</time>
      </trkpt>
      <trkpt lat="44.31014" lon="3.37726">
        <ele>856</ele>
        <time>2017-03-04T02:54:59Z</time>
      </trkpt>
      <trkpt lat="44.30997" lon="3.3771">
        <ele>854</ele>
        <time>2017-03-04T02:56:59Z</time>
      </trkpt>
      <trkpt lat="44.30988" lon="3.37702">
        <ele>854</ele>
        <time>2017-03-04T02:58:59Z</time>
      </trkpt>
      <trkpt lat="44.30979" lon="3.37698">
        <ele>854</ele>
        <time>2017-03-04T03:00:59Z</time>
      </trkpt>
      <trkpt lat="44.30968" lon="3.3769">
        <ele>854</ele>
        <time>2017-03-04T03:02:59Z</time>
      </trkpt>
      <trkpt lat="44.30948" lon="3.37672">
        <ele>852</ele>
        <time>2017-03-04T03:04:59Z</time>
      </trkpt>
      <trkpt lat="44.30937" lon="3.37661">
        <ele>851</ele>
        <time>2017-03-04T03:06:59Z</time>
      </trkpt>
      <trkpt lat="44.3092" lon="3.37649">
        <ele>851</ele>
        <time>2017-03-04T03:08:59Z</time>
      </trkpt>
      <trkpt lat="44.30919" lon="3.37648">
        <ele>851</ele>
        <time>2017-03-04T03:10:59Z</time>
      </trkpt>
      <trkpt lat="44.30909" lon="3.37641">
        <ele>851</ele>
        <time>2017-03-04T03:12:59Z</time>
      </trkpt>
      <trkpt lat="44.309" lon="3.37628">
        <ele>850</ele>
        <time>2017-03-04T03:14:59Z</time>
      </trkpt>
      <trkpt lat="44.30894" lon="3.37618">
        <ele>849</ele>
        <time>2017-03-04T03:16:59Z</time>
      </trkpt>
      <trkpt lat="44.3089" lon="3.37604">
        <ele>847</ele>
        <time>2017-03-04T03:18:59Z</time>
      </trkpt>
      <trkpt lat="44.30882" lon="3.37592">
        <ele>846</ele>
        <time>2017-03-04T03:20:59Z</time>
      </trkpt>
      <trkpt lat="44.30876" lon="3.37585">
        <ele>846</ele>
        <time>2017-03-04T03:22:59Z</time>
      </trkpt>
      <trkpt lat="44.30862" lon="3.3757">
        <ele>847</ele>
        <time>2017-03-04T03:24:59Z</time>
      </trkpt>
      <trkpt lat="44.30855" lon="3.37559">
        <ele>847</ele>
        <time>2017-03-04T03:26:59Z</time>
      </trkpt>
      <trkpt lat="44.3085" lon="3.37544">
        <ele>846</ele>
        <time>2017-03-04T03:28:59Z</time>
      </trkpt>
      <trkpt lat="44.30848" lon="3.37529">
        <ele>846</ele>
        <time>2017-03-04T03:30:59Z</time>
      </trkpt>
      <trkpt lat="44.30847" lon="3.37513">
        <ele>845</ele>
        <time>2017-03-04T03:32:59Z</time>
      </trkpt>
      <trkpt lat="44.30844" lon="3.37497">
        <ele>844</ele>
        <time>2017-03-04T03:34:59Z</time>
      </trkpt>
      <trkpt lat="44.30841" lon="3.37492">
        <ele>844</ele>
        <time>2017-03-04T03:36:59Z</time>
      </trkpt>
      <trkpt lat="44.30838" lon="3.3749">
        <ele>844</ele>
        <time>2017-03-04T03:38:59Z</time>
      </trkpt>
      <trkpt lat="44.30838" lon="3.37485">
        <ele>844</ele>
        <time>2017-03-04T03:40:59Z</time>
      </trkpt>
      <trkpt lat="44.30837" lon="3.37478">
        <ele>843</ele>
        <time>2017-03-04T03:42:59Z</time>
      </trkpt>
      <trkpt lat="44.30835" lon="3.37471">
        <ele>843</ele>
        <time>2017-03-04T03:44:59Z</time>
      </trkpt>
      <trkpt lat="44.30832" lon="3.37457">
        <ele>842</ele>
        <time>2017-03-04T03:46:59Z</time>
      </trkpt>
      <trkpt lat="44.30831" lon="3.37447">
        <ele>842</ele>
        <time>2017-03-04T03:48:59Z</time>
      </trkpt>
      <trkpt lat="44.30831" lon="3.3743">
        <ele>841</ele>
        <time>2017-03-04T03:50:59Z</time>
      </trkpt>
      <trkpt lat="44.30832" lon="3.37411">
        <ele>840</ele>
        <time>2017-03-04T03:52:59Z</time>
      </trkpt>
      <trkpt lat="44.30836" lon="3.37391">
        <ele>838</ele>
        <time>2017-03-04T03:54:59Z</time>
      </trkpt>
      <trkpt lat="44.30843" lon="3.37359">
        <ele>836</ele>
        <time>2017-03-04T03:56:59Z</time>
      </trkpt>
      <trkpt lat="44.3085" lon="3.37321">
        <ele>835</ele>
        <time>2017-03-04T03:58:59Z</time>
      </trkpt>
      <trkpt lat="44.30852" lon="3.37308">
        <ele>834</ele>
        <time>2017-03-04T04:00:59Z</time>
      </trkpt>
      <trkpt lat="44.30857" lon="3.37292">
        <ele>834</ele>
        <time>2017-03-04T04:02:59Z</time>
      </trkpt>
      <trkpt lat="44.30869" lon="3.37256">
        <ele>833</ele>
        <time>2017-03-04T04:04:59Z</time>
      </trkpt>
      <trkpt lat="44.30875" lon="3.3724">
        <ele>833</ele>
        <time>2017-03-04T04:06:59Z</time>
      </trkpt>
      <trkpt lat="44.30878" lon="3.3723">
        <ele>832</ele>
        <time>2017-03-04T04:08:59Z</time>
      </trkpt>
      <trkpt lat="44.3088" lon="3.37219">
        <ele>832</ele>
        <time>2017-03-04T04:10:59Z</time>
      </trkpt>
      <trkpt lat="44.30883" lon="3.37192">
        <ele>831</ele>
        <time>2017-03-04T04:12:59Z</time>
      </trkpt>
      <trkpt lat="44.30883" lon="3.37183">
        <ele>831</ele>
        <time>2017-03-04T04:14:59Z</time>
      </trkpt>
      <trkpt lat="44.30866" lon="3.37143">
        <ele>830</ele>
        <time>2017-03-04T04:16:59Z</time>
      </trkpt>
      <trkpt lat="44.30858" lon="3.37128">
        <ele>830</ele>
        <time>2017-03-04T04:18:59Z</time>
      </trkpt>
      <trkpt lat="44.3085" lon="3.37112">
        <ele>830</ele>
        <time>2017-03-04T04:20:59Z</time>
      </trkpt>
      <trkpt lat="44.30844" lon="3.37097">
        <ele>830</ele>
        <time>2017-03-04T04:22:59Z</time>
      </trkpt>
      <trkpt lat="44.30839" lon="3.37081">
        <ele>830</ele>
        <time>2017-03-04T04:24:59Z</time>
      </trkpt>
      <trkpt lat="44.30831" lon="3.37054">
        <ele>830</ele>
        <time>2017-03-04T04:26:59Z</time>
      </trkpt>
      <trkpt lat="44.30826" lon="3.37039">
        <ele>829</ele>
        <time>2017-03-04T04:28:59Z</time>
      </trkpt>
      <trkpt lat="44.3082" lon="3.37026">
        <ele>829</ele>
        <time>2017-03-04T04:30:59Z</time>
      </trkpt>
      <trkpt lat="44.30814" lon="3.37014">
        <ele>829</ele>
        <time>2017-03-04T04:32:59Z</time>
      </trkpt>
      <trkpt lat="44.30797" lon="3.36987">
        <ele>828</ele>
        <time>2017-03-04T04:34:59Z</time>
      </trkpt>
      <trkpt lat="44.3079" lon="3.36974">
        <ele>828</ele>
        <time>2017-03-04T04:36:59Z</time>
      </trkpt>
      <trkpt lat="44.30784" lon="3.36962">
        <ele>828</ele>
        <time>2017-03-04T04:38:59Z</time>
      </trkpt>
      <trkpt lat="44.3078" lon="3.36949">
        <ele>828</ele>
        <time>2017-03-04T04:40:59Z</time>
      </trkpt>
      <trkpt lat="44.30778" lon="3.36938">
        <ele>828</ele>
        <time>2017-03-04T04:42:59Z</time>
      </trkpt>
      <trkpt lat="44.30776" lon="3.36924">
        <ele>828</ele>
        <time>2017-03-04T04:44:59Z</time>
      </trkpt>
      <trkpt lat="44.30776" lon="3.36904">
        <ele>828</ele>
        <time>2017-03-04T04:46:59Z</time>
      </trkpt>
      <trkpt lat="44.30778" lon="3.36884">
        <ele>828</ele>
        <time>2017-03-04T04:48:59Z</time>
      </trkpt>
      <trkpt lat="44.30778" lon="3.36871">
        <ele>828</ele>
        <time>2017-03-04T04:50:59Z</time>
      </trkpt>
      <trkpt lat="44.30777" lon="3.36843">
        <ele>828</ele>
        <time>2017-03-04T04:52:59Z</time>
      </trkpt>
      <trkpt lat="44.30775" lon="3.36832">
        <ele>828</ele>
        <time>2017-03-04T04:54:59Z</time>
      </trkpt>
      <trkpt lat="44.30768" lon="3.36804">
        <ele>829</ele>
        <time>2017-03-04T04:56:59Z</time>
      </trkpt>
      <trkpt lat="44.30763" lon="3.36779">
        <ele>831</ele>
        <time>2017-03-04T04:58:59Z</time>
      </trkpt>
      <trkpt lat="44.30757" lon="3.36742">
        <ele>833</ele>
        <time>2017-03-04T05:00:59Z</time>
      </trkpt>
      <trkpt lat="44.3075" lon="3.36693">
        <ele>837</ele>
        <time>2017-03-04T05:02:59Z</time>
      </trkpt>
      <trkpt lat="44.30747" lon="3.36682">
        <ele>838</ele>
        <time>2017-03-04T05:04:59Z</time>
      </trkpt>
      <trkpt lat="44.30742" lon="3.36667">
        <ele>839</ele>
        <time>2017-03-04T05:06:59Z</time>
      </trkpt>
      <trkpt lat="44.30743" lon="3.36662">
        <ele>840</ele>
        <time>2017-03-04T05:08:59Z</time>
      </trkpt>
      <trkpt lat="44.30746" lon="3.36655">
        <ele>841</ele>
        <time>2017-03-04T05:10:59Z</time>
      </trkpt>
      <trkpt lat="44.30754" lon="3.36647">
        <ele>841</ele>
        <time>2017-03-04T05:12:59Z</time>
      </trkpt>
      <trkpt lat="44.30756" lon="3.36644">
        <ele>842</ele>
        <time>2017-03-04T05:14:59Z</time>
      </trkpt>
      <trkpt lat="44.30764" lon="3.36582">
        <ele>846</ele>
        <time>2017-03-04T05:16:59Z</time>
      </trkpt>
      <trkpt lat="44.30767" lon="3.36573">
        <ele>846</ele>
        <time>2017-03-04T05:18:59Z</time>
      </trkpt>
      <trkpt lat="44.3077" lon="3.36568">
        <ele>847</ele>
        <time>2017-03-04T05:20:59Z</time>
      </trkpt>
      <trkpt lat="44.30775" lon="3.36562">
        <ele>847</ele>
        <time>2017-03-04T05:22:59Z</time>
      </trkpt>
      <trkpt lat="44.30772" lon="3.36556">
        <ele>847</ele>
        <time>2017-03-04T05:24:59Z</time>
      </trkpt>
      <trkpt lat="44.3077" lon="3.36544">
        <ele>847</ele>
        <time>2017-03-04T05:26:59Z</time>
      </trkpt>
      <trkpt lat="44.30768" lon="3.36517">
        <ele>848</ele>
        <time>2017-03-04T05:28:59Z</time>
      </trkpt>
      <trkpt lat="44.30766" lon="3.3651">
        <ele>849</ele>
        <time>2017-03-04T05:30:59Z</time>
      </trkpt>
      <trkpt lat="44.30764" lon="3.36504">
        <ele>849</ele>
        <time>2017-03-04T05:32:59Z</time>
      </trkpt>
      <trkpt lat="44.3076" lon="3.36498">
        <ele>850</ele>
        <time>2017-03-04T05:34:59Z</time>
      </trkpt>
      <trkpt lat="44.30754" lon="3.36484">
        <ele>850</ele>
        <time>2017-03-04T05:36:59Z</time>
      </trkpt>
      <trkpt lat="44.30747" lon="3.36465">
        <ele>850</ele>
        <time>2017-03-04T05:38:59Z</time>
      </trkpt>
      <trkpt lat="44.30743" lon="3.36456">
        <ele>850</ele>
        <time>2017-03-04T05:40:59Z</time>
      </trkpt>
      <trkpt lat="44.30739" lon="3.36443">
        <ele>850</ele>
        <time>2017-03-04T05:42:59Z</time>
      </trkpt>
      <trkpt lat="44.30737" lon="3.36434">
        <ele>850</ele>
        <time>2017-03-04T05:44:59Z</time>
      </trkpt>
      <trkpt lat="44.30731" lon="3.36418">
        <ele>850</ele>
        <time>2017-03-04T05:46:59Z</time>
      </trkpt>
      <trkpt lat="44.30741" lon="3.36409">
        <ele>851</ele>
        <time>2017-03-04T05:48:59Z</time>
      </trkpt>
      <trkpt lat="44.30744" lon="3.36407">
        <ele>851</ele>
        <time>2017-03-04T05:50:59Z</time>
      </trkpt>
      <trkpt lat="44.30753" lon="3.36386">
        <ele>851</ele>
        <time>2017-03-04T05:52:59Z</time>
      </trkpt>
      <trkpt lat="44.30754" lon="3.36383">
        <ele>851</ele>
        <time>2017-03-04T05:54:59Z</time>
      </trkpt>
      <trkpt lat="44.30754" lon="3.36372">
        <ele>851</ele>
        <time>2017-03-04T05:56:59Z</time>
      </trkpt>
      <trkpt lat="44.30753" lon="3.36361">
        <ele>852</ele>
        <time>2017-03-04T05:58:59Z</time>
      </trkpt>
      <trkpt lat="44.30753" lon="3.36326">
        <ele>853</ele>
        <time>2017-03-04T06:00:59Z</time>
      </trkpt>
      <trkpt lat="44.30755" lon="3.36306">
        <ele>854</ele>
        <time>2017-03-04T06:02:59Z</time>
      </trkpt>
      <trkpt lat="44.30762" lon="3.36263">
        <ele>855</ele>
        <time>2017-03-04T06:04:59Z</time>
      </trkpt>
      <trkpt lat="44.30763" lon="3.3626">
        <ele>855</ele>
        <time>2017-03-04T06:06:59Z</time>
      </trkpt>
      <trkpt lat="44.30766" lon="3.36255">
        <ele>855</ele>
        <time>2017-03-04T06:08:59Z</time>
      </trkpt>
      <trkpt lat="44.30772" lon="3.36242">
        <ele>855</ele>
        <time>2017-03-04T06:10:59Z</time>
      </trkpt>
      <trkpt lat="44.30773" lon="3.36239">
        <ele>855</ele>
        <time>2017-03-04T06:12:59Z</time>
      </trkpt>
      <trkpt lat="44.30777" lon="3.3622">
        <ele>856</ele>
        <time>2017-03-04T06:14:59Z</time>
      </trkpt>
      <trkpt lat="44.30784" lon="3.36204">
        <ele>857</ele>
        <time>2017-03-04T06:16:59Z</time>
      </trkpt>
      <trkpt lat="44.30795" lon="3.36183">
        <ele>858</ele>
        <time>2017-03-04T06:18:59Z</time>
      </trkpt>
      <trkpt lat="44.30808" lon="3.36166">
        <ele>860</ele>
        <time>2017-03-04T06:20:59Z</time>
      </trkpt>
      <trkpt lat="44.30823" lon="3.3615">
        <ele>860</ele>
        <time>2017-03-04T06:22:59Z</time>
      </trkpt>
      <trkpt lat="44.30835" lon="3.36141">
        <ele>860</ele>
        <time>2017-03-04T06:24:59Z</time>
      </trkpt>
      <trkpt lat="44.30858" lon="3.36122">
        <ele>861</ele>
        <time>2017-03-04T06:26:59Z</time>
      </trkpt>
      <trkpt lat="44.30884" lon="3.361">
        <ele>862</ele>
        <time>2017-03-04T06:28:59Z</time>
      </trkpt>
      <trkpt lat="44.30937" lon="3.36059">
        <ele>862</ele>
        <time>2017-03-04T06:30:59Z</time>
      </trkpt>
      <trkpt lat="44.30952" lon="3.36044">
        <ele>862</ele>
        <time>2017-03-04T06:32:59Z</time>
      </trkpt>
      <trkpt lat="44.30978" lon="3.36032">
        <ele>861</ele>
        <time>2017-03-04T06:34:59Z</time>
      </trkpt>
      <trkpt lat="44.30998" lon="3.36017">
        <ele>860</ele>
        <time>2017-03-04T06:36:59Z</time>
      </trkpt>
      <trkpt lat="44.31014" lon="3.36006">
        <ele>861</ele>
        <time>2017-03-04T06:38:59Z</time>
      </trkpt>
      <trkpt lat="44.31036" lon="3.35996">
        <ele>862</ele>
        <time>2017-03-04T06:40:59Z</time>
      </trkpt>
      <trkpt lat="44.31042" lon="3.35989">
        <ele>862</ele>
        <time>2017-03-04T06:42:59Z</time>
      </trkpt>
      <trkpt lat="44.31048" lon="3.3598">
        <ele>862</ele>
        <time>2017-03-04T06:44:59Z</time>
      </trkpt>
      <trkpt lat="44.31051" lon="3.35969">
        <ele>862</ele>
        <time>2017-03-04T06:46:59Z</time>
      </trkpt>
      <trkpt lat="44.31052" lon="3.35953">
        <ele>861</ele>
        <time>2017-03-04T06:48:59Z</time>
      </trkpt>
      <trkpt lat="44.31053" lon="3.35943">
        <ele>860</ele>
        <time>2017-03-04T06:50:59Z</time>
      </trkpt>
      <trkpt lat="44.31059" lon="3.35926">
        <ele>860</ele>
        <time>2017-03-04T06:52:59Z</time>
      </trkpt>
      <trkpt lat="44.31066" lon="3.35913">
        <ele>860</ele>
        <time>2017-03-04T06:54:59Z</time>
      </trkpt>
      <trkpt lat="44.31084" lon="3.35889">
        <ele>861</ele>
        <time>2017-03-04T06:56:59Z</time>
      </trkpt>
      <trkpt lat="44.31098" lon="3.35874">
        <ele>863</ele>
        <time>2017-03-04T06:58:59Z</time>
      </trkpt>
      <trkpt lat="44.31107" lon="3.35869">
        <ele>864</ele>
        <time>2017-03-04T07:00:59Z</time>
      </trkpt>
      <trkpt lat="44.31118" lon="3.35864">
        <ele>865</ele>
        <time>2017-03-04T07:02:59Z</time>
      </trkpt>
      <trkpt lat="44.31126" lon="3.35859">
        <ele>866</ele>
        <time>2017-03-04T07:04:59Z</time>
      </trkpt>
      <trkpt lat="44.31131" lon="3.35852">
        <ele>866</ele>
        <time>2017-03-04T07:06:59Z</time>
      </trkpt>
      <trkpt lat="44.31143" lon="3.35831">
        <ele>866</ele>
        <time>2017-03-04T07:08:59Z</time>
      </trkpt>
      <trkpt lat="44.31156" lon="3.35813">
        <ele>866</ele>
        <time>2017-03-04T07:10:59Z</time>
      </trkpt>
      <trkpt lat="44.3117" lon="3.35796">
        <ele>866</ele>
        <time>2017-03-04T07:12:59Z</time>
      </trkpt>
      <trkpt lat="44.3121" lon="3.35741">
        <ele>865</ele>
        <time>2017-03-04T07:14:59Z</time>
      </trkpt>
      <trkpt lat="44.3123" lon="3.35717">
        <ele>864</ele>
        <time>2017-03-04T07:16:59Z</time>
      </trkpt>
      <trkpt lat="44.31244" lon="3.35697">
        <ele>863</ele>
        <time>2017-03-04T07:18:59Z</time>
      </trkpt>
      <trkpt lat="44.31261" lon="3.35663">
        <ele>861</ele>
        <time>2017-03-04T07:20:59Z</time>
      </trkpt>
      <trkpt lat="44.31266" lon="3.35652">
        <ele>860</ele>
        <time>2017-03-04T07:22:59Z</time>
      </trkpt>
      <trkpt lat="44.31269" lon="3.35642">
        <ele>859</ele>
        <time>2017-03-04T07:24:59Z</time>
      </trkpt>
      <trkpt lat="44.31275" lon="3.35633">
        <ele>859</ele>
        <time>2017-03-04T07:26:59Z</time>
      </trkpt>
      <trkpt lat="44.31293" lon="3.35615">
        <ele>859</ele>
        <time>2017-03-04T07:28:59Z</time>
      </trkpt>
      <trkpt lat="44.31301" lon="3.35609">
        <ele>859</ele>
        <time>2017-03-04T07:30:59Z</time>
      </trkpt>
      <trkpt lat="44.31317" lon="3.35588">
        <ele>859</ele>
        <time>2017-03-04T07:32:59Z</time>
      </trkpt>
      <trkpt lat="44.31323" lon="3.35579">
        <ele>858</ele>
        <time>2017-03-04T07:34:59Z</time>
      </trkpt>
      <trkpt lat="44.31332" lon="3.35571">
        <ele>858</ele>
        <time>2017-03-04T07:36:59Z</time>
      </trkpt>
      <trkpt lat="44.31339" lon="3.35564">
        <ele>858</ele>
        <time>2017-03-04T07:38:59Z</time>
      </trkpt>
      <trkpt lat="44.31346" lon="3.35554">
        <ele>858</ele>
        <time>2017-03-04T07:40:59Z</time>
      </trkpt>
      <trkpt lat="44.31358" lon="3.35538">
        <ele>858</ele>
        <time>2017-03-04T07:42:59Z</time>
      </trkpt>
      <trkpt lat="44.31369" lon="3.35522">
        <ele>857</ele>
        <time>2017-03-04T07:44:59Z</time>
      </trkpt>
      <trkpt lat="44.31381" lon="3.35501">
        <ele>856</ele>
        <time>2017-03-04T07:46:59Z</time>
      </trkpt>
      <trkpt lat="44.31394" lon="3.3548">
        <ele>856</ele>
        <time>2017-03-04T07:48:59Z</time>
      </trkpt>
      <trkpt lat="44.31405" lon="3.3546">
        <ele>856</ele>
        <time>2017-03-04T07:50:59Z</time>
      </trkpt>
      <trkpt lat="44.31433" lon="3.35406">
        <ele>853</ele>
        <time>2017-03-04T07:52:59Z</time>
      </trkpt>
      <trkpt lat="44.31447" lon="3.35376">
        <ele>848</ele>
        <time>2017-03-04T07:54:59Z</time>
      </trkpt>
      <trkpt lat="44.31452" lon="3.35366">
        <ele>847</ele>
        <time>2017-03-04T07:56:59Z</time>
      </trkpt>
      <trkpt lat="44.31458" lon="3.35358">
        <ele>845</ele>
        <time>2017-03-04T07:58:59Z</time>
      </trkpt>
      <trkpt lat="44.31461" lon="3.35347">
        <ele>843</ele>
        <time>2017-03-04T08:00:59Z</time>
      </trkpt>
      <trkpt lat="44.31464" lon="3.35345">
        <ele>843</ele>
        <time>2017-03-04T08:02:59Z</time>
      </trkpt>
      <trkpt lat="44.31466" lon="3.35345">
        <ele>842</ele>
        <time>2017-03-04T08:04:59Z</time>
      </trkpt>
      <trkpt lat="44.31473" lon="3.35349">
        <ele>842</ele>
        <time>2017-03-04T08:06:59Z</time>
      </trkpt>
      <trkpt lat="44.31482" lon="3.35358">
        <ele>843</ele>
        <time>2017-03-04T08:08:59Z</time>
      </trkpt>
      <trkpt lat="44.3149" lon="3.3537">
        <ele>845</ele>
        <time>2017-03-04T08:10:59Z</time>
      </trkpt>
      <trkpt lat="44.31499" lon="3.35376">
        <ele>845</ele>
        <time>2017-03-04T08:12:59Z</time>
      </trkpt>
      <trkpt lat="44.31512" lon="3.35384">
        <ele>840</ele>
        <time>2017-03-04T08:14:59Z</time>
      </trkpt>
      <trkpt lat="44.31521" lon="3.35391">
        <ele>836</ele>
        <time>2017-03-04T08:16:59Z</time>
      </trkpt>
      <trkpt lat="44.31531" lon="3.35413">
        <ele>834</ele>
        <time>2017-03-04T08:18:59Z</time>
      </trkpt>
      <trkpt lat="44.31541" lon="3.35442">
        <ele>835</ele>
        <time>2017-03-04T08:20:59Z</time>
      </trkpt>
      <trkpt lat="44.31551" lon="3.35462">
        <ele>834</ele>
        <time>2017-03-04T08:22:59Z</time>
      </trkpt>
      <trkpt lat="44.31561" lon="3.35476">
        <ele>832</ele>
        <time>2017-03-04T08:24:59Z</time>
      </trkpt>
      <trkpt lat="44.31567" lon="3.35492">
        <ele>832</ele>
        <time>2017-03-04T08:26:59Z</time>
      </trkpt>
      <trkpt lat="44.31572" lon="3.35515">
        <ele>836</ele>
        <time>2017-03-04T08:28:59Z</time>
      </trkpt>
      <trkpt lat="44.31579" lon="3.35535">
        <ele>839</ele>
        <time>2017-03-04T08:30:59Z</time>
      </trkpt>
      <trkpt lat="44.31593" lon="3.35554">
        <ele>839</ele>
        <time>2017-03-04T08:32:59Z</time>
      </trkpt>
      <trkpt lat="44.3161" lon="3.35574">
        <ele>841</ele>
        <time>2017-03-04T08:34:59Z</time>
      </trkpt>
      <trkpt lat="44.31623" lon="3.35588">
        <ele>842</ele>
        <time>2017-03-04T08:36:59Z</time>
      </trkpt>
      <trkpt lat="44.31629" lon="3.35592">
        <ele>842</ele>
        <time>2017-03-04T08:38:59Z</time>
      </trkpt>
      <trkpt lat="44.31634" lon="3.35593">
        <ele>841</ele>
        <time>2017-03-04T08:40:59Z</time>
      </trkpt>
      <trkpt lat="44.31641" lon="3.35591">
        <ele>838</ele>
        <time>2017-03-04T08:42:59Z</time>
      </trkpt>
      <trkpt lat="44.3168" lon="3.35568">
        <ele>818</ele>
        <time>2017-03-04T08:44:59Z</time>
      </trkpt>
      <trkpt lat="44.31697" lon="3.35556">
        <ele>811</ele>
        <time>2017-03-04T08:46:59Z</time>
      </trkpt>
      <trkpt lat="44.31712" lon="3.35548">
        <ele>805</ele>
        <time>2017-03-04T08:48:59Z</time>
      </trkpt>
      <trkpt lat="44.31726" lon="3.35543">
        <ele>801</ele>
        <time>2017-03-04T08:50:59Z</time>
      </trkpt>
      <trkpt lat="44.3174" lon="3.35542">
        <ele>799</ele>
        <time>2017-03-04T08:52:59Z</time>
      </trkpt>
      <trkpt lat="44.31746" lon="3.35544">
        <ele>800</ele>
        <time>2017-03-04T08:54:59Z</time>
      </trkpt>
      <trkpt lat="44.31766" lon="3.35554">
        <ele>802</ele>
        <time>2017-03-04T08:56:59Z</time>
      </trkpt>
      <trkpt lat="44.31789" lon="3.35563">
        <ele>803</ele>
        <time>2017-03-04T08:58:59Z</time>
      </trkpt>
      <trkpt lat="44.31799" lon="3.35569">
        <ele>804</ele>
        <time>2017-03-04T09:00:59Z</time>
      </trkpt>
      <trkpt lat="44.31802" lon="3.3557">
        <ele>804</ele>
        <time>2017-03-04T09:02:59Z</time>
      </trkpt>
      <trkpt lat="44.31803" lon="3.35569">
        <ele>803</ele>
        <time>2017-03-04T09:04:59Z</time>
      </trkpt>
      <trkpt lat="44.31804" lon="3.35567">
        <ele>802</ele>
        <time>2017-03-04T09:06:59Z</time>
      </trkpt>
      <trkpt lat="44.31803" lon="3.35564">
        <ele>801</ele>
        <time>2017-03-04T09:08:59Z</time>
      </trkpt>
      <trkpt lat="44.31787" lon="3.35536">
        <ele>791</ele>
        <time>2017-03-04T09:10:59Z</time>
      </trkpt>
      <trkpt lat="44.31767" lon="3.35496">
        <ele>775</ele>
        <time>2017-03-04T09:12:59Z</time>
      </trkpt>
      <trkpt lat="44.31756" lon="3.35481">
        <ele>769</ele>
        <time>2017-03-04T09:14:59Z</time>
      </trkpt>
      <trkpt lat="44.31734" lon="3.35472">
        <ele>768</ele>
        <time>2017-03-04T09:16:59Z</time>
      </trkpt>
      <trkpt lat="44.31693" lon="3.35453">
        <ele>765</ele>
        <time>2017-03-04T09:18:59Z</time>
      </trkpt>
      <trkpt lat="44.31685" lon="3.35442">
        <ele>761</ele>
        <time>2017-03-04T09:20:59Z</time>
      </trkpt>
      <trkpt lat="44.3168" lon="3.3543">
        <ele>757</ele>
        <time>2017-03-04T09:22:59Z</time>
      </trkpt>
      <trkpt lat="44.31676" lon="3.35412">
        <ele>750</ele>
        <time>2017-03-04T09:24:59Z</time>
      </trkpt>
      <trkpt lat="44.31672" lon="3.35387">
        <ele>743</ele>
        <time>2017-03-04T09:26:59Z</time>
      </trkpt>
      <trkpt lat="44.31664" lon="3.35348">
        <ele>733</ele>
        <time>2017-03-04T09:28:59Z</time>
      </trkpt>
      <trkpt lat="44.31662" lon="3.35334">
        <ele>730</ele>
        <time>2017-03-04T09:30:59Z</time>
      </trkpt>
      <trkpt lat="44.31662" lon="3.35309">
        <ele>725</ele>
        <time>2017-03-04T09:32:59Z</time>
      </trkpt>
      <trkpt lat="44.31658" lon="3.35283">
        <ele>723</ele>
        <time>2017-03-04T09:34:59Z</time>
      </trkpt>
      <trkpt lat="44.31658" lon="3.3528">
        <ele>722</ele>
        <time>2017-03-04T09:36:59Z</time>
      </trkpt>
      <trkpt lat="44.31659" lon="3.35275">
        <ele>720</ele>
        <time>2017-03-04T09:38:59Z</time>
      </trkpt>
      <trkpt lat="44.31658" lon="3.35271">
        <ele>720</ele>
        <time>2017-03-04T09:40:59Z</time>
      </trkpt>
      <trkpt lat="44.31657" lon="3.35269">
        <ele>720</ele>
        <time>2017-03-04T09:42:59Z</time>
      </trkpt>
      <trkpt lat="44.31653" lon="3.35263">
        <ele>722</ele>
        <time>2017-03-04T09:44:59Z</time>
      </trkpt>
      <trkpt lat="44.31652" lon="3.35257">
        <ele>721</ele>
        <time>2017-03-04T09:46:59Z</time>
      </trkpt>
      <trkpt lat="44.31652" lon="3.35253">
        <ele>720</ele>
        <time>2017-03-04T09:48:59Z</time>
      </trkpt>
      <trkpt lat="44.31653" lon="3.35247">
        <ele>718</ele>
        <time>2017-03-04T09:50:59Z</time>
      </trkpt>
      <trkpt lat="44.31653" lon="3.35238">
        <ele>717</ele>
        <time>2017-03-04T09:52:59Z</time>
      </trkpt>
      <trkpt lat="44.31654" lon="3.35236">
        <ele>716</ele>
        <time>2017-03-04T09:54:59Z</time>
      </trkpt>
      <trkpt lat="44.31654" lon="3.35235">
        <ele>716</ele>
        <time>2017-03-04T09:56:59Z</time>
      </trkpt>
      <trkpt lat="44.31658" lon="3.35235">
        <ele>713</ele>
        <time>2017-03-04T09:58:59Z</time>
      </trkpt>
      <trkpt lat="44.3166" lon="3.35236">
        <ele>712</ele>
        <time>2017-03-04T10:00:59Z</time>
      </trkpt>
      <trkpt lat="44.31662" lon="3.35239">
        <ele>711</ele>
        <time>2017-03-04T10:02:59Z</time>
      </trkpt>
      <trkpt lat="44.31664" lon="3.35243">
        <ele>711</ele>
        <time>2017-03-04T10:04:59Z</time>
      </trkpt>
      <trkpt lat="44.31664" lon="3.3525">
        <ele>712</ele>
        <time>2017-03-04T10:06:59Z</time>
      </trkpt>
      <trkpt lat="44.31665" lon="3.35252">
        <ele>712</ele>
        <time>2017-03-04T10:08:59Z</time>
      </trkpt>
      <trkpt lat="44.31673" lon="3.35261">
        <ele>710</ele>
        <time>2017-03-04T10:10:59Z</time>
      </trkpt>
      <trkpt lat="44.31679" lon="3.3527">
        <ele>709</ele>
        <time>2017-03-04T10:12:59Z</time>
      </trkpt>
      <trkpt lat="44.31689" lon="3.35281">
        <ele>708</ele>
        <time>2017-03-04T10:14:59Z</time>
      </trkpt>
      <trkpt lat="44.31699" lon="3.3529">
        <ele>707</ele>
        <time>2017-03-04T10:16:59Z</time>
      </trkpt>
      <trkpt lat="44.31703" lon="3.35292">
        <ele>706</ele>
        <time>2017-03-04T10:18:59Z</time>
      </trkpt>
      <trkpt lat="44.31715" lon="3.35296">
        <ele>703</ele>
        <time>2017-03-04T10:20:59Z</time>
      </trkpt>
      <trkpt lat="44.3174" lon="3.35302">
        <ele>696</ele>
        <time>2017-03-04T10:22:59Z</time>
      </trkpt>
      <trkpt lat="44.31763" lon="3.35302">
        <ele>692</ele>
        <time>2017-03-04T10:24:59Z</time>
      </trkpt>
      <trkpt lat="44.31763" lon="3.35301">
        <ele>692</ele>
        <time>2017-03-04T10:26:59Z</time>
      </trkpt>
      <trkpt lat="44.31764" lon="3.35299">
        <ele>691</ele>
        <time>2017-03-04T10:28:59Z</time>
      </trkpt>
      <trkpt lat="44.31763" lon="3.35297">
        <ele>690</ele>
        <time>2017-03-04T10:30:59Z</time>
      </trkpt>
      <trkpt lat="44.31748" lon="3.35282">
        <ele>687</ele>
        <time>2017-03-04T10:32:59Z</time>
      </trkpt>
      <trkpt lat="44.31741" lon="3.35272">
        <ele>686</ele>
        <time>2017-03-04T10:34:59Z</time>
      </trkpt>
      <trkpt lat="44.31739" lon="3.35268">
        <ele>686</ele>
        <time>2017-03-04T10:36:59Z</time>
      </trkpt>
      <trkpt lat="44.31739" lon="3.35265">
        <ele>685</ele>
        <time>2017-03-04T10:38:59Z</time>
      </trkpt>
      <trkpt lat="44.3174" lon="3.35263">
        <ele>684</ele>
        <time>2017-03-04T10:40:59Z</time>
      </trkpt>
      <trkpt lat="44.31741" lon="3.35262">
        <ele>683</ele>
        <time>2017-03-04T10:42:59Z</time>
      </trkpt>
      <trkpt lat="44.31743" lon="3.35263">
        <ele>683</ele>
        <time>2017-03-04T10:44:59Z</time>
      </trkpt>
      <trkpt lat="44.31747" lon="3.35266">
        <ele>682</ele>
        <time>2017-03-04T10:46:59Z</time>
      </trkpt>
      <trkpt lat="44.3175" lon="3.35267">
        <ele>681</ele>
        <time>2017-03-04T10:48:59Z</time>
      </trkpt>
      <trkpt lat="44.31761" lon="3.35268">
        <ele>681</ele>
        <time>2017-03-04T10:50:59Z</time>
      </trkpt>
      <trkpt lat="44.31771" lon="3.35268">
        <ele>681</ele>
        <time>2017-03-04T10:52:59Z</time>
      </trkpt>
      <trkpt lat="44.31772" lon="3.35267">
        <ele>680</ele>
        <time>2017-03-04T10:54:59Z</time>
      </trkpt>
      <trkpt lat="44.31773" lon="3.35265">
        <ele>680</ele>
        <time>2017-03-04T10:56:59Z</time>
      </trkpt>
      <trkpt lat="44.31772" lon="3.35263">
        <ele>679</ele>
        <time>2017-03-04T10:58:59Z</time>
      </trkpt>
      <trkpt lat="44.31768" lon="3.35259">
        <ele>678</ele>
        <time>2017-03-04T11:00:59Z</time>
      </trkpt>
      <trkpt lat="44.31765" lon="3.35255">
        <ele>677</ele>
        <time>2017-03-04T11:02:59Z</time>
      </trkpt>
      <trkpt lat="44.31761" lon="3.35247">
        <ele>675</ele>
        <time>2017-03-04T11:04:59Z</time>
      </trkpt>
      <trkpt lat="44.31757" lon="3.3524">
        <ele>673</ele>
        <time>2017-03-04T11:06:59Z</time>
      </trkpt>
      <trkpt lat="44.31752" lon="3.35233">
        <ele>672</ele>
        <time>2017-03-04T11:08:59Z</time>
      </trkpt>
      <trkpt lat="44.3175" lon="3.35232">
        <ele>672</ele>
        <time>2017-03-04T11:10:59Z</time>
      </trkpt>
      <trkpt lat="44.31746" lon="3.35231">
        <ele>673</ele>
        <time>2017-03-04T11:12:59Z</time>
      </trkpt>
      <trkpt lat="44.31742" lon="3.35228">
        <ele>674</ele>
        <time>2017-03-04T11:14:59Z</time>
      </trkpt>
      <trkpt lat="44.31741" lon="3.35225">
        <ele>674</ele>
        <time>2017-03-04T11:16:59Z</time>
      </trkpt>
      <trkpt lat="44.3174" lon="3.35224">
        <ele>674</ele>
        <time>2017-03-04T11:18:59Z</time>
      </trkpt>
      <trkpt lat="44.3174" lon="3.35219">
        <ele>673</ele>
        <time>2017-03-04T11:20:59Z</time>
      </trkpt>
      <trkpt lat="44.31741" lon="3.35217">
        <ele>672</ele>
        <time>2017-03-04T11:22:59Z</time>
      </trkpt>
      <trkpt lat="44.31748" lon="3.35217">
        <ele>669</ele>
        <time>2017-03-04T11:24:59Z</time>
      </trkpt>
      <trkpt lat="44.31758" lon="3.35219">
        <ele>668</ele>
        <time>2017-03-04T11:26:59Z</time>
      </trkpt>
      <trkpt lat="44.31773" lon="3.35219">
        <ele>665</ele>
        <time>2017-03-04T11:28:59Z</time>
      </trkpt>
      <trkpt lat="44.31776" lon="3.35218">
        <ele>665</ele>
        <time>2017-03-04T11:30:59Z</time>
      </trkpt>
      <trkpt lat="44.31778" lon="3.35216">
        <ele>664</ele>
        <time>2017-03-04T11:32:59Z</time>
      </trkpt>
      <trkpt lat="44.31778" lon="3.35207">
        <ele>661</ele>
        <time>2017-03-04T11:34:59Z</time>
      </trkpt>
      <trkpt lat="44.31777" lon="3.35205">
        <ele>660</ele>
        <time>2017-03-04T11:36:59Z</time>
      </trkpt>
      <trkpt lat="44.31774" lon="3.35202">
        <ele>660</ele>
        <time>2017-03-04T11:38:59Z</time>
      </trkpt>
      <trkpt lat="44.31771" lon="3.352">
        <ele>660</ele>
        <time>2017-03-04T11:40:59Z</time>
      </trkpt>
      <trkpt lat="44.31768" lon="3.35197">
        <ele>660</ele>
        <time>2017-03-04T11:42:59Z</time>
      </trkpt>
      <trkpt lat="44.31767" lon="3.35195">
        <ele>660</ele>
        <time>2017-03-04T11:44:59Z</time>
      </trkpt>
      <trkpt lat="44.31767" lon="3.35194">
        <ele>659</ele>
        <time>2017-03-04T11:46:59Z</time>
      </trkpt>
      <trkpt lat="44.31769" lon="3.35192">
        <ele>658</ele>
        <time>2017-03-04T11:48:59Z</time>
      </trkpt>
      <trkpt lat="44.31773" lon="3.35192">
        <ele>657</ele>
        <time>2017-03-04T11:50:59Z</time>
      </trkpt>
      <trkpt lat="44.31781" lon="3.35191">
        <ele>655</ele>
        <time>2017-03-04T11:52:59Z</time>
      </trkpt>
      <trkpt lat="44.31783" lon="3.35189">
        <ele>654</ele>
        <time>2017-03-04T11:54:59Z</time>
      </trkpt>
      <trkpt lat="44.31785" lon="3.35186">
        <ele>653</ele>
        <time>2017-03-04T11:56:59Z</time>
      </trkpt>
      <trkpt lat="44.31785" lon="3.35182">
        <ele>651</ele>
        <time>2017-03-04T11:58:59Z</time>
      </trkpt>
      <trkpt lat="44.31784" lon="3.3518">
        <ele>651</ele>
        <time>2017-03-04T12:00:59Z</time>
      </trkpt>
      <trkpt lat="44.31776" lon="3.35168">
        <ele>649</ele>
        <time>2017-03-04T12:02:59Z</time>
      </trkpt>
      <trkpt lat="44.31776" lon="3.35161">
        <ele>647</ele>
        <time>2017-03-04T12:04:59Z</time>
      </trkpt>
      <trkpt lat="44.31777" lon="3.35158">
        <ele>646</ele>
        <time>2017-03-04T12:06:59Z</time>
      </trkpt>
      <trkpt lat="44.31779" lon="3.35155">
        <ele>645</ele>
        <time>2017-03-04T12:08:59Z</time>
      </trkpt>
      <trkpt lat="44.31784" lon="3.35155">
        <ele>643</ele>
        <time>2017-03-04T12:10:59Z</time>
      </trkpt>
      <trkpt lat="44.31788" lon="3.35158">
        <ele>643</ele>
        <time>2017-03-04T12:12:59Z</time>
      </trkpt>
      <trkpt lat="44.3179" lon="3.35161">
        <ele>643</ele>
        <time>2017-03-04T12:14:59Z</time>
      </trkpt>
      <trkpt lat="44.31792" lon="3.35167">
        <ele>644</ele>
        <time>2017-03-04T12:16:59Z</time>
      </trkpt>
      <trkpt lat="44.31795" lon="3.3517">
        <ele>644</ele>
        <time>2017-03-04T12:18:59Z</time>
      </trkpt>
      <trkpt lat="44.31798" lon="3.35172">
        <ele>644</ele>
        <time>2017-03-04T12:20:59Z</time>
      </trkpt>
      <trkpt lat="44.31806" lon="3.35172">
        <ele>642</ele>
        <time>2017-03-04T12:22:59Z</time>
      </trkpt>
      <trkpt lat="44.31813" lon="3.35168">
        <ele>638</ele>
        <time>2017-03-04T12:24:59Z</time>
      </trkpt>
      <trkpt lat="44.3182" lon="3.35163">
        <ele>634</ele>
        <time>2017-03-04T12:26:59Z</time>
      </trkpt>
      <trkpt lat="44.31821" lon="3.3516">
        <ele>633</ele>
        <time>2017-03-04T12:28:59Z</time>
      </trkpt>
      <trkpt lat="44.31822" lon="3.35154">
        <ele>630</ele>
        <time>2017-03-04T12:30:59Z</time>
      </trkpt>
      <trkpt lat="44.31824" lon="3.3515">
        <ele>628</ele>
        <time>2017-03-04T12:32:59Z</time>
      </trkpt>
      <trkpt lat="44.31829" lon="3.35147">
        <ele>625</ele>
        <time>2017-03-04T12:34:59Z</time>
      </trkpt>
      <trkpt lat="44.3183" lon="3.35145">
        <ele>624</ele>
        <time>2017-03-04T12:36:59Z</time>
      </trkpt>
      <trkpt lat="44.31831" lon="3.35142">
        <ele>623</ele>
        <time>2017-03-04T12:38:59Z</time>
      </trkpt>
      <trkpt lat="44.3183" lon="3.3514">
        <ele>622</ele>
        <time>2017-03-04T12:40:59Z</time>
      </trkpt>
      <trkpt lat="44.31826" lon="3.35135">
        <ele>622</ele>
        <time>2017-03-04T12:42:59Z</time>
      </trkpt>
      <trkpt lat="44.31824" lon="3.35134">
        <ele>622</ele>
        <time>2017-03-04T12:44:59Z</time>
      </trkpt>
      <trkpt lat="44.31824" lon="3.35132">
        <ele>622</ele>
        <time>2017-03-04T12:46:59Z</time>
      </trkpt>
      <trkpt lat="44.31825" lon="3.3513">
        <ele>620</ele>
        <time>2017-03-04T12:48:59Z</time>
      </trkpt>
      <trkpt lat="44.31827" lon="3.35128">
        <ele>619</ele>
        <time>2017-03-04T12:50:59Z</time>
      </trkpt>
      <trkpt lat="44.31834" lon="3.35128">
        <ele>617</ele>
        <time>2017-03-04T12:52:59Z</time>
      </trkpt>
      <trkpt lat="44.31843" lon="3.35124">
        <ele>616</ele>
        <time>2017-03-04T12:54:59Z</time>
      </trkpt>
      <trkpt lat="44.31848" lon="3.3512">
        <ele>614</ele>
        <time>2017-03-04T12:56:59Z</time>
      </trkpt>
      <trkpt lat="44.31859" lon="3.3511">
        <ele>610</ele>
        <time>2017-03-04T12:58:59Z</time>
      </trkpt>
      <trkpt lat="44.31869" lon="3.351">
        <ele>606</ele>
        <time>2017-03-04T13:00:59Z</time>
      </trkpt>
      <trkpt lat="44.31877" lon="3.3509">
        <ele>601</ele>
        <time>2017-03-04T13:02:59Z</time>
      </trkpt>
      <trkpt lat="44.31896" lon="3.35075">
        <ele>593</ele>
        <time>2017-03-04T13:04:59Z</time>
      </trkpt>
      <trkpt lat="44.31907" lon="3.3507">
        <ele>590</ele>
        <time>2017-03-04T13:06:59Z</time>
      </trkpt>
      <trkpt lat="44.3192" lon="3.35065">
        <ele>588</ele>
        <time>2017-03-04T13:08:59Z</time>
      </trkpt>
      <trkpt lat="44.31944" lon="3.3506">
        <ele>591</ele>
        <time>2017-03-04T13:10:59Z</time>
      </trkpt>
      <trkpt lat="44.31958" lon="3.35054">
        <ele>591</ele>
        <time>2017-03-04T13:12:59Z</time>
      </trkpt>
      <trkpt lat="44.31972" lon="3.35044">
        <ele>588</ele>
        <time>2017-03-04T13:14:59Z</time>
      </trkpt>
      <trkpt lat="44.31987" lon="3.3503">
        <ele>583</ele>
        <time>2017-03-04T13:16:59Z</time>
      </trkpt>
      <trkpt lat="44.31999" lon="3.35016">
        <ele>577</ele>
        <time>2017-03-04T13:18:59Z</time>
      </trkpt>
      <trkpt lat="44.32011" lon="3.35004">
        <ele>571</ele>
        <time>2017-03-04T13:20:59Z</time>
      </trkpt>
      <trkpt lat="44.32021" lon="3.34991">
        <ele>567</ele>
        <time>2017-03-04T13:22:59Z</time>
      </trkpt>
      <trkpt lat="44.32026" lon="3.34982">
        <ele>563</ele>
        <time>2017-03-04T13:24:59Z</time>
      </trkpt>
      <trkpt lat="44.3203" lon="3.34971">
        <ele>558</ele>
        <time>2017-03-04T13:26:59Z</time>
      </trkpt>
      <trkpt lat="44.32039" lon="3.34962">
        <ele>555</ele>
        <time>2017-03-04T13:28:59Z</time>
      </trkpt>
      <trkpt lat="44.32042" lon="3.34958">
        <ele>554</ele>
        <time>2017-03-04T13:30:59Z</time>
      </trkpt>
      <trkpt lat="44.32042" lon="3.34955">
        <ele>552</ele>
        <time>2017-03-04T13:32:59Z</time>
      </trkpt>
      <trkpt lat="44.32037" lon="3.34953">
        <ele>551</ele>
        <time>2017-03-04T13:34:59Z</time>
      </trkpt>
      <trkpt lat="44.32035" lon="3.34949">
        <ele>549</ele>
        <time>2017-03-04T13:36:59Z</time>
      </trkpt>
      <trkpt lat="44.32034" lon="3.34942">
        <ele>545</ele>
        <time>2017-03-04T13:38:59Z</time>
      </trkpt>
      <trkpt lat="44.32036" lon="3.34934">
        <ele>541</ele>
        <time>2017-03-04T13:40:59Z</time>
      </trkpt>
      <trkpt lat="44.32036" lon="3.34927">
        <ele>538</ele>
        <time>2017-03-04T13:42:59Z</time>
      </trkpt>
      <trkpt lat="44.32037" lon="3.34921">
        <ele>535</ele>
        <time>2017-03-04T13:44:59Z</time>
      </trkpt>
      <trkpt lat="44.32041" lon="3.34919">
        <ele>535</ele>
        <time>2017-03-04T13:46:59Z</time>
      </trkpt>
      <trkpt lat="44.32041" lon="3.34914">
        <ele>532</ele>
        <time>2017-03-04T13:48:59Z</time>
      </trkpt>
      <trkpt lat="44.3204" lon="3.34909">
        <ele>530</ele>
        <time>2017-03-04T13:50:59Z</time>
      </trkpt>
      <trkpt lat="44.32036" lon="3.34902">
        <ele>526</ele>
        <time>2017-03-04T13:52:59Z</time>
      </trkpt>
      <trkpt lat="44.32034" lon="3.34896">
        <ele>523</ele>
        <time>2017-03-04T13:54:59Z</time>
      </trkpt>
      <trkpt lat="44.32036" lon="3.34892">
        <ele>522</ele>
        <time>2017-03-04T13:56:59Z</time>
      </trkpt>
      <trkpt lat="44.32037" lon="3.34891">
        <ele>521</ele>
        <time>2017-03-04T13:58:59Z</time>
      </trkpt>
      <trkpt lat="44.3204" lon="3.34891">
        <ele>521</ele>
        <time>2017-03-04T14:00:59Z</time>
      </trkpt>
      <trkpt lat="44.32045" lon="3.34896">
        <ele>524</ele>
        <time>2017-03-04T14:02:59Z</time>
      </trkpt>
      <trkpt lat="44.32055" lon="3.34899">
        <ele>527</ele>
        <time>2017-03-04T14:04:59Z</time>
      </trkpt>
      <trkpt lat="44.32065" lon="3.34899">
        <ele>528</ele>
        <time>2017-03-04T14:06:59Z</time>
      </trkpt>
      <trkpt lat="44.32073" lon="3.34897">
        <ele>528</ele>
        <time>2017-03-04T14:08:59Z</time>
      </trkpt>
      <trkpt lat="44.32083" lon="3.34894">
        <ele>527</ele>
        <time>2017-03-04T14:10:59Z</time>
      </trkpt>
      <trkpt lat="44.3209" lon="3.34889">
        <ele>526</ele>
        <time>2017-03-04T14:12:59Z</time>
      </trkpt>
      <trkpt lat="44.32097" lon="3.34882">
        <ele>523</ele>
        <time>2017-03-04T14:14:59Z</time>
      </trkpt>
      <trkpt lat="44.32101" lon="3.34876">
        <ele>520</ele>
        <time>2017-03-04T14:16:59Z</time>
      </trkpt>
      <trkpt lat="44.32107" lon="3.3487">
        <ele>518</ele>
        <time>2017-03-04T14:18:59Z</time>
      </trkpt>
      <trkpt lat="44.32118" lon="3.34861">
        <ele>515</ele>
        <time>2017-03-04T14:20:59Z</time>
      </trkpt>
      <trkpt lat="44.32129" lon="3.34853">
        <ele>512</ele>
        <time>2017-03-04T14:22:59Z</time>
      </trkpt>
      <trkpt lat="44.32137" lon="3.34849">
        <ele>511</ele>
        <time>2017-03-04T14:24:59Z</time>
      </trkpt>
      <trkpt lat="44.32147" lon="3.34847">
        <ele>511</ele>
        <time>2017-03-04T14:26:59Z</time>
      </trkpt>
      <trkpt lat="44.32158" lon="3.34846">
        <ele>511</ele>
        <time>2017-03-04T14:28:59Z</time>
      </trkpt>
      <trkpt lat="44.32167" lon="3.34844">
        <ele>511</ele>
        <time>2017-03-04T14:30:59Z</time>
      </trkpt>
      <trkpt lat="44.3219" lon="3.34829">
        <ele>504</ele>
        <time>2017-03-04T14:32:59Z</time>
      </trkpt>
      <trkpt lat="44.32204" lon="3.34818">
        <ele>499</ele>
        <time>2017-03-04T14:34:59Z</time>
      </trkpt>
      <trkpt lat="44.32213" lon="3.3481">
        <ele>496</ele>
        <time>2017-03-04T14:36:59Z</time>
      </trkpt>
      <trkpt lat="44.32223" lon="3.34807">
        <ele>495</ele>
        <time>2017-03-04T14:38:59Z</time>
      </trkpt>
      <trkpt lat="44.32227" lon="3.34805">
        <ele>494</ele>
        <time>2017-03-04T14:40:59Z</time>
      </trkpt>
      <trkpt lat="44.32232" lon="3.34805">
        <ele>494</ele>
        <time>2017-03-04T14:42:59Z</time>
      </trkpt>
      <trkpt lat="44.32233" lon="3.34804">
        <ele>493</ele>
        <time>2017-03-04T14:44:59Z</time>
      </trkpt>
      <trkpt lat="44.32233" lon="3.34801">
        <ele>492</ele>
        <time>2017-03-04T14:46:59Z</time>
      </trkpt>
      <trkpt lat="44.32231" lon="3.348">
        <ele>492</ele>
        <time>2017-03-04T14:48:59Z</time>
      </trkpt>
      <trkpt lat="44.3223" lon="3.34799">
        <ele>491</ele>
        <time>2017-03-04T14:50:59Z</time>
      </trkpt>
      <trkpt lat="44.32226" lon="3.34799">
        <ele>491</ele>
        <time>2017-03-04T14:52:59Z</time>
      </trkpt>
      <trkpt lat="44.32223" lon="3.34796">
        <ele>490</ele>
        <time>2017-03-04T14:54:59Z</time>
      </trkpt>
      <trkpt lat="44.32223" lon="3.34793">
        <ele>488</ele>
        <time>2017-03-04T14:56:59Z</time>
      </trkpt>
      <trkpt lat="44.32224" lon="3.34792">
        <ele>488</ele>
        <time>2017-03-04T14:58:59Z</time>
      </trkpt>
      <trkpt lat="44.32228" lon="3.34792">
        <ele>488</ele>
        <time>2017-03-04T15:00:59Z</time>
      </trkpt>
      <trkpt lat="44.32229" lon="3.34791">
        <ele>487</ele>
        <time>2017-03-04T15:02:59Z</time>
      </trkpt>
      <trkpt lat="44.3223" lon="3.34789">
        <ele>487</ele>
        <time>2017-03-04T15:04:59Z</time>
      </trkpt>
      <trkpt lat="44.32229" lon="3.34787">
        <ele>486</ele>
        <time>2017-03-04T15:06:59Z</time>
      </trkpt>
      <trkpt lat="44.32228" lon="3.34786">
        <ele>485</ele>
        <time>2017-03-04T15:08:59Z</time>
      </trkpt>
      <trkpt lat="44.32227" lon="3.34786">
        <ele>485</ele>
        <time>2017-03-04T15:10:59Z</time>
      </trkpt>
      <trkpt lat="44.32224" lon="3.34785">
        <ele>485</ele>
        <time>2017-03-04T15:12:59Z</time>
      </trkpt>
      <trkpt lat="44.3222" lon="3.34783">
        <ele>484</ele>
        <time>2017-03-04T15:14:59Z</time>
      </trkpt>
      <trkpt lat="44.32219" lon="3.34781">
        <ele>483</ele>
        <time>2017-03-04T15:16:59Z</time>
      </trkpt>
      <trkpt lat="44.32218" lon="3.3478">
        <ele>482</ele>
        <time>2017-03-04T15:18:59Z</time>
      </trkpt>
      <trkpt lat="44.32218" lon="3.34777">
        <ele>481</ele>
        <time>2017-03-04T15:20:59Z</time>
      </trkpt>
      <trkpt lat="44.32219" lon="3.34776">
        <ele>480</ele>
        <time>2017-03-04T15:22:59Z</time>
      </trkpt>
      <trkpt lat="44.3222" lon="3.34774">
        <ele>480</ele>
        <time>2017-03-04T15:24:59Z</time>
      </trkpt>
      <trkpt lat="44.32224" lon="3.34772">
        <ele>479</ele>
        <time>2017-03-04T15:26:59Z</time>
      </trkpt>
      <trkpt lat="44.32228" lon="3.34769">
        <ele>477</ele>
        <time>2017-03-04T15:28:59Z</time>
      </trkpt>
      <trkpt lat="44.32218" lon="3.34764">
        <ele>475</ele>
        <time>2017-03-04T15:30:59Z</time>
      </trkpt>
      <trkpt lat="44.32209" lon="3.3476">
        <ele>473</ele>
        <time>2017-03-04T15:32:59Z</time>
      </trkpt>
      <trkpt lat="44.32202" lon="3.34759">
        <ele>473</ele>
        <time>2017-03-04T15:34:59Z</time>
      </trkpt>
      <trkpt lat="44.32194" lon="3.34759">
        <ele>472</ele>
        <time>2017-03-04T15:36:59Z</time>
      </trkpt>
      <trkpt lat="44.32173" lon="3.34762">
        <ele>474</ele>
        <time>2017-03-04T15:38:59Z</time>
      </trkpt>
      <trkpt lat="44.32161" lon="3.34762">
        <ele>473</ele>
        <time>2017-03-04T15:40:59Z</time>
      </trkpt>
      <trkpt lat="44.32148" lon="3.34759">
        <ele>470</ele>
        <time>2017-03-04T15:42:59Z</time>
      </trkpt>
      <trkpt lat="44.32136" lon="3.34759">
        <ele>469</ele>
        <time>2017-03-04T15:44:59Z</time>
      </trkpt>
      <trkpt lat="44.32126" lon="3.3476">
        <ele>468</ele>
        <time>2017-03-04T15:46:59Z</time>
      </trkpt>
      <trkpt lat="44.32116" lon="3.3476">
        <ele>467</ele>
        <time>2017-03-04T15:48:59Z</time>
      </trkpt>
      <trkpt lat="44.32111" lon="3.34759">
        <ele>466</ele>
        <time>2017-03-04T15:50:59Z</time>
      </trkpt>
      <trkpt lat="44.32102" lon="3.34755">
        <ele>463</ele>
        <time>2017-03-04T15:52:59Z</time>
      </trkpt>
      <trkpt lat="44.32094" lon="3.34755">
        <ele>463</ele>
        <time>2017-03-04T15:54:59Z</time>
      </trkpt>
      <trkpt lat="44.32082" lon="3.34756">
        <ele>462</ele>
        <time>2017-03-04T15:56:59Z</time>
      </trkpt>
      <trkpt lat="44.32075" lon="3.34758">
        <ele>463</ele>
        <time>2017-03-04T15:58:59Z</time>
      </trkpt>
      <trkpt lat="44.32069" lon="3.34759">
        <ele>463</ele>
        <time>2017-03-04T16:00:59Z</time>
      </trkpt>
      <trkpt lat="44.32053" lon="3.34757">
        <ele>462</ele>
        <time>2017-03-04T16:02:59Z</time>
      </trkpt>
      <trkpt lat="44.32048" lon="3.34759">
        <ele>463</ele>
        <time>2017-03-04T16:04:59Z</time>
      </trkpt>
      <trkpt lat="44.32036" lon="3.3476">
        <ele>463</ele>
        <time>2017-03-04T16:06:59Z</time>
      </trkpt>
      <trkpt lat="44.3203" lon="3.34761">
        <ele>464</ele>
        <time>2017-03-04T16:08:59Z</time>
      </trkpt>
      <trkpt lat="44.32021" lon="3.34761">
        <ele>463</ele>
        <time>2017-03-04T16:10:59Z</time>
      </trkpt>
      <trkpt lat="44.32009" lon="3.34759">
        <ele>463</ele>
        <time>2017-03-04T16:12:59Z</time>
      </trkpt>
      <trkpt lat="44.32001" lon="3.34755">
        <ele>461</ele>
        <time>2017-03-04T16:14:59Z</time>
      </trkpt>
      <trkpt lat="44.31998" lon="3.34751">
        <ele>459</ele>
        <time>2017-03-04T16:16:59Z</time>
      </trkpt>
      <trkpt lat="44.31995" lon="3.34748">
        <ele>459</ele>
        <time>2017-03-04T16:18:59Z</time>
      </trkpt>
      <trkpt lat="44.31992" lon="3.34746">
        <ele>458</ele>
        <time>2017-03-04T16:20:59Z</time>
      </trkpt>
      <trkpt lat="44.31984" lon="3.34745">
        <ele>458</ele>
        <time>2017-03-04T16:22:59Z</time>
      </trkpt>
      <trkpt lat="44.31967" lon="3.3474">
        <ele>457</ele>
        <time>2017-03-04T16:24:59Z</time>
      </trkpt>
      <trkpt lat="44.31949" lon="3.34733">
        <ele>456</ele>
        <time>2017-03-04T16:26:59Z</time>
      </trkpt>
      <trkpt lat="44.31937" lon="3.3473">
        <ele>456</ele>
        <time>2017-03-04T16:28:59Z</time>
      </trkpt>
      <trkpt lat="44.31933" lon="3.3473">
        <ele>456</ele>
        <time>2017-03-04T16:30:59Z</time>
      </trkpt>
      <trkpt lat="44.3193" lon="3.34733">
        <ele>456</ele>
        <time>2017-03-04T16:32:59Z</time>
      </trkpt>
      <trkpt lat="44.31928" lon="3.34733">
        <ele>456</ele>
        <time>2017-03-04T16:34:59Z</time>
      </trkpt>
      <trkpt lat="44.31927" lon="3.34735">
        <ele>456</ele>
        <time>2017-03-04T16:36:59Z</time>
      </trkpt>
      <trkpt lat="44.31926" lon="3.34741">
        <ele>456</ele>
        <time>2017-03-04T16:38:59Z</time>
      </trkpt>
      <trkpt lat="44.3192" lon="3.34744">
        <ele>456</ele>
        <time>2017-03-04T16:40:59Z</time>
      </trkpt>
      <trkpt lat="44.31919" lon="3.34744">
        <ele>456</ele>
        <time>2017-03-04T16:42:59Z</time>
      </trkpt>
      <trkpt lat="44.31915" lon="3.34745">
        <ele>456</ele>
        <time>2017-03-04T16:44:59Z</time>
      </trkpt>
      <trkpt lat="44.31911" lon="3.34748">
        <ele>456</ele>
        <time>2017-03-04T16:46:59Z</time>
      </trkpt>
      <trkpt lat="44.31902" lon="3.34757">
        <ele>458</ele>
        <time>2017-03-04T16:48:59Z</time>
      </trkpt>
      <trkpt lat="44.31886" lon="3.34763">
        <ele>460</ele>
        <time>2017-03-04T16:50:59Z</time>
      </trkpt>
      <trkpt lat="44.31877" lon="3.34766">
        <ele>462</ele>
        <time>2017-03-04T16:52:59Z</time>
      </trkpt>
      <trkpt lat="44.31864" lon="3.34768">
        <ele>462</ele>
        <time>2017-03-04T16:54:59Z</time>
      </trkpt>
      <trkpt lat="44.31848" lon="3.34768">
        <ele>463</ele>
        <time>2017-03-04T16:56:59Z</time>
      </trkpt>
      <trkpt lat="44.31834" lon="3.34769">
        <ele>463</ele>
        <time>2017-03-04T16:58:59Z</time>
      </trkpt>
      <trkpt lat="44.31826" lon="3.34772">
        <ele>465</ele>
        <time>2017-03-04T17:00:59Z</time>
      </trkpt>
      <trkpt lat="44.31814" lon="3.3478">
        <ele>470</ele>
        <time>2017-03-04T17:02:59Z</time>
      </trkpt>
      <trkpt lat="44.31806" lon="3.34782">
        <ele>472</ele>
        <time>2017-03-04T17:04:59Z</time>
      </trkpt>
      <trkpt lat="44.31799" lon="3.34782">
        <ele>473</ele>
        <time>2017-03-04T17:06:59Z</time>
      </trkpt>
      <trkpt lat="44.31776" lon="3.34776">
        <ele>473</ele>
        <time>2017-03-04T17:08:59Z</time>
      </trkpt>
      <trkpt lat="44.31769" lon="3.34772">
        <ele>472</ele>
        <time>2017-03-04T17:10:59Z</time>
      </trkpt>
      <trkpt lat="44.31766" lon="3.34766">
        <ele>470</ele>
        <time>2017-03-04T17:12:59Z</time>
      </trkpt>
      <trkpt lat="44.31763" lon="3.34762">
        <ele>468</ele>
        <time>2017-03-04T17:14:59Z</time>
      </trkpt>
      <trkpt lat="44.31759" lon="3.34758">
        <ele>467</ele>
        <time>2017-03-04T17:16:59Z</time>
      </trkpt>
      <trkpt lat="44.31756" lon="3.34758">
        <ele>467</ele>
        <time>2017-03-04T17:18:59Z</time>
      </trkpt>
      <trkpt lat="44.31751" lon="3.34757">
        <ele>467</ele>
        <time>2017-03-04T17:20:59Z</time>
      </trkpt>
      <trkpt lat="44.3174" lon="3.34752">
        <ele>469</ele>
        <time>2017-03-04T17:22:59Z</time>
      </trkpt>
      <trkpt lat="44.31732" lon="3.34752">
        <ele>473</ele>
        <time>2017-03-04T17:24:59Z</time>
      </trkpt>
      <trkpt lat="44.31723" lon="3.3475">
        <ele>476</ele>
        <time>2017-03-04T17:26:59Z</time>
      </trkpt>
      <trkpt lat="44.3172" lon="3.34749">
        <ele>477</ele>
        <time>2017-03-04T17:28:59Z</time>
      </trkpt>
      <trkpt lat="44.31717" lon="3.34752">
        <ele>479</ele>
        <time>2017-03-04T17:30:59Z</time>
      </trkpt>
      <trkpt lat="44.31716" lon="3.34754">
        <ele>481</ele>
        <time>2017-03-04T17:32:59Z</time>
      </trkpt>
      <trkpt lat="44.31708" lon="3.34756">
        <ele>485</ele>
        <time>2017-03-04T17:34:59Z</time>
      </trkpt>
      <trkpt lat="44.31703" lon="3.34758">
        <ele>488</ele>
        <time>2017-03-04T17:36:59Z</time>
      </trkpt>
      <trkpt lat="44.31698" lon="3.34761">
        <ele>491</ele>
        <time>2017-03-04T17:38:59Z</time>
      </trkpt>
      <trkpt lat="44.31692" lon="3.3477">
        <ele>498</ele>
        <time>2017-03-04T17:40:59Z</time>
      </trkpt>
      <trkpt lat="44.31689" lon="3.34772">
        <ele>500</ele>
        <time>2017-03-04T17:42:59Z</time>
      </trkpt>
      <trkpt lat="44.31688" lon="3.34772">
        <ele>500</ele>
        <time>2017-03-04T17:44:59Z</time>
      </trkpt>
      <trkpt lat="44.31685" lon="3.34769">
        <ele>500</ele>
        <time>2017-03-04T17:46:59Z</time>
      </trkpt>
      <trkpt lat="44.31676" lon="3.34742">
        <ele>493</ele>
        <time>2017-03-04T17:48:59Z</time>
      </trkpt>
      <trkpt lat="44.31685" lon="3.34738">
        <ele>489</ele>
        <time>2017-03-04T17:50:59Z</time>
      </trkpt>
      <trkpt lat="44.31701" lon="3.34736">
        <ele>482</ele>
        <time>2017-03-04T17:52:59Z</time>
      </trkpt>
      <trkpt lat="44.31704" lon="3.34734">
        <ele>480</ele>
        <time>2017-03-04T17:54:59Z</time>
      </trkpt>
      <trkpt lat="44.31704" lon="3.34726">
        <ele>478</ele>
        <time>2017-03-04T17:56:59Z</time>
      </trkpt>
      <trkpt lat="44.31703" lon="3.34712">
        <ele>475</ele>
        <time>2017-03-04T17:58:59Z</time>
      </trkpt>
      <trkpt lat="44.31696" lon="3.34704">
        <ele>475</ele>
        <time>2017-03-04T18:00:59Z</time>
      </trkpt>
      <trkpt lat="44.31686" lon="3.34686">
        <ele>473</ele>
        <time>2017-03-04T18:02:59Z</time>
      </trkpt>
      <trkpt lat="44.31679" lon="3.34674">
        <ele>471</ele>
        <time>2017-03-04T18:04:59Z</time>
      </trkpt>
      <trkpt lat="44.31673" lon="3.34656">
        <ele>469</ele>
        <time>2017-03-04T18:06:59Z</time>
      </trkpt>
      <trkpt lat="44.31671" lon="3.34638">
        <ele>466</ele>
        <time>2017-03-04T18:08:59Z</time>
      </trkpt>
      <trkpt lat="44.31666" lon="3.34632">
        <ele>467</ele>
        <time>2017-03-04T18:10:59Z</time>
      </trkpt>
      <trkpt lat="44.31658" lon="3.34624">
        <ele>469</ele>
        <time>2017-03-04T18:12:59Z</time>
      </trkpt>
      <trkpt lat="44.31649" lon="3.34606">
        <ele>471</ele>
        <time>2017-03-04T18:14:59Z</time>
      </trkpt>
      <trkpt lat="44.3164" lon="3.34591">
        <ele>472</ele>
        <time>2017-03-04T18:16:59Z</time>
      </trkpt>
      <trkpt lat="44.31629" lon="3.34574">
        <ele>475</ele>
        <time>2017-03-04T18:18:59Z</time>
      </trkpt>
      <trkpt lat="44.31617" lon="3.34544">
        <ele>475</ele>
        <time>2017-03-04T18:20:59Z</time>
      </trkpt>
      <trkpt lat="44.31608" lon="3.34506">
        <ele>472</ele>
        <time>2017-03-04T18:22:59Z</time>
      </trkpt>
      <trkpt lat="44.31602" lon="3.34482">
        <ele>471</ele>
        <time>2017-03-04T18:24:59Z</time>
      </trkpt>
      <trkpt lat="44.31599" lon="3.34457">
        <ele>469</ele>
        <time>2017-03-04T18:26:59Z</time>
      </trkpt>
      <trkpt lat="44.31597" lon="3.34426">
        <ele>467</ele>
        <time>2017-03-04T18:28:59Z</time>
      </trkpt>
      <trkpt lat="44.31597" lon="3.34394">
        <ele>465</ele>
        <time>2017-03-04T18:30:59Z</time>
      </trkpt>
      <trkpt lat="44.31593" lon="3.34377">
        <ele>465</ele>
        <time>2017-03-04T18:32:59Z</time>
      </trkpt>
      <trkpt lat="44.31586" lon="3.34352">
        <ele>465</ele>
        <time>2017-03-04T18:34:59Z</time>
      </trkpt>
      <trkpt lat="44.31574" lon="3.34305">
        <ele>470</ele>
        <time>2017-03-04T18:36:59Z</time>
      </trkpt>
      <trkpt lat="44.31567" lon="3.34274">
        <ele>472</ele>
        <time>2017-03-04T18:38:59Z</time>
      </trkpt>
      <trkpt lat="44.31565" lon="3.34244">
        <ele>470</ele>
        <time>2017-03-04T18:40:59Z</time>
      </trkpt>
      <trkpt lat="44.31566" lon="3.34217">
        <ele>466</ele>
        <time>2017-03-04T18:42:59Z</time>
      </trkpt>
      <trkpt lat="44.31565" lon="3.34198">
        <ele>464</ele>
        <time>2017-03-04T18:44:59Z</time>
      </trkpt>
      <trkpt lat="44.31562" lon="3.3418">
        <ele>463</ele>
        <time>2017-03-04T18:46:59Z</time>
      </trkpt>
      <trkpt lat="44.31557" lon="3.34155">
        <ele>463</ele>
        <time>2017-03-04T18:48:59Z</time>
      </trkpt>
      <trkpt lat="44.31548" lon="3.34124">
        <ele>462</ele>
        <time>2017-03-04T18:50:59Z</time>
      </trkpt>
      <trkpt lat="44.31536" lon="3.34087">
        <ele>459</ele>
        <time>2017-03-04T18:52:59Z</time>
      </trkpt>
      <trkpt lat="44.31524" lon="3.34057">
        <ele>458</ele>
        <time>2017-03-04T18:54:59Z</time>
      </trkpt>
      <trkpt lat="44.31513" lon="3.34034">
        <ele>456</ele>
        <time>2017-03-04T18:56:59Z</time>
      </trkpt>
      <trkpt lat="44.31495" lon="3.34006">
        <ele>455</ele>
        <time>2017-03-04T18:58:59Z</time>
      </trkpt>
      <trkpt lat="44.31475" lon="3.33978">
        <ele>458</ele>
        <time>2017-03-04T19:00:59Z</time>
      </trkpt>
      <trkpt lat="44.31456" lon="3.33957">
        <ele>460</ele>
        <time>2017-03-04T19:02:59Z</time>
      </trkpt>
      <trkpt lat="44.31439" lon="3.3394">
        <ele>459</ele>
        <time>2017-03-04T19:04:59Z</time>
      </trkpt>
      <trkpt lat="44.31403" lon="3.33905">
        <ele>459</ele>
        <time>2017-03-04T19:06:59Z</time>
      </trkpt>
      <trkpt lat="44.31321" lon="3.33847">
        <ele>465</ele>
        <time>2017-03-04T19:08:59Z</time>
      </trkpt>
      <trkpt lat="44.31226" lon="3.33767">
        <ele>468</ele>
        <time>2017-03-04T19:10:59Z</time>
      </trkpt>
      <trkpt lat="44.31182" lon="3.33722">
        <ele>474</ele>
        <time>2017-03-04T19:12:59Z</time>
      </trkpt>
      <trkpt lat="44.31135" lon="3.33651">
        <ele>472</ele>
        <time>2017-03-04T19:14:59Z</time>
      </trkpt>
      <trkpt lat="44.31096" lon="3.33578">
        <ele>471</ele>
        <time>2017-03-04T19:16:59Z</time>
      </trkpt>
      <trkpt lat="44.31065" lon="3.33516">
        <ele>468</ele>
        <time>2017-03-04T19:18:59Z</time>
      </trkpt>
      <trkpt lat="44.31027" lon="3.33425">
        <ele>463</ele>
        <time>2017-03-04T19:20:59Z</time>
      </trkpt>
      <trkpt lat="44.31006" lon="3.33376">
        <ele>458</ele>
        <time>2017-03-04T19:22:59Z</time>
      </trkpt>
      <trkpt lat="44.30986" lon="3.33334">
        <ele>454</ele>
        <time>2017-03-04T19:24:59Z</time>
      </trkpt>
      <trkpt lat="44.30962" lon="3.33293">
        <ele>459</ele>
        <time>2017-03-04T19:26:59Z</time>
      </trkpt>
      <trkpt lat="44.30944" lon="3.33265">
        <ele>457</ele>
        <time>2017-03-04T19:28:59Z</time>
      </trkpt>
      <trkpt lat="44.30923" lon="3.3324">
        <ele>455</ele>
        <time>2017-03-04T19:30:59Z</time>
      </trkpt>
      <trkpt lat="44.30903" lon="3.33217">
        <ele>456</ele>
        <time>2017-03-04T19:32:59Z</time>
      </trkpt>
      <trkpt lat="44.30854" lon="3.33175">
        <ele>454</ele>
        <time>2017-03-04T19:34:59Z</time>
      </trkpt>
      <trkpt lat="44.30794" lon="3.33138">
        <ele>458</ele>
        <time>2017-03-04T19:36:59Z</time>
      </trkpt>
      <trkpt lat="44.30748" lon="3.33111">
        <ele>458</ele>
        <time>2017-03-04T19:38:59Z</time>
      </trkpt>
      <trkpt lat="44.3071" lon="3.33094">
        <ele>466</ele>
        <time>2017-03-04T19:40:59Z</time>
      </trkpt>
      <trkpt lat="44.30675" lon="3.33066">
        <ele>467</ele>
        <time>2017-03-04T19:42:59Z</time>
      </trkpt>
      <trkpt lat="44.30646" lon="3.33041">
        <ele>472</ele>
        <time>2017-03-04T19:44:59Z</time>
      </trkpt>
      <trkpt lat="44.30638" lon="3.33033">
        <ele>473</ele>
        <time>2017-03-04T19:46:59Z</time>
      </trkpt>
      <trkpt lat="44.30631" lon="3.33019">
        <ele>471</ele>
        <time>2017-03-04T19:48:59Z</time>
      </trkpt>
      <trkpt lat="44.30592" lon="3.3296">
        <ele>465</ele>
        <time>2017-03-04T19:50:59Z</time>
      </trkpt>
      <trkpt lat="44.30528" lon="3.32876">
        <ele>470</ele>
        <time>2017-03-04T19:52:59Z</time>
      </trkpt>
      <trkpt lat="44.30512" lon="3.32856">
        <ele>466</ele>
        <time>2017-03-04T19:54:59Z</time>
      </trkpt>
      <trkpt lat="44.30492" lon="3.32827">
        <ele>460</ele>
        <time>2017-03-04T19:56:59Z</time>
      </trkpt>
      <trkpt lat="44.30445" lon="3.32761">
        <ele>460</ele>
        <time>2017-03-04T19:58:59Z</time>
      </trkpt>
      <trkpt lat="44.30424" lon="3.32729">
        <ele>455</ele>
        <time>2017-03-04T20:00:59Z</time>
      </trkpt>
      <trkpt lat="44.30412" lon="3.327">
        <ele>453</ele>
        <time>2017-03-04T20:02:59Z</time>
      </trkpt>
      <trkpt lat="44.30401" lon="3.32676">
        <ele>453</ele>
        <time>2017-03-04T20:04:59Z</time>
      </trkpt>
      <trkpt lat="44.30368" lon="3.32628">
        <ele>458</ele>
        <time>2017-03-04T20:06:59Z</time>
      </trkpt>
      <trkpt lat="44.30343" lon="3.32593">
        <ele>456</ele>
        <time>2017-03-04T20:08:59Z</time>
      </trkpt>
      <trkpt lat="44.30301" lon="3.3253">
        <ele>460</ele>
        <time>2017-03-04T20:10:59Z</time>
      </trkpt>
      <trkpt lat="44.30284" lon="3.32505">
        <ele>458</ele>
        <time>2017-03-04T20:12:59Z</time>
      </trkpt>
      <trkpt lat="44.30274" lon="3.32493">
        <ele>457</ele>
        <time>2017-03-04T20:14:59Z</time>
      </trkpt>
      <trkpt lat="44.30268" lon="3.32485">
        <ele>457</ele>
        <time>2017-03-04T20:16:59Z</time>
      </trkpt>
      <trkpt lat="44.30244" lon="3.32459">
        <ele>455</ele>
        <time>2017-03-04T20:18:59Z</time>
      </trkpt>
      <trkpt lat="44.30233" lon="3.32446">
        <ele>456</ele>
        <time>2017-03-04T20:20:59Z</time>
      </trkpt>
      <trkpt lat="44.30224" lon="3.32436">
        <ele>457</ele>
        <time>2017-03-04T20:22:59Z</time>
      </trkpt>
      <trkpt lat="44.30212" lon="3.32424">
        <ele>456</ele>
        <time>2017-03-04T20:24:59Z</time>
      </trkpt>
      <trkpt lat="44.30204" lon="3.32415">
        <ele>455</ele>
        <time>2017-03-04T20:26:59Z</time>
      </trkpt>
      <trkpt lat="44.30195" lon="3.32403">
        <ele>456</ele>
        <time>2017-03-04T20:28:59Z</time>
      </trkpt>
      <trkpt lat="44.30185" lon="3.32388">
        <ele>456</ele>
        <time>2017-03-04T20:30:59Z</time>
      </trkpt>
      <trkpt lat="44.30176" lon="3.32376">
        <ele>454</ele>
        <time>2017-03-04T20:32:59Z</time>
      </trkpt>
      <trkpt lat="44.30161" lon="3.32358">
        <ele>454</ele>
        <time>2017-03-04T20:34:59Z</time>
      </trkpt>
      <trkpt lat="44.3006" lon="3.32205">
        <ele>462</ele>
        <time>2017-03-04T20:36:59Z</time>
      </trkpt>
      <trkpt lat="44.30056" lon="3.32198">
        <ele>463</ele>
        <time>2017-03-04T20:38:59Z</time>
      </trkpt>
      <trkpt lat="44.30052" lon="3.32193">
        <ele>465</ele>
        <time>2017-03-04T20:40:59Z</time>
      </trkpt>
      <trkpt lat="44.30048" lon="3.32189">
        <ele>467</ele>
        <time>2017-03-04T20:42:59Z</time>
      </trkpt>
      <trkpt lat="44.30038" lon="3.32181">
        <ele>471</ele>
        <time>2017-03-04T20:44:59Z</time>
      </trkpt>
      <trkpt lat="44.30043" lon="3.32193">
        <ele>470</ele>
        <time>2017-03-04T20:46:59Z</time>
      </trkpt>
      <trkpt lat="44.30061" lon="3.32238">
        <ele>466</ele>
        <time>2017-03-04T20:48:59Z</time>
      </trkpt>
      <trkpt lat="44.3007" lon="3.32258">
        <ele>463</ele>
        <time>2017-03-04T20:50:59Z</time>
      </trkpt>
      <trkpt lat="44.30075" lon="3.32272">
        <ele>464</ele>
        <time>2017-03-04T20:52:59Z</time>
      </trkpt>
      <trkpt lat="44.30079" lon="3.32282">
        <ele>464</ele>
        <time>2017-03-04T20:54:59Z</time>
      </trkpt>
      <trkpt lat="44.30083" lon="3.32297">
        <ele>466</ele>
        <time>2017-03-04T20:56:59Z</time>
      </trkpt>
      <trkpt lat="44.30085" lon="3.32307">
        <ele>468</ele>
        <time>2017-03-04T20:58:59Z</time>
      </trkpt>
      <trkpt lat="44.30087" lon="3.32321">
        <ele>472</ele>
        <time>2017-03-04T21:00:59Z</time>
      </trkpt>
      <trkpt lat="44.3009" lon="3.32332">
        <ele>474</ele>
        <time>2017-03-04T21:02:59Z</time>
      </trkpt>
      <trkpt lat="44.30091" lon="3.32338">
        <ele>476</ele>
        <time>2017-03-04T21:04:59Z</time>
      </trkpt>
      <trkpt lat="44.30091" lon="3.32341">
        <ele>477</ele>
        <time>2017-03-04T21:06:59Z</time>
      </trkpt>
      <trkpt lat="44.30089" lon="3.32345">
        <ele>480</ele>
        <time>2017-03-04T21:08:59Z</time>
      </trkpt>
      <trkpt lat="44.30086" lon="3.32345">
        <ele>481</ele>
        <time>2017-03-04T21:10:59Z</time>
      </trkpt>
      <trkpt lat="44.30084" lon="3.32343">
        <ele>481</ele>
        <time>2017-03-04T21:12:59Z</time>
      </trkpt>
      <trkpt lat="44.30083" lon="3.32341">
        <ele>480</ele>
        <time>2017-03-04T21:14:59Z</time>
      </trkpt>
      <trkpt lat="44.3008" lon="3.3233">
        <ele>478</ele>
        <time>2017-03-04T21:16:59Z</time>
      </trkpt>
      <trkpt lat="44.30079" lon="3.32324">
        <ele>476</ele>
        <time>2017-03-04T21:18:59Z</time>
      </trkpt>
      <trkpt lat="44.30077" lon="3.32317">
        <ele>475</ele>
        <time>2017-03-04T21:20:59Z</time>
      </trkpt>
      <trkpt lat="44.3007" lon="3.32297">
        <ele>474</ele>
        <time>2017-03-04T21:22:59Z</time>
      </trkpt>
      <trkpt lat="44.30059" lon="3.32272">
        <ele>475</ele>
        <time>2017-03-04T21:24:59Z</time>
      </trkpt>
      <trkpt lat="44.30049" lon="3.32248">
        <ele>477</ele>
        <time>2017-03-04T21:26:59Z</time>
      </trkpt>
      <trkpt lat="44.30041" lon="3.3223">
        <ele>479</ele>
        <time>2017-03-04T21:28:59Z</time>
      </trkpt>
      <trkpt lat="44.30039" lon="3.32227">
        <ele>480</ele>
        <time>2017-03-04T21:30:59Z</time>
      </trkpt>
      <trkpt lat="44.30038" lon="3.32226">
        <ele>480</ele>
        <time>2017-03-04T21:32:59Z</time>
      </trkpt>
      <trkpt lat="44.30036" lon="3.32225">
        <ele>481</ele>
        <time>2017-03-04T21:34:59Z</time>
      </trkpt>
      <trkpt lat="44.30034" lon="3.32227">
        <ele>483</ele>
        <time>2017-03-04T21:36:59Z</time>
      </trkpt>
      <trkpt lat="44.30033" lon="3.32231">
        <ele>485</ele>
        <time>2017-03-04T21:38:59Z</time>
      </trkpt>
      <trkpt lat="44.30033" lon="3.32235">
        <ele>486</ele>
        <time>2017-03-04T21:40:59Z</time>
      </trkpt>
      <trkpt lat="44.30034" lon="3.32238">
        <ele>486</ele>
        <time>2017-03-04T21:42:59Z</time>
      </trkpt>
      <trkpt lat="44.30036" lon="3.32242">
        <ele>485</ele>
        <time>2017-03-04T21:44:59Z</time>
      </trkpt>
      <trkpt lat="44.3004" lon="3.32253">
        <ele>484</ele>
        <time>2017-03-04T21:46:59Z</time>
      </trkpt>
      <trkpt lat="44.30043" lon="3.3226">
        <ele>483</ele>
        <time>2017-03-04T21:48:59Z</time>
      </trkpt>
      <trkpt lat="44.30045" lon="3.32267">
        <ele>483</ele>
        <time>2017-03-04T21:50:59Z</time>
      </trkpt>
      <trkpt lat="44.30052" lon="3.32285">
        <ele>482</ele>
        <time>2017-03-04T21:52:59Z</time>
      </trkpt>
      <trkpt lat="44.30054" lon="3.32297">
        <ele>484</ele>
        <time>2017-03-04T21:54:59Z</time>
      </trkpt>
      <trkpt lat="44.30053" lon="3.32305">
        <ele>486</ele>
        <time>2017-03-04T21:56:59Z</time>
      </trkpt>
      <trkpt lat="44.30049" lon="3.32324">
        <ele>492</ele>
        <time>2017-03-04T21:58:59Z</time>
      </trkpt>
      <trkpt lat="44.30049" lon="3.32331">
        <ele>494</ele>
        <time>2017-03-04T22:00:59Z</time>
      </trkpt>
      <trkpt lat="44.3005" lon="3.3234">
        <ele>496</ele>
        <time>2017-03-04T22:02:59Z</time>
      </trkpt>
      <trkpt lat="44.30052" lon="3.32349">
        <ele>498</ele>
        <time>2017-03-04T22:04:59Z</time>
      </trkpt>
      <trkpt lat="44.30054" lon="3.32362">
        <ele>501</ele>
        <time>2017-03-04T22:06:59Z</time>
      </trkpt>
      <trkpt lat="44.30053" lon="3.32365">
        <ele>502</ele>
        <time>2017-03-04T22:08:59Z</time>
      </trkpt>
      <trkpt lat="44.30052" lon="3.32367">
        <ele>503</ele>
        <time>2017-03-04T22:10:59Z</time>
      </trkpt>
      <trkpt lat="44.3005" lon="3.32369">
        <ele>505</ele>
        <time>2017-03-04T22:12:59Z</time>
      </trkpt>
      <trkpt lat="44.30048" lon="3.32369">
        <ele>505</ele>
        <time>2017-03-04T22:14:59Z</time>
      </trkpt>
      <trkpt lat="44.30046" lon="3.32368">
        <ele>506</ele>
        <time>2017-03-04T22:16:59Z</time>
      </trkpt>
      <trkpt lat="44.30045" lon="3.32367">
        <ele>506</ele>
        <time>2017-03-04T22:18:59Z</time>
      </trkpt>
      <trkpt lat="44.30044" lon="3.32364">
        <ele>506</ele>
        <time>2017-03-04T22:20:59Z</time>
      </trkpt>
      <trkpt lat="44.3004" lon="3.32356">
        <ele>505</ele>
        <time>2017-03-04T22:22:59Z</time>
      </trkpt>
      <trkpt lat="44.3004" lon="3.32351">
        <ele>504</ele>
        <time>2017-03-04T22:24:59Z</time>
      </trkpt>
      <trkpt lat="44.30039" lon="3.32348">
        <ele>503</ele>
        <time>2017-03-04T22:26:59Z</time>
      </trkpt>
      <trkpt lat="44.30039" lon="3.32334">
        <ele>500</ele>
        <time>2017-03-04T22:28:59Z</time>
      </trkpt>
      <trkpt lat="44.30041" lon="3.32321">
        <ele>496</ele>
        <time>2017-03-04T22:30:59Z</time>
      </trkpt>
      <trkpt lat="44.30042" lon="3.32316">
        <ele>495</ele>
        <time>2017-03-04T22:32:59Z</time>
      </trkpt>
      <trkpt lat="44.30042" lon="3.3231">
        <ele>493</ele>
        <time>2017-03-04T22:34:59Z</time>
      </trkpt>
      <trkpt lat="44.30039" lon="3.32307">
        <ele>495</ele>
        <time>2017-03-04T22:36:59Z</time>
      </trkpt>
      <trkpt lat="44.30038" lon="3.32307">
        <ele>495</ele>
        <time>2017-03-04T22:38:59Z</time>
      </trkpt>
      <trkpt lat="44.30035" lon="3.3231">
        <ele>497</ele>
        <time>2017-03-04T22:40:59Z</time>
      </trkpt>
      <trkpt lat="44.30035" lon="3.32313">
        <ele>498</ele>
        <time>2017-03-04T22:42:59Z</time>
      </trkpt>
      <trkpt lat="44.30034" lon="3.32321">
        <ele>500</ele>
        <time>2017-03-04T22:44:59Z</time>
      </trkpt>
      <trkpt lat="44.3003" lon="3.32347">
        <ele>507</ele>
        <time>2017-03-04T22:46:59Z</time>
      </trkpt>
      <trkpt lat="44.3003" lon="3.32359">
        <ele>510</ele>
        <time>2017-03-04T22:48:59Z</time>
      </trkpt>
      <trkpt lat="44.30031" lon="3.32366">
        <ele>511</ele>
        <time>2017-03-04T22:50:59Z</time>
      </trkpt>
      <trkpt lat="44.30032" lon="3.32371">
        <ele>512</ele>
        <time>2017-03-04T22:52:59Z</time>
      </trkpt>
      <trkpt lat="44.30033" lon="3.32374">
        <ele>512</ele>
        <time>2017-03-04T22:54:59Z</time>
      </trkpt>
      <trkpt lat="44.30035" lon="3.32378">
        <ele>513</ele>
        <time>2017-03-04T22:56:59Z</time>
      </trkpt>
      <trkpt lat="44.30037" lon="3.32381">
        <ele>513</ele>
        <time>2017-03-04T22:58:59Z</time>
      </trkpt>
      <trkpt lat="44.3004" lon="3.32384">
        <ele>513</ele>
        <time>2017-03-04T23:00:59Z</time>
      </trkpt>
      <trkpt lat="44.30042" lon="3.32387">
        <ele>513</ele>
        <time>2017-03-04T23:02:59Z</time>
      </trkpt>
      <trkpt lat="44.30044" lon="3.32388">
        <ele>512</ele>
        <time>2017-03-04T23:04:59Z</time>
      </trkpt>
      <trkpt lat="44.30045" lon="3.32389">
        <ele>512</ele>
        <time>2017-03-04T23:06:59Z</time>
      </trkpt>
      <trkpt lat="44.3005" lon="3.32389">
        <ele>511</ele>
        <time>2017-03-04T23:08:59Z</time>
      </trkpt>
      <trkpt lat="44.30054" lon="3.3239">
        <ele>510</ele>
        <time>2017-03-04T23:10:59Z</time>
      </trkpt>
      <trkpt lat="44.30058" lon="3.32389">
        <ele>509</ele>
        <time>2017-03-04T23:12:59Z</time>
      </trkpt>
      <trkpt lat="44.30067" lon="3.32391">
        <ele>507</ele>
        <time>2017-03-04T23:14:59Z</time>
      </trkpt>
      <trkpt lat="44.30076" lon="3.32394">
        <ele>505</ele>
        <time>2017-03-04T23:16:59Z</time>
      </trkpt>
      <trkpt lat="44.30083" lon="3.32397">
        <ele>505</ele>
        <time>2017-03-04T23:18:59Z</time>
      </trkpt>
      <trkpt lat="44.30093" lon="3.324">
        <ele>501</ele>
        <time>2017-03-04T23:20:59Z</time>
      </trkpt>
      <trkpt lat="44.30094" lon="3.32401">
        <ele>500</ele>
        <time>2017-03-04T23:22:59Z</time>
      </trkpt>
      <trkpt lat="44.30096" lon="3.32405">
        <ele>501</ele>
        <time>2017-03-04T23:24:59Z</time>
      </trkpt>
      <trkpt lat="44.30094" lon="3.32409">
        <ele>504</ele>
        <time>2017-03-04T23:26:59Z</time>
      </trkpt>
      <trkpt lat="44.30093" lon="3.3241">
        <ele>505</ele>
        <time>2017-03-04T23:28:59Z</time>
      </trkpt>
      <trkpt lat="44.3009" lon="3.3241">
        <ele>506</ele>
        <time>2017-03-04T23:30:59Z</time>
      </trkpt>
      <trkpt lat="44.30074" lon="3.32404">
        <ele>510</ele>
        <time>2017-03-04T23:32:59Z</time>
      </trkpt>
      <trkpt lat="44.30072" lon="3.32403">
        <ele>510</ele>
        <time>2017-03-04T23:34:59Z</time>
      </trkpt>
      <trkpt lat="44.30063" lon="3.32403">
        <ele>512</ele>
        <time>2017-03-04T23:36:59Z</time>
      </trkpt>
      <trkpt lat="44.30053" lon="3.32405">
        <ele>515</ele>
        <time>2017-03-04T23:38:59Z</time>
      </trkpt>
      <trkpt lat="44.30047" lon="3.32408">
        <ele>517</ele>
        <time>2017-03-04T23:40:59Z</time>
      </trkpt>
      <trkpt lat="44.30044" lon="3.3241">
        <ele>519</ele>
        <time>2017-03-04T23:42:59Z</time>
      </trkpt>
      <trkpt lat="44.30036" lon="3.32414">
        <ele>521</ele>
        <time>2017-03-04T23:44:59Z</time>
      </trkpt>
      <trkpt lat="44.30027" lon="3.32416">
        <ele>524</ele>
        <time>2017-03-04T23:46:59Z</time>
      </trkpt>
      <trkpt lat="44.30018" lon="3.32416">
        <ele>525</ele>
        <time>2017-03-04T23:48:59Z</time>
      </trkpt>
      <trkpt lat="44.30012" lon="3.32415">
        <ele>526</ele>
        <time>2017-03-04T23:50:59Z</time>
      </trkpt>
      <trkpt lat="44.30007" lon="3.32413">
        <ele>527</ele>
        <time>2017-03-04T23:52:59Z</time>
      </trkpt>
      <trkpt lat="44.30003" lon="3.3241">
        <ele>528</ele>
        <time>2017-03-04T23:54:59Z</time>
      </trkpt>
      <trkpt lat="44.29993" lon="3.32404">
        <ele>530</ele>
        <time>2017-03-04T23:56:59Z</time>
      </trkpt>
      <trkpt lat="44.29988" lon="3.32399">
        <ele>531</ele>
        <time>2017-03-04T23:58:59Z</time>
      </trkpt>
      <trkpt lat="44.29985" lon="3.32395">
        <ele>532</ele>
        <time>2017-03-05T00:00:59Z</time>
      </trkpt>
      <trkpt lat="44.2998" lon="3.32386">
        <ele>533</ele>
        <time>2017-03-05T00:02:59Z</time>
      </trkpt>
      <trkpt lat="44.29975" lon="3.32374">
        <ele>535</ele>
        <time>2017-03-05T00:04:59Z</time>
      </trkpt>
      <trkpt lat="44.29975" lon="3.3237">
        <ele>534</ele>
        <time>2017-03-05T00:06:59Z</time>
      </trkpt>
      <trkpt lat="44.29974" lon="3.32365">
        <ele>534</ele>
        <time>2017-03-05T00:08:59Z</time>
      </trkpt>
      <trkpt lat="44.29974" lon="3.32358">
        <ele>534</ele>
        <time>2017-03-05T00:10:59Z</time>
      </trkpt>
      <trkpt lat="44.29977" lon="3.32344">
        <ele>532</ele>
        <time>2017-03-05T00:12:59Z</time>
      </trkpt>
      <trkpt lat="44.2998" lon="3.32338">
        <ele>530</ele>
        <time>2017-03-05T00:14:59Z</time>
      </trkpt>
      <trkpt lat="44.29983" lon="3.32333">
        <ele>528</ele>
        <time>2017-03-05T00:16:59Z</time>
      </trkpt>
      <trkpt lat="44.29989" lon="3.32325">
        <ele>524</ele>
        <time>2017-03-05T00:18:59Z</time>
      </trkpt>
      <trkpt lat="44.29998" lon="3.32312">
        <ele>519</ele>
        <time>2017-03-05T00:20:59Z</time>
      </trkpt>
      <trkpt lat="44.29999" lon="3.3231">
        <ele>518</ele>
        <time>2017-03-05T00:22:59Z</time>
      </trkpt>
      <trkpt lat="44.3" lon="3.32307">
        <ele>517</ele>
        <time>2017-03-05T00:24:59Z</time>
      </trkpt>
      <trkpt lat="44.3" lon="3.32301">
        <ele>517</ele>
        <time>2017-03-05T00:26:59Z</time>
      </trkpt>
      <trkpt lat="44.29996" lon="3.32297">
        <ele>519</ele>
        <time>2017-03-05T00:28:59Z</time>
      </trkpt>
      <trkpt lat="44.29993" lon="3.32298">
        <ele>521</ele>
        <time>2017-03-05T00:30:59Z</time>
      </trkpt>
      <trkpt lat="44.29991" lon="3.323">
        <ele>522</ele>
        <time>2017-03-05T00:32:59Z</time>
      </trkpt>
      <trkpt lat="44.29988" lon="3.32307">
        <ele>524</ele>
        <time>2017-03-05T00:34:59Z</time>
      </trkpt>
      <trkpt lat="44.2998" lon="3.32319">
        <ele>529</ele>
        <time>2017-03-05T00:36:59Z</time>
      </trkpt>
      <trkpt lat="44.29967" lon="3.32334">
        <ele>536</ele>
        <time>2017-03-05T00:38:59Z</time>
      </trkpt>
      <trkpt lat="44.29953" lon="3.32351">
        <ele>544</ele>
        <time>2017-03-05T00:40:59Z</time>
      </trkpt>
      <trkpt lat="44.2995" lon="3.32355">
        <ele>545</ele>
        <time>2017-03-05T00:42:59Z</time>
      </trkpt>
      <trkpt lat="44.29946" lon="3.32364">
        <ele>547</ele>
        <time>2017-03-05T00:44:59Z</time>
      </trkpt>
      <trkpt lat="44.29943" lon="3.32373">
        <ele>548</ele>
        <time>2017-03-05T00:46:59Z</time>
      </trkpt>
      <trkpt lat="44.29941" lon="3.32391">
        <ele>549</ele>
        <time>2017-03-05T00:48:59Z</time>
      </trkpt>
      <trkpt lat="44.29942" lon="3.324">
        <ele>549</ele>
        <time>2017-03-05T00:50:59Z</time>
      </trkpt>
      <trkpt lat="44.29942" lon="3.32406">
        <ele>549</ele>
        <time>2017-03-05T00:52:59Z</time>
      </trkpt>
      <trkpt lat="44.29943" lon="3.32412">
        <ele>548</ele>
        <time>2017-03-05T00:54:59Z</time>
      </trkpt>
      <trkpt lat="44.29949" lon="3.32429">
        <ele>550</ele>
        <time>2017-03-05T00:56:59Z</time>
      </trkpt>
      <trkpt lat="44.29954" lon="3.32437">
        <ele>551</ele>
        <time>2017-03-05T00:58:59Z</time>
      </trkpt>
      <trkpt lat="44.29961" lon="3.32444">
        <ele>552</ele>
        <time>2017-03-05T01:00:59Z</time>
      </trkpt>
      <trkpt lat="44.29966" lon="3.32447">
        <ele>551</ele>
        <time>2017-03-05T01:02:59Z</time>
      </trkpt>
      <trkpt lat="44.29971" lon="3.32449">
        <ele>551</ele>
        <time>2017-03-05T01:04:59Z</time>
      </trkpt>
      <trkpt lat="44.29987" lon="3.32449">
        <ele>546</ele>
        <time>2017-03-05T01:06:59Z</time>
      </trkpt>
      <trkpt lat="44.29993" lon="3.3245">
        <ele>545</ele>
        <time>2017-03-05T01:08:59Z</time>
      </trkpt>
      <trkpt lat="44.29998" lon="3.32452">
        <ele>545</ele>
        <time>2017-03-05T01:10:59Z</time>
      </trkpt>
      <trkpt lat="44.30004" lon="3.32455">
        <ele>545</ele>
        <time>2017-03-05T01:12:59Z</time>
      </trkpt>
      <trkpt lat="44.30021" lon="3.32465">
        <ele>546</ele>
        <time>2017-03-05T01:14:59Z</time>
      </trkpt>
      <trkpt lat="44.3003" lon="3.32469">
        <ele>546</ele>
        <time>2017-03-05T01:16:59Z</time>
      </trkpt>
      <trkpt lat="44.30037" lon="3.32471">
        <ele>546</ele>
        <time>2017-03-05T01:18:59Z</time>
      </trkpt>
      <trkpt lat="44.30046" lon="3.32472">
        <ele>544</ele>
        <time>2017-03-05T01:20:59Z</time>
      </trkpt>
      <trkpt lat="44.30064" lon="3.32476">
        <ele>543</ele>
        <time>2017-03-05T01:22:59Z</time>
      </trkpt>
      <trkpt lat="44.30075" lon="3.3248">
        <ele>543</ele>
        <time>2017-03-05T01:24:59Z</time>
      </trkpt>
      <trkpt lat="44.30077" lon="3.32482">
        <ele>543</ele>
        <time>2017-03-05T01:26:59Z</time>
      </trkpt>
      <trkpt lat="44.30079" lon="3.32483">
        <ele>543</ele>
        <time>2017-03-05T01:28:59Z</time>
      </trkpt>
      <trkpt lat="44.30079" lon="3.32485">
        <ele>544</ele>
        <time>2017-03-05T01:30:59Z</time>
      </trkpt>
      <trkpt lat="44.3008" lon="3.32488">
        <ele>545</ele>
        <time>2017-03-05T01:32:59Z</time>
      </trkpt>
      <trkpt lat="44.30079" lon="3.32489">
        <ele>546</ele>
        <time>2017-03-05T01:34:59Z</time>
      </trkpt>
      <trkpt lat="44.30077" lon="3.32493">
        <ele>548</ele>
        <time>2017-03-05T01:36:59Z</time>
      </trkpt>
      <trkpt lat="44.30075" lon="3.32493">
        <ele>548</ele>
        <time>2017-03-05T01:38:59Z</time>
      </trkpt>
      <trkpt lat="44.30061" lon="3.32487">
        <ele>548</ele>
        <time>2017-03-05T01:40:59Z</time>
      </trkpt>
      <trkpt lat="44.30057" lon="3.32486">
        <ele>549</ele>
        <time>2017-03-05T01:42:59Z</time>
      </trkpt>
      <trkpt lat="44.3005" lon="3.32486">
        <ele>550</ele>
        <time>2017-03-05T01:44:59Z</time>
      </trkpt>
      <trkpt lat="44.30037" lon="3.32487">
        <ele>553</ele>
        <time>2017-03-05T01:46:59Z</time>
      </trkpt>
      <trkpt lat="44.30013" lon="3.32487">
        <ele>557</ele>
        <time>2017-03-05T01:48:59Z</time>
      </trkpt>
      <trkpt lat="44.30003" lon="3.32486">
        <ele>558</ele>
        <time>2017-03-05T01:50:59Z</time>
      </trkpt>
      <trkpt lat="44.29993" lon="3.32488">
        <ele>561</ele>
        <time>2017-03-05T01:52:59Z</time>
      </trkpt>
      <trkpt lat="44.29986" lon="3.32489">
        <ele>563</ele>
        <time>2017-03-05T01:54:59Z</time>
      </trkpt>
      <trkpt lat="44.29965" lon="3.32499">
        <ele>570</ele>
        <time>2017-03-05T01:56:59Z</time>
      </trkpt>
      <trkpt lat="44.29949" lon="3.32508">
        <ele>577</ele>
        <time>2017-03-05T01:58:59Z</time>
      </trkpt>
      <trkpt lat="44.29941" lon="3.32511">
        <ele>579</ele>
        <time>2017-03-05T02:00:59Z</time>
      </trkpt>
      <trkpt lat="44.29934" lon="3.32509">
        <ele>579</ele>
        <time>2017-03-05T02:02:59Z</time>
      </trkpt>
      <trkpt lat="44.29929" lon="3.32508">
        <ele>579</ele>
        <time>2017-03-05T02:04:59Z</time>
      </trkpt>
      <trkpt lat="44.29923" lon="3.32504">
        <ele>579</ele>
        <time>2017-03-05T02:06:59Z</time>
      </trkpt>
      <trkpt lat="44.2992" lon="3.325">
        <ele>577</ele>
        <time>2017-03-05T02:08:59Z</time>
      </trkpt>
      <trkpt lat="44.29906" lon="3.32478">
        <ele>577</ele>
        <time>2017-03-05T02:10:59Z</time>
      </trkpt>
      <trkpt lat="44.29902" lon="3.32474">
        <ele>578</ele>
        <time>2017-03-05T02:12:59Z</time>
      </trkpt>
      <trkpt lat="44.29894" lon="3.32465">
        <ele>579</ele>
        <time>2017-03-05T02:14:59Z</time>
      </trkpt>
      <trkpt lat="44.29883" lon="3.32456">
        <ele>583</ele>
        <time>2017-03-05T02:16:59Z</time>
      </trkpt>
      <trkpt lat="44.29879" lon="3.32452">
        <ele>584</ele>
        <time>2017-03-05T02:18:59Z</time>
      </trkpt>
      <trkpt lat="44.2987" lon="3.32442">
        <ele>586</ele>
        <time>2017-03-05T02:20:59Z</time>
      </trkpt>
      <trkpt lat="44.29866" lon="3.32437">
        <ele>587</ele>
        <time>2017-03-05T02:22:59Z</time>
      </trkpt>
      <trkpt lat="44.29862" lon="3.3243">
        <ele>587</ele>
        <time>2017-03-05T02:24:59Z</time>
      </trkpt>
      <trkpt lat="44.29857" lon="3.32422">
        <ele>588</ele>
        <time>2017-03-05T02:26:59Z</time>
      </trkpt>
      <trkpt lat="44.29854" lon="3.32414">
        <ele>589</ele>
        <time>2017-03-05T02:28:59Z</time>
      </trkpt>
      <trkpt lat="44.29853" lon="3.32408">
        <ele>590</ele>
        <time>2017-03-05T02:30:59Z</time>
      </trkpt>
      <trkpt lat="44.2985" lon="3.32396">
        <ele>592</ele>
        <time>2017-03-05T02:32:59Z</time>
      </trkpt>
      <trkpt lat="44.29846" lon="3.32392">
        <ele>594</ele>
        <time>2017-03-05T02:34:59Z</time>
      </trkpt>
      <trkpt lat="44.29844" lon="3.32393">
        <ele>595</ele>
        <time>2017-03-05T02:36:59Z</time>
      </trkpt>
      <trkpt lat="44.29843" lon="3.32394">
        <ele>596</ele>
        <time>2017-03-05T02:38:59Z</time>
      </trkpt>
      <trkpt lat="44.29841" lon="3.32397">
        <ele>597</ele>
        <time>2017-03-05T02:40:59Z</time>
      </trkpt>
      <trkpt lat="44.29841" lon="3.32399">
        <ele>596</ele>
        <time>2017-03-05T02:42:59Z</time>
      </trkpt>
      <trkpt lat="44.29842" lon="3.32403">
        <ele>596</ele>
        <time>2017-03-05T02:44:59Z</time>
      </trkpt>
      <trkpt lat="44.29846" lon="3.32415">
        <ele>593</ele>
        <time>2017-03-05T02:46:59Z</time>
      </trkpt>
      <trkpt lat="44.29851" lon="3.32433">
        <ele>593</ele>
        <time>2017-03-05T02:48:59Z</time>
      </trkpt>
      <trkpt lat="44.29853" lon="3.32442">
        <ele>594</ele>
        <time>2017-03-05T02:50:59Z</time>
      </trkpt>
      <trkpt lat="44.29856" lon="3.32452">
        <ele>594</ele>
        <time>2017-03-05T02:52:59Z</time>
      </trkpt>
      <trkpt lat="44.29863" lon="3.32468">
        <ele>594</ele>
        <time>2017-03-05T02:54:59Z</time>
      </trkpt>
      <trkpt lat="44.29871" lon="3.3248">
        <ele>593</ele>
        <time>2017-03-05T02:56:59Z</time>
      </trkpt>
      <trkpt lat="44.29875" lon="3.32487">
        <ele>593</ele>
        <time>2017-03-05T02:58:59Z</time>
      </trkpt>
      <trkpt lat="44.29885" lon="3.32502">
        <ele>592</ele>
        <time>2017-03-05T03:00:59Z</time>
      </trkpt>
      <trkpt lat="44.29888" lon="3.32508">
        <ele>593</ele>
        <time>2017-03-05T03:02:59Z</time>
      </trkpt>
      <trkpt lat="44.29889" lon="3.32515">
        <ele>595</ele>
        <time>2017-03-05T03:04:59Z</time>
      </trkpt>
      <trkpt lat="44.29891" lon="3.32523">
        <ele>597</ele>
        <time>2017-03-05T03:06:59Z</time>
      </trkpt>
      <trkpt lat="44.29894" lon="3.32538">
        <ele>602</ele>
        <time>2017-03-05T03:08:59Z</time>
      </trkpt>
      <trkpt lat="44.29897" lon="3.32548">
        <ele>605</ele>
        <time>2017-03-05T03:10:59Z</time>
      </trkpt>
      <trkpt lat="44.299" lon="3.32554">
        <ele>606</ele>
        <time>2017-03-05T03:12:59Z</time>
      </trkpt>
      <trkpt lat="44.29904" lon="3.3256">
        <ele>607</ele>
        <time>2017-03-05T03:14:59Z</time>
      </trkpt>
      <trkpt lat="44.29907" lon="3.32565">
        <ele>608</ele>
        <time>2017-03-05T03:16:59Z</time>
      </trkpt>
      <trkpt lat="44.29912" lon="3.32568">
        <ele>607</ele>
        <time>2017-03-05T03:18:59Z</time>
      </trkpt>
      <trkpt lat="44.29921" lon="3.3257">
        <ele>606</ele>
        <time>2017-03-05T03:20:59Z</time>
      </trkpt>
      <trkpt lat="44.29933" lon="3.32572">
        <ele>607</ele>
        <time>2017-03-05T03:22:59Z</time>
      </trkpt>
      <trkpt lat="44.29952" lon="3.32568">
        <ele>604</ele>
        <time>2017-03-05T03:24:59Z</time>
      </trkpt>
      <trkpt lat="44.29977" lon="3.32562">
        <ele>599</ele>
        <time>2017-03-05T03:26:59Z</time>
      </trkpt>
      <trkpt lat="44.29983" lon="3.32561">
        <ele>598</ele>
        <time>2017-03-05T03:28:59Z</time>
      </trkpt>
      <trkpt lat="44.29994" lon="3.32561">
        <ele>598</ele>
        <time>2017-03-05T03:30:59Z</time>
      </trkpt>
      <trkpt lat="44.30002" lon="3.32562">
        <ele>597</ele>
        <time>2017-03-05T03:32:59Z</time>
      </trkpt>
      <trkpt lat="44.30009" lon="3.32564">
        <ele>596</ele>
        <time>2017-03-05T03:34:59Z</time>
      </trkpt>
      <trkpt lat="44.30017" lon="3.32568">
        <ele>596</ele>
        <time>2017-03-05T03:36:59Z</time>
      </trkpt>
      <trkpt lat="44.30021" lon="3.32572">
        <ele>597</ele>
        <time>2017-03-05T03:38:59Z</time>
      </trkpt>
      <trkpt lat="44.30025" lon="3.32577">
        <ele>598</ele>
        <time>2017-03-05T03:40:59Z</time>
      </trkpt>
      <trkpt lat="44.30029" lon="3.32583">
        <ele>599</ele>
        <time>2017-03-05T03:42:59Z</time>
      </trkpt>
      <trkpt lat="44.30032" lon="3.32588">
        <ele>601</ele>
        <time>2017-03-05T03:44:59Z</time>
      </trkpt>
      <trkpt lat="44.30035" lon="3.32594">
        <ele>603</ele>
        <time>2017-03-05T03:46:59Z</time>
      </trkpt>
      <trkpt lat="44.30039" lon="3.32601">
        <ele>605</ele>
        <time>2017-03-05T03:48:59Z</time>
      </trkpt>
      <trkpt lat="44.30053" lon="3.32629">
        <ele>613</ele>
        <time>2017-03-05T03:50:59Z</time>
      </trkpt>
      <trkpt lat="44.30057" lon="3.32635">
        <ele>615</ele>
        <time>2017-03-05T03:52:59Z</time>
      </trkpt>
      <trkpt lat="44.30066" lon="3.32644">
        <ele>616</ele>
        <time>2017-03-05T03:54:59Z</time>
      </trkpt>
      <trkpt lat="44.30072" lon="3.32649">
        <ele>616</ele>
        <time>2017-03-05T03:56:59Z</time>
      </trkpt>
      <trkpt lat="44.30079" lon="3.32653">
        <ele>616</ele>
        <time>2017-03-05T03:58:59Z</time>
      </trkpt>
      <trkpt lat="44.30098" lon="3.32668">
        <ele>615</ele>
        <time>2017-03-05T04:00:59Z</time>
      </trkpt>
      <trkpt lat="44.30115" lon="3.32681">
        <ele>614</ele>
        <time>2017-03-05T04:02:59Z</time>
      </trkpt>
      <trkpt lat="44.3012" lon="3.32686">
        <ele>614</ele>
        <time>2017-03-05T04:04:59Z</time>
      </trkpt>
      <trkpt lat="44.30126" lon="3.32691">
        <ele>613</ele>
        <time>2017-03-05T04:06:59Z</time>
      </trkpt>
      <trkpt lat="44.30128" lon="3.32693">
        <ele>613</ele>
        <time>2017-03-05T04:08:59Z</time>
      </trkpt>
      <trkpt lat="44.30128" lon="3.32698">
        <ele>615</ele>
        <time>2017-03-05T04:10:59Z</time>
      </trkpt>
      <trkpt lat="44.30127" lon="3.327">
        <ele>617</ele>
        <time>2017-03-05T04:12:59Z</time>
      </trkpt>
      <trkpt lat="44.30126" lon="3.32701">
        <ele>617</ele>
        <time>2017-03-05T04:14:59Z</time>
      </trkpt>
      <trkpt lat="44.30125" lon="3.32701">
        <ele>618</ele>
        <time>2017-03-05T04:16:59Z</time>
      </trkpt>
      <trkpt lat="44.30124" lon="3.32702">
        <ele>619</ele>
        <time>2017-03-05T04:18:59Z</time>
      </trkpt>
      <trkpt lat="44.30121" lon="3.32701">
        <ele>620</ele>
        <time>2017-03-05T04:20:59Z</time>
      </trkpt>
      <trkpt lat="44.30113" lon="3.32692">
        <ele>620</ele>
        <time>2017-03-05T04:22:59Z</time>
      </trkpt>
      <trkpt lat="44.30096" lon="3.32681">
        <ele>622</ele>
        <time>2017-03-05T04:24:59Z</time>
      </trkpt>
      <trkpt lat="44.30087" lon="3.32677">
        <ele>624</ele>
        <time>2017-03-05T04:26:59Z</time>
      </trkpt>
      <trkpt lat="44.30068" lon="3.32671">
        <ele>628</ele>
        <time>2017-03-05T04:28:59Z</time>
      </trkpt>
      <trkpt lat="44.30058" lon="3.32667">
        <ele>629</ele>
        <time>2017-03-05T04:30:59Z</time>
      </trkpt>
      <trkpt lat="44.30047" lon="3.3266">
        <ele>630</ele>
        <time>2017-03-05T04:32:59Z</time>
      </trkpt>
      <trkpt lat="44.30036" lon="3.32651">
        <ele>629</ele>
        <time>2017-03-05T04:34:59Z</time>
      </trkpt>
      <trkpt lat="44.30018" lon="3.3263">
        <ele>625</ele>
        <time>2017-03-05T04:36:59Z</time>
      </trkpt>
      <trkpt lat="44.30011" lon="3.32624">
        <ele>624</ele>
        <time>2017-03-05T04:38:59Z</time>
      </trkpt>
      <trkpt lat="44.30006" lon="3.32618">
        <ele>623</ele>
        <time>2017-03-05T04:40:59Z</time>
      </trkpt>
      <trkpt lat="44.30001" lon="3.32615">
        <ele>623</ele>
        <time>2017-03-05T04:42:59Z</time>
      </trkpt>
      <trkpt lat="44.29994" lon="3.32613">
        <ele>623</ele>
        <time>2017-03-05T04:44:59Z</time>
      </trkpt>
      <trkpt lat="44.29988" lon="3.32612">
        <ele>623</ele>
        <time>2017-03-05T04:46:59Z</time>
      </trkpt>
      <trkpt lat="44.29977" lon="3.32614">
        <ele>625</ele>
        <time>2017-03-05T04:48:59Z</time>
      </trkpt>
      <trkpt lat="44.2996" lon="3.32619">
        <ele>628</ele>
        <time>2017-03-05T04:50:59Z</time>
      </trkpt>
      <trkpt lat="44.29942" lon="3.32627">
        <ele>633</ele>
        <time>2017-03-05T04:52:59Z</time>
      </trkpt>
      <trkpt lat="44.29929" lon="3.32635">
        <ele>638</ele>
        <time>2017-03-05T04:54:59Z</time>
      </trkpt>
      <trkpt lat="44.29923" lon="3.32639">
        <ele>641</ele>
        <time>2017-03-05T04:56:59Z</time>
      </trkpt>
      <trkpt lat="44.29913" lon="3.32647">
        <ele>646</ele>
        <time>2017-03-05T04:58:59Z</time>
      </trkpt>
      <trkpt lat="44.29905" lon="3.32654">
        <ele>652</ele>
        <time>2017-03-05T05:00:59Z</time>
      </trkpt>
      <trkpt lat="44.299" lon="3.32657">
        <ele>655</ele>
        <time>2017-03-05T05:02:59Z</time>
      </trkpt>
      <trkpt lat="44.29896" lon="3.32659">
        <ele>657</ele>
        <time>2017-03-05T05:04:59Z</time>
      </trkpt>
      <trkpt lat="44.29889" lon="3.32661">
        <ele>659</ele>
        <time>2017-03-05T05:06:59Z</time>
      </trkpt>
      <trkpt lat="44.29881" lon="3.32661">
        <ele>661</ele>
        <time>2017-03-05T05:08:59Z</time>
      </trkpt>
      <trkpt lat="44.29867" lon="3.32658">
        <ele>663</ele>
        <time>2017-03-05T05:10:59Z</time>
      </trkpt>
      <trkpt lat="44.29861" lon="3.32657">
        <ele>664</ele>
        <time>2017-03-05T05:12:59Z</time>
      </trkpt>
      <trkpt lat="44.29851" lon="3.32651">
        <ele>663</ele>
        <time>2017-03-05T05:14:59Z</time>
      </trkpt>
      <trkpt lat="44.29848" lon="3.32648">
        <ele>662</ele>
        <time>2017-03-05T05:16:59Z</time>
      </trkpt>
      <trkpt lat="44.29846" lon="3.32645">
        <ele>662</ele>
        <time>2017-03-05T05:18:59Z</time>
      </trkpt>
      <trkpt lat="44.29843" lon="3.32638">
        <ele>659</ele>
        <time>2017-03-05T05:20:59Z</time>
      </trkpt>
      <trkpt lat="44.29839" lon="3.32631">
        <ele>657</ele>
        <time>2017-03-05T05:22:59Z</time>
      </trkpt>
      <trkpt lat="44.29836" lon="3.32625">
        <ele>655</ele>
        <time>2017-03-05T05:24:59Z</time>
      </trkpt>
      <trkpt lat="44.29833" lon="3.32621">
        <ele>654</ele>
        <time>2017-03-05T05:26:59Z</time>
      </trkpt>
      <trkpt lat="44.29828" lon="3.32618">
        <ele>656</ele>
        <time>2017-03-05T05:28:59Z</time>
      </trkpt>
      <trkpt lat="44.29823" lon="3.32617">
        <ele>657</ele>
        <time>2017-03-05T05:30:59Z</time>
      </trkpt>
      <trkpt lat="44.29813" lon="3.32616">
        <ele>662</ele>
        <time>2017-03-05T05:32:59Z</time>
      </trkpt>
      <trkpt lat="44.29798" lon="3.32612">
        <ele>668</ele>
        <time>2017-03-05T05:34:59Z</time>
      </trkpt>
      <trkpt lat="44.29793" lon="3.32609">
        <ele>669</ele>
        <time>2017-03-05T05:36:59Z</time>
      </trkpt>
      <trkpt lat="44.29787" lon="3.32604">
        <ele>670</ele>
        <time>2017-03-05T05:38:59Z</time>
      </trkpt>
      <trkpt lat="44.29781" lon="3.32597">
        <ele>671</ele>
        <time>2017-03-05T05:40:59Z</time>
      </trkpt>
      <trkpt lat="44.29775" lon="3.32585">
        <ele>670</ele>
        <time>2017-03-05T05:42:59Z</time>
      </trkpt>
      <trkpt lat="44.29773" lon="3.32578">
        <ele>669</ele>
        <time>2017-03-05T05:44:59Z</time>
      </trkpt>
      <trkpt lat="44.29772" lon="3.32569">
        <ele>668</ele>
        <time>2017-03-05T05:46:59Z</time>
      </trkpt>
      <trkpt lat="44.29769" lon="3.32558">
        <ele>667</ele>
        <time>2017-03-05T05:48:59Z</time>
      </trkpt>
      <trkpt lat="44.29764" lon="3.32542">
        <ele>666</ele>
        <time>2017-03-05T05:50:59Z</time>
      </trkpt>
      <trkpt lat="44.29756" lon="3.32519">
        <ele>666</ele>
        <time>2017-03-05T05:52:59Z</time>
      </trkpt>
      <trkpt lat="44.29746" lon="3.32494">
        <ele>667</ele>
        <time>2017-03-05T05:54:59Z</time>
      </trkpt>
      <trkpt lat="44.2974" lon="3.32481">
        <ele>668</ele>
        <time>2017-03-05T05:56:59Z</time>
      </trkpt>
      <trkpt lat="44.29734" lon="3.32471">
        <ele>670</ele>
        <time>2017-03-05T05:58:59Z</time>
      </trkpt>
      <trkpt lat="44.2973" lon="3.32465">
        <ele>671</ele>
        <time>2017-03-05T06:00:59Z</time>
      </trkpt>
      <trkpt lat="44.29724" lon="3.32459">
        <ele>674</ele>
        <time>2017-03-05T06:02:59Z</time>
      </trkpt>
      <trkpt lat="44.29714" lon="3.32448">
        <ele>679</ele>
        <time>2017-03-05T06:04:59Z</time>
      </trkpt>
      <trkpt lat="44.29707" lon="3.32437">
        <ele>681</ele>
        <time>2017-03-05T06:06:59Z</time>
      </trkpt>
      <trkpt lat="44.29704" lon="3.3243">
        <ele>682</ele>
        <time>2017-03-05T06:08:59Z</time>
      </trkpt>
      <trkpt lat="44.29703" lon="3.32423">
        <ele>681</ele>
        <time>2017-03-05T06:10:59Z</time>
      </trkpt>
      <trkpt lat="44.29701" lon="3.32403">
        <ele>682</ele>
        <time>2017-03-05T06:12:59Z</time>
      </trkpt>
      <trkpt lat="44.29699" lon="3.32396">
        <ele>684</ele>
        <time>2017-03-05T06:14:59Z</time>
      </trkpt>
      <trkpt lat="44.29696" lon="3.32389">
        <ele>687</ele>
        <time>2017-03-05T06:16:59Z</time>
      </trkpt>
      <trkpt lat="44.29687" lon="3.32371">
        <ele>695</ele>
        <time>2017-03-05T06:18:59Z</time>
      </trkpt>
      <trkpt lat="44.29685" lon="3.32361">
        <ele>697</ele>
        <time>2017-03-05T06:20:59Z</time>
      </trkpt>
      <trkpt lat="44.29686" lon="3.32355">
        <ele>697</ele>
        <time>2017-03-05T06:22:59Z</time>
      </trkpt>
      <trkpt lat="44.29688" lon="3.32348">
        <ele>696</ele>
        <time>2017-03-05T06:24:59Z</time>
      </trkpt>
      <trkpt lat="44.29693" lon="3.32337">
        <ele>693</ele>
        <time>2017-03-05T06:26:59Z</time>
      </trkpt>
      <trkpt lat="44.29697" lon="3.32326">
        <ele>692</ele>
        <time>2017-03-05T06:28:59Z</time>
      </trkpt>
      <trkpt lat="44.297" lon="3.32316">
        <ele>692</ele>
        <time>2017-03-05T06:30:59Z</time>
      </trkpt>
      <trkpt lat="44.29707" lon="3.323">
        <ele>691</ele>
        <time>2017-03-05T06:32:59Z</time>
      </trkpt>
      <trkpt lat="44.29715" lon="3.32285">
        <ele>689</ele>
        <time>2017-03-05T06:34:59Z</time>
      </trkpt>
      <trkpt lat="44.29741" lon="3.32239">
        <ele>680</ele>
        <time>2017-03-05T06:36:59Z</time>
      </trkpt>
      <trkpt lat="44.29746" lon="3.32228">
        <ele>676</ele>
        <time>2017-03-05T06:38:59Z</time>
      </trkpt>
      <trkpt lat="44.2975" lon="3.3222">
        <ele>673</ele>
        <time>2017-03-05T06:40:59Z</time>
      </trkpt>
      <trkpt lat="44.29752" lon="3.32213">
        <ele>671</ele>
        <time>2017-03-05T06:42:59Z</time>
      </trkpt>
      <trkpt lat="44.29752" lon="3.32211">
        <ele>670</ele>
        <time>2017-03-05T06:44:59Z</time>
      </trkpt>
      <trkpt lat="44.29751" lon="3.32209">
        <ele>671</ele>
        <time>2017-03-05T06:46:59Z</time>
      </trkpt>
      <trkpt lat="44.29751" lon="3.32207">
        <ele>671</ele>
        <time>2017-03-05T06:48:59Z</time>
      </trkpt>
      <trkpt lat="44.29749" lon="3.32206">
        <ele>672</ele>
        <time>2017-03-05T06:50:59Z</time>
      </trkpt>
      <trkpt lat="44.29748" lon="3.32205">
        <ele>672</ele>
        <time>2017-03-05T06:52:59Z</time>
      </trkpt>
      <trkpt lat="44.29746" lon="3.32205">
        <ele>674</ele>
        <time>2017-03-05T06:54:59Z</time>
      </trkpt>
      <trkpt lat="44.29744" lon="3.32206">
        <ele>675</ele>
        <time>2017-03-05T06:56:59Z</time>
      </trkpt>
      <trkpt lat="44.29743" lon="3.32208">
        <ele>676</ele>
        <time>2017-03-05T06:58:59Z</time>
      </trkpt>
      <trkpt lat="44.2974" lon="3.32216">
        <ele>679</ele>
        <time>2017-03-05T07:00:59Z</time>
      </trkpt>
      <trkpt lat="44.29738" lon="3.32223">
        <ele>681</ele>
        <time>2017-03-05T07:02:59Z</time>
      </trkpt>
      <trkpt lat="44.29736" lon="3.32227">
        <ele>682</ele>
        <time>2017-03-05T07:04:59Z</time>
      </trkpt>
      <trkpt lat="44.29733" lon="3.32232">
        <ele>685</ele>
        <time>2017-03-05T07:06:59Z</time>
      </trkpt>
      <trkpt lat="44.29716" lon="3.32254">
        <ele>696</ele>
        <time>2017-03-05T07:08:59Z</time>
      </trkpt>
      <trkpt lat="44.29699" lon="3.32273">
        <ele>702</ele>
        <time>2017-03-05T07:10:59Z</time>
      </trkpt>
      <trkpt lat="44.29685" lon="3.3229">
        <ele>708</ele>
        <time>2017-03-05T07:12:59Z</time>
      </trkpt>
      <trkpt lat="44.29669" lon="3.32312">
        <ele>715</ele>
        <time>2017-03-05T07:14:59Z</time>
      </trkpt>
      <trkpt lat="44.29662" lon="3.32319">
        <ele>719</ele>
        <time>2017-03-05T07:16:59Z</time>
      </trkpt>
      <trkpt lat="44.29653" lon="3.32329">
        <ele>723</ele>
        <time>2017-03-05T07:18:59Z</time>
      </trkpt>
      <trkpt lat="44.29648" lon="3.32333">
        <ele>726</ele>
        <time>2017-03-05T07:20:59Z</time>
      </trkpt>
      <trkpt lat="44.29643" lon="3.32339">
        <ele>729</ele>
        <time>2017-03-05T07:22:59Z</time>
      </trkpt>
      <trkpt lat="44.2964" lon="3.32344">
        <ele>731</ele>
        <time>2017-03-05T07:24:59Z</time>
      </trkpt>
      <trkpt lat="44.29637" lon="3.32352">
        <ele>732</ele>
        <time>2017-03-05T07:26:59Z</time>
      </trkpt>
      <trkpt lat="44.29635" lon="3.3236">
        <ele>733</ele>
        <time>2017-03-05T07:28:59Z</time>
      </trkpt>
      <trkpt lat="44.29634" lon="3.32368">
        <ele>733</ele>
        <time>2017-03-05T07:30:59Z</time>
      </trkpt>
      <trkpt lat="44.29635" lon="3.32376">
        <ele>732</ele>
        <time>2017-03-05T07:32:59Z</time>
      </trkpt>
      <trkpt lat="44.29639" lon="3.32394">
        <ele>727</ele>
        <time>2017-03-05T07:34:59Z</time>
      </trkpt>
      <trkpt lat="44.29642" lon="3.32402">
        <ele>724</ele>
        <time>2017-03-05T07:36:59Z</time>
      </trkpt>
      <trkpt lat="44.29643" lon="3.32409">
        <ele>723</ele>
        <time>2017-03-05T07:38:59Z</time>
      </trkpt>
      <trkpt lat="44.29642" lon="3.32417">
        <ele>723</ele>
        <time>2017-03-05T07:40:59Z</time>
      </trkpt>
      <trkpt lat="44.29639" lon="3.32426">
        <ele>727</ele>
        <time>2017-03-05T07:42:59Z</time>
      </trkpt>
      <trkpt lat="44.29637" lon="3.32434">
        <ele>730</ele>
        <time>2017-03-05T07:44:59Z</time>
      </trkpt>
      <trkpt lat="44.29636" lon="3.32441">
        <ele>732</ele>
        <time>2017-03-05T07:46:59Z</time>
      </trkpt>
      <trkpt lat="44.29636" lon="3.3245">
        <ele>734</ele>
        <time>2017-03-05T07:48:59Z</time>
      </trkpt>
      <trkpt lat="44.29638" lon="3.32457">
        <ele>734</ele>
        <time>2017-03-05T07:50:59Z</time>
      </trkpt>
      <trkpt lat="44.29641" lon="3.32465">
        <ele>734</ele>
        <time>2017-03-05T07:52:59Z</time>
      </trkpt>
      <trkpt lat="44.29645" lon="3.32474">
        <ele>733</ele>
        <time>2017-03-05T07:54:59Z</time>
      </trkpt>
      <trkpt lat="44.29652" lon="3.32485">
        <ele>731</ele>
        <time>2017-03-05T07:56:59Z</time>
      </trkpt>
      <trkpt lat="44.29658" lon="3.32496">
        <ele>729</ele>
        <time>2017-03-05T07:58:59Z</time>
      </trkpt>
      <trkpt lat="44.29666" lon="3.32509">
        <ele>726</ele>
        <time>2017-03-05T08:00:59Z</time>
      </trkpt>
      <trkpt lat="44.29671" lon="3.32518">
        <ele>724</ele>
        <time>2017-03-05T08:02:59Z</time>
      </trkpt>
      <trkpt lat="44.29674" lon="3.32528">
        <ele>724</ele>
        <time>2017-03-05T08:04:59Z</time>
      </trkpt>
      <trkpt lat="44.29676" lon="3.32538">
        <ele>725</ele>
        <time>2017-03-05T08:06:59Z</time>
      </trkpt>
      <trkpt lat="44.29677" lon="3.32548">
        <ele>726</ele>
        <time>2017-03-05T08:08:59Z</time>
      </trkpt>
      <trkpt lat="44.29676" lon="3.32561">
        <ele>729</ele>
        <time>2017-03-05T08:10:59Z</time>
      </trkpt>
      <trkpt lat="44.29671" lon="3.32605">
        <ele>740</ele>
        <time>2017-03-05T08:12:59Z</time>
      </trkpt>
      <trkpt lat="44.29668" lon="3.32629">
        <ele>746</ele>
        <time>2017-03-05T08:14:59Z</time>
      </trkpt>
      <trkpt lat="44.29667" lon="3.3264">
        <ele>748</ele>
        <time>2017-03-05T08:16:59Z</time>
      </trkpt>
      <trkpt lat="44.29667" lon="3.3266">
        <ele>751</ele>
        <time>2017-03-05T08:18:59Z</time>
      </trkpt>
      <trkpt lat="44.29668" lon="3.32675">
        <ele>754</ele>
        <time>2017-03-05T08:20:59Z</time>
      </trkpt>
      <trkpt lat="44.2967" lon="3.32686">
        <ele>756</ele>
        <time>2017-03-05T08:22:59Z</time>
      </trkpt>
      <trkpt lat="44.29673" lon="3.32697">
        <ele>758</ele>
        <time>2017-03-05T08:24:59Z</time>
      </trkpt>
      <trkpt lat="44.29678" lon="3.32708">
        <ele>759</ele>
        <time>2017-03-05T08:26:59Z</time>
      </trkpt>
      <trkpt lat="44.29683" lon="3.32716">
        <ele>759</ele>
        <time>2017-03-05T08:28:59Z</time>
      </trkpt>
      <trkpt lat="44.29688" lon="3.32722">
        <ele>759</ele>
        <time>2017-03-05T08:30:59Z</time>
      </trkpt>
      <trkpt lat="44.29698" lon="3.32733">
        <ele>758</ele>
        <time>2017-03-05T08:32:59Z</time>
      </trkpt>
      <trkpt lat="44.29705" lon="3.32742">
        <ele>758</ele>
        <time>2017-03-05T08:34:59Z</time>
      </trkpt>
      <trkpt lat="44.29722" lon="3.32767">
        <ele>760</ele>
        <time>2017-03-05T08:36:59Z</time>
      </trkpt>
      <trkpt lat="44.29729" lon="3.32772">
        <ele>758</ele>
        <time>2017-03-05T08:38:59Z</time>
      </trkpt>
      <trkpt lat="44.29734" lon="3.32775">
        <ele>758</ele>
        <time>2017-03-05T08:40:59Z</time>
      </trkpt>
      <trkpt lat="44.29741" lon="3.3278">
        <ele>757</ele>
        <time>2017-03-05T08:42:59Z</time>
      </trkpt>
      <trkpt lat="44.29744" lon="3.32783">
        <ele>756</ele>
        <time>2017-03-05T08:44:59Z</time>
      </trkpt>
      <trkpt lat="44.2975" lon="3.3279">
        <ele>757</ele>
        <time>2017-03-05T08:46:59Z</time>
      </trkpt>
      <trkpt lat="44.29753" lon="3.32797">
        <ele>759</ele>
        <time>2017-03-05T08:48:59Z</time>
      </trkpt>
      <trkpt lat="44.29756" lon="3.32805">
        <ele>761</ele>
        <time>2017-03-05T08:50:59Z</time>
      </trkpt>
      <trkpt lat="44.29763" lon="3.32817">
        <ele>763</ele>
        <time>2017-03-05T08:52:59Z</time>
      </trkpt>
      <trkpt lat="44.29768" lon="3.32824">
        <ele>764</ele>
        <time>2017-03-05T08:54:59Z</time>
      </trkpt>
      <trkpt lat="44.29777" lon="3.32831">
        <ele>764</ele>
        <time>2017-03-05T08:56:59Z</time>
      </trkpt>
      <trkpt lat="44.29788" lon="3.32838">
        <ele>764</ele>
        <time>2017-03-05T08:58:59Z</time>
      </trkpt>
      <trkpt lat="44.29799" lon="3.32846">
        <ele>764</ele>
        <time>2017-03-05T09:00:59Z</time>
      </trkpt>
      <trkpt lat="44.2982" lon="3.32862">
        <ele>766</ele>
        <time>2017-03-05T09:02:59Z</time>
      </trkpt>
      <trkpt lat="44.29826" lon="3.32868">
        <ele>768</ele>
        <time>2017-03-05T09:04:59Z</time>
      </trkpt>
      <trkpt lat="44.2983" lon="3.32873">
        <ele>770</ele>
        <time>2017-03-05T09:06:59Z</time>
      </trkpt>
      <trkpt lat="44.29837" lon="3.32883">
        <ele>775</ele>
        <time>2017-03-05T09:08:59Z</time>
      </trkpt>
      <trkpt lat="44.29842" lon="3.32889">
        <ele>778</ele>
        <time>2017-03-05T09:10:59Z</time>
      </trkpt>
      <trkpt lat="44.29852" lon="3.32897">
        <ele>781</ele>
        <time>2017-03-05T09:12:59Z</time>
      </trkpt>
      <trkpt lat="44.29859" lon="3.329">
        <ele>782</ele>
        <time>2017-03-05T09:14:59Z</time>
      </trkpt>
      <trkpt lat="44.29866" lon="3.32902">
        <ele>782</ele>
        <time>2017-03-05T09:16:59Z</time>
      </trkpt>
      <trkpt lat="44.29872" lon="3.32903">
        <ele>781</ele>
        <time>2017-03-05T09:18:59Z</time>
      </trkpt>
      <trkpt lat="44.29878" lon="3.32903">
        <ele>780</ele>
        <time>2017-03-05T09:20:59Z</time>
      </trkpt>
      <trkpt lat="44.29928" lon="3.329">
        <ele>769</ele>
        <time>2017-03-05T09:22:59Z</time>
      </trkpt>
      <trkpt lat="44.2994" lon="3.329">
        <ele>766</ele>
        <time>2017-03-05T09:24:59Z</time>
      </trkpt>
      <trkpt lat="44.29945" lon="3.32901">
        <ele>765</ele>
        <time>2017-03-05T09:26:59Z</time>
      </trkpt>
      <trkpt lat="44.29947" lon="3.32902">
        <ele>765</ele>
        <time>2017-03-05T09:28:59Z</time>
      </trkpt>
      <trkpt lat="44.2995" lon="3.32903">
        <ele>765</ele>
        <time>2017-03-05T09:30:59Z</time>
      </trkpt>
      <trkpt lat="44.29953" lon="3.32905">
        <ele>765</ele>
        <time>2017-03-05T09:32:59Z</time>
      </trkpt>
      <trkpt lat="44.29957" lon="3.32909">
        <ele>765</ele>
        <time>2017-03-05T09:34:59Z</time>
      </trkpt>
      <trkpt lat="44.29959" lon="3.32914">
        <ele>766</ele>
        <time>2017-03-05T09:36:59Z</time>
      </trkpt>
      <trkpt lat="44.29961" lon="3.32918">
        <ele>767</ele>
        <time>2017-03-05T09:38:59Z</time>
      </trkpt>
      <trkpt lat="44.29963" lon="3.32925">
        <ele>768</ele>
        <time>2017-03-05T09:40:59Z</time>
      </trkpt>
      <trkpt lat="44.29965" lon="3.32935">
        <ele>769</ele>
        <time>2017-03-05T09:42:59Z</time>
      </trkpt>
      <trkpt lat="44.29965" lon="3.32946">
        <ele>771</ele>
        <time>2017-03-05T09:44:59Z</time>
      </trkpt>
      <trkpt lat="44.29964" lon="3.3296">
        <ele>774</ele>
        <time>2017-03-05T09:46:59Z</time>
      </trkpt>
      <trkpt lat="44.29961" lon="3.3298">
        <ele>779</ele>
        <time>2017-03-05T09:48:59Z</time>
      </trkpt>
      <trkpt lat="44.29958" lon="3.32993">
        <ele>784</ele>
        <time>2017-03-05T09:50:59Z</time>
      </trkpt>
      <trkpt lat="44.29953" lon="3.33012">
        <ele>788</ele>
        <time>2017-03-05T09:52:59Z</time>
      </trkpt>
      <trkpt lat="44.29951" lon="3.33023">
        <ele>790</ele>
        <time>2017-03-05T09:54:59Z</time>
      </trkpt>
      <trkpt lat="44.29946" lon="3.33037">
        <ele>793</ele>
        <time>2017-03-05T09:56:59Z</time>
      </trkpt>
      <trkpt lat="44.29943" lon="3.33049">
        <ele>796</ele>
        <time>2017-03-05T09:58:59Z</time>
      </trkpt>
      <trkpt lat="44.29942" lon="3.33056">
        <ele>797</ele>
        <time>2017-03-05T10:00:59Z</time>
      </trkpt>
      <trkpt lat="44.29942" lon="3.33065">
        <ele>797</ele>
        <time>2017-03-05T10:02:59Z</time>
      </trkpt>
      <trkpt lat="44.29944" lon="3.33083">
        <ele>797</ele>
        <time>2017-03-05T10:04:59Z</time>
      </trkpt>
      <trkpt lat="44.29946" lon="3.33096">
        <ele>797</ele>
        <time>2017-03-05T10:06:59Z</time>
      </trkpt>
      <trkpt lat="44.29948" lon="3.33105">
        <ele>797</ele>
        <time>2017-03-05T10:08:59Z</time>
      </trkpt>
      <trkpt lat="44.29948" lon="3.33118">
        <ele>799</ele>
        <time>2017-03-05T10:10:59Z</time>
      </trkpt>
      <trkpt lat="44.29949" lon="3.33143">
        <ele>802</ele>
        <time>2017-03-05T10:12:59Z</time>
      </trkpt>
      <trkpt lat="44.29951" lon="3.33175">
        <ele>805</ele>
        <time>2017-03-05T10:14:59Z</time>
      </trkpt>
      <trkpt lat="44.29953" lon="3.33199">
        <ele>807</ele>
        <time>2017-03-05T10:16:59Z</time>
      </trkpt>
      <trkpt lat="44.29962" lon="3.33258">
        <ele>812</ele>
        <time>2017-03-05T10:18:59Z</time>
      </trkpt>
      <trkpt lat="44.29964" lon="3.3327">
        <ele>813</ele>
        <time>2017-03-05T10:20:59Z</time>
      </trkpt>
      <trkpt lat="44.29964" lon="3.33284">
        <ele>814</ele>
        <time>2017-03-05T10:22:59Z</time>
      </trkpt>
      <trkpt lat="44.29963" lon="3.33291">
        <ele>814</ele>
        <time>2017-03-05T10:24:59Z</time>
      </trkpt>
      <trkpt lat="44.29961" lon="3.333">
        <ele>815</ele>
        <time>2017-03-05T10:26:59Z</time>
      </trkpt>
      <trkpt lat="44.29953" lon="3.33321">
        <ele>817</ele>
        <time>2017-03-05T10:28:59Z</time>
      </trkpt>
      <trkpt lat="44.29951" lon="3.33321">
        <ele>817</ele>
        <time>2017-03-05T10:30:59Z</time>
      </trkpt>
      <trkpt lat="44.29947" lon="3.33325">
        <ele>818</ele>
        <time>2017-03-05T10:32:59Z</time>
      </trkpt>
      <trkpt lat="44.29944" lon="3.33327">
        <ele>818</ele>
        <time>2017-03-05T10:34:59Z</time>
      </trkpt>
      <trkpt lat="44.29921" lon="3.33336">
        <ele>820</ele>
        <time>2017-03-05T10:36:59Z</time>
      </trkpt>
      <trkpt lat="44.29916" lon="3.33342">
        <ele>820</ele>
        <time>2017-03-05T10:38:59Z</time>
      </trkpt>
      <trkpt lat="44.29906" lon="3.33356">
        <ele>821</ele>
        <time>2017-03-05T10:40:59Z</time>
      </trkpt>
      <trkpt lat="44.2989" lon="3.33376">
        <ele>823</ele>
        <time>2017-03-05T10:42:59Z</time>
      </trkpt>
      <trkpt lat="44.29867" lon="3.33404">
        <ele>823</ele>
        <time>2017-03-05T10:44:59Z</time>
      </trkpt>
      <trkpt lat="44.29845" lon="3.33426">
        <ele>823</ele>
        <time>2017-03-05T10:46:59Z</time>
      </trkpt>
      <trkpt lat="44.29825" lon="3.33442">
        <ele>823</ele>
        <time>2017-03-05T10:48:59Z</time>
      </trkpt>
      <trkpt lat="44.29805" lon="3.33454">
        <ele>824</ele>
        <time>2017-03-05T10:50:59Z</time>
      </trkpt>
      <trkpt lat="44.29781" lon="3.33467">
        <ele>826</ele>
        <time>2017-03-05T10:52:59Z</time>
      </trkpt>
      <trkpt lat="44.29757" lon="3.33478">
        <ele>827</ele>
        <time>2017-03-05T10:54:59Z</time>
      </trkpt>
      <trkpt lat="44.29727" lon="3.33489">
        <ele>826</ele>
        <time>2017-03-05T10:56:59Z</time>
      </trkpt>
      <trkpt lat="44.29698" lon="3.33498">
        <ele>825</ele>
        <time>2017-03-05T10:58:59Z</time>
      </trkpt>
      <trkpt lat="44.29659" lon="3.33505">
        <ele>824</ele>
        <time>2017-03-05T11:00:59Z</time>
      </trkpt>
      <trkpt lat="44.29615" lon="3.33511">
        <ele>819</ele>
        <time>2017-03-05T11:02:59Z</time>
      </trkpt>
      <trkpt lat="44.29583" lon="3.33512">
        <ele>817</ele>
        <time>2017-03-05T11:04:59Z</time>
      </trkpt>
      <trkpt lat="44.2955" lon="3.33509">
        <ele>815</ele>
        <time>2017-03-05T11:06:59Z</time>
      </trkpt>
      <trkpt lat="44.29535" lon="3.33504">
        <ele>814</ele>
        <time>2017-03-05T11:08:59Z</time>
      </trkpt>
      <trkpt lat="44.29517" lon="3.33493">
        <ele>814</ele>
        <time>2017-03-05T11:10:59Z</time>
      </trkpt>
      <trkpt lat="44.29483" lon="3.33467">
        <ele>816</ele>
        <time>2017-03-05T11:12:59Z</time>
      </trkpt>
      <trkpt lat="44.29462" lon="3.33459">
        <ele>816</ele>
        <time>2017-03-05T11:14:59Z</time>
      </trkpt>
      <trkpt lat="44.29446" lon="3.3345">
        <ele>816</ele>
        <time>2017-03-05T11:16:59Z</time>
      </trkpt>
      <trkpt lat="44.29409" lon="3.33428">
        <ele>816</ele>
        <time>2017-03-05T11:18:59Z</time>
      </trkpt>
      <trkpt lat="44.294" lon="3.33424">
        <ele>816</ele>
        <time>2017-03-05T11:20:59Z</time>
      </trkpt>
      <trkpt lat="44.29393" lon="3.33423">
        <ele>816</ele>
        <time>2017-03-05T11:22:59Z</time>
      </trkpt>
      <trkpt lat="44.29388" lon="3.33424">
        <ele>816</ele>
        <time>2017-03-05T11:24:59Z</time>
      </trkpt>
      <trkpt lat="44.29387" lon="3.33421">
        <ele>816</ele>
        <time>2017-03-05T11:26:59Z</time>
      </trkpt>
      <trkpt lat="44.29384" lon="3.33417">
        <ele>816</ele>
        <time>2017-03-05T11:28:59Z</time>
      </trkpt>
      <trkpt lat="44.29373" lon="3.33408">
        <ele>816</ele>
        <time>2017-03-05T11:30:59Z</time>
      </trkpt>
      <trkpt lat="44.29354" lon="3.33391">
        <ele>817</ele>
        <time>2017-03-05T11:32:59Z</time>
      </trkpt>
      <trkpt lat="44.29346" lon="3.33383">
        <ele>817</ele>
        <time>2017-03-05T11:34:59Z</time>
      </trkpt>
      <trkpt lat="44.29334" lon="3.33362">
        <ele>817</ele>
        <time>2017-03-05T11:36:59Z</time>
      </trkpt>
      <trkpt lat="44.29308" lon="3.33314">
        <ele>819</ele>
        <time>2017-03-05T11:38:59Z</time>
      </trkpt>
      <trkpt lat="44.29303" lon="3.33296">
        <ele>820</ele>
        <time>2017-03-05T11:40:59Z</time>
      </trkpt>
      <trkpt lat="44.29296" lon="3.33267">
        <ele>821</ele>
        <time>2017-03-05T11:42:59Z</time>
      </trkpt>
      <trkpt lat="44.29287" lon="3.33234">
        <ele>823</ele>
        <time>2017-03-05T11:44:59Z</time>
      </trkpt>
      <trkpt lat="44.29281" lon="3.33218">
        <ele>824</ele>
        <time>2017-03-05T11:46:59Z</time>
      </trkpt>
      <trkpt lat="44.29266" lon="3.33195">
        <ele>825</ele>
        <time>2017-03-05T11:48:59Z</time>
      </trkpt>
      <trkpt lat="44.29251" lon="3.33175">
        <ele>825</ele>
        <time>2017-03-05T11:50:59Z</time>
      </trkpt>
      <trkpt lat="44.29236" lon="3.33143">
        <ele>829</ele>
        <time>2017-03-05T11:52:59Z</time>
      </trkpt>
      <trkpt lat="44.29227" lon="3.33129">
        <ele>830</ele>
        <time>2017-03-05T11:54:59Z</time>
      </trkpt>
      <trkpt lat="44.29217" lon="3.33115">
        <ele>831</ele>
        <time>2017-03-05T11:56:59Z</time>
      </trkpt>
      <trkpt lat="44.29204" lon="3.33105">
        <ele>832</ele>
        <time>2017-03-05T11:58:59Z</time>
      </trkpt>
      <trkpt lat="44.29193" lon="3.331">
        <ele>831</ele>
        <time>2017-03-05T12:00:59Z</time>
      </trkpt>
      <trkpt lat="44.29171" lon="3.33096">
        <ele>830</ele>
        <time>2017-03-05T12:02:59Z</time>
      </trkpt>
      <trkpt lat="44.29156" lon="3.33089">
        <ele>830</ele>
        <time>2017-03-05T12:04:59Z</time>
      </trkpt>
      <trkpt lat="44.29148" lon="3.33084">
        <ele>830</ele>
        <time>2017-03-05T12:06:59Z</time>
      </trkpt>
      <trkpt lat="44.29141" lon="3.33076">
        <ele>831</ele>
        <time>2017-03-05T12:08:59Z</time>
      </trkpt>
      <trkpt lat="44.29136" lon="3.33063">
        <ele>832</ele>
        <time>2017-03-05T12:10:59Z</time>
      </trkpt>
      <trkpt lat="44.29132" lon="3.33047">
        <ele>834</ele>
        <time>2017-03-05T12:12:59Z</time>
      </trkpt>
      <trkpt lat="44.2913" lon="3.33036">
        <ele>835</ele>
        <time>2017-03-05T12:14:59Z</time>
      </trkpt>
      <trkpt lat="44.29125" lon="3.33023">
        <ele>836</ele>
        <time>2017-03-05T12:16:59Z</time>
      </trkpt>
      <trkpt lat="44.29123" lon="3.33016">
        <ele>837</ele>
        <time>2017-03-05T12:18:59Z</time>
      </trkpt>
      <trkpt lat="44.2912" lon="3.33004">
        <ele>838</ele>
        <time>2017-03-05T12:20:59Z</time>
      </trkpt>
      <trkpt lat="44.29116" lon="3.32997">
        <ele>838</ele>
        <time>2017-03-05T12:22:59Z</time>
      </trkpt>
      <trkpt lat="44.2912" lon="3.32994">
        <ele>838</ele>
        <time>2017-03-05T12:24:59Z</time>
      </trkpt>
      <trkpt lat="44.29127" lon="3.32985">
        <ele>839</ele>
        <time>2017-03-05T12:26:59Z</time>
      </trkpt>
      <trkpt lat="44.29129" lon="3.3298">
        <ele>839</ele>
        <time>2017-03-05T12:28:59Z</time>
      </trkpt>
      <trkpt lat="44.2914" lon="3.32977">
        <ele>840</ele>
        <time>2017-03-05T12:30:59Z</time>
      </trkpt>
      <trkpt lat="44.29149" lon="3.32975">
        <ele>841</ele>
        <time>2017-03-05T12:32:59Z</time>
      </trkpt>
      <trkpt lat="44.29154" lon="3.32972">
        <ele>841</ele>
        <time>2017-03-05T12:34:59Z</time>
      </trkpt>
      <trkpt lat="44.2916" lon="3.32969">
        <ele>842</ele>
        <time>2017-03-05T12:36:59Z</time>
      </trkpt>
      <trkpt lat="44.29161" lon="3.32968">
        <ele>842</ele>
        <time>2017-03-05T12:38:59Z</time>
      </trkpt>
      <trkpt lat="44.29167" lon="3.32966">
        <ele>843</ele>
        <time>2017-03-05T12:40:59Z</time>
      </trkpt>
      <trkpt lat="44.29179" lon="3.32958">
        <ele>845</ele>
        <time>2017-03-05T12:42:59Z</time>
      </trkpt>
      <trkpt lat="44.29184" lon="3.32954">
        <ele>845</ele>
        <time>2017-03-05T12:44:59Z</time>
      </trkpt>
      <trkpt lat="44.2919" lon="3.32942">
        <ele>847</ele>
        <time>2017-03-05T12:46:59Z</time>
      </trkpt>
      <trkpt lat="44.29209" lon="3.32915">
        <ele>851</ele>
        <time>2017-03-05T12:48:59Z</time>
      </trkpt>
      <trkpt lat="44.29215" lon="3.32901">
        <ele>852</ele>
        <time>2017-03-05T12:50:59Z</time>
      </trkpt>
      <trkpt lat="44.29218" lon="3.32889">
        <ele>852</ele>
        <time>2017-03-05T12:52:59Z</time>
      </trkpt>
      <trkpt lat="44.29226" lon="3.3286">
        <ele>854</ele>
        <time>2017-03-05T12:54:59Z</time>
      </trkpt>
      <trkpt lat="44.2923" lon="3.32853">
        <ele>854</ele>
        <time>2017-03-05T12:56:59Z</time>
      </trkpt>
      <trkpt lat="44.2924" lon="3.32824">
        <ele>856</ele>
        <time>2017-03-05T12:58:59Z</time>
      </trkpt>
      <trkpt lat="44.2925" lon="3.32801">
        <ele>857</ele>
        <time>2017-03-05T13:00:59Z</time>
      </trkpt>
      <trkpt lat="44.29257" lon="3.32786">
        <ele>858</ele>
        <time>2017-03-05T13:02:59Z</time>
      </trkpt>
      <trkpt lat="44.29264" lon="3.32769">
        <ele>859</ele>
        <time>2017-03-05T13:04:59Z</time>
      </trkpt>
      <trkpt lat="44.29269" lon="3.32761">
        <ele>860</ele>
        <time>2017-03-05T13:06:59Z</time>
      </trkpt>
      <trkpt lat="44.29276" lon="3.32755">
        <ele>862</ele>
        <time>2017-03-05T13:08:59Z</time>
      </trkpt>
      <trkpt lat="44.29286" lon="3.3275">
        <ele>863</ele>
        <time>2017-03-05T13:10:59Z</time>
      </trkpt>
      <trkpt lat="44.29299" lon="3.32739">
        <ele>866</ele>
        <time>2017-03-05T13:12:59Z</time>
      </trkpt>
      <trkpt lat="44.29308" lon="3.3273">
        <ele>869</ele>
        <time>2017-03-05T13:14:59Z</time>
      </trkpt>
      <trkpt lat="44.29314" lon="3.32723">
        <ele>870</ele>
        <time>2017-03-05T13:16:59Z</time>
      </trkpt>
      <trkpt lat="44.2932" lon="3.32707">
        <ele>872</ele>
        <time>2017-03-05T13:18:59Z</time>
      </trkpt>
      <trkpt lat="44.29327" lon="3.32681">
        <ele>874</ele>
        <time>2017-03-05T13:20:59Z</time>
      </trkpt>
      <trkpt lat="44.29342" lon="3.32642">
        <ele>879</ele>
        <time>2017-03-05T13:22:59Z</time>
      </trkpt>
      <trkpt lat="44.29353" lon="3.32611">
        <ele>882</ele>
        <time>2017-03-05T13:24:59Z</time>
      </trkpt>
      <trkpt lat="44.29361" lon="3.32599">
        <ele>883</ele>
        <time>2017-03-05T13:26:59Z</time>
      </trkpt>
      <trkpt lat="44.29372" lon="3.32585">
        <ele>885</ele>
        <time>2017-03-05T13:28:59Z</time>
      </trkpt>
      <trkpt lat="44.29393" lon="3.3255">
        <ele>887</ele>
        <time>2017-03-05T13:30:59Z</time>
      </trkpt>
      <trkpt lat="44.29395" lon="3.32532">
        <ele>888</ele>
        <time>2017-03-05T13:32:59Z</time>
      </trkpt>
      <trkpt lat="44.29395" lon="3.3252">
        <ele>888</ele>
        <time>2017-03-05T13:34:59Z</time>
      </trkpt>
      <trkpt lat="44.29393" lon="3.32501">
        <ele>889</ele>
        <time>2017-03-05T13:36:59Z</time>
      </trkpt>
      <trkpt lat="44.29391" lon="3.32485">
        <ele>890</ele>
        <time>2017-03-05T13:38:59Z</time>
      </trkpt>
      <trkpt lat="44.29392" lon="3.32479">
        <ele>891</ele>
        <time>2017-03-05T13:40:59Z</time>
      </trkpt>
      <trkpt lat="44.29391" lon="3.32475">
        <ele>891</ele>
        <time>2017-03-05T13:42:59Z</time>
      </trkpt>
      <trkpt lat="44.29385" lon="3.32468">
        <ele>892</ele>
        <time>2017-03-05T13:44:59Z</time>
      </trkpt>
      <trkpt lat="44.29372" lon="3.32446">
        <ele>895</ele>
        <time>2017-03-05T13:46:59Z</time>
      </trkpt>
      <trkpt lat="44.29363" lon="3.32425">
        <ele>899</ele>
        <time>2017-03-05T13:48:59Z</time>
      </trkpt>
      <trkpt lat="44.29358" lon="3.32409">
        <ele>901</ele>
        <time>2017-03-05T13:50:59Z</time>
      </trkpt>
      <trkpt lat="44.29351" lon="3.32394">
        <ele>905</ele>
        <time>2017-03-05T13:52:59Z</time>
      </trkpt>
      <trkpt lat="44.29343" lon="3.32378">
        <ele>908</ele>
        <time>2017-03-05T13:54:59Z</time>
      </trkpt>
      <trkpt lat="44.29336" lon="3.32365">
        <ele>911</ele>
        <time>2017-03-05T13:56:59Z</time>
      </trkpt>
      <trkpt lat="44.29329" lon="3.32345">
        <ele>914</ele>
        <time>2017-03-05T13:58:59Z</time>
      </trkpt>
      <trkpt lat="44.29323" lon="3.3233">
        <ele>916</ele>
        <time>2017-03-05T14:00:59Z</time>
      </trkpt>
      <trkpt lat="44.2932" lon="3.32321">
        <ele>917</ele>
        <time>2017-03-05T14:02:59Z</time>
      </trkpt>
      <trkpt lat="44.29317" lon="3.32315">
        <ele>918</ele>
        <time>2017-03-05T14:04:59Z</time>
      </trkpt>
      <trkpt lat="44.29316" lon="3.32308">
        <ele>919</ele>
        <time>2017-03-05T14:06:59Z</time>
      </trkpt>
      <trkpt lat="44.29318" lon="3.32298">
        <ele>920</ele>
        <time>2017-03-05T14:08:59Z</time>
      </trkpt>
      <trkpt lat="44.29319" lon="3.32288">
        <ele>921</ele>
        <time>2017-03-05T14:10:59Z</time>
      </trkpt>
      <trkpt lat="44.29317" lon="3.32277">
        <ele>922</ele>
        <time>2017-03-05T14:12:59Z</time>
      </trkpt>
      <trkpt lat="44.29309" lon="3.32261">
        <ele>924</ele>
        <time>2017-03-05T14:14:59Z</time>
      </trkpt>
      <trkpt lat="44.29285" lon="3.32226">
        <ele>929</ele>
        <time>2017-03-05T14:16:59Z</time>
      </trkpt>
      <trkpt lat="44.29278" lon="3.32215">
        <ele>931</ele>
        <time>2017-03-05T14:18:59Z</time>
      </trkpt>
      <trkpt lat="44.29271" lon="3.32198">
        <ele>933</ele>
        <time>2017-03-05T14:20:59Z</time>
      </trkpt>
      <trkpt lat="44.2927" lon="3.32198">
        <ele>933</ele>
        <time>2017-03-05T14:22:59Z</time>
      </trkpt>
      <trkpt lat="44.29266" lon="3.32188">
        <ele>934</ele>
        <time>2017-03-05T14:24:59Z</time>
      </trkpt>
      <trkpt lat="44.29262" lon="3.3218">
        <ele>935</ele>
        <time>2017-03-05T14:26:59Z</time>
      </trkpt>
      <trkpt lat="44.29256" lon="3.32174">
        <ele>937</ele>
        <time>2017-03-05T14:28:59Z</time>
      </trkpt>
      <trkpt lat="44.2925" lon="3.32167">
        <ele>938</ele>
        <time>2017-03-05T14:30:59Z</time>
      </trkpt>
      <trkpt lat="44.29247" lon="3.3216">
        <ele>938</ele>
        <time>2017-03-05T14:32:59Z</time>
      </trkpt>
      <trkpt lat="44.29245" lon="3.32153">
        <ele>938</ele>
        <time>2017-03-05T14:34:59Z</time>
      </trkpt>
      <trkpt lat="44.29243" lon="3.32138">
        <ele>939</ele>
        <time>2017-03-05T14:36:59Z</time>
      </trkpt>
      <trkpt lat="44.29241" lon="3.32119">
        <ele>940</ele>
        <time>2017-03-05T14:38:59Z</time>
      </trkpt>
      <trkpt lat="44.29239" lon="3.32097">
        <ele>941</ele>
        <time>2017-03-05T14:40:59Z</time>
      </trkpt>
      <trkpt lat="44.29235" lon="3.3208">
        <ele>942</ele>
        <time>2017-03-05T14:42:59Z</time>
      </trkpt>
      <trkpt lat="44.2923" lon="3.32062">
        <ele>942</ele>
        <time>2017-03-05T14:44:59Z</time>
      </trkpt>
      <trkpt lat="44.29228" lon="3.3205">
        <ele>942</ele>
        <time>2017-03-05T14:46:59Z</time>
      </trkpt>
      <trkpt lat="44.29227" lon="3.3204">
        <ele>942</ele>
        <time>2017-03-05T14:48:59Z</time>
      </trkpt>
      <trkpt lat="44.29227" lon="3.32012">
        <ele>942</ele>
        <time>2017-03-05T14:50:59Z</time>
      </trkpt>
      <trkpt lat="44.29228" lon="3.31999">
        <ele>942</ele>
        <time>2017-03-05T14:52:59Z</time>
      </trkpt>
      <trkpt lat="44.29227" lon="3.31988">
        <ele>941</ele>
        <time>2017-03-05T14:54:59Z</time>
      </trkpt>
      <trkpt lat="44.29224" lon="3.31968">
        <ele>940</ele>
        <time>2017-03-05T14:56:59Z</time>
      </trkpt>
      <trkpt lat="44.29217" lon="3.31937">
        <ele>938</ele>
        <time>2017-03-05T14:58:59Z</time>
      </trkpt>
      <trkpt lat="44.29211" lon="3.31913">
        <ele>937</ele>
        <time>2017-03-05T15:00:59Z</time>
      </trkpt>
      <trkpt lat="44.29205" lon="3.31905">
        <ele>938</ele>
        <time>2017-03-05T15:02:59Z</time>
      </trkpt>
      <trkpt lat="44.29198" lon="3.319">
        <ele>939</ele>
        <time>2017-03-05T15:04:59Z</time>
      </trkpt>
      <trkpt lat="44.29188" lon="3.31898">
        <ele>941</ele>
        <time>2017-03-05T15:06:59Z</time>
      </trkpt>
      <trkpt lat="44.29158" lon="3.31898">
        <ele>947</ele>
        <time>2017-03-05T15:08:59Z</time>
      </trkpt>
      <trkpt lat="44.29148" lon="3.31897">
        <ele>947</ele>
        <time>2017-03-05T15:10:59Z</time>
      </trkpt>
      <trkpt lat="44.29134" lon="3.31893">
        <ele>947</ele>
        <time>2017-03-05T15:12:59Z</time>
      </trkpt>
      <trkpt lat="44.29124" lon="3.31892">
        <ele>947</ele>
        <time>2017-03-05T15:14:59Z</time>
      </trkpt>
      <trkpt lat="44.29118" lon="3.31891">
        <ele>947</ele>
        <time>2017-03-05T15:16:59Z</time>
      </trkpt>
      <trkpt lat="44.29105" lon="3.31894">
        <ele>948</ele>
        <time>2017-03-05T15:18:59Z</time>
      </trkpt>
      <trkpt lat="44.2909" lon="3.31899">
        <ele>948</ele>
        <time>2017-03-05T15:20:59Z</time>
      </trkpt>
      <trkpt lat="44.29073" lon="3.31908">
        <ele>948</ele>
        <time>2017-03-05T15:22:59Z</time>
      </trkpt>
      <trkpt lat="44.29059" lon="3.31917">
        <ele>949</ele>
        <time>2017-03-05T15:24:59Z</time>
      </trkpt>
      <trkpt lat="44.29043" lon="3.31928">
        <ele>948</ele>
        <time>2017-03-05T15:26:59Z</time>
      </trkpt>
      <trkpt lat="44.29034" lon="3.31932">
        <ele>948</ele>
        <time>2017-03-05T15:28:59Z</time>
      </trkpt>
      <trkpt lat="44.29022" lon="3.31934">
        <ele>948</ele>
        <time>2017-03-05T15:30:59Z</time>
      </trkpt>
      <trkpt lat="44.29008" lon="3.31934">
        <ele>947</ele>
        <time>2017-03-05T15:32:59Z</time>
      </trkpt>
      <trkpt lat="44.28995" lon="3.31929">
        <ele>947</ele>
        <time>2017-03-05T15:34:59Z</time>
      </trkpt>
      <trkpt lat="44.28986" lon="3.31925">
        <ele>947</ele>
        <time>2017-03-05T15:36:59Z</time>
      </trkpt>
      <trkpt lat="44.28979" lon="3.31917">
        <ele>948</ele>
        <time>2017-03-05T15:38:59Z</time>
      </trkpt>
      <trkpt lat="44.28972" lon="3.31907">
        <ele>947</ele>
        <time>2017-03-05T15:40:59Z</time>
      </trkpt>
      <trkpt lat="44.2895" lon="3.31886">
        <ele>947</ele>
        <time>2017-03-05T15:42:59Z</time>
      </trkpt>
      <trkpt lat="44.28929" lon="3.31867">
        <ele>947</ele>
        <time>2017-03-05T15:44:59Z</time>
      </trkpt>
      <trkpt lat="44.28912" lon="3.3185">
        <ele>948</ele>
        <time>2017-03-05T15:46:59Z</time>
      </trkpt>
      <trkpt lat="44.28893" lon="3.31833">
        <ele>949</ele>
        <time>2017-03-05T15:48:59Z</time>
      </trkpt>
      <trkpt lat="44.28879" lon="3.31822">
        <ele>949</ele>
        <time>2017-03-05T15:50:59Z</time>
      </trkpt>
      <trkpt lat="44.28861" lon="3.31804">
        <ele>950</ele>
        <time>2017-03-05T15:52:59Z</time>
      </trkpt>
      <trkpt lat="44.28842" lon="3.31788">
        <ele>951</ele>
        <time>2017-03-05T15:54:59Z</time>
      </trkpt>
      <trkpt lat="44.2883" lon="3.31776">
        <ele>951</ele>
        <time>2017-03-05T15:56:59Z</time>
      </trkpt>
      <trkpt lat="44.28818" lon="3.31765">
        <ele>952</ele>
        <time>2017-03-05T15:58:59Z</time>
      </trkpt>
      <trkpt lat="44.28774" lon="3.31739">
        <ele>953</ele>
        <time>2017-03-05T16:00:59Z</time>
      </trkpt>
      <trkpt lat="44.28755" lon="3.31734">
        <ele>953</ele>
        <time>2017-03-05T16:02:59Z</time>
      </trkpt>
      <trkpt lat="44.28738" lon="3.31733">
        <ele>953</ele>
        <time>2017-03-05T16:04:59Z</time>
      </trkpt>
      <trkpt lat="44.28724" lon="3.31736">
        <ele>953</ele>
        <time>2017-03-05T16:06:59Z</time>
      </trkpt>
      <trkpt lat="44.28708" lon="3.31742">
        <ele>954</ele>
        <time>2017-03-05T16:08:59Z</time>
      </trkpt>
      <trkpt lat="44.28688" lon="3.31747">
        <ele>953</ele>
        <time>2017-03-05T16:10:59Z</time>
      </trkpt>
      <trkpt lat="44.28681" lon="3.31747">
        <ele>953</ele>
        <time>2017-03-05T16:12:59Z</time>
      </trkpt>
      <trkpt lat="44.28672" lon="3.31744">
        <ele>953</ele>
        <time>2017-03-05T16:14:59Z</time>
      </trkpt>
      <trkpt lat="44.28665" lon="3.31745">
        <ele>953</ele>
        <time>2017-03-05T16:16:59Z</time>
      </trkpt>
      <trkpt lat="44.28653" lon="3.31749">
        <ele>952</ele>
        <time>2017-03-05T16:18:59Z</time>
      </trkpt>
      <trkpt lat="44.28637" lon="3.31757">
        <ele>951</ele>
        <time>2017-03-05T16:20:59Z</time>
      </trkpt>
      <trkpt lat="44.28615" lon="3.31757">
        <ele>949</ele>
        <time>2017-03-05T16:22:59Z</time>
      </trkpt>
      <trkpt lat="44.28605" lon="3.31754">
        <ele>949</ele>
        <time>2017-03-05T16:24:59Z</time>
      </trkpt>
      <trkpt lat="44.28583" lon="3.31746">
        <ele>948</ele>
        <time>2017-03-05T16:26:59Z</time>
      </trkpt>
      <trkpt lat="44.28566" lon="3.31739">
        <ele>947</ele>
        <time>2017-03-05T16:28:59Z</time>
      </trkpt>
      <trkpt lat="44.28547" lon="3.3173">
        <ele>946</ele>
        <time>2017-03-05T16:30:59Z</time>
      </trkpt>
      <trkpt lat="44.28541" lon="3.31726">
        <ele>945</ele>
        <time>2017-03-05T16:32:59Z</time>
      </trkpt>
      <trkpt lat="44.28532" lon="3.31719">
        <ele>945</ele>
        <time>2017-03-05T16:34:59Z</time>
      </trkpt>
      <trkpt lat="44.28526" lon="3.31715">
        <ele>945</ele>
        <time>2017-03-05T16:36:59Z</time>
      </trkpt>
      <trkpt lat="44.28507" lon="3.3171">
        <ele>944</ele>
        <time>2017-03-05T16:38:59Z</time>
      </trkpt>
      <trkpt lat="44.28493" lon="3.31707">
        <ele>944</ele>
        <time>2017-03-05T16:40:59Z</time>
      </trkpt>
      <trkpt lat="44.28487" lon="3.31707">
        <ele>945</ele>
        <time>2017-03-05T16:42:59Z</time>
      </trkpt>
      <trkpt lat="44.28485" lon="3.31694">
        <ele>945</ele>
        <time>2017-03-05T16:44:59Z</time>
      </trkpt>
      <trkpt lat="44.28483" lon="3.31679">
        <ele>946</ele>
        <time>2017-03-05T16:46:59Z</time>
      </trkpt>
      <trkpt lat="44.28481" lon="3.31671">
        <ele>946</ele>
        <time>2017-03-05T16:48:59Z</time>
      </trkpt>
      <trkpt lat="44.28478" lon="3.31662">
        <ele>946</ele>
        <time>2017-03-05T16:50:59Z</time>
      </trkpt>
      <trkpt lat="44.28474" lon="3.31653">
        <ele>946</ele>
        <time>2017-03-05T16:52:59Z</time>
      </trkpt>
      <trkpt lat="44.28468" lon="3.31644">
        <ele>946</ele>
        <time>2017-03-05T16:54:59Z</time>
      </trkpt>
      <trkpt lat="44.28463" lon="3.31638">
        <ele>946</ele>
        <time>2017-03-05T16:56:59Z</time>
      </trkpt>
      <trkpt lat="44.2845" lon="3.31624">
        <ele>945</ele>
        <time>2017-03-05T16:58:59Z</time>
      </trkpt>
      <trkpt lat="44.28441" lon="3.31615">
        <ele>945</ele>
        <time>2017-03-05T17:00:59Z</time>
      </trkpt>
      <trkpt lat="44.28422" lon="3.31597">
        <ele>945</ele>
        <time>2017-03-05T17:02:59Z</time>
      </trkpt>
      <trkpt lat="44.28421" lon="3.31589">
        <ele>944</ele>
        <time>2017-03-05T17:04:59Z</time>
      </trkpt>
      <trkpt lat="44.28419" lon="3.31583">
        <ele>944</ele>
        <time>2017-03-05T17:06:59Z</time>
      </trkpt>
      <trkpt lat="44.28416" lon="3.3158">
        <ele>944</ele>
        <time>2017-03-05T17:08:59Z</time>
      </trkpt>
      <trkpt lat="44.28384" lon="3.31534">
        <ele>944</ele>
        <time>2017-03-05T17:10:59Z</time>
      </trkpt>
      <trkpt lat="44.28373" lon="3.31512">
        <ele>944</ele>
        <time>2017-03-05T17:12:59Z</time>
      </trkpt>
      <trkpt lat="44.28363" lon="3.31488">
        <ele>944</ele>
        <time>2017-03-05T17:14:59Z</time>
      </trkpt>
      <trkpt lat="44.28356" lon="3.31465">
        <ele>943</ele>
        <time>2017-03-05T17:16:59Z</time>
      </trkpt>
      <trkpt lat="44.28353" lon="3.31453">
        <ele>942</ele>
        <time>2017-03-05T17:18:59Z</time>
      </trkpt>
      <trkpt lat="44.28349" lon="3.31431">
        <ele>941</ele>
        <time>2017-03-05T17:20:59Z</time>
      </trkpt>
      <trkpt lat="44.28345" lon="3.31414">
        <ele>940</ele>
        <time>2017-03-05T17:22:59Z</time>
      </trkpt>
      <trkpt lat="44.28332" lon="3.31373">
        <ele>938</ele>
        <time>2017-03-05T17:24:59Z</time>
      </trkpt>
      <trkpt lat="44.28325" lon="3.31342">
        <ele>936</ele>
        <time>2017-03-05T17:26:59Z</time>
      </trkpt>
      <trkpt lat="44.28318" lon="3.31309">
        <ele>936</ele>
        <time>2017-03-05T17:28:59Z</time>
      </trkpt>
      <trkpt lat="44.28315" lon="3.31291">
        <ele>936</ele>
        <time>2017-03-05T17:30:59Z</time>
      </trkpt>
      <trkpt lat="44.28314" lon="3.31277">
        <ele>936</ele>
        <time>2017-03-05T17:32:59Z</time>
      </trkpt>
      <trkpt lat="44.28322" lon="3.31247">
        <ele>934</ele>
        <time>2017-03-05T17:34:59Z</time>
      </trkpt>
      <trkpt lat="44.28335" lon="3.31201">
        <ele>931</ele>
        <time>2017-03-05T17:36:59Z</time>
      </trkpt>
      <trkpt lat="44.28348" lon="3.31162">
        <ele>930</ele>
        <time>2017-03-05T17:38:59Z</time>
      </trkpt>
      <trkpt lat="44.28363" lon="3.3113">
        <ele>930</ele>
        <time>2017-03-05T17:40:59Z</time>
      </trkpt>
      <trkpt lat="44.28373" lon="3.31106">
        <ele>930</ele>
        <time>2017-03-05T17:42:59Z</time>
      </trkpt>
      <trkpt lat="44.28389" lon="3.31041">
        <ele>932</ele>
        <time>2017-03-05T17:44:59Z</time>
      </trkpt>
      <trkpt lat="44.28401" lon="3.30996">
        <ele>932</ele>
        <time>2017-03-05T17:46:59Z</time>
      </trkpt>
      <trkpt lat="44.28404" lon="3.30962">
        <ele>932</ele>
        <time>2017-03-05T17:48:59Z</time>
      </trkpt>
      <trkpt lat="44.28407" lon="3.30918">
        <ele>932</ele>
        <time>2017-03-05T17:50:59Z</time>
      </trkpt>
      <trkpt lat="44.28418" lon="3.30832">
        <ele>925</ele>
        <time>2017-03-05T17:52:59Z</time>
      </trkpt>
      <trkpt lat="44.28418" lon="3.30797">
        <ele>922</ele>
        <time>2017-03-05T17:54:59Z</time>
      </trkpt>
      <trkpt lat="44.28417" lon="3.30754">
        <ele>918</ele>
        <time>2017-03-05T17:56:59Z</time>
      </trkpt>
      <trkpt lat="44.28413" lon="3.3073">
        <ele>917</ele>
        <time>2017-03-05T17:58:59Z</time>
      </trkpt>
      <trkpt lat="44.28401" lon="3.307">
        <ele>917</ele>
        <time>2017-03-05T18:00:59Z</time>
      </trkpt>
      <trkpt lat="44.28353" lon="3.30564">
        <ele>912</ele>
        <time>2017-03-05T18:02:59Z</time>
      </trkpt>
      <trkpt lat="44.28345" lon="3.30538">
        <ele>913</ele>
        <time>2017-03-05T18:04:59Z</time>
      </trkpt>
      <trkpt lat="44.2834" lon="3.30502">
        <ele>912</ele>
        <time>2017-03-05T18:06:59Z</time>
      </trkpt>
      <trkpt lat="44.28339" lon="3.30462">
        <ele>914</ele>
        <time>2017-03-05T18:08:59Z</time>
      </trkpt>
      <trkpt lat="44.28343" lon="3.30444">
        <ele>913</ele>
        <time>2017-03-05T18:10:59Z</time>
      </trkpt>
      <trkpt lat="44.28367" lon="3.30389">
        <ele>913</ele>
        <time>2017-03-05T18:12:59Z</time>
      </trkpt>
      <trkpt lat="44.28397" lon="3.30349">
        <ele>912</ele>
        <time>2017-03-05T18:14:59Z</time>
      </trkpt>
      <trkpt lat="44.2842" lon="3.30326">
        <ele>911</ele>
        <time>2017-03-05T18:16:59Z</time>
      </trkpt>
      <trkpt lat="44.28484" lon="3.30242">
        <ele>910</ele>
        <time>2017-03-05T18:18:59Z</time>
      </trkpt>
      <trkpt lat="44.2849" lon="3.30231">
        <ele>910</ele>
        <time>2017-03-05T18:20:59Z</time>
      </trkpt>
      <trkpt lat="44.28497" lon="3.30208">
        <ele>910</ele>
        <time>2017-03-05T18:22:59Z</time>
      </trkpt>
      <trkpt lat="44.2851" lon="3.30144">
        <ele>911</ele>
        <time>2017-03-05T18:24:59Z</time>
      </trkpt>
      <trkpt lat="44.28514" lon="3.30128">
        <ele>911</ele>
        <time>2017-03-05T18:26:59Z</time>
      </trkpt>
      <trkpt lat="44.2852" lon="3.30121">
        <ele>910</ele>
        <time>2017-03-05T18:28:59Z</time>
      </trkpt>
      <trkpt lat="44.28534" lon="3.30112">
        <ele>909</ele>
        <time>2017-03-05T18:30:59Z</time>
      </trkpt>
      <trkpt lat="44.28544" lon="3.30103">
        <ele>909</ele>
        <time>2017-03-05T18:32:59Z</time>
      </trkpt>
      <trkpt lat="44.28551" lon="3.30093">
        <ele>908</ele>
        <time>2017-03-05T18:34:59Z</time>
      </trkpt>
      <trkpt lat="44.28559" lon="3.30077">
        <ele>908</ele>
        <time>2017-03-05T18:36:59Z</time>
      </trkpt>
      <trkpt lat="44.28572" lon="3.30061">
        <ele>907</ele>
        <time>2017-03-05T18:38:59Z</time>
      </trkpt>
      <trkpt lat="44.28601" lon="3.30034">
        <ele>907</ele>
        <time>2017-03-05T18:40:59Z</time>
      </trkpt>
      <trkpt lat="44.2862" lon="3.30025">
        <ele>908</ele>
        <time>2017-03-05T18:42:59Z</time>
      </trkpt>
      <trkpt lat="44.28636" lon="3.30017">
        <ele>908</ele>
        <time>2017-03-05T18:44:59Z</time>
      </trkpt>
      <trkpt lat="44.28648" lon="3.30014">
        <ele>908</ele>
        <time>2017-03-05T18:46:59Z</time>
      </trkpt>
      <trkpt lat="44.28672" lon="3.30012">
        <ele>909</ele>
        <time>2017-03-05T18:48:59Z</time>
      </trkpt>
      <trkpt lat="44.28678" lon="3.3001">
        <ele>909</ele>
        <time>2017-03-05T18:50:59Z</time>
      </trkpt>
    </trkseg>
  </trk>
  <trk>
    <name><![CDATA[causwatts 07-rieisse-le r...]]></name>
    <trkseg>
      <trkpt lat="44.28715" lon="3.29905">
        <ele>915</ele>
        <time>2017-02-27T14:54:18Z</time>
      </trkpt>
      <trkpt lat="44.28719" lon="3.30007">
        <ele>911</ele>
        <time>2017-02-27T14:56:18Z</time>
      </trkpt>
      <trkpt lat="44.2869" lon="3.30027">
        <ele>909</ele>
        <time>2017-02-27T14:58:18Z</time>
      </trkpt>
      <trkpt lat="44.28736" lon="3.30115">
        <ele>909</ele>
        <time>2017-02-27T15:00:18Z</time>
      </trkpt>
      <trkpt lat="44.2874" lon="3.30271">
        <ele>895</ele>
        <time>2017-02-27T15:02:18Z</time>
      </trkpt>
      <trkpt lat="44.28836" lon="3.30462">
        <ele>882</ele>
        <time>2017-02-27T15:04:18Z</time>
      </trkpt>
      <trkpt lat="44.28888" lon="3.30569">
        <ele>873</ele>
        <time>2017-02-27T15:06:18Z</time>
      </trkpt>
      <trkpt lat="44.28925" lon="3.30607">
        <ele>872</ele>
        <time>2017-02-27T15:08:18Z</time>
      </trkpt>
      <trkpt lat="44.29008" lon="3.3081">
        <ele>846</ele>
        <time>2017-02-27T15:10:18Z</time>
      </trkpt>
      <trkpt lat="44.29021" lon="3.3085">
        <ele>838</ele>
        <time>2017-02-27T15:12:18Z</time>
      </trkpt>
      <trkpt lat="44.28997" lon="3.30857">
        <ele>836</ele>
        <time>2017-02-27T15:14:18Z</time>
      </trkpt>
      <trkpt lat="44.29005" lon="3.30879">
        <ele>831</ele>
        <time>2017-02-27T15:16:18Z</time>
      </trkpt>
      <trkpt lat="44.28979" lon="3.30872">
        <ele>830</ele>
        <time>2017-02-27T15:18:18Z</time>
      </trkpt>
      <trkpt lat="44.28986" lon="3.30915">
        <ele>821</ele>
        <time>2017-02-27T15:20:18Z</time>
      </trkpt>
      <trkpt lat="44.29038" lon="3.30936">
        <ele>811</ele>
        <time>2017-02-27T15:22:18Z</time>
      </trkpt>
      <trkpt lat="44.29028" lon="3.30964">
        <ele>801</ele>
        <time>2017-02-27T15:24:18Z</time>
      </trkpt>
      <trkpt lat="44.29254" lon="3.30939">
        <ele>765</ele>
        <time>2017-02-27T15:26:18Z</time>
      </trkpt>
      <trkpt lat="44.29169" lon="3.3101">
        <ele>752</ele>
        <time>2017-02-27T15:28:18Z</time>
      </trkpt>
      <trkpt lat="44.29156" lon="3.31058">
        <ele>746</ele>
        <time>2017-02-27T15:30:18Z</time>
      </trkpt>
      <trkpt lat="44.29238" lon="3.31082">
        <ele>709</ele>
        <time>2017-02-27T15:32:18Z</time>
      </trkpt>
      <trkpt lat="44.29257" lon="3.3121">
        <ele>716</ele>
        <time>2017-02-27T15:34:18Z</time>
      </trkpt>
      <trkpt lat="44.2935" lon="3.31239">
        <ele>666</ele>
        <time>2017-02-27T15:36:18Z</time>
      </trkpt>
      <trkpt lat="44.29339" lon="3.31291">
        <ele>683</ele>
        <time>2017-02-27T15:38:18Z</time>
      </trkpt>
      <trkpt lat="44.29356" lon="3.31338">
        <ele>679</ele>
        <time>2017-02-27T15:40:18Z</time>
      </trkpt>
      <trkpt lat="44.29451" lon="3.31408">
        <ele>650</ele>
        <time>2017-02-27T15:42:18Z</time>
      </trkpt>
      <trkpt lat="44.29531" lon="3.31418">
        <ele>617</ele>
        <time>2017-02-27T15:44:18Z</time>
      </trkpt>
      <trkpt lat="44.29632" lon="3.31549">
        <ele>610</ele>
        <time>2017-02-27T15:46:18Z</time>
      </trkpt>
      <trkpt lat="44.29745" lon="3.31598">
        <ele>582</ele>
        <time>2017-02-27T15:48:18Z</time>
      </trkpt>
      <trkpt lat="44.29777" lon="3.31664">
        <ele>589</ele>
        <time>2017-02-27T15:50:18Z</time>
      </trkpt>
      <trkpt lat="44.2981" lon="3.31692">
        <ele>578</ele>
        <time>2017-02-27T15:52:18Z</time>
      </trkpt>
      <trkpt lat="44.29825" lon="3.31682">
        <ele>566</ele>
        <time>2017-02-27T15:54:18Z</time>
      </trkpt>
      <trkpt lat="44.29795" lon="3.31631">
        <ele>568</ele>
        <time>2017-02-27T15:56:18Z</time>
      </trkpt>
      <trkpt lat="44.29776" lon="3.31578">
        <ele>559</ele>
        <time>2017-02-27T15:58:18Z</time>
      </trkpt>
      <trkpt lat="44.29759" lon="3.31537">
        <ele>547</ele>
        <time>2017-02-27T16:00:18Z</time>
      </trkpt>
      <trkpt lat="44.2989" lon="3.31643">
        <ele>515</ele>
        <time>2017-02-27T16:02:18Z</time>
      </trkpt>
      <trkpt lat="44.29931" lon="3.31623">
        <ele>489</ele>
        <time>2017-02-27T16:04:18Z</time>
      </trkpt>
      <trkpt lat="44.29986" lon="3.31902">
        <ele>467</ele>
        <time>2017-02-27T16:06:18Z</time>
      </trkpt>
      <trkpt lat="44.29975" lon="3.31666">
        <ele>471</ele>
        <time>2017-02-27T16:08:18Z</time>
      </trkpt>
      <trkpt lat="44.29992" lon="3.31608">
        <ele>460</ele>
        <time>2017-02-27T16:10:18Z</time>
      </trkpt>
      <trkpt lat="44.2988" lon="3.31413">
        <ele>458</ele>
        <time>2017-02-27T16:12:18Z</time>
      </trkpt>
      <trkpt lat="44.29825" lon="3.31379">
        <ele>467</ele>
        <time>2017-02-27T16:14:18Z</time>
      </trkpt>
      <trkpt lat="44.29825" lon="3.31246">
        <ele>467</ele>
        <time>2017-02-27T16:16:18Z</time>
      </trkpt>
      <trkpt lat="44.29844" lon="3.31157">
        <ele>473</ele>
        <time>2017-02-27T16:18:18Z</time>
      </trkpt>
      <trkpt lat="44.29916" lon="3.3107">
        <ele>472</ele>
        <time>2017-02-27T16:20:18Z</time>
      </trkpt>
      <trkpt lat="44.30055" lon="3.31031">
        <ele>468</ele>
        <time>2017-02-27T16:22:18Z</time>
      </trkpt>
      <trkpt lat="44.30098" lon="3.31033">
        <ele>462</ele>
        <time>2017-02-27T16:24:18Z</time>
      </trkpt>
      <trkpt lat="44.30131" lon="3.3096">
        <ele>475</ele>
        <time>2017-02-27T16:26:18Z</time>
      </trkpt>
      <trkpt lat="44.30279" lon="3.30773">
        <ele>469</ele>
        <time>2017-02-27T16:28:18Z</time>
      </trkpt>
      <trkpt lat="44.30444" lon="3.30396">
        <ele>469</ele>
        <time>2017-02-27T16:30:18Z</time>
      </trkpt>
      <trkpt lat="44.30495" lon="3.30274">
        <ele>463</ele>
        <time>2017-02-27T16:32:18Z</time>
      </trkpt>
      <trkpt lat="44.30505" lon="3.30131">
        <ele>467</ele>
        <time>2017-02-27T16:34:18Z</time>
      </trkpt>
      <trkpt lat="44.30499" lon="3.30061">
        <ele>461</ele>
        <time>2017-02-27T16:36:18Z</time>
      </trkpt>
      <trkpt lat="44.30458" lon="3.29963">
        <ele>460</ele>
        <time>2017-02-27T16:38:18Z</time>
      </trkpt>
      <trkpt lat="44.30375" lon="3.2987">
        <ele>457</ele>
        <time>2017-02-27T16:40:18Z</time>
      </trkpt>
      <trkpt lat="44.30103" lon="3.29731">
        <ele>467</ele>
        <time>2017-02-27T16:42:18Z</time>
      </trkpt>
      <trkpt lat="44.30009" lon="3.29609">
        <ele>466</ele>
        <time>2017-02-27T16:44:18Z</time>
      </trkpt>
      <trkpt lat="44.2998" lon="3.2951">
        <ele>462</ele>
        <time>2017-02-27T16:46:18Z</time>
      </trkpt>
      <trkpt lat="44.29951" lon="3.29391">
        <ele>462</ele>
        <time>2017-02-27T16:48:18Z</time>
      </trkpt>
      <trkpt lat="44.29943" lon="3.29443">
        <ele>473</ele>
        <time>2017-02-27T16:50:18Z</time>
      </trkpt>
      <trkpt lat="44.29906" lon="3.29431">
        <ele>486</ele>
        <time>2017-02-27T16:52:18Z</time>
      </trkpt>
      <trkpt lat="44.29854" lon="3.29426">
        <ele>503</ele>
        <time>2017-02-27T16:54:18Z</time>
      </trkpt>
      <trkpt lat="44.29876" lon="3.29353">
        <ele>483</ele>
        <time>2017-02-27T16:56:18Z</time>
      </trkpt>
      <trkpt lat="44.29862" lon="3.29316">
        <ele>481</ele>
        <time>2017-02-27T16:58:18Z</time>
      </trkpt>
      <trkpt lat="44.29762" lon="3.29207">
        <ele>492</ele>
        <time>2017-02-27T17:00:18Z</time>
      </trkpt>
      <trkpt lat="44.29723" lon="3.29098">
        <ele>473</ele>
        <time>2017-02-27T17:02:18Z</time>
      </trkpt>
      <trkpt lat="44.29672" lon="3.29054">
        <ele>484</ele>
        <time>2017-02-27T17:04:18Z</time>
      </trkpt>
      <trkpt lat="44.29632" lon="3.28923">
        <ele>497</ele>
        <time>2017-02-27T17:06:18Z</time>
      </trkpt>
      <trkpt lat="44.29647" lon="3.28714">
        <ele>489</ele>
        <time>2017-02-27T17:08:18Z</time>
      </trkpt>
      <trkpt lat="44.2961" lon="3.28646">
        <ele>510</ele>
        <time>2017-02-27T17:10:18Z</time>
      </trkpt>
      <trkpt lat="44.29633" lon="3.28572">
        <ele>497</ele>
        <time>2017-02-27T17:12:18Z</time>
      </trkpt>
      <trkpt lat="44.29639" lon="3.28406">
        <ele>495</ele>
        <time>2017-02-27T17:14:18Z</time>
      </trkpt>
      <trkpt lat="44.29596" lon="3.28314">
        <ele>519</ele>
        <time>2017-02-27T17:16:18Z</time>
      </trkpt>
      <trkpt lat="44.29606" lon="3.28256">
        <ele>520</ele>
        <time>2017-02-27T17:18:18Z</time>
      </trkpt>
      <trkpt lat="44.29648" lon="3.28206">
        <ele>502</ele>
        <time>2017-02-27T17:20:18Z</time>
      </trkpt>
      <trkpt lat="44.29654" lon="3.28122">
        <ele>520</ele>
        <time>2017-02-27T17:22:18Z</time>
      </trkpt>
      <trkpt lat="44.29753" lon="3.28028">
        <ele>498</ele>
        <time>2017-02-27T17:24:18Z</time>
      </trkpt>
      <trkpt lat="44.29767" lon="3.27969">
        <ele>510</ele>
        <time>2017-02-27T17:26:18Z</time>
      </trkpt>
      <trkpt lat="44.29821" lon="3.27897">
        <ele>492</ele>
        <time>2017-02-27T17:28:18Z</time>
      </trkpt>
      <trkpt lat="44.29832" lon="3.27759">
        <ele>506</ele>
        <time>2017-02-27T17:30:18Z</time>
      </trkpt>
      <trkpt lat="44.29896" lon="3.27619">
        <ele>476</ele>
        <time>2017-02-27T17:32:18Z</time>
      </trkpt>
      <trkpt lat="44.29909" lon="3.27498">
        <ele>467</ele>
        <time>2017-02-27T17:34:18Z</time>
      </trkpt>
      <trkpt lat="44.30113" lon="3.27128">
        <ele>460</ele>
        <time>2017-02-27T17:36:18Z</time>
      </trkpt>
      <trkpt lat="44.30167" lon="3.26903">
        <ele>484</ele>
        <time>2017-02-27T17:38:18Z</time>
      </trkpt>
      <trkpt lat="44.30283" lon="3.26715">
        <ele>493</ele>
        <time>2017-02-27T17:40:18Z</time>
      </trkpt>
      <trkpt lat="44.3034" lon="3.26662">
        <ele>483</ele>
        <time>2017-02-27T17:42:18Z</time>
      </trkpt>
      <trkpt lat="44.3032" lon="3.26608">
        <ele>506</ele>
        <time>2017-02-27T17:44:18Z</time>
      </trkpt>
      <trkpt lat="44.30372" lon="3.26578">
        <ele>491</ele>
        <time>2017-02-27T17:46:18Z</time>
      </trkpt>
      <trkpt lat="44.30402" lon="3.26476">
        <ele>500</ele>
        <time>2017-02-27T17:48:18Z</time>
      </trkpt>
      <trkpt lat="44.30408" lon="3.26474">
        <ele>496</ele>
        <time>2017-02-27T17:50:18Z</time>
      </trkpt>
      <trkpt lat="44.30431" lon="3.26244">
        <ele>504</ele>
        <time>2017-02-27T17:52:18Z</time>
      </trkpt>
      <trkpt lat="44.30386" lon="3.26187">
        <ele>528</ele>
        <time>2017-02-27T17:54:18Z</time>
      </trkpt>
      <trkpt lat="44.30432" lon="3.26118">
        <ele>502</ele>
        <time>2017-02-27T17:56:18Z</time>
      </trkpt>
      <trkpt lat="44.30385" lon="3.26016">
        <ele>522</ele>
        <time>2017-02-27T17:58:18Z</time>
      </trkpt>
      <trkpt lat="44.30368" lon="3.25807">
        <ele>515</ele>
        <time>2017-02-27T18:00:18Z</time>
      </trkpt>
      <trkpt lat="44.30332" lon="3.2575">
        <ele>526</ele>
        <time>2017-02-27T18:02:18Z</time>
      </trkpt>
      <trkpt lat="44.30307" lon="3.25594">
        <ele>542</ele>
        <time>2017-02-27T18:04:18Z</time>
      </trkpt>
      <trkpt lat="44.30277" lon="3.25398">
        <ele>553</ele>
        <time>2017-02-27T18:06:18Z</time>
      </trkpt>
      <trkpt lat="44.30321" lon="3.25357">
        <ele>552</ele>
        <time>2017-02-27T18:08:18Z</time>
      </trkpt>
      <trkpt lat="44.30419" lon="3.25344">
        <ele>535</ele>
        <time>2017-02-27T18:10:18Z</time>
      </trkpt>
      <trkpt lat="44.30441" lon="3.25281">
        <ele>550</ele>
        <time>2017-02-27T18:12:18Z</time>
      </trkpt>
      <trkpt lat="44.30524" lon="3.25166">
        <ele>547</ele>
        <time>2017-02-27T18:14:18Z</time>
      </trkpt>
      <trkpt lat="44.30562" lon="3.25067">
        <ele>541</ele>
        <time>2017-02-27T18:16:18Z</time>
      </trkpt>
      <trkpt lat="44.3055" lon="3.24861">
        <ele>579</ele>
        <time>2017-02-27T18:18:18Z</time>
      </trkpt>
      <trkpt lat="44.30578" lon="3.24766">
        <ele>541</ele>
        <time>2017-02-27T18:20:18Z</time>
      </trkpt>
      <trkpt lat="44.304" lon="3.2471">
        <ele>600</ele>
        <time>2017-02-27T18:22:18Z</time>
      </trkpt>
      <trkpt lat="44.30315" lon="3.24621">
        <ele>609</ele>
        <time>2017-02-27T18:24:18Z</time>
      </trkpt>
      <trkpt lat="44.30275" lon="3.24467">
        <ele>599</ele>
        <time>2017-02-27T18:26:18Z</time>
      </trkpt>
      <trkpt lat="44.30239" lon="3.24246">
        <ele>578</ele>
        <time>2017-02-27T18:28:18Z</time>
      </trkpt>
      <trkpt lat="44.3022" lon="3.2419">
        <ele>567</ele>
        <time>2017-02-27T18:30:18Z</time>
      </trkpt>
      <trkpt lat="44.30161" lon="3.24172">
        <ele>590</ele>
        <time>2017-02-27T18:32:18Z</time>
      </trkpt>
      <trkpt lat="44.30094" lon="3.24202">
        <ele>598</ele>
        <time>2017-02-27T18:34:18Z</time>
      </trkpt>
      <trkpt lat="44.3003" lon="3.24225">
        <ele>589</ele>
        <time>2017-02-27T18:36:18Z</time>
      </trkpt>
      <trkpt lat="44.29977" lon="3.24317">
        <ele>603</ele>
        <time>2017-02-27T18:38:18Z</time>
      </trkpt>
      <trkpt lat="44.29942" lon="3.24333">
        <ele>599</ele>
        <time>2017-02-27T18:40:18Z</time>
      </trkpt>
      <trkpt lat="44.29928" lon="3.24374">
        <ele>608</ele>
        <time>2017-02-27T18:42:18Z</time>
      </trkpt>
      <trkpt lat="44.29881" lon="3.24404">
        <ele>611</ele>
        <time>2017-02-27T18:44:18Z</time>
      </trkpt>
      <trkpt lat="44.29748" lon="3.2429">
        <ele>554</ele>
        <time>2017-02-27T18:46:18Z</time>
      </trkpt>
      <trkpt lat="44.2966" lon="3.24341">
        <ele>583</ele>
        <time>2017-02-27T18:48:18Z</time>
      </trkpt>
      <trkpt lat="44.29636" lon="3.24313">
        <ele>578</ele>
        <time>2017-02-27T18:50:18Z</time>
      </trkpt>
      <trkpt lat="44.29551" lon="3.24224">
        <ele>568</ele>
        <time>2017-02-27T18:52:18Z</time>
      </trkpt>
      <trkpt lat="44.29536" lon="3.24205">
        <ele>561</ele>
        <time>2017-02-27T18:54:18Z</time>
      </trkpt>
      <trkpt lat="44.29551" lon="3.24171">
        <ele>547</ele>
        <time>2017-02-27T18:56:18Z</time>
      </trkpt>
      <trkpt lat="44.2953" lon="3.24161">
        <ele>540</ele>
        <time>2017-02-27T18:58:18Z</time>
      </trkpt>
      <trkpt lat="44.29499" lon="3.24177">
        <ele>548</ele>
        <time>2017-02-27T19:00:18Z</time>
      </trkpt>
      <trkpt lat="44.29488" lon="3.24216">
        <ele>562</ele>
        <time>2017-02-27T19:02:18Z</time>
      </trkpt>
      <trkpt lat="44.29427" lon="3.24298">
        <ele>584</ele>
        <time>2017-02-27T19:04:18Z</time>
      </trkpt>
      <trkpt lat="44.29375" lon="3.24331">
        <ele>594</ele>
        <time>2017-02-27T19:06:18Z</time>
      </trkpt>
      <trkpt lat="44.29296" lon="3.24284">
        <ele>588</ele>
        <time>2017-02-27T19:08:18Z</time>
      </trkpt>
      <trkpt lat="44.29313" lon="3.24211">
        <ele>559</ele>
        <time>2017-02-27T19:10:18Z</time>
      </trkpt>
      <trkpt lat="44.29277" lon="3.24162">
        <ele>571</ele>
        <time>2017-02-27T19:12:18Z</time>
      </trkpt>
      <trkpt lat="44.29272" lon="3.24146">
        <ele>570</ele>
        <time>2017-02-27T19:14:18Z</time>
      </trkpt>
      <trkpt lat="44.29259" lon="3.24072">
        <ele>557</ele>
        <time>2017-02-27T19:16:18Z</time>
      </trkpt>
      <trkpt lat="44.29095" lon="3.24073">
        <ele>567</ele>
        <time>2017-02-27T19:18:18Z</time>
      </trkpt>
      <trkpt lat="44.29082" lon="3.24058">
        <ele>562</ele>
        <time>2017-02-27T19:20:18Z</time>
      </trkpt>
      <trkpt lat="44.29028" lon="3.23987">
        <ele>552</ele>
        <time>2017-02-27T19:22:18Z</time>
      </trkpt>
      <trkpt lat="44.28942" lon="3.23967">
        <ele>545</ele>
        <time>2017-02-27T19:24:18Z</time>
      </trkpt>
      <trkpt lat="44.28867" lon="3.24088">
        <ele>558</ele>
        <time>2017-02-27T19:26:18Z</time>
      </trkpt>
      <trkpt lat="44.28785" lon="3.2414">
        <ele>568</ele>
        <time>2017-02-27T19:28:18Z</time>
      </trkpt>
      <trkpt lat="44.28821" lon="3.23967">
        <ele>531</ele>
        <time>2017-02-27T19:30:18Z</time>
      </trkpt>
      <trkpt lat="44.288" lon="3.23845">
        <ele>506</ele>
        <time>2017-02-27T19:32:18Z</time>
      </trkpt>
      <trkpt lat="44.28598" lon="3.23922">
        <ele>517</ele>
        <time>2017-02-27T19:34:18Z</time>
      </trkpt>
      <trkpt lat="44.2857" lon="3.23908">
        <ele>515</ele>
        <time>2017-02-27T19:36:18Z</time>
      </trkpt>
      <trkpt lat="44.28556" lon="3.23879">
        <ele>515</ele>
        <time>2017-02-27T19:38:18Z</time>
      </trkpt>
      <trkpt lat="44.28554" lon="3.23868">
        <ele>513</ele>
        <time>2017-02-27T19:40:18Z</time>
      </trkpt>
      <trkpt lat="44.28552" lon="3.23716">
        <ele>487</ele>
        <time>2017-02-27T19:42:18Z</time>
      </trkpt>
      <trkpt lat="44.28448" lon="3.23553">
        <ele>463</ele>
        <time>2017-02-27T19:44:18Z</time>
      </trkpt>
      <trkpt lat="44.2841" lon="3.23533">
        <ele>467</ele>
        <time>2017-02-27T19:46:18Z</time>
      </trkpt>
      <trkpt lat="44.28342" lon="3.23425">
        <ele>454</ele>
        <time>2017-02-27T19:48:18Z</time>
      </trkpt>
      <trkpt lat="44.28055" lon="3.23194">
        <ele>440</ele>
        <time>2017-02-27T19:50:18Z</time>
      </trkpt>
      <trkpt lat="44.2786" lon="3.23094">
        <ele>438</ele>
        <time>2017-02-27T19:52:18Z</time>
      </trkpt>
      <trkpt lat="44.2772" lon="3.22844">
        <ele>420</ele>
        <time>2017-02-27T19:54:18Z</time>
      </trkpt>
      <trkpt lat="44.27601" lon="3.22774">
        <ele>421</ele>
        <time>2017-02-27T19:56:18Z</time>
      </trkpt>
      <trkpt lat="44.27439" lon="3.22763">
        <ele>427</ele>
        <time>2017-02-27T19:58:18Z</time>
      </trkpt>
      <trkpt lat="44.27363" lon="3.22795">
        <ele>435</ele>
        <time>2017-02-27T20:00:18Z</time>
      </trkpt>
      <trkpt lat="44.2706" lon="3.22859">
        <ele>445</ele>
        <time>2017-02-27T20:02:18Z</time>
      </trkpt>
      <trkpt lat="44.26969" lon="3.22857">
        <ele>441</ele>
        <time>2017-02-27T20:04:18Z</time>
      </trkpt>
      <trkpt lat="44.26716" lon="3.22823">
        <ele>435</ele>
        <time>2017-02-27T20:06:18Z</time>
      </trkpt>
      <trkpt lat="44.26561" lon="3.22734">
        <ele>418</ele>
        <time>2017-02-27T20:08:18Z</time>
      </trkpt>
      <trkpt lat="44.26448" lon="3.22734">
        <ele>416</ele>
        <time>2017-02-27T20:10:18Z</time>
      </trkpt>
      <trkpt lat="44.26223" lon="3.22852">
        <ele>418</ele>
        <time>2017-02-27T20:12:18Z</time>
      </trkpt>
      <trkpt lat="44.26043" lon="3.22896">
        <ele>417</ele>
        <time>2017-02-27T20:14:18Z</time>
      </trkpt>
      <trkpt lat="44.25853" lon="3.23004">
        <ele>419</ele>
        <time>2017-02-27T20:16:18Z</time>
      </trkpt>
      <trkpt lat="44.25639" lon="3.23173">
        <ele>424</ele>
        <time>2017-02-27T20:18:18Z</time>
      </trkpt>
      <trkpt lat="44.25488" lon="3.23255">
        <ele>428</ele>
        <time>2017-02-27T20:20:18Z</time>
      </trkpt>
      <trkpt lat="44.25421" lon="3.23348">
        <ele>443</ele>
        <time>2017-02-27T20:22:18Z</time>
      </trkpt>
      <trkpt lat="44.25326" lon="3.23427">
        <ele>454</ele>
        <time>2017-02-27T20:24:18Z</time>
      </trkpt>
      <trkpt lat="44.25286" lon="3.23495">
        <ele>480</ele>
        <time>2017-02-27T20:26:18Z</time>
      </trkpt>
      <trkpt lat="44.25265" lon="3.23484">
        <ele>477</ele>
        <time>2017-02-27T20:28:18Z</time>
      </trkpt>
      <trkpt lat="44.25243" lon="3.23433">
        <ele>459</ele>
        <time>2017-02-27T20:30:18Z</time>
      </trkpt>
      <trkpt lat="44.25154" lon="3.23385">
        <ele>458</ele>
        <time>2017-02-27T20:32:18Z</time>
      </trkpt>
      <trkpt lat="44.24985" lon="3.23364">
        <ele>469</ele>
        <time>2017-02-27T20:34:18Z</time>
      </trkpt>
      <trkpt lat="44.2491" lon="3.23329">
        <ele>454</ele>
        <time>2017-02-27T20:36:18Z</time>
      </trkpt>
      <trkpt lat="44.24446" lon="3.23387">
        <ele>446</ele>
        <time>2017-02-27T20:38:18Z</time>
      </trkpt>
      <trkpt lat="44.24374" lon="3.23323">
        <ele>428</ele>
        <time>2017-02-27T20:40:18Z</time>
      </trkpt>
      <trkpt lat="44.24008" lon="3.2321">
        <ele>435</ele>
        <time>2017-02-27T20:42:18Z</time>
      </trkpt>
      <trkpt lat="44.23608" lon="3.23185">
        <ele>427</ele>
        <time>2017-02-27T20:44:18Z</time>
      </trkpt>
      <trkpt lat="44.23571" lon="3.23161">
        <ele>421</ele>
        <time>2017-02-27T20:46:18Z</time>
      </trkpt>
      <trkpt lat="44.23573" lon="3.23138">
        <ele>418</ele>
        <time>2017-02-27T20:48:18Z</time>
      </trkpt>
      <trkpt lat="44.23571" lon="3.23161">
        <ele>421</ele>
        <time>2017-02-27T20:50:18Z</time>
      </trkpt>
      <trkpt lat="44.23232" lon="3.23128">
        <ele>427</ele>
        <time>2017-02-27T20:52:18Z</time>
      </trkpt>
      <trkpt lat="44.22888" lon="3.23108">
        <ele>420</ele>
        <time>2017-02-27T20:54:18Z</time>
      </trkpt>
      <trkpt lat="44.22747" lon="3.23059">
        <ele>413</ele>
        <time>2017-02-27T20:56:18Z</time>
      </trkpt>
      <trkpt lat="44.22645" lon="3.23057">
        <ele>419</ele>
        <time>2017-02-27T20:58:18Z</time>
      </trkpt>
      <trkpt lat="44.22612" lon="3.23053">
        <ele>420</ele>
        <time>2017-02-27T21:00:18Z</time>
      </trkpt>
      <trkpt lat="44.22441" lon="3.22921">
        <ele>411</ele>
        <time>2017-02-27T21:02:18Z</time>
      </trkpt>
      <trkpt lat="44.22398" lon="3.22918">
        <ele>421</ele>
        <time>2017-02-27T21:04:18Z</time>
      </trkpt>
      <trkpt lat="44.22462" lon="3.22987">
        <ele>424</ele>
        <time>2017-02-27T21:06:18Z</time>
      </trkpt>
      <trkpt lat="44.22389" lon="3.22965">
        <ele>439</ele>
        <time>2017-02-27T21:08:18Z</time>
      </trkpt>
      <trkpt lat="44.2226" lon="3.22695">
        <ele>441</ele>
        <time>2017-02-27T21:10:18Z</time>
      </trkpt>
      <trkpt lat="44.22237" lon="3.22586">
        <ele>425</ele>
        <time>2017-02-27T21:12:18Z</time>
      </trkpt>
      <trkpt lat="44.22139" lon="3.22474">
        <ele>428</ele>
        <time>2017-02-27T21:14:18Z</time>
      </trkpt>
      <trkpt lat="44.22052" lon="3.22437">
        <ele>431</ele>
        <time>2017-02-27T21:16:18Z</time>
      </trkpt>
      <trkpt lat="44.21973" lon="3.22386">
        <ele>418</ele>
        <time>2017-02-27T21:18:18Z</time>
      </trkpt>
      <trkpt lat="44.21761" lon="3.22512">
        <ele>429</ele>
        <time>2017-02-27T21:20:18Z</time>
      </trkpt>
      <trkpt lat="44.21718" lon="3.22619">
        <ele>452</ele>
        <time>2017-02-27T21:22:18Z</time>
      </trkpt>
      <trkpt lat="44.21685" lon="3.2256">
        <ele>435</ele>
        <time>2017-02-27T21:24:18Z</time>
      </trkpt>
      <trkpt lat="44.21654" lon="3.22552">
        <ele>431</ele>
        <time>2017-02-27T21:26:18Z</time>
      </trkpt>
      <trkpt lat="44.21624" lon="3.22599">
        <ele>441</ele>
        <time>2017-02-27T21:28:18Z</time>
      </trkpt>
      <trkpt lat="44.21619" lon="3.22667">
        <ele>460</ele>
        <time>2017-02-27T21:30:18Z</time>
      </trkpt>
      <trkpt lat="44.21616" lon="3.22673">
        <ele>461</ele>
        <time>2017-02-27T21:32:18Z</time>
      </trkpt>
      <trkpt lat="44.21558" lon="3.22603">
        <ele>438</ele>
        <time>2017-02-27T21:34:18Z</time>
      </trkpt>
      <trkpt lat="44.21477" lon="3.22589">
        <ele>430</ele>
        <time>2017-02-27T21:36:18Z</time>
      </trkpt>
      <trkpt lat="44.21425" lon="3.22679">
        <ele>457</ele>
        <time>2017-02-27T21:38:18Z</time>
      </trkpt>
      <trkpt lat="44.21386" lon="3.22605">
        <ele>436</ele>
        <time>2017-02-27T21:40:18Z</time>
      </trkpt>
      <trkpt lat="44.21282" lon="3.22627">
        <ele>457</ele>
        <time>2017-02-27T21:42:18Z</time>
      </trkpt>
      <trkpt lat="44.21224" lon="3.22605">
        <ele>450</ele>
        <time>2017-02-27T21:44:18Z</time>
      </trkpt>
      <trkpt lat="44.21112" lon="3.22684">
        <ele>473</ele>
        <time>2017-02-27T21:46:18Z</time>
      </trkpt>
      <trkpt lat="44.21109" lon="3.22682">
        <ele>473</ele>
        <time>2017-02-27T21:48:18Z</time>
      </trkpt>
      <trkpt lat="44.21099" lon="3.22547">
        <ele>449</ele>
        <time>2017-02-27T21:50:18Z</time>
      </trkpt>
      <trkpt lat="44.21052" lon="3.2257">
        <ele>463</ele>
        <time>2017-02-27T21:52:18Z</time>
      </trkpt>
      <trkpt lat="44.21018" lon="3.22487">
        <ele>452</ele>
        <time>2017-02-27T21:54:18Z</time>
      </trkpt>
      <trkpt lat="44.2096" lon="3.22459">
        <ele>448</ele>
        <time>2017-02-27T21:56:18Z</time>
      </trkpt>
      <trkpt lat="44.20871" lon="3.22509">
        <ele>461</ele>
        <time>2017-02-27T21:58:18Z</time>
      </trkpt>
      <trkpt lat="44.20838" lon="3.22495">
        <ele>458</ele>
        <time>2017-02-27T22:00:18Z</time>
      </trkpt>
      <trkpt lat="44.20821" lon="3.22443">
        <ele>456</ele>
        <time>2017-02-27T22:02:18Z</time>
      </trkpt>
      <trkpt lat="44.20812" lon="3.22369">
        <ele>450</ele>
        <time>2017-02-27T22:04:18Z</time>
      </trkpt>
      <trkpt lat="44.20829" lon="3.2233">
        <ele>445</ele>
        <time>2017-02-27T22:06:18Z</time>
      </trkpt>
      <trkpt lat="44.20813" lon="3.22297">
        <ele>437</ele>
        <time>2017-02-27T22:08:18Z</time>
      </trkpt>
      <trkpt lat="44.20725" lon="3.22326">
        <ele>453</ele>
        <time>2017-02-27T22:10:18Z</time>
      </trkpt>
      <trkpt lat="44.20542" lon="3.22169">
        <ele>439</ele>
        <time>2017-02-27T22:12:18Z</time>
      </trkpt>
      <trkpt lat="44.20412" lon="3.22152">
        <ele>440</ele>
        <time>2017-02-27T22:14:18Z</time>
      </trkpt>
      <trkpt lat="44.20383" lon="3.2209">
        <ele>436</ele>
        <time>2017-02-27T22:16:18Z</time>
      </trkpt>
      <trkpt lat="44.20317" lon="3.22051">
        <ele>451</ele>
        <time>2017-02-27T22:18:18Z</time>
      </trkpt>
      <trkpt lat="44.20272" lon="3.21849">
        <ele>448</ele>
        <time>2017-02-27T22:20:18Z</time>
      </trkpt>
      <trkpt lat="44.20169" lon="3.21734">
        <ele>460</ele>
        <time>2017-02-27T22:22:18Z</time>
      </trkpt>
      <trkpt lat="44.20073" lon="3.21678">
        <ele>459</ele>
        <time>2017-02-27T22:24:18Z</time>
      </trkpt>
      <trkpt lat="44.20018" lon="3.21688">
        <ele>469</ele>
        <time>2017-02-27T22:26:18Z</time>
      </trkpt>
      <trkpt lat="44.19989" lon="3.21644">
        <ele>458</ele>
        <time>2017-02-27T22:28:18Z</time>
      </trkpt>
      <trkpt lat="44.19948" lon="3.21617">
        <ele>454</ele>
        <time>2017-02-27T22:30:18Z</time>
      </trkpt>
      <trkpt lat="44.19785" lon="3.21594">
        <ele>476</ele>
        <time>2017-02-27T22:32:18Z</time>
      </trkpt>
      <trkpt lat="44.19784" lon="3.21508">
        <ele>446</ele>
        <time>2017-02-27T22:34:18Z</time>
      </trkpt>
      <trkpt lat="44.19651" lon="3.21421">
        <ele>451</ele>
        <time>2017-02-27T22:36:18Z</time>
      </trkpt>
      <trkpt lat="44.19444" lon="3.21202">
        <ele>450</ele>
        <time>2017-02-27T22:38:18Z</time>
      </trkpt>
      <trkpt lat="44.19314" lon="3.20875">
        <ele>419</ele>
        <time>2017-02-27T22:40:18Z</time>
      </trkpt>
      <trkpt lat="44.19277" lon="3.20774">
        <ele>409</ele>
        <time>2017-02-27T22:42:18Z</time>
      </trkpt>
      <trkpt lat="44.19328" lon="3.20848">
        <ele>410</ele>
        <time>2017-02-27T22:44:18Z</time>
      </trkpt>
      <trkpt lat="44.19431" lon="3.20801">
        <ele>396</ele>
        <time>2017-02-27T22:46:18Z</time>
      </trkpt>
      <trkpt lat="44.19467" lon="3.20833">
        <ele>400</ele>
        <time>2017-02-27T22:48:18Z</time>
      </trkpt>
      <trkpt lat="44.19447" lon="3.20489">
        <ele>395</ele>
        <time>2017-02-27T22:50:18Z</time>
      </trkpt>
      <trkpt lat="44.19469" lon="3.20421">
        <ele>398</ele>
        <time>2017-02-27T22:52:18Z</time>
      </trkpt>
      <trkpt lat="44.19495" lon="3.20402">
        <ele>401</ele>
        <time>2017-02-27T22:54:18Z</time>
      </trkpt>
      <trkpt lat="44.19539" lon="3.20231">
        <ele>408</ele>
        <time>2017-02-27T22:56:18Z</time>
      </trkpt>
      <trkpt lat="44.19578" lon="3.2016">
        <ele>413</ele>
        <time>2017-02-27T22:58:18Z</time>
      </trkpt>
      <trkpt lat="44.19648" lon="3.20127">
        <ele>430</ele>
        <time>2017-02-27T23:00:18Z</time>
      </trkpt>
      <trkpt lat="44.19682" lon="3.20049">
        <ele>431</ele>
        <time>2017-02-27T23:02:18Z</time>
      </trkpt>
      <trkpt lat="44.19836" lon="3.19998">
        <ele>458</ele>
        <time>2017-02-27T23:04:18Z</time>
      </trkpt>
      <trkpt lat="44.19857" lon="3.19923">
        <ele>456</ele>
        <time>2017-02-27T23:06:18Z</time>
      </trkpt>
      <trkpt lat="44.2001" lon="3.1983">
        <ele>476</ele>
        <time>2017-02-27T23:08:18Z</time>
      </trkpt>
      <trkpt lat="44.20048" lon="3.19736">
        <ele>481</ele>
        <time>2017-02-27T23:10:18Z</time>
      </trkpt>
      <trkpt lat="44.20033" lon="3.19676">
        <ele>479</ele>
        <time>2017-02-27T23:12:18Z</time>
      </trkpt>
      <trkpt lat="44.20064" lon="3.19612">
        <ele>485</ele>
        <time>2017-02-27T23:14:18Z</time>
      </trkpt>
      <trkpt lat="44.20076" lon="3.19571">
        <ele>485</ele>
        <time>2017-02-27T23:16:18Z</time>
      </trkpt>
      <trkpt lat="44.20172" lon="3.19476">
        <ele>494</ele>
        <time>2017-02-27T23:18:18Z</time>
      </trkpt>
      <trkpt lat="44.20198" lon="3.19387">
        <ele>491</ele>
        <time>2017-02-27T23:20:18Z</time>
      </trkpt>
      <trkpt lat="44.20244" lon="3.19349">
        <ele>495</ele>
        <time>2017-02-27T23:22:18Z</time>
      </trkpt>
      <trkpt lat="44.20344" lon="3.19274">
        <ele>489</ele>
        <time>2017-02-27T23:24:18Z</time>
      </trkpt>
      <trkpt lat="44.20416" lon="3.19317">
        <ele>490</ele>
        <time>2017-02-27T23:26:18Z</time>
      </trkpt>
      <trkpt lat="44.2044" lon="3.19306">
        <ele>488</ele>
        <time>2017-02-27T23:28:18Z</time>
      </trkpt>
      <trkpt lat="44.20482" lon="3.19254">
        <ele>482</ele>
        <time>2017-02-27T23:30:18Z</time>
      </trkpt>
      <trkpt lat="44.20482" lon="3.19165">
        <ele>474</ele>
        <time>2017-02-27T23:32:18Z</time>
      </trkpt>
      <trkpt lat="44.2064" lon="3.19002">
        <ele>474</ele>
        <time>2017-02-27T23:34:18Z</time>
      </trkpt>
      <trkpt lat="44.20656" lon="3.18967">
        <ele>470</ele>
        <time>2017-02-27T23:36:18Z</time>
      </trkpt>
      <trkpt lat="44.20808" lon="3.18842">
        <ele>475</ele>
        <time>2017-02-27T23:38:18Z</time>
      </trkpt>
      <trkpt lat="44.20809" lon="3.18832">
        <ele>474</ele>
        <time>2017-02-27T23:40:18Z</time>
      </trkpt>
      <trkpt lat="44.20918" lon="3.18796">
        <ele>485</ele>
        <time>2017-02-27T23:42:18Z</time>
      </trkpt>
      <trkpt lat="44.20962" lon="3.18731">
        <ele>484</ele>
        <time>2017-02-27T23:44:18Z</time>
      </trkpt>
      <trkpt lat="44.21091" lon="3.18707">
        <ele>484</ele>
        <time>2017-02-27T23:46:18Z</time>
      </trkpt>
      <trkpt lat="44.21179" lon="3.18596">
        <ele>479</ele>
        <time>2017-02-27T23:48:18Z</time>
      </trkpt>
      <trkpt lat="44.21343" lon="3.18538">
        <ele>500</ele>
        <time>2017-02-27T23:50:18Z</time>
      </trkpt>
      <trkpt lat="44.21425" lon="3.18555">
        <ele>505</ele>
        <time>2017-02-27T23:52:18Z</time>
      </trkpt>
      <trkpt lat="44.21601" lon="3.18389">
        <ele>522</ele>
        <time>2017-02-27T23:54:18Z</time>
      </trkpt>
      <trkpt lat="44.21637" lon="3.18387">
        <ele>523</ele>
        <time>2017-02-27T23:56:18Z</time>
      </trkpt>
      <trkpt lat="44.21656" lon="3.18312">
        <ele>530</ele>
        <time>2017-02-27T23:58:18Z</time>
      </trkpt>
      <trkpt lat="44.21768" lon="3.18236">
        <ele>541</ele>
        <time>2017-02-28T00:00:18Z</time>
      </trkpt>
      <trkpt lat="44.21828" lon="3.18138">
        <ele>554</ele>
        <time>2017-02-28T00:02:18Z</time>
      </trkpt>
      <trkpt lat="44.21912" lon="3.18073">
        <ele>576</ele>
        <time>2017-02-28T00:04:18Z</time>
      </trkpt>
      <trkpt lat="44.21938" lon="3.1815">
        <ele>566</ele>
        <time>2017-02-28T00:06:18Z</time>
      </trkpt>
      <trkpt lat="44.21974" lon="3.18167">
        <ele>574</ele>
        <time>2017-02-28T00:08:18Z</time>
      </trkpt>
      <trkpt lat="44.21985" lon="3.18143">
        <ele>583</ele>
        <time>2017-02-28T00:10:18Z</time>
      </trkpt>
      <trkpt lat="44.22001" lon="3.18145">
        <ele>588</ele>
        <time>2017-02-28T00:12:18Z</time>
      </trkpt>
      <trkpt lat="44.22049" lon="3.18142">
        <ele>592</ele>
        <time>2017-02-28T00:14:18Z</time>
      </trkpt>
      <trkpt lat="44.22085" lon="3.18085">
        <ele>609</ele>
        <time>2017-02-28T00:16:18Z</time>
      </trkpt>
      <trkpt lat="44.22154" lon="3.17998">
        <ele>620</ele>
        <time>2017-02-28T00:18:18Z</time>
      </trkpt>
      <trkpt lat="44.22223" lon="3.17942">
        <ele>632</ele>
        <time>2017-02-28T00:20:18Z</time>
      </trkpt>
      <trkpt lat="44.22382" lon="3.17958">
        <ele>640</ele>
        <time>2017-02-28T00:22:18Z</time>
      </trkpt>
      <trkpt lat="44.22417" lon="3.17899">
        <ele>649</ele>
        <time>2017-02-28T00:24:18Z</time>
      </trkpt>
      <trkpt lat="44.22512" lon="3.1784">
        <ele>671</ele>
        <time>2017-02-28T00:26:18Z</time>
      </trkpt>
      <trkpt lat="44.22635" lon="3.17874">
        <ele>690</ele>
        <time>2017-02-28T00:28:18Z</time>
      </trkpt>
      <trkpt lat="44.22654" lon="3.17876">
        <ele>693</ele>
        <time>2017-02-28T00:30:18Z</time>
      </trkpt>
      <trkpt lat="44.22735" lon="3.17889">
        <ele>702</ele>
        <time>2017-02-28T00:32:18Z</time>
      </trkpt>
      <trkpt lat="44.22721" lon="3.17944">
        <ele>696</ele>
        <time>2017-02-28T00:34:18Z</time>
      </trkpt>
      <trkpt lat="44.22666" lon="3.17962">
        <ele>694</ele>
        <time>2017-02-28T00:36:18Z</time>
      </trkpt>
      <trkpt lat="44.22749" lon="3.17954">
        <ele>700</ele>
        <time>2017-02-28T00:38:18Z</time>
      </trkpt>
      <trkpt lat="44.22817" lon="3.17995">
        <ele>708</ele>
        <time>2017-02-28T00:40:18Z</time>
      </trkpt>
      <trkpt lat="44.22824" lon="3.18004">
        <ele>709</ele>
        <time>2017-02-28T00:42:18Z</time>
      </trkpt>
      <trkpt lat="44.22854" lon="3.18032">
        <ele>721</ele>
        <time>2017-02-28T00:44:18Z</time>
      </trkpt>
      <trkpt lat="44.22891" lon="3.18011">
        <ele>718</ele>
        <time>2017-02-28T00:46:18Z</time>
      </trkpt>
      <trkpt lat="44.22918" lon="3.17967">
        <ele>723</ele>
        <time>2017-02-28T00:48:18Z</time>
      </trkpt>
      <trkpt lat="44.22967" lon="3.1798">
        <ele>729</ele>
        <time>2017-02-28T00:50:18Z</time>
      </trkpt>
      <trkpt lat="44.23008" lon="3.17942">
        <ele>729</ele>
        <time>2017-02-28T00:52:18Z</time>
      </trkpt>
      <trkpt lat="44.23" lon="3.17907">
        <ele>727</ele>
        <time>2017-02-28T00:54:18Z</time>
      </trkpt>
      <trkpt lat="44.22863" lon="3.1794">
        <ele>719</ele>
        <time>2017-02-28T00:56:18Z</time>
      </trkpt>
      <trkpt lat="44.22923" lon="3.17884">
        <ele>739</ele>
        <time>2017-02-28T00:58:18Z</time>
      </trkpt>
      <trkpt lat="44.22995" lon="3.17851">
        <ele>747</ele>
        <time>2017-02-28T01:00:18Z</time>
      </trkpt>
      <trkpt lat="44.23005" lon="3.17851">
        <ele>748</ele>
        <time>2017-02-28T01:02:18Z</time>
      </trkpt>
      <trkpt lat="44.23097" lon="3.17902">
        <ele>746</ele>
        <time>2017-02-28T01:04:18Z</time>
      </trkpt>
      <trkpt lat="44.23148" lon="3.17886">
        <ele>757</ele>
        <time>2017-02-28T01:06:18Z</time>
      </trkpt>
      <trkpt lat="44.23261" lon="3.17903">
        <ele>760</ele>
        <time>2017-02-28T01:08:18Z</time>
      </trkpt>
      <trkpt lat="44.23332" lon="3.17812">
        <ele>776</ele>
        <time>2017-02-28T01:10:18Z</time>
      </trkpt>
      <trkpt lat="44.23393" lon="3.17785">
        <ele>780</ele>
        <time>2017-02-28T01:12:18Z</time>
      </trkpt>
      <trkpt lat="44.23515" lon="3.17634">
        <ele>793</ele>
        <time>2017-02-28T01:14:18Z</time>
      </trkpt>
      <trkpt lat="44.23628" lon="3.17653">
        <ele>798</ele>
        <time>2017-02-28T01:16:18Z</time>
      </trkpt>
      <trkpt lat="44.23867" lon="3.17424">
        <ele>826</ele>
        <time>2017-02-28T01:18:18Z</time>
      </trkpt>
      <trkpt lat="44.23975" lon="3.17229">
        <ele>839</ele>
        <time>2017-02-28T01:20:18Z</time>
      </trkpt>
      <trkpt lat="44.24113" lon="3.17035">
        <ele>849</ele>
        <time>2017-02-28T01:22:18Z</time>
      </trkpt>
      <trkpt lat="44.24232" lon="3.16938">
        <ele>855</ele>
        <time>2017-02-28T01:24:18Z</time>
      </trkpt>
      <trkpt lat="44.24285" lon="3.16965">
        <ele>856</ele>
        <time>2017-02-28T01:26:18Z</time>
      </trkpt>
      <trkpt lat="44.24329" lon="3.17059">
        <ele>856</ele>
        <time>2017-02-28T01:28:18Z</time>
      </trkpt>
      <trkpt lat="44.24333" lon="3.17135">
        <ele>854</ele>
        <time>2017-02-28T01:30:18Z</time>
      </trkpt>
      <trkpt lat="44.243" lon="3.17385">
        <ele>856</ele>
        <time>2017-02-28T01:32:18Z</time>
      </trkpt>
      <trkpt lat="44.24306" lon="3.17414">
        <ele>857</ele>
        <time>2017-02-28T01:34:18Z</time>
      </trkpt>
      <trkpt lat="44.24307" lon="3.17419">
        <ele>857</ele>
        <time>2017-02-28T01:36:18Z</time>
      </trkpt>
      <trkpt lat="44.24481" lon="3.17813">
        <ele>853</ele>
        <time>2017-02-28T01:38:18Z</time>
      </trkpt>
      <trkpt lat="44.24502" lon="3.18306">
        <ele>880</ele>
        <time>2017-02-28T01:40:18Z</time>
      </trkpt>
      <trkpt lat="44.24501" lon="3.18366">
        <ele>878</ele>
        <time>2017-02-28T01:42:18Z</time>
      </trkpt>
      <trkpt lat="44.24405" lon="3.18452">
        <ele>871</ele>
        <time>2017-02-28T01:44:18Z</time>
      </trkpt>
      <trkpt lat="44.24355" lon="3.18525">
        <ele>877</ele>
        <time>2017-02-28T01:46:18Z</time>
      </trkpt>
      <trkpt lat="44.2428" lon="3.18576">
        <ele>885</ele>
        <time>2017-02-28T01:48:18Z</time>
      </trkpt>
      <trkpt lat="44.24257" lon="3.18618">
        <ele>887</ele>
        <time>2017-02-28T01:50:18Z</time>
      </trkpt>
      <trkpt lat="44.24194" lon="3.18648">
        <ele>891</ele>
        <time>2017-02-28T01:52:18Z</time>
      </trkpt>
      <trkpt lat="44.2419" lon="3.18651">
        <ele>891</ele>
        <time>2017-02-28T01:54:18Z</time>
      </trkpt>
      <trkpt lat="44.2394" lon="3.19172">
        <ele>897</ele>
        <time>2017-02-28T01:56:18Z</time>
      </trkpt>
      <trkpt lat="44.23919" lon="3.19359">
        <ele>906</ele>
        <time>2017-02-28T01:58:18Z</time>
      </trkpt>
      <trkpt lat="44.23853" lon="3.1942">
        <ele>909</ele>
        <time>2017-02-28T02:00:18Z</time>
      </trkpt>
      <trkpt lat="44.23748" lon="3.19422">
        <ele>917</ele>
        <time>2017-02-28T02:02:18Z</time>
      </trkpt>
      <trkpt lat="44.23634" lon="3.19466">
        <ele>925</ele>
        <time>2017-02-28T02:04:18Z</time>
      </trkpt>
      <trkpt lat="44.2346" lon="3.19555">
        <ele>921</ele>
        <time>2017-02-28T02:06:18Z</time>
      </trkpt>
      <trkpt lat="44.23275" lon="3.19712">
        <ele>927</ele>
        <time>2017-02-28T02:08:18Z</time>
      </trkpt>
      <trkpt lat="44.23271" lon="3.19753">
        <ele>927</ele>
        <time>2017-02-28T02:10:18Z</time>
      </trkpt>
      <trkpt lat="44.23305" lon="3.19778">
        <ele>929</ele>
        <time>2017-02-28T02:12:18Z</time>
      </trkpt>
      <trkpt lat="44.2337" lon="3.19903">
        <ele>934</ele>
        <time>2017-02-28T02:14:18Z</time>
      </trkpt>
      <trkpt lat="44.2333" lon="3.19995">
        <ele>934</ele>
        <time>2017-02-28T02:16:18Z</time>
      </trkpt>
      <trkpt lat="44.23344" lon="3.20193">
        <ele>941</ele>
        <time>2017-02-28T02:18:18Z</time>
      </trkpt>
      <trkpt lat="44.23348" lon="3.20206">
        <ele>941</ele>
        <time>2017-02-28T02:20:18Z</time>
      </trkpt>
      <trkpt lat="44.23381" lon="3.20385">
        <ele>944</ele>
        <time>2017-02-28T02:22:18Z</time>
      </trkpt>
      <trkpt lat="44.23364" lon="3.2059">
        <ele>935</ele>
        <time>2017-02-28T02:24:18Z</time>
      </trkpt>
      <trkpt lat="44.23393" lon="3.20686">
        <ele>937</ele>
        <time>2017-02-28T02:26:18Z</time>
      </trkpt>
      <trkpt lat="44.23437" lon="3.20936">
        <ele>932</ele>
        <time>2017-02-28T02:28:18Z</time>
      </trkpt>
      <trkpt lat="44.23489" lon="3.20989">
        <ele>926</ele>
        <time>2017-02-28T02:30:18Z</time>
      </trkpt>
      <trkpt lat="44.23642" lon="3.21036">
        <ele>934</ele>
        <time>2017-02-28T02:32:18Z</time>
      </trkpt>
      <trkpt lat="44.23698" lon="3.21082">
        <ele>939</ele>
        <time>2017-02-28T02:34:18Z</time>
      </trkpt>
      <trkpt lat="44.237" lon="3.21086">
        <ele>939</ele>
        <time>2017-02-28T02:36:18Z</time>
      </trkpt>
      <trkpt lat="44.23549" lon="3.21399">
        <ele>943</ele>
        <time>2017-02-28T02:38:18Z</time>
      </trkpt>
      <trkpt lat="44.2351" lon="3.21524">
        <ele>939</ele>
        <time>2017-02-28T02:40:18Z</time>
      </trkpt>
      <trkpt lat="44.23481" lon="3.21806">
        <ele>915</ele>
        <time>2017-02-28T02:42:18Z</time>
      </trkpt>
      <trkpt lat="44.23458" lon="3.21943">
        <ele>894</ele>
        <time>2017-02-28T02:44:18Z</time>
      </trkpt>
      <trkpt lat="44.23438" lon="3.22026">
        <ele>875</ele>
        <time>2017-02-28T02:46:18Z</time>
      </trkpt>
      <trkpt lat="44.23404" lon="3.22067">
        <ele>863</ele>
        <time>2017-02-28T02:48:18Z</time>
      </trkpt>
      <trkpt lat="44.23269" lon="3.22095">
        <ele>830</ele>
        <time>2017-02-28T02:50:18Z</time>
      </trkpt>
      <trkpt lat="44.23214" lon="3.22074">
        <ele>819</ele>
        <time>2017-02-28T02:52:18Z</time>
      </trkpt>
      <trkpt lat="44.23186" lon="3.22023">
        <ele>822</ele>
        <time>2017-02-28T02:54:18Z</time>
      </trkpt>
      <trkpt lat="44.23127" lon="3.22014">
        <ele>822</ele>
        <time>2017-02-28T02:56:18Z</time>
      </trkpt>
      <trkpt lat="44.2309" lon="3.22069">
        <ele>809</ele>
        <time>2017-02-28T02:58:18Z</time>
      </trkpt>
      <trkpt lat="44.23046" lon="3.22095">
        <ele>804</ele>
        <time>2017-02-28T03:00:18Z</time>
      </trkpt>
      <trkpt lat="44.23022" lon="3.2212">
        <ele>797</ele>
        <time>2017-02-28T03:02:18Z</time>
      </trkpt>
      <trkpt lat="44.23012" lon="3.22127">
        <ele>795</ele>
        <time>2017-02-28T03:04:18Z</time>
      </trkpt>
      <trkpt lat="44.22961" lon="3.22128">
        <ele>787</ele>
        <time>2017-02-28T03:06:18Z</time>
      </trkpt>
      <trkpt lat="44.22832" lon="3.22069">
        <ele>763</ele>
        <time>2017-02-28T03:08:18Z</time>
      </trkpt>
      <trkpt lat="44.22856" lon="3.22096">
        <ele>767</ele>
        <time>2017-02-28T03:10:18Z</time>
      </trkpt>
      <trkpt lat="44.22878" lon="3.222">
        <ele>745</ele>
        <time>2017-02-28T03:12:18Z</time>
      </trkpt>
      <trkpt lat="44.22823" lon="3.2218">
        <ele>738</ele>
        <time>2017-02-28T03:14:18Z</time>
      </trkpt>
      <trkpt lat="44.22713" lon="3.21982">
        <ele>696</ele>
        <time>2017-02-28T03:16:18Z</time>
      </trkpt>
      <trkpt lat="44.22727" lon="3.21891">
        <ele>733</ele>
        <time>2017-02-28T03:18:18Z</time>
      </trkpt>
      <trkpt lat="44.22595" lon="3.21825">
        <ele>696</ele>
        <time>2017-02-28T03:20:18Z</time>
      </trkpt>
      <trkpt lat="44.22544" lon="3.21773">
        <ele>697</ele>
        <time>2017-02-28T03:22:18Z</time>
      </trkpt>
      <trkpt lat="44.22543" lon="3.21751">
        <ele>713</ele>
        <time>2017-02-28T03:24:18Z</time>
      </trkpt>
      <trkpt lat="44.2254" lon="3.21749">
        <ele>711</ele>
        <time>2017-02-28T03:26:18Z</time>
      </trkpt>
      <trkpt lat="44.22479" lon="3.21707">
        <ele>676</ele>
        <time>2017-02-28T03:28:18Z</time>
      </trkpt>
      <trkpt lat="44.22427" lon="3.21514">
        <ele>688</ele>
        <time>2017-02-28T03:30:18Z</time>
      </trkpt>
      <trkpt lat="44.2237" lon="3.21488">
        <ele>660</ele>
        <time>2017-02-28T03:32:18Z</time>
      </trkpt>
      <trkpt lat="44.22333" lon="3.21424">
        <ele>666</ele>
        <time>2017-02-28T03:34:18Z</time>
      </trkpt>
      <trkpt lat="44.22321" lon="3.21335">
        <ele>697</ele>
        <time>2017-02-28T03:36:18Z</time>
      </trkpt>
      <trkpt lat="44.22275" lon="3.21285">
        <ele>704</ele>
        <time>2017-02-28T03:38:18Z</time>
      </trkpt>
      <trkpt lat="44.22249" lon="3.2131">
        <ele>688</ele>
        <time>2017-02-28T03:40:18Z</time>
      </trkpt>
      <trkpt lat="44.22155" lon="3.21308">
        <ele>717</ele>
        <time>2017-02-28T03:42:18Z</time>
      </trkpt>
      <trkpt lat="44.22152" lon="3.2131">
        <ele>718</ele>
        <time>2017-02-28T03:44:18Z</time>
      </trkpt>
      <trkpt lat="44.21997" lon="3.21496">
        <ele>712</ele>
        <time>2017-02-28T03:46:18Z</time>
      </trkpt>
      <trkpt lat="44.2198" lon="3.2156">
        <ele>682</ele>
        <time>2017-02-28T03:48:18Z</time>
      </trkpt>
      <trkpt lat="44.21916" lon="3.21543">
        <ele>715</ele>
        <time>2017-02-28T03:50:18Z</time>
      </trkpt>
      <trkpt lat="44.21822" lon="3.21555">
        <ele>707</ele>
        <time>2017-02-28T03:52:18Z</time>
      </trkpt>
      <trkpt lat="44.2175" lon="3.21632">
        <ele>676</ele>
        <time>2017-02-28T03:54:18Z</time>
      </trkpt>
      <trkpt lat="44.21693" lon="3.21631">
        <ele>706</ele>
        <time>2017-02-28T03:56:18Z</time>
      </trkpt>
      <trkpt lat="44.21668" lon="3.21784">
        <ele>673</ele>
        <time>2017-02-28T03:58:18Z</time>
      </trkpt>
      <trkpt lat="44.21637" lon="3.21845">
        <ele>676</ele>
        <time>2017-02-28T04:00:18Z</time>
      </trkpt>
      <trkpt lat="44.21608" lon="3.21913">
        <ele>661</ele>
        <time>2017-02-28T04:02:18Z</time>
      </trkpt>
      <trkpt lat="44.21582" lon="3.21929">
        <ele>662</ele>
        <time>2017-02-28T04:04:18Z</time>
      </trkpt>
      <trkpt lat="44.21589" lon="3.21887">
        <ele>684</ele>
        <time>2017-02-28T04:06:18Z</time>
      </trkpt>
      <trkpt lat="44.21572" lon="3.21913">
        <ele>669</ele>
        <time>2017-02-28T04:08:18Z</time>
      </trkpt>
      <trkpt lat="44.21596" lon="3.21926">
        <ele>659</ele>
        <time>2017-02-28T04:10:18Z</time>
      </trkpt>
      <trkpt lat="44.21637" lon="3.21845">
        <ele>676</ele>
        <time>2017-02-28T04:12:18Z</time>
      </trkpt>
      <trkpt lat="44.21646" lon="3.21822">
        <ele>678</ele>
        <time>2017-02-28T04:14:18Z</time>
      </trkpt>
      <trkpt lat="44.21668" lon="3.21784">
        <ele>673</ele>
        <time>2017-02-28T04:16:18Z</time>
      </trkpt>
      <trkpt lat="44.21691" lon="3.21633">
        <ele>706</ele>
        <time>2017-02-28T04:18:18Z</time>
      </trkpt>
      <trkpt lat="44.2175" lon="3.21632">
        <ele>676</ele>
        <time>2017-02-28T04:20:18Z</time>
      </trkpt>
      <trkpt lat="44.21826" lon="3.21554">
        <ele>706</ele>
        <time>2017-02-28T04:22:18Z</time>
      </trkpt>
      <trkpt lat="44.21916" lon="3.21543">
        <ele>715</ele>
        <time>2017-02-28T04:24:18Z</time>
      </trkpt>
      <trkpt lat="44.21977" lon="3.21561">
        <ele>682</ele>
        <time>2017-02-28T04:26:18Z</time>
      </trkpt>
      <trkpt lat="44.21826" lon="3.21554">
        <ele>706</ele>
        <time>2017-02-28T04:28:18Z</time>
      </trkpt>
      <trkpt lat="44.2175" lon="3.21632">
        <ele>676</ele>
        <time>2017-02-28T04:30:18Z</time>
      </trkpt>
      <trkpt lat="44.21693" lon="3.21631">
        <ele>706</ele>
        <time>2017-02-28T04:32:18Z</time>
      </trkpt>
      <trkpt lat="44.21668" lon="3.21784">
        <ele>673</ele>
        <time>2017-02-28T04:34:18Z</time>
      </trkpt>
      <trkpt lat="44.21637" lon="3.21845">
        <ele>676</ele>
        <time>2017-02-28T04:36:18Z</time>
      </trkpt>
      <trkpt lat="44.21608" lon="3.21913">
        <ele>661</ele>
        <time>2017-02-28T04:38:18Z</time>
      </trkpt>
      <trkpt lat="44.21582" lon="3.21929">
        <ele>662</ele>
        <time>2017-02-28T04:40:18Z</time>
      </trkpt>
      <trkpt lat="44.21531" lon="3.21885">
        <ele>675</ele>
        <time>2017-02-28T04:42:18Z</time>
      </trkpt>
      <trkpt lat="44.21434" lon="3.21878">
        <ele>650</ele>
        <time>2017-02-28T04:44:18Z</time>
      </trkpt>
      <trkpt lat="44.21403" lon="3.21805">
        <ele>672</ele>
        <time>2017-02-28T04:46:18Z</time>
      </trkpt>
      <trkpt lat="44.21321" lon="3.2175">
        <ele>681</ele>
        <time>2017-02-28T04:48:18Z</time>
      </trkpt>
      <trkpt lat="44.21318" lon="3.21751">
        <ele>680</ele>
        <time>2017-02-28T04:50:18Z</time>
      </trkpt>
      <trkpt lat="44.21265" lon="3.21807">
        <ele>650</ele>
        <time>2017-02-28T04:52:18Z</time>
      </trkpt>
      <trkpt lat="44.21192" lon="3.21764">
        <ele>656</ele>
        <time>2017-02-28T04:54:18Z</time>
      </trkpt>
      <trkpt lat="44.21066" lon="3.21744">
        <ele>622</ele>
        <time>2017-02-28T04:56:18Z</time>
      </trkpt>
      <trkpt lat="44.21022" lon="3.21654">
        <ele>619</ele>
        <time>2017-02-28T04:58:18Z</time>
      </trkpt>
      <trkpt lat="44.21089" lon="3.2157">
        <ele>637</ele>
        <time>2017-02-28T05:00:18Z</time>
      </trkpt>
      <trkpt lat="44.2112" lon="3.21498">
        <ele>639</ele>
        <time>2017-02-28T05:02:18Z</time>
      </trkpt>
      <trkpt lat="44.21107" lon="3.21336">
        <ele>650</ele>
        <time>2017-02-28T05:04:18Z</time>
      </trkpt>
      <trkpt lat="44.21101" lon="3.21328">
        <ele>649</ele>
        <time>2017-02-28T05:06:18Z</time>
      </trkpt>
      <trkpt lat="44.20922" lon="3.21243">
        <ele>631</ele>
        <time>2017-02-28T05:08:18Z</time>
      </trkpt>
      <trkpt lat="44.20857" lon="3.21242">
        <ele>606</ele>
        <time>2017-02-28T05:10:18Z</time>
      </trkpt>
      <trkpt lat="44.20852" lon="3.21068">
        <ele>624</ele>
        <time>2017-02-28T05:12:18Z</time>
      </trkpt>
      <trkpt lat="44.20754" lon="3.20998">
        <ele>617</ele>
        <time>2017-02-28T05:14:18Z</time>
      </trkpt>
      <trkpt lat="44.20647" lon="3.21074">
        <ele>608</ele>
        <time>2017-02-28T05:16:18Z</time>
      </trkpt>
      <trkpt lat="44.20574" lon="3.21164">
        <ele>592</ele>
        <time>2017-02-28T05:18:18Z</time>
      </trkpt>
      <trkpt lat="44.20546" lon="3.21176">
        <ele>597</ele>
        <time>2017-02-28T05:20:18Z</time>
      </trkpt>
      <trkpt lat="44.20494" lon="3.21251">
        <ele>584</ele>
        <time>2017-02-28T05:22:18Z</time>
      </trkpt>
      <trkpt lat="44.2043" lon="3.21271">
        <ele>575</ele>
        <time>2017-02-28T05:24:18Z</time>
      </trkpt>
      <trkpt lat="44.20295" lon="3.21185">
        <ele>568</ele>
        <time>2017-02-28T05:26:18Z</time>
      </trkpt>
      <trkpt lat="44.20292" lon="3.21068">
        <ele>591</ele>
        <time>2017-02-28T05:28:18Z</time>
      </trkpt>
      <trkpt lat="44.2015" lon="3.2099">
        <ele>579</ele>
        <time>2017-02-28T05:30:18Z</time>
      </trkpt>
      <trkpt lat="44.20065" lon="3.20985">
        <ele>574</ele>
        <time>2017-02-28T05:32:18Z</time>
      </trkpt>
      <trkpt lat="44.20004" lon="3.20974">
        <ele>575</ele>
        <time>2017-02-28T05:34:18Z</time>
      </trkpt>
      <trkpt lat="44.19944" lon="3.20948">
        <ele>571</ele>
        <time>2017-02-28T05:36:18Z</time>
      </trkpt>
      <trkpt lat="44.19876" lon="3.2089">
        <ele>558</ele>
        <time>2017-02-28T05:38:18Z</time>
      </trkpt>
      <trkpt lat="44.19821" lon="3.20881">
        <ele>541</ele>
        <time>2017-02-28T05:40:18Z</time>
      </trkpt>
      <trkpt lat="44.19737" lon="3.20794">
        <ele>511</ele>
        <time>2017-02-28T05:42:18Z</time>
      </trkpt>
      <trkpt lat="44.19708" lon="3.2072">
        <ele>493</ele>
        <time>2017-02-28T05:44:18Z</time>
      </trkpt>
      <trkpt lat="44.19724" lon="3.20541">
        <ele>478</ele>
        <time>2017-02-28T05:46:18Z</time>
      </trkpt>
      <trkpt lat="44.1969" lon="3.20418">
        <ele>460</ele>
        <time>2017-02-28T05:48:18Z</time>
      </trkpt>
      <trkpt lat="44.19652" lon="3.20385">
        <ele>448</ele>
        <time>2017-02-28T05:50:18Z</time>
      </trkpt>
      <trkpt lat="44.19634" lon="3.2041">
        <ele>443</ele>
        <time>2017-02-28T05:52:18Z</time>
      </trkpt>
      <trkpt lat="44.19646" lon="3.20428">
        <ele>446</ele>
        <time>2017-02-28T05:54:18Z</time>
      </trkpt>
      <trkpt lat="44.19617" lon="3.20408">
        <ele>438</ele>
        <time>2017-02-28T05:56:18Z</time>
      </trkpt>
      <trkpt lat="44.19609" lon="3.20497">
        <ele>432</ele>
        <time>2017-02-28T05:58:18Z</time>
      </trkpt>
      <trkpt lat="44.19545" lon="3.20519">
        <ele>415</ele>
        <time>2017-02-28T06:00:18Z</time>
      </trkpt>
      <trkpt lat="44.19451" lon="3.20469">
        <ele>396</ele>
        <time>2017-02-28T06:02:18Z</time>
      </trkpt>
      <trkpt lat="44.19448" lon="3.20769">
        <ele>400</ele>
        <time>2017-02-28T06:04:18Z</time>
      </trkpt>
      <trkpt lat="44.19421" lon="3.20805">
        <ele>394</ele>
        <time>2017-02-28T06:06:18Z</time>
      </trkpt>
      <trkpt lat="44.1932" lon="3.20843">
        <ele>411</ele>
        <time>2017-02-28T06:08:18Z</time>
      </trkpt>
      <trkpt lat="44.19185" lon="3.20613">
        <ele>400</ele>
        <time>2017-02-28T06:10:18Z</time>
      </trkpt>
      <trkpt lat="44.19146" lon="3.20614">
        <ele>401</ele>
        <time>2017-02-28T06:12:18Z</time>
      </trkpt>
      <trkpt lat="44.19086" lon="3.20638">
        <ele>400</ele>
        <time>2017-02-28T06:14:18Z</time>
      </trkpt>
      <trkpt lat="44.18889" lon="3.20661">
        <ele>433</ele>
        <time>2017-02-28T06:16:18Z</time>
      </trkpt>
      <trkpt lat="44.18785" lon="3.20527">
        <ele>452</ele>
        <time>2017-02-28T06:18:18Z</time>
      </trkpt>
      <trkpt lat="44.18678" lon="3.20482">
        <ele>456</ele>
        <time>2017-02-28T06:20:18Z</time>
      </trkpt>
      <trkpt lat="44.18575" lon="3.20346">
        <ele>466</ele>
        <time>2017-02-28T06:22:18Z</time>
      </trkpt>
      <trkpt lat="44.18567" lon="3.20372">
        <ele>469</ele>
        <time>2017-02-28T06:24:18Z</time>
      </trkpt>
      <trkpt lat="44.18616" lon="3.20526">
        <ele>480</ele>
        <time>2017-02-28T06:26:18Z</time>
      </trkpt>
      <trkpt lat="44.18687" lon="3.20607">
        <ele>470</ele>
        <time>2017-02-28T06:28:18Z</time>
      </trkpt>
      <trkpt lat="44.18643" lon="3.20727">
        <ele>492</ele>
        <time>2017-02-28T06:30:18Z</time>
      </trkpt>
      <trkpt lat="44.18633" lon="3.20829">
        <ele>492</ele>
        <time>2017-02-28T06:32:18Z</time>
      </trkpt>
      <trkpt lat="44.18576" lon="3.20985">
        <ele>502</ele>
        <time>2017-02-28T06:34:18Z</time>
      </trkpt>
      <trkpt lat="44.18515" lon="3.21061">
        <ele>505</ele>
        <time>2017-02-28T06:36:18Z</time>
      </trkpt>
      <trkpt lat="44.18388" lon="3.21091">
        <ele>546</ele>
        <time>2017-02-28T06:38:18Z</time>
      </trkpt>
      <trkpt lat="44.18345" lon="3.21145">
        <ele>538</ele>
        <time>2017-02-28T06:40:18Z</time>
      </trkpt>
      <trkpt lat="44.18386" lon="3.21081">
        <ele>553</ele>
        <time>2017-02-28T06:42:18Z</time>
      </trkpt>
      <trkpt lat="44.18474" lon="3.21042">
        <ele>532</ele>
        <time>2017-02-28T06:44:18Z</time>
      </trkpt>
      <trkpt lat="44.18516" lon="3.20957">
        <ele>538</ele>
        <time>2017-02-28T06:46:18Z</time>
      </trkpt>
      <trkpt lat="44.18549" lon="3.20806">
        <ele>544</ele>
        <time>2017-02-28T06:48:18Z</time>
      </trkpt>
      <trkpt lat="44.18548" lon="3.20661">
        <ele>545</ele>
        <time>2017-02-28T06:50:18Z</time>
      </trkpt>
      <trkpt lat="44.1849" lon="3.20613">
        <ele>563</ele>
        <time>2017-02-28T06:52:18Z</time>
      </trkpt>
      <trkpt lat="44.18394" lon="3.20489">
        <ele>562</ele>
        <time>2017-02-28T06:54:18Z</time>
      </trkpt>
      <trkpt lat="44.18157" lon="3.20446">
        <ele>593</ele>
        <time>2017-02-28T06:56:18Z</time>
      </trkpt>
      <trkpt lat="44.18087" lon="3.20358">
        <ele>601</ele>
        <time>2017-02-28T06:58:18Z</time>
      </trkpt>
      <trkpt lat="44.18083" lon="3.20378">
        <ele>607</ele>
        <time>2017-02-28T07:00:18Z</time>
      </trkpt>
      <trkpt lat="44.18142" lon="3.20464">
        <ele>608</ele>
        <time>2017-02-28T07:02:18Z</time>
      </trkpt>
      <trkpt lat="44.18361" lon="3.20575">
        <ele>612</ele>
        <time>2017-02-28T07:04:18Z</time>
      </trkpt>
      <trkpt lat="44.18447" lon="3.20733">
        <ele>617</ele>
        <time>2017-02-28T07:06:18Z</time>
      </trkpt>
      <trkpt lat="44.18433" lon="3.20808">
        <ele>626</ele>
        <time>2017-02-28T07:08:18Z</time>
      </trkpt>
      <trkpt lat="44.1843" lon="3.20729">
        <ele>628</ele>
        <time>2017-02-28T07:10:18Z</time>
      </trkpt>
      <trkpt lat="44.18343" lon="3.20632">
        <ele>645</ele>
        <time>2017-02-28T07:12:18Z</time>
      </trkpt>
      <trkpt lat="44.18184" lon="3.20599">
        <ele>664</ele>
        <time>2017-02-28T07:14:18Z</time>
      </trkpt>
      <trkpt lat="44.1804" lon="3.20524">
        <ele>673</ele>
        <time>2017-02-28T07:16:18Z</time>
      </trkpt>
      <trkpt lat="44.18012" lon="3.20483">
        <ele>665</ele>
        <time>2017-02-28T07:18:18Z</time>
      </trkpt>
      <trkpt lat="44.17927" lon="3.20556">
        <ele>684</ele>
        <time>2017-02-28T07:20:18Z</time>
      </trkpt>
      <trkpt lat="44.17856" lon="3.20646">
        <ele>689</ele>
        <time>2017-02-28T07:22:18Z</time>
      </trkpt>
      <trkpt lat="44.1786" lon="3.20741">
        <ele>701</ele>
        <time>2017-02-28T07:24:18Z</time>
      </trkpt>
      <trkpt lat="44.178" lon="3.20779">
        <ele>701</ele>
        <time>2017-02-28T07:26:18Z</time>
      </trkpt>
      <trkpt lat="44.17763" lon="3.20837">
        <ele>707</ele>
        <time>2017-02-28T07:28:18Z</time>
      </trkpt>
      <trkpt lat="44.17675" lon="3.20921">
        <ele>715</ele>
        <time>2017-02-28T07:30:18Z</time>
      </trkpt>
      <trkpt lat="44.176" lon="3.20865">
        <ele>713</ele>
        <time>2017-02-28T07:32:18Z</time>
      </trkpt>
      <trkpt lat="44.1733" lon="3.20779">
        <ele>735</ele>
        <time>2017-02-28T07:34:18Z</time>
      </trkpt>
      <trkpt lat="44.17145" lon="3.2096">
        <ele>736</ele>
        <time>2017-02-28T07:36:18Z</time>
      </trkpt>
      <trkpt lat="44.16912" lon="3.21058">
        <ele>733</ele>
        <time>2017-02-28T07:38:18Z</time>
      </trkpt>
      <trkpt lat="44.16877" lon="3.21056">
        <ele>733</ele>
        <time>2017-02-28T07:40:18Z</time>
      </trkpt>
      <trkpt lat="44.16746" lon="3.20947">
        <ele>740</ele>
        <time>2017-02-28T07:42:18Z</time>
      </trkpt>
      <trkpt lat="44.16691" lon="3.20951">
        <ele>744</ele>
        <time>2017-02-28T07:44:18Z</time>
      </trkpt>
      <trkpt lat="44.16581" lon="3.21127">
        <ele>751</ele>
        <time>2017-02-28T07:46:18Z</time>
      </trkpt>
      <trkpt lat="44.16549" lon="3.21243">
        <ele>759</ele>
        <time>2017-02-28T07:48:18Z</time>
      </trkpt>
      <trkpt lat="44.16231" lon="3.21427">
        <ele>766</ele>
        <time>2017-02-28T07:50:18Z</time>
      </trkpt>
      <trkpt lat="44.16294" lon="3.21541">
        <ele>777</ele>
        <time>2017-02-28T07:52:18Z</time>
      </trkpt>
      <trkpt lat="44.16392" lon="3.21586">
        <ele>778</ele>
        <time>2017-02-28T07:54:18Z</time>
      </trkpt>
      <trkpt lat="44.16405" lon="3.21616">
        <ele>780</ele>
        <time>2017-02-28T07:56:18Z</time>
      </trkpt>
      <trkpt lat="44.16315" lon="3.2203">
        <ele>798</ele>
        <time>2017-02-28T07:58:18Z</time>
      </trkpt>
      <trkpt lat="44.16332" lon="3.22075">
        <ele>800</ele>
        <time>2017-02-28T08:00:18Z</time>
      </trkpt>
      <trkpt lat="44.16379" lon="3.2211">
        <ele>802</ele>
        <time>2017-02-28T08:02:18Z</time>
      </trkpt>
      <trkpt lat="44.16375" lon="3.22226">
        <ele>811</ele>
        <time>2017-02-28T08:04:18Z</time>
      </trkpt>
      <trkpt lat="44.16455" lon="3.22213">
        <ele>809</ele>
        <time>2017-02-28T08:06:18Z</time>
      </trkpt>
      <trkpt lat="44.16549" lon="3.22275">
        <ele>817</ele>
        <time>2017-02-28T08:08:18Z</time>
      </trkpt>
      <trkpt lat="44.16843" lon="3.22333">
        <ele>835</ele>
        <time>2017-02-28T08:10:18Z</time>
      </trkpt>
      <trkpt lat="44.16965" lon="3.22451">
        <ele>841</ele>
        <time>2017-02-28T08:12:18Z</time>
      </trkpt>
      <trkpt lat="44.1697" lon="3.22487">
        <ele>844</ele>
        <time>2017-02-28T08:14:18Z</time>
      </trkpt>
      <trkpt lat="44.16965" lon="3.22451">
        <ele>841</ele>
        <time>2017-02-28T08:16:18Z</time>
      </trkpt>
      <trkpt lat="44.16933" lon="3.22426">
        <ele>839</ele>
        <time>2017-02-28T08:18:18Z</time>
      </trkpt>
      <trkpt lat="44.16972" lon="3.22464">
        <ele>842</ele>
        <time>2017-02-28T08:20:18Z</time>
      </trkpt>
      <trkpt lat="44.16976" lon="3.22513">
        <ele>846</ele>
        <time>2017-02-28T08:22:18Z</time>
      </trkpt>
      <trkpt lat="44.1703" lon="3.22511">
        <ele>845</ele>
        <time>2017-02-28T08:24:18Z</time>
      </trkpt>
      <trkpt lat="44.17105" lon="3.22571">
        <ele>849</ele>
        <time>2017-02-28T08:26:18Z</time>
      </trkpt>
      <trkpt lat="44.17195" lon="3.22558">
        <ele>840</ele>
        <time>2017-02-28T08:28:18Z</time>
      </trkpt>
      <trkpt lat="44.17137" lon="3.22878">
        <ele>836</ele>
        <time>2017-02-28T08:30:18Z</time>
      </trkpt>
      <trkpt lat="44.17188" lon="3.23004">
        <ele>818</ele>
        <time>2017-02-28T08:32:18Z</time>
      </trkpt>
      <trkpt lat="44.17152" lon="3.23101">
        <ele>822</ele>
        <time>2017-02-28T08:34:18Z</time>
      </trkpt>
      <trkpt lat="44.17206" lon="3.23174">
        <ele>811</ele>
        <time>2017-02-28T08:36:18Z</time>
      </trkpt>
      <trkpt lat="44.17339" lon="3.23165">
        <ele>797</ele>
        <time>2017-02-28T08:38:18Z</time>
      </trkpt>
      <trkpt lat="44.17639" lon="3.22985">
        <ele>800</ele>
        <time>2017-02-28T08:40:18Z</time>
      </trkpt>
      <trkpt lat="44.17643" lon="3.23067">
        <ele>813</ele>
        <time>2017-02-28T08:42:18Z</time>
      </trkpt>
      <trkpt lat="44.17607" lon="3.23112">
        <ele>814</ele>
        <time>2017-02-28T08:44:18Z</time>
      </trkpt>
      <trkpt lat="44.17564" lon="3.23228">
        <ele>828</ele>
        <time>2017-02-28T08:46:18Z</time>
      </trkpt>
      <trkpt lat="44.17517" lon="3.23438">
        <ele>848</ele>
        <time>2017-02-28T08:48:18Z</time>
      </trkpt>
      <trkpt lat="44.17538" lon="3.2355">
        <ele>861</ele>
        <time>2017-02-28T08:50:18Z</time>
      </trkpt>
      <trkpt lat="44.1763" lon="3.23309">
        <ele>845</ele>
        <time>2017-02-28T08:52:18Z</time>
      </trkpt>
      <trkpt lat="44.17729" lon="3.23172">
        <ele>838</ele>
        <time>2017-02-28T08:54:18Z</time>
      </trkpt>
      <trkpt lat="44.17824" lon="3.23107">
        <ele>841</ele>
        <time>2017-02-28T08:56:18Z</time>
      </trkpt>
      <trkpt lat="44.17847" lon="3.23037">
        <ele>843</ele>
        <time>2017-02-28T08:58:18Z</time>
      </trkpt>
      <trkpt lat="44.17839" lon="3.22914">
        <ele>845</ele>
        <time>2017-02-28T09:00:18Z</time>
      </trkpt>
      <trkpt lat="44.17897" lon="3.22794">
        <ele>849</ele>
        <time>2017-02-28T09:02:18Z</time>
      </trkpt>
      <trkpt lat="44.17957" lon="3.22743">
        <ele>848</ele>
        <time>2017-02-28T09:04:18Z</time>
      </trkpt>
      <trkpt lat="44.17986" lon="3.22656">
        <ele>845</ele>
        <time>2017-02-28T09:06:18Z</time>
      </trkpt>
      <trkpt lat="44.18092" lon="3.22543">
        <ele>842</ele>
        <time>2017-02-28T09:08:18Z</time>
      </trkpt>
      <trkpt lat="44.18113" lon="3.22494">
        <ele>841</ele>
        <time>2017-02-28T09:10:18Z</time>
      </trkpt>
      <trkpt lat="44.18246" lon="3.22412">
        <ele>840</ele>
        <time>2017-02-28T09:12:18Z</time>
      </trkpt>
      <trkpt lat="44.18255" lon="3.22333">
        <ele>837</ele>
        <time>2017-02-28T09:14:18Z</time>
      </trkpt>
      <trkpt lat="44.18229" lon="3.22314">
        <ele>834</ele>
        <time>2017-02-28T09:16:18Z</time>
      </trkpt>
      <trkpt lat="44.18199" lon="3.22344">
        <ele>833</ele>
        <time>2017-02-28T09:18:18Z</time>
      </trkpt>
      <trkpt lat="44.18137" lon="3.22339">
        <ele>831</ele>
        <time>2017-02-28T09:20:18Z</time>
      </trkpt>
      <trkpt lat="44.1812" lon="3.22288">
        <ele>826</ele>
        <time>2017-02-28T09:22:18Z</time>
      </trkpt>
      <trkpt lat="44.18036" lon="3.22241">
        <ele>818</ele>
        <time>2017-02-28T09:24:18Z</time>
      </trkpt>
      <trkpt lat="44.18015" lon="3.21878">
        <ele>773</ele>
        <time>2017-02-28T09:26:18Z</time>
      </trkpt>
      <trkpt lat="44.18079" lon="3.21917">
        <ele>766</ele>
        <time>2017-02-28T09:28:18Z</time>
      </trkpt>
      <trkpt lat="44.18109" lon="3.21981">
        <ele>779</ele>
        <time>2017-02-28T09:30:18Z</time>
      </trkpt>
      <trkpt lat="44.18158" lon="3.21887">
        <ele>752</ele>
        <time>2017-02-28T09:32:18Z</time>
      </trkpt>
      <trkpt lat="44.18208" lon="3.21852">
        <ele>746</ele>
        <time>2017-02-28T09:34:18Z</time>
      </trkpt>
      <trkpt lat="44.18242" lon="3.21792">
        <ele>730</ele>
        <time>2017-02-28T09:36:18Z</time>
      </trkpt>
      <trkpt lat="44.1827" lon="3.21801">
        <ele>736</ele>
        <time>2017-02-28T09:38:18Z</time>
      </trkpt>
      <trkpt lat="44.18381" lon="3.21702">
        <ele>693</ele>
        <time>2017-02-28T09:40:18Z</time>
      </trkpt>
      <trkpt lat="44.18386" lon="3.21681">
        <ele>686</ele>
        <time>2017-02-28T09:42:18Z</time>
      </trkpt>
      <trkpt lat="44.18457" lon="3.21921">
        <ele>681</ele>
        <time>2017-02-28T09:44:18Z</time>
      </trkpt>
      <trkpt lat="44.18484" lon="3.21938">
        <ele>676</ele>
        <time>2017-02-28T09:46:18Z</time>
      </trkpt>
      <trkpt lat="44.1857" lon="3.21912">
        <ele>653</ele>
        <time>2017-02-28T09:48:18Z</time>
      </trkpt>
      <trkpt lat="44.18504" lon="3.21859">
        <ele>642</ele>
        <time>2017-02-28T09:50:18Z</time>
      </trkpt>
      <trkpt lat="44.18551" lon="3.21841">
        <ele>623</ele>
        <time>2017-02-28T09:52:18Z</time>
      </trkpt>
      <trkpt lat="44.18562" lon="3.21803">
        <ele>608</ele>
        <time>2017-02-28T09:54:18Z</time>
      </trkpt>
      <trkpt lat="44.1862" lon="3.2179">
        <ele>592</ele>
        <time>2017-02-28T09:56:18Z</time>
      </trkpt>
      <trkpt lat="44.18598" lon="3.21764">
        <ele>585</ele>
        <time>2017-02-28T09:58:18Z</time>
      </trkpt>
      <trkpt lat="44.18695" lon="3.21635">
        <ele>529</ele>
        <time>2017-02-28T10:00:18Z</time>
      </trkpt>
      <trkpt lat="44.18742" lon="3.21417">
        <ele>465</ele>
        <time>2017-02-28T10:02:18Z</time>
      </trkpt>
      <trkpt lat="44.18894" lon="3.21191">
        <ele>419</ele>
        <time>2017-02-28T10:04:18Z</time>
      </trkpt>
      <trkpt lat="44.18899" lon="3.21151">
        <ele>416</ele>
        <time>2017-02-28T10:06:18Z</time>
      </trkpt>
      <trkpt lat="44.18952" lon="3.21121">
        <ele>407</ele>
        <time>2017-02-28T10:08:18Z</time>
      </trkpt>
      <trkpt lat="44.19207" lon="3.20909">
        <ele>439</ele>
        <time>2017-02-28T10:10:18Z</time>
      </trkpt>
    </trkseg>
  </trk>
</gpx>